<?xml version="1.0" encoding="UTF-8"?>
<gpx version="1.1" creator="https://www.youtrack.es" xsi:schemaLocation="http://www.topografix.com/GPX/1/1 http://www.topografix.com/GPX/1/1/gpx.xsd http://www.garmin.com/xmlschemas/GpxExtensions/v3 http://www.garmin.com/xmlschemas/GpxExtensionsv3.xsd http://www.garmin.com/xmlschemas/TrackPointExtension/v1 http://www.garmin.com/xmlschemas/TrackPointExtensionv1.xsd" xmlns:gpxtpx="http://www.garmin.com/xmlschemas/TrackPointExtension/v1" xmlns:gpxx="http://www.garmin.com/xmlschemas/GpxExtensions/v3" xmlns:xsi="http://www.w3.org/2001/XMLSchema-instance">
  <metadata>
    <link href="https://www.youtrack.es">
      <text>YouTrack.es</text>
    </link>
    <time>2026-05-08T21:08:18Z</time>
  </metadata>
  <trk>
    <src>https://www.youtrack.es</src>
    <link href="https://www.youtrack.es/ruta/2179-camino-del-norte-1">
      <text>YouTrack.es</text>
    </link>
    <trkseg>
      <trkpt lat="43.37476196698844432830810546875" lon="-1.7984561808407306671142578125">
        <ele>0</ele>
        <time>2018-09-02T07:13:11.000Z</time>
      </trkpt>
      <trkpt lat="43.3747006952762603759765625" lon="-1.7985027842223644256591796875">
        <ele>0.60000002384185791015625</ele>
        <time>2018-09-02T07:13:15.000Z</time>
      </trkpt>
      <trkpt lat="43.374624587595462799072265625" lon="-1.79854863323271274566650390625">
        <ele>0.800000011920928955078125</ele>
        <time>2018-09-02T07:13:19.000Z</time>
      </trkpt>
      <trkpt lat="43.37460539303719997406005859375" lon="-1.798556260764598846435546875">
        <ele>1</ele>
        <time>2018-09-02T07:13:20.000Z</time>
      </trkpt>
      <trkpt lat="43.374469019472599029541015625" lon="-1.7986130900681018829345703125">
        <ele>1.60000002384185791015625</ele>
        <time>2018-09-02T07:13:27.000Z</time>
      </trkpt>
      <trkpt lat="43.37441110052168369293212890625" lon="-1.7986429296433925628662109375">
        <ele>2.400000095367431640625</ele>
        <time>2018-09-02T07:13:30.000Z</time>
      </trkpt>
      <trkpt lat="43.3743414469063282012939453125" lon="-1.7986747808754444122314453125">
        <ele>2.599999904632568359375</ele>
        <time>2018-09-02T07:13:33.000Z</time>
      </trkpt>
      <trkpt lat="43.37413047440350055694580078125" lon="-1.79874225519597530364990234375">
        <ele>3.400000095367431640625</ele>
        <time>2018-09-02T07:13:41.000Z</time>
      </trkpt>
      <trkpt lat="43.37409862317144870758056640625" lon="-1.79874912835657596588134765625">
        <ele>3.400000095367431640625</ele>
        <time>2018-09-02T07:13:42.000Z</time>
      </trkpt>
      <trkpt lat="43.373982869088649749755859375" lon="-1.79878533817827701568603515625">
        <ele>3.7999999523162841796875</ele>
        <time>2018-09-02T07:13:46.000Z</time>
      </trkpt>
      <trkpt lat="43.3738975413143634796142578125" lon="-1.79881207644939422607421875">
        <ele>3.400000095367431640625</ele>
        <time>2018-09-02T07:13:49.000Z</time>
      </trkpt>
      <trkpt lat="43.37387214414775371551513671875" lon="-1.79881920106709003448486328125">
        <ele>3.400000095367431640625</ele>
        <time>2018-09-02T07:13:50.000Z</time>
      </trkpt>
      <trkpt lat="43.3737939409911632537841796875" lon="-1.798844598233699798583984375">
        <ele>3.599999904632568359375</ele>
        <time>2018-09-02T07:13:53.000Z</time>
      </trkpt>
      <trkpt lat="43.3736876584589481353759765625" lon="-1.7988863401114940643310546875">
        <ele>3.599999904632568359375</ele>
        <time>2018-09-02T07:13:57.000Z</time>
      </trkpt>
      <trkpt lat="43.37360509671270847320556640625" lon="-1.79891760461032390594482421875">
        <ele>3.400000095367431640625</ele>
        <time>2018-09-02T07:14:00.000Z</time>
      </trkpt>
      <trkpt lat="43.3735491894185543060302734375" lon="-1.7989433370530605316162109375">
        <ele>3.599999904632568359375</ele>
        <time>2018-09-02T07:14:02.000Z</time>
      </trkpt>
      <trkpt lat="43.373491354286670684814453125" lon="-1.798969991505146026611328125">
        <ele>3.599999904632568359375</ele>
        <time>2018-09-02T07:14:04.000Z</time>
      </trkpt>
      <trkpt lat="43.373428992927074432373046875" lon="-1.799000166356563568115234375">
        <ele>3.599999904632568359375</ele>
        <time>2018-09-02T07:14:06.000Z</time>
      </trkpt>
      <trkpt lat="43.37330368347465991973876953125" lon="-1.7990794591605663299560546875">
        <ele>3.599999904632568359375</ele>
        <time>2018-09-02T07:14:10.000Z</time>
      </trkpt>
      <trkpt lat="43.3730787970125675201416015625" lon="-1.7992353625595569610595703125">
        <ele>4.19999980926513671875</ele>
        <time>2018-09-02T07:14:17.000Z</time>
      </trkpt>
      <trkpt lat="43.37305105291306972503662109375" lon="-1.7992581613361835479736328125">
        <ele>4.599999904632568359375</ele>
        <time>2018-09-02T07:14:18.000Z</time>
      </trkpt>
      <trkpt lat="43.37290504015982151031494140625" lon="-1.79936955682933330535888671875">
        <ele>5.80000019073486328125</ele>
        <time>2018-09-02T07:14:24.000Z</time>
      </trkpt>
      <trkpt lat="43.3728829957544803619384765625" lon="-1.79938430897891521453857421875">
        <ele>6</ele>
        <time>2018-09-02T07:14:25.000Z</time>
      </trkpt>
      <trkpt lat="43.37281568907201290130615234375" lon="-1.7994304932653903961181640625">
        <ele>6.599999904632568359375</ele>
        <time>2018-09-02T07:14:28.000Z</time>
      </trkpt>
      <trkpt lat="43.37279356084764003753662109375" lon="-1.79944918490946292877197265625">
        <ele>6.80000019073486328125</ele>
        <time>2018-09-02T07:14:29.000Z</time>
      </trkpt>
      <trkpt lat="43.37270186282694339752197265625" lon="-1.799531243741512298583984375">
        <ele>7.400000095367431640625</ele>
        <time>2018-09-02T07:14:33.000Z</time>
      </trkpt>
      <trkpt lat="43.37264805100858211517333984375" lon="-1.79957089014351367950439453125">
        <ele>8</ele>
        <time>2018-09-02T07:14:35.000Z</time>
      </trkpt>
      <trkpt lat="43.372537828981876373291015625" lon="-1.7996294796466827392578125">
        <ele>8.6000003814697265625</ele>
        <time>2018-09-02T07:14:39.000Z</time>
      </trkpt>
      <trkpt lat="43.37247991003096103668212890625" lon="-1.79965068586170673370361328125">
        <ele>8.80000019073486328125</ele>
        <time>2018-09-02T07:14:41.000Z</time>
      </trkpt>
      <trkpt lat="43.372327275574207305908203125" lon="-1.7996682040393352508544921875">
        <ele>8.19999980926513671875</ele>
        <time>2018-09-02T07:14:45.000Z</time>
      </trkpt>
      <trkpt lat="43.3722798340022563934326171875" lon="-1.7996708862483501434326171875">
        <ele>7.80000019073486328125</ele>
        <time>2018-09-02T07:14:46.000Z</time>
      </trkpt>
      <trkpt lat="43.37201421149075031280517578125" lon="-1.79968304000794887542724609375">
        <ele>7</ele>
        <time>2018-09-02T07:14:51.000Z</time>
      </trkpt>
      <trkpt lat="43.37195822037756443023681640625" lon="-1.79968773387372493743896484375">
        <ele>6.80000019073486328125</ele>
        <time>2018-09-02T07:14:52.000Z</time>
      </trkpt>
      <trkpt lat="43.37189921177923679351806640625" lon="-1.7996913380920886993408203125">
        <ele>6.80000019073486328125</ele>
        <time>2018-09-02T07:14:53.000Z</time>
      </trkpt>
      <trkpt lat="43.3717122115194797515869140625" lon="-1.79970248602330684661865234375">
        <ele>5.599999904632568359375</ele>
        <time>2018-09-02T07:14:56.000Z</time>
      </trkpt>
      <trkpt lat="43.3715194277465343475341796875" lon="-1.79970617406070232391357421875">
        <ele>5.19999980926513671875</ele>
        <time>2018-09-02T07:14:59.000Z</time>
      </trkpt>
      <trkpt lat="43.37138523347675800323486328125" lon="-1.7997121252119541168212890625">
        <ele>4.599999904632568359375</ele>
        <time>2018-09-02T07:15:01.000Z</time>
      </trkpt>
      <trkpt lat="43.3708431757986545562744140625" lon="-1.79973551072180271148681640625">
        <ele>4</ele>
        <time>2018-09-02T07:15:09.000Z</time>
      </trkpt>
      <trkpt lat="43.370485939085483551025390625" lon="-1.79975411854684352874755859375">
        <ele>4.19999980926513671875</ele>
        <time>2018-09-02T07:15:15.000Z</time>
      </trkpt>
      <trkpt lat="43.3701236732304096221923828125" lon="-1.79977096617221832275390625">
        <ele>5.400000095367431640625</ele>
        <time>2018-09-02T07:15:22.000Z</time>
      </trkpt>
      <trkpt lat="43.36993583478033542633056640625" lon="-1.79978077299892902374267578125">
        <ele>4.599999904632568359375</ele>
        <time>2018-09-02T07:15:26.000Z</time>
      </trkpt>
      <trkpt lat="43.36984648369252681732177734375" lon="-1.79978328756988048553466796875">
        <ele>6.19999980926513671875</ele>
        <time>2018-09-02T07:15:28.000Z</time>
      </trkpt>
      <trkpt lat="43.36971287615597248077392578125" lon="-1.79979066364467144012451171875">
        <ele>5.80000019073486328125</ele>
        <time>2018-09-02T07:15:31.000Z</time>
      </trkpt>
      <trkpt lat="43.36944431997835636138916015625" lon="-1.79980558343231678009033203125">
        <ele>6.400000095367431640625</ele>
        <time>2018-09-02T07:15:37.000Z</time>
      </trkpt>
      <trkpt lat="43.36936284787952899932861328125" lon="-1.79981446824967861175537109375">
        <ele>6.599999904632568359375</ele>
        <time>2018-09-02T07:15:39.000Z</time>
      </trkpt>
      <trkpt lat="43.36932462640106678009033203125" lon="-1.79981765337288379669189453125">
        <ele>6.599999904632568359375</ele>
        <time>2018-09-02T07:15:40.000Z</time>
      </trkpt>
      <trkpt lat="43.369101248681545257568359375" lon="-1.79982553236186504364013671875">
        <ele>7.19999980926513671875</ele>
        <time>2018-09-02T07:15:46.000Z</time>
      </trkpt>
      <trkpt lat="43.36894962005317211151123046875" lon="-1.79987917654216289520263671875">
        <ele>7.80000019073486328125</ele>
        <time>2018-09-02T07:15:51.000Z</time>
      </trkpt>
      <trkpt lat="43.36889413185417652130126953125" lon="-1.79990951903164386749267578125">
        <ele>8.3999996185302734375</ele>
        <time>2018-09-02T07:15:53.000Z</time>
      </trkpt>
      <trkpt lat="43.36878902278840541839599609375" lon="-1.7999662645161151885986328125">
        <ele>9.3999996185302734375</ele>
        <time>2018-09-02T07:15:57.000Z</time>
      </trkpt>
      <trkpt lat="43.36873252876102924346923828125" lon="-1.79998914711177349090576171875">
        <ele>9.6000003814697265625</ele>
        <time>2018-09-02T07:15:59.000Z</time>
      </trkpt>
      <trkpt lat="43.3685840852558612823486328125" lon="-1.8000318109989166259765625">
        <ele>10.19999980926513671875</ele>
        <time>2018-09-02T07:16:04.000Z</time>
      </trkpt>
      <trkpt lat="43.368507139384746551513671875" lon="-1.80010179989039897918701171875">
        <ele>10.6000003814697265625</ele>
        <time>2018-09-02T07:16:07.000Z</time>
      </trkpt>
      <trkpt lat="43.36831091903150081634521484375" lon="-1.800306737422943115234375">
        <ele>10.6000003814697265625</ele>
        <time>2018-09-02T07:16:14.000Z</time>
      </trkpt>
      <trkpt lat="43.3680863678455352783203125" lon="-1.80054000578820705413818359375">
        <ele>10.6000003814697265625</ele>
        <time>2018-09-02T07:16:22.000Z</time>
      </trkpt>
      <trkpt lat="43.36805677972733974456787109375" lon="-1.80057286284863948822021484375">
        <ele>10.80000019073486328125</ele>
        <time>2018-09-02T07:16:23.000Z</time>
      </trkpt>
      <trkpt lat="43.367826528847217559814453125" lon="-1.800821721553802490234375">
        <ele>10.3999996185302734375</ele>
        <time>2018-09-02T07:16:30.000Z</time>
      </trkpt>
      <trkpt lat="43.36774983443319797515869140625" lon="-1.8009050376713275909423828125">
        <ele>9.80000019073486328125</ele>
        <time>2018-09-02T07:16:32.000Z</time>
      </trkpt>
      <trkpt lat="43.3676701225340366363525390625" lon="-1.8009901978075504302978515625">
        <ele>9.3999996185302734375</ele>
        <time>2018-09-02T07:16:34.000Z</time>
      </trkpt>
      <trkpt lat="43.36758655495941638946533203125" lon="-1.801079548895359039306640625">
        <ele>9</ele>
        <time>2018-09-02T07:16:36.000Z</time>
      </trkpt>
      <trkpt lat="43.3674984611570835113525390625" lon="-1.80117250420153141021728515625">
        <ele>8.3999996185302734375</ele>
        <time>2018-09-02T07:16:38.000Z</time>
      </trkpt>
      <trkpt lat="43.3674076013267040252685546875" lon="-1.80126990191638469696044921875">
        <ele>8</ele>
        <time>2018-09-02T07:16:40.000Z</time>
      </trkpt>
      <trkpt lat="43.3673573099076747894287109375" lon="-1.80131667293608188629150390625">
        <ele>7.599999904632568359375</ele>
        <time>2018-09-02T07:16:41.000Z</time>
      </trkpt>
      <trkpt lat="43.3673070184886455535888671875" lon="-1.80137031711637973785400390625">
        <ele>7</ele>
        <time>2018-09-02T07:16:42.000Z</time>
      </trkpt>
      <trkpt lat="43.36704323999583721160888671875" lon="-1.80161741562187671661376953125">
        <ele>6</ele>
        <time>2018-09-02T07:16:47.000Z</time>
      </trkpt>
      <trkpt lat="43.3669911883771419525146484375" lon="-1.80165429599583148956298828125">
        <ele>5.80000019073486328125</ele>
        <time>2018-09-02T07:16:48.000Z</time>
      </trkpt>
      <trkpt lat="43.366823382675647735595703125" lon="-1.8017636798322200775146484375">
        <ele>5</ele>
        <time>2018-09-02T07:16:52.000Z</time>
      </trkpt>
      <trkpt lat="43.3667849935591220855712890625" lon="-1.8017791025340557098388671875">
        <ele>4.80000019073486328125</ele>
        <time>2018-09-02T07:16:53.000Z</time>
      </trkpt>
      <trkpt lat="43.36666186340153217315673828125" lon="-1.80183827877044677734375">
        <ele>4.400000095367431640625</ele>
        <time>2018-09-02T07:16:56.000Z</time>
      </trkpt>
      <trkpt lat="43.36658072657883167266845703125" lon="-1.801884882152080535888671875">
        <ele>4.19999980926513671875</ele>
        <time>2018-09-02T07:16:58.000Z</time>
      </trkpt>
      <trkpt lat="43.3664976619184017181396484375" lon="-1.80194213055074214935302734375">
        <ele>3.7999999523162841796875</ele>
        <time>2018-09-02T07:17:00.000Z</time>
      </trkpt>
      <trkpt lat="43.3664582669734954833984375" lon="-1.80198110640048980712890625">
        <ele>3.599999904632568359375</ele>
        <time>2018-09-02T07:17:01.000Z</time>
      </trkpt>
      <trkpt lat="43.3663990907371044158935546875" lon="-1.8020707927644252777099609375">
        <ele>3.2000000476837158203125</ele>
        <time>2018-09-02T07:17:03.000Z</time>
      </trkpt>
      <trkpt lat="43.36636145599186420440673828125" lon="-1.8022548593580722808837890625">
        <ele>2.400000095367431640625</ele>
        <time>2018-09-02T07:17:06.000Z</time>
      </trkpt>
      <trkpt lat="43.36636447347700595855712890625" lon="-1.802323423326015472412109375">
        <ele>2.2000000476837158203125</ele>
        <time>2018-09-02T07:17:07.000Z</time>
      </trkpt>
      <trkpt lat="43.36636715568602085113525390625" lon="-1.8023996986448764801025390625">
        <ele>2</ele>
        <time>2018-09-02T07:17:08.000Z</time>
      </trkpt>
      <trkpt lat="43.3663742803037166595458984375" lon="-1.8025584518909454345703125">
        <ele>1.39999997615814208984375</ele>
        <time>2018-09-02T07:17:10.000Z</time>
      </trkpt>
      <trkpt lat="43.3663965761661529541015625" lon="-1.8028037063777446746826171875">
        <ele>0.800000011920928955078125</ele>
        <time>2018-09-02T07:17:13.000Z</time>
      </trkpt>
      <trkpt lat="43.366408981382846832275390625" lon="-1.80296706967055797576904296875">
        <ele>1</ele>
        <time>2018-09-02T07:17:15.000Z</time>
      </trkpt>
      <trkpt lat="43.3664410002529621124267578125" lon="-1.80328373797237873077392578125">
        <ele>0.800000011920928955078125</ele>
        <time>2018-09-02T07:17:19.000Z</time>
      </trkpt>
      <trkpt lat="43.3664627932012081146240234375" lon="-1.80342270992696285247802734375">
        <ele>1.60000002384185791015625</ele>
        <time>2018-09-02T07:17:21.000Z</time>
      </trkpt>
      <trkpt lat="43.36646907962858676910400390625" lon="-1.80353921838104724884033203125">
        <ele>2.2000000476837158203125</ele>
        <time>2018-09-02T07:17:23.000Z</time>
      </trkpt>
      <trkpt lat="43.36647494696080684661865234375" lon="-1.8035865761339664459228515625">
        <ele>2.400000095367431640625</ele>
        <time>2018-09-02T07:17:24.000Z</time>
      </trkpt>
      <trkpt lat="43.36647762916982173919677734375" lon="-1.8036700598895549774169921875">
        <ele>3</ele>
        <time>2018-09-02T07:17:26.000Z</time>
      </trkpt>
      <trkpt lat="43.36647980846464633941650390625" lon="-1.80375345982611179351806640625">
        <ele>3.599999904632568359375</ele>
        <time>2018-09-02T07:17:28.000Z</time>
      </trkpt>
      <trkpt lat="43.36649573408067226409912109375" lon="-1.80383157916367053985595703125">
        <ele>4.400000095367431640625</ele>
        <time>2018-09-02T07:17:30.000Z</time>
      </trkpt>
      <trkpt lat="43.3665030263364315032958984375" lon="-1.803868710994720458984375">
        <ele>4.599999904632568359375</ele>
        <time>2018-09-02T07:17:31.000Z</time>
      </trkpt>
      <trkpt lat="43.3665199577808380126953125" lon="-1.803936101496219635009765625">
        <ele>5.19999980926513671875</ele>
        <time>2018-09-02T07:17:33.000Z</time>
      </trkpt>
      <trkpt lat="43.36653269827365875244140625" lon="-1.80403458885848522186279296875">
        <ele>5.80000019073486328125</ele>
        <time>2018-09-02T07:17:36.000Z</time>
      </trkpt>
      <trkpt lat="43.36654954589903354644775390625" lon="-1.804152019321918487548828125">
        <ele>6.599999904632568359375</ele>
        <time>2018-09-02T07:17:40.000Z</time>
      </trkpt>
      <trkpt lat="43.36655390448868274688720703125" lon="-1.80421245284378528594970703125">
        <ele>7</ele>
        <time>2018-09-02T07:17:42.000Z</time>
      </trkpt>
      <trkpt lat="43.36655608378350734710693359375" lon="-1.80432896129786968231201171875">
        <ele>7.400000095367431640625</ele>
        <time>2018-09-02T07:17:46.000Z</time>
      </trkpt>
      <trkpt lat="43.366570584475994110107421875" lon="-1.8044301308691501617431640625">
        <ele>8</ele>
        <time>2018-09-02T07:17:49.000Z</time>
      </trkpt>
      <trkpt lat="43.3665901981294155120849609375" lon="-1.804623417556285858154296875">
        <ele>8.6000003814697265625</ele>
        <time>2018-09-02T07:17:54.000Z</time>
      </trkpt>
      <trkpt lat="43.36659564636647701263427734375" lon="-1.80469508282840251922607421875">
        <ele>9</ele>
        <time>2018-09-02T07:17:56.000Z</time>
      </trkpt>
      <trkpt lat="43.36660117842257022857666015625" lon="-1.80488015525043010711669921875">
        <ele>10.19999980926513671875</ele>
        <time>2018-09-02T07:18:02.000Z</time>
      </trkpt>
      <trkpt lat="43.3666009269654750823974609375" lon="-1.8050057999789714813232421875">
        <ele>11</ele>
        <time>2018-09-02T07:18:06.000Z</time>
      </trkpt>
      <trkpt lat="43.366598077118396759033203125" lon="-1.80506841279566287994384765625">
        <ele>11.3999996185302734375</ele>
        <time>2018-09-02T07:18:08.000Z</time>
      </trkpt>
      <trkpt lat="43.36659698747098445892333984375" lon="-1.80509842000901699066162109375">
        <ele>11.3999996185302734375</ele>
        <time>2018-09-02T07:18:09.000Z</time>
      </trkpt>
      <trkpt lat="43.36659162305295467376708984375" lon="-1.80516128428280353546142578125">
        <ele>11.80000019073486328125</ele>
        <time>2018-09-02T07:18:11.000Z</time>
      </trkpt>
      <trkpt lat="43.36658525280654430389404296875" lon="-1.80532020516693592071533203125">
        <ele>12.3999996185302734375</ele>
        <time>2018-09-02T07:18:16.000Z</time>
      </trkpt>
      <trkpt lat="43.3665912039577960968017578125" lon="-1.80547996424138545989990234375">
        <ele>13.3999996185302734375</ele>
        <time>2018-09-02T07:18:21.000Z</time>
      </trkpt>
      <trkpt lat="43.36659279651939868927001953125" lon="-1.80551223456859588623046875">
        <ele>13.3999996185302734375</ele>
        <time>2018-09-02T07:18:22.000Z</time>
      </trkpt>
      <trkpt lat="43.36662816815078258514404296875" lon="-1.80573527701199054718017578125">
        <ele>14.6000003814697265625</ele>
        <time>2018-09-02T07:18:29.000Z</time>
      </trkpt>
      <trkpt lat="43.3666512183845043182373046875" lon="-1.80582613684237003326416015625">
        <ele>15</ele>
        <time>2018-09-02T07:18:32.000Z</time>
      </trkpt>
      <trkpt lat="43.36669094860553741455078125" lon="-1.80597835220396518707275390625">
        <ele>15.6000003814697265625</ele>
        <time>2018-09-02T07:18:37.000Z</time>
      </trkpt>
      <trkpt lat="43.36671911180019378662109375" lon="-1.8061309866607189178466796875">
        <ele>16.200000762939453125</ele>
        <time>2018-09-02T07:18:42.000Z</time>
      </trkpt>
      <trkpt lat="43.3667303435504436492919921875" lon="-1.80626149289309978485107421875">
        <ele>16.6000003814697265625</ele>
        <time>2018-09-02T07:18:47.000Z</time>
      </trkpt>
      <trkpt lat="43.36673545651137828826904296875" lon="-1.806300468742847442626953125">
        <ele>16.799999237060546875</ele>
        <time>2018-09-02T07:18:49.000Z</time>
      </trkpt>
      <trkpt lat="43.36675138212740421295166015625" lon="-1.80640800856053829193115234375">
        <ele>17.799999237060546875</ele>
        <time>2018-09-02T07:18:54.000Z</time>
      </trkpt>
      <trkpt lat="43.36675490252673625946044921875" lon="-1.8064360879361629486083984375">
        <ele>18.200000762939453125</ele>
        <time>2018-09-02T07:18:55.000Z</time>
      </trkpt>
      <trkpt lat="43.36675087921321392059326171875" lon="-1.80652602575719356536865234375">
        <ele>19</ele>
        <time>2018-09-02T07:18:58.000Z</time>
      </trkpt>
      <trkpt lat="43.36674769409000873565673828125" lon="-1.80666885338723659515380859375">
        <ele>19.799999237060546875</ele>
        <time>2018-09-02T07:19:02.000Z</time>
      </trkpt>
      <trkpt lat="43.3667484484612941741943359375" lon="-1.8067036382853984832763671875">
        <ele>20</ele>
        <time>2018-09-02T07:19:03.000Z</time>
      </trkpt>
      <trkpt lat="43.366740904748439788818359375" lon="-1.80687437765300273895263671875">
        <ele>21</ele>
        <time>2018-09-02T07:19:08.000Z</time>
      </trkpt>
      <trkpt lat="43.36673914454877376556396484375" lon="-1.8069787323474884033203125">
        <ele>21.200000762939453125</ele>
        <time>2018-09-02T07:19:11.000Z</time>
      </trkpt>
      <trkpt lat="43.3667142502963542938232421875" lon="-1.8072819896042346954345703125">
        <ele>22</ele>
        <time>2018-09-02T07:19:20.000Z</time>
      </trkpt>
      <trkpt lat="43.3667085506021976470947265625" lon="-1.807317696511745452880859375">
        <ele>22.200000762939453125</ele>
        <time>2018-09-02T07:19:21.000Z</time>
      </trkpt>
      <trkpt lat="43.36670109070837497711181640625" lon="-1.80752548389136791229248046875">
        <ele>22.799999237060546875</ele>
        <time>2018-09-02T07:19:27.000Z</time>
      </trkpt>
      <trkpt lat="43.36670746095478534698486328125" lon="-1.807666718959808349609375">
        <ele>23.3999996185302734375</ele>
        <time>2018-09-02T07:19:31.000Z</time>
      </trkpt>
      <trkpt lat="43.36671114899218082427978515625" lon="-1.807746179401874542236328125">
        <ele>23.6000003814697265625</ele>
        <time>2018-09-02T07:19:33.000Z</time>
      </trkpt>
      <trkpt lat="43.366736881434917449951171875" lon="-1.80795296095311641693115234375">
        <ele>23.799999237060546875</ele>
        <time>2018-09-02T07:19:39.000Z</time>
      </trkpt>
      <trkpt lat="43.3667447604238986968994140625" lon="-1.8079796992242336273193359375">
        <ele>24</ele>
        <time>2018-09-02T07:19:40.000Z</time>
      </trkpt>
      <trkpt lat="43.3667766116559505462646484375" lon="-1.808073408901691436767578125">
        <ele>24.3999996185302734375</ele>
        <time>2018-09-02T07:19:44.000Z</time>
      </trkpt>
      <trkpt lat="43.366801254451274871826171875" lon="-1.80814222432672977447509765625">
        <ele>24.799999237060546875</ele>
        <time>2018-09-02T07:19:47.000Z</time>
      </trkpt>
      <trkpt lat="43.36684576235711574554443359375" lon="-1.808266527950763702392578125">
        <ele>25.3999996185302734375</ele>
        <time>2018-09-02T07:19:52.000Z</time>
      </trkpt>
      <trkpt lat="43.36685749702155590057373046875" lon="-1.80829511024057865142822265625">
        <ele>25.6000003814697265625</ele>
        <time>2018-09-02T07:19:53.000Z</time>
      </trkpt>
      <trkpt lat="43.36689135991036891937255859375" lon="-1.80841413326561450958251953125">
        <ele>26.6000003814697265625</ele>
        <time>2018-09-02T07:19:57.000Z</time>
      </trkpt>
      <trkpt lat="43.36688834242522716522216796875" lon="-1.80851161479949951171875">
        <ele>27</ele>
        <time>2018-09-02T07:20:00.000Z</time>
      </trkpt>
      <trkpt lat="43.3668124862015247344970703125" lon="-1.80861630477011203765869140625">
        <ele>27</ele>
        <time>2018-09-02T07:20:04.000Z</time>
      </trkpt>
      <trkpt lat="43.36667108349502086639404296875" lon="-1.80865310132503509521484375">
        <ele>27.3999996185302734375</ele>
        <time>2018-09-02T07:20:09.000Z</time>
      </trkpt>
      <trkpt lat="43.36659430526196956634521484375" lon="-1.80862636305391788482666015625">
        <ele>27.6000003814697265625</ele>
        <time>2018-09-02T07:20:12.000Z</time>
      </trkpt>
      <trkpt lat="43.36651585064828395843505859375" lon="-1.80858411826193332672119140625">
        <ele>27.799999237060546875</ele>
        <time>2018-09-02T07:20:15.000Z</time>
      </trkpt>
      <trkpt lat="43.36634066887199878692626953125" lon="-1.8084591440856456756591796875">
        <ele>27.6000003814697265625</ele>
        <time>2018-09-02T07:20:21.000Z</time>
      </trkpt>
      <trkpt lat="43.36614587344229221343994140625" lon="-1.8082769215106964111328125">
        <ele>27.6000003814697265625</ele>
        <time>2018-09-02T07:20:27.000Z</time>
      </trkpt>
      <trkpt lat="43.36607747711241245269775390625" lon="-1.80820860899984836578369140625">
        <ele>27.6000003814697265625</ele>
        <time>2018-09-02T07:20:29.000Z</time>
      </trkpt>
      <trkpt lat="43.3659303747117519378662109375" lon="-1.80802412331104278564453125">
        <ele>27.200000762939453125</ele>
        <time>2018-09-02T07:20:34.000Z</time>
      </trkpt>
      <trkpt lat="43.3658011257648468017578125" lon="-1.80777199566364288330078125">
        <ele>27.3999996185302734375</ele>
        <time>2018-09-02T07:20:40.000Z</time>
      </trkpt>
      <trkpt lat="43.36570180021226406097412109375" lon="-1.80754241533577442169189453125">
        <ele>28.200000762939453125</ele>
        <time>2018-09-02T07:20:45.000Z</time>
      </trkpt>
      <trkpt lat="43.36563055403530597686767578125" lon="-1.8074013479053974151611328125">
        <ele>28.6000003814697265625</ele>
        <time>2018-09-02T07:20:48.000Z</time>
      </trkpt>
      <trkpt lat="43.36561077274382114410400390625" lon="-1.8073601089417934417724609375">
        <ele>28.799999237060546875</ele>
        <time>2018-09-02T07:20:49.000Z</time>
      </trkpt>
      <trkpt lat="43.3655568771064281463623046875" lon="-1.80723555386066436767578125">
        <ele>29.200000762939453125</ele>
        <time>2018-09-02T07:20:52.000Z</time>
      </trkpt>
      <trkpt lat="43.36548856459558010101318359375" lon="-1.80712617002427577972412109375">
        <ele>29.6000003814697265625</ele>
        <time>2018-09-02T07:20:55.000Z</time>
      </trkpt>
      <trkpt lat="43.36543307639658451080322265625" lon="-1.8070560134947299957275390625">
        <ele>30.200000762939453125</ele>
        <time>2018-09-02T07:20:57.000Z</time>
      </trkpt>
      <trkpt lat="43.3653751574456691741943359375" lon="-1.80700262077152729034423828125">
        <ele>30.799999237060546875</ele>
        <time>2018-09-02T07:20:59.000Z</time>
      </trkpt>
      <trkpt lat="43.36525035090744495391845703125" lon="-1.80694160051643848419189453125">
        <ele>31.6000003814697265625</ele>
        <time>2018-09-02T07:21:03.000Z</time>
      </trkpt>
      <trkpt lat="43.365219421684741973876953125" lon="-1.8069269321858882904052734375">
        <ele>32</ele>
        <time>2018-09-02T07:21:04.000Z</time>
      </trkpt>
      <trkpt lat="43.36510634981095790863037109375" lon="-1.806878484785556793212890625">
        <ele>33.200000762939453125</ele>
        <time>2018-09-02T07:21:08.000Z</time>
      </trkpt>
      <trkpt lat="43.36502806283533573150634765625" lon="-1.80685979314148426055908203125">
        <ele>33.799999237060546875</ele>
        <time>2018-09-02T07:21:11.000Z</time>
      </trkpt>
      <trkpt lat="43.36495421826839447021484375" lon="-1.80686683394014835357666015625">
        <ele>34.40000152587890625</ele>
        <time>2018-09-02T07:21:14.000Z</time>
      </trkpt>
      <trkpt lat="43.3648303337395191192626953125" lon="-1.80689550004899501800537109375">
        <ele>35.40000152587890625</ele>
        <time>2018-09-02T07:21:19.000Z</time>
      </trkpt>
      <trkpt lat="43.36480493657290935516357421875" lon="-1.80690036155283451080322265625">
        <ele>35.40000152587890625</ele>
        <time>2018-09-02T07:21:20.000Z</time>
      </trkpt>
      <trkpt lat="43.364687673747539520263671875" lon="-1.8069480545818805694580078125">
        <ele>36.59999847412109375</ele>
        <time>2018-09-02T07:21:25.000Z</time>
      </trkpt>
      <trkpt lat="43.36464752443134784698486328125" lon="-1.8069788999855518341064453125">
        <ele>36.799999237060546875</ele>
        <time>2018-09-02T07:21:27.000Z</time>
      </trkpt>
      <trkpt lat="43.36456806398928165435791015625" lon="-1.8070523254573345184326171875">
        <ele>37.59999847412109375</ele>
        <time>2018-09-02T07:21:31.000Z</time>
      </trkpt>
      <trkpt lat="43.36451165378093719482421875" lon="-1.8071177043020725250244140625">
        <ele>38.200000762939453125</ele>
        <time>2018-09-02T07:21:34.000Z</time>
      </trkpt>
      <trkpt lat="43.36446781642735004425048828125" lon="-1.8072523176670074462890625">
        <ele>38.799999237060546875</ele>
        <time>2018-09-02T07:21:38.000Z</time>
      </trkpt>
      <trkpt lat="43.36446848697960376739501953125" lon="-1.80732817389070987701416015625">
        <ele>39</ele>
        <time>2018-09-02T07:21:40.000Z</time>
      </trkpt>
      <trkpt lat="43.3645238913595676422119140625" lon="-1.8075140006840229034423828125">
        <ele>39.40000152587890625</ele>
        <time>2018-09-02T07:21:45.000Z</time>
      </trkpt>
      <trkpt lat="43.3645932935178279876708984375" lon="-1.80770359933376312255859375">
        <ele>39.40000152587890625</ele>
        <time>2018-09-02T07:21:50.000Z</time>
      </trkpt>
      <trkpt lat="43.364634029567241668701171875" lon="-1.80782161653041839599609375">
        <ele>39.59999847412109375</ele>
        <time>2018-09-02T07:21:53.000Z</time>
      </trkpt>
      <trkpt lat="43.36467132903635501861572265625" lon="-1.80793837644159793853759765625">
        <ele>39.799999237060546875</ele>
        <time>2018-09-02T07:21:56.000Z</time>
      </trkpt>
      <trkpt lat="43.364689014852046966552734375" lon="-1.8079750053584575653076171875">
        <ele>39.799999237060546875</ele>
        <time>2018-09-02T07:21:57.000Z</time>
      </trkpt>
      <trkpt lat="43.36473251692950725555419921875" lon="-1.80809914134442806243896484375">
        <ele>40</ele>
        <time>2018-09-02T07:22:00.000Z</time>
      </trkpt>
      <trkpt lat="43.36477182805538177490234375" lon="-1.808219589293003082275390625">
        <ele>40.40000152587890625</ele>
        <time>2018-09-02T07:22:03.000Z</time>
      </trkpt>
      <trkpt lat="43.36480694822967052459716796875" lon="-1.80832721292972564697265625">
        <ele>40.799999237060546875</ele>
        <time>2018-09-02T07:22:06.000Z</time>
      </trkpt>
      <trkpt lat="43.36486168205738067626953125" lon="-1.80850197561085224151611328125">
        <ele>41.799999237060546875</ele>
        <time>2018-09-02T07:22:11.000Z</time>
      </trkpt>
      <trkpt lat="43.36487031541764736175537109375" lon="-1.80853650905191898345947265625">
        <ele>42</ele>
        <time>2018-09-02T07:22:12.000Z</time>
      </trkpt>
      <trkpt lat="43.36492077447474002838134765625" lon="-1.808699034154415130615234375">
        <ele>42.799999237060546875</ele>
        <time>2018-09-02T07:22:17.000Z</time>
      </trkpt>
      <trkpt lat="43.36494457907974720001220703125" lon="-1.808761395514011383056640625">
        <ele>43.40000152587890625</ele>
        <time>2018-09-02T07:22:19.000Z</time>
      </trkpt>
      <trkpt lat="43.36498481221497058868408203125" lon="-1.80884580127894878387451171875">
        <ele>43.799999237060546875</ele>
        <time>2018-09-02T07:22:22.000Z</time>
      </trkpt>
      <trkpt lat="43.3650670386850833892822265625" lon="-1.80896281264722347259521484375">
        <ele>44.799999237060546875</ele>
        <time>2018-09-02T07:22:27.000Z</time>
      </trkpt>
      <trkpt lat="43.365099392831325531005859375" lon="-1.8090039677917957305908203125">
        <ele>45</ele>
        <time>2018-09-02T07:22:29.000Z</time>
      </trkpt>
      <trkpt lat="43.36520844139158725738525390625" lon="-1.80908351205289363861083984375">
        <ele>46</ele>
        <time>2018-09-02T07:22:34.000Z</time>
      </trkpt>
      <trkpt lat="43.36522889323532581329345703125" lon="-1.80909994058310985565185546875">
        <ele>46.200000762939453125</ele>
        <time>2018-09-02T07:22:35.000Z</time>
      </trkpt>
      <trkpt lat="43.3653671108186244964599609375" lon="-1.80918895639479160308837890625">
        <ele>47.200000762939453125</ele>
        <time>2018-09-02T07:22:42.000Z</time>
      </trkpt>
      <trkpt lat="43.3654847927391529083251953125" lon="-1.8092161975800991058349609375">
        <ele>48.40000152587890625</ele>
        <time>2018-09-02T07:22:48.000Z</time>
      </trkpt>
      <trkpt lat="43.36551890708506107330322265625" lon="-1.8092302791774272918701171875">
        <ele>48.200000762939453125</ele>
        <time>2018-09-02T07:22:50.000Z</time>
      </trkpt>
      <trkpt lat="43.36558328010141849517822265625" lon="-1.80926372297108173370361328125">
        <ele>49.200000762939453125</ele>
        <time>2018-09-02T07:22:54.000Z</time>
      </trkpt>
      <trkpt lat="43.365566767752170562744140625" lon="-1.80929205380380153656005859375">
        <ele>49.40000152587890625</ele>
        <time>2018-09-02T07:22:56.000Z</time>
      </trkpt>
      <trkpt lat="43.3654988743364810943603515625" lon="-1.80931485258042812347412109375">
        <ele>49</ele>
        <time>2018-09-02T07:23:01.000Z</time>
      </trkpt>
      <trkpt lat="43.3655039034783840179443359375" lon="-1.80942155420780181884765625">
        <ele>49.40000152587890625</ele>
        <time>2018-09-02T07:23:05.000Z</time>
      </trkpt>
      <trkpt lat="43.36552930064499378204345703125" lon="-1.8095410801470279693603515625">
        <ele>50.59999847412109375</ele>
        <time>2018-09-02T07:23:09.000Z</time>
      </trkpt>
      <trkpt lat="43.365547321736812591552734375" lon="-1.8096772022545337677001953125">
        <ele>51.40000152587890625</ele>
        <time>2018-09-02T07:23:13.000Z</time>
      </trkpt>
      <trkpt lat="43.3655555360019207000732421875" lon="-1.80973897688090801239013671875">
        <ele>51.799999237060546875</ele>
        <time>2018-09-02T07:23:15.000Z</time>
      </trkpt>
      <trkpt lat="43.365594930946826934814453125" lon="-1.8099078722298145294189453125">
        <ele>51.200000762939453125</ele>
        <time>2018-09-02T07:23:21.000Z</time>
      </trkpt>
      <trkpt lat="43.36562116630375385284423828125" lon="-1.809994541108608245849609375">
        <ele>52.40000152587890625</ele>
        <time>2018-09-02T07:23:25.000Z</time>
      </trkpt>
      <trkpt lat="43.3656296320259571075439453125" lon="-1.81001960299909114837646484375">
        <ele>52.40000152587890625</ele>
        <time>2018-09-02T07:23:27.000Z</time>
      </trkpt>
      <trkpt lat="43.36564580909907817840576171875" lon="-1.81007869541645050048828125">
        <ele>52.40000152587890625</ele>
        <time>2018-09-02T07:23:30.000Z</time>
      </trkpt>
      <trkpt lat="43.36566106416285037994384765625" lon="-1.8101338483393192291259765625">
        <ele>52.200000762939453125</ele>
        <time>2018-09-02T07:23:32.000Z</time>
      </trkpt>
      <trkpt lat="43.3656708709895610809326171875" lon="-1.810169219970703125">
        <ele>52.40000152587890625</ele>
        <time>2018-09-02T07:23:33.000Z</time>
      </trkpt>
      <trkpt lat="43.36575083434581756591796875" lon="-1.8104226887226104736328125">
        <ele>52.200000762939453125</ele>
        <time>2018-09-02T07:23:39.000Z</time>
      </trkpt>
      <trkpt lat="43.36580674163997173309326171875" lon="-1.81056811474263668060302734375">
        <ele>52</ele>
        <time>2018-09-02T07:23:42.000Z</time>
      </trkpt>
      <trkpt lat="43.36586675606667995452880859375" lon="-1.8107115291059017181396484375">
        <ele>52.200000762939453125</ele>
        <time>2018-09-02T07:23:45.000Z</time>
      </trkpt>
      <trkpt lat="43.365889303386211395263671875" lon="-1.810759641230106353759765625">
        <ele>52</ele>
        <time>2018-09-02T07:23:46.000Z</time>
      </trkpt>
      <trkpt lat="43.365942947566509246826171875" lon="-1.81083885021507740020751953125">
        <ele>51.59999847412109375</ele>
        <time>2018-09-02T07:23:48.000Z</time>
      </trkpt>
      <trkpt lat="43.36602416820824146270751953125" lon="-1.81090607307851314544677734375">
        <ele>52</ele>
        <time>2018-09-02T07:23:51.000Z</time>
      </trkpt>
      <trkpt lat="43.36609977297484874725341796875" lon="-1.8109616450965404510498046875">
        <ele>52.40000152587890625</ele>
        <time>2018-09-02T07:23:54.000Z</time>
      </trkpt>
      <trkpt lat="43.36611988954246044158935546875" lon="-1.81097631342709064483642578125">
        <ele>53</ele>
        <time>2018-09-02T07:23:55.000Z</time>
      </trkpt>
      <trkpt lat="43.366152830421924591064453125" lon="-1.81101822294294834136962890625">
        <ele>53.59999847412109375</ele>
        <time>2018-09-02T07:23:57.000Z</time>
      </trkpt>
      <trkpt lat="43.36617034859955310821533203125" lon="-1.81104102171957492828369140625">
        <ele>53.799999237060546875</ele>
        <time>2018-09-02T07:23:58.000Z</time>
      </trkpt>
      <trkpt lat="43.3662009425461292266845703125" lon="-1.81109483353793621063232421875">
        <ele>54</ele>
        <time>2018-09-02T07:24:00.000Z</time>
      </trkpt>
      <trkpt lat="43.36624058894813060760498046875" lon="-1.81116876192390918731689453125">
        <ele>54.59999847412109375</ele>
        <time>2018-09-02T07:24:03.000Z</time>
      </trkpt>
      <trkpt lat="43.3662539161741733551025390625" lon="-1.8112345598638057708740234375">
        <ele>54.59999847412109375</ele>
        <time>2018-09-02T07:24:05.000Z</time>
      </trkpt>
      <trkpt lat="43.36626447737216949462890625" lon="-1.81142248213291168212890625">
        <ele>55.200000762939453125</ele>
        <time>2018-09-02T07:24:11.000Z</time>
      </trkpt>
      <trkpt lat="43.366269506514072418212890625" lon="-1.81153639219701290130615234375">
        <ele>56.200000762939453125</ele>
        <time>2018-09-02T07:24:16.000Z</time>
      </trkpt>
      <trkpt lat="43.366266153752803802490234375" lon="-1.81157226674258708953857421875">
        <ele>57</ele>
        <time>2018-09-02T07:24:18.000Z</time>
      </trkpt>
      <trkpt lat="43.366266824305057525634765625" lon="-1.811594478785991668701171875">
        <ele>57.59999847412109375</ele>
        <time>2018-09-02T07:24:19.000Z</time>
      </trkpt>
      <trkpt lat="43.36626045405864715576171875" lon="-1.811663210391998291015625">
        <ele>58.200000762939453125</ele>
        <time>2018-09-02T07:24:22.000Z</time>
      </trkpt>
      <trkpt lat="43.3662696741521358489990234375" lon="-1.811699084937572479248046875">
        <ele>58.799999237060546875</ele>
        <time>2018-09-02T07:24:24.000Z</time>
      </trkpt>
      <trkpt lat="43.366282917559146881103515625" lon="-1.8117557466030120849609375">
        <ele>59.59999847412109375</ele>
        <time>2018-09-02T07:24:27.000Z</time>
      </trkpt>
      <trkpt lat="43.3662850968539714813232421875" lon="-1.81177787482738494873046875">
        <ele>59.799999237060546875</ele>
        <time>2018-09-02T07:24:28.000Z</time>
      </trkpt>
      <trkpt lat="43.3662857674062252044677734375" lon="-1.81182305328547954559326171875">
        <ele>60.40000152587890625</ele>
        <time>2018-09-02T07:24:30.000Z</time>
      </trkpt>
      <trkpt lat="43.3662800677120685577392578125" lon="-1.81185775436460971832275390625">
        <ele>60.799999237060546875</ele>
        <time>2018-09-02T07:24:31.000Z</time>
      </trkpt>
      <trkpt lat="43.36628216318786144256591796875" lon="-1.81188776157796382904052734375">
        <ele>61.200000762939453125</ele>
        <time>2018-09-02T07:24:32.000Z</time>
      </trkpt>
      <trkpt lat="43.366299010813236236572265625" lon="-1.81198784150183200836181640625">
        <ele>61.59999847412109375</ele>
        <time>2018-09-02T07:24:35.000Z</time>
      </trkpt>
      <trkpt lat="43.3663243241608142852783203125" lon="-1.81207719258964061737060546875">
        <ele>62.200000762939453125</ele>
        <time>2018-09-02T07:24:38.000Z</time>
      </trkpt>
      <trkpt lat="43.3663471229374408721923828125" lon="-1.8121849000453948974609375">
        <ele>62.59999847412109375</ele>
        <time>2018-09-02T07:24:42.000Z</time>
      </trkpt>
      <trkpt lat="43.36637738160789012908935546875" lon="-1.81226897053420543670654296875">
        <ele>63.40000152587890625</ele>
        <time>2018-09-02T07:24:46.000Z</time>
      </trkpt>
      <trkpt lat="43.36638425476849079132080078125" lon="-1.8122913502156734466552734375">
        <ele>63.40000152587890625</ele>
        <time>2018-09-02T07:24:47.000Z</time>
      </trkpt>
      <trkpt lat="43.36641442961990833282470703125" lon="-1.81240148842334747314453125">
        <ele>64.40000152587890625</ele>
        <time>2018-09-02T07:24:52.000Z</time>
      </trkpt>
      <trkpt lat="43.3664168603718280792236328125" lon="-1.8124450743198394775390625">
        <ele>64.59999847412109375</ele>
        <time>2018-09-02T07:24:54.000Z</time>
      </trkpt>
      <trkpt lat="43.3664202131330966949462890625" lon="-1.81258077733218669891357421875">
        <ele>65.40000152587890625</ele>
        <time>2018-09-02T07:25:00.000Z</time>
      </trkpt>
      <trkpt lat="43.36642004549503326416015625" lon="-1.81259687058627605438232421875">
        <ele>65.59999847412109375</ele>
        <time>2018-09-02T07:25:01.000Z</time>
      </trkpt>
      <trkpt lat="43.36643890477716922760009765625" lon="-1.81272871792316436767578125">
        <ele>66.8000030517578125</ele>
        <time>2018-09-02T07:25:07.000Z</time>
      </trkpt>
      <trkpt lat="43.36644225753843784332275390625" lon="-1.81275662966072559356689453125">
        <ele>67</ele>
        <time>2018-09-02T07:25:08.000Z</time>
      </trkpt>
      <trkpt lat="43.36645700968801975250244140625" lon="-1.8128874711692333221435546875">
        <ele>68</ele>
        <time>2018-09-02T07:25:13.000Z</time>
      </trkpt>
      <trkpt lat="43.366467989981174468994140625" lon="-1.81299936957657337188720703125">
        <ele>68.1999969482421875</ele>
        <time>2018-09-02T07:25:17.000Z</time>
      </trkpt>
      <trkpt lat="43.36649238131940364837646484375" lon="-1.81313775479793548583984375">
        <ele>68.8000030517578125</ele>
        <time>2018-09-02T07:25:22.000Z</time>
      </trkpt>
      <trkpt lat="43.3665067143738269805908203125" lon="-1.8132197298109531402587890625">
        <ele>69</ele>
        <time>2018-09-02T07:25:25.000Z</time>
      </trkpt>
      <trkpt lat="43.36651534773409366607666015625" lon="-1.81324043311178684234619140625">
        <ele>69</ele>
        <time>2018-09-02T07:25:26.000Z</time>
      </trkpt>
      <trkpt lat="43.36654082871973514556884765625" lon="-1.813303045928478240966796875">
        <ele>69.1999969482421875</ele>
        <time>2018-09-02T07:25:29.000Z</time>
      </trkpt>
      <trkpt lat="43.3665536530315876007080078125" lon="-1.81337169371545314788818359375">
        <ele>69.40000152587890625</ele>
        <time>2018-09-02T07:25:32.000Z</time>
      </trkpt>
      <trkpt lat="43.36658357642590999603271484375" lon="-1.81351921521127223968505859375">
        <ele>70</ele>
        <time>2018-09-02T07:25:37.000Z</time>
      </trkpt>
      <trkpt lat="43.36659195832908153533935546875" lon="-1.813584007322788238525390625">
        <ele>70.40000152587890625</ele>
        <time>2018-09-02T07:25:39.000Z</time>
      </trkpt>
      <trkpt lat="43.36662657558917999267578125" lon="-1.81371702812612056732177734375">
        <ele>71.1999969482421875</ele>
        <time>2018-09-02T07:25:44.000Z</time>
      </trkpt>
      <trkpt lat="43.36663336493074893951416015625" lon="-1.81374787352979183197021484375">
        <ele>71.1999969482421875</ele>
        <time>2018-09-02T07:25:45.000Z</time>
      </trkpt>
      <trkpt lat="43.36667485535144805908203125" lon="-1.8138906173408031463623046875">
        <ele>71.1999969482421875</ele>
        <time>2018-09-02T07:25:49.000Z</time>
      </trkpt>
      <trkpt lat="43.36672439239919185638427734375" lon="-1.8139938823878765106201171875">
        <ele>70.59999847412109375</ele>
        <time>2018-09-02T07:25:51.000Z</time>
      </trkpt>
      <trkpt lat="43.3667786233127117156982421875" lon="-1.8141229636967182159423828125">
        <ele>69.8000030517578125</ele>
        <time>2018-09-02T07:25:53.000Z</time>
      </trkpt>
      <trkpt lat="43.36679756641387939453125" lon="-1.81419747881591320037841796875">
        <ele>69.40000152587890625</ele>
        <time>2018-09-02T07:25:54.000Z</time>
      </trkpt>
      <trkpt lat="43.3668098039925098419189453125" lon="-1.8142758496105670928955078125">
        <ele>69</ele>
        <time>2018-09-02T07:25:55.000Z</time>
      </trkpt>
      <trkpt lat="43.36683536879718303680419921875" lon="-1.81441540829837322235107421875">
        <ele>69.1999969482421875</ele>
        <time>2018-09-02T07:25:57.000Z</time>
      </trkpt>
      <trkpt lat="43.36685858666896820068359375" lon="-1.8145843036472797393798828125">
        <ele>69.59999847412109375</ele>
        <time>2018-09-02T07:26:00.000Z</time>
      </trkpt>
      <trkpt lat="43.366872332990169525146484375" lon="-1.81470743380486965179443359375">
        <ele>70.59999847412109375</ele>
        <time>2018-09-02T07:26:03.000Z</time>
      </trkpt>
      <trkpt lat="43.3668771944940090179443359375" lon="-1.8147348426282405853271484375">
        <ele>70.8000030517578125</ele>
        <time>2018-09-02T07:26:04.000Z</time>
      </trkpt>
      <trkpt lat="43.36688331328332424163818359375" lon="-1.814756803214550018310546875">
        <ele>71.1999969482421875</ele>
        <time>2018-09-02T07:26:05.000Z</time>
      </trkpt>
      <trkpt lat="43.36690192110836505889892578125" lon="-1.81479561142623424530029296875">
        <ele>72</ele>
        <time>2018-09-02T07:26:07.000Z</time>
      </trkpt>
      <trkpt lat="43.36692840792238712310791015625" lon="-1.81485495530068874359130859375">
        <ele>72.59999847412109375</ele>
        <time>2018-09-02T07:26:10.000Z</time>
      </trkpt>
      <trkpt lat="43.3669509552419185638427734375" lon="-1.8148971162736415863037109375">
        <ele>73</ele>
        <time>2018-09-02T07:26:12.000Z</time>
      </trkpt>
      <trkpt lat="43.36703536100685596466064453125" lon="-1.81500448845326900482177734375">
        <ele>74.1999969482421875</ele>
        <time>2018-09-02T07:26:19.000Z</time>
      </trkpt>
      <trkpt lat="43.3670456707477569580078125" lon="-1.8150178156793117523193359375">
        <ele>74.1999969482421875</ele>
        <time>2018-09-02T07:26:20.000Z</time>
      </trkpt>
      <trkpt lat="43.36713007651269435882568359375" lon="-1.815122924745082855224609375">
        <ele>74.8000030517578125</ele>
        <time>2018-09-02T07:26:27.000Z</time>
      </trkpt>
      <trkpt lat="43.36717500351369380950927734375" lon="-1.81525410152971744537353515625">
        <ele>75</ele>
        <time>2018-09-02T07:26:33.000Z</time>
      </trkpt>
      <trkpt lat="43.36717508733272552490234375" lon="-1.81528109125792980194091796875">
        <ele>74.8000030517578125</ele>
        <time>2018-09-02T07:26:34.000Z</time>
      </trkpt>
      <trkpt lat="43.36716930381953716278076171875" lon="-1.8153782375156879425048828125">
        <ele>75.1999969482421875</ele>
        <time>2018-09-02T07:26:37.000Z</time>
      </trkpt>
      <trkpt lat="43.3671638555824756622314453125" lon="-1.81553573347628116607666015625">
        <ele>75.8000030517578125</ele>
        <time>2018-09-02T07:26:42.000Z</time>
      </trkpt>
      <trkpt lat="43.36715287528932094573974609375" lon="-1.81561385281383991241455078125">
        <ele>76.1999969482421875</ele>
        <time>2018-09-02T07:26:45.000Z</time>
      </trkpt>
      <trkpt lat="43.3671360276639461517333984375" lon="-1.81568048894405364990234375">
        <ele>76.40000152587890625</ele>
        <time>2018-09-02T07:26:48.000Z</time>
      </trkpt>
      <trkpt lat="43.36711649782955646514892578125" lon="-1.81579557247459888458251953125">
        <ele>76.8000030517578125</ele>
        <time>2018-09-02T07:26:55.000Z</time>
      </trkpt>
      <trkpt lat="43.36644594557583332061767578125" lon="-1.81798517704010009765625">
        <ele>128.8000030517578125</ele>
        <time>2018-09-02T07:33:41.000Z</time>
      </trkpt>
      <trkpt lat="43.3664421737194061279296875" lon="-1.8180014379322528839111328125">
        <ele>129</ele>
        <time>2018-09-02T07:33:42.000Z</time>
      </trkpt>
      <trkpt lat="43.36643370799720287322998046875" lon="-1.818022392690181732177734375">
        <ele>129.8000030517578125</ele>
        <time>2018-09-02T07:33:45.000Z</time>
      </trkpt>
      <trkpt lat="43.366430439054965972900390625" lon="-1.81809841655194759368896484375">
        <ele>130.399993896484375</ele>
        <time>2018-09-02T07:33:48.000Z</time>
      </trkpt>
      <trkpt lat="43.3664393238723278045654296875" lon="-1.81816245429217815399169921875">
        <ele>131</ele>
        <time>2018-09-02T07:33:51.000Z</time>
      </trkpt>
      <trkpt lat="43.3664376474916934967041015625" lon="-1.81823051534593105316162109375">
        <ele>131.399993896484375</ele>
        <time>2018-09-02T07:33:55.000Z</time>
      </trkpt>
      <trkpt lat="43.36644351482391357421875" lon="-1.818320788443088531494140625">
        <ele>132.8000030517578125</ele>
        <time>2018-09-02T07:34:00.000Z</time>
      </trkpt>
      <trkpt lat="43.36644410155713558197021484375" lon="-1.81834266521036624908447265625">
        <ele>133.1999969482421875</ele>
        <time>2018-09-02T07:34:01.000Z</time>
      </trkpt>
      <trkpt lat="43.36645348928868770599365234375" lon="-1.8183802999556064605712890625">
        <ele>133.600006103515625</ele>
        <time>2018-09-02T07:34:03.000Z</time>
      </trkpt>
      <trkpt lat="43.36652423255145549774169921875" lon="-1.81862647645175457000732421875">
        <ele>140.600006103515625</ele>
        <time>2018-09-02T07:35:15.000Z</time>
      </trkpt>
      <trkpt lat="43.366526998579502105712890625" lon="-1.818610467016696929931640625">
        <ele>140.8000030517578125</ele>
        <time>2018-09-02T07:35:16.000Z</time>
      </trkpt>
      <trkpt lat="43.36656396277248859405517578125" lon="-1.8185351975262165069580078125">
        <ele>141.600006103515625</ele>
        <time>2018-09-02T07:35:21.000Z</time>
      </trkpt>
      <trkpt lat="43.36658424697816371917724609375" lon="-1.8185149133205413818359375">
        <ele>142</ele>
        <time>2018-09-02T07:35:23.000Z</time>
      </trkpt>
      <trkpt lat="43.36661643348634243011474609375" lon="-1.818490438163280487060546875">
        <ele>142.8000030517578125</ele>
        <time>2018-09-02T07:35:29.000Z</time>
      </trkpt>
      <trkpt lat="43.36662531830370426177978515625" lon="-1.8184849061071872711181640625">
        <ele>142.8000030517578125</ele>
        <time>2018-09-02T07:35:30.000Z</time>
      </trkpt>
      <trkpt lat="43.36665281094610691070556640625" lon="-1.81845515035092830657958984375">
        <ele>143.600006103515625</ele>
        <time>2018-09-02T07:35:35.000Z</time>
      </trkpt>
      <trkpt lat="43.36665473878383636474609375" lon="-1.818447522819042205810546875">
        <ele>143.600006103515625</ele>
        <time>2018-09-02T07:35:36.000Z</time>
      </trkpt>
      <trkpt lat="43.36665934883058071136474609375" lon="-1.8184332735836505889892578125">
        <ele>143.8000030517578125</ele>
        <time>2018-09-02T07:35:38.000Z</time>
      </trkpt>
      <trkpt lat="43.36669002659618854522705078125" lon="-1.81841039098799228668212890625">
        <ele>144.399993896484375</ele>
        <time>2018-09-02T07:35:44.000Z</time>
      </trkpt>
      <trkpt lat="43.3667799644172191619873046875" lon="-1.81868196465075016021728515625">
        <ele>150.1999969482421875</ele>
        <time>2018-09-02T07:36:21.000Z</time>
      </trkpt>
      <trkpt lat="43.366789519786834716796875" lon="-1.81870308704674243927001953125">
        <ele>150.399993896484375</ele>
        <time>2018-09-02T07:36:22.000Z</time>
      </trkpt>
      <trkpt lat="43.3667908608913421630859375" lon="-1.81873527355492115020751953125">
        <ele>150.8000030517578125</ele>
        <time>2018-09-02T07:36:24.000Z</time>
      </trkpt>
      <trkpt lat="43.3667940460145473480224609375" lon="-1.81875765323638916015625">
        <ele>151.1999969482421875</ele>
        <time>2018-09-02T07:36:26.000Z</time>
      </trkpt>
      <trkpt lat="43.36680133827030658721923828125" lon="-1.818791516125202178955078125">
        <ele>151.8000030517578125</ele>
        <time>2018-09-02T07:36:28.000Z</time>
      </trkpt>
      <trkpt lat="43.36681474931538105010986328125" lon="-1.8188260495662689208984375">
        <ele>152.399993896484375</ele>
        <time>2018-09-02T07:36:31.000Z</time>
      </trkpt>
      <trkpt lat="43.3668195270001888275146484375" lon="-1.81884038262069225311279296875">
        <ele>152.600006103515625</ele>
        <time>2018-09-02T07:36:32.000Z</time>
      </trkpt>
      <trkpt lat="43.3668337762355804443359375" lon="-1.81890140287578105926513671875">
        <ele>153.1999969482421875</ele>
        <time>2018-09-02T07:36:36.000Z</time>
      </trkpt>
      <trkpt lat="43.366836793720722198486328125" lon="-1.818910874426364898681640625">
        <ele>153.600006103515625</ele>
        <time>2018-09-02T07:36:37.000Z</time>
      </trkpt>
      <trkpt lat="43.36683486588299274444580078125" lon="-1.8189418874680995941162109375">
        <ele>154</ele>
        <time>2018-09-02T07:36:39.000Z</time>
      </trkpt>
      <trkpt lat="43.366831429302692413330078125" lon="-1.818975917994976043701171875">
        <ele>154.600006103515625</ele>
        <time>2018-09-02T07:36:43.000Z</time>
      </trkpt>
      <trkpt lat="43.36683712899684906005859375" lon="-1.819022186100482940673828125">
        <ele>155.399993896484375</ele>
        <time>2018-09-02T07:36:46.000Z</time>
      </trkpt>
      <trkpt lat="43.36684358306229114532470703125" lon="-1.81905043311417102813720703125">
        <ele>155.600006103515625</ele>
        <time>2018-09-02T07:36:48.000Z</time>
      </trkpt>
      <trkpt lat="43.36695514619350433349609375" lon="-1.81988342665135860443115234375">
        <ele>166.600006103515625</ele>
        <time>2018-09-02T07:37:43.000Z</time>
      </trkpt>
      <trkpt lat="43.36696059443056583404541015625" lon="-1.81990153156220912933349609375">
        <ele>166.8000030517578125</ele>
        <time>2018-09-02T07:37:44.000Z</time>
      </trkpt>
      <trkpt lat="43.36697618477046489715576171875" lon="-1.81999926455318927764892578125">
        <ele>167.600006103515625</ele>
        <time>2018-09-02T07:37:49.000Z</time>
      </trkpt>
      <trkpt lat="43.3669804595410823822021484375" lon="-1.82003480382263660430908203125">
        <ele>168</ele>
        <time>2018-09-02T07:37:51.000Z</time>
      </trkpt>
      <trkpt lat="43.36698741652071475982666015625" lon="-1.82008274830877780914306640625">
        <ele>168.600006103515625</ele>
        <time>2018-09-02T07:37:54.000Z</time>
      </trkpt>
      <trkpt lat="43.366999067366123199462890625" lon="-1.8201746977865695953369140625">
        <ele>169.8000030517578125</ele>
        <time>2018-09-02T07:37:59.000Z</time>
      </trkpt>
      <trkpt lat="43.36698758415877819061279296875" lon="-1.82028181850910186767578125">
        <ele>170.8000030517578125</ele>
        <time>2018-09-02T07:38:05.000Z</time>
      </trkpt>
      <trkpt lat="43.3669821359217166900634765625" lon="-1.8202980794012546539306640625">
        <ele>171</ele>
        <time>2018-09-02T07:38:06.000Z</time>
      </trkpt>
      <trkpt lat="43.3669603429734706878662109375" lon="-1.8203614465892314910888671875">
        <ele>171.8000030517578125</ele>
        <time>2018-09-02T07:38:10.000Z</time>
      </trkpt>
      <trkpt lat="43.3669472672045230865478515625" lon="-1.820410899817943572998046875">
        <ele>172.1999969482421875</ele>
        <time>2018-09-02T07:38:13.000Z</time>
      </trkpt>
      <trkpt lat="43.366942740976810455322265625" lon="-1.820426993072032928466796875">
        <ele>172.399993896484375</ele>
        <time>2018-09-02T07:38:14.000Z</time>
      </trkpt>
      <trkpt lat="43.36692907847464084625244140625" lon="-1.82048507966101169586181640625">
        <ele>173</ele>
        <time>2018-09-02T07:38:17.000Z</time>
      </trkpt>
      <trkpt lat="43.36690829135477542877197265625" lon="-1.8205743469297885894775390625">
        <ele>174</ele>
        <time>2018-09-02T07:38:22.000Z</time>
      </trkpt>
      <trkpt lat="43.36690485477447509765625" lon="-1.82060410268604755401611328125">
        <ele>174.8000030517578125</ele>
        <time>2018-09-02T07:38:24.000Z</time>
      </trkpt>
      <trkpt lat="43.36688314564526081085205078125" lon="-1.8206819705665111541748046875">
        <ele>175.1999969482421875</ele>
        <time>2018-09-02T07:38:29.000Z</time>
      </trkpt>
      <trkpt lat="43.3668704889714717864990234375" lon="-1.8207175098359584808349609375">
        <ele>175.1999969482421875</ele>
        <time>2018-09-02T07:38:31.000Z</time>
      </trkpt>
      <trkpt lat="43.366817347705364227294921875" lon="-1.82079671882092952728271484375">
        <ele>175.600006103515625</ele>
        <time>2018-09-02T07:38:37.000Z</time>
      </trkpt>
      <trkpt lat="43.36680670268833637237548828125" lon="-1.82082253508269786834716796875">
        <ele>175.600006103515625</ele>
        <time>2018-09-02T07:38:39.000Z</time>
      </trkpt>
      <trkpt lat="43.366787843406200408935546875" lon="-1.82085505686700344085693359375">
        <ele>175.600006103515625</ele>
        <time>2018-09-02T07:38:42.000Z</time>
      </trkpt>
      <trkpt lat="43.36677300743758678436279296875" lon="-1.82084633968770503997802734375">
        <ele>175.600006103515625</ele>
        <time>2018-09-02T07:38:44.000Z</time>
      </trkpt>
      <trkpt lat="43.366757333278656005859375" lon="-1.8208127282559871673583984375">
        <ele>175.600006103515625</ele>
        <time>2018-09-02T07:38:47.000Z</time>
      </trkpt>
      <trkpt lat="43.366738893091678619384765625" lon="-1.8209069408476352691650390625">
        <ele>176</ele>
        <time>2018-09-02T07:41:35.000Z</time>
      </trkpt>
      <trkpt lat="43.3667398989200592041015625" lon="-1.82092781178653240203857421875">
        <ele>176</ele>
        <time>2018-09-02T07:41:36.000Z</time>
      </trkpt>
      <trkpt lat="43.36674853228032588958740234375" lon="-1.82097190059721469879150390625">
        <ele>176.1999969482421875</ele>
        <time>2018-09-02T07:41:38.000Z</time>
      </trkpt>
      <trkpt lat="43.36675372906029224395751953125" lon="-1.82099503464996814727783203125">
        <ele>176.1999969482421875</ele>
        <time>2018-09-02T07:41:39.000Z</time>
      </trkpt>
      <trkpt lat="43.36676646955311298370361328125" lon="-1.82103459723293781280517578125">
        <ele>176.1999969482421875</ele>
        <time>2018-09-02T07:41:41.000Z</time>
      </trkpt>
      <trkpt lat="43.36677535437047481536865234375" lon="-1.821050941944122314453125">
        <ele>176.399993896484375</ele>
        <time>2018-09-02T07:41:42.000Z</time>
      </trkpt>
      <trkpt lat="43.36679463274776935577392578125" lon="-1.82115177623927593231201171875">
        <ele>177.1999969482421875</ele>
        <time>2018-09-02T07:41:47.000Z</time>
      </trkpt>
      <trkpt lat="43.36679329164326190948486328125" lon="-1.821196116507053375244140625">
        <ele>177.399993896484375</ele>
        <time>2018-09-02T07:41:49.000Z</time>
      </trkpt>
      <trkpt lat="43.36682748980820178985595703125" lon="-1.821283958852291107177734375">
        <ele>177.8000030517578125</ele>
        <time>2018-09-02T07:41:53.000Z</time>
      </trkpt>
      <trkpt lat="43.366845510900020599365234375" lon="-1.82133785448968410491943359375">
        <ele>178</ele>
        <time>2018-09-02T07:41:55.000Z</time>
      </trkpt>
      <trkpt lat="43.36684383451938629150390625" lon="-1.8213595636188983917236328125">
        <ele>178.1999969482421875</ele>
        <time>2018-09-02T07:41:56.000Z</time>
      </trkpt>
      <trkpt lat="43.36680251173675060272216796875" lon="-1.82140566408634185791015625">
        <ele>178.8000030517578125</ele>
        <time>2018-09-02T07:41:59.000Z</time>
      </trkpt>
      <trkpt lat="43.366783149540424346923828125" lon="-1.82140708900988101959228515625">
        <ele>179</ele>
        <time>2018-09-02T07:42:01.000Z</time>
      </trkpt>
      <trkpt lat="43.36675532162189483642578125" lon="-1.82142670266330242156982421875">
        <ele>179.399993896484375</ele>
        <time>2018-09-02T07:42:04.000Z</time>
      </trkpt>
      <trkpt lat="43.366750292479991912841796875" lon="-1.82147204875946044921875">
        <ele>179.399993896484375</ele>
        <time>2018-09-02T07:42:07.000Z</time>
      </trkpt>
      <trkpt lat="43.36674836464226245880126953125" lon="-1.8214873038232326507568359375">
        <ele>179.600006103515625</ele>
        <time>2018-09-02T07:42:08.000Z</time>
      </trkpt>
      <trkpt lat="43.3667434193193912506103515625" lon="-1.8215243518352508544921875">
        <ele>180</ele>
        <time>2018-09-02T07:42:10.000Z</time>
      </trkpt>
      <trkpt lat="43.36673394776880741119384765625" lon="-1.821583025157451629638671875">
        <ele>180.399993896484375</ele>
        <time>2018-09-02T07:42:13.000Z</time>
      </trkpt>
      <trkpt lat="43.366714082658290863037109375" lon="-1.82167832739651203155517578125">
        <ele>181.600006103515625</ele>
        <time>2018-09-02T07:42:18.000Z</time>
      </trkpt>
      <trkpt lat="43.36670578457415103912353515625" lon="-1.8217330612242221832275390625">
        <ele>182.399993896484375</ele>
        <time>2018-09-02T07:42:21.000Z</time>
      </trkpt>
      <trkpt lat="43.36670058779418468475341796875" lon="-1.8217521719634532928466796875">
        <ele>182.600006103515625</ele>
        <time>2018-09-02T07:42:22.000Z</time>
      </trkpt>
      <trkpt lat="43.3666941337287425994873046875" lon="-1.82177304290235042572021484375">
        <ele>182.8000030517578125</ele>
        <time>2018-09-02T07:42:23.000Z</time>
      </trkpt>
      <trkpt lat="43.36667544208467006683349609375" lon="-1.821833141148090362548828125">
        <ele>183.399993896484375</ele>
        <time>2018-09-02T07:42:26.000Z</time>
      </trkpt>
      <trkpt lat="43.36666571907699108123779296875" lon="-1.82184697128832340240478515625">
        <ele>184.399993896484375</ele>
        <time>2018-09-02T07:42:27.000Z</time>
      </trkpt>
      <trkpt lat="43.3666314370930194854736328125" lon="-1.82190195657312870025634765625">
        <ele>184.399993896484375</ele>
        <time>2018-09-02T07:42:31.000Z</time>
      </trkpt>
      <trkpt lat="43.366610817611217498779296875" lon="-1.82195107452571392059326171875">
        <ele>184.399993896484375</ele>
        <time>2018-09-02T07:42:34.000Z</time>
      </trkpt>
      <trkpt lat="43.3665950596332550048828125" lon="-1.8219830095767974853515625">
        <ele>185.600006103515625</ele>
        <time>2018-09-02T07:42:36.000Z</time>
      </trkpt>
      <trkpt lat="43.36657184176146984100341796875" lon="-1.8220277689397335052490234375">
        <ele>185</ele>
        <time>2018-09-02T07:42:39.000Z</time>
      </trkpt>
      <trkpt lat="43.36656614206731319427490234375" lon="-1.82204528711736202239990234375">
        <ele>184.8000030517578125</ele>
        <time>2018-09-02T07:42:40.000Z</time>
      </trkpt>
      <trkpt lat="43.366526663303375244140625" lon="-1.82216715998947620391845703125">
        <ele>185.8000030517578125</ele>
        <time>2018-09-02T07:42:46.000Z</time>
      </trkpt>
      <trkpt lat="43.36649774573743343353271484375" lon="-1.8222658149898052215576171875">
        <ele>186.8000030517578125</ele>
        <time>2018-09-02T07:42:51.000Z</time>
      </trkpt>
      <trkpt lat="43.36647595278918743133544921875" lon="-1.82232088409364223480224609375">
        <ele>187.1999969482421875</ele>
        <time>2018-09-02T07:42:54.000Z</time>
      </trkpt>
      <trkpt lat="43.3664540760219097137451171875" lon="-1.822407133877277374267578125">
        <ele>188</ele>
        <time>2018-09-02T07:42:58.000Z</time>
      </trkpt>
      <trkpt lat="43.36645315401256084442138671875" lon="-1.8225216306746006011962890625">
        <ele>189</ele>
        <time>2018-09-02T07:43:03.000Z</time>
      </trkpt>
      <trkpt lat="43.3664456941187381744384765625" lon="-1.822545267641544342041015625">
        <ele>189.1999969482421875</ele>
        <time>2018-09-02T07:43:04.000Z</time>
      </trkpt>
      <trkpt lat="43.3664225600659847259521484375" lon="-1.8226751871407032012939453125">
        <ele>190.1999969482421875</ele>
        <time>2018-09-02T07:43:09.000Z</time>
      </trkpt>
      <trkpt lat="43.3664037846028804779052734375" lon="-1.822789013385772705078125">
        <ele>191</ele>
        <time>2018-09-02T07:43:13.000Z</time>
      </trkpt>
      <trkpt lat="43.36639129556715488433837890625" lon="-1.82286319322884082794189453125">
        <ele>191.399993896484375</ele>
        <time>2018-09-02T07:43:16.000Z</time>
      </trkpt>
      <trkpt lat="43.36632088758051395416259765625" lon="-1.82305991649627685546875">
        <ele>192</ele>
        <time>2018-09-02T07:43:23.000Z</time>
      </trkpt>
      <trkpt lat="43.36623237468302249908447265625" lon="-1.8232676200568675994873046875">
        <ele>192.1999969482421875</ele>
        <time>2018-09-02T07:43:30.000Z</time>
      </trkpt>
      <trkpt lat="43.36622181348502635955810546875" lon="-1.82329662144184112548828125">
        <ele>192.1999969482421875</ele>
        <time>2018-09-02T07:43:31.000Z</time>
      </trkpt>
      <trkpt lat="43.366215527057647705078125" lon="-1.82332604192197322845458984375">
        <ele>192.399993896484375</ele>
        <time>2018-09-02T07:43:32.000Z</time>
      </trkpt>
      <trkpt lat="43.366186358034610748291015625" lon="-1.82341120205819606781005859375">
        <ele>192.600006103515625</ele>
        <time>2018-09-02T07:43:35.000Z</time>
      </trkpt>
      <trkpt lat="43.36617370136082172393798828125" lon="-1.823435761034488677978515625">
        <ele>192.399993896484375</ele>
        <time>2018-09-02T07:43:36.000Z</time>
      </trkpt>
      <trkpt lat="43.36613615043461322784423828125" lon="-1.823481358587741851806640625">
        <ele>193</ele>
        <time>2018-09-02T07:43:39.000Z</time>
      </trkpt>
      <trkpt lat="43.3661107532680034637451171875" lon="-1.8235039897263050079345703125">
        <ele>193</ele>
        <time>2018-09-02T07:43:41.000Z</time>
      </trkpt>
      <trkpt lat="43.36609558202326297760009765625" lon="-1.82352670468389987945556640625">
        <ele>193</ele>
        <time>2018-09-02T07:43:43.000Z</time>
      </trkpt>
      <trkpt lat="43.3660805784165859222412109375" lon="-1.8235633336007595062255859375">
        <ele>193</ele>
        <time>2018-09-02T07:43:46.000Z</time>
      </trkpt>
      <trkpt lat="43.366081081330776214599609375" lon="-1.8235616572201251983642578125">
        <ele>193.1999969482421875</ele>
        <time>2018-09-02T07:43:47.000Z</time>
      </trkpt>
      <trkpt lat="43.36607663892209529876708984375" lon="-1.82361002080142498016357421875">
        <ele>193</ele>
        <time>2018-09-02T07:43:55.000Z</time>
      </trkpt>
      <trkpt lat="43.3660685084760189056396484375" lon="-1.8236339092254638671875">
        <ele>193</ele>
        <time>2018-09-02T07:43:56.000Z</time>
      </trkpt>
      <trkpt lat="43.366058953106403350830078125" lon="-1.82365846820175647735595703125">
        <ele>193.1999969482421875</ele>
        <time>2018-09-02T07:43:57.000Z</time>
      </trkpt>
      <trkpt lat="43.3660017885267734527587890625" lon="-1.82378855533897876739501953125">
        <ele>193.399993896484375</ele>
        <time>2018-09-02T07:44:03.000Z</time>
      </trkpt>
      <trkpt lat="43.36598745547235012054443359375" lon="-1.8238228373229503631591796875">
        <ele>193.399993896484375</ele>
        <time>2018-09-02T07:44:05.000Z</time>
      </trkpt>
      <trkpt lat="43.36596365086734294891357421875" lon="-1.8238758109509944915771484375">
        <ele>193.600006103515625</ele>
        <time>2018-09-02T07:44:08.000Z</time>
      </trkpt>
      <trkpt lat="43.365935571491718292236328125" lon="-1.823942027986049652099609375">
        <ele>193.8000030517578125</ele>
        <time>2018-09-02T07:44:11.000Z</time>
      </trkpt>
      <trkpt lat="43.365912772715091705322265625" lon="-1.82399692945182323455810546875">
        <ele>193.8000030517578125</ele>
        <time>2018-09-02T07:44:13.000Z</time>
      </trkpt>
      <trkpt lat="43.365859799087047576904296875" lon="-1.8241395056247711181640625">
        <ele>194.399993896484375</ele>
        <time>2018-09-02T07:44:18.000Z</time>
      </trkpt>
      <trkpt lat="43.3658482320606708526611328125" lon="-1.82416775263845920562744140625">
        <ele>194.600006103515625</ele>
        <time>2018-09-02T07:44:19.000Z</time>
      </trkpt>
      <trkpt lat="43.36581948213279247283935546875" lon="-1.8242348916828632354736328125">
        <ele>195</ele>
        <time>2018-09-02T07:44:22.000Z</time>
      </trkpt>
      <trkpt lat="43.3658157102763652801513671875" lon="-1.82427520863711833953857421875">
        <ele>195.399993896484375</ele>
        <time>2018-09-02T07:44:24.000Z</time>
      </trkpt>
      <trkpt lat="43.36581478826701641082763671875" lon="-1.824313513934612274169921875">
        <ele>195.600006103515625</ele>
        <time>2018-09-02T07:44:26.000Z</time>
      </trkpt>
      <trkpt lat="43.36581395007669925689697265625" lon="-1.82439456693828105926513671875">
        <ele>196.399993896484375</ele>
        <time>2018-09-02T07:44:30.000Z</time>
      </trkpt>
      <trkpt lat="43.36581386625766754150390625" lon="-1.8244129233062267303466796875">
        <ele>196.600006103515625</ele>
        <time>2018-09-02T07:44:31.000Z</time>
      </trkpt>
      <trkpt lat="43.36581562645733356475830078125" lon="-1.8244343809783458709716796875">
        <ele>196.600006103515625</ele>
        <time>2018-09-02T07:44:32.000Z</time>
      </trkpt>
      <trkpt lat="43.36585099808871746063232421875" lon="-1.82457293383777141571044921875">
        <ele>197.399993896484375</ele>
        <time>2018-09-02T07:44:40.000Z</time>
      </trkpt>
      <trkpt lat="43.36585736833512783050537109375" lon="-1.824625991284847259521484375">
        <ele>198</ele>
        <time>2018-09-02T07:44:43.000Z</time>
      </trkpt>
      <trkpt lat="43.36586591787636280059814453125" lon="-1.82467519305646419525146484375">
        <ele>198.8000030517578125</ele>
        <time>2018-09-02T07:44:46.000Z</time>
      </trkpt>
      <trkpt lat="43.3658649958670139312744140625" lon="-1.82470721192657947540283203125">
        <ele>199</ele>
        <time>2018-09-02T07:44:48.000Z</time>
      </trkpt>
      <trkpt lat="43.36584345437586307525634765625" lon="-1.82477946393191814422607421875">
        <ele>200</ele>
        <time>2018-09-02T07:44:53.000Z</time>
      </trkpt>
      <trkpt lat="43.36584295146167278289794921875" lon="-1.8247931264340877532958984375">
        <ele>200.1999969482421875</ele>
        <time>2018-09-02T07:44:54.000Z</time>
      </trkpt>
      <trkpt lat="43.36584211327135562896728515625" lon="-1.82481315918266773223876953125">
        <ele>200.1999969482421875</ele>
        <time>2018-09-02T07:44:55.000Z</time>
      </trkpt>
      <trkpt lat="43.36583792231976985931396484375" lon="-1.82487082667648792266845703125">
        <ele>200.8000030517578125</ele>
        <time>2018-09-02T07:44:58.000Z</time>
      </trkpt>
      <trkpt lat="43.36582417599856853485107421875" lon="-1.82489412836730480194091796875">
        <ele>201.399993896484375</ele>
        <time>2018-09-02T07:45:00.000Z</time>
      </trkpt>
      <trkpt lat="43.36581512354314327239990234375" lon="-1.8248958885669708251953125">
        <ele>201.600006103515625</ele>
        <time>2018-09-02T07:45:01.000Z</time>
      </trkpt>
      <trkpt lat="43.3657877147197723388671875" lon="-1.82488356716930866241455078125">
        <ele>202</ele>
        <time>2018-09-02T07:45:04.000Z</time>
      </trkpt>
      <trkpt lat="43.36577371694147586822509765625" lon="-1.8248628638684749603271484375">
        <ele>202.399993896484375</ele>
        <time>2018-09-02T07:45:06.000Z</time>
      </trkpt>
      <trkpt lat="43.36576365865767002105712890625" lon="-1.82485188357532024383544921875">
        <ele>202.399993896484375</ele>
        <time>2018-09-02T07:45:07.000Z</time>
      </trkpt>
      <trkpt lat="43.3657550252974033355712890625" lon="-1.824841238558292388916015625">
        <ele>202.399993896484375</ele>
        <time>2018-09-02T07:45:08.000Z</time>
      </trkpt>
      <trkpt lat="43.365705907344818115234375" lon="-1.82476823218166828155517578125">
        <ele>203.399993896484375</ele>
        <time>2018-09-02T07:45:14.000Z</time>
      </trkpt>
      <trkpt lat="43.36569811217486858367919921875" lon="-1.824757754802703857421875">
        <ele>203.1999969482421875</ele>
        <time>2018-09-02T07:45:15.000Z</time>
      </trkpt>
      <trkpt lat="43.3656380139291286468505859375" lon="-1.824668906629085540771484375">
        <ele>204.399993896484375</ele>
        <time>2018-09-02T07:45:23.000Z</time>
      </trkpt>
      <trkpt lat="43.365624435245990753173828125" lon="-1.824642084538936614990234375">
        <ele>204.399993896484375</ele>
        <time>2018-09-02T07:45:24.000Z</time>
      </trkpt>
      <trkpt lat="43.36544464342296123504638671875" lon="-1.82450453750789165496826171875">
        <ele>207.399993896484375</ele>
        <time>2018-09-02T07:45:43.000Z</time>
      </trkpt>
      <trkpt lat="43.36543156765401363372802734375" lon="-1.824501268565654754638671875">
        <ele>207.600006103515625</ele>
        <time>2018-09-02T07:45:44.000Z</time>
      </trkpt>
      <trkpt lat="43.365399129688739776611328125" lon="-1.824484504759311676025390625">
        <ele>208</ele>
        <time>2018-09-02T07:45:47.000Z</time>
      </trkpt>
      <trkpt lat="43.36536468006670475006103515625" lon="-1.8244732730090618133544921875">
        <ele>208.399993896484375</ele>
        <time>2018-09-02T07:45:50.000Z</time>
      </trkpt>
      <trkpt lat="43.3652780950069427490234375" lon="-1.82446363382041454315185546875">
        <ele>209.399993896484375</ele>
        <time>2018-09-02T07:45:57.000Z</time>
      </trkpt>
      <trkpt lat="43.365254960954189300537109375" lon="-1.82444988749921321868896484375">
        <ele>209.600006103515625</ele>
        <time>2018-09-02T07:45:59.000Z</time>
      </trkpt>
      <trkpt lat="43.365205340087413787841796875" lon="-1.8244360573589801788330078125">
        <ele>210.399993896484375</ele>
        <time>2018-09-02T07:46:04.000Z</time>
      </trkpt>
      <trkpt lat="43.36519435979425907135009765625" lon="-1.82443362660706043243408203125">
        <ele>210.399993896484375</ele>
        <time>2018-09-02T07:46:05.000Z</time>
      </trkpt>
      <trkpt lat="43.3651734888553619384765625" lon="-1.8244300223886966705322265625">
        <ele>210.399993896484375</ele>
        <time>2018-09-02T07:46:07.000Z</time>
      </trkpt>
      <trkpt lat="43.36512277834117412567138671875" lon="-1.82441703043878078460693359375">
        <ele>210.8000030517578125</ele>
        <time>2018-09-02T07:46:11.000Z</time>
      </trkpt>
      <trkpt lat="43.36509109474718570709228515625" lon="-1.82442842982709407806396484375">
        <ele>211.399993896484375</ele>
        <time>2018-09-02T07:46:14.000Z</time>
      </trkpt>
      <trkpt lat="43.36500660516321659088134765625" lon="-1.824445612728595733642578125">
        <ele>211.8000030517578125</ele>
        <time>2018-09-02T07:46:20.000Z</time>
      </trkpt>
      <trkpt lat="43.3648937009274959564208984375" lon="-1.82449380867183208465576171875">
        <ele>212</ele>
        <time>2018-09-02T07:46:26.000Z</time>
      </trkpt>
      <trkpt lat="43.3648367039859294891357421875" lon="-1.82452649809420108795166015625">
        <ele>212.399993896484375</ele>
        <time>2018-09-02T07:46:29.000Z</time>
      </trkpt>
      <trkpt lat="43.36477476172149181365966796875" lon="-1.824569664895534515380859375">
        <ele>212.8000030517578125</ele>
        <time>2018-09-02T07:46:32.000Z</time>
      </trkpt>
      <trkpt lat="43.36467233486473560333251953125" lon="-1.82464987970888614654541015625">
        <ele>213.399993896484375</ele>
        <time>2018-09-02T07:46:37.000Z</time>
      </trkpt>
      <trkpt lat="43.364652805030345916748046875" lon="-1.82466991245746612548828125">
        <ele>213.600006103515625</ele>
        <time>2018-09-02T07:46:38.000Z</time>
      </trkpt>
      <trkpt lat="43.36451299488544464111328125" lon="-1.82479270733892917633056640625">
        <ele>214</ele>
        <time>2018-09-02T07:46:44.000Z</time>
      </trkpt>
      <trkpt lat="43.36445457302033901214599609375" lon="-1.82481869123876094818115234375">
        <ele>214.600006103515625</ele>
        <time>2018-09-02T07:46:47.000Z</time>
      </trkpt>
      <trkpt lat="43.36440629325807094573974609375" lon="-1.8248300068080425262451171875">
        <ele>215</ele>
        <time>2018-09-02T07:46:50.000Z</time>
      </trkpt>
      <trkpt lat="43.36431258358061313629150390625" lon="-1.82483813725411891937255859375">
        <ele>215.600006103515625</ele>
        <time>2018-09-02T07:46:55.000Z</time>
      </trkpt>
      <trkpt lat="43.3642717637121677398681640625" lon="-1.82484283111989498138427734375">
        <ele>215.600006103515625</ele>
        <time>2018-09-02T07:46:57.000Z</time>
      </trkpt>
      <trkpt lat="43.36417512036859989166259765625" lon="-1.82484048418700695037841796875">
        <ele>215.600006103515625</ele>
        <time>2018-09-02T07:47:02.000Z</time>
      </trkpt>
      <trkpt lat="43.36407445371150970458984375" lon="-1.82479941286146640777587890625">
        <ele>216</ele>
        <time>2018-09-02T07:47:07.000Z</time>
      </trkpt>
      <trkpt lat="43.36399306543171405792236328125" lon="-1.824756748974323272705078125">
        <ele>216.1999969482421875</ele>
        <time>2018-09-02T07:47:10.000Z</time>
      </trkpt>
      <trkpt lat="43.36388862691819667816162109375" lon="-1.82470637373626232147216796875">
        <ele>216.1999969482421875</ele>
        <time>2018-09-02T07:47:13.000Z</time>
      </trkpt>
      <trkpt lat="43.3637319691479206085205078125" lon="-1.82464200071990489959716796875">
        <ele>216</ele>
        <time>2018-09-02T07:47:18.000Z</time>
      </trkpt>
      <trkpt lat="43.3636860363185405731201171875" lon="-1.82461760938167572021484375">
        <ele>216</ele>
        <time>2018-09-02T07:47:19.000Z</time>
      </trkpt>
      <trkpt lat="43.3633903227746486663818359375" lon="-1.82451032102108001708984375">
        <ele>216.399993896484375</ele>
        <time>2018-09-02T07:47:27.000Z</time>
      </trkpt>
      <trkpt lat="43.363291583955287933349609375" lon="-1.82459883391857147216796875">
        <ele>216.399993896484375</ele>
        <time>2018-09-02T07:47:31.000Z</time>
      </trkpt>
      <trkpt lat="43.3632635883986949920654296875" lon="-1.82466982863843441009521484375">
        <ele>216.600006103515625</ele>
        <time>2018-09-02T07:47:33.000Z</time>
      </trkpt>
      <trkpt lat="43.36325361393392086029052734375" lon="-1.8247435055673122406005859375">
        <ele>217.399993896484375</ele>
        <time>2018-09-02T07:47:36.000Z</time>
      </trkpt>
      <trkpt lat="43.36325512267649173736572265625" lon="-1.82480259798467159271240234375">
        <ele>217.8000030517578125</ele>
        <time>2018-09-02T07:47:38.000Z</time>
      </trkpt>
      <trkpt lat="43.36325109936296939849853515625" lon="-1.8248561583459377288818359375">
        <ele>218</ele>
        <time>2018-09-02T07:47:40.000Z</time>
      </trkpt>
      <trkpt lat="43.363250680267810821533203125" lon="-1.82488172315061092376708984375">
        <ele>218</ele>
        <time>2018-09-02T07:47:41.000Z</time>
      </trkpt>
      <trkpt lat="43.36325679905712604522705078125" lon="-1.8250046856701374053955078125">
        <ele>218.8000030517578125</ele>
        <time>2018-09-02T07:47:46.000Z</time>
      </trkpt>
      <trkpt lat="43.36325168609619140625" lon="-1.825031340122222900390625">
        <ele>219</ele>
        <time>2018-09-02T07:47:47.000Z</time>
      </trkpt>
      <trkpt lat="43.36322444491088390350341796875" lon="-1.82515212334692478179931640625">
        <ele>219.600006103515625</ele>
        <time>2018-09-02T07:47:52.000Z</time>
      </trkpt>
      <trkpt lat="43.36321723647415637969970703125" lon="-1.825177855789661407470703125">
        <ele>219.8000030517578125</ele>
        <time>2018-09-02T07:47:53.000Z</time>
      </trkpt>
      <trkpt lat="43.36319259367883205413818359375" lon="-1.8252853117883205413818359375">
        <ele>220.399993896484375</ele>
        <time>2018-09-02T07:47:57.000Z</time>
      </trkpt>
      <trkpt lat="43.36317993700504302978515625" lon="-1.82531297206878662109375">
        <ele>220.600006103515625</ele>
        <time>2018-09-02T07:47:58.000Z</time>
      </trkpt>
      <trkpt lat="43.36316392756998538970947265625" lon="-1.82536066509783267974853515625">
        <ele>221</ele>
        <time>2018-09-02T07:48:00.000Z</time>
      </trkpt>
      <trkpt lat="43.3631536178290843963623046875" lon="-1.8253986351191997528076171875">
        <ele>221.1999969482421875</ele>
        <time>2018-09-02T07:48:02.000Z</time>
      </trkpt>
      <trkpt lat="43.363148085772991180419921875" lon="-1.82550500147044658660888671875">
        <ele>222.1999969482421875</ele>
        <time>2018-09-02T07:48:07.000Z</time>
      </trkpt>
      <trkpt lat="43.3631430566310882568359375" lon="-1.82553358376026153564453125">
        <ele>222</ele>
        <time>2018-09-02T07:48:08.000Z</time>
      </trkpt>
      <trkpt lat="43.3631029911339282989501953125" lon="-1.825709603726863861083984375">
        <ele>223</ele>
        <time>2018-09-02T07:48:14.000Z</time>
      </trkpt>
      <trkpt lat="43.363086394965648651123046875" lon="-1.82574807666242122650146484375">
        <ele>223</ele>
        <time>2018-09-02T07:48:15.000Z</time>
      </trkpt>
      <trkpt lat="43.36307440884411334991455078125" lon="-1.82578026317059993743896484375">
        <ele>223.1999969482421875</ele>
        <time>2018-09-02T07:48:16.000Z</time>
      </trkpt>
      <trkpt lat="43.363044820725917816162109375" lon="-1.825841031968593597412109375">
        <ele>223.600006103515625</ele>
        <time>2018-09-02T07:48:18.000Z</time>
      </trkpt>
      <trkpt lat="43.36299260146915912628173828125" lon="-1.82591420598328113555908203125">
        <ele>223.399993896484375</ele>
        <time>2018-09-02T07:48:21.000Z</time>
      </trkpt>
      <trkpt lat="43.36288916878402233123779296875" lon="-1.82597690261900424957275390625">
        <ele>224.1999969482421875</ele>
        <time>2018-09-02T07:48:26.000Z</time>
      </trkpt>
      <trkpt lat="43.36286704055964946746826171875" lon="-1.82598545216023921966552734375">
        <ele>224.1999969482421875</ele>
        <time>2018-09-02T07:48:27.000Z</time>
      </trkpt>
      <trkpt lat="43.3627167530357837677001953125" lon="-1.826088130474090576171875">
        <ele>224.600006103515625</ele>
        <time>2018-09-02T07:48:33.000Z</time>
      </trkpt>
      <trkpt lat="43.36261172778904438018798828125" lon="-1.82622903026640415191650390625">
        <ele>224.8000030517578125</ele>
        <time>2018-09-02T07:48:38.000Z</time>
      </trkpt>
      <trkpt lat="43.36258926428854465484619140625" lon="-1.8262586183845996856689453125">
        <ele>225</ele>
        <time>2018-09-02T07:48:39.000Z</time>
      </trkpt>
      <trkpt lat="43.3625001646578311920166015625" lon="-1.826370097696781158447265625">
        <ele>225</ele>
        <time>2018-09-02T07:48:44.000Z</time>
      </trkpt>
      <trkpt lat="43.36248080246150493621826171875" lon="-1.826395578682422637939453125">
        <ele>225.1999969482421875</ele>
        <time>2018-09-02T07:48:45.000Z</time>
      </trkpt>
      <trkpt lat="43.3624364621937274932861328125" lon="-1.82644427753984928131103515625">
        <ele>225.399993896484375</ele>
        <time>2018-09-02T07:48:47.000Z</time>
      </trkpt>
      <trkpt lat="43.36236077360808849334716796875" lon="-1.82648576796054840087890625">
        <ele>225.1999969482421875</ele>
        <time>2018-09-02T07:48:50.000Z</time>
      </trkpt>
      <trkpt lat="43.362271673977375030517578125" lon="-1.82650043629109859466552734375">
        <ele>225.600006103515625</ele>
        <time>2018-09-02T07:48:55.000Z</time>
      </trkpt>
      <trkpt lat="43.362249545753002166748046875" lon="-1.8264919705688953399658203125">
        <ele>225.600006103515625</ele>
        <time>2018-09-02T07:48:56.000Z</time>
      </trkpt>
      <trkpt lat="43.3621746115386486053466796875" lon="-1.82646607048809528350830078125">
        <ele>225.8000030517578125</ele>
        <time>2018-09-02T07:48:59.000Z</time>
      </trkpt>
      <trkpt lat="43.36206221021711826324462890625" lon="-1.8264569342136383056640625">
        <ele>226</ele>
        <time>2018-09-02T07:49:03.000Z</time>
      </trkpt>
      <trkpt lat="43.3619667403399944305419921875" lon="-1.82644947431981563568115234375">
        <ele>226</ele>
        <time>2018-09-02T07:49:06.000Z</time>
      </trkpt>
      <trkpt lat="43.36193597875535488128662109375" lon="-1.826442182064056396484375">
        <ele>226</ele>
        <time>2018-09-02T07:49:07.000Z</time>
      </trkpt>
      <trkpt lat="43.3618125133216381072998046875" lon="-1.82642768137156963348388671875">
        <ele>226.399993896484375</ele>
        <time>2018-09-02T07:49:11.000Z</time>
      </trkpt>
      <trkpt lat="43.3617266826331615447998046875" lon="-1.826448552310466766357421875">
        <ele>226.8000030517578125</ele>
        <time>2018-09-02T07:49:14.000Z</time>
      </trkpt>
      <trkpt lat="43.361678905785083770751953125" lon="-1.82647277601063251495361328125">
        <ele>227</ele>
        <time>2018-09-02T07:49:16.000Z</time>
      </trkpt>
      <trkpt lat="43.361589722335338592529296875" lon="-1.82653647847473621368408203125">
        <ele>227.600006103515625</ele>
        <time>2018-09-02T07:49:20.000Z</time>
      </trkpt>
      <trkpt lat="43.36151805706322193145751953125" lon="-1.82661292143166065216064453125">
        <ele>227.600006103515625</ele>
        <time>2018-09-02T07:49:23.000Z</time>
      </trkpt>
      <trkpt lat="43.361474387347698211669921875" lon="-1.82664259336888790130615234375">
        <ele>227.600006103515625</ele>
        <time>2018-09-02T07:49:25.000Z</time>
      </trkpt>
      <trkpt lat="43.3614071644842624664306640625" lon="-1.82667662389576435089111328125">
        <ele>228</ele>
        <time>2018-09-02T07:49:28.000Z</time>
      </trkpt>
      <trkpt lat="43.36138294078409671783447265625" lon="-1.8266874365508556365966796875">
        <ele>228</ele>
        <time>2018-09-02T07:49:29.000Z</time>
      </trkpt>
      <trkpt lat="43.3612995408475399017333984375" lon="-1.82675675489008426666259765625">
        <ele>228.600006103515625</ele>
        <time>2018-09-02T07:49:33.000Z</time>
      </trkpt>
      <trkpt lat="43.36124011315405368804931640625" lon="-1.82678994722664356231689453125">
        <ele>228.600006103515625</ele>
        <time>2018-09-02T07:49:36.000Z</time>
      </trkpt>
      <trkpt lat="43.3611771650612354278564453125" lon="-1.82684442959725856781005859375">
        <ele>229.1999969482421875</ele>
        <time>2018-09-02T07:49:39.000Z</time>
      </trkpt>
      <trkpt lat="43.36105554364621639251708984375" lon="-1.82701257057487964630126953125">
        <ele>229.399993896484375</ele>
        <time>2018-09-02T07:49:46.000Z</time>
      </trkpt>
      <trkpt lat="43.36100466549396514892578125" lon="-1.82707426138222217559814453125">
        <ele>229.600006103515625</ele>
        <time>2018-09-02T07:49:49.000Z</time>
      </trkpt>
      <trkpt lat="43.3609475009143352508544921875" lon="-1.8271923623979091644287109375">
        <ele>230.399993896484375</ele>
        <time>2018-09-02T07:49:54.000Z</time>
      </trkpt>
      <trkpt lat="43.360915146768093109130859375" lon="-1.8272610940039157867431640625">
        <ele>230.600006103515625</ele>
        <time>2018-09-02T07:49:57.000Z</time>
      </trkpt>
      <trkpt lat="43.36091187782585620880126953125" lon="-1.8272822163999080657958984375">
        <ele>230.8000030517578125</ele>
        <time>2018-09-02T07:49:58.000Z</time>
      </trkpt>
      <trkpt lat="43.36091103963553905487060546875" lon="-1.8273073621094226837158203125">
        <ele>230.8000030517578125</ele>
        <time>2018-09-02T07:49:59.000Z</time>
      </trkpt>
      <trkpt lat="43.36090676486492156982421875" lon="-1.8273563124239444732666015625">
        <ele>231</ele>
        <time>2018-09-02T07:50:01.000Z</time>
      </trkpt>
      <trkpt lat="43.3608794398605823516845703125" lon="-1.82744306512176990509033203125">
        <ele>231.399993896484375</ele>
        <time>2018-09-02T07:50:05.000Z</time>
      </trkpt>
      <trkpt lat="43.36083174683153629302978515625" lon="-1.8275252915918827056884765625">
        <ele>231.8000030517578125</ele>
        <time>2018-09-02T07:50:08.000Z</time>
      </trkpt>
      <trkpt lat="43.3607654459774494171142578125" lon="-1.82763283140957355499267578125">
        <ele>232.1999969482421875</ele>
        <time>2018-09-02T07:50:12.000Z</time>
      </trkpt>
      <trkpt lat="43.36064717732369899749755859375" lon="-1.82779544033110141754150390625">
        <ele>232.1999969482421875</ele>
        <time>2018-09-02T07:50:18.000Z</time>
      </trkpt>
      <trkpt lat="43.36050451733171939849853515625" lon="-1.82786785997450351715087890625">
        <ele>232.399993896484375</ele>
        <time>2018-09-02T07:50:24.000Z</time>
      </trkpt>
      <trkpt lat="43.3604657091200351715087890625" lon="-1.82788512669503688812255859375">
        <ele>233</ele>
        <time>2018-09-02T07:50:26.000Z</time>
      </trkpt>
      <trkpt lat="43.3603500388562679290771484375" lon="-1.8279799260199069976806640625">
        <ele>233.399993896484375</ele>
        <time>2018-09-02T07:50:31.000Z</time>
      </trkpt>
      <trkpt lat="43.3602605201303958892822265625" lon="-1.82805527932941913604736328125">
        <ele>233.399993896484375</ele>
        <time>2018-09-02T07:50:35.000Z</time>
      </trkpt>
      <trkpt lat="43.360238559544086456298828125" lon="-1.8280684389173984527587890625">
        <ele>233.399993896484375</ele>
        <time>2018-09-02T07:50:36.000Z</time>
      </trkpt>
      <trkpt lat="43.3600992523133754730224609375" lon="-1.82814798317849636077880859375">
        <ele>233.600006103515625</ele>
        <time>2018-09-02T07:50:42.000Z</time>
      </trkpt>
      <trkpt lat="43.3600405789911746978759765625" lon="-1.82818301953375339508056640625">
        <ele>234</ele>
        <time>2018-09-02T07:50:45.000Z</time>
      </trkpt>
      <trkpt lat="43.360008895397186279296875" lon="-1.8282156251370906829833984375">
        <ele>234</ele>
        <time>2018-09-02T07:50:47.000Z</time>
      </trkpt>
      <trkpt lat="43.359893225133419036865234375" lon="-1.82827823795378208160400390625">
        <ele>234</ele>
        <time>2018-09-02T07:50:52.000Z</time>
      </trkpt>
      <trkpt lat="43.35976808331906795501708984375" lon="-1.82835836894810199737548828125">
        <ele>233.8000030517578125</ele>
        <time>2018-09-02T07:50:55.000Z</time>
      </trkpt>
      <trkpt lat="43.35974344052374362945556640625" lon="-1.8283785693347454071044921875">
        <ele>234</ele>
        <time>2018-09-02T07:50:56.000Z</time>
      </trkpt>
      <trkpt lat="43.35966490209102630615234375" lon="-1.82854427956044673919677734375">
        <ele>234.600006103515625</ele>
        <time>2018-09-02T07:51:02.000Z</time>
      </trkpt>
      <trkpt lat="43.359604887664318084716796875" lon="-1.82873253710567951202392578125">
        <ele>235</ele>
        <time>2018-09-02T07:51:08.000Z</time>
      </trkpt>
      <trkpt lat="43.35959994234144687652587890625" lon="-1.82876162230968475341796875">
        <ele>235</ele>
        <time>2018-09-02T07:51:09.000Z</time>
      </trkpt>
      <trkpt lat="43.35954998619854450225830078125" lon="-1.8289924599230289459228515625">
        <ele>235.8000030517578125</ele>
        <time>2018-09-02T07:51:15.000Z</time>
      </trkpt>
      <trkpt lat="43.3595369942486286163330078125" lon="-1.82916420511901378631591796875">
        <ele>236</ele>
        <time>2018-09-02T07:51:20.000Z</time>
      </trkpt>
      <trkpt lat="43.35949433036148548126220703125" lon="-1.82929135859012603759765625">
        <ele>236</ele>
        <time>2018-09-02T07:51:23.000Z</time>
      </trkpt>
      <trkpt lat="43.3594323880970478057861328125" lon="-1.82941918261349201202392578125">
        <ele>236.399993896484375</ele>
        <time>2018-09-02T07:51:26.000Z</time>
      </trkpt>
      <trkpt lat="43.35937011055648326873779296875" lon="-1.82954910211265087127685546875">
        <ele>236.600006103515625</ele>
        <time>2018-09-02T07:51:29.000Z</time>
      </trkpt>
      <trkpt lat="43.35926651023328304290771484375" lon="-1.829680614173412322998046875">
        <ele>237</ele>
        <time>2018-09-02T07:51:33.000Z</time>
      </trkpt>
      <trkpt lat="43.3592359162867069244384765625" lon="-1.82973484508693218231201171875">
        <ele>237.1999969482421875</ele>
        <time>2018-09-02T07:51:35.000Z</time>
      </trkpt>
      <trkpt lat="43.35920649580657482147216796875" lon="-1.82980223558843135833740234375">
        <ele>237.399993896484375</ele>
        <time>2018-09-02T07:51:37.000Z</time>
      </trkpt>
      <trkpt lat="43.3591251075267791748046875" lon="-1.829887144267559051513671875">
        <ele>237.399993896484375</ele>
        <time>2018-09-02T07:51:40.000Z</time>
      </trkpt>
      <trkpt lat="43.3590052463114261627197265625" lon="-1.8299892358481884002685546875">
        <ele>238</ele>
        <time>2018-09-02T07:51:45.000Z</time>
      </trkpt>
      <trkpt lat="43.358985297381877899169921875" lon="-1.83000859804451465606689453125">
        <ele>238.1999969482421875</ele>
        <time>2018-09-02T07:51:46.000Z</time>
      </trkpt>
      <trkpt lat="43.35893324576318264007568359375" lon="-1.83010146953165531158447265625">
        <ele>238.600006103515625</ele>
        <time>2018-09-02T07:51:50.000Z</time>
      </trkpt>
      <trkpt lat="43.35889485664665699005126953125" lon="-1.83017573319375514984130859375">
        <ele>238.8000030517578125</ele>
        <time>2018-09-02T07:51:53.000Z</time>
      </trkpt>
      <trkpt lat="43.3588862232863903045654296875" lon="-1.83020741678774356842041015625">
        <ele>238.8000030517578125</ele>
        <time>2018-09-02T07:51:55.000Z</time>
      </trkpt>
      <trkpt lat="43.35887105204164981842041015625" lon="-1.83024764992296695709228515625">
        <ele>239</ele>
        <time>2018-09-02T07:51:57.000Z</time>
      </trkpt>
      <trkpt lat="43.3588595688343048095703125" lon="-1.8302732147276401519775390625">
        <ele>239.1999969482421875</ele>
        <time>2018-09-02T07:51:58.000Z</time>
      </trkpt>
      <trkpt lat="43.35883878171443939208984375" lon="-1.83032057248055934906005859375">
        <ele>239.399993896484375</ele>
        <time>2018-09-02T07:52:00.000Z</time>
      </trkpt>
      <trkpt lat="43.35880818776786327362060546875" lon="-1.83037228882312774658203125">
        <ele>239.600006103515625</ele>
        <time>2018-09-02T07:52:02.000Z</time>
      </trkpt>
      <trkpt lat="43.35871397517621517181396484375" lon="-1.8304720334708690643310546875">
        <ele>239.600006103515625</ele>
        <time>2018-09-02T07:52:07.000Z</time>
      </trkpt>
      <trkpt lat="43.35866603069007396697998046875" lon="-1.8305152840912342071533203125">
        <ele>240</ele>
        <time>2018-09-02T07:52:10.000Z</time>
      </trkpt>
      <trkpt lat="43.358631916344165802001953125" lon="-1.83055778034031391143798828125">
        <ele>240.1999969482421875</ele>
        <time>2018-09-02T07:52:12.000Z</time>
      </trkpt>
      <trkpt lat="43.35861079394817352294921875" lon="-1.83058678172528743743896484375">
        <ele>240.1999969482421875</ele>
        <time>2018-09-02T07:52:13.000Z</time>
      </trkpt>
      <trkpt lat="43.35850828327238559722900390625" lon="-1.8307779729366302490234375">
        <ele>240.399993896484375</ele>
        <time>2018-09-02T07:52:18.000Z</time>
      </trkpt>
      <trkpt lat="43.3584558963775634765625" lon="-1.83096597902476787567138671875">
        <ele>240.600006103515625</ele>
        <time>2018-09-02T07:52:23.000Z</time>
      </trkpt>
      <trkpt lat="43.35841122083365917205810546875" lon="-1.831165216863155364990234375">
        <ele>240.1999969482421875</ele>
        <time>2018-09-02T07:52:28.000Z</time>
      </trkpt>
      <trkpt lat="43.35835137404501438140869140625" lon="-1.83142312802374362945556640625">
        <ele>239.600006103515625</ele>
        <time>2018-09-02T07:52:33.000Z</time>
      </trkpt>
      <trkpt lat="43.3582723326981067657470703125" lon="-1.8317333422601222991943359375">
        <ele>239.1999969482421875</ele>
        <time>2018-09-02T07:52:38.000Z</time>
      </trkpt>
      <trkpt lat="43.358252048492431640625" lon="-1.8317946977913379669189453125">
        <ele>239</ele>
        <time>2018-09-02T07:52:39.000Z</time>
      </trkpt>
      <trkpt lat="43.35815959610044956207275390625" lon="-1.8319983780384063720703125">
        <ele>239.1999969482421875</ele>
        <time>2018-09-02T07:52:43.000Z</time>
      </trkpt>
      <trkpt lat="43.3581348694860935211181640625" lon="-1.8320458196103572845458984375">
        <ele>239.1999969482421875</ele>
        <time>2018-09-02T07:52:44.000Z</time>
      </trkpt>
      <trkpt lat="43.3580346219241619110107421875" lon="-1.83223307132720947265625">
        <ele>239.600006103515625</ele>
        <time>2018-09-02T07:52:49.000Z</time>
      </trkpt>
      <trkpt lat="43.3579112403094768524169921875" lon="-1.83245091699063777923583984375">
        <ele>240</ele>
        <time>2018-09-02T07:52:56.000Z</time>
      </trkpt>
      <trkpt lat="43.35782088339328765869140625" lon="-1.8326099216938018798828125">
        <ele>240.1999969482421875</ele>
        <time>2018-09-02T07:53:00.000Z</time>
      </trkpt>
      <trkpt lat="43.357791043817996978759765625" lon="-1.8326506577432155609130859375">
        <ele>240.600006103515625</ele>
        <time>2018-09-02T07:53:01.000Z</time>
      </trkpt>
      <trkpt lat="43.35760672576725482940673828125" lon="-1.83291544206440448760986328125">
        <ele>240.8000030517578125</ele>
        <time>2018-09-02T07:53:08.000Z</time>
      </trkpt>
      <trkpt lat="43.35753531195223331451416015625" lon="-1.83300714008510112762451171875">
        <ele>241.1999969482421875</ele>
        <time>2018-09-02T07:53:11.000Z</time>
      </trkpt>
      <trkpt lat="43.35750647820532321929931640625" lon="-1.83304511010646820068359375">
        <ele>241.399993896484375</ele>
        <time>2018-09-02T07:53:13.000Z</time>
      </trkpt>
      <trkpt lat="43.35738980211317539215087890625" lon="-1.833195649087429046630859375">
        <ele>241.8000030517578125</ele>
        <time>2018-09-02T07:53:19.000Z</time>
      </trkpt>
      <trkpt lat="43.357357196509838104248046875" lon="-1.8332437612116336822509765625">
        <ele>241.8000030517578125</ele>
        <time>2018-09-02T07:53:21.000Z</time>
      </trkpt>
      <trkpt lat="43.35729324258863925933837890625" lon="-1.8333104811608791351318359375">
        <ele>242</ele>
        <time>2018-09-02T07:53:24.000Z</time>
      </trkpt>
      <trkpt lat="43.35721671581268310546875" lon="-1.83338306844234466552734375">
        <ele>242.1999969482421875</ele>
        <time>2018-09-02T07:53:27.000Z</time>
      </trkpt>
      <trkpt lat="43.35719115100800991058349609375" lon="-1.8334157578647136688232421875">
        <ele>242.399993896484375</ele>
        <time>2018-09-02T07:53:28.000Z</time>
      </trkpt>
      <trkpt lat="43.35713960230350494384765625" lon="-1.83346697129309177398681640625">
        <ele>242.8000030517578125</ele>
        <time>2018-09-02T07:53:30.000Z</time>
      </trkpt>
      <trkpt lat="43.357040025293827056884765625" lon="-1.833577193319797515869140625">
        <ele>243</ele>
        <time>2018-09-02T07:53:34.000Z</time>
      </trkpt>
      <trkpt lat="43.35688772611320018768310546875" lon="-1.8337238766252994537353515625">
        <ele>243</ele>
        <time>2018-09-02T07:53:39.000Z</time>
      </trkpt>
      <trkpt lat="43.35670215077698230743408203125" lon="-1.8338388763368129730224609375">
        <ele>243</ele>
        <time>2018-09-02T07:53:45.000Z</time>
      </trkpt>
      <trkpt lat="43.35662973113358020782470703125" lon="-1.833870895206928253173828125">
        <ele>242.8000030517578125</ele>
        <time>2018-09-02T07:53:47.000Z</time>
      </trkpt>
      <trkpt lat="43.35650794208049774169921875" lon="-1.83392864651978015899658203125">
        <ele>242.8000030517578125</ele>
        <time>2018-09-02T07:53:50.000Z</time>
      </trkpt>
      <trkpt lat="43.3564135618507862091064453125" lon="-1.83400341309607028961181640625">
        <ele>243.399993896484375</ele>
        <time>2018-09-02T07:53:53.000Z</time>
      </trkpt>
      <trkpt lat="43.35635396651923656463623046875" lon="-1.83407247997820377349853515625">
        <ele>243.1999969482421875</ele>
        <time>2018-09-02T07:53:55.000Z</time>
      </trkpt>
      <trkpt lat="43.35626210086047649383544921875" lon="-1.83424179442226886749267578125">
        <ele>243.1999969482421875</ele>
        <time>2018-09-02T07:53:59.000Z</time>
      </trkpt>
      <trkpt lat="43.35623980499804019927978515625" lon="-1.834310777485370635986328125">
        <ele>243.399993896484375</ele>
        <time>2018-09-02T07:54:01.000Z</time>
      </trkpt>
      <trkpt lat="43.35623628459870815277099609375" lon="-1.83434271253645420074462890625">
        <ele>243.600006103515625</ele>
        <time>2018-09-02T07:54:02.000Z</time>
      </trkpt>
      <trkpt lat="43.356229327619075775146484375" lon="-1.8344537727534770965576171875">
        <ele>243.8000030517578125</ele>
        <time>2018-09-02T07:54:05.000Z</time>
      </trkpt>
      <trkpt lat="43.35621868260204792022705078125" lon="-1.8345325626432895660400390625">
        <ele>243.8000030517578125</ele>
        <time>2018-09-02T07:54:07.000Z</time>
      </trkpt>
      <trkpt lat="43.35621566511690616607666015625" lon="-1.83462627232074737548828125">
        <ele>244</ele>
        <time>2018-09-02T07:54:10.000Z</time>
      </trkpt>
      <trkpt lat="43.3562248013913631439208984375" lon="-1.83466675691306591033935546875">
        <ele>244.1999969482421875</ele>
        <time>2018-09-02T07:54:12.000Z</time>
      </trkpt>
      <trkpt lat="43.35622991435229778289794921875" lon="-1.8347025476396083831787109375">
        <ele>244.600006103515625</ele>
        <time>2018-09-02T07:54:14.000Z</time>
      </trkpt>
      <trkpt lat="43.35622555576264858245849609375" lon="-1.83473314158618450164794921875">
        <ele>245</ele>
        <time>2018-09-02T07:54:16.000Z</time>
      </trkpt>
      <trkpt lat="43.35621616803109645843505859375" lon="-1.83477639220654964447021484375">
        <ele>245.1999969482421875</ele>
        <time>2018-09-02T07:54:19.000Z</time>
      </trkpt>
      <trkpt lat="43.35620728321373462677001953125" lon="-1.834826767444610595703125">
        <ele>245</ele>
        <time>2018-09-02T07:54:22.000Z</time>
      </trkpt>
      <trkpt lat="43.3562174253165721893310546875" lon="-1.834870688617229461669921875">
        <ele>245.1999969482421875</ele>
        <time>2018-09-02T07:54:24.000Z</time>
      </trkpt>
      <trkpt lat="43.35624047555029392242431640625" lon="-1.83499197475612163543701171875">
        <ele>245.600006103515625</ele>
        <time>2018-09-02T07:54:29.000Z</time>
      </trkpt>
      <trkpt lat="43.35624349303543567657470703125" lon="-1.8350244127213954925537109375">
        <ele>245.600006103515625</ele>
        <time>2018-09-02T07:54:30.000Z</time>
      </trkpt>
      <trkpt lat="43.35624902509152889251708984375" lon="-1.83508015237748622894287109375">
        <ele>245.600006103515625</ele>
        <time>2018-09-02T07:54:32.000Z</time>
      </trkpt>
      <trkpt lat="43.35626126267015933990478515625" lon="-1.8352165259420871734619140625">
        <ele>246</ele>
        <time>2018-09-02T07:54:37.000Z</time>
      </trkpt>
      <trkpt lat="43.35626377724111080169677734375" lon="-1.8352706730365753173828125">
        <ele>246</ele>
        <time>2018-09-02T07:54:39.000Z</time>
      </trkpt>
      <trkpt lat="43.35626713000237941741943359375" lon="-1.83543353341519832611083984375">
        <ele>246</ele>
        <time>2018-09-02T07:54:45.000Z</time>
      </trkpt>
      <trkpt lat="43.35625623352825641632080078125" lon="-1.835529841482639312744140625">
        <ele>245.8000030517578125</ele>
        <time>2018-09-02T07:54:48.000Z</time>
      </trkpt>
      <trkpt lat="43.3562524616718292236328125" lon="-1.83558071963489055633544921875">
        <ele>245.600006103515625</ele>
        <time>2018-09-02T07:54:50.000Z</time>
      </trkpt>
      <trkpt lat="43.3562566526234149932861328125" lon="-1.83563503436744213104248046875">
        <ele>245.1999969482421875</ele>
        <time>2018-09-02T07:54:52.000Z</time>
      </trkpt>
      <trkpt lat="43.356227986514568328857421875" lon="-1.83581759221851825714111328125">
        <ele>245.399993896484375</ele>
        <time>2018-09-02T07:54:58.000Z</time>
      </trkpt>
      <trkpt lat="43.35622404702007770538330078125" lon="-1.8358763493597507476806640625">
        <ele>245.399993896484375</ele>
        <time>2018-09-02T07:55:00.000Z</time>
      </trkpt>
      <trkpt lat="43.356217257678508758544921875" lon="-1.83594164438545703887939453125">
        <ele>245.399993896484375</ele>
        <time>2018-09-02T07:55:02.000Z</time>
      </trkpt>
      <trkpt lat="43.35620820522308349609375" lon="-1.8360017426311969757080078125">
        <ele>245.1999969482421875</ele>
        <time>2018-09-02T07:55:04.000Z</time>
      </trkpt>
      <trkpt lat="43.35615732707083225250244140625" lon="-1.8361767567694187164306640625">
        <ele>245</ele>
        <time>2018-09-02T07:55:09.000Z</time>
      </trkpt>
      <trkpt lat="43.35610317997634410858154296875" lon="-1.83634565211832523345947265625">
        <ele>245.1999969482421875</ele>
        <time>2018-09-02T07:55:14.000Z</time>
      </trkpt>
      <trkpt lat="43.35608038119971752166748046875" lon="-1.836414970457553863525390625">
        <ele>245.399993896484375</ele>
        <time>2018-09-02T07:55:16.000Z</time>
      </trkpt>
      <trkpt lat="43.3560095541179180145263671875" lon="-1.83664656244218349456787109375">
        <ele>245.600006103515625</ele>
        <time>2018-09-02T07:55:23.000Z</time>
      </trkpt>
      <trkpt lat="43.35594275034964084625244140625" lon="-1.8368090875446796417236328125">
        <ele>246</ele>
        <time>2018-09-02T07:55:30.000Z</time>
      </trkpt>
      <trkpt lat="43.35591374896466732025146484375" lon="-1.83687304146587848663330078125">
        <ele>246.1999969482421875</ele>
        <time>2018-09-02T07:55:33.000Z</time>
      </trkpt>
      <trkpt lat="43.35590352304279804229736328125" lon="-1.836907155811786651611328125">
        <ele>246.600006103515625</ele>
        <time>2018-09-02T07:55:35.000Z</time>
      </trkpt>
      <trkpt lat="43.355896733701229095458984375" lon="-1.83692249469459056854248046875">
        <ele>246.600006103515625</ele>
        <time>2018-09-02T07:55:36.000Z</time>
      </trkpt>
      <trkpt lat="43.355890698730945587158203125" lon="-1.8369391746819019317626953125">
        <ele>246.8000030517578125</ele>
        <time>2018-09-02T07:55:37.000Z</time>
      </trkpt>
      <trkpt lat="43.35587083362042903900146484375" lon="-1.8369814194738864898681640625">
        <ele>247.1999969482421875</ele>
        <time>2018-09-02T07:55:40.000Z</time>
      </trkpt>
      <trkpt lat="43.35585884749889373779296875" lon="-1.8370102532207965850830078125">
        <ele>247.8000030517578125</ele>
        <time>2018-09-02T07:55:42.000Z</time>
      </trkpt>
      <trkpt lat="43.3558489568531513214111328125" lon="-1.8370236642658710479736328125">
        <ele>247.8000030517578125</ele>
        <time>2018-09-02T07:55:43.000Z</time>
      </trkpt>
      <trkpt lat="43.3558285050094127655029296875" lon="-1.83705761097371578216552734375">
        <ele>248</ele>
        <time>2018-09-02T07:55:45.000Z</time>
      </trkpt>
      <trkpt lat="43.35579053498804569244384765625" lon="-1.83712801896035671234130859375">
        <ele>248.399993896484375</ele>
        <time>2018-09-02T07:55:48.000Z</time>
      </trkpt>
      <trkpt lat="43.35577167570590972900390625" lon="-1.83715685270726680755615234375">
        <ele>248.600006103515625</ele>
        <time>2018-09-02T07:55:49.000Z</time>
      </trkpt>
      <trkpt lat="43.35561736486852169036865234375" lon="-1.83728526346385478973388671875">
        <ele>248.600006103515625</ele>
        <time>2018-09-02T07:55:55.000Z</time>
      </trkpt>
      <trkpt lat="43.35542307235300540924072265625" lon="-1.8373619578778743743896484375">
        <ele>248.399993896484375</ele>
        <time>2018-09-02T07:56:01.000Z</time>
      </trkpt>
      <trkpt lat="43.35528711788356304168701171875" lon="-1.83740395121276378631591796875">
        <ele>248</ele>
        <time>2018-09-02T07:56:06.000Z</time>
      </trkpt>
      <trkpt lat="43.35521989502012729644775390625" lon="-1.83743798173964023590087890625">
        <ele>248.1999969482421875</ele>
        <time>2018-09-02T07:56:09.000Z</time>
      </trkpt>
      <trkpt lat="43.35512031801044940948486328125" lon="-1.8375198729336261749267578125">
        <ele>248.399993896484375</ele>
        <time>2018-09-02T07:56:13.000Z</time>
      </trkpt>
      <trkpt lat="43.35502543486654758453369140625" lon="-1.8375916220247745513916015625">
        <ele>247.8000030517578125</ele>
        <time>2018-09-02T07:56:16.000Z</time>
      </trkpt>
      <trkpt lat="43.3549376763403415679931640625" lon="-1.83765054680407047271728515625">
        <ele>247.1999969482421875</ele>
        <time>2018-09-02T07:56:19.000Z</time>
      </trkpt>
      <trkpt lat="43.3548404462635517120361328125" lon="-1.83770502917468547821044921875">
        <ele>246.399993896484375</ele>
        <time>2018-09-02T07:56:22.000Z</time>
      </trkpt>
      <trkpt lat="43.35476274602115154266357421875" lon="-1.83773721568286418914794921875">
        <ele>246</ele>
        <time>2018-09-02T07:56:25.000Z</time>
      </trkpt>
      <trkpt lat="43.35465529002249240875244140625" lon="-1.83774358592927455902099609375">
        <ele>245.600006103515625</ele>
        <time>2018-09-02T07:56:30.000Z</time>
      </trkpt>
      <trkpt lat="43.35458270274102687835693359375" lon="-1.83775783516466617584228515625">
        <ele>245.399993896484375</ele>
        <time>2018-09-02T07:56:33.000Z</time>
      </trkpt>
      <trkpt lat="43.35452604107558727264404296875" lon="-1.837758757174015045166015625">
        <ele>245</ele>
        <time>2018-09-02T07:56:36.000Z</time>
      </trkpt>
      <trkpt lat="43.35450408048927783966064453125" lon="-1.8377585895359516143798828125">
        <ele>244.8000030517578125</ele>
        <time>2018-09-02T07:56:37.000Z</time>
      </trkpt>
      <trkpt lat="43.354422859847545623779296875" lon="-1.83774811215698719024658203125">
        <ele>244.1999969482421875</ele>
        <time>2018-09-02T07:56:41.000Z</time>
      </trkpt>
      <trkpt lat="43.35440282709896564483642578125" lon="-1.8377545662224292755126953125">
        <ele>244.1999969482421875</ele>
        <time>2018-09-02T07:56:42.000Z</time>
      </trkpt>
      <trkpt lat="43.3543137274682521820068359375" lon="-1.8377800472080707550048828125">
        <ele>243.1999969482421875</ele>
        <time>2018-09-02T07:56:46.000Z</time>
      </trkpt>
      <trkpt lat="43.35429235361516475677490234375" lon="-1.8377813883125782012939453125">
        <ele>243.1999969482421875</ele>
        <time>2018-09-02T07:56:47.000Z</time>
      </trkpt>
      <trkpt lat="43.35423418320715427398681640625" lon="-1.83777074329555034637451171875">
        <ele>242.8000030517578125</ele>
        <time>2018-09-02T07:56:50.000Z</time>
      </trkpt>
      <trkpt lat="43.35421456955373287200927734375" lon="-1.837771832942962646484375">
        <ele>242.8000030517578125</ele>
        <time>2018-09-02T07:56:51.000Z</time>
      </trkpt>
      <trkpt lat="43.35416947491466999053955078125" lon="-1.8377740122377872467041015625">
        <ele>242.600006103515625</ele>
        <time>2018-09-02T07:56:53.000Z</time>
      </trkpt>
      <trkpt lat="43.354089260101318359375" lon="-1.83776504360139369964599609375">
        <ele>242</ele>
        <time>2018-09-02T07:56:56.000Z</time>
      </trkpt>
      <trkpt lat="43.35404290817677974700927734375" lon="-1.83774895034730434417724609375">
        <ele>241.8000030517578125</ele>
        <time>2018-09-02T07:56:58.000Z</time>
      </trkpt>
      <trkpt lat="43.35402446798980236053466796875" lon="-1.83774308301508426666259765625">
        <ele>241.8000030517578125</ele>
        <time>2018-09-02T07:56:59.000Z</time>
      </trkpt>
      <trkpt lat="43.3539680577814579010009765625" lon="-1.837714500725269317626953125">
        <ele>242</ele>
        <time>2018-09-02T07:57:02.000Z</time>
      </trkpt>
      <trkpt lat="43.353930674493312835693359375" lon="-1.83769513852894306182861328125">
        <ele>242.1999969482421875</ele>
        <time>2018-09-02T07:57:04.000Z</time>
      </trkpt>
      <trkpt lat="43.35386320017278194427490234375" lon="-1.83764987625181674957275390625">
        <ele>242.1999969482421875</ele>
        <time>2018-09-02T07:57:07.000Z</time>
      </trkpt>
      <trkpt lat="43.3537581749260425567626953125" lon="-1.8376020155847072601318359375">
        <ele>242.8000030517578125</ele>
        <time>2018-09-02T07:57:10.000Z</time>
      </trkpt>
      <trkpt lat="43.35363152436912059783935546875" lon="-1.837558932602405548095703125">
        <ele>242.8000030517578125</ele>
        <time>2018-09-02T07:57:13.000Z</time>
      </trkpt>
      <trkpt lat="43.35355441085994243621826171875" lon="-1.8375446833670139312744140625">
        <ele>243.1999969482421875</ele>
        <time>2018-09-02T07:57:15.000Z</time>
      </trkpt>
      <trkpt lat="43.353515602648258209228515625" lon="-1.837534122169017791748046875">
        <ele>243.1999969482421875</ele>
        <time>2018-09-02T07:57:16.000Z</time>
      </trkpt>
      <trkpt lat="43.3533816598355770111083984375" lon="-1.8375210464000701904296875">
        <ele>243.1999969482421875</ele>
        <time>2018-09-02T07:57:21.000Z</time>
      </trkpt>
      <trkpt lat="43.35320287384092807769775390625" lon="-1.83746262453496456146240234375">
        <ele>243</ele>
        <time>2018-09-02T07:57:26.000Z</time>
      </trkpt>
      <trkpt lat="43.35302065126597881317138671875" lon="-1.8374310247600078582763671875">
        <ele>243</ele>
        <time>2018-09-02T07:57:32.000Z</time>
      </trkpt>
      <trkpt lat="43.352914787828922271728515625" lon="-1.83740437030792236328125">
        <ele>242.600006103515625</ele>
        <time>2018-09-02T07:57:35.000Z</time>
      </trkpt>
      <trkpt lat="43.35284178145229816436767578125" lon="-1.8373988382518291473388671875">
        <ele>242.399993896484375</ele>
        <time>2018-09-02T07:57:37.000Z</time>
      </trkpt>
      <trkpt lat="43.35281026549637317657470703125" lon="-1.8374028615653514862060546875">
        <ele>242.1999969482421875</ele>
        <time>2018-09-02T07:57:38.000Z</time>
      </trkpt>
      <trkpt lat="43.35270213894546031951904296875" lon="-1.83744804002344608306884765625">
        <ele>242</ele>
        <time>2018-09-02T07:57:42.000Z</time>
      </trkpt>
      <trkpt lat="43.3526715449988842010498046875" lon="-1.83746295981109142303466796875">
        <ele>241.8000030517578125</ele>
        <time>2018-09-02T07:57:43.000Z</time>
      </trkpt>
      <trkpt lat="43.352535925805568695068359375" lon="-1.837530434131622314453125">
        <ele>242.399993896484375</ele>
        <time>2018-09-02T07:57:49.000Z</time>
      </trkpt>
      <trkpt lat="43.35247616283595561981201171875" lon="-1.8375936336815357208251953125">
        <ele>242.600006103515625</ele>
        <time>2018-09-02T07:57:53.000Z</time>
      </trkpt>
      <trkpt lat="43.35244280286133289337158203125" lon="-1.8376325257122516632080078125">
        <ele>242.399993896484375</ele>
        <time>2018-09-02T07:57:55.000Z</time>
      </trkpt>
      <trkpt lat="43.3523091115057468414306640625" lon="-1.83781701140105724334716796875">
        <ele>242.600006103515625</ele>
        <time>2018-09-02T07:58:02.000Z</time>
      </trkpt>
      <trkpt lat="43.3522651903331279754638671875" lon="-1.8379426561295986175537109375">
        <ele>242.8000030517578125</ele>
        <time>2018-09-02T07:58:05.000Z</time>
      </trkpt>
      <trkpt lat="43.35223778150975704193115234375" lon="-1.83802337385714054107666015625">
        <ele>242.8000030517578125</ele>
        <time>2018-09-02T07:58:07.000Z</time>
      </trkpt>
      <trkpt lat="43.35217776708304882049560546875" lon="-1.83814859949052333831787109375">
        <ele>243</ele>
        <time>2018-09-02T07:58:11.000Z</time>
      </trkpt>
      <trkpt lat="43.35212797857820987701416015625" lon="-1.8382591567933559417724609375">
        <ele>242.8000030517578125</ele>
        <time>2018-09-02T07:58:14.000Z</time>
      </trkpt>
      <trkpt lat="43.3520606718957424163818359375" lon="-1.83842553757131099700927734375">
        <ele>242.600006103515625</ele>
        <time>2018-09-02T07:58:19.000Z</time>
      </trkpt>
      <trkpt lat="43.35199302993714809417724609375" lon="-1.83863827027380466461181640625">
        <ele>242</ele>
        <time>2018-09-02T07:58:24.000Z</time>
      </trkpt>
      <trkpt lat="43.3519748412072658538818359375" lon="-1.8387466482818126678466796875">
        <ele>242.399993896484375</ele>
        <time>2018-09-02T07:58:27.000Z</time>
      </trkpt>
      <trkpt lat="43.35196922533214092254638671875" lon="-1.83876953087747097015380859375">
        <ele>242.399993896484375</ele>
        <time>2018-09-02T07:58:28.000Z</time>
      </trkpt>
      <trkpt lat="43.35191524587571620941162109375" lon="-1.8389184772968292236328125">
        <ele>243</ele>
        <time>2018-09-02T07:58:34.000Z</time>
      </trkpt>
      <trkpt lat="43.3518973924219608306884765625" lon="-1.83899299241602420806884765625">
        <ele>243</ele>
        <time>2018-09-02T07:58:36.000Z</time>
      </trkpt>
      <trkpt lat="43.3518683910369873046875" lon="-1.83913372457027435302734375">
        <ele>243.1999969482421875</ele>
        <time>2018-09-02T07:58:40.000Z</time>
      </trkpt>
      <trkpt lat="43.351854979991912841796875" lon="-1.8391679227352142333984375">
        <ele>243.1999969482421875</ele>
        <time>2018-09-02T07:58:41.000Z</time>
      </trkpt>
      <trkpt lat="43.35179337300360202789306640625" lon="-1.83932147920131683349609375">
        <ele>242.8000030517578125</ele>
        <time>2018-09-02T07:58:45.000Z</time>
      </trkpt>
      <trkpt lat="43.3516828157007694244384765625" lon="-1.839488781988620758056640625">
        <ele>242.8000030517578125</ele>
        <time>2018-09-02T07:58:50.000Z</time>
      </trkpt>
      <trkpt lat="43.35164451040327548980712890625" lon="-1.83955273590981960296630859375">
        <ele>242.8000030517578125</ele>
        <time>2018-09-02T07:58:52.000Z</time>
      </trkpt>
      <trkpt lat="43.35154023952782154083251953125" lon="-1.83970260433852672576904296875">
        <ele>242.399993896484375</ele>
        <time>2018-09-02T07:58:58.000Z</time>
      </trkpt>
      <trkpt lat="43.351437561213970184326171875" lon="-1.8398349545896053314208984375">
        <ele>242.8000030517578125</ele>
        <time>2018-09-02T07:59:04.000Z</time>
      </trkpt>
      <trkpt lat="43.35138383321464061737060546875" lon="-1.83991600759327411651611328125">
        <ele>243</ele>
        <time>2018-09-02T07:59:07.000Z</time>
      </trkpt>
      <trkpt lat="43.35134209133684635162353515625" lon="-1.83995858766138553619384765625">
        <ele>242.8000030517578125</ele>
        <time>2018-09-02T07:59:09.000Z</time>
      </trkpt>
      <trkpt lat="43.351252488791942596435546875" lon="-1.840059757232666015625">
        <ele>243.1999969482421875</ele>
        <time>2018-09-02T07:59:13.000Z</time>
      </trkpt>
      <trkpt lat="43.35123430006206035614013671875" lon="-1.84008029289543628692626953125">
        <ele>243.399993896484375</ele>
        <time>2018-09-02T07:59:14.000Z</time>
      </trkpt>
      <trkpt lat="43.3511125110089778900146484375" lon="-1.84014265425503253936767578125">
        <ele>242.8000030517578125</ele>
        <time>2018-09-02T07:59:20.000Z</time>
      </trkpt>
      <trkpt lat="43.35105769336223602294921875" lon="-1.84013812802731990814208984375">
        <ele>243.1999969482421875</ele>
        <time>2018-09-02T07:59:23.000Z</time>
      </trkpt>
      <trkpt lat="43.3509767241775989532470703125" lon="-1.84013175778090953826904296875">
        <ele>242.8000030517578125</ele>
        <time>2018-09-02T07:59:26.000Z</time>
      </trkpt>
      <trkpt lat="43.3509470522403717041015625" lon="-1.84014617465436458587646484375">
        <ele>242.8000030517578125</ele>
        <time>2018-09-02T07:59:27.000Z</time>
      </trkpt>
      <trkpt lat="43.3508639037609100341796875" lon="-1.84019546024501323699951171875">
        <ele>243</ele>
        <time>2018-09-02T07:59:30.000Z</time>
      </trkpt>
      <trkpt lat="43.3506826870143413543701171875" lon="-1.84027500450611114501953125">
        <ele>243.1999969482421875</ele>
        <time>2018-09-02T07:59:37.000Z</time>
      </trkpt>
      <trkpt lat="43.35066684521734714508056640625" lon="-1.84028564952313899993896484375">
        <ele>243.1999969482421875</ele>
        <time>2018-09-02T07:59:38.000Z</time>
      </trkpt>
      <trkpt lat="43.35059844888746738433837890625" lon="-1.84031280688941478729248046875">
        <ele>243.600006103515625</ele>
        <time>2018-09-02T07:59:42.000Z</time>
      </trkpt>
      <trkpt lat="43.3504939265549182891845703125" lon="-1.8403418920934200286865234375">
        <ele>243.8000030517578125</ele>
        <time>2018-09-02T07:59:47.000Z</time>
      </trkpt>
      <trkpt lat="43.350464589893817901611328125" lon="-1.84035144746303558349609375">
        <ele>243.8000030517578125</ele>
        <time>2018-09-02T07:59:48.000Z</time>
      </trkpt>
      <trkpt lat="43.35034154355525970458984375" lon="-1.8403750844299793243408203125">
        <ele>244.1999969482421875</ele>
        <time>2018-09-02T07:59:52.000Z</time>
      </trkpt>
      <trkpt lat="43.35025562904775142669677734375" lon="-1.8403864838182926177978515625">
        <ele>244</ele>
        <time>2018-09-02T07:59:55.000Z</time>
      </trkpt>
      <trkpt lat="43.350116908550262451171875" lon="-1.8403730727732181549072265625">
        <ele>244.8000030517578125</ele>
        <time>2018-09-02T08:00:00.000Z</time>
      </trkpt>
      <trkpt lat="43.3500523678958415985107421875" lon="-1.84036594815552234649658203125">
        <ele>245.1999969482421875</ele>
        <time>2018-09-02T08:00:02.000Z</time>
      </trkpt>
      <trkpt lat="43.34995170123875141143798828125" lon="-1.8403599970042705535888671875">
        <ele>245.1999969482421875</ele>
        <time>2018-09-02T08:00:05.000Z</time>
      </trkpt>
      <trkpt lat="43.34979571402072906494140625" lon="-1.84043250046670436859130859375">
        <ele>245.399993896484375</ele>
        <time>2018-09-02T08:00:10.000Z</time>
      </trkpt>
      <trkpt lat="43.34974483586847782135009765625" lon="-1.84051866643130779266357421875">
        <ele>246.1999969482421875</ele>
        <time>2018-09-02T08:00:13.000Z</time>
      </trkpt>
      <trkpt lat="43.34971365518867969512939453125" lon="-1.84057884849607944488525390625">
        <ele>246.1999969482421875</ele>
        <time>2018-09-02T08:00:15.000Z</time>
      </trkpt>
      <trkpt lat="43.34966453723609447479248046875" lon="-1.840755455195903778076171875">
        <ele>246.600006103515625</ele>
        <time>2018-09-02T08:00:21.000Z</time>
      </trkpt>
      <trkpt lat="43.349623382091522216796875" lon="-1.840957961976528167724609375">
        <ele>246.8000030517578125</ele>
        <time>2018-09-02T08:00:27.000Z</time>
      </trkpt>
      <trkpt lat="43.34956076927483081817626953125" lon="-1.84118972159922122955322265625">
        <ele>247</ele>
        <time>2018-09-02T08:00:34.000Z</time>
      </trkpt>
      <trkpt lat="43.34954987280070781707763671875" lon="-1.84123431332409381866455078125">
        <ele>247</ele>
        <time>2018-09-02T08:00:35.000Z</time>
      </trkpt>
      <trkpt lat="43.34951600991189479827880859375" lon="-1.841348893940448760986328125">
        <ele>246.8000030517578125</ele>
        <time>2018-09-02T08:00:38.000Z</time>
      </trkpt>
      <trkpt lat="43.34945297800004482269287109375" lon="-1.84147856198251247406005859375">
        <ele>246.399993896484375</ele>
        <time>2018-09-02T08:00:41.000Z</time>
      </trkpt>
      <trkpt lat="43.3493462763726711273193359375" lon="-1.8416783027350902557373046875">
        <ele>245.8000030517578125</ele>
        <time>2018-09-02T08:00:46.000Z</time>
      </trkpt>
      <trkpt lat="43.34924141876399517059326171875" lon="-1.8418040312826633453369140625">
        <ele>246</ele>
        <time>2018-09-02T08:00:51.000Z</time>
      </trkpt>
      <trkpt lat="43.34922431968152523040771484375" lon="-1.8418301828205585479736328125">
        <ele>246</ele>
        <time>2018-09-02T08:00:52.000Z</time>
      </trkpt>
      <trkpt lat="43.3490907959640026092529296875" lon="-1.842019446194171905517578125">
        <ele>245.600006103515625</ele>
        <time>2018-09-02T08:00:58.000Z</time>
      </trkpt>
      <trkpt lat="43.3489278517663478851318359375" lon="-1.84219152666628360748291015625">
        <ele>245.600006103515625</ele>
        <time>2018-09-02T08:01:04.000Z</time>
      </trkpt>
      <trkpt lat="43.34874353371560573577880859375" lon="-1.8423310853540897369384765625">
        <ele>246</ele>
        <time>2018-09-02T08:01:10.000Z</time>
      </trkpt>
      <trkpt lat="43.34862417541444301605224609375" lon="-1.84236888773739337921142578125">
        <ele>246</ele>
        <time>2018-09-02T08:01:13.000Z</time>
      </trkpt>
      <trkpt lat="43.34854857064783573150634765625" lon="-1.842396967113018035888671875">
        <ele>246</ele>
        <time>2018-09-02T08:01:15.000Z</time>
      </trkpt>
      <trkpt lat="43.34835913963615894317626953125" lon="-1.8424883298575878143310546875">
        <ele>246.600006103515625</ele>
        <time>2018-09-02T08:01:21.000Z</time>
      </trkpt>
      <trkpt lat="43.3481721393764019012451171875" lon="-1.84267231263220310211181640625">
        <ele>246.600006103515625</ele>
        <time>2018-09-02T08:01:27.000Z</time>
      </trkpt>
      <trkpt lat="43.34809594787657260894775390625" lon="-1.8428809382021427154541015625">
        <ele>246.399993896484375</ele>
        <time>2018-09-02T08:01:32.000Z</time>
      </trkpt>
      <trkpt lat="43.3480100333690643310546875" lon="-1.84320037253201007843017578125">
        <ele>246</ele>
        <time>2018-09-02T08:01:39.000Z</time>
      </trkpt>
      <trkpt lat="43.34789344109594821929931640625" lon="-1.843419559299945831298828125">
        <ele>245.399993896484375</ele>
        <time>2018-09-02T08:01:44.000Z</time>
      </trkpt>
      <trkpt lat="43.34775882773101329803466796875" lon="-1.843629777431488037109375">
        <ele>245.399993896484375</ele>
        <time>2018-09-02T08:01:49.000Z</time>
      </trkpt>
      <trkpt lat="43.34770803339779376983642578125" lon="-1.84368216432631015777587890625">
        <ele>245</ele>
        <time>2018-09-02T08:01:51.000Z</time>
      </trkpt>
      <trkpt lat="43.34763863123953342437744140625" lon="-1.8437598645687103271484375">
        <ele>245</ele>
        <time>2018-09-02T08:01:55.000Z</time>
      </trkpt>
      <trkpt lat="43.3474925346672534942626953125" lon="-1.8438966572284698486328125">
        <ele>244.1999969482421875</ele>
        <time>2018-09-02T08:02:01.000Z</time>
      </trkpt>
      <trkpt lat="43.34730335511267185211181640625" lon="-1.8440131656825542449951171875">
        <ele>243.8000030517578125</ele>
        <time>2018-09-02T08:02:06.000Z</time>
      </trkpt>
      <trkpt lat="43.34716907702386379241943359375" lon="-1.844118945300579071044921875">
        <ele>243.399993896484375</ele>
        <time>2018-09-02T08:02:10.000Z</time>
      </trkpt>
      <trkpt lat="43.3470741100609302520751953125" lon="-1.8441197834908962249755859375">
        <ele>243.399993896484375</ele>
        <time>2018-09-02T08:02:13.000Z</time>
      </trkpt>
      <trkpt lat="43.34701158106327056884765625" lon="-1.844089441001415252685546875">
        <ele>243.399993896484375</ele>
        <time>2018-09-02T08:02:15.000Z</time>
      </trkpt>
      <trkpt lat="43.34684905596077442169189453125" lon="-1.8440430052578449249267578125">
        <ele>242.8000030517578125</ele>
        <time>2018-09-02T08:02:19.000Z</time>
      </trkpt>
      <trkpt lat="43.346796669065952301025390625" lon="-1.844043172895908355712890625">
        <ele>242.8000030517578125</ele>
        <time>2018-09-02T08:02:20.000Z</time>
      </trkpt>
      <trkpt lat="43.34672651253640651702880859375" lon="-1.84404878877103328704833984375">
        <ele>242.399993896484375</ele>
        <time>2018-09-02T08:02:21.000Z</time>
      </trkpt>
      <trkpt lat="43.3465520851314067840576171875" lon="-1.84405549429357051849365234375">
        <ele>242</ele>
        <time>2018-09-02T08:02:24.000Z</time>
      </trkpt>
      <trkpt lat="43.34645326249301433563232421875" lon="-1.8440597690641880035400390625">
        <ele>242</ele>
        <time>2018-09-02T08:02:26.000Z</time>
      </trkpt>
      <trkpt lat="43.3463351614773273468017578125" lon="-1.8440993316471576690673828125">
        <ele>241.600006103515625</ele>
        <time>2018-09-02T08:02:28.000Z</time>
      </trkpt>
      <trkpt lat="43.34625042043626308441162109375" lon="-1.84414803050458431243896484375">
        <ele>241.1999969482421875</ele>
        <time>2018-09-02T08:02:30.000Z</time>
      </trkpt>
      <trkpt lat="43.3461608178913593292236328125" lon="-1.8442790396511554718017578125">
        <ele>241.1999969482421875</ele>
        <time>2018-09-02T08:02:34.000Z</time>
      </trkpt>
      <trkpt lat="43.34614925086498260498046875" lon="-1.8443132378160953521728515625">
        <ele>240.8000030517578125</ele>
        <time>2018-09-02T08:02:35.000Z</time>
      </trkpt>
      <trkpt lat="43.34612117148935794830322265625" lon="-1.84442035853862762451171875">
        <ele>240.600006103515625</ele>
        <time>2018-09-02T08:02:38.000Z</time>
      </trkpt>
      <trkpt lat="43.34611781872808933258056640625" lon="-1.84445028193295001983642578125">
        <ele>240.600006103515625</ele>
        <time>2018-09-02T08:02:39.000Z</time>
      </trkpt>
      <trkpt lat="43.34610843099653720855712890625" lon="-1.84450962580740451812744140625">
        <ele>240.399993896484375</ele>
        <time>2018-09-02T08:02:41.000Z</time>
      </trkpt>
      <trkpt lat="43.34610541351139545440673828125" lon="-1.8445351906120777130126953125">
        <ele>240.1999969482421875</ele>
        <time>2018-09-02T08:02:42.000Z</time>
      </trkpt>
      <trkpt lat="43.3460976183414459228515625" lon="-1.84463770128786563873291015625">
        <ele>239.8000030517578125</ele>
        <time>2018-09-02T08:02:45.000Z</time>
      </trkpt>
      <trkpt lat="43.34609401412308216094970703125" lon="-1.84471431188285350799560546875">
        <ele>239</ele>
        <time>2018-09-02T08:02:47.000Z</time>
      </trkpt>
      <trkpt lat="43.34607792086899280548095703125" lon="-1.84491162188351154327392578125">
        <ele>238.1999969482421875</ele>
        <time>2018-09-02T08:02:52.000Z</time>
      </trkpt>
      <trkpt lat="43.34606165997684001922607421875" lon="-1.84497155249118804931640625">
        <ele>237.600006103515625</ele>
        <time>2018-09-02T08:02:54.000Z</time>
      </trkpt>
      <trkpt lat="43.34600734524428844451904296875" lon="-1.84509518556296825408935546875">
        <ele>237.399993896484375</ele>
        <time>2018-09-02T08:02:57.000Z</time>
      </trkpt>
      <trkpt lat="43.34592319093644618988037109375" lon="-1.845244131982326507568359375">
        <ele>236.600006103515625</ele>
        <time>2018-09-02T08:03:01.000Z</time>
      </trkpt>
      <trkpt lat="43.34589351899921894073486328125" lon="-1.84527874924242496490478515625">
        <ele>236.399993896484375</ele>
        <time>2018-09-02T08:03:02.000Z</time>
      </trkpt>
      <trkpt lat="43.345719762146472930908203125" lon="-1.84541671536862850189208984375">
        <ele>235.1999969482421875</ele>
        <time>2018-09-02T08:03:08.000Z</time>
      </trkpt>
      <trkpt lat="43.345579616725444793701171875" lon="-1.8455282784998416900634765625">
        <ele>233.399993896484375</ele>
        <time>2018-09-02T08:03:11.000Z</time>
      </trkpt>
      <trkpt lat="43.3455284871160984039306640625" lon="-1.8455631472170352935791015625">
        <ele>233</ele>
        <time>2018-09-02T08:03:12.000Z</time>
      </trkpt>
      <trkpt lat="43.3454297482967376708984375" lon="-1.84561670757830142974853515625">
        <ele>232.399993896484375</ele>
        <time>2018-09-02T08:03:14.000Z</time>
      </trkpt>
      <trkpt lat="43.34529287181794643402099609375" lon="-1.84568099677562713623046875">
        <ele>231.8000030517578125</ele>
        <time>2018-09-02T08:03:17.000Z</time>
      </trkpt>
      <trkpt lat="43.3451382257044315338134765625" lon="-1.84571846388280391693115234375">
        <ele>231.399993896484375</ele>
        <time>2018-09-02T08:03:21.000Z</time>
      </trkpt>
      <trkpt lat="43.34509606473147869110107421875" lon="-1.84572835452854633331298828125">
        <ele>231.1999969482421875</ele>
        <time>2018-09-02T08:03:22.000Z</time>
      </trkpt>
      <trkpt lat="43.34505021572113037109375" lon="-1.84573489241302013397216796875">
        <ele>231.1999969482421875</ele>
        <time>2018-09-02T08:03:23.000Z</time>
      </trkpt>
      <trkpt lat="43.34478199481964111328125" lon="-1.8457589484751224517822265625">
        <ele>231</ele>
        <time>2018-09-02T08:03:29.000Z</time>
      </trkpt>
      <trkpt lat="43.344559036195278167724609375" lon="-1.8458122573792934417724609375">
        <ele>230.8000030517578125</ele>
        <time>2018-09-02T08:03:34.000Z</time>
      </trkpt>
      <trkpt lat="43.3443808369338512420654296875" lon="-1.8458682484924793243408203125">
        <ele>230.8000030517578125</ele>
        <time>2018-09-02T08:03:38.000Z</time>
      </trkpt>
      <trkpt lat="43.34427162073552608489990234375" lon="-1.84592398814857006072998046875">
        <ele>230</ele>
        <time>2018-09-02T08:03:40.000Z</time>
      </trkpt>
      <trkpt lat="43.3442120254039764404296875" lon="-1.845963634550571441650390625">
        <ele>229.600006103515625</ele>
        <time>2018-09-02T08:03:41.000Z</time>
      </trkpt>
      <trkpt lat="43.34409065544605255126953125" lon="-1.8460606969892978668212890625">
        <ele>229.600006103515625</ele>
        <time>2018-09-02T08:03:44.000Z</time>
      </trkpt>
      <trkpt lat="43.344023264944553375244140625" lon="-1.8461743555963039398193359375">
        <ele>229</ele>
        <time>2018-09-02T08:03:47.000Z</time>
      </trkpt>
      <trkpt lat="43.344022594392299652099609375" lon="-1.8462105654180049896240234375">
        <ele>229</ele>
        <time>2018-09-02T08:03:48.000Z</time>
      </trkpt>
      <trkpt lat="43.3440351672470569610595703125" lon="-1.84628491289913654327392578125">
        <ele>229.1999969482421875</ele>
        <time>2018-09-02T08:03:50.000Z</time>
      </trkpt>
      <trkpt lat="43.344052098691463470458984375" lon="-1.84638365171849727630615234375">
        <ele>228.8000030517578125</ele>
        <time>2018-09-02T08:03:53.000Z</time>
      </trkpt>
      <trkpt lat="43.34405788220465183258056640625" lon="-1.84645188041031360626220703125">
        <ele>228.600006103515625</ele>
        <time>2018-09-02T08:03:56.000Z</time>
      </trkpt>
      <trkpt lat="43.34407322108745574951171875" lon="-1.84649982489645481109619140625">
        <ele>228.600006103515625</ele>
        <time>2018-09-02T08:03:58.000Z</time>
      </trkpt>
      <trkpt lat="43.3440832793712615966796875" lon="-1.84653268195688724517822265625">
        <ele>228.600006103515625</ele>
        <time>2018-09-02T08:03:59.000Z</time>
      </trkpt>
      <trkpt lat="43.34409660659730434417724609375" lon="-1.8466202728450298309326171875">
        <ele>228.600006103515625</ele>
        <time>2018-09-02T08:04:01.000Z</time>
      </trkpt>
      <trkpt lat="43.3441159687936305999755859375" lon="-1.84673150070011615753173828125">
        <ele>228.399993896484375</ele>
        <time>2018-09-02T08:04:04.000Z</time>
      </trkpt>
      <trkpt lat="43.34416332654654979705810546875" lon="-1.847010366618633270263671875">
        <ele>228</ele>
        <time>2018-09-02T08:04:11.000Z</time>
      </trkpt>
      <trkpt lat="43.3441659249365329742431640625" lon="-1.8470504321157932281494140625">
        <ele>227.8000030517578125</ele>
        <time>2018-09-02T08:04:12.000Z</time>
      </trkpt>
      <trkpt lat="43.34420523606240749359130859375" lon="-1.847241707146167755126953125">
        <ele>227.1999969482421875</ele>
        <time>2018-09-02T08:04:16.000Z</time>
      </trkpt>
      <trkpt lat="43.34422878921031951904296875" lon="-1.8473810143768787384033203125">
        <ele>227</ele>
        <time>2018-09-02T08:04:20.000Z</time>
      </trkpt>
      <trkpt lat="43.344233818352222442626953125" lon="-1.8474172241985797882080078125">
        <ele>226.8000030517578125</ele>
        <time>2018-09-02T08:04:21.000Z</time>
      </trkpt>
      <trkpt lat="43.34427765570580959320068359375" lon="-1.8475731275975704193115234375">
        <ele>226</ele>
        <time>2018-09-02T08:04:25.000Z</time>
      </trkpt>
      <trkpt lat="43.3442836068570613861083984375" lon="-1.847624592483043670654296875">
        <ele>225.8000030517578125</ele>
        <time>2018-09-02T08:04:26.000Z</time>
      </trkpt>
      <trkpt lat="43.34430464543402194976806640625" lon="-1.84788770042359828948974609375">
        <ele>225</ele>
        <time>2018-09-02T08:04:31.000Z</time>
      </trkpt>
      <trkpt lat="43.344308920204639434814453125" lon="-1.84794369153678417205810546875">
        <ele>224.600006103515625</ele>
        <time>2018-09-02T08:04:32.000Z</time>
      </trkpt>
      <trkpt lat="43.34430933929979801177978515625" lon="-1.8482024408876895904541015625">
        <ele>224.1999969482421875</ele>
        <time>2018-09-02T08:04:37.000Z</time>
      </trkpt>
      <trkpt lat="43.3442527614533901214599609375" lon="-1.84833244420588016510009765625">
        <ele>224.399993896484375</ele>
        <time>2018-09-02T08:04:41.000Z</time>
      </trkpt>
      <trkpt lat="43.3441717922687530517578125" lon="-1.8484163470566272735595703125">
        <ele>224.8000030517578125</ele>
        <time>2018-09-02T08:04:45.000Z</time>
      </trkpt>
      <trkpt lat="43.3441183157265186309814453125" lon="-1.84844090603291988372802734375">
        <ele>224.1999969482421875</ele>
        <time>2018-09-02T08:04:47.000Z</time>
      </trkpt>
      <trkpt lat="43.34397959522902965545654296875" lon="-1.848506033420562744140625">
        <ele>223.8000030517578125</ele>
        <time>2018-09-02T08:04:52.000Z</time>
      </trkpt>
      <trkpt lat="43.34379293024539947509765625" lon="-1.848539225757122039794921875">
        <ele>223.600006103515625</ele>
        <time>2018-09-02T08:04:58.000Z</time>
      </trkpt>
      <trkpt lat="43.34375982172787189483642578125" lon="-1.84854618273675441741943359375">
        <ele>223.399993896484375</ele>
        <time>2018-09-02T08:04:59.000Z</time>
      </trkpt>
      <trkpt lat="43.34363996051251888275146484375" lon="-1.84857870452105998992919921875">
        <ele>222.600006103515625</ele>
        <time>2018-09-02T08:05:03.000Z</time>
      </trkpt>
      <trkpt lat="43.34360324777662754058837890625" lon="-1.84858742170035839080810546875">
        <ele>222.399993896484375</ele>
        <time>2018-09-02T08:05:04.000Z</time>
      </trkpt>
      <trkpt lat="43.343567289412021636962890625" lon="-1.84859328903257846832275390625">
        <ele>222.1999969482421875</ele>
        <time>2018-09-02T08:05:05.000Z</time>
      </trkpt>
      <trkpt lat="43.3433496952056884765625" lon="-1.8486537225544452667236328125">
        <ele>221.1999969482421875</ele>
        <time>2018-09-02T08:05:10.000Z</time>
      </trkpt>
      <trkpt lat="43.34330208599567413330078125" lon="-1.8486728332936763763427734375">
        <ele>221.1999969482421875</ele>
        <time>2018-09-02T08:05:11.000Z</time>
      </trkpt>
      <trkpt lat="43.3431942947208881378173828125" lon="-1.84869848191738128662109375">
        <ele>220.600006103515625</ele>
        <time>2018-09-02T08:05:13.000Z</time>
      </trkpt>
      <trkpt lat="43.34308759309351444244384765625" lon="-1.848711557686328887939453125">
        <ele>220.1999969482421875</ele>
        <time>2018-09-02T08:05:15.000Z</time>
      </trkpt>
      <trkpt lat="43.34303294308483600616455078125" lon="-1.848718263208866119384765625">
        <ele>220</ele>
        <time>2018-09-02T08:05:16.000Z</time>
      </trkpt>
      <trkpt lat="43.34287988953292369842529296875" lon="-1.84875858016312122344970703125">
        <ele>218.8000030517578125</ele>
        <time>2018-09-02T08:05:19.000Z</time>
      </trkpt>
      <trkpt lat="43.3428201265633106231689453125" lon="-1.84877333231270313262939453125">
        <ele>218.399993896484375</ele>
        <time>2018-09-02T08:05:20.000Z</time>
      </trkpt>
      <trkpt lat="43.342704959213733673095703125" lon="-1.8487942032516002655029296875">
        <ele>217.8000030517578125</ele>
        <time>2018-09-02T08:05:22.000Z</time>
      </trkpt>
      <trkpt lat="43.34252617321908473968505859375" lon="-1.84885597787797451019287109375">
        <ele>217</ele>
        <time>2018-09-02T08:05:26.000Z</time>
      </trkpt>
      <trkpt lat="43.3423936553299427032470703125" lon="-1.84886301867663860321044921875">
        <ele>216.399993896484375</ele>
        <time>2018-09-02T08:05:29.000Z</time>
      </trkpt>
      <trkpt lat="43.34235166199505329132080078125" lon="-1.84884332120418548583984375">
        <ele>216</ele>
        <time>2018-09-02T08:05:30.000Z</time>
      </trkpt>
      <trkpt lat="43.34230170585215091705322265625" lon="-1.8488247133791446685791015625">
        <ele>215.1999969482421875</ele>
        <time>2018-09-02T08:05:31.000Z</time>
      </trkpt>
      <trkpt lat="43.3421851135790348052978515625" lon="-1.84881591238081455230712890625">
        <ele>214.399993896484375</ele>
        <time>2018-09-02T08:05:34.000Z</time>
      </trkpt>
      <trkpt lat="43.34215384908020496368408203125" lon="-1.84881540946662425994873046875">
        <ele>213.600006103515625</ele>
        <time>2018-09-02T08:05:35.000Z</time>
      </trkpt>
      <trkpt lat="43.34210288710892200469970703125" lon="-1.84880048967897891998291015625">
        <ele>213.1999969482421875</ele>
        <time>2018-09-02T08:05:37.000Z</time>
      </trkpt>
      <trkpt lat="43.34204052574932575225830078125" lon="-1.848786659538745880126953125">
        <ele>212.399993896484375</ele>
        <time>2018-09-02T08:05:40.000Z</time>
      </trkpt>
      <trkpt lat="43.34187489934265613555908203125" lon="-1.848852373659610748291015625">
        <ele>211.399993896484375</ele>
        <time>2018-09-02T08:05:44.000Z</time>
      </trkpt>
      <trkpt lat="43.34173810668289661407470703125" lon="-1.848949603736400604248046875">
        <ele>210.1999969482421875</ele>
        <time>2018-09-02T08:05:48.000Z</time>
      </trkpt>
      <trkpt lat="43.341693766415119171142578125" lon="-1.84904490597546100616455078125">
        <ele>209.600006103515625</ele>
        <time>2018-09-02T08:05:50.000Z</time>
      </trkpt>
      <trkpt lat="43.34167591296136379241943359375" lon="-1.84919075109064579010009765625">
        <ele>209.1999969482421875</ele>
        <time>2018-09-02T08:05:53.000Z</time>
      </trkpt>
      <trkpt lat="43.3416768349707126617431640625" lon="-1.84922461397945880889892578125">
        <ele>209.1999969482421875</ele>
        <time>2018-09-02T08:05:54.000Z</time>
      </trkpt>
      <trkpt lat="43.34170239977538585662841796875" lon="-1.849465928971767425537109375">
        <ele>208.399993896484375</ele>
        <time>2018-09-02T08:06:01.000Z</time>
      </trkpt>
      <trkpt lat="43.34170927293598651885986328125" lon="-1.8494997918605804443359375">
        <ele>208.1999969482421875</ele>
        <time>2018-09-02T08:06:02.000Z</time>
      </trkpt>
      <trkpt lat="43.34175403229892253875732421875" lon="-1.8496833555400371551513671875">
        <ele>207.1999969482421875</ele>
        <time>2018-09-02T08:06:08.000Z</time>
      </trkpt>
      <trkpt lat="43.341758139431476593017578125" lon="-1.84970959089696407318115234375">
        <ele>207</ele>
        <time>2018-09-02T08:06:09.000Z</time>
      </trkpt>
      <trkpt lat="43.34176518023014068603515625" lon="-1.849872954189777374267578125">
        <ele>206</ele>
        <time>2018-09-02T08:06:14.000Z</time>
      </trkpt>
      <trkpt lat="43.34177398122847080230712890625" lon="-1.84989474713802337646484375">
        <ele>206.1999969482421875</ele>
        <time>2018-09-02T08:06:15.000Z</time>
      </trkpt>
      <trkpt lat="43.34181882441043853759765625" lon="-1.85000798664987087249755859375">
        <ele>205.1999969482421875</ele>
        <time>2018-09-02T08:06:20.000Z</time>
      </trkpt>
      <trkpt lat="43.341823853552341461181640625" lon="-1.85003112070262432098388671875">
        <ele>205</ele>
        <time>2018-09-02T08:06:21.000Z</time>
      </trkpt>
      <trkpt lat="43.341826535761356353759765625" lon="-1.85007940046489238739013671875">
        <ele>204.600006103515625</ele>
        <time>2018-09-02T08:06:24.000Z</time>
      </trkpt>
      <trkpt lat="43.3418216742575168609619140625" lon="-1.85014762915670871734619140625">
        <ele>204.600006103515625</ele>
        <time>2018-09-02T08:06:27.000Z</time>
      </trkpt>
      <trkpt lat="43.34179828874766826629638671875" lon="-1.8502566777169704437255859375">
        <ele>203.8000030517578125</ele>
        <time>2018-09-02T08:06:31.000Z</time>
      </trkpt>
      <trkpt lat="43.3417953550815582275390625" lon="-1.8502754531800746917724609375">
        <ele>203.8000030517578125</ele>
        <time>2018-09-02T08:06:32.000Z</time>
      </trkpt>
      <trkpt lat="43.34180315025150775909423828125" lon="-1.850332282483577728271484375">
        <ele>203.399993896484375</ele>
        <time>2018-09-02T08:06:34.000Z</time>
      </trkpt>
      <trkpt lat="43.34181169979274272918701171875" lon="-1.8503787182271480560302734375">
        <ele>203</ele>
        <time>2018-09-02T08:06:36.000Z</time>
      </trkpt>
      <trkpt lat="43.3418186567723751068115234375" lon="-1.85042188502848148345947265625">
        <ele>202.8000030517578125</ele>
        <time>2018-09-02T08:06:38.000Z</time>
      </trkpt>
      <trkpt lat="43.34183835424482822418212890625" lon="-1.85050117783248424530029296875">
        <ele>202.399993896484375</ele>
        <time>2018-09-02T08:06:41.000Z</time>
      </trkpt>
      <trkpt lat="43.34185780026018619537353515625" lon="-1.85054476372897624969482421875">
        <ele>201.8000030517578125</ele>
        <time>2018-09-02T08:06:43.000Z</time>
      </trkpt>
      <trkpt lat="43.3418597280979156494140625" lon="-1.8505751900374889373779296875">
        <ele>201.600006103515625</ele>
        <time>2018-09-02T08:06:44.000Z</time>
      </trkpt>
      <trkpt lat="43.341835923492908477783203125" lon="-1.8506491184234619140625">
        <ele>200.600006103515625</ele>
        <time>2018-09-02T08:06:47.000Z</time>
      </trkpt>
      <trkpt lat="43.34181421436369419097900390625" lon="-1.8507475219666957855224609375">
        <ele>200.399993896484375</ele>
        <time>2018-09-02T08:06:50.000Z</time>
      </trkpt>
      <trkpt lat="43.3417995460331439971923828125" lon="-1.85080292634665966033935546875">
        <ele>199.600006103515625</ele>
        <time>2018-09-02T08:06:52.000Z</time>
      </trkpt>
      <trkpt lat="43.341785632073879241943359375" lon="-1.8508306704461574554443359375">
        <ele>199.600006103515625</ele>
        <time>2018-09-02T08:06:53.000Z</time>
      </trkpt>
      <trkpt lat="43.3417184092104434967041015625" lon="-1.85091490857303142547607421875">
        <ele>198.399993896484375</ele>
        <time>2018-09-02T08:06:58.000Z</time>
      </trkpt>
      <trkpt lat="43.3416530303657054901123046875" lon="-1.8508997373282909393310546875">
        <ele>197.399993896484375</ele>
        <time>2018-09-02T08:07:02.000Z</time>
      </trkpt>
      <trkpt lat="43.34163601510226726531982421875" lon="-1.85088775120675563812255859375">
        <ele>197</ele>
        <time>2018-09-02T08:07:03.000Z</time>
      </trkpt>
      <trkpt lat="43.34159125573933124542236328125" lon="-1.85087249614298343658447265625">
        <ele>196.399993896484375</ele>
        <time>2018-09-02T08:07:05.000Z</time>
      </trkpt>
      <trkpt lat="43.3415638469159603118896484375" lon="-1.85087702237069606781005859375">
        <ele>196.1999969482421875</ele>
        <time>2018-09-02T08:07:06.000Z</time>
      </trkpt>
      <trkpt lat="43.34153157658874988555908203125" lon="-1.85087685473263263702392578125">
        <ele>195.8000030517578125</ele>
        <time>2018-09-02T08:07:07.000Z</time>
      </trkpt>
      <trkpt lat="43.3414659462869167327880859375" lon="-1.85088171623647212982177734375">
        <ele>195</ele>
        <time>2018-09-02T08:07:09.000Z</time>
      </trkpt>
      <trkpt lat="43.34136460907757282257080078125" lon="-1.85087065212428569793701171875">
        <ele>194</ele>
        <time>2018-09-02T08:07:12.000Z</time>
      </trkpt>
      <trkpt lat="43.3413326740264892578125" lon="-1.8508749268949031829833984375">
        <ele>193.8000030517578125</ele>
        <time>2018-09-02T08:07:13.000Z</time>
      </trkpt>
      <trkpt lat="43.3412460051476955413818359375" lon="-1.85092077590525150299072265625">
        <ele>193.399993896484375</ele>
        <time>2018-09-02T08:07:16.000Z</time>
      </trkpt>
      <trkpt lat="43.341223038733005523681640625" lon="-1.85094960965216159820556640625">
        <ele>193.1999969482421875</ele>
        <time>2018-09-02T08:07:17.000Z</time>
      </trkpt>
      <trkpt lat="43.34118582308292388916015625" lon="-1.85099889524281024932861328125">
        <ele>193</ele>
        <time>2018-09-02T08:07:19.000Z</time>
      </trkpt>
      <trkpt lat="43.3411729149520397186279296875" lon="-1.8510268069803714752197265625">
        <ele>192.8000030517578125</ele>
        <time>2018-09-02T08:07:20.000Z</time>
      </trkpt>
      <trkpt lat="43.34114835597574710845947265625" lon="-1.8510955385863780975341796875">
        <ele>192.1999969482421875</ele>
        <time>2018-09-02T08:07:22.000Z</time>
      </trkpt>
      <trkpt lat="43.34112874232232570648193359375" lon="-1.85112093575298786163330078125">
        <ele>191.600006103515625</ele>
        <time>2018-09-02T08:07:23.000Z</time>
      </trkpt>
      <trkpt lat="43.34107861854135990142822265625" lon="-1.85117541812360286712646484375">
        <ele>191</ele>
        <time>2018-09-02T08:07:25.000Z</time>
      </trkpt>
      <trkpt lat="43.3410579152405261993408203125" lon="-1.8512148968875408172607421875">
        <ele>191</ele>
        <time>2018-09-02T08:07:26.000Z</time>
      </trkpt>
      <trkpt lat="43.3410280756652355194091796875" lon="-1.85124280862510204315185546875">
        <ele>191</ele>
        <time>2018-09-02T08:07:27.000Z</time>
      </trkpt>
      <trkpt lat="43.34093411453068256378173828125" lon="-1.8513161502778530120849609375">
        <ele>190.8000030517578125</ele>
        <time>2018-09-02T08:07:30.000Z</time>
      </trkpt>
      <trkpt lat="43.3408892713487148284912109375" lon="-1.851340793073177337646484375">
        <ele>190.399993896484375</ele>
        <time>2018-09-02T08:07:31.000Z</time>
      </trkpt>
      <trkpt lat="43.34081324748694896697998046875" lon="-1.85137725435197353363037109375">
        <ele>189.600006103515625</ele>
        <time>2018-09-02T08:07:33.000Z</time>
      </trkpt>
      <trkpt lat="43.3407850004732608795166015625" lon="-1.85140223242342472076416015625">
        <ele>189.399993896484375</ele>
        <time>2018-09-02T08:07:34.000Z</time>
      </trkpt>
      <trkpt lat="43.34072959609329700469970703125" lon="-1.851450093090534210205078125">
        <ele>188.1999969482421875</ele>
        <time>2018-09-02T08:07:36.000Z</time>
      </trkpt>
      <trkpt lat="43.3406498841941356658935546875" lon="-1.85150683857500553131103515625">
        <ele>188.1999969482421875</ele>
        <time>2018-09-02T08:07:40.000Z</time>
      </trkpt>
      <trkpt lat="43.34057101048529148101806640625" lon="-1.85146358795464038848876953125">
        <ele>185.8000030517578125</ele>
        <time>2018-09-02T08:07:48.000Z</time>
      </trkpt>
      <trkpt lat="43.34055240266025066375732421875" lon="-1.85143961571156978607177734375">
        <ele>185.8000030517578125</ele>
        <time>2018-09-02T08:07:49.000Z</time>
      </trkpt>
      <trkpt lat="43.34046028554439544677734375" lon="-1.85128672979772090911865234375">
        <ele>185.8000030517578125</ele>
        <time>2018-09-02T08:07:54.000Z</time>
      </trkpt>
      <trkpt lat="43.3404393307864665985107421875" lon="-1.8512593209743499755859375">
        <ele>185.600006103515625</ele>
        <time>2018-09-02T08:07:55.000Z</time>
      </trkpt>
      <trkpt lat="43.34036380983889102935791015625" lon="-1.85122168622910976409912109375">
        <ele>184.399993896484375</ele>
        <time>2018-09-02T08:07:58.000Z</time>
      </trkpt>
      <trkpt lat="43.3403112553060054779052734375" lon="-1.85120492242276668548583984375">
        <ele>183.8000030517578125</ele>
        <time>2018-09-02T08:08:00.000Z</time>
      </trkpt>
      <trkpt lat="43.3402626402676105499267578125" lon="-1.85118891298770904541015625">
        <ele>183.1999969482421875</ele>
        <time>2018-09-02T08:08:02.000Z</time>
      </trkpt>
      <trkpt lat="43.34015811793506145477294921875" lon="-1.85112713836133480072021484375">
        <ele>182.1999969482421875</ele>
        <time>2018-09-02T08:08:06.000Z</time>
      </trkpt>
      <trkpt lat="43.34011788479983806610107421875" lon="-1.85111070983111858367919921875">
        <ele>181.8000030517578125</ele>
        <time>2018-09-02T08:08:07.000Z</time>
      </trkpt>
      <trkpt lat="43.34002769552171230316162109375" lon="-1.85107785277068614959716796875">
        <ele>181.600006103515625</ele>
        <time>2018-09-02T08:08:09.000Z</time>
      </trkpt>
      <trkpt lat="43.339925520122051239013671875" lon="-1.851036362349987030029296875">
        <ele>181</ele>
        <time>2018-09-02T08:08:11.000Z</time>
      </trkpt>
      <trkpt lat="43.33981697447597980499267578125" lon="-1.85102135874330997467041015625">
        <ele>180.399993896484375</ele>
        <time>2018-09-02T08:08:13.000Z</time>
      </trkpt>
      <trkpt lat="43.33976115100085735321044921875" lon="-1.851012222468852996826171875">
        <ele>180</ele>
        <time>2018-09-02T08:08:14.000Z</time>
      </trkpt>
      <trkpt lat="43.33958965726196765899658203125" lon="-1.8509661220014095306396484375">
        <ele>178.8000030517578125</ele>
        <time>2018-09-02T08:08:17.000Z</time>
      </trkpt>
      <trkpt lat="43.3394412137567996978759765625" lon="-1.8509439937770366668701171875">
        <ele>178.399993896484375</ele>
        <time>2018-09-02T08:08:19.000Z</time>
      </trkpt>
      <trkpt lat="43.3392866514623165130615234375" lon="-1.85095245949923992156982421875">
        <ele>177.600006103515625</ele>
        <time>2018-09-02T08:08:21.000Z</time>
      </trkpt>
      <trkpt lat="43.33916075527667999267578125" lon="-1.8510087020695209503173828125">
        <ele>177.1999969482421875</ele>
        <time>2018-09-02T08:08:23.000Z</time>
      </trkpt>
      <trkpt lat="43.338913656771183013916015625" lon="-1.8511573970317840576171875">
        <ele>176.600006103515625</ele>
        <time>2018-09-02T08:08:27.000Z</time>
      </trkpt>
      <trkpt lat="43.33887753076851367950439453125" lon="-1.851193606853485107421875">
        <ele>176.8000030517578125</ele>
        <time>2018-09-02T08:08:28.000Z</time>
      </trkpt>
      <trkpt lat="43.33875314332544803619384765625" lon="-1.8513342551887035369873046875">
        <ele>176.399993896484375</ele>
        <time>2018-09-02T08:08:31.000Z</time>
      </trkpt>
      <trkpt lat="43.33866831846535205841064453125" lon="-1.8515602312982082366943359375">
        <ele>176.1999969482421875</ele>
        <time>2018-09-02T08:08:35.000Z</time>
      </trkpt>
      <trkpt lat="43.33863194100558757781982421875" lon="-1.85167036950588226318359375">
        <ele>176.1999969482421875</ele>
        <time>2018-09-02T08:08:37.000Z</time>
      </trkpt>
      <trkpt lat="43.3385879360139369964599609375" lon="-1.8518091738224029541015625">
        <ele>176</ele>
        <time>2018-09-02T08:08:40.000Z</time>
      </trkpt>
      <trkpt lat="43.3385646343231201171875" lon="-1.85190196149051189422607421875">
        <ele>176.1999969482421875</ele>
        <time>2018-09-02T08:08:42.000Z</time>
      </trkpt>
      <trkpt lat="43.338539488613605499267578125" lon="-1.85207001864910125732421875">
        <ele>176.399993896484375</ele>
        <time>2018-09-02T08:08:46.000Z</time>
      </trkpt>
      <trkpt lat="43.3385352976620197296142578125" lon="-1.85215375386178493499755859375">
        <ele>176.399993896484375</ele>
        <time>2018-09-02T08:08:48.000Z</time>
      </trkpt>
      <trkpt lat="43.33855315111577510833740234375" lon="-1.85239054262638092041015625">
        <ele>176.399993896484375</ele>
        <time>2018-09-02T08:08:54.000Z</time>
      </trkpt>
      <trkpt lat="43.338585756719112396240234375" lon="-1.8526300974190235137939453125">
        <ele>176.1999969482421875</ele>
        <time>2018-09-02T08:08:59.000Z</time>
      </trkpt>
      <trkpt lat="43.3385614491999149322509765625" lon="-1.852833442389965057373046875">
        <ele>176.399993896484375</ele>
        <time>2018-09-02T08:09:04.000Z</time>
      </trkpt>
      <trkpt lat="43.33855533041059970855712890625" lon="-1.852960176765918731689453125">
        <ele>176.1999969482421875</ele>
        <time>2018-09-02T08:09:07.000Z</time>
      </trkpt>
      <trkpt lat="43.33855323493480682373046875" lon="-1.8530897609889507293701171875">
        <ele>176.1999969482421875</ele>
        <time>2018-09-02T08:09:10.000Z</time>
      </trkpt>
      <trkpt lat="43.33854694850742816925048828125" lon="-1.8531931936740875244140625">
        <ele>176.600006103515625</ele>
        <time>2018-09-02T08:09:13.000Z</time>
      </trkpt>
      <trkpt lat="43.33852532319724559783935546875" lon="-1.8532669544219970703125">
        <ele>176.8000030517578125</ele>
        <time>2018-09-02T08:09:16.000Z</time>
      </trkpt>
      <trkpt lat="43.33846312947571277618408203125" lon="-1.853448338806629180908203125">
        <ele>177.1999969482421875</ele>
        <time>2018-09-02T08:09:22.000Z</time>
      </trkpt>
      <trkpt lat="43.33845692686736583709716796875" lon="-1.85347524471580982208251953125">
        <ele>177.399993896484375</ele>
        <time>2018-09-02T08:09:23.000Z</time>
      </trkpt>
      <trkpt lat="43.33839121274650096893310546875" lon="-1.85362377204000949859619140625">
        <ele>177.600006103515625</ele>
        <time>2018-09-02T08:09:27.000Z</time>
      </trkpt>
      <trkpt lat="43.33836154080927371978759765625" lon="-1.853674985468387603759765625">
        <ele>177.600006103515625</ele>
        <time>2018-09-02T08:09:28.000Z</time>
      </trkpt>
      <trkpt lat="43.3383234031498432159423828125" lon="-1.85374983586370944976806640625">
        <ele>177.8000030517578125</ele>
        <time>2018-09-02T08:09:30.000Z</time>
      </trkpt>
      <trkpt lat="43.33825928159058094024658203125" lon="-1.85383684001863002777099609375">
        <ele>178</ele>
        <time>2018-09-02T08:09:33.000Z</time>
      </trkpt>
      <trkpt lat="43.3382409252226352691650390625" lon="-1.8538659252226352691650390625">
        <ele>178</ele>
        <time>2018-09-02T08:09:34.000Z</time>
      </trkpt>
      <trkpt lat="43.338113687932491302490234375" lon="-1.85397631488740444183349609375">
        <ele>178.1999969482421875</ele>
        <time>2018-09-02T08:09:41.000Z</time>
      </trkpt>
      <trkpt lat="43.33801721222698688507080078125" lon="-1.854102797806262969970703125">
        <ele>178</ele>
        <time>2018-09-02T08:09:45.000Z</time>
      </trkpt>
      <trkpt lat="43.3379871211946010589599609375" lon="-1.854160130023956298828125">
        <ele>179</ele>
        <time>2018-09-02T08:09:48.000Z</time>
      </trkpt>
      <trkpt lat="43.33795602433383464813232421875" lon="-1.8542097508907318115234375">
        <ele>179.600006103515625</ele>
        <time>2018-09-02T08:09:50.000Z</time>
      </trkpt>
      <trkpt lat="43.33794730715453624725341796875" lon="-1.85421972535550594329833984375">
        <ele>180</ele>
        <time>2018-09-02T08:09:52.000Z</time>
      </trkpt>
      <trkpt lat="43.33791847340762615203857421875" lon="-1.854416616261005401611328125">
        <ele>181.399993896484375</ele>
        <time>2018-09-02T08:10:00.000Z</time>
      </trkpt>
      <trkpt lat="43.33792266435921192169189453125" lon="-1.85444335453212261199951171875">
        <ele>181.600006103515625</ele>
        <time>2018-09-02T08:10:01.000Z</time>
      </trkpt>
      <trkpt lat="43.337927944958209991455078125" lon="-1.85450278222560882568359375">
        <ele>182.1999969482421875</ele>
        <time>2018-09-02T08:10:04.000Z</time>
      </trkpt>
      <trkpt lat="43.33792886696755886077880859375" lon="-1.85452549718320369720458984375">
        <ele>182.399993896484375</ele>
        <time>2018-09-02T08:10:05.000Z</time>
      </trkpt>
      <trkpt lat="43.337934650480747222900390625" lon="-1.8545780517160892486572265625">
        <ele>183</ele>
        <time>2018-09-02T08:10:08.000Z</time>
      </trkpt>
      <trkpt lat="43.3379341475665569305419921875" lon="-1.8545871041715145111083984375">
        <ele>183.399993896484375</ele>
        <time>2018-09-02T08:10:10.000Z</time>
      </trkpt>
      <trkpt lat="43.33793741650879383087158203125" lon="-1.85471492819488048553466796875">
        <ele>184.1999969482421875</ele>
        <time>2018-09-02T08:10:15.000Z</time>
      </trkpt>
      <trkpt lat="43.33793121390044689178466796875" lon="-1.8547567538917064666748046875">
        <ele>184.600006103515625</ele>
        <time>2018-09-02T08:10:17.000Z</time>
      </trkpt>
      <trkpt lat="43.3379217423498630523681640625" lon="-1.85481115244328975677490234375">
        <ele>185</ele>
        <time>2018-09-02T08:10:20.000Z</time>
      </trkpt>
      <trkpt lat="43.33791394717991352081298828125" lon="-1.854884326457977294921875">
        <ele>185.600006103515625</ele>
        <time>2018-09-02T08:10:24.000Z</time>
      </trkpt>
      <trkpt lat="43.3379039727151393890380859375" lon="-1.8549545668065547943115234375">
        <ele>186</ele>
        <time>2018-09-02T08:10:28.000Z</time>
      </trkpt>
      <trkpt lat="43.33787203766405582427978515625" lon="-1.855236031115055084228515625">
        <ele>187.600006103515625</ele>
        <time>2018-09-02T08:10:41.000Z</time>
      </trkpt>
      <trkpt lat="43.33786281757056713104248046875" lon="-1.85530752874910831451416015625">
        <ele>187.8000030517578125</ele>
        <time>2018-09-02T08:10:44.000Z</time>
      </trkpt>
      <trkpt lat="43.337849490344524383544921875" lon="-1.85536243021488189697265625">
        <ele>188.1999969482421875</ele>
        <time>2018-09-02T08:10:47.000Z</time>
      </trkpt>
      <trkpt lat="43.3378345705568790435791015625" lon="-1.85544691979885101318359375">
        <ele>188.600006103515625</ele>
        <time>2018-09-02T08:10:50.000Z</time>
      </trkpt>
      <trkpt lat="43.33782308734953403472900390625" lon="-1.855496875941753387451171875">
        <ele>188.8000030517578125</ele>
        <time>2018-09-02T08:10:52.000Z</time>
      </trkpt>
      <trkpt lat="43.3377950079739093780517578125" lon="-1.8555865623056888580322265625">
        <ele>189.399993896484375</ele>
        <time>2018-09-02T08:10:56.000Z</time>
      </trkpt>
      <trkpt lat="43.3377557806670665740966796875" lon="-1.85568991117179393768310546875">
        <ele>189.8000030517578125</ele>
        <time>2018-09-02T08:11:00.000Z</time>
      </trkpt>
      <trkpt lat="43.33770909346640110015869140625" lon="-1.85582167468965053558349609375">
        <ele>190</ele>
        <time>2018-09-02T08:11:04.000Z</time>
      </trkpt>
      <trkpt lat="43.33766466937959194183349609375" lon="-1.8559580482542514801025390625">
        <ele>190.1999969482421875</ele>
        <time>2018-09-02T08:11:08.000Z</time>
      </trkpt>
      <trkpt lat="43.3376478217542171478271484375" lon="-1.8560291267931461334228515625">
        <ele>190.399993896484375</ele>
        <time>2018-09-02T08:11:10.000Z</time>
      </trkpt>
      <trkpt lat="43.33761672489345073699951171875" lon="-1.85619986616075038909912109375">
        <ele>190.600006103515625</ele>
        <time>2018-09-02T08:11:14.000Z</time>
      </trkpt>
      <trkpt lat="43.33760482259094715118408203125" lon="-1.85626910068094730377197265625">
        <ele>191</ele>
        <time>2018-09-02T08:11:16.000Z</time>
      </trkpt>
      <trkpt lat="43.33760373294353485107421875" lon="-1.8563018739223480224609375">
        <ele>191</ele>
        <time>2018-09-02T08:11:17.000Z</time>
      </trkpt>
      <trkpt lat="43.33761186338961124420166015625" lon="-1.85632408596575260162353515625">
        <ele>191</ele>
        <time>2018-09-02T08:11:18.000Z</time>
      </trkpt>
      <trkpt lat="43.337627537548542022705078125" lon="-1.85642458498477935791015625">
        <ele>191.399993896484375</ele>
        <time>2018-09-02T08:11:22.000Z</time>
      </trkpt>
      <trkpt lat="43.3376414515078067779541015625" lon="-1.85648619197309017181396484375">
        <ele>192</ele>
        <time>2018-09-02T08:11:25.000Z</time>
      </trkpt>
      <trkpt lat="43.337644301354885101318359375" lon="-1.85650764964520931243896484375">
        <ele>192.1999969482421875</ele>
        <time>2018-09-02T08:11:26.000Z</time>
      </trkpt>
      <trkpt lat="43.337661735713481903076171875" lon="-1.85654469765722751617431640625">
        <ele>192.399993896484375</ele>
        <time>2018-09-02T08:11:28.000Z</time>
      </trkpt>
      <trkpt lat="43.33768310956656932830810546875" lon="-1.8565876968204975128173828125">
        <ele>192.600006103515625</ele>
        <time>2018-09-02T08:11:31.000Z</time>
      </trkpt>
      <trkpt lat="43.337738513946533203125" lon="-1.8566591106355190277099609375">
        <ele>193</ele>
        <time>2018-09-02T08:11:35.000Z</time>
      </trkpt>
      <trkpt lat="43.3377500809729099273681640625" lon="-1.85667428188025951385498046875">
        <ele>193.399993896484375</ele>
        <time>2018-09-02T08:11:36.000Z</time>
      </trkpt>
      <trkpt lat="43.33778955973684787750244140625" lon="-1.856757514178752899169921875">
        <ele>193.8000030517578125</ele>
        <time>2018-09-02T08:11:41.000Z</time>
      </trkpt>
      <trkpt lat="43.3377950079739093780517578125" lon="-1.85677687637507915496826171875">
        <ele>193.8000030517578125</ele>
        <time>2018-09-02T08:11:42.000Z</time>
      </trkpt>
      <trkpt lat="43.33783415146172046661376953125" lon="-1.85688450001180171966552734375">
        <ele>194.399993896484375</ele>
        <time>2018-09-02T08:11:48.000Z</time>
      </trkpt>
      <trkpt lat="43.337842784821987152099609375" lon="-1.8569065444171428680419921875">
        <ele>194.600006103515625</ele>
        <time>2018-09-02T08:11:49.000Z</time>
      </trkpt>
      <trkpt lat="43.33790087141096591949462890625" lon="-1.85704325325787067413330078125">
        <ele>195.600006103515625</ele>
        <time>2018-09-02T08:11:57.000Z</time>
      </trkpt>
      <trkpt lat="43.337933979928493499755859375" lon="-1.85713729821145534515380859375">
        <ele>196</ele>
        <time>2018-09-02T08:12:03.000Z</time>
      </trkpt>
      <trkpt lat="43.3379519172012805938720703125" lon="-1.85718096792697906494140625">
        <ele>196.600006103515625</ele>
        <time>2018-09-02T08:12:06.000Z</time>
      </trkpt>
      <trkpt lat="43.337976895272731781005859375" lon="-1.85723570175468921661376953125">
        <ele>196.600006103515625</ele>
        <time>2018-09-02T08:12:10.000Z</time>
      </trkpt>
      <trkpt lat="43.3381135202944278717041015625" lon="-1.8575023300945758819580078125">
        <ele>198.600006103515625</ele>
        <time>2018-09-02T08:14:00.000Z</time>
      </trkpt>
      <trkpt lat="43.33811796270310878753662109375" lon="-1.85753443278372287750244140625">
        <ele>198.8000030517578125</ele>
        <time>2018-09-02T08:14:01.000Z</time>
      </trkpt>
      <trkpt lat="43.338129110634326934814453125" lon="-1.85756125487387180328369140625">
        <ele>198.600006103515625</ele>
        <time>2018-09-02T08:14:02.000Z</time>
      </trkpt>
      <trkpt lat="43.338139839470386505126953125" lon="-1.85767340473830699920654296875">
        <ele>199</ele>
        <time>2018-09-02T08:14:06.000Z</time>
      </trkpt>
      <trkpt lat="43.3381383307278156280517578125" lon="-1.8576964549720287322998046875">
        <ele>199.1999969482421875</ele>
        <time>2018-09-02T08:14:07.000Z</time>
      </trkpt>
      <trkpt lat="43.33812936209142208099365234375" lon="-1.85775923542678356170654296875">
        <ele>199.600006103515625</ele>
        <time>2018-09-02T08:14:10.000Z</time>
      </trkpt>
      <trkpt lat="43.33794898353517055511474609375" lon="-1.85804103501141071319580078125">
        <ele>201.600006103515625</ele>
        <time>2018-09-02T08:14:25.000Z</time>
      </trkpt>
      <trkpt lat="43.33793423138558864593505859375" lon="-1.8580622412264347076416015625">
        <ele>201.600006103515625</ele>
        <time>2018-09-02T08:14:26.000Z</time>
      </trkpt>
      <trkpt lat="43.33782291971147060394287109375" lon="-1.85822526924312114715576171875">
        <ele>202.399993896484375</ele>
        <time>2018-09-02T08:14:32.000Z</time>
      </trkpt>
      <trkpt lat="43.3378122746944427490234375" lon="-1.858252845704555511474609375">
        <ele>202.8000030517578125</ele>
        <time>2018-09-02T08:14:33.000Z</time>
      </trkpt>
      <trkpt lat="43.33779173903167247772216796875" lon="-1.85836960561573505401611328125">
        <ele>203.399993896484375</ele>
        <time>2018-09-02T08:14:38.000Z</time>
      </trkpt>
      <trkpt lat="43.33778352476656436920166015625" lon="-1.85844168998301029205322265625">
        <ele>203.8000030517578125</ele>
        <time>2018-09-02T08:14:41.000Z</time>
      </trkpt>
      <trkpt lat="43.3377785794436931610107421875" lon="-1.85852986760437488555908203125">
        <ele>204.399993896484375</ele>
        <time>2018-09-02T08:14:44.000Z</time>
      </trkpt>
      <trkpt lat="43.3377693593502044677734375" lon="-1.858685351908206939697265625">
        <ele>204.399993896484375</ele>
        <time>2018-09-02T08:14:49.000Z</time>
      </trkpt>
      <trkpt lat="43.33777673542499542236328125" lon="-1.8587133474647998809814453125">
        <ele>204.399993896484375</ele>
        <time>2018-09-02T08:14:50.000Z</time>
      </trkpt>
      <trkpt lat="43.33783079870045185089111328125" lon="-1.85880429111421108245849609375">
        <ele>204.1999969482421875</ele>
        <time>2018-09-02T08:14:54.000Z</time>
      </trkpt>
      <trkpt lat="43.33785125054419040679931640625" lon="-1.858826167881488800048828125">
        <ele>204.399993896484375</ele>
        <time>2018-09-02T08:14:55.000Z</time>
      </trkpt>
      <trkpt lat="43.3380162902176380157470703125" lon="-1.85901450924575328826904296875">
        <ele>204.399993896484375</ele>
        <time>2018-09-02T08:15:02.000Z</time>
      </trkpt>
      <trkpt lat="43.33806364797055721282958984375" lon="-1.85906563885509967803955078125">
        <ele>204.600006103515625</ele>
        <time>2018-09-02T08:15:04.000Z</time>
      </trkpt>
      <trkpt lat="43.33819759078323841094970703125" lon="-1.8592373840510845184326171875">
        <ele>205</ele>
        <time>2018-09-02T08:15:11.000Z</time>
      </trkpt>
      <trkpt lat="43.33823430351912975311279296875" lon="-1.85934291221201419830322265625">
        <ele>206</ele>
        <time>2018-09-02T08:15:16.000Z</time>
      </trkpt>
      <trkpt lat="43.338285349309444427490234375" lon="-1.8595012463629245758056640625">
        <ele>206.8000030517578125</ele>
        <time>2018-09-02T08:15:23.000Z</time>
      </trkpt>
      <trkpt lat="43.338290713727474212646484375" lon="-1.85954265296459197998046875">
        <ele>207</ele>
        <time>2018-09-02T08:15:25.000Z</time>
      </trkpt>
      <trkpt lat="43.3383006043732166290283203125" lon="-1.85962789691984653472900390625">
        <ele>207.399993896484375</ele>
        <time>2018-09-02T08:15:29.000Z</time>
      </trkpt>
      <trkpt lat="43.3383052982389926910400390625" lon="-1.85975186526775360107421875">
        <ele>207.8000030517578125</ele>
        <time>2018-09-02T08:15:35.000Z</time>
      </trkpt>
      <trkpt lat="43.3382751233875751495361328125" lon="-1.85986996628344058990478515625">
        <ele>208</ele>
        <time>2018-09-02T08:15:40.000Z</time>
      </trkpt>
      <trkpt lat="43.33817412145435810089111328125" lon="-1.86003760434687137603759765625">
        <ele>208.399993896484375</ele>
        <time>2018-09-02T08:15:46.000Z</time>
      </trkpt>
      <trkpt lat="43.33809633739292621612548828125" lon="-1.86014472506940364837646484375">
        <ele>208.8000030517578125</ele>
        <time>2018-09-02T08:15:50.000Z</time>
      </trkpt>
      <trkpt lat="43.3380404300987720489501953125" lon="-1.86024807393550872802734375">
        <ele>208.8000030517578125</ele>
        <time>2018-09-02T08:15:53.000Z</time>
      </trkpt>
      <trkpt lat="43.33796289749443531036376953125" lon="-1.86048452742397785186767578125">
        <ele>209</ele>
        <time>2018-09-02T08:15:59.000Z</time>
      </trkpt>
      <trkpt lat="43.337949402630329132080078125" lon="-1.86052476055920124053955078125">
        <ele>209.1999969482421875</ele>
        <time>2018-09-02T08:16:00.000Z</time>
      </trkpt>
      <trkpt lat="43.33791495300829410552978515625" lon="-1.8606210686266422271728515625">
        <ele>209.1999969482421875</ele>
        <time>2018-09-02T08:16:03.000Z</time>
      </trkpt>
      <trkpt lat="43.3378573693335056304931640625" lon="-1.860781498253345489501953125">
        <ele>210</ele>
        <time>2018-09-02T08:16:09.000Z</time>
      </trkpt>
      <trkpt lat="43.3378473110496997833251953125" lon="-1.860809661448001861572265625">
        <ele>210.1999969482421875</ele>
        <time>2018-09-02T08:16:10.000Z</time>
      </trkpt>
      <trkpt lat="43.33784085698425769805908203125" lon="-1.8608467094600200653076171875">
        <ele>210.8000030517578125</ele>
        <time>2018-09-02T08:16:12.000Z</time>
      </trkpt>
      <trkpt lat="43.33782409317791461944580078125" lon="-1.8609104119241237640380859375">
        <ele>211.1999969482421875</ele>
        <time>2018-09-02T08:16:14.000Z</time>
      </trkpt>
      <trkpt lat="43.33781621418893337249755859375" lon="-1.860959529876708984375">
        <ele>211.1999969482421875</ele>
        <time>2018-09-02T08:16:16.000Z</time>
      </trkpt>
      <trkpt lat="43.337834738194942474365234375" lon="-1.86127779074013233184814453125">
        <ele>213.600006103515625</ele>
        <time>2018-09-02T08:16:31.000Z</time>
      </trkpt>
      <trkpt lat="43.337858207523822784423828125" lon="-1.86135523952543735504150390625">
        <ele>214.399993896484375</ele>
        <time>2018-09-02T08:16:35.000Z</time>
      </trkpt>
      <trkpt lat="43.3378697745501995086669921875" lon="-1.86140553094446659088134765625">
        <ele>214.8000030517578125</ele>
        <time>2018-09-02T08:16:37.000Z</time>
      </trkpt>
      <trkpt lat="43.33788134157657623291015625" lon="-1.8614475242793560028076171875">
        <ele>215</ele>
        <time>2018-09-02T08:16:39.000Z</time>
      </trkpt>
      <trkpt lat="43.3378986082971096038818359375" lon="-1.86152572743594646453857421875">
        <ele>216</ele>
        <time>2018-09-02T08:16:44.000Z</time>
      </trkpt>
      <trkpt lat="43.337911181151866912841796875" lon="-1.8615561537444591522216796875">
        <ele>216.1999969482421875</ele>
        <time>2018-09-02T08:16:46.000Z</time>
      </trkpt>
      <trkpt lat="43.33793071098625659942626953125" lon="-1.86163335107266902923583984375">
        <ele>217</ele>
        <time>2018-09-02T08:16:50.000Z</time>
      </trkpt>
      <trkpt lat="43.33793674595654010772705078125" lon="-1.8616741709411144256591796875">
        <ele>217.1999969482421875</ele>
        <time>2018-09-02T08:16:52.000Z</time>
      </trkpt>
      <trkpt lat="43.33795015700161457061767578125" lon="-1.86187642626464366912841796875">
        <ele>217.8000030517578125</ele>
        <time>2018-09-02T08:17:00.000Z</time>
      </trkpt>
      <trkpt lat="43.33795133046805858612060546875" lon="-1.8619088642299175262451171875">
        <ele>218</ele>
        <time>2018-09-02T08:17:01.000Z</time>
      </trkpt>
      <trkpt lat="43.3379385061562061309814453125" lon="-1.862113215029239654541015625">
        <ele>218.8000030517578125</ele>
        <time>2018-09-02T08:17:07.000Z</time>
      </trkpt>
      <trkpt lat="43.33791755139827728271484375" lon="-1.86233223415911197662353515625">
        <ele>218</ele>
        <time>2018-09-02T08:17:12.000Z</time>
      </trkpt>
      <trkpt lat="43.33789475262165069580078125" lon="-1.86242728494107723236083984375">
        <ele>217.8000030517578125</ele>
        <time>2018-09-02T08:17:14.000Z</time>
      </trkpt>
      <trkpt lat="43.33786734379827976226806640625" lon="-1.86252719722688198089599609375">
        <ele>217.399993896484375</ele>
        <time>2018-09-02T08:17:16.000Z</time>
      </trkpt>
      <trkpt lat="43.3378578722476959228515625" lon="-1.8625675141811370849609375">
        <ele>216.8000030517578125</ele>
        <time>2018-09-02T08:17:17.000Z</time>
      </trkpt>
      <trkpt lat="43.3378121070563793182373046875" lon="-1.86262912116944789886474609375">
        <ele>216.1999969482421875</ele>
        <time>2018-09-02T08:17:19.000Z</time>
      </trkpt>
      <trkpt lat="43.3377829380333423614501953125" lon="-1.862659715116024017333984375">
        <ele>216.1999969482421875</ele>
        <time>2018-09-02T08:17:21.000Z</time>
      </trkpt>
      <trkpt lat="43.337769024074077606201171875" lon="-1.862691231071949005126953125">
        <ele>215.8000030517578125</ele>
        <time>2018-09-02T08:17:23.000Z</time>
      </trkpt>
      <trkpt lat="43.33775569684803485870361328125" lon="-1.86270656995475292205810546875">
        <ele>215.600006103515625</ele>
        <time>2018-09-02T08:17:24.000Z</time>
      </trkpt>
      <trkpt lat="43.33771663717925548553466796875" lon="-1.86273171566426753997802734375">
        <ele>215</ele>
        <time>2018-09-02T08:17:26.000Z</time>
      </trkpt>
      <trkpt lat="43.3376977778971195220947265625" lon="-1.8627400137484073638916015625">
        <ele>214.600006103515625</ele>
        <time>2018-09-02T08:17:27.000Z</time>
      </trkpt>
      <trkpt lat="43.33767472766339778900146484375" lon="-1.8627604655921459197998046875">
        <ele>214.1999969482421875</ele>
        <time>2018-09-02T08:17:28.000Z</time>
      </trkpt>
      <trkpt lat="43.33764639683067798614501953125" lon="-1.8627896346151828765869140625">
        <ele>213.600006103515625</ele>
        <time>2018-09-02T08:17:29.000Z</time>
      </trkpt>
      <trkpt lat="43.337613455951213836669921875" lon="-1.86282299458980560302734375">
        <ele>213.1999969482421875</ele>
        <time>2018-09-02T08:17:30.000Z</time>
      </trkpt>
      <trkpt lat="43.337544389069080352783203125" lon="-1.86289382167160511016845703125">
        <ele>212.399993896484375</ele>
        <time>2018-09-02T08:17:32.000Z</time>
      </trkpt>
      <trkpt lat="43.33750021643936634063720703125" lon="-1.86294193379580974578857421875">
        <ele>212</ele>
        <time>2018-09-02T08:17:33.000Z</time>
      </trkpt>
      <trkpt lat="43.33744875155389308929443359375" lon="-1.8629897944629192352294921875">
        <ele>211.399993896484375</ele>
        <time>2018-09-02T08:17:34.000Z</time>
      </trkpt>
      <trkpt lat="43.33738907240331172943115234375" lon="-1.86304084025323390960693359375">
        <ele>210.8000030517578125</ele>
        <time>2018-09-02T08:17:35.000Z</time>
      </trkpt>
      <trkpt lat="43.33732771687209606170654296875" lon="-1.86309481970965862274169921875">
        <ele>209.8000030517578125</ele>
        <time>2018-09-02T08:17:36.000Z</time>
      </trkpt>
      <trkpt lat="43.33727273158729076385498046875" lon="-1.86314729042351245880126953125">
        <ele>209.399993896484375</ele>
        <time>2018-09-02T08:17:37.000Z</time>
      </trkpt>
      <trkpt lat="43.33716728724539279937744140625" lon="-1.86324820853769779205322265625">
        <ele>208.399993896484375</ele>
        <time>2018-09-02T08:17:39.000Z</time>
      </trkpt>
      <trkpt lat="43.3371097035706043243408203125" lon="-1.86328626237809658050537109375">
        <ele>207.8000030517578125</ele>
        <time>2018-09-02T08:17:40.000Z</time>
      </trkpt>
      <trkpt lat="43.33699814043939113616943359375" lon="-1.8633589334785938262939453125">
        <ele>207</ele>
        <time>2018-09-02T08:17:42.000Z</time>
      </trkpt>
      <trkpt lat="43.33693720400333404541015625" lon="-1.86339296400547027587890625">
        <ele>206.600006103515625</ele>
        <time>2018-09-02T08:17:43.000Z</time>
      </trkpt>
      <trkpt lat="43.3368708193302154541015625" lon="-1.8634196184575557708740234375">
        <ele>206</ele>
        <time>2018-09-02T08:17:44.000Z</time>
      </trkpt>
      <trkpt lat="43.33680535666644573211669921875" lon="-1.86344803310930728912353515625">
        <ele>205.8000030517578125</ele>
        <time>2018-09-02T08:17:45.000Z</time>
      </trkpt>
      <trkpt lat="43.3367501199245452880859375" lon="-1.86349622905254364013671875">
        <ele>205.8000030517578125</ele>
        <time>2018-09-02T08:17:46.000Z</time>
      </trkpt>
      <trkpt lat="43.3367140777409076690673828125" lon="-1.86355398036539554595947265625">
        <ele>206</ele>
        <time>2018-09-02T08:17:47.000Z</time>
      </trkpt>
      <trkpt lat="43.3366616070270538330078125" lon="-1.8637542240321636199951171875">
        <ele>205.399993896484375</ele>
        <time>2018-09-02T08:17:50.000Z</time>
      </trkpt>
      <trkpt lat="43.33665112964808940887451171875" lon="-1.86382404528558254241943359375">
        <ele>205.1999969482421875</ele>
        <time>2018-09-02T08:17:51.000Z</time>
      </trkpt>
      <trkpt lat="43.3366416580975055694580078125" lon="-1.86389026232063770294189453125">
        <ele>204.8000030517578125</ele>
        <time>2018-09-02T08:17:52.000Z</time>
      </trkpt>
      <trkpt lat="43.33662313409149646759033203125" lon="-1.86422553844749927520751953125">
        <ele>204.600006103515625</ele>
        <time>2018-09-02T08:17:57.000Z</time>
      </trkpt>
      <trkpt lat="43.33671483211219310760498046875" lon="-1.86447791755199432373046875">
        <ele>204.399993896484375</ele>
        <time>2018-09-02T08:18:02.000Z</time>
      </trkpt>
      <trkpt lat="43.33677199669182300567626953125" lon="-1.864631809294223785400390625">
        <ele>203.600006103515625</ele>
        <time>2018-09-02T08:18:05.000Z</time>
      </trkpt>
      <trkpt lat="43.33682144992053508758544921875" lon="-1.86477589420974254608154296875">
        <ele>203.399993896484375</ele>
        <time>2018-09-02T08:18:08.000Z</time>
      </trkpt>
      <trkpt lat="43.33685078658163547515869140625" lon="-1.86484529636800289154052734375">
        <ele>203.600006103515625</ele>
        <time>2018-09-02T08:18:10.000Z</time>
      </trkpt>
      <trkpt lat="43.336872495710849761962890625" lon="-1.86492224223911762237548828125">
        <ele>203.8000030517578125</ele>
        <time>2018-09-02T08:18:12.000Z</time>
      </trkpt>
      <trkpt lat="43.3368813805282115936279296875" lon="-1.864960379898548126220703125">
        <ele>203.8000030517578125</ele>
        <time>2018-09-02T08:18:13.000Z</time>
      </trkpt>
      <trkpt lat="43.3368924446403980255126953125" lon="-1.86499583534896373748779296875">
        <ele>203.8000030517578125</ele>
        <time>2018-09-02T08:18:14.000Z</time>
      </trkpt>
      <trkpt lat="43.33691683597862720489501953125" lon="-1.8651355616748332977294921875">
        <ele>204.1999969482421875</ele>
        <time>2018-09-02T08:18:20.000Z</time>
      </trkpt>
      <trkpt lat="43.3369061909615993499755859375" lon="-1.8651880323886871337890625">
        <ele>204.8000030517578125</ele>
        <time>2018-09-02T08:18:23.000Z</time>
      </trkpt>
      <trkpt lat="43.3368753455579280853271484375" lon="-1.86524645425379276275634765625">
        <ele>205</ele>
        <time>2018-09-02T08:18:26.000Z</time>
      </trkpt>
      <trkpt lat="43.33686486817896366119384765625" lon="-1.865269504487514495849609375">
        <ele>205.1999969482421875</ele>
        <time>2018-09-02T08:18:27.000Z</time>
      </trkpt>
      <trkpt lat="43.3368458412587642669677734375" lon="-1.86531937681138515472412109375">
        <ele>205.399993896484375</ele>
        <time>2018-09-02T08:18:29.000Z</time>
      </trkpt>
      <trkpt lat="43.336808122694492340087890625" lon="-1.86541375704109668731689453125">
        <ele>205.8000030517578125</ele>
        <time>2018-09-02T08:18:32.000Z</time>
      </trkpt>
      <trkpt lat="43.33678624592721462249755859375" lon="-1.86547108925879001617431640625">
        <ele>206</ele>
        <time>2018-09-02T08:18:34.000Z</time>
      </trkpt>
      <trkpt lat="43.33676822483539581298828125" lon="-1.8655201233923435211181640625">
        <ele>206</ele>
        <time>2018-09-02T08:18:36.000Z</time>
      </trkpt>
      <trkpt lat="43.33671214990317821502685546875" lon="-1.865636296570301055908203125">
        <ele>206.399993896484375</ele>
        <time>2018-09-02T08:18:40.000Z</time>
      </trkpt>
      <trkpt lat="43.33664350211620330810546875" lon="-1.86585254967212677001953125">
        <ele>206.8000030517578125</ele>
        <time>2018-09-02T08:18:47.000Z</time>
      </trkpt>
      <trkpt lat="43.3365370519459247589111328125" lon="-1.86603737063705921173095703125">
        <ele>207.399993896484375</ele>
        <time>2018-09-02T08:18:53.000Z</time>
      </trkpt>
      <trkpt lat="43.33647251129150390625" lon="-1.8661779351532459259033203125">
        <ele>207.600006103515625</ele>
        <time>2018-09-02T08:18:56.000Z</time>
      </trkpt>
      <trkpt lat="43.336438648402690887451171875" lon="-1.8662654422223567962646484375">
        <ele>207.8000030517578125</ele>
        <time>2018-09-02T08:18:58.000Z</time>
      </trkpt>
      <trkpt lat="43.33643085323274135589599609375" lon="-1.86631229706108570098876953125">
        <ele>207.8000030517578125</ele>
        <time>2018-09-02T08:18:59.000Z</time>
      </trkpt>
      <trkpt lat="43.33640537224709987640380859375" lon="-1.86647624708712100982666015625">
        <ele>207.8000030517578125</ele>
        <time>2018-09-02T08:19:03.000Z</time>
      </trkpt>
      <trkpt lat="43.33639950491487979888916015625" lon="-1.8665666878223419189453125">
        <ele>208</ele>
        <time>2018-09-02T08:19:05.000Z</time>
      </trkpt>
      <trkpt lat="43.33638668060302734375" lon="-1.86669803224503993988037109375">
        <ele>207.8000030517578125</ele>
        <time>2018-09-02T08:19:08.000Z</time>
      </trkpt>
      <trkpt lat="43.336378298699855804443359375" lon="-1.8667948432266712188720703125">
        <ele>207.600006103515625</ele>
        <time>2018-09-02T08:19:10.000Z</time>
      </trkpt>
      <trkpt lat="43.3363613672554492950439453125" lon="-1.86706348322331905364990234375">
        <ele>208</ele>
        <time>2018-09-02T08:19:16.000Z</time>
      </trkpt>
      <trkpt lat="43.3364076353609561920166015625" lon="-1.8674499727785587310791015625">
        <ele>208.1999969482421875</ele>
        <time>2018-09-02T08:19:24.000Z</time>
      </trkpt>
      <trkpt lat="43.3363855071365833282470703125" lon="-1.86769849620759487152099609375">
        <ele>208.399993896484375</ele>
        <time>2018-09-02T08:19:30.000Z</time>
      </trkpt>
      <trkpt lat="43.33634619601070880889892578125" lon="-1.86792430467903614044189453125">
        <ele>209</ele>
        <time>2018-09-02T08:19:36.000Z</time>
      </trkpt>
      <trkpt lat="43.33633965812623500823974609375" lon="-1.86796101741492748260498046875">
        <ele>209</ele>
        <time>2018-09-02T08:19:37.000Z</time>
      </trkpt>
      <trkpt lat="43.33631903864443302154541015625" lon="-1.86816729605197906494140625">
        <ele>209.8000030517578125</ele>
        <time>2018-09-02T08:19:43.000Z</time>
      </trkpt>
      <trkpt lat="43.3363100700080394744873046875" lon="-1.86826226301491260528564453125">
        <ele>210</ele>
        <time>2018-09-02T08:19:46.000Z</time>
      </trkpt>
      <trkpt lat="43.33628668449819087982177734375" lon="-1.8683780170977115631103515625">
        <ele>210.600006103515625</ele>
        <time>2018-09-02T08:19:50.000Z</time>
      </trkpt>
      <trkpt lat="43.33627394400537014007568359375" lon="-1.86846393160521984100341796875">
        <ele>211</ele>
        <time>2018-09-02T08:19:53.000Z</time>
      </trkpt>
      <trkpt lat="43.3362705074250698089599609375" lon="-1.86852226965129375457763671875">
        <ele>211.1999969482421875</ele>
        <time>2018-09-02T08:19:55.000Z</time>
      </trkpt>
      <trkpt lat="43.3362611196935176849365234375" lon="-1.86858044005930423736572265625">
        <ele>211.8000030517578125</ele>
        <time>2018-09-02T08:19:57.000Z</time>
      </trkpt>
      <trkpt lat="43.33625600673258304595947265625" lon="-1.868606507778167724609375">
        <ele>212</ele>
        <time>2018-09-02T08:19:58.000Z</time>
      </trkpt>
      <trkpt lat="43.336244523525238037109375" lon="-1.8686561286449432373046875">
        <ele>212.1999969482421875</ele>
        <time>2018-09-02T08:20:00.000Z</time>
      </trkpt>
      <trkpt lat="43.33623605780303478240966796875" lon="-1.86869258992373943328857421875">
        <ele>212.399993896484375</ele>
        <time>2018-09-02T08:20:01.000Z</time>
      </trkpt>
      <trkpt lat="43.33620202727615833282470703125" lon="-1.86882150359451770782470703125">
        <ele>212.8000030517578125</ele>
        <time>2018-09-02T08:20:05.000Z</time>
      </trkpt>
      <trkpt lat="43.33616078831255435943603515625" lon="-1.86889023520052433013916015625">
        <ele>213.399993896484375</ele>
        <time>2018-09-02T08:20:07.000Z</time>
      </trkpt>
      <trkpt lat="43.33611267618834972381591796875" lon="-1.868964917957782745361328125">
        <ele>213.8000030517578125</ele>
        <time>2018-09-02T08:20:10.000Z</time>
      </trkpt>
      <trkpt lat="43.33605199120938777923583984375" lon="-1.86904228292405605316162109375">
        <ele>214.399993896484375</ele>
        <time>2018-09-02T08:20:14.000Z</time>
      </trkpt>
      <trkpt lat="43.33598946221172809600830078125" lon="-1.86911872588098049163818359375">
        <ele>214.8000030517578125</ele>
        <time>2018-09-02T08:20:18.000Z</time>
      </trkpt>
      <trkpt lat="43.3359519951045513153076171875" lon="-1.86918896622955799102783203125">
        <ele>215.399993896484375</ele>
        <time>2018-09-02T08:20:21.000Z</time>
      </trkpt>
      <trkpt lat="43.335902877151966094970703125" lon="-1.8692970089614391326904296875">
        <ele>216.399993896484375</ele>
        <time>2018-09-02T08:20:26.000Z</time>
      </trkpt>
      <trkpt lat="43.3358903042972087860107421875" lon="-1.86931754462420940399169921875">
        <ele>216.399993896484375</ele>
        <time>2018-09-02T08:20:27.000Z</time>
      </trkpt>
      <trkpt lat="43.33584981970489025115966796875" lon="-1.86941049993038177490234375">
        <ele>217</ele>
        <time>2018-09-02T08:20:32.000Z</time>
      </trkpt>
      <trkpt lat="43.33583481609821319580078125" lon="-1.86945618130266666412353515625">
        <ele>217.600006103515625</ele>
        <time>2018-09-02T08:20:34.000Z</time>
      </trkpt>
      <trkpt lat="43.335807658731937408447265625" lon="-1.86954134143888950347900390625">
        <ele>218</ele>
        <time>2018-09-02T08:20:38.000Z</time>
      </trkpt>
      <trkpt lat="43.33576180972158908843994140625" lon="-1.86974451877176761627197265625">
        <ele>218.600006103515625</ele>
        <time>2018-09-02T08:20:45.000Z</time>
      </trkpt>
      <trkpt lat="43.33575703203678131103515625" lon="-1.86976413242518901824951171875">
        <ele>218.600006103515625</ele>
        <time>2018-09-02T08:20:46.000Z</time>
      </trkpt>
      <trkpt lat="43.33573800511658191680908203125" lon="-1.8698445148766040802001953125">
        <ele>219</ele>
        <time>2018-09-02T08:20:49.000Z</time>
      </trkpt>
      <trkpt lat="43.33572878502309322357177734375" lon="-1.8698998354375362396240234375">
        <ele>219.600006103515625</ele>
        <time>2018-09-02T08:20:51.000Z</time>
      </trkpt>
      <trkpt lat="43.33571545779705047607421875" lon="-1.87000217847526073455810546875">
        <ele>220</ele>
        <time>2018-09-02T08:20:54.000Z</time>
      </trkpt>
      <trkpt lat="43.3357013761997222900390625" lon="-1.87016361393034458160400390625">
        <ele>220.399993896484375</ele>
        <time>2018-09-02T08:20:59.000Z</time>
      </trkpt>
      <trkpt lat="43.335711769759654998779296875" lon="-1.8702488578855991363525390625">
        <ele>220.600006103515625</ele>
        <time>2018-09-02T08:21:02.000Z</time>
      </trkpt>
      <trkpt lat="43.33571470342576503753662109375" lon="-1.87044977210462093353271484375">
        <ele>221.600006103515625</ele>
        <time>2018-09-02T08:21:09.000Z</time>
      </trkpt>
      <trkpt lat="43.33571386523544788360595703125" lon="-1.870507188141345977783203125">
        <ele>221.8000030517578125</ele>
        <time>2018-09-02T08:21:11.000Z</time>
      </trkpt>
      <trkpt lat="43.33571285940706729888916015625" lon="-1.8706032447516918182373046875">
        <ele>222.600006103515625</ele>
        <time>2018-09-02T08:21:15.000Z</time>
      </trkpt>
      <trkpt lat="43.33570933900773525238037109375" lon="-1.87063358724117279052734375">
        <ele>222.8000030517578125</ele>
        <time>2018-09-02T08:21:16.000Z</time>
      </trkpt>
      <trkpt lat="43.33569131791591644287109375" lon="-1.8707930110394954681396484375">
        <ele>223.8000030517578125</ele>
        <time>2018-09-02T08:21:22.000Z</time>
      </trkpt>
      <trkpt lat="43.33568754605948925018310546875" lon="-1.8708493374288082122802734375">
        <ele>224</ele>
        <time>2018-09-02T08:21:24.000Z</time>
      </trkpt>
      <trkpt lat="43.33567832596600055694580078125" lon="-1.87094966880977153778076171875">
        <ele>224.8000030517578125</ele>
        <time>2018-09-02T08:21:28.000Z</time>
      </trkpt>
      <trkpt lat="43.33566491492092609405517578125" lon="-1.87101303599774837493896484375">
        <ele>225</ele>
        <time>2018-09-02T08:21:31.000Z</time>
      </trkpt>
      <trkpt lat="43.33564848639070987701416015625" lon="-1.871138848364353179931640625">
        <ele>226</ele>
        <time>2018-09-02T08:21:36.000Z</time>
      </trkpt>
      <trkpt lat="43.33563826046884059906005859375" lon="-1.87119073234498500823974609375">
        <ele>226.399993896484375</ele>
        <time>2018-09-02T08:21:38.000Z</time>
      </trkpt>
      <trkpt lat="43.33562132902443408966064453125" lon="-1.8713368289172649383544921875">
        <ele>227</ele>
        <time>2018-09-02T08:21:43.000Z</time>
      </trkpt>
      <trkpt lat="43.3355909027159214019775390625" lon="-1.871530450880527496337890625">
        <ele>227.8000030517578125</ele>
        <time>2018-09-02T08:21:49.000Z</time>
      </trkpt>
      <trkpt lat="43.33557807840406894683837890625" lon="-1.87164788134396076202392578125">
        <ele>228.1999969482421875</ele>
        <time>2018-09-02T08:21:53.000Z</time>
      </trkpt>
      <trkpt lat="43.33557489328086376190185546875" lon="-1.87170806340873241424560546875">
        <ele>228.600006103515625</ele>
        <time>2018-09-02T08:21:55.000Z</time>
      </trkpt>
      <trkpt lat="43.3355764858424663543701171875" lon="-1.87185759656131267547607421875">
        <ele>229.1999969482421875</ele>
        <time>2018-09-02T08:22:00.000Z</time>
      </trkpt>
      <trkpt lat="43.3355835266411304473876953125" lon="-1.87193445861339569091796875">
        <ele>229.399993896484375</ele>
        <time>2018-09-02T08:22:03.000Z</time>
      </trkpt>
      <trkpt lat="43.33559811115264892578125" lon="-1.87203613109886646270751953125">
        <ele>230.1999969482421875</ele>
        <time>2018-09-02T08:22:07.000Z</time>
      </trkpt>
      <trkpt lat="43.33561730571091175079345703125" lon="-1.87214258126914501190185546875">
        <ele>230.8000030517578125</ele>
        <time>2018-09-02T08:22:11.000Z</time>
      </trkpt>
      <trkpt lat="43.33566307090222835540771484375" lon="-1.8722655437886714935302734375">
        <ele>231.399993896484375</ele>
        <time>2018-09-02T08:22:16.000Z</time>
      </trkpt>
      <trkpt lat="43.3356713689863681793212890625" lon="-1.87228540889918804168701171875">
        <ele>231.8000030517578125</ele>
        <time>2018-09-02T08:22:17.000Z</time>
      </trkpt>
      <trkpt lat="43.33571269176900386810302734375" lon="-1.8724147416651248931884765625">
        <ele>232.600006103515625</ele>
        <time>2018-09-02T08:22:23.000Z</time>
      </trkpt>
      <trkpt lat="43.33571621216833591461181640625" lon="-1.87243946827948093414306640625">
        <ele>233</ele>
        <time>2018-09-02T08:22:24.000Z</time>
      </trkpt>
      <trkpt lat="43.3357310481369495391845703125" lon="-1.87251490540802478790283203125">
        <ele>233.600006103515625</ele>
        <time>2018-09-02T08:22:27.000Z</time>
      </trkpt>
      <trkpt lat="43.3357488177716732025146484375" lon="-1.8726123869419097900390625">
        <ele>234.399993896484375</ele>
        <time>2018-09-02T08:22:31.000Z</time>
      </trkpt>
      <trkpt lat="43.335729539394378662109375" lon="-1.87273467890918254852294921875">
        <ele>234.600006103515625</ele>
        <time>2018-09-02T08:22:36.000Z</time>
      </trkpt>
      <trkpt lat="43.33572107367217540740966796875" lon="-1.8727530352771282196044921875">
        <ele>234.600006103515625</ele>
        <time>2018-09-02T08:22:37.000Z</time>
      </trkpt>
      <trkpt lat="43.33566960878670215606689453125" lon="-1.87282771803438663482666015625">
        <ele>235.1999969482421875</ele>
        <time>2018-09-02T08:22:42.000Z</time>
      </trkpt>
      <trkpt lat="43.33563121967017650604248046875" lon="-1.87287868000566959381103515625">
        <ele>235.600006103515625</ele>
        <time>2018-09-02T08:22:46.000Z</time>
      </trkpt>
      <trkpt lat="43.33560272119939327239990234375" lon="-1.8729233555495738983154296875">
        <ele>236.1999969482421875</ele>
        <time>2018-09-02T08:22:49.000Z</time>
      </trkpt>
      <trkpt lat="43.3355862088501453399658203125" lon="-1.872950680553913116455078125">
        <ele>236.399993896484375</ele>
        <time>2018-09-02T08:22:50.000Z</time>
      </trkpt>
      <trkpt lat="43.3355563692748546600341796875" lon="-1.87298747710883617401123046875">
        <ele>236.8000030517578125</ele>
        <time>2018-09-02T08:22:52.000Z</time>
      </trkpt>
      <trkpt lat="43.33551135845482349395751953125" lon="-1.87305151484906673431396484375">
        <ele>237.1999969482421875</ele>
        <time>2018-09-02T08:22:55.000Z</time>
      </trkpt>
      <trkpt lat="43.335442207753658294677734375" lon="-1.873147487640380859375">
        <ele>237.8000030517578125</ele>
        <time>2018-09-02T08:23:00.000Z</time>
      </trkpt>
      <trkpt lat="43.3354145474731922149658203125" lon="-1.87317632138729095458984375">
        <ele>238.1999969482421875</ele>
        <time>2018-09-02T08:23:02.000Z</time>
      </trkpt>
      <trkpt lat="43.33539954386651515960693359375" lon="-1.8731939233839511871337890625">
        <ele>238.1999969482421875</ele>
        <time>2018-09-02T08:23:03.000Z</time>
      </trkpt>
      <trkpt lat="43.335298709571361541748046875" lon="-1.87330733053386211395263671875">
        <ele>239</ele>
        <time>2018-09-02T08:23:10.000Z</time>
      </trkpt>
      <trkpt lat="43.33525470457971096038818359375" lon="-1.873377151787281036376953125">
        <ele>240</ele>
        <time>2018-09-02T08:23:13.000Z</time>
      </trkpt>
      <trkpt lat="43.335240371525287628173828125" lon="-1.87340673990547657012939453125">
        <ele>240.1999969482421875</ele>
        <time>2018-09-02T08:23:14.000Z</time>
      </trkpt>
      <trkpt lat="43.33519334904849529266357421875" lon="-1.87350346706807613372802734375">
        <ele>240.600006103515625</ele>
        <time>2018-09-02T08:23:18.000Z</time>
      </trkpt>
      <trkpt lat="43.3351701311767101287841796875" lon="-1.87355048954486846923828125">
        <ele>241.1999969482421875</ele>
        <time>2018-09-02T08:23:20.000Z</time>
      </trkpt>
      <trkpt lat="43.33510399796068668365478515625" lon="-1.873733215034008026123046875">
        <ele>241.8000030517578125</ele>
        <time>2018-09-02T08:23:27.000Z</time>
      </trkpt>
      <trkpt lat="43.33507901988923549652099609375" lon="-1.87385081313550472259521484375">
        <ele>241.8000030517578125</ele>
        <time>2018-09-02T08:23:31.000Z</time>
      </trkpt>
      <trkpt lat="43.3350655250251293182373046875" lon="-1.873900853097438812255859375">
        <ele>242</ele>
        <time>2018-09-02T08:23:33.000Z</time>
      </trkpt>
      <trkpt lat="43.3350641839206218719482421875" lon="-1.87394904904067516326904296875">
        <ele>242.1999969482421875</ele>
        <time>2018-09-02T08:23:35.000Z</time>
      </trkpt>
      <trkpt lat="43.3350683748722076416015625" lon="-1.87403261661529541015625">
        <ele>242.8000030517578125</ele>
        <time>2018-09-02T08:23:38.000Z</time>
      </trkpt>
      <trkpt lat="43.3350737392902374267578125" lon="-1.87406773678958415985107421875">
        <ele>242.8000030517578125</ele>
        <time>2018-09-02T08:23:39.000Z</time>
      </trkpt>
      <trkpt lat="43.33509880118072032928466796875" lon="-1.8741809763014316558837890625">
        <ele>243.399993896484375</ele>
        <time>2018-09-02T08:23:43.000Z</time>
      </trkpt>
      <trkpt lat="43.33512428216636180877685546875" lon="-1.87427158467471599578857421875">
        <ele>243.600006103515625</ele>
        <time>2018-09-02T08:23:46.000Z</time>
      </trkpt>
      <trkpt lat="43.3351708017289638519287109375" lon="-1.87443536706268787384033203125">
        <ele>244.399993896484375</ele>
        <time>2018-09-02T08:23:52.000Z</time>
      </trkpt>
      <trkpt lat="43.3351791836321353912353515625" lon="-1.8744844011962413787841796875">
        <ele>244.600006103515625</ele>
        <time>2018-09-02T08:23:54.000Z</time>
      </trkpt>
      <trkpt lat="43.335209190845489501953125" lon="-1.8746158294379711151123046875">
        <ele>245.8000030517578125</ele>
        <time>2018-09-02T08:24:00.000Z</time>
      </trkpt>
      <trkpt lat="43.33522670902311801910400390625" lon="-1.874790675938129425048828125">
        <ele>246.600006103515625</ele>
        <time>2018-09-02T08:24:08.000Z</time>
      </trkpt>
      <trkpt lat="43.3352314867079257965087890625" lon="-1.87483199872076511383056640625">
        <ele>246.8000030517578125</ele>
        <time>2018-09-02T08:24:10.000Z</time>
      </trkpt>
      <trkpt lat="43.3352432213723659515380859375" lon="-1.87489385716617107391357421875">
        <ele>247.1999969482421875</ele>
        <time>2018-09-02T08:24:13.000Z</time>
      </trkpt>
      <trkpt lat="43.33523911423981189727783203125" lon="-1.8749128840863704681396484375">
        <ele>247.399993896484375</ele>
        <time>2018-09-02T08:24:14.000Z</time>
      </trkpt>
      <trkpt lat="43.33524129353463649749755859375" lon="-1.87499075196683406829833984375">
        <ele>248</ele>
        <time>2018-09-02T08:24:18.000Z</time>
      </trkpt>
      <trkpt lat="43.3352562971413135528564453125" lon="-1.875122599303722381591796875">
        <ele>249</ele>
        <time>2018-09-02T08:24:24.000Z</time>
      </trkpt>
      <trkpt lat="43.3352601528167724609375" lon="-1.87516995705664157867431640625">
        <ele>249.1999969482421875</ele>
        <time>2018-09-02T08:24:26.000Z</time>
      </trkpt>
      <trkpt lat="43.33526727743446826934814453125" lon="-1.875321753323078155517578125">
        <ele>250</ele>
        <time>2018-09-02T08:24:33.000Z</time>
      </trkpt>
      <trkpt lat="43.335265181958675384521484375" lon="-1.87534430064260959625244140625">
        <ele>250.1999969482421875</ele>
        <time>2018-09-02T08:24:34.000Z</time>
      </trkpt>
      <trkpt lat="43.335279263556003570556640625" lon="-1.87551428563892841339111328125">
        <ele>250.8000030517578125</ele>
        <time>2018-09-02T08:24:41.000Z</time>
      </trkpt>
      <trkpt lat="43.335289321839809417724609375" lon="-1.8755867891013622283935546875">
        <ele>251.1999969482421875</ele>
        <time>2018-09-02T08:24:44.000Z</time>
      </trkpt>
      <trkpt lat="43.33527834154665470123291015625" lon="-1.8756528384983539581298828125">
        <ele>251.399993896484375</ele>
        <time>2018-09-02T08:24:47.000Z</time>
      </trkpt>
      <trkpt lat="43.33526861853897571563720703125" lon="-1.87570438720285892486572265625">
        <ele>252.1999969482421875</ele>
        <time>2018-09-02T08:24:49.000Z</time>
      </trkpt>
      <trkpt lat="43.3352552913129329681396484375" lon="-1.8758057244122028350830078125">
        <ele>252.600006103515625</ele>
        <time>2018-09-02T08:24:53.000Z</time>
      </trkpt>
      <trkpt lat="43.33522796630859375" lon="-1.8759867735207080841064453125">
        <ele>253.1999969482421875</ele>
        <time>2018-09-02T08:24:59.000Z</time>
      </trkpt>
      <trkpt lat="43.3352210931479930877685546875" lon="-1.87601678073406219482421875">
        <ele>253.399993896484375</ele>
        <time>2018-09-02T08:25:00.000Z</time>
      </trkpt>
      <trkpt lat="43.33516828715801239013671875" lon="-1.876218952238559722900390625">
        <ele>254.1999969482421875</ele>
        <time>2018-09-02T08:25:07.000Z</time>
      </trkpt>
      <trkpt lat="43.33515881560742855072021484375" lon="-1.8762446008622646331787109375">
        <ele>254.399993896484375</ele>
        <time>2018-09-02T08:25:08.000Z</time>
      </trkpt>
      <trkpt lat="43.3351275511085987091064453125" lon="-1.876334957778453826904296875">
        <ele>254.8000030517578125</ele>
        <time>2018-09-02T08:25:12.000Z</time>
      </trkpt>
      <trkpt lat="43.33511866629123687744140625" lon="-1.87634761445224285125732421875">
        <ele>254.8000030517578125</ele>
        <time>2018-09-02T08:25:13.000Z</time>
      </trkpt>
      <trkpt lat="43.33504079841077327728271484375" lon="-1.8765047751367092132568359375">
        <ele>255.1999969482421875</ele>
        <time>2018-09-02T08:25:19.000Z</time>
      </trkpt>
      <trkpt lat="43.33501137793064117431640625" lon="-1.87656797468662261962890625">
        <ele>255.600006103515625</ele>
        <time>2018-09-02T08:25:21.000Z</time>
      </trkpt>
      <trkpt lat="43.334964103996753692626953125" lon="-1.87667819671332836151123046875">
        <ele>256</ele>
        <time>2018-09-02T08:25:25.000Z</time>
      </trkpt>
      <trkpt lat="43.3349294029176235198974609375" lon="-1.87674491666257381439208984375">
        <ele>257</ele>
        <time>2018-09-02T08:25:27.000Z</time>
      </trkpt>
      <trkpt lat="43.33487969823181629180908203125" lon="-1.87685572542250156402587890625">
        <ele>254.600006103515625</ele>
        <time>2018-09-02T08:25:31.000Z</time>
      </trkpt>
      <trkpt lat="43.33486410789191722869873046875" lon="-1.87688657082617282867431640625">
        <ele>255</ele>
        <time>2018-09-02T08:25:32.000Z</time>
      </trkpt>
      <trkpt lat="43.33483560942113399505615234375" lon="-1.876957230269908905029296875">
        <ele>256.600006103515625</ele>
        <time>2018-09-02T08:25:34.000Z</time>
      </trkpt>
      <trkpt lat="43.33478632383048534393310546875" lon="-1.87709896825253963470458984375">
        <ele>256.20001220703125</ele>
        <time>2018-09-02T08:25:38.000Z</time>
      </trkpt>
      <trkpt lat="43.33467048592865467071533203125" lon="-1.87731119804084300994873046875">
        <ele>256.20001220703125</ele>
        <time>2018-09-02T08:25:43.000Z</time>
      </trkpt>
      <trkpt lat="43.33458767272531986236572265625" lon="-1.87754941172897815704345703125">
        <ele>257</ele>
        <time>2018-09-02T08:25:49.000Z</time>
      </trkpt>
      <trkpt lat="43.33454710431396961212158203125" lon="-1.8777895532548427581787109375">
        <ele>256.399993896484375</ele>
        <time>2018-09-02T08:25:54.000Z</time>
      </trkpt>
      <trkpt lat="43.33454023115336894989013671875" lon="-1.87784311361610889434814453125">
        <ele>256.20001220703125</ele>
        <time>2018-09-02T08:25:55.000Z</time>
      </trkpt>
      <trkpt lat="43.3345317654311656951904296875" lon="-1.87804444693028926849365234375">
        <ele>256.79998779296875</ele>
        <time>2018-09-02T08:25:59.000Z</time>
      </trkpt>
      <trkpt lat="43.33449630998075008392333984375" lon="-1.87832741998136043548583984375">
        <ele>257.399993896484375</ele>
        <time>2018-09-02T08:26:06.000Z</time>
      </trkpt>
      <trkpt lat="43.33445976488292217254638671875" lon="-1.87850654125213623046875">
        <ele>257.600006103515625</ele>
        <time>2018-09-02T08:26:10.000Z</time>
      </trkpt>
      <trkpt lat="43.334412239491939544677734375" lon="-1.87868096865713596343994140625">
        <ele>257.399993896484375</ele>
        <time>2018-09-02T08:26:14.000Z</time>
      </trkpt>
      <trkpt lat="43.334347195923328399658203125" lon="-1.87891214154660701751708984375">
        <ele>256.600006103515625</ele>
        <time>2018-09-02T08:26:19.000Z</time>
      </trkpt>
      <trkpt lat="43.33433101885020732879638671875" lon="-1.87895975075662136077880859375">
        <ele>256.399993896484375</ele>
        <time>2018-09-02T08:26:20.000Z</time>
      </trkpt>
      <trkpt lat="43.33428910933434963226318359375" lon="-1.87905706465244293212890625">
        <ele>256.20001220703125</ele>
        <time>2018-09-02T08:26:22.000Z</time>
      </trkpt>
      <trkpt lat="43.33421585150063037872314453125" lon="-1.87922009266912937164306640625">
        <ele>255.399993896484375</ele>
        <time>2018-09-02T08:26:25.000Z</time>
      </trkpt>
      <trkpt lat="43.33418584428727626800537109375" lon="-1.87927893362939357757568359375">
        <ele>255.399993896484375</ele>
        <time>2018-09-02T08:26:26.000Z</time>
      </trkpt>
      <trkpt lat="43.33408291451632976531982421875" lon="-1.87945947982370853424072265625">
        <ele>255</ele>
        <time>2018-09-02T08:26:29.000Z</time>
      </trkpt>
      <trkpt lat="43.3340516500174999237060546875" lon="-1.87950356863439083099365234375">
        <ele>254.8000030517578125</ele>
        <time>2018-09-02T08:26:30.000Z</time>
      </trkpt>
      <trkpt lat="43.33398140966892242431640625" lon="-1.8795980326831340789794921875">
        <ele>254.1999969482421875</ele>
        <time>2018-09-02T08:26:32.000Z</time>
      </trkpt>
      <trkpt lat="43.33383967168629169464111328125" lon="-1.87981068156659603118896484375">
        <ele>253</ele>
        <time>2018-09-02T08:26:36.000Z</time>
      </trkpt>
      <trkpt lat="43.33379231393337249755859375" lon="-1.879887878894805908203125">
        <ele>252.1999969482421875</ele>
        <time>2018-09-02T08:26:37.000Z</time>
      </trkpt>
      <trkpt lat="43.333747051656246185302734375" lon="-1.879977397620677947998046875">
        <ele>251.399993896484375</ele>
        <time>2018-09-02T08:26:38.000Z</time>
      </trkpt>
      <trkpt lat="43.33364185877144336700439453125" lon="-1.8803074769675731658935546875">
        <ele>250</ele>
        <time>2018-09-02T08:26:41.000Z</time>
      </trkpt>
      <trkpt lat="43.3336221612989902496337890625" lon="-1.88041233457624912261962890625">
        <ele>249.600006103515625</ele>
        <time>2018-09-02T08:26:42.000Z</time>
      </trkpt>
      <trkpt lat="43.33357815630733966827392578125" lon="-1.880662031471729278564453125">
        <ele>248.8000030517578125</ele>
        <time>2018-09-02T08:26:45.000Z</time>
      </trkpt>
      <trkpt lat="43.33356759510934352874755859375" lon="-1.88074409030377864837646484375">
        <ele>248.8000030517578125</ele>
        <time>2018-09-02T08:26:46.000Z</time>
      </trkpt>
      <trkpt lat="43.333567343652248382568359375" lon="-1.8808274902403354644775390625">
        <ele>248</ele>
        <time>2018-09-02T08:26:47.000Z</time>
      </trkpt>
      <trkpt lat="43.33356927148997783660888671875" lon="-1.88090049661695957183837890625">
        <ele>247.399993896484375</ele>
        <time>2018-09-02T08:26:48.000Z</time>
      </trkpt>
      <trkpt lat="43.3335661701858043670654296875" lon="-1.880961768329143524169921875">
        <ele>246.1999969482421875</ele>
        <time>2018-09-02T08:26:49.000Z</time>
      </trkpt>
      <trkpt lat="43.333562314510345458984375" lon="-1.881112642586231231689453125">
        <ele>245.1999969482421875</ele>
        <time>2018-09-02T08:26:52.000Z</time>
      </trkpt>
      <trkpt lat="43.3335529267787933349609375" lon="-1.88122152350842952728271484375">
        <ele>244.1999969482421875</ele>
        <time>2018-09-02T08:26:54.000Z</time>
      </trkpt>
      <trkpt lat="43.3335467241704463958740234375" lon="-1.88128857873380184173583984375">
        <ele>243.600006103515625</ele>
        <time>2018-09-02T08:26:55.000Z</time>
      </trkpt>
      <trkpt lat="43.33353758789598941802978515625" lon="-1.88143308274447917938232421875">
        <ele>242.399993896484375</ele>
        <time>2018-09-02T08:26:57.000Z</time>
      </trkpt>
      <trkpt lat="43.333525098860263824462890625" lon="-1.88158462755382061004638671875">
        <ele>241</ele>
        <time>2018-09-02T08:26:59.000Z</time>
      </trkpt>
      <trkpt lat="43.33351763896644115447998046875" lon="-1.88165620900690555572509765625">
        <ele>240.399993896484375</ele>
        <time>2018-09-02T08:27:00.000Z</time>
      </trkpt>
      <trkpt lat="43.3335071615874767303466796875" lon="-1.88172561116516590118408203125">
        <ele>240</ele>
        <time>2018-09-02T08:27:01.000Z</time>
      </trkpt>
      <trkpt lat="43.33348654210567474365234375" lon="-1.88186206854879856109619140625">
        <ele>238.8000030517578125</ele>
        <time>2018-09-02T08:27:03.000Z</time>
      </trkpt>
      <trkpt lat="43.333455361425876617431640625" lon="-1.8819982744753360748291015625">
        <ele>237.8000030517578125</ele>
        <time>2018-09-02T08:27:05.000Z</time>
      </trkpt>
      <trkpt lat="43.333419151604175567626953125" lon="-1.8821558542549610137939453125">
        <ele>236.600006103515625</ele>
        <time>2018-09-02T08:27:07.000Z</time>
      </trkpt>
      <trkpt lat="43.33339375443756580352783203125" lon="-1.8823164515197277069091796875">
        <ele>235.600006103515625</ele>
        <time>2018-09-02T08:27:09.000Z</time>
      </trkpt>
      <trkpt lat="43.3333814330399036407470703125" lon="-1.882472522556781768798828125">
        <ele>234.399993896484375</ele>
        <time>2018-09-02T08:27:11.000Z</time>
      </trkpt>
      <trkpt lat="43.333373554050922393798828125" lon="-1.88260822556912899017333984375">
        <ele>233.600006103515625</ele>
        <time>2018-09-02T08:27:13.000Z</time>
      </trkpt>
      <trkpt lat="43.33336391486227512359619140625" lon="-1.88266773708164691925048828125">
        <ele>233</ele>
        <time>2018-09-02T08:27:14.000Z</time>
      </trkpt>
      <trkpt lat="43.33333591930568218231201171875" lon="-1.88280142843723297119140625">
        <ele>231.600006103515625</ele>
        <time>2018-09-02T08:27:16.000Z</time>
      </trkpt>
      <trkpt lat="43.3332996256649494171142578125" lon="-1.88296772539615631103515625">
        <ele>230.600006103515625</ele>
        <time>2018-09-02T08:27:18.000Z</time>
      </trkpt>
      <trkpt lat="43.33327674306929111480712890625" lon="-1.88305313698947429656982421875">
        <ele>230</ele>
        <time>2018-09-02T08:27:19.000Z</time>
      </trkpt>
      <trkpt lat="43.33325444720685482025146484375" lon="-1.883127652108669281005859375">
        <ele>229.600006103515625</ele>
        <time>2018-09-02T08:27:20.000Z</time>
      </trkpt>
      <trkpt lat="43.33319409750401973724365234375" lon="-1.88331968151032924652099609375">
        <ele>228.1999969482421875</ele>
        <time>2018-09-02T08:27:23.000Z</time>
      </trkpt>
      <trkpt lat="43.33312201313674449920654296875" lon="-1.88350207172334194183349609375">
        <ele>227</ele>
        <time>2018-09-02T08:27:26.000Z</time>
      </trkpt>
      <trkpt lat="43.3331011421978473663330078125" lon="-1.88358052633702754974365234375">
        <ele>226</ele>
        <time>2018-09-02T08:27:27.000Z</time>
      </trkpt>
      <trkpt lat="43.33307557739317417144775390625" lon="-1.8836605735123157501220703125">
        <ele>225.399993896484375</ele>
        <time>2018-09-02T08:27:28.000Z</time>
      </trkpt>
      <trkpt lat="43.33301925100386142730712890625" lon="-1.883813627064228057861328125">
        <ele>224.399993896484375</ele>
        <time>2018-09-02T08:27:30.000Z</time>
      </trkpt>
      <trkpt lat="43.332985974848270416259765625" lon="-1.88388411886990070343017578125">
        <ele>224</ele>
        <time>2018-09-02T08:27:31.000Z</time>
      </trkpt>
      <trkpt lat="43.33292135037481784820556640625" lon="-1.88401554711163043975830078125">
        <ele>223</ele>
        <time>2018-09-02T08:27:33.000Z</time>
      </trkpt>
      <trkpt lat="43.3328314125537872314453125" lon="-1.88419190235435962677001953125">
        <ele>221.399993896484375</ele>
        <time>2018-09-02T08:27:36.000Z</time>
      </trkpt>
      <trkpt lat="43.3328040875494480133056640625" lon="-1.88425929285585880279541015625">
        <ele>220.1999969482421875</ele>
        <time>2018-09-02T08:27:37.000Z</time>
      </trkpt>
      <trkpt lat="43.3327769301831722259521484375" lon="-1.88433288596570491790771484375">
        <ele>219.8000030517578125</ele>
        <time>2018-09-02T08:27:38.000Z</time>
      </trkpt>
      <trkpt lat="43.33271884359419345855712890625" lon="-1.88448945991694927215576171875">
        <ele>219</ele>
        <time>2018-09-02T08:27:40.000Z</time>
      </trkpt>
      <trkpt lat="43.3326666243374347686767578125" lon="-1.884638406336307525634765625">
        <ele>217.600006103515625</ele>
        <time>2018-09-02T08:27:42.000Z</time>
      </trkpt>
      <trkpt lat="43.33264541812241077423095703125" lon="-1.88471526838839054107666015625">
        <ele>217.1999969482421875</ele>
        <time>2018-09-02T08:27:43.000Z</time>
      </trkpt>
      <trkpt lat="43.332630582153797149658203125" lon="-1.88478768803179264068603515625">
        <ele>216.600006103515625</ele>
        <time>2018-09-02T08:27:44.000Z</time>
      </trkpt>
      <trkpt lat="43.33261616528034210205078125" lon="-1.884870417416095733642578125">
        <ele>216.399993896484375</ele>
        <time>2018-09-02T08:27:45.000Z</time>
      </trkpt>
      <trkpt lat="43.3325982280075550079345703125" lon="-1.88503746874630451202392578125">
        <ele>215</ele>
        <time>2018-09-02T08:27:47.000Z</time>
      </trkpt>
      <trkpt lat="43.3325898461043834686279296875" lon="-1.8851901032030582427978515625">
        <ele>213.8000030517578125</ele>
        <time>2018-09-02T08:27:49.000Z</time>
      </trkpt>
      <trkpt lat="43.33258423022925853729248046875" lon="-1.88526076264679431915283203125">
        <ele>213.399993896484375</ele>
        <time>2018-09-02T08:27:50.000Z</time>
      </trkpt>
      <trkpt lat="43.332585655152797698974609375" lon="-1.88533904962241649627685546875">
        <ele>212.600006103515625</ele>
        <time>2018-09-02T08:27:51.000Z</time>
      </trkpt>
      <trkpt lat="43.33262379281222820281982421875" lon="-1.8856152333319187164306640625">
        <ele>211.399993896484375</ele>
        <time>2018-09-02T08:27:55.000Z</time>
      </trkpt>
      <trkpt lat="43.3326444961130619049072265625" lon="-1.88579888083040714263916015625">
        <ele>210</ele>
        <time>2018-09-02T08:27:58.000Z</time>
      </trkpt>
      <trkpt lat="43.33264776505529880523681640625" lon="-1.885869204998016357421875">
        <ele>209.399993896484375</ele>
        <time>2018-09-02T08:27:59.000Z</time>
      </trkpt>
      <trkpt lat="43.3326465077698230743408203125" lon="-1.88599853776395320892333984375">
        <ele>208.399993896484375</ele>
        <time>2018-09-02T08:28:01.000Z</time>
      </trkpt>
      <trkpt lat="43.332621194422245025634765625" lon="-1.88613097183406352996826171875">
        <ele>207.600006103515625</ele>
        <time>2018-09-02T08:28:03.000Z</time>
      </trkpt>
      <trkpt lat="43.3326049335300922393798828125" lon="-1.886202804744243621826171875">
        <ele>207.1999969482421875</ele>
        <time>2018-09-02T08:28:04.000Z</time>
      </trkpt>
      <trkpt lat="43.33259378559887409210205078125" lon="-1.88628293573856353759765625">
        <ele>206.600006103515625</ele>
        <time>2018-09-02T08:28:05.000Z</time>
      </trkpt>
      <trkpt lat="43.33257651887834072113037109375" lon="-1.88645719550549983978271484375">
        <ele>205.8000030517578125</ele>
        <time>2018-09-02T08:28:07.000Z</time>
      </trkpt>
      <trkpt lat="43.33255975507199764251708984375" lon="-1.8866284377872943878173828125">
        <ele>204.399993896484375</ele>
        <time>2018-09-02T08:28:09.000Z</time>
      </trkpt>
      <trkpt lat="43.33253410644829273223876953125" lon="-1.8867977522313594818115234375">
        <ele>203.399993896484375</ele>
        <time>2018-09-02T08:28:11.000Z</time>
      </trkpt>
      <trkpt lat="43.33252429962158203125" lon="-1.88688534311950206756591796875">
        <ele>203.399993896484375</ele>
        <time>2018-09-02T08:28:12.000Z</time>
      </trkpt>
      <trkpt lat="43.3325117267668247222900390625" lon="-1.8869769573211669921875">
        <ele>202.8000030517578125</ele>
        <time>2018-09-02T08:28:13.000Z</time>
      </trkpt>
      <trkpt lat="43.33249236457049846649169921875" lon="-1.8870649673044681549072265625">
        <ele>202.1999969482421875</ele>
        <time>2018-09-02T08:28:14.000Z</time>
      </trkpt>
      <trkpt lat="43.3324248902499675750732421875" lon="-1.88721240498125553131103515625">
        <ele>201</ele>
        <time>2018-09-02T08:28:16.000Z</time>
      </trkpt>
      <trkpt lat="43.33238541148602962493896484375" lon="-1.887267641723155975341796875">
        <ele>200.399993896484375</ele>
        <time>2018-09-02T08:28:17.000Z</time>
      </trkpt>
      <trkpt lat="43.3323430828750133514404296875" lon="-1.88732095062732696533203125">
        <ele>200.1999969482421875</ele>
        <time>2018-09-02T08:28:18.000Z</time>
      </trkpt>
      <trkpt lat="43.332298658788204193115234375" lon="-1.88737266696989536285400390625">
        <ele>199.8000030517578125</ele>
        <time>2018-09-02T08:28:19.000Z</time>
      </trkpt>
      <trkpt lat="43.33216060884296894073486328125" lon="-1.88750493340194225311279296875">
        <ele>198.399993896484375</ele>
        <time>2018-09-02T08:28:22.000Z</time>
      </trkpt>
      <trkpt lat="43.332111574709415435791015625" lon="-1.887553632259368896484375">
        <ele>198.1999969482421875</ele>
        <time>2018-09-02T08:28:23.000Z</time>
      </trkpt>
      <trkpt lat="43.33195039071142673492431640625" lon="-1.8876998126506805419921875">
        <ele>197.399993896484375</ele>
        <time>2018-09-02T08:28:26.000Z</time>
      </trkpt>
      <trkpt lat="43.33190076984465122222900390625" lon="-1.88774666748940944671630859375">
        <ele>197.399993896484375</ele>
        <time>2018-09-02T08:28:27.000Z</time>
      </trkpt>
      <trkpt lat="43.3318140171468257904052734375" lon="-1.88783702440559864044189453125">
        <ele>197.1999969482421875</ele>
        <time>2018-09-02T08:28:29.000Z</time>
      </trkpt>
      <trkpt lat="43.3316244184970855712890625" lon="-1.8880251981317996978759765625">
        <ele>196.8000030517578125</ele>
        <time>2018-09-02T08:28:34.000Z</time>
      </trkpt>
      <trkpt lat="43.3314820937812328338623046875" lon="-1.8882085941731929779052734375">
        <ele>196.600006103515625</ele>
        <time>2018-09-02T08:28:39.000Z</time>
      </trkpt>
      <trkpt lat="43.33146683871746063232421875" lon="-1.888245977461338043212890625">
        <ele>196.600006103515625</ele>
        <time>2018-09-02T08:28:40.000Z</time>
      </trkpt>
      <trkpt lat="43.33144412375986576080322265625" lon="-1.88834421336650848388671875">
        <ele>196.600006103515625</ele>
        <time>2018-09-02T08:28:43.000Z</time>
      </trkpt>
      <trkpt lat="43.3314244262874126434326171875" lon="-1.8884749710559844970703125">
        <ele>196.8000030517578125</ele>
        <time>2018-09-02T08:28:46.000Z</time>
      </trkpt>
      <trkpt lat="43.331396095454692840576171875" lon="-1.888556443154811859130859375">
        <ele>197</ele>
        <time>2018-09-02T08:28:48.000Z</time>
      </trkpt>
      <trkpt lat="43.33138880319893360137939453125" lon="-1.88859525136649608612060546875">
        <ele>197.1999969482421875</ele>
        <time>2018-09-02T08:28:49.000Z</time>
      </trkpt>
      <trkpt lat="43.33133918233215808868408203125" lon="-1.888836063444614410400390625">
        <ele>197.600006103515625</ele>
        <time>2018-09-02T08:28:55.000Z</time>
      </trkpt>
      <trkpt lat="43.33132660947740077972412109375" lon="-1.888875626027584075927734375">
        <ele>197.600006103515625</ele>
        <time>2018-09-02T08:28:56.000Z</time>
      </trkpt>
      <trkpt lat="43.3312732167541980743408203125" lon="-1.88904561102390289306640625">
        <ele>198</ele>
        <time>2018-09-02T08:29:01.000Z</time>
      </trkpt>
      <trkpt lat="43.33126642741262912750244140625" lon="-1.88907033763825893402099609375">
        <ele>198</ele>
        <time>2018-09-02T08:29:02.000Z</time>
      </trkpt>
      <trkpt lat="43.331217728555202484130859375" lon="-1.8891674838960170745849609375">
        <ele>198</ele>
        <time>2018-09-02T08:29:05.000Z</time>
      </trkpt>
      <trkpt lat="43.33119216375052928924560546875" lon="-1.88924786634743213653564453125">
        <ele>198.1999969482421875</ele>
        <time>2018-09-02T08:29:07.000Z</time>
      </trkpt>
      <trkpt lat="43.3311830274760723114013671875" lon="-1.889287345111370086669921875">
        <ele>198.1999969482421875</ele>
        <time>2018-09-02T08:29:08.000Z</time>
      </trkpt>
      <trkpt lat="43.33116869442164897918701171875" lon="-1.88933319412171840667724609375">
        <ele>198.399993896484375</ele>
        <time>2018-09-02T08:29:09.000Z</time>
      </trkpt>
      <trkpt lat="43.33113416098058223724365234375" lon="-1.88946135342121124267578125">
        <ele>198.8000030517578125</ele>
        <time>2018-09-02T08:29:12.000Z</time>
      </trkpt>
      <trkpt lat="43.33110147155821323394775390625" lon="-1.88960744999349117279052734375">
        <ele>199.399993896484375</ele>
        <time>2018-09-02T08:29:15.000Z</time>
      </trkpt>
      <trkpt lat="43.331087641417980194091796875" lon="-1.88965715467929840087890625">
        <ele>199.399993896484375</ele>
        <time>2018-09-02T08:29:16.000Z</time>
      </trkpt>
      <trkpt lat="43.3310153894126415252685546875" lon="-1.88995848409831523895263671875">
        <ele>200.1999969482421875</ele>
        <time>2018-09-02T08:29:23.000Z</time>
      </trkpt>
      <trkpt lat="43.33097859285771846771240234375" lon="-1.89011824317276477813720703125">
        <ele>200.399993896484375</ele>
        <time>2018-09-02T08:29:27.000Z</time>
      </trkpt>
      <trkpt lat="43.33096602000296115875244140625" lon="-1.89017456956207752227783203125">
        <ele>200.600006103515625</ele>
        <time>2018-09-02T08:29:28.000Z</time>
      </trkpt>
      <trkpt lat="43.3309422992169857025146484375" lon="-1.8902819417417049407958984375">
        <ele>200.8000030517578125</ele>
        <time>2018-09-02T08:29:30.000Z</time>
      </trkpt>
      <trkpt lat="43.330893851816654205322265625" lon="-1.890495009720325469970703125">
        <ele>201.399993896484375</ele>
        <time>2018-09-02T08:29:36.000Z</time>
      </trkpt>
      <trkpt lat="43.330836854875087738037109375" lon="-1.8906287848949432373046875">
        <ele>201.1999969482421875</ele>
        <time>2018-09-02T08:29:39.000Z</time>
      </trkpt>
      <trkpt lat="43.330831490457057952880859375" lon="-1.8907526694238185882568359375">
        <ele>201.399993896484375</ele>
        <time>2018-09-02T08:29:42.000Z</time>
      </trkpt>
      <trkpt lat="43.3308653533458709716796875" lon="-1.8910631351172924041748046875">
        <ele>201.399993896484375</ele>
        <time>2018-09-02T08:29:47.000Z</time>
      </trkpt>
      <trkpt lat="43.33091036416590213775634765625" lon="-1.8914047814905643463134765625">
        <ele>201.600006103515625</ele>
        <time>2018-09-02T08:29:52.000Z</time>
      </trkpt>
      <trkpt lat="43.3309297263622283935546875" lon="-1.8914658017456531524658203125">
        <ele>201.600006103515625</ele>
        <time>2018-09-02T08:29:53.000Z</time>
      </trkpt>
      <trkpt lat="43.3309821970760822296142578125" lon="-1.89159370958805084228515625">
        <ele>201.1999969482421875</ele>
        <time>2018-09-02T08:29:56.000Z</time>
      </trkpt>
      <trkpt lat="43.3310043253004550933837890625" lon="-1.89162514172494411468505859375">
        <ele>201.1999969482421875</ele>
        <time>2018-09-02T08:29:57.000Z</time>
      </trkpt>
      <trkpt lat="43.33108169026672840118408203125" lon="-1.8917794525623321533203125">
        <ele>201.1999969482421875</ele>
        <time>2018-09-02T08:30:01.000Z</time>
      </trkpt>
      <trkpt lat="43.331101723015308380126953125" lon="-1.8918285705149173736572265625">
        <ele>201</ele>
        <time>2018-09-02T08:30:02.000Z</time>
      </trkpt>
      <trkpt lat="43.3311568759381771087646484375" lon="-1.8919583223760128021240234375">
        <ele>201</ele>
        <time>2018-09-02T08:30:06.000Z</time>
      </trkpt>
      <trkpt lat="43.33116710186004638671875" lon="-1.8919884972274303436279296875">
        <ele>201</ele>
        <time>2018-09-02T08:30:07.000Z</time>
      </trkpt>
      <trkpt lat="43.3311907388269901275634765625" lon="-1.8920619226992130279541015625">
        <ele>201.399993896484375</ele>
        <time>2018-09-02T08:30:09.000Z</time>
      </trkpt>
      <trkpt lat="43.33124019205570220947265625" lon="-1.89218186773359775543212890625">
        <ele>201</ele>
        <time>2018-09-02T08:30:12.000Z</time>
      </trkpt>
      <trkpt lat="43.3313422836363315582275390625" lon="-1.892379932105541229248046875">
        <ele>200.600006103515625</ele>
        <time>2018-09-02T08:30:17.000Z</time>
      </trkpt>
      <trkpt lat="43.3313857018947601318359375" lon="-1.89249501563608646392822265625">
        <ele>200.1999969482421875</ele>
        <time>2018-09-02T08:30:19.000Z</time>
      </trkpt>
      <trkpt lat="43.33140791393816471099853515625" lon="-1.8925879709422588348388671875">
        <ele>200.1999969482421875</ele>
        <time>2018-09-02T08:30:21.000Z</time>
      </trkpt>
      <trkpt lat="43.33142031915485858917236328125" lon="-1.89281587488949298858642578125">
        <ele>199.8000030517578125</ele>
        <time>2018-09-02T08:30:25.000Z</time>
      </trkpt>
      <trkpt lat="43.3314250968396663665771484375" lon="-1.89287404529750347137451171875">
        <ele>199.8000030517578125</ele>
        <time>2018-09-02T08:30:26.000Z</time>
      </trkpt>
      <trkpt lat="43.33142752759158611297607421875" lon="-1.89292852766811847686767578125">
        <ele>199.600006103515625</ele>
        <time>2018-09-02T08:30:27.000Z</time>
      </trkpt>
      <trkpt lat="43.33143456839025020599365234375" lon="-1.89298401586711406707763671875">
        <ele>199.399993896484375</ele>
        <time>2018-09-02T08:30:28.000Z</time>
      </trkpt>
      <trkpt lat="43.33146994002163410186767578125" lon="-1.8931656517088413238525390625">
        <ele>199.8000030517578125</ele>
        <time>2018-09-02T08:30:32.000Z</time>
      </trkpt>
      <trkpt lat="43.33148905076086521148681640625" lon="-1.8933802284300327301025390625">
        <ele>199.600006103515625</ele>
        <time>2018-09-02T08:30:37.000Z</time>
      </trkpt>
      <trkpt lat="43.331470191478729248046875" lon="-1.89373008906841278076171875">
        <ele>199.1999969482421875</ele>
        <time>2018-09-02T08:30:45.000Z</time>
      </trkpt>
      <trkpt lat="43.3314418606460094451904296875" lon="-1.8939721584320068359375">
        <ele>198.1999969482421875</ele>
        <time>2018-09-02T08:30:49.000Z</time>
      </trkpt>
      <trkpt lat="43.331429958343505859375" lon="-1.894113309681415557861328125">
        <ele>197.399993896484375</ele>
        <time>2018-09-02T08:30:51.000Z</time>
      </trkpt>
      <trkpt lat="43.33141445182263851165771484375" lon="-1.894251443445682525634765625">
        <ele>197</ele>
        <time>2018-09-02T08:30:53.000Z</time>
      </trkpt>
      <trkpt lat="43.3313986100256443023681640625" lon="-1.89431288279592990875244140625">
        <ele>196.600006103515625</ele>
        <time>2018-09-02T08:30:54.000Z</time>
      </trkpt>
      <trkpt lat="43.331360556185245513916015625" lon="-1.8944148905575275421142578125">
        <ele>196.600006103515625</ele>
        <time>2018-09-02T08:30:56.000Z</time>
      </trkpt>
      <trkpt lat="43.331266678869724273681640625" lon="-1.89466073177754878997802734375">
        <ele>196.600006103515625</ele>
        <time>2018-09-02T08:31:00.000Z</time>
      </trkpt>
      <trkpt lat="43.33125033415853977203369140625" lon="-1.894731223583221435546875">
        <ele>196.399993896484375</ele>
        <time>2018-09-02T08:31:01.000Z</time>
      </trkpt>
      <trkpt lat="43.331213034689426422119140625" lon="-1.8949278630316257476806640625">
        <ele>196.399993896484375</ele>
        <time>2018-09-02T08:31:04.000Z</time>
      </trkpt>
      <trkpt lat="43.33116651512682437896728515625" lon="-1.89518711529672145843505859375">
        <ele>196.1999969482421875</ele>
        <time>2018-09-02T08:31:08.000Z</time>
      </trkpt>
      <trkpt lat="43.33115545101463794708251953125" lon="-1.89525894820690155029296875">
        <ele>196</ele>
        <time>2018-09-02T08:31:09.000Z</time>
      </trkpt>
      <trkpt lat="43.331078588962554931640625" lon="-1.89557603560388088226318359375">
        <ele>195.600006103515625</ele>
        <time>2018-09-02T08:31:14.000Z</time>
      </trkpt>
      <trkpt lat="43.33100172691047191619873046875" lon="-1.895815171301364898681640625">
        <ele>194.600006103515625</ele>
        <time>2018-09-02T08:31:18.000Z</time>
      </trkpt>
      <trkpt lat="43.33093483932316303253173828125" lon="-1.89601474441587924957275390625">
        <ele>193.8000030517578125</ele>
        <time>2018-09-02T08:31:21.000Z</time>
      </trkpt>
      <trkpt lat="43.3308997191488742828369140625" lon="-1.89608498476445674896240234375">
        <ele>193.1999969482421875</ele>
        <time>2018-09-02T08:31:22.000Z</time>
      </trkpt>
      <trkpt lat="43.3308319933712482452392578125" lon="-1.89622278325259685516357421875">
        <ele>191.8000030517578125</ele>
        <time>2018-09-02T08:31:24.000Z</time>
      </trkpt>
      <trkpt lat="43.33077658899128437042236328125" lon="-1.8963740766048431396484375">
        <ele>191</ele>
        <time>2018-09-02T08:31:26.000Z</time>
      </trkpt>
      <trkpt lat="43.33074708469212055206298828125" lon="-1.89645060338079929351806640625">
        <ele>190.399993896484375</ele>
        <time>2018-09-02T08:31:27.000Z</time>
      </trkpt>
      <trkpt lat="43.3307071030139923095703125" lon="-1.89653090201318264007568359375">
        <ele>189.600006103515625</ele>
        <time>2018-09-02T08:31:28.000Z</time>
      </trkpt>
      <trkpt lat="43.33066276274621486663818359375" lon="-1.896605752408504486083984375">
        <ele>189</ele>
        <time>2018-09-02T08:31:29.000Z</time>
      </trkpt>
      <trkpt lat="43.3306224457919597625732421875" lon="-1.89668060280382633209228515625">
        <ele>188.1999969482421875</ele>
        <time>2018-09-02T08:31:30.000Z</time>
      </trkpt>
      <trkpt lat="43.33059034310281276702880859375" lon="-1.89677364192903041839599609375">
        <ele>187.1999969482421875</ele>
        <time>2018-09-02T08:31:31.000Z</time>
      </trkpt>
      <trkpt lat="43.330547176301479339599609375" lon="-1.89697648398578166961669921875">
        <ele>186.8000030517578125</ele>
        <time>2018-09-02T08:31:33.000Z</time>
      </trkpt>
      <trkpt lat="43.33053183741867542266845703125" lon="-1.897085867822170257568359375">
        <ele>186.8000030517578125</ele>
        <time>2018-09-02T08:31:34.000Z</time>
      </trkpt>
      <trkpt lat="43.3305248804390430450439453125" lon="-1.89729851670563220977783203125">
        <ele>186</ele>
        <time>2018-09-02T08:31:36.000Z</time>
      </trkpt>
      <trkpt lat="43.330531083047389984130859375" lon="-1.8973988480865955352783203125">
        <ele>185.8000030517578125</ele>
        <time>2018-09-02T08:31:37.000Z</time>
      </trkpt>
      <trkpt lat="43.33059470169246196746826171875" lon="-1.89764485694468021392822265625">
        <ele>185.600006103515625</ele>
        <time>2018-09-02T08:31:40.000Z</time>
      </trkpt>
      <trkpt lat="43.33062621764838695526123046875" lon="-1.89770369790494441986083984375">
        <ele>185.600006103515625</ele>
        <time>2018-09-02T08:31:41.000Z</time>
      </trkpt>
      <trkpt lat="43.330677263438701629638671875" lon="-1.89778600819408893585205078125">
        <ele>186</ele>
        <time>2018-09-02T08:31:43.000Z</time>
      </trkpt>
      <trkpt lat="43.330696709454059600830078125" lon="-1.89780612476170063018798828125">
        <ele>186.1999969482421875</ele>
        <time>2018-09-02T08:31:44.000Z</time>
      </trkpt>
      <trkpt lat="43.33077055402100086212158203125" lon="-1.897840239107608795166015625">
        <ele>186.600006103515625</ele>
        <time>2018-09-02T08:31:47.000Z</time>
      </trkpt>
      <trkpt lat="43.3308169059455394744873046875" lon="-1.89785943366587162017822265625">
        <ele>186.8000030517578125</ele>
        <time>2018-09-02T08:31:49.000Z</time>
      </trkpt>
      <trkpt lat="43.33083962090313434600830078125" lon="-1.89786831848323345184326171875">
        <ele>186.8000030517578125</ele>
        <time>2018-09-02T08:31:50.000Z</time>
      </trkpt>
      <trkpt lat="43.330860324203968048095703125" lon="-1.89787737093865871429443359375">
        <ele>187</ele>
        <time>2018-09-02T08:31:51.000Z</time>
      </trkpt>
      <trkpt lat="43.33088153041899204254150390625" lon="-1.8978896923363208770751953125">
        <ele>187.1999969482421875</ele>
        <time>2018-09-02T08:31:52.000Z</time>
      </trkpt>
      <trkpt lat="43.33094389177858829498291015625" lon="-1.8979423306882381439208984375">
        <ele>187.600006103515625</ele>
        <time>2018-09-02T08:31:55.000Z</time>
      </trkpt>
      <trkpt lat="43.3309899084270000457763671875" lon="-1.89796588383615016937255859375">
        <ele>187.600006103515625</ele>
        <time>2018-09-02T08:31:57.000Z</time>
      </trkpt>
      <trkpt lat="43.33106224425137042999267578125" lon="-1.89798650331795215606689453125">
        <ele>187.8000030517578125</ele>
        <time>2018-09-02T08:32:00.000Z</time>
      </trkpt>
      <trkpt lat="43.331108428537845611572265625" lon="-1.89798952080309391021728515625">
        <ele>188.1999969482421875</ele>
        <time>2018-09-02T08:32:02.000Z</time>
      </trkpt>
      <trkpt lat="43.33123214542865753173828125" lon="-1.89799371175467967987060546875">
        <ele>188.1999969482421875</ele>
        <time>2018-09-02T08:32:07.000Z</time>
      </trkpt>
      <trkpt lat="43.3313333988189697265625" lon="-1.8980147503316402435302734375">
        <ele>188.399993896484375</ele>
        <time>2018-09-02T08:32:11.000Z</time>
      </trkpt>
      <trkpt lat="43.33144512958824634552001953125" lon="-1.898125223815441131591796875">
        <ele>188</ele>
        <time>2018-09-02T08:32:15.000Z</time>
      </trkpt>
      <trkpt lat="43.33157437853515148162841796875" lon="-1.89836117438971996307373046875">
        <ele>188.399993896484375</ele>
        <time>2018-09-02T08:32:21.000Z</time>
      </trkpt>
      <trkpt lat="43.33170144818723201751708984375" lon="-1.89847919158637523651123046875">
        <ele>188.8000030517578125</ele>
        <time>2018-09-02T08:32:26.000Z</time>
      </trkpt>
      <trkpt lat="43.3318524062633514404296875" lon="-1.89854155294597148895263671875">
        <ele>188.399993896484375</ele>
        <time>2018-09-02T08:32:31.000Z</time>
      </trkpt>
      <trkpt lat="43.33192407153546810150146484375" lon="-1.89859335310757160186767578125">
        <ele>188</ele>
        <time>2018-09-02T08:32:33.000Z</time>
      </trkpt>
      <trkpt lat="43.33197972737252712249755859375" lon="-1.89867566339671611785888671875">
        <ele>187.600006103515625</ele>
        <time>2018-09-02T08:32:35.000Z</time>
      </trkpt>
      <trkpt lat="43.33201744593679904937744140625" lon="-1.898771636188030242919921875">
        <ele>187.399993896484375</ele>
        <time>2018-09-02T08:32:37.000Z</time>
      </trkpt>
      <trkpt lat="43.3320347964763641357421875" lon="-1.89882905222475528717041015625">
        <ele>187.1999969482421875</ele>
        <time>2018-09-02T08:32:38.000Z</time>
      </trkpt>
      <trkpt lat="43.3320731855928897857666015625" lon="-1.89894162118434906005859375">
        <ele>186.1999969482421875</ele>
        <time>2018-09-02T08:32:40.000Z</time>
      </trkpt>
      <trkpt lat="43.33209539763629436492919921875" lon="-1.89898562617599964141845703125">
        <ele>185.600006103515625</ele>
        <time>2018-09-02T08:32:41.000Z</time>
      </trkpt>
      <trkpt lat="43.332119286060333251953125" lon="-1.89901580102741718292236328125">
        <ele>185.600006103515625</ele>
        <time>2018-09-02T08:32:42.000Z</time>
      </trkpt>
      <trkpt lat="43.33216228522360324859619140625" lon="-1.89905603416264057159423828125">
        <ele>185.1999969482421875</ele>
        <time>2018-09-02T08:32:44.000Z</time>
      </trkpt>
      <trkpt lat="43.332212157547473907470703125" lon="-1.899080760776996612548828125">
        <ele>184.399993896484375</ele>
        <time>2018-09-02T08:32:46.000Z</time>
      </trkpt>
      <trkpt lat="43.3322917856276035308837890625" lon="-1.89911462366580963134765625">
        <ele>182.399993896484375</ele>
        <time>2018-09-02T08:32:49.000Z</time>
      </trkpt>
      <trkpt lat="43.33231709897518157958984375" lon="-1.89913013018667697906494140625">
        <ele>181.8000030517578125</ele>
        <time>2018-09-02T08:32:50.000Z</time>
      </trkpt>
      <trkpt lat="43.3323407359421253204345703125" lon="-1.899145804345607757568359375">
        <ele>181.1999969482421875</ele>
        <time>2018-09-02T08:32:51.000Z</time>
      </trkpt>
      <trkpt lat="43.33238893188536167144775390625" lon="-1.89920942299067974090576171875">
        <ele>180.1999969482421875</ele>
        <time>2018-09-02T08:32:54.000Z</time>
      </trkpt>
      <trkpt lat="43.33239630796015262603759765625" lon="-1.89923993311822414398193359375">
        <ele>179.8000030517578125</ele>
        <time>2018-09-02T08:32:55.000Z</time>
      </trkpt>
      <trkpt lat="43.33240368403494358062744140625" lon="-1.89934370107948780059814453125">
        <ele>179</ele>
        <time>2018-09-02T08:32:58.000Z</time>
      </trkpt>
      <trkpt lat="43.33241173066198825836181640625" lon="-1.89937354065477848052978515625">
        <ele>179</ele>
        <time>2018-09-02T08:32:59.000Z</time>
      </trkpt>
      <trkpt lat="43.33241877146065235137939453125" lon="-1.89940053038299083709716796875">
        <ele>179</ele>
        <time>2018-09-02T08:33:00.000Z</time>
      </trkpt>
      <trkpt lat="43.33243067376315593719482421875" lon="-1.89942433498799800872802734375">
        <ele>179</ele>
        <time>2018-09-02T08:33:01.000Z</time>
      </trkpt>
      <trkpt lat="43.3324701525270938873291015625" lon="-1.8994906358420848846435546875">
        <ele>179.1999969482421875</ele>
        <time>2018-09-02T08:33:04.000Z</time>
      </trkpt>
      <trkpt lat="43.33247945643961429595947265625" lon="-1.8995476327836513519287109375">
        <ele>179.600006103515625</ele>
        <time>2018-09-02T08:33:06.000Z</time>
      </trkpt>
      <trkpt lat="43.33247861824929714202880859375" lon="-1.89960387535393238067626953125">
        <ele>180</ele>
        <time>2018-09-02T08:33:08.000Z</time>
      </trkpt>
      <trkpt lat="43.3324773609638214111328125" lon="-1.89963002689182758331298828125">
        <ele>180.1999969482421875</ele>
        <time>2018-09-02T08:33:09.000Z</time>
      </trkpt>
      <trkpt lat="43.3324761874973773956298828125" lon="-1.8996562622487545013427734375">
        <ele>180.399993896484375</ele>
        <time>2018-09-02T08:33:10.000Z</time>
      </trkpt>
      <trkpt lat="43.3324366249144077301025390625" lon="-1.89975592307746410369873046875">
        <ele>181</ele>
        <time>2018-09-02T08:33:15.000Z</time>
      </trkpt>
      <trkpt lat="43.3324049413204193115234375" lon="-1.8998073041439056396484375">
        <ele>181.399993896484375</ele>
        <time>2018-09-02T08:33:18.000Z</time>
      </trkpt>
      <trkpt lat="43.3323735930025577545166015625" lon="-1.89983882009983062744140625">
        <ele>181.600006103515625</ele>
        <time>2018-09-02T08:33:20.000Z</time>
      </trkpt>
      <trkpt lat="43.33233964629471302032470703125" lon="-1.89987159334123134613037109375">
        <ele>181.8000030517578125</ele>
        <time>2018-09-02T08:33:22.000Z</time>
      </trkpt>
      <trkpt lat="43.33230712451040744781494140625" lon="-1.89989824779331684112548828125">
        <ele>182</ele>
        <time>2018-09-02T08:33:24.000Z</time>
      </trkpt>
      <trkpt lat="43.332261107861995697021484375" lon="-1.899943090975284576416015625">
        <ele>182.600006103515625</ele>
        <time>2018-09-02T08:33:27.000Z</time>
      </trkpt>
      <trkpt lat="43.33224493078887462615966796875" lon="-1.89995775930583477020263671875">
        <ele>182.8000030517578125</ele>
        <time>2018-09-02T08:33:28.000Z</time>
      </trkpt>
      <trkpt lat="43.33218743093311786651611328125" lon="-1.90000687725841999053955078125">
        <ele>183</ele>
        <time>2018-09-02T08:33:32.000Z</time>
      </trkpt>
      <trkpt lat="43.332172594964504241943359375" lon="-1.90002062357962131500244140625">
        <ele>183.399993896484375</ele>
        <time>2018-09-02T08:33:33.000Z</time>
      </trkpt>
      <trkpt lat="43.33214099518954753875732421875" lon="-1.9000525586307048797607421875">
        <ele>183.600006103515625</ele>
        <time>2018-09-02T08:33:35.000Z</time>
      </trkpt>
      <trkpt lat="43.33209690637886524200439453125" lon="-1.900099329650402069091796875">
        <ele>184.399993896484375</ele>
        <time>2018-09-02T08:33:38.000Z</time>
      </trkpt>
      <trkpt lat="43.3320453576743602752685546875" lon="-1.90016713924705982208251953125">
        <ele>185.399993896484375</ele>
        <time>2018-09-02T08:33:42.000Z</time>
      </trkpt>
      <trkpt lat="43.3320346288383007049560546875" lon="-1.900184489786624908447265625">
        <ele>185.399993896484375</ele>
        <time>2018-09-02T08:33:43.000Z</time>
      </trkpt>
      <trkpt lat="43.33196103572845458984375" lon="-1.90029001794755458831787109375">
        <ele>186.399993896484375</ele>
        <time>2018-09-02T08:33:49.000Z</time>
      </trkpt>
      <trkpt lat="43.331947959959506988525390625" lon="-1.90030259080231189727783203125">
        <ele>186.600006103515625</ele>
        <time>2018-09-02T08:33:50.000Z</time>
      </trkpt>
      <trkpt lat="43.3319169469177722930908203125" lon="-1.90037031657993793487548828125">
        <ele>187.1999969482421875</ele>
        <time>2018-09-02T08:33:54.000Z</time>
      </trkpt>
      <trkpt lat="43.3318874426186084747314453125" lon="-1.9004483520984649658203125">
        <ele>187.600006103515625</ele>
        <time>2018-09-02T08:33:58.000Z</time>
      </trkpt>
      <trkpt lat="43.33187361247837543487548828125" lon="-1.90048699267208576202392578125">
        <ele>188</ele>
        <time>2018-09-02T08:34:00.000Z</time>
      </trkpt>
      <trkpt lat="43.3318505622446537017822265625" lon="-1.9005410559475421905517578125">
        <ele>188.8000030517578125</ele>
        <time>2018-09-02T08:34:03.000Z</time>
      </trkpt>
      <trkpt lat="43.3318066410720348358154296875" lon="-1.90065865404903888702392578125">
        <ele>189.600006103515625</ele>
        <time>2018-09-02T08:34:09.000Z</time>
      </trkpt>
      <trkpt lat="43.3317979238927364349365234375" lon="-1.9006771780550479888916015625">
        <ele>189.8000030517578125</ele>
        <time>2018-09-02T08:34:10.000Z</time>
      </trkpt>
      <trkpt lat="43.3317399211227893829345703125" lon="-1.90084934234619140625">
        <ele>191</ele>
        <time>2018-09-02T08:34:18.000Z</time>
      </trkpt>
      <trkpt lat="43.33169876597821712493896484375" lon="-1.90099812112748622894287109375">
        <ele>192.1999969482421875</ele>
        <time>2018-09-02T08:34:25.000Z</time>
      </trkpt>
      <trkpt lat="43.3316835947334766387939453125" lon="-1.9010947644710540771484375">
        <ele>192.8000030517578125</ele>
        <time>2018-09-02T08:34:29.000Z</time>
      </trkpt>
      <trkpt lat="43.331683762371540069580078125" lon="-1.90116659738123416900634765625">
        <ele>193.1999969482421875</ele>
        <time>2018-09-02T08:34:32.000Z</time>
      </trkpt>
      <trkpt lat="43.331684432923793792724609375" lon="-1.90119040198624134063720703125">
        <ele>193.399993896484375</ele>
        <time>2018-09-02T08:34:33.000Z</time>
      </trkpt>
      <trkpt lat="43.3316856063902378082275390625" lon="-1.90134999342262744903564453125">
        <ele>194.399993896484375</ele>
        <time>2018-09-02T08:34:39.000Z</time>
      </trkpt>
      <trkpt lat="43.33169541321694850921630859375" lon="-1.9015405140817165374755859375">
        <ele>195.1999969482421875</ele>
        <time>2018-09-02T08:34:46.000Z</time>
      </trkpt>
      <trkpt lat="43.33169625140726566314697265625" lon="-1.90156809054315090179443359375">
        <ele>195.399993896484375</ele>
        <time>2018-09-02T08:34:47.000Z</time>
      </trkpt>
      <trkpt lat="43.33170848898589611053466796875" lon="-1.90164260566234588623046875">
        <ele>195.600006103515625</ele>
        <time>2018-09-02T08:34:50.000Z</time>
      </trkpt>
      <trkpt lat="43.3317439444363117218017578125" lon="-1.9017457030713558197021484375">
        <ele>196</ele>
        <time>2018-09-02T08:34:54.000Z</time>
      </trkpt>
      <trkpt lat="43.33177487365901470184326171875" lon="-1.9018243253231048583984375">
        <ele>196.399993896484375</ele>
        <time>2018-09-02T08:34:57.000Z</time>
      </trkpt>
      <trkpt lat="43.3318254165351390838623046875" lon="-1.90189967863261699676513671875">
        <ele>196.8000030517578125</ele>
        <time>2018-09-02T08:35:01.000Z</time>
      </trkpt>
      <trkpt lat="43.33187093026936054229736328125" lon="-1.90193270333111286163330078125">
        <ele>196.8000030517578125</ele>
        <time>2018-09-02T08:35:04.000Z</time>
      </trkpt>
      <trkpt lat="43.33190378732979297637939453125" lon="-1.901972852647304534912109375">
        <ele>197</ele>
        <time>2018-09-02T08:35:06.000Z</time>
      </trkpt>
      <trkpt lat="43.33203588612377643585205078125" lon="-1.902155913412570953369140625">
        <ele>197</ele>
        <time>2018-09-02T08:35:13.000Z</time>
      </trkpt>
      <trkpt lat="43.33205415867269039154052734375" lon="-1.90218348987400531768798828125">
        <ele>197</ele>
        <time>2018-09-02T08:35:14.000Z</time>
      </trkpt>
      <trkpt lat="43.33207125775516033172607421875" lon="-1.90221617929637432098388671875">
        <ele>197.1999969482421875</ele>
        <time>2018-09-02T08:35:15.000Z</time>
      </trkpt>
      <trkpt lat="43.33212004043161869049072265625" lon="-1.90230905078351497650146484375">
        <ele>197.600006103515625</ele>
        <time>2018-09-02T08:35:19.000Z</time>
      </trkpt>
      <trkpt lat="43.33212129771709442138671875" lon="-1.90233184956014156341552734375">
        <ele>197.600006103515625</ele>
        <time>2018-09-02T08:35:20.000Z</time>
      </trkpt>
      <trkpt lat="43.33211802877485752105712890625" lon="-1.90235204994678497314453125">
        <ele>197.1999969482421875</ele>
        <time>2018-09-02T08:35:30.000Z</time>
      </trkpt>
      <trkpt lat="43.332121632993221282958984375" lon="-1.9023743458092212677001953125">
        <ele>197.399993896484375</ele>
        <time>2018-09-02T08:35:31.000Z</time>
      </trkpt>
      <trkpt lat="43.3321533165872097015380859375" lon="-1.90256352536380290985107421875">
        <ele>198.1999969482421875</ele>
        <time>2018-09-02T08:35:38.000Z</time>
      </trkpt>
      <trkpt lat="43.3321637101471424102783203125" lon="-1.9026871584355831146240234375">
        <ele>198.600006103515625</ele>
        <time>2018-09-02T08:35:42.000Z</time>
      </trkpt>
      <trkpt lat="43.33216287195682525634765625" lon="-1.90272814594209194183349609375">
        <ele>198.600006103515625</ele>
        <time>2018-09-02T08:35:43.000Z</time>
      </trkpt>
      <trkpt lat="43.332164548337459564208984375" lon="-1.902766786515712738037109375">
        <ele>198.8000030517578125</ele>
        <time>2018-09-02T08:35:44.000Z</time>
      </trkpt>
      <trkpt lat="43.332169912755489349365234375" lon="-1.902810037136077880859375">
        <ele>198.8000030517578125</ele>
        <time>2018-09-02T08:35:45.000Z</time>
      </trkpt>
      <trkpt lat="43.332194387912750244140625" lon="-1.9029912538826465606689453125">
        <ele>199.600006103515625</ele>
        <time>2018-09-02T08:35:49.000Z</time>
      </trkpt>
      <trkpt lat="43.332215845584869384765625" lon="-1.9031116180121898651123046875">
        <ele>200</ele>
        <time>2018-09-02T08:35:52.000Z</time>
      </trkpt>
      <trkpt lat="43.33223252557218074798583984375" lon="-1.90317540429532527923583984375">
        <ele>200.399993896484375</ele>
        <time>2018-09-02T08:35:54.000Z</time>
      </trkpt>
      <trkpt lat="43.33224291913211345672607421875" lon="-1.903205998241901397705078125">
        <ele>200.600006103515625</ele>
        <time>2018-09-02T08:35:55.000Z</time>
      </trkpt>
      <trkpt lat="43.33226286806166172027587890625" lon="-1.90327364020049571990966796875">
        <ele>201</ele>
        <time>2018-09-02T08:35:57.000Z</time>
      </trkpt>
      <trkpt lat="43.33228583447635173797607421875" lon="-1.90333952195942401885986328125">
        <ele>201.399993896484375</ele>
        <time>2018-09-02T08:35:59.000Z</time>
      </trkpt>
      <trkpt lat="43.33230427466332912445068359375" lon="-1.90341026522219181060791015625">
        <ele>202</ele>
        <time>2018-09-02T08:36:01.000Z</time>
      </trkpt>
      <trkpt lat="43.3323377184569835662841796875" lon="-1.9035152904689311981201171875">
        <ele>202.600006103515625</ele>
        <time>2018-09-02T08:36:04.000Z</time>
      </trkpt>
      <trkpt lat="43.33235942758619785308837890625" lon="-1.90358410589396953582763671875">
        <ele>203.1999969482421875</ele>
        <time>2018-09-02T08:36:06.000Z</time>
      </trkpt>
      <trkpt lat="43.33237166516482830047607421875" lon="-1.90361696295440196990966796875">
        <ele>203.399993896484375</ele>
        <time>2018-09-02T08:36:07.000Z</time>
      </trkpt>
      <trkpt lat="43.33242438733577728271484375" lon="-1.9037701003253459930419921875">
        <ele>204.1999969482421875</ele>
        <time>2018-09-02T08:36:12.000Z</time>
      </trkpt>
      <trkpt lat="43.332434780895709991455078125" lon="-1.90380086190998554229736328125">
        <ele>204.1999969482421875</ele>
        <time>2018-09-02T08:36:13.000Z</time>
      </trkpt>
      <trkpt lat="43.33245816640555858612060546875" lon="-1.90385785885155200958251953125">
        <ele>204.399993896484375</ele>
        <time>2018-09-02T08:36:15.000Z</time>
      </trkpt>
      <trkpt lat="43.33252253942191600799560546875" lon="-1.90396866761147975921630859375">
        <ele>205.399993896484375</ele>
        <time>2018-09-02T08:36:19.000Z</time>
      </trkpt>
      <trkpt lat="43.332561515271663665771484375" lon="-1.904012672603130340576171875">
        <ele>206</ele>
        <time>2018-09-02T08:36:21.000Z</time>
      </trkpt>
      <trkpt lat="43.3326039277017116546630859375" lon="-1.904044859111309051513671875">
        <ele>206.399993896484375</ele>
        <time>2018-09-02T08:36:23.000Z</time>
      </trkpt>
      <trkpt lat="43.33264592103660106658935546875" lon="-1.9041100703179836273193359375">
        <ele>207.1999969482421875</ele>
        <time>2018-09-02T08:36:26.000Z</time>
      </trkpt>
      <trkpt lat="43.33265237510204315185546875" lon="-1.9041375629603862762451171875">
        <ele>207.399993896484375</ele>
        <time>2018-09-02T08:36:27.000Z</time>
      </trkpt>
      <trkpt lat="43.33268716000020503997802734375" lon="-1.90433956682682037353515625">
        <ele>207.600006103515625</ele>
        <time>2018-09-02T08:36:33.000Z</time>
      </trkpt>
      <trkpt lat="43.33268095739185810089111328125" lon="-1.90443051047623157501220703125">
        <ele>207</ele>
        <time>2018-09-02T08:36:36.000Z</time>
      </trkpt>
      <trkpt lat="43.33267576061189174652099609375" lon="-1.9044718332588672637939453125">
        <ele>206.600006103515625</ele>
        <time>2018-09-02T08:36:37.000Z</time>
      </trkpt>
      <trkpt lat="43.33266788162291049957275390625" lon="-1.90452086739242076873779296875">
        <ele>206.1999969482421875</ele>
        <time>2018-09-02T08:36:38.000Z</time>
      </trkpt>
      <trkpt lat="43.3326423168182373046875" lon="-1.90465631894767284393310546875">
        <ele>205.1999969482421875</ele>
        <time>2018-09-02T08:36:40.000Z</time>
      </trkpt>
      <trkpt lat="43.33262613974511623382568359375" lon="-1.9047390483319759368896484375">
        <ele>204.600006103515625</ele>
        <time>2018-09-02T08:36:41.000Z</time>
      </trkpt>
      <trkpt lat="43.33260904066264629364013671875" lon="-1.9048272259533405303955078125">
        <ele>203.8000030517578125</ele>
        <time>2018-09-02T08:36:42.000Z</time>
      </trkpt>
      <trkpt lat="43.33257199265062808990478515625" lon="-1.90502621233463287353515625">
        <ele>202</ele>
        <time>2018-09-02T08:36:44.000Z</time>
      </trkpt>
      <trkpt lat="43.3325519599020481109619140625" lon="-1.90512478351593017578125">
        <ele>201</ele>
        <time>2018-09-02T08:36:45.000Z</time>
      </trkpt>
      <trkpt lat="43.3325358666479587554931640625" lon="-1.90522142685949802398681640625">
        <ele>200</ele>
        <time>2018-09-02T08:36:46.000Z</time>
      </trkpt>
      <trkpt lat="43.33252153359353542327880859375" lon="-1.90531480126082897186279296875">
        <ele>198.8000030517578125</ele>
        <time>2018-09-02T08:36:47.000Z</time>
      </trkpt>
      <trkpt lat="43.3324976451694965362548828125" lon="-1.9054890610277652740478515625">
        <ele>196.1999969482421875</ele>
        <time>2018-09-02T08:36:49.000Z</time>
      </trkpt>
      <trkpt lat="43.33249035291373729705810546875" lon="-1.9055614806711673736572265625">
        <ele>195.8000030517578125</ele>
        <time>2018-09-02T08:36:50.000Z</time>
      </trkpt>
      <trkpt lat="43.33248482085764408111572265625" lon="-1.90562996082007884979248046875">
        <ele>195.8000030517578125</ele>
        <time>2018-09-02T08:36:51.000Z</time>
      </trkpt>
      <trkpt lat="43.33247794769704341888427734375" lon="-1.90575803630053997039794921875">
        <ele>195.8000030517578125</ele>
        <time>2018-09-02T08:36:53.000Z</time>
      </trkpt>
      <trkpt lat="43.3324728347361087799072265625" lon="-1.905821152031421661376953125">
        <ele>195.8000030517578125</ele>
        <time>2018-09-02T08:36:54.000Z</time>
      </trkpt>
      <trkpt lat="43.33245330490171909332275390625" lon="-1.90601603128015995025634765625">
        <ele>195.600006103515625</ele>
        <time>2018-09-02T08:36:57.000Z</time>
      </trkpt>
      <trkpt lat="43.3324165083467960357666015625" lon="-1.9062766246497631072998046875">
        <ele>195.600006103515625</ele>
        <time>2018-09-02T08:37:01.000Z</time>
      </trkpt>
      <trkpt lat="43.33239731378853321075439453125" lon="-1.90648625604808330535888671875">
        <ele>195</ele>
        <time>2018-09-02T08:37:04.000Z</time>
      </trkpt>
      <trkpt lat="43.33238004706799983978271484375" lon="-1.9066576659679412841796875">
        <ele>194</ele>
        <time>2018-09-02T08:37:06.000Z</time>
      </trkpt>
      <trkpt lat="43.33237208425998687744140625" lon="-1.90674307756125926971435546875">
        <ele>193.600006103515625</ele>
        <time>2018-09-02T08:37:07.000Z</time>
      </trkpt>
      <trkpt lat="43.33235272206366062164306640625" lon="-1.90704734064638614654541015625">
        <ele>192.399993896484375</ele>
        <time>2018-09-02T08:37:11.000Z</time>
      </trkpt>
      <trkpt lat="43.3323450945317745208740234375" lon="-1.90710701979696750640869140625">
        <ele>192.399993896484375</ele>
        <time>2018-09-02T08:37:12.000Z</time>
      </trkpt>
      <trkpt lat="43.3323286660015583038330078125" lon="-1.9073716364800930023193359375">
        <ele>191.600006103515625</ele>
        <time>2018-09-02T08:37:17.000Z</time>
      </trkpt>
      <trkpt lat="43.33231433294713497161865234375" lon="-1.9074400328099727630615234375">
        <ele>191</ele>
        <time>2018-09-02T08:37:18.000Z</time>
      </trkpt>
      <trkpt lat="43.3322948031127452850341796875" lon="-1.90751454792916774749755859375">
        <ele>190.600006103515625</ele>
        <time>2018-09-02T08:37:19.000Z</time>
      </trkpt>
      <trkpt lat="43.33224627189338207244873046875" lon="-1.90765880048274993896484375">
        <ele>189.8000030517578125</ele>
        <time>2018-09-02T08:37:21.000Z</time>
      </trkpt>
      <trkpt lat="43.33221676759421825408935546875" lon="-1.90772728063166141510009765625">
        <ele>189.1999969482421875</ele>
        <time>2018-09-02T08:37:22.000Z</time>
      </trkpt>
      <trkpt lat="43.33218005485832691192626953125" lon="-1.90779349766671657562255859375">
        <ele>188.600006103515625</ele>
        <time>2018-09-02T08:37:23.000Z</time>
      </trkpt>
      <trkpt lat="43.332086764276027679443359375" lon="-1.90794386900961399078369140625">
        <ele>187.399993896484375</ele>
        <time>2018-09-02T08:37:25.000Z</time>
      </trkpt>
      <trkpt lat="43.331983499228954315185546875" lon="-1.90811251290142536163330078125">
        <ele>186</ele>
        <time>2018-09-02T08:37:27.000Z</time>
      </trkpt>
      <trkpt lat="43.33187855780124664306640625" lon="-1.908287107944488525390625">
        <ele>184.1999969482421875</ele>
        <time>2018-09-02T08:37:29.000Z</time>
      </trkpt>
      <trkpt lat="43.3318240754306316375732421875" lon="-1.90837570466101169586181640625">
        <ele>183.1999969482421875</ele>
        <time>2018-09-02T08:37:30.000Z</time>
      </trkpt>
      <trkpt lat="43.3317731134593486785888671875" lon="-1.90846689976751804351806640625">
        <ele>182</ele>
        <time>2018-09-02T08:37:31.000Z</time>
      </trkpt>
      <trkpt lat="43.33172458223998546600341796875" lon="-1.90855273045599460601806640625">
        <ele>181.1999969482421875</ele>
        <time>2018-09-02T08:37:32.000Z</time>
      </trkpt>
      <trkpt lat="43.33167563192546367645263671875" lon="-1.9086379744112491607666015625">
        <ele>180.600006103515625</ele>
        <time>2018-09-02T08:37:33.000Z</time>
      </trkpt>
      <trkpt lat="43.331537581980228424072265625" lon="-1.90888482145965099334716796875">
        <ele>180.1999969482421875</ele>
        <time>2018-09-02T08:37:36.000Z</time>
      </trkpt>
      <trkpt lat="43.33146859891712665557861328125" lon="-1.90901105292141437530517578125">
        <ele>180</ele>
        <time>2018-09-02T08:37:38.000Z</time>
      </trkpt>
      <trkpt lat="43.33138746209442615509033203125" lon="-1.90916628576815128326416015625">
        <ele>180.399993896484375</ele>
        <time>2018-09-02T08:37:41.000Z</time>
      </trkpt>
      <trkpt lat="43.3313530124723911285400390625" lon="-1.90928229130804538726806640625">
        <ele>180.1999969482421875</ele>
        <time>2018-09-02T08:37:43.000Z</time>
      </trkpt>
      <trkpt lat="43.331341445446014404296875" lon="-1.9093400426208972930908203125">
        <ele>180.399993896484375</ele>
        <time>2018-09-02T08:37:44.000Z</time>
      </trkpt>
      <trkpt lat="43.33132342435419559478759765625" lon="-1.9094560481607913970947265625">
        <ele>180.399993896484375</ele>
        <time>2018-09-02T08:37:46.000Z</time>
      </trkpt>
      <trkpt lat="43.33128721453249454498291015625" lon="-1.90961438231170177459716796875">
        <ele>180.600006103515625</ele>
        <time>2018-09-02T08:37:49.000Z</time>
      </trkpt>
      <trkpt lat="43.33124781958758831024169921875" lon="-1.9097743928432464599609375">
        <ele>180.1999969482421875</ele>
        <time>2018-09-02T08:37:52.000Z</time>
      </trkpt>
      <trkpt lat="43.33121697418391704559326171875" lon="-1.90990188159048557281494140625">
        <ele>179.8000030517578125</ele>
        <time>2018-09-02T08:37:54.000Z</time>
      </trkpt>
      <trkpt lat="43.33117841742932796478271484375" lon="-1.91002895124256610870361328125">
        <ele>179.1999969482421875</ele>
        <time>2018-09-02T08:37:56.000Z</time>
      </trkpt>
      <trkpt lat="43.33113097585737705230712890625" lon="-1.9101976789534091949462890625">
        <ele>179.1999969482421875</ele>
        <time>2018-09-02T08:37:59.000Z</time>
      </trkpt>
      <trkpt lat="43.33109132945537567138671875" lon="-1.91036506555974483489990234375">
        <ele>179.399993896484375</ele>
        <time>2018-09-02T08:38:02.000Z</time>
      </trkpt>
      <trkpt lat="43.33106811158359050750732421875" lon="-1.91046464256942272186279296875">
        <ele>179.600006103515625</ele>
        <time>2018-09-02T08:38:04.000Z</time>
      </trkpt>
      <trkpt lat="43.33106475882232189178466796875" lon="-1.91051443107426166534423828125">
        <ele>179.600006103515625</ele>
        <time>2018-09-02T08:38:05.000Z</time>
      </trkpt>
      <trkpt lat="43.33105671219527721405029296875" lon="-1.9106663949787616729736328125">
        <ele>179.8000030517578125</ele>
        <time>2018-09-02T08:38:08.000Z</time>
      </trkpt>
      <trkpt lat="43.331046402454376220703125" lon="-1.9107740186154842376708984375">
        <ele>180.1999969482421875</ele>
        <time>2018-09-02T08:38:10.000Z</time>
      </trkpt>
      <trkpt lat="43.33103776909410953521728515625" lon="-1.91082808189094066619873046875">
        <ele>180.399993896484375</ele>
        <time>2018-09-02T08:38:11.000Z</time>
      </trkpt>
      <trkpt lat="43.331018574535846710205078125" lon="-1.91093235276639461517333984375">
        <ele>181</ele>
        <time>2018-09-02T08:38:13.000Z</time>
      </trkpt>
      <trkpt lat="43.3309967815876007080078125" lon="-1.9110261462628841400146484375">
        <ele>181.600006103515625</ele>
        <time>2018-09-02T08:38:15.000Z</time>
      </trkpt>
      <trkpt lat="43.33097599446773529052734375" lon="-1.91112161614000797271728515625">
        <ele>182</ele>
        <time>2018-09-02T08:38:17.000Z</time>
      </trkpt>
      <trkpt lat="43.330951519310474395751953125" lon="-1.91121867857873439788818359375">
        <ele>182.1999969482421875</ele>
        <time>2018-09-02T08:38:19.000Z</time>
      </trkpt>
      <trkpt lat="43.3308658562600612640380859375" lon="-1.9115475006401538848876953125">
        <ele>181.399993896484375</ele>
        <time>2018-09-02T08:38:26.000Z</time>
      </trkpt>
      <trkpt lat="43.33083115518093109130859375" lon="-1.91168471239507198333740234375">
        <ele>181.1999969482421875</ele>
        <time>2018-09-02T08:38:29.000Z</time>
      </trkpt>
      <trkpt lat="43.33078865893185138702392578125" lon="-1.91186525858938694000244140625">
        <ele>180.1999969482421875</ele>
        <time>2018-09-02T08:38:33.000Z</time>
      </trkpt>
      <trkpt lat="43.33076636306941509246826171875" lon="-1.91201512701809406280517578125">
        <ele>179</ele>
        <time>2018-09-02T08:38:36.000Z</time>
      </trkpt>
      <trkpt lat="43.330758400261402130126953125" lon="-1.91214655525982379913330078125">
        <ele>177.8000030517578125</ele>
        <time>2018-09-02T08:38:38.000Z</time>
      </trkpt>
      <trkpt lat="43.33075999282300472259521484375" lon="-1.91222794353961944580078125">
        <ele>177.1999969482421875</ele>
        <time>2018-09-02T08:38:39.000Z</time>
      </trkpt>
      <trkpt lat="43.33076418377459049224853515625" lon="-1.9123162887990474700927734375">
        <ele>176.600006103515625</ele>
        <time>2018-09-02T08:38:40.000Z</time>
      </trkpt>
      <trkpt lat="43.3307634294033050537109375" lon="-1.912479735910892486572265625">
        <ele>175.399993896484375</ele>
        <time>2018-09-02T08:38:42.000Z</time>
      </trkpt>
      <trkpt lat="43.330750353634357452392578125" lon="-1.91255240701138973236083984375">
        <ele>174.8000030517578125</ele>
        <time>2018-09-02T08:38:43.000Z</time>
      </trkpt>
      <trkpt lat="43.33072445355355739593505859375" lon="-1.91262415610253810882568359375">
        <ele>174.399993896484375</ele>
        <time>2018-09-02T08:38:44.000Z</time>
      </trkpt>
      <trkpt lat="43.33066125400364398956298828125" lon="-1.91278584301471710205078125">
        <ele>173.1999969482421875</ele>
        <time>2018-09-02T08:38:46.000Z</time>
      </trkpt>
      <trkpt lat="43.330596797168254852294921875" lon="-1.9129576720297336578369140625">
        <ele>171.600006103515625</ele>
        <time>2018-09-02T08:38:48.000Z</time>
      </trkpt>
      <trkpt lat="43.33052244968712329864501953125" lon="-1.91313109360635280609130859375">
        <ele>168.1999969482421875</ele>
        <time>2018-09-02T08:38:50.000Z</time>
      </trkpt>
      <trkpt lat="43.33047919906675815582275390625" lon="-1.91322027705609798431396484375">
        <ele>167</ele>
        <time>2018-09-02T08:38:51.000Z</time>
      </trkpt>
      <trkpt lat="43.33043293096125125885009765625" lon="-1.91331432200968265533447265625">
        <ele>165.8000030517578125</ele>
        <time>2018-09-02T08:38:52.000Z</time>
      </trkpt>
      <trkpt lat="43.33038699813187122344970703125" lon="-1.9134153239428997039794921875">
        <ele>164.600006103515625</ele>
        <time>2018-09-02T08:38:53.000Z</time>
      </trkpt>
      <trkpt lat="43.3303465135395526885986328125" lon="-1.91352722235023975372314453125">
        <ele>163.1999969482421875</ele>
        <time>2018-09-02T08:38:54.000Z</time>
      </trkpt>
      <trkpt lat="43.3303119800984859466552734375" lon="-1.9136483408510684967041015625">
        <ele>161.8000030517578125</ele>
        <time>2018-09-02T08:38:55.000Z</time>
      </trkpt>
      <trkpt lat="43.33027853630483150482177734375" lon="-1.9137660227715969085693359375">
        <ele>160.600006103515625</ele>
        <time>2018-09-02T08:38:56.000Z</time>
      </trkpt>
      <trkpt lat="43.33024241030216217041015625" lon="-1.91387088038027286529541015625">
        <ele>159.600006103515625</ele>
        <time>2018-09-02T08:38:57.000Z</time>
      </trkpt>
      <trkpt lat="43.330172002315521240234375" lon="-1.9140350818634033203125">
        <ele>158</ele>
        <time>2018-09-02T08:38:59.000Z</time>
      </trkpt>
      <trkpt lat="43.33013386465609073638916015625" lon="-1.91410071216523647308349609375">
        <ele>157</ele>
        <time>2018-09-02T08:39:00.000Z</time>
      </trkpt>
      <trkpt lat="43.33009488880634307861328125" lon="-1.9141589663922786712646484375">
        <ele>155.8000030517578125</ele>
        <time>2018-09-02T08:39:01.000Z</time>
      </trkpt>
      <trkpt lat="43.33006211556494235992431640625" lon="-1.91421353258192539215087890625">
        <ele>154.399993896484375</ele>
        <time>2018-09-02T08:39:02.000Z</time>
      </trkpt>
      <trkpt lat="43.33002791740000247955322265625" lon="-1.914263069629669189453125">
        <ele>153.1999969482421875</ele>
        <time>2018-09-02T08:39:03.000Z</time>
      </trkpt>
      <trkpt lat="43.3299901150166988372802734375" lon="-1.91428746096789836883544921875">
        <ele>151.8000030517578125</ele>
        <time>2018-09-02T08:39:04.000Z</time>
      </trkpt>
      <trkpt lat="43.3299629576504230499267578125" lon="-1.91428511403501033782958984375">
        <ele>150.600006103515625</ele>
        <time>2018-09-02T08:39:05.000Z</time>
      </trkpt>
      <trkpt lat="43.32994074560701847076416015625" lon="-1.91422895528376102447509765625">
        <ele>148.8000030517578125</ele>
        <time>2018-09-02T08:39:07.000Z</time>
      </trkpt>
      <trkpt lat="43.32994292490184307098388671875" lon="-1.9141150452196598052978515625">
        <ele>147.1999969482421875</ele>
        <time>2018-09-02T08:39:09.000Z</time>
      </trkpt>
      <trkpt lat="43.32994929514825344085693359375" lon="-1.9140432961285114288330078125">
        <ele>146</ele>
        <time>2018-09-02T08:39:10.000Z</time>
      </trkpt>
      <trkpt lat="43.32995407283306121826171875" lon="-1.91395930945873260498046875">
        <ele>145</ele>
        <time>2018-09-02T08:39:11.000Z</time>
      </trkpt>
      <trkpt lat="43.3299492113292217254638671875" lon="-1.91388848237693309783935546875">
        <ele>143.8000030517578125</ele>
        <time>2018-09-02T08:39:12.000Z</time>
      </trkpt>
      <trkpt lat="43.3299237303435802459716796875" lon="-1.91384154371917247772216796875">
        <ele>142.8000030517578125</ele>
        <time>2018-09-02T08:39:13.000Z</time>
      </trkpt>
      <trkpt lat="43.32988576032221317291259765625" lon="-1.9138189963996410369873046875">
        <ele>141</ele>
        <time>2018-09-02T08:39:14.000Z</time>
      </trkpt>
      <trkpt lat="43.329842425882816314697265625" lon="-1.913814134895801544189453125">
        <ele>139.8000030517578125</ele>
        <time>2018-09-02T08:39:15.000Z</time>
      </trkpt>
      <trkpt lat="43.3297966606914997100830078125" lon="-1.91382980905473232269287109375">
        <ele>138.8000030517578125</ele>
        <time>2018-09-02T08:39:16.000Z</time>
      </trkpt>
      <trkpt lat="43.3297061361372470855712890625" lon="-1.9138897396624088287353515625">
        <ele>137.1999969482421875</ele>
        <time>2018-09-02T08:39:18.000Z</time>
      </trkpt>
      <trkpt lat="43.32962709479033946990966796875" lon="-1.91394816152751445770263671875">
        <ele>136</ele>
        <time>2018-09-02T08:39:20.000Z</time>
      </trkpt>
      <trkpt lat="43.329584598541259765625" lon="-1.91397481597959995269775390625">
        <ele>135.399993896484375</ele>
        <time>2018-09-02T08:39:21.000Z</time>
      </trkpt>
      <trkpt lat="43.32954176701605319976806640625" lon="-1.91399828530848026275634765625">
        <ele>134.399993896484375</ele>
        <time>2018-09-02T08:39:22.000Z</time>
      </trkpt>
      <trkpt lat="43.32949399016797542572021484375" lon="-1.914016641676425933837890625">
        <ele>133</ele>
        <time>2018-09-02T08:39:23.000Z</time>
      </trkpt>
      <trkpt lat="43.3294389210641384124755859375" lon="-1.91404187120497226715087890625">
        <ele>131.399993896484375</ele>
        <time>2018-09-02T08:39:24.000Z</time>
      </trkpt>
      <trkpt lat="43.32937513478100299835205078125" lon="-1.91406391561031341552734375">
        <ele>129.600006103515625</ele>
        <time>2018-09-02T08:39:25.000Z</time>
      </trkpt>
      <trkpt lat="43.32931042648851871490478515625" lon="-1.91408579237759113311767578125">
        <ele>128.1999969482421875</ele>
        <time>2018-09-02T08:39:26.000Z</time>
      </trkpt>
      <trkpt lat="43.32919232547283172607421875" lon="-1.9141311384737491607666015625">
        <ele>127</ele>
        <time>2018-09-02T08:39:28.000Z</time>
      </trkpt>
      <trkpt lat="43.3290590532124042510986328125" lon="-1.91418335773050785064697265625">
        <ele>126.40000152587890625</ele>
        <time>2018-09-02T08:39:31.000Z</time>
      </trkpt>
      <trkpt lat="43.32902024500072002410888671875" lon="-1.91420163027942180633544921875">
        <ele>125.59999847412109375</ele>
        <time>2018-09-02T08:39:32.000Z</time>
      </trkpt>
      <trkpt lat="43.32894883118569850921630859375" lon="-1.91425703465938568115234375">
        <ele>123.40000152587890625</ele>
        <time>2018-09-02T08:39:34.000Z</time>
      </trkpt>
      <trkpt lat="43.32891010679304599761962890625" lon="-1.914297603070735931396484375">
        <ele>122.1999969482421875</ele>
        <time>2018-09-02T08:39:35.000Z</time>
      </trkpt>
      <trkpt lat="43.3288763277232646942138671875" lon="-1.91434395499527454376220703125">
        <ele>121</ele>
        <time>2018-09-02T08:39:36.000Z</time>
      </trkpt>
      <trkpt lat="43.3288484998047351837158203125" lon="-1.91439248621463775634765625">
        <ele>120</ele>
        <time>2018-09-02T08:39:37.000Z</time>
      </trkpt>
      <trkpt lat="43.32882192917168140411376953125" lon="-1.9144449569284915924072265625">
        <ele>118.1999969482421875</ele>
        <time>2018-09-02T08:39:38.000Z</time>
      </trkpt>
      <trkpt lat="43.32876979373395442962646484375" lon="-1.91458049230277538299560546875">
        <ele>116</ele>
        <time>2018-09-02T08:39:40.000Z</time>
      </trkpt>
      <trkpt lat="43.32873710431158542633056640625" lon="-1.91465131938457489013671875">
        <ele>114.8000030517578125</ele>
        <time>2018-09-02T08:39:41.000Z</time>
      </trkpt>
      <trkpt lat="43.328705839812755584716796875" lon="-1.914720721542835235595703125">
        <ele>113.59999847412109375</ele>
        <time>2018-09-02T08:39:42.000Z</time>
      </trkpt>
      <trkpt lat="43.3286694623529911041259765625" lon="-1.9147892855107784271240234375">
        <ele>112.59999847412109375</ele>
        <time>2018-09-02T08:39:43.000Z</time>
      </trkpt>
      <trkpt lat="43.3286349289119243621826171875" lon="-1.9148499704897403717041015625">
        <ele>111.40000152587890625</ele>
        <time>2018-09-02T08:39:44.000Z</time>
      </trkpt>
      <trkpt lat="43.32855639047920703887939453125" lon="-1.9149508886039257049560546875">
        <ele>109.59999847412109375</ele>
        <time>2018-09-02T08:39:46.000Z</time>
      </trkpt>
      <trkpt lat="43.32850165665149688720703125" lon="-1.91501182503998279571533203125">
        <ele>108</ele>
        <time>2018-09-02T08:39:48.000Z</time>
      </trkpt>
      <trkpt lat="43.3284847252070903778076171875" lon="-1.91504183225333690643310546875">
        <ele>107.8000030517578125</ele>
        <time>2018-09-02T08:39:49.000Z</time>
      </trkpt>
      <trkpt lat="43.32847642712295055389404296875" lon="-1.91510050557553768157958984375">
        <ele>107.40000152587890625</ele>
        <time>2018-09-02T08:39:50.000Z</time>
      </trkpt>
      <trkpt lat="43.32845681346952915191650390625" lon="-1.91519605927169322967529296875">
        <ele>107</ele>
        <time>2018-09-02T08:39:52.000Z</time>
      </trkpt>
      <trkpt lat="43.3284411393105983734130859375" lon="-1.91538146696984767913818359375">
        <ele>106</ele>
        <time>2018-09-02T08:39:56.000Z</time>
      </trkpt>
      <trkpt lat="43.3284406363964080810546875" lon="-1.9154360331594944000244140625">
        <ele>105.8000030517578125</ele>
        <time>2018-09-02T08:39:57.000Z</time>
      </trkpt>
      <trkpt lat="43.328442312777042388916015625" lon="-1.9156247936189174652099609375">
        <ele>104.1999969482421875</ele>
        <time>2018-09-02T08:40:00.000Z</time>
      </trkpt>
      <trkpt lat="43.32844122312963008880615234375" lon="-1.9156975485384464263916015625">
        <ele>103.59999847412109375</ele>
        <time>2018-09-02T08:40:01.000Z</time>
      </trkpt>
      <trkpt lat="43.32843988202512264251708984375" lon="-1.9157686270773410797119140625">
        <ele>102.1999969482421875</ele>
        <time>2018-09-02T08:40:02.000Z</time>
      </trkpt>
      <trkpt lat="43.32843334414064884185791015625" lon="-1.91590131260454654693603515625">
        <ele>100.59999847412109375</ele>
        <time>2018-09-02T08:40:04.000Z</time>
      </trkpt>
      <trkpt lat="43.32843099720776081085205078125" lon="-1.91603207029402256011962890625">
        <ele>99.40000152587890625</ele>
        <time>2018-09-02T08:40:06.000Z</time>
      </trkpt>
      <trkpt lat="43.328432254493236541748046875" lon="-1.9161786697804927825927734375">
        <ele>98</ele>
        <time>2018-09-02T08:40:08.000Z</time>
      </trkpt>
      <trkpt lat="43.32842965610325336456298828125" lon="-1.91625201143324375152587890625">
        <ele>97.1999969482421875</ele>
        <time>2018-09-02T08:40:09.000Z</time>
      </trkpt>
      <trkpt lat="43.32842630334198474884033203125" lon="-1.9163271971046924591064453125">
        <ele>96.59999847412109375</ele>
        <time>2018-09-02T08:40:10.000Z</time>
      </trkpt>
      <trkpt lat="43.32842596806585788726806640625" lon="-1.916489638388156890869140625">
        <ele>95.40000152587890625</ele>
        <time>2018-09-02T08:40:12.000Z</time>
      </trkpt>
      <trkpt lat="43.32842915318906307220458984375" lon="-1.91664998419582843780517578125">
        <ele>94</ele>
        <time>2018-09-02T08:40:14.000Z</time>
      </trkpt>
      <trkpt lat="43.3284451626241207122802734375" lon="-1.91680437885224819183349609375">
        <ele>92.59999847412109375</ele>
        <time>2018-09-02T08:40:16.000Z</time>
      </trkpt>
      <trkpt lat="43.32846921868622303009033203125" lon="-1.91695642657577991485595703125">
        <ele>91.40000152587890625</ele>
        <time>2018-09-02T08:40:18.000Z</time>
      </trkpt>
      <trkpt lat="43.32849855534732341766357421875" lon="-1.9171110726892948150634765625">
        <ele>89.40000152587890625</ele>
        <time>2018-09-02T08:40:20.000Z</time>
      </trkpt>
      <trkpt lat="43.32853208296000957489013671875" lon="-1.9172622822225093841552734375">
        <ele>87.8000030517578125</ele>
        <time>2018-09-02T08:40:22.000Z</time>
      </trkpt>
      <trkpt lat="43.32854951731860637664794921875" lon="-1.91733746789395809173583984375">
        <ele>87</ele>
        <time>2018-09-02T08:40:23.000Z</time>
      </trkpt>
      <trkpt lat="43.32856829278171062469482421875" lon="-1.917411647737026214599609375">
        <ele>86.1999969482421875</ele>
        <time>2018-09-02T08:40:24.000Z</time>
      </trkpt>
      <trkpt lat="43.32860165275633335113525390625" lon="-1.9175482727587223052978515625">
        <ele>83.8000030517578125</ele>
        <time>2018-09-02T08:40:26.000Z</time>
      </trkpt>
      <trkpt lat="43.328632079064846038818359375" lon="-1.91768581978976726531982421875">
        <ele>82</ele>
        <time>2018-09-02T08:40:28.000Z</time>
      </trkpt>
      <trkpt lat="43.3286496810615062713623046875" lon="-1.91776108928024768829345703125">
        <ele>81</ele>
        <time>2018-09-02T08:40:29.000Z</time>
      </trkpt>
      <trkpt lat="43.32866971381008625030517578125" lon="-1.9178397953510284423828125">
        <ele>80</ele>
        <time>2018-09-02T08:40:30.000Z</time>
      </trkpt>
      <trkpt lat="43.32868966273963451385498046875" lon="-1.917923949658870697021484375">
        <ele>78.8000030517578125</ele>
        <time>2018-09-02T08:40:31.000Z</time>
      </trkpt>
      <trkpt lat="43.32870106212794780731201171875" lon="-1.91801874898374080657958984375">
        <ele>77.59999847412109375</ele>
        <time>2018-09-02T08:40:32.000Z</time>
      </trkpt>
      <trkpt lat="43.3287140540778636932373046875" lon="-1.918115057051181793212890625">
        <ele>76.1999969482421875</ele>
        <time>2018-09-02T08:40:33.000Z</time>
      </trkpt>
      <trkpt lat="43.3287267945706844329833984375" lon="-1.91821035929024219512939453125">
        <ele>75</ele>
        <time>2018-09-02T08:40:34.000Z</time>
      </trkpt>
      <trkpt lat="43.32873458974063396453857421875" lon="-1.91829820163547992706298828125">
        <ele>73.8000030517578125</ele>
        <time>2018-09-02T08:40:35.000Z</time>
      </trkpt>
      <trkpt lat="43.3287502638995647430419921875" lon="-1.91843331791460514068603515625">
        <ele>72.1999969482421875</ele>
        <time>2018-09-02T08:40:37.000Z</time>
      </trkpt>
      <trkpt lat="43.328762836754322052001953125" lon="-1.91848696209490299224853515625">
        <ele>71.59999847412109375</ele>
        <time>2018-09-02T08:40:38.000Z</time>
      </trkpt>
      <trkpt lat="43.3287740685045719146728515625" lon="-1.91853582859039306640625">
        <ele>70.8000030517578125</ele>
        <time>2018-09-02T08:40:39.000Z</time>
      </trkpt>
      <trkpt lat="43.32879594527184963226318359375" lon="-1.91863716579973697662353515625">
        <ele>69.40000152587890625</ele>
        <time>2018-09-02T08:40:41.000Z</time>
      </trkpt>
      <trkpt lat="43.32881270907819271087646484375" lon="-1.91874261014163494110107421875">
        <ele>68.1999969482421875</ele>
        <time>2018-09-02T08:40:43.000Z</time>
      </trkpt>
      <trkpt lat="43.32881949841976165771484375" lon="-1.91879239864647388458251953125">
        <ele>67.40000152587890625</ele>
        <time>2018-09-02T08:40:44.000Z</time>
      </trkpt>
      <trkpt lat="43.3288270421326160430908203125" lon="-1.918837912380695343017578125">
        <ele>66.8000030517578125</ele>
        <time>2018-09-02T08:40:45.000Z</time>
      </trkpt>
      <trkpt lat="43.32882544957101345062255859375" lon="-1.91895551048219203948974609375">
        <ele>65.59999847412109375</ele>
        <time>2018-09-02T08:40:48.000Z</time>
      </trkpt>
      <trkpt lat="43.3288277126848697662353515625" lon="-1.91897344775497913360595703125">
        <ele>65.1999969482421875</ele>
        <time>2018-09-02T08:40:49.000Z</time>
      </trkpt>
      <trkpt lat="43.3288330771028995513916015625" lon="-1.91899825818836688995361328125">
        <ele>64.40000152587890625</ele>
        <time>2018-09-02T08:40:51.000Z</time>
      </trkpt>
      <trkpt lat="43.3288000524044036865234375" lon="-1.91908727400004863739013671875">
        <ele>63</ele>
        <time>2018-09-02T08:40:54.000Z</time>
      </trkpt>
      <trkpt lat="43.328762836754322052001953125" lon="-1.91916606388986110687255859375">
        <ele>61.59999847412109375</ele>
        <time>2018-09-02T08:40:57.000Z</time>
      </trkpt>
      <trkpt lat="43.32873056642711162567138671875" lon="-1.9192253239452838897705078125">
        <ele>60.799999237060546875</ele>
        <time>2018-09-02T08:40:59.000Z</time>
      </trkpt>
      <trkpt lat="43.3287127129733562469482421875" lon="-1.91925893537700176239013671875">
        <ele>60.200000762939453125</ele>
        <time>2018-09-02T08:41:00.000Z</time>
      </trkpt>
      <trkpt lat="43.328695781528949737548828125" lon="-1.91929422318935394287109375">
        <ele>59.59999847412109375</ele>
        <time>2018-09-02T08:41:01.000Z</time>
      </trkpt>
      <trkpt lat="43.32868161611258983612060546875" lon="-1.919332444667816162109375">
        <ele>59</ele>
        <time>2018-09-02T08:41:02.000Z</time>
      </trkpt>
      <trkpt lat="43.328649513423442840576171875" lon="-1.9194234721362590789794921875">
        <ele>57.799999237060546875</ele>
        <time>2018-09-02T08:41:04.000Z</time>
      </trkpt>
      <trkpt lat="43.3286071009933948516845703125" lon="-1.91954903304576873779296875">
        <ele>55.799999237060546875</ele>
        <time>2018-09-02T08:41:06.000Z</time>
      </trkpt>
      <trkpt lat="43.328556977212429046630859375" lon="-1.919674091041088104248046875">
        <ele>53.799999237060546875</ele>
        <time>2018-09-02T08:41:08.000Z</time>
      </trkpt>
      <trkpt lat="43.32853342406451702117919921875" lon="-1.9197346083819866180419921875">
        <ele>52.799999237060546875</ele>
        <time>2018-09-02T08:41:09.000Z</time>
      </trkpt>
      <trkpt lat="43.32851104438304901123046875" lon="-1.919796466827392578125">
        <ele>51.40000152587890625</ele>
        <time>2018-09-02T08:41:10.000Z</time>
      </trkpt>
      <trkpt lat="43.32848933525383472442626953125" lon="-1.919849775731563568115234375">
        <ele>50.40000152587890625</ele>
        <time>2018-09-02T08:41:11.000Z</time>
      </trkpt>
      <trkpt lat="43.32844994030892848968505859375" lon="-1.91992596723139286041259765625">
        <ele>48.59999847412109375</ele>
        <time>2018-09-02T08:41:13.000Z</time>
      </trkpt>
      <trkpt lat="43.3284344337880611419677734375" lon="-1.9199579022824764251708984375">
        <ele>47.40000152587890625</ele>
        <time>2018-09-02T08:41:14.000Z</time>
      </trkpt>
      <trkpt lat="43.328422866761684417724609375" lon="-1.919993944466114044189453125">
        <ele>47</ele>
        <time>2018-09-02T08:41:15.000Z</time>
      </trkpt>
      <trkpt lat="43.3284111320972442626953125" lon="-1.9200507737696170806884765625">
        <ele>46.40000152587890625</ele>
        <time>2018-09-02T08:41:17.000Z</time>
      </trkpt>
      <trkpt lat="43.32840316928923130035400390625" lon="-1.92010567523539066314697265625">
        <ele>46</ele>
        <time>2018-09-02T08:41:19.000Z</time>
      </trkpt>
      <trkpt lat="43.3284004032611846923828125" lon="-1.9201392866671085357666015625">
        <ele>45.59999847412109375</ele>
        <time>2018-09-02T08:41:20.000Z</time>
      </trkpt>
      <trkpt lat="43.32839629612863063812255859375" lon="-1.9201788492500782012939453125">
        <ele>45.200000762939453125</ele>
        <time>2018-09-02T08:41:21.000Z</time>
      </trkpt>
      <trkpt lat="43.32840316928923130035400390625" lon="-1.92027884535491466522216796875">
        <ele>44</ele>
        <time>2018-09-02T08:41:23.000Z</time>
      </trkpt>
      <trkpt lat="43.3284139819443225860595703125" lon="-1.92033567465841770172119140625">
        <ele>43.40000152587890625</ele>
        <time>2018-09-02T08:41:24.000Z</time>
      </trkpt>
      <trkpt lat="43.3284196816384792327880859375" lon="-1.92039652727544307708740234375">
        <ele>42.200000762939453125</ele>
        <time>2018-09-02T08:41:25.000Z</time>
      </trkpt>
      <trkpt lat="43.32842781208455562591552734375" lon="-1.920464336872100830078125">
        <ele>41.200000762939453125</ele>
        <time>2018-09-02T08:41:26.000Z</time>
      </trkpt>
      <trkpt lat="43.3284354396164417266845703125" lon="-1.9205342419445514678955078125">
        <ele>40.200000762939453125</ele>
        <time>2018-09-02T08:41:27.000Z</time>
      </trkpt>
      <trkpt lat="43.32844373770058155059814453125" lon="-1.9206777401268482208251953125">
        <ele>38.59999847412109375</ele>
        <time>2018-09-02T08:41:29.000Z</time>
      </trkpt>
      <trkpt lat="43.32843862473964691162109375" lon="-1.92073985002934932708740234375">
        <ele>37.59999847412109375</ele>
        <time>2018-09-02T08:41:30.000Z</time>
      </trkpt>
      <trkpt lat="43.32842789590358734130859375" lon="-1.9207967631518840789794921875">
        <ele>36.799999237060546875</ele>
        <time>2018-09-02T08:41:31.000Z</time>
      </trkpt>
      <trkpt lat="43.328412473201751708984375" lon="-1.92084797658026218414306640625">
        <ele>35.59999847412109375</ele>
        <time>2018-09-02T08:41:32.000Z</time>
      </trkpt>
      <trkpt lat="43.328375928103923797607421875" lon="-1.92089223302900791168212890625">
        <ele>35</ele>
        <time>2018-09-02T08:41:33.000Z</time>
      </trkpt>
      <trkpt lat="43.328337706625461578369140625" lon="-1.92092877812683582305908203125">
        <ele>34</ele>
        <time>2018-09-02T08:41:34.000Z</time>
      </trkpt>
      <trkpt lat="43.32830325700342655181884765625" lon="-1.92095995880663394927978515625">
        <ele>33.200000762939453125</ele>
        <time>2018-09-02T08:41:35.000Z</time>
      </trkpt>
      <trkpt lat="43.3282771892845630645751953125" lon="-1.92098476924002170562744140625">
        <ele>32.200000762939453125</ele>
        <time>2018-09-02T08:41:36.000Z</time>
      </trkpt>
      <trkpt lat="43.328231088817119598388671875" lon="-1.9210297800600528717041015625">
        <ele>30.6000003814697265625</ele>
        <time>2018-09-02T08:41:38.000Z</time>
      </trkpt>
      <trkpt lat="43.3281947113573551177978515625" lon="-1.92106456495821475982666015625">
        <ele>29.799999237060546875</ele>
        <time>2018-09-02T08:41:42.000Z</time>
      </trkpt>
      <trkpt lat="43.32802112214267253875732421875" lon="-1.92089457996189594268798828125">
        <ele>23.799999237060546875</ele>
        <time>2018-09-02T08:42:35.000Z</time>
      </trkpt>
      <trkpt lat="43.32801642827689647674560546875" lon="-1.92086172290146350860595703125">
        <ele>23.799999237060546875</ele>
        <time>2018-09-02T08:42:36.000Z</time>
      </trkpt>
      <trkpt lat="43.3280029334127902984619140625" lon="-1.9207434542477130889892578125">
        <ele>22.6000003814697265625</ele>
        <time>2018-09-02T08:42:39.000Z</time>
      </trkpt>
      <trkpt lat="43.32799631170928478240966796875" lon="-1.9206948392093181610107421875">
        <ele>22.200000762939453125</ele>
        <time>2018-09-02T08:42:40.000Z</time>
      </trkpt>
      <trkpt lat="43.32798491232097148895263671875" lon="-1.920649074018001556396484375">
        <ele>22</ele>
        <time>2018-09-02T08:42:41.000Z</time>
      </trkpt>
      <trkpt lat="43.3279482834041118621826171875" lon="-1.92055226303637027740478515625">
        <ele>21.6000003814697265625</ele>
        <time>2018-09-02T08:42:44.000Z</time>
      </trkpt>
      <trkpt lat="43.32793302834033966064453125" lon="-1.92047783173620700836181640625">
        <ele>21.3999996185302734375</ele>
        <time>2018-09-02T08:42:47.000Z</time>
      </trkpt>
      <trkpt lat="43.32785918377339839935302734375" lon="-1.9202311523258686065673828125">
        <ele>21</ele>
        <time>2018-09-02T08:43:01.000Z</time>
      </trkpt>
      <trkpt lat="43.32784811966121196746826171875" lon="-1.92020139656960964202880859375">
        <ele>21</ele>
        <time>2018-09-02T08:43:02.000Z</time>
      </trkpt>
      <trkpt lat="43.32776396535336971282958984375" lon="-1.92002370022237300872802734375">
        <ele>21.3999996185302734375</ele>
        <time>2018-09-02T08:43:10.000Z</time>
      </trkpt>
      <trkpt lat="43.3277159370481967926025390625" lon="-1.91996200941503047943115234375">
        <ele>20.200000762939453125</ele>
        <time>2018-09-02T08:43:13.000Z</time>
      </trkpt>
      <trkpt lat="43.3276968263089656829833984375" lon="-1.91993418149650096893310546875">
        <ele>18.200000762939453125</ele>
        <time>2018-09-02T08:43:14.000Z</time>
      </trkpt>
      <trkpt lat="43.32767042331397533416748046875" lon="-1.919881962239742279052734375">
        <ele>17.799999237060546875</ele>
        <time>2018-09-02T08:43:15.000Z</time>
      </trkpt>
      <trkpt lat="43.3275399170815944671630859375" lon="-1.9197382964193820953369140625">
        <ele>17.200000762939453125</ele>
        <time>2018-09-02T08:43:18.000Z</time>
      </trkpt>
      <trkpt lat="43.32744880579411983489990234375" lon="-1.919674091041088104248046875">
        <ele>16.799999237060546875</ele>
        <time>2018-09-02T08:43:20.000Z</time>
      </trkpt>
      <trkpt lat="43.327337242662906646728515625" lon="-1.91953939385712146759033203125">
        <ele>16.799999237060546875</ele>
        <time>2018-09-02T08:43:22.000Z</time>
      </trkpt>
      <trkpt lat="43.32723070867359638214111328125" lon="-1.9194194488227367401123046875">
        <ele>18</ele>
        <time>2018-09-02T08:43:25.000Z</time>
      </trkpt>
      <trkpt lat="43.32719718106091022491455078125" lon="-1.91939170472323894500732421875">
        <ele>18.200000762939453125</ele>
        <time>2018-09-02T08:43:26.000Z</time>
      </trkpt>
      <trkpt lat="43.327144123613834381103515625" lon="-1.9193500466644763946533203125">
        <ele>19</ele>
        <time>2018-09-02T08:43:28.000Z</time>
      </trkpt>
      <trkpt lat="43.3271102607250213623046875" lon="-1.919324062764644622802734375">
        <ele>19.3999996185302734375</ele>
        <time>2018-09-02T08:43:30.000Z</time>
      </trkpt>
      <trkpt lat="43.32709022797644138336181640625" lon="-1.91931609995663166046142578125">
        <ele>19.6000003814697265625</ele>
        <time>2018-09-02T08:43:31.000Z</time>
      </trkpt>
      <trkpt lat="43.32693013362586498260498046875" lon="-1.91923881880939006805419921875">
        <ele>17.6000003814697265625</ele>
        <time>2018-09-02T08:43:38.000Z</time>
      </trkpt>
      <trkpt lat="43.32685737870633602142333984375" lon="-1.9191991724073886871337890625">
        <ele>16.6000003814697265625</ele>
        <time>2018-09-02T08:43:40.000Z</time>
      </trkpt>
      <trkpt lat="43.32678412087261676788330078125" lon="-1.9191897846758365631103515625">
        <ele>15.3999996185302734375</ele>
        <time>2018-09-02T08:43:42.000Z</time>
      </trkpt>
      <trkpt lat="43.32672310061752796173095703125" lon="-1.9191924668848514556884765625">
        <ele>14.6000003814697265625</ele>
        <time>2018-09-02T08:43:44.000Z</time>
      </trkpt>
      <trkpt lat="43.32657105289399623870849609375" lon="-1.91924393177032470703125">
        <ele>14.80000019073486328125</ele>
        <time>2018-09-02T08:43:48.000Z</time>
      </trkpt>
      <trkpt lat="43.3265206776559352874755859375" lon="-1.91926597617566585540771484375">
        <ele>15</ele>
        <time>2018-09-02T08:43:49.000Z</time>
      </trkpt>
      <trkpt lat="43.3263614214956760406494140625" lon="-1.91929715685546398162841796875">
        <ele>15</ele>
        <time>2018-09-02T08:43:52.000Z</time>
      </trkpt>
      <trkpt lat="43.3262480981647968292236328125" lon="-1.91934526897966861724853515625">
        <ele>15.3999996185302734375</ele>
        <time>2018-09-02T08:43:55.000Z</time>
      </trkpt>
      <trkpt lat="43.3262212760746479034423828125" lon="-1.91936354152858257293701171875">
        <ele>15.6000003814697265625</ele>
        <time>2018-09-02T08:43:56.000Z</time>
      </trkpt>
      <trkpt lat="43.326159752905368804931640625" lon="-1.91942824982106685638427734375">
        <ele>16.3999996185302734375</ele>
        <time>2018-09-02T08:44:00.000Z</time>
      </trkpt>
      <trkpt lat="43.3261629380285739898681640625" lon="-1.919425986707210540771484375">
        <ele>16.6000003814697265625</ele>
        <time>2018-09-02T08:44:01.000Z</time>
      </trkpt>
      <trkpt lat="43.32614533603191375732421875" lon="-1.9193659722805023193359375">
        <ele>15.80000019073486328125</ele>
        <time>2018-09-02T08:48:09.000Z</time>
      </trkpt>
      <trkpt lat="43.3261545561254024505615234375" lon="-1.91934862174093723297119140625">
        <ele>15.80000019073486328125</ele>
        <time>2018-09-02T08:48:10.000Z</time>
      </trkpt>
      <trkpt lat="43.3261797018349170684814453125" lon="-1.91932029090821743011474609375">
        <ele>15.6000003814697265625</ele>
        <time>2018-09-02T08:48:12.000Z</time>
      </trkpt>
      <trkpt lat="43.32619135268032550811767578125" lon="-1.91931023262441158294677734375">
        <ele>15.3999996185302734375</ele>
        <time>2018-09-02T08:48:13.000Z</time>
      </trkpt>
      <trkpt lat="43.32623661495745182037353515625" lon="-1.91929196007549762725830078125">
        <ele>15.19999980926513671875</ele>
        <time>2018-09-02T08:48:16.000Z</time>
      </trkpt>
      <trkpt lat="43.32628640346229076385498046875" lon="-1.919269077479839324951171875">
        <ele>15.19999980926513671875</ele>
        <time>2018-09-02T08:48:21.000Z</time>
      </trkpt>
      <trkpt lat="43.32639788277447223663330078125" lon="-1.9192648865282535552978515625">
        <ele>15</ele>
        <time>2018-09-02T08:48:38.000Z</time>
      </trkpt>
      <trkpt lat="43.32643995992839336395263671875" lon="-1.919253654778003692626953125">
        <ele>15</ele>
        <time>2018-09-02T08:48:40.000Z</time>
      </trkpt>
      <trkpt lat="43.32646091468632221221923828125" lon="-1.91924057900905609130859375">
        <ele>15</ele>
        <time>2018-09-02T08:48:41.000Z</time>
      </trkpt>
      <trkpt lat="43.326486311852931976318359375" lon="-1.9192256592214107513427734375">
        <ele>15</ele>
        <time>2018-09-02T08:48:42.000Z</time>
      </trkpt>
      <trkpt lat="43.32656183280050754547119140625" lon="-1.91917930729687213897705078125">
        <ele>15</ele>
        <time>2018-09-02T08:48:45.000Z</time>
      </trkpt>
      <trkpt lat="43.3266460709273815155029296875" lon="-1.91910001449286937713623046875">
        <ele>15</ele>
        <time>2018-09-02T08:48:49.000Z</time>
      </trkpt>
      <trkpt lat="43.3267278783023357391357421875" lon="-1.91904620267450809478759765625">
        <ele>16.200000762939453125</ele>
        <time>2018-09-02T08:48:54.000Z</time>
      </trkpt>
      <trkpt lat="43.32674891687929630279541015625" lon="-1.91904335282742977142333984375">
        <ele>16.6000003814697265625</ele>
        <time>2018-09-02T08:48:56.000Z</time>
      </trkpt>
      <trkpt lat="43.32676501013338565826416015625" lon="-1.91904871724545955657958984375">
        <ele>16.799999237060546875</ele>
        <time>2018-09-02T08:48:57.000Z</time>
      </trkpt>
      <trkpt lat="43.32679350860416889190673828125" lon="-1.91905609332025051116943359375">
        <ele>17.200000762939453125</ele>
        <time>2018-09-02T08:48:59.000Z</time>
      </trkpt>
      <trkpt lat="43.32682334817945957183837890625" lon="-1.91905776970088481903076171875">
        <ele>17.799999237060546875</ele>
        <time>2018-09-02T08:49:01.000Z</time>
      </trkpt>
      <trkpt lat="43.326863162219524383544921875" lon="-1.919063888490200042724609375">
        <ele>18.3999996185302734375</ele>
        <time>2018-09-02T08:49:03.000Z</time>
      </trkpt>
      <trkpt lat="43.326886631548404693603515625" lon="-1.9190667383372783660888671875">
        <ele>18.6000003814697265625</ele>
        <time>2018-09-02T08:49:04.000Z</time>
      </trkpt>
      <trkpt lat="43.32691420800983905792236328125" lon="-1.919067911803722381591796875">
        <ele>18.799999237060546875</ele>
        <time>2018-09-02T08:49:05.000Z</time>
      </trkpt>
      <trkpt lat="43.32695695571601390838623046875" lon="-1.91908123902976512908935546875">
        <ele>19.200000762939453125</ele>
        <time>2018-09-02T08:49:07.000Z</time>
      </trkpt>
      <trkpt lat="43.3270138688385486602783203125" lon="-1.91910236142575740814208984375">
        <ele>19.6000003814697265625</ele>
        <time>2018-09-02T08:49:10.000Z</time>
      </trkpt>
      <trkpt lat="43.3270329795777797698974609375" lon="-1.9191166944801807403564453125">
        <ele>19.799999237060546875</ele>
        <time>2018-09-02T08:49:11.000Z</time>
      </trkpt>
      <trkpt lat="43.3270512521266937255859375" lon="-1.919124238193035125732421875">
        <ele>19.799999237060546875</ele>
        <time>2018-09-02T08:49:12.000Z</time>
      </trkpt>
      <trkpt lat="43.32706994377076625823974609375" lon="-1.919135637581348419189453125">
        <ele>20</ele>
        <time>2018-09-02T08:49:13.000Z</time>
      </trkpt>
      <trkpt lat="43.32718946970999240875244140625" lon="-1.9192291796207427978515625">
        <ele>18.6000003814697265625</ele>
        <time>2018-09-02T08:49:18.000Z</time>
      </trkpt>
      <trkpt lat="43.32722031511366367340087890625" lon="-1.9192622043192386627197265625">
        <ele>18.200000762939453125</ele>
        <time>2018-09-02T08:49:19.000Z</time>
      </trkpt>
      <trkpt lat="43.32727077417075634002685546875" lon="-1.919287852942943572998046875">
        <ele>17.799999237060546875</ele>
        <time>2018-09-02T08:49:20.000Z</time>
      </trkpt>
      <trkpt lat="43.32732475362718105316162109375" lon="-1.91932749934494495391845703125">
        <ele>17.3999996185302734375</ele>
        <time>2018-09-02T08:49:21.000Z</time>
      </trkpt>
      <trkpt lat="43.3274245820939540863037109375" lon="-1.9194103963673114776611328125">
        <ele>16.799999237060546875</ele>
        <time>2018-09-02T08:49:23.000Z</time>
      </trkpt>
      <trkpt lat="43.32764008082449436187744140625" lon="-1.91963997669517993927001953125">
        <ele>17.6000003814697265625</ele>
        <time>2018-09-02T08:49:29.000Z</time>
      </trkpt>
      <trkpt lat="43.32771367393434047698974609375" lon="-1.9197798706591129302978515625">
        <ele>18.6000003814697265625</ele>
        <time>2018-09-02T08:49:32.000Z</time>
      </trkpt>
      <trkpt lat="43.3277544938027858734130859375" lon="-1.91984583623707294464111328125">
        <ele>20</ele>
        <time>2018-09-02T08:49:34.000Z</time>
      </trkpt>
      <trkpt lat="43.3277886919677257537841796875" lon="-1.9198881648480892181396484375">
        <ele>21.200000762939453125</ele>
        <time>2018-09-02T08:49:36.000Z</time>
      </trkpt>
      <trkpt lat="43.3278103172779083251953125" lon="-1.9199401326477527618408203125">
        <ele>21.799999237060546875</ele>
        <time>2018-09-02T08:49:38.000Z</time>
      </trkpt>
      <trkpt lat="43.32782029174268245697021484375" lon="-1.919969804584980010986328125">
        <ele>21.6000003814697265625</ele>
        <time>2018-09-02T08:49:39.000Z</time>
      </trkpt>
      <trkpt lat="43.32784862257540225982666015625" lon="-1.92007315345108509063720703125">
        <ele>21.200000762939453125</ele>
        <time>2018-09-02T08:49:41.000Z</time>
      </trkpt>
      <trkpt lat="43.3278654702007770538330078125" lon="-1.92016267217695713043212890625">
        <ele>21.200000762939453125</ele>
        <time>2018-09-02T08:49:43.000Z</time>
      </trkpt>
      <trkpt lat="43.3278772048652172088623046875" lon="-1.920237354934215545654296875">
        <ele>21</ele>
        <time>2018-09-02T08:49:45.000Z</time>
      </trkpt>
      <trkpt lat="43.3278869278728961944580078125" lon="-1.92032377235591411590576171875">
        <ele>20.3999996185302734375</ele>
        <time>2018-09-02T08:49:47.000Z</time>
      </trkpt>
      <trkpt lat="43.3278916217386722564697265625" lon="-1.92037741653621196746826171875">
        <ele>20</ele>
        <time>2018-09-02T08:49:48.000Z</time>
      </trkpt>
      <trkpt lat="43.3279030211269855499267578125" lon="-1.92043776623904705047607421875">
        <ele>19.799999237060546875</ele>
        <time>2018-09-02T08:49:49.000Z</time>
      </trkpt>
      <trkpt lat="43.32793612964451313018798828125" lon="-1.9206534326076507568359375">
        <ele>18.799999237060546875</ele>
        <time>2018-09-02T08:49:52.000Z</time>
      </trkpt>
      <trkpt lat="43.3279610238969326019287109375" lon="-1.92085166461765766143798828125">
        <ele>18</ele>
        <time>2018-09-02T08:49:55.000Z</time>
      </trkpt>
      <trkpt lat="43.327988684177398681640625" lon="-1.92093732766807079315185546875">
        <ele>18</ele>
        <time>2018-09-02T08:49:58.000Z</time>
      </trkpt>
      <trkpt lat="43.328014500439167022705078125" lon="-1.921003125607967376708984375">
        <ele>17.6000003814697265625</ele>
        <time>2018-09-02T08:50:01.000Z</time>
      </trkpt>
      <trkpt lat="43.3280289173126220703125" lon="-1.92103631794452667236328125">
        <ele>16.200000762939453125</ele>
        <time>2018-09-02T08:50:04.000Z</time>
      </trkpt>
      <trkpt lat="43.32831381820142269134521484375" lon="-1.92151844501495361328125">
        <ele>4</ele>
        <time>2018-09-02T08:50:55.000Z</time>
      </trkpt>
      <trkpt lat="43.32830945961177349090576171875" lon="-1.9215102307498455047607421875">
        <ele>3.599999904632568359375</ele>
        <time>2018-09-02T08:50:56.000Z</time>
      </trkpt>
      <trkpt lat="43.3282678015530109405517578125" lon="-1.92147351801395416259765625">
        <ele>2.7999999523162841796875</ele>
        <time>2018-09-02T08:51:13.000Z</time>
      </trkpt>
      <trkpt lat="43.32823276519775390625" lon="-1.9214420020580291748046875">
        <ele>2.2000000476837158203125</ele>
        <time>2018-09-02T08:51:15.000Z</time>
      </trkpt>
      <trkpt lat="43.32821407355368137359619140625" lon="-1.9214264117181301116943359375">
        <ele>1.7999999523162841796875</ele>
        <time>2018-09-02T08:51:16.000Z</time>
      </trkpt>
      <trkpt lat="43.3281521312892436981201171875" lon="-1.9213704206049442291259765625">
        <ele>0.800000011920928955078125</ele>
        <time>2018-09-02T08:51:21.000Z</time>
      </trkpt>
      <trkpt lat="43.328153304755687713623046875" lon="-1.9213861785829067230224609375">
        <ele>0.800000011920928955078125</ele>
        <time>2018-09-02T08:51:22.000Z</time>
      </trkpt>
      <trkpt lat="43.32816101610660552978515625" lon="-1.92139883525669574737548828125">
        <ele>0.60000002384185791015625</ele>
        <time>2018-09-02T08:51:23.000Z</time>
      </trkpt>
      <trkpt lat="43.32817970775067806243896484375" lon="-1.92143504507839679718017578125">
        <ele>0.20000000298023223876953125</ele>
        <time>2018-09-02T08:51:25.000Z</time>
      </trkpt>
      <trkpt lat="43.32821005024015903472900390625" lon="-1.92148634232580661773681640625">
        <ele>-0.60000002384185791015625</ele>
        <time>2018-09-02T08:51:28.000Z</time>
      </trkpt>
      <trkpt lat="43.32823536358773708343505859375" lon="-1.92153730429708957672119140625">
        <ele>-1.7999999523162841796875</ele>
        <time>2018-09-02T08:51:31.000Z</time>
      </trkpt>
      <trkpt lat="43.328235447406768798828125" lon="-1.9215444289147853851318359375">
        <ele>-2.400000095367431640625</ele>
        <time>2018-09-02T08:51:33.000Z</time>
      </trkpt>
      <trkpt lat="43.3282148279249668121337890625" lon="-1.92156714387238025665283203125">
        <ele>-2.599999904632568359375</ele>
        <time>2018-09-02T08:51:34.000Z</time>
      </trkpt>
      <trkpt lat="43.32819521427154541015625" lon="-1.921538896858692169189453125">
        <ele>-3</ele>
        <time>2018-09-02T08:51:36.000Z</time>
      </trkpt>
      <trkpt lat="43.3281846530735492706298828125" lon="-1.921527497470378875732421875">
        <ele>-3.2000000476837158203125</ele>
        <time>2018-09-02T08:51:37.000Z</time>
      </trkpt>
      <trkpt lat="43.32815808244049549102783203125" lon="-1.92149321548640727996826171875">
        <ele>-4.400000095367431640625</ele>
        <time>2018-09-02T08:51:40.000Z</time>
      </trkpt>
      <trkpt lat="43.32811801694333553314208984375" lon="-1.92144191823899745941162109375">
        <ele>-5.599999904632568359375</ele>
        <time>2018-09-02T08:51:44.000Z</time>
      </trkpt>
      <trkpt lat="43.32809203304350376129150390625" lon="-1.9214227236807346343994140625">
        <ele>-6.19999980926513671875</ele>
        <time>2018-09-02T08:51:46.000Z</time>
      </trkpt>
      <trkpt lat="43.32807744853198528289794921875" lon="-1.92141450941562652587890625">
        <ele>-6.599999904632568359375</ele>
        <time>2018-09-02T08:51:47.000Z</time>
      </trkpt>
      <trkpt lat="43.32806051708757877349853515625" lon="-1.9214165210723876953125">
        <ele>-7.19999980926513671875</ele>
        <time>2018-09-02T08:51:48.000Z</time>
      </trkpt>
      <trkpt lat="43.32804056815803050994873046875" lon="-1.92141358740627765655517578125">
        <ele>-7.80000019073486328125</ele>
        <time>2018-09-02T08:51:49.000Z</time>
      </trkpt>
      <trkpt lat="43.328003101050853729248046875" lon="-1.92139497958123683929443359375">
        <ele>-8.6000003814697265625</ele>
        <time>2018-09-02T08:51:51.000Z</time>
      </trkpt>
      <trkpt lat="43.3279774524271488189697265625" lon="-1.92137771286070346832275390625">
        <ele>-8.80000019073486328125</ele>
        <time>2018-09-02T08:51:52.000Z</time>
      </trkpt>
      <trkpt lat="43.3279167674481868743896484375" lon="-1.92130696959793567657470703125">
        <ele>-9.80000019073486328125</ele>
        <time>2018-09-02T08:51:55.000Z</time>
      </trkpt>
      <trkpt lat="43.3278666436672210693359375" lon="-1.92124896682798862457275390625">
        <ele>-9.80000019073486328125</ele>
        <time>2018-09-02T08:51:58.000Z</time>
      </trkpt>
      <trkpt lat="43.32785130478441715240478515625" lon="-1.92122817970812320709228515625">
        <ele>-9.80000019073486328125</ele>
        <time>2018-09-02T08:51:59.000Z</time>
      </trkpt>
      <trkpt lat="43.32782171666622161865234375" lon="-1.92115374840795993804931640625">
        <ele>-9.80000019073486328125</ele>
        <time>2018-09-02T08:52:03.000Z</time>
      </trkpt>
      <trkpt lat="43.32782934419810771942138671875" lon="-1.92114469595253467559814453125">
        <ele>-9.80000019073486328125</ele>
        <time>2018-09-02T08:52:04.000Z</time>
      </trkpt>
      <trkpt lat="43.32783554680645465850830078125" lon="-1.9211441092193126678466796875">
        <ele>-9.6000003814697265625</ele>
        <time>2018-09-02T08:52:05.000Z</time>
      </trkpt>
      <trkpt lat="43.32784627564251422882080078125" lon="-1.9211494736373424530029296875">
        <ele>-9.6000003814697265625</ele>
        <time>2018-09-02T08:52:06.000Z</time>
      </trkpt>
      <trkpt lat="43.32787645049393177032470703125" lon="-1.9212014414370059967041015625">
        <ele>-9.6000003814697265625</ele>
        <time>2018-09-02T08:52:09.000Z</time>
      </trkpt>
      <trkpt lat="43.327925987541675567626953125" lon="-1.9212668202817440032958984375">
        <ele>-9.6000003814697265625</ele>
        <time>2018-09-02T08:52:13.000Z</time>
      </trkpt>
      <trkpt lat="43.3279459364712238311767578125" lon="-1.9212842546403408050537109375">
        <ele>-9.6000003814697265625</ele>
        <time>2018-09-02T08:52:15.000Z</time>
      </trkpt>
      <trkpt lat="43.3278966508805751800537109375" lon="-1.921251229941844940185546875">
        <ele>-9.80000019073486328125</ele>
        <time>2018-09-02T08:53:07.000Z</time>
      </trkpt>
      <trkpt lat="43.3278698287904262542724609375" lon="-1.92121761851012706756591796875">
        <ele>-9.6000003814697265625</ele>
        <time>2018-09-02T08:53:09.000Z</time>
      </trkpt>
      <trkpt lat="43.327795900404453277587890625" lon="-1.921066157519817352294921875">
        <ele>-10</ele>
        <time>2018-09-02T08:53:17.000Z</time>
      </trkpt>
      <trkpt lat="43.32772054709494113922119140625" lon="-1.92088938318192958831787109375">
        <ele>-10.19999980926513671875</ele>
        <time>2018-09-02T08:53:23.000Z</time>
      </trkpt>
      <trkpt lat="43.32769473083317279815673828125" lon="-1.9207528419792652130126953125">
        <ele>-10</ele>
        <time>2018-09-02T08:53:29.000Z</time>
      </trkpt>
      <trkpt lat="43.32771937362849712371826171875" lon="-1.9206747226417064666748046875">
        <ele>-10.19999980926513671875</ele>
        <time>2018-09-02T08:53:34.000Z</time>
      </trkpt>
      <trkpt lat="43.327671177685260772705078125" lon="-1.92063105292618274688720703125">
        <ele>-10.19999980926513671875</ele>
        <time>2018-09-02T08:53:37.000Z</time>
      </trkpt>
      <trkpt lat="43.3276539109647274017333984375" lon="-1.92061361856758594512939453125">
        <ele>-10</ele>
        <time>2018-09-02T08:53:38.000Z</time>
      </trkpt>
      <trkpt lat="43.32753698341548442840576171875" lon="-1.92040306515991687774658203125">
        <ele>-10.19999980926513671875</ele>
        <time>2018-09-02T08:53:46.000Z</time>
      </trkpt>
      <trkpt lat="43.3274550922214984893798828125" lon="-1.92023593001067638397216796875">
        <ele>-10.6000003814697265625</ele>
        <time>2018-09-02T08:53:52.000Z</time>
      </trkpt>
      <trkpt lat="43.327390886843204498291015625" lon="-1.920211203396320343017578125">
        <ele>-10.6000003814697265625</ele>
        <time>2018-09-02T08:53:56.000Z</time>
      </trkpt>
      <trkpt lat="43.327319808304309844970703125" lon="-1.9201808609068393707275390625">
        <ele>-10.3999996185302734375</ele>
        <time>2018-09-02T08:54:00.000Z</time>
      </trkpt>
      <trkpt lat="43.327264152467250823974609375" lon="-1.920164935290813446044921875">
        <ele>-10.3999996185302734375</ele>
        <time>2018-09-02T08:54:03.000Z</time>
      </trkpt>
      <trkpt lat="43.32721712999045848846435546875" lon="-1.92016057670116424560546875">
        <ele>-10.3999996185302734375</ele>
        <time>2018-09-02T08:54:06.000Z</time>
      </trkpt>
      <trkpt lat="43.32716591656208038330078125" lon="-1.920125372707843780517578125">
        <ele>-10.3999996185302734375</ele>
        <time>2018-09-02T08:54:11.000Z</time>
      </trkpt>
      <trkpt lat="43.32715828903019428253173828125" lon="-1.9201134704053401947021484375">
        <ele>-10.3999996185302734375</ele>
        <time>2018-09-02T08:54:12.000Z</time>
      </trkpt>
      <trkpt lat="43.327152840793132781982421875" lon="-1.9200745783746242523193359375">
        <ele>-10.6000003814697265625</ele>
        <time>2018-09-02T08:54:31.000Z</time>
      </trkpt>
      <trkpt lat="43.3271556906402111053466796875" lon="-1.920050941407680511474609375">
        <ele>-10.6000003814697265625</ele>
        <time>2018-09-02T08:54:32.000Z</time>
      </trkpt>
      <trkpt lat="43.32717522047460079193115234375" lon="-1.9200152345001697540283203125">
        <ele>-10.6000003814697265625</ele>
        <time>2018-09-02T08:54:34.000Z</time>
      </trkpt>
      <trkpt lat="43.327169604599475860595703125" lon="-1.919963769614696502685546875">
        <ele>-10.6000003814697265625</ele>
        <time>2018-09-02T08:54:36.000Z</time>
      </trkpt>
      <trkpt lat="43.32714169286191463470458984375" lon="-1.9199002347886562347412109375">
        <ele>-10.3999996185302734375</ele>
        <time>2018-09-02T08:54:40.000Z</time>
      </trkpt>
      <trkpt lat="43.32713817246258258819580078125" lon="-1.919884979724884033203125">
        <ele>-10.3999996185302734375</ele>
        <time>2018-09-02T08:54:41.000Z</time>
      </trkpt>
      <trkpt lat="43.32709215581417083740234375" lon="-1.9197895936667919158935546875">
        <ele>-10.19999980926513671875</ele>
        <time>2018-09-02T08:54:53.000Z</time>
      </trkpt>
      <trkpt lat="43.32707530818879604339599609375" lon="-1.919771321117877960205078125">
        <ele>-10.19999980926513671875</ele>
        <time>2018-09-02T08:54:54.000Z</time>
      </trkpt>
      <trkpt lat="43.3270202390849590301513671875" lon="-1.919743157923221588134765625">
        <ele>-10.19999980926513671875</ele>
        <time>2018-09-02T08:54:57.000Z</time>
      </trkpt>
      <trkpt lat="43.327001631259918212890625" lon="-1.919736452400684356689453125">
        <ele>-10.19999980926513671875</ele>
        <time>2018-09-02T08:54:58.000Z</time>
      </trkpt>
      <trkpt lat="43.3269662596285343170166015625" lon="-1.9197268970310688018798828125">
        <ele>-10</ele>
        <time>2018-09-02T08:55:00.000Z</time>
      </trkpt>
      <trkpt lat="43.32690532319247722625732421875" lon="-1.9196983985602855682373046875">
        <ele>-10</ele>
        <time>2018-09-02T08:55:05.000Z</time>
      </trkpt>
      <trkpt lat="43.32679384388029575347900390625" lon="-1.919675432145595550537109375">
        <ele>-10</ele>
        <time>2018-09-02T08:55:10.000Z</time>
      </trkpt>
      <trkpt lat="43.3267106115818023681640625" lon="-1.91966830752789974212646484375">
        <ele>-10</ele>
        <time>2018-09-02T08:55:18.000Z</time>
      </trkpt>
      <trkpt lat="43.32662067376077175140380859375" lon="-1.9196829758584499359130859375">
        <ele>-10.19999980926513671875</ele>
        <time>2018-09-02T08:55:31.000Z</time>
      </trkpt>
      <trkpt lat="43.3266081847250461578369140625" lon="-1.9196702353656291961669921875">
        <ele>-10.19999980926513671875</ele>
        <time>2018-09-02T08:55:32.000Z</time>
      </trkpt>
      <trkpt lat="43.32652109675109386444091796875" lon="-1.91974357701838016510009765625">
        <ele>-10.19999980926513671875</ele>
        <time>2018-09-02T08:55:37.000Z</time>
      </trkpt>
      <trkpt lat="43.3263379521667957305908203125" lon="-1.91995480097830295562744140625">
        <ele>-10</ele>
        <time>2018-09-02T08:55:42.000Z</time>
      </trkpt>
      <trkpt lat="43.32636754028499126434326171875" lon="-1.9202227704226970672607421875">
        <ele>-11.80000019073486328125</ele>
        <time>2018-09-02T08:57:46.000Z</time>
      </trkpt>
      <trkpt lat="43.32640291191637516021728515625" lon="-1.92025118507444858551025390625">
        <ele>-12</ele>
        <time>2018-09-02T08:57:49.000Z</time>
      </trkpt>
      <trkpt lat="43.326425962150096893310546875" lon="-1.920281611382961273193359375">
        <ele>-11.80000019073486328125</ele>
        <time>2018-09-02T08:57:51.000Z</time>
      </trkpt>
      <trkpt lat="43.3265200071036815643310546875" lon="-1.9203749857842922210693359375">
        <ele>-11.6000003814697265625</ele>
        <time>2018-09-02T08:57:57.000Z</time>
      </trkpt>
      <trkpt lat="43.32660357467830181121826171875" lon="-1.92046022973954677581787109375">
        <ele>-11.80000019073486328125</ele>
        <time>2018-09-02T08:58:02.000Z</time>
      </trkpt>
      <trkpt lat="43.32663307897746562957763671875" lon="-1.92050716839730739593505859375">
        <ele>-11.80000019073486328125</ele>
        <time>2018-09-02T08:58:04.000Z</time>
      </trkpt>
      <trkpt lat="43.326698876917362213134765625" lon="-1.92070079036056995391845703125">
        <ele>-11.6000003814697265625</ele>
        <time>2018-09-02T08:58:11.000Z</time>
      </trkpt>
      <trkpt lat="43.32672066986560821533203125" lon="-1.92095526494085788726806640625">
        <ele>-11.6000003814697265625</ele>
        <time>2018-09-02T08:58:19.000Z</time>
      </trkpt>
      <trkpt lat="43.3266715519130229949951171875" lon="-1.92120387218892574310302734375">
        <ele>-11.3999996185302734375</ele>
        <time>2018-09-02T08:58:27.000Z</time>
      </trkpt>
      <trkpt lat="43.326661325991153717041015625" lon="-1.92123119719326496124267578125">
        <ele>-11.3999996185302734375</ele>
        <time>2018-09-02T08:58:28.000Z</time>
      </trkpt>
      <trkpt lat="43.326543308794498443603515625" lon="-1.92141073755919933319091796875">
        <ele>-11.3999996185302734375</ele>
        <time>2018-09-02T08:58:36.000Z</time>
      </trkpt>
      <trkpt lat="43.326397128403186798095703125" lon="-1.921540908515453338623046875">
        <ele>-11.19999980926513671875</ele>
        <time>2018-09-02T08:58:45.000Z</time>
      </trkpt>
      <trkpt lat="43.32632982172071933746337890625" lon="-1.9215913675725460052490234375">
        <ele>-11.3999996185302734375</ele>
        <time>2018-09-02T08:58:52.000Z</time>
      </trkpt>
      <trkpt lat="43.32637005485594272613525390625" lon="-1.92166521213948726654052734375">
        <ele>-8.6000003814697265625</ele>
        <time>2018-09-02T09:02:22.000Z</time>
      </trkpt>
      <trkpt lat="43.3263278938829898834228515625" lon="-1.92167258821427822113037109375">
        <ele>-8.3999996185302734375</ele>
        <time>2018-09-02T09:02:24.000Z</time>
      </trkpt>
      <trkpt lat="43.32630492746829986572265625" lon="-1.92167744971811771392822265625">
        <ele>-8.6000003814697265625</ele>
        <time>2018-09-02T09:02:25.000Z</time>
      </trkpt>
      <trkpt lat="43.3262412250041961669921875" lon="-1.9216994941234588623046875">
        <ele>-8.80000019073486328125</ele>
        <time>2018-09-02T09:02:28.000Z</time>
      </trkpt>
      <trkpt lat="43.32617023028433322906494140625" lon="-1.921707876026630401611328125">
        <ele>-8.6000003814697265625</ele>
        <time>2018-09-02T09:02:31.000Z</time>
      </trkpt>
      <trkpt lat="43.3261247165501117706298828125" lon="-1.9217362068593502044677734375">
        <ele>-8.6000003814697265625</ele>
        <time>2018-09-02T09:02:33.000Z</time>
      </trkpt>
      <trkpt lat="43.32601566798985004425048828125" lon="-1.9218190200626850128173828125">
        <ele>-8.80000019073486328125</ele>
        <time>2018-09-02T09:02:38.000Z</time>
      </trkpt>
      <trkpt lat="43.32593805156648159027099609375" lon="-1.92185967229306697845458984375">
        <ele>-8.6000003814697265625</ele>
        <time>2018-09-02T09:02:41.000Z</time>
      </trkpt>
      <trkpt lat="43.32585255615413188934326171875" lon="-1.92190258763730525970458984375">
        <ele>-8.6000003814697265625</ele>
        <time>2018-09-02T09:02:44.000Z</time>
      </trkpt>
      <trkpt lat="43.325739987194538116455078125" lon="-1.9219729118049144744873046875">
        <ele>-8.6000003814697265625</ele>
        <time>2018-09-02T09:02:48.000Z</time>
      </trkpt>
      <trkpt lat="43.3256177790462970733642578125" lon="-1.922062598168849945068359375">
        <ele>-8.80000019073486328125</ele>
        <time>2018-09-02T09:02:52.000Z</time>
      </trkpt>
      <trkpt lat="43.3255118317902088165283203125" lon="-1.92219444550573825836181640625">
        <ele>-8.80000019073486328125</ele>
        <time>2018-09-02T09:02:56.000Z</time>
      </trkpt>
      <trkpt lat="43.32548618316650390625" lon="-1.92222780548036098480224609375">
        <ele>-8.80000019073486328125</ele>
        <time>2018-09-02T09:02:57.000Z</time>
      </trkpt>
      <trkpt lat="43.325370512902736663818359375" lon="-1.9224075973033905029296875">
        <ele>-8.80000019073486328125</ele>
        <time>2018-09-02T09:03:02.000Z</time>
      </trkpt>
      <trkpt lat="43.32528300583362579345703125" lon="-1.9225636683404445648193359375">
        <ele>-8.80000019073486328125</ele>
        <time>2018-09-02T09:03:06.000Z</time>
      </trkpt>
      <trkpt lat="43.325230367481708526611328125" lon="-1.92268453538417816162109375">
        <ele>-8.6000003814697265625</ele>
        <time>2018-09-02T09:03:09.000Z</time>
      </trkpt>
      <trkpt lat="43.3251815848052501678466796875" lon="-1.92298636771738529205322265625">
        <ele>-8.6000003814697265625</ele>
        <time>2018-09-02T09:03:15.000Z</time>
      </trkpt>
      <trkpt lat="43.32514110021293163299560546875" lon="-1.92336522974073886871337890625">
        <ele>-8.6000003814697265625</ele>
        <time>2018-09-02T09:03:22.000Z</time>
      </trkpt>
      <trkpt lat="43.3251004479825496673583984375" lon="-1.9237498752772808074951171875">
        <ele>-8.3999996185302734375</ele>
        <time>2018-09-02T09:03:29.000Z</time>
      </trkpt>
      <trkpt lat="43.3250732906162738800048828125" lon="-1.92391357384622097015380859375">
        <ele>-8.80000019073486328125</ele>
        <time>2018-09-02T09:03:32.000Z</time>
      </trkpt>
      <trkpt lat="43.32506918348371982574462890625" lon="-1.9240207783877849578857421875">
        <ele>-8.6000003814697265625</ele>
        <time>2018-09-02T09:03:34.000Z</time>
      </trkpt>
      <trkpt lat="43.32506231032311916351318359375" lon="-1.92412630654871463775634765625">
        <ele>-8.6000003814697265625</ele>
        <time>2018-09-02T09:03:36.000Z</time>
      </trkpt>
      <trkpt lat="43.32504604943096637725830078125" lon="-1.92440961487591266632080078125">
        <ele>-8.6000003814697265625</ele>
        <time>2018-09-02T09:03:41.000Z</time>
      </trkpt>
      <trkpt lat="43.325070776045322418212890625" lon="-1.92485519684851169586181640625">
        <ele>-8.80000019073486328125</ele>
        <time>2018-09-02T09:03:49.000Z</time>
      </trkpt>
      <trkpt lat="43.3251255936920642852783203125" lon="-1.9253005273640155792236328125">
        <ele>-9.19999980926513671875</ele>
        <time>2018-09-02T09:03:57.000Z</time>
      </trkpt>
      <trkpt lat="43.32518720068037509918212890625" lon="-1.92561618983745574951171875">
        <ele>-9</ele>
        <time>2018-09-02T09:04:04.000Z</time>
      </trkpt>
      <trkpt lat="43.32519038580358028411865234375" lon="-1.92581274546682834625244140625">
        <ele>-8.3999996185302734375</ele>
        <time>2018-09-02T09:04:09.000Z</time>
      </trkpt>
      <trkpt lat="43.3251535892486572265625" lon="-1.9260210357606410980224609375">
        <ele>-8.3999996185302734375</ele>
        <time>2018-09-02T09:04:14.000Z</time>
      </trkpt>
      <trkpt lat="43.3250216580927371978759765625" lon="-1.9260924495756626129150390625">
        <ele>-8.6000003814697265625</ele>
        <time>2018-09-02T09:04:18.000Z</time>
      </trkpt>
      <trkpt lat="43.3248330652713775634765625" lon="-1.9261464290320873260498046875">
        <ele>-8.3999996185302734375</ele>
        <time>2018-09-02T09:04:23.000Z</time>
      </trkpt>
      <trkpt lat="43.3247525990009307861328125" lon="-1.926166713237762451171875">
        <ele>-8.3999996185302734375</ele>
        <time>2018-09-02T09:04:25.000Z</time>
      </trkpt>
      <trkpt lat="43.3244775049388408660888671875" lon="-1.9262486882507801055908203125">
        <ele>-8.80000019073486328125</ele>
        <time>2018-09-02T09:04:32.000Z</time>
      </trkpt>
      <trkpt lat="43.32443467341363430023193359375" lon="-1.926262266933917999267578125">
        <ele>-9</ele>
        <time>2018-09-02T09:04:33.000Z</time>
      </trkpt>
      <trkpt lat="43.3240346051752567291259765625" lon="-1.926367543637752532958984375">
        <ele>-9</ele>
        <time>2018-09-02T09:04:43.000Z</time>
      </trkpt>
      <trkpt lat="43.32381642423570156097412109375" lon="-1.9264458306133747100830078125">
        <ele>-8.80000019073486328125</ele>
        <time>2018-09-02T09:04:49.000Z</time>
      </trkpt>
      <trkpt lat="43.32374651916325092315673828125" lon="-1.926488913595676422119140625">
        <ele>-8.80000019073486328125</ele>
        <time>2018-09-02T09:04:51.000Z</time>
      </trkpt>
      <trkpt lat="43.3235648833215236663818359375" lon="-1.92662092857062816619873046875">
        <ele>-8.80000019073486328125</ele>
        <time>2018-09-02T09:04:56.000Z</time>
      </trkpt>
      <trkpt lat="43.3233476243913173675537109375" lon="-1.92685134708881378173828125">
        <ele>-8.80000019073486328125</ele>
        <time>2018-09-02T09:05:03.000Z</time>
      </trkpt>
      <trkpt lat="43.32322977483272552490234375" lon="-1.92705645225942134857177734375">
        <ele>-9</ele>
        <time>2018-09-02T09:05:08.000Z</time>
      </trkpt>
      <trkpt lat="43.32313514314591884613037109375" lon="-1.92730925045907497406005859375">
        <ele>-9</ele>
        <time>2018-09-02T09:05:13.000Z</time>
      </trkpt>
      <trkpt lat="43.32311804406344890594482421875" lon="-1.927368678152561187744140625">
        <ele>-8.80000019073486328125</ele>
        <time>2018-09-02T09:05:14.000Z</time>
      </trkpt>
      <trkpt lat="43.32301662303507328033447265625" lon="-1.92775432951748371124267578125">
        <ele>-8.80000019073486328125</ele>
        <time>2018-09-02T09:05:21.000Z</time>
      </trkpt>
      <trkpt lat="43.323008827865123748779296875" lon="-1.92781367339193820953369140625">
        <ele>-8.80000019073486328125</ele>
        <time>2018-09-02T09:05:22.000Z</time>
      </trkpt>
      <trkpt lat="43.32301276735961437225341796875" lon="-1.928186751902103424072265625">
        <ele>-8.80000019073486328125</ele>
        <time>2018-09-02T09:05:28.000Z</time>
      </trkpt>
      <trkpt lat="43.3230136893689632415771484375" lon="-1.92824609577655792236328125">
        <ele>-8.80000019073486328125</ele>
        <time>2018-09-02T09:05:29.000Z</time>
      </trkpt>
      <trkpt lat="43.3230252563953399658203125" lon="-1.92842781543731689453125">
        <ele>-8.80000019073486328125</ele>
        <time>2018-09-02T09:05:32.000Z</time>
      </trkpt>
      <trkpt lat="43.32304914481937885284423828125" lon="-1.92866812460124492645263671875">
        <ele>-8.80000019073486328125</ele>
        <time>2018-09-02T09:05:36.000Z</time>
      </trkpt>
      <trkpt lat="43.32307026721537113189697265625" lon="-1.92911270074546337127685546875">
        <ele>-8.80000019073486328125</ele>
        <time>2018-09-02T09:05:43.000Z</time>
      </trkpt>
      <trkpt lat="43.32308267243206501007080078125" lon="-1.9296037964522838592529296875">
        <ele>-8.6000003814697265625</ele>
        <time>2018-09-02T09:05:51.000Z</time>
      </trkpt>
      <trkpt lat="43.3230968378484249114990234375" lon="-1.9297814927995204925537109375">
        <ele>-8.6000003814697265625</ele>
        <time>2018-09-02T09:05:54.000Z</time>
      </trkpt>
      <trkpt lat="43.323108069598674774169921875" lon="-1.92996178753674030303955078125">
        <ele>-8.6000003814697265625</ele>
        <time>2018-09-02T09:05:57.000Z</time>
      </trkpt>
      <trkpt lat="43.32310463301837444305419921875" lon="-1.9302709959447383880615234375">
        <ele>-8.3999996185302734375</ele>
        <time>2018-09-02T09:06:02.000Z</time>
      </trkpt>
      <trkpt lat="43.323107063770294189453125" lon="-1.93045196123421192169189453125">
        <ele>-8.19999980926513671875</ele>
        <time>2018-09-02T09:06:05.000Z</time>
      </trkpt>
      <trkpt lat="43.32310647703707218170166015625" lon="-1.930638961493968963623046875">
        <ele>-8</ele>
        <time>2018-09-02T09:06:08.000Z</time>
      </trkpt>
      <trkpt lat="43.3231072314083576202392578125" lon="-1.93076494149863719940185546875">
        <ele>-8.19999980926513671875</ele>
        <time>2018-09-02T09:06:10.000Z</time>
      </trkpt>
      <trkpt lat="43.3231082372367382049560546875" lon="-1.930951438844203948974609375">
        <ele>-8.3999996185302734375</ele>
        <time>2018-09-02T09:06:13.000Z</time>
      </trkpt>
      <trkpt lat="43.32310505211353302001953125" lon="-1.931404061615467071533203125">
        <ele>-8.19999980926513671875</ele>
        <time>2018-09-02T09:06:20.000Z</time>
      </trkpt>
      <trkpt lat="43.32311217673122882843017578125" lon="-1.9317562691867351531982421875">
        <ele>-8.19999980926513671875</ele>
        <time>2018-09-02T09:06:25.000Z</time>
      </trkpt>
      <trkpt lat="43.32311804406344890594482421875" lon="-1.93195517174899578094482421875">
        <ele>-8.19999980926513671875</ele>
        <time>2018-09-02T09:06:28.000Z</time>
      </trkpt>
      <trkpt lat="43.32312047481536865234375" lon="-1.9322112388908863067626953125">
        <ele>-8.3999996185302734375</ele>
        <time>2018-09-02T09:06:32.000Z</time>
      </trkpt>
      <trkpt lat="43.32310899160802364349365234375" lon="-1.9323344528675079345703125">
        <ele>-7.400000095367431640625</ele>
        <time>2018-09-02T09:06:34.000Z</time>
      </trkpt>
      <trkpt lat="43.32308921031653881072998046875" lon="-1.9324566610157489776611328125">
        <ele>-7.599999904632568359375</ele>
        <time>2018-09-02T09:06:36.000Z</time>
      </trkpt>
      <trkpt lat="43.3230498991906642913818359375" lon="-1.93271121941506862640380859375">
        <ele>-7.80000019073486328125</ele>
        <time>2018-09-02T09:06:41.000Z</time>
      </trkpt>
      <trkpt lat="43.322978317737579345703125" lon="-1.932957731187343597412109375">
        <ele>-8</ele>
        <time>2018-09-02T09:06:46.000Z</time>
      </trkpt>
      <trkpt lat="43.322910927236080169677734375" lon="-1.93337255157530307769775390625">
        <ele>-8.3999996185302734375</ele>
        <time>2018-09-02T09:06:53.000Z</time>
      </trkpt>
      <trkpt lat="43.32290547899901866912841796875" lon="-1.93343725986778736114501953125">
        <ele>-8.3999996185302734375</ele>
        <time>2018-09-02T09:06:54.000Z</time>
      </trkpt>
      <trkpt lat="43.3228249289095401763916015625" lon="-1.933917291462421417236328125">
        <ele>-8.19999980926513671875</ele>
        <time>2018-09-02T09:07:02.000Z</time>
      </trkpt>
      <trkpt lat="43.32280623726546764373779296875" lon="-1.93397386930882930755615234375">
        <ele>-8</ele>
        <time>2018-09-02T09:07:03.000Z</time>
      </trkpt>
      <trkpt lat="43.322781510651111602783203125" lon="-1.9340954907238483428955078125">
        <ele>-8</ele>
        <time>2018-09-02T09:07:05.000Z</time>
      </trkpt>
      <trkpt lat="43.32275577820837497711181640625" lon="-1.93421845324337482452392578125">
        <ele>-8</ele>
        <time>2018-09-02T09:07:07.000Z</time>
      </trkpt>
      <trkpt lat="43.32272686064243316650390625" lon="-1.93434485234320163726806640625">
        <ele>-7.80000019073486328125</ele>
        <time>2018-09-02T09:07:09.000Z</time>
      </trkpt>
      <trkpt lat="43.3227089233696460723876953125" lon="-1.93446739576756954193115234375">
        <ele>-7.80000019073486328125</ele>
        <time>2018-09-02T09:07:11.000Z</time>
      </trkpt>
      <trkpt lat="43.3226577937602996826171875" lon="-1.9347704015672206878662109375">
        <ele>-7.599999904632568359375</ele>
        <time>2018-09-02T09:07:16.000Z</time>
      </trkpt>
      <trkpt lat="43.32256651483476161956787109375" lon="-1.93530944176018238067626953125">
        <ele>-7.400000095367431640625</ele>
        <time>2018-09-02T09:07:25.000Z</time>
      </trkpt>
      <trkpt lat="43.32251253537833690643310546875" lon="-1.93575770594179630279541015625">
        <ele>-7</ele>
        <time>2018-09-02T09:07:32.000Z</time>
      </trkpt>
      <trkpt lat="43.322483785450458526611328125" lon="-1.93596390075981616973876953125">
        <ele>-6.80000019073486328125</ele>
        <time>2018-09-02T09:07:35.000Z</time>
      </trkpt>
      <trkpt lat="43.32245101220905780792236328125" lon="-1.9362543337047100067138671875">
        <ele>-6.599999904632568359375</ele>
        <time>2018-09-02T09:07:39.000Z</time>
      </trkpt>
      <trkpt lat="43.32247205078601837158203125" lon="-1.936850287020206451416015625">
        <ele>-6.599999904632568359375</ele>
        <time>2018-09-02T09:07:47.000Z</time>
      </trkpt>
      <trkpt lat="43.3224557898938655853271484375" lon="-1.937074251472949981689453125">
        <ele>-6.400000095367431640625</ele>
        <time>2018-09-02T09:07:50.000Z</time>
      </trkpt>
      <trkpt lat="43.3224400319159030914306640625" lon="-1.93728589452803134918212890625">
        <ele>-6</ele>
        <time>2018-09-02T09:07:53.000Z</time>
      </trkpt>
      <trkpt lat="43.32240859977900981903076171875" lon="-1.93783591501414775848388671875">
        <ele>-5.599999904632568359375</ele>
        <time>2018-09-02T09:08:01.000Z</time>
      </trkpt>
      <trkpt lat="43.32239904440939426422119140625" lon="-1.9381724484264850616455078125">
        <ele>-5.400000095367431640625</ele>
        <time>2018-09-02T09:08:06.000Z</time>
      </trkpt>
      <trkpt lat="43.3223868906497955322265625" lon="-1.93830396048724651336669921875">
        <ele>-5</ele>
        <time>2018-09-02T09:08:08.000Z</time>
      </trkpt>
      <trkpt lat="43.32238680683076381683349609375" lon="-1.9383719377219676971435546875">
        <ele>-5</ele>
        <time>2018-09-02T09:08:09.000Z</time>
      </trkpt>
      <trkpt lat="43.3223552070558071136474609375" lon="-1.93854535929858684539794921875">
        <ele>-4.400000095367431640625</ele>
        <time>2018-09-02T09:08:12.000Z</time>
      </trkpt>
      <trkpt lat="43.32234255038201808929443359375" lon="-1.93860000930726528167724609375">
        <ele>-4.19999980926513671875</ele>
        <time>2018-09-02T09:08:13.000Z</time>
      </trkpt>
      <trkpt lat="43.32230851985514163970947265625" lon="-1.93884216248989105224609375">
        <ele>-3.2000000476837158203125</ele>
        <time>2018-09-02T09:08:18.000Z</time>
      </trkpt>
      <trkpt lat="43.3222983777523040771484375" lon="-1.93888717330992221832275390625">
        <ele>-3</ele>
        <time>2018-09-02T09:08:19.000Z</time>
      </trkpt>
      <trkpt lat="43.32222201861441135406494140625" lon="-1.93910158239305019378662109375">
        <ele>-2.599999904632568359375</ele>
        <time>2018-09-02T09:08:24.000Z</time>
      </trkpt>
      <trkpt lat="43.32217507995665073394775390625" lon="-1.93927056156098842620849609375">
        <ele>-2.2000000476837158203125</ele>
        <time>2018-09-02T09:08:28.000Z</time>
      </trkpt>
      <trkpt lat="43.322169966995716094970703125" lon="-1.93931414745748043060302734375">
        <ele>-1.60000002384185791015625</ele>
        <time>2018-09-02T09:08:29.000Z</time>
      </trkpt>
      <trkpt lat="43.32216627895832061767578125" lon="-1.93935890682041645050048828125">
        <ele>-1.39999997615814208984375</ele>
        <time>2018-09-02T09:08:30.000Z</time>
      </trkpt>
      <trkpt lat="43.3221741579473018646240234375" lon="-1.939510367810726165771484375">
        <ele>-0.60000002384185791015625</ele>
        <time>2018-09-02T09:08:34.000Z</time>
      </trkpt>
      <trkpt lat="43.32216133363544940948486328125" lon="-1.9395735673606395721435546875">
        <ele>-0.4000000059604644775390625</ele>
        <time>2018-09-02T09:08:36.000Z</time>
      </trkpt>
      <trkpt lat="43.32210735417902469635009765625" lon="-1.939763836562633514404296875">
        <ele>0.4000000059604644775390625</ele>
        <time>2018-09-02T09:08:43.000Z</time>
      </trkpt>
      <trkpt lat="43.32205303944647312164306640625" lon="-1.93993516266345977783203125">
        <ele>1</ele>
        <time>2018-09-02T09:08:49.000Z</time>
      </trkpt>
      <trkpt lat="43.3220346830785274505615234375" lon="-1.9399973563849925994873046875">
        <ele>1.60000002384185791015625</ele>
        <time>2018-09-02T09:08:51.000Z</time>
      </trkpt>
      <trkpt lat="43.3220169134438037872314453125" lon="-1.94008109159767627716064453125">
        <ele>2</ele>
        <time>2018-09-02T09:08:54.000Z</time>
      </trkpt>
      <trkpt lat="43.321986906230449676513671875" lon="-1.9401502422988414764404296875">
        <ele>2.400000095367431640625</ele>
        <time>2018-09-02T09:08:57.000Z</time>
      </trkpt>
      <trkpt lat="43.3219776861369609832763671875" lon="-1.9401794113218784332275390625">
        <ele>2.599999904632568359375</ele>
        <time>2018-09-02T09:08:58.000Z</time>
      </trkpt>
      <trkpt lat="43.32192999310791492462158203125" lon="-1.9403312914073467254638671875">
        <ele>3.400000095367431640625</ele>
        <time>2018-09-02T09:09:03.000Z</time>
      </trkpt>
      <trkpt lat="43.3219210244715213775634765625" lon="-1.94036104716360569000244140625">
        <ele>3.599999904632568359375</ele>
        <time>2018-09-02T09:09:04.000Z</time>
      </trkpt>
      <trkpt lat="43.32188573665916919708251953125" lon="-1.94050689227879047393798828125">
        <ele>4.599999904632568359375</ele>
        <time>2018-09-02T09:09:09.000Z</time>
      </trkpt>
      <trkpt lat="43.32187701947987079620361328125" lon="-1.94053371436893939971923828125">
        <ele>4.599999904632568359375</ele>
        <time>2018-09-02T09:09:10.000Z</time>
      </trkpt>
      <trkpt lat="43.3218402229249477386474609375" lon="-1.94074644707143306732177734375">
        <ele>5.599999904632568359375</ele>
        <time>2018-09-02T09:09:17.000Z</time>
      </trkpt>
      <trkpt lat="43.321815915405750274658203125" lon="-1.9408853352069854736328125">
        <ele>6.599999904632568359375</ele>
        <time>2018-09-02T09:09:22.000Z</time>
      </trkpt>
      <trkpt lat="43.32179940305650234222412109375" lon="-1.9409787096083164215087890625">
        <ele>6.80000019073486328125</ele>
        <time>2018-09-02T09:09:24.000Z</time>
      </trkpt>
      <trkpt lat="43.321775011718273162841796875" lon="-1.94118104875087738037109375">
        <ele>7.400000095367431640625</ele>
        <time>2018-09-02T09:09:29.000Z</time>
      </trkpt>
      <trkpt lat="43.3217547275125980377197265625" lon="-1.94128724746406078338623046875">
        <ele>7.80000019073486328125</ele>
        <time>2018-09-02T09:09:32.000Z</time>
      </trkpt>
      <trkpt lat="43.32173301838338375091552734375" lon="-1.9415060989558696746826171875">
        <ele>8.6000003814697265625</ele>
        <time>2018-09-02T09:09:38.000Z</time>
      </trkpt>
      <trkpt lat="43.32173335365951061248779296875" lon="-1.94154222495853900909423828125">
        <ele>9</ele>
        <time>2018-09-02T09:09:39.000Z</time>
      </trkpt>
      <trkpt lat="43.321723043918609619140625" lon="-1.941740624606609344482421875">
        <ele>10</ele>
        <time>2018-09-02T09:09:45.000Z</time>
      </trkpt>
      <trkpt lat="43.3217225410044193267822265625" lon="-1.94178898818790912628173828125">
        <ele>10.19999980926513671875</ele>
        <time>2018-09-02T09:09:47.000Z</time>
      </trkpt>
      <trkpt lat="43.32173821516335010528564453125" lon="-1.9418708793818950653076171875">
        <ele>10.6000003814697265625</ele>
        <time>2018-09-02T09:09:50.000Z</time>
      </trkpt>
      <trkpt lat="43.3217423222959041595458984375" lon="-1.94190398789942264556884765625">
        <ele>10.6000003814697265625</ele>
        <time>2018-09-02T09:09:51.000Z</time>
      </trkpt>
      <trkpt lat="43.32172572612762451171875" lon="-1.94205452688038349151611328125">
        <ele>11</ele>
        <time>2018-09-02T09:09:55.000Z</time>
      </trkpt>
      <trkpt lat="43.32172128371894359588623046875" lon="-1.94209165871143341064453125">
        <ele>11.19999980926513671875</ele>
        <time>2018-09-02T09:09:56.000Z</time>
      </trkpt>
      <trkpt lat="43.32172497175633907318115234375" lon="-1.942237503826618194580078125">
        <ele>12</ele>
        <time>2018-09-02T09:10:00.000Z</time>
      </trkpt>
      <trkpt lat="43.3217245526611804962158203125" lon="-1.942273713648319244384765625">
        <ele>12.19999980926513671875</ele>
        <time>2018-09-02T09:10:01.000Z</time>
      </trkpt>
      <trkpt lat="43.3217248879373073577880859375" lon="-1.94231201894581317901611328125">
        <ele>12.3999996185302734375</ele>
        <time>2018-09-02T09:10:02.000Z</time>
      </trkpt>
      <trkpt lat="43.321710638701915740966796875" lon="-1.94251553155481815338134765625">
        <ele>13.3999996185302734375</ele>
        <time>2018-09-02T09:10:08.000Z</time>
      </trkpt>
      <trkpt lat="43.3217054419219493865966796875" lon="-1.9425866939127445220947265625">
        <ele>13.6000003814697265625</ele>
        <time>2018-09-02T09:10:10.000Z</time>
      </trkpt>
      <trkpt lat="43.32169261761009693145751953125" lon="-1.94280504249036312103271484375">
        <ele>14.3999996185302734375</ele>
        <time>2018-09-02T09:10:17.000Z</time>
      </trkpt>
      <trkpt lat="43.32167199812829494476318359375" lon="-1.9430981576442718505859375">
        <ele>15.6000003814697265625</ele>
        <time>2018-09-02T09:10:25.000Z</time>
      </trkpt>
      <trkpt lat="43.32166411913931369781494140625" lon="-1.94329052232205867767333984375">
        <ele>16.6000003814697265625</ele>
        <time>2018-09-02T09:10:31.000Z</time>
      </trkpt>
      <trkpt lat="43.3216598443686962127685546875" lon="-1.9433182664215564727783203125">
        <ele>16.799999237060546875</ele>
        <time>2018-09-02T09:10:32.000Z</time>
      </trkpt>
      <trkpt lat="43.32164970226585865020751953125" lon="-1.94345078431069850921630859375">
        <ele>17.6000003814697265625</ele>
        <time>2018-09-02T09:10:36.000Z</time>
      </trkpt>
      <trkpt lat="43.321636207401752471923828125" lon="-1.94352035410702228546142578125">
        <ele>18</ele>
        <time>2018-09-02T09:10:38.000Z</time>
      </trkpt>
      <trkpt lat="43.32161248661577701568603515625" lon="-1.9437177479267120361328125">
        <ele>18.799999237060546875</ele>
        <time>2018-09-02T09:10:44.000Z</time>
      </trkpt>
      <trkpt lat="43.32160578109323978424072265625" lon="-1.943749599158763885498046875">
        <ele>19</ele>
        <time>2018-09-02T09:10:45.000Z</time>
      </trkpt>
      <trkpt lat="43.3215894363820552825927734375" lon="-1.94386065937578678131103515625">
        <ele>19.799999237060546875</ele>
        <time>2018-09-02T09:10:49.000Z</time>
      </trkpt>
      <trkpt lat="43.32155632786452770233154296875" lon="-1.94393006153404712677001953125">
        <ele>20.200000762939453125</ele>
        <time>2018-09-02T09:10:52.000Z</time>
      </trkpt>
      <trkpt lat="43.32151458598673343658447265625" lon="-1.94398932158946990966796875">
        <ele>21</ele>
        <time>2018-09-02T09:10:55.000Z</time>
      </trkpt>
      <trkpt lat="43.32149145193397998809814453125" lon="-1.94403533823788166046142578125">
        <ele>21.200000762939453125</ele>
        <time>2018-09-02T09:10:57.000Z</time>
      </trkpt>
      <trkpt lat="43.321432359516620635986328125" lon="-1.94417984224855899810791015625">
        <ele>22</ele>
        <time>2018-09-02T09:11:02.000Z</time>
      </trkpt>
      <trkpt lat="43.3214078843593597412109375" lon="-1.9442442990839481353759765625">
        <ele>22.200000762939453125</ele>
        <time>2018-09-02T09:11:04.000Z</time>
      </trkpt>
      <trkpt lat="43.3213461935520172119140625" lon="-1.9444028846919536590576171875">
        <ele>22.799999237060546875</ele>
        <time>2018-09-02T09:11:09.000Z</time>
      </trkpt>
      <trkpt lat="43.3213399909436702728271484375" lon="-1.94443515501916408538818359375">
        <ele>23</ele>
        <time>2018-09-02T09:11:10.000Z</time>
      </trkpt>
      <trkpt lat="43.32133756019175052642822265625" lon="-1.944515705108642578125">
        <ele>23.200000762939453125</ele>
        <time>2018-09-02T09:11:12.000Z</time>
      </trkpt>
      <trkpt lat="43.3213128335773944854736328125" lon="-1.94468208588659763336181640625">
        <ele>24</ele>
        <time>2018-09-02T09:11:16.000Z</time>
      </trkpt>
      <trkpt lat="43.32130487076938152313232421875" lon="-1.944814436137676239013671875">
        <ele>24.6000003814697265625</ele>
        <time>2018-09-02T09:11:19.000Z</time>
      </trkpt>
      <trkpt lat="43.32131610251963138580322265625" lon="-1.94488928653299808502197265625">
        <ele>25</ele>
        <time>2018-09-02T09:11:21.000Z</time>
      </trkpt>
      <trkpt lat="43.3213332854211330413818359375" lon="-1.94503647275269031524658203125">
        <ele>25.6000003814697265625</ele>
        <time>2018-09-02T09:11:25.000Z</time>
      </trkpt>
      <trkpt lat="43.32135834731161594390869140625" lon="-1.94518885575234889984130859375">
        <ele>26.3999996185302734375</ele>
        <time>2018-09-02T09:11:29.000Z</time>
      </trkpt>
      <trkpt lat="43.321377374231815338134765625" lon="-1.94538700394332408905029296875">
        <ele>26.3999996185302734375</ele>
        <time>2018-09-02T09:11:34.000Z</time>
      </trkpt>
      <trkpt lat="43.3213832415640354156494140625" lon="-1.94542220793664455413818359375">
        <ele>27.6000003814697265625</ele>
        <time>2018-09-02T09:11:35.000Z</time>
      </trkpt>
      <trkpt lat="43.3214050345122814178466796875" lon="-1.9456417299807071685791015625">
        <ele>27.6000003814697265625</ele>
        <time>2018-09-02T09:11:41.000Z</time>
      </trkpt>
      <trkpt lat="43.32141115330159664154052734375" lon="-1.94585974328219890594482421875">
        <ele>28.6000003814697265625</ele>
        <time>2018-09-02T09:11:47.000Z</time>
      </trkpt>
      <trkpt lat="43.32141366787254810333251953125" lon="-1.94611740298569202423095703125">
        <ele>29.6000003814697265625</ele>
        <time>2018-09-02T09:11:53.000Z</time>
      </trkpt>
      <trkpt lat="43.3214171044528484344482421875" lon="-1.9461604021489620208740234375">
        <ele>29.799999237060546875</ele>
        <time>2018-09-02T09:11:54.000Z</time>
      </trkpt>
      <trkpt lat="43.32140495069324970245361328125" lon="-1.94637958891689777374267578125">
        <ele>30.3999996185302734375</ele>
        <time>2018-09-02T09:11:59.000Z</time>
      </trkpt>
      <trkpt lat="43.32139380276203155517578125" lon="-1.9465582072734832763671875">
        <ele>31</ele>
        <time>2018-09-02T09:12:03.000Z</time>
      </trkpt>
      <trkpt lat="43.32139824517071247100830078125" lon="-1.94668536074459552764892578125">
        <ele>31.6000003814697265625</ele>
        <time>2018-09-02T09:12:06.000Z</time>
      </trkpt>
      <trkpt lat="43.321385420858860015869140625" lon="-1.9468131847679615020751953125">
        <ele>32</ele>
        <time>2018-09-02T09:12:09.000Z</time>
      </trkpt>
      <trkpt lat="43.32138181664049625396728515625" lon="-1.94690831936895847320556640625">
        <ele>32.200000762939453125</ele>
        <time>2018-09-02T09:12:11.000Z</time>
      </trkpt>
      <trkpt lat="43.32139841280877590179443359375" lon="-1.9471893645823001861572265625">
        <ele>33</ele>
        <time>2018-09-02T09:12:17.000Z</time>
      </trkpt>
      <trkpt lat="43.32138081081211566925048828125" lon="-1.9475112296640872955322265625">
        <ele>34.200000762939453125</ele>
        <time>2018-09-02T09:12:24.000Z</time>
      </trkpt>
      <trkpt lat="43.321384750306606292724609375" lon="-1.94755389355123043060302734375">
        <ele>34.40000152587890625</ele>
        <time>2018-09-02T09:12:25.000Z</time>
      </trkpt>
      <trkpt lat="43.3213976584374904632568359375" lon="-1.947765536606311798095703125">
        <ele>35.40000152587890625</ele>
        <time>2018-09-02T09:12:30.000Z</time>
      </trkpt>
      <trkpt lat="43.321394138038158416748046875" lon="-1.94785396568477153778076171875">
        <ele>35.799999237060546875</ele>
        <time>2018-09-02T09:12:32.000Z</time>
      </trkpt>
      <trkpt lat="43.3214046992361545562744140625" lon="-1.9480280578136444091796875">
        <ele>36.40000152587890625</ele>
        <time>2018-09-02T09:12:37.000Z</time>
      </trkpt>
      <trkpt lat="43.32141282968223094940185546875" lon="-1.9480439834296703338623046875">
        <ele>36.59999847412109375</ele>
        <time>2018-09-02T09:12:38.000Z</time>
      </trkpt>
      <trkpt lat="43.32142875529825687408447265625" lon="-1.9481348432600498199462890625">
        <ele>36.59999847412109375</ele>
        <time>2018-09-02T09:12:41.000Z</time>
      </trkpt>
      <trkpt lat="43.32141299732029438018798828125" lon="-1.94821237586438655853271484375">
        <ele>36.59999847412109375</ele>
        <time>2018-09-02T09:12:43.000Z</time>
      </trkpt>
      <trkpt lat="43.32140746526420116424560546875" lon="-1.94844824261963367462158203125">
        <ele>37</ele>
        <time>2018-09-02T09:12:48.000Z</time>
      </trkpt>
      <trkpt lat="43.32138885743916034698486328125" lon="-1.9489230774343013763427734375">
        <ele>37</ele>
        <time>2018-09-02T09:12:56.000Z</time>
      </trkpt>
      <trkpt lat="43.321388103067874908447265625" lon="-1.94903279654681682586669921875">
        <ele>37</ele>
        <time>2018-09-02T09:12:58.000Z</time>
      </trkpt>
      <trkpt lat="43.321390114724636077880859375" lon="-1.94926531054079532623291015625">
        <ele>36.59999847412109375</ele>
        <time>2018-09-02T09:13:02.000Z</time>
      </trkpt>
      <trkpt lat="43.32137729041278362274169921875" lon="-1.94946949370205402374267578125">
        <ele>36.59999847412109375</ele>
        <time>2018-09-02T09:13:05.000Z</time>
      </trkpt>
      <trkpt lat="43.32137846387922763824462890625" lon="-1.94961299188435077667236328125">
        <ele>36.40000152587890625</ele>
        <time>2018-09-02T09:13:07.000Z</time>
      </trkpt>
      <trkpt lat="43.3213671483099460601806640625" lon="-1.94985807873308658599853515625">
        <ele>35.799999237060546875</ele>
        <time>2018-09-02T09:13:10.000Z</time>
      </trkpt>
      <trkpt lat="43.32136505283415317535400390625" lon="-1.9500442408025264739990234375">
        <ele>35.200000762939453125</ele>
        <time>2018-09-02T09:13:12.000Z</time>
      </trkpt>
      <trkpt lat="43.32136421464383602142333984375" lon="-1.95035378448665142059326171875">
        <ele>34</ele>
        <time>2018-09-02T09:13:15.000Z</time>
      </trkpt>
      <trkpt lat="43.32136119715869426727294921875" lon="-1.950468532741069793701171875">
        <ele>33.799999237060546875</ele>
        <time>2018-09-02T09:13:16.000Z</time>
      </trkpt>
      <trkpt lat="43.3213668130338191986083984375" lon="-1.950707249343395233154296875">
        <ele>33</ele>
        <time>2018-09-02T09:13:18.000Z</time>
      </trkpt>
      <trkpt lat="43.32137511111795902252197265625" lon="-1.951072700321674346923828125">
        <ele>32</ele>
        <time>2018-09-02T09:13:21.000Z</time>
      </trkpt>
      <trkpt lat="43.321378044784069061279296875" lon="-1.951192729175090789794921875">
        <ele>31.799999237060546875</ele>
        <time>2018-09-02T09:13:22.000Z</time>
      </trkpt>
      <trkpt lat="43.3213989995419979095458984375" lon="-1.9514410011470317840576171875">
        <ele>31.200000762939453125</ele>
        <time>2018-09-02T09:13:24.000Z</time>
      </trkpt>
      <trkpt lat="43.321405537426471710205078125" lon="-1.95168147794902324676513671875">
        <ele>30.6000003814697265625</ele>
        <time>2018-09-02T09:13:26.000Z</time>
      </trkpt>
      <trkpt lat="43.321408219635486602783203125" lon="-1.9518151693046092987060546875">
        <ele>30</ele>
        <time>2018-09-02T09:13:27.000Z</time>
      </trkpt>
      <trkpt lat="43.32141123712062835693359375" lon="-1.95194014348089694976806640625">
        <ele>29.799999237060546875</ele>
        <time>2018-09-02T09:13:28.000Z</time>
      </trkpt>
      <trkpt lat="43.321408890187740325927734375" lon="-1.952065117657184600830078125">
        <ele>29.3999996185302734375</ele>
        <time>2018-09-02T09:13:29.000Z</time>
      </trkpt>
      <trkpt lat="43.32141869701445102691650390625" lon="-1.9522919319570064544677734375">
        <ele>28.3999996185302734375</ele>
        <time>2018-09-02T09:13:31.000Z</time>
      </trkpt>
      <trkpt lat="43.32141333259642124176025390625" lon="-1.95245479233562946319580078125">
        <ele>28</ele>
        <time>2018-09-02T09:13:33.000Z</time>
      </trkpt>
      <trkpt lat="43.3214197866618633270263671875" lon="-1.95261237211525440216064453125">
        <ele>27.799999237060546875</ele>
        <time>2018-09-02T09:13:36.000Z</time>
      </trkpt>
      <trkpt lat="43.32143378444015979766845703125" lon="-1.9526862166821956634521484375">
        <ele>27.6000003814697265625</ele>
        <time>2018-09-02T09:13:39.000Z</time>
      </trkpt>
      <trkpt lat="43.32143143750727176666259765625" lon="-1.95266383700072765350341796875">
        <ele>27.6000003814697265625</ele>
        <time>2018-09-02T09:13:40.000Z</time>
      </trkpt>
      <trkpt lat="43.3214409090578556060791015625" lon="-1.952787972986698150634765625">
        <ele>27.200000762939453125</ele>
        <time>2018-09-02T09:14:04.000Z</time>
      </trkpt>
      <trkpt lat="43.32144266925752162933349609375" lon="-1.95283499546349048614501953125">
        <ele>27</ele>
        <time>2018-09-02T09:14:05.000Z</time>
      </trkpt>
      <trkpt lat="43.32144903950393199920654296875" lon="-1.9529903121292591094970703125">
        <ele>26.3999996185302734375</ele>
        <time>2018-09-02T09:14:08.000Z</time>
      </trkpt>
      <trkpt lat="43.32145817577838897705078125" lon="-1.95305376313626766204833984375">
        <ele>26.200000762939453125</ele>
        <time>2018-09-02T09:14:09.000Z</time>
      </trkpt>
      <trkpt lat="43.32147669978439807891845703125" lon="-1.95317697711288928985595703125">
        <ele>25.6000003814697265625</ele>
        <time>2018-09-02T09:14:11.000Z</time>
      </trkpt>
      <trkpt lat="43.32149572670459747314453125" lon="-1.9533629715442657470703125">
        <ele>25.200000762939453125</ele>
        <time>2018-09-02T09:14:14.000Z</time>
      </trkpt>
      <trkpt lat="43.32150335423648357391357421875" lon="-1.95343606173992156982421875">
        <ele>25</ele>
        <time>2018-09-02T09:14:15.000Z</time>
      </trkpt>
      <trkpt lat="43.32151324488222599029541015625" lon="-1.9535931386053562164306640625">
        <ele>24.3999996185302734375</ele>
        <time>2018-09-02T09:14:17.000Z</time>
      </trkpt>
      <trkpt lat="43.3215180225670337677001953125" lon="-1.9537383131682872772216796875">
        <ele>24</ele>
        <time>2018-09-02T09:14:19.000Z</time>
      </trkpt>
      <trkpt lat="43.32151290960609912872314453125" lon="-1.95380696095526218414306640625">
        <ele>23.799999237060546875</ele>
        <time>2018-09-02T09:14:20.000Z</time>
      </trkpt>
      <trkpt lat="43.3215176872909069061279296875" lon="-1.95388558320701122283935546875">
        <ele>23.6000003814697265625</ele>
        <time>2018-09-02T09:14:21.000Z</time>
      </trkpt>
      <trkpt lat="43.3215233869850635528564453125" lon="-1.95396713912487030029296875">
        <ele>23.6000003814697265625</ele>
        <time>2018-09-02T09:14:22.000Z</time>
      </trkpt>
      <trkpt lat="43.3215602673590183258056640625" lon="-1.95429512299597263336181640625">
        <ele>22.799999237060546875</ele>
        <time>2018-09-02T09:14:26.000Z</time>
      </trkpt>
      <trkpt lat="43.32157191820442676544189453125" lon="-1.95448690094053745269775390625">
        <ele>22.3999996185302734375</ele>
        <time>2018-09-02T09:14:28.000Z</time>
      </trkpt>
      <trkpt lat="43.32158583216369152069091796875" lon="-1.95479703135788440704345703125">
        <ele>21.6000003814697265625</ele>
        <time>2018-09-02T09:14:31.000Z</time>
      </trkpt>
      <trkpt lat="43.32159806974232196807861328125" lon="-1.95508436299860477447509765625">
        <ele>20.6000003814697265625</ele>
        <time>2018-09-02T09:14:34.000Z</time>
      </trkpt>
      <trkpt lat="43.3215978182852268218994140625" lon="-1.95517756976187229156494140625">
        <ele>20.200000762939453125</ele>
        <time>2018-09-02T09:14:35.000Z</time>
      </trkpt>
      <trkpt lat="43.32161734811961650848388671875" lon="-1.955780647695064544677734375">
        <ele>19.200000762939453125</ele>
        <time>2018-09-02T09:14:41.000Z</time>
      </trkpt>
      <trkpt lat="43.3216588385403156280517578125" lon="-1.95632211863994598388671875">
        <ele>18</ele>
        <time>2018-09-02T09:14:46.000Z</time>
      </trkpt>
      <trkpt lat="43.3216626942157745361328125" lon="-1.9564354419708251953125">
        <ele>17.6000003814697265625</ele>
        <time>2018-09-02T09:14:47.000Z</time>
      </trkpt>
      <trkpt lat="43.3216823078691959381103515625" lon="-1.9567608274519443511962890625">
        <ele>17</ele>
        <time>2018-09-02T09:14:50.000Z</time>
      </trkpt>
      <trkpt lat="43.32169345580041408538818359375" lon="-1.95687540806829929351806640625">
        <ele>16.799999237060546875</ele>
        <time>2018-09-02T09:14:51.000Z</time>
      </trkpt>
      <trkpt lat="43.3217041008174419403076171875" lon="-1.956986971199512481689453125">
        <ele>16.3999996185302734375</ele>
        <time>2018-09-02T09:14:52.000Z</time>
      </trkpt>
      <trkpt lat="43.321712315082550048828125" lon="-1.9572201557457447052001953125">
        <ele>15.6000003814697265625</ele>
        <time>2018-09-02T09:14:54.000Z</time>
      </trkpt>
      <trkpt lat="43.32172698341310024261474609375" lon="-1.957612596452236175537109375">
        <ele>14.19999980926513671875</ele>
        <time>2018-09-02T09:14:57.000Z</time>
      </trkpt>
      <trkpt lat="43.32172916270792484283447265625" lon="-1.95774327032268047332763671875">
        <ele>13.80000019073486328125</ele>
        <time>2018-09-02T09:14:58.000Z</time>
      </trkpt>
      <trkpt lat="43.32173855043947696685791015625" lon="-1.95800394751131534576416015625">
        <ele>13</ele>
        <time>2018-09-02T09:15:00.000Z</time>
      </trkpt>
      <trkpt lat="43.3217496983706951141357421875" lon="-1.9583838991820812225341796875">
        <ele>11.80000019073486328125</ele>
        <time>2018-09-02T09:15:03.000Z</time>
      </trkpt>
      <trkpt lat="43.32175992429256439208984375" lon="-1.95863191969692707061767578125">
        <ele>11</ele>
        <time>2018-09-02T09:15:05.000Z</time>
      </trkpt>
      <trkpt lat="43.3217681385576725006103515625" lon="-1.958760581910610198974609375">
        <ele>10.80000019073486328125</ele>
        <time>2018-09-02T09:15:06.000Z</time>
      </trkpt>
      <trkpt lat="43.321793787181377410888671875" lon="-1.959286965429782867431640625">
        <ele>9.80000019073486328125</ele>
        <time>2018-09-02T09:15:10.000Z</time>
      </trkpt>
      <trkpt lat="43.32179890014231204986572265625" lon="-1.9594229198992252349853515625">
        <ele>9.3999996185302734375</ele>
        <time>2018-09-02T09:15:11.000Z</time>
      </trkpt>
      <trkpt lat="43.3218103833496570587158203125" lon="-1.95969826541841030120849609375">
        <ele>8.80000019073486328125</ele>
        <time>2018-09-02T09:15:13.000Z</time>
      </trkpt>
      <trkpt lat="43.321819938719272613525390625" lon="-1.9599717669188976287841796875">
        <ele>8</ele>
        <time>2018-09-02T09:15:15.000Z</time>
      </trkpt>
      <trkpt lat="43.3218318410217761993408203125" lon="-1.9602339528501033782958984375">
        <ele>6.80000019073486328125</ele>
        <time>2018-09-02T09:15:17.000Z</time>
      </trkpt>
      <trkpt lat="43.321865536272525787353515625" lon="-1.96048113517463207244873046875">
        <ele>5.400000095367431640625</ele>
        <time>2018-09-02T09:15:19.000Z</time>
      </trkpt>
      <trkpt lat="43.32198782823979854583740234375" lon="-1.9608029164373874664306640625">
        <ele>4.80000019073486328125</ele>
        <time>2018-09-02T09:15:22.000Z</time>
      </trkpt>
      <trkpt lat="43.322053290903568267822265625" lon="-1.96088715456426143646240234375">
        <ele>4.599999904632568359375</ele>
        <time>2018-09-02T09:15:23.000Z</time>
      </trkpt>
      <trkpt lat="43.3221074379980564117431640625" lon="-1.9609869830310344696044921875">
        <ele>4.400000095367431640625</ele>
        <time>2018-09-02T09:15:24.000Z</time>
      </trkpt>
      <trkpt lat="43.32212797366082668304443359375" lon="-1.961194016039371490478515625">
        <ele>3.7999999523162841796875</ele>
        <time>2018-09-02T09:15:26.000Z</time>
      </trkpt>
      <trkpt lat="43.32206175662577152252197265625" lon="-1.9613940082490444183349609375">
        <ele>3.2000000476837158203125</ele>
        <time>2018-09-02T09:15:28.000Z</time>
      </trkpt>
      <trkpt lat="43.32201800309121608734130859375" lon="-1.96149182505905628204345703125">
        <ele>3</ele>
        <time>2018-09-02T09:15:29.000Z</time>
      </trkpt>
      <trkpt lat="43.32197911106050014495849609375" lon="-1.9615919888019561767578125">
        <ele>2.7999999523162841796875</ele>
        <time>2018-09-02T09:15:30.000Z</time>
      </trkpt>
      <trkpt lat="43.3219488523900508880615234375" lon="-1.96169860661029815673828125">
        <ele>2.400000095367431640625</ele>
        <time>2018-09-02T09:15:31.000Z</time>
      </trkpt>
      <trkpt lat="43.3219176717102527618408203125" lon="-1.96192718110978603363037109375">
        <ele>1.7999999523162841796875</ele>
        <time>2018-09-02T09:15:33.000Z</time>
      </trkpt>
      <trkpt lat="43.32191624678671360015869140625" lon="-1.9621611200273036956787109375">
        <ele>1.39999997615814208984375</ele>
        <time>2018-09-02T09:15:35.000Z</time>
      </trkpt>
      <trkpt lat="43.32192949019372463226318359375" lon="-1.962512321770191192626953125">
        <ele>0.60000002384185791015625</ele>
        <time>2018-09-02T09:15:38.000Z</time>
      </trkpt>
      <trkpt lat="43.32194902002811431884765625" lon="-1.9628714025020599365234375">
        <ele>-0.60000002384185791015625</ele>
        <time>2018-09-02T09:15:41.000Z</time>
      </trkpt>
      <trkpt lat="43.3219662867486476898193359375" lon="-1.96324632503092288970947265625">
        <ele>-1.39999997615814208984375</ele>
        <time>2018-09-02T09:15:44.000Z</time>
      </trkpt>
      <trkpt lat="43.32197005860507488250732421875" lon="-1.96337104775011539459228515625">
        <ele>-1.60000002384185791015625</ele>
        <time>2018-09-02T09:15:45.000Z</time>
      </trkpt>
      <trkpt lat="43.321978189051151275634765625" lon="-1.96384982205927371978759765625">
        <ele>-2.400000095367431640625</ele>
        <time>2018-09-02T09:15:49.000Z</time>
      </trkpt>
      <trkpt lat="43.32199034281075000762939453125" lon="-1.96419574320316314697265625">
        <ele>-2.2000000476837158203125</ele>
        <time>2018-09-02T09:15:52.000Z</time>
      </trkpt>
      <trkpt lat="43.3220038376748561859130859375" lon="-1.964412666857242584228515625">
        <ele>-2.400000095367431640625</ele>
        <time>2018-09-02T09:15:54.000Z</time>
      </trkpt>
      <trkpt lat="43.32202001474797725677490234375" lon="-1.96462062187492847442626953125">
        <ele>-2.599999904632568359375</ele>
        <time>2018-09-02T09:15:56.000Z</time>
      </trkpt>
      <trkpt lat="43.32203342579305171966552734375" lon="-1.964818350970745086669921875">
        <ele>-2.599999904632568359375</ele>
        <time>2018-09-02T09:15:58.000Z</time>
      </trkpt>
      <trkpt lat="43.32208120264112949371337890625" lon="-1.96529922075569629669189453125">
        <ele>-3.400000095367431640625</ele>
        <time>2018-09-02T09:16:03.000Z</time>
      </trkpt>
      <trkpt lat="43.3220910094678401947021484375" lon="-1.96539863012731075286865234375">
        <ele>-3.2000000476837158203125</ele>
        <time>2018-09-02T09:16:04.000Z</time>
      </trkpt>
      <trkpt lat="43.322190083563327789306640625" lon="-1.965848989784717559814453125">
        <ele>-3.400000095367431640625</ele>
        <time>2018-09-02T09:16:09.000Z</time>
      </trkpt>
      <trkpt lat="43.3222190849483013153076171875" lon="-1.9659276120364665985107421875">
        <ele>-3.599999904632568359375</ele>
        <time>2018-09-02T09:16:10.000Z</time>
      </trkpt>
      <trkpt lat="43.322249092161655426025390625" lon="-1.96599525399506092071533203125">
        <ele>-3.599999904632568359375</ele>
        <time>2018-09-02T09:16:11.000Z</time>
      </trkpt>
      <trkpt lat="43.3223059214651584625244140625" lon="-1.966104805469512939453125">
        <ele>-3.400000095367431640625</ele>
        <time>2018-09-02T09:16:13.000Z</time>
      </trkpt>
      <trkpt lat="43.32236216403543949127197265625" lon="-1.96619390510022640228271484375">
        <ele>-3</ele>
        <time>2018-09-02T09:16:16.000Z</time>
      </trkpt>
      <trkpt lat="43.32239602692425251007080078125" lon="-1.96622458286583423614501953125">
        <ele>-2.599999904632568359375</ele>
        <time>2018-09-02T09:16:27.000Z</time>
      </trkpt>
      <trkpt lat="43.3224135451018810272216796875" lon="-1.96624486707150936126708984375">
        <ele>-2.599999904632568359375</ele>
        <time>2018-09-02T09:16:28.000Z</time>
      </trkpt>
      <trkpt lat="43.32251186482608318328857421875" lon="-1.9663772173225879669189453125">
        <ele>-2.7999999523162841796875</ele>
        <time>2018-09-02T09:16:32.000Z</time>
      </trkpt>
      <trkpt lat="43.32258009351789951324462890625" lon="-1.96645525284111499786376953125">
        <ele>-2.7999999523162841796875</ele>
        <time>2018-09-02T09:16:34.000Z</time>
      </trkpt>
      <trkpt lat="43.3226512558758258819580078125" lon="-1.9665381498634815216064453125">
        <ele>-2.7999999523162841796875</ele>
        <time>2018-09-02T09:16:36.000Z</time>
      </trkpt>
      <trkpt lat="43.32272275350987911224365234375" lon="-1.9666350446641445159912109375">
        <ele>-2.599999904632568359375</ele>
        <time>2018-09-02T09:16:38.000Z</time>
      </trkpt>
      <trkpt lat="43.322971947491168975830078125" lon="-1.9669776968657970428466796875">
        <ele>-2.2000000476837158203125</ele>
        <time>2018-09-02T09:16:45.000Z</time>
      </trkpt>
      <trkpt lat="43.3230542577803134918212890625" lon="-1.96707081981003284454345703125">
        <ele>-2.2000000476837158203125</ele>
        <time>2018-09-02T09:16:47.000Z</time>
      </trkpt>
      <trkpt lat="43.3231397531926631927490234375" lon="-1.96715690195560455322265625">
        <ele>-2</ele>
        <time>2018-09-02T09:16:49.000Z</time>
      </trkpt>
      <trkpt lat="43.3232158608734607696533203125" lon="-1.9672442413866519927978515625">
        <ele>-1.60000002384185791015625</ele>
        <time>2018-09-02T09:16:51.000Z</time>
      </trkpt>
      <trkpt lat="43.32338592968881130218505859375" lon="-1.9675114564597606658935546875">
        <ele>-1</ele>
        <time>2018-09-02T09:16:56.000Z</time>
      </trkpt>
      <trkpt lat="43.3234840817749500274658203125" lon="-1.9676671922206878662109375">
        <ele>-0.4000000059604644775390625</ele>
        <time>2018-09-02T09:16:59.000Z</time>
      </trkpt>
      <trkpt lat="43.32367795519530773162841796875" lon="-1.96789140813052654266357421875">
        <ele>-0.20000000298023223876953125</ele>
        <time>2018-09-02T09:17:04.000Z</time>
      </trkpt>
      <trkpt lat="43.32382229156792163848876953125" lon="-1.9680546037852764129638671875">
        <ele>-0.60000002384185791015625</ele>
        <time>2018-09-02T09:17:07.000Z</time>
      </trkpt>
      <trkpt lat="43.32392488606274127960205078125" lon="-1.96817815303802490234375">
        <ele>-0.20000000298023223876953125</ele>
        <time>2018-09-02T09:17:09.000Z</time>
      </trkpt>
      <trkpt lat="43.323981128633022308349609375" lon="-1.9682527519762516021728515625">
        <ele>-0.20000000298023223876953125</ele>
        <time>2018-09-02T09:17:10.000Z</time>
      </trkpt>
      <trkpt lat="43.32409352995455265045166015625" lon="-1.96840572170913219451904296875">
        <ele>0.60000002384185791015625</ele>
        <time>2018-09-02T09:17:12.000Z</time>
      </trkpt>
      <trkpt lat="43.32415287382900714874267578125" lon="-1.96848719380795955657958984375">
        <ele>0.800000011920928955078125</ele>
        <time>2018-09-02T09:17:13.000Z</time>
      </trkpt>
      <trkpt lat="43.324270136654376983642578125" lon="-1.96863748133182525634765625">
        <ele>1</ele>
        <time>2018-09-02T09:17:15.000Z</time>
      </trkpt>
      <trkpt lat="43.32438178360462188720703125" lon="-1.968784667551517486572265625">
        <ele>1.39999997615814208984375</ele>
        <time>2018-09-02T09:17:17.000Z</time>
      </trkpt>
      <trkpt lat="43.32449845969676971435546875" lon="-1.9689336977899074554443359375">
        <ele>1</ele>
        <time>2018-09-02T09:17:19.000Z</time>
      </trkpt>
      <trkpt lat="43.3248518407344818115234375" lon="-1.96939118206501007080078125">
        <ele>0.800000011920928955078125</ele>
        <time>2018-09-02T09:17:25.000Z</time>
      </trkpt>
      <trkpt lat="43.32526129670441150665283203125" lon="-1.969941370189189910888671875">
        <ele>0.4000000059604644775390625</ele>
        <time>2018-09-02T09:17:32.000Z</time>
      </trkpt>
      <trkpt lat="43.3253703452646732330322265625" lon="-1.97009132243692874908447265625">
        <ele>0.60000002384185791015625</ele>
        <time>2018-09-02T09:17:34.000Z</time>
      </trkpt>
      <trkpt lat="43.3254682458937168121337890625" lon="-1.97022400796413421630859375">
        <ele>0.4000000059604644775390625</ele>
        <time>2018-09-02T09:17:36.000Z</time>
      </trkpt>
      <trkpt lat="43.3255398273468017578125" lon="-1.9703210704028606414794921875">
        <ele>0</ele>
        <time>2018-09-02T09:17:38.000Z</time>
      </trkpt>
      <trkpt lat="43.32559405826032161712646484375" lon="-1.97040027938783168792724609375">
        <ele>0</ele>
        <time>2018-09-02T09:17:41.000Z</time>
      </trkpt>
      <trkpt lat="43.32560487091541290283203125" lon="-1.9704183004796504974365234375">
        <ele>0</ele>
        <time>2018-09-02T09:17:42.000Z</time>
      </trkpt>
      <trkpt lat="43.32561316899955272674560546875" lon="-1.97043162770569324493408203125">
        <ele>0</ele>
        <time>2018-09-02T09:17:43.000Z</time>
      </trkpt>
      <trkpt lat="43.32561769522726535797119140625" lon="-1.97044118307530879974365234375">
        <ele>0</ele>
        <time>2018-09-02T09:17:45.000Z</time>
      </trkpt>
      <trkpt lat="43.32564334385097026824951171875" lon="-1.970499269664287567138671875">
        <ele>-0.4000000059604644775390625</ele>
        <time>2018-09-02T09:17:55.000Z</time>
      </trkpt>
      <trkpt lat="43.32565692253410816192626953125" lon="-1.9705192185938358306884765625">
        <ele>-0.4000000059604644775390625</ele>
        <time>2018-09-02T09:17:56.000Z</time>
      </trkpt>
      <trkpt lat="43.325697071850299835205078125" lon="-1.97056330740451812744140625">
        <ele>-0.4000000059604644775390625</ele>
        <time>2018-09-02T09:17:58.000Z</time>
      </trkpt>
      <trkpt lat="43.3257498778402805328369140625" lon="-1.970632709562778472900390625">
        <ele>-0.60000002384185791015625</ele>
        <time>2018-09-02T09:18:00.000Z</time>
      </trkpt>
      <trkpt lat="43.3257756941020488739013671875" lon="-1.970668919384479522705078125">
        <ele>-0.800000011920928955078125</ele>
        <time>2018-09-02T09:18:01.000Z</time>
      </trkpt>
      <trkpt lat="43.32582053728401660919189453125" lon="-1.9707327894866466522216796875">
        <ele>-0.800000011920928955078125</ele>
        <time>2018-09-02T09:18:03.000Z</time>
      </trkpt>
      <trkpt lat="43.3259141631424427032470703125" lon="-1.97087737731635570526123046875">
        <ele>-1.2000000476837158203125</ele>
        <time>2018-09-02T09:18:07.000Z</time>
      </trkpt>
      <trkpt lat="43.32611859776079654693603515625" lon="-1.971167810261249542236328125">
        <ele>-1.39999997615814208984375</ele>
        <time>2018-09-02T09:18:14.000Z</time>
      </trkpt>
      <trkpt lat="43.3262165822088718414306640625" lon="-1.97131407447159290313720703125">
        <ele>-2</ele>
        <time>2018-09-02T09:18:17.000Z</time>
      </trkpt>
      <trkpt lat="43.32633635960519313812255859375" lon="-1.97153435088694095611572265625">
        <ele>-2.2000000476837158203125</ele>
        <time>2018-09-02T09:18:21.000Z</time>
      </trkpt>
      <trkpt lat="43.32640425302088260650634765625" lon="-1.97171397507190704345703125">
        <ele>-2.599999904632568359375</ele>
        <time>2018-09-02T09:18:24.000Z</time>
      </trkpt>
      <trkpt lat="43.3264231123030185699462890625" lon="-1.97178144939243793487548828125">
        <ele>-2.599999904632568359375</ele>
        <time>2018-09-02T09:18:25.000Z</time>
      </trkpt>
      <trkpt lat="43.32643476314842700958251953125" lon="-1.9718529470264911651611328125">
        <ele>-2.7999999523162841796875</ele>
        <time>2018-09-02T09:18:26.000Z</time>
      </trkpt>
      <trkpt lat="43.32639746367931365966796875" lon="-1.9721375964581966400146484375">
        <ele>-3</ele>
        <time>2018-09-02T09:18:30.000Z</time>
      </trkpt>
      <trkpt lat="43.32637776620686054229736328125" lon="-1.9722036458551883697509765625">
        <ele>-3</ele>
        <time>2018-09-02T09:18:31.000Z</time>
      </trkpt>
      <trkpt lat="43.32627701573073863983154296875" lon="-1.97249072603881359100341796875">
        <ele>-3.599999904632568359375</ele>
        <time>2018-09-02T09:18:36.000Z</time>
      </trkpt>
      <trkpt lat="43.32623929716646671295166015625" lon="-1.97260354645550251007080078125">
        <ele>-3.400000095367431640625</ele>
        <time>2018-09-02T09:18:40.000Z</time>
      </trkpt>
      <trkpt lat="43.32623141817748546600341796875" lon="-1.97267420589923858642578125">
        <ele>-3.400000095367431640625</ele>
        <time>2018-09-02T09:18:45.000Z</time>
      </trkpt>
      <trkpt lat="43.326237201690673828125" lon="-1.97268434800207614898681640625">
        <ele>-3.400000095367431640625</ele>
        <time>2018-09-02T09:18:46.000Z</time>
      </trkpt>
      <trkpt lat="43.32623653113842010498046875" lon="-1.972683258354663848876953125">
        <ele>-3.599999904632568359375</ele>
        <time>2018-09-02T09:18:47.000Z</time>
      </trkpt>
      <trkpt lat="43.32625036127865314483642578125" lon="-1.9727793149650096893310546875">
        <ele>-3.400000095367431640625</ele>
        <time>2018-09-02T09:19:16.000Z</time>
      </trkpt>
      <trkpt lat="43.3262470923364162445068359375" lon="-1.97280504740774631500244140625">
        <ele>-3.400000095367431640625</ele>
        <time>2018-09-02T09:19:17.000Z</time>
      </trkpt>
      <trkpt lat="43.3262353576719760894775390625" lon="-1.97293999604880809783935546875">
        <ele>-3.7999999523162841796875</ele>
        <time>2018-09-02T09:19:20.000Z</time>
      </trkpt>
      <trkpt lat="43.32622203044593334197998046875" lon="-1.97298609651625156402587890625">
        <ele>-3.7999999523162841796875</ele>
        <time>2018-09-02T09:19:21.000Z</time>
      </trkpt>
      <trkpt lat="43.3262048475444316864013671875" lon="-1.9730331189930438995361328125">
        <ele>-4</ele>
        <time>2018-09-02T09:19:22.000Z</time>
      </trkpt>
      <trkpt lat="43.32608104683458805084228515625" lon="-1.97334718890488147735595703125">
        <ele>-4</ele>
        <time>2018-09-02T09:19:28.000Z</time>
      </trkpt>
      <trkpt lat="43.3259359560906887054443359375" lon="-1.97372789494693279266357421875">
        <ele>-4.19999980926513671875</ele>
        <time>2018-09-02T09:19:35.000Z</time>
      </trkpt>
      <trkpt lat="43.32591977901756763458251953125" lon="-1.97377659380435943603515625">
        <ele>-4.400000095367431640625</ele>
        <time>2018-09-02T09:19:36.000Z</time>
      </trkpt>
      <trkpt lat="43.3258898556232452392578125" lon="-1.97386451996862888336181640625">
        <ele>-4.599999904632568359375</ele>
        <time>2018-09-02T09:19:38.000Z</time>
      </trkpt>
      <trkpt lat="43.32588055171072483062744140625" lon="-1.973908357322216033935546875">
        <ele>-4.599999904632568359375</ele>
        <time>2018-09-02T09:19:39.000Z</time>
      </trkpt>
      <trkpt lat="43.32585699856281280517578125" lon="-1.97404271923005580902099609375">
        <ele>-4.599999904632568359375</ele>
        <time>2018-09-02T09:19:42.000Z</time>
      </trkpt>
      <trkpt lat="43.32575909793376922607421875" lon="-1.9742525182664394378662109375">
        <ele>-5</ele>
        <time>2018-09-02T09:19:47.000Z</time>
      </trkpt>
      <trkpt lat="43.32564719952642917633056640625" lon="-1.9745395146310329437255859375">
        <ele>-4.80000019073486328125</ele>
        <time>2018-09-02T09:19:54.000Z</time>
      </trkpt>
      <trkpt lat="43.325518034398555755615234375" lon="-1.9748774729669094085693359375">
        <ele>-5</ele>
        <time>2018-09-02T09:20:02.000Z</time>
      </trkpt>
      <trkpt lat="43.32538400776684284210205078125" lon="-1.97525440715253353118896484375">
        <ele>-5</ele>
        <time>2018-09-02T09:20:10.000Z</time>
      </trkpt>
      <trkpt lat="43.32518753595650196075439453125" lon="-1.975690685212612152099609375">
        <ele>-5.19999980926513671875</ele>
        <time>2018-09-02T09:20:19.000Z</time>
      </trkpt>
      <trkpt lat="43.32501872442662715911865234375" lon="-1.97622478008270263671875">
        <ele>-5.19999980926513671875</ele>
        <time>2018-09-02T09:20:29.000Z</time>
      </trkpt>
      <trkpt lat="43.32496918737888336181640625" lon="-1.976377330720424652099609375">
        <ele>-5.400000095367431640625</ele>
        <time>2018-09-02T09:20:32.000Z</time>
      </trkpt>
      <trkpt lat="43.32486935891211032867431640625" lon="-1.97654270566999912261962890625">
        <ele>-5.19999980926513671875</ele>
        <time>2018-09-02T09:20:36.000Z</time>
      </trkpt>
      <trkpt lat="43.324793837964534759521484375" lon="-1.9767033867537975311279296875">
        <ele>-5</ele>
        <time>2018-09-02T09:20:41.000Z</time>
      </trkpt>
      <trkpt lat="43.3247691951692104339599609375" lon="-1.97683439590036869049072265625">
        <ele>-4.80000019073486328125</ele>
        <time>2018-09-02T09:20:45.000Z</time>
      </trkpt>
      <trkpt lat="43.324759304523468017578125" lon="-1.97687244974076747894287109375">
        <ele>-4.80000019073486328125</ele>
        <time>2018-09-02T09:20:46.000Z</time>
      </trkpt>
      <trkpt lat="43.3246441371738910675048828125" lon="-1.9771228171885013580322265625">
        <ele>-5</ele>
        <time>2018-09-02T09:20:52.000Z</time>
      </trkpt>
      <trkpt lat="43.32457850687205791473388671875" lon="-1.97728550992906093597412109375">
        <ele>-4.80000019073486328125</ele>
        <time>2018-09-02T09:20:55.000Z</time>
      </trkpt>
      <trkpt lat="43.3245163969695568084716796875" lon="-1.97745524346828460693359375">
        <ele>-4.599999904632568359375</ele>
        <time>2018-09-02T09:20:58.000Z</time>
      </trkpt>
      <trkpt lat="43.32447708584368228912353515625" lon="-1.9775704108178615570068359375">
        <ele>-4.599999904632568359375</ele>
        <time>2018-09-02T09:21:00.000Z</time>
      </trkpt>
      <trkpt lat="43.32430408336222171783447265625" lon="-1.97808547876775264739990234375">
        <ele>-4.80000019073486328125</ele>
        <time>2018-09-02T09:21:09.000Z</time>
      </trkpt>
      <trkpt lat="43.32423116080462932586669921875" lon="-1.97827910073101520538330078125">
        <ele>-4.599999904632568359375</ele>
        <time>2018-09-02T09:21:13.000Z</time>
      </trkpt>
      <trkpt lat="43.32421414554119110107421875" lon="-1.9783247821033000946044921875">
        <ele>-4.599999904632568359375</ele>
        <time>2018-09-02T09:21:14.000Z</time>
      </trkpt>
      <trkpt lat="43.32419746555387973785400390625" lon="-1.9783692061901092529296875">
        <ele>-4.599999904632568359375</ele>
        <time>2018-09-02T09:21:15.000Z</time>
      </trkpt>
      <trkpt lat="43.324181623756885528564453125" lon="-1.978415139019489288330078125">
        <ele>-4.599999904632568359375</ele>
        <time>2018-09-02T09:21:16.000Z</time>
      </trkpt>
      <trkpt lat="43.3240567333996295928955078125" lon="-1.9787569530308246612548828125">
        <ele>-4.599999904632568359375</ele>
        <time>2018-09-02T09:21:23.000Z</time>
      </trkpt>
      <trkpt lat="43.32399420440196990966796875" lon="-1.9789088331162929534912109375">
        <ele>-4.80000019073486328125</ele>
        <time>2018-09-02T09:21:26.000Z</time>
      </trkpt>
      <trkpt lat="43.3239199407398700714111328125" lon="-1.9791200570762157440185546875">
        <ele>-4.400000095367431640625</ele>
        <time>2018-09-02T09:21:30.000Z</time>
      </trkpt>
      <trkpt lat="43.32380251027643680572509765625" lon="-1.9793892838060855865478515625">
        <ele>-4.19999980926513671875</ele>
        <time>2018-09-02T09:21:36.000Z</time>
      </trkpt>
      <trkpt lat="43.32371215336024761199951171875" lon="-1.979633867740631103515625">
        <ele>-4.400000095367431640625</ele>
        <time>2018-09-02T09:21:41.000Z</time>
      </trkpt>
      <trkpt lat="43.32367502152919769287109375" lon="-1.979735791683197021484375">
        <ele>-4.19999980926513671875</ele>
        <time>2018-09-02T09:21:43.000Z</time>
      </trkpt>
      <trkpt lat="43.32359321415424346923828125" lon="-1.979948692023754119873046875">
        <ele>-4.19999980926513671875</ele>
        <time>2018-09-02T09:21:47.000Z</time>
      </trkpt>
      <trkpt lat="43.32353261299431324005126953125" lon="-1.98010233230888843536376953125">
        <ele>-4.599999904632568359375</ele>
        <time>2018-09-02T09:21:50.000Z</time>
      </trkpt>
      <trkpt lat="43.3234713412821292877197265625" lon="-1.980271898210048675537109375">
        <ele>-4.400000095367431640625</ele>
        <time>2018-09-02T09:21:53.000Z</time>
      </trkpt>
      <trkpt lat="43.32331870682537555694580078125" lon="-1.98067565448582172393798828125">
        <ele>-4.599999904632568359375</ele>
        <time>2018-09-02T09:22:01.000Z</time>
      </trkpt>
      <trkpt lat="43.32329037599265575408935546875" lon="-1.98076517321169376373291015625">
        <ele>-4.400000095367431640625</ele>
        <time>2018-09-02T09:22:04.000Z</time>
      </trkpt>
      <trkpt lat="43.32328132353723049163818359375" lon="-1.98079953901469707489013671875">
        <ele>-4.400000095367431640625</ele>
        <time>2018-09-02T09:22:05.000Z</time>
      </trkpt>
      <trkpt lat="43.32322482950985431671142578125" lon="-1.9809623993933200836181640625">
        <ele>-4.80000019073486328125</ele>
        <time>2018-09-02T09:22:09.000Z</time>
      </trkpt>
      <trkpt lat="43.3231256715953350067138671875" lon="-1.9813556782901287078857421875">
        <ele>-5</ele>
        <time>2018-09-02T09:22:16.000Z</time>
      </trkpt>
      <trkpt lat="43.323056437075138092041015625" lon="-1.98164795525372028350830078125">
        <ele>-5.400000095367431640625</ele>
        <time>2018-09-02T09:22:21.000Z</time>
      </trkpt>
      <trkpt lat="43.3230338059365749359130859375" lon="-1.98173931799829006195068359375">
        <ele>-5.400000095367431640625</ele>
        <time>2018-09-02T09:22:23.000Z</time>
      </trkpt>
      <trkpt lat="43.32301544956862926483154296875" lon="-1.98180980980396270751953125">
        <ele>-5.599999904632568359375</ele>
        <time>2018-09-02T09:22:25.000Z</time>
      </trkpt>
      <trkpt lat="43.32298024557530879974365234375" lon="-1.98192589916288852691650390625">
        <ele>-5.80000019073486328125</ele>
        <time>2018-09-02T09:22:28.000Z</time>
      </trkpt>
      <trkpt lat="43.32293297164142131805419921875" lon="-1.98205280117690563201904296875">
        <ele>-5.80000019073486328125</ele>
        <time>2018-09-02T09:22:31.000Z</time>
      </trkpt>
      <trkpt lat="43.32289039157330989837646484375" lon="-1.98217819444835186004638671875">
        <ele>-5.80000019073486328125</ele>
        <time>2018-09-02T09:22:34.000Z</time>
      </trkpt>
      <trkpt lat="43.32281579263508319854736328125" lon="-1.9823923520743846893310546875">
        <ele>-6</ele>
        <time>2018-09-02T09:22:39.000Z</time>
      </trkpt>
      <trkpt lat="43.32279198803007602691650390625" lon="-1.98246954940259456634521484375">
        <ele>-5.80000019073486328125</ele>
        <time>2018-09-02T09:22:41.000Z</time>
      </trkpt>
      <trkpt lat="43.3227055706083774566650390625" lon="-1.98270072229206562042236328125">
        <ele>-6</ele>
        <time>2018-09-02T09:22:48.000Z</time>
      </trkpt>
      <trkpt lat="43.3226951770484447479248046875" lon="-1.982718072831630706787109375">
        <ele>-6</ele>
        <time>2018-09-02T09:22:49.000Z</time>
      </trkpt>
      <trkpt lat="43.32264312542974948883056640625" lon="-1.98272855021059513092041015625">
        <ele>-6</ele>
        <time>2018-09-02T09:22:52.000Z</time>
      </trkpt>
      <trkpt lat="43.32258872687816619873046875" lon="-1.98274648748338222503662109375">
        <ele>-5.80000019073486328125</ele>
        <time>2018-09-02T09:22:56.000Z</time>
      </trkpt>
      <trkpt lat="43.322574980556964874267578125" lon="-1.9827573001384735107421875">
        <ele>-5.80000019073486328125</ele>
        <time>2018-09-02T09:22:57.000Z</time>
      </trkpt>
      <trkpt lat="43.32248906604945659637451171875" lon="-1.98288579471409320831298828125">
        <ele>-5.80000019073486328125</ele>
        <time>2018-09-02T09:23:03.000Z</time>
      </trkpt>
      <trkpt lat="43.322394602000713348388671875" lon="-1.98306684382259845733642578125">
        <ele>-5.80000019073486328125</ele>
        <time>2018-09-02T09:23:08.000Z</time>
      </trkpt>
      <trkpt lat="43.32232645712792873382568359375" lon="-1.983146555721759796142578125">
        <ele>-5.80000019073486328125</ele>
        <time>2018-09-02T09:23:10.000Z</time>
      </trkpt>
      <trkpt lat="43.32228370942175388336181640625" lon="-1.98323431424796581268310546875">
        <ele>-5.80000019073486328125</ele>
        <time>2018-09-02T09:23:12.000Z</time>
      </trkpt>
      <trkpt lat="43.32222755067050457000732421875" lon="-1.98340362869203090667724609375">
        <ele>-5.599999904632568359375</ele>
        <time>2018-09-02T09:23:53.000Z</time>
      </trkpt>
      <trkpt lat="43.3222096972167491912841796875" lon="-1.98344989679753780364990234375">
        <ele>-5.599999904632568359375</ele>
        <time>2018-09-02T09:23:54.000Z</time>
      </trkpt>
      <trkpt lat="43.32219352014362812042236328125" lon="-1.9834917224943637847900390625">
        <ele>-5.599999904632568359375</ele>
        <time>2018-09-02T09:23:55.000Z</time>
      </trkpt>
      <trkpt lat="43.32213166169822216033935546875" lon="-1.98369213379919528961181640625">
        <ele>-6</ele>
        <time>2018-09-02T09:23:59.000Z</time>
      </trkpt>
      <trkpt lat="43.32211188040673732757568359375" lon="-1.9837508909404277801513671875">
        <ele>-5.80000019073486328125</ele>
        <time>2018-09-02T09:24:00.000Z</time>
      </trkpt>
      <trkpt lat="43.322055637836456298828125" lon="-1.98392045684158802032470703125">
        <ele>-5.80000019073486328125</ele>
        <time>2018-09-02T09:24:03.000Z</time>
      </trkpt>
      <trkpt lat="43.32198330201208591461181640625" lon="-1.98413754813373088836669921875">
        <ele>-5.400000095367431640625</ele>
        <time>2018-09-02T09:24:07.000Z</time>
      </trkpt>
      <trkpt lat="43.321895040571689605712890625" lon="-1.9842947088181972503662109375">
        <ele>-5.400000095367431640625</ele>
        <time>2018-09-02T09:24:10.000Z</time>
      </trkpt>
      <trkpt lat="43.3218016661703586578369140625" lon="-1.98454826138913631439208984375">
        <ele>-5.19999980926513671875</ele>
        <time>2018-09-02T09:24:15.000Z</time>
      </trkpt>
      <trkpt lat="43.3217617683112621307373046875" lon="-1.9846960343420505523681640625">
        <ele>-5.19999980926513671875</ele>
        <time>2018-09-02T09:24:18.000Z</time>
      </trkpt>
      <trkpt lat="43.32173134200274944305419921875" lon="-1.98479351587593555450439453125">
        <ele>-5.19999980926513671875</ele>
        <time>2018-09-02T09:24:20.000Z</time>
      </trkpt>
      <trkpt lat="43.32166202366352081298828125" lon="-1.98492921888828277587890625">
        <ele>-5</ele>
        <time>2018-09-02T09:24:24.000Z</time>
      </trkpt>
      <trkpt lat="43.32163629122078418731689453125" lon="-1.98493818752467632293701171875">
        <ele>-4.80000019073486328125</ele>
        <time>2018-09-02T09:24:25.000Z</time>
      </trkpt>
      <trkpt lat="43.3215823955833911895751953125" lon="-1.98495293967425823211669921875">
        <ele>-4.80000019073486328125</ele>
        <time>2018-09-02T09:24:27.000Z</time>
      </trkpt>
      <trkpt lat="43.32147317938506603240966796875" lon="-1.98497674427926540374755859375">
        <ele>-4.80000019073486328125</ele>
        <time>2018-09-02T09:24:46.000Z</time>
      </trkpt>
      <trkpt lat="43.3214221335947513580322265625" lon="-1.984977163374423980712890625">
        <ele>-4.80000019073486328125</ele>
        <time>2018-09-02T09:24:48.000Z</time>
      </trkpt>
      <trkpt lat="43.32137309946119785308837890625" lon="-1.984969787299633026123046875">
        <ele>-5</ele>
        <time>2018-09-02T09:24:50.000Z</time>
      </trkpt>
      <trkpt lat="43.32135491073131561279296875" lon="-1.984969787299633026123046875">
        <ele>-5</ele>
        <time>2018-09-02T09:24:51.000Z</time>
      </trkpt>
      <trkpt lat="43.3213247358798980712890625" lon="-1.9849578849971294403076171875">
        <ele>-5.19999980926513671875</ele>
        <time>2018-09-02T09:24:53.000Z</time>
      </trkpt>
      <trkpt lat="43.32131065428256988525390625" lon="-1.98495008982717990875244140625">
        <ele>-5</ele>
        <time>2018-09-02T09:24:56.000Z</time>
      </trkpt>
      <trkpt lat="43.32131627015769481658935546875" lon="-1.98495914228260517120361328125">
        <ele>-4.80000019073486328125</ele>
        <time>2018-09-02T09:24:57.000Z</time>
      </trkpt>
      <trkpt lat="43.321291543543338775634765625" lon="-1.9850132055580615997314453125">
        <ele>-5</ele>
        <time>2018-09-02T09:25:05.000Z</time>
      </trkpt>
      <trkpt lat="43.321268074214458465576171875" lon="-1.98507808148860931396484375">
        <ele>-5</ele>
        <time>2018-09-02T09:25:09.000Z</time>
      </trkpt>
      <trkpt lat="43.3212697505950927734375" lon="-1.9851007126271724700927734375">
        <ele>-5</ele>
        <time>2018-09-02T09:25:10.000Z</time>
      </trkpt>
      <trkpt lat="43.3212316967546939849853515625" lon="-1.9851873815059661865234375">
        <ele>-5</ele>
        <time>2018-09-02T09:25:13.000Z</time>
      </trkpt>
      <trkpt lat="43.32122323103249073028564453125" lon="-1.9852321408689022064208984375">
        <ele>-4.80000019073486328125</ele>
        <time>2018-09-02T09:25:14.000Z</time>
      </trkpt>
      <trkpt lat="43.32120596431195735931396484375" lon="-1.98537086136639118194580078125">
        <ele>-4.599999904632568359375</ele>
        <time>2018-09-02T09:25:17.000Z</time>
      </trkpt>
      <trkpt lat="43.32115600816905498504638671875" lon="-1.98550279252231121063232421875">
        <ele>-4.80000019073486328125</ele>
        <time>2018-09-02T09:25:20.000Z</time>
      </trkpt>
      <trkpt lat="43.321028687059879302978515625" lon="-1.98573715053498744964599609375">
        <ele>-4.80000019073486328125</ele>
        <time>2018-09-02T09:25:27.000Z</time>
      </trkpt>
      <trkpt lat="43.32095987163484096527099609375" lon="-1.98575475253164768218994140625">
        <ele>-4.599999904632568359375</ele>
        <time>2018-09-02T09:25:32.000Z</time>
      </trkpt>
      <trkpt lat="43.3209478855133056640625" lon="-1.98575190268456935882568359375">
        <ele>-4.599999904632568359375</ele>
        <time>2018-09-02T09:25:33.000Z</time>
      </trkpt>
      <trkpt lat="43.320929445326328277587890625" lon="-1.98578610084950923919677734375">
        <ele>-4.400000095367431640625</ele>
        <time>2018-09-02T09:25:36.000Z</time>
      </trkpt>
      <trkpt lat="43.3209245838224887847900390625" lon="-1.9858037866652011871337890625">
        <ele>-4.400000095367431640625</ele>
        <time>2018-09-02T09:25:37.000Z</time>
      </trkpt>
      <trkpt lat="43.3209024555981159210205078125" lon="-1.98583873920142650604248046875">
        <ele>-4.400000095367431640625</ele>
        <time>2018-09-02T09:25:40.000Z</time>
      </trkpt>
      <trkpt lat="43.32087638787925243377685546875" lon="-1.9858279265463352203369140625">
        <ele>-4.599999904632568359375</ele>
        <time>2018-09-02T09:25:43.000Z</time>
      </trkpt>
      <trkpt lat="43.32083456218242645263671875" lon="-1.98575978167355060577392578125">
        <ele>-4.599999904632568359375</ele>
        <time>2018-09-02T09:25:48.000Z</time>
      </trkpt>
      <trkpt lat="43.32082073204219341278076171875" lon="-1.9857068918645381927490234375">
        <ele>-4.599999904632568359375</ele>
        <time>2018-09-02T09:25:51.000Z</time>
      </trkpt>
      <trkpt lat="43.32082877866923809051513671875" lon="-1.9856700114905834197998046875">
        <ele>-4.400000095367431640625</ele>
        <time>2018-09-02T09:25:53.000Z</time>
      </trkpt>
      <trkpt lat="43.32085467875003814697265625" lon="-1.985618881881237030029296875">
        <ele>-4.400000095367431640625</ele>
        <time>2018-09-02T09:25:56.000Z</time>
      </trkpt>
      <trkpt lat="43.32086800597608089447021484375" lon="-1.98555392213165760040283203125">
        <ele>-4.19999980926513671875</ele>
        <time>2018-09-02T09:25:59.000Z</time>
      </trkpt>
      <trkpt lat="43.32088745199143886566162109375" lon="-1.98550698347389698028564453125">
        <ele>-4.400000095367431640625</ele>
        <time>2018-09-02T09:26:01.000Z</time>
      </trkpt>
      <trkpt lat="43.3208954147994518280029296875" lon="-1.98547831736505031585693359375">
        <ele>-4.400000095367431640625</ele>
        <time>2018-09-02T09:26:02.000Z</time>
      </trkpt>
      <trkpt lat="43.32092986442148685455322265625" lon="-1.98536667041480541229248046875">
        <ele>-4.599999904632568359375</ele>
        <time>2018-09-02T09:26:06.000Z</time>
      </trkpt>
      <trkpt lat="43.32092869095504283905029296875" lon="-1.98534152470529079437255859375">
        <ele>-4.80000019073486328125</ele>
        <time>2018-09-02T09:26:07.000Z</time>
      </trkpt>
      <trkpt lat="43.32092969678342342376708984375" lon="-1.98527782224118709564208984375">
        <ele>-4.599999904632568359375</ele>
        <time>2018-09-02T09:26:10.000Z</time>
      </trkpt>
      <trkpt lat="43.32093975506722927093505859375" lon="-1.98523809202015399932861328125">
        <ele>-4.599999904632568359375</ele>
        <time>2018-09-02T09:26:12.000Z</time>
      </trkpt>
      <trkpt lat="43.32095324993133544921875" lon="-1.9852002896368503570556640625">
        <ele>-4.599999904632568359375</ele>
        <time>2018-09-02T09:26:14.000Z</time>
      </trkpt>
      <trkpt lat="43.32097596488893032073974609375" lon="-1.9851613976061344146728515625">
        <ele>-4.80000019073486328125</ele>
        <time>2018-09-02T09:26:17.000Z</time>
      </trkpt>
      <trkpt lat="43.321011923253536224365234375" lon="-1.9851028919219970703125">
        <ele>-4.599999904632568359375</ele>
        <time>2018-09-02T09:26:23.000Z</time>
      </trkpt>
      <trkpt lat="43.32101720385253429412841796875" lon="-1.985077075660228729248046875">
        <ele>-4.400000095367431640625</ele>
        <time>2018-09-02T09:26:24.000Z</time>
      </trkpt>
      <trkpt lat="43.3210779726505279541015625" lon="-1.9849325716495513916015625">
        <ele>-4.599999904632568359375</ele>
        <time>2018-09-02T09:26:29.000Z</time>
      </trkpt>
      <trkpt lat="43.32110119052231311798095703125" lon="-1.9848764128983020782470703125">
        <ele>-4.400000095367431640625</ele>
        <time>2018-09-02T09:26:31.000Z</time>
      </trkpt>
      <trkpt lat="43.3211208879947662353515625" lon="-1.9847865588963031768798828125">
        <ele>-4.599999904632568359375</ele>
        <time>2018-09-02T09:26:34.000Z</time>
      </trkpt>
      <trkpt lat="43.32109213806688785552978515625" lon="-1.98473735712468624114990234375">
        <ele>-4.80000019073486328125</ele>
        <time>2018-09-02T09:26:36.000Z</time>
      </trkpt>
      <trkpt lat="43.32104737870395183563232421875" lon="-1.98470416478812694549560546875">
        <ele>-4.80000019073486328125</ele>
        <time>2018-09-02T09:26:38.000Z</time>
      </trkpt>
      <trkpt lat="43.32096121273934841156005859375" lon="-1.98463593609631061553955078125">
        <ele>-4.80000019073486328125</ele>
        <time>2018-09-02T09:26:42.000Z</time>
      </trkpt>
      <trkpt lat="43.3208967559039592742919921875" lon="-1.98460735380649566650390625">
        <ele>-4.599999904632568359375</ele>
        <time>2018-09-02T09:26:46.000Z</time>
      </trkpt>
      <trkpt lat="43.32084990106523036956787109375" lon="-1.98458815924823284149169921875">
        <ele>-4.599999904632568359375</ele>
        <time>2018-09-02T09:26:48.000Z</time>
      </trkpt>
      <trkpt lat="43.32079960964620113372802734375" lon="-1.98454289697110652923583984375">
        <ele>-4.80000019073486328125</ele>
        <time>2018-09-02T09:26:50.000Z</time>
      </trkpt>
      <trkpt lat="43.32073758356273174285888671875" lon="-1.9844988919794559478759765625">
        <ele>-4.80000019073486328125</ele>
        <time>2018-09-02T09:26:52.000Z</time>
      </trkpt>
      <trkpt lat="43.3207046426832675933837890625" lon="-1.98447517119348049163818359375">
        <ele>-4.80000019073486328125</ele>
        <time>2018-09-02T09:26:53.000Z</time>
      </trkpt>
      <trkpt lat="43.32064253278076648712158203125" lon="-1.98442387394607067108154296875">
        <ele>-4.80000019073486328125</ele>
        <time>2018-09-02T09:26:55.000Z</time>
      </trkpt>
      <trkpt lat="43.32060766406357288360595703125" lon="-1.98439990170300006866455078125">
        <ele>-4.80000019073486328125</ele>
        <time>2018-09-02T09:26:56.000Z</time>
      </trkpt>
      <trkpt lat="43.3203740604221820831298828125" lon="-1.98422824032604694366455078125">
        <ele>-5</ele>
        <time>2018-09-02T09:27:03.000Z</time>
      </trkpt>
      <trkpt lat="43.3201886527240276336669921875" lon="-1.984098069369792938232421875">
        <ele>-5</ele>
        <time>2018-09-02T09:27:09.000Z</time>
      </trkpt>
      <trkpt lat="43.32007138989865779876708984375" lon="-1.98405607603490352630615234375">
        <ele>-5</ele>
        <time>2018-09-02T09:27:13.000Z</time>
      </trkpt>
      <trkpt lat="43.32000265829265117645263671875" lon="-1.98415649123489856719970703125">
        <ele>-5</ele>
        <time>2018-09-02T09:27:16.000Z</time>
      </trkpt>
      <trkpt lat="43.3198711462318897247314453125" lon="-1.98438875377178192138671875">
        <ele>-4.80000019073486328125</ele>
        <time>2018-09-02T09:27:22.000Z</time>
      </trkpt>
      <trkpt lat="43.31979730166494846343994140625" lon="-1.98454423807561397552490234375">
        <ele>-4.80000019073486328125</ele>
        <time>2018-09-02T09:27:26.000Z</time>
      </trkpt>
      <trkpt lat="43.31976830027997493743896484375" lon="-1.98462872765958309173583984375">
        <ele>-4.80000019073486328125</ele>
        <time>2018-09-02T09:27:28.000Z</time>
      </trkpt>
      <trkpt lat="43.31973091699182987213134765625" lon="-1.98475646786391735076904296875">
        <ele>-4.400000095367431640625</ele>
        <time>2018-09-02T09:27:33.000Z</time>
      </trkpt>
      <trkpt lat="43.319664783775806427001953125" lon="-1.98480826802551746368408203125">
        <ele>-4.599999904632568359375</ele>
        <time>2018-09-02T09:27:38.000Z</time>
      </trkpt>
      <trkpt lat="43.31965480931103229522705078125" lon="-1.98481312952935695648193359375">
        <ele>-4.599999904632568359375</ele>
        <time>2018-09-02T09:27:39.000Z</time>
      </trkpt>
      <trkpt lat="43.3195962198078632354736328125" lon="-1.98480005376040935516357421875">
        <ele>-4.400000095367431640625</ele>
        <time>2018-09-02T09:27:46.000Z</time>
      </trkpt>
      <trkpt lat="43.31958473660051822662353515625" lon="-1.98479720391333103179931640625">
        <ele>-4.400000095367431640625</ele>
        <time>2018-09-02T09:27:47.000Z</time>
      </trkpt>
      <trkpt lat="43.3195472694933414459228515625" lon="-1.98478194884955883026123046875">
        <ele>-4.400000095367431640625</ele>
        <time>2018-09-02T09:27:53.000Z</time>
      </trkpt>
      <trkpt lat="43.31953695975244045257568359375" lon="-1.9847801886498928070068359375">
        <ele>-4.400000095367431640625</ele>
        <time>2018-09-02T09:27:54.000Z</time>
      </trkpt>
      <trkpt lat="43.31951499916613101959228515625" lon="-1.98477708734571933746337890625">
        <ele>-4.400000095367431640625</ele>
        <time>2018-09-02T09:27:56.000Z</time>
      </trkpt>
      <trkpt lat="43.31948532722890377044677734375" lon="-1.98476451449096202850341796875">
        <ele>-4.599999904632568359375</ele>
        <time>2018-09-02T09:27:58.000Z</time>
      </trkpt>
      <trkpt lat="43.319469988346099853515625" lon="-1.98475621640682220458984375">
        <ele>-4.599999904632568359375</ele>
        <time>2018-09-02T09:27:59.000Z</time>
      </trkpt>
      <trkpt lat="43.3193967305123805999755859375" lon="-1.9847166538238525390625">
        <ele>-4.599999904632568359375</ele>
        <time>2018-09-02T09:28:02.000Z</time>
      </trkpt>
      <trkpt lat="43.31934065558016300201416015625" lon="-1.98467977344989776611328125">
        <ele>-4.599999904632568359375</ele>
        <time>2018-09-02T09:28:04.000Z</time>
      </trkpt>
      <trkpt lat="43.31928349100053310394287109375" lon="-1.98463476262986660003662109375">
        <ele>-4.599999904632568359375</ele>
        <time>2018-09-02T09:28:06.000Z</time>
      </trkpt>
      <trkpt lat="43.319066651165485382080078125" lon="-1.98448170907795429229736328125">
        <ele>-4.599999904632568359375</ele>
        <time>2018-09-02T09:28:13.000Z</time>
      </trkpt>
      <trkpt lat="43.3189742825925350189208984375" lon="-1.984442062675952911376953125">
        <ele>-5</ele>
        <time>2018-09-02T09:28:16.000Z</time>
      </trkpt>
      <trkpt lat="43.31890881992876529693603515625" lon="-1.984456479549407958984375">
        <ele>-4.400000095367431640625</ele>
        <time>2018-09-02T09:28:18.000Z</time>
      </trkpt>
      <trkpt lat="43.3188032917678356170654296875" lon="-1.9845994748175144195556640625">
        <ele>-4.599999904632568359375</ele>
        <time>2018-09-02T09:28:22.000Z</time>
      </trkpt>
      <trkpt lat="43.31864395178854465484619140625" lon="-1.98492787778377532958984375">
        <ele>-4.400000095367431640625</ele>
        <time>2018-09-02T09:28:30.000Z</time>
      </trkpt>
      <trkpt lat="43.31848268397152423858642578125" lon="-1.9850467331707477569580078125">
        <ele>-4.400000095367431640625</ele>
        <time>2018-09-02T09:28:35.000Z</time>
      </trkpt>
      <trkpt lat="43.31830163486301898956298828125" lon="-1.98517992161214351654052734375">
        <ele>-4</ele>
        <time>2018-09-02T09:28:42.000Z</time>
      </trkpt>
      <trkpt lat="43.31813315860927104949951171875" lon="-1.98532643727958202362060546875">
        <ele>-4.19999980926513671875</ele>
        <time>2018-09-02T09:28:49.000Z</time>
      </trkpt>
      <trkpt lat="43.3179449848830699920654296875" lon="-1.98549558408558368682861328125">
        <ele>-4</ele>
        <time>2018-09-02T09:28:56.000Z</time>
      </trkpt>
      <trkpt lat="43.317888490855693817138671875" lon="-1.98553833179175853729248046875">
        <ele>-4</ele>
        <time>2018-09-02T09:28:58.000Z</time>
      </trkpt>
      <trkpt lat="43.31775429658591747283935546875" lon="-1.98566741310060024261474609375">
        <ele>-4.19999980926513671875</ele>
        <time>2018-09-02T09:29:03.000Z</time>
      </trkpt>
      <trkpt lat="43.31755019724369049072265625" lon="-1.9858762063086032867431640625">
        <ele>-4</ele>
        <time>2018-09-02T09:29:10.000Z</time>
      </trkpt>
      <trkpt lat="43.3173901028931140899658203125" lon="-1.9860294274985790252685546875">
        <ele>-3.7999999523162841796875</ele>
        <time>2018-09-02T09:29:16.000Z</time>
      </trkpt>
      <trkpt lat="43.31728122197091579437255859375" lon="-1.98614065535366535186767578125">
        <ele>-3.599999904632568359375</ele>
        <time>2018-09-02T09:29:20.000Z</time>
      </trkpt>
      <trkpt lat="43.3171963132917881011962890625" lon="-1.9862205348908901214599609375">
        <ele>-3.599999904632568359375</ele>
        <time>2018-09-02T09:29:23.000Z</time>
      </trkpt>
      <trkpt lat="43.31701618619263172149658203125" lon="-1.98642589151859283447265625">
        <ele>-3.599999904632568359375</ele>
        <time>2018-09-02T09:29:29.000Z</time>
      </trkpt>
      <trkpt lat="43.31681971438229084014892578125" lon="-1.9866761751472949981689453125">
        <ele>-3.599999904632568359375</ele>
        <time>2018-09-02T09:29:36.000Z</time>
      </trkpt>
      <trkpt lat="43.31673170439898967742919921875" lon="-1.986781619489192962646484375">
        <ele>-3.400000095367431640625</ele>
        <time>2018-09-02T09:29:40.000Z</time>
      </trkpt>
      <trkpt lat="43.3166457898914813995361328125" lon="-1.98686686344444751739501953125">
        <ele>-3.599999904632568359375</ele>
        <time>2018-09-02T09:29:43.000Z</time>
      </trkpt>
      <trkpt lat="43.3165891282260417938232421875" lon="-1.986947916448116302490234375">
        <ele>-3.599999904632568359375</ele>
        <time>2018-09-02T09:29:45.000Z</time>
      </trkpt>
      <trkpt lat="43.316558115184307098388671875" lon="-1.98699024505913257598876953125">
        <ele>-3.400000095367431640625</ele>
        <time>2018-09-02T09:29:46.000Z</time>
      </trkpt>
      <trkpt lat="43.31652819178998470306396484375" lon="-1.98703181929886341094970703125">
        <ele>-3.599999904632568359375</ele>
        <time>2018-09-02T09:29:47.000Z</time>
      </trkpt>
      <trkpt lat="43.31647303886711597442626953125" lon="-1.9871110282838344573974609375">
        <ele>-3.599999904632568359375</ele>
        <time>2018-09-02T09:29:49.000Z</time>
      </trkpt>
      <trkpt lat="43.31633859314024448394775390625" lon="-1.98729400523006916046142578125">
        <ele>-3.599999904632568359375</ele>
        <time>2018-09-02T09:29:54.000Z</time>
      </trkpt>
      <trkpt lat="43.31621043384075164794921875" lon="-1.9874654151499271392822265625">
        <ele>-3.400000095367431640625</ele>
        <time>2018-09-02T09:29:59.000Z</time>
      </trkpt>
      <trkpt lat="43.31618763506412506103515625" lon="-1.98749986477196216583251953125">
        <ele>-3.400000095367431640625</ele>
        <time>2018-09-02T09:30:00.000Z</time>
      </trkpt>
      <trkpt lat="43.31601873971521854400634765625" lon="-1.98774746619164943695068359375">
        <ele>-3.2000000476837158203125</ele>
        <time>2018-09-02T09:30:06.000Z</time>
      </trkpt>
      <trkpt lat="43.3159611560404300689697265625" lon="-1.98783447034657001495361328125">
        <ele>-3.400000095367431640625</ele>
        <time>2018-09-02T09:30:08.000Z</time>
      </trkpt>
      <trkpt lat="43.31585009582340717315673828125" lon="-1.98800009675323963165283203125">
        <ele>-3.400000095367431640625</ele>
        <time>2018-09-02T09:30:12.000Z</time>
      </trkpt>
      <trkpt lat="43.315675668418407440185546875" lon="-1.98824199847877025604248046875">
        <ele>-3.400000095367431640625</ele>
        <time>2018-09-02T09:30:18.000Z</time>
      </trkpt>
      <trkpt lat="43.315551616251468658447265625" lon="-1.98845087550580501556396484375">
        <ele>-3.400000095367431640625</ele>
        <time>2018-09-02T09:30:23.000Z</time>
      </trkpt>
      <trkpt lat="43.31547559238970279693603515625" lon="-1.98858263902366161346435546875">
        <ele>-3.400000095367431640625</ele>
        <time>2018-09-02T09:30:26.000Z</time>
      </trkpt>
      <trkpt lat="43.3154029212892055511474609375" lon="-1.9887129776179790496826171875">
        <ele>-3</ele>
        <time>2018-09-02T09:30:29.000Z</time>
      </trkpt>
      <trkpt lat="43.315353803336620330810546875" lon="-1.9888004846870899200439453125">
        <ele>-3</ele>
        <time>2018-09-02T09:30:31.000Z</time>
      </trkpt>
      <trkpt lat="43.31530795432627201080322265625" lon="-1.98889109306037425994873046875">
        <ele>-2.7999999523162841796875</ele>
        <time>2018-09-02T09:30:33.000Z</time>
      </trkpt>
      <trkpt lat="43.3152406476438045501708984375" lon="-1.9890174083411693572998046875">
        <ele>-3</ele>
        <time>2018-09-02T09:30:36.000Z</time>
      </trkpt>
      <trkpt lat="43.31516076810657978057861328125" lon="-1.98918613605201244354248046875">
        <ele>-3</ele>
        <time>2018-09-02T09:30:40.000Z</time>
      </trkpt>
      <trkpt lat="43.3151119016110897064208984375" lon="-1.98932326398789882659912109375">
        <ele>-2.7999999523162841796875</ele>
        <time>2018-09-02T09:30:43.000Z</time>
      </trkpt>
      <trkpt lat="43.31505632959306240081787109375" lon="-1.9895203225314617156982421875">
        <ele>-2.7999999523162841796875</ele>
        <time>2018-09-02T09:30:47.000Z</time>
      </trkpt>
      <trkpt lat="43.31498458050191402435302734375" lon="-1.98985517956316471099853515625">
        <ele>-2.7999999523162841796875</ele>
        <time>2018-09-02T09:30:54.000Z</time>
      </trkpt>
      <trkpt lat="43.31494577229022979736328125" lon="-1.99006573297083377838134765625">
        <ele>-2.400000095367431640625</ele>
        <time>2018-09-02T09:30:58.000Z</time>
      </trkpt>
      <trkpt lat="43.31490981392562389373779296875" lon="-1.9902767054736614227294921875">
        <ele>-2.599999904632568359375</ele>
        <time>2018-09-02T09:31:02.000Z</time>
      </trkpt>
      <trkpt lat="43.3148591034114360809326171875" lon="-1.990540064871311187744140625">
        <ele>-2.2000000476837158203125</ele>
        <time>2018-09-02T09:31:07.000Z</time>
      </trkpt>
      <trkpt lat="43.3148212172091007232666015625" lon="-1.9907556474208831787109375">
        <ele>-2.2000000476837158203125</ele>
        <time>2018-09-02T09:31:11.000Z</time>
      </trkpt>
      <trkpt lat="43.31473563797771930694580078125" lon="-1.9911725632846355438232421875">
        <ele>-1.60000002384185791015625</ele>
        <time>2018-09-02T09:31:19.000Z</time>
      </trkpt>
      <trkpt lat="43.3146943151950836181640625" lon="-1.9913844577968120574951171875">
        <ele>-1.39999997615814208984375</ele>
        <time>2018-09-02T09:31:23.000Z</time>
      </trkpt>
      <trkpt lat="43.31466975621879100799560546875" lon="-1.9914863817393779754638671875">
        <ele>-1.39999997615814208984375</ele>
        <time>2018-09-02T09:31:25.000Z</time>
      </trkpt>
      <trkpt lat="43.314658440649509429931640625" lon="-1.99153684079647064208984375">
        <ele>-1.39999997615814208984375</ele>
        <time>2018-09-02T09:31:26.000Z</time>
      </trkpt>
      <trkpt lat="43.31463539041578769683837890625" lon="-1.99163876473903656005859375">
        <ele>-1.2000000476837158203125</ele>
        <time>2018-09-02T09:31:28.000Z</time>
      </trkpt>
      <trkpt lat="43.31462549977004528045654296875" lon="-1.99174915440380573272705078125">
        <ele>-1.39999997615814208984375</ele>
        <time>2018-09-02T09:31:30.000Z</time>
      </trkpt>
      <trkpt lat="43.31461829133331775665283203125" lon="-1.99185359291732311248779296875">
        <ele>-1</ele>
        <time>2018-09-02T09:31:32.000Z</time>
      </trkpt>
      <trkpt lat="43.3145771361887454986572265625" lon="-1.9921324588358402252197265625">
        <ele>-1</ele>
        <time>2018-09-02T09:31:38.000Z</time>
      </trkpt>
      <trkpt lat="43.31453740596771240234375" lon="-1.9925334490835666656494140625">
        <ele>-0.800000011920928955078125</ele>
        <time>2018-09-02T09:31:45.000Z</time>
      </trkpt>
      <trkpt lat="43.3145268447697162628173828125" lon="-1.992870904505252838134765625">
        <ele>-0.60000002384185791015625</ele>
        <time>2018-09-02T09:31:51.000Z</time>
      </trkpt>
      <trkpt lat="43.3145285211503505706787109375" lon="-1.9929287396371364593505859375">
        <ele>-0.4000000059604644775390625</ele>
        <time>2018-09-02T09:31:52.000Z</time>
      </trkpt>
      <trkpt lat="43.31452776677906513214111328125" lon="-1.993044912815093994140625">
        <ele>-0.20000000298023223876953125</ele>
        <time>2018-09-02T09:31:54.000Z</time>
      </trkpt>
      <trkpt lat="43.31452625803649425506591796875" lon="-1.99339435435831546783447265625">
        <ele>-0.20000000298023223876953125</ele>
        <time>2018-09-02T09:32:00.000Z</time>
      </trkpt>
      <trkpt lat="43.31452156417071819305419921875" lon="-1.9936331547796726226806640625">
        <ele>-0.4000000059604644775390625</ele>
        <time>2018-09-02T09:32:04.000Z</time>
      </trkpt>
      <trkpt lat="43.314516954123973846435546875" lon="-1.99387396685779094696044921875">
        <ele>0</ele>
        <time>2018-09-02T09:32:08.000Z</time>
      </trkpt>
      <trkpt lat="43.314516954123973846435546875" lon="-1.9941722787916660308837890625">
        <ele>0.20000000298023223876953125</ele>
        <time>2018-09-02T09:32:13.000Z</time>
      </trkpt>
      <trkpt lat="43.31451787613332271575927734375" lon="-1.994233466684818267822265625">
        <ele>0.4000000059604644775390625</ele>
        <time>2018-09-02T09:32:14.000Z</time>
      </trkpt>
      <trkpt lat="43.31450848840177059173583984375" lon="-1.99460671283304691314697265625">
        <ele>0.20000000298023223876953125</ele>
        <time>2018-09-02T09:32:20.000Z</time>
      </trkpt>
      <trkpt lat="43.314491473138332366943359375" lon="-1.99515220709145069122314453125">
        <ele>0.20000000298023223876953125</ele>
        <time>2018-09-02T09:32:29.000Z</time>
      </trkpt>
      <trkpt lat="43.3144923113286495208740234375" lon="-1.9952109642326831817626953125">
        <ele>0.20000000298023223876953125</ele>
        <time>2018-09-02T09:32:30.000Z</time>
      </trkpt>
      <trkpt lat="43.31448820419609546661376953125" lon="-1.99544255621731281280517578125">
        <ele>0.4000000059604644775390625</ele>
        <time>2018-09-02T09:32:34.000Z</time>
      </trkpt>
      <trkpt lat="43.3144902996718883514404296875" lon="-1.9955526106059551239013671875">
        <ele>0.4000000059604644775390625</ele>
        <time>2018-09-02T09:32:36.000Z</time>
      </trkpt>
      <trkpt lat="43.31449382007122039794921875" lon="-1.99566685594618320465087890625">
        <ele>0.60000002384185791015625</ele>
        <time>2018-09-02T09:32:38.000Z</time>
      </trkpt>
      <trkpt lat="43.31451938487589359283447265625" lon="-1.99594798497855663299560546875">
        <ele>0.800000011920928955078125</ele>
        <time>2018-09-02T09:32:43.000Z</time>
      </trkpt>
      <trkpt lat="43.31454050727188587188720703125" lon="-1.9960954226553440093994140625">
        <ele>0.800000011920928955078125</ele>
        <time>2018-09-02T09:32:46.000Z</time>
      </trkpt>
      <trkpt lat="43.31457403488457202911376953125" lon="-1.9962758012115955352783203125">
        <ele>1</ele>
        <time>2018-09-02T09:32:50.000Z</time>
      </trkpt>
      <trkpt lat="43.31464226357638835906982421875" lon="-1.99655734933912754058837890625">
        <ele>0.800000011920928955078125</ele>
        <time>2018-09-02T09:32:58.000Z</time>
      </trkpt>
      <trkpt lat="43.314673192799091339111328125" lon="-1.99669397436082363128662109375">
        <ele>0.60000002384185791015625</ele>
        <time>2018-09-02T09:33:03.000Z</time>
      </trkpt>
      <trkpt lat="43.31471116282045841217041015625" lon="-1.9967696629464626312255859375">
        <ele>0.4000000059604644775390625</ele>
        <time>2018-09-02T09:33:06.000Z</time>
      </trkpt>
      <trkpt lat="43.3147360570728778839111328125" lon="-1.996797658503055572509765625">
        <ele>0.60000002384185791015625</ele>
        <time>2018-09-02T09:33:08.000Z</time>
      </trkpt>
      <trkpt lat="43.31470244564116001129150390625" lon="-1.996855325996875762939453125">
        <ele>0.4000000059604644775390625</ele>
        <time>2018-09-02T09:46:25.000Z</time>
      </trkpt>
      <trkpt lat="43.31472717225551605224609375" lon="-1.9969979859888553619384765625">
        <ele>0.60000002384185791015625</ele>
        <time>2018-09-02T09:46:29.000Z</time>
      </trkpt>
      <trkpt lat="43.3147672377526760101318359375" lon="-1.99718565680086612701416015625">
        <ele>0.60000002384185791015625</ele>
        <time>2018-09-02T09:46:33.000Z</time>
      </trkpt>
      <trkpt lat="43.31481258384883403778076171875" lon="-1.9973724894225597381591796875">
        <ele>0.4000000059604644775390625</ele>
        <time>2018-09-02T09:46:37.000Z</time>
      </trkpt>
      <trkpt lat="43.31488684751093387603759765625" lon="-1.99756317771971225738525390625">
        <ele>0.60000002384185791015625</ele>
        <time>2018-09-02T09:46:42.000Z</time>
      </trkpt>
      <trkpt lat="43.3148981630802154541015625" lon="-1.99760374613106250762939453125">
        <ele>0.4000000059604644775390625</ele>
        <time>2018-09-02T09:46:44.000Z</time>
      </trkpt>
      <trkpt lat="43.31494309008121490478515625" lon="-1.9977436400949954986572265625">
        <ele>0</ele>
        <time>2018-09-02T09:47:02.000Z</time>
      </trkpt>
      <trkpt lat="43.31495516002178192138671875" lon="-1.99777222238481044769287109375">
        <ele>0</ele>
        <time>2018-09-02T09:47:03.000Z</time>
      </trkpt>
      <trkpt lat="43.3150160126388072967529296875" lon="-1.9979454763233661651611328125">
        <ele>-0.20000000298023223876953125</ele>
        <time>2018-09-02T09:47:08.000Z</time>
      </trkpt>
      <trkpt lat="43.3150428347289562225341796875" lon="-1.99801663868129253387451171875">
        <ele>-0.20000000298023223876953125</ele>
        <time>2018-09-02T09:47:10.000Z</time>
      </trkpt>
      <trkpt lat="43.3150790445506572723388671875" lon="-1.998119316995143890380859375">
        <ele>-0.4000000059604644775390625</ele>
        <time>2018-09-02T09:47:13.000Z</time>
      </trkpt>
      <trkpt lat="43.3151824772357940673828125" lon="-1.9983431138098239898681640625">
        <ele>-0.60000002384185791015625</ele>
        <time>2018-09-02T09:47:19.000Z</time>
      </trkpt>
      <trkpt lat="43.31522497348487377166748046875" lon="-1.99847362004220485687255859375">
        <ele>-0.4000000059604644775390625</ele>
        <time>2018-09-02T09:47:22.000Z</time>
      </trkpt>
      <trkpt lat="43.31525229848921298980712890625" lon="-1.99863262474536895751953125">
        <ele>-0.800000011920928955078125</ele>
        <time>2018-09-02T09:47:25.000Z</time>
      </trkpt>
      <trkpt lat="43.31525062210857868194580078125" lon="-1.99874795973300933837890625">
        <ele>-0.800000011920928955078125</ele>
        <time>2018-09-02T09:47:26.000Z</time>
      </trkpt>
      <trkpt lat="43.315301500260829925537109375" lon="-1.998826749622821807861328125">
        <ele>-0.800000011920928955078125</ele>
        <time>2018-09-02T09:47:27.000Z</time>
      </trkpt>
      <trkpt lat="43.31546838395297527313232421875" lon="-1.9990703277289867401123046875">
        <ele>-1</ele>
        <time>2018-09-02T09:47:32.000Z</time>
      </trkpt>
      <trkpt lat="43.3155400492250919342041015625" lon="-1.99933829717338085174560546875">
        <ele>-1.2000000476837158203125</ele>
        <time>2018-09-02T09:47:37.000Z</time>
      </trkpt>
      <trkpt lat="43.315548934042453765869140625" lon="-1.99938992969691753387451171875">
        <ele>-1.39999997615814208984375</ele>
        <time>2018-09-02T09:47:38.000Z</time>
      </trkpt>
      <trkpt lat="43.31561624072492122650146484375" lon="-1.99978865683078765869140625">
        <ele>-1.60000002384185791015625</ele>
        <time>2018-09-02T09:47:46.000Z</time>
      </trkpt>
      <trkpt lat="43.31565815024077892303466796875" lon="-2.000040449202060699462890625">
        <ele>-2.400000095367431640625</ele>
        <time>2018-09-02T09:47:51.000Z</time>
      </trkpt>
      <trkpt lat="43.31567742861807346343994140625" lon="-2.0001495815813541412353515625">
        <ele>-3</ele>
        <time>2018-09-02T09:47:53.000Z</time>
      </trkpt>
      <trkpt lat="43.31568748690187931060791015625" lon="-2.0002729631960391998291015625">
        <ele>-3.599999904632568359375</ele>
        <time>2018-09-02T09:47:55.000Z</time>
      </trkpt>
      <trkpt lat="43.31567608751356601715087890625" lon="-2.00044990517199039459228515625">
        <ele>-4.19999980926513671875</ele>
        <time>2018-09-02T09:47:58.000Z</time>
      </trkpt>
      <trkpt lat="43.31566100008785724639892578125" lon="-2.0005639828741550445556640625">
        <ele>-4.80000019073486328125</ele>
        <time>2018-09-02T09:48:00.000Z</time>
      </trkpt>
      <trkpt lat="43.31564121879637241363525390625" lon="-2.00062072835862636566162109375">
        <ele>-5</ele>
        <time>2018-09-02T09:48:01.000Z</time>
      </trkpt>
      <trkpt lat="43.31561037339270114898681640625" lon="-2.00074142776429653167724609375">
        <ele>-5.19999980926513671875</ele>
        <time>2018-09-02T09:48:03.000Z</time>
      </trkpt>
      <trkpt lat="43.31559260375797748565673828125" lon="-2.00080630369484424591064453125">
        <ele>-5.400000095367431640625</ele>
        <time>2018-09-02T09:48:04.000Z</time>
      </trkpt>
      <trkpt lat="43.3155035041272640228271484375" lon="-2.0011062920093536376953125">
        <ele>-5.599999904632568359375</ele>
        <time>2018-09-02T09:48:09.000Z</time>
      </trkpt>
      <trkpt lat="43.3155085332691669464111328125" lon="-2.00116991065442562103271484375">
        <ele>-5.599999904632568359375</ele>
        <time>2018-09-02T09:48:10.000Z</time>
      </trkpt>
      <trkpt lat="43.3155521191656589508056640625" lon="-2.00139421038329601287841796875">
        <ele>-5.599999904632568359375</ele>
        <time>2018-09-02T09:48:14.000Z</time>
      </trkpt>
      <trkpt lat="43.315567709505558013916015625" lon="-2.001445926725864410400390625">
        <ele>-5.599999904632568359375</ele>
        <time>2018-09-02T09:48:15.000Z</time>
      </trkpt>
      <trkpt lat="43.3156587369740009307861328125" lon="-2.001655139029026031494140625">
        <ele>-5.599999904632568359375</ele>
        <time>2018-09-02T09:48:20.000Z</time>
      </trkpt>
      <trkpt lat="43.31571397371590137481689453125" lon="-2.00189259834587574005126953125">
        <ele>-5.599999904632568359375</ele>
        <time>2018-09-02T09:48:25.000Z</time>
      </trkpt>
      <trkpt lat="43.31577382050454616546630859375" lon="-2.00208119116723537445068359375">
        <ele>-6.19999980926513671875</ele>
        <time>2018-09-02T09:48:29.000Z</time>
      </trkpt>
      <trkpt lat="43.31584028899669647216796875" lon="-2.00228353030979633331298828125">
        <ele>-5.80000019073486328125</ele>
        <time>2018-09-02T09:48:33.000Z</time>
      </trkpt>
      <trkpt lat="43.315923772752285003662109375" lon="-2.002550996840000152587890625">
        <ele>-5.80000019073486328125</ele>
        <time>2018-09-02T09:48:38.000Z</time>
      </trkpt>
      <trkpt lat="43.3160047419369220733642578125" lon="-2.00282986275851726531982421875">
        <ele>-5.80000019073486328125</ele>
        <time>2018-09-02T09:48:43.000Z</time>
      </trkpt>
      <trkpt lat="43.31615016795694828033447265625" lon="-2.00327552855014801025390625">
        <ele>-5.599999904632568359375</ele>
        <time>2018-09-02T09:48:52.000Z</time>
      </trkpt>
      <trkpt lat="43.3162240125238895416259765625" lon="-2.003536708652973175048828125">
        <ele>-5.80000019073486328125</ele>
        <time>2018-09-02T09:48:59.000Z</time>
      </trkpt>
      <trkpt lat="43.31629701890051364898681640625" lon="-2.003749273717403411865234375">
        <ele>-5.80000019073486328125</ele>
        <time>2018-09-02T09:49:04.000Z</time>
      </trkpt>
      <trkpt lat="43.31630967557430267333984375" lon="-2.00379428453743457794189453125">
        <ele>-5.80000019073486328125</ele>
        <time>2018-09-02T09:49:05.000Z</time>
      </trkpt>
      <trkpt lat="43.31641050986945629119873046875" lon="-2.004128135740756988525390625">
        <ele>-5.80000019073486328125</ele>
        <time>2018-09-02T09:49:12.000Z</time>
      </trkpt>
      <trkpt lat="43.3165532536804676055908203125" lon="-2.00449719093739986419677734375">
        <ele>-5.400000095367431640625</ele>
        <time>2018-09-02T09:49:20.000Z</time>
      </trkpt>
      <trkpt lat="43.31664629280567169189453125" lon="-2.00459827668964862823486328125">
        <ele>-5.400000095367431640625</ele>
        <time>2018-09-02T09:49:24.000Z</time>
      </trkpt>
      <trkpt lat="43.316637240350246429443359375" lon="-2.00461453758180141448974609375">
        <ele>-5.400000095367431640625</ele>
        <time>2018-09-02T09:49:25.000Z</time>
      </trkpt>
      <trkpt lat="43.3166270144283771514892578125" lon="-2.00464907102286815643310546875">
        <ele>-5.599999904632568359375</ele>
        <time>2018-09-02T09:49:27.000Z</time>
      </trkpt>
      <trkpt lat="43.3166337199509143829345703125" lon="-2.0046727918088436126708984375">
        <ele>-5.400000095367431640625</ele>
        <time>2018-09-02T09:49:28.000Z</time>
      </trkpt>
      <trkpt lat="43.31664637662470340728759765625" lon="-2.0047299563884735107421875">
        <ele>-5.599999904632568359375</ele>
        <time>2018-09-02T09:49:31.000Z</time>
      </trkpt>
      <trkpt lat="43.31668577156960964202880859375" lon="-2.004726268351078033447265625">
        <ele>-5.400000095367431640625</ele>
        <time>2018-09-02T09:49:36.000Z</time>
      </trkpt>
      <trkpt lat="43.31677126698195934295654296875" lon="-2.00474211014807224273681640625">
        <ele>-5.599999904632568359375</ele>
        <time>2018-09-02T09:49:40.000Z</time>
      </trkpt>
      <trkpt lat="43.31682139076292514801025390625" lon="-2.0047924853861331939697265625">
        <ele>-5.80000019073486328125</ele>
        <time>2018-09-02T09:49:42.000Z</time>
      </trkpt>
      <trkpt lat="43.31693421117961406707763671875" lon="-2.004894912242889404296875">
        <ele>-6</ele>
        <time>2018-09-02T09:49:46.000Z</time>
      </trkpt>
      <trkpt lat="43.317057006061077117919921875" lon="-2.0049892924726009368896484375">
        <ele>-6.19999980926513671875</ele>
        <time>2018-09-02T09:49:50.000Z</time>
      </trkpt>
      <trkpt lat="43.31719706766307353973388671875" lon="-2.0050714351236820220947265625">
        <ele>-6.19999980926513671875</ele>
        <time>2018-09-02T09:49:54.000Z</time>
      </trkpt>
      <trkpt lat="43.31723629496991634368896484375" lon="-2.00508627109229564666748046875">
        <ele>-6.19999980926513671875</ele>
        <time>2018-09-02T09:49:55.000Z</time>
      </trkpt>
      <trkpt lat="43.31739102490246295928955078125" lon="-2.005152739584445953369140625">
        <ele>-6.19999980926513671875</ele>
        <time>2018-09-02T09:49:59.000Z</time>
      </trkpt>
      <trkpt lat="43.31743293441832065582275390625" lon="-2.005159445106983184814453125">
        <ele>-6.400000095367431640625</ele>
        <time>2018-09-02T09:50:00.000Z</time>
      </trkpt>
      <trkpt lat="43.3175128139555454254150390625" lon="-2.0051830820739269256591796875">
        <ele>-6.599999904632568359375</ele>
        <time>2018-09-02T09:50:02.000Z</time>
      </trkpt>
      <trkpt lat="43.3175537176430225372314453125" lon="-2.00519607402384281158447265625">
        <ele>-6.80000019073486328125</ele>
        <time>2018-09-02T09:50:03.000Z</time>
      </trkpt>
      <trkpt lat="43.3175892569124698638916015625" lon="-2.00520596466958522796630859375">
        <ele>-6.80000019073486328125</ele>
        <time>2018-09-02T09:50:04.000Z</time>
      </trkpt>
      <trkpt lat="43.3176420629024505615234375" lon="-2.00518484227359294891357421875">
        <ele>-7</ele>
        <time>2018-09-02T09:50:06.000Z</time>
      </trkpt>
      <trkpt lat="43.31765304319560527801513671875" lon="-2.00515978038311004638671875">
        <ele>-7</ele>
        <time>2018-09-02T09:50:07.000Z</time>
      </trkpt>
      <trkpt lat="43.31765539012849330902099609375" lon="-2.00515802018344402313232421875">
        <ele>-6.19999980926513671875</ele>
        <time>2018-09-02T09:50:09.000Z</time>
      </trkpt>
      <trkpt lat="43.31773526966571807861328125" lon="-2.00519599020481109619140625">
        <ele>-6.400000095367431640625</ele>
        <time>2018-09-02T09:51:02.000Z</time>
      </trkpt>
      <trkpt lat="43.31785873509943485260009765625" lon="-2.00522641651332378387451171875">
        <ele>-6.80000019073486328125</ele>
        <time>2018-09-02T09:51:06.000Z</time>
      </trkpt>
      <trkpt lat="43.317891843616962432861328125" lon="-2.00522524304687976837158203125">
        <ele>-6.599999904632568359375</ele>
        <time>2018-09-02T09:51:07.000Z</time>
      </trkpt>
      <trkpt lat="43.3179630897939205169677734375" lon="-2.00522272847592830657958984375">
        <ele>-6.599999904632568359375</ele>
        <time>2018-09-02T09:51:09.000Z</time>
      </trkpt>
      <trkpt lat="43.31807616166770458221435546875" lon="-2.0051912963390350341796875">
        <ele>-6.400000095367431640625</ele>
        <time>2018-09-02T09:51:13.000Z</time>
      </trkpt>
      <trkpt lat="43.318220078945159912109375" lon="-2.00516388751566410064697265625">
        <ele>-6.80000019073486328125</ele>
        <time>2018-09-02T09:51:18.000Z</time>
      </trkpt>
      <trkpt lat="43.31837086938321590423583984375" lon="-2.005139328539371490478515625">
        <ele>-6.599999904632568359375</ele>
        <time>2018-09-02T09:51:22.000Z</time>
      </trkpt>
      <trkpt lat="43.31844027154147624969482421875" lon="-2.00511057861149311065673828125">
        <ele>-6.400000095367431640625</ele>
        <time>2018-09-02T09:51:24.000Z</time>
      </trkpt>
      <trkpt lat="43.31851487047970294952392578125" lon="-2.00509607791900634765625">
        <ele>-6.400000095367431640625</ele>
        <time>2018-09-02T09:51:26.000Z</time>
      </trkpt>
      <trkpt lat="43.31865769810974597930908203125" lon="-2.00506699271500110626220703125">
        <ele>-6.599999904632568359375</ele>
        <time>2018-09-02T09:51:30.000Z</time>
      </trkpt>
      <trkpt lat="43.31879382021725177764892578125" lon="-2.00503027997910976409912109375">
        <ele>-6.599999904632568359375</ele>
        <time>2018-09-02T09:51:34.000Z</time>
      </trkpt>
      <trkpt lat="43.3188854344189167022705078125" lon="-2.00500764884054660797119140625">
        <ele>-6.400000095367431640625</ele>
        <time>2018-09-02T09:51:38.000Z</time>
      </trkpt>
      <trkpt lat="43.3190772123634815216064453125" lon="-2.0049752108752727508544921875">
        <ele>-6.400000095367431640625</ele>
        <time>2018-09-02T09:51:44.000Z</time>
      </trkpt>
      <trkpt lat="43.31938943825662136077880859375" lon="-2.00489751063287258148193359375">
        <ele>-6.599999904632568359375</ele>
        <time>2018-09-02T09:51:52.000Z</time>
      </trkpt>
      <trkpt lat="43.31973711960017681121826171875" lon="-2.00481654144823551177978515625">
        <ele>-6.599999904632568359375</ele>
        <time>2018-09-02T09:52:01.000Z</time>
      </trkpt>
      <trkpt lat="43.319776766002178192138671875" lon="-2.0048115961253643035888671875">
        <ele>-6.400000095367431640625</ele>
        <time>2018-09-02T09:52:02.000Z</time>
      </trkpt>
      <trkpt lat="43.31992319785058498382568359375" lon="-2.00480866245925426483154296875">
        <ele>-6.19999980926513671875</ele>
        <time>2018-09-02T09:52:06.000Z</time>
      </trkpt>
      <trkpt lat="43.32003048621118068695068359375" lon="-2.00483229942619800567626953125">
        <ele>-6.19999980926513671875</ele>
        <time>2018-09-02T09:52:09.000Z</time>
      </trkpt>
      <trkpt lat="43.32021287642419338226318359375" lon="-2.00488326139748096466064453125">
        <ele>-6.599999904632568359375</ele>
        <time>2018-09-02T09:52:14.000Z</time>
      </trkpt>
      <trkpt lat="43.32031697966158390045166015625" lon="-2.00490304268896579742431640625">
        <ele>-6.400000095367431640625</ele>
        <time>2018-09-02T09:52:17.000Z</time>
      </trkpt>
      <trkpt lat="43.32044522278010845184326171875" lon="-2.0048977620899677276611328125">
        <ele>-6</ele>
        <time>2018-09-02T09:52:21.000Z</time>
      </trkpt>
      <trkpt lat="43.3204816840589046478271484375" lon="-2.00489549897611141204833984375">
        <ele>-6</ele>
        <time>2018-09-02T09:52:23.000Z</time>
      </trkpt>
      <trkpt lat="43.32056474871933460235595703125" lon="-2.004897594451904296875">
        <ele>-6.19999980926513671875</ele>
        <time>2018-09-02T09:52:30.000Z</time>
      </trkpt>
      <trkpt lat="43.32064278423786163330078125" lon="-2.0049185492098331451416015625">
        <ele>-5.80000019073486328125</ele>
        <time>2018-09-02T09:52:37.000Z</time>
      </trkpt>
      <trkpt lat="43.32079106010496616363525390625" lon="-2.004943527281284332275390625">
        <ele>-6.19999980926513671875</ele>
        <time>2018-09-02T09:52:42.000Z</time>
      </trkpt>
      <trkpt lat="43.3208712749183177947998046875" lon="-2.004968337714672088623046875">
        <ele>-6</ele>
        <time>2018-09-02T09:52:44.000Z</time>
      </trkpt>
      <trkpt lat="43.3209438621997833251953125" lon="-2.004989124834537506103515625">
        <ele>-5.80000019073486328125</ele>
        <time>2018-09-02T09:52:46.000Z</time>
      </trkpt>
      <trkpt lat="43.32104033790528774261474609375" lon="-2.00501083396375179290771484375">
        <ele>-5.599999904632568359375</ele>
        <time>2018-09-02T09:52:49.000Z</time>
      </trkpt>
      <trkpt lat="43.32112918607890605926513671875" lon="-2.00503229163587093353271484375">
        <ele>-5.80000019073486328125</ele>
        <time>2018-09-02T09:52:54.000Z</time>
      </trkpt>
      <trkpt lat="43.321186937391757965087890625" lon="-2.0050563476979732513427734375">
        <ele>-6.19999980926513671875</ele>
        <time>2018-09-02T09:52:57.000Z</time>
      </trkpt>
      <trkpt lat="43.32124150358140468597412109375" lon="-2.00507286004722118377685546875">
        <ele>-6.400000095367431640625</ele>
        <time>2018-09-02T09:52:59.000Z</time>
      </trkpt>
      <trkpt lat="43.3213423378765583038330078125" lon="-2.00509834103286266326904296875">
        <ele>-6.19999980926513671875</ele>
        <time>2018-09-02T09:53:04.000Z</time>
      </trkpt>
      <trkpt lat="43.3214311860501766204833984375" lon="-2.00511954724788665771484375">
        <ele>-6.19999980926513671875</ele>
        <time>2018-09-02T09:53:09.000Z</time>
      </trkpt>
      <trkpt lat="43.32144610583782196044921875" lon="-2.00512885116040706634521484375">
        <ele>-6</ele>
        <time>2018-09-02T09:53:10.000Z</time>
      </trkpt>
      <trkpt lat="43.3214588463306427001953125" lon="-2.0051431842148303985595703125">
        <ele>-6</ele>
        <time>2018-09-02T09:53:11.000Z</time>
      </trkpt>
      <trkpt lat="43.3215284161269664764404296875" lon="-2.0052437670528888702392578125">
        <ele>-5.599999904632568359375</ele>
        <time>2018-09-02T09:53:18.000Z</time>
      </trkpt>
      <trkpt lat="43.321549035608768463134765625" lon="-2.00527109205722808837890625">
        <ele>-5.400000095367431640625</ele>
        <time>2018-09-02T09:53:20.000Z</time>
      </trkpt>
      <trkpt lat="43.32158046774566173553466796875" lon="-2.00532716698944568634033203125">
        <ele>-5.80000019073486328125</ele>
        <time>2018-09-02T09:53:24.000Z</time>
      </trkpt>
      <trkpt lat="43.32159052602946758270263671875" lon="-2.0053473673760890960693359375">
        <ele>-5.80000019073486328125</ele>
        <time>2018-09-02T09:53:26.000Z</time>
      </trkpt>
      <trkpt lat="43.32161374390125274658203125" lon="-2.00538852252066135406494140625">
        <ele>-5.80000019073486328125</ele>
        <time>2018-09-02T09:53:30.000Z</time>
      </trkpt>
      <trkpt lat="43.321636877954006195068359375" lon="-2.0054097287356853485107421875">
        <ele>-5.80000019073486328125</ele>
        <time>2018-09-02T09:53:33.000Z</time>
      </trkpt>
      <trkpt lat="43.3216333575546741485595703125" lon="-2.00543663464486598968505859375">
        <ele>-5.80000019073486328125</ele>
        <time>2018-09-02T09:53:35.000Z</time>
      </trkpt>
      <trkpt lat="43.32161215133965015411376953125" lon="-2.00544971041381359100341796875">
        <ele>-6.19999980926513671875</ele>
        <time>2018-09-02T09:53:37.000Z</time>
      </trkpt>
      <trkpt lat="43.3215857483446598052978515625" lon="-2.005401514470577239990234375">
        <ele>-5.80000019073486328125</ele>
        <time>2018-09-02T09:53:41.000Z</time>
      </trkpt>
      <trkpt lat="43.32158155739307403564453125" lon="-2.0053889416158199310302734375">
        <ele>-5.80000019073486328125</ele>
        <time>2018-09-02T09:53:42.000Z</time>
      </trkpt>
      <trkpt lat="43.32154224626719951629638671875" lon="-2.0053135044872760772705078125">
        <ele>-6</ele>
        <time>2018-09-02T09:55:14.000Z</time>
      </trkpt>
      <trkpt lat="43.32153101451694965362548828125" lon="-2.005300931632518768310546875">
        <ele>-6</ele>
        <time>2018-09-02T09:55:15.000Z</time>
      </trkpt>
      <trkpt lat="43.3214908652007579803466796875" lon="-2.00525642372667789459228515625">
        <ele>-6</ele>
        <time>2018-09-02T09:55:19.000Z</time>
      </trkpt>
      <trkpt lat="43.321461863815784454345703125" lon="-2.00520730577409267425537109375">
        <ele>-6</ele>
        <time>2018-09-02T09:55:22.000Z</time>
      </trkpt>
      <trkpt lat="43.32145809195935726165771484375" lon="-2.0051867701113224029541015625">
        <ele>-6</ele>
        <time>2018-09-02T09:55:23.000Z</time>
      </trkpt>
      <trkpt lat="43.32145205698907375335693359375" lon="-2.0051733590662479400634765625">
        <ele>-6</ele>
        <time>2018-09-02T09:55:24.000Z</time>
      </trkpt>
      <trkpt lat="43.32143328152596950531005859375" lon="-2.0051559247076511383056640625">
        <ele>-6.19999980926513671875</ele>
        <time>2018-09-02T09:55:26.000Z</time>
      </trkpt>
      <trkpt lat="43.32141098566353321075439453125" lon="-2.0051280967891216278076171875">
        <ele>-6</ele>
        <time>2018-09-02T09:55:28.000Z</time>
      </trkpt>
      <trkpt lat="43.32134552299976348876953125" lon="-2.00510873459279537200927734375">
        <ele>-6.19999980926513671875</ele>
        <time>2018-09-02T09:55:32.000Z</time>
      </trkpt>
      <trkpt lat="43.321304954588413238525390625" lon="-2.00509540736675262451171875">
        <ele>-6.19999980926513671875</ele>
        <time>2018-09-02T09:55:34.000Z</time>
      </trkpt>
      <trkpt lat="43.32118735648691654205322265625" lon="-2.0050620473921298980712890625">
        <ele>-5.80000019073486328125</ele>
        <time>2018-09-02T09:55:41.000Z</time>
      </trkpt>
      <trkpt lat="43.3211049623787403106689453125" lon="-2.00503648258745670318603515625">
        <ele>-6.19999980926513671875</ele>
        <time>2018-09-02T09:55:45.000Z</time>
      </trkpt>
      <trkpt lat="43.32108132541179656982421875" lon="-2.0050372369587421417236328125">
        <ele>-6.19999980926513671875</ele>
        <time>2018-09-02T09:55:46.000Z</time>
      </trkpt>
      <trkpt lat="43.32102139480412006378173828125" lon="-2.005033381283283233642578125">
        <ele>-6</ele>
        <time>2018-09-02T09:55:49.000Z</time>
      </trkpt>
      <trkpt lat="43.3209768868982791900634765625" lon="-2.0050174556672573089599609375">
        <ele>-6</ele>
        <time>2018-09-02T09:55:52.000Z</time>
      </trkpt>
      <trkpt lat="43.320918716490268707275390625" lon="-2.004984430968761444091796875">
        <ele>-6</ele>
        <time>2018-09-02T09:55:57.000Z</time>
      </trkpt>
      <trkpt lat="43.3208964206278324127197265625" lon="-2.0049691759049892425537109375">
        <ele>-6</ele>
        <time>2018-09-02T09:55:58.000Z</time>
      </trkpt>
      <trkpt lat="43.32081838510930538177490234375" lon="-2.00496490113437175750732421875">
        <ele>-5.80000019073486328125</ele>
        <time>2018-09-02T09:56:01.000Z</time>
      </trkpt>
      <trkpt lat="43.32077077589929103851318359375" lon="-2.0049799047410488128662109375">
        <ele>-6</ele>
        <time>2018-09-02T09:56:03.000Z</time>
      </trkpt>
      <trkpt lat="43.32067287527024745941162109375" lon="-2.00496322475373744964599609375">
        <ele>-6</ele>
        <time>2018-09-02T09:56:08.000Z</time>
      </trkpt>
      <trkpt lat="43.32065259106457233428955078125" lon="-2.00494344346225261688232421875">
        <ele>-6</ele>
        <time>2018-09-02T09:56:09.000Z</time>
      </trkpt>
      <trkpt lat="43.32049082033336162567138671875" lon="-2.0048987679183483123779296875">
        <ele>-6.19999980926513671875</ele>
        <time>2018-09-02T09:56:15.000Z</time>
      </trkpt>
      <trkpt lat="43.32032351754605770111083984375" lon="-2.00490924529731273651123046875">
        <ele>-6.400000095367431640625</ele>
        <time>2018-09-02T09:56:21.000Z</time>
      </trkpt>
      <trkpt lat="43.32023919560015201568603515625" lon="-2.00489935465157032012939453125">
        <ele>-6.19999980926513671875</ele>
        <time>2018-09-02T09:56:24.000Z</time>
      </trkpt>
      <trkpt lat="43.32015336491167545318603515625" lon="-2.00489432550966739654541015625">
        <ele>-6.400000095367431640625</ele>
        <time>2018-09-02T09:56:27.000Z</time>
      </trkpt>
      <trkpt lat="43.32008915953338146209716796875" lon="-2.00487772934138774871826171875">
        <ele>-6.19999980926513671875</ele>
        <time>2018-09-02T09:56:29.000Z</time>
      </trkpt>
      <trkpt lat="43.31992487423121929168701171875" lon="-2.0048561878502368927001953125">
        <ele>-6.19999980926513671875</ele>
        <time>2018-09-02T09:56:34.000Z</time>
      </trkpt>
      <trkpt lat="43.31963988952338695526123046875" lon="-2.0049037970602512359619140625">
        <ele>-6.19999980926513671875</ele>
        <time>2018-09-02T09:56:42.000Z</time>
      </trkpt>
      <trkpt lat="43.3192123286426067352294921875" lon="-2.00499038212001323699951171875">
        <ele>-6.19999980926513671875</ele>
        <time>2018-09-02T09:56:53.000Z</time>
      </trkpt>
      <trkpt lat="43.318998254835605621337890625" lon="-2.00503245927393436431884765625">
        <ele>-6.400000095367431640625</ele>
        <time>2018-09-02T09:56:58.000Z</time>
      </trkpt>
      <trkpt lat="43.31881678663194179534912109375" lon="-2.00507135130465030670166015625">
        <ele>-6.400000095367431640625</ele>
        <time>2018-09-02T09:57:02.000Z</time>
      </trkpt>
      <trkpt lat="43.31840825267136096954345703125" lon="-2.00515634380280971527099609375">
        <ele>-6.400000095367431640625</ele>
        <time>2018-09-02T09:57:11.000Z</time>
      </trkpt>
      <trkpt lat="43.318320997059345245361328125" lon="-2.00517696328461170196533203125">
        <ele>-6.400000095367431640625</ele>
        <time>2018-09-02T09:57:13.000Z</time>
      </trkpt>
      <trkpt lat="43.3182353340089321136474609375" lon="-2.005206048488616943359375">
        <ele>-6.400000095367431640625</ele>
        <time>2018-09-02T09:57:15.000Z</time>
      </trkpt>
      <trkpt lat="43.31810197792947292327880859375" lon="-2.005240581929683685302734375">
        <ele>-6.400000095367431640625</ele>
        <time>2018-09-02T09:57:18.000Z</time>
      </trkpt>
      <trkpt lat="43.31797222606837749481201171875" lon="-2.00525793246924877166748046875">
        <ele>-6.19999980926513671875</ele>
        <time>2018-09-02T09:57:21.000Z</time>
      </trkpt>
      <trkpt lat="43.317775838077068328857421875" lon="-2.0052705891430377960205078125">
        <ele>-6.19999980926513671875</ele>
        <time>2018-09-02T09:57:26.000Z</time>
      </trkpt>
      <trkpt lat="43.317527733743190765380859375" lon="-2.00522976927459239959716796875">
        <ele>-6</ele>
        <time>2018-09-02T09:57:32.000Z</time>
      </trkpt>
      <trkpt lat="43.31748741678893566131591796875" lon="-2.00522004626691341400146484375">
        <ele>-6</ele>
        <time>2018-09-02T09:57:33.000Z</time>
      </trkpt>
      <trkpt lat="43.31720980815589427947998046875" lon="-2.00510722585022449493408203125">
        <ele>-6</ele>
        <time>2018-09-02T09:57:40.000Z</time>
      </trkpt>
      <trkpt lat="43.317141495645046234130859375" lon="-2.005062215030193328857421875">
        <ele>-5.599999904632568359375</ele>
        <time>2018-09-02T09:57:44.000Z</time>
      </trkpt>
      <trkpt lat="43.31711836159229278564453125" lon="-2.00504201464354991912841796875">
        <ele>-5.599999904632568359375</ele>
        <time>2018-09-02T09:57:47.000Z</time>
      </trkpt>
      <trkpt lat="43.31705398857593536376953125" lon="-2.0050154440104961395263671875">
        <ele>-5.599999904632568359375</ele>
        <time>2018-09-02T09:57:50.000Z</time>
      </trkpt>
      <trkpt lat="43.31697444431483745574951171875" lon="-2.00496196746826171875">
        <ele>-5.80000019073486328125</ele>
        <time>2018-09-02T09:57:53.000Z</time>
      </trkpt>
      <trkpt lat="43.31694762222468852996826171875" lon="-2.00493849813938140869140625">
        <ele>-5.80000019073486328125</ele>
        <time>2018-09-02T09:57:54.000Z</time>
      </trkpt>
      <trkpt lat="43.3169193752110004425048828125" lon="-2.00491343624889850616455078125">
        <ele>-5.599999904632568359375</ele>
        <time>2018-09-02T09:57:55.000Z</time>
      </trkpt>
      <trkpt lat="43.31673153676092624664306640625" lon="-2.004723586142063140869140625">
        <ele>-5.400000095367431640625</ele>
        <time>2018-09-02T09:58:02.000Z</time>
      </trkpt>
      <trkpt lat="43.3167064748704433441162109375" lon="-2.00470916926860809326171875">
        <ele>-5.400000095367431640625</ele>
        <time>2018-09-02T09:58:03.000Z</time>
      </trkpt>
      <trkpt lat="43.316601701080799102783203125" lon="-2.00472584925591945648193359375">
        <ele>-5.400000095367431640625</ele>
        <time>2018-09-02T09:58:07.000Z</time>
      </trkpt>
      <trkpt lat="43.31658703275024890899658203125" lon="-2.004814110696315765380859375">
        <ele>-5.599999904632568359375</ele>
        <time>2018-09-02T09:58:10.000Z</time>
      </trkpt>
      <trkpt lat="43.31658250652253627777099609375" lon="-2.0048558525741100311279296875">
        <ele>-5.400000095367431640625</ele>
        <time>2018-09-02T09:58:12.000Z</time>
      </trkpt>
      <trkpt lat="43.3166199736297130584716796875" lon="-2.0049473829567432403564453125">
        <ele>-5.19999980926513671875</ele>
        <time>2018-09-02T09:58:15.000Z</time>
      </trkpt>
      <trkpt lat="43.31669935025274753570556640625" lon="-2.005132623016834259033203125">
        <ele>-5.400000095367431640625</ele>
        <time>2018-09-02T09:58:20.000Z</time>
      </trkpt>
      <trkpt lat="43.31672717817127704620361328125" lon="-2.0052206330001354217529296875">
        <ele>-5.400000095367431640625</ele>
        <time>2018-09-02T09:58:22.000Z</time>
      </trkpt>
      <trkpt lat="43.31676791422069072723388671875" lon="-2.0053644664585590362548828125">
        <ele>-5.400000095367431640625</ele>
        <time>2018-09-02T09:58:25.000Z</time>
      </trkpt>
      <trkpt lat="43.316778726875782012939453125" lon="-2.00547066517174243927001953125">
        <ele>-5.599999904632568359375</ele>
        <time>2018-09-02T09:58:27.000Z</time>
      </trkpt>
      <trkpt lat="43.3167638070881366729736328125" lon="-2.00557820498943328857421875">
        <ele>-5.80000019073486328125</ele>
        <time>2018-09-02T09:58:29.000Z</time>
      </trkpt>
      <trkpt lat="43.31671896390616893768310546875" lon="-2.00567250140011310577392578125">
        <ele>-6</ele>
        <time>2018-09-02T09:58:31.000Z</time>
      </trkpt>
      <trkpt lat="43.31665165722370147705078125" lon="-2.00575548224151134490966796875">
        <ele>-6.400000095367431640625</ele>
        <time>2018-09-02T09:58:33.000Z</time>
      </trkpt>
      <trkpt lat="43.3164389245212078094482421875" lon="-2.0058586634695529937744140625">
        <ele>-6</ele>
        <time>2018-09-02T09:58:38.000Z</time>
      </trkpt>
      <trkpt lat="43.31621957011520862579345703125" lon="-2.00594943948090076446533203125">
        <ele>-5.599999904632568359375</ele>
        <time>2018-09-02T09:58:43.000Z</time>
      </trkpt>
      <trkpt lat="43.31604472361505031585693359375" lon="-2.00602504424750804901123046875">
        <ele>-5.599999904632568359375</ele>
        <time>2018-09-02T09:58:47.000Z</time>
      </trkpt>
      <trkpt lat="43.31592251546680927276611328125" lon="-2.006089501082897186279296875">
        <ele>-5</ele>
        <time>2018-09-02T09:58:50.000Z</time>
      </trkpt>
      <trkpt lat="43.3157886564731597900390625" lon="-2.00618840754032135009765625">
        <ele>-5.19999980926513671875</ele>
        <time>2018-09-02T09:58:54.000Z</time>
      </trkpt>
      <trkpt lat="43.31563333980739116668701171875" lon="-2.006383873522281646728515625">
        <ele>-3.7999999523162841796875</ele>
        <time>2018-09-02T09:59:01.000Z</time>
      </trkpt>
      <trkpt lat="43.31563082523643970489501953125" lon="-2.00644413940608501434326171875">
        <ele>-3.400000095367431640625</ele>
        <time>2018-09-02T09:59:03.000Z</time>
      </trkpt>
      <trkpt lat="43.31564540974795818328857421875" lon="-2.00649694539606571197509765625">
        <ele>-3</ele>
        <time>2018-09-02T09:59:05.000Z</time>
      </trkpt>
      <trkpt lat="43.3156513608992099761962890625" lon="-2.00651295483112335205078125">
        <ele>-2.599999904632568359375</ele>
        <time>2018-09-02T09:59:06.000Z</time>
      </trkpt>
      <trkpt lat="43.31566301174461841583251953125" lon="-2.0065372623503208160400390625">
        <ele>-2</ele>
        <time>2018-09-02T09:59:08.000Z</time>
      </trkpt>
      <trkpt lat="43.31568396650254726409912109375" lon="-2.0065694488584995269775390625">
        <ele>-1.60000002384185791015625</ele>
        <time>2018-09-02T09:59:10.000Z</time>
      </trkpt>
      <trkpt lat="43.3157083578407764434814453125" lon="-2.0066002942621707916259765625">
        <ele>-1</ele>
        <time>2018-09-02T09:59:12.000Z</time>
      </trkpt>
      <trkpt lat="43.31572755239903926849365234375" lon="-2.00664706528186798095703125">
        <ele>-0.60000002384185791015625</ele>
        <time>2018-09-02T09:59:15.000Z</time>
      </trkpt>
      <trkpt lat="43.3157378621399402618408203125" lon="-2.0066650025546550750732421875">
        <ele>-0.4000000059604644775390625</ele>
        <time>2018-09-02T09:59:16.000Z</time>
      </trkpt>
      <trkpt lat="43.31575722433626651763916015625" lon="-2.0066901482641696929931640625">
        <ele>0</ele>
        <time>2018-09-02T09:59:18.000Z</time>
      </trkpt>
      <trkpt lat="43.31579091958701610565185546875" lon="-2.00675544328987598419189453125">
        <ele>0.800000011920928955078125</ele>
        <time>2018-09-02T09:59:22.000Z</time>
      </trkpt>
      <trkpt lat="43.31579645164310932159423828125" lon="-2.006772458553314208984375">
        <ele>1</ele>
        <time>2018-09-02T09:59:23.000Z</time>
      </trkpt>
      <trkpt lat="43.3158069290220737457275390625" lon="-2.0067898929119110107421875">
        <ele>1.2000000476837158203125</ele>
        <time>2018-09-02T09:59:24.000Z</time>
      </trkpt>
      <trkpt lat="43.31583090126514434814453125" lon="-2.00683808885514736175537109375">
        <ele>1.7999999523162841796875</ele>
        <time>2018-09-02T09:59:27.000Z</time>
      </trkpt>
      <trkpt lat="43.31585093401372432708740234375" lon="-2.00689391233026981353759765625">
        <ele>2.599999904632568359375</ele>
        <time>2018-09-02T09:59:31.000Z</time>
      </trkpt>
      <trkpt lat="43.31587306223809719085693359375" lon="-2.00694755651056766510009765625">
        <ele>3.2000000476837158203125</ele>
        <time>2018-09-02T09:59:35.000Z</time>
      </trkpt>
      <trkpt lat="43.31589552573859691619873046875" lon="-2.00702768750488758087158203125">
        <ele>4</ele>
        <time>2018-09-02T09:59:40.000Z</time>
      </trkpt>
      <trkpt lat="43.315905667841434478759765625" lon="-2.007047049701213836669921875">
        <ele>4.19999980926513671875</ele>
        <time>2018-09-02T09:59:41.000Z</time>
      </trkpt>
      <trkpt lat="43.31593777053058147430419921875" lon="-2.00712843798100948333740234375">
        <ele>5.19999980926513671875</ele>
        <time>2018-09-02T09:59:46.000Z</time>
      </trkpt>
      <trkpt lat="43.31599124707281589508056640625" lon="-2.007254920899868011474609375">
        <ele>6.400000095367431640625</ele>
        <time>2018-09-02T09:59:53.000Z</time>
      </trkpt>
      <trkpt lat="43.31604137085378170013427734375" lon="-2.00737687759101390838623046875">
        <ele>7.400000095367431640625</ele>
        <time>2018-09-02T10:00:00.000Z</time>
      </trkpt>
      <trkpt lat="43.3160885609686374664306640625" lon="-2.00746606104075908660888671875">
        <ele>8.3999996185302734375</ele>
        <time>2018-09-02T10:00:06.000Z</time>
      </trkpt>
      <trkpt lat="43.31611655652523040771484375" lon="-2.007491290569305419921875">
        <ele>8.80000019073486328125</ele>
        <time>2018-09-02T10:00:08.000Z</time>
      </trkpt>
      <trkpt lat="43.31614731810986995697021484375" lon="-2.0075303502380847930908203125">
        <ele>9.6000003814697265625</ele>
        <time>2018-09-02T10:00:11.000Z</time>
      </trkpt>
      <trkpt lat="43.316203057765960693359375" lon="-2.00759463943541049957275390625">
        <ele>10.6000003814697265625</ele>
        <time>2018-09-02T10:00:17.000Z</time>
      </trkpt>
      <trkpt lat="43.3162334002554416656494140625" lon="-2.007678039371967315673828125">
        <ele>11.6000003814697265625</ele>
        <time>2018-09-02T10:00:23.000Z</time>
      </trkpt>
      <trkpt lat="43.31623113714158535003662109375" lon="-2.0076939649879932403564453125">
        <ele>11.80000019073486328125</ele>
        <time>2018-09-02T10:00:24.000Z</time>
      </trkpt>
      <trkpt lat="43.3162152953445911407470703125" lon="-2.00773629359900951385498046875">
        <ele>12.3999996185302734375</ele>
        <time>2018-09-02T10:00:27.000Z</time>
      </trkpt>
      <trkpt lat="43.31619945354759693145751953125" lon="-2.007764540612697601318359375">
        <ele>12.80000019073486328125</ele>
        <time>2018-09-02T10:00:29.000Z</time>
      </trkpt>
      <trkpt lat="43.31619274802505970001220703125" lon="-2.0077774487435817718505859375">
        <ele>13</ele>
        <time>2018-09-02T10:00:30.000Z</time>
      </trkpt>
      <trkpt lat="43.316134996712207794189453125" lon="-2.0078337751328945159912109375">
        <ele>13.6000003814697265625</ele>
        <time>2018-09-02T10:00:35.000Z</time>
      </trkpt>
      <trkpt lat="43.31617891788482666015625" lon="-2.00816787779331207275390625">
        <ele>16.6000003814697265625</ele>
        <time>2018-09-02T10:00:58.000Z</time>
      </trkpt>
      <trkpt lat="43.316195011138916015625" lon="-2.0081526227295398712158203125">
        <ele>16.799999237060546875</ele>
        <time>2018-09-02T10:00:59.000Z</time>
      </trkpt>
      <trkpt lat="43.3162220008671283721923828125" lon="-2.00811289250850677490234375">
        <ele>17</ele>
        <time>2018-09-02T10:01:01.000Z</time>
      </trkpt>
      <trkpt lat="43.31624521873891353607177734375" lon="-2.00807257555425167083740234375">
        <ele>17.200000762939453125</ele>
        <time>2018-09-02T10:01:03.000Z</time>
      </trkpt>
      <trkpt lat="43.31625158898532390594482421875" lon="-2.0080312527716159820556640625">
        <ele>17.6000003814697265625</ele>
        <time>2018-09-02T10:01:05.000Z</time>
      </trkpt>
      <trkpt lat="43.31625326536595821380615234375" lon="-2.00800367631018161773681640625">
        <ele>17.799999237060546875</ele>
        <time>2018-09-02T10:01:06.000Z</time>
      </trkpt>
      <trkpt lat="43.3162521757185459136962890625" lon="-2.0079755969345569610595703125">
        <ele>17.799999237060546875</ele>
        <time>2018-09-02T10:01:07.000Z</time>
      </trkpt>
      <trkpt lat="43.31627807579934597015380859375" lon="-2.0078200288116931915283203125">
        <ele>18.3999996185302734375</ele>
        <time>2018-09-02T10:01:13.000Z</time>
      </trkpt>
      <trkpt lat="43.3163252659142017364501953125" lon="-2.0077673904597759246826171875">
        <ele>18.799999237060546875</ele>
        <time>2018-09-02T10:01:16.000Z</time>
      </trkpt>
      <trkpt lat="43.31636558286845684051513671875" lon="-2.00776143930852413177490234375">
        <ele>19.200000762939453125</ele>
        <time>2018-09-02T10:01:18.000Z</time>
      </trkpt>
      <trkpt lat="43.316449485719203948974609375" lon="-2.007801420986652374267578125">
        <ele>19.799999237060546875</ele>
        <time>2018-09-02T10:01:22.000Z</time>
      </trkpt>
      <trkpt lat="43.31646063365042209625244140625" lon="-2.007822878658771514892578125">
        <ele>20</ele>
        <time>2018-09-02T10:01:23.000Z</time>
      </trkpt>
      <trkpt lat="43.316498436033725738525390625" lon="-2.0079175941646099090576171875">
        <ele>20.6000003814697265625</ele>
        <time>2018-09-02T10:01:27.000Z</time>
      </trkpt>
      <trkpt lat="43.31649550236761569976806640625" lon="-2.00794651173055171966552734375">
        <ele>20.6000003814697265625</ele>
        <time>2018-09-02T10:01:28.000Z</time>
      </trkpt>
      <trkpt lat="43.3164664171636104583740234375" lon="-2.00802932493388652801513671875">
        <ele>20.799999237060546875</ele>
        <time>2018-09-02T10:01:31.000Z</time>
      </trkpt>
      <trkpt lat="43.31645577214658260345458984375" lon="-2.00805748812854290008544921875">
        <ele>20.799999237060546875</ele>
        <time>2018-09-02T10:01:32.000Z</time>
      </trkpt>
      <trkpt lat="43.31642928533256053924560546875" lon="-2.0081066899001598358154296875">
        <ele>21.200000762939453125</ele>
        <time>2018-09-02T10:01:34.000Z</time>
      </trkpt>
      <trkpt lat="43.31638670526444911956787109375" lon="-2.00818807817995548248291015625">
        <ele>22</ele>
        <time>2018-09-02T10:01:37.000Z</time>
      </trkpt>
      <trkpt lat="43.3163128606975078582763671875" lon="-2.00830408371984958648681640625">
        <ele>22.799999237060546875</ele>
        <time>2018-09-02T10:01:42.000Z</time>
      </trkpt>
      <trkpt lat="43.3163024671375751495361328125" lon="-2.0083319954574108123779296875">
        <ele>23.200000762939453125</ele>
        <time>2018-09-02T10:01:43.000Z</time>
      </trkpt>
      <trkpt lat="43.31620884127914905548095703125" lon="-2.00841237790882587432861328125">
        <ele>24</ele>
        <time>2018-09-02T10:01:48.000Z</time>
      </trkpt>
      <trkpt lat="43.316088058054447174072265625" lon="-2.008380778133869171142578125">
        <ele>24</ele>
        <time>2018-09-02T10:01:53.000Z</time>
      </trkpt>
      <trkpt lat="43.3160503394901752471923828125" lon="-2.0083454065024852752685546875">
        <ele>24.200000762939453125</ele>
        <time>2018-09-02T10:01:55.000Z</time>
      </trkpt>
      <trkpt lat="43.31598940305411815643310546875" lon="-2.0082682929933071136474609375">
        <ele>24.799999237060546875</ele>
        <time>2018-09-02T10:01:59.000Z</time>
      </trkpt>
      <trkpt lat="43.31595822237432003021240234375" lon="-2.00822152197360992431640625">
        <ele>25.200000762939453125</ele>
        <time>2018-09-02T10:02:01.000Z</time>
      </trkpt>
      <trkpt lat="43.31590541638433933258056640625" lon="-2.0081241242587566375732421875">
        <ele>26.3999996185302734375</ele>
        <time>2018-09-02T10:02:06.000Z</time>
      </trkpt>
      <trkpt lat="43.3158531971275806427001953125" lon="-2.00801876373589038848876953125">
        <ele>27.6000003814697265625</ele>
        <time>2018-09-02T10:02:11.000Z</time>
      </trkpt>
      <trkpt lat="43.3158159814774990081787109375" lon="-2.00793729163706302642822265625">
        <ele>28</ele>
        <time>2018-09-02T10:02:15.000Z</time>
      </trkpt>
      <trkpt lat="43.315791673958301544189453125" lon="-2.0078716613352298736572265625">
        <ele>28.799999237060546875</ele>
        <time>2018-09-02T10:02:18.000Z</time>
      </trkpt>
      <trkpt lat="43.31574766896665096282958984375" lon="-2.007814161479473114013671875">
        <ele>29.3999996185302734375</ele>
        <time>2018-09-02T10:02:22.000Z</time>
      </trkpt>
      <trkpt lat="43.315702490508556365966796875" lon="-2.00778759084641933441162109375">
        <ele>30</ele>
        <time>2018-09-02T10:02:25.000Z</time>
      </trkpt>
      <trkpt lat="43.3156545460224151611328125" lon="-2.00778088532388210296630859375">
        <ele>30.6000003814697265625</ele>
        <time>2018-09-02T10:02:29.000Z</time>
      </trkpt>
      <trkpt lat="43.3156443201005458831787109375" lon="-2.007785998284816741943359375">
        <ele>30.799999237060546875</ele>
        <time>2018-09-02T10:02:30.000Z</time>
      </trkpt>
      <trkpt lat="43.31563375890254974365234375" lon="-2.00778298079967498779296875">
        <ele>31</ele>
        <time>2018-09-02T10:02:31.000Z</time>
      </trkpt>
      <trkpt lat="43.31558539532124996185302734375" lon="-2.00778876431286334991455078125">
        <ele>31.6000003814697265625</ele>
        <time>2018-09-02T10:02:34.000Z</time>
      </trkpt>
      <trkpt lat="43.31557081080973148345947265625" lon="-2.007783316075801849365234375">
        <ele>32</ele>
        <time>2018-09-02T10:02:35.000Z</time>
      </trkpt>
      <trkpt lat="43.31555170007050037384033203125" lon="-2.0077841542661190032958984375">
        <ele>32.200000762939453125</ele>
        <time>2018-09-02T10:02:36.000Z</time>
      </trkpt>
      <trkpt lat="43.31544323824346065521240234375" lon="-2.00778339989483356475830078125">
        <ele>33</ele>
        <time>2018-09-02T10:02:42.000Z</time>
      </trkpt>
      <trkpt lat="43.315403759479522705078125" lon="-2.0077854953706264495849609375">
        <ele>33.200000762939453125</ele>
        <time>2018-09-02T10:02:44.000Z</time>
      </trkpt>
      <trkpt lat="43.31529906950891017913818359375" lon="-2.00777501799166202545166015625">
        <ele>34</ele>
        <time>2018-09-02T10:02:49.000Z</time>
      </trkpt>
      <trkpt lat="43.31527275033295154571533203125" lon="-2.00780686922371387481689453125">
        <ele>34.200000762939453125</ele>
        <time>2018-09-02T10:02:51.000Z</time>
      </trkpt>
      <trkpt lat="43.31522095017135143280029296875" lon="-2.0078837312757968902587890625">
        <ele>34.59999847412109375</ele>
        <time>2018-09-02T10:02:55.000Z</time>
      </trkpt>
      <trkpt lat="43.315182141959667205810546875" lon="-2.007967047393321990966796875">
        <ele>35.200000762939453125</ele>
        <time>2018-09-02T10:02:59.000Z</time>
      </trkpt>
      <trkpt lat="43.31515498459339141845703125" lon="-2.0080379582941532135009765625">
        <ele>35.799999237060546875</ele>
        <time>2018-09-02T10:03:02.000Z</time>
      </trkpt>
      <trkpt lat="43.31512774340808391571044921875" lon="-2.0081080310046672821044921875">
        <ele>36.200000762939453125</ele>
        <time>2018-09-02T10:03:05.000Z</time>
      </trkpt>
      <trkpt lat="43.31507409922778606414794921875" lon="-2.00821037404239177703857421875">
        <ele>37.200000762939453125</ele>
        <time>2018-09-02T10:03:10.000Z</time>
      </trkpt>
      <trkpt lat="43.3150646276772022247314453125" lon="-2.00822663493454456329345703125">
        <ele>37.40000152587890625</ele>
        <time>2018-09-02T10:03:11.000Z</time>
      </trkpt>
      <trkpt lat="43.3150129951536655426025390625" lon="-2.0083321630954742431640625">
        <ele>38</ele>
        <time>2018-09-02T10:03:16.000Z</time>
      </trkpt>
      <trkpt lat="43.31499128602445125579833984375" lon="-2.00837281532585620880126953125">
        <ele>38.40000152587890625</ele>
        <time>2018-09-02T10:03:18.000Z</time>
      </trkpt>
      <trkpt lat="43.314958848059177398681640625" lon="-2.008451856672763824462890625">
        <ele>39.200000762939453125</ele>
        <time>2018-09-02T10:03:22.000Z</time>
      </trkpt>
      <trkpt lat="43.31494770012795925140380859375" lon="-2.00849519111216068267822265625">
        <ele>39.40000152587890625</ele>
        <time>2018-09-02T10:03:24.000Z</time>
      </trkpt>
      <trkpt lat="43.31494920887053012847900390625" lon="-2.00852670706808567047119140625">
        <ele>39.59999847412109375</ele>
        <time>2018-09-02T10:03:25.000Z</time>
      </trkpt>
      <trkpt lat="43.314974270761013031005859375" lon="-2.00859577395021915435791015625">
        <ele>40.40000152587890625</ele>
        <time>2018-09-02T10:03:28.000Z</time>
      </trkpt>
      <trkpt lat="43.31498977728188037872314453125" lon="-2.008612789213657379150390625">
        <ele>40.799999237060546875</ele>
        <time>2018-09-02T10:03:29.000Z</time>
      </trkpt>
      <trkpt lat="43.31501157023012638092041015625" lon="-2.00861421413719654083251953125">
        <ele>41</ele>
        <time>2018-09-02T10:03:30.000Z</time>
      </trkpt>
      <trkpt lat="43.31506085582077503204345703125" lon="-2.00859694741666316986083984375">
        <ele>41.40000152587890625</ele>
        <time>2018-09-02T10:03:33.000Z</time>
      </trkpt>
      <trkpt lat="43.31511014141142368316650390625" lon="-2.00856258161365985870361328125">
        <ele>42</ele>
        <time>2018-09-02T10:03:36.000Z</time>
      </trkpt>
      <trkpt lat="43.3151561580598354339599609375" lon="-2.00851798988878726959228515625">
        <ele>42.59999847412109375</ele>
        <time>2018-09-02T10:03:39.000Z</time>
      </trkpt>
      <trkpt lat="43.315175436437129974365234375" lon="-2.00850290246307849884033203125">
        <ele>42.59999847412109375</ele>
        <time>2018-09-02T10:03:40.000Z</time>
      </trkpt>
      <trkpt lat="43.3152510412037372589111328125" lon="-2.00844925828278064727783203125">
        <ele>43.59999847412109375</ele>
        <time>2018-09-02T10:03:44.000Z</time>
      </trkpt>
      <trkpt lat="43.3153036795556545257568359375" lon="-2.0084379427134990692138671875">
        <ele>44.200000762939453125</ele>
        <time>2018-09-02T10:03:47.000Z</time>
      </trkpt>
      <trkpt lat="43.31533695571124553680419921875" lon="-2.00842746533453464508056640625">
        <ele>44.59999847412109375</ele>
        <time>2018-09-02T10:03:49.000Z</time>
      </trkpt>
      <trkpt lat="43.31541675142943859100341796875" lon="-2.008420340716838836669921875">
        <ele>45.200000762939453125</ele>
        <time>2018-09-02T10:03:53.000Z</time>
      </trkpt>
      <trkpt lat="43.31545530818402767181396484375" lon="-2.0084211789071559906005859375">
        <ele>45.59999847412109375</ele>
        <time>2018-09-02T10:03:55.000Z</time>
      </trkpt>
      <trkpt lat="43.315548934042453765869140625" lon="-2.00847222469747066497802734375">
        <ele>46.40000152587890625</ele>
        <time>2018-09-02T10:04:01.000Z</time>
      </trkpt>
      <trkpt lat="43.315613307058811187744140625" lon="-2.00851924717426300048828125">
        <ele>46.799999237060546875</ele>
        <time>2018-09-02T10:04:04.000Z</time>
      </trkpt>
      <trkpt lat="43.315643481910228729248046875" lon="-2.0085784234106540679931640625">
        <ele>46.799999237060546875</ele>
        <time>2018-09-02T10:04:07.000Z</time>
      </trkpt>
      <trkpt lat="43.3156892471015453338623046875" lon="-2.0087105222046375274658203125">
        <ele>47.40000152587890625</ele>
        <time>2018-09-02T10:04:13.000Z</time>
      </trkpt>
      <trkpt lat="43.31569821573793888092041015625" lon="-2.0087343268096446990966796875">
        <ele>47.59999847412109375</ele>
        <time>2018-09-02T10:04:14.000Z</time>
      </trkpt>
      <trkpt lat="43.31570659764111042022705078125" lon="-2.00875486247241497039794921875">
        <ele>47.799999237060546875</ele>
        <time>2018-09-02T10:04:15.000Z</time>
      </trkpt>
      <trkpt lat="43.31575621850788593292236328125" lon="-2.00887388549745082855224609375">
        <ele>49</ele>
        <time>2018-09-02T10:04:20.000Z</time>
      </trkpt>
      <trkpt lat="43.3157693780958652496337890625" lon="-2.00889500789344310760498046875">
        <ele>49.40000152587890625</ele>
        <time>2018-09-02T10:04:21.000Z</time>
      </trkpt>
      <trkpt lat="43.3157777599990367889404296875" lon="-2.0089160464704036712646484375">
        <ele>49.59999847412109375</ele>
        <time>2018-09-02T10:04:22.000Z</time>
      </trkpt>
      <trkpt lat="43.31581455655395984649658203125" lon="-2.0089780725538730621337890625">
        <ele>50.200000762939453125</ele>
        <time>2018-09-02T10:04:25.000Z</time>
      </trkpt>
      <trkpt lat="43.31584992818534374237060546875" lon="-2.0090578682720661163330078125">
        <ele>51.200000762939453125</ele>
        <time>2018-09-02T10:04:29.000Z</time>
      </trkpt>
      <trkpt lat="43.31585478968918323516845703125" lon="-2.0090944133698940277099609375">
        <ele>51.200000762939453125</ele>
        <time>2018-09-02T10:04:30.000Z</time>
      </trkpt>
      <trkpt lat="43.3159065060317516326904296875" lon="-2.0091985166072845458984375">
        <ele>52.40000152587890625</ele>
        <time>2018-09-02T10:04:35.000Z</time>
      </trkpt>
      <trkpt lat="43.3159702084958553314208984375" lon="-2.00933933258056640625">
        <ele>53.40000152587890625</ele>
        <time>2018-09-02T10:04:41.000Z</time>
      </trkpt>
      <trkpt lat="43.3159829489886760711669921875" lon="-2.0093621313571929931640625">
        <ele>53.40000152587890625</ele>
        <time>2018-09-02T10:04:42.000Z</time>
      </trkpt>
      <trkpt lat="43.3160660974681377410888671875" lon="-2.0095047913491725921630859375">
        <ele>54.40000152587890625</ele>
        <time>2018-09-02T10:04:48.000Z</time>
      </trkpt>
      <trkpt lat="43.31611295230686664581298828125" lon="-2.00958282686769962310791015625">
        <ele>54.799999237060546875</ele>
        <time>2018-09-02T10:04:51.000Z</time>
      </trkpt>
      <trkpt lat="43.316191993653774261474609375" lon="-2.00965373776853084564208984375">
        <ele>55.40000152587890625</ele>
        <time>2018-09-02T10:04:55.000Z</time>
      </trkpt>
      <trkpt lat="43.31624530255794525146484375" lon="-2.00970486737787723541259765625">
        <ele>56.200000762939453125</ele>
        <time>2018-09-02T10:04:58.000Z</time>
      </trkpt>
      <trkpt lat="43.3163447119295597076416015625" lon="-2.00977242551743984222412109375">
        <ele>56.59999847412109375</ele>
        <time>2018-09-02T10:05:03.000Z</time>
      </trkpt>
      <trkpt lat="43.3163624815642833709716796875" lon="-2.0097877644002437591552734375">
        <ele>56.40000152587890625</ele>
        <time>2018-09-02T10:05:04.000Z</time>
      </trkpt>
      <trkpt lat="43.31641688011586666107177734375" lon="-2.00982824899256229400634765625">
        <ele>56.59999847412109375</ele>
        <time>2018-09-02T10:05:08.000Z</time>
      </trkpt>
      <trkpt lat="43.3164265193045139312744140625" lon="-2.00982606969773769378662109375">
        <ele>56.799999237060546875</ele>
        <time>2018-09-02T10:05:09.000Z</time>
      </trkpt>
      <trkpt lat="43.3165061473846435546875" lon="-2.00976789928972721099853515625">
        <ele>56.799999237060546875</ele>
        <time>2018-09-02T10:06:55.000Z</time>
      </trkpt>
      <trkpt lat="43.3165177144110202789306640625" lon="-2.00975784100592136383056640625">
        <ele>56.799999237060546875</ele>
        <time>2018-09-02T10:06:56.000Z</time>
      </trkpt>
      <trkpt lat="43.31656272523105144500732421875" lon="-2.00971660204231739044189453125">
        <ele>57</ele>
        <time>2018-09-02T10:07:00.000Z</time>
      </trkpt>
      <trkpt lat="43.3165874518454074859619140625" lon="-2.00968106277287006378173828125">
        <ele>57.200000762939453125</ele>
        <time>2018-09-02T10:07:02.000Z</time>
      </trkpt>
      <trkpt lat="43.31661553122103214263916015625" lon="-2.0096405781805515289306640625">
        <ele>57.59999847412109375</ele>
        <time>2018-09-02T10:07:05.000Z</time>
      </trkpt>
      <trkpt lat="43.3166504837572574615478515625" lon="-2.00961182825267314910888671875">
        <ele>57.799999237060546875</ele>
        <time>2018-09-02T10:07:08.000Z</time>
      </trkpt>
      <trkpt lat="43.31667386926710605621337890625" lon="-2.00958182103931903839111328125">
        <ele>58</ele>
        <time>2018-09-02T10:07:10.000Z</time>
      </trkpt>
      <trkpt lat="43.316744863986968994140625" lon="-2.00951912440359592437744140625">
        <ele>58.59999847412109375</ele>
        <time>2018-09-02T10:07:14.000Z</time>
      </trkpt>
      <trkpt lat="43.31678149290382862091064453125" lon="-2.00948484241962432861328125">
        <ele>59</ele>
        <time>2018-09-02T10:07:16.000Z</time>
      </trkpt>
      <trkpt lat="43.31685022450983524322509765625" lon="-2.0093968324363231658935546875">
        <ele>59.200000762939453125</ele>
        <time>2018-09-02T10:07:20.000Z</time>
      </trkpt>
      <trkpt lat="43.31688098609447479248046875" lon="-2.00936104170978069305419921875">
        <ele>59.40000152587890625</ele>
        <time>2018-09-02T10:07:22.000Z</time>
      </trkpt>
      <trkpt lat="43.31690839491784572601318359375" lon="-2.00932525098323822021484375">
        <ele>59.799999237060546875</ele>
        <time>2018-09-02T10:07:24.000Z</time>
      </trkpt>
      <trkpt lat="43.31696388311684131622314453125" lon="-2.0092389173805713653564453125">
        <ele>60.200000762939453125</ele>
        <time>2018-09-02T10:07:28.000Z</time>
      </trkpt>
      <trkpt lat="43.31700034439563751220703125" lon="-2.00917060486972332000732421875">
        <ele>60.799999237060546875</ele>
        <time>2018-09-02T10:07:31.000Z</time>
      </trkpt>
      <trkpt lat="43.3170588500797748565673828125" lon="-2.0090799964964389801025390625">
        <ele>61.40000152587890625</ele>
        <time>2018-09-02T10:07:36.000Z</time>
      </trkpt>
      <trkpt lat="43.31710218451917171478271484375" lon="-2.0090402662754058837890625">
        <ele>62</ele>
        <time>2018-09-02T10:07:39.000Z</time>
      </trkpt>
      <trkpt lat="43.3171446807682514190673828125" lon="-2.0090350694954395294189453125">
        <ele>62.200000762939453125</ele>
        <time>2018-09-02T10:07:42.000Z</time>
      </trkpt>
      <trkpt lat="43.3171637915074825286865234375" lon="-2.0090578682720661163330078125">
        <ele>62.200000762939453125</ele>
        <time>2018-09-02T10:07:44.000Z</time>
      </trkpt>
      <trkpt lat="43.3171815611422061920166015625" lon="-2.0091051422059535980224609375">
        <ele>62.799999237060546875</ele>
        <time>2018-09-02T10:07:47.000Z</time>
      </trkpt>
      <trkpt lat="43.31717980094254016876220703125" lon="-2.00914696790277957916259765625">
        <ele>63</ele>
        <time>2018-09-02T10:07:49.000Z</time>
      </trkpt>
      <trkpt lat="43.31717208959162235260009765625" lon="-2.0091631449759006500244140625">
        <ele>63</ele>
        <time>2018-09-02T10:07:50.000Z</time>
      </trkpt>
      <trkpt lat="43.31712045706808567047119140625" lon="-2.0092798210680484771728515625">
        <ele>63.799999237060546875</ele>
        <time>2018-09-02T10:07:55.000Z</time>
      </trkpt>
      <trkpt lat="43.31710889004170894622802734375" lon="-2.00930270366370677947998046875">
        <ele>64</ele>
        <time>2018-09-02T10:07:56.000Z</time>
      </trkpt>
      <trkpt lat="43.31704719923436641693115234375" lon="-2.00938803143799304962158203125">
        <ele>64.8000030517578125</ele>
        <time>2018-09-02T10:08:01.000Z</time>
      </trkpt>
      <trkpt lat="43.3170357160270214080810546875" lon="-2.0094068907201290130615234375">
        <ele>65</ele>
        <time>2018-09-02T10:08:02.000Z</time>
      </trkpt>
      <trkpt lat="43.31697712652385234832763671875" lon="-2.00952298007905483245849609375">
        <ele>65.8000030517578125</ele>
        <time>2018-09-02T10:08:08.000Z</time>
      </trkpt>
      <trkpt lat="43.316949717700481414794921875" lon="-2.00955701060593128204345703125">
        <ele>66.40000152587890625</ele>
        <time>2018-09-02T10:08:10.000Z</time>
      </trkpt>
      <trkpt lat="43.31690789200365543365478515625" lon="-2.00964351184666156768798828125">
        <ele>66.8000030517578125</ele>
        <time>2018-09-02T10:08:14.000Z</time>
      </trkpt>
      <trkpt lat="43.31688576377928256988525390625" lon="-2.0096952281892299652099609375">
        <ele>67.40000152587890625</ele>
        <time>2018-09-02T10:08:17.000Z</time>
      </trkpt>
      <trkpt lat="43.31685550510883331298828125" lon="-2.00975448824465274810791015625">
        <ele>67.59999847412109375</ele>
        <time>2018-09-02T10:08:20.000Z</time>
      </trkpt>
      <trkpt lat="43.3167909644544124603271484375" lon="-2.0098824799060821533203125">
        <ele>68.40000152587890625</ele>
        <time>2018-09-02T10:08:26.000Z</time>
      </trkpt>
      <trkpt lat="43.31678308546543121337890625" lon="-2.00990083627402782440185546875">
        <ele>68.59999847412109375</ele>
        <time>2018-09-02T10:08:27.000Z</time>
      </trkpt>
      <trkpt lat="43.31672499887645244598388671875" lon="-2.01001457870006561279296875">
        <ele>69.59999847412109375</ele>
        <time>2018-09-02T10:08:34.000Z</time>
      </trkpt>
      <trkpt lat="43.31669415347278118133544921875" lon="-2.01005347073078155517578125">
        <ele>70.1999969482421875</ele>
        <time>2018-09-02T10:08:37.000Z</time>
      </trkpt>
      <trkpt lat="43.31667956896126270294189453125" lon="-2.01009563170373439788818359375">
        <ele>70.40000152587890625</ele>
        <time>2018-09-02T10:08:39.000Z</time>
      </trkpt>
      <trkpt lat="43.31666498444974422454833984375" lon="-2.01013527810573577880859375">
        <ele>70.8000030517578125</ele>
        <time>2018-09-02T10:08:41.000Z</time>
      </trkpt>
      <trkpt lat="43.31660111434757709503173828125" lon="-2.01020040549337863922119140625">
        <ele>71.40000152587890625</ele>
        <time>2018-09-02T10:08:46.000Z</time>
      </trkpt>
      <trkpt lat="43.31658803857862949371337890625" lon="-2.01021297834813594818115234375">
        <ele>71.59999847412109375</ele>
        <time>2018-09-02T10:08:47.000Z</time>
      </trkpt>
      <trkpt lat="43.3165592886507511138916015625" lon="-2.0102400518953800201416015625">
        <ele>71.8000030517578125</ele>
        <time>2018-09-02T10:08:49.000Z</time>
      </trkpt>
      <trkpt lat="43.31649617291986942291259765625" lon="-2.01027131639420986175537109375">
        <ele>72.40000152587890625</ele>
        <time>2018-09-02T10:08:53.000Z</time>
      </trkpt>
      <trkpt lat="43.31642844714224338531494140625" lon="-2.01027936302125453948974609375">
        <ele>73</ele>
        <time>2018-09-02T10:08:58.000Z</time>
      </trkpt>
      <trkpt lat="43.31633985042572021484375" lon="-2.010265700519084930419921875">
        <ele>73.8000030517578125</ele>
        <time>2018-09-02T10:09:04.000Z</time>
      </trkpt>
      <trkpt lat="43.3163095079362392425537109375" lon="-2.010256312787532806396484375">
        <ele>74.1999969482421875</ele>
        <time>2018-09-02T10:09:06.000Z</time>
      </trkpt>
      <trkpt lat="43.3162231743335723876953125" lon="-2.010215409100055694580078125">
        <ele>75</ele>
        <time>2018-09-02T10:09:11.000Z</time>
      </trkpt>
      <trkpt lat="43.316165506839752197265625" lon="-2.01018732972443103790283203125">
        <ele>75.1999969482421875</ele>
        <time>2018-09-02T10:09:14.000Z</time>
      </trkpt>
      <trkpt lat="43.31609643995761871337890625" lon="-2.01012798584997653961181640625">
        <ele>75.8000030517578125</ele>
        <time>2018-09-02T10:09:18.000Z</time>
      </trkpt>
      <trkpt lat="43.316004909574985504150390625" lon="-2.01005238108336925506591796875">
        <ele>76.1999969482421875</ele>
        <time>2018-09-02T10:09:23.000Z</time>
      </trkpt>
      <trkpt lat="43.31598722375929355621337890625" lon="-2.0100380480289459228515625">
        <ele>76.40000152587890625</ele>
        <time>2018-09-02T10:09:24.000Z</time>
      </trkpt>
      <trkpt lat="43.31588446162641048431396484375" lon="-2.00999186374247074127197265625">
        <ele>77</ele>
        <time>2018-09-02T10:09:31.000Z</time>
      </trkpt>
      <trkpt lat="43.3158719725906848907470703125" lon="-2.0099966414272785186767578125">
        <ele>77</ele>
        <time>2018-09-02T10:09:32.000Z</time>
      </trkpt>
      <trkpt lat="43.3158293925225734710693359375" lon="-2.01004483737051486968994140625">
        <ele>77.40000152587890625</ele>
        <time>2018-09-02T10:09:36.000Z</time>
      </trkpt>
      <trkpt lat="43.31581656821072101593017578125" lon="-2.0100824721157550811767578125">
        <ele>77.8000030517578125</ele>
        <time>2018-09-02T10:09:38.000Z</time>
      </trkpt>
      <trkpt lat="43.31579343415796756744384765625" lon="-2.01014709658920764923095703125">
        <ele>78</ele>
        <time>2018-09-02T10:09:41.000Z</time>
      </trkpt>
      <trkpt lat="43.31576426513493061065673828125" lon="-2.01021096669137477874755859375">
        <ele>78.40000152587890625</ele>
        <time>2018-09-02T10:09:44.000Z</time>
      </trkpt>
      <trkpt lat="43.3157516084611415863037109375" lon="-2.01023376546800136566162109375">
        <ele>78.40000152587890625</ele>
        <time>2018-09-02T10:09:45.000Z</time>
      </trkpt>
      <trkpt lat="43.31571548245847225189208984375" lon="-2.0103426463901996612548828125">
        <ele>79.1999969482421875</ele>
        <time>2018-09-02T10:09:50.000Z</time>
      </trkpt>
      <trkpt lat="43.31569905392825603485107421875" lon="-2.01038338243961334228515625">
        <ele>79.59999847412109375</ele>
        <time>2018-09-02T10:09:52.000Z</time>
      </trkpt>
      <trkpt lat="43.31566669978201389312744140625" lon="-2.0114530809223651885986328125">
        <ele>93.59999847412109375</ele>
        <time>2018-09-02T10:11:08.000Z</time>
      </trkpt>
      <trkpt lat="43.31567357294261455535888671875" lon="-2.01146833598613739013671875">
        <ele>94</ele>
        <time>2018-09-02T10:11:09.000Z</time>
      </trkpt>
      <trkpt lat="43.31568715162575244903564453125" lon="-2.01149255968630313873291015625">
        <ele>94.59999847412109375</ele>
        <time>2018-09-02T10:11:11.000Z</time>
      </trkpt>
      <trkpt lat="43.315711207687854766845703125" lon="-2.01151988469064235687255859375">
        <ele>94.8000030517578125</ele>
        <time>2018-09-02T10:11:13.000Z</time>
      </trkpt>
      <trkpt lat="43.3157304860651493072509765625" lon="-2.01154033653438091278076171875">
        <ele>95.1999969482421875</ele>
        <time>2018-09-02T10:11:15.000Z</time>
      </trkpt>
      <trkpt lat="43.31574817188084125518798828125" lon="-2.0115633867681026458740234375">
        <ele>95.8000030517578125</ele>
        <time>2018-09-02T10:11:17.000Z</time>
      </trkpt>
      <trkpt lat="43.31579192541539669036865234375" lon="-2.01160722412168979644775390625">
        <ele>97</ele>
        <time>2018-09-02T10:11:21.000Z</time>
      </trkpt>
      <trkpt lat="43.3158129639923572540283203125" lon="-2.01163203455507755279541015625">
        <ele>96.8000030517578125</ele>
        <time>2018-09-02T10:11:23.000Z</time>
      </trkpt>
      <trkpt lat="43.31583048216998577117919921875" lon="-2.011695988476276397705078125">
        <ele>95.8000030517578125</ele>
        <time>2018-09-02T10:11:26.000Z</time>
      </trkpt>
      <trkpt lat="43.31584456376731395721435546875" lon="-2.01175675727427005767822265625">
        <ele>95</ele>
        <time>2018-09-02T10:11:28.000Z</time>
      </trkpt>
      <trkpt lat="43.31586820073425769805908203125" lon="-2.011809647083282470703125">
        <ele>95</ele>
        <time>2018-09-02T10:11:30.000Z</time>
      </trkpt>
      <trkpt lat="43.31592251546680927276611328125" lon="-2.01190846972167491912841796875">
        <ele>95.40000152587890625</ele>
        <time>2018-09-02T10:11:35.000Z</time>
      </trkpt>
      <trkpt lat="43.31593324430286884307861328125" lon="-2.01192699372768402099609375">
        <ele>95.59999847412109375</ele>
        <time>2018-09-02T10:11:36.000Z</time>
      </trkpt>
      <trkpt lat="43.3159683644771575927734375" lon="-2.01202087104320526123046875">
        <ele>96.1999969482421875</ele>
        <time>2018-09-02T10:11:41.000Z</time>
      </trkpt>
      <trkpt lat="43.31598051823675632476806640625" lon="-2.01205481775104999542236328125">
        <ele>96.59999847412109375</ele>
        <time>2018-09-02T10:11:43.000Z</time>
      </trkpt>
      <trkpt lat="43.31599183380603790283203125" lon="-2.0120733417570590972900390625">
        <ele>96.8000030517578125</ele>
        <time>2018-09-02T10:11:45.000Z</time>
      </trkpt>
      <trkpt lat="43.3161132037639617919921875" lon="-2.01231432147324085235595703125">
        <ele>100</ele>
        <time>2018-09-02T10:12:02.000Z</time>
      </trkpt>
      <trkpt lat="43.31613340415060520172119140625" lon="-2.0123435743153095245361328125">
        <ele>100.40000152587890625</ele>
        <time>2018-09-02T10:12:04.000Z</time>
      </trkpt>
      <trkpt lat="43.316177241504192352294921875" lon="-2.0124019123613834381103515625">
        <ele>101.40000152587890625</ele>
        <time>2018-09-02T10:12:08.000Z</time>
      </trkpt>
      <trkpt lat="43.31619744189083576202392578125" lon="-2.01241758652031421661376953125">
        <ele>102.1999969482421875</ele>
        <time>2018-09-02T10:12:11.000Z</time>
      </trkpt>
      <trkpt lat="43.31621973775327205657958984375" lon="-2.01242898590862751007080078125">
        <ele>102.40000152587890625</ele>
        <time>2018-09-02T10:12:12.000Z</time>
      </trkpt>
      <trkpt lat="43.3162632398307323455810546875" lon="-2.01246905140578746795654296875">
        <ele>103.40000152587890625</ele>
        <time>2018-09-02T10:12:16.000Z</time>
      </trkpt>
      <trkpt lat="43.31627354957163333892822265625" lon="-2.01248145662248134613037109375">
        <ele>103.40000152587890625</ele>
        <time>2018-09-02T10:12:17.000Z</time>
      </trkpt>
      <trkpt lat="43.31634990870952606201171875" lon="-2.01259980909526348114013671875">
        <ele>104.40000152587890625</ele>
        <time>2018-09-02T10:12:23.000Z</time>
      </trkpt>
      <trkpt lat="43.316381089389324188232421875" lon="-2.012649513781070709228515625">
        <ele>104.59999847412109375</ele>
        <time>2018-09-02T10:12:25.000Z</time>
      </trkpt>
      <trkpt lat="43.31646884791553020477294921875" lon="-2.01275839470326900482177734375">
        <ele>105</ele>
        <time>2018-09-02T10:12:30.000Z</time>
      </trkpt>
      <trkpt lat="43.31651746295392513275146484375" lon="-2.01281522400677204132080078125">
        <ele>105.59999847412109375</ele>
        <time>2018-09-02T10:12:33.000Z</time>
      </trkpt>
      <trkpt lat="43.31657814793288707733154296875" lon="-2.01288697309792041778564453125">
        <ele>106.40000152587890625</ele>
        <time>2018-09-02T10:12:37.000Z</time>
      </trkpt>
      <trkpt lat="43.3165918104350566864013671875" lon="-2.01290323399007320404052734375">
        <ele>106.59999847412109375</ele>
        <time>2018-09-02T10:12:38.000Z</time>
      </trkpt>
      <trkpt lat="43.31666263751685619354248046875" lon="-2.01297950930893421173095703125">
        <ele>107.59999847412109375</ele>
        <time>2018-09-02T10:12:44.000Z</time>
      </trkpt>
      <trkpt lat="43.31667236052453517913818359375" lon="-2.01299224980175495147705078125">
        <ele>107.8000030517578125</ele>
        <time>2018-09-02T10:12:45.000Z</time>
      </trkpt>
      <trkpt lat="43.31673824228346347808837890625" lon="-2.0130904018878936767578125">
        <ele>108.59999847412109375</ele>
        <time>2018-09-02T10:12:51.000Z</time>
      </trkpt>
      <trkpt lat="43.316751234233379364013671875" lon="-2.01310758478939533233642578125">
        <ele>108.8000030517578125</ele>
        <time>2018-09-02T10:12:52.000Z</time>
      </trkpt>
      <trkpt lat="43.31678199581801891326904296875" lon="-2.0131643302738666534423828125">
        <ele>109.1999969482421875</ele>
        <time>2018-09-02T10:12:55.000Z</time>
      </trkpt>
      <trkpt lat="43.31681418232619762420654296875" lon="-2.0132084190845489501953125">
        <ele>109.59999847412109375</ele>
        <time>2018-09-02T10:12:58.000Z</time>
      </trkpt>
      <trkpt lat="43.31682206131517887115478515625" lon="-2.01322124339640140533447265625">
        <ele>110</ele>
        <time>2018-09-02T10:12:59.000Z</time>
      </trkpt>
      <trkpt lat="43.316850475966930389404296875" lon="-2.0132679305970668792724609375">
        <ele>110.59999847412109375</ele>
        <time>2018-09-02T10:13:02.000Z</time>
      </trkpt>
      <trkpt lat="43.31687939353287220001220703125" lon="-2.01330338604748249053955078125">
        <ele>111</ele>
        <time>2018-09-02T10:13:04.000Z</time>
      </trkpt>
      <trkpt lat="43.3168938942253589630126953125" lon="-2.0133157074451446533203125">
        <ele>111.1999969482421875</ele>
        <time>2018-09-02T10:13:05.000Z</time>
      </trkpt>
      <trkpt lat="43.31695734523236751556396484375" lon="-2.0133782364428043365478515625">
        <ele>111.8000030517578125</ele>
        <time>2018-09-02T10:13:10.000Z</time>
      </trkpt>
      <trkpt lat="43.31697042100131511688232421875" lon="-2.0133926533162593841552734375">
        <ele>111.8000030517578125</ele>
        <time>2018-09-02T10:13:11.000Z</time>
      </trkpt>
      <trkpt lat="43.3170518092811107635498046875" lon="-2.0135240815579891204833984375">
        <ele>112.1999969482421875</ele>
        <time>2018-09-02T10:13:17.000Z</time>
      </trkpt>
      <trkpt lat="43.3170685730874538421630859375" lon="-2.0135559327900409698486328125">
        <ele>112.40000152587890625</ele>
        <time>2018-09-02T10:13:18.000Z</time>
      </trkpt>
      <trkpt lat="43.3171121589839458465576171875" lon="-2.01363430358469486236572265625">
        <ele>112.1999969482421875</ele>
        <time>2018-09-02T10:13:20.000Z</time>
      </trkpt>
      <trkpt lat="43.31718985922634601593017578125" lon="-2.01377914287149906158447265625">
        <ele>112</ele>
        <time>2018-09-02T10:13:23.000Z</time>
      </trkpt>
      <trkpt lat="43.3172683976590633392333984375" lon="-2.01394711621105670928955078125">
        <ele>111.8000030517578125</ele>
        <time>2018-09-02T10:13:27.000Z</time>
      </trkpt>
      <trkpt lat="43.31734157167375087738037109375" lon="-2.0140732638537883758544921875">
        <ele>111.8000030517578125</ele>
        <time>2018-09-02T10:13:30.000Z</time>
      </trkpt>
      <trkpt lat="43.31744366325438022613525390625" lon="-2.01429228298366069793701171875">
        <ele>112</ele>
        <time>2018-09-02T10:13:35.000Z</time>
      </trkpt>
      <trkpt lat="43.31746260635554790496826171875" lon="-2.01433536596596240997314453125">
        <ele>112</ele>
        <time>2018-09-02T10:13:36.000Z</time>
      </trkpt>
      <trkpt lat="43.31749730743467807769775390625" lon="-2.014422118663787841796875">
        <ele>112</ele>
        <time>2018-09-02T10:13:38.000Z</time>
      </trkpt>
      <trkpt lat="43.31756033934652805328369140625" lon="-2.01460358686745166778564453125">
        <ele>112.1999969482421875</ele>
        <time>2018-09-02T10:13:42.000Z</time>
      </trkpt>
      <trkpt lat="43.31761247478425502777099609375" lon="-2.0147267170250415802001953125">
        <ele>112.1999969482421875</ele>
        <time>2018-09-02T10:13:45.000Z</time>
      </trkpt>
      <trkpt lat="43.317724205553531646728515625" lon="-2.015006840229034423828125">
        <ele>112.8000030517578125</ele>
        <time>2018-09-02T10:13:52.000Z</time>
      </trkpt>
      <trkpt lat="43.3177679590880870819091796875" lon="-2.01510566286742687225341796875">
        <ele>113.40000152587890625</ele>
        <time>2018-09-02T10:13:55.000Z</time>
      </trkpt>
      <trkpt lat="43.31781850196421146392822265625" lon="-2.0152299664914608001708984375">
        <ele>114</ele>
        <time>2018-09-02T10:13:59.000Z</time>
      </trkpt>
      <trkpt lat="43.31783811561763286590576171875" lon="-2.01528604142367839813232421875">
        <ele>114.40000152587890625</ele>
        <time>2018-09-02T10:14:01.000Z</time>
      </trkpt>
      <trkpt lat="43.31785521470010280609130859375" lon="-2.0153335668146610260009765625">
        <ele>115.1999969482421875</ele>
        <time>2018-09-02T10:14:03.000Z</time>
      </trkpt>
      <trkpt lat="43.31786242313683032989501953125" lon="-2.015351839363574981689453125">
        <ele>115.59999847412109375</ele>
        <time>2018-09-02T10:14:04.000Z</time>
      </trkpt>
      <trkpt lat="43.31786728464066982269287109375" lon="-2.01538880355656147003173828125">
        <ele>116</ele>
        <time>2018-09-02T10:14:06.000Z</time>
      </trkpt>
      <trkpt lat="43.3178749121725559234619140625" lon="-2.0154435373842716217041015625">
        <ele>116.40000152587890625</ele>
        <time>2018-09-02T10:14:09.000Z</time>
      </trkpt>
      <trkpt lat="43.31788052804768085479736328125" lon="-2.01554487459361553192138671875">
        <ele>116.59999847412109375</ele>
        <time>2018-09-02T10:14:12.000Z</time>
      </trkpt>
      <trkpt lat="43.31789712421596050262451171875" lon="-2.0156027935445308685302734375">
        <ele>116.40000152587890625</ele>
        <time>2018-09-02T10:14:14.000Z</time>
      </trkpt>
      <trkpt lat="43.31792260520160198211669921875" lon="-2.015653587877750396728515625">
        <ele>116</ele>
        <time>2018-09-02T10:14:16.000Z</time>
      </trkpt>
      <trkpt lat="43.31794808618724346160888671875" lon="-2.0157094113528728485107421875">
        <ele>115.8000030517578125</ele>
        <time>2018-09-02T10:14:18.000Z</time>
      </trkpt>
      <trkpt lat="43.3179674483835697174072265625" lon="-2.0157972536981105804443359375">
        <ele>115.59999847412109375</ele>
        <time>2018-09-02T10:14:21.000Z</time>
      </trkpt>
      <trkpt lat="43.31797138787806034088134765625" lon="-2.01582684181630611419677734375">
        <ele>115.40000152587890625</ele>
        <time>2018-09-02T10:14:22.000Z</time>
      </trkpt>
      <trkpt lat="43.31796971149742603302001953125" lon="-2.01585802249610424041748046875">
        <ele>115.40000152587890625</ele>
        <time>2018-09-02T10:14:23.000Z</time>
      </trkpt>
      <trkpt lat="43.31797591410577297210693359375" lon="-2.01594066806137561798095703125">
        <ele>115.40000152587890625</ele>
        <time>2018-09-02T10:14:26.000Z</time>
      </trkpt>
      <trkpt lat="43.31798060797154903411865234375" lon="-2.01600185595452785491943359375">
        <ele>115.1999969482421875</ele>
        <time>2018-09-02T10:14:28.000Z</time>
      </trkpt>
      <trkpt lat="43.3179666101932525634765625" lon="-2.01607494615018367767333984375">
        <ele>115</ele>
        <time>2018-09-02T10:14:30.000Z</time>
      </trkpt>
      <trkpt lat="43.3179543726146221160888671875" lon="-2.01617904938757419586181640625">
        <ele>115.40000152587890625</ele>
        <time>2018-09-02T10:14:33.000Z</time>
      </trkpt>
      <trkpt lat="43.31796200014650821685791015625" lon="-2.01620754785835742950439453125">
        <ele>115.59999847412109375</ele>
        <time>2018-09-02T10:14:34.000Z</time>
      </trkpt>
      <trkpt lat="43.317977674305438995361328125" lon="-2.0162270776927471160888671875">
        <ele>115.8000030517578125</ele>
        <time>2018-09-02T10:14:35.000Z</time>
      </trkpt>
      <trkpt lat="43.31803408451378345489501953125" lon="-2.01625607907772064208984375">
        <ele>116.1999969482421875</ele>
        <time>2018-09-02T10:14:38.000Z</time>
      </trkpt>
      <trkpt lat="43.31807582639157772064208984375" lon="-2.01627426780760288238525390625">
        <ele>116.59999847412109375</ele>
        <time>2018-09-02T10:14:40.000Z</time>
      </trkpt>
      <trkpt lat="43.31809376366436481475830078125" lon="-2.016282565891742706298828125">
        <ele>116.8000030517578125</ele>
        <time>2018-09-02T10:14:41.000Z</time>
      </trkpt>
      <trkpt lat="43.318203985691070556640625" lon="-2.016364373266696929931640625">
        <ele>117.8000030517578125</ele>
        <time>2018-09-02T10:14:47.000Z</time>
      </trkpt>
      <trkpt lat="43.31822318024933338165283203125" lon="-2.016379795968532562255859375">
        <ele>118</ele>
        <time>2018-09-02T10:14:48.000Z</time>
      </trkpt>
      <trkpt lat="43.31833516247570514678955078125" lon="-2.01648884452879428863525390625">
        <ele>119</ele>
        <time>2018-09-02T10:14:54.000Z</time>
      </trkpt>
      <trkpt lat="43.318351842463016510009765625" lon="-2.01650678180158138275146484375">
        <ele>119.1999969482421875</ele>
        <time>2018-09-02T10:14:55.000Z</time>
      </trkpt>
      <trkpt lat="43.3184938319027423858642578125" lon="-2.0166394673287868499755859375">
        <ele>120.1999969482421875</ele>
        <time>2018-09-02T10:15:02.000Z</time>
      </trkpt>
      <trkpt lat="43.31851520575582981109619140625" lon="-2.01665899716317653656005859375">
        <ele>120.1999969482421875</ele>
        <time>2018-09-02T10:15:03.000Z</time>
      </trkpt>
      <trkpt lat="43.318641185760498046875" lon="-2.01677902601659297943115234375">
        <ele>121.1999969482421875</ele>
        <time>2018-09-02T10:15:09.000Z</time>
      </trkpt>
      <trkpt lat="43.31872173584997653961181640625" lon="-2.0168597437441349029541015625">
        <ele>121.8000030517578125</ele>
        <time>2018-09-02T10:15:13.000Z</time>
      </trkpt>
      <trkpt lat="43.31876347772777080535888671875" lon="-2.01689821667969226837158203125">
        <ele>122.1999969482421875</ele>
        <time>2018-09-02T10:15:15.000Z</time>
      </trkpt>
      <trkpt lat="43.31889021210372447967529296875" lon="-2.017013132572174072265625">
        <ele>123.40000152587890625</ele>
        <time>2018-09-02T10:15:22.000Z</time>
      </trkpt>
      <trkpt lat="43.31898492760956287384033203125" lon="-2.01709418557584285736083984375">
        <ele>124.40000152587890625</ele>
        <time>2018-09-02T10:15:28.000Z</time>
      </trkpt>
      <trkpt lat="43.3189990930259227752685546875" lon="-2.01710524968802928924560546875">
        <ele>124.59999847412109375</ele>
        <time>2018-09-02T10:15:29.000Z</time>
      </trkpt>
      <trkpt lat="43.3191053755581378936767578125" lon="-2.01720382086932659149169921875">
        <ele>125.40000152587890625</ele>
        <time>2018-09-02T10:15:36.000Z</time>
      </trkpt>
      <trkpt lat="43.31913328729569911956787109375" lon="-2.01723097823560237884521484375">
        <ele>125.8000030517578125</ele>
        <time>2018-09-02T10:15:38.000Z</time>
      </trkpt>
      <trkpt lat="43.31919916905462741851806640625" lon="-2.01729736290872097015380859375">
        <ele>126.8000030517578125</ele>
        <time>2018-09-02T10:15:43.000Z</time>
      </trkpt>
      <trkpt lat="43.31922389566898345947265625" lon="-2.01733441092073917388916015625">
        <ele>127</ele>
        <time>2018-09-02T10:15:45.000Z</time>
      </trkpt>
      <trkpt lat="43.31925516016781330108642578125" lon="-2.01747489161789417266845703125">
        <ele>127.8000030517578125</ele>
        <time>2018-09-02T10:15:50.000Z</time>
      </trkpt>
      <trkpt lat="43.3192545734345912933349609375" lon="-2.01750758104026317596435546875">
        <ele>128</ele>
        <time>2018-09-02T10:15:51.000Z</time>
      </trkpt>
      <trkpt lat="43.31923571415245532989501953125" lon="-2.0176124386489391326904296875">
        <ele>128.399993896484375</ele>
        <time>2018-09-02T10:15:54.000Z</time>
      </trkpt>
      <trkpt lat="43.31918206997215747833251953125" lon="-2.0177113451063632965087890625">
        <ele>128.8000030517578125</ele>
        <time>2018-09-02T10:15:57.000Z</time>
      </trkpt>
      <trkpt lat="43.31905449740588665008544921875" lon="-2.0178635604679584503173828125">
        <ele>130</ele>
        <time>2018-09-02T10:16:03.000Z</time>
      </trkpt>
      <trkpt lat="43.319007642567157745361328125" lon="-2.01791561208665370941162109375">
        <ele>130.399993896484375</ele>
        <time>2018-09-02T10:16:05.000Z</time>
      </trkpt>
      <trkpt lat="43.31898517906665802001953125" lon="-2.017940171062946319580078125">
        <ele>130.600006103515625</ele>
        <time>2018-09-02T10:16:06.000Z</time>
      </trkpt>
      <trkpt lat="43.3189273439347743988037109375" lon="-2.0180140994489192962646484375">
        <ele>131</ele>
        <time>2018-09-02T10:16:09.000Z</time>
      </trkpt>
      <trkpt lat="43.3188234083354473114013671875" lon="-2.01816405169665813446044921875">
        <ele>132.1999969482421875</ele>
        <time>2018-09-02T10:16:15.000Z</time>
      </trkpt>
      <trkpt lat="43.318732045590877532958984375" lon="-2.01839220710098743438720703125">
        <ele>133.399993896484375</ele>
        <time>2018-09-02T10:16:22.000Z</time>
      </trkpt>
      <trkpt lat="43.3187241666018962860107421875" lon="-2.01842573471367359161376953125">
        <ele>133.600006103515625</ele>
        <time>2018-09-02T10:16:23.000Z</time>
      </trkpt>
      <trkpt lat="43.3187047205865383148193359375" lon="-2.01857007108628749847412109375">
        <ele>134.399993896484375</ele>
        <time>2018-09-02T10:16:27.000Z</time>
      </trkpt>
      <trkpt lat="43.31870145164430141448974609375" lon="-2.01864567585289478302001953125">
        <ele>134.8000030517578125</ele>
        <time>2018-09-02T10:16:29.000Z</time>
      </trkpt>
      <trkpt lat="43.31870555877685546875" lon="-2.01874357648193836212158203125">
        <ele>135.399993896484375</ele>
        <time>2018-09-02T10:16:32.000Z</time>
      </trkpt>
      <trkpt lat="43.3187107555568218231201171875" lon="-2.018767297267913818359375">
        <ele>135.399993896484375</ele>
        <time>2018-09-02T10:16:33.000Z</time>
      </trkpt>
      <trkpt lat="43.3187181316316127777099609375" lon="-2.018822617828845977783203125">
        <ele>136.1999969482421875</ele>
        <time>2018-09-02T10:16:35.000Z</time>
      </trkpt>
      <trkpt lat="43.31872022710740566253662109375" lon="-2.01885220594704151153564453125">
        <ele>136.399993896484375</ele>
        <time>2018-09-02T10:16:36.000Z</time>
      </trkpt>
      <trkpt lat="43.31872626207768917083740234375" lon="-2.019010372459888458251953125">
        <ele>137.600006103515625</ele>
        <time>2018-09-02T10:16:41.000Z</time>
      </trkpt>
      <trkpt lat="43.31872693262994289398193359375" lon="-2.01904465444386005401611328125">
        <ele>138</ele>
        <time>2018-09-02T10:16:42.000Z</time>
      </trkpt>
      <trkpt lat="43.31872240640223026275634765625" lon="-2.01916133053600788116455078125">
        <ele>138.600006103515625</ele>
        <time>2018-09-02T10:16:45.000Z</time>
      </trkpt>
      <trkpt lat="43.31871771253645420074462890625" lon="-2.01926610432565212249755859375">
        <ele>139.1999969482421875</ele>
        <time>2018-09-02T10:16:48.000Z</time>
      </trkpt>
      <trkpt lat="43.31871938891708850860595703125" lon="-2.0193330757319927215576171875">
        <ele>139.8000030517578125</ele>
        <time>2018-09-02T10:16:50.000Z</time>
      </trkpt>
      <trkpt lat="43.31870664842426776885986328125" lon="-2.01945955865085124969482421875">
        <ele>140.8000030517578125</ele>
        <time>2018-09-02T10:16:54.000Z</time>
      </trkpt>
      <trkpt lat="43.31870086491107940673828125" lon="-2.01949291862547397613525390625">
        <ele>141</ele>
        <time>2018-09-02T10:16:55.000Z</time>
      </trkpt>
      <trkpt lat="43.3186668343842029571533203125" lon="-2.019631303846836090087890625">
        <ele>142</ele>
        <time>2018-09-02T10:16:59.000Z</time>
      </trkpt>
      <trkpt lat="43.31861461512744426727294921875" lon="-2.01977957971394062042236328125">
        <ele>142.600006103515625</ele>
        <time>2018-09-02T10:17:03.000Z</time>
      </trkpt>
      <trkpt lat="43.3185823448002338409423828125" lon="-2.01984713785350322723388671875">
        <ele>143.1999969482421875</ele>
        <time>2018-09-02T10:17:05.000Z</time>
      </trkpt>
      <trkpt lat="43.3184827677905559539794921875" lon="-2.0199999399483203887939453125">
        <ele>144.1999969482421875</ele>
        <time>2018-09-02T10:17:10.000Z</time>
      </trkpt>
      <trkpt lat="43.31846223212778568267822265625" lon="-2.020024918019771575927734375">
        <ele>144.399993896484375</ele>
        <time>2018-09-02T10:17:11.000Z</time>
      </trkpt>
      <trkpt lat="43.31834471784532070159912109375" lon="-2.0201518200337886810302734375">
        <ele>145.1999969482421875</ele>
        <time>2018-09-02T10:17:17.000Z</time>
      </trkpt>
      <trkpt lat="43.31829090602695941925048828125" lon="-2.02022482641041278839111328125">
        <ele>145.8000030517578125</ele>
        <time>2018-09-02T10:17:20.000Z</time>
      </trkpt>
      <trkpt lat="43.318238519132137298583984375" lon="-2.0202948153018951416015625">
        <ele>146.399993896484375</ele>
        <time>2018-09-02T10:17:23.000Z</time>
      </trkpt>
      <trkpt lat="43.31814556382596492767333984375" lon="-2.020387686789035797119140625">
        <ele>147.600006103515625</ele>
        <time>2018-09-02T10:17:28.000Z</time>
      </trkpt>
      <trkpt lat="43.3181055821478366851806640625" lon="-2.02042180113494396209716796875">
        <ele>148</ele>
        <time>2018-09-02T10:17:30.000Z</time>
      </trkpt>
      <trkpt lat="43.31802268512547016143798828125" lon="-2.02049070037901401519775390625">
        <ele>148.8000030517578125</ele>
        <time>2018-09-02T10:17:34.000Z</time>
      </trkpt>
      <trkpt lat="43.3179469965398311614990234375" lon="-2.020561359822750091552734375">
        <ele>149.600006103515625</ele>
        <time>2018-09-02T10:17:38.000Z</time>
      </trkpt>
      <trkpt lat="43.3179104514420032501220703125" lon="-2.02059446834027767181396484375">
        <ele>149.8000030517578125</ele>
        <time>2018-09-02T10:17:40.000Z</time>
      </trkpt>
      <trkpt lat="43.31779251806437969207763671875" lon="-2.0207030139863491058349609375">
        <ele>151</ele>
        <time>2018-09-02T10:17:46.000Z</time>
      </trkpt>
      <trkpt lat="43.317692689597606658935546875" lon="-2.0208059437572956085205078125">
        <ele>152.1999969482421875</ele>
        <time>2018-09-02T10:17:51.000Z</time>
      </trkpt>
      <trkpt lat="43.31767198629677295684814453125" lon="-2.02082329429686069488525390625">
        <ele>152.600006103515625</ele>
        <time>2018-09-02T10:17:52.000Z</time>
      </trkpt>
      <trkpt lat="43.3175916038453578948974609375" lon="-2.0209025032818317413330078125">
        <ele>153.399993896484375</ele>
        <time>2018-09-02T10:17:56.000Z</time>
      </trkpt>
      <trkpt lat="43.31752949394285678863525390625" lon="-2.0209595002233982086181640625">
        <ele>154</ele>
        <time>2018-09-02T10:17:59.000Z</time>
      </trkpt>
      <trkpt lat="43.317488171160221099853515625" lon="-2.0209913514554500579833984375">
        <ele>154.600006103515625</ele>
        <time>2018-09-02T10:18:01.000Z</time>
      </trkpt>
      <trkpt lat="43.3173827268183231353759765625" lon="-2.02106125652790069580078125">
        <ele>155.399993896484375</ele>
        <time>2018-09-02T10:18:06.000Z</time>
      </trkpt>
      <trkpt lat="43.31736085005104541778564453125" lon="-2.02107190154492855072021484375">
        <ele>155.600006103515625</ele>
        <time>2018-09-02T10:18:07.000Z</time>
      </trkpt>
      <trkpt lat="43.317272253334522247314453125" lon="-2.02111146412789821624755859375">
        <ele>156.8000030517578125</ele>
        <time>2018-09-02T10:18:11.000Z</time>
      </trkpt>
      <trkpt lat="43.31718030385673046112060546875" lon="-2.02115270309150218963623046875">
        <ele>157.600006103515625</ele>
        <time>2018-09-02T10:18:15.000Z</time>
      </trkpt>
      <trkpt lat="43.31713437102735042572021484375" lon="-2.021166197955608367919921875">
        <ele>157.8000030517578125</ele>
        <time>2018-09-02T10:18:17.000Z</time>
      </trkpt>
      <trkpt lat="43.3170638792216777801513671875" lon="-2.02119327150285243988037109375">
        <ele>158.600006103515625</ele>
        <time>2018-09-02T10:18:20.000Z</time>
      </trkpt>
      <trkpt lat="43.317042924463748931884765625" lon="-2.02120249159634113311767578125">
        <ele>158.8000030517578125</ele>
        <time>2018-09-02T10:18:21.000Z</time>
      </trkpt>
      <trkpt lat="43.31693119369447231292724609375" lon="-2.02125839889049530029296875">
        <ele>159.8000030517578125</ele>
        <time>2018-09-02T10:18:26.000Z</time>
      </trkpt>
      <trkpt lat="43.31690923310816287994384765625" lon="-2.02126837335526943206787109375">
        <ele>160.1999969482421875</ele>
        <time>2018-09-02T10:18:27.000Z</time>
      </trkpt>
      <trkpt lat="43.3168211393058300018310546875" lon="-2.02132268808782100677490234375">
        <ele>161.1999969482421875</ele>
        <time>2018-09-02T10:18:31.000Z</time>
      </trkpt>
      <trkpt lat="43.31677277572453022003173828125" lon="-2.0213650166988372802734375">
        <ele>161.399993896484375</ele>
        <time>2018-09-02T10:18:33.000Z</time>
      </trkpt>
      <trkpt lat="43.3166863583028316497802734375" lon="-2.02145847491919994354248046875">
        <ele>162.1999969482421875</ele>
        <time>2018-09-02T10:18:37.000Z</time>
      </trkpt>
      <trkpt lat="43.3166317082941532135009765625" lon="-2.02154003083705902099609375">
        <ele>163</ele>
        <time>2018-09-02T10:18:40.000Z</time>
      </trkpt>
      <trkpt lat="43.31659994088113307952880859375" lon="-2.02158965170383453369140625">
        <ele>163.399993896484375</ele>
        <time>2018-09-02T10:18:42.000Z</time>
      </trkpt>
      <trkpt lat="43.31652148626744747161865234375" lon="-2.02177782543003559112548828125">
        <ele>164.399993896484375</ele>
        <time>2018-09-02T10:18:48.000Z</time>
      </trkpt>
      <trkpt lat="43.31651008687913417816162109375" lon="-2.02181219123303890228271484375">
        <ele>164.8000030517578125</ele>
        <time>2018-09-02T10:18:49.000Z</time>
      </trkpt>
      <trkpt lat="43.3164540119469165802001953125" lon="-2.02197480015456676483154296875">
        <ele>165.600006103515625</ele>
        <time>2018-09-02T10:18:54.000Z</time>
      </trkpt>
      <trkpt lat="43.31641654483973979949951171875" lon="-2.02211779542267322540283203125">
        <ele>166.1999969482421875</ele>
        <time>2018-09-02T10:18:58.000Z</time>
      </trkpt>
      <trkpt lat="43.3163735456764698028564453125" lon="-2.0222751237452030181884765625">
        <ele>167.1999969482421875</ele>
        <time>2018-09-02T10:19:03.000Z</time>
      </trkpt>
      <trkpt lat="43.316366672515869140625" lon="-2.0223066397011280059814453125">
        <ele>167.1999969482421875</ele>
        <time>2018-09-02T10:19:04.000Z</time>
      </trkpt>
      <trkpt lat="43.31636223010718822479248046875" lon="-2.022430859506130218505859375">
        <ele>168.1999969482421875</ele>
        <time>2018-09-02T10:19:08.000Z</time>
      </trkpt>
      <trkpt lat="43.31637061201035976409912109375" lon="-2.02250294387340545654296875">
        <ele>168.399993896484375</ele>
        <time>2018-09-02T10:19:10.000Z</time>
      </trkpt>
      <trkpt lat="43.3163899742066860198974609375" lon="-2.0226593501865863800048828125">
        <ele>168</ele>
        <time>2018-09-02T10:19:14.000Z</time>
      </trkpt>
      <trkpt lat="43.3164162933826446533203125" lon="-2.0228011719882488250732421875">
        <ele>167.8000030517578125</ele>
        <time>2018-09-02T10:19:17.000Z</time>
      </trkpt>
      <trkpt lat="43.31644638441503047943115234375" lon="-2.02302957884967327117919921875">
        <ele>167.399993896484375</ele>
        <time>2018-09-02T10:19:21.000Z</time>
      </trkpt>
      <trkpt lat="43.31644671969115734100341796875" lon="-2.02308976091444492340087890625">
        <ele>167.399993896484375</ele>
        <time>2018-09-02T10:19:22.000Z</time>
      </trkpt>
      <trkpt lat="43.31644646823406219482421875" lon="-2.0231508649885654449462890625">
        <ele>167.1999969482421875</ele>
        <time>2018-09-02T10:19:23.000Z</time>
      </trkpt>
      <trkpt lat="43.31644269637763500213623046875" lon="-2.02326812781393527984619140625">
        <ele>167</ele>
        <time>2018-09-02T10:19:25.000Z</time>
      </trkpt>
      <trkpt lat="43.31642635166645050048828125" lon="-2.02337709255516529083251953125">
        <ele>167.1999969482421875</ele>
        <time>2018-09-02T10:19:27.000Z</time>
      </trkpt>
      <trkpt lat="43.31641252152621746063232421875" lon="-2.02348622493445873260498046875">
        <ele>167.1999969482421875</ele>
        <time>2018-09-02T10:19:29.000Z</time>
      </trkpt>
      <trkpt lat="43.316377736628055572509765625" lon="-2.02362804673612117767333984375">
        <ele>166.1999969482421875</ele>
        <time>2018-09-02T10:19:31.000Z</time>
      </trkpt>
      <trkpt lat="43.31634194590151309967041015625" lon="-2.0237065851688385009765625">
        <ele>165.1999969482421875</ele>
        <time>2018-09-02T10:19:32.000Z</time>
      </trkpt>
      <trkpt lat="43.316288553178310394287109375" lon="-2.023777328431606292724609375">
        <ele>164.399993896484375</ele>
        <time>2018-09-02T10:19:33.000Z</time>
      </trkpt>
      <trkpt lat="43.31615821458399295806884765625" lon="-2.0238864608108997344970703125">
        <ele>163.1999969482421875</ele>
        <time>2018-09-02T10:19:35.000Z</time>
      </trkpt>
      <trkpt lat="43.3160382695496082305908203125" lon="-2.024092487990856170654296875">
        <ele>163.1999969482421875</ele>
        <time>2018-09-02T10:19:38.000Z</time>
      </trkpt>
      <trkpt lat="43.31601605750620365142822265625" lon="-2.02416515909135341644287109375">
        <ele>163.600006103515625</ele>
        <time>2018-09-02T10:19:39.000Z</time>
      </trkpt>
      <trkpt lat="43.31598378717899322509765625" lon="-2.02430664561688899993896484375">
        <ele>164</ele>
        <time>2018-09-02T10:19:41.000Z</time>
      </trkpt>
      <trkpt lat="43.31596761010587215423583984375" lon="-2.0244334638118743896484375">
        <ele>164.399993896484375</ele>
        <time>2018-09-02T10:19:43.000Z</time>
      </trkpt>
      <trkpt lat="43.315948583185672760009765625" lon="-2.02458165585994720458984375">
        <ele>165.600006103515625</ele>
        <time>2018-09-02T10:19:46.000Z</time>
      </trkpt>
      <trkpt lat="43.31592452712357044219970703125" lon="-2.0246666483581066131591796875">
        <ele>166.399993896484375</ele>
        <time>2018-09-02T10:19:48.000Z</time>
      </trkpt>
      <trkpt lat="43.31590876914560794830322265625" lon="-2.02470394782721996307373046875">
        <ele>166.8000030517578125</ele>
        <time>2018-09-02T10:19:49.000Z</time>
      </trkpt>
      <trkpt lat="43.31581749022006988525390625" lon="-2.02491047792136669158935546875">
        <ele>167.600006103515625</ele>
        <time>2018-09-02T10:19:55.000Z</time>
      </trkpt>
      <trkpt lat="43.31578731536865234375" lon="-2.02497904188930988311767578125">
        <ele>168</ele>
        <time>2018-09-02T10:19:57.000Z</time>
      </trkpt>
      <trkpt lat="43.3157589845359325408935546875" lon="-2.0250512100756168365478515625">
        <ele>168.399993896484375</ele>
        <time>2018-09-02T10:19:59.000Z</time>
      </trkpt>
      <trkpt lat="43.31570508889853954315185546875" lon="-2.02514936216175556182861328125">
        <ele>168.8000030517578125</ele>
        <time>2018-09-02T10:20:02.000Z</time>
      </trkpt>
      <trkpt lat="43.3156899176537990570068359375" lon="-2.02518288977444171905517578125">
        <ele>169</ele>
        <time>2018-09-02T10:20:03.000Z</time>
      </trkpt>
      <trkpt lat="43.3156751655042171478271484375" lon="-2.02521909959614276885986328125">
        <ele>169.1999969482421875</ele>
        <time>2018-09-02T10:20:04.000Z</time>
      </trkpt>
      <trkpt lat="43.31563971005380153656005859375" lon="-2.02531666494905948638916015625">
        <ele>169.600006103515625</ele>
        <time>2018-09-02T10:20:07.000Z</time>
      </trkpt>
      <trkpt lat="43.315603248775005340576171875" lon="-2.0254102908074855804443359375">
        <ele>170.1999969482421875</ele>
        <time>2018-09-02T10:20:10.000Z</time>
      </trkpt>
      <trkpt lat="43.31553317606449127197265625" lon="-2.02558320946991443634033203125">
        <ele>171.399993896484375</ele>
        <time>2018-09-02T10:20:15.000Z</time>
      </trkpt>
      <trkpt lat="43.31550358794629573822021484375" lon="-2.02564925886690616607666015625">
        <ele>171.600006103515625</ele>
        <time>2018-09-02T10:20:17.000Z</time>
      </trkpt>
      <trkpt lat="43.31545229069888591766357421875" lon="-2.025767862796783447265625">
        <ele>172.600006103515625</ele>
        <time>2018-09-02T10:20:21.000Z</time>
      </trkpt>
      <trkpt lat="43.3153916895389556884765625" lon="-2.02590457163751125335693359375">
        <ele>174.1999969482421875</ele>
        <time>2018-09-02T10:20:26.000Z</time>
      </trkpt>
      <trkpt lat="43.31529311835765838623046875" lon="-2.02613524161279201507568359375">
        <ele>174.600006103515625</ele>
        <time>2018-09-02T10:20:34.000Z</time>
      </trkpt>
      <trkpt lat="43.31525816582143306732177734375" lon="-2.0262240059673786163330078125">
        <ele>174.8000030517578125</ele>
        <time>2018-09-02T10:20:37.000Z</time>
      </trkpt>
      <trkpt lat="43.31522229127585887908935546875" lon="-2.02630924992263317108154296875">
        <ele>175.1999969482421875</ele>
        <time>2018-09-02T10:20:40.000Z</time>
      </trkpt>
      <trkpt lat="43.3152012526988983154296875" lon="-2.02636758796870708465576171875">
        <ele>175.399993896484375</ele>
        <time>2018-09-02T10:20:42.000Z</time>
      </trkpt>
      <trkpt lat="43.31513428129255771636962890625" lon="-2.02654771506786346435546875">
        <ele>175.8000030517578125</ele>
        <time>2018-09-02T10:20:48.000Z</time>
      </trkpt>
      <trkpt lat="43.31510578282177448272705078125" lon="-2.02659993432462215423583984375">
        <ele>176.1999969482421875</ele>
        <time>2018-09-02T10:20:50.000Z</time>
      </trkpt>
      <trkpt lat="43.31504325382411479949951171875" lon="-2.0267279259860515594482421875">
        <ele>177.1999969482421875</ele>
        <time>2018-09-02T10:20:55.000Z</time>
      </trkpt>
      <trkpt lat="43.31501324661076068878173828125" lon="-2.02681593596935272216796875">
        <ele>178</ele>
        <time>2018-09-02T10:20:58.000Z</time>
      </trkpt>
      <trkpt lat="43.31500167958438396453857421875" lon="-2.02684300951659679412841796875">
        <ele>178.399993896484375</ele>
        <time>2018-09-02T10:20:59.000Z</time>
      </trkpt>
      <trkpt lat="43.31496781669557094573974609375" lon="-2.0269207097589969635009765625">
        <ele>179</ele>
        <time>2018-09-02T10:21:02.000Z</time>
      </trkpt>
      <trkpt lat="43.3149491250514984130859375" lon="-2.02697343192994594573974609375">
        <ele>179.600006103515625</ele>
        <time>2018-09-02T10:21:04.000Z</time>
      </trkpt>
      <trkpt lat="43.3149492926895618438720703125" lon="-2.02702623791992664337158203125">
        <ele>180</ele>
        <time>2018-09-02T10:21:06.000Z</time>
      </trkpt>
      <trkpt lat="43.31503428518772125244140625" lon="-2.0271896012127399444580078125">
        <ele>179.8000030517578125</ele>
        <time>2018-09-02T10:21:12.000Z</time>
      </trkpt>
      <trkpt lat="43.31506940536201000213623046875" lon="-2.02722941525280475616455078125">
        <ele>179.399993896484375</ele>
        <time>2018-09-02T10:21:13.000Z</time>
      </trkpt>
      <trkpt lat="43.31509974785149097442626953125" lon="-2.0272771082818508148193359375">
        <ele>178.8000030517578125</ele>
        <time>2018-09-02T10:21:14.000Z</time>
      </trkpt>
      <trkpt lat="43.31512724049389362335205078125" lon="-2.02733762562274932861328125">
        <ele>178.1999969482421875</ele>
        <time>2018-09-02T10:21:15.000Z</time>
      </trkpt>
      <trkpt lat="43.3151497878134250640869140625" lon="-2.027415074408054351806640625">
        <ele>177.600006103515625</ele>
        <time>2018-09-02T10:21:16.000Z</time>
      </trkpt>
      <trkpt lat="43.3151637017726898193359375" lon="-2.02750266529619693756103515625">
        <ele>176.8000030517578125</ele>
        <time>2018-09-02T10:21:17.000Z</time>
      </trkpt>
      <trkpt lat="43.31517015583813190460205078125" lon="-2.02768924646079540252685546875">
        <ele>175.1999969482421875</ele>
        <time>2018-09-02T10:21:19.000Z</time>
      </trkpt>
      <trkpt lat="43.31515607424080371856689453125" lon="-2.02777750790119171142578125">
        <ele>174.8000030517578125</ele>
        <time>2018-09-02T10:21:20.000Z</time>
      </trkpt>
      <trkpt lat="43.31502079032361507415771484375" lon="-2.027963586151599884033203125">
        <ele>173.8000030517578125</ele>
        <time>2018-09-02T10:21:23.000Z</time>
      </trkpt>
      <trkpt lat="43.3149008452892303466796875" lon="-2.02818998135626316070556640625">
        <ele>172.8000030517578125</ele>
        <time>2018-09-02T10:21:26.000Z</time>
      </trkpt>
      <trkpt lat="43.31488433293998241424560546875" lon="-2.02837371267378330230712890625">
        <ele>172.399993896484375</ele>
        <time>2018-09-02T10:21:28.000Z</time>
      </trkpt>
      <trkpt lat="43.31486421637237071990966796875" lon="-2.02854453586041927337646484375">
        <ele>172</ele>
        <time>2018-09-02T10:21:30.000Z</time>
      </trkpt>
      <trkpt lat="43.314848877489566802978515625" lon="-2.0286953262984752655029296875">
        <ele>171.8000030517578125</ele>
        <time>2018-09-02T10:21:32.000Z</time>
      </trkpt>
      <trkpt lat="43.31485717557370662689208984375" lon="-2.02877704985439777374267578125">
        <ele>171.1999969482421875</ele>
        <time>2018-09-02T10:21:33.000Z</time>
      </trkpt>
      <trkpt lat="43.31487477757036685943603515625" lon="-2.0288646407425403594970703125">
        <ele>170.600006103515625</ele>
        <time>2018-09-02T10:21:34.000Z</time>
      </trkpt>
      <trkpt lat="43.3149030245840549468994140625" lon="-2.02895910479128360748291015625">
        <ele>169.8000030517578125</ele>
        <time>2018-09-02T10:21:35.000Z</time>
      </trkpt>
      <trkpt lat="43.314933367073535919189453125" lon="-2.0290611125528812408447265625">
        <ele>168.8000030517578125</ele>
        <time>2018-09-02T10:21:36.000Z</time>
      </trkpt>
      <trkpt lat="43.3149570040404796600341796875" lon="-2.0291675627231597900390625">
        <ele>167.8000030517578125</ele>
        <time>2018-09-02T10:21:37.000Z</time>
      </trkpt>
      <trkpt lat="43.31496630795300006866455078125" lon="-2.02927091158926486968994140625">
        <ele>166.8000030517578125</ele>
        <time>2018-09-02T10:21:38.000Z</time>
      </trkpt>
      <trkpt lat="43.3149544894695281982421875" lon="-2.0293633639812469482421875">
        <ele>166.1999969482421875</ele>
        <time>2018-09-02T10:21:39.000Z</time>
      </trkpt>
      <trkpt lat="43.31491626799106597900390625" lon="-2.02953577972948551177978515625">
        <ele>165.399993896484375</ele>
        <time>2018-09-02T10:21:41.000Z</time>
      </trkpt>
      <trkpt lat="43.3148993365466594696044921875" lon="-2.02961347997188568115234375">
        <ele>165.399993896484375</ele>
        <time>2018-09-02T10:21:42.000Z</time>
      </trkpt>
      <trkpt lat="43.314834125339984893798828125" lon="-2.029829733073711395263671875">
        <ele>166.1999969482421875</ele>
        <time>2018-09-02T10:21:45.000Z</time>
      </trkpt>
      <trkpt lat="43.3148091472685337066650390625" lon="-2.02988983131945133209228515625">
        <ele>166.600006103515625</ele>
        <time>2018-09-02T10:21:46.000Z</time>
      </trkpt>
      <trkpt lat="43.31478416919708251953125" lon="-2.02994205057621002197265625">
        <ele>167.8000030517578125</ele>
        <time>2018-09-02T10:21:47.000Z</time>
      </trkpt>
      <trkpt lat="43.314732201397418975830078125" lon="-2.0300394482910633087158203125">
        <ele>169.1999969482421875</ele>
        <time>2018-09-02T10:21:49.000Z</time>
      </trkpt>
      <trkpt lat="43.31470579840242862701416015625" lon="-2.0300847105681896209716796875">
        <ele>169.600006103515625</ele>
        <time>2018-09-02T10:21:50.000Z</time>
      </trkpt>
      <trkpt lat="43.31462751142680644989013671875" lon="-2.03021429479122161865234375">
        <ele>170.399993896484375</ele>
        <time>2018-09-02T10:21:53.000Z</time>
      </trkpt>
      <trkpt lat="43.3145858533680438995361328125" lon="-2.03029668889939785003662109375">
        <ele>171</ele>
        <time>2018-09-02T10:21:55.000Z</time>
      </trkpt>
      <trkpt lat="43.31453916616737842559814453125" lon="-2.03037765808403491973876953125">
        <ele>171.600006103515625</ele>
        <time>2018-09-02T10:21:57.000Z</time>
      </trkpt>
      <trkpt lat="43.3144943229854106903076171875" lon="-2.03046734444797039031982421875">
        <ele>171.600006103515625</ele>
        <time>2018-09-02T10:21:59.000Z</time>
      </trkpt>
      <trkpt lat="43.31441871821880340576171875" lon="-2.03059994615614414215087890625">
        <ele>171.8000030517578125</ele>
        <time>2018-09-02T10:22:02.000Z</time>
      </trkpt>
      <trkpt lat="43.31420573405921459197998046875" lon="-2.03088191337883472442626953125">
        <ele>172.600006103515625</ele>
        <time>2018-09-02T10:22:09.000Z</time>
      </trkpt>
      <trkpt lat="43.31407070159912109375" lon="-2.03104913234710693359375">
        <ele>171.399993896484375</ele>
        <time>2018-09-02T10:22:13.000Z</time>
      </trkpt>
      <trkpt lat="43.31403507851064205169677734375" lon="-2.03109598718583583831787109375">
        <ele>171.1999969482421875</ele>
        <time>2018-09-02T10:22:14.000Z</time>
      </trkpt>
      <trkpt lat="43.31400037743151187896728515625" lon="-2.03115264885127544403076171875">
        <ele>170.8000030517578125</ele>
        <time>2018-09-02T10:22:15.000Z</time>
      </trkpt>
      <trkpt lat="43.313963077962398529052734375" lon="-2.03121744096279144287109375">
        <ele>170.1999969482421875</ele>
        <time>2018-09-02T10:22:16.000Z</time>
      </trkpt>
      <trkpt lat="43.31388093531131744384765625" lon="-2.0313483662903308868408203125">
        <ele>168.600006103515625</ele>
        <time>2018-09-02T10:22:18.000Z</time>
      </trkpt>
      <trkpt lat="43.313845060765743255615234375" lon="-2.0314305089414119720458984375">
        <ele>167.8000030517578125</ele>
        <time>2018-09-02T10:22:19.000Z</time>
      </trkpt>
      <trkpt lat="43.3138113655149936676025390625" lon="-2.03151944093406200408935546875">
        <ele>167.1999969482421875</ele>
        <time>2018-09-02T10:22:20.000Z</time>
      </trkpt>
      <trkpt lat="43.3137352578341960906982421875" lon="-2.03169328160583972930908203125">
        <ele>166</ele>
        <time>2018-09-02T10:22:22.000Z</time>
      </trkpt>
      <trkpt lat="43.31358530558645725250244140625" lon="-2.0318087004125118255615234375">
        <ele>166.8000030517578125</ele>
        <time>2018-09-02T10:22:25.000Z</time>
      </trkpt>
      <trkpt lat="43.31354155205190181732177734375" lon="-2.03184063546359539031982421875">
        <ele>167.600006103515625</ele>
        <time>2018-09-02T10:22:26.000Z</time>
      </trkpt>
      <trkpt lat="43.31345924176275730133056640625" lon="-2.03189469873905181884765625">
        <ele>168.8000030517578125</ele>
        <time>2018-09-02T10:22:28.000Z</time>
      </trkpt>
      <trkpt lat="43.31339453347027301788330078125" lon="-2.0319595746695995330810546875">
        <ele>169.8000030517578125</ele>
        <time>2018-09-02T10:22:30.000Z</time>
      </trkpt>
      <trkpt lat="43.31336787901818752288818359375" lon="-2.0320001430809497833251953125">
        <ele>170.1999969482421875</ele>
        <time>2018-09-02T10:22:31.000Z</time>
      </trkpt>
      <trkpt lat="43.31332110799849033355712890625" lon="-2.03208446502685546875">
        <ele>171</ele>
        <time>2018-09-02T10:22:33.000Z</time>
      </trkpt>
      <trkpt lat="43.313301913440227508544921875" lon="-2.03212847001850605010986328125">
        <ele>171.399993896484375</ele>
        <time>2018-09-02T10:22:34.000Z</time>
      </trkpt>
      <trkpt lat="43.31327249296009540557861328125" lon="-2.0322180725634098052978515625">
        <ele>172.399993896484375</ele>
        <time>2018-09-02T10:22:36.000Z</time>
      </trkpt>
      <trkpt lat="43.31322915852069854736328125" lon="-2.0323810167610645294189453125">
        <ele>172.1999969482421875</ele>
        <time>2018-09-02T10:22:39.000Z</time>
      </trkpt>
      <trkpt lat="43.31318892538547515869140625" lon="-2.0325761474668979644775390625">
        <ele>171.600006103515625</ele>
        <time>2018-09-02T10:22:42.000Z</time>
      </trkpt>
      <trkpt lat="43.31317710690200328826904296875" lon="-2.03264278359711170196533203125">
        <ele>171.399993896484375</ele>
        <time>2018-09-02T10:22:43.000Z</time>
      </trkpt>
      <trkpt lat="43.3131706528365612030029296875" lon="-2.03270900063216686248779296875">
        <ele>171.1999969482421875</ele>
        <time>2018-09-02T10:22:44.000Z</time>
      </trkpt>
      <trkpt lat="43.31316746771335601806640625" lon="-2.03284411691129207611083984375">
        <ele>171</ele>
        <time>2018-09-02T10:22:46.000Z</time>
      </trkpt>
      <trkpt lat="43.31317174248397350311279296875" lon="-2.03298107720911502838134765625">
        <ele>171.1999969482421875</ele>
        <time>2018-09-02T10:22:48.000Z</time>
      </trkpt>
      <trkpt lat="43.31315313465893268585205078125" lon="-2.03332674689590930938720703125">
        <ele>170.600006103515625</ele>
        <time>2018-09-02T10:22:53.000Z</time>
      </trkpt>
      <trkpt lat="43.31312589347362518310546875" lon="-2.03346119262278079986572265625">
        <ele>170.600006103515625</ele>
        <time>2018-09-02T10:22:55.000Z</time>
      </trkpt>
      <trkpt lat="43.3130124025046825408935546875" lon="-2.033836282789707183837890625">
        <ele>170.8000030517578125</ele>
        <time>2018-09-02T10:23:01.000Z</time>
      </trkpt>
      <trkpt lat="43.312990777194499969482421875" lon="-2.03390342183411121368408203125">
        <ele>170.8000030517578125</ele>
        <time>2018-09-02T10:23:02.000Z</time>
      </trkpt>
      <trkpt lat="43.312949873507022857666015625" lon="-2.034034430980682373046875">
        <ele>170.1999969482421875</ele>
        <time>2018-09-02T10:23:04.000Z</time>
      </trkpt>
      <trkpt lat="43.31289748661220073699951171875" lon="-2.03420408070087432861328125">
        <ele>170.600006103515625</ele>
        <time>2018-09-02T10:23:07.000Z</time>
      </trkpt>
      <trkpt lat="43.31288323737680912017822265625" lon="-2.0342528633773326873779296875">
        <ele>170.8000030517578125</ele>
        <time>2018-09-02T10:23:08.000Z</time>
      </trkpt>
      <trkpt lat="43.31285306252539157867431640625" lon="-2.03440968878567218780517578125">
        <ele>171.399993896484375</ele>
        <time>2018-09-02T10:23:11.000Z</time>
      </trkpt>
      <trkpt lat="43.3128333650529384613037109375" lon="-2.0345006324350833892822265625">
        <ele>171.8000030517578125</ele>
        <time>2018-09-02T10:23:13.000Z</time>
      </trkpt>
      <trkpt lat="43.31280629150569438934326171875" lon="-2.0346124470233917236328125">
        <ele>172.600006103515625</ele>
        <time>2018-09-02T10:23:16.000Z</time>
      </trkpt>
      <trkpt lat="43.312798328697681427001953125" lon="-2.034650333225727081298828125">
        <ele>172.600006103515625</ele>
        <time>2018-09-02T10:23:17.000Z</time>
      </trkpt>
      <trkpt lat="43.31278793513774871826171875" lon="-2.03472987748682498931884765625">
        <ele>172.399993896484375</ele>
        <time>2018-09-02T10:23:19.000Z</time>
      </trkpt>
      <trkpt lat="43.31277863122522830963134765625" lon="-2.03478033654391765594482421875">
        <ele>172.1999969482421875</ele>
        <time>2018-09-02T10:23:20.000Z</time>
      </trkpt>
      <trkpt lat="43.3127257414162158966064453125" lon="-2.0349343121051788330078125">
        <ele>171.1999969482421875</ele>
        <time>2018-09-02T10:23:23.000Z</time>
      </trkpt>
      <trkpt lat="43.3126935549080371856689453125" lon="-2.03502885997295379638671875">
        <ele>171.1999969482421875</ele>
        <time>2018-09-02T10:23:25.000Z</time>
      </trkpt>
      <trkpt lat="43.31258752383291721343994140625" lon="-2.03542088158428668975830078125">
        <ele>170.1999969482421875</ele>
        <time>2018-09-02T10:23:32.000Z</time>
      </trkpt>
      <trkpt lat="43.3125446923077106475830078125" lon="-2.03557695262134075164794921875">
        <ele>169.1999969482421875</ele>
        <time>2018-09-02T10:23:35.000Z</time>
      </trkpt>
      <trkpt lat="43.3125342987477779388427734375" lon="-2.03562590293586254119873046875">
        <ele>169</ele>
        <time>2018-09-02T10:23:36.000Z</time>
      </trkpt>
      <trkpt lat="43.31252533011138439178466796875" lon="-2.03567795455455780029296875">
        <ele>168.8000030517578125</ele>
        <time>2018-09-02T10:23:37.000Z</time>
      </trkpt>
      <trkpt lat="43.31248744390904903411865234375" lon="-2.03577660955488681793212890625">
        <ele>168.1999969482421875</ele>
        <time>2018-09-02T10:23:39.000Z</time>
      </trkpt>
      <trkpt lat="43.3124682493507862091064453125" lon="-2.0358326844871044158935546875">
        <ele>168</ele>
        <time>2018-09-02T10:23:40.000Z</time>
      </trkpt>
      <trkpt lat="43.31245123408734798431396484375" lon="-2.03588984906673431396484375">
        <ele>167.8000030517578125</ele>
        <time>2018-09-02T10:23:41.000Z</time>
      </trkpt>
      <trkpt lat="43.312391974031925201416015625" lon="-2.0360361970961093902587890625">
        <ele>166.600006103515625</ele>
        <time>2018-09-02T10:23:44.000Z</time>
      </trkpt>
      <trkpt lat="43.3123607933521270751953125" lon="-2.0361330918967723846435546875">
        <ele>166</ele>
        <time>2018-09-02T10:23:46.000Z</time>
      </trkpt>
      <trkpt lat="43.3123433589935302734375" lon="-2.03619101084768772125244140625">
        <ele>165.399993896484375</ele>
        <time>2018-09-02T10:23:47.000Z</time>
      </trkpt>
      <trkpt lat="43.31232659518718719482421875" lon="-2.03625328838825225830078125">
        <ele>164.8000030517578125</ele>
        <time>2018-09-02T10:23:48.000Z</time>
      </trkpt>
      <trkpt lat="43.3122878707945346832275390625" lon="-2.03636971302330493927001953125">
        <ele>164.399993896484375</ele>
        <time>2018-09-02T10:23:50.000Z</time>
      </trkpt>
      <trkpt lat="43.31226850859820842742919921875" lon="-2.03641665168106555938720703125">
        <ele>164.399993896484375</ele>
        <time>2018-09-02T10:23:51.000Z</time>
      </trkpt>
      <trkpt lat="43.31221528351306915283203125" lon="-2.03660490922629833221435546875">
        <ele>164.8000030517578125</ele>
        <time>2018-09-02T10:23:56.000Z</time>
      </trkpt>
      <trkpt lat="43.31218351610004901885986328125" lon="-2.036780007183551788330078125">
        <ele>164</ele>
        <time>2018-09-02T10:24:00.000Z</time>
      </trkpt>
      <trkpt lat="43.312165327370166778564453125" lon="-2.0368505828082561492919921875">
        <ele>163.600006103515625</ele>
        <time>2018-09-02T10:24:02.000Z</time>
      </trkpt>
      <trkpt lat="43.31213355995714664459228515625" lon="-2.0370618067681789398193359375">
        <ele>163</ele>
        <time>2018-09-02T10:24:08.000Z</time>
      </trkpt>
      <trkpt lat="43.3121209032833576202392578125" lon="-2.0371325500309467315673828125">
        <ele>163.1999969482421875</ele>
        <time>2018-09-02T10:24:10.000Z</time>
      </trkpt>
      <trkpt lat="43.31209852360188961029052734375" lon="-2.03722517006099224090576171875">
        <ele>163.1999969482421875</ele>
        <time>2018-09-02T10:24:12.000Z</time>
      </trkpt>
      <trkpt lat="43.31208544783294200897216796875" lon="-2.0372797362506389617919921875">
        <ele>163</ele>
        <time>2018-09-02T10:24:13.000Z</time>
      </trkpt>
      <trkpt lat="43.31207446753978729248046875" lon="-2.03734117560088634490966796875">
        <ele>162.8000030517578125</ele>
        <time>2018-09-02T10:24:14.000Z</time>
      </trkpt>
      <trkpt lat="43.31205225549638271331787109375" lon="-2.03746338374912738800048828125">
        <ele>162.8000030517578125</ele>
        <time>2018-09-02T10:24:16.000Z</time>
      </trkpt>
      <trkpt lat="43.3120330609381198883056640625" lon="-2.03761442564427852630615234375">
        <ele>163.399993896484375</ele>
        <time>2018-09-02T10:24:19.000Z</time>
      </trkpt>
      <trkpt lat="43.31202040426433086395263671875" lon="-2.03769187442958354949951171875">
        <ele>164.1999969482421875</ele>
        <time>2018-09-02T10:24:21.000Z</time>
      </trkpt>
      <trkpt lat="43.31198754720389842987060546875" lon="-2.03783352859318256378173828125">
        <ele>165.1999969482421875</ele>
        <time>2018-09-02T10:24:25.000Z</time>
      </trkpt>
      <trkpt lat="43.31194815225899219512939453125" lon="-2.0379445888102054595947265625">
        <ele>165.399993896484375</ele>
        <time>2018-09-02T10:24:28.000Z</time>
      </trkpt>
      <trkpt lat="43.311923928558826446533203125" lon="-2.03802932985126972198486328125">
        <ele>165.600006103515625</ele>
        <time>2018-09-02T10:24:30.000Z</time>
      </trkpt>
      <trkpt lat="43.31183164380490779876708984375" lon="-2.038294114172458648681640625">
        <ele>165.399993896484375</ele>
        <time>2018-09-02T10:24:36.000Z</time>
      </trkpt>
      <trkpt lat="43.311781771481037139892578125" lon="-2.03846368007361888885498046875">
        <ele>165.600006103515625</ele>
        <time>2018-09-02T10:24:41.000Z</time>
      </trkpt>
      <trkpt lat="43.311773724853992462158203125" lon="-2.03852109611034393310546875">
        <ele>165.600006103515625</ele>
        <time>2018-09-02T10:24:43.000Z</time>
      </trkpt>
      <trkpt lat="43.31176324747502803802490234375" lon="-2.03862427733838558197021484375">
        <ele>165.600006103515625</ele>
        <time>2018-09-02T10:24:46.000Z</time>
      </trkpt>
      <trkpt lat="43.3117651753127574920654296875" lon="-2.03867406584322452545166015625">
        <ele>165.600006103515625</ele>
        <time>2018-09-02T10:24:47.000Z</time>
      </trkpt>
      <trkpt lat="43.3117775805294513702392578125" lon="-2.03881521709263324737548828125">
        <ele>164.8000030517578125</ele>
        <time>2018-09-02T10:24:49.000Z</time>
      </trkpt>
      <trkpt lat="43.31179694272577762603759765625" lon="-2.03890590928494930267333984375">
        <ele>164</ele>
        <time>2018-09-02T10:24:50.000Z</time>
      </trkpt>
      <trkpt lat="43.31181990914046764373779296875" lon="-2.0390077494084835052490234375">
        <ele>162.8000030517578125</ele>
        <time>2018-09-02T10:24:51.000Z</time>
      </trkpt>
      <trkpt lat="43.31184237264096736907958984375" lon="-2.03911579214036464691162109375">
        <ele>161.399993896484375</ele>
        <time>2018-09-02T10:24:52.000Z</time>
      </trkpt>
      <trkpt lat="43.31186232157051563262939453125" lon="-2.03922651708126068115234375">
        <ele>160.1999969482421875</ele>
        <time>2018-09-02T10:24:53.000Z</time>
      </trkpt>
      <trkpt lat="43.3118831925094127655029296875" lon="-2.03933455981314182281494140625">
        <ele>159.1999969482421875</ele>
        <time>2018-09-02T10:24:54.000Z</time>
      </trkpt>
      <trkpt lat="43.31190004013478755950927734375" lon="-2.03943396918475627899169921875">
        <ele>158</ele>
        <time>2018-09-02T10:24:55.000Z</time>
      </trkpt>
      <trkpt lat="43.311908505856990814208984375" lon="-2.03952298499643802642822265625">
        <ele>157</ele>
        <time>2018-09-02T10:24:56.000Z</time>
      </trkpt>
      <trkpt lat="43.31190104596316814422607421875" lon="-2.0396135933697223663330078125">
        <ele>156.1999969482421875</ele>
        <time>2018-09-02T10:24:57.000Z</time>
      </trkpt>
      <trkpt lat="43.3118744753301143646240234375" lon="-2.03970185481011867523193359375">
        <ele>155.399993896484375</ele>
        <time>2018-09-02T10:24:58.000Z</time>
      </trkpt>
      <trkpt lat="43.3118375949561595916748046875" lon="-2.03978567384183406829833984375">
        <ele>153.600006103515625</ele>
        <time>2018-09-02T10:24:59.000Z</time>
      </trkpt>
      <trkpt lat="43.31180113367736339569091796875" lon="-2.0398684032261371612548828125">
        <ele>153</ele>
        <time>2018-09-02T10:25:00.000Z</time>
      </trkpt>
      <trkpt lat="43.31172569654881954193115234375" lon="-2.04003813676536083221435546875">
        <ele>152.600006103515625</ele>
        <time>2018-09-02T10:25:02.000Z</time>
      </trkpt>
      <trkpt lat="43.3114302344620227813720703125" lon="-2.04069058410823345184326171875">
        <ele>152.600006103515625</ele>
        <time>2018-09-02T10:25:10.000Z</time>
      </trkpt>
      <trkpt lat="43.311313055455684661865234375" lon="-2.04094581305980682373046875">
        <ele>153.600006103515625</ele>
        <time>2018-09-02T10:25:14.000Z</time>
      </trkpt>
      <trkpt lat="43.31126519478857517242431640625" lon="-2.04106357879936695098876953125">
        <ele>154</ele>
        <time>2018-09-02T10:25:16.000Z</time>
      </trkpt>
      <trkpt lat="43.311237953603267669677734375" lon="-2.0411159656941890716552734375">
        <ele>154.1999969482421875</ele>
        <time>2018-09-02T10:25:17.000Z</time>
      </trkpt>
      <trkpt lat="43.31118724308907985687255859375" lon="-2.04122073948383331298828125">
        <ele>154.600006103515625</ele>
        <time>2018-09-02T10:25:19.000Z</time>
      </trkpt>
      <trkpt lat="43.3111187629401683807373046875" lon="-2.04137152992188930511474609375">
        <ele>155.1999969482421875</ele>
        <time>2018-09-02T10:25:22.000Z</time>
      </trkpt>
      <trkpt lat="43.31109772436320781707763671875" lon="-2.0414234139025211334228515625">
        <ele>155.399993896484375</ele>
        <time>2018-09-02T10:25:23.000Z</time>
      </trkpt>
      <trkpt lat="43.31107878126204013824462890625" lon="-2.0414750464260578155517578125">
        <ele>155.600006103515625</ele>
        <time>2018-09-02T10:25:24.000Z</time>
      </trkpt>
      <trkpt lat="43.31106419675052165985107421875" lon="-2.0415310375392436981201171875">
        <ele>155.8000030517578125</ele>
        <time>2018-09-02T10:25:25.000Z</time>
      </trkpt>
      <trkpt lat="43.31098473630845546722412109375" lon="-2.04172206111252307891845703125">
        <ele>156.1999969482421875</ele>
        <time>2018-09-02T10:25:29.000Z</time>
      </trkpt>
      <trkpt lat="43.31093310378491878509521484375" lon="-2.041795738041400909423828125">
        <ele>156.1999969482421875</ele>
        <time>2018-09-02T10:25:31.000Z</time>
      </trkpt>
      <trkpt lat="43.31087610684335231781005859375" lon="-2.04184292815625667572021484375">
        <ele>156.8000030517578125</ele>
        <time>2018-09-02T10:25:33.000Z</time>
      </trkpt>
      <trkpt lat="43.31084744073450565338134765625" lon="-2.0418596081435680389404296875">
        <ele>157.1999969482421875</ele>
        <time>2018-09-02T10:25:34.000Z</time>
      </trkpt>
      <trkpt lat="43.31077418290078639984130859375" lon="-2.04188584350049495697021484375">
        <ele>158</ele>
        <time>2018-09-02T10:25:37.000Z</time>
      </trkpt>
      <trkpt lat="43.31069581210613250732421875" lon="-2.04189657233655452728271484375">
        <ele>158.399993896484375</ele>
        <time>2018-09-02T10:25:40.000Z</time>
      </trkpt>
      <trkpt lat="43.31059095449745655059814453125" lon="-2.04190813936293125152587890625">
        <ele>159</ele>
        <time>2018-09-02T10:25:44.000Z</time>
      </trkpt>
      <trkpt lat="43.31049523316323757171630859375" lon="-2.0419268310070037841796875">
        <ele>160.1999969482421875</ele>
        <time>2018-09-02T10:25:48.000Z</time>
      </trkpt>
      <trkpt lat="43.31044695340096950531005859375" lon="-2.0419343747198581695556640625">
        <ele>160.600006103515625</ele>
        <time>2018-09-02T10:25:50.000Z</time>
      </trkpt>
      <trkpt lat="43.31037771888077259063720703125" lon="-2.04195692203938961029052734375">
        <ele>161.399993896484375</ele>
        <time>2018-09-02T10:25:53.000Z</time>
      </trkpt>
      <trkpt lat="43.310311920940876007080078125" lon="-2.04199128784239292144775390625">
        <ele>162.399993896484375</ele>
        <time>2018-09-02T10:25:56.000Z</time>
      </trkpt>
      <trkpt lat="43.3102923072874546051025390625" lon="-2.0420067943632602691650390625">
        <ele>162.8000030517578125</ele>
        <time>2018-09-02T10:25:57.000Z</time>
      </trkpt>
      <trkpt lat="43.3102755434811115264892578125" lon="-2.042021043598651885986328125">
        <ele>163.1999969482421875</ele>
        <time>2018-09-02T10:25:58.000Z</time>
      </trkpt>
      <trkpt lat="43.3102467097342014312744140625" lon="-2.04203872941434383392333984375">
        <ele>164</ele>
        <time>2018-09-02T10:26:00.000Z</time>
      </trkpt>
      <trkpt lat="43.31021460704505443572998046875" lon="-2.04206437803804874420166015625">
        <ele>164.399993896484375</ele>
        <time>2018-09-02T10:26:02.000Z</time>
      </trkpt>
      <trkpt lat="43.3101944066584110260009765625" lon="-2.04207443632185459136962890625">
        <ele>164.600006103515625</ele>
        <time>2018-09-02T10:26:03.000Z</time>
      </trkpt>
      <trkpt lat="43.31014419905841350555419921875" lon="-2.0420953072607517242431640625">
        <ele>165</ele>
        <time>2018-09-02T10:26:05.000Z</time>
      </trkpt>
      <trkpt lat="43.31005266867578029632568359375" lon="-2.04212824814021587371826171875">
        <ele>165.600006103515625</ele>
        <time>2018-09-02T10:26:09.000Z</time>
      </trkpt>
      <trkpt lat="43.30988922156393527984619140625" lon="-2.04222011379897594451904296875">
        <ele>165.399993896484375</ele>
        <time>2018-09-02T10:26:15.000Z</time>
      </trkpt>
      <trkpt lat="43.3097679354250431060791015625" lon="-2.042414657771587371826171875">
        <ele>165.399993896484375</ele>
        <time>2018-09-02T10:26:20.000Z</time>
      </trkpt>
      <trkpt lat="43.30970942974090576171875" lon="-2.0425429008901119232177734375">
        <ele>165.600006103515625</ele>
        <time>2018-09-02T10:26:23.000Z</time>
      </trkpt>
      <trkpt lat="43.309658132493495941162109375" lon="-2.04267491586506366729736328125">
        <ele>165.399993896484375</ele>
        <time>2018-09-02T10:26:26.000Z</time>
      </trkpt>
      <trkpt lat="43.30964396707713603973388671875" lon="-2.04272051341831684112548828125">
        <ele>165.1999969482421875</ele>
        <time>2018-09-02T10:26:27.000Z</time>
      </trkpt>
      <trkpt lat="43.30960306338965892791748046875" lon="-2.04284825362265110015869140625">
        <ele>165.399993896484375</ele>
        <time>2018-09-02T10:26:30.000Z</time>
      </trkpt>
      <trkpt lat="43.309578336775302886962890625" lon="-2.0429341681301593780517578125">
        <ele>165.399993896484375</ele>
        <time>2018-09-02T10:26:32.000Z</time>
      </trkpt>
      <trkpt lat="43.30952343530952930450439453125" lon="-2.04312049783766269683837890625">
        <ele>164.8000030517578125</ele>
        <time>2018-09-02T10:26:36.000Z</time>
      </trkpt>
      <trkpt lat="43.30943140201270580291748046875" lon="-2.0434447936713695526123046875">
        <ele>164.399993896484375</ele>
        <time>2018-09-02T10:26:43.000Z</time>
      </trkpt>
      <trkpt lat="43.309412710368633270263671875" lon="-2.0434960909187793731689453125">
        <ele>164.1999969482421875</ele>
        <time>2018-09-02T10:26:44.000Z</time>
      </trkpt>
      <trkpt lat="43.309313468635082244873046875" lon="-2.0435698516666889190673828125">
        <ele>164.399993896484375</ele>
        <time>2018-09-02T10:26:47.000Z</time>
      </trkpt>
      <trkpt lat="43.309279270470142364501953125" lon="-2.04356373287737369537353515625">
        <ele>164.399993896484375</ele>
        <time>2018-09-02T10:26:48.000Z</time>
      </trkpt>
      <trkpt lat="43.3092308230698108673095703125" lon="-2.0435111783444881439208984375">
        <ele>165.1999969482421875</ele>
        <time>2018-09-02T10:26:50.000Z</time>
      </trkpt>
      <trkpt lat="43.3091781847178936004638671875" lon="-2.04349768348038196563720703125">
        <ele>166</ele>
        <time>2018-09-02T10:26:52.000Z</time>
      </trkpt>
      <trkpt lat="43.3091513626277446746826171875" lon="-2.0435071550309658050537109375">
        <ele>166.1999969482421875</ele>
        <time>2018-09-02T10:26:53.000Z</time>
      </trkpt>
      <trkpt lat="43.30912646837532520294189453125" lon="-2.04352567903697490692138671875">
        <ele>166.1999969482421875</ele>
        <time>2018-09-02T10:26:54.000Z</time>
      </trkpt>
      <trkpt lat="43.309037201106548309326171875" lon="-2.04364034347236156463623046875">
        <ele>166.1999969482421875</ele>
        <time>2018-09-02T10:26:58.000Z</time>
      </trkpt>
      <trkpt lat="43.308988921344280242919921875" lon="-2.04370538704097270965576171875">
        <ele>166.1999969482421875</ele>
        <time>2018-09-02T10:27:00.000Z</time>
      </trkpt>
      <trkpt lat="43.30886310897767543792724609375" lon="-2.043899260461330413818359375">
        <ele>166</ele>
        <time>2018-09-02T10:27:05.000Z</time>
      </trkpt>
      <trkpt lat="43.30880711786448955535888671875" lon="-2.043984420597553253173828125">
        <ele>166</ele>
        <time>2018-09-02T10:27:07.000Z</time>
      </trkpt>
      <trkpt lat="43.3087336085736751556396484375" lon="-2.044122219085693359375">
        <ele>165.8000030517578125</ele>
        <time>2018-09-02T10:27:10.000Z</time>
      </trkpt>
      <trkpt lat="43.30867250449955463409423828125" lon="-2.044238559901714324951171875">
        <ele>166.8000030517578125</ele>
        <time>2018-09-02T10:27:13.000Z</time>
      </trkpt>
      <trkpt lat="43.30863864161074161529541015625" lon="-2.04431542195379734039306640625">
        <ele>167.399993896484375</ele>
        <time>2018-09-02T10:27:15.000Z</time>
      </trkpt>
      <trkpt lat="43.3086097240447998046875" lon="-2.044400162994861602783203125">
        <ele>167.8000030517578125</ele>
        <time>2018-09-02T10:27:17.000Z</time>
      </trkpt>
      <trkpt lat="43.308581225574016571044921875" lon="-2.04448624514043331146240234375">
        <ele>168.1999969482421875</ele>
        <time>2018-09-02T10:27:19.000Z</time>
      </trkpt>
      <trkpt lat="43.30856655724346637725830078125" lon="-2.0445258915424346923828125">
        <ele>168.600006103515625</ele>
        <time>2018-09-02T10:27:20.000Z</time>
      </trkpt>
      <trkpt lat="43.3085042797029018402099609375" lon="-2.0446672104299068450927734375">
        <ele>169.600006103515625</ele>
        <time>2018-09-02T10:27:24.000Z</time>
      </trkpt>
      <trkpt lat="43.3084885217249393463134765625" lon="-2.04469981603324413299560546875">
        <ele>170</ele>
        <time>2018-09-02T10:27:25.000Z</time>
      </trkpt>
      <trkpt lat="43.308367989957332611083984375" lon="-2.0449666120111942291259765625">
        <ele>170.600006103515625</ele>
        <time>2018-09-02T10:27:33.000Z</time>
      </trkpt>
      <trkpt lat="43.308354914188385009765625" lon="-2.044999636709690093994140625">
        <ele>170.8000030517578125</ele>
        <time>2018-09-02T10:27:34.000Z</time>
      </trkpt>
      <trkpt lat="43.30827855505049228668212890625" lon="-2.04525352455675601959228515625">
        <ele>171.1999969482421875</ele>
        <time>2018-09-02T10:27:40.000Z</time>
      </trkpt>
      <trkpt lat="43.308247290551662445068359375" lon="-2.04538897611200809478759765625">
        <ele>171.8000030517578125</ele>
        <time>2018-09-02T10:27:43.000Z</time>
      </trkpt>
      <trkpt lat="43.3082038722932338714599609375" lon="-2.0455644093453884124755859375">
        <ele>172.399993896484375</ele>
        <time>2018-09-02T10:27:47.000Z</time>
      </trkpt>
      <trkpt lat="43.30818166024982929229736328125" lon="-2.04564311541616916656494140625">
        <ele>173.1999969482421875</ele>
        <time>2018-09-02T10:27:49.000Z</time>
      </trkpt>
      <trkpt lat="43.30812768079340457916259765625" lon="-2.0457833446562290191650390625">
        <ele>174.399993896484375</ele>
        <time>2018-09-02T10:27:53.000Z</time>
      </trkpt>
      <trkpt lat="43.3081096597015857696533203125" lon="-2.04581276513636112213134765625">
        <ele>174.600006103515625</ele>
        <time>2018-09-02T10:27:54.000Z</time>
      </trkpt>
      <trkpt lat="43.30805090256035327911376953125" lon="-2.04593949951231479644775390625">
        <ele>175.600006103515625</ele>
        <time>2018-09-02T10:27:58.000Z</time>
      </trkpt>
      <trkpt lat="43.3079946599900722503662109375" lon="-2.04604812897741794586181640625">
        <ele>176.399993896484375</ele>
        <time>2018-09-02T10:28:01.000Z</time>
      </trkpt>
      <trkpt lat="43.307974040508270263671875" lon="-2.046089284121990203857421875">
        <ele>176.600006103515625</ele>
        <time>2018-09-02T10:28:02.000Z</time>
      </trkpt>
      <trkpt lat="43.30791897140443325042724609375" lon="-2.046198584139347076416015625">
        <ele>177.399993896484375</ele>
        <time>2018-09-02T10:28:05.000Z</time>
      </trkpt>
      <trkpt lat="43.3078846894204616546630859375" lon="-2.046284414827823638916015625">
        <ele>177.600006103515625</ele>
        <time>2018-09-02T10:28:07.000Z</time>
      </trkpt>
      <trkpt lat="43.30786784179508686065673828125" lon="-2.04632976092398166656494140625">
        <ele>178</ele>
        <time>2018-09-02T10:28:08.000Z</time>
      </trkpt>
      <trkpt lat="43.30781034193933010101318359375" lon="-2.046498320996761322021484375">
        <ele>179</ele>
        <time>2018-09-02T10:28:12.000Z</time>
      </trkpt>
      <trkpt lat="43.30780229531228542327880859375" lon="-2.0465437509119510650634765625">
        <ele>179.1999969482421875</ele>
        <time>2018-09-02T10:28:13.000Z</time>
      </trkpt>
      <trkpt lat="43.3077428676187992095947265625" lon="-2.046773247420787811279296875">
        <ele>180</ele>
        <time>2018-09-02T10:28:18.000Z</time>
      </trkpt>
      <trkpt lat="43.30771227367222309112548828125" lon="-2.0468622632324695587158203125">
        <ele>180.1999969482421875</ele>
        <time>2018-09-02T10:28:20.000Z</time>
      </trkpt>
      <trkpt lat="43.30761202611029148101806640625" lon="-2.04707440920174121856689453125">
        <ele>181</ele>
        <time>2018-09-02T10:28:25.000Z</time>
      </trkpt>
      <trkpt lat="43.3075730502605438232421875" lon="-2.04713241197168827056884765625">
        <ele>181.8000030517578125</ele>
        <time>2018-09-02T10:28:27.000Z</time>
      </trkpt>
      <trkpt lat="43.30753105692565441131591796875" lon="-2.04719427041709423065185546875">
        <ele>182.1999969482421875</ele>
        <time>2018-09-02T10:28:29.000Z</time>
      </trkpt>
      <trkpt lat="43.307443968951702117919921875" lon="-2.0473743975162506103515625">
        <ele>181.8000030517578125</ele>
        <time>2018-09-02T10:28:33.000Z</time>
      </trkpt>
      <trkpt lat="43.30737398006021976470947265625" lon="-2.0475914888083934783935546875">
        <ele>182</ele>
        <time>2018-09-02T10:28:38.000Z</time>
      </trkpt>
      <trkpt lat="43.3073207549750804901123046875" lon="-2.0478196442127227783203125">
        <ele>181.399993896484375</ele>
        <time>2018-09-02T10:28:42.000Z</time>
      </trkpt>
      <trkpt lat="43.30730172805488109588623046875" lon="-2.04788762144744396209716796875">
        <ele>181</ele>
        <time>2018-09-02T10:28:43.000Z</time>
      </trkpt>
      <trkpt lat="43.30726526677608489990234375" lon="-2.04805073328316211700439453125">
        <ele>180</ele>
        <time>2018-09-02T10:28:45.000Z</time>
      </trkpt>
      <trkpt lat="43.30722796730697154998779296875" lon="-2.04823982901871204376220703125">
        <ele>178.399993896484375</ele>
        <time>2018-09-02T10:28:47.000Z</time>
      </trkpt>
      <trkpt lat="43.307206593453884124755859375" lon="-2.0484611950814723968505859375">
        <ele>177.1999969482421875</ele>
        <time>2018-09-02T10:28:49.000Z</time>
      </trkpt>
      <trkpt lat="43.30718153156340122222900390625" lon="-2.0486683957278728485107421875">
        <ele>176</ele>
        <time>2018-09-02T10:28:51.000Z</time>
      </trkpt>
      <trkpt lat="43.3071613311767578125" lon="-2.0487743429839611053466796875">
        <ele>175.600006103515625</ele>
        <time>2018-09-02T10:28:52.000Z</time>
      </trkpt>
      <trkpt lat="43.30710969865322113037109375" lon="-2.0489808730781078338623046875">
        <ele>175</ele>
        <time>2018-09-02T10:28:54.000Z</time>
      </trkpt>
      <trkpt lat="43.3070572279393672943115234375" lon="-2.04916988499462604522705078125">
        <ele>175</ele>
        <time>2018-09-02T10:28:56.000Z</time>
      </trkpt>
      <trkpt lat="43.30699645914137363433837890625" lon="-2.04955562017858028411865234375">
        <ele>175.600006103515625</ele>
        <time>2018-09-02T10:29:00.000Z</time>
      </trkpt>
      <trkpt lat="43.30699478276073932647705078125" lon="-2.04964798875153064727783203125">
        <ele>175.600006103515625</ele>
        <time>2018-09-02T10:29:01.000Z</time>
      </trkpt>
      <trkpt lat="43.30700484104454517364501953125" lon="-2.0501372404396533966064453125">
        <ele>173.8000030517578125</ele>
        <time>2018-09-02T10:29:06.000Z</time>
      </trkpt>
      <trkpt lat="43.3070099540054798126220703125" lon="-2.05035190097987651824951171875">
        <ele>172.8000030517578125</ele>
        <time>2018-09-02T10:29:08.000Z</time>
      </trkpt>
      <trkpt lat="43.30701255239546298980712890625" lon="-2.05058877356350421905517578125">
        <ele>170.8000030517578125</ele>
        <time>2018-09-02T10:29:10.000Z</time>
      </trkpt>
      <trkpt lat="43.30699914135038852691650390625" lon="-2.0506998337805271148681640625">
        <ele>170.600006103515625</ele>
        <time>2018-09-02T10:29:11.000Z</time>
      </trkpt>
      <trkpt lat="43.3069073595106601715087890625" lon="-2.0510919392108917236328125">
        <ele>171.600006103515625</ele>
        <time>2018-09-02T10:29:15.000Z</time>
      </trkpt>
      <trkpt lat="43.30681574530899524688720703125" lon="-2.05154456198215484619140625">
        <ele>171.8000030517578125</ele>
        <time>2018-09-02T10:29:20.000Z</time>
      </trkpt>
      <trkpt lat="43.30679730512201786041259765625" lon="-2.05162427388131618499755859375">
        <ele>172.1999969482421875</ele>
        <time>2018-09-02T10:29:21.000Z</time>
      </trkpt>
      <trkpt lat="43.3067799545824527740478515625" lon="-2.05170507542788982391357421875">
        <ele>172.399993896484375</ele>
        <time>2018-09-02T10:29:22.000Z</time>
      </trkpt>
      <trkpt lat="43.30673150718212127685546875" lon="-2.0519145391881465911865234375">
        <ele>174.1999969482421875</ele>
        <time>2018-09-02T10:29:25.000Z</time>
      </trkpt>
      <trkpt lat="43.30670627765357494354248046875" lon="-2.0520134456455707550048828125">
        <ele>175.399993896484375</ele>
        <time>2018-09-02T10:29:27.000Z</time>
      </trkpt>
      <trkpt lat="43.30668381415307521820068359375" lon="-2.05214864574372768402099609375">
        <ele>176.600006103515625</ele>
        <time>2018-09-02T10:29:30.000Z</time>
      </trkpt>
      <trkpt lat="43.306671492755413055419921875" lon="-2.05227772705256938934326171875">
        <ele>177.399993896484375</ele>
        <time>2018-09-02T10:29:33.000Z</time>
      </trkpt>
      <trkpt lat="43.30665883608162403106689453125" lon="-2.0523648150265216827392578125">
        <ele>177.600006103515625</ele>
        <time>2018-09-02T10:29:35.000Z</time>
      </trkpt>
      <trkpt lat="43.30667442642152309417724609375" lon="-2.05252398736774921417236328125">
        <ele>178.1999969482421875</ele>
        <time>2018-09-02T10:29:39.000Z</time>
      </trkpt>
      <trkpt lat="43.30670091323554515838623046875" lon="-2.0526159368455410003662109375">
        <ele>178.8000030517578125</ele>
        <time>2018-09-02T10:29:42.000Z</time>
      </trkpt>
      <trkpt lat="43.30672035925090312957763671875" lon="-2.05272783525288105010986328125">
        <ele>179.600006103515625</ele>
        <time>2018-09-02T10:29:45.000Z</time>
      </trkpt>
      <trkpt lat="43.306750617921352386474609375" lon="-2.052793465554714202880859375">
        <ele>179.8000030517578125</ele>
        <time>2018-09-02T10:29:47.000Z</time>
      </trkpt>
      <trkpt lat="43.30679344944655895233154296875" lon="-2.0529099740087985992431640625">
        <ele>179.8000030517578125</ele>
        <time>2018-09-02T10:29:50.000Z</time>
      </trkpt>
      <trkpt lat="43.30684013664722442626953125" lon="-2.05327249132096767425537109375">
        <ele>180</ele>
        <time>2018-09-02T10:29:56.000Z</time>
      </trkpt>
      <trkpt lat="43.30684323795139789581298828125" lon="-2.05359335057437419891357421875">
        <ele>180.8000030517578125</ele>
        <time>2018-09-02T10:30:02.000Z</time>
      </trkpt>
      <trkpt lat="43.30683887936174869537353515625" lon="-2.053637690842151641845703125">
        <ele>181</ele>
        <time>2018-09-02T10:30:03.000Z</time>
      </trkpt>
      <trkpt lat="43.30678389407694339752197265625" lon="-2.05383458174765110015869140625">
        <ele>181.1999969482421875</ele>
        <time>2018-09-02T10:30:07.000Z</time>
      </trkpt>
      <trkpt lat="43.30670862458646297454833984375" lon="-2.0540381781756877899169921875">
        <ele>181.399993896484375</ele>
        <time>2018-09-02T10:30:11.000Z</time>
      </trkpt>
      <trkpt lat="43.30669353716075420379638671875" lon="-2.05408670939505100250244140625">
        <ele>181.600006103515625</ele>
        <time>2018-09-02T10:30:12.000Z</time>
      </trkpt>
      <trkpt lat="43.3066693134605884552001953125" lon="-2.05417756922543048858642578125">
        <ele>182.1999969482421875</ele>
        <time>2018-09-02T10:30:14.000Z</time>
      </trkpt>
      <trkpt lat="43.30663804896175861358642578125" lon="-2.05428955145180225372314453125">
        <ele>183.600006103515625</ele>
        <time>2018-09-02T10:30:17.000Z</time>
      </trkpt>
      <trkpt lat="43.30663016997277736663818359375" lon="-2.05432442016899585723876953125">
        <ele>184</ele>
        <time>2018-09-02T10:30:18.000Z</time>
      </trkpt>
      <trkpt lat="43.3066180162131786346435546875" lon="-2.05441812984645366668701171875">
        <ele>184.600006103515625</ele>
        <time>2018-09-02T10:30:21.000Z</time>
      </trkpt>
      <trkpt lat="43.3066047728061676025390625" lon="-2.05451619811356067657470703125">
        <ele>185.1999969482421875</ele>
        <time>2018-09-02T10:30:24.000Z</time>
      </trkpt>
      <trkpt lat="43.30658532679080963134765625" lon="-2.05463287420570850372314453125">
        <ele>185.600006103515625</ele>
        <time>2018-09-02T10:30:27.000Z</time>
      </trkpt>
      <trkpt lat="43.30655154772102832794189453125" lon="-2.0548448525369167327880859375">
        <ele>186.399993896484375</ele>
        <time>2018-09-02T10:30:32.000Z</time>
      </trkpt>
      <trkpt lat="43.30652740783989429473876953125" lon="-2.05493487417697906494140625">
        <ele>186.8000030517578125</ele>
        <time>2018-09-02T10:30:34.000Z</time>
      </trkpt>
      <trkpt lat="43.30644208006560802459716796875" lon="-2.05509941093623638153076171875">
        <ele>188</ele>
        <time>2018-09-02T10:30:38.000Z</time>
      </trkpt>
      <trkpt lat="43.3063963986933231353759765625" lon="-2.05530040897428989410400390625">
        <ele>187.600006103515625</ele>
        <time>2018-09-02T10:30:42.000Z</time>
      </trkpt>
      <trkpt lat="43.306380473077297210693359375" lon="-2.055436111986637115478515625">
        <ele>186.399993896484375</ele>
        <time>2018-09-02T10:30:44.000Z</time>
      </trkpt>
      <trkpt lat="43.306377120316028594970703125" lon="-2.05551045946776866912841796875">
        <ele>186</ele>
        <time>2018-09-02T10:30:45.000Z</time>
      </trkpt>
      <trkpt lat="43.30638390965759754180908203125" lon="-2.0556578971445560455322265625">
        <ele>185.8000030517578125</ele>
        <time>2018-09-02T10:30:47.000Z</time>
      </trkpt>
      <trkpt lat="43.30639849416911602020263671875" lon="-2.05578982830047607421875">
        <ele>185.399993896484375</ele>
        <time>2018-09-02T10:30:49.000Z</time>
      </trkpt>
      <trkpt lat="43.30643453635275363922119140625" lon="-2.056007087230682373046875">
        <ele>184.600006103515625</ele>
        <time>2018-09-02T10:30:52.000Z</time>
      </trkpt>
      <trkpt lat="43.306439481675624847412109375" lon="-2.05608093179762363433837890625">
        <ele>184.600006103515625</ele>
        <time>2018-09-02T10:30:53.000Z</time>
      </trkpt>
      <trkpt lat="43.30642037093639373779296875" lon="-2.0561487413942813873291015625">
        <ele>184.399993896484375</ele>
        <time>2018-09-02T10:30:54.000Z</time>
      </trkpt>
      <trkpt lat="43.306391201913356781005859375" lon="-2.05621370114386081695556640625">
        <ele>184.1999969482421875</ele>
        <time>2018-09-02T10:30:55.000Z</time>
      </trkpt>
      <trkpt lat="43.30627477727830410003662109375" lon="-2.05640749074518680572509765625">
        <ele>185.1999969482421875</ele>
        <time>2018-09-02T10:30:59.000Z</time>
      </trkpt>
      <trkpt lat="43.30624946393072605133056640625" lon="-2.05644085071980953216552734375">
        <ele>185.600006103515625</ele>
        <time>2018-09-02T10:31:00.000Z</time>
      </trkpt>
      <trkpt lat="43.3062260784208774566650390625" lon="-2.05647488124668598175048828125">
        <ele>186.600006103515625</ele>
        <time>2018-09-02T10:31:01.000Z</time>
      </trkpt>
      <trkpt lat="43.30616891384124755859375" lon="-2.0565624721348285675048828125">
        <ele>187.399993896484375</ele>
        <time>2018-09-02T10:31:04.000Z</time>
      </trkpt>
      <trkpt lat="43.30615173093974590301513671875" lon="-2.05659423954784870147705078125">
        <ele>187.8000030517578125</ele>
        <time>2018-09-02T10:31:05.000Z</time>
      </trkpt>
      <trkpt lat="43.30612155608832836151123046875" lon="-2.0566843450069427490234375">
        <ele>189</ele>
        <time>2018-09-02T10:31:08.000Z</time>
      </trkpt>
      <trkpt lat="43.3061087317764759063720703125" lon="-2.05674536526203155517578125">
        <ele>189.8000030517578125</ele>
        <time>2018-09-02T10:31:10.000Z</time>
      </trkpt>
      <trkpt lat="43.30609825439751148223876953125" lon="-2.05678786151111125946044921875">
        <ele>190</ele>
        <time>2018-09-02T10:31:11.000Z</time>
      </trkpt>
      <trkpt lat="43.3060772158205509185791015625" lon="-2.05686765722930431365966796875">
        <ele>190.399993896484375</ele>
        <time>2018-09-02T10:31:13.000Z</time>
      </trkpt>
      <trkpt lat="43.30606120638549327850341796875" lon="-2.05694653093814849853515625">
        <ele>191</ele>
        <time>2018-09-02T10:31:15.000Z</time>
      </trkpt>
      <trkpt lat="43.30605165101587772369384765625" lon="-2.0569805614650249481201171875">
        <ele>191.1999969482421875</ele>
        <time>2018-09-02T10:31:16.000Z</time>
      </trkpt>
      <trkpt lat="43.30600840039551258087158203125" lon="-2.05709212459623813629150390625">
        <ele>192.1999969482421875</ele>
        <time>2018-09-02T10:31:20.000Z</time>
      </trkpt>
      <trkpt lat="43.30597084946930408477783203125" lon="-2.0571834035217761993408203125">
        <ele>192.600006103515625</ele>
        <time>2018-09-02T10:31:23.000Z</time>
      </trkpt>
      <trkpt lat="43.30593413673341274261474609375" lon="-2.05727166496217250823974609375">
        <ele>193.1999969482421875</ele>
        <time>2018-09-02T10:31:26.000Z</time>
      </trkpt>
      <trkpt lat="43.305827938020229339599609375" lon="-2.05745992250740528106689453125">
        <ele>193.8000030517578125</ele>
        <time>2018-09-02T10:31:33.000Z</time>
      </trkpt>
      <trkpt lat="43.30579298548400402069091796875" lon="-2.0575605891644954681396484375">
        <ele>194.1999969482421875</ele>
        <time>2018-09-02T10:31:36.000Z</time>
      </trkpt>
      <trkpt lat="43.3057553507387638092041015625" lon="-2.0576497726142406463623046875">
        <ele>195.1999969482421875</ele>
        <time>2018-09-02T10:31:40.000Z</time>
      </trkpt>
      <trkpt lat="43.305747471749782562255859375" lon="-2.05766829662024974822998046875">
        <ele>195.399993896484375</ele>
        <time>2018-09-02T10:31:41.000Z</time>
      </trkpt>
      <trkpt lat="43.305705897510051727294921875" lon="-2.05776804126799106597900390625">
        <ele>196.399993896484375</ele>
        <time>2018-09-02T10:31:46.000Z</time>
      </trkpt>
      <trkpt lat="43.3056981861591339111328125" lon="-2.05778363160789012908935546875">
        <ele>196.8000030517578125</ele>
        <time>2018-09-02T10:31:47.000Z</time>
      </trkpt>
      <trkpt lat="43.3056665025651454925537109375" lon="-2.05784465186297893524169921875">
        <ele>197.600006103515625</ele>
        <time>2018-09-02T10:31:50.000Z</time>
      </trkpt>
      <trkpt lat="43.30564177595078945159912109375" lon="-2.057907097041606903076171875">
        <ele>198.399993896484375</ele>
        <time>2018-09-02T10:31:53.000Z</time>
      </trkpt>
      <trkpt lat="43.30563121475279331207275390625" lon="-2.05792679451406002044677734375">
        <ele>198.8000030517578125</ele>
        <time>2018-09-02T10:31:54.000Z</time>
      </trkpt>
      <trkpt lat="43.30560003407299518585205078125" lon="-2.058046571910381317138671875">
        <ele>199.399993896484375</ele>
        <time>2018-09-02T10:31:59.000Z</time>
      </trkpt>
      <trkpt lat="43.3055587112903594970703125" lon="-2.05817364156246185302734375">
        <ele>200</ele>
        <time>2018-09-02T10:32:04.000Z</time>
      </trkpt>
      <trkpt lat="43.305557034909725189208984375" lon="-2.05819644033908843994140625">
        <ele>200.1999969482421875</ele>
        <time>2018-09-02T10:32:05.000Z</time>
      </trkpt>
      <trkpt lat="43.30553918145596981048583984375" lon="-2.05829593352973461151123046875">
        <ele>201.1999969482421875</ele>
        <time>2018-09-02T10:32:09.000Z</time>
      </trkpt>
      <trkpt lat="43.305520825088024139404296875" lon="-2.0583813451230525970458984375">
        <ele>201.399993896484375</ele>
        <time>2018-09-02T10:32:12.000Z</time>
      </trkpt>
      <trkpt lat="43.30550129525363445281982421875" lon="-2.0584960095584392547607421875">
        <ele>202</ele>
        <time>2018-09-02T10:32:16.000Z</time>
      </trkpt>
      <trkpt lat="43.3054928295314311981201171875" lon="-2.05855158157646656036376953125">
        <ele>202.399993896484375</ele>
        <time>2018-09-02T10:32:18.000Z</time>
      </trkpt>
      <trkpt lat="43.30549073405563831329345703125" lon="-2.05860656686127185821533203125">
        <ele>202.600006103515625</ele>
        <time>2018-09-02T10:32:20.000Z</time>
      </trkpt>
      <trkpt lat="43.30546340905129909515380859375" lon="-2.058743946254253387451171875">
        <ele>203.399993896484375</ele>
        <time>2018-09-02T10:32:25.000Z</time>
      </trkpt>
      <trkpt lat="43.30544999800622463226318359375" lon="-2.05879189074039459228515625">
        <ele>203.600006103515625</ele>
        <time>2018-09-02T10:32:27.000Z</time>
      </trkpt>
      <trkpt lat="43.305427618324756622314453125" lon="-2.05895357765257358551025390625">
        <ele>204.600006103515625</ele>
        <time>2018-09-02T10:32:33.000Z</time>
      </trkpt>
      <trkpt lat="43.3054083399474620819091796875" lon="-2.05910227261483669281005859375">
        <ele>205.600006103515625</ele>
        <time>2018-09-02T10:32:38.000Z</time>
      </trkpt>
      <trkpt lat="43.30540305934846401214599609375" lon="-2.059161029756069183349609375">
        <ele>206</ele>
        <time>2018-09-02T10:32:40.000Z</time>
      </trkpt>
      <trkpt lat="43.3053741417825222015380859375" lon="-2.05933503806591033935546875">
        <ele>206.600006103515625</ele>
        <time>2018-09-02T10:32:46.000Z</time>
      </trkpt>
      <trkpt lat="43.30537355504930019378662109375" lon="-2.059385664761066436767578125">
        <ele>206.8000030517578125</ele>
        <time>2018-09-02T10:32:48.000Z</time>
      </trkpt>
      <trkpt lat="43.305339775979518890380859375" lon="-2.05963737331330776214599609375">
        <ele>207.600006103515625</ele>
        <time>2018-09-02T10:32:56.000Z</time>
      </trkpt>
      <trkpt lat="43.30533298663794994354248046875" lon="-2.05966838635504245758056640625">
        <ele>207.8000030517578125</ele>
        <time>2018-09-02T10:32:57.000Z</time>
      </trkpt>
      <trkpt lat="43.30529627390205860137939453125" lon="-2.05977131612598896026611328125">
        <ele>209.1999969482421875</ele>
        <time>2018-09-02T10:33:01.000Z</time>
      </trkpt>
      <trkpt lat="43.30527699552476406097412109375" lon="-2.05981272272765636444091796875">
        <ele>209.600006103515625</ele>
        <time>2018-09-02T10:33:03.000Z</time>
      </trkpt>
      <trkpt lat="43.30524749122560024261474609375" lon="-2.059891931712627410888671875">
        <ele>210.1999969482421875</ele>
        <time>2018-09-02T10:33:06.000Z</time>
      </trkpt>
      <trkpt lat="43.30522402189671993255615234375" lon="-2.05995940603315830230712890625">
        <ele>210.399993896484375</ele>
        <time>2018-09-02T10:33:09.000Z</time>
      </trkpt>
      <trkpt lat="43.30514925532042980194091796875" lon="-2.06014079041779041290283203125">
        <ele>210.8000030517578125</ele>
        <time>2018-09-02T10:33:14.000Z</time>
      </trkpt>
      <trkpt lat="43.3051335811614990234375" lon="-2.0601750724017620086669921875">
        <ele>210.8000030517578125</ele>
        <time>2018-09-02T10:33:15.000Z</time>
      </trkpt>
      <trkpt lat="43.3050475828349590301513671875" lon="-2.060441784560680389404296875">
        <ele>210.8000030517578125</ele>
        <time>2018-09-02T10:33:21.000Z</time>
      </trkpt>
      <trkpt lat="43.30491841770708560943603515625" lon="-2.0607547648251056671142578125">
        <ele>209.1999969482421875</ele>
        <time>2018-09-02T10:33:26.000Z</time>
      </trkpt>
      <trkpt lat="43.3048908412456512451171875" lon="-2.060816623270511627197265625">
        <ele>209</ele>
        <time>2018-09-02T10:33:27.000Z</time>
      </trkpt>
      <trkpt lat="43.3048185892403125762939453125" lon="-2.061001695692539215087890625">
        <ele>209.399993896484375</ele>
        <time>2018-09-02T10:33:30.000Z</time>
      </trkpt>
      <trkpt lat="43.304811380803585052490234375" lon="-2.0611212216317653656005859375">
        <ele>209.399993896484375</ele>
        <time>2018-09-02T10:33:32.000Z</time>
      </trkpt>
      <trkpt lat="43.304870389401912689208984375" lon="-2.06121903844177722930908203125">
        <ele>210.399993896484375</ele>
        <time>2018-09-02T10:33:35.000Z</time>
      </trkpt>
      <trkpt lat="43.3049003966152667999267578125" lon="-2.0612549968063831329345703125">
        <ele>211.399993896484375</ele>
        <time>2018-09-02T10:33:37.000Z</time>
      </trkpt>
      <trkpt lat="43.3049121312797069549560546875" lon="-2.06126815639436244964599609375">
        <ele>212</ele>
        <time>2018-09-02T10:33:38.000Z</time>
      </trkpt>
      <trkpt lat="43.30494649708271026611328125" lon="-2.061312496662139892578125">
        <ele>213</ele>
        <time>2018-09-02T10:33:41.000Z</time>
      </trkpt>
      <trkpt lat="43.3049677871167659759521484375" lon="-2.06134024076163768768310546875">
        <ele>213.8000030517578125</ele>
        <time>2018-09-02T10:33:43.000Z</time>
      </trkpt>
      <trkpt lat="43.304986059665679931640625" lon="-2.0613710023462772369384765625">
        <ele>214.1999969482421875</ele>
        <time>2018-09-02T10:33:45.000Z</time>
      </trkpt>
      <trkpt lat="43.305007182061672210693359375" lon="-2.06143319606781005859375">
        <ele>215</ele>
        <time>2018-09-02T10:33:48.000Z</time>
      </trkpt>
      <trkpt lat="43.3050110377371311187744140625" lon="-2.06145490519702434539794921875">
        <ele>215.399993896484375</ele>
        <time>2018-09-02T10:33:49.000Z</time>
      </trkpt>
      <trkpt lat="43.3050070144236087799072265625" lon="-2.06154911778867244720458984375">
        <ele>216</ele>
        <time>2018-09-02T10:33:53.000Z</time>
      </trkpt>
      <trkpt lat="43.30499871633946895599365234375" lon="-2.0615641213953495025634765625">
        <ele>216</ele>
        <time>2018-09-02T10:33:54.000Z</time>
      </trkpt>
      <trkpt lat="43.30498564057052135467529296875" lon="-2.06159412860870361328125">
        <ele>216.399993896484375</ele>
        <time>2018-09-02T10:33:56.000Z</time>
      </trkpt>
      <trkpt lat="43.3049734868109226226806640625" lon="-2.0616063661873340606689453125">
        <ele>216.600006103515625</ele>
        <time>2018-09-02T10:33:57.000Z</time>
      </trkpt>
      <trkpt lat="43.30493417568504810333251953125" lon="-2.06164835952222347259521484375">
        <ele>217.399993896484375</ele>
        <time>2018-09-02T10:34:01.000Z</time>
      </trkpt>
      <trkpt lat="43.3048910088837146759033203125" lon="-2.06170317716896533966064453125">
        <ele>218.399993896484375</ele>
        <time>2018-09-02T10:34:06.000Z</time>
      </trkpt>
      <trkpt lat="43.3048796094954013824462890625" lon="-2.06171549856662750244140625">
        <ele>218.8000030517578125</ele>
        <time>2018-09-02T10:34:07.000Z</time>
      </trkpt>
      <trkpt lat="43.30484650097787380218505859375" lon="-2.06176671199500560760498046875">
        <ele>219.600006103515625</ele>
        <time>2018-09-02T10:34:11.000Z</time>
      </trkpt>
      <trkpt lat="43.3048226125538349151611328125" lon="-2.06179730594158172607421875">
        <ele>220.399993896484375</ele>
        <time>2018-09-02T10:34:14.000Z</time>
      </trkpt>
      <trkpt lat="43.304813392460346221923828125" lon="-2.06181298010051250457763671875">
        <ele>220.8000030517578125</ele>
        <time>2018-09-02T10:34:16.000Z</time>
      </trkpt>
      <trkpt lat="43.3047813735902309417724609375" lon="-2.0618792809545993804931640625">
        <ele>221.8000030517578125</ele>
        <time>2018-09-02T10:34:21.000Z</time>
      </trkpt>
      <trkpt lat="43.3047595806419849395751953125" lon="-2.06192596815526485443115234375">
        <ele>222.600006103515625</ele>
        <time>2018-09-02T10:34:25.000Z</time>
      </trkpt>
      <trkpt lat="43.30473686568439006805419921875" lon="-2.06196804530918598175048828125">
        <ele>223</ele>
        <time>2018-09-02T10:34:28.000Z</time>
      </trkpt>
      <trkpt lat="43.304732255637645721435546875" lon="-2.06200542859733104705810546875">
        <ele>223.1999969482421875</ele>
        <time>2018-09-02T10:34:30.000Z</time>
      </trkpt>
      <trkpt lat="43.30470937304198741912841796875" lon="-2.06208941526710987091064453125">
        <ele>223.600006103515625</ele>
        <time>2018-09-02T10:34:34.000Z</time>
      </trkpt>
      <trkpt lat="43.30469705164432525634765625" lon="-2.062151692807674407958984375">
        <ele>224</ele>
        <time>2018-09-02T10:34:37.000Z</time>
      </trkpt>
      <trkpt lat="43.3046928606927394866943359375" lon="-2.06223794259130954742431640625">
        <ele>223.8000030517578125</ele>
        <time>2018-09-02T10:34:40.000Z</time>
      </trkpt>
      <trkpt lat="43.30469026230275630950927734375" lon="-2.06227147020399570465087890625">
        <ele>223.8000030517578125</ele>
        <time>2018-09-02T10:34:41.000Z</time>
      </trkpt>
      <trkpt lat="43.30468003638088703155517578125" lon="-2.06244883127510547637939453125">
        <ele>223.399993896484375</ele>
        <time>2018-09-02T10:34:46.000Z</time>
      </trkpt>
      <trkpt lat="43.3046737499535083770751953125" lon="-2.06252728588879108428955078125">
        <ele>223.399993896484375</ele>
        <time>2018-09-02T10:34:48.000Z</time>
      </trkpt>
      <trkpt lat="43.30466193147003650665283203125" lon="-2.06265184096992015838623046875">
        <ele>223.399993896484375</ele>
        <time>2018-09-02T10:34:51.000Z</time>
      </trkpt>
      <trkpt lat="43.30464952625334262847900390625" lon="-2.06273800693452358245849609375">
        <ele>223.600006103515625</ele>
        <time>2018-09-02T10:34:53.000Z</time>
      </trkpt>
      <trkpt lat="43.30463997088372707366943359375" lon="-2.0627811737358570098876953125">
        <ele>223.600006103515625</ele>
        <time>2018-09-02T10:34:54.000Z</time>
      </trkpt>
      <trkpt lat="43.30461658537387847900390625" lon="-2.0628609694540500640869140625">
        <ele>223.399993896484375</ele>
        <time>2018-09-02T10:34:56.000Z</time>
      </trkpt>
      <trkpt lat="43.3045741729438304901123046875" lon="-2.063033469021320343017578125">
        <ele>223.600006103515625</ele>
        <time>2018-09-02T10:35:00.000Z</time>
      </trkpt>
      <trkpt lat="43.3045218698680400848388671875" lon="-2.063219211995601654052734375">
        <ele>223.600006103515625</ele>
        <time>2018-09-02T10:35:04.000Z</time>
      </trkpt>
      <trkpt lat="43.30442480742931365966796875" lon="-2.06348751671612262725830078125">
        <ele>223.8000030517578125</ele>
        <time>2018-09-02T10:35:10.000Z</time>
      </trkpt>
      <trkpt lat="43.3043974824249744415283203125" lon="-2.0635704137384891510009765625">
        <ele>223.8000030517578125</ele>
        <time>2018-09-02T10:35:12.000Z</time>
      </trkpt>
      <trkpt lat="43.30432481132447719573974609375" lon="-2.0637331902980804443359375">
        <ele>223.8000030517578125</ele>
        <time>2018-09-02T10:35:16.000Z</time>
      </trkpt>
      <trkpt lat="43.30417511053383350372314453125" lon="-2.0640121400356292724609375">
        <ele>223.8000030517578125</ele>
        <time>2018-09-02T10:35:23.000Z</time>
      </trkpt>
      <trkpt lat="43.3039971627295017242431640625" lon="-2.064210288226604461669921875">
        <ele>223</ele>
        <time>2018-09-02T10:35:28.000Z</time>
      </trkpt>
      <trkpt lat="43.30395064316689968109130859375" lon="-2.06423920579254627227783203125">
        <ele>223</ele>
        <time>2018-09-02T10:35:29.000Z</time>
      </trkpt>
      <trkpt lat="43.3038130961358547210693359375" lon="-2.06431430764496326446533203125">
        <ele>222.399993896484375</ele>
        <time>2018-09-02T10:35:32.000Z</time>
      </trkpt>
      <trkpt lat="43.3036903850734233856201171875" lon="-2.06436057575047016143798828125">
        <ele>222.1999969482421875</ele>
        <time>2018-09-02T10:35:35.000Z</time>
      </trkpt>
      <trkpt lat="43.30361486412584781646728515625" lon="-2.06440282054245471954345703125">
        <ele>221.8000030517578125</ele>
        <time>2018-09-02T10:35:37.000Z</time>
      </trkpt>
      <trkpt lat="43.30350925214588642120361328125" lon="-2.0644692890346050262451171875">
        <ele>220.600006103515625</ele>
        <time>2018-09-02T10:35:39.000Z</time>
      </trkpt>
      <trkpt lat="43.3034523390233516693115234375" lon="-2.06450642086565494537353515625">
        <ele>219.8000030517578125</ele>
        <time>2018-09-02T10:35:40.000Z</time>
      </trkpt>
      <trkpt lat="43.30339626409113407135009765625" lon="-2.06454849801957607269287109375">
        <ele>219</ele>
        <time>2018-09-02T10:35:41.000Z</time>
      </trkpt>
      <trkpt lat="43.30328897573053836822509765625" lon="-2.06467774696648120880126953125">
        <ele>218.1999969482421875</ele>
        <time>2018-09-02T10:35:44.000Z</time>
      </trkpt>
      <trkpt lat="43.3033443801105022430419921875" lon="-2.06477045081555843353271484375">
        <ele>218.8000030517578125</ele>
        <time>2018-09-02T10:35:47.000Z</time>
      </trkpt>
      <trkpt lat="43.30347639508545398712158203125" lon="-2.06484873779118061065673828125">
        <ele>219</ele>
        <time>2018-09-02T10:35:51.000Z</time>
      </trkpt>
      <trkpt lat="43.3036119304597377777099609375" lon="-2.06495200283825397491455078125">
        <ele>219</ele>
        <time>2018-09-02T10:35:55.000Z</time>
      </trkpt>
      <trkpt lat="43.30363699235022068023681640625" lon="-2.06498167477548122406005859375">
        <ele>219.1999969482421875</ele>
        <time>2018-09-02T10:35:56.000Z</time>
      </trkpt>
      <trkpt lat="43.30368518829345703125" lon="-2.06507437862455844879150390625">
        <ele>220.399993896484375</ele>
        <time>2018-09-02T10:35:59.000Z</time>
      </trkpt>
      <trkpt lat="43.30370086245238780975341796875" lon="-2.06514243967831134796142578125">
        <ele>221</ele>
        <time>2018-09-02T10:36:01.000Z</time>
      </trkpt>
      <trkpt lat="43.30370957963168621063232421875" lon="-2.06520161591470241546630859375">
        <ele>221.399993896484375</ele>
        <time>2018-09-02T10:36:03.000Z</time>
      </trkpt>
      <trkpt lat="43.30371041782200336456298828125" lon="-2.0652300305664539337158203125">
        <ele>221.399993896484375</ele>
        <time>2018-09-02T10:36:04.000Z</time>
      </trkpt>
      <trkpt lat="43.3037084899842739105224609375" lon="-2.0653218962252140045166015625">
        <ele>222.399993896484375</ele>
        <time>2018-09-02T10:36:07.000Z</time>
      </trkpt>
      <trkpt lat="43.30370220355689525604248046875" lon="-2.06534813158214092254638671875">
        <ele>222.600006103515625</ele>
        <time>2018-09-02T10:36:08.000Z</time>
      </trkpt>
      <trkpt lat="43.30368627794086933135986328125" lon="-2.0654194615781307220458984375">
        <ele>223.399993896484375</ele>
        <time>2018-09-02T10:36:11.000Z</time>
      </trkpt>
      <trkpt lat="43.303679488599300384521484375" lon="-2.065442092716693878173828125">
        <ele>223.8000030517578125</ele>
        <time>2018-09-02T10:36:12.000Z</time>
      </trkpt>
      <trkpt lat="43.3036679215729236602783203125" lon="-2.06549338996410369873046875">
        <ele>224.600006103515625</ele>
        <time>2018-09-02T10:36:14.000Z</time>
      </trkpt>
      <trkpt lat="43.30366197042167186737060546875" lon="-2.065519876778125762939453125">
        <ele>224.8000030517578125</ele>
        <time>2018-09-02T10:36:15.000Z</time>
      </trkpt>
      <trkpt lat="43.3036447875201702117919921875" lon="-2.0655730180442333221435546875">
        <ele>225.1999969482421875</ele>
        <time>2018-09-02T10:36:17.000Z</time>
      </trkpt>
      <trkpt lat="43.3036328852176666259765625" lon="-2.0656172744929790496826171875">
        <ele>225.8000030517578125</ele>
        <time>2018-09-02T10:36:19.000Z</time>
      </trkpt>
      <trkpt lat="43.30362550914287567138671875" lon="-2.065641582012176513671875">
        <ele>226</ele>
        <time>2018-09-02T10:36:20.000Z</time>
      </trkpt>
      <trkpt lat="43.3036142773926258087158203125" lon="-2.0656943880021572113037109375">
        <ele>226.399993896484375</ele>
        <time>2018-09-02T10:36:22.000Z</time>
      </trkpt>
      <trkpt lat="43.3035931549966335296630859375" lon="-2.06576555036008358001708984375">
        <ele>227</ele>
        <time>2018-09-02T10:36:25.000Z</time>
      </trkpt>
      <trkpt lat="43.303550072014331817626953125" lon="-2.0658814720809459686279296875">
        <ele>227.399993896484375</ele>
        <time>2018-09-02T10:36:30.000Z</time>
      </trkpt>
      <trkpt lat="43.30352232791483402252197265625" lon="-2.0659622736275196075439453125">
        <ele>227.399993896484375</ele>
        <time>2018-09-02T10:36:33.000Z</time>
      </trkpt>
      <trkpt lat="43.30349215306341648101806640625" lon="-2.06603393889963626861572265625">
        <ele>227.1999969482421875</ele>
        <time>2018-09-02T10:36:35.000Z</time>
      </trkpt>
      <trkpt lat="43.3034660853445529937744140625" lon="-2.06613116897642612457275390625">
        <ele>226.600006103515625</ele>
        <time>2018-09-02T10:36:37.000Z</time>
      </trkpt>
      <trkpt lat="43.303428702056407928466796875" lon="-2.06625639460980892181396484375">
        <ele>227.600006103515625</ele>
        <time>2018-09-02T10:36:41.000Z</time>
      </trkpt>
      <trkpt lat="43.30341227352619171142578125" lon="-2.066300399601459503173828125">
        <ele>228.1999969482421875</ele>
        <time>2018-09-02T10:36:43.000Z</time>
      </trkpt>
      <trkpt lat="43.30337983556091785430908203125" lon="-2.0663998089730739593505859375">
        <ele>229.399993896484375</ele>
        <time>2018-09-02T10:36:48.000Z</time>
      </trkpt>
      <trkpt lat="43.303371034562587738037109375" lon="-2.06642118282616138458251953125">
        <ele>229.8000030517578125</ele>
        <time>2018-09-02T10:36:49.000Z</time>
      </trkpt>
      <trkpt lat="43.30332686193287372589111328125" lon="-2.06652897410094738006591796875">
        <ele>230.600006103515625</ele>
        <time>2018-09-02T10:36:54.000Z</time>
      </trkpt>
      <trkpt lat="43.30329517833888530731201171875" lon="-2.06661916337907314300537109375">
        <ele>231.8000030517578125</ele>
        <time>2018-09-02T10:36:58.000Z</time>
      </trkpt>
      <trkpt lat="43.30326483584940433502197265625" lon="-2.0666908286511898040771484375">
        <ele>232.8000030517578125</ele>
        <time>2018-09-02T10:37:01.000Z</time>
      </trkpt>
      <trkpt lat="43.30324471928179264068603515625" lon="-2.06674522720277309417724609375">
        <ele>232.8000030517578125</ele>
        <time>2018-09-02T10:37:03.000Z</time>
      </trkpt>
      <trkpt lat="43.3031670190393924713134765625" lon="-2.06695578061044216156005859375">
        <ele>232.600006103515625</ele>
        <time>2018-09-02T10:37:09.000Z</time>
      </trkpt>
      <trkpt lat="43.30305880866944789886474609375" lon="-2.06724026240408420562744140625">
        <ele>232.8000030517578125</ele>
        <time>2018-09-02T10:37:15.000Z</time>
      </trkpt>
      <trkpt lat="43.3030161447823047637939453125" lon="-2.06733313389122486114501953125">
        <ele>233</ele>
        <time>2018-09-02T10:37:17.000Z</time>
      </trkpt>
      <trkpt lat="43.30295017920434474945068359375" lon="-2.0675032027065753936767578125">
        <ele>233.600006103515625</ele>
        <time>2018-09-02T10:37:21.000Z</time>
      </trkpt>
      <trkpt lat="43.3028790168464183807373046875" lon="-2.0676822401583194732666015625">
        <ele>234.1999969482421875</ele>
        <time>2018-09-02T10:37:26.000Z</time>
      </trkpt>
      <trkpt lat="43.30287071876227855682373046875" lon="-2.06772037781774997711181640625">
        <ele>234.600006103515625</ele>
        <time>2018-09-02T10:37:27.000Z</time>
      </trkpt>
      <trkpt lat="43.30284456722438335418701171875" lon="-2.067834623157978057861328125">
        <ele>235</ele>
        <time>2018-09-02T10:37:30.000Z</time>
      </trkpt>
      <trkpt lat="43.30283165909349918365478515625" lon="-2.06785616464912891387939453125">
        <ele>235</ele>
        <time>2018-09-02T10:37:31.000Z</time>
      </trkpt>
      <trkpt lat="43.3028190024197101593017578125" lon="-2.06788147799670696258544921875">
        <ele>235</ele>
        <time>2018-09-02T10:37:32.000Z</time>
      </trkpt>
      <trkpt lat="43.30280475318431854248046875" lon="-2.0679132454097270965576171875">
        <ele>235.1999969482421875</ele>
        <time>2018-09-02T10:37:33.000Z</time>
      </trkpt>
      <trkpt lat="43.30276359803974628448486328125" lon="-2.06801441498100757598876953125">
        <ele>235.399993896484375</ele>
        <time>2018-09-02T10:37:36.000Z</time>
      </trkpt>
      <trkpt lat="43.30274708569049835205078125" lon="-2.06806319765746593475341796875">
        <ele>235.600006103515625</ele>
        <time>2018-09-02T10:37:37.000Z</time>
      </trkpt>
      <trkpt lat="43.30271330662071704864501953125" lon="-2.06820904277265071868896484375">
        <ele>235.1999969482421875</ele>
        <time>2018-09-02T10:37:40.000Z</time>
      </trkpt>
      <trkpt lat="43.3027066849172115325927734375" lon="-2.068323455750942230224609375">
        <ele>234.8000030517578125</ele>
        <time>2018-09-02T10:37:42.000Z</time>
      </trkpt>
      <trkpt lat="43.30271531827747821807861328125" lon="-2.0683801174163818359375">
        <ele>234.399993896484375</ele>
        <time>2018-09-02T10:37:43.000Z</time>
      </trkpt>
      <trkpt lat="43.3027217723429203033447265625" lon="-2.0684470050036907196044921875">
        <ele>234.1999969482421875</ele>
        <time>2018-09-02T10:37:44.000Z</time>
      </trkpt>
      <trkpt lat="43.3027063496410846710205078125" lon="-2.06861455924808979034423828125">
        <ele>233</ele>
        <time>2018-09-02T10:37:47.000Z</time>
      </trkpt>
      <trkpt lat="43.302613310515880584716796875" lon="-2.06894405186176300048828125">
        <ele>232.8000030517578125</ele>
        <time>2018-09-02T10:37:53.000Z</time>
      </trkpt>
      <trkpt lat="43.30257299356162548065185546875" lon="-2.06908428110182285308837890625">
        <ele>233.600006103515625</ele>
        <time>2018-09-02T10:37:56.000Z</time>
      </trkpt>
      <trkpt lat="43.30253242515027523040771484375" lon="-2.06922090612351894378662109375">
        <ele>233.399993896484375</ele>
        <time>2018-09-02T10:37:59.000Z</time>
      </trkpt>
      <trkpt lat="43.30251800827682018280029296875" lon="-2.06936507485806941986083984375">
        <ele>233.8000030517578125</ele>
        <time>2018-09-02T10:38:03.000Z</time>
      </trkpt>
      <trkpt lat="43.30251130275428295135498046875" lon="-2.06939307041466236114501953125">
        <ele>233.8000030517578125</ele>
        <time>2018-09-02T10:38:04.000Z</time>
      </trkpt>
      <trkpt lat="43.30249487422406673431396484375" lon="-2.06948778592050075531005859375">
        <ele>234</ele>
        <time>2018-09-02T10:38:07.000Z</time>
      </trkpt>
      <trkpt lat="43.30247861333191394805908203125" lon="-2.069535814225673675537109375">
        <ele>234</ele>
        <time>2018-09-02T10:38:09.000Z</time>
      </trkpt>
      <trkpt lat="43.30245740711688995361328125" lon="-2.06959406845271587371826171875">
        <ele>233.8000030517578125</ele>
        <time>2018-09-02T10:38:11.000Z</time>
      </trkpt>
      <trkpt lat="43.302438966929912567138671875" lon="-2.06961996853351593017578125">
        <ele>233.399993896484375</ele>
        <time>2018-09-02T10:38:12.000Z</time>
      </trkpt>
      <trkpt lat="43.3024200238287448883056640625" lon="-2.069644443690776824951171875">
        <ele>232.600006103515625</ele>
        <time>2018-09-02T10:38:13.000Z</time>
      </trkpt>
      <trkpt lat="43.30237937159836292266845703125" lon="-2.06974008120596408843994140625">
        <ele>231.1999969482421875</ele>
        <time>2018-09-02T10:38:16.000Z</time>
      </trkpt>
      <trkpt lat="43.30236378125846385955810546875" lon="-2.0697981677949428558349609375">
        <ele>230.600006103515625</ele>
        <time>2018-09-02T10:38:18.000Z</time>
      </trkpt>
      <trkpt lat="43.302338384091854095458984375" lon="-2.0698558352887630462646484375">
        <ele>230.1999969482421875</ele>
        <time>2018-09-02T10:38:20.000Z</time>
      </trkpt>
      <trkpt lat="43.30232203938066959381103515625" lon="-2.0698930509388446807861328125">
        <ele>230</ele>
        <time>2018-09-02T10:38:21.000Z</time>
      </trkpt>
      <trkpt lat="43.30230410210788249969482421875" lon="-2.06994719803333282470703125">
        <ele>228.8000030517578125</ele>
        <time>2018-09-02T10:38:23.000Z</time>
      </trkpt>
      <trkpt lat="43.3022741787135601043701171875" lon="-2.07005138508975505828857421875">
        <ele>227.600006103515625</ele>
        <time>2018-09-02T10:38:26.000Z</time>
      </trkpt>
      <trkpt lat="43.30222799442708492279052734375" lon="-2.07017309032380580902099609375">
        <ele>226.600006103515625</ele>
        <time>2018-09-02T10:38:29.000Z</time>
      </trkpt>
      <trkpt lat="43.30220930278301239013671875" lon="-2.07021550275385379791259765625">
        <ele>226</ele>
        <time>2018-09-02T10:38:30.000Z</time>
      </trkpt>
      <trkpt lat="43.302186839282512664794921875" lon="-2.07025590352714061737060546875">
        <ele>225.600006103515625</ele>
        <time>2018-09-02T10:38:31.000Z</time>
      </trkpt>
      <trkpt lat="43.30214920453727245330810546875" lon="-2.070304937660694122314453125">
        <ele>224.600006103515625</ele>
        <time>2018-09-02T10:38:33.000Z</time>
      </trkpt>
      <trkpt lat="43.3021085523068904876708984375" lon="-2.07033771090209484100341796875">
        <ele>223.399993896484375</ele>
        <time>2018-09-02T10:38:35.000Z</time>
      </trkpt>
      <trkpt lat="43.30206974409520626068115234375" lon="-2.0703641138970851898193359375">
        <ele>222.1999969482421875</ele>
        <time>2018-09-02T10:38:37.000Z</time>
      </trkpt>
      <trkpt lat="43.30205935053527355194091796875" lon="-2.0703919418156147003173828125">
        <ele>221.8000030517578125</ele>
        <time>2018-09-02T10:38:38.000Z</time>
      </trkpt>
      <trkpt lat="43.30206178128719329833984375" lon="-2.0704120583832263946533203125">
        <ele>221.8000030517578125</ele>
        <time>2018-09-02T10:38:39.000Z</time>
      </trkpt>
      <trkpt lat="43.30206605605781078338623046875" lon="-2.07046754658222198486328125">
        <ele>221</ele>
        <time>2018-09-02T10:38:41.000Z</time>
      </trkpt>
      <trkpt lat="43.30208768136799335479736328125" lon="-2.07050987519323825836181640625">
        <ele>220.399993896484375</ele>
        <time>2018-09-02T10:38:43.000Z</time>
      </trkpt>
      <trkpt lat="43.30210042186081409454345703125" lon="-2.070531584322452545166015625">
        <ele>220.1999969482421875</ele>
        <time>2018-09-02T10:38:44.000Z</time>
      </trkpt>
      <trkpt lat="43.30212347209453582763671875" lon="-2.0705475099384784698486328125">
        <ele>219.600006103515625</ele>
        <time>2018-09-02T10:38:45.000Z</time>
      </trkpt>
      <trkpt lat="43.30217175185680389404296875" lon="-2.07059117965400218963623046875">
        <ele>219.1999969482421875</ele>
        <time>2018-09-02T10:38:48.000Z</time>
      </trkpt>
      <trkpt lat="43.30219379626214504241943359375" lon="-2.07064549438655376434326171875">
        <ele>218.8000030517578125</ele>
        <time>2018-09-02T10:38:50.000Z</time>
      </trkpt>
      <trkpt lat="43.30222883261740207672119140625" lon="-2.07070299424231052398681640625">
        <ele>218.600006103515625</ele>
        <time>2018-09-02T10:38:52.000Z</time>
      </trkpt>
      <trkpt lat="43.3023405633866786956787109375" lon="-2.0708425529301166534423828125">
        <ele>219.8000030517578125</ele>
        <time>2018-09-02T10:38:58.000Z</time>
      </trkpt>
      <trkpt lat="43.302361853420734405517578125" lon="-2.07086107693612575531005859375">
        <ele>219.8000030517578125</ele>
        <time>2018-09-02T10:38:59.000Z</time>
      </trkpt>
      <trkpt lat="43.3024163357913494110107421875" lon="-2.0709263719618320465087890625">
        <ele>218.399993896484375</ele>
        <time>2018-09-02T10:39:04.000Z</time>
      </trkpt>
      <trkpt lat="43.302455060184001922607421875" lon="-2.07099988125264644622802734375">
        <ele>217.399993896484375</ele>
        <time>2018-09-02T10:39:07.000Z</time>
      </trkpt>
      <trkpt lat="43.30250660888850688934326171875" lon="-2.07106760703027248382568359375">
        <ele>216.399993896484375</ele>
        <time>2018-09-02T10:39:09.000Z</time>
      </trkpt>
      <trkpt lat="43.3025242947041988372802734375" lon="-2.07110323011875152587890625">
        <ele>216</ele>
        <time>2018-09-02T10:39:10.000Z</time>
      </trkpt>
      <trkpt lat="43.3025491051375865936279296875" lon="-2.071167938411235809326171875">
        <ele>215.399993896484375</ele>
        <time>2018-09-02T10:39:12.000Z</time>
      </trkpt>
      <trkpt lat="43.30255170352756977081298828125" lon="-2.071236334741115570068359375">
        <ele>215.1999969482421875</ele>
        <time>2018-09-02T10:39:14.000Z</time>
      </trkpt>
      <trkpt lat="43.30254935659468173980712890625" lon="-2.07130967639386653900146484375">
        <ele>215.399993896484375</ele>
        <time>2018-09-02T10:39:16.000Z</time>
      </trkpt>
      <trkpt lat="43.30255069769918918609619140625" lon="-2.071540765464305877685546875">
        <ele>216.600006103515625</ele>
        <time>2018-09-02T10:39:23.000Z</time>
      </trkpt>
      <trkpt lat="43.30253259278833866119384765625" lon="-2.0716609619557857513427734375">
        <ele>217.1999969482421875</ele>
        <time>2018-09-02T10:39:26.000Z</time>
      </trkpt>
      <trkpt lat="43.30251398496329784393310546875" lon="-2.0717420987784862518310546875">
        <ele>217.600006103515625</ele>
        <time>2018-09-02T10:39:28.000Z</time>
      </trkpt>
      <trkpt lat="43.302497304975986480712890625" lon="-2.07186824642121791839599609375">
        <ele>218.1999969482421875</ele>
        <time>2018-09-02T10:39:31.000Z</time>
      </trkpt>
      <trkpt lat="43.3024602569639682769775390625" lon="-2.07200436852872371673583984375">
        <ele>219</ele>
        <time>2018-09-02T10:39:35.000Z</time>
      </trkpt>
      <trkpt lat="43.30244625918567180633544921875" lon="-2.07207025028765201568603515625">
        <ele>219.399993896484375</ele>
        <time>2018-09-02T10:39:37.000Z</time>
      </trkpt>
      <trkpt lat="43.302409462630748748779296875" lon="-2.07220427691936492919921875">
        <ele>220</ele>
        <time>2018-09-02T10:39:41.000Z</time>
      </trkpt>
      <trkpt lat="43.3024029247462749481201171875" lon="-2.07224191166460514068603515625">
        <ele>220.1999969482421875</ele>
        <time>2018-09-02T10:39:42.000Z</time>
      </trkpt>
      <trkpt lat="43.3023875020444393157958984375" lon="-2.0723154209554195404052734375">
        <ele>220.399993896484375</ele>
        <time>2018-09-02T10:39:44.000Z</time>
      </trkpt>
      <trkpt lat="43.30237149260938167572021484375" lon="-2.0724476873874664306640625">
        <ele>220.1999969482421875</ele>
        <time>2018-09-02T10:39:48.000Z</time>
      </trkpt>
      <trkpt lat="43.30235204659402370452880859375" lon="-2.07258305512368679046630859375">
        <ele>219.8000030517578125</ele>
        <time>2018-09-02T10:39:53.000Z</time>
      </trkpt>
      <trkpt lat="43.3023895137012004852294921875" lon="-2.0727546326816082000732421875">
        <ele>219.8000030517578125</ele>
        <time>2018-09-02T10:39:59.000Z</time>
      </trkpt>
      <trkpt lat="43.30241004936397075653076171875" lon="-2.0727925188839435577392578125">
        <ele>220.399993896484375</ele>
        <time>2018-09-02T10:40:01.000Z</time>
      </trkpt>
      <trkpt lat="43.30244592390954494476318359375" lon="-2.07282663322985172271728515625">
        <ele>221</ele>
        <time>2018-09-02T10:40:03.000Z</time>
      </trkpt>
      <trkpt lat="43.3024921081960201263427734375" lon="-2.0729531161487102508544921875">
        <ele>221.600006103515625</ele>
        <time>2018-09-02T10:40:08.000Z</time>
      </trkpt>
      <trkpt lat="43.30243594944477081298828125" lon="-2.0730216801166534423828125">
        <ele>222.8000030517578125</ele>
        <time>2018-09-02T10:40:18.000Z</time>
      </trkpt>
      <trkpt lat="43.30241591669619083404541015625" lon="-2.07303383387625217437744140625">
        <ele>222.8000030517578125</ele>
        <time>2018-09-02T10:40:19.000Z</time>
      </trkpt>
      <trkpt lat="43.3022986538708209991455078125" lon="-2.07310172729194164276123046875">
        <ele>223.1999969482421875</ele>
        <time>2018-09-02T10:40:25.000Z</time>
      </trkpt>
      <trkpt lat="43.302198909223079681396484375" lon="-2.0731482468545436859130859375">
        <ele>223.8000030517578125</ele>
        <time>2018-09-02T10:40:30.000Z</time>
      </trkpt>
      <trkpt lat="43.30217787064611911773681640625" lon="-2.0731616578996181488037109375">
        <ele>223.8000030517578125</ele>
        <time>2018-09-02T10:40:31.000Z</time>
      </trkpt>
      <trkpt lat="43.302155323326587677001953125" lon="-2.073164843022823333740234375">
        <ele>223.8000030517578125</ele>
        <time>2018-09-02T10:40:32.000Z</time>
      </trkpt>
      <trkpt lat="43.302062116563320159912109375" lon="-2.07317515276372432708740234375">
        <ele>225</ele>
        <time>2018-09-02T10:40:38.000Z</time>
      </trkpt>
      <trkpt lat="43.302000425755977630615234375" lon="-2.07317213527858257293701171875">
        <ele>226.1999969482421875</ele>
        <time>2018-09-02T10:40:43.000Z</time>
      </trkpt>
      <trkpt lat="43.3019851706922054290771484375" lon="-2.073178589344024658203125">
        <ele>226.399993896484375</ele>
        <time>2018-09-02T10:40:44.000Z</time>
      </trkpt>
      <trkpt lat="43.30194770358502864837646484375" lon="-2.0732320658862590789794921875">
        <ele>226.600006103515625</ele>
        <time>2018-09-02T10:40:48.000Z</time>
      </trkpt>
      <trkpt lat="43.30194552429020404815673828125" lon="-2.07325167953968048095703125">
        <ele>226.1999969482421875</ele>
        <time>2018-09-02T10:40:49.000Z</time>
      </trkpt>
      <trkpt lat="43.301964886486530303955078125" lon="-2.07331395708024501800537109375">
        <ele>225.1999969482421875</ele>
        <time>2018-09-02T10:40:51.000Z</time>
      </trkpt>
      <trkpt lat="43.3019779622554779052734375" lon="-2.07340188324451446533203125">
        <ele>223.600006103515625</ele>
        <time>2018-09-02T10:40:53.000Z</time>
      </trkpt>
      <trkpt lat="43.301976621150970458984375" lon="-2.07347354851663112640380859375">
        <ele>223.1999969482421875</ele>
        <time>2018-09-02T10:40:55.000Z</time>
      </trkpt>
      <trkpt lat="43.30198123119771480560302734375" lon="-2.07355317659676074981689453125">
        <ele>222.399993896484375</ele>
        <time>2018-09-02T10:40:57.000Z</time>
      </trkpt>
      <trkpt lat="43.30196647904813289642333984375" lon="-2.07369013689458370208740234375">
        <ele>221.600006103515625</ele>
        <time>2018-09-02T10:41:00.000Z</time>
      </trkpt>
      <trkpt lat="43.30195759423077106475830078125" lon="-2.07372969947755336761474609375">
        <ele>221.1999969482421875</ele>
        <time>2018-09-02T10:41:01.000Z</time>
      </trkpt>
      <trkpt lat="43.30194870941340923309326171875" lon="-2.07377144135534763336181640625">
        <ele>220</ele>
        <time>2018-09-02T10:41:02.000Z</time>
      </trkpt>
      <trkpt lat="43.30192440189421176910400390625" lon="-2.07386548630893230438232421875">
        <ele>218.600006103515625</ele>
        <time>2018-09-02T10:41:04.000Z</time>
      </trkpt>
      <trkpt lat="43.3018979988992214202880859375" lon="-2.07391954958438873291015625">
        <ele>217.399993896484375</ele>
        <time>2018-09-02T10:41:06.000Z</time>
      </trkpt>
      <trkpt lat="43.30189338885247707366943359375" lon="-2.07394234836101531982421875">
        <ele>217</ele>
        <time>2018-09-02T10:41:07.000Z</time>
      </trkpt>
      <trkpt lat="43.30187712796032428741455078125" lon="-2.0739944837987422943115234375">
        <ele>216.1999969482421875</ele>
        <time>2018-09-02T10:41:09.000Z</time>
      </trkpt>
      <trkpt lat="43.30186455510556697845458984375" lon="-2.07404552958905696868896484375">
        <ele>215.1999969482421875</ele>
        <time>2018-09-02T10:41:11.000Z</time>
      </trkpt>
      <trkpt lat="43.30185583792626857757568359375" lon="-2.0740850083529949188232421875">
        <ele>214.600006103515625</ele>
        <time>2018-09-02T10:41:13.000Z</time>
      </trkpt>
      <trkpt lat="43.3018584363162517547607421875" lon="-2.07410671748220920562744140625">
        <ele>214.1999969482421875</ele>
        <time>2018-09-02T10:41:14.000Z</time>
      </trkpt>
      <trkpt lat="43.3018540777266025543212890625" lon="-2.07415281794965267181396484375">
        <ele>213</ele>
        <time>2018-09-02T10:41:16.000Z</time>
      </trkpt>
      <trkpt lat="43.30181946046650409698486328125" lon="-2.0742191188037395477294921875">
        <ele>211.8000030517578125</ele>
        <time>2018-09-02T10:41:19.000Z</time>
      </trkpt>
      <trkpt lat="43.30181158147752285003662109375" lon="-2.0742355473339557647705078125">
        <ele>211.399993896484375</ele>
        <time>2018-09-02T10:41:20.000Z</time>
      </trkpt>
      <trkpt lat="43.30180437304079532623291015625" lon="-2.07426245324313640594482421875">
        <ele>211.1999969482421875</ele>
        <time>2018-09-02T10:41:21.000Z</time>
      </trkpt>
      <trkpt lat="43.30179221928119659423828125" lon="-2.074321545660495758056640625">
        <ele>210.8000030517578125</ele>
        <time>2018-09-02T10:41:23.000Z</time>
      </trkpt>
      <trkpt lat="43.30177838914096355438232421875" lon="-2.07438298501074314117431640625">
        <ele>210.1999969482421875</ele>
        <time>2018-09-02T10:41:25.000Z</time>
      </trkpt>
      <trkpt lat="43.3017685823142528533935546875" lon="-2.0744172669947147369384765625">
        <ele>209.399993896484375</ele>
        <time>2018-09-02T10:41:26.000Z</time>
      </trkpt>
      <trkpt lat="43.3017105795443058013916015625" lon="-2.0745396427810192108154296875">
        <ele>208.399993896484375</ele>
        <time>2018-09-02T10:41:30.000Z</time>
      </trkpt>
      <trkpt lat="43.30169809050858020782470703125" lon="-2.0745724998414516448974609375">
        <ele>208.1999969482421875</ele>
        <time>2018-09-02T10:41:31.000Z</time>
      </trkpt>
      <trkpt lat="43.30164201557636260986328125" lon="-2.07464919425547122955322265625">
        <ele>207.399993896484375</ele>
        <time>2018-09-02T10:41:35.000Z</time>
      </trkpt>
      <trkpt lat="43.30161913298070430755615234375" lon="-2.07466059364378452301025390625">
        <ele>207</ele>
        <time>2018-09-02T10:41:36.000Z</time>
      </trkpt>
      <trkpt lat="43.30157630145549774169921875" lon="-2.07467065192759037017822265625">
        <ele>206.1999969482421875</ele>
        <time>2018-09-02T10:41:38.000Z</time>
      </trkpt>
      <trkpt lat="43.30150790512561798095703125" lon="-2.07467517815530300140380859375">
        <ele>205</ele>
        <time>2018-09-02T10:41:42.000Z</time>
      </trkpt>
      <trkpt lat="43.30146943219006061553955078125" lon="-2.074674256145954132080078125">
        <ele>204.399993896484375</ele>
        <time>2018-09-02T10:41:46.000Z</time>
      </trkpt>
      <trkpt lat="43.301443867385387420654296875" lon="-2.07468708045780658721923828125">
        <ele>204.1999969482421875</ele>
        <time>2018-09-02T10:41:48.000Z</time>
      </trkpt>
      <trkpt lat="43.30142618156969547271728515625" lon="-2.0746918581426143646240234375">
        <ele>204</ele>
        <time>2018-09-02T10:41:49.000Z</time>
      </trkpt>
      <trkpt lat="43.3014048077166080474853515625" lon="-2.07469864748418331146240234375">
        <ele>203.600006103515625</ele>
        <time>2018-09-02T10:41:51.000Z</time>
      </trkpt>
      <trkpt lat="43.30135594122111797332763671875" lon="-2.07470837049186229705810546875">
        <ele>203</ele>
        <time>2018-09-02T10:41:54.000Z</time>
      </trkpt>
      <trkpt lat="43.3012898080050945281982421875" lon="-2.07471256144344806671142578125">
        <ele>202.600006103515625</ele>
        <time>2018-09-02T10:41:57.000Z</time>
      </trkpt>
      <trkpt lat="43.30114689655601978302001953125" lon="-2.07480392418801784515380859375">
        <ele>199.600006103515625</ele>
        <time>2018-09-02T10:42:21.000Z</time>
      </trkpt>
      <trkpt lat="43.3011355809867382049560546875" lon="-2.07481213845312595367431640625">
        <ele>199.600006103515625</ele>
        <time>2018-09-02T10:42:22.000Z</time>
      </trkpt>
      <trkpt lat="43.30110155045986175537109375" lon="-2.07483409903943538665771484375">
        <ele>199.1999969482421875</ele>
        <time>2018-09-02T10:42:25.000Z</time>
      </trkpt>
      <trkpt lat="43.30105938948690891265869140625" lon="-2.0749423094093799591064453125">
        <ele>197.600006103515625</ele>
        <time>2018-09-02T10:42:42.000Z</time>
      </trkpt>
      <trkpt lat="43.30105804838240146636962890625" lon="-2.07492881454527378082275390625">
        <ele>197.600006103515625</ele>
        <time>2018-09-02T10:42:43.000Z</time>
      </trkpt>
      <trkpt lat="43.30113281495869159698486328125" lon="-2.0752708800137042999267578125">
        <ele>198.399993896484375</ele>
        <time>2018-09-02T10:43:30.000Z</time>
      </trkpt>
      <trkpt lat="43.30113708972930908203125" lon="-2.0752936787903308868408203125">
        <ele>198.399993896484375</ele>
        <time>2018-09-02T10:43:31.000Z</time>
      </trkpt>
      <trkpt lat="43.30113516189157962799072265625" lon="-2.0753272064030170440673828125">
        <ele>198.1999969482421875</ele>
        <time>2018-09-02T10:43:33.000Z</time>
      </trkpt>
      <trkpt lat="43.3011305518448352813720703125" lon="-2.0753821916878223419189453125">
        <ele>198.399993896484375</ele>
        <time>2018-09-02T10:43:37.000Z</time>
      </trkpt>
      <trkpt lat="43.3010584674775600433349609375" lon="-2.07579282112419605255126953125">
        <ele>201.8000030517578125</ele>
        <time>2018-09-02T10:44:23.000Z</time>
      </trkpt>
      <trkpt lat="43.30105586908757686614990234375" lon="-2.075810171663761138916015625">
        <ele>201.8000030517578125</ele>
        <time>2018-09-02T10:44:24.000Z</time>
      </trkpt>
      <trkpt lat="43.301049582660198211669921875" lon="-2.07582886330783367156982421875">
        <ele>202</ele>
        <time>2018-09-02T10:44:25.000Z</time>
      </trkpt>
      <trkpt lat="43.30100054852664470672607421875" lon="-2.0759421028196811676025390625">
        <ele>202.8000030517578125</ele>
        <time>2018-09-02T10:44:31.000Z</time>
      </trkpt>
      <trkpt lat="43.300995938479900360107421875" lon="-2.0759649015963077545166015625">
        <ele>203.1999969482421875</ele>
        <time>2018-09-02T10:44:32.000Z</time>
      </trkpt>
      <trkpt lat="43.30097959376871585845947265625" lon="-2.07606489770114421844482421875">
        <ele>204</ele>
        <time>2018-09-02T10:44:38.000Z</time>
      </trkpt>
      <trkpt lat="43.3009820245206356048583984375" lon="-2.07608141005039215087890625">
        <ele>204.1999969482421875</ele>
        <time>2018-09-02T10:44:39.000Z</time>
      </trkpt>
      <trkpt lat="43.30096484161913394927978515625" lon="-2.07618392072618007659912109375">
        <ele>204.600006103515625</ele>
        <time>2018-09-02T10:44:44.000Z</time>
      </trkpt>
      <trkpt lat="43.30095863901078701019287109375" lon="-2.076222561299800872802734375">
        <ele>204.8000030517578125</ele>
        <time>2018-09-02T10:44:46.000Z</time>
      </trkpt>
      <trkpt lat="43.300959728658199310302734375" lon="-2.07624309696257114410400390625">
        <ele>205</ele>
        <time>2018-09-02T10:44:47.000Z</time>
      </trkpt>
      <trkpt lat="43.3009659312665462493896484375" lon="-2.076356671750545501708984375">
        <ele>206.1999969482421875</ele>
        <time>2018-09-02T10:44:53.000Z</time>
      </trkpt>
      <trkpt lat="43.3010204136371612548828125" lon="-2.076575271785259246826171875">
        <ele>209</ele>
        <time>2018-09-02T10:45:32.000Z</time>
      </trkpt>
      <trkpt lat="43.30101974308490753173828125" lon="-2.07659429870545864105224609375">
        <ele>209.1999969482421875</ele>
        <time>2018-09-02T10:45:33.000Z</time>
      </trkpt>
      <trkpt lat="43.301007337868213653564453125" lon="-2.0766931213438510894775390625">
        <ele>209.600006103515625</ele>
        <time>2018-09-02T10:45:37.000Z</time>
      </trkpt>
      <trkpt lat="43.30100507475435733795166015625" lon="-2.076789177954196929931640625">
        <ele>209.600006103515625</ele>
        <time>2018-09-02T10:45:40.000Z</time>
      </trkpt>
      <trkpt lat="43.301000632345676422119140625" lon="-2.0768510363996028900146484375">
        <ele>210.1999969482421875</ele>
        <time>2018-09-02T10:45:43.000Z</time>
      </trkpt>
      <trkpt lat="43.30097758211195468902587890625" lon="-2.07690996117889881134033203125">
        <ele>210.399993896484375</ele>
        <time>2018-09-02T10:45:45.000Z</time>
      </trkpt>
      <trkpt lat="43.30093081109225749969482421875" lon="-2.0770810358226299285888671875">
        <ele>210.399993896484375</ele>
        <time>2018-09-02T10:45:50.000Z</time>
      </trkpt>
      <trkpt lat="43.300860822200775146484375" lon="-2.07728211767971515655517578125">
        <ele>211</ele>
        <time>2018-09-02T10:45:56.000Z</time>
      </trkpt>
      <trkpt lat="43.30084783025085926055908203125" lon="-2.0773519389331340789794921875">
        <ele>211.1999969482421875</ele>
        <time>2018-09-02T10:45:58.000Z</time>
      </trkpt>
      <trkpt lat="43.300800807774066925048828125" lon="-2.0774615742266178131103515625">
        <ele>211.1999969482421875</ele>
        <time>2018-09-02T10:46:01.000Z</time>
      </trkpt>
      <trkpt lat="43.30075914971530437469482421875" lon="-2.07754732109606266021728515625">
        <ele>210.8000030517578125</ele>
        <time>2018-09-02T10:46:03.000Z</time>
      </trkpt>
      <trkpt lat="43.300721012055873870849609375" lon="-2.0776536874473094940185546875">
        <ele>210.399993896484375</ele>
        <time>2018-09-02T10:46:05.000Z</time>
      </trkpt>
      <trkpt lat="43.30070114694535732269287109375" lon="-2.07769987173378467559814453125">
        <ele>210.1999969482421875</ele>
        <time>2018-09-02T10:46:06.000Z</time>
      </trkpt>
      <trkpt lat="43.3006770908832550048828125" lon="-2.07773641683161258697509765625">
        <ele>210</ele>
        <time>2018-09-02T10:46:07.000Z</time>
      </trkpt>
      <trkpt lat="43.3006273023784160614013671875" lon="-2.077860720455646514892578125">
        <ele>209.1999969482421875</ele>
        <time>2018-09-02T10:46:11.000Z</time>
      </trkpt>
      <trkpt lat="43.300620429217815399169921875" lon="-2.07789332605898380279541015625">
        <ele>208.8000030517578125</ele>
        <time>2018-09-02T10:46:12.000Z</time>
      </trkpt>
      <trkpt lat="43.30060458742082118988037109375" lon="-2.07795853726565837860107421875">
        <ele>207.8000030517578125</ele>
        <time>2018-09-02T10:46:14.000Z</time>
      </trkpt>
      <trkpt lat="43.30056971870362758636474609375" lon="-2.07805912010371685028076171875">
        <ele>206.8000030517578125</ele>
        <time>2018-09-02T10:46:17.000Z</time>
      </trkpt>
      <trkpt lat="43.30052621662616729736328125" lon="-2.0781232416629791259765625">
        <ele>206</ele>
        <time>2018-09-02T10:46:19.000Z</time>
      </trkpt>
      <trkpt lat="43.30051188357174396514892578125" lon="-2.07814947701990604400634765625">
        <ele>205.600006103515625</ele>
        <time>2018-09-02T10:46:20.000Z</time>
      </trkpt>
      <trkpt lat="43.30051490105688571929931640625" lon="-2.07824285142123699188232421875">
        <ele>205</ele>
        <time>2018-09-02T10:46:23.000Z</time>
      </trkpt>
      <trkpt lat="43.30054541118443012237548828125" lon="-2.07828191109001636505126953125">
        <ele>204.399993896484375</ele>
        <time>2018-09-02T10:46:25.000Z</time>
      </trkpt>
      <trkpt lat="43.30058447085320949554443359375" lon="-2.0783165283501148223876953125">
        <ele>203.8000030517578125</ele>
        <time>2018-09-02T10:46:27.000Z</time>
      </trkpt>
      <trkpt lat="43.30062587745487689971923828125" lon="-2.07834226079285144805908203125">
        <ele>203.1999969482421875</ele>
        <time>2018-09-02T10:46:29.000Z</time>
      </trkpt>
      <trkpt lat="43.3006708882749080657958984375" lon="-2.07836070097982883453369140625">
        <ele>203</ele>
        <time>2018-09-02T10:46:31.000Z</time>
      </trkpt>
      <trkpt lat="43.30069159157574176788330078125" lon="-2.07837469875812530517578125">
        <ele>202.8000030517578125</ele>
        <time>2018-09-02T10:46:32.000Z</time>
      </trkpt>
      <trkpt lat="43.3007516898214817047119140625" lon="-2.0784600265324115753173828125">
        <ele>202.399993896484375</ele>
        <time>2018-09-02T10:46:35.000Z</time>
      </trkpt>
      <trkpt lat="43.30079116858541965484619140625" lon="-2.0785126648843288421630859375">
        <ele>202.1999969482421875</ele>
        <time>2018-09-02T10:46:37.000Z</time>
      </trkpt>
      <trkpt lat="43.30081195570528507232666015625" lon="-2.07853688858449459075927734375">
        <ele>202.1999969482421875</ele>
        <time>2018-09-02T10:46:38.000Z</time>
      </trkpt>
      <trkpt lat="43.3008928410708904266357421875" lon="-2.07863629795610904693603515625">
        <ele>201.600006103515625</ele>
        <time>2018-09-02T10:46:42.000Z</time>
      </trkpt>
      <trkpt lat="43.30089778639376163482666015625" lon="-2.07867301069200038909912109375">
        <ele>201.1999969482421875</ele>
        <time>2018-09-02T10:46:43.000Z</time>
      </trkpt>
      <trkpt lat="43.3008982054889202117919921875" lon="-2.078714668750762939453125">
        <ele>201.1999969482421875</ele>
        <time>2018-09-02T10:46:47.000Z</time>
      </trkpt>
      <trkpt lat="43.300874233245849609375" lon="-2.07876169122755527496337890625">
        <ele>201</ele>
        <time>2018-09-02T10:47:01.000Z</time>
      </trkpt>
      <trkpt lat="43.30084917135536670684814453125" lon="-2.07878314889967441558837890625">
        <ele>201.600006103515625</ele>
        <time>2018-09-02T10:47:03.000Z</time>
      </trkpt>
      <trkpt lat="43.30082536675035953521728515625" lon="-2.0788013376295566558837890625">
        <ele>202</ele>
        <time>2018-09-02T10:47:05.000Z</time>
      </trkpt>
      <trkpt lat="43.30079820938408374786376953125" lon="-2.078821957111358642578125">
        <ele>202.600006103515625</ele>
        <time>2018-09-02T10:47:07.000Z</time>
      </trkpt>
      <trkpt lat="43.30077373422682285308837890625" lon="-2.0788398943841457366943359375">
        <ele>203.1999969482421875</ele>
        <time>2018-09-02T10:47:09.000Z</time>
      </trkpt>
      <trkpt lat="43.30075948499143123626708984375" lon="-2.078850455582141876220703125">
        <ele>203.399993896484375</ele>
        <time>2018-09-02T10:47:10.000Z</time>
      </trkpt>
      <trkpt lat="43.30071321688592433929443359375" lon="-2.07886696793138980865478515625">
        <ele>204</ele>
        <time>2018-09-02T10:47:13.000Z</time>
      </trkpt>
      <trkpt lat="43.30068052746355533599853515625" lon="-2.07888021133840084075927734375">
        <ele>204.1999969482421875</ele>
        <time>2018-09-02T10:47:15.000Z</time>
      </trkpt>
      <trkpt lat="43.30064666457474231719970703125" lon="-2.07888993434607982635498046875">
        <ele>204.8000030517578125</ele>
        <time>2018-09-02T10:47:17.000Z</time>
      </trkpt>
      <trkpt lat="43.30059855245053768157958984375" lon="-2.0788932032883167266845703125">
        <ele>205.399993896484375</ele>
        <time>2018-09-02T10:47:20.000Z</time>
      </trkpt>
      <trkpt lat="43.300565779209136962890625" lon="-2.0789089612662792205810546875">
        <ele>205.600006103515625</ele>
        <time>2018-09-02T10:47:22.000Z</time>
      </trkpt>
      <trkpt lat="43.30051758326590061187744140625" lon="-2.0789364539086818695068359375">
        <ele>206.1999969482421875</ele>
        <time>2018-09-02T10:47:25.000Z</time>
      </trkpt>
      <trkpt lat="43.30050216056406497955322265625" lon="-2.07894525490701198577880859375">
        <ele>206.600006103515625</ele>
        <time>2018-09-02T10:47:26.000Z</time>
      </trkpt>
      <trkpt lat="43.300460167229175567626953125" lon="-2.07897073589265346527099609375">
        <ele>207</ele>
        <time>2018-09-02T10:47:29.000Z</time>
      </trkpt>
      <trkpt lat="43.300446085631847381591796875" lon="-2.0789770223200321197509765625">
        <ele>207.1999969482421875</ele>
        <time>2018-09-02T10:47:30.000Z</time>
      </trkpt>
      <trkpt lat="43.300395794212818145751953125" lon="-2.07902915775775909423828125">
        <ele>208</ele>
        <time>2018-09-02T10:47:34.000Z</time>
      </trkpt>
      <trkpt lat="43.30035723745822906494140625" lon="-2.07906863652169704437255859375">
        <ele>208.1999969482421875</ele>
        <time>2018-09-02T10:47:37.000Z</time>
      </trkpt>
      <trkpt lat="43.30030250363051891326904296875" lon="-2.07911239005625247955322265625">
        <ele>209</ele>
        <time>2018-09-02T10:47:41.000Z</time>
      </trkpt>
      <trkpt lat="43.3002665452659130096435546875" lon="-2.079142816364765167236328125">
        <ele>209.399993896484375</ele>
        <time>2018-09-02T10:47:44.000Z</time>
      </trkpt>
      <trkpt lat="43.3002293296158313751220703125" lon="-2.07918128930032253265380859375">
        <ele>210</ele>
        <time>2018-09-02T10:47:47.000Z</time>
      </trkpt>
      <trkpt lat="43.3001699857413768768310546875" lon="-2.07923660986125469207763671875">
        <ele>211.1999969482421875</ele>
        <time>2018-09-02T10:47:52.000Z</time>
      </trkpt>
      <trkpt lat="43.3001471869647502899169921875" lon="-2.07925379276275634765625">
        <ele>211.399993896484375</ele>
        <time>2018-09-02T10:47:54.000Z</time>
      </trkpt>
      <trkpt lat="43.30008004792034626007080078125" lon="-2.079311795532703399658203125">
        <ele>212.399993896484375</ele>
        <time>2018-09-02T10:47:59.000Z</time>
      </trkpt>
      <trkpt lat="43.30006579868495464324951171875" lon="-2.07931238226592540740966796875">
        <ele>212.399993896484375</ele>
        <time>2018-09-02T10:48:00.000Z</time>
      </trkpt>
      <trkpt lat="43.3000496216118335723876953125" lon="-2.07931992597877979278564453125">
        <ele>212.600006103515625</ele>
        <time>2018-09-02T10:48:01.000Z</time>
      </trkpt>
      <trkpt lat="43.29998231492936611175537109375" lon="-2.07936602644622325897216796875">
        <ele>213.399993896484375</ele>
        <time>2018-09-02T10:48:06.000Z</time>
      </trkpt>
      <trkpt lat="43.299965299665927886962890625" lon="-2.07937248051166534423828125">
        <ele>213.600006103515625</ele>
        <time>2018-09-02T10:48:07.000Z</time>
      </trkpt>
      <trkpt lat="43.29983554780483245849609375" lon="-2.07940064370632171630859375">
        <ele>214.1999969482421875</ele>
        <time>2018-09-02T10:48:14.000Z</time>
      </trkpt>
      <trkpt lat="43.29979422502219676971435546875" lon="-2.07940123043954372406005859375">
        <ele>214.399993896484375</ele>
        <time>2018-09-02T10:48:16.000Z</time>
      </trkpt>
      <trkpt lat="43.29967000521719455718994140625" lon="-2.0793837122619152069091796875">
        <ele>214.399993896484375</ele>
        <time>2018-09-02T10:48:21.000Z</time>
      </trkpt>
      <trkpt lat="43.2995725236833095550537109375" lon="-2.079364769160747528076171875">
        <ele>214.399993896484375</ele>
        <time>2018-09-02T10:48:25.000Z</time>
      </trkpt>
      <trkpt lat="43.299487531185150146484375" lon="-2.07936150021851062774658203125">
        <ele>214.1999969482421875</ele>
        <time>2018-09-02T10:48:28.000Z</time>
      </trkpt>
      <trkpt lat="43.29937177710235118865966796875" lon="-2.07939703948795795440673828125">
        <ele>214.399993896484375</ele>
        <time>2018-09-02T10:48:32.000Z</time>
      </trkpt>
      <trkpt lat="43.29930556006729602813720703125" lon="-2.07945562899112701416015625">
        <ele>214.8000030517578125</ele>
        <time>2018-09-02T10:48:35.000Z</time>
      </trkpt>
      <trkpt lat="43.29924546182155609130859375" lon="-2.0795570500195026397705078125">
        <ele>215.1999969482421875</ele>
        <time>2018-09-02T10:48:39.000Z</time>
      </trkpt>
      <trkpt lat="43.29923816956579685211181640625" lon="-2.07960943691432476043701171875">
        <ele>215.399993896484375</ele>
        <time>2018-09-02T10:48:41.000Z</time>
      </trkpt>
      <trkpt lat="43.29924009740352630615234375" lon="-2.0796355046331882476806640625">
        <ele>215.399993896484375</ele>
        <time>2018-09-02T10:48:42.000Z</time>
      </trkpt>
      <trkpt lat="43.29924638383090496063232421875" lon="-2.07966542802751064300537109375">
        <ele>215.600006103515625</ele>
        <time>2018-09-02T10:48:43.000Z</time>
      </trkpt>
      <trkpt lat="43.2992858625948429107666015625" lon="-2.07976466976106166839599609375">
        <ele>215.8000030517578125</ele>
        <time>2018-09-02T10:48:47.000Z</time>
      </trkpt>
      <trkpt lat="43.2993252575397491455078125" lon="-2.07982602529227733612060546875">
        <ele>216.600006103515625</ele>
        <time>2018-09-02T10:48:50.000Z</time>
      </trkpt>
      <trkpt lat="43.29939776100218296051025390625" lon="-2.07990129478275775909423828125">
        <ele>217.600006103515625</ele>
        <time>2018-09-02T10:48:54.000Z</time>
      </trkpt>
      <trkpt lat="43.29941854812204837799072265625" lon="-2.07992359064519405364990234375">
        <ele>218</ele>
        <time>2018-09-02T10:48:55.000Z</time>
      </trkpt>
      <trkpt lat="43.2994511537253856658935546875" lon="-2.079966925084590911865234375">
        <ele>218.1999969482421875</ele>
        <time>2018-09-02T10:48:57.000Z</time>
      </trkpt>
      <trkpt lat="43.299503289163112640380859375" lon="-2.0800257660448551177978515625">
        <ele>218.600006103515625</ele>
        <time>2018-09-02T10:49:00.000Z</time>
      </trkpt>
      <trkpt lat="43.29955919645726680755615234375" lon="-2.08007563836872577667236328125">
        <ele>219</ele>
        <time>2018-09-02T10:49:03.000Z</time>
      </trkpt>
      <trkpt lat="43.29963505268096923828125" lon="-2.08014369942247867584228515625">
        <ele>220</ele>
        <time>2018-09-02T10:49:07.000Z</time>
      </trkpt>
      <trkpt lat="43.299742005765438079833984375" lon="-2.080265320837497711181640625">
        <ele>220.8000030517578125</ele>
        <time>2018-09-02T10:49:13.000Z</time>
      </trkpt>
      <trkpt lat="43.2997720129787921905517578125" lon="-2.080313600599765777587890625">
        <ele>221.1999969482421875</ele>
        <time>2018-09-02T10:49:15.000Z</time>
      </trkpt>
      <trkpt lat="43.29983823001384735107421875" lon="-2.080434970557689666748046875">
        <ele>221.1999969482421875</ele>
        <time>2018-09-02T10:49:19.000Z</time>
      </trkpt>
      <trkpt lat="43.29995892941951751708984375" lon="-2.08056346513330936431884765625">
        <ele>221.8000030517578125</ele>
        <time>2018-09-02T10:49:25.000Z</time>
      </trkpt>
      <trkpt lat="43.29999421723186969757080078125" lon="-2.08059045486152172088623046875">
        <ele>222.1999969482421875</ele>
        <time>2018-09-02T10:49:27.000Z</time>
      </trkpt>
      <trkpt lat="43.3000633679330348968505859375" lon="-2.0806346274912357330322265625">
        <ele>222.8000030517578125</ele>
        <time>2018-09-02T10:49:31.000Z</time>
      </trkpt>
      <trkpt lat="43.3001317642629146575927734375" lon="-2.08067259751260280609130859375">
        <ele>223.399993896484375</ele>
        <time>2018-09-02T10:49:35.000Z</time>
      </trkpt>
      <trkpt lat="43.30018331296741962432861328125" lon="-2.080703862011432647705078125">
        <ele>224.399993896484375</ele>
        <time>2018-09-02T10:49:38.000Z</time>
      </trkpt>
      <trkpt lat="43.3002028428018093109130859375" lon="-2.08071735687553882598876953125">
        <ele>224.600006103515625</ele>
        <time>2018-09-02T10:49:39.000Z</time>
      </trkpt>
      <trkpt lat="43.300263024866580963134765625" lon="-2.08078793250024318695068359375">
        <ele>225.600006103515625</ele>
        <time>2018-09-02T10:49:43.000Z</time>
      </trkpt>
      <trkpt lat="43.300273083150386810302734375" lon="-2.080811150372028350830078125">
        <ele>225.8000030517578125</ele>
        <time>2018-09-02T10:49:44.000Z</time>
      </trkpt>
      <trkpt lat="43.30025455914437770843505859375" lon="-2.0808981545269489288330078125">
        <ele>226.1999969482421875</ele>
        <time>2018-09-02T10:49:48.000Z</time>
      </trkpt>
      <trkpt lat="43.30023829825222492218017578125" lon="-2.08090662024915218353271484375">
        <ele>226.399993896484375</ele>
        <time>2018-09-02T10:49:49.000Z</time>
      </trkpt>
      <trkpt lat="43.3002085424959659576416015625" lon="-2.08092019893229007720947265625">
        <ele>226.8000030517578125</ele>
        <time>2018-09-02T10:49:51.000Z</time>
      </trkpt>
      <trkpt lat="43.30019387416541576385498046875" lon="-2.080911062657833099365234375">
        <ele>226.8000030517578125</ele>
        <time>2018-09-02T10:49:52.000Z</time>
      </trkpt>
      <trkpt lat="43.30017895437777042388916015625" lon="-2.08090058527886867523193359375">
        <ele>227</ele>
        <time>2018-09-02T10:49:53.000Z</time>
      </trkpt>
      <trkpt lat="43.30013201572000980377197265625" lon="-2.08089840598404407501220703125">
        <ele>227.8000030517578125</ele>
        <time>2018-09-02T10:49:56.000Z</time>
      </trkpt>
      <trkpt lat="43.30008490942418575286865234375" lon="-2.08090527914464473724365234375">
        <ele>228.1999969482421875</ele>
        <time>2018-09-02T10:49:59.000Z</time>
      </trkpt>
      <trkpt lat="43.30002573318779468536376953125" lon="-2.08093486726284027099609375">
        <ele>228.8000030517578125</ele>
        <time>2018-09-02T10:50:03.000Z</time>
      </trkpt>
      <trkpt lat="43.29999379813671112060546875" lon="-2.08095624111592769622802734375">
        <ele>229.1999969482421875</ele>
        <time>2018-09-02T10:50:05.000Z</time>
      </trkpt>
      <trkpt lat="43.29994308762252330780029296875" lon="-2.08102346397936344146728515625">
        <ele>230</ele>
        <time>2018-09-02T10:50:09.000Z</time>
      </trkpt>
      <trkpt lat="43.2999021001160144805908203125" lon="-2.08106763660907745361328125">
        <ele>230.399993896484375</ele>
        <time>2018-09-02T10:50:12.000Z</time>
      </trkpt>
      <trkpt lat="43.29986161552369594573974609375" lon="-2.08112723194062709808349609375">
        <ele>231.1999969482421875</ele>
        <time>2018-09-02T10:50:15.000Z</time>
      </trkpt>
      <trkpt lat="43.299811072647571563720703125" lon="-2.08120199851691722869873046875">
        <ele>232</ele>
        <time>2018-09-02T10:50:19.000Z</time>
      </trkpt>
      <trkpt lat="43.29979724250733852386474609375" lon="-2.08121909759938716888427734375">
        <ele>232.1999969482421875</ele>
        <time>2018-09-02T10:50:20.000Z</time>
      </trkpt>
      <trkpt lat="43.29971426166594028472900390625" lon="-2.0813561417162418365478515625">
        <ele>232.8000030517578125</ele>
        <time>2018-09-02T10:50:27.000Z</time>
      </trkpt>
      <trkpt lat="43.29964368604123592376708984375" lon="-2.0814781822264194488525390625">
        <ele>232.8000030517578125</ele>
        <time>2018-09-02T10:50:32.000Z</time>
      </trkpt>
      <trkpt lat="43.29959993250668048858642578125" lon="-2.08155320025980472564697265625">
        <ele>233.1999969482421875</ele>
        <time>2018-09-02T10:50:35.000Z</time>
      </trkpt>
      <trkpt lat="43.299524746835231781005859375" lon="-2.081635259091854095458984375">
        <ele>233</ele>
        <time>2018-09-02T10:50:38.000Z</time>
      </trkpt>
      <trkpt lat="43.2994781434535980224609375" lon="-2.0816917531192302703857421875">
        <ele>232.8000030517578125</ele>
        <time>2018-09-02T10:50:40.000Z</time>
      </trkpt>
      <trkpt lat="43.2994437776505947113037109375" lon="-2.081756293773651123046875">
        <ele>232.399993896484375</ele>
        <time>2018-09-02T10:50:42.000Z</time>
      </trkpt>
      <trkpt lat="43.29943229444324970245361328125" lon="-2.081778757274150848388671875">
        <ele>232.1999969482421875</ele>
        <time>2018-09-02T10:50:43.000Z</time>
      </trkpt>
      <trkpt lat="43.29942047595977783203125" lon="-2.08180516026914119720458984375">
        <ele>232</ele>
        <time>2018-09-02T10:50:44.000Z</time>
      </trkpt>
      <trkpt lat="43.29939373768866062164306640625" lon="-2.08185964263975620269775390625">
        <ele>231.8000030517578125</ele>
        <time>2018-09-02T10:50:46.000Z</time>
      </trkpt>
      <trkpt lat="43.299395330250263214111328125" lon="-2.081884033977985382080078125">
        <ele>231.600006103515625</ele>
        <time>2018-09-02T10:50:47.000Z</time>
      </trkpt>
      <trkpt lat="43.29936725087463855743408203125" lon="-2.08192954771220684051513671875">
        <ele>231.1999969482421875</ele>
        <time>2018-09-02T10:50:49.000Z</time>
      </trkpt>
      <trkpt lat="43.299334309995174407958984375" lon="-2.081981934607028961181640625">
        <ele>231</ele>
        <time>2018-09-02T10:50:51.000Z</time>
      </trkpt>
      <trkpt lat="43.29929198138415813446044921875" lon="-2.0820310525596141815185546875">
        <ele>230.1999969482421875</ele>
        <time>2018-09-02T10:50:53.000Z</time>
      </trkpt>
      <trkpt lat="43.29925979487597942352294921875" lon="-2.08206466399133205413818359375">
        <ele>229.8000030517578125</ele>
        <time>2018-09-02T10:50:54.000Z</time>
      </trkpt>
      <trkpt lat="43.2991869561374187469482421875" lon="-2.082159630954265594482421875">
        <ele>229</ele>
        <time>2018-09-02T10:50:56.000Z</time>
      </trkpt>
      <trkpt lat="43.2991618104279041290283203125" lon="-2.08221201784908771514892578125">
        <ele>229</ele>
        <time>2018-09-02T10:50:57.000Z</time>
      </trkpt>
      <trkpt lat="43.29912987537682056427001953125" lon="-2.08225308917462825775146484375">
        <ele>228.8000030517578125</ele>
        <time>2018-09-02T10:50:58.000Z</time>
      </trkpt>
      <trkpt lat="43.2990729622542858123779296875" lon="-2.08238854072988033294677734375">
        <ele>229</ele>
        <time>2018-09-02T10:51:01.000Z</time>
      </trkpt>
      <trkpt lat="43.29904429614543914794921875" lon="-2.08245609886944293975830078125">
        <ele>229.600006103515625</ele>
        <time>2018-09-02T10:51:03.000Z</time>
      </trkpt>
      <trkpt lat="43.2989780791103839874267578125" lon="-2.08257663063704967498779296875">
        <ele>230.1999969482421875</ele>
        <time>2018-09-02T10:51:07.000Z</time>
      </trkpt>
      <trkpt lat="43.2989599741995334625244140625" lon="-2.08259515464305877685546875">
        <ele>230.1999969482421875</ele>
        <time>2018-09-02T10:51:08.000Z</time>
      </trkpt>
      <trkpt lat="43.29890825785696506500244140625" lon="-2.08266891539096832275390625">
        <ele>229.600006103515625</ele>
        <time>2018-09-02T10:51:12.000Z</time>
      </trkpt>
      <trkpt lat="43.29889434389770030975341796875" lon="-2.08270688541233539581298828125">
        <ele>229.1999969482421875</ele>
        <time>2018-09-02T10:51:13.000Z</time>
      </trkpt>
      <trkpt lat="43.29888378269970417022705078125" lon="-2.082785256206989288330078125">
        <ele>228.8000030517578125</ele>
        <time>2018-09-02T10:51:15.000Z</time>
      </trkpt>
      <trkpt lat="43.2989090122282505035400390625" lon="-2.08283923566341400146484375">
        <ele>228.8000030517578125</ele>
        <time>2018-09-02T10:51:17.000Z</time>
      </trkpt>
      <trkpt lat="43.2989123649895191192626953125" lon="-2.0829109847545623779296875">
        <ele>229.600006103515625</ele>
        <time>2018-09-02T10:51:20.000Z</time>
      </trkpt>
      <trkpt lat="43.29889870248734951019287109375" lon="-2.08298902027308940887451171875">
        <ele>229.600006103515625</ele>
        <time>2018-09-02T10:51:23.000Z</time>
      </trkpt>
      <trkpt lat="43.29887925647199153900146484375" lon="-2.0831364579498767852783203125">
        <ele>230.399993896484375</ele>
        <time>2018-09-02T10:51:29.000Z</time>
      </trkpt>
      <trkpt lat="43.29886257648468017578125" lon="-2.083180211484432220458984375">
        <ele>230.399993896484375</ele>
        <time>2018-09-02T10:51:31.000Z</time>
      </trkpt>
      <trkpt lat="43.2988451421260833740234375" lon="-2.08322145044803619384765625">
        <ele>230.8000030517578125</ele>
        <time>2018-09-02T10:51:33.000Z</time>
      </trkpt>
      <trkpt lat="43.298835419118404388427734375" lon="-2.08326679654419422149658203125">
        <ele>231.1999969482421875</ele>
        <time>2018-09-02T10:51:35.000Z</time>
      </trkpt>
      <trkpt lat="43.29881588928401470184326171875" lon="-2.0833148248493671417236328125">
        <ele>231.600006103515625</ele>
        <time>2018-09-02T10:51:38.000Z</time>
      </trkpt>
      <trkpt lat="43.298797868192195892333984375" lon="-2.08334759809076786041259765625">
        <ele>232</ele>
        <time>2018-09-02T10:51:40.000Z</time>
      </trkpt>
      <trkpt lat="43.29878546297550201416015625" lon="-2.0833637751638889312744140625">
        <ele>232.1999969482421875</ele>
        <time>2018-09-02T10:51:41.000Z</time>
      </trkpt>
      <trkpt lat="43.29873659648001194000244140625" lon="-2.0834110490977764129638671875">
        <ele>233</ele>
        <time>2018-09-02T10:51:45.000Z</time>
      </trkpt>
      <trkpt lat="43.29869636334478855133056640625" lon="-2.08345480263233184814453125">
        <ele>233.399993896484375</ele>
        <time>2018-09-02T10:51:48.000Z</time>
      </trkpt>
      <trkpt lat="43.2986340858042240142822265625" lon="-2.08352076821029186248779296875">
        <ele>234</ele>
        <time>2018-09-02T10:51:52.000Z</time>
      </trkpt>
      <trkpt lat="43.29862360842525959014892578125" lon="-2.08354122005403041839599609375">
        <ele>234.1999969482421875</ele>
        <time>2018-09-02T10:51:53.000Z</time>
      </trkpt>
      <trkpt lat="43.2985586486756801605224609375" lon="-2.08371631801128387451171875">
        <ele>234.600006103515625</ele>
        <time>2018-09-02T10:51:59.000Z</time>
      </trkpt>
      <trkpt lat="43.29851380549371242523193359375" lon="-2.0837808586657047271728515625">
        <ele>234.1999969482421875</ele>
        <time>2018-09-02T10:52:01.000Z</time>
      </trkpt>
      <trkpt lat="43.29848346300423145294189453125" lon="-2.0838599838316440582275390625">
        <ele>234</ele>
        <time>2018-09-02T10:52:03.000Z</time>
      </trkpt>
      <trkpt lat="43.29843484796583652496337890625" lon="-2.083966434001922607421875">
        <ele>233.8000030517578125</ele>
        <time>2018-09-02T10:52:06.000Z</time>
      </trkpt>
      <trkpt lat="43.2983789406716823577880859375" lon="-2.0840614847838878631591796875">
        <ele>234</ele>
        <time>2018-09-02T10:52:09.000Z</time>
      </trkpt>
      <trkpt lat="43.2983242906630039215087890625" lon="-2.08415812812745571136474609375">
        <ele>234.600006103515625</ele>
        <time>2018-09-02T10:52:13.000Z</time>
      </trkpt>
      <trkpt lat="43.29830828122794628143310546875" lon="-2.08417824469506740570068359375">
        <ele>234.8000030517578125</ele>
        <time>2018-09-02T10:52:14.000Z</time>
      </trkpt>
      <trkpt lat="43.2982773520052433013916015625" lon="-2.08421043120324611663818359375">
        <ele>235.1999969482421875</ele>
        <time>2018-09-02T10:52:16.000Z</time>
      </trkpt>
      <trkpt lat="43.2982175052165985107421875" lon="-2.08429307676851749420166015625">
        <ele>235.399993896484375</ele>
        <time>2018-09-02T10:52:21.000Z</time>
      </trkpt>
      <trkpt lat="43.2982035912573337554931640625" lon="-2.08431771956384181976318359375">
        <ele>235.399993896484375</ele>
        <time>2018-09-02T10:52:22.000Z</time>
      </trkpt>
      <trkpt lat="43.298122622072696685791015625" lon="-2.08444126881659030914306640625">
        <ele>234.600006103515625</ele>
        <time>2018-09-02T10:52:27.000Z</time>
      </trkpt>
      <trkpt lat="43.2980966381728649139404296875" lon="-2.0844631455838680267333984375">
        <ele>234.399993896484375</ele>
        <time>2018-09-02T10:52:28.000Z</time>
      </trkpt>
      <trkpt lat="43.298068307340145111083984375" lon="-2.08449558354914188385009765625">
        <ele>234</ele>
        <time>2018-09-02T10:52:29.000Z</time>
      </trkpt>
      <trkpt lat="43.2980061136186122894287109375" lon="-2.084567248821258544921875">
        <ele>233.399993896484375</ele>
        <time>2018-09-02T10:52:31.000Z</time>
      </trkpt>
      <trkpt lat="43.29793922603130340576171875" lon="-2.084632627665996551513671875">
        <ele>233.1999969482421875</ele>
        <time>2018-09-02T10:52:33.000Z</time>
      </trkpt>
      <trkpt lat="43.297910392284393310546875" lon="-2.0846824161708354949951171875">
        <ele>233</ele>
        <time>2018-09-02T10:52:35.000Z</time>
      </trkpt>
      <trkpt lat="43.29790226183831691741943359375" lon="-2.08470127545297145843505859375">
        <ele>233</ele>
        <time>2018-09-02T10:52:36.000Z</time>
      </trkpt>
      <trkpt lat="43.29788868315517902374267578125" lon="-2.08475961349904537200927734375">
        <ele>232.1999969482421875</ele>
        <time>2018-09-02T10:52:39.000Z</time>
      </trkpt>
      <trkpt lat="43.2978944666683673858642578125" lon="-2.0847786404192447662353515625">
        <ele>231.8000030517578125</ele>
        <time>2018-09-02T10:52:40.000Z</time>
      </trkpt>
      <trkpt lat="43.29789807088673114776611328125" lon="-2.08479129709303379058837890625">
        <ele>231.8000030517578125</ele>
        <time>2018-09-02T10:52:41.000Z</time>
      </trkpt>
      <trkpt lat="43.29790963791310787200927734375" lon="-2.0848004333674907684326171875">
        <ele>232</ele>
        <time>2018-09-02T10:52:42.000Z</time>
      </trkpt>
      <trkpt lat="43.29791651107370853424072265625" lon="-2.0848024450242519378662109375">
        <ele>232.600006103515625</ele>
        <time>2018-09-02T10:52:44.000Z</time>
      </trkpt>
      <trkpt lat="43.29800887964665889739990234375" lon="-2.085090614855289459228515625">
        <ele>235.8000030517578125</ele>
        <time>2018-09-02T10:53:19.000Z</time>
      </trkpt>
      <trkpt lat="43.29801424406468868255615234375" lon="-2.08529622294008731842041015625">
        <ele>236</ele>
        <time>2018-09-02T10:53:26.000Z</time>
      </trkpt>
      <trkpt lat="43.298021368682384490966796875" lon="-2.0854740031063556671142578125">
        <ele>236.8000030517578125</ele>
        <time>2018-09-02T10:53:32.000Z</time>
      </trkpt>
      <trkpt lat="43.29802631400525569915771484375" lon="-2.08550074137747287750244140625">
        <ele>236.8000030517578125</ele>
        <time>2018-09-02T10:53:33.000Z</time>
      </trkpt>
      <trkpt lat="43.29804207198321819305419921875" lon="-2.0855668745934963226318359375">
        <ele>237.399993896484375</ele>
        <time>2018-09-02T10:53:36.000Z</time>
      </trkpt>
      <trkpt lat="43.2980614341795444488525390625" lon="-2.08561523817479610443115234375">
        <ele>237.399993896484375</ele>
        <time>2018-09-02T10:53:38.000Z</time>
      </trkpt>
      <trkpt lat="43.2980781979858875274658203125" lon="-2.08567692898213863372802734375">
        <ele>237.8000030517578125</ele>
        <time>2018-09-02T10:53:41.000Z</time>
      </trkpt>
      <trkpt lat="43.29808180220425128936767578125" lon="-2.08570090122520923614501953125">
        <ele>238</ele>
        <time>2018-09-02T10:53:42.000Z</time>
      </trkpt>
      <trkpt lat="43.298084735870361328125" lon="-2.0857247896492481231689453125">
        <ele>238</ele>
        <time>2018-09-02T10:53:43.000Z</time>
      </trkpt>
      <trkpt lat="43.29808314330875873565673828125" lon="-2.08582612685859203338623046875">
        <ele>239.1999969482421875</ele>
        <time>2018-09-02T10:53:49.000Z</time>
      </trkpt>
      <trkpt lat="43.29807895235717296600341796875" lon="-2.08583794534206390380859375">
        <ele>239.399993896484375</ele>
        <time>2018-09-02T10:53:50.000Z</time>
      </trkpt>
      <trkpt lat="43.29806269146502017974853515625" lon="-2.08589066751301288604736328125">
        <ele>240.1999969482421875</ele>
        <time>2018-09-02T10:53:53.000Z</time>
      </trkpt>
      <trkpt lat="43.29803084023296833038330078125" lon="-2.08595705218613147735595703125">
        <ele>241.1999969482421875</ele>
        <time>2018-09-02T10:53:57.000Z</time>
      </trkpt>
      <trkpt lat="43.29802363179624080657958984375" lon="-2.08596493117511272430419921875">
        <ele>241.1999969482421875</ele>
        <time>2018-09-02T10:53:58.000Z</time>
      </trkpt>
      <trkpt lat="43.2979806326329708099365234375" lon="-2.0860319025814533233642578125">
        <ele>242.399993896484375</ele>
        <time>2018-09-02T10:54:03.000Z</time>
      </trkpt>
      <trkpt lat="43.2979658804833889007568359375" lon="-2.08604942075908184051513671875">
        <ele>242.8000030517578125</ele>
        <time>2018-09-02T10:54:05.000Z</time>
      </trkpt>
      <trkpt lat="43.2979467697441577911376953125" lon="-2.08607121370732784271240234375">
        <ele>243.1999969482421875</ele>
        <time>2018-09-02T10:54:07.000Z</time>
      </trkpt>
      <trkpt lat="43.2979373820126056671142578125" lon="-2.0860815234482288360595703125">
        <ele>243.399993896484375</ele>
        <time>2018-09-02T10:54:08.000Z</time>
      </trkpt>
      <trkpt lat="43.29792179167270660400390625" lon="-2.08609920926392078399658203125">
        <ele>244</ele>
        <time>2018-09-02T10:54:10.000Z</time>
      </trkpt>
      <trkpt lat="43.2979102246463298797607421875" lon="-2.08610842935740947723388671875">
        <ele>244.1999969482421875</ele>
        <time>2018-09-02T10:54:11.000Z</time>
      </trkpt>
      <trkpt lat="43.297879882156848907470703125" lon="-2.08613575436174869537353515625">
        <ele>244.8000030517578125</ele>
        <time>2018-09-02T10:54:14.000Z</time>
      </trkpt>
      <trkpt lat="43.29785783775150775909423828125" lon="-2.08616827614605426788330078125">
        <ele>245.8000030517578125</ele>
        <time>2018-09-02T10:54:17.000Z</time>
      </trkpt>
      <trkpt lat="43.2978401519358158111572265625" lon="-2.08619677461683750152587890625">
        <ele>246.1999969482421875</ele>
        <time>2018-09-02T10:54:20.000Z</time>
      </trkpt>
      <trkpt lat="43.2978140003979206085205078125" lon="-2.08622762002050876617431640625">
        <ele>246.8000030517578125</ele>
        <time>2018-09-02T10:54:23.000Z</time>
      </trkpt>
      <trkpt lat="43.29780620522797107696533203125" lon="-2.08624086342751979827880859375">
        <ele>247</ele>
        <time>2018-09-02T10:54:24.000Z</time>
      </trkpt>
      <trkpt lat="43.2977861724793910980224609375" lon="-2.08627791143953800201416015625">
        <ele>247.1999969482421875</ele>
        <time>2018-09-02T10:54:27.000Z</time>
      </trkpt>
      <trkpt lat="43.2977454364299774169921875" lon="-2.08632719703018665313720703125">
        <ele>247.8000030517578125</ele>
        <time>2018-09-02T10:54:32.000Z</time>
      </trkpt>
      <trkpt lat="43.29773646779358386993408203125" lon="-2.08633792586624622344970703125">
        <ele>248</ele>
        <time>2018-09-02T10:54:33.000Z</time>
      </trkpt>
      <trkpt lat="43.2977160997688770294189453125" lon="-2.08635829389095306396484375">
        <ele>248.1999969482421875</ele>
        <time>2018-09-02T10:54:35.000Z</time>
      </trkpt>
      <trkpt lat="43.29767980612814426422119140625" lon="-2.08639592863619327545166015625">
        <ele>249.1999969482421875</ele>
        <time>2018-09-02T10:54:39.000Z</time>
      </trkpt>
      <trkpt lat="43.2976448535919189453125" lon="-2.08641864359378814697265625">
        <ele>249.600006103515625</ele>
        <time>2018-09-02T10:54:42.000Z</time>
      </trkpt>
      <trkpt lat="43.2976114936172962188720703125" lon="-2.0864322222769260406494140625">
        <ele>250.1999969482421875</ele>
        <time>2018-09-02T10:54:45.000Z</time>
      </trkpt>
      <trkpt lat="43.29757587052881717681884765625" lon="-2.08645493723452091217041015625">
        <ele>250.8000030517578125</ele>
        <time>2018-09-02T10:54:48.000Z</time>
      </trkpt>
      <trkpt lat="43.29753513447940349578857421875" lon="-2.086479663848876953125">
        <ele>251.1999969482421875</ele>
        <time>2018-09-02T10:54:51.000Z</time>
      </trkpt>
      <trkpt lat="43.2974599488079547882080078125" lon="-2.0865153707563877105712890625">
        <ele>251.8000030517578125</ele>
        <time>2018-09-02T10:54:55.000Z</time>
      </trkpt>
      <trkpt lat="43.2974311150610446929931640625" lon="-2.08654043264687061309814453125">
        <ele>252.1999969482421875</ele>
        <time>2018-09-02T10:54:57.000Z</time>
      </trkpt>
      <trkpt lat="43.29737059772014617919921875" lon="-2.08658569492399692535400390625">
        <ele>252.8000030517578125</ele>
        <time>2018-09-02T10:55:01.000Z</time>
      </trkpt>
      <trkpt lat="43.2973456196486949920654296875" lon="-2.0866122655570507049560546875">
        <ele>253.399993896484375</ele>
        <time>2018-09-02T10:55:03.000Z</time>
      </trkpt>
      <trkpt lat="43.29732189886271953582763671875" lon="-2.0866504870355129241943359375">
        <ele>253.600006103515625</ele>
        <time>2018-09-02T10:55:06.000Z</time>
      </trkpt>
      <trkpt lat="43.297309242188930511474609375" lon="-2.0866580307483673095703125">
        <ele>253.600006103515625</ele>
        <time>2018-09-02T10:55:07.000Z</time>
      </trkpt>
      <trkpt lat="43.29723338596522808074951171875" lon="-2.08674025721848011016845703125">
        <ele>253.8000030517578125</ele>
        <time>2018-09-02T10:55:13.000Z</time>
      </trkpt>
      <trkpt lat="43.2971706055104732513427734375" lon="-2.08680219948291778564453125">
        <ele>253.8000030517578125</ele>
        <time>2018-09-02T10:55:17.000Z</time>
      </trkpt>
      <trkpt lat="43.29713632352650165557861328125" lon="-2.08684905432164669036865234375">
        <ele>254</ele>
        <time>2018-09-02T10:55:20.000Z</time>
      </trkpt>
      <trkpt lat="43.29708485864102840423583984375" lon="-2.0869391597807407379150390625">
        <ele>254.1999969482421875</ele>
        <time>2018-09-02T10:55:25.000Z</time>
      </trkpt>
      <trkpt lat="43.2970784045755863189697265625" lon="-2.0869572646915912628173828125">
        <ele>254.399993896484375</ele>
        <time>2018-09-02T10:55:26.000Z</time>
      </trkpt>
      <trkpt lat="43.2970700226724147796630859375" lon="-2.08697679452598094940185546875">
        <ele>254.8000030517578125</ele>
        <time>2018-09-02T10:55:27.000Z</time>
      </trkpt>
      <trkpt lat="43.29700581729412078857421875" lon="-2.08707117475569248199462890625">
        <ele>255.600006103515625</ele>
        <time>2018-09-02T10:55:32.000Z</time>
      </trkpt>
      <trkpt lat="43.2969805039465427398681640625" lon="-2.0871158502995967864990234375">
        <ele>255.8000030517578125</ele>
        <time>2018-09-02T10:55:34.000Z</time>
      </trkpt>
      <trkpt lat="43.2969275303184986114501953125" lon="-2.0871837437152862548828125">
        <ele>256.600006103515625</ele>
        <time>2018-09-02T10:55:38.000Z</time>
      </trkpt>
      <trkpt lat="43.29690984450280666351318359375" lon="-2.0872234739363193511962890625">
        <ele>257</ele>
        <time>2018-09-02T10:55:40.000Z</time>
      </trkpt>
      <trkpt lat="43.29689878039062023162841796875" lon="-2.08724250085651874542236328125">
        <ele>257.20001220703125</ele>
        <time>2018-09-02T10:55:41.000Z</time>
      </trkpt>
      <trkpt lat="43.29687816090881824493408203125" lon="-2.0872798003256320953369140625">
        <ele>257.399993896484375</ele>
        <time>2018-09-02T10:55:43.000Z</time>
      </trkpt>
      <trkpt lat="43.29685905016958713531494140625" lon="-2.0873220451176166534423828125">
        <ele>257.79998779296875</ele>
        <time>2018-09-02T10:55:45.000Z</time>
      </trkpt>
      <trkpt lat="43.2968363352119922637939453125" lon="-2.0873686484992504119873046875">
        <ele>258.20001220703125</ele>
        <time>2018-09-02T10:55:47.000Z</time>
      </trkpt>
      <trkpt lat="43.29678780399262905120849609375" lon="-2.08746730349957942962646484375">
        <ele>258.399993896484375</ele>
        <time>2018-09-02T10:55:51.000Z</time>
      </trkpt>
      <trkpt lat="43.29670649953186511993408203125" lon="-2.087649442255496978759765625">
        <ele>259.20001220703125</ele>
        <time>2018-09-02T10:55:58.000Z</time>
      </trkpt>
      <trkpt lat="43.29669945873320102691650390625" lon="-2.08767584525048732757568359375">
        <ele>259.399993896484375</ele>
        <time>2018-09-02T10:55:59.000Z</time>
      </trkpt>
      <trkpt lat="43.2966720499098300933837890625" lon="-2.08774675615131855010986328125">
        <ele>259.600006103515625</ele>
        <time>2018-09-02T10:56:02.000Z</time>
      </trkpt>
      <trkpt lat="43.29665243625640869140625" lon="-2.08780325017869472503662109375">
        <ele>259.79998779296875</ele>
        <time>2018-09-02T10:56:04.000Z</time>
      </trkpt>
      <trkpt lat="43.2966110296547412872314453125" lon="-2.087893523275852203369140625">
        <ele>260.20001220703125</ele>
        <time>2018-09-02T10:56:07.000Z</time>
      </trkpt>
      <trkpt lat="43.2965654321014881134033203125" lon="-2.08799318410456180572509765625">
        <ele>260.399993896484375</ele>
        <time>2018-09-02T10:56:10.000Z</time>
      </trkpt>
      <trkpt lat="43.29654070548713207244873046875" lon="-2.0880485884845256805419921875">
        <ele>260.600006103515625</ele>
        <time>2018-09-02T10:56:12.000Z</time>
      </trkpt>
      <trkpt lat="43.29650365747511386871337890625" lon="-2.08810667507350444793701171875">
        <ele>260.600006103515625</ele>
        <time>2018-09-02T10:56:14.000Z</time>
      </trkpt>
      <trkpt lat="43.2964910008013248443603515625" lon="-2.088133580982685089111328125">
        <ele>260.79998779296875</ele>
        <time>2018-09-02T10:56:15.000Z</time>
      </trkpt>
      <trkpt lat="43.296478427946567535400390625" lon="-2.08818814717233180999755859375">
        <ele>261</ele>
        <time>2018-09-02T10:56:17.000Z</time>
      </trkpt>
      <trkpt lat="43.29642243683338165283203125" lon="-2.0882772468030452728271484375">
        <ele>261.600006103515625</ele>
        <time>2018-09-02T10:56:21.000Z</time>
      </trkpt>
      <trkpt lat="43.296412043273448944091796875" lon="-2.08829845301806926727294921875">
        <ele>261.600006103515625</ele>
        <time>2018-09-02T10:56:22.000Z</time>
      </trkpt>
      <trkpt lat="43.296310789883136749267578125" lon="-2.08838277496397495269775390625">
        <ele>262.20001220703125</ele>
        <time>2018-09-02T10:56:27.000Z</time>
      </trkpt>
      <trkpt lat="43.29626108519732952117919921875" lon="-2.08847614936530590057373046875">
        <ele>260.79998779296875</ele>
        <time>2018-09-02T10:56:31.000Z</time>
      </trkpt>
      <trkpt lat="43.29626745544373989105224609375" lon="-2.08852727897465229034423828125">
        <ele>260.600006103515625</ele>
        <time>2018-09-02T10:56:32.000Z</time>
      </trkpt>
      <trkpt lat="43.29628086648881435394287109375" lon="-2.088582850992679595947265625">
        <ele>260.399993896484375</ele>
        <time>2018-09-02T10:56:33.000Z</time>
      </trkpt>
      <trkpt lat="43.29630819149315357208251953125" lon="-2.088761217892169952392578125">
        <ele>260</ele>
        <time>2018-09-02T10:56:36.000Z</time>
      </trkpt>
      <trkpt lat="43.2962720654904842376708984375" lon="-2.08892977796494960784912109375">
        <ele>260.20001220703125</ele>
        <time>2018-09-02T10:56:40.000Z</time>
      </trkpt>
      <trkpt lat="43.296252451837062835693359375" lon="-2.08900487981736660003662109375">
        <ele>260.399993896484375</ele>
        <time>2018-09-02T10:56:42.000Z</time>
      </trkpt>
      <trkpt lat="43.29621917568147182464599609375" lon="-2.08909188397228717803955078125">
        <ele>261</ele>
        <time>2018-09-02T10:56:45.000Z</time>
      </trkpt>
      <trkpt lat="43.2961714826524257659912109375" lon="-2.0892168581485748291015625">
        <ele>261.399993896484375</ele>
        <time>2018-09-02T10:56:49.000Z</time>
      </trkpt>
      <trkpt lat="43.2961527071893215179443359375" lon="-2.0892797224223613739013671875">
        <ele>261.600006103515625</ele>
        <time>2018-09-02T10:56:51.000Z</time>
      </trkpt>
      <trkpt lat="43.29616419039666652679443359375" lon="-2.08940335549414157867431640625">
        <ele>261.79998779296875</ele>
        <time>2018-09-02T10:56:55.000Z</time>
      </trkpt>
      <trkpt lat="43.2961718179285526275634765625" lon="-2.08942347206175327301025390625">
        <ele>262</ele>
        <time>2018-09-02T10:56:56.000Z</time>
      </trkpt>
      <trkpt lat="43.29617567360401153564453125" lon="-2.08944425918161869049072265625">
        <ele>262.600006103515625</ele>
        <time>2018-09-02T10:56:58.000Z</time>
      </trkpt>
      <trkpt lat="43.29618564806878566741943359375" lon="-2.08947493694722652435302734375">
        <ele>262.600006103515625</ele>
        <time>2018-09-02T10:56:59.000Z</time>
      </trkpt>
      <trkpt lat="43.2961959578096866607666015625" lon="-2.08948801271617412567138671875">
        <ele>262.79998779296875</ele>
        <time>2018-09-02T10:57:00.000Z</time>
      </trkpt>
      <trkpt lat="43.29621967859566211700439453125" lon="-2.0895226299762725830078125">
        <ele>263.399993896484375</ele>
        <time>2018-09-02T10:57:03.000Z</time>
      </trkpt>
      <trkpt lat="43.2962321676313877105712890625" lon="-2.0895291678607463836669921875">
        <ele>263.600006103515625</ele>
        <time>2018-09-02T10:57:04.000Z</time>
      </trkpt>
      <trkpt lat="43.2964284718036651611328125" lon="-2.09001473151147365570068359375">
        <ele>271.399993896484375</ele>
        <time>2018-09-02T10:57:42.000Z</time>
      </trkpt>
      <trkpt lat="43.29640240408480167388916015625" lon="-2.09010257385671138763427734375">
        <ele>272.20001220703125</ele>
        <time>2018-09-02T10:57:47.000Z</time>
      </trkpt>
      <trkpt lat="43.29639771021902561187744140625" lon="-2.090119756758213043212890625">
        <ele>272.399993896484375</ele>
        <time>2018-09-02T10:57:48.000Z</time>
      </trkpt>
      <trkpt lat="43.29639318399131298065185546875" lon="-2.09013643674552440643310546875">
        <ele>272.600006103515625</ele>
        <time>2018-09-02T10:57:49.000Z</time>
      </trkpt>
      <trkpt lat="43.29637038521468639373779296875" lon="-2.090205587446689605712890625">
        <ele>273.600006103515625</ele>
        <time>2018-09-02T10:57:54.000Z</time>
      </trkpt>
      <trkpt lat="43.296365439891815185546875" lon="-2.090216986835002899169921875">
        <ele>273.79998779296875</ele>
        <time>2018-09-02T10:57:55.000Z</time>
      </trkpt>
      <trkpt lat="43.29636200331151485443115234375" lon="-2.09023140370845794677734375">
        <ele>274</ele>
        <time>2018-09-02T10:57:56.000Z</time>
      </trkpt>
      <trkpt lat="43.2963451556861400604248046875" lon="-2.090281359851360321044921875">
        <ele>273.79998779296875</ele>
        <time>2018-09-02T10:57:59.000Z</time>
      </trkpt>
      <trkpt lat="43.296327888965606689453125" lon="-2.09033332765102386474609375">
        <ele>275</ele>
        <time>2018-09-02T10:58:02.000Z</time>
      </trkpt>
      <trkpt lat="43.29629637300968170166015625" lon="-2.09041018970310688018798828125">
        <ele>275.79998779296875</ele>
        <time>2018-09-02T10:58:07.000Z</time>
      </trkpt>
      <trkpt lat="43.2962854765355587005615234375" lon="-2.09043466486036777496337890625">
        <ele>276</ele>
        <time>2018-09-02T10:58:09.000Z</time>
      </trkpt>
      <trkpt lat="43.2962754182517528533935546875" lon="-2.090445645153522491455078125">
        <ele>276</ele>
        <time>2018-09-02T10:58:10.000Z</time>
      </trkpt>
      <trkpt lat="43.29625488258898258209228515625" lon="-2.09046198986470699310302734375">
        <ele>276.20001220703125</ele>
        <time>2018-09-02T10:58:12.000Z</time>
      </trkpt>
      <trkpt lat="43.296239376068115234375" lon="-2.0904568769037723541259765625">
        <ele>276.399993896484375</ele>
        <time>2018-09-02T10:58:14.000Z</time>
      </trkpt>
      <trkpt lat="43.2962314970791339874267578125" lon="-2.09044824354350566864013671875">
        <ele>276.600006103515625</ele>
        <time>2018-09-02T10:58:15.000Z</time>
      </trkpt>
      <trkpt lat="43.29621850512921810150146484375" lon="-2.09042293019592761993408203125">
        <ele>277.20001220703125</ele>
        <time>2018-09-02T10:58:17.000Z</time>
      </trkpt>
      <trkpt lat="43.29621029086410999298095703125" lon="-2.09039426408708095550537109375">
        <ele>277.399993896484375</ele>
        <time>2018-09-02T10:58:19.000Z</time>
      </trkpt>
      <trkpt lat="43.29619402997195720672607421875" lon="-2.0903730578720569610595703125">
        <ele>277.79998779296875</ele>
        <time>2018-09-02T10:58:21.000Z</time>
      </trkpt>
      <trkpt lat="43.29616955481469631195068359375" lon="-2.0903596468269824981689453125">
        <ele>278.20001220703125</ele>
        <time>2018-09-02T10:58:23.000Z</time>
      </trkpt>
      <trkpt lat="43.296124041080474853515625" lon="-2.09033139981329441070556640625">
        <ele>278.79998779296875</ele>
        <time>2018-09-02T10:58:27.000Z</time>
      </trkpt>
      <trkpt lat="43.296111635863780975341796875" lon="-2.09032502956688404083251953125">
        <ele>279</ele>
        <time>2018-09-02T10:58:28.000Z</time>
      </trkpt>
      <trkpt lat="43.29608523286879062652587890625" lon="-2.09032259881496429443359375">
        <ele>279.399993896484375</ele>
        <time>2018-09-02T10:58:30.000Z</time>
      </trkpt>
      <trkpt lat="43.296028487384319305419921875" lon="-2.09035319276154041290283203125">
        <ele>280.20001220703125</ele>
        <time>2018-09-02T10:58:34.000Z</time>
      </trkpt>
      <trkpt lat="43.29600191675126552581787109375" lon="-2.09038219414651393890380859375">
        <ele>280.600006103515625</ele>
        <time>2018-09-02T10:58:36.000Z</time>
      </trkpt>
      <trkpt lat="43.2959495298564434051513671875" lon="-2.0904394425451755523681640625">
        <ele>281.600006103515625</ele>
        <time>2018-09-02T10:58:40.000Z</time>
      </trkpt>
      <trkpt lat="43.295933939516544342041015625" lon="-2.09045360796153545379638671875">
        <ele>281.79998779296875</ele>
        <time>2018-09-02T10:58:41.000Z</time>
      </trkpt>
      <trkpt lat="43.29583226703107357025146484375" lon="-2.0905645005404949188232421875">
        <ele>282</ele>
        <time>2018-09-02T10:58:48.000Z</time>
      </trkpt>
      <trkpt lat="43.29580494202673435211181640625" lon="-2.090607918798923492431640625">
        <ele>282.600006103515625</ele>
        <time>2018-09-02T10:58:50.000Z</time>
      </trkpt>
      <trkpt lat="43.29571190290153026580810546875" lon="-2.09075602702796459197998046875">
        <ele>283.600006103515625</ele>
        <time>2018-09-02T10:58:56.000Z</time>
      </trkpt>
      <trkpt lat="43.2956987433135509490966796875" lon="-2.0907864533364772796630859375">
        <ele>283.79998779296875</ele>
        <time>2018-09-02T10:58:57.000Z</time>
      </trkpt>
      <trkpt lat="43.295595645904541015625" lon="-2.0910017006099224090576171875">
        <ele>284.20001220703125</ele>
        <time>2018-09-02T10:59:04.000Z</time>
      </trkpt>
      <trkpt lat="43.29552431590855121612548828125" lon="-2.09114142693579196929931640625">
        <ele>284.600006103515625</ele>
        <time>2018-09-02T10:59:08.000Z</time>
      </trkpt>
      <trkpt lat="43.29547435976564884185791015625" lon="-2.09124469198286533355712890625">
        <ele>284.79998779296875</ele>
        <time>2018-09-02T10:59:11.000Z</time>
      </trkpt>
      <trkpt lat="43.29545876942574977874755859375" lon="-2.09127453155815601348876953125">
        <ele>284.79998779296875</ele>
        <time>2018-09-02T10:59:12.000Z</time>
      </trkpt>
      <trkpt lat="43.29544401727616786956787109375" lon="-2.0913036167621612548828125">
        <ele>284.79998779296875</ele>
        <time>2018-09-02T10:59:13.000Z</time>
      </trkpt>
      <trkpt lat="43.29540462233126163482666015625" lon="-2.0914036966860294342041015625">
        <ele>284.79998779296875</ele>
        <time>2018-09-02T10:59:16.000Z</time>
      </trkpt>
      <trkpt lat="43.29537176527082920074462890625" lon="-2.09147267974913120269775390625">
        <ele>284.79998779296875</ele>
        <time>2018-09-02T10:59:18.000Z</time>
      </trkpt>
      <trkpt lat="43.29534276388585567474365234375" lon="-2.09153629839420318603515625">
        <ele>285</ele>
        <time>2018-09-02T10:59:20.000Z</time>
      </trkpt>
      <trkpt lat="43.29525835812091827392578125" lon="-2.09171441383659839630126953125">
        <ele>285.20001220703125</ele>
        <time>2018-09-02T10:59:25.000Z</time>
      </trkpt>
      <trkpt lat="43.29522156156599521636962890625" lon="-2.09178817458450794219970703125">
        <ele>285.399993896484375</ele>
        <time>2018-09-02T10:59:27.000Z</time>
      </trkpt>
      <trkpt lat="43.29520530067384243011474609375" lon="-2.09182304330170154571533203125">
        <ele>285.79998779296875</ele>
        <time>2018-09-02T10:59:28.000Z</time>
      </trkpt>
      <trkpt lat="43.29511754214763641357421875" lon="-2.09203812293708324432373046875">
        <ele>286.79998779296875</ele>
        <time>2018-09-02T10:59:34.000Z</time>
      </trkpt>
      <trkpt lat="43.2951016165316104888916015625" lon="-2.092071063816547393798828125">
        <ele>287</ele>
        <time>2018-09-02T10:59:35.000Z</time>
      </trkpt>
      <trkpt lat="43.2950188033282756805419921875" lon="-2.0922703854739665985107421875">
        <ele>288</ele>
        <time>2018-09-02T10:59:41.000Z</time>
      </trkpt>
      <trkpt lat="43.2949554361402988433837890625" lon="-2.092388235032558441162109375">
        <ele>289.20001220703125</ele>
        <time>2018-09-02T10:59:45.000Z</time>
      </trkpt>
      <trkpt lat="43.29491511918604373931884765625" lon="-2.092476077377796173095703125">
        <ele>290.20001220703125</ele>
        <time>2018-09-02T10:59:48.000Z</time>
      </trkpt>
      <trkpt lat="43.29489734955132007598876953125" lon="-2.092503570020198822021484375">
        <ele>290.399993896484375</ele>
        <time>2018-09-02T10:59:49.000Z</time>
      </trkpt>
      <trkpt lat="43.2948397658765316009521484375" lon="-2.09257163107395172119140625">
        <ele>291.399993896484375</ele>
        <time>2018-09-02T10:59:52.000Z</time>
      </trkpt>
      <trkpt lat="43.29479928128421306610107421875" lon="-2.0925929211080074310302734375">
        <ele>292</ele>
        <time>2018-09-02T10:59:54.000Z</time>
      </trkpt>
      <trkpt lat="43.2947794161736965179443359375" lon="-2.09260591305792331695556640625">
        <ele>292.399993896484375</ele>
        <time>2018-09-02T10:59:55.000Z</time>
      </trkpt>
      <trkpt lat="43.294761478900909423828125" lon="-2.0926287956535816192626953125">
        <ele>292.79998779296875</ele>
        <time>2018-09-02T10:59:56.000Z</time>
      </trkpt>
      <trkpt lat="43.2947458885610103607177734375" lon="-2.09271705709397792816162109375">
        <ele>292.399993896484375</ele>
        <time>2018-09-02T10:59:58.000Z</time>
      </trkpt>
      <trkpt lat="43.29473289661109447479248046875" lon="-2.09289156831800937652587890625">
        <ele>290.79998779296875</ele>
        <time>2018-09-02T11:00:01.000Z</time>
      </trkpt>
      <trkpt lat="43.29472518526017665863037109375" lon="-2.09298678673803806304931640625">
        <ele>290</ele>
        <time>2018-09-02T11:00:03.000Z</time>
      </trkpt>
      <trkpt lat="43.294713199138641357421875" lon="-2.0930371619760990142822265625">
        <ele>289.79998779296875</ele>
        <time>2018-09-02T11:00:04.000Z</time>
      </trkpt>
      <trkpt lat="43.29469048418104648590087890625" lon="-2.09308317862451076507568359375">
        <ele>289.20001220703125</ele>
        <time>2018-09-02T11:00:05.000Z</time>
      </trkpt>
      <trkpt lat="43.29466081224381923675537109375" lon="-2.0931058935821056365966796875">
        <ele>288.79998779296875</ele>
        <time>2018-09-02T11:00:06.000Z</time>
      </trkpt>
      <trkpt lat="43.29463399015367031097412109375" lon="-2.0931125991046428680419921875">
        <ele>288.600006103515625</ele>
        <time>2018-09-02T11:00:07.000Z</time>
      </trkpt>
      <trkpt lat="43.29458218999207019805908203125" lon="-2.0931162871420383453369140625">
        <ele>289.79998779296875</ele>
        <time>2018-09-02T11:00:10.000Z</time>
      </trkpt>
      <trkpt lat="43.29456810839474201202392578125" lon="-2.0931216515600681304931640625">
        <ele>289.79998779296875</ele>
        <time>2018-09-02T11:00:11.000Z</time>
      </trkpt>
      <trkpt lat="43.294531814754009246826171875" lon="-2.0931437797844409942626953125">
        <ele>290.600006103515625</ele>
        <time>2018-09-02T11:00:14.000Z</time>
      </trkpt>
      <trkpt lat="43.294521756470203399658203125" lon="-2.09315593354403972625732421875">
        <ele>291</ele>
        <time>2018-09-02T11:00:15.000Z</time>
      </trkpt>
      <trkpt lat="43.29450390301644802093505859375" lon="-2.09317923523485660552978515625">
        <ele>291.79998779296875</ele>
        <time>2018-09-02T11:00:17.000Z</time>
      </trkpt>
      <trkpt lat="43.29448143951594829559326171875" lon="-2.09319482557475566864013671875">
        <ele>292</ele>
        <time>2018-09-02T11:00:19.000Z</time>
      </trkpt>
      <trkpt lat="43.2944273762404918670654296875" lon="-2.09325266070663928985595703125">
        <ele>292.399993896484375</ele>
        <time>2018-09-02T11:00:23.000Z</time>
      </trkpt>
      <trkpt lat="43.29441388137638568878173828125" lon="-2.09327663294970989227294921875">
        <ele>292.600006103515625</ele>
        <time>2018-09-02T11:00:24.000Z</time>
      </trkpt>
      <trkpt lat="43.29430474899709224700927734375" lon="-2.09347126074135303497314453125">
        <ele>292</ele>
        <time>2018-09-02T11:00:31.000Z</time>
      </trkpt>
      <trkpt lat="43.294210620224475860595703125" lon="-2.0936631225049495697021484375">
        <ele>292</ele>
        <time>2018-09-02T11:00:38.000Z</time>
      </trkpt>
      <trkpt lat="43.29417851753532886505126953125" lon="-2.09373579360544681549072265625">
        <ele>291.79998779296875</ele>
        <time>2018-09-02T11:00:41.000Z</time>
      </trkpt>
      <trkpt lat="43.2941631786525249481201171875" lon="-2.09377602674067020416259765625">
        <ele>291.600006103515625</ele>
        <time>2018-09-02T11:00:43.000Z</time>
      </trkpt>
      <trkpt lat="43.29414767213165760040283203125" lon="-2.09382355213165283203125">
        <ele>291.79998779296875</ele>
        <time>2018-09-02T11:00:45.000Z</time>
      </trkpt>
      <trkpt lat="43.29411984421312808990478515625" lon="-2.09389203228056430816650390625">
        <ele>291.399993896484375</ele>
        <time>2018-09-02T11:00:48.000Z</time>
      </trkpt>
      <trkpt lat="43.29406485892832279205322265625" lon="-2.09403150714933872222900390625">
        <ele>291.79998779296875</ele>
        <time>2018-09-02T11:00:53.000Z</time>
      </trkpt>
      <trkpt lat="43.29405228607356548309326171875" lon="-2.09406293928623199462890625">
        <ele>291.600006103515625</ele>
        <time>2018-09-02T11:00:54.000Z</time>
      </trkpt>
      <trkpt lat="43.293994702398777008056640625" lon="-2.09419445134699344635009765625">
        <ele>291.79998779296875</ele>
        <time>2018-09-02T11:00:59.000Z</time>
      </trkpt>
      <trkpt lat="43.29393929801881313323974609375" lon="-2.09434767253696918487548828125">
        <ele>292.20001220703125</ele>
        <time>2018-09-02T11:01:04.000Z</time>
      </trkpt>
      <trkpt lat="43.29391884617507457733154296875" lon="-2.0944087766110897064208984375">
        <ele>292.399993896484375</ele>
        <time>2018-09-02T11:01:06.000Z</time>
      </trkpt>
      <trkpt lat="43.2938336022198200225830078125" lon="-2.094662748277187347412109375">
        <ele>293</ele>
        <time>2018-09-02T11:01:15.000Z</time>
      </trkpt>
      <trkpt lat="43.2937464304268360137939453125" lon="-2.09488696418702602386474609375">
        <ele>293.600006103515625</ele>
        <time>2018-09-02T11:01:23.000Z</time>
      </trkpt>
      <trkpt lat="43.29369387589395046234130859375" lon="-2.09506516344845294952392578125">
        <ele>294.20001220703125</ele>
        <time>2018-09-02T11:01:29.000Z</time>
      </trkpt>
      <trkpt lat="43.29369002021849155426025390625" lon="-2.09509332664310932159423828125">
        <ele>294.20001220703125</ele>
        <time>2018-09-02T11:01:30.000Z</time>
      </trkpt>
      <trkpt lat="43.29370041377842426300048828125" lon="-2.0952446199953556060791015625">
        <ele>294.600006103515625</ele>
        <time>2018-09-02T11:01:36.000Z</time>
      </trkpt>
      <trkpt lat="43.2937377132475376129150390625" lon="-2.095367498695850372314453125">
        <ele>295</ele>
        <time>2018-09-02T11:01:41.000Z</time>
      </trkpt>
      <trkpt lat="43.2937528006732463836669921875" lon="-2.09543547593057155609130859375">
        <ele>295.20001220703125</ele>
        <time>2018-09-02T11:01:44.000Z</time>
      </trkpt>
      <trkpt lat="43.2937544770538806915283203125" lon="-2.09551342763006687164306640625">
        <ele>295.600006103515625</ele>
        <time>2018-09-02T11:01:47.000Z</time>
      </trkpt>
      <trkpt lat="43.293737210333347320556640625" lon="-2.09560076706111431121826171875">
        <ele>296.399993896484375</ele>
        <time>2018-09-02T11:01:51.000Z</time>
      </trkpt>
      <trkpt lat="43.29372958280146121978759765625" lon="-2.0956499688327312469482421875">
        <ele>296.399993896484375</ele>
        <time>2018-09-02T11:01:53.000Z</time>
      </trkpt>
      <trkpt lat="43.29370309598743915557861328125" lon="-2.0958072133362293243408203125">
        <ele>296.20001220703125</ele>
        <time>2018-09-02T11:01:58.000Z</time>
      </trkpt>
      <trkpt lat="43.2936770282685756683349609375" lon="-2.095945514738559722900390625">
        <ele>296</ele>
        <time>2018-09-02T11:02:03.000Z</time>
      </trkpt>
      <trkpt lat="43.2935955561697483062744140625" lon="-2.09610133431851863861083984375">
        <ele>296</ele>
        <time>2018-09-02T11:02:09.000Z</time>
      </trkpt>
      <trkpt lat="43.2935424149036407470703125" lon="-2.09618515335023403167724609375">
        <ele>295.20001220703125</ele>
        <time>2018-09-02T11:02:12.000Z</time>
      </trkpt>
      <trkpt lat="43.2934936322271823883056640625" lon="-2.09626193158328533172607421875">
        <ele>295</ele>
        <time>2018-09-02T11:02:15.000Z</time>
      </trkpt>
      <trkpt lat="43.293470330536365509033203125" lon="-2.0962997339665889739990234375">
        <ele>295</ele>
        <time>2018-09-02T11:02:17.000Z</time>
      </trkpt>
      <trkpt lat="43.29345582984387874603271484375" lon="-2.09631859324872493743896484375">
        <ele>295.20001220703125</ele>
        <time>2018-09-02T11:02:18.000Z</time>
      </trkpt>
      <trkpt lat="43.29344250261783599853515625" lon="-2.09633854217827320098876953125">
        <ele>295.20001220703125</ele>
        <time>2018-09-02T11:02:19.000Z</time>
      </trkpt>
      <trkpt lat="43.29341459088027477264404296875" lon="-2.0963783562183380126953125">
        <ele>295.20001220703125</ele>
        <time>2018-09-02T11:02:21.000Z</time>
      </trkpt>
      <trkpt lat="43.29332741908729076385498046875" lon="-2.09652721881866455078125">
        <ele>295.79998779296875</ele>
        <time>2018-09-02T11:02:28.000Z</time>
      </trkpt>
      <trkpt lat="43.29321510158479213714599609375" lon="-2.09671002812683582305908203125">
        <ele>296</ele>
        <time>2018-09-02T11:02:35.000Z</time>
      </trkpt>
      <trkpt lat="43.2931496389210224151611328125" lon="-2.0968341641128063201904296875">
        <ele>296.399993896484375</ele>
        <time>2018-09-02T11:02:39.000Z</time>
      </trkpt>
      <trkpt lat="43.29313513822853565216064453125" lon="-2.09687062539160251617431640625">
        <ele>296.20001220703125</ele>
        <time>2018-09-02T11:02:40.000Z</time>
      </trkpt>
      <trkpt lat="43.2930752076208591461181640625" lon="-2.0970132015645503997802734375">
        <ele>296.600006103515625</ele>
        <time>2018-09-02T11:02:45.000Z</time>
      </trkpt>
      <trkpt lat="43.293029107153415679931640625" lon="-2.09716935642063617706298828125">
        <ele>297.600006103515625</ele>
        <time>2018-09-02T11:02:51.000Z</time>
      </trkpt>
      <trkpt lat="43.29297579824924468994140625" lon="-2.09734596312046051025390625">
        <ele>297.600006103515625</ele>
        <time>2018-09-02T11:02:57.000Z</time>
      </trkpt>
      <trkpt lat="43.29294604249298572540283203125" lon="-2.0974242500960826873779296875">
        <ele>297.79998779296875</ele>
        <time>2018-09-02T11:02:59.000Z</time>
      </trkpt>
      <trkpt lat="43.29288384877145290374755859375" lon="-2.09759649820625782012939453125">
        <ele>298.20001220703125</ele>
        <time>2018-09-02T11:03:04.000Z</time>
      </trkpt>
      <trkpt lat="43.29280740581452846527099609375" lon="-2.09777670912444591522216796875">
        <ele>298.600006103515625</ele>
        <time>2018-09-02T11:03:09.000Z</time>
      </trkpt>
      <trkpt lat="43.29279516823589801788330078125" lon="-2.09781132638454437255859375">
        <ele>298.600006103515625</ele>
        <time>2018-09-02T11:03:10.000Z</time>
      </trkpt>
      <trkpt lat="43.29273113049566745758056640625" lon="-2.097947783768177032470703125">
        <ele>299.600006103515625</ele>
        <time>2018-09-02T11:03:15.000Z</time>
      </trkpt>
      <trkpt lat="43.29271989874541759490966796875" lon="-2.0979730971157550811767578125">
        <ele>299.79998779296875</ele>
        <time>2018-09-02T11:03:16.000Z</time>
      </trkpt>
      <trkpt lat="43.292669020593166351318359375" lon="-2.0981405675411224365234375">
        <ele>300.399993896484375</ele>
        <time>2018-09-02T11:03:22.000Z</time>
      </trkpt>
      <trkpt lat="43.29263524152338504791259765625" lon="-2.09825766272842884063720703125">
        <ele>300.600006103515625</ele>
        <time>2018-09-02T11:03:26.000Z</time>
      </trkpt>
      <trkpt lat="43.292610347270965576171875" lon="-2.09828783757984638214111328125">
        <ele>301.399993896484375</ele>
        <time>2018-09-02T11:03:28.000Z</time>
      </trkpt>
      <trkpt lat="43.29257522709667682647705078125" lon="-2.09834584034979343414306640625">
        <ele>301.79998779296875</ele>
        <time>2018-09-02T11:03:31.000Z</time>
      </trkpt>
      <trkpt lat="43.292571119964122772216796875" lon="-2.0983606763184070587158203125">
        <ele>301.79998779296875</ele>
        <time>2018-09-02T11:03:33.000Z</time>
      </trkpt>
      <trkpt lat="43.29255008138716220855712890625" lon="-2.0984034240245819091796875">
        <ele>301.600006103515625</ele>
        <time>2018-09-02T11:04:14.000Z</time>
      </trkpt>
      <trkpt lat="43.2925414480268955230712890625" lon="-2.09842312149703502655029296875">
        <ele>301.79998779296875</ele>
        <time>2018-09-02T11:04:15.000Z</time>
      </trkpt>
      <trkpt lat="43.2925339043140411376953125" lon="-2.09844675846397876739501953125">
        <ele>301.600006103515625</ele>
        <time>2018-09-02T11:04:16.000Z</time>
      </trkpt>
      <trkpt lat="43.2925203256309032440185546875" lon="-2.09850794635713100433349609375">
        <ele>301.399993896484375</ele>
        <time>2018-09-02T11:04:18.000Z</time>
      </trkpt>
      <trkpt lat="43.29251018352806568145751953125" lon="-2.0986272208392620086669921875">
        <ele>301</ele>
        <time>2018-09-02T11:04:21.000Z</time>
      </trkpt>
      <trkpt lat="43.292497694492340087890625" lon="-2.0987083576619625091552734375">
        <ele>300.600006103515625</ele>
        <time>2018-09-02T11:04:23.000Z</time>
      </trkpt>
      <trkpt lat="43.2924834452569484710693359375" lon="-2.098836936056613922119140625">
        <ele>300</ele>
        <time>2018-09-02T11:04:26.000Z</time>
      </trkpt>
      <trkpt lat="43.29248067922890186309814453125" lon="-2.09888714365661144256591796875">
        <ele>299.600006103515625</ele>
        <time>2018-09-02T11:04:27.000Z</time>
      </trkpt>
      <trkpt lat="43.2924780808389186859130859375" lon="-2.09893709979951381683349609375">
        <ele>299.399993896484375</ele>
        <time>2018-09-02T11:04:28.000Z</time>
      </trkpt>
      <trkpt lat="43.29246860928833484649658203125" lon="-2.0989908277988433837890625">
        <ele>299</ele>
        <time>2018-09-02T11:04:29.000Z</time>
      </trkpt>
      <trkpt lat="43.29242133535444736480712890625" lon="-2.09920146502554416656494140625">
        <ele>298</ele>
        <time>2018-09-02T11:04:32.000Z</time>
      </trkpt>
      <trkpt lat="43.29236417077481746673583984375" lon="-2.0994513295590877532958984375">
        <ele>296.600006103515625</ele>
        <time>2018-09-02T11:04:35.000Z</time>
      </trkpt>
      <trkpt lat="43.2923273742198944091796875" lon="-2.09962542168796062469482421875">
        <ele>295.600006103515625</ele>
        <time>2018-09-02T11:04:37.000Z</time>
      </trkpt>
      <trkpt lat="43.2922782562673091888427734375" lon="-2.0998821593821048736572265625">
        <ele>293.79998779296875</ele>
        <time>2018-09-02T11:04:40.000Z</time>
      </trkpt>
      <trkpt lat="43.2922388613224029541015625" lon="-2.10006932727992534637451171875">
        <ele>292.20001220703125</ele>
        <time>2018-09-02T11:04:42.000Z</time>
      </trkpt>
      <trkpt lat="43.29221916384994983673095703125" lon="-2.10017007775604724884033203125">
        <ele>290.20001220703125</ele>
        <time>2018-09-02T11:04:43.000Z</time>
      </trkpt>
      <trkpt lat="43.29217909835278987884521484375" lon="-2.10038197226822376251220703125">
        <ele>289.20001220703125</ele>
        <time>2018-09-02T11:04:45.000Z</time>
      </trkpt>
      <trkpt lat="43.2920998893678188323974609375" lon="-2.1007351018488407135009765625">
        <ele>288</ele>
        <time>2018-09-02T11:04:48.000Z</time>
      </trkpt>
      <trkpt lat="43.29206678085029125213623046875" lon="-2.1008537895977497100830078125">
        <ele>286.79998779296875</ele>
        <time>2018-09-02T11:04:49.000Z</time>
      </trkpt>
      <trkpt lat="43.29202168621122837066650390625" lon="-2.10096828639507293701171875">
        <ele>285.399993896484375</ele>
        <time>2018-09-02T11:04:50.000Z</time>
      </trkpt>
      <trkpt lat="43.29189444892108440399169921875" lon="-2.10115679539740085601806640625">
        <ele>284</ele>
        <time>2018-09-02T11:04:52.000Z</time>
      </trkpt>
      <trkpt lat="43.29173452220857143402099609375" lon="-2.10128788836300373077392578125">
        <ele>282.79998779296875</ele>
        <time>2018-09-02T11:04:54.000Z</time>
      </trkpt>
      <trkpt lat="43.29156386665999889373779296875" lon="-2.1014090068638324737548828125">
        <ele>281.600006103515625</ele>
        <time>2018-09-02T11:04:56.000Z</time>
      </trkpt>
      <trkpt lat="43.291329257190227508544921875" lon="-2.1016312949359416961669921875">
        <ele>280.399993896484375</ele>
        <time>2018-09-02T11:04:59.000Z</time>
      </trkpt>
      <trkpt lat="43.2912653870880603790283203125" lon="-2.10172332823276519775390625">
        <ele>280.20001220703125</ele>
        <time>2018-09-02T11:05:00.000Z</time>
      </trkpt>
      <trkpt lat="43.2911104895174503326416015625" lon="-2.1020192094147205352783203125">
        <ele>280.20001220703125</ele>
        <time>2018-09-02T11:05:03.000Z</time>
      </trkpt>
      <trkpt lat="43.29102708958089351654052734375" lon="-2.102223895490169525146484375">
        <ele>279.79998779296875</ele>
        <time>2018-09-02T11:05:05.000Z</time>
      </trkpt>
      <trkpt lat="43.29087252728641033172607421875" lon="-2.102705352008342742919921875">
        <ele>279.600006103515625</ele>
        <time>2018-09-02T11:05:10.000Z</time>
      </trkpt>
      <trkpt lat="43.2908452861011028289794921875" lon="-2.10279746912419795989990234375">
        <ele>279.600006103515625</ele>
        <time>2018-09-02T11:05:11.000Z</time>
      </trkpt>
      <trkpt lat="43.29076456837356090545654296875" lon="-2.10308195091784000396728515625">
        <ele>279.600006103515625</ele>
        <time>2018-09-02T11:05:14.000Z</time>
      </trkpt>
      <trkpt lat="43.29069784842431545257568359375" lon="-2.10336618125438690185546875">
        <ele>279.399993896484375</ele>
        <time>2018-09-02T11:05:17.000Z</time>
      </trkpt>
      <trkpt lat="43.29067756421864032745361328125" lon="-2.10345746017992496490478515625">
        <ele>279</ele>
        <time>2018-09-02T11:05:18.000Z</time>
      </trkpt>
      <trkpt lat="43.29060933552682399749755859375" lon="-2.1037294529378414154052734375">
        <ele>278.399993896484375</ele>
        <time>2018-09-02T11:05:21.000Z</time>
      </trkpt>
      <trkpt lat="43.29057530499994754791259765625" lon="-2.1038099192082881927490234375">
        <ele>277.79998779296875</ele>
        <time>2018-09-02T11:05:22.000Z</time>
      </trkpt>
      <trkpt lat="43.290531300008296966552734375" lon="-2.10387923754751682281494140625">
        <ele>277.600006103515625</ele>
        <time>2018-09-02T11:05:23.000Z</time>
      </trkpt>
      <trkpt lat="43.2902701199054718017578125" lon="-2.104295901954174041748046875">
        <ele>277.20001220703125</ele>
        <time>2018-09-02T11:05:29.000Z</time>
      </trkpt>
      <trkpt lat="43.29014061950147151947021484375" lon="-2.10449379868805408477783203125">
        <ele>276.79998779296875</ele>
        <time>2018-09-02T11:05:32.000Z</time>
      </trkpt>
      <trkpt lat="43.29005830921232700347900390625" lon="-2.10462757386267185211181640625">
        <ele>275.79998779296875</ele>
        <time>2018-09-02T11:05:34.000Z</time>
      </trkpt>
      <trkpt lat="43.28998287208378314971923828125" lon="-2.10476092994213104248046875">
        <ele>274.20001220703125</ele>
        <time>2018-09-02T11:05:36.000Z</time>
      </trkpt>
      <trkpt lat="43.2899527810513973236083984375" lon="-2.1048299968242645263671875">
        <ele>273.600006103515625</ele>
        <time>2018-09-02T11:05:37.000Z</time>
      </trkpt>
      <trkpt lat="43.28992537222802639007568359375" lon="-2.104894705116748809814453125">
        <ele>272.79998779296875</ele>
        <time>2018-09-02T11:05:38.000Z</time>
      </trkpt>
      <trkpt lat="43.28989201225340366363525390625" lon="-2.10493904538452625274658203125">
        <ele>272</ele>
        <time>2018-09-02T11:05:39.000Z</time>
      </trkpt>
      <trkpt lat="43.28985982574522495269775390625" lon="-2.10496167652308940887451171875">
        <ele>271.600006103515625</ele>
        <time>2018-09-02T11:05:40.000Z</time>
      </trkpt>
      <trkpt lat="43.28981322236359119415283203125" lon="-2.10494306869804859161376953125">
        <ele>270.399993896484375</ele>
        <time>2018-09-02T11:05:43.000Z</time>
      </trkpt>
      <trkpt lat="43.28978019766509532928466796875" lon="-2.10500727407634258270263671875">
        <ele>270</ele>
        <time>2018-09-02T11:05:47.000Z</time>
      </trkpt>
      <trkpt lat="43.2897630147635936737060546875" lon="-2.10508120246231555938720703125">
        <ele>269.399993896484375</ele>
        <time>2018-09-02T11:05:49.000Z</time>
      </trkpt>
      <trkpt lat="43.28974784351885318756103515625" lon="-2.1051580645143985748291015625">
        <ele>268.399993896484375</ele>
        <time>2018-09-02T11:05:51.000Z</time>
      </trkpt>
      <trkpt lat="43.2897603325545787811279296875" lon="-2.1052402071654796600341796875">
        <ele>267.399993896484375</ele>
        <time>2018-09-02T11:05:54.000Z</time>
      </trkpt>
      <trkpt lat="43.28976226039230823516845703125" lon="-2.10526593960821628570556640625">
        <ele>267</ele>
        <time>2018-09-02T11:05:55.000Z</time>
      </trkpt>
      <trkpt lat="43.28975756652653217315673828125" lon="-2.10537708364427089691162109375">
        <ele>266</ele>
        <time>2018-09-02T11:05:59.000Z</time>
      </trkpt>
      <trkpt lat="43.28977567143738269805908203125" lon="-2.10544195957481861114501953125">
        <ele>265.79998779296875</ele>
        <time>2018-09-02T11:06:01.000Z</time>
      </trkpt>
      <trkpt lat="43.28981070779263973236083984375" lon="-2.1055842004716396331787109375">
        <ele>264.79998779296875</ele>
        <time>2018-09-02T11:06:05.000Z</time>
      </trkpt>
      <trkpt lat="43.2898240350186824798583984375" lon="-2.105643041431903839111328125">
        <ele>264.399993896484375</ele>
        <time>2018-09-02T11:06:07.000Z</time>
      </trkpt>
      <trkpt lat="43.28984658233821392059326171875" lon="-2.10572141222655773162841796875">
        <ele>264</ele>
        <time>2018-09-02T11:06:10.000Z</time>
      </trkpt>
      <trkpt lat="43.28985479660332202911376953125" lon="-2.105745971202850341796875">
        <ele>263.600006103515625</ele>
        <time>2018-09-02T11:06:11.000Z</time>
      </trkpt>
      <trkpt lat="43.2898716442286968231201171875" lon="-2.10579617880284786224365234375">
        <ele>263</ele>
        <time>2018-09-02T11:06:13.000Z</time>
      </trkpt>
      <trkpt lat="43.28989016823470592498779296875" lon="-2.105849571526050567626953125">
        <ele>262.79998779296875</ele>
        <time>2018-09-02T11:06:15.000Z</time>
      </trkpt>
      <trkpt lat="43.28989771194756031036376953125" lon="-2.10587161593139171600341796875">
        <ele>262.20001220703125</ele>
        <time>2018-09-02T11:06:16.000Z</time>
      </trkpt>
      <trkpt lat="43.28992017544806003570556640625" lon="-2.1059323847293853759765625">
        <ele>261.399993896484375</ele>
        <time>2018-09-02T11:06:19.000Z</time>
      </trkpt>
      <trkpt lat="43.28992671333253383636474609375" lon="-2.1059560216963291168212890625">
        <ele>261.20001220703125</ele>
        <time>2018-09-02T11:06:20.000Z</time>
      </trkpt>
      <trkpt lat="43.289932496845722198486328125" lon="-2.10602818988263607025146484375">
        <ele>259.79998779296875</ele>
        <time>2018-09-02T11:06:24.000Z</time>
      </trkpt>
      <trkpt lat="43.2899480871856212615966796875" lon="-2.1060837619006633758544921875">
        <ele>258.600006103515625</ele>
        <time>2018-09-02T11:06:26.000Z</time>
      </trkpt>
      <trkpt lat="43.28995487652719020843505859375" lon="-2.10614360868930816650390625">
        <ele>257.600006103515625</ele>
        <time>2018-09-02T11:06:28.000Z</time>
      </trkpt>
      <trkpt lat="43.2899531163275241851806640625" lon="-2.106167413294315338134765625">
        <ele>257</ele>
        <time>2018-09-02T11:06:29.000Z</time>
      </trkpt>
      <trkpt lat="43.289943225681781768798828125" lon="-2.10621342994272708892822265625">
        <ele>256.20001220703125</ele>
        <time>2018-09-02T11:06:31.000Z</time>
      </trkpt>
      <trkpt lat="43.28992436639964580535888671875" lon="-2.10628635250031948089599609375">
        <ele>255.600006103515625</ele>
        <time>2018-09-02T11:06:34.000Z</time>
      </trkpt>
      <trkpt lat="43.28991548158228397369384765625" lon="-2.10631183348596096038818359375">
        <ele>255.1999969482421875</ele>
        <time>2018-09-02T11:06:35.000Z</time>
      </trkpt>
      <trkpt lat="43.289900980889797210693359375" lon="-2.10633848793804645538330078125">
        <ele>255</ele>
        <time>2018-09-02T11:06:36.000Z</time>
      </trkpt>
      <trkpt lat="43.2898766733705997467041015625" lon="-2.10640420205891132354736328125">
        <ele>254.1999969482421875</ele>
        <time>2018-09-02T11:06:39.000Z</time>
      </trkpt>
      <trkpt lat="43.28986703418195247650146484375" lon="-2.106422893702983856201171875">
        <ele>253.600006103515625</ele>
        <time>2018-09-02T11:06:40.000Z</time>
      </trkpt>
      <trkpt lat="43.28983484767377376556396484375" lon="-2.10651048459112644195556640625">
        <ele>252.399993896484375</ele>
        <time>2018-09-02T11:06:44.000Z</time>
      </trkpt>
      <trkpt lat="43.28982462175190448760986328125" lon="-2.10656027309596538543701171875">
        <ele>252.600006103515625</ele>
        <time>2018-09-02T11:06:46.000Z</time>
      </trkpt>
      <trkpt lat="43.28979813493788242340087890625" lon="-2.10663051344454288482666015625">
        <ele>251.1999969482421875</ele>
        <time>2018-09-02T11:06:49.000Z</time>
      </trkpt>
      <trkpt lat="43.28978975303471088409423828125" lon="-2.106650881469249725341796875">
        <ele>251.1999969482421875</ele>
        <time>2018-09-02T11:06:50.000Z</time>
      </trkpt>
      <trkpt lat="43.2897774316370487213134765625" lon="-2.10668868385255336761474609375">
        <ele>250.600006103515625</ele>
        <time>2018-09-02T11:06:52.000Z</time>
      </trkpt>
      <trkpt lat="43.28976946882903575897216796875" lon="-2.10671089589595794677734375">
        <ele>250.1999969482421875</ele>
        <time>2018-09-02T11:06:53.000Z</time>
      </trkpt>
      <trkpt lat="43.2897512800991535186767578125" lon="-2.1067687310278415679931640625">
        <ele>249.399993896484375</ele>
        <time>2018-09-02T11:06:56.000Z</time>
      </trkpt>
      <trkpt lat="43.28974331729114055633544921875" lon="-2.1067915298044681549072265625">
        <ele>249</ele>
        <time>2018-09-02T11:06:57.000Z</time>
      </trkpt>
      <trkpt lat="43.289711885154247283935546875" lon="-2.10689856670796871185302734375">
        <ele>248</ele>
        <time>2018-09-02T11:07:02.000Z</time>
      </trkpt>
      <trkpt lat="43.2896895892918109893798828125" lon="-2.10696277208626270294189453125">
        <ele>246.600006103515625</ele>
        <time>2018-09-02T11:07:05.000Z</time>
      </trkpt>
      <trkpt lat="43.28962630592286586761474609375" lon="-2.1071542985737323760986328125">
        <ele>243.600006103515625</ele>
        <time>2018-09-02T11:07:14.000Z</time>
      </trkpt>
      <trkpt lat="43.28959847800433635711669921875" lon="-2.10722629912197589874267578125">
        <ele>242.600006103515625</ele>
        <time>2018-09-02T11:07:17.000Z</time>
      </trkpt>
      <trkpt lat="43.2895673811435699462890625" lon="-2.10730911232531070709228515625">
        <ele>241.1999969482421875</ele>
        <time>2018-09-02T11:07:21.000Z</time>
      </trkpt>
      <trkpt lat="43.28955556266009807586669921875" lon="-2.1073668636381626129150390625">
        <ele>239.8000030517578125</ele>
        <time>2018-09-02T11:07:24.000Z</time>
      </trkpt>
      <trkpt lat="43.28953712247312068939208984375" lon="-2.1074359305202960968017578125">
        <ele>238.399993896484375</ele>
        <time>2018-09-02T11:07:27.000Z</time>
      </trkpt>
      <trkpt lat="43.289526142179965972900390625" lon="-2.10748010315001010894775390625">
        <ele>237</ele>
        <time>2018-09-02T11:07:29.000Z</time>
      </trkpt>
      <trkpt lat="43.28951516188681125640869140625" lon="-2.10759091190993785858154296875">
        <ele>235.399993896484375</ele>
        <time>2018-09-02T11:07:33.000Z</time>
      </trkpt>
      <trkpt lat="43.28951231203973293304443359375" lon="-2.1076558716595172882080078125">
        <ele>234.399993896484375</ele>
        <time>2018-09-02T11:07:35.000Z</time>
      </trkpt>
      <trkpt lat="43.289511390030384063720703125" lon="-2.10769803263247013092041015625">
        <ele>234</ele>
        <time>2018-09-02T11:07:36.000Z</time>
      </trkpt>
      <trkpt lat="43.2895105518400669097900390625" lon="-2.10784153081476688385009765625">
        <ele>232.600006103515625</ele>
        <time>2018-09-02T11:07:40.000Z</time>
      </trkpt>
      <trkpt lat="43.28955656848847866058349609375" lon="-2.10801067762076854705810546875">
        <ele>231.1999969482421875</ele>
        <time>2018-09-02T11:07:44.000Z</time>
      </trkpt>
      <trkpt lat="43.28956277109682559967041015625" lon="-2.10805468261241912841796875">
        <ele>230.600006103515625</ele>
        <time>2018-09-02T11:07:45.000Z</time>
      </trkpt>
      <trkpt lat="43.2895732484757900238037109375" lon="-2.10810991935431957244873046875">
        <ele>230</ele>
        <time>2018-09-02T11:07:47.000Z</time>
      </trkpt>
      <trkpt lat="43.28956411220133304595947265625" lon="-2.108178399503231048583984375">
        <ele>230</ele>
        <time>2018-09-02T11:07:49.000Z</time>
      </trkpt>
      <trkpt lat="43.28954349271953105926513671875" lon="-2.10823279805481433868408203125">
        <ele>230</ele>
        <time>2018-09-02T11:07:51.000Z</time>
      </trkpt>
      <trkpt lat="43.28951784409582614898681640625" lon="-2.10831561125814914703369140625">
        <ele>230.399993896484375</ele>
        <time>2018-09-02T11:07:54.000Z</time>
      </trkpt>
      <trkpt lat="43.28943888656795024871826171875" lon="-2.10846095345914363861083984375">
        <ele>230.1999969482421875</ele>
        <time>2018-09-02T11:08:00.000Z</time>
      </trkpt>
      <trkpt lat="43.2893804647028446197509765625" lon="-2.10854510776698589324951171875">
        <ele>229.600006103515625</ele>
        <time>2018-09-02T11:08:04.000Z</time>
      </trkpt>
      <trkpt lat="43.2893620245158672332763671875" lon="-2.1085671521723270416259765625">
        <ele>229.399993896484375</ele>
        <time>2018-09-02T11:08:05.000Z</time>
      </trkpt>
      <trkpt lat="43.289342410862445831298828125" lon="-2.1085899509489536285400390625">
        <ele>229</ele>
        <time>2018-09-02T11:08:06.000Z</time>
      </trkpt>
      <trkpt lat="43.28929421491920948028564453125" lon="-2.108630351722240447998046875">
        <ele>228.399993896484375</ele>
        <time>2018-09-02T11:08:08.000Z</time>
      </trkpt>
      <trkpt lat="43.28927091322839260101318359375" lon="-2.10865189321339130401611328125">
        <ele>228</ele>
        <time>2018-09-02T11:08:09.000Z</time>
      </trkpt>
      <trkpt lat="43.28924677334725856781005859375" lon="-2.10867402143776416778564453125">
        <ele>227.399993896484375</ele>
        <time>2018-09-02T11:08:10.000Z</time>
      </trkpt>
      <trkpt lat="43.289204947650432586669921875" lon="-2.1087287552654743194580078125">
        <ele>226.8000030517578125</ele>
        <time>2018-09-02T11:08:12.000Z</time>
      </trkpt>
      <trkpt lat="43.28916127793490886688232421875" lon="-2.10883109830319881439208984375">
        <ele>225.8000030517578125</ele>
        <time>2018-09-02T11:08:15.000Z</time>
      </trkpt>
      <trkpt lat="43.28915557824075222015380859375" lon="-2.108869068324565887451171875">
        <ele>225.600006103515625</ele>
        <time>2018-09-02T11:08:16.000Z</time>
      </trkpt>
      <trkpt lat="43.28912842087447643280029296875" lon="-2.1089738421142101287841796875">
        <ele>224.399993896484375</ele>
        <time>2018-09-02T11:08:19.000Z</time>
      </trkpt>
      <trkpt lat="43.28909690491855144500732421875" lon="-2.1090579964220523834228515625">
        <ele>223.1999969482421875</ele>
        <time>2018-09-02T11:08:21.000Z</time>
      </trkpt>
      <trkpt lat="43.28908416442573070526123046875" lon="-2.10910183377563953399658203125">
        <ele>223</ele>
        <time>2018-09-02T11:08:22.000Z</time>
      </trkpt>
      <trkpt lat="43.28905935399234294891357421875" lon="-2.1091786958277225494384765625">
        <ele>222</ele>
        <time>2018-09-02T11:08:24.000Z</time>
      </trkpt>
      <trkpt lat="43.28904929570853710174560546875" lon="-2.1092470921576023101806640625">
        <ele>220.8000030517578125</ele>
        <time>2018-09-02T11:08:26.000Z</time>
      </trkpt>
      <trkpt lat="43.28903420828282833099365234375" lon="-2.1093138121068477630615234375">
        <ele>220.1999969482421875</ele>
        <time>2018-09-02T11:08:28.000Z</time>
      </trkpt>
      <trkpt lat="43.28902398236095905303955078125" lon="-2.109383046627044677734375">
        <ele>219.399993896484375</ele>
        <time>2018-09-02T11:08:30.000Z</time>
      </trkpt>
      <trkpt lat="43.2890180312097072601318359375" lon="-2.10944146849215030670166015625">
        <ele>218.1999969482421875</ele>
        <time>2018-09-02T11:08:32.000Z</time>
      </trkpt>
      <trkpt lat="43.2890103198587894439697265625" lon="-2.10949796251952648162841796875">
        <ele>217.1999969482421875</ele>
        <time>2018-09-02T11:08:34.000Z</time>
      </trkpt>
      <trkpt lat="43.28900889493525028228759765625" lon="-2.10952646099030971527099609375">
        <ele>216.8000030517578125</ele>
        <time>2018-09-02T11:08:35.000Z</time>
      </trkpt>
      <trkpt lat="43.28901124186813831329345703125" lon="-2.1096065081655979156494140625">
        <ele>215.8000030517578125</ele>
        <time>2018-09-02T11:08:38.000Z</time>
      </trkpt>
      <trkpt lat="43.28901107423007488250732421875" lon="-2.1096633374691009521484375">
        <ele>213.8000030517578125</ele>
        <time>2018-09-02T11:08:40.000Z</time>
      </trkpt>
      <trkpt lat="43.289007134735584259033203125" lon="-2.10972410626709461212158203125">
        <ele>213.1999969482421875</ele>
        <time>2018-09-02T11:08:42.000Z</time>
      </trkpt>
      <trkpt lat="43.2890026085078716278076171875" lon="-2.10975931026041507720947265625">
        <ele>212.600006103515625</ele>
        <time>2018-09-02T11:08:43.000Z</time>
      </trkpt>
      <trkpt lat="43.28899682499468326568603515625" lon="-2.1098753996193408966064453125">
        <ele>211.399993896484375</ele>
        <time>2018-09-02T11:08:46.000Z</time>
      </trkpt>
      <trkpt lat="43.28897134400904178619384765625" lon="-2.1099964343011379241943359375">
        <ele>210.399993896484375</ele>
        <time>2018-09-02T11:08:49.000Z</time>
      </trkpt>
      <trkpt lat="43.2889271713793277740478515625" lon="-2.1100611425936222076416015625">
        <ele>210</ele>
        <time>2018-09-02T11:08:51.000Z</time>
      </trkpt>
      <trkpt lat="43.288876712322235107421875" lon="-2.11011151783168315887451171875">
        <ele>209.1999969482421875</ele>
        <time>2018-09-02T11:08:53.000Z</time>
      </trkpt>
      <trkpt lat="43.28877235762774944305419921875" lon="-2.110210843384265899658203125">
        <ele>208.1999969482421875</ele>
        <time>2018-09-02T11:08:57.000Z</time>
      </trkpt>
      <trkpt lat="43.2886822521686553955078125" lon="-2.11026205681264400482177734375">
        <ele>207.1999969482421875</ele>
        <time>2018-09-02T11:09:00.000Z</time>
      </trkpt>
      <trkpt lat="43.28862802125513553619384765625" lon="-2.11029164493083953857421875">
        <ele>207</ele>
        <time>2018-09-02T11:09:02.000Z</time>
      </trkpt>
      <trkpt lat="43.28860136680305004119873046875" lon="-2.11030145175755023956298828125">
        <ele>206.8000030517578125</ele>
        <time>2018-09-02T11:09:03.000Z</time>
      </trkpt>
      <trkpt lat="43.288549147546291351318359375" lon="-2.1103338897228240966796875">
        <ele>206</ele>
        <time>2018-09-02T11:09:05.000Z</time>
      </trkpt>
      <trkpt lat="43.288440518081188201904296875" lon="-2.11042667739093303680419921875">
        <ele>205.600006103515625</ele>
        <time>2018-09-02T11:09:09.000Z</time>
      </trkpt>
      <trkpt lat="43.28837580978870391845703125" lon="-2.1104886196553707122802734375">
        <ele>204.600006103515625</ele>
        <time>2018-09-02T11:09:11.000Z</time>
      </trkpt>
      <trkpt lat="43.2883377559483051300048828125" lon="-2.11054435931146144866943359375">
        <ele>204.1999969482421875</ele>
        <time>2018-09-02T11:09:14.000Z</time>
      </trkpt>
      <trkpt lat="43.28822703100740909576416015625" lon="-2.1107487939298152923583984375">
        <ele>203</ele>
        <time>2018-09-02T11:09:29.000Z</time>
      </trkpt>
      <trkpt lat="43.2882046513259410858154296875" lon="-2.11080394685268402099609375">
        <ele>202.600006103515625</ele>
        <time>2018-09-02T11:09:31.000Z</time>
      </trkpt>
      <trkpt lat="43.2881885580718517303466796875" lon="-2.11086337454617023468017578125">
        <ele>202.1999969482421875</ele>
        <time>2018-09-02T11:09:33.000Z</time>
      </trkpt>
      <trkpt lat="43.2881741411983966827392578125" lon="-2.11089304648339748382568359375">
        <ele>201.8000030517578125</ele>
        <time>2018-09-02T11:09:34.000Z</time>
      </trkpt>
      <trkpt lat="43.28813047148287296295166015625" lon="-2.11100150831043720245361328125">
        <ele>201</ele>
        <time>2018-09-02T11:09:37.000Z</time>
      </trkpt>
      <trkpt lat="43.2881168089807033538818359375" lon="-2.11103905923664569854736328125">
        <ele>200.600006103515625</ele>
        <time>2018-09-02T11:09:38.000Z</time>
      </trkpt>
      <trkpt lat="43.2880752347409725189208984375" lon="-2.11120602674782276153564453125">
        <ele>199.399993896484375</ele>
        <time>2018-09-02T11:09:42.000Z</time>
      </trkpt>
      <trkpt lat="43.28805922530591487884521484375" lon="-2.111260592937469482421875">
        <ele>199.1999969482421875</ele>
        <time>2018-09-02T11:09:44.000Z</time>
      </trkpt>
      <trkpt lat="43.28803240321576595306396484375" lon="-2.11136159487068653106689453125">
        <ele>198.1999969482421875</ele>
        <time>2018-09-02T11:09:47.000Z</time>
      </trkpt>
      <trkpt lat="43.28801748342812061309814453125" lon="-2.11142697371542453765869140625">
        <ele>197.399993896484375</ele>
        <time>2018-09-02T11:09:49.000Z</time>
      </trkpt>
      <trkpt lat="43.28801094554364681243896484375" lon="-2.11146217770874500274658203125">
        <ele>197</ele>
        <time>2018-09-02T11:09:50.000Z</time>
      </trkpt>
      <trkpt lat="43.28799501992762088775634765625" lon="-2.1115464158356189727783203125">
        <ele>196</ele>
        <time>2018-09-02T11:09:52.000Z</time>
      </trkpt>
      <trkpt lat="43.287984542548656463623046875" lon="-2.11167700588703155517578125">
        <ele>195.600006103515625</ele>
        <time>2018-09-02T11:09:55.000Z</time>
      </trkpt>
      <trkpt lat="43.28798831440508365631103515625" lon="-2.11179996840655803680419921875">
        <ele>194.8000030517578125</ele>
        <time>2018-09-02T11:09:58.000Z</time>
      </trkpt>
      <trkpt lat="43.2880122028291225433349609375" lon="-2.11194229312241077423095703125">
        <ele>194.399993896484375</ele>
        <time>2018-09-02T11:10:01.000Z</time>
      </trkpt>
      <trkpt lat="43.2880376838147640228271484375" lon="-2.11210490204393863677978515625">
        <ele>193.8000030517578125</ele>
        <time>2018-09-02T11:10:04.000Z</time>
      </trkpt>
      <trkpt lat="43.2880638353526592254638671875" lon="-2.1122588776051998138427734375">
        <ele>193.399993896484375</ele>
        <time>2018-09-02T11:10:07.000Z</time>
      </trkpt>
      <trkpt lat="43.28805034048855304718017578125" lon="-2.1124137751758098602294921875">
        <ele>193.399993896484375</ele>
        <time>2018-09-02T11:10:10.000Z</time>
      </trkpt>
      <trkpt lat="43.28803894110023975372314453125" lon="-2.11244068108499050140380859375">
        <ele>193.399993896484375</ele>
        <time>2018-09-02T11:10:11.000Z</time>
      </trkpt>
      <trkpt lat="43.2879768311977386474609375" lon="-2.11252533830702304840087890625">
        <ele>193.399993896484375</ele>
        <time>2018-09-02T11:10:16.000Z</time>
      </trkpt>
      <trkpt lat="43.2878754101693630218505859375" lon="-2.11263396777212619781494140625">
        <ele>193.1999969482421875</ele>
        <time>2018-09-02T11:10:47.000Z</time>
      </trkpt>
      <trkpt lat="43.28785386867821216583251953125" lon="-2.1126511506736278533935546875">
        <ele>193</ele>
        <time>2018-09-02T11:10:48.000Z</time>
      </trkpt>
      <trkpt lat="43.28783811070024967193603515625" lon="-2.11267269216477870941162109375">
        <ele>192.8000030517578125</ele>
        <time>2018-09-02T11:10:49.000Z</time>
      </trkpt>
      <trkpt lat="43.28781765885651111602783203125" lon="-2.112683840095996856689453125">
        <ele>192.600006103515625</ele>
        <time>2018-09-02T11:10:50.000Z</time>
      </trkpt>
      <trkpt lat="43.287793099880218505859375" lon="-2.11270052008330821990966796875">
        <ele>192.399993896484375</ele>
        <time>2018-09-02T11:10:51.000Z</time>
      </trkpt>
      <trkpt lat="43.28773342072963714599609375" lon="-2.11273337714374065399169921875">
        <ele>191.600006103515625</ele>
        <time>2018-09-02T11:10:53.000Z</time>
      </trkpt>
      <trkpt lat="43.28769913874566555023193359375" lon="-2.1127520687878131866455078125">
        <ele>191.1999969482421875</ele>
        <time>2018-09-02T11:10:54.000Z</time>
      </trkpt>
      <trkpt lat="43.2875847257673740386962890625" lon="-2.11280881427228450775146484375">
        <ele>190</ele>
        <time>2018-09-02T11:10:58.000Z</time>
      </trkpt>
      <trkpt lat="43.2875656150281429290771484375" lon="-2.1128201298415660858154296875">
        <ele>189.8000030517578125</ele>
        <time>2018-09-02T11:10:59.000Z</time>
      </trkpt>
      <trkpt lat="43.2875153236091136932373046875" lon="-2.11283664219081401824951171875">
        <ele>188.8000030517578125</ele>
        <time>2018-09-02T11:11:02.000Z</time>
      </trkpt>
      <trkpt lat="43.28748020343482494354248046875" lon="-2.11285122670233249664306640625">
        <ele>187.8000030517578125</ele>
        <time>2018-09-02T11:11:04.000Z</time>
      </trkpt>
      <trkpt lat="43.28744214959442615509033203125" lon="-2.11285189725458621978759765625">
        <ele>186.600006103515625</ele>
        <time>2018-09-02T11:11:07.000Z</time>
      </trkpt>
      <trkpt lat="43.2874190993607044219970703125" lon="-2.11285583674907684326171875">
        <ele>185.8000030517578125</ele>
        <time>2018-09-02T11:11:09.000Z</time>
      </trkpt>
      <trkpt lat="43.2874050177633762359619140625" lon="-2.112858183681964874267578125">
        <ele>185.399993896484375</ele>
        <time>2018-09-02T11:11:10.000Z</time>
      </trkpt>
      <trkpt lat="43.28734961338341236114501953125" lon="-2.1128549985587596893310546875">
        <ele>184.1999969482421875</ele>
        <time>2018-09-02T11:11:14.000Z</time>
      </trkpt>
      <trkpt lat="43.28732178546488285064697265625" lon="-2.11285374127328395843505859375">
        <ele>183.399993896484375</ele>
        <time>2018-09-02T11:11:16.000Z</time>
      </trkpt>
      <trkpt lat="43.28730870969593524932861328125" lon="-2.11285742931067943572998046875">
        <ele>183</ele>
        <time>2018-09-02T11:11:17.000Z</time>
      </trkpt>
      <trkpt lat="43.28725238330662250518798828125" lon="-2.11287327110767364501953125">
        <ele>181.8000030517578125</ele>
        <time>2018-09-02T11:11:20.000Z</time>
      </trkpt>
      <trkpt lat="43.287187926471233367919921875" lon="-2.11289715953171253204345703125">
        <ele>181.399993896484375</ele>
        <time>2018-09-02T11:11:23.000Z</time>
      </trkpt>
      <trkpt lat="43.28711743466556072235107421875" lon="-2.11290503852069377899169921875">
        <ele>180.399993896484375</ele>
        <time>2018-09-02T11:11:26.000Z</time>
      </trkpt>
      <trkpt lat="43.28706345520913600921630859375" lon="-2.1128962375223636627197265625">
        <ele>178.600006103515625</ele>
        <time>2018-09-02T11:11:29.000Z</time>
      </trkpt>
      <trkpt lat="43.2870043627917766571044921875" lon="-2.1128999255597591400146484375">
        <ele>177.600006103515625</ele>
        <time>2018-09-02T11:11:32.000Z</time>
      </trkpt>
      <trkpt lat="43.2869607768952846527099609375" lon="-2.11291006766259670257568359375">
        <ele>176.399993896484375</ele>
        <time>2018-09-02T11:11:34.000Z</time>
      </trkpt>
      <trkpt lat="43.286935798823833465576171875" lon="-2.112909145653247833251953125">
        <ele>175.600006103515625</ele>
        <time>2018-09-02T11:11:35.000Z</time>
      </trkpt>
      <trkpt lat="43.2869131676852703094482421875" lon="-2.1129103191196918487548828125">
        <ele>174.600006103515625</ele>
        <time>2018-09-02T11:11:36.000Z</time>
      </trkpt>
      <trkpt lat="43.2868900336325168609619140625" lon="-2.11290906183421611785888671875">
        <ele>173.8000030517578125</ele>
        <time>2018-09-02T11:11:37.000Z</time>
      </trkpt>
      <trkpt lat="43.28686798922717571258544921875" lon="-2.1129106543958187103271484375">
        <ele>173.399993896484375</ele>
        <time>2018-09-02T11:11:38.000Z</time>
      </trkpt>
      <trkpt lat="43.28681484796106815338134765625" lon="-2.112907804548740386962890625">
        <ele>172.1999969482421875</ele>
        <time>2018-09-02T11:11:40.000Z</time>
      </trkpt>
      <trkpt lat="43.2867384888231754302978515625" lon="-2.1129039488732814788818359375">
        <ele>170.600006103515625</ele>
        <time>2018-09-02T11:11:42.000Z</time>
      </trkpt>
      <trkpt lat="43.286659531295299530029296875" lon="-2.112906463444232940673828125">
        <ele>169.399993896484375</ele>
        <time>2018-09-02T11:11:44.000Z</time>
      </trkpt>
      <trkpt lat="43.286597169935703277587890625" lon="-2.112885676324367523193359375">
        <ele>168.399993896484375</ele>
        <time>2018-09-02T11:11:46.000Z</time>
      </trkpt>
      <trkpt lat="43.28656263649463653564453125" lon="-2.11287553422152996063232421875">
        <ele>168</ele>
        <time>2018-09-02T11:11:47.000Z</time>
      </trkpt>
      <trkpt lat="43.28649432398378849029541015625" lon="-2.11285851895809173583984375">
        <ele>167</ele>
        <time>2018-09-02T11:11:49.000Z</time>
      </trkpt>
      <trkpt lat="43.28641586937010288238525390625" lon="-2.11283974349498748779296875">
        <ele>166.1999969482421875</ele>
        <time>2018-09-02T11:11:51.000Z</time>
      </trkpt>
      <trkpt lat="43.2863713614642620086669921875" lon="-2.11282557807862758636474609375">
        <ele>166</ele>
        <time>2018-09-02T11:11:52.000Z</time>
      </trkpt>
      <trkpt lat="43.28629567287862300872802734375" lon="-2.11281551979482173919677734375">
        <ele>164.600006103515625</ele>
        <time>2018-09-02T11:11:54.000Z</time>
      </trkpt>
      <trkpt lat="43.286252506077289581298828125" lon="-2.112819291651248931884765625">
        <ele>164.1999969482421875</ele>
        <time>2018-09-02T11:11:55.000Z</time>
      </trkpt>
      <trkpt lat="43.28616793267428874969482421875" lon="-2.11283035576343536376953125">
        <ele>163.1999969482421875</ele>
        <time>2018-09-02T11:11:57.000Z</time>
      </trkpt>
      <trkpt lat="43.28605108894407749176025390625" lon="-2.1128667332231998443603515625">
        <ele>162</ele>
        <time>2018-09-02T11:12:00.000Z</time>
      </trkpt>
      <trkpt lat="43.2860129512846469879150390625" lon="-2.11287771351635456085205078125">
        <ele>161.600006103515625</ele>
        <time>2018-09-02T11:12:01.000Z</time>
      </trkpt>
      <trkpt lat="43.28590440563857555389404296875" lon="-2.11289263330399990081787109375">
        <ele>160.600006103515625</ele>
        <time>2018-09-02T11:12:04.000Z</time>
      </trkpt>
      <trkpt lat="43.28581220470368862152099609375" lon="-2.11292884312570095062255859375">
        <ele>159.600006103515625</ele>
        <time>2018-09-02T11:12:07.000Z</time>
      </trkpt>
      <trkpt lat="43.28578420914709568023681640625" lon="-2.11294158361852169036865234375">
        <ele>159.1999969482421875</ele>
        <time>2018-09-02T11:12:08.000Z</time>
      </trkpt>
      <trkpt lat="43.2856971211731433868408203125" lon="-2.1129676513373851776123046875">
        <ele>158.399993896484375</ele>
        <time>2018-09-02T11:12:11.000Z</time>
      </trkpt>
      <trkpt lat="43.28564842231571674346923828125" lon="-2.11298718117177486419677734375">
        <ele>157.600006103515625</ele>
        <time>2018-09-02T11:12:13.000Z</time>
      </trkpt>
      <trkpt lat="43.285596370697021484375" lon="-2.11302322335541248321533203125">
        <ele>157.1999969482421875</ele>
        <time>2018-09-02T11:12:15.000Z</time>
      </trkpt>
      <trkpt lat="43.2855485938489437103271484375" lon="-2.11305926553905010223388671875">
        <ele>155.8000030517578125</ele>
        <time>2018-09-02T11:12:17.000Z</time>
      </trkpt>
      <trkpt lat="43.28553074039518833160400390625" lon="-2.11307309567928314208984375">
        <ele>155.399993896484375</ele>
        <time>2018-09-02T11:12:18.000Z</time>
      </trkpt>
      <trkpt lat="43.28549302183091640472412109375" lon="-2.11310737766325473785400390625">
        <ele>154.600006103515625</ele>
        <time>2018-09-02T11:12:20.000Z</time>
      </trkpt>
      <trkpt lat="43.28544474206864833831787109375" lon="-2.11315901018679141998291015625">
        <ele>153.1999969482421875</ele>
        <time>2018-09-02T11:12:23.000Z</time>
      </trkpt>
      <trkpt lat="43.2854340970516204833984375" lon="-2.11317761801183223724365234375">
        <ele>152.8000030517578125</ele>
        <time>2018-09-02T11:12:24.000Z</time>
      </trkpt>
      <trkpt lat="43.2854084484279155731201171875" lon="-2.1132110618054866790771484375">
        <ele>152.1999969482421875</ele>
        <time>2018-09-02T11:12:26.000Z</time>
      </trkpt>
      <trkpt lat="43.28538891859352588653564453125" lon="-2.1132258139550685882568359375">
        <ele>152</ele>
        <time>2018-09-02T11:12:27.000Z</time>
      </trkpt>
      <trkpt lat="43.285355307161808013916015625" lon="-2.1132590062916278839111328125">
        <ele>151.399993896484375</ele>
        <time>2018-09-02T11:12:29.000Z</time>
      </trkpt>
      <trkpt lat="43.2853293232619762420654296875" lon="-2.113302089273929595947265625">
        <ele>150.8000030517578125</ele>
        <time>2018-09-02T11:12:32.000Z</time>
      </trkpt>
      <trkpt lat="43.2853031717240810394287109375" lon="-2.11334860883653163909912109375">
        <ele>150.1999969482421875</ele>
        <time>2018-09-02T11:12:34.000Z</time>
      </trkpt>
      <trkpt lat="43.285258077085018157958984375" lon="-2.113422118127346038818359375">
        <ele>149.600006103515625</ele>
        <time>2018-09-02T11:12:37.000Z</time>
      </trkpt>
      <trkpt lat="43.28523695468902587890625" lon="-2.113461010158061981201171875">
        <ele>149.399993896484375</ele>
        <time>2018-09-02T11:12:39.000Z</time>
      </trkpt>
      <trkpt lat="43.28520418144762516021728515625" lon="-2.11353401653468608856201171875">
        <ele>148.600006103515625</ele>
        <time>2018-09-02T11:12:42.000Z</time>
      </trkpt>
      <trkpt lat="43.28517350368201732635498046875" lon="-2.1135828830301761627197265625">
        <ele>148.1999969482421875</ele>
        <time>2018-09-02T11:12:44.000Z</time>
      </trkpt>
      <trkpt lat="43.28515841625630855560302734375" lon="-2.11360610090196132659912109375">
        <ele>147.600006103515625</ele>
        <time>2018-09-02T11:12:45.000Z</time>
      </trkpt>
      <trkpt lat="43.28511198051273822784423828125" lon="-2.1136705577373504638671875">
        <ele>146.399993896484375</ele>
        <time>2018-09-02T11:12:47.000Z</time>
      </trkpt>
      <trkpt lat="43.2850748486816883087158203125" lon="-2.1137340925633907318115234375">
        <ele>145.600006103515625</ele>
        <time>2018-09-02T11:12:49.000Z</time>
      </trkpt>
      <trkpt lat="43.28505330719053745269775390625" lon="-2.1137716434895992279052734375">
        <ele>145.399993896484375</ele>
        <time>2018-09-02T11:12:50.000Z</time>
      </trkpt>
      <trkpt lat="43.28499748371541500091552734375" lon="-2.11383375339210033416748046875">
        <ele>143.8000030517578125</ele>
        <time>2018-09-02T11:12:52.000Z</time>
      </trkpt>
      <trkpt lat="43.28493160195648670196533203125" lon="-2.11389946751296520233154296875">
        <ele>142.600006103515625</ele>
        <time>2018-09-02T11:12:54.000Z</time>
      </trkpt>
      <trkpt lat="43.2849015109241008758544921875" lon="-2.11392377503216266632080078125">
        <ele>142</ele>
        <time>2018-09-02T11:12:55.000Z</time>
      </trkpt>
      <trkpt lat="43.2848654687404632568359375" lon="-2.11394959129393100738525390625">
        <ele>141.399993896484375</ele>
        <time>2018-09-02T11:12:56.000Z</time>
      </trkpt>
      <trkpt lat="43.28479640185832977294921875" lon="-2.1139946021139621734619140625">
        <ele>140.399993896484375</ele>
        <time>2018-09-02T11:12:58.000Z</time>
      </trkpt>
      <trkpt lat="43.284747116267681121826171875" lon="-2.11404682137072086334228515625">
        <ele>138.8000030517578125</ele>
        <time>2018-09-02T11:13:00.000Z</time>
      </trkpt>
      <trkpt lat="43.28470428474247455596923828125" lon="-2.11410549469292163848876953125">
        <ele>137.1999969482421875</ele>
        <time>2018-09-02T11:13:02.000Z</time>
      </trkpt>
      <trkpt lat="43.28467142768204212188720703125" lon="-2.1141535229980945587158203125">
        <ele>135.8000030517578125</ele>
        <time>2018-09-02T11:13:04.000Z</time>
      </trkpt>
      <trkpt lat="43.2846634648740291595458984375" lon="-2.11417757906019687652587890625">
        <ele>135.1999969482421875</ele>
        <time>2018-09-02T11:13:05.000Z</time>
      </trkpt>
      <trkpt lat="43.28464879654347896575927734375" lon="-2.11423558183014392852783203125">
        <ele>134.8000030517578125</ele>
        <time>2018-09-02T11:13:07.000Z</time>
      </trkpt>
      <trkpt lat="43.284645192325115203857421875" lon="-2.114256955683231353759765625">
        <ele>134.600006103515625</ele>
        <time>2018-09-02T11:13:08.000Z</time>
      </trkpt>
      <trkpt lat="43.2846319489181041717529296875" lon="-2.11429324932396411895751953125">
        <ele>134.1999969482421875</ele>
        <time>2018-09-02T11:13:10.000Z</time>
      </trkpt>
      <trkpt lat="43.28462180681526660919189453125" lon="-2.11430825293064117431640625">
        <ele>133.8000030517578125</ele>
        <time>2018-09-02T11:13:11.000Z</time>
      </trkpt>
      <trkpt lat="43.2846165262162685394287109375" lon="-2.114328704774379730224609375">
        <ele>133.399993896484375</ele>
        <time>2018-09-02T11:13:12.000Z</time>
      </trkpt>
      <trkpt lat="43.28461577184498310089111328125" lon="-2.11439249105751514434814453125">
        <ele>132</ele>
        <time>2018-09-02T11:13:15.000Z</time>
      </trkpt>
      <trkpt lat="43.28461661003530025482177734375" lon="-2.1144364960491657257080078125">
        <ele>130.8000030517578125</ele>
        <time>2018-09-02T11:13:17.000Z</time>
      </trkpt>
      <trkpt lat="43.28462281264364719390869140625" lon="-2.11451922543346881866455078125">
        <ele>130</ele>
        <time>2018-09-02T11:13:20.000Z</time>
      </trkpt>
      <trkpt lat="43.28462339937686920166015625" lon="-2.11455074138939380645751953125">
        <ele>129.399993896484375</ele>
        <time>2018-09-02T11:13:21.000Z</time>
      </trkpt>
      <trkpt lat="43.28461644239723682403564453125" lon="-2.11457504890859127044677734375">
        <ele>129</ele>
        <time>2018-09-02T11:13:22.000Z</time>
      </trkpt>
      <trkpt lat="43.28458844684064388275146484375" lon="-2.1145977638661861419677734375">
        <ele>128.399993896484375</ele>
        <time>2018-09-02T11:13:24.000Z</time>
      </trkpt>
      <trkpt lat="43.2845739461481571197509765625" lon="-2.11459985934197902679443359375">
        <ele>127.8000030517578125</ele>
        <time>2018-09-02T11:13:25.000Z</time>
      </trkpt>
      <trkpt lat="43.2845570147037506103515625" lon="-2.1145994402468204498291015625">
        <ele>127.40000152587890625</ele>
        <time>2018-09-02T11:13:26.000Z</time>
      </trkpt>
      <trkpt lat="43.28454251401126384735107421875" lon="-2.11459466256201267242431640625">
        <ele>126.8000030517578125</ele>
        <time>2018-09-02T11:13:27.000Z</time>
      </trkpt>
      <trkpt lat="43.28447948209941387176513671875" lon="-2.11457488127052783966064453125">
        <ele>125.8000030517578125</ele>
        <time>2018-09-02T11:13:31.000Z</time>
      </trkpt>
      <trkpt lat="43.2844636403024196624755859375" lon="-2.114565409719944000244140625">
        <ele>125.59999847412109375</ele>
        <time>2018-09-02T11:13:32.000Z</time>
      </trkpt>
      <trkpt lat="43.2844468764960765838623046875" lon="-2.11455962620675563812255859375">
        <ele>125.1999969482421875</ele>
        <time>2018-09-02T11:13:33.000Z</time>
      </trkpt>
      <trkpt lat="43.28442684374749660491943359375" lon="-2.11453984491527080535888671875">
        <ele>124.59999847412109375</ele>
        <time>2018-09-02T11:13:35.000Z</time>
      </trkpt>
      <trkpt lat="43.284397087991237640380859375" lon="-2.114520482718944549560546875">
        <ele>124</ele>
        <time>2018-09-02T11:13:37.000Z</time>
      </trkpt>
      <trkpt lat="43.2843845151364803314208984375" lon="-2.11450874805450439453125">
        <ele>123.59999847412109375</ele>
        <time>2018-09-02T11:13:38.000Z</time>
      </trkpt>
      <trkpt lat="43.28434637747704982757568359375" lon="-2.1144763939082622528076171875">
        <ele>122.59999847412109375</ele>
        <time>2018-09-02T11:13:41.000Z</time>
      </trkpt>
      <trkpt lat="43.28431569971144199371337890625" lon="-2.1144512481987476348876953125">
        <ele>122</ele>
        <time>2018-09-02T11:13:43.000Z</time>
      </trkpt>
      <trkpt lat="43.284288458526134490966796875" lon="-2.11442735977470874786376953125">
        <ele>121.1999969482421875</ele>
        <time>2018-09-02T11:13:45.000Z</time>
      </trkpt>
      <trkpt lat="43.2842289470136165618896484375" lon="-2.11439768783748149871826171875">
        <ele>119.8000030517578125</ele>
        <time>2018-09-02T11:13:48.000Z</time>
      </trkpt>
      <trkpt lat="43.28419382683932781219482421875" lon="-2.1143885515630245208740234375">
        <ele>118.8000030517578125</ele>
        <time>2018-09-02T11:13:50.000Z</time>
      </trkpt>
      <trkpt lat="43.28417924232780933380126953125" lon="-2.1143872104585170745849609375">
        <ele>118.1999969482421875</ele>
        <time>2018-09-02T11:13:51.000Z</time>
      </trkpt>
      <trkpt lat="43.28416340053081512451171875" lon="-2.11439299397170543670654296875">
        <ele>117.8000030517578125</ele>
        <time>2018-09-02T11:13:52.000Z</time>
      </trkpt>
      <trkpt lat="43.28414621762931346893310546875" lon="-2.11439902894198894500732421875">
        <ele>116.8000030517578125</ele>
        <time>2018-09-02T11:13:53.000Z</time>
      </trkpt>
      <trkpt lat="43.28412878327071666717529296875" lon="-2.114405818283557891845703125">
        <ele>116.1999969482421875</ele>
        <time>2018-09-02T11:13:54.000Z</time>
      </trkpt>
      <trkpt lat="43.28410581685602664947509765625" lon="-2.11440858431160449981689453125">
        <ele>115.40000152587890625</ele>
        <time>2018-09-02T11:13:55.000Z</time>
      </trkpt>
      <trkpt lat="43.284057117998600006103515625" lon="-2.11440808139741420745849609375">
        <ele>114.8000030517578125</ele>
        <time>2018-09-02T11:13:57.000Z</time>
      </trkpt>
      <trkpt lat="43.28401378355920314788818359375" lon="-2.114421240985393524169921875">
        <ele>114.40000152587890625</ele>
        <time>2018-09-02T11:13:59.000Z</time>
      </trkpt>
      <trkpt lat="43.28397832810878753662109375" lon="-2.11443968117237091064453125">
        <ele>114</ele>
        <time>2018-09-02T11:14:01.000Z</time>
      </trkpt>
      <trkpt lat="43.2839325629174709320068359375" lon="-2.11446558125317096710205078125">
        <ele>113.40000152587890625</ele>
        <time>2018-09-02T11:14:03.000Z</time>
      </trkpt>
      <trkpt lat="43.283810354769229888916015625" lon="-2.1145136095583438873291015625">
        <ele>111.59999847412109375</ele>
        <time>2018-09-02T11:14:06.000Z</time>
      </trkpt>
      <trkpt lat="43.28369560651481151580810546875" lon="-2.11454655043780803680419921875">
        <ele>109.59999847412109375</ele>
        <time>2018-09-02T11:14:08.000Z</time>
      </trkpt>
      <trkpt lat="43.2836321555078029632568359375" lon="-2.11456029675900936126708984375">
        <ele>108.40000152587890625</ele>
        <time>2018-09-02T11:14:09.000Z</time>
      </trkpt>
      <trkpt lat="43.28356568701565265655517578125" lon="-2.11457370780408382415771484375">
        <ele>107.40000152587890625</ele>
        <time>2018-09-02T11:14:10.000Z</time>
      </trkpt>
      <trkpt lat="43.28349284827709197998046875" lon="-2.1145870350301265716552734375">
        <ele>106.1999969482421875</ele>
        <time>2018-09-02T11:14:11.000Z</time>
      </trkpt>
      <trkpt lat="43.28341464512050151824951171875" lon="-2.1146058104932308197021484375">
        <ele>104.8000030517578125</ele>
        <time>2018-09-02T11:14:12.000Z</time>
      </trkpt>
      <trkpt lat="43.28333191573619842529296875" lon="-2.11463271640241146087646484375">
        <ele>103.1999969482421875</ele>
        <time>2018-09-02T11:14:13.000Z</time>
      </trkpt>
      <trkpt lat="43.28324801288545131683349609375" lon="-2.1146688424050807952880859375">
        <ele>101.40000152587890625</ele>
        <time>2018-09-02T11:14:14.000Z</time>
      </trkpt>
      <trkpt lat="43.283163942396640777587890625" lon="-2.11470647715032100677490234375">
        <ele>99.8000030517578125</ele>
        <time>2018-09-02T11:14:15.000Z</time>
      </trkpt>
      <trkpt lat="43.28307978808879852294921875" lon="-2.11474855430424213409423828125">
        <ele>98.40000152587890625</ele>
        <time>2018-09-02T11:14:16.000Z</time>
      </trkpt>
      <trkpt lat="43.2829959690570831298828125" lon="-2.114797420799732208251953125">
        <ele>96.40000152587890625</ele>
        <time>2018-09-02T11:14:17.000Z</time>
      </trkpt>
      <trkpt lat="43.2829163409769535064697265625" lon="-2.11485098116099834442138671875">
        <ele>95.40000152587890625</ele>
        <time>2018-09-02T11:14:18.000Z</time>
      </trkpt>
      <trkpt lat="43.28284299932420253753662109375" lon="-2.11490881629288196563720703125">
        <ele>94.59999847412109375</ele>
        <time>2018-09-02T11:14:19.000Z</time>
      </trkpt>
      <trkpt lat="43.28271375037729740142822265625" lon="-2.1150208823382854461669921875">
        <ele>92.59999847412109375</ele>
        <time>2018-09-02T11:14:21.000Z</time>
      </trkpt>
      <trkpt lat="43.28265189193189144134521484375" lon="-2.11508248932659626007080078125">
        <ele>92.1999969482421875</ele>
        <time>2018-09-02T11:14:22.000Z</time>
      </trkpt>
      <trkpt lat="43.28252985142171382904052734375" lon="-2.11520503275096416473388671875">
        <ele>91.40000152587890625</ele>
        <time>2018-09-02T11:14:24.000Z</time>
      </trkpt>
      <trkpt lat="43.28242130577564239501953125" lon="-2.1153132431209087371826171875">
        <ele>90</ele>
        <time>2018-09-02T11:14:26.000Z</time>
      </trkpt>
      <trkpt lat="43.282316029071807861328125" lon="-2.1154005825519561767578125">
        <ele>88.59999847412109375</ele>
        <time>2018-09-02T11:14:28.000Z</time>
      </trkpt>
      <trkpt lat="43.2822719402611255645751953125" lon="-2.11544844321906566619873046875">
        <ele>88</ele>
        <time>2018-09-02T11:14:29.000Z</time>
      </trkpt>
      <trkpt lat="43.2822404243052005767822265625" lon="-2.1155078709125518798828125">
        <ele>87.40000152587890625</ele>
        <time>2018-09-02T11:14:30.000Z</time>
      </trkpt>
      <trkpt lat="43.2822208106517791748046875" lon="-2.11557836271822452545166015625">
        <ele>87</ele>
        <time>2018-09-02T11:14:31.000Z</time>
      </trkpt>
      <trkpt lat="43.2822109200060367584228515625" lon="-2.1156508661806583404541015625">
        <ele>86.40000152587890625</ele>
        <time>2018-09-02T11:14:32.000Z</time>
      </trkpt>
      <trkpt lat="43.2821606285870075225830078125" lon="-2.11575438268482685089111328125">
        <ele>85</ele>
        <time>2018-09-02T11:14:34.000Z</time>
      </trkpt>
      <trkpt lat="43.28207957558333873748779296875" lon="-2.11576863192021846771240234375">
        <ele>83.40000152587890625</ele>
        <time>2018-09-02T11:14:36.000Z</time>
      </trkpt>
      <trkpt lat="43.28204051591455936431884765625" lon="-2.1157353557646274566650390625">
        <ele>82.8000030517578125</ele>
        <time>2018-09-02T11:14:37.000Z</time>
      </trkpt>
      <trkpt lat="43.28200832940638065338134765625" lon="-2.1156750060617923736572265625">
        <ele>82.1999969482421875</ele>
        <time>2018-09-02T11:14:38.000Z</time>
      </trkpt>
      <trkpt lat="43.28197044320404529571533203125" lon="-2.11552119813859462738037109375">
        <ele>81.1999969482421875</ele>
        <time>2018-09-02T11:14:40.000Z</time>
      </trkpt>
      <trkpt lat="43.28196072019636631011962890625" lon="-2.1154540590941905975341796875">
        <ele>79.8000030517578125</ele>
        <time>2018-09-02T11:14:41.000Z</time>
      </trkpt>
      <trkpt lat="43.2819480635225772857666015625" lon="-2.11532573215663433074951171875">
        <ele>78.40000152587890625</ele>
        <time>2018-09-02T11:14:43.000Z</time>
      </trkpt>
      <trkpt lat="43.28193440102040767669677734375" lon="-2.11527141742408275604248046875">
        <ele>77.8000030517578125</ele>
        <time>2018-09-02T11:14:44.000Z</time>
      </trkpt>
      <trkpt lat="43.2819131948053836822509765625" lon="-2.11522959172725677490234375">
        <ele>77</ele>
        <time>2018-09-02T11:14:45.000Z</time>
      </trkpt>
      <trkpt lat="43.2818729616701602935791015625" lon="-2.11517754010856151580810546875">
        <ele>75.8000030517578125</ele>
        <time>2018-09-02T11:14:47.000Z</time>
      </trkpt>
      <trkpt lat="43.2818250171840190887451171875" lon="-2.1150882728397846221923828125">
        <ele>74.59999847412109375</ele>
        <time>2018-09-02T11:14:50.000Z</time>
      </trkpt>
      <trkpt lat="43.28182409517467021942138671875" lon="-2.1150331199169158935546875">
        <ele>73.8000030517578125</ele>
        <time>2018-09-02T11:14:52.000Z</time>
      </trkpt>
      <trkpt lat="43.2818032242357730865478515625" lon="-2.1149984188377857208251953125">
        <ele>73.40000152587890625</ele>
        <time>2018-09-02T11:14:55.000Z</time>
      </trkpt>
      <trkpt lat="43.28179090283811092376708984375" lon="-2.11499213241040706634521484375">
        <ele>73.40000152587890625</ele>
        <time>2018-09-02T11:14:56.000Z</time>
      </trkpt>
      <trkpt lat="43.2817582972347736358642578125" lon="-2.11498693563044071197509765625">
        <ele>73.40000152587890625</ele>
        <time>2018-09-02T11:14:58.000Z</time>
      </trkpt>
      <trkpt lat="43.28174178488552570343017578125" lon="-2.114988863468170166015625">
        <ele>73.59999847412109375</ele>
        <time>2018-09-02T11:14:59.000Z</time>
      </trkpt>
      <trkpt lat="43.2817281223833560943603515625" lon="-2.114988528192043304443359375">
        <ele>73.59999847412109375</ele>
        <time>2018-09-02T11:15:00.000Z</time>
      </trkpt>
      <trkpt lat="43.28169836662709712982177734375" lon="-2.11498827673494815826416015625">
        <ele>73.8000030517578125</ele>
        <time>2018-09-02T11:15:02.000Z</time>
      </trkpt>
      <trkpt lat="43.28167255036532878875732421875" lon="-2.114963717758655548095703125">
        <ele>73.59999847412109375</ele>
        <time>2018-09-02T11:15:04.000Z</time>
      </trkpt>
      <trkpt lat="43.28164748847484588623046875" lon="-2.11489029228687286376953125">
        <ele>72</ele>
        <time>2018-09-02T11:15:06.000Z</time>
      </trkpt>
      <trkpt lat="43.2816335745155811309814453125" lon="-2.1147814951837062835693359375">
        <ele>70.59999847412109375</ele>
        <time>2018-09-02T11:15:08.000Z</time>
      </trkpt>
      <trkpt lat="43.28162670135498046875" lon="-2.11464579217135906219482421875">
        <ele>69.59999847412109375</ele>
        <time>2018-09-02T11:15:10.000Z</time>
      </trkpt>
      <trkpt lat="43.28162879683077335357666015625" lon="-2.11453213356435298919677734375">
        <ele>68.40000152587890625</ele>
        <time>2018-09-02T11:15:12.000Z</time>
      </trkpt>
      <trkpt lat="43.28162745572626590728759765625" lon="-2.114408500492572784423828125">
        <ele>67.40000152587890625</ele>
        <time>2018-09-02T11:15:14.000Z</time>
      </trkpt>
      <trkpt lat="43.2816307246685028076171875" lon="-2.11433314718306064605712890625">
        <ele>66.8000030517578125</ele>
        <time>2018-09-02T11:15:15.000Z</time>
      </trkpt>
      <trkpt lat="43.281640112400054931640625" lon="-2.114185877144336700439453125">
        <ele>65.40000152587890625</ele>
        <time>2018-09-02T11:15:17.000Z</time>
      </trkpt>
      <trkpt lat="43.281655199825763702392578125" lon="-2.11404480971395969390869140625">
        <ele>64.40000152587890625</ele>
        <time>2018-09-02T11:15:19.000Z</time>
      </trkpt>
      <trkpt lat="43.28166366554796695709228515625" lon="-2.1139701269567012786865234375">
        <ele>64</ele>
        <time>2018-09-02T11:15:20.000Z</time>
      </trkpt>
      <trkpt lat="43.28167875297367572784423828125" lon="-2.11381833069026470184326171875">
        <ele>62.40000152587890625</ele>
        <time>2018-09-02T11:15:22.000Z</time>
      </trkpt>
      <trkpt lat="43.281687386333942413330078125" lon="-2.113739959895610809326171875">
        <ele>61.40000152587890625</ele>
        <time>2018-09-02T11:15:23.000Z</time>
      </trkpt>
      <trkpt lat="43.28171093948185443878173828125" lon="-2.1136625111103057861328125">
        <ele>60.59999847412109375</ele>
        <time>2018-09-02T11:15:24.000Z</time>
      </trkpt>
      <trkpt lat="43.28173608519136905670166015625" lon="-2.1135766804218292236328125">
        <ele>59.799999237060546875</ele>
        <time>2018-09-02T11:15:25.000Z</time>
      </trkpt>
      <trkpt lat="43.281785286962985992431640625" lon="-2.11339789442718029022216796875">
        <ele>58.59999847412109375</ele>
        <time>2018-09-02T11:15:27.000Z</time>
      </trkpt>
      <trkpt lat="43.28182744793593883514404296875" lon="-2.11323344148695468902587890625">
        <ele>55.799999237060546875</ele>
        <time>2018-09-02T11:15:29.000Z</time>
      </trkpt>
      <trkpt lat="43.28186483122408390045166015625" lon="-2.11310670711100101470947265625">
        <ele>54.40000152587890625</ele>
        <time>2018-09-02T11:15:31.000Z</time>
      </trkpt>
      <trkpt lat="43.281872458755970001220703125" lon="-2.1130618639290332794189453125">
        <ele>54.200000762939453125</ele>
        <time>2018-09-02T11:15:32.000Z</time>
      </trkpt>
      <trkpt lat="43.2818692736327648162841796875" lon="-2.1129839122295379638671875">
        <ele>53.200000762939453125</ele>
        <time>2018-09-02T11:15:35.000Z</time>
      </trkpt>
      <trkpt lat="43.28185544349253177642822265625" lon="-2.112971842288970947265625">
        <ele>52.799999237060546875</ele>
        <time>2018-09-02T11:15:36.000Z</time>
      </trkpt>
      <trkpt lat="43.28181923367083072662353515625" lon="-2.11298449896275997161865234375">
        <ele>51.799999237060546875</ele>
        <time>2018-09-02T11:15:38.000Z</time>
      </trkpt>
      <trkpt lat="43.28179023228585720062255859375" lon="-2.11303713731467723846435546875">
        <ele>51.40000152587890625</ele>
        <time>2018-09-02T11:15:40.000Z</time>
      </trkpt>
      <trkpt lat="43.28175368718802928924560546875" lon="-2.1131530590355396270751953125">
        <ele>50.799999237060546875</ele>
        <time>2018-09-02T11:15:45.000Z</time>
      </trkpt>
      <trkpt lat="43.28174379654228687286376953125" lon="-2.113184072077274322509765625">
        <ele>50.59999847412109375</ele>
        <time>2018-09-02T11:15:49.000Z</time>
      </trkpt>
      <trkpt lat="43.281737677752971649169921875" lon="-2.11320645175874233245849609375">
        <ele>50.40000152587890625</ele>
        <time>2018-09-02T11:15:50.000Z</time>
      </trkpt>
      <trkpt lat="43.281718902289867401123046875" lon="-2.11325523443520069122314453125">
        <ele>50.40000152587890625</ele>
        <time>2018-09-02T11:15:52.000Z</time>
      </trkpt>
      <trkpt lat="43.28169736079871654510498046875" lon="-2.1133180148899555206298828125">
        <ele>49.59999847412109375</ele>
        <time>2018-09-02T11:15:55.000Z</time>
      </trkpt>
      <trkpt lat="43.28165310434997081756591796875" lon="-2.1134353615343570709228515625">
        <ele>49</ele>
        <time>2018-09-02T11:15:59.000Z</time>
      </trkpt>
      <trkpt lat="43.28162644989788532257080078125" lon="-2.1135042607784271240234375">
        <ele>48.200000762939453125</ele>
        <time>2018-09-02T11:16:03.000Z</time>
      </trkpt>
      <trkpt lat="43.2816211692988872528076171875" lon="-2.1135161630809307098388671875">
        <ele>48.200000762939453125</ele>
        <time>2018-09-02T11:16:04.000Z</time>
      </trkpt>
      <trkpt lat="43.281605578958988189697265625" lon="-2.11355145089328289031982421875">
        <ele>47.799999237060546875</ele>
        <time>2018-09-02T11:16:09.000Z</time>
      </trkpt>
      <trkpt lat="43.28158470802009105682373046875" lon="-2.11360677145421504974365234375">
        <ele>47.40000152587890625</ele>
        <time>2018-09-02T11:16:11.000Z</time>
      </trkpt>
      <trkpt lat="43.28157096169888973236083984375" lon="-2.1136388741433620452880859375">
        <ele>47.200000762939453125</ele>
        <time>2018-09-02T11:16:12.000Z</time>
      </trkpt>
      <trkpt lat="43.28154279850423336029052734375" lon="-2.11370148696005344390869140625">
        <ele>47.200000762939453125</ele>
        <time>2018-09-02T11:16:14.000Z</time>
      </trkpt>
      <trkpt lat="43.28146233223378658294677734375" lon="-2.11390189826488494873046875">
        <ele>46.40000152587890625</ele>
        <time>2018-09-02T11:16:19.000Z</time>
      </trkpt>
      <trkpt lat="43.28142344020307064056396484375" lon="-2.11397591046988964080810546875">
        <ele>46</ele>
        <time>2018-09-02T11:16:21.000Z</time>
      </trkpt>
      <trkpt lat="43.2813147269189357757568359375" lon="-2.11416232399642467498779296875">
        <ele>45</ele>
        <time>2018-09-02T11:16:26.000Z</time>
      </trkpt>
      <trkpt lat="43.28129385598003864288330078125" lon="-2.11420373059809207916259765625">
        <ele>44.799999237060546875</ele>
        <time>2018-09-02T11:16:27.000Z</time>
      </trkpt>
      <trkpt lat="43.2809100486338138580322265625" lon="-2.11471938528120517730712890625">
        <ele>43.799999237060546875</ele>
        <time>2018-09-02T11:16:41.000Z</time>
      </trkpt>
      <trkpt lat="43.2808815501630306243896484375" lon="-2.1147452853620052337646484375">
        <ele>44.799999237060546875</ele>
        <time>2018-09-02T11:16:43.000Z</time>
      </trkpt>
      <trkpt lat="43.280873000621795654296875" lon="-2.11476280353963375091552734375">
        <ele>45</ele>
        <time>2018-09-02T11:16:44.000Z</time>
      </trkpt>
      <trkpt lat="43.28085958957672119140625" lon="-2.11478794924914836883544921875">
        <ele>45.59999847412109375</ele>
        <time>2018-09-02T11:16:46.000Z</time>
      </trkpt>
      <trkpt lat="43.2808533869683742523193359375" lon="-2.11479733698070049285888671875">
        <ele>46.200000762939453125</ele>
        <time>2018-09-02T11:16:48.000Z</time>
      </trkpt>
      <trkpt lat="43.28056647442281246185302734375" lon="-2.11524811573326587677001953125">
        <ele>55.40000152587890625</ele>
        <time>2018-09-02T11:17:56.000Z</time>
      </trkpt>
      <trkpt lat="43.2805643789470195770263671875" lon="-2.11526504717767238616943359375">
        <ele>55.799999237060546875</ele>
        <time>2018-09-02T11:17:57.000Z</time>
      </trkpt>
      <trkpt lat="43.280544765293598175048828125" lon="-2.115323133766651153564453125">
        <ele>56.200000762939453125</ele>
        <time>2018-09-02T11:18:00.000Z</time>
      </trkpt>
      <trkpt lat="43.280524648725986480712890625" lon="-2.11535741575062274932861328125">
        <ele>56.59999847412109375</ele>
        <time>2018-09-02T11:18:02.000Z</time>
      </trkpt>
      <trkpt lat="43.28052003867924213409423828125" lon="-2.115378119051456451416015625">
        <ele>56.799999237060546875</ele>
        <time>2018-09-02T11:18:03.000Z</time>
      </trkpt>
      <trkpt lat="43.28050897456705570220947265625" lon="-2.11545900441706180572509765625">
        <ele>57.59999847412109375</ele>
        <time>2018-09-02T11:18:07.000Z</time>
      </trkpt>
      <trkpt lat="43.28050361014902591705322265625" lon="-2.1154825575649738311767578125">
        <ele>57.799999237060546875</ele>
        <time>2018-09-02T11:18:08.000Z</time>
      </trkpt>
      <trkpt lat="43.28049950301647186279296875" lon="-2.11552538909018039703369140625">
        <ele>58.200000762939453125</ele>
        <time>2018-09-02T11:18:10.000Z</time>
      </trkpt>
      <trkpt lat="43.280505202710628509521484375" lon="-2.1155781112611293792724609375">
        <ele>58.799999237060546875</ele>
        <time>2018-09-02T11:18:13.000Z</time>
      </trkpt>
      <trkpt lat="43.28052632510662078857421875" lon="-2.11567643098533153533935546875">
        <ele>60.200000762939453125</ele>
        <time>2018-09-02T11:18:18.000Z</time>
      </trkpt>
      <trkpt lat="43.2805637083947658538818359375" lon="-2.115773744881153106689453125">
        <ele>61.40000152587890625</ele>
        <time>2018-09-02T11:18:23.000Z</time>
      </trkpt>
      <trkpt lat="43.28057862818241119384765625" lon="-2.11581087671220302581787109375">
        <ele>61.799999237060546875</ele>
        <time>2018-09-02T11:18:25.000Z</time>
      </trkpt>
      <trkpt lat="43.28060754574835300445556640625" lon="-2.11587508209049701690673828125">
        <ele>62.59999847412109375</ele>
        <time>2018-09-02T11:18:29.000Z</time>
      </trkpt>
      <trkpt lat="43.28061257489025592803955078125" lon="-2.1158926002681255340576171875">
        <ele>63.799999237060546875</ele>
        <time>2018-09-02T11:18:30.000Z</time>
      </trkpt>
      <trkpt lat="43.2806217111647129058837890625" lon="-2.1159278042614459991455078125">
        <ele>64</ele>
        <time>2018-09-02T11:18:32.000Z</time>
      </trkpt>
      <trkpt lat="43.28063084743916988372802734375" lon="-2.11594314314424991607666015625">
        <ele>63.40000152587890625</ele>
        <time>2018-09-02T11:18:33.000Z</time>
      </trkpt>
      <trkpt lat="43.28066588379442691802978515625" lon="-2.1160525269806385040283203125">
        <ele>64.8000030517578125</ele>
        <time>2018-09-02T11:18:40.000Z</time>
      </trkpt>
      <trkpt lat="43.28067158348858356475830078125" lon="-2.11606778204441070556640625">
        <ele>64.8000030517578125</ele>
        <time>2018-09-02T11:18:41.000Z</time>
      </trkpt>
      <trkpt lat="43.28071030788123607635498046875" lon="-2.1161698736250400543212890625">
        <ele>66</ele>
        <time>2018-09-02T11:18:47.000Z</time>
      </trkpt>
      <trkpt lat="43.28073545359075069427490234375" lon="-2.116291411221027374267578125">
        <ele>67</ele>
        <time>2018-09-02T11:18:53.000Z</time>
      </trkpt>
      <trkpt lat="43.28073880635201930999755859375" lon="-2.11633508093655109405517578125">
        <ele>67.1999969482421875</ele>
        <time>2018-09-02T11:18:55.000Z</time>
      </trkpt>
      <trkpt lat="43.28075724653899669647216796875" lon="-2.11644270457327365875244140625">
        <ele>67.8000030517578125</ele>
        <time>2018-09-02T11:19:00.000Z</time>
      </trkpt>
      <trkpt lat="43.28076512552797794342041015625" lon="-2.11648578755557537078857421875">
        <ele>68</ele>
        <time>2018-09-02T11:19:02.000Z</time>
      </trkpt>
      <trkpt lat="43.2807963900268077850341796875" lon="-2.1166124381124973297119140625">
        <ele>69.1999969482421875</ele>
        <time>2018-09-02T11:19:08.000Z</time>
      </trkpt>
      <trkpt lat="43.28079999424517154693603515625" lon="-2.11665225215256214141845703125">
        <ele>69.40000152587890625</ele>
        <time>2018-09-02T11:19:10.000Z</time>
      </trkpt>
      <trkpt lat="43.28081809915602207183837890625" lon="-2.1167596243321895599365234375">
        <ele>70.40000152587890625</ele>
        <time>2018-09-02T11:19:15.000Z</time>
      </trkpt>
      <trkpt lat="43.280836455523967742919921875" lon="-2.116827853024005889892578125">
        <ele>70.8000030517578125</ele>
        <time>2018-09-02T11:19:18.000Z</time>
      </trkpt>
      <trkpt lat="43.28085355460643768310546875" lon="-2.11691401898860931396484375">
        <ele>71.40000152587890625</ele>
        <time>2018-09-02T11:19:22.000Z</time>
      </trkpt>
      <trkpt lat="43.28086956404149532318115234375" lon="-2.11700395680963993072509765625">
        <ele>72.59999847412109375</ele>
        <time>2018-09-02T11:19:26.000Z</time>
      </trkpt>
      <trkpt lat="43.280904851853847503662109375" lon="-2.117123901844024658203125">
        <ele>74</ele>
        <time>2018-09-02T11:19:31.000Z</time>
      </trkpt>
      <trkpt lat="43.2809167541563510894775390625" lon="-2.1171760372817516326904296875">
        <ele>74.8000030517578125</ele>
        <time>2018-09-02T11:19:33.000Z</time>
      </trkpt>
      <trkpt lat="43.28092354349792003631591796875" lon="-2.11719891987740993499755859375">
        <ele>75</ele>
        <time>2018-09-02T11:19:34.000Z</time>
      </trkpt>
      <trkpt lat="43.28095405362546443939208984375" lon="-2.11734292097389698028564453125">
        <ele>75.8000030517578125</ele>
        <time>2018-09-02T11:19:39.000Z</time>
      </trkpt>
      <trkpt lat="43.28095790930092334747314453125" lon="-2.11737670004367828369140625">
        <ele>76.1999969482421875</ele>
        <time>2018-09-02T11:19:40.000Z</time>
      </trkpt>
      <trkpt lat="43.28095673583447933197021484375" lon="-2.11761348880827426910400390625">
        <ele>77.1999969482421875</ele>
        <time>2018-09-02T11:19:46.000Z</time>
      </trkpt>
      <trkpt lat="43.2809600047767162322998046875" lon="-2.117701582610607147216796875">
        <ele>77.1999969482421875</ele>
        <time>2018-09-02T11:19:48.000Z</time>
      </trkpt>
      <trkpt lat="43.2809486053884029388427734375" lon="-2.11782907135784626007080078125">
        <ele>77.59999847412109375</ele>
        <time>2018-09-02T11:19:51.000Z</time>
      </trkpt>
      <trkpt lat="43.280931003391742706298828125" lon="-2.11794264614582061767578125">
        <ele>78.1999969482421875</ele>
        <time>2018-09-02T11:19:54.000Z</time>
      </trkpt>
      <trkpt lat="43.28090812079608440399169921875" lon="-2.11805127561092376708984375">
        <ele>78.8000030517578125</ele>
        <time>2018-09-02T11:19:57.000Z</time>
      </trkpt>
      <trkpt lat="43.28085866756737232208251953125" lon="-2.11817993782460689544677734375">
        <ele>79.40000152587890625</ele>
        <time>2018-09-02T11:20:01.000Z</time>
      </trkpt>
      <trkpt lat="43.2808275707066059112548828125" lon="-2.1182331629097461700439453125">
        <ele>79.59999847412109375</ele>
        <time>2018-09-02T11:20:03.000Z</time>
      </trkpt>
      <trkpt lat="43.2807380519807338714599609375" lon="-2.11836433969438076019287109375">
        <ele>80.1999969482421875</ele>
        <time>2018-09-02T11:20:09.000Z</time>
      </trkpt>
      <trkpt lat="43.28072506003081798553466796875" lon="-2.118380852043628692626953125">
        <ele>80.40000152587890625</ele>
        <time>2018-09-02T11:20:10.000Z</time>
      </trkpt>
      <trkpt lat="43.28069865703582763671875" lon="-2.11841479875147342681884765625">
        <ele>81.1999969482421875</ele>
        <time>2018-09-02T11:20:12.000Z</time>
      </trkpt>
      <trkpt lat="43.28066655434668064117431640625" lon="-2.1184561215341091156005859375">
        <ele>81.59999847412109375</ele>
        <time>2018-09-02T11:20:14.000Z</time>
      </trkpt>
      <trkpt lat="43.28062565065920352935791015625" lon="-2.1185171417891979217529296875">
        <ele>82</ele>
        <time>2018-09-02T11:20:17.000Z</time>
      </trkpt>
      <trkpt lat="43.28054149635136127471923828125" lon="-2.11862619034945964813232421875">
        <ele>81.8000030517578125</ele>
        <time>2018-09-02T11:20:23.000Z</time>
      </trkpt>
      <trkpt lat="43.28040118329226970672607421875" lon="-2.1188048087060451507568359375">
        <ele>81</ele>
        <time>2018-09-02T11:20:29.000Z</time>
      </trkpt>
      <trkpt lat="43.28032423742115497589111328125" lon="-2.11892567574977874755859375">
        <ele>81.8000030517578125</ele>
        <time>2018-09-02T11:20:32.000Z</time>
      </trkpt>
      <trkpt lat="43.28029272146522998809814453125" lon="-2.11896817199885845184326171875">
        <ele>81.8000030517578125</ele>
        <time>2018-09-02T11:20:33.000Z</time>
      </trkpt>
      <trkpt lat="43.2802267558872699737548828125" lon="-2.1190606243908405303955078125">
        <ele>80.59999847412109375</ele>
        <time>2018-09-02T11:20:35.000Z</time>
      </trkpt>
      <trkpt lat="43.2801556773483753204345703125" lon="-2.11915978230535984039306640625">
        <ele>80</ele>
        <time>2018-09-02T11:20:37.000Z</time>
      </trkpt>
      <trkpt lat="43.2800832577049732208251953125" lon="-2.11927226744592189788818359375">
        <ele>79.59999847412109375</ele>
        <time>2018-09-02T11:20:39.000Z</time>
      </trkpt>
      <trkpt lat="43.28001025132834911346435546875" lon="-2.1193895302712917327880859375">
        <ele>79</ele>
        <time>2018-09-02T11:20:41.000Z</time>
      </trkpt>
      <trkpt lat="43.2799784839153289794921875" lon="-2.11945147253572940826416015625">
        <ele>77.8000030517578125</ele>
        <time>2018-09-02T11:20:42.000Z</time>
      </trkpt>
      <trkpt lat="43.27991436235606670379638671875" lon="-2.11956982500851154327392578125">
        <ele>77.59999847412109375</ele>
        <time>2018-09-02T11:20:44.000Z</time>
      </trkpt>
      <trkpt lat="43.27984814532101154327392578125" lon="-2.11968004703521728515625">
        <ele>77.8000030517578125</ele>
        <time>2018-09-02T11:20:46.000Z</time>
      </trkpt>
      <trkpt lat="43.27972526662051677703857421875" lon="-2.1199752576649188995361328125">
        <ele>77.8000030517578125</ele>
        <time>2018-09-02T11:20:51.000Z</time>
      </trkpt>
      <trkpt lat="43.27970422804355621337890625" lon="-2.12003435008227825164794921875">
        <ele>77.8000030517578125</ele>
        <time>2018-09-02T11:20:52.000Z</time>
      </trkpt>
      <trkpt lat="43.2796861231327056884765625" lon="-2.1200929395854473114013671875">
        <ele>77.8000030517578125</ele>
        <time>2018-09-02T11:20:53.000Z</time>
      </trkpt>
      <trkpt lat="43.2796665094792842864990234375" lon="-2.120149768888950347900390625">
        <ele>77.8000030517578125</ele>
        <time>2018-09-02T11:20:54.000Z</time>
      </trkpt>
      <trkpt lat="43.27962904237210750579833984375" lon="-2.12026141583919525146484375">
        <ele>77.40000152587890625</ele>
        <time>2018-09-02T11:20:56.000Z</time>
      </trkpt>
      <trkpt lat="43.27961395494639873504638671875" lon="-2.12031665258109569549560546875">
        <ele>77.40000152587890625</ele>
        <time>2018-09-02T11:20:57.000Z</time>
      </trkpt>
      <trkpt lat="43.27957925386726856231689453125" lon="-2.12042176164686679840087890625">
        <ele>77.40000152587890625</ele>
        <time>2018-09-02T11:20:59.000Z</time>
      </trkpt>
      <trkpt lat="43.27956014312803745269775390625" lon="-2.12047188542783260345458984375">
        <ele>77.40000152587890625</ele>
        <time>2018-09-02T11:21:00.000Z</time>
      </trkpt>
      <trkpt lat="43.27947766520082950592041015625" lon="-2.12072250433266162872314453125">
        <ele>78.40000152587890625</ele>
        <time>2018-09-02T11:21:05.000Z</time>
      </trkpt>
      <trkpt lat="43.27943198382854461669921875" lon="-2.12082593701779842376708984375">
        <ele>77.59999847412109375</ele>
        <time>2018-09-02T11:21:07.000Z</time>
      </trkpt>
      <trkpt lat="43.2793615758419036865234375" lon="-2.12102509103715419769287109375">
        <ele>76.59999847412109375</ele>
        <time>2018-09-02T11:21:10.000Z</time>
      </trkpt>
      <trkpt lat="43.27933316119015216827392578125" lon="-2.1210947446525096893310546875">
        <ele>76</ele>
        <time>2018-09-02T11:21:11.000Z</time>
      </trkpt>
      <trkpt lat="43.2793084345757961273193359375" lon="-2.12117127142846584320068359375">
        <ele>75.59999847412109375</ele>
        <time>2018-09-02T11:21:12.000Z</time>
      </trkpt>
      <trkpt lat="43.27922252006828784942626953125" lon="-2.12142038159072399139404296875">
        <ele>74</ele>
        <time>2018-09-02T11:21:15.000Z</time>
      </trkpt>
      <trkpt lat="43.27916468493640422821044921875" lon="-2.12159388698637485504150390625">
        <ele>72.8000030517578125</ele>
        <time>2018-09-02T11:21:17.000Z</time>
      </trkpt>
      <trkpt lat="43.2791109569370746612548828125" lon="-2.12176345288753509521484375">
        <ele>71.59999847412109375</ele>
        <time>2018-09-02T11:21:19.000Z</time>
      </trkpt>
      <trkpt lat="43.27903191559016704559326171875" lon="-2.12202765047550201416015625">
        <ele>70.40000152587890625</ele>
        <time>2018-09-02T11:21:22.000Z</time>
      </trkpt>
      <trkpt lat="43.27899335883557796478271484375" lon="-2.1221978031098842620849609375">
        <ele>69.1999969482421875</ele>
        <time>2018-09-02T11:21:24.000Z</time>
      </trkpt>
      <trkpt lat="43.27897693030536174774169921875" lon="-2.12227282114326953887939453125">
        <ele>69</ele>
        <time>2018-09-02T11:21:25.000Z</time>
      </trkpt>
      <trkpt lat="43.2789485156536102294921875" lon="-2.122413218021392822265625">
        <ele>68</ele>
        <time>2018-09-02T11:21:27.000Z</time>
      </trkpt>
      <trkpt lat="43.27890467830002307891845703125" lon="-2.1226111985743045806884765625">
        <ele>66</ele>
        <time>2018-09-02T11:21:30.000Z</time>
      </trkpt>
      <trkpt lat="43.27887483872473239898681640625" lon="-2.12274371646344661712646484375">
        <ele>64.40000152587890625</ele>
        <time>2018-09-02T11:21:32.000Z</time>
      </trkpt>
      <trkpt lat="43.27884566970169544219970703125" lon="-2.12288319133222103118896484375">
        <ele>63.200000762939453125</ele>
        <time>2018-09-02T11:21:34.000Z</time>
      </trkpt>
      <trkpt lat="43.2788112200796604156494140625" lon="-2.1230034716427326202392578125">
        <ele>62</ele>
        <time>2018-09-02T11:21:36.000Z</time>
      </trkpt>
      <trkpt lat="43.27879093587398529052734375" lon="-2.1230584569275379180908203125">
        <ele>61.59999847412109375</ele>
        <time>2018-09-02T11:21:37.000Z</time>
      </trkpt>
      <trkpt lat="43.2787029258906841278076171875" lon="-2.12329038418829441070556640625">
        <ele>60.200000762939453125</ele>
        <time>2018-09-02T11:21:40.000Z</time>
      </trkpt>
      <trkpt lat="43.2786724157631397247314453125" lon="-2.123377807438373565673828125">
        <ele>59</ele>
        <time>2018-09-02T11:21:41.000Z</time>
      </trkpt>
      <trkpt lat="43.278641402721405029296875" lon="-2.12346422486007213592529296875">
        <ele>57.799999237060546875</ele>
        <time>2018-09-02T11:21:42.000Z</time>
      </trkpt>
      <trkpt lat="43.27860779128968715667724609375" lon="-2.12354770861566066741943359375">
        <ele>56.799999237060546875</ele>
        <time>2018-09-02T11:21:43.000Z</time>
      </trkpt>
      <trkpt lat="43.27853335998952388763427734375" lon="-2.12373755872249603271484375">
        <ele>54.59999847412109375</ele>
        <time>2018-09-02T11:21:45.000Z</time>
      </trkpt>
      <trkpt lat="43.27849295921623706817626953125" lon="-2.12384576909244060516357421875">
        <ele>53.40000152587890625</ele>
        <time>2018-09-02T11:21:46.000Z</time>
      </trkpt>
      <trkpt lat="43.2784524746239185333251953125" lon="-2.1239529736340045928955078125">
        <ele>51.799999237060546875</ele>
        <time>2018-09-02T11:21:47.000Z</time>
      </trkpt>
      <trkpt lat="43.2783750258386135101318359375" lon="-2.1241712383925914764404296875">
        <ele>50</ele>
        <time>2018-09-02T11:21:49.000Z</time>
      </trkpt>
      <trkpt lat="43.27829363755881786346435546875" lon="-2.1243940293788909912109375">
        <ele>47.799999237060546875</ele>
        <time>2018-09-02T11:21:51.000Z</time>
      </trkpt>
      <trkpt lat="43.27825172804296016693115234375" lon="-2.1245021559298038482666015625">
        <ele>46</ele>
        <time>2018-09-02T11:21:52.000Z</time>
      </trkpt>
      <trkpt lat="43.27820881269872188568115234375" lon="-2.12460315786302089691162109375">
        <ele>44.59999847412109375</ele>
        <time>2018-09-02T11:21:53.000Z</time>
      </trkpt>
      <trkpt lat="43.2781695015728473663330078125" lon="-2.12469938211143016815185546875">
        <ele>43.200000762939453125</ele>
        <time>2018-09-02T11:21:54.000Z</time>
      </trkpt>
      <trkpt lat="43.2780754566192626953125" lon="-2.12492435239255428314208984375">
        <ele>41.59999847412109375</ele>
        <time>2018-09-02T11:21:57.000Z</time>
      </trkpt>
      <trkpt lat="43.27805525623261928558349609375" lon="-2.12497296743094921112060546875">
        <ele>40.799999237060546875</ele>
        <time>2018-09-02T11:21:58.000Z</time>
      </trkpt>
      <trkpt lat="43.2780310325324535369873046875" lon="-2.12502258829772472381591796875">
        <ele>40.200000762939453125</ele>
        <time>2018-09-02T11:21:59.000Z</time>
      </trkpt>
      <trkpt lat="43.278003372251987457275390625" lon="-2.1250691078603267669677734375">
        <ele>39.799999237060546875</ele>
        <time>2018-09-02T11:22:00.000Z</time>
      </trkpt>
      <trkpt lat="43.27796255238354206085205078125" lon="-2.12514303624629974365234375">
        <ele>38.59999847412109375</ele>
        <time>2018-09-02T11:22:02.000Z</time>
      </trkpt>
      <trkpt lat="43.277938328683376312255859375" lon="-2.12518553249537944793701171875">
        <ele>38</ele>
        <time>2018-09-02T11:22:03.000Z</time>
      </trkpt>
      <trkpt lat="43.27790622599422931671142578125" lon="-2.12522358633577823638916015625">
        <ele>37.40000152587890625</ele>
        <time>2018-09-02T11:22:04.000Z</time>
      </trkpt>
      <trkpt lat="43.27777379192411899566650390625" lon="-2.12530137039721012115478515625">
        <ele>36.40000152587890625</ele>
        <time>2018-09-02T11:22:07.000Z</time>
      </trkpt>
      <trkpt lat="43.27767874114215373992919921875" lon="-2.12529717944562435150146484375">
        <ele>36</ele>
        <time>2018-09-02T11:22:09.000Z</time>
      </trkpt>
      <trkpt lat="43.27758251689374446868896484375" lon="-2.12529885582625865936279296875">
        <ele>34.59999847412109375</ele>
        <time>2018-09-02T11:22:11.000Z</time>
      </trkpt>
      <trkpt lat="43.2775073312222957611083984375" lon="-2.1253423579037189483642578125">
        <ele>33.200000762939453125</ele>
        <time>2018-09-02T11:22:13.000Z</time>
      </trkpt>
      <trkpt lat="43.2774845324456691741943359375" lon="-2.12538518942892551422119140625">
        <ele>32.40000152587890625</ele>
        <time>2018-09-02T11:22:14.000Z</time>
      </trkpt>
      <trkpt lat="43.27746449969708919525146484375" lon="-2.12542659603059291839599609375">
        <ele>32</ele>
        <time>2018-09-02T11:22:15.000Z</time>
      </trkpt>
      <trkpt lat="43.27739442698657512664794921875" lon="-2.12561703287065029144287109375">
        <ele>30.799999237060546875</ele>
        <time>2018-09-02T11:22:19.000Z</time>
      </trkpt>
      <trkpt lat="43.27735955826938152313232421875" lon="-2.12569649331271648406982421875">
        <ele>29.6000003814697265625</ele>
        <time>2018-09-02T11:22:21.000Z</time>
      </trkpt>
      <trkpt lat="43.277304656803607940673828125" lon="-2.1258513070642948150634765625">
        <ele>29</ele>
        <time>2018-09-02T11:22:24.000Z</time>
      </trkpt>
      <trkpt lat="43.27728755772113800048828125" lon="-2.125900425016880035400390625">
        <ele>28.6000003814697265625</ele>
        <time>2018-09-02T11:22:25.000Z</time>
      </trkpt>
      <trkpt lat="43.2772587239742279052734375" lon="-2.12597259320318698883056640625">
        <ele>27.3999996185302734375</ele>
        <time>2018-09-02T11:22:27.000Z</time>
      </trkpt>
      <trkpt lat="43.27725579030811786651611328125" lon="-2.12602489627897739410400390625">
        <ele>26.6000003814697265625</ele>
        <time>2018-09-02T11:22:29.000Z</time>
      </trkpt>
      <trkpt lat="43.27725403010845184326171875" lon="-2.1260435879230499267578125">
        <ele>26.3999996185302734375</ele>
        <time>2018-09-02T11:22:30.000Z</time>
      </trkpt>
      <trkpt lat="43.27724439091980457305908203125" lon="-2.12605993263423442840576171875">
        <ele>26</ele>
        <time>2018-09-02T11:22:31.000Z</time>
      </trkpt>
      <trkpt lat="43.27721773646771907806396484375" lon="-2.12610997259616851806640625">
        <ele>25.3999996185302734375</ele>
        <time>2018-09-02T11:22:33.000Z</time>
      </trkpt>
      <trkpt lat="43.27720264904201030731201171875" lon="-2.1261564083397388458251953125">
        <ele>24.6000003814697265625</ele>
        <time>2018-09-02T11:22:34.000Z</time>
      </trkpt>
      <trkpt lat="43.27718119136989116668701171875" lon="-2.1262125670909881591796875">
        <ele>23.6000003814697265625</ele>
        <time>2018-09-02T11:22:35.000Z</time>
      </trkpt>
      <trkpt lat="43.27712134458124637603759765625" lon="-2.12632982991635799407958984375">
        <ele>22.200000762939453125</ele>
        <time>2018-09-02T11:22:37.000Z</time>
      </trkpt>
      <trkpt lat="43.27709133736789226531982421875" lon="-2.1263827197253704071044921875">
        <ele>21.799999237060546875</ele>
        <time>2018-09-02T11:22:38.000Z</time>
      </trkpt>
      <trkpt lat="43.27706468291580677032470703125" lon="-2.1264293231070041656494140625">
        <ele>20.799999237060546875</ele>
        <time>2018-09-02T11:22:39.000Z</time>
      </trkpt>
      <trkpt lat="43.27700919471681118011474609375" lon="-2.12652496062219142913818359375">
        <ele>19.3999996185302734375</ele>
        <time>2018-09-02T11:22:41.000Z</time>
      </trkpt>
      <trkpt lat="43.276973068714141845703125" lon="-2.12657541967928409576416015625">
        <ele>17.799999237060546875</ele>
        <time>2018-09-02T11:22:42.000Z</time>
      </trkpt>
      <trkpt lat="43.27694599516689777374267578125" lon="-2.126592434942722320556640625">
        <ele>17</ele>
        <time>2018-09-02T11:22:43.000Z</time>
      </trkpt>
      <trkpt lat="43.27693945728242397308349609375" lon="-2.1266110427677631378173828125">
        <ele>16.3999996185302734375</ele>
        <time>2018-09-02T11:22:44.000Z</time>
      </trkpt>
      <trkpt lat="43.27690576203167438507080078125" lon="-2.12665270082652568817138671875">
        <ele>16</ele>
        <time>2018-09-02T11:22:46.000Z</time>
      </trkpt>
      <trkpt lat="43.27687047421932220458984375" lon="-2.1267092786729335784912109375">
        <ele>14.80000019073486328125</ele>
        <time>2018-09-02T11:22:48.000Z</time>
      </trkpt>
      <trkpt lat="43.2768468372523784637451171875" lon="-2.1267793513834476470947265625">
        <ele>13.6000003814697265625</ele>
        <time>2018-09-02T11:22:50.000Z</time>
      </trkpt>
      <trkpt lat="43.2768562249839305877685546875" lon="-2.1268906630575656890869140625">
        <ele>12.80000019073486328125</ele>
        <time>2018-09-02T11:22:52.000Z</time>
      </trkpt>
      <trkpt lat="43.2768511958420276641845703125" lon="-2.12693852372467517852783203125">
        <ele>12.6000003814697265625</ele>
        <time>2018-09-02T11:22:53.000Z</time>
      </trkpt>
      <trkpt lat="43.27674700878560543060302734375" lon="-2.12707690894603729248046875">
        <ele>12</ele>
        <time>2018-09-02T11:22:57.000Z</time>
      </trkpt>
      <trkpt lat="43.27672437764704227447509765625" lon="-2.12711269967257976531982421875">
        <ele>11.6000003814697265625</ele>
        <time>2018-09-02T11:22:58.000Z</time>
      </trkpt>
      <trkpt lat="43.27663443982601165771484375" lon="-2.12721546180546283721923828125">
        <ele>11.3999996185302734375</ele>
        <time>2018-09-02T11:22:59.000Z</time>
      </trkpt>
      <trkpt lat="43.27643805183470249176025390625" lon="-2.1274287812411785125732421875">
        <ele>10.6000003814697265625</ele>
        <time>2018-09-02T11:23:03.000Z</time>
      </trkpt>
      <trkpt lat="43.276392705738544464111328125" lon="-2.1274733729660511016845703125">
        <ele>10.19999980926513671875</ele>
        <time>2018-09-02T11:23:04.000Z</time>
      </trkpt>
      <trkpt lat="43.27631869353353977203369140625" lon="-2.12757521308958530426025390625">
        <ele>7.599999904632568359375</ele>
        <time>2018-09-02T11:23:06.000Z</time>
      </trkpt>
      <trkpt lat="43.27625884674489498138427734375" lon="-2.12766875512897968292236328125">
        <ele>6</ele>
        <time>2018-09-02T11:23:08.000Z</time>
      </trkpt>
      <trkpt lat="43.27620126307010650634765625" lon="-2.12776112370193004608154296875">
        <ele>4.400000095367431640625</ele>
        <time>2018-09-02T11:23:10.000Z</time>
      </trkpt>
      <trkpt lat="43.276158683001995086669921875" lon="-2.12782583199441432952880859375">
        <ele>2.7999999523162841796875</ele>
        <time>2018-09-02T11:23:12.000Z</time>
      </trkpt>
      <trkpt lat="43.2761695794761180877685546875" lon="-2.127877213060855865478515625">
        <ele>2.400000095367431640625</ele>
        <time>2018-09-02T11:23:13.000Z</time>
      </trkpt>
      <trkpt lat="43.2761762849986553192138671875" lon="-2.12791987694799900054931640625">
        <ele>1.7999999523162841796875</ele>
        <time>2018-09-02T11:23:14.000Z</time>
      </trkpt>
      <trkpt lat="43.276216685771942138671875" lon="-2.12800051085650920867919921875">
        <ele>0.60000002384185791015625</ele>
        <time>2018-09-02T11:23:17.000Z</time>
      </trkpt>
      <trkpt lat="43.27620201744139194488525390625" lon="-2.12803554721176624298095703125">
        <ele>0</ele>
        <time>2018-09-02T11:23:20.000Z</time>
      </trkpt>
      <trkpt lat="43.2762044481933116912841796875" lon="-2.1280606091022491455078125">
        <ele>-0.4000000059604644775390625</ele>
        <time>2018-09-02T11:23:22.000Z</time>
      </trkpt>
      <trkpt lat="43.27621157281100749969482421875" lon="-2.1280674822628498077392578125">
        <ele>-0.4000000059604644775390625</ele>
        <time>2018-09-02T11:23:23.000Z</time>
      </trkpt>
      <trkpt lat="43.27622481621801853179931640625" lon="-2.12807863019406795501708984375">
        <ele>-0.20000000298023223876953125</ele>
        <time>2018-09-02T11:23:24.000Z</time>
      </trkpt>
      <trkpt lat="43.2763036899268627166748046875" lon="-2.12808298878371715545654296875">
        <ele>-0.20000000298023223876953125</ele>
        <time>2018-09-02T11:23:27.000Z</time>
      </trkpt>
      <trkpt lat="43.276386000216007232666015625" lon="-2.12808810174465179443359375">
        <ele>-0.60000002384185791015625</ele>
        <time>2018-09-02T11:23:30.000Z</time>
      </trkpt>
      <trkpt lat="43.27648163773119449615478515625" lon="-2.128090448677539825439453125">
        <ele>-0.60000002384185791015625</ele>
        <time>2018-09-02T11:23:35.000Z</time>
      </trkpt>
      <trkpt lat="43.2765511237084865570068359375" lon="-2.12808868847787380218505859375">
        <ele>-0.4000000059604644775390625</ele>
        <time>2018-09-02T11:23:41.000Z</time>
      </trkpt>
      <trkpt lat="43.27658138237893581390380859375" lon="-2.1280862577259540557861328125">
        <ele>-0.20000000298023223876953125</ele>
        <time>2018-09-02T11:23:44.000Z</time>
      </trkpt>
      <trkpt lat="43.27663267962634563446044921875" lon="-2.1280772052705287933349609375">
        <ele>0</ele>
        <time>2018-09-02T11:24:00.000Z</time>
      </trkpt>
      <trkpt lat="43.27664424665272235870361328125" lon="-2.12808131240308284759521484375">
        <ele>-0.20000000298023223876953125</ele>
        <time>2018-09-02T11:24:01.000Z</time>
      </trkpt>
      <trkpt lat="43.27665296383202075958251953125" lon="-2.128073684871196746826171875">
        <ele>-0.20000000298023223876953125</ele>
        <time>2018-09-02T11:24:02.000Z</time>
      </trkpt>
      <trkpt lat="43.27668137848377227783203125" lon="-2.1280701644718647003173828125">
        <ele>0</ele>
        <time>2018-09-02T11:24:04.000Z</time>
      </trkpt>
      <trkpt lat="43.27673099935054779052734375" lon="-2.1280406601727008819580078125">
        <ele>-0.800000011920928955078125</ele>
        <time>2018-09-02T11:24:17.000Z</time>
      </trkpt>
      <trkpt lat="43.27674047090113162994384765625" lon="-2.128039486706256866455078125">
        <ele>-0.60000002384185791015625</ele>
        <time>2018-09-02T11:24:18.000Z</time>
      </trkpt>
      <trkpt lat="43.27679310925304889678955078125" lon="-2.12802314199507236480712890625">
        <ele>-0.4000000059604644775390625</ele>
        <time>2018-09-02T11:24:23.000Z</time>
      </trkpt>
      <trkpt lat="43.27680484391748905181884765625" lon="-2.12801693938672542572021484375">
        <ele>-0.20000000298023223876953125</ele>
        <time>2018-09-02T11:24:24.000Z</time>
      </trkpt>
      <trkpt lat="43.2769487611949443817138671875" lon="-2.12793965823948383331298828125">
        <ele>-1</ele>
        <time>2018-09-02T11:24:41.000Z</time>
      </trkpt>
      <trkpt lat="43.2770012319087982177734375" lon="-2.12791987694799900054931640625">
        <ele>-1.2000000476837158203125</ele>
        <time>2018-09-02T11:24:43.000Z</time>
      </trkpt>
      <trkpt lat="43.277088738977909088134765625" lon="-2.12790546007454395294189453125">
        <ele>-1.2000000476837158203125</ele>
        <time>2018-09-02T11:24:46.000Z</time>
      </trkpt>
      <trkpt lat="43.277175240218639373779296875" lon="-2.1278814040124416351318359375">
        <ele>-1</ele>
        <time>2018-09-02T11:24:49.000Z</time>
      </trkpt>
      <trkpt lat="43.2772481627762317657470703125" lon="-2.1278428472578525543212890625">
        <ele>-1</ele>
        <time>2018-09-02T11:24:52.000Z</time>
      </trkpt>
      <trkpt lat="43.2773517630994319915771484375" lon="-2.12779833935201168060302734375">
        <ele>-0.800000011920928955078125</ele>
        <time>2018-09-02T11:24:56.000Z</time>
      </trkpt>
      <trkpt lat="43.2774062454700469970703125" lon="-2.12777403183281421661376953125">
        <ele>-0.800000011920928955078125</ele>
        <time>2018-09-02T11:24:58.000Z</time>
      </trkpt>
      <trkpt lat="43.2775338180363178253173828125" lon="-2.12769608013331890106201171875">
        <ele>-0.4000000059604644775390625</ele>
        <time>2018-09-02T11:25:03.000Z</time>
      </trkpt>
      <trkpt lat="43.27755443751811981201171875" lon="-2.12768551893532276153564453125">
        <ele>-0.4000000059604644775390625</ele>
        <time>2018-09-02T11:25:04.000Z</time>
      </trkpt>
      <trkpt lat="43.27772098593413829803466796875" lon="-2.1276856027543544769287109375">
        <ele>0.4000000059604644775390625</ele>
        <time>2018-09-02T11:26:21.000Z</time>
      </trkpt>
      <trkpt lat="43.2777624763548374176025390625" lon="-2.12772206403315067291259765625">
        <ele>0.4000000059604644775390625</ele>
        <time>2018-09-02T11:26:24.000Z</time>
      </trkpt>
      <trkpt lat="43.277904130518436431884765625" lon="-2.12790437042713165283203125">
        <ele>0.60000002384185791015625</ele>
        <time>2018-09-02T11:26:35.000Z</time>
      </trkpt>
      <trkpt lat="43.2779265940189361572265625" lon="-2.12791836820542812347412109375">
        <ele>0.60000002384185791015625</ele>
        <time>2018-09-02T11:26:36.000Z</time>
      </trkpt>
      <trkpt lat="43.2780794799327850341796875" lon="-2.12795122526586055755615234375">
        <ele>0.4000000059604644775390625</ele>
        <time>2018-09-02T11:26:41.000Z</time>
      </trkpt>
      <trkpt lat="43.278137147426605224609375" lon="-2.12792507372796535491943359375">
        <ele>0.20000000298023223876953125</ele>
        <time>2018-09-02T11:26:44.000Z</time>
      </trkpt>
      <trkpt lat="43.27820680104196071624755859375" lon="-2.1278156898915767669677734375">
        <ele>0.60000002384185791015625</ele>
        <time>2018-09-02T11:26:55.000Z</time>
      </trkpt>
      <trkpt lat="43.27822775579988956451416015625" lon="-2.1278073079884052276611328125">
        <ele>0.4000000059604644775390625</ele>
        <time>2018-09-02T11:26:57.000Z</time>
      </trkpt>
      <trkpt lat="43.277622498571872711181640625" lon="-2.127759866416454315185546875">
        <ele>0.20000000298023223876953125</ele>
        <time>2018-09-02T11:28:06.000Z</time>
      </trkpt>
      <trkpt lat="43.277605734765529632568359375" lon="-2.12778442539274692535400390625">
        <ele>0.4000000059604644775390625</ele>
        <time>2018-09-02T11:28:07.000Z</time>
      </trkpt>
      <trkpt lat="43.277586959302425384521484375" lon="-2.12783454917371273040771484375">
        <ele>0.20000000298023223876953125</ele>
        <time>2018-09-02T11:28:11.000Z</time>
      </trkpt>
      <trkpt lat="43.277592994272708892822265625" lon="-2.127923481166362762451171875">
        <ele>0.20000000298023223876953125</ele>
        <time>2018-09-02T11:28:15.000Z</time>
      </trkpt>
      <trkpt lat="43.27764202840626239776611328125" lon="-2.127954661846160888671875">
        <ele>0</ele>
        <time>2018-09-02T11:28:18.000Z</time>
      </trkpt>
      <trkpt lat="43.27764722518622875213623046875" lon="-2.1280711703002452850341796875">
        <ele>0.20000000298023223876953125</ele>
        <time>2018-09-02T11:28:22.000Z</time>
      </trkpt>
      <trkpt lat="43.277641944587230682373046875" lon="-2.12780873291194438934326171875">
        <ele>-0.60000002384185791015625</ele>
        <time>2018-09-02T11:28:44.000Z</time>
      </trkpt>
      <trkpt lat="43.2776411063969135284423828125" lon="-2.1277717687189579010009765625">
        <ele>-0.60000002384185791015625</ele>
        <time>2018-09-02T11:28:45.000Z</time>
      </trkpt>
      <trkpt lat="43.27755846083164215087890625" lon="-2.12762030772864818572998046875">
        <ele>0.60000002384185791015625</ele>
        <time>2018-09-02T11:28:51.000Z</time>
      </trkpt>
      <trkpt lat="43.27749115414917469024658203125" lon="-2.12757672183215618133544921875">
        <ele>0.20000000298023223876953125</ele>
        <time>2018-09-02T11:28:53.000Z</time>
      </trkpt>
      <trkpt lat="43.27742108143866062164306640625" lon="-2.127539254724979400634765625">
        <ele>2</ele>
        <time>2018-09-02T11:28:55.000Z</time>
      </trkpt>
      <trkpt lat="43.2773417048156261444091796875" lon="-2.127488292753696441650390625">
        <ele>0.800000011920928955078125</ele>
        <time>2018-09-02T11:28:57.000Z</time>
      </trkpt>
      <trkpt lat="43.2770064286887645721435546875" lon="-2.127366252243518829345703125">
        <ele>0.4000000059604644775390625</ele>
        <time>2018-09-02T11:29:04.000Z</time>
      </trkpt>
      <trkpt lat="43.27690936625003814697265625" lon="-2.127313278615474700927734375">
        <ele>0.4000000059604644775390625</ele>
        <time>2018-09-02T11:29:07.000Z</time>
      </trkpt>
      <trkpt lat="43.27669168822467327117919921875" lon="-2.12723541073501110076904296875">
        <ele>0.20000000298023223876953125</ele>
        <time>2018-09-02T11:29:12.000Z</time>
      </trkpt>
      <trkpt lat="43.27775451354682445526123046875" lon="-2.1276480518281459808349609375">
        <ele>-0.20000000298023223876953125</ele>
        <time>2018-09-02T11:36:02.000Z</time>
      </trkpt>
      <trkpt lat="43.277836740016937255859375" lon="-2.1276406757533550262451171875">
        <ele>1</ele>
        <time>2018-09-02T11:40:55.000Z</time>
      </trkpt>
      <trkpt lat="43.277870602905750274658203125" lon="-2.12764017283916473388671875">
        <ele>0.800000011920928955078125</ele>
        <time>2018-09-02T11:40:58.000Z</time>
      </trkpt>
      <trkpt lat="43.27788610942661762237548828125" lon="-2.127642519772052764892578125">
        <ele>0.800000011920928955078125</ele>
        <time>2018-09-02T11:40:59.000Z</time>
      </trkpt>
      <trkpt lat="43.277973867952823638916015625" lon="-2.127596251666545867919921875">
        <ele>1</ele>
        <time>2018-09-02T11:41:05.000Z</time>
      </trkpt>
      <trkpt lat="43.27801452018320560455322265625" lon="-2.1275833435356616973876953125">
        <ele>0.800000011920928955078125</ele>
        <time>2018-09-02T11:41:07.000Z</time>
      </trkpt>
      <trkpt lat="43.2781218923628330230712890625" lon="-2.12754897773265838623046875">
        <ele>0.800000011920928955078125</ele>
        <time>2018-09-02T11:41:12.000Z</time>
      </trkpt>
      <trkpt lat="43.278223313391208648681640625" lon="-2.127476893365383148193359375">
        <ele>1</ele>
        <time>2018-09-02T11:41:19.000Z</time>
      </trkpt>
      <trkpt lat="43.278252147138118743896484375" lon="-2.1274597942829132080078125">
        <ele>0.800000011920928955078125</ele>
        <time>2018-09-02T11:41:23.000Z</time>
      </trkpt>
      <trkpt lat="43.27831073664128780364990234375" lon="-2.1274934895336627960205078125">
        <ele>1</ele>
        <time>2018-09-02T11:42:07.000Z</time>
      </trkpt>
      <trkpt lat="43.27838583849370479583740234375" lon="-2.1274472214281558990478515625">
        <ele>1</ele>
        <time>2018-09-02T11:42:11.000Z</time>
      </trkpt>
      <trkpt lat="43.27841383405029773712158203125" lon="-2.12742869742214679718017578125">
        <ele>0.800000011920928955078125</ele>
        <time>2018-09-02T11:42:12.000Z</time>
      </trkpt>
      <trkpt lat="43.2785356231033802032470703125" lon="-2.12737061083316802978515625">
        <ele>0.800000011920928955078125</ele>
        <time>2018-09-02T11:42:16.000Z</time>
      </trkpt>
      <trkpt lat="43.27856655232608318328857421875" lon="-2.12735258974134922027587890625">
        <ele>0.800000011920928955078125</ele>
        <time>2018-09-02T11:42:17.000Z</time>
      </trkpt>
      <trkpt lat="43.278752379119396209716796875" lon="-2.127244882285594940185546875">
        <ele>0.800000011920928955078125</ele>
        <time>2018-09-02T11:42:23.000Z</time>
      </trkpt>
      <trkpt lat="43.2789617590606212615966796875" lon="-2.12713189423084259033203125">
        <ele>0.4000000059604644775390625</ele>
        <time>2018-09-02T11:42:30.000Z</time>
      </trkpt>
      <trkpt lat="43.2790596596896648406982421875" lon="-2.12706894613802433013916015625">
        <ele>0.4000000059604644775390625</ele>
        <time>2018-09-02T11:42:33.000Z</time>
      </trkpt>
      <trkpt lat="43.2791206799447536468505859375" lon="-2.12703038938343524932861328125">
        <ele>0.4000000059604644775390625</ele>
        <time>2018-09-02T11:42:35.000Z</time>
      </trkpt>
      <trkpt lat="43.27920927666127681732177734375" lon="-2.126959897577762603759765625">
        <ele>0.4000000059604644775390625</ele>
        <time>2018-09-02T11:42:38.000Z</time>
      </trkpt>
      <trkpt lat="43.27931438572704792022705078125" lon="-2.12685822509229183197021484375">
        <ele>1</ele>
        <time>2018-09-02T11:42:42.000Z</time>
      </trkpt>
      <trkpt lat="43.27933542430400848388671875" lon="-2.12682201527059078216552734375">
        <ele>1.60000002384185791015625</ele>
        <time>2018-09-02T11:42:44.000Z</time>
      </trkpt>
      <trkpt lat="43.279352523386478424072265625" lon="-2.12682000361382961273193359375">
        <ele>1.39999997615814208984375</ele>
        <time>2018-09-02T11:42:45.000Z</time>
      </trkpt>
      <trkpt lat="43.27944162301719188690185546875" lon="-2.12679619900882244110107421875">
        <ele>0.60000002384185791015625</ele>
        <time>2018-09-02T11:42:49.000Z</time>
      </trkpt>
      <trkpt lat="43.2795364223420619964599609375" lon="-2.12670651264488697052001953125">
        <ele>1</ele>
        <time>2018-09-02T11:42:53.000Z</time>
      </trkpt>
      <trkpt lat="43.279590569436550140380859375" lon="-2.12666158564388751983642578125">
        <ele>1</ele>
        <time>2018-09-02T11:42:55.000Z</time>
      </trkpt>
      <trkpt lat="43.279815204441547393798828125" lon="-2.12644667364656925201416015625">
        <ele>0.60000002384185791015625</ele>
        <time>2018-09-02T11:43:02.000Z</time>
      </trkpt>
      <trkpt lat="43.2799840159714221954345703125" lon="-2.1262526325881481170654296875">
        <ele>1</ele>
        <time>2018-09-02T11:43:08.000Z</time>
      </trkpt>
      <trkpt lat="43.28013011254370212554931640625" lon="-2.126090526580810546875">
        <ele>1</ele>
        <time>2018-09-02T11:43:13.000Z</time>
      </trkpt>
      <trkpt lat="43.28038550913333892822265625" lon="-2.12583010084927082061767578125">
        <ele>0.4000000059604644775390625</ele>
        <time>2018-09-02T11:43:21.000Z</time>
      </trkpt>
      <trkpt lat="43.2805801369249820709228515625" lon="-2.12563849054276943206787109375">
        <ele>1</ele>
        <time>2018-09-02T11:43:28.000Z</time>
      </trkpt>
      <trkpt lat="43.28080871142446994781494140625" lon="-2.12547889910638332366943359375">
        <ele>1.39999997615814208984375</ele>
        <time>2018-09-02T11:43:36.000Z</time>
      </trkpt>
      <trkpt lat="43.28103401698172092437744140625" lon="-2.1253983490169048309326171875">
        <ele>1.60000002384185791015625</ele>
        <time>2018-09-02T11:43:43.000Z</time>
      </trkpt>
      <trkpt lat="43.281209953129291534423828125" lon="-2.12536431849002838134765625">
        <ele>1.7999999523162841796875</ele>
        <time>2018-09-02T11:43:49.000Z</time>
      </trkpt>
      <trkpt lat="43.2812681235373020172119140625" lon="-2.125346548855304718017578125">
        <ele>2</ele>
        <time>2018-09-02T11:43:51.000Z</time>
      </trkpt>
      <trkpt lat="43.2815135456621646881103515625" lon="-2.1252900548279285430908203125">
        <ele>2.599999904632568359375</ele>
        <time>2018-09-02T11:43:59.000Z</time>
      </trkpt>
      <trkpt lat="43.281663246452808380126953125" lon="-2.12523113004863262176513671875">
        <ele>2.7999999523162841796875</ele>
        <time>2018-09-02T11:44:04.000Z</time>
      </trkpt>
      <trkpt lat="43.28170909546315670013427734375" lon="-2.12520732544362545013427734375">
        <ele>2.7999999523162841796875</ele>
        <time>2018-09-02T11:44:06.000Z</time>
      </trkpt>
      <trkpt lat="43.2817358337342739105224609375" lon="-2.12516189552843570709228515625">
        <ele>3</ele>
        <time>2018-09-02T11:44:09.000Z</time>
      </trkpt>
      <trkpt lat="43.28171127475798130035400390625" lon="-2.1251492388546466827392578125">
        <ele>3.2000000476837158203125</ele>
        <time>2018-09-02T11:44:12.000Z</time>
      </trkpt>
      <trkpt lat="43.2817076705396175384521484375" lon="-2.1250580437481403350830078125">
        <ele>3.2000000476837158203125</ele>
        <time>2018-09-02T11:44:16.000Z</time>
      </trkpt>
      <trkpt lat="43.281716220080852508544921875" lon="-2.12492988444864749908447265625">
        <ele>3.400000095367431640625</ele>
        <time>2018-09-02T11:44:21.000Z</time>
      </trkpt>
      <trkpt lat="43.2817274518311023712158203125" lon="-2.12489468045532703399658203125">
        <ele>3.2000000476837158203125</ele>
        <time>2018-09-02T11:44:24.000Z</time>
      </trkpt>
      <trkpt lat="43.281738348305225372314453125" lon="-2.124862410128116607666015625">
        <ele>3</ele>
        <time>2018-09-02T11:44:26.000Z</time>
      </trkpt>
      <trkpt lat="43.28173843212425708770751953125" lon="-2.124816812574863433837890625">
        <ele>3</ele>
        <time>2018-09-02T11:44:28.000Z</time>
      </trkpt>
      <trkpt lat="43.28171856701374053955078125" lon="-2.1247271262109279632568359375">
        <ele>2.7999999523162841796875</ele>
        <time>2018-09-02T11:44:33.000Z</time>
      </trkpt>
      <trkpt lat="43.2816785015165805816650390625" lon="-2.124582789838314056396484375">
        <ele>3.400000095367431640625</ele>
        <time>2018-09-02T12:25:06.000Z</time>
      </trkpt>
      <trkpt lat="43.28167271800339221954345703125" lon="-2.12455051951110363006591796875">
        <ele>3.2000000476837158203125</ele>
        <time>2018-09-02T12:25:07.000Z</time>
      </trkpt>
      <trkpt lat="43.2816557027399539947509765625" lon="-2.12449394166469573974609375">
        <ele>3.2000000476837158203125</ele>
        <time>2018-09-02T12:25:09.000Z</time>
      </trkpt>
      <trkpt lat="43.28161991201341152191162109375" lon="-2.1244505234062671661376953125">
        <ele>3.400000095367431640625</ele>
        <time>2018-09-02T12:25:11.000Z</time>
      </trkpt>
      <trkpt lat="43.28157800249755382537841796875" lon="-2.12444541044533252716064453125">
        <ele>3.599999904632568359375</ele>
        <time>2018-09-02T12:25:13.000Z</time>
      </trkpt>
      <trkpt lat="43.281512372195720672607421875" lon="-2.12445680983364582061767578125">
        <ele>3.7999999523162841796875</ele>
        <time>2018-09-02T12:25:16.000Z</time>
      </trkpt>
      <trkpt lat="43.2814877294003963470458984375" lon="-2.12446175515651702880859375">
        <ele>3.7999999523162841796875</ele>
        <time>2018-09-02T12:25:17.000Z</time>
      </trkpt>
      <trkpt lat="43.28142142854630947113037109375" lon="-2.12447541765868663787841796875">
        <ele>3.7999999523162841796875</ele>
        <time>2018-09-02T12:25:20.000Z</time>
      </trkpt>
      <trkpt lat="43.2812915928661823272705078125" lon="-2.12459494359791278839111328125">
        <ele>4.19999980926513671875</ele>
        <time>2018-09-02T12:25:26.000Z</time>
      </trkpt>
      <trkpt lat="43.28125127591192722320556640625" lon="-2.12464749813079833984375">
        <ele>4</ele>
        <time>2018-09-02T12:25:28.000Z</time>
      </trkpt>
      <trkpt lat="43.281154967844486236572265625" lon="-2.1248018927872180938720703125">
        <ele>3.599999904632568359375</ele>
        <time>2018-09-02T12:25:34.000Z</time>
      </trkpt>
      <trkpt lat="43.28113677911460399627685546875" lon="-2.1248937584459781646728515625">
        <ele>3</ele>
        <time>2018-09-02T12:25:37.000Z</time>
      </trkpt>
      <trkpt lat="43.2811249606311321258544921875" lon="-2.12494321167469024658203125">
        <ele>3</ele>
        <time>2018-09-02T12:25:40.000Z</time>
      </trkpt>
      <trkpt lat="43.28107257373631000518798828125" lon="-2.12496425025165081024169921875">
        <ele>3.400000095367431640625</ele>
        <time>2018-09-02T12:26:27.000Z</time>
      </trkpt>
      <trkpt lat="43.2810513675212860107421875" lon="-2.1249742247164249420166015625">
        <ele>3.599999904632568359375</ele>
        <time>2018-09-02T12:26:28.000Z</time>
      </trkpt>
      <trkpt lat="43.28088817186653614044189453125" lon="-2.1250124461948871612548828125">
        <ele>3.2000000476837158203125</ele>
        <time>2018-09-02T12:26:36.000Z</time>
      </trkpt>
      <trkpt lat="43.2807886786758899688720703125" lon="-2.12503935210406780242919921875">
        <ele>3</ele>
        <time>2018-09-02T12:26:41.000Z</time>
      </trkpt>
      <trkpt lat="43.28071952797472476959228515625" lon="-2.1250603906810283660888671875">
        <ele>3.2000000476837158203125</ele>
        <time>2018-09-02T12:26:45.000Z</time>
      </trkpt>
      <trkpt lat="43.28065683133900165557861328125" lon="-2.12510146200656890869140625">
        <ele>3.400000095367431640625</ele>
        <time>2018-09-02T12:26:47.000Z</time>
      </trkpt>
      <trkpt lat="43.28063755296170711517333984375" lon="-2.12513473816215991973876953125">
        <ele>3</ele>
        <time>2018-09-02T12:26:48.000Z</time>
      </trkpt>
      <trkpt lat="43.28065331093966960906982421875" lon="-2.12523498572409152984619140625">
        <ele>3.2000000476837158203125</ele>
        <time>2018-09-02T12:26:51.000Z</time>
      </trkpt>
      <trkpt lat="43.2806907780468463897705078125" lon="-2.12537613697350025177001953125">
        <ele>3.2000000476837158203125</ele>
        <time>2018-09-02T12:26:56.000Z</time>
      </trkpt>
      <trkpt lat="43.2806911133229732513427734375" lon="-2.12540631182491779327392578125">
        <ele>3.2000000476837158203125</ele>
        <time>2018-09-02T12:26:57.000Z</time>
      </trkpt>
      <trkpt lat="43.280683569610118865966796875" lon="-2.1254335530102252960205078125">
        <ele>3.2000000476837158203125</ele>
        <time>2018-09-02T12:26:58.000Z</time>
      </trkpt>
      <trkpt lat="43.2806683145463466644287109375" lon="-2.12560680694878101348876953125">
        <ele>3</ele>
        <time>2018-09-02T12:27:03.000Z</time>
      </trkpt>
      <trkpt lat="43.28072556294500827789306640625" lon="-2.12575298734009265899658203125">
        <ele>3</ele>
        <time>2018-09-02T12:27:08.000Z</time>
      </trkpt>
      <trkpt lat="43.28075942583382129669189453125" lon="-2.12580629624426364898681640625">
        <ele>3</ele>
        <time>2018-09-02T12:27:10.000Z</time>
      </trkpt>
      <trkpt lat="43.2808721624314785003662109375" lon="-2.12597795762121677398681640625">
        <ele>2.7999999523162841796875</ele>
        <time>2018-09-02T12:27:17.000Z</time>
      </trkpt>
      <trkpt lat="43.2808979786932468414306640625" lon="-2.12606060318648815155029296875">
        <ele>2.400000095367431640625</ele>
        <time>2018-09-02T12:27:20.000Z</time>
      </trkpt>
      <trkpt lat="43.28095891512930393218994140625" lon="-2.1261232160031795501708984375">
        <ele>2.7999999523162841796875</ele>
        <time>2018-09-02T12:27:23.000Z</time>
      </trkpt>
      <trkpt lat="43.28104667365550994873046875" lon="-2.12619957514107227325439453125">
        <ele>3.2000000476837158203125</ele>
        <time>2018-09-02T12:27:27.000Z</time>
      </trkpt>
      <trkpt lat="43.28112713992595672607421875" lon="-2.126223631203174591064453125">
        <ele>3.599999904632568359375</ele>
        <time>2018-09-02T12:27:30.000Z</time>
      </trkpt>
      <trkpt lat="43.2812030799686908721923828125" lon="-2.1262506209313869476318359375">
        <ele>3.7999999523162841796875</ele>
        <time>2018-09-02T12:27:33.000Z</time>
      </trkpt>
      <trkpt lat="43.28138672746717929840087890625" lon="-2.12630921043455600738525390625">
        <ele>3.7999999523162841796875</ele>
        <time>2018-09-02T12:27:40.000Z</time>
      </trkpt>
      <trkpt lat="43.28154950402677059173583984375" lon="-2.12635095231235027313232421875">
        <ele>3.7999999523162841796875</ele>
        <time>2018-09-02T12:27:46.000Z</time>
      </trkpt>
      <trkpt lat="43.2817700318992137908935546875" lon="-2.1264165826141834259033203125">
        <ele>4.400000095367431640625</ele>
        <time>2018-09-02T12:27:54.000Z</time>
      </trkpt>
      <trkpt lat="43.28189735300838947296142578125" lon="-2.12646226398646831512451171875">
        <ele>4.599999904632568359375</ele>
        <time>2018-09-02T12:28:01.000Z</time>
      </trkpt>
      <trkpt lat="43.28190456144511699676513671875" lon="-2.1265345998108386993408203125">
        <ele>4.599999904632568359375</ele>
        <time>2018-09-02T12:28:04.000Z</time>
      </trkpt>
      <trkpt lat="43.2819142006337642669677734375" lon="-2.12658732198178768157958984375">
        <ele>4.599999904632568359375</ele>
        <time>2018-09-02T12:28:06.000Z</time>
      </trkpt>
      <trkpt lat="43.2819192297756671905517578125" lon="-2.12661347351968288421630859375">
        <ele>4.599999904632568359375</ele>
        <time>2018-09-02T12:28:07.000Z</time>
      </trkpt>
      <trkpt lat="43.2819369994103908538818359375" lon="-2.12674909271299839019775390625">
        <ele>4.599999904632568359375</ele>
        <time>2018-09-02T12:28:13.000Z</time>
      </trkpt>
      <trkpt lat="43.28197798691689968109130859375" lon="-2.1268571354448795318603515625">
        <ele>4.599999904632568359375</ele>
        <time>2018-09-02T12:28:19.000Z</time>
      </trkpt>
      <trkpt lat="43.28199776820838451385498046875" lon="-2.1270871348679065704345703125">
        <ele>4</ele>
        <time>2018-09-02T12:28:26.000Z</time>
      </trkpt>
      <trkpt lat="43.28195719979703426361083984375" lon="-2.12716366164386272430419921875">
        <ele>4.400000095367431640625</ele>
        <time>2018-09-02T12:28:31.000Z</time>
      </trkpt>
      <trkpt lat="43.28190439380705356597900390625" lon="-2.12715804576873779296875">
        <ele>4.400000095367431640625</ele>
        <time>2018-09-02T12:28:33.000Z</time>
      </trkpt>
      <trkpt lat="43.28184328973293304443359375" lon="-2.12714186869561672210693359375">
        <ele>4.400000095367431640625</ele>
        <time>2018-09-02T12:28:35.000Z</time>
      </trkpt>
      <trkpt lat="43.28165846876800060272216796875" lon="-2.12710482068359851837158203125">
        <ele>4.19999980926513671875</ele>
        <time>2018-09-02T12:28:40.000Z</time>
      </trkpt>
      <trkpt lat="43.2815797626972198486328125" lon="-2.12709090672433376312255859375">
        <ele>3.7999999523162841796875</ele>
        <time>2018-09-02T12:28:42.000Z</time>
      </trkpt>
      <trkpt lat="43.2814169861376285552978515625" lon="-2.12706349790096282958984375">
        <ele>3.599999904632568359375</ele>
        <time>2018-09-02T12:28:46.000Z</time>
      </trkpt>
      <trkpt lat="43.28116603195667266845703125" lon="-2.12701764889061450958251953125">
        <ele>3.2000000476837158203125</ele>
        <time>2018-09-02T12:28:52.000Z</time>
      </trkpt>
      <trkpt lat="43.28107994981110095977783203125" lon="-2.1270038187503814697265625">
        <ele>3</ele>
        <time>2018-09-02T12:28:54.000Z</time>
      </trkpt>
      <trkpt lat="43.28099344857037067413330078125" lon="-2.126984037458896636962890625">
        <ele>3.400000095367431640625</ele>
        <time>2018-09-02T12:28:56.000Z</time>
      </trkpt>
      <trkpt lat="43.28082111664116382598876953125" lon="-2.12694204412400722503662109375">
        <ele>3</ele>
        <time>2018-09-02T12:29:00.000Z</time>
      </trkpt>
      <trkpt lat="43.2806817255914211273193359375" lon="-2.12691999971866607666015625">
        <ele>2.7999999523162841796875</ele>
        <time>2018-09-02T12:29:03.000Z</time>
      </trkpt>
      <trkpt lat="43.280403614044189453125" lon="-2.126857973635196685791015625">
        <ele>2.7999999523162841796875</ele>
        <time>2018-09-02T12:29:09.000Z</time>
      </trkpt>
      <trkpt lat="43.280354999005794525146484375" lon="-2.12684850208461284637451171875">
        <ele>2.599999904632568359375</ele>
        <time>2018-09-02T12:29:10.000Z</time>
      </trkpt>
      <trkpt lat="43.28016866929829120635986328125" lon="-2.12681313045322895050048828125">
        <ele>2.400000095367431640625</ele>
        <time>2018-09-02T12:29:14.000Z</time>
      </trkpt>
      <trkpt lat="43.28003036789596080780029296875" lon="-2.12685805745422840118408203125">
        <ele>2.400000095367431640625</ele>
        <time>2018-09-02T12:29:17.000Z</time>
      </trkpt>
      <trkpt lat="43.27994587831199169158935546875" lon="-2.126909606158733367919921875">
        <ele>2.599999904632568359375</ele>
        <time>2018-09-02T12:29:19.000Z</time>
      </trkpt>
      <trkpt lat="43.279866166412830352783203125" lon="-2.12695780210196971893310546875">
        <ele>2.400000095367431640625</ele>
        <time>2018-09-02T12:29:21.000Z</time>
      </trkpt>
      <trkpt lat="43.27974219806492328643798828125" lon="-2.12703726254403591156005859375">
        <ele>2.2000000476837158203125</ele>
        <time>2018-09-02T12:29:24.000Z</time>
      </trkpt>
      <trkpt lat="43.279477246105670928955078125" lon="-2.12717724032700061798095703125">
        <ele>2</ele>
        <time>2018-09-02T12:29:30.000Z</time>
      </trkpt>
      <trkpt lat="43.2793932594358921051025390625" lon="-2.12723339907824993133544921875">
        <ele>2.2000000476837158203125</ele>
        <time>2018-09-02T12:29:32.000Z</time>
      </trkpt>
      <trkpt lat="43.2789607532322406768798828125" lon="-2.12748535908758640289306640625">
        <ele>2.400000095367431640625</ele>
        <time>2018-09-02T12:29:42.000Z</time>
      </trkpt>
      <trkpt lat="43.278587423264980316162109375" lon="-2.127737067639827728271484375">
        <ele>2.599999904632568359375</ele>
        <time>2018-09-02T12:29:51.000Z</time>
      </trkpt>
      <trkpt lat="43.27839036472141742706298828125" lon="-2.1278621256351470947265625">
        <ele>2.7999999523162841796875</ele>
        <time>2018-09-02T12:29:56.000Z</time>
      </trkpt>
      <trkpt lat="43.278270252048969268798828125" lon="-2.12794401682913303375244140625">
        <ele>2.7999999523162841796875</ele>
        <time>2018-09-02T12:29:59.000Z</time>
      </trkpt>
      <trkpt lat="43.2782288454473018646240234375" lon="-2.12797352112829685211181640625">
        <ele>2.7999999523162841796875</ele>
        <time>2018-09-02T12:30:00.000Z</time>
      </trkpt>
      <trkpt lat="43.278009407222270965576171875" lon="-2.12805650196969509124755859375">
        <ele>2.7999999523162841796875</ele>
        <time>2018-09-02T12:30:06.000Z</time>
      </trkpt>
      <trkpt lat="43.27797831036150455474853515625" lon="-2.12798106484115123748779296875">
        <ele>3</ele>
        <time>2018-09-02T12:30:09.000Z</time>
      </trkpt>
      <trkpt lat="43.27796573750674724578857421875" lon="-2.12795206345617771148681640625">
        <ele>2.7999999523162841796875</ele>
        <time>2018-09-02T12:30:10.000Z</time>
      </trkpt>
      <trkpt lat="43.2779032923281192779541015625" lon="-2.1277700923383235931396484375">
        <ele>2.7999999523162841796875</ele>
        <time>2018-09-02T12:30:15.000Z</time>
      </trkpt>
      <trkpt lat="43.2778717763721942901611328125" lon="-2.12770764715969562530517578125">
        <ele>2.7999999523162841796875</ele>
        <time>2018-09-02T12:30:18.000Z</time>
      </trkpt>
      <trkpt lat="43.27787085436284542083740234375" lon="-2.127717621624469757080078125">
        <ele>3</ele>
        <time>2018-09-02T12:30:19.000Z</time>
      </trkpt>
      <trkpt lat="43.27788560651242733001708984375" lon="-2.12772508151829242706298828125">
        <ele>3</ele>
        <time>2018-09-02T12:30:20.000Z</time>
      </trkpt>
      <trkpt lat="43.277886696159839630126953125" lon="-2.12775374762713909149169921875">
        <ele>3</ele>
        <time>2018-09-02T12:30:22.000Z</time>
      </trkpt>
      <trkpt lat="43.27789532952010631561279296875" lon="-2.12777839042246341705322265625">
        <ele>3</ele>
        <time>2018-09-02T12:30:23.000Z</time>
      </trkpt>
      <trkpt lat="43.27790320850908756256103515625" lon="-2.12779984809458255767822265625">
        <ele>3.2000000476837158203125</ele>
        <time>2018-09-02T12:30:24.000Z</time>
      </trkpt>
      <trkpt lat="43.27794310636818408966064453125" lon="-2.1278669871389865875244140625">
        <ele>3</ele>
        <time>2018-09-02T12:30:29.000Z</time>
      </trkpt>
      <trkpt lat="43.27795232646167278289794921875" lon="-2.12788500823080539703369140625">
        <ele>3</ele>
        <time>2018-09-02T12:30:30.000Z</time>
      </trkpt>
      <trkpt lat="43.27798736281692981719970703125" lon="-2.12794183753430843353271484375">
        <ele>2.7999999523162841796875</ele>
        <time>2018-09-02T12:30:33.000Z</time>
      </trkpt>
      <trkpt lat="43.27797898091375827789306640625" lon="-2.1279571764171123504638671875">
        <ele>3</ele>
        <time>2018-09-02T12:30:34.000Z</time>
      </trkpt>
      <trkpt lat="43.27795266173779964447021484375" lon="-2.12797285057604312896728515625">
        <ele>2.7999999523162841796875</ele>
        <time>2018-09-02T12:30:36.000Z</time>
      </trkpt>
      <trkpt lat="43.2779274322092533111572265625" lon="-2.12801777757704257965087890625">
        <ele>2.7999999523162841796875</ele>
        <time>2018-09-02T12:30:39.000Z</time>
      </trkpt>
      <trkpt lat="43.2779334671795368194580078125" lon="-2.1280379779636859893798828125">
        <ele>2.7999999523162841796875</ele>
        <time>2018-09-02T12:30:40.000Z</time>
      </trkpt>
      <trkpt lat="43.2778996042907238006591796875" lon="-2.1281697414815425872802734375">
        <ele>2.7999999523162841796875</ele>
        <time>2018-09-02T12:30:45.000Z</time>
      </trkpt>
      <trkpt lat="43.27781184576451778411865234375" lon="-2.12822061963379383087158203125">
        <ele>3</ele>
        <time>2018-09-02T12:30:48.000Z</time>
      </trkpt>
      <trkpt lat="43.2777540944516658782958984375" lon="-2.1282582543790340423583984375">
        <ele>2.7999999523162841796875</ele>
        <time>2018-09-02T12:30:50.000Z</time>
      </trkpt>
      <trkpt lat="43.27757447026669979095458984375" lon="-2.12838389910757541656494140625">
        <ele>2.7999999523162841796875</ele>
        <time>2018-09-02T12:30:56.000Z</time>
      </trkpt>
      <trkpt lat="43.277544714510440826416015625" lon="-2.12840971536934375762939453125">
        <ele>2.7999999523162841796875</ele>
        <time>2018-09-02T12:30:57.000Z</time>
      </trkpt>
      <trkpt lat="43.27741353772580623626708984375" lon="-2.12849638424813747406005859375">
        <ele>2.7999999523162841796875</ele>
        <time>2018-09-02T12:31:01.000Z</time>
      </trkpt>
      <trkpt lat="43.27724489383399486541748046875" lon="-2.1286086179316043853759765625">
        <ele>2.2000000476837158203125</ele>
        <time>2018-09-02T12:31:06.000Z</time>
      </trkpt>
      <trkpt lat="43.2772096060216426849365234375" lon="-2.12863133288919925689697265625">
        <ele>2.400000095367431640625</ele>
        <time>2018-09-02T12:31:07.000Z</time>
      </trkpt>
      <trkpt lat="43.2770952768623828887939453125" lon="-2.12869654409587383270263671875">
        <ele>2.599999904632568359375</ele>
        <time>2018-09-02T12:31:10.000Z</time>
      </trkpt>
      <trkpt lat="43.27690626494586467742919921875" lon="-2.12881573475897312164306640625">
        <ele>2.599999904632568359375</ele>
        <time>2018-09-02T12:31:15.000Z</time>
      </trkpt>
      <trkpt lat="43.27666805125772953033447265625" lon="-2.12894598953425884246826171875">
        <ele>2.7999999523162841796875</ele>
        <time>2018-09-02T12:31:22.000Z</time>
      </trkpt>
      <trkpt lat="43.2766382955014705657958984375" lon="-2.12892788462340831756591796875">
        <ele>2.7999999523162841796875</ele>
        <time>2018-09-02T12:31:23.000Z</time>
      </trkpt>
      <trkpt lat="43.2765906862914562225341796875" lon="-2.12886803783476352691650390625">
        <ele>2.7999999523162841796875</ele>
        <time>2018-09-02T12:31:25.000Z</time>
      </trkpt>
      <trkpt lat="43.2765383832156658172607421875" lon="-2.1287070214748382568359375">
        <ele>2.599999904632568359375</ele>
        <time>2018-09-02T12:31:29.000Z</time>
      </trkpt>
      <trkpt lat="43.27652690000832080841064453125" lon="-2.1286667883396148681640625">
        <ele>2.599999904632568359375</ele>
        <time>2018-09-02T12:31:30.000Z</time>
      </trkpt>
      <trkpt lat="43.2764840684831142425537109375" lon="-2.12855237536132335662841796875">
        <ele>2.599999904632568359375</ele>
        <time>2018-09-02T12:31:33.000Z</time>
      </trkpt>
      <trkpt lat="43.27645950950682163238525390625" lon="-2.12847291491925716400146484375">
        <ele>2.599999904632568359375</ele>
        <time>2018-09-02T12:31:35.000Z</time>
      </trkpt>
      <trkpt lat="43.27637367881834506988525390625" lon="-2.128197066485881805419921875">
        <ele>3</ele>
        <time>2018-09-02T12:31:42.000Z</time>
      </trkpt>
      <trkpt lat="43.27627846039831638336181640625" lon="-2.1281419135630130767822265625">
        <ele>2.7999999523162841796875</ele>
        <time>2018-09-02T12:31:46.000Z</time>
      </trkpt>
      <trkpt lat="43.2761950604617595672607421875" lon="-2.12815943174064159393310546875">
        <ele>3.2000000476837158203125</ele>
        <time>2018-09-02T12:31:51.000Z</time>
      </trkpt>
      <trkpt lat="43.27606304548680782318115234375" lon="-2.12824727408587932586669921875">
        <ele>3.2000000476837158203125</ele>
        <time>2018-09-02T12:31:56.000Z</time>
      </trkpt>
      <trkpt lat="43.27603756450116634368896484375" lon="-2.12826437316834926605224609375">
        <ele>3.2000000476837158203125</ele>
        <time>2018-09-02T12:31:57.000Z</time>
      </trkpt>
      <trkpt lat="43.2759037055075168609619140625" lon="-2.128345258533954620361328125">
        <ele>3.400000095367431640625</ele>
        <time>2018-09-02T12:32:03.000Z</time>
      </trkpt>
      <trkpt lat="43.27585869468748569488525390625" lon="-2.12837819941341876983642578125">
        <ele>3</ele>
        <time>2018-09-02T12:32:06.000Z</time>
      </trkpt>
      <trkpt lat="43.27579013071954250335693359375" lon="-2.12840099819004535675048828125">
        <ele>3</ele>
        <time>2018-09-02T12:32:09.000Z</time>
      </trkpt>
      <trkpt lat="43.27571502886712551116943359375" lon="-2.12838054634630680084228515625">
        <ele>2.7999999523162841796875</ele>
        <time>2018-09-02T12:32:12.000Z</time>
      </trkpt>
      <trkpt lat="43.27567714266479015350341796875" lon="-2.12832354940474033355712890625">
        <ele>2.7999999523162841796875</ele>
        <time>2018-09-02T12:32:14.000Z</time>
      </trkpt>
      <trkpt lat="43.27565870247781276702880859375" lon="-2.1282435022294521331787109375">
        <ele>3</ele>
        <time>2018-09-02T12:32:17.000Z</time>
      </trkpt>
      <trkpt lat="43.27565233223140239715576171875" lon="-2.12815641425549983978271484375">
        <ele>3.2000000476837158203125</ele>
        <time>2018-09-02T12:32:19.000Z</time>
      </trkpt>
      <trkpt lat="43.275653421878814697265625" lon="-2.127957679331302642822265625">
        <ele>3</ele>
        <time>2018-09-02T12:32:25.000Z</time>
      </trkpt>
      <trkpt lat="43.27572793699800968170166015625" lon="-2.127851061522960662841796875">
        <ele>2.7999999523162841796875</ele>
        <time>2018-09-02T12:32:29.000Z</time>
      </trkpt>
      <trkpt lat="43.2757474668323993682861328125" lon="-2.12769440375268459320068359375">
        <ele>3.2000000476837158203125</ele>
        <time>2018-09-02T12:32:33.000Z</time>
      </trkpt>
      <trkpt lat="43.27575459145009517669677734375" lon="-2.12765450589358806610107421875">
        <ele>3.2000000476837158203125</ele>
        <time>2018-09-02T12:32:34.000Z</time>
      </trkpt>
      <trkpt lat="43.2757472991943359375" lon="-2.127582170069217681884765625">
        <ele>3.2000000476837158203125</ele>
        <time>2018-09-02T12:32:37.000Z</time>
      </trkpt>
      <trkpt lat="43.275755010545253753662109375" lon="-2.12755626998841762542724609375">
        <ele>3</ele>
        <time>2018-09-02T12:32:38.000Z</time>
      </trkpt>
      <trkpt lat="43.27580555342137813568115234375" lon="-2.12744361720979213714599609375">
        <ele>3</ele>
        <time>2018-09-02T12:32:41.000Z</time>
      </trkpt>
      <trkpt lat="43.27583103440701961517333984375" lon="-2.12739617563784122467041015625">
        <ele>3</ele>
        <time>2018-09-02T12:32:42.000Z</time>
      </trkpt>
      <trkpt lat="43.27594972215592861175537109375" lon="-2.12716952897608280181884765625">
        <ele>3</ele>
        <time>2018-09-02T12:32:49.000Z</time>
      </trkpt>
      <trkpt lat="43.2759389095008373260498046875" lon="-2.127123512327671051025390625">
        <ele>3.2000000476837158203125</ele>
        <time>2018-09-02T12:32:52.000Z</time>
      </trkpt>
      <trkpt lat="43.2759164460003376007080078125" lon="-2.1270750649273395538330078125">
        <ele>3</ele>
        <time>2018-09-02T12:32:55.000Z</time>
      </trkpt>
      <trkpt lat="43.2759070582687854766845703125" lon="-2.12706676684319972991943359375">
        <ele>3</ele>
        <time>2018-09-02T12:32:56.000Z</time>
      </trkpt>
      <trkpt lat="43.27587604522705078125" lon="-2.127061150968074798583984375">
        <ele>3.2000000476837158203125</ele>
        <time>2018-09-02T12:32:59.000Z</time>
      </trkpt>
      <trkpt lat="43.2757756300270557403564453125" lon="-2.12694942019879817962646484375">
        <ele>3.2000000476837158203125</ele>
        <time>2018-09-02T12:33:17.000Z</time>
      </trkpt>
      <trkpt lat="43.2757451198995113372802734375" lon="-2.1268826164305210113525390625">
        <ele>3.2000000476837158203125</ele>
        <time>2018-09-02T12:33:20.000Z</time>
      </trkpt>
      <trkpt lat="43.275773786008358001708984375" lon="-2.12670684792101383209228515625">
        <ele>3.400000095367431640625</ele>
        <time>2018-09-02T12:33:25.000Z</time>
      </trkpt>
      <trkpt lat="43.275798596441745758056640625" lon="-2.12653904221951961517333984375">
        <ele>3.2000000476837158203125</ele>
        <time>2018-09-02T12:33:30.000Z</time>
      </trkpt>
      <trkpt lat="43.2758292742073535919189453125" lon="-2.1263894252479076385498046875">
        <ele>3.2000000476837158203125</ele>
        <time>2018-09-02T12:33:35.000Z</time>
      </trkpt>
      <trkpt lat="43.27584411017596721649169921875" lon="-2.12634106166660785675048828125">
        <ele>3.2000000476837158203125</ele>
        <time>2018-09-02T12:33:37.000Z</time>
      </trkpt>
      <trkpt lat="43.275881744921207427978515625" lon="-2.1263642795383930206298828125">
        <ele>3.2000000476837158203125</ele>
        <time>2018-09-02T12:33:39.000Z</time>
      </trkpt>
      <trkpt lat="43.2760331220924854278564453125" lon="-2.12641230784356594085693359375">
        <ele>3.400000095367431640625</ele>
        <time>2018-09-02T12:33:45.000Z</time>
      </trkpt>
      <trkpt lat="43.2760616205632686614990234375" lon="-2.12638280354440212249755859375">
        <ele>3.400000095367431640625</ele>
        <time>2018-09-02T12:33:48.000Z</time>
      </trkpt>
      <trkpt lat="43.2760619558393955230712890625" lon="-2.12635430507361888885498046875">
        <ele>3.599999904632568359375</ele>
        <time>2018-09-02T12:33:49.000Z</time>
      </trkpt>
      <trkpt lat="43.27607343904674053192138671875" lon="-2.1262206137180328369140625">
        <ele>3.400000095367431640625</ele>
        <time>2018-09-02T12:33:53.000Z</time>
      </trkpt>
      <trkpt lat="43.27612750232219696044921875" lon="-2.1260266564786434173583984375">
        <ele>3.7999999523162841796875</ele>
        <time>2018-09-02T12:33:59.000Z</time>
      </trkpt>
      <trkpt lat="43.2761350460350513458251953125" lon="-2.1259443461894989013671875">
        <ele>4.400000095367431640625</ele>
        <time>2018-09-02T12:34:02.000Z</time>
      </trkpt>
      <trkpt lat="43.2761253230273723602294921875" lon="-2.12589983828365802764892578125">
        <ele>4.80000019073486328125</ele>
        <time>2018-09-02T12:34:04.000Z</time>
      </trkpt>
      <trkpt lat="43.27612121589481830596923828125" lon="-2.12588022463023662567138671875">
        <ele>5.19999980926513671875</ele>
        <time>2018-09-02T12:34:05.000Z</time>
      </trkpt>
      <trkpt lat="43.27607729472219944000244140625" lon="-2.12586186826229095458984375">
        <ele>5.599999904632568359375</ele>
        <time>2018-09-02T12:34:07.000Z</time>
      </trkpt>
      <trkpt lat="43.2760532386600971221923828125" lon="-2.125854827463626861572265625">
        <ele>5.599999904632568359375</ele>
        <time>2018-09-02T12:34:08.000Z</time>
      </trkpt>
      <trkpt lat="43.27603085897862911224365234375" lon="-2.1258476190268993377685546875">
        <ele>5.599999904632568359375</ele>
        <time>2018-09-02T12:34:09.000Z</time>
      </trkpt>
      <trkpt lat="43.27597863972187042236328125" lon="-2.12583898566663265228271484375">
        <ele>5.80000019073486328125</ele>
        <time>2018-09-02T12:34:11.000Z</time>
      </trkpt>
      <trkpt lat="43.27595022507011890411376953125" lon="-2.12583697400987148284912109375">
        <ele>5.80000019073486328125</ele>
        <time>2018-09-02T12:34:12.000Z</time>
      </trkpt>
      <trkpt lat="43.27583354897797107696533203125" lon="-2.12579439394176006317138671875">
        <ele>6</ele>
        <time>2018-09-02T12:34:16.000Z</time>
      </trkpt>
      <trkpt lat="43.27557052485644817352294921875" lon="-2.12575281970202922821044921875">
        <ele>6.400000095367431640625</ele>
        <time>2018-09-02T12:34:24.000Z</time>
      </trkpt>
      <trkpt lat="43.27531286515295505523681640625" lon="-2.12569565512239933013916015625">
        <ele>6</ele>
        <time>2018-09-02T12:34:32.000Z</time>
      </trkpt>
      <trkpt lat="43.2751044072210788726806640625" lon="-2.12567009031772613525390625">
        <ele>5.80000019073486328125</ele>
        <time>2018-09-02T12:34:38.000Z</time>
      </trkpt>
      <trkpt lat="43.27499653212726116180419921875" lon="-2.12565005756914615631103515625">
        <ele>6</ele>
        <time>2018-09-02T12:34:41.000Z</time>
      </trkpt>
      <trkpt lat="43.2748462446033954620361328125" lon="-2.1256300248205661773681640625">
        <ele>6.19999980926513671875</ele>
        <time>2018-09-02T12:34:45.000Z</time>
      </trkpt>
      <trkpt lat="43.2747667841613292694091796875" lon="-2.1256135962903499603271484375">
        <ele>6.19999980926513671875</ele>
        <time>2018-09-02T12:34:47.000Z</time>
      </trkpt>
      <trkpt lat="43.27460358850657939910888671875" lon="-2.12558652274310588836669921875">
        <ele>5.80000019073486328125</ele>
        <time>2018-09-02T12:34:51.000Z</time>
      </trkpt>
      <trkpt lat="43.27452446334064006805419921875" lon="-2.12559423409402370452880859375">
        <ele>6</ele>
        <time>2018-09-02T12:34:53.000Z</time>
      </trkpt>
      <trkpt lat="43.2744502834975719451904296875" lon="-2.125630863010883331298828125">
        <ele>5.80000019073486328125</ele>
        <time>2018-09-02T12:34:55.000Z</time>
      </trkpt>
      <trkpt lat="43.2744113914668560028076171875" lon="-2.1256591938436031341552734375">
        <ele>5.80000019073486328125</ele>
        <time>2018-09-02T12:34:56.000Z</time>
      </trkpt>
      <trkpt lat="43.27435280196368694305419921875" lon="-2.125814259052276611328125">
        <ele>5.400000095367431640625</ele>
        <time>2018-09-02T12:34:59.000Z</time>
      </trkpt>
      <trkpt lat="43.27435447834432125091552734375" lon="-2.12594979442656040191650390625">
        <ele>5.19999980926513671875</ele>
        <time>2018-09-02T12:35:01.000Z</time>
      </trkpt>
      <trkpt lat="43.2743617706000804901123046875" lon="-2.1260766126215457916259765625">
        <ele>5</ele>
        <time>2018-09-02T12:35:03.000Z</time>
      </trkpt>
      <trkpt lat="43.274390436708927154541015625" lon="-2.12643125094473361968994140625">
        <ele>5.599999904632568359375</ele>
        <time>2018-09-02T12:35:09.000Z</time>
      </trkpt>
      <trkpt lat="43.2744006626307964324951171875" lon="-2.12666393257677555084228515625">
        <ele>6</ele>
        <time>2018-09-02T12:35:13.000Z</time>
      </trkpt>
      <trkpt lat="43.27441181056201457977294921875" lon="-2.1268799342215061187744140625">
        <ele>6</ele>
        <time>2018-09-02T12:35:17.000Z</time>
      </trkpt>
      <trkpt lat="43.27443243004381656646728515625" lon="-2.12709325365722179412841796875">
        <ele>6.599999904632568359375</ele>
        <time>2018-09-02T12:35:21.000Z</time>
      </trkpt>
      <trkpt lat="43.27444978058338165283203125" lon="-2.127202637493610382080078125">
        <ele>6.80000019073486328125</ele>
        <time>2018-09-02T12:35:23.000Z</time>
      </trkpt>
      <trkpt lat="43.27445606701076030731201171875" lon="-2.12725485675036907196044921875">
        <ele>6.80000019073486328125</ele>
        <time>2018-09-02T12:35:24.000Z</time>
      </trkpt>
      <trkpt lat="43.27445673756301403045654296875" lon="-2.1274224109947681427001953125">
        <ele>6.599999904632568359375</ele>
        <time>2018-09-02T12:35:27.000Z</time>
      </trkpt>
      <trkpt lat="43.27445824630558490753173828125" lon="-2.12760790251195430755615234375">
        <ele>6.599999904632568359375</ele>
        <time>2018-09-02T12:35:30.000Z</time>
      </trkpt>
      <trkpt lat="43.27445589937269687652587890625" lon="-2.127731703221797943115234375">
        <ele>6.400000095367431640625</ele>
        <time>2018-09-02T12:35:32.000Z</time>
      </trkpt>
      <trkpt lat="43.2744325138628482818603515625" lon="-2.1279900334775447845458984375">
        <ele>5.80000019073486328125</ele>
        <time>2018-09-02T12:35:36.000Z</time>
      </trkpt>
      <trkpt lat="43.27441784553229808807373046875" lon="-2.128182984888553619384765625">
        <ele>5.400000095367431640625</ele>
        <time>2018-09-02T12:35:39.000Z</time>
      </trkpt>
      <trkpt lat="43.27440954744815826416015625" lon="-2.1282347850501537322998046875">
        <ele>5.400000095367431640625</ele>
        <time>2018-09-02T12:35:40.000Z</time>
      </trkpt>
      <trkpt lat="43.27440644614398479461669921875" lon="-2.1283430792391300201416015625">
        <ele>5</ele>
        <time>2018-09-02T12:35:42.000Z</time>
      </trkpt>
      <trkpt lat="43.27440443448722362518310546875" lon="-2.1284547261893749237060546875">
        <ele>4.400000095367431640625</ele>
        <time>2018-09-02T12:35:44.000Z</time>
      </trkpt>
      <trkpt lat="43.2744182646274566650390625" lon="-2.1286307461559772491455078125">
        <ele>4.400000095367431640625</ele>
        <time>2018-09-02T12:35:47.000Z</time>
      </trkpt>
      <trkpt lat="43.27444433234632015228271484375" lon="-2.1291534416377544403076171875">
        <ele>4.19999980926513671875</ele>
        <time>2018-09-02T12:35:56.000Z</time>
      </trkpt>
      <trkpt lat="43.2744496129453182220458984375" lon="-2.12939643301069736480712890625">
        <ele>3.7999999523162841796875</ele>
        <time>2018-09-02T12:36:00.000Z</time>
      </trkpt>
      <trkpt lat="43.27445774339139461517333984375" lon="-2.12957270443439483642578125">
        <ele>3.7999999523162841796875</ele>
        <time>2018-09-02T12:36:03.000Z</time>
      </trkpt>
      <trkpt lat="43.2744647003710269927978515625" lon="-2.12981116957962512969970703125">
        <ele>3.7999999523162841796875</ele>
        <time>2018-09-02T12:36:07.000Z</time>
      </trkpt>
      <trkpt lat="43.2744774408638477325439453125" lon="-2.1299946494400501251220703125">
        <ele>3.400000095367431640625</ele>
        <time>2018-09-02T12:36:10.000Z</time>
      </trkpt>
      <trkpt lat="43.27452764846384525299072265625" lon="-2.130273766815662384033203125">
        <ele>3.400000095367431640625</ele>
        <time>2018-09-02T12:36:15.000Z</time>
      </trkpt>
      <trkpt lat="43.27459017746150493621826171875" lon="-2.1304864995181560516357421875">
        <ele>4.400000095367431640625</ele>
        <time>2018-09-02T12:36:20.000Z</time>
      </trkpt>
      <trkpt lat="43.27460140921175479888916015625" lon="-2.13052463717758655548095703125">
        <ele>4.599999904632568359375</ele>
        <time>2018-09-02T12:36:21.000Z</time>
      </trkpt>
      <trkpt lat="43.27462538145482540130615234375" lon="-2.1306033432483673095703125">
        <ele>5</ele>
        <time>2018-09-02T12:36:23.000Z</time>
      </trkpt>
      <trkpt lat="43.27465203590691089630126953125" lon="-2.1306789480149745941162109375">
        <ele>5.80000019073486328125</ele>
        <time>2018-09-02T12:36:25.000Z</time>
      </trkpt>
      <trkpt lat="43.274697549641132354736328125" lon="-2.13077911175787448883056640625">
        <ele>6.599999904632568359375</ele>
        <time>2018-09-02T12:36:28.000Z</time>
      </trkpt>
      <trkpt lat="43.2747215218842029571533203125" lon="-2.13084616698324680328369140625">
        <ele>7</ele>
        <time>2018-09-02T12:36:30.000Z</time>
      </trkpt>
      <trkpt lat="43.2747493498027324676513671875" lon="-2.130955718457698822021484375">
        <ele>7.599999904632568359375</ele>
        <time>2018-09-02T12:36:33.000Z</time>
      </trkpt>
      <trkpt lat="43.27477206476032733917236328125" lon="-2.1310620009899139404296875">
        <ele>8</ele>
        <time>2018-09-02T12:36:36.000Z</time>
      </trkpt>
      <trkpt lat="43.274781703948974609375" lon="-2.13109611533582210540771484375">
        <ele>8.19999980926513671875</ele>
        <time>2018-09-02T12:36:37.000Z</time>
      </trkpt>
      <trkpt lat="43.2747875712811946868896484375" lon="-2.1311302296817302703857421875">
        <ele>8.19999980926513671875</ele>
        <time>2018-09-02T12:36:38.000Z</time>
      </trkpt>
      <trkpt lat="43.27480039559304714202880859375" lon="-2.13127632625401020050048828125">
        <ele>9.19999980926513671875</ele>
        <time>2018-09-02T12:36:42.000Z</time>
      </trkpt>
      <trkpt lat="43.2748076878488063812255859375" lon="-2.13131035678088665008544921875">
        <ele>9.19999980926513671875</ele>
        <time>2018-09-02T12:36:43.000Z</time>
      </trkpt>
      <trkpt lat="43.274817578494548797607421875" lon="-2.1313431300222873687744140625">
        <ele>9.3999996185302734375</ele>
        <time>2018-09-02T12:36:44.000Z</time>
      </trkpt>
      <trkpt lat="43.274857141077518463134765625" lon="-2.13143013417720794677734375">
        <ele>9.80000019073486328125</ele>
        <time>2018-09-02T12:36:47.000Z</time>
      </trkpt>
      <trkpt lat="43.274885304272174835205078125" lon="-2.13151286356151103973388671875">
        <ele>9.6000003814697265625</ele>
        <time>2018-09-02T12:36:50.000Z</time>
      </trkpt>
      <trkpt lat="43.2749002240598201751708984375" lon="-2.13154471479356288909912109375">
        <ele>9.80000019073486328125</ele>
        <time>2018-09-02T12:36:51.000Z</time>
      </trkpt>
      <trkpt lat="43.27492260374128818511962890625" lon="-2.1316160447895526885986328125">
        <ele>10.3999996185302734375</ele>
        <time>2018-09-02T12:36:53.000Z</time>
      </trkpt>
      <trkpt lat="43.27492981217801570892333984375" lon="-2.13182500563561916351318359375">
        <ele>10.3999996185302734375</ele>
        <time>2018-09-02T12:36:58.000Z</time>
      </trkpt>
      <trkpt lat="43.2749225199222564697265625" lon="-2.13207545690238475799560546875">
        <ele>9.80000019073486328125</ele>
        <time>2018-09-02T12:37:03.000Z</time>
      </trkpt>
      <trkpt lat="43.27493299730122089385986328125" lon="-2.1321410872042179107666015625">
        <ele>9.3999996185302734375</ele>
        <time>2018-09-02T12:37:04.000Z</time>
      </trkpt>
      <trkpt lat="43.2749545387923717498779296875" lon="-2.1322031132876873016357421875">
        <ele>9</ele>
        <time>2018-09-02T12:37:05.000Z</time>
      </trkpt>
      <trkpt lat="43.2750122062861919403076171875" lon="-2.1322886087000370025634765625">
        <ele>8</ele>
        <time>2018-09-02T12:37:07.000Z</time>
      </trkpt>
      <trkpt lat="43.275044895708560943603515625" lon="-2.132318280637264251708984375">
        <ele>7.599999904632568359375</ele>
        <time>2018-09-02T12:37:08.000Z</time>
      </trkpt>
      <trkpt lat="43.27509946189820766448974609375" lon="-2.1323871798813343048095703125">
        <ele>6.80000019073486328125</ele>
        <time>2018-09-02T12:37:10.000Z</time>
      </trkpt>
      <trkpt lat="43.27513776719570159912109375" lon="-2.132466472685337066650390625">
        <ele>6.400000095367431640625</ele>
        <time>2018-09-02T12:37:12.000Z</time>
      </trkpt>
      <trkpt lat="43.2752529345452785491943359375" lon="-2.1326745115220546722412109375">
        <ele>5.19999980926513671875</ele>
        <time>2018-09-02T12:37:17.000Z</time>
      </trkpt>
      <trkpt lat="43.27528604306280612945556640625" lon="-2.132683061063289642333984375">
        <ele>5</ele>
        <time>2018-09-02T12:37:18.000Z</time>
      </trkpt>
      <trkpt lat="43.27533088624477386474609375" lon="-2.13266101665794849395751953125">
        <ele>5.19999980926513671875</ele>
        <time>2018-09-02T12:37:19.000Z</time>
      </trkpt>
      <trkpt lat="43.2754078321158885955810546875" lon="-2.132606618106365203857421875">
        <ele>5.400000095367431640625</ele>
        <time>2018-09-02T12:37:21.000Z</time>
      </trkpt>
      <trkpt lat="43.2755278609693050384521484375" lon="-2.13251517154276371002197265625">
        <ele>5.19999980926513671875</ele>
        <time>2018-09-02T12:37:24.000Z</time>
      </trkpt>
      <trkpt lat="43.2755781523883342742919921875" lon="-2.13250846602022647857666015625">
        <ele>5</ele>
        <time>2018-09-02T12:37:25.000Z</time>
      </trkpt>
      <trkpt lat="43.275629617273807525634765625" lon="-2.132504023611545562744140625">
        <ele>4.80000019073486328125</ele>
        <time>2018-09-02T12:37:26.000Z</time>
      </trkpt>
      <trkpt lat="43.2757300324738025665283203125" lon="-2.1325266547501087188720703125">
        <ele>4.599999904632568359375</ele>
        <time>2018-09-02T12:37:28.000Z</time>
      </trkpt>
      <trkpt lat="43.27582617290318012237548828125" lon="-2.13257635943591594696044921875">
        <ele>3.7999999523162841796875</ele>
        <time>2018-09-02T12:37:30.000Z</time>
      </trkpt>
      <trkpt lat="43.27619128860533237457275390625" lon="-2.13280652649700641632080078125">
        <ele>4</ele>
        <time>2018-09-02T12:37:38.000Z</time>
      </trkpt>
      <trkpt lat="43.2762314379215240478515625" lon="-2.13284105993807315826416015625">
        <ele>4</ele>
        <time>2018-09-02T12:37:39.000Z</time>
      </trkpt>
      <trkpt lat="43.27646168880164623260498046875" lon="-2.13306418620049953460693359375">
        <ele>4.599999904632568359375</ele>
        <time>2018-09-02T12:37:45.000Z</time>
      </trkpt>
      <trkpt lat="43.2766242139041423797607421875" lon="-2.133217491209506988525390625">
        <ele>4.19999980926513671875</ele>
        <time>2018-09-02T12:37:49.000Z</time>
      </trkpt>
      <trkpt lat="43.27676611952483654022216796875" lon="-2.13328488171100616455078125">
        <ele>4</ele>
        <time>2018-09-02T12:37:52.000Z</time>
      </trkpt>
      <trkpt lat="43.27701170928776264190673828125" lon="-2.13335520587861537933349609375">
        <ele>3.400000095367431640625</ele>
        <time>2018-09-02T12:37:57.000Z</time>
      </trkpt>
      <trkpt lat="43.277113549411296844482421875" lon="-2.1333692036569118499755859375">
        <ele>3.2000000476837158203125</ele>
        <time>2018-09-02T12:37:59.000Z</time>
      </trkpt>
      <trkpt lat="43.277161158621311187744140625" lon="-2.133383788168430328369140625">
        <ele>3.599999904632568359375</ele>
        <time>2018-09-02T12:38:00.000Z</time>
      </trkpt>
      <trkpt lat="43.2773370109498500823974609375" lon="-2.13349250145256519317626953125">
        <ele>3.599999904632568359375</ele>
        <time>2018-09-02T12:38:04.000Z</time>
      </trkpt>
      <trkpt lat="43.27746785245835781097412109375" lon="-2.13357632048428058624267578125">
        <ele>3</ele>
        <time>2018-09-02T12:38:07.000Z</time>
      </trkpt>
      <trkpt lat="43.277605064213275909423828125" lon="-2.133641950786113739013671875">
        <ele>2.7999999523162841796875</ele>
        <time>2018-09-02T12:38:10.000Z</time>
      </trkpt>
      <trkpt lat="43.27769852243363857269287109375" lon="-2.13365477509796619415283203125">
        <ele>2.599999904632568359375</ele>
        <time>2018-09-02T12:38:12.000Z</time>
      </trkpt>
      <trkpt lat="43.27811040915548801422119140625" lon="-2.1336887218058109283447265625">
        <ele>2.7999999523162841796875</ele>
        <time>2018-09-02T12:38:21.000Z</time>
      </trkpt>
      <trkpt lat="43.27846261672675609588623046875" lon="-2.133588306605815887451171875">
        <ele>3.400000095367431640625</ele>
        <time>2018-09-02T12:38:29.000Z</time>
      </trkpt>
      <trkpt lat="43.2787835597991943359375" lon="-2.1335251070559024810791015625">
        <ele>3.599999904632568359375</ele>
        <time>2018-09-02T12:38:36.000Z</time>
      </trkpt>
      <trkpt lat="43.27896100468933582305908203125" lon="-2.133515216410160064697265625">
        <ele>3.400000095367431640625</ele>
        <time>2018-09-02T12:38:40.000Z</time>
      </trkpt>
      <trkpt lat="43.279181532561779022216796875" lon="-2.133499123156070709228515625">
        <ele>3.400000095367431640625</ele>
        <time>2018-09-02T12:38:45.000Z</time>
      </trkpt>
      <trkpt lat="43.27934883534908294677734375" lon="-2.13349141180515289306640625">
        <ele>3.2000000476837158203125</ele>
        <time>2018-09-02T12:38:49.000Z</time>
      </trkpt>
      <trkpt lat="43.27943173237144947052001953125" lon="-2.13348529301583766937255859375">
        <ele>3.2000000476837158203125</ele>
        <time>2018-09-02T12:38:51.000Z</time>
      </trkpt>
      <trkpt lat="43.27947758138179779052734375" lon="-2.133478336036205291748046875">
        <ele>3.2000000476837158203125</ele>
        <time>2018-09-02T12:38:52.000Z</time>
      </trkpt>
      <trkpt lat="43.27973331324756145477294921875" lon="-2.13342879898846149444580078125">
        <ele>3.7999999523162841796875</ele>
        <time>2018-09-02T12:38:58.000Z</time>
      </trkpt>
      <trkpt lat="43.27993380837142467498779296875" lon="-2.133331485092639923095703125">
        <ele>3.2000000476837158203125</ele>
        <time>2018-09-02T12:39:03.000Z</time>
      </trkpt>
      <trkpt lat="43.28005316667258739471435546875" lon="-2.13329519145190715789794921875">
        <ele>3.400000095367431640625</ele>
        <time>2018-09-02T12:39:06.000Z</time>
      </trkpt>
      <trkpt lat="43.28013078309595584869384765625" lon="-2.1332746557891368865966796875">
        <ele>3.7999999523162841796875</ele>
        <time>2018-09-02T12:39:08.000Z</time>
      </trkpt>
      <trkpt lat="43.2802106626331806182861328125" lon="-2.1332568861544132232666015625">
        <ele>3.7999999523162841796875</ele>
        <time>2018-09-02T12:39:10.000Z</time>
      </trkpt>
      <trkpt lat="43.28036882914602756500244140625" lon="-2.1332077682018280029296875">
        <ele>3.7999999523162841796875</ele>
        <time>2018-09-02T12:39:14.000Z</time>
      </trkpt>
      <trkpt lat="43.28052456490695476531982421875" lon="-2.133201397955417633056640625">
        <ele>3.400000095367431640625</ele>
        <time>2018-09-02T12:39:18.000Z</time>
      </trkpt>
      <trkpt lat="43.28068725764751434326171875" lon="-2.133215479552745819091796875">
        <ele>3.7999999523162841796875</ele>
        <time>2018-09-02T12:39:22.000Z</time>
      </trkpt>
      <trkpt lat="43.28102110885083675384521484375" lon="-2.1331898309290409088134765625">
        <ele>4</ele>
        <time>2018-09-02T12:39:30.000Z</time>
      </trkpt>
      <trkpt lat="43.28133677132427692413330078125" lon="-2.13304272852838039398193359375">
        <ele>3.7999999523162841796875</ele>
        <time>2018-09-02T12:39:38.000Z</time>
      </trkpt>
      <trkpt lat="43.28137717209756374359130859375" lon="-2.13302831165492534637451171875">
        <ele>4.19999980926513671875</ele>
        <time>2018-09-02T12:39:39.000Z</time>
      </trkpt>
      <trkpt lat="43.2814991287887096405029296875" lon="-2.1329933591187000274658203125">
        <ele>4.19999980926513671875</ele>
        <time>2018-09-02T12:39:42.000Z</time>
      </trkpt>
      <trkpt lat="43.28165846876800060272216796875" lon="-2.13294415734708309173583984375">
        <ele>4.19999980926513671875</ele>
        <time>2018-09-02T12:39:46.000Z</time>
      </trkpt>
      <trkpt lat="43.28186877071857452392578125" lon="-2.13283854536712169647216796875">
        <ele>4.19999980926513671875</ele>
        <time>2018-09-02T12:39:52.000Z</time>
      </trkpt>
      <trkpt lat="43.2819929905235767364501953125" lon="-2.1327905170619487762451171875">
        <ele>4.400000095367431640625</ele>
        <time>2018-09-02T12:39:55.000Z</time>
      </trkpt>
      <trkpt lat="43.282120563089847564697265625" lon="-2.13272220455110073089599609375">
        <ele>4.599999904632568359375</ele>
        <time>2018-09-02T12:39:58.000Z</time>
      </trkpt>
      <trkpt lat="43.28238635323941707611083984375" lon="-2.132518105208873748779296875">
        <ele>4.80000019073486328125</ele>
        <time>2018-09-02T12:40:05.000Z</time>
      </trkpt>
      <trkpt lat="43.28252130188047885894775390625" lon="-2.132365219295024871826171875">
        <ele>4.400000095367431640625</ele>
        <time>2018-09-02T12:40:09.000Z</time>
      </trkpt>
      <trkpt lat="43.28264820389449596405029296875" lon="-2.13219347409904003143310546875">
        <ele>4</ele>
        <time>2018-09-02T12:40:13.000Z</time>
      </trkpt>
      <trkpt lat="43.2828516326844692230224609375" lon="-2.1319838427007198333740234375">
        <ele>5</ele>
        <time>2018-09-02T12:40:19.000Z</time>
      </trkpt>
      <trkpt lat="43.28291407786309719085693359375" lon="-2.13194704614579677581787109375">
        <ele>5.400000095367431640625</ele>
        <time>2018-09-02T12:40:21.000Z</time>
      </trkpt>
      <trkpt lat="43.28311189077794551849365234375" lon="-2.1318822540342807769775390625">
        <ele>6</ele>
        <time>2018-09-02T12:40:27.000Z</time>
      </trkpt>
      <trkpt lat="43.28314290381968021392822265625" lon="-2.13187001645565032958984375">
        <ele>6</ele>
        <time>2018-09-02T12:40:28.000Z</time>
      </trkpt>
      <trkpt lat="43.28330769203603267669677734375" lon="-2.13176582939922809600830078125">
        <ele>7</ele>
        <time>2018-09-02T12:40:34.000Z</time>
      </trkpt>
      <trkpt lat="43.283332251012325286865234375" lon="-2.1317481435835361480712890625">
        <ele>7.19999980926513671875</ele>
        <time>2018-09-02T12:40:35.000Z</time>
      </trkpt>
      <trkpt lat="43.283443562686443328857421875" lon="-2.13170774281024932861328125">
        <ele>7.80000019073486328125</ele>
        <time>2018-09-02T12:40:39.000Z</time>
      </trkpt>
      <trkpt lat="43.2835044153034687042236328125" lon="-2.131679244339466094970703125">
        <ele>8</ele>
        <time>2018-09-02T12:40:41.000Z</time>
      </trkpt>
      <trkpt lat="43.28353299759328365325927734375" lon="-2.13166306726634502410888671875">
        <ele>8.19999980926513671875</ele>
        <time>2018-09-02T12:40:42.000Z</time>
      </trkpt>
      <trkpt lat="43.2836271263659000396728515625" lon="-2.1316502429544925689697265625">
        <ele>8.80000019073486328125</ele>
        <time>2018-09-02T12:40:45.000Z</time>
      </trkpt>
      <trkpt lat="43.2836616598069667816162109375" lon="-2.1316520869731903076171875">
        <ele>8.80000019073486328125</ele>
        <time>2018-09-02T12:40:46.000Z</time>
      </trkpt>
      <trkpt lat="43.28373952768743038177490234375" lon="-2.13167530484497547149658203125">
        <ele>8.3999996185302734375</ele>
        <time>2018-09-02T12:40:48.000Z</time>
      </trkpt>
      <trkpt lat="43.28387615270912647247314453125" lon="-2.13176365010440349578857421875">
        <ele>7.400000095367431640625</ele>
        <time>2018-09-02T12:40:51.000Z</time>
      </trkpt>
      <trkpt lat="43.28392191790044307708740234375" lon="-2.1318101696670055389404296875">
        <ele>7.19999980926513671875</ele>
        <time>2018-09-02T12:40:52.000Z</time>
      </trkpt>
      <trkpt lat="43.2840160466730594635009765625" lon="-2.13191066868603229522705078125">
        <ele>6.400000095367431640625</ele>
        <time>2018-09-02T12:40:54.000Z</time>
      </trkpt>
      <trkpt lat="43.28412995673716068267822265625" lon="-2.13196615688502788543701171875">
        <ele>6.19999980926513671875</ele>
        <time>2018-09-02T12:40:56.000Z</time>
      </trkpt>
      <trkpt lat="43.28418712131679058074951171875" lon="-2.13197655044496059417724609375">
        <ele>6</ele>
        <time>2018-09-02T12:40:57.000Z</time>
      </trkpt>
      <trkpt lat="43.2842416875064373016357421875" lon="-2.1319841779768466949462890625">
        <ele>6</ele>
        <time>2018-09-02T12:40:58.000Z</time>
      </trkpt>
      <trkpt lat="43.28440471552312374114990234375" lon="-2.1319905482232570648193359375">
        <ele>5.599999904632568359375</ele>
        <time>2018-09-02T12:41:01.000Z</time>
      </trkpt>
      <trkpt lat="43.284558355808258056640625" lon="-2.1319771371781826019287109375">
        <ele>5.599999904632568359375</ele>
        <time>2018-09-02T12:41:04.000Z</time>
      </trkpt>
      <trkpt lat="43.284749798476696014404296875" lon="-2.13194604031741619110107421875">
        <ele>5.599999904632568359375</ele>
        <time>2018-09-02T12:41:08.000Z</time>
      </trkpt>
      <trkpt lat="43.2848346233367919921875" lon="-2.13193497620522975921630859375">
        <ele>5.80000019073486328125</ele>
        <time>2018-09-02T12:41:10.000Z</time>
      </trkpt>
      <trkpt lat="43.2850077934563159942626953125" lon="-2.132021225988864898681640625">
        <ele>5.599999904632568359375</ele>
        <time>2018-09-02T12:41:15.000Z</time>
      </trkpt>
      <trkpt lat="43.28502975404262542724609375" lon="-2.1321947313845157623291015625">
        <ele>5.19999980926513671875</ele>
        <time>2018-09-02T12:41:18.000Z</time>
      </trkpt>
      <trkpt lat="43.2850074581801891326904296875" lon="-2.13239547796547412872314453125">
        <ele>5.599999904632568359375</ele>
        <time>2018-09-02T12:41:21.000Z</time>
      </trkpt>
      <trkpt lat="43.2849819771945476531982421875" lon="-2.13252355344593524932861328125">
        <ele>5.80000019073486328125</ele>
        <time>2018-09-02T12:41:23.000Z</time>
      </trkpt>
      <trkpt lat="43.2849310152232646942138671875" lon="-2.1327710710465908050537109375">
        <ele>5.400000095367431640625</ele>
        <time>2018-09-02T12:41:27.000Z</time>
      </trkpt>
      <trkpt lat="43.28489220701158046722412109375" lon="-2.1329802833497524261474609375">
        <ele>6.400000095367431640625</ele>
        <time>2018-09-02T12:41:31.000Z</time>
      </trkpt>
      <trkpt lat="43.28487812541425228118896484375" lon="-2.1331415511667728424072265625">
        <ele>7</ele>
        <time>2018-09-02T12:41:36.000Z</time>
      </trkpt>
      <trkpt lat="43.2848726771771907806396484375" lon="-2.13319896720349788665771484375">
        <ele>7.599999904632568359375</ele>
        <time>2018-09-02T12:41:38.000Z</time>
      </trkpt>
      <trkpt lat="43.284871168434619903564453125" lon="-2.133260406553745269775390625">
        <ele>7.80000019073486328125</ele>
        <time>2018-09-02T12:41:40.000Z</time>
      </trkpt>
      <trkpt lat="43.2848723419010639190673828125" lon="-2.13329083286225795745849609375">
        <ele>8</ele>
        <time>2018-09-02T12:41:41.000Z</time>
      </trkpt>
      <trkpt lat="43.28486471436917781829833984375" lon="-2.133357636630535125732421875">
        <ele>8.3999996185302734375</ele>
        <time>2018-09-02T12:41:43.000Z</time>
      </trkpt>
      <trkpt lat="43.2848547399044036865234375" lon="-2.13349836878478527069091796875">
        <ele>9.19999980926513671875</ele>
        <time>2018-09-02T12:41:47.000Z</time>
      </trkpt>
      <trkpt lat="43.28484526835381984710693359375" lon="-2.13357045315206050872802734375">
        <ele>9.19999980926513671875</ele>
        <time>2018-09-02T12:41:49.000Z</time>
      </trkpt>
      <trkpt lat="43.284808136522769927978515625" lon="-2.13383263908326625823974609375">
        <ele>9.6000003814697265625</ele>
        <time>2018-09-02T12:41:55.000Z</time>
      </trkpt>
      <trkpt lat="43.28478424809873104095458984375" lon="-2.1339623071253299713134765625">
        <ele>9.6000003814697265625</ele>
        <time>2018-09-02T12:41:58.000Z</time>
      </trkpt>
      <trkpt lat="43.28476714901626110076904296875" lon="-2.13419943116605281829833984375">
        <ele>10.19999980926513671875</ele>
        <time>2018-09-02T12:42:04.000Z</time>
      </trkpt>
      <trkpt lat="43.28477083705365657806396484375" lon="-2.1343458630144596099853515625">
        <ele>11</ele>
        <time>2018-09-02T12:42:08.000Z</time>
      </trkpt>
      <trkpt lat="43.28476689755916595458984375" lon="-2.134379558265209197998046875">
        <ele>11.19999980926513671875</ele>
        <time>2018-09-02T12:42:09.000Z</time>
      </trkpt>
      <trkpt lat="43.28475348651409149169921875" lon="-2.134587764739990234375">
        <ele>11.80000019073486328125</ele>
        <time>2018-09-02T12:42:15.000Z</time>
      </trkpt>
      <trkpt lat="43.2847707532346248626708984375" lon="-2.13484114967286586761474609375">
        <ele>12.19999980926513671875</ele>
        <time>2018-09-02T12:42:21.000Z</time>
      </trkpt>
      <trkpt lat="43.28480469994246959686279296875" lon="-2.1350348554551601409912109375">
        <ele>11.3999996185302734375</ele>
        <time>2018-09-02T12:42:24.000Z</time>
      </trkpt>
      <trkpt lat="43.2848123274743556976318359375" lon="-2.13510769419372081756591796875">
        <ele>10.19999980926513671875</ele>
        <time>2018-09-02T12:42:25.000Z</time>
      </trkpt>
      <trkpt lat="43.284805119037628173828125" lon="-2.13518120348453521728515625">
        <ele>10</ele>
        <time>2018-09-02T12:42:26.000Z</time>
      </trkpt>
      <trkpt lat="43.28476429916918277740478515625" lon="-2.1353097818791866302490234375">
        <ele>9.80000019073486328125</ele>
        <time>2018-09-02T12:42:28.000Z</time>
      </trkpt>
      <trkpt lat="43.28471886925399303436279296875" lon="-2.13542637415230274200439453125">
        <ele>10</ele>
        <time>2018-09-02T12:42:30.000Z</time>
      </trkpt>
      <trkpt lat="43.2846601121127605438232421875" lon="-2.135572470724582672119140625">
        <ele>10</ele>
        <time>2018-09-02T12:42:33.000Z</time>
      </trkpt>
      <trkpt lat="43.28464561142027378082275390625" lon="-2.13561379350721836090087890625">
        <ele>10.19999980926513671875</ele>
        <time>2018-09-02T12:42:34.000Z</time>
      </trkpt>
      <trkpt lat="43.28462247736752033233642578125" lon="-2.13571001775562763214111328125">
        <ele>11</ele>
        <time>2018-09-02T12:42:37.000Z</time>
      </trkpt>
      <trkpt lat="43.28461560420691967010498046875" lon="-2.1357607282698154449462890625">
        <ele>12</ele>
        <time>2018-09-02T12:42:39.000Z</time>
      </trkpt>
      <trkpt lat="43.284615688025951385498046875" lon="-2.13578344322741031646728515625">
        <ele>12.19999980926513671875</ele>
        <time>2018-09-02T12:42:40.000Z</time>
      </trkpt>
      <trkpt lat="43.2846321165561676025390625" lon="-2.13590263389050960540771484375">
        <ele>13.19999980926513671875</ele>
        <time>2018-09-02T12:42:46.000Z</time>
      </trkpt>
      <trkpt lat="43.2846228964626789093017578125" lon="-2.13595979847013950347900390625">
        <ele>14</ele>
        <time>2018-09-02T12:42:49.000Z</time>
      </trkpt>
      <trkpt lat="43.284624405205249786376953125" lon="-2.13597916066646575927734375">
        <ele>14.3999996185302734375</ele>
        <time>2018-09-02T12:42:50.000Z</time>
      </trkpt>
      <trkpt lat="43.28462817706167697906494140625" lon="-2.136020399630069732666015625">
        <ele>14.80000019073486328125</ele>
        <time>2018-09-02T12:42:52.000Z</time>
      </trkpt>
      <trkpt lat="43.28463689424097537994384765625" lon="-2.13610447011888027191162109375">
        <ele>15.6000003814697265625</ele>
        <time>2018-09-02T12:42:56.000Z</time>
      </trkpt>
      <trkpt lat="43.284644521772861480712890625" lon="-2.13616180233657360076904296875">
        <ele>16.3999996185302734375</ele>
        <time>2018-09-02T12:42:59.000Z</time>
      </trkpt>
      <trkpt lat="43.284639827907085418701171875" lon="-2.1361838467419147491455078125">
        <ele>16.6000003814697265625</ele>
        <time>2018-09-02T12:43:00.000Z</time>
      </trkpt>
      <trkpt lat="43.28463823534548282623291015625" lon="-2.13620672933757305145263671875">
        <ele>16.799999237060546875</ele>
        <time>2018-09-02T12:43:01.000Z</time>
      </trkpt>
      <trkpt lat="43.28463924117386341094970703125" lon="-2.13628853671252727508544921875">
        <ele>17.6000003814697265625</ele>
        <time>2018-09-02T12:43:05.000Z</time>
      </trkpt>
      <trkpt lat="43.2846379838883876800537109375" lon="-2.13633195497095584869384765625">
        <ele>17.799999237060546875</ele>
        <time>2018-09-02T12:43:07.000Z</time>
      </trkpt>
      <trkpt lat="43.2846403308212757110595703125" lon="-2.13645986281335353851318359375">
        <ele>19</ele>
        <time>2018-09-02T12:43:13.000Z</time>
      </trkpt>
      <trkpt lat="43.2846456952393054962158203125" lon="-2.136521637439727783203125">
        <ele>19.799999237060546875</ele>
        <time>2018-09-02T12:43:16.000Z</time>
      </trkpt>
      <trkpt lat="43.2846473716199398040771484375" lon="-2.13656413368880748748779296875">
        <ele>20.200000762939453125</ele>
        <time>2018-09-02T12:43:18.000Z</time>
      </trkpt>
      <trkpt lat="43.2846423424780368804931640625" lon="-2.13667142204940319061279296875">
        <ele>20.799999237060546875</ele>
        <time>2018-09-02T12:43:23.000Z</time>
      </trkpt>
      <trkpt lat="43.2846383191645145416259765625" lon="-2.136760018765926361083984375">
        <ele>21.799999237060546875</ele>
        <time>2018-09-02T12:43:27.000Z</time>
      </trkpt>
      <trkpt lat="43.28463991172611713409423828125" lon="-2.13685347698628902435302734375">
        <ele>22.6000003814697265625</ele>
        <time>2018-09-02T12:43:31.000Z</time>
      </trkpt>
      <trkpt lat="43.28463790006935596466064453125" lon="-2.13690259493887424468994140625">
        <ele>22.799999237060546875</ele>
        <time>2018-09-02T12:43:33.000Z</time>
      </trkpt>
      <trkpt lat="43.28464477322995662689208984375" lon="-2.1370176784694194793701171875">
        <ele>24</ele>
        <time>2018-09-02T12:43:38.000Z</time>
      </trkpt>
      <trkpt lat="43.2846428453922271728515625" lon="-2.1370414830744266510009765625">
        <ele>24.200000762939453125</ele>
        <time>2018-09-02T12:43:39.000Z</time>
      </trkpt>
      <trkpt lat="43.284649886190891265869140625" lon="-2.13712974451482295989990234375">
        <ele>25.200000762939453125</ele>
        <time>2018-09-02T12:43:43.000Z</time>
      </trkpt>
      <trkpt lat="43.28464963473379611968994140625" lon="-2.137266285717487335205078125">
        <ele>26.3999996185302734375</ele>
        <time>2018-09-02T12:43:48.000Z</time>
      </trkpt>
      <trkpt lat="43.28464829362928867340087890625" lon="-2.137363851070404052734375">
        <ele>27.6000003814697265625</ele>
        <time>2018-09-02T12:43:52.000Z</time>
      </trkpt>
      <trkpt lat="43.28464695252478122711181640625" lon="-2.13745781220495700836181640625">
        <ele>28.6000003814697265625</ele>
        <time>2018-09-02T12:43:56.000Z</time>
      </trkpt>
      <trkpt lat="43.28464779071509838104248046875" lon="-2.137482203543186187744140625">
        <ele>29</ele>
        <time>2018-09-02T12:43:57.000Z</time>
      </trkpt>
      <trkpt lat="43.28464879654347896575927734375" lon="-2.13755370117723941802978515625">
        <ele>29.799999237060546875</ele>
        <time>2018-09-02T12:44:00.000Z</time>
      </trkpt>
      <trkpt lat="43.28465550206601619720458984375" lon="-2.1376352570950984954833984375">
        <ele>31</ele>
        <time>2018-09-02T12:44:04.000Z</time>
      </trkpt>
      <trkpt lat="43.28468232415616512298583984375" lon="-2.13774044997990131378173828125">
        <ele>32.200000762939453125</ele>
        <time>2018-09-02T12:44:09.000Z</time>
      </trkpt>
      <trkpt lat="43.28470193780958652496337890625" lon="-2.137803398072719573974609375">
        <ele>33</ele>
        <time>2018-09-02T12:44:12.000Z</time>
      </trkpt>
      <trkpt lat="43.2847233116626739501953125" lon="-2.137883864343166351318359375">
        <ele>33.40000152587890625</ele>
        <time>2018-09-02T12:44:16.000Z</time>
      </trkpt>
      <trkpt lat="43.28473068773746490478515625" lon="-2.13790339417755603790283203125">
        <ele>33.59999847412109375</ele>
        <time>2018-09-02T12:44:17.000Z</time>
      </trkpt>
      <trkpt lat="43.28474015928804874420166015625" lon="-2.1379437111318111419677734375">
        <ele>33.799999237060546875</ele>
        <time>2018-09-02T12:44:19.000Z</time>
      </trkpt>
      <trkpt lat="43.28477234579622745513916015625" lon="-2.13808192871510982513427734375">
        <ele>34.59999847412109375</ele>
        <time>2018-09-02T12:44:25.000Z</time>
      </trkpt>
      <trkpt lat="43.28479413874447345733642578125" lon="-2.13814906775951385498046875">
        <ele>35</ele>
        <time>2018-09-02T12:44:28.000Z</time>
      </trkpt>
      <trkpt lat="43.28481492586433887481689453125" lon="-2.138239927589893341064453125">
        <ele>35.799999237060546875</ele>
        <time>2018-09-02T12:44:32.000Z</time>
      </trkpt>
      <trkpt lat="43.2848378084599971771240234375" lon="-2.13833816349506378173828125">
        <ele>36.40000152587890625</ele>
        <time>2018-09-02T12:44:36.000Z</time>
      </trkpt>
      <trkpt lat="43.28485532663762569427490234375" lon="-2.13837780989706516265869140625">
        <ele>36.799999237060546875</ele>
        <time>2018-09-02T12:44:38.000Z</time>
      </trkpt>
      <trkpt lat="43.284899331629276275634765625" lon="-2.13850856758654117584228515625">
        <ele>37.200000762939453125</ele>
        <time>2018-09-02T12:44:44.000Z</time>
      </trkpt>
      <trkpt lat="43.28493587672710418701171875" lon="-2.13861015625298023223876953125">
        <ele>37.799999237060546875</ele>
        <time>2018-09-02T12:44:48.000Z</time>
      </trkpt>
      <trkpt lat="43.28495691530406475067138671875" lon="-2.1386843360960483551025390625">
        <ele>38.40000152587890625</ele>
        <time>2018-09-02T12:44:51.000Z</time>
      </trkpt>
      <trkpt lat="43.28497736714780330657958984375" lon="-2.13876019231975078582763671875">
        <ele>39</ele>
        <time>2018-09-02T12:44:54.000Z</time>
      </trkpt>
      <trkpt lat="43.28499027527868747711181640625" lon="-2.138845436275005340576171875">
        <ele>39.59999847412109375</ele>
        <time>2018-09-02T12:44:57.000Z</time>
      </trkpt>
      <trkpt lat="43.2850051112473011016845703125" lon="-2.1389538981020450592041015625">
        <ele>40</ele>
        <time>2018-09-02T12:45:01.000Z</time>
      </trkpt>
      <trkpt lat="43.2850245572626590728759765625" lon="-2.13906562887132167816162109375">
        <ele>41</ele>
        <time>2018-09-02T12:45:05.000Z</time>
      </trkpt>
      <trkpt lat="43.28502950258553028106689453125" lon="-2.139094881713390350341796875">
        <ele>41.40000152587890625</ele>
        <time>2018-09-02T12:45:06.000Z</time>
      </trkpt>
      <trkpt lat="43.28503235243260860443115234375" lon="-2.1391542255878448486328125">
        <ele>42.200000762939453125</ele>
        <time>2018-09-02T12:45:08.000Z</time>
      </trkpt>
      <trkpt lat="43.28504442237317562103271484375" lon="-2.13923041708767414093017578125">
        <ele>43.200000762939453125</ele>
        <time>2018-09-02T12:45:11.000Z</time>
      </trkpt>
      <trkpt lat="43.2850507088005542755126953125" lon="-2.1392553113400936126708984375">
        <ele>43.59999847412109375</ele>
        <time>2018-09-02T12:45:12.000Z</time>
      </trkpt>
      <trkpt lat="43.28505456447601318359375" lon="-2.1393069438636302947998046875">
        <ele>44.200000762939453125</ele>
        <time>2018-09-02T12:45:14.000Z</time>
      </trkpt>
      <trkpt lat="43.2850505411624908447265625" lon="-2.13941381312906742095947265625">
        <ele>45.200000762939453125</ele>
        <time>2018-09-02T12:45:18.000Z</time>
      </trkpt>
      <trkpt lat="43.2850476913154125213623046875" lon="-2.13944298215210437774658203125">
        <ele>45.40000152587890625</ele>
        <time>2018-09-02T12:45:19.000Z</time>
      </trkpt>
      <trkpt lat="43.28503780066967010498046875" lon="-2.139581702649593353271484375">
        <ele>46.40000152587890625</ele>
        <time>2018-09-02T12:45:24.000Z</time>
      </trkpt>
      <trkpt lat="43.28503821976482868194580078125" lon="-2.139639370143413543701171875">
        <ele>46.799999237060546875</ele>
        <time>2018-09-02T12:45:26.000Z</time>
      </trkpt>
      <trkpt lat="43.285056911408901214599609375" lon="-2.1398068405687808990478515625">
        <ele>47.59999847412109375</ele>
        <time>2018-09-02T12:45:32.000Z</time>
      </trkpt>
      <trkpt lat="43.28505917452275753021240234375" lon="-2.139836512506008148193359375">
        <ele>47.59999847412109375</ele>
        <time>2018-09-02T12:45:33.000Z</time>
      </trkpt>
      <trkpt lat="43.28507996164262294769287109375" lon="-2.13995427824556827545166015625">
        <ele>48.59999847412109375</ele>
        <time>2018-09-02T12:45:37.000Z</time>
      </trkpt>
      <trkpt lat="43.28511499799787998199462890625" lon="-2.14009894989430904388427734375">
        <ele>49</ele>
        <time>2018-09-02T12:45:42.000Z</time>
      </trkpt>
      <trkpt lat="43.28517886810004711151123046875" lon="-2.140308916568756103515625">
        <ele>48.799999237060546875</ele>
        <time>2018-09-02T12:45:48.000Z</time>
      </trkpt>
      <trkpt lat="43.28519680537283420562744140625" lon="-2.14035694487392902374267578125">
        <ele>48.799999237060546875</ele>
        <time>2018-09-02T12:45:49.000Z</time>
      </trkpt>
      <trkpt lat="43.285241983830928802490234375" lon="-2.14046741835772991180419921875">
        <ele>48.59999847412109375</ele>
        <time>2018-09-02T12:45:51.000Z</time>
      </trkpt>
      <trkpt lat="43.28532001934945583343505859375" lon="-2.1406400017440319061279296875">
        <ele>47.799999237060546875</ele>
        <time>2018-09-02T12:45:54.000Z</time>
      </trkpt>
      <trkpt lat="43.28534348867833614349365234375" lon="-2.140698842704296112060546875">
        <ele>47.799999237060546875</ele>
        <time>2018-09-02T12:45:55.000Z</time>
      </trkpt>
      <trkpt lat="43.28538925386965274810791015625" lon="-2.140811495482921600341796875">
        <ele>47.799999237060546875</ele>
        <time>2018-09-02T12:45:57.000Z</time>
      </trkpt>
      <trkpt lat="43.285431750118732452392578125" lon="-2.14091618545353412628173828125">
        <ele>47.799999237060546875</ele>
        <time>2018-09-02T12:45:59.000Z</time>
      </trkpt>
      <trkpt lat="43.28547365963459014892578125" lon="-2.14101525954902172088623046875">
        <ele>48.200000762939453125</ele>
        <time>2018-09-02T12:46:01.000Z</time>
      </trkpt>
      <trkpt lat="43.28553359024226665496826171875" lon="-2.1411563269793987274169921875">
        <ele>48.200000762939453125</ele>
        <time>2018-09-02T12:46:04.000Z</time>
      </trkpt>
      <trkpt lat="43.28557684086263179779052734375" lon="-2.14124525897204875946044921875">
        <ele>48.200000762939453125</ele>
        <time>2018-09-02T12:46:06.000Z</time>
      </trkpt>
      <trkpt lat="43.28562310896813869476318359375" lon="-2.14132505469024181365966796875">
        <ele>48.40000152587890625</ele>
        <time>2018-09-02T12:46:08.000Z</time>
      </trkpt>
      <trkpt lat="43.28569569624960422515869140625" lon="-2.141456902027130126953125">
        <ele>49.200000762939453125</ele>
        <time>2018-09-02T12:46:12.000Z</time>
      </trkpt>
      <trkpt lat="43.2857145555317401885986328125" lon="-2.1415264718234539031982421875">
        <ele>49.59999847412109375</ele>
        <time>2018-09-02T12:46:14.000Z</time>
      </trkpt>
      <trkpt lat="43.28574514947831630706787109375" lon="-2.14163585565984249114990234375">
        <ele>50.200000762939453125</ele>
        <time>2018-09-02T12:46:17.000Z</time>
      </trkpt>
      <trkpt lat="43.2857537828385829925537109375" lon="-2.14167173020541667938232421875">
        <ele>50.59999847412109375</ele>
        <time>2018-09-02T12:46:18.000Z</time>
      </trkpt>
      <trkpt lat="43.28575822524726390838623046875" lon="-2.14171179570257663726806640625">
        <ele>50.799999237060546875</ele>
        <time>2018-09-02T12:46:19.000Z</time>
      </trkpt>
      <trkpt lat="43.285760320723056793212890625" lon="-2.1417863108217716217041015625">
        <ele>51.40000152587890625</ele>
        <time>2018-09-02T12:46:21.000Z</time>
      </trkpt>
      <trkpt lat="43.28576778061687946319580078125" lon="-2.14184649288654327392578125">
        <ele>52</ele>
        <time>2018-09-02T12:46:23.000Z</time>
      </trkpt>
      <trkpt lat="43.28577465377748012542724609375" lon="-2.1418724767863750457763671875">
        <ele>52.40000152587890625</ele>
        <time>2018-09-02T12:46:24.000Z</time>
      </trkpt>
      <trkpt lat="43.28578420914709568023681640625" lon="-2.14189787395298480987548828125">
        <ele>53.59999847412109375</ele>
        <time>2018-09-02T12:46:25.000Z</time>
      </trkpt>
      <trkpt lat="43.285805918276309967041015625" lon="-2.14194984175264835357666015625">
        <ele>54.40000152587890625</ele>
        <time>2018-09-02T12:46:27.000Z</time>
      </trkpt>
      <trkpt lat="43.28581572510302066802978515625" lon="-2.14197658002376556396484375">
        <ele>54.799999237060546875</ele>
        <time>2018-09-02T12:46:28.000Z</time>
      </trkpt>
      <trkpt lat="43.28583265654742717742919921875" lon="-2.142031900584697723388671875">
        <ele>55.200000762939453125</ele>
        <time>2018-09-02T12:46:30.000Z</time>
      </trkpt>
      <trkpt lat="43.28585746698081493377685546875" lon="-2.1420858800411224365234375">
        <ele>56</ele>
        <time>2018-09-02T12:46:32.000Z</time>
      </trkpt>
      <trkpt lat="43.2858855463564395904541015625" lon="-2.1421296335756778717041015625">
        <ele>56.799999237060546875</ele>
        <time>2018-09-02T12:46:34.000Z</time>
      </trkpt>
      <trkpt lat="43.28589770011603832244873046875" lon="-2.1421541087329387664794921875">
        <ele>57</ele>
        <time>2018-09-02T12:46:35.000Z</time>
      </trkpt>
      <trkpt lat="43.28592435456812381744384765625" lon="-2.142202220857143402099609375">
        <ele>57.200000762939453125</ele>
        <time>2018-09-02T12:46:37.000Z</time>
      </trkpt>
      <trkpt lat="43.28596726991236209869384765625" lon="-2.14227807708084583282470703125">
        <ele>58</ele>
        <time>2018-09-02T12:46:40.000Z</time>
      </trkpt>
      <trkpt lat="43.28601035289466381072998046875" lon="-2.142363823950290679931640625">
        <ele>59</ele>
        <time>2018-09-02T12:46:43.000Z</time>
      </trkpt>
      <trkpt lat="43.286025188863277435302734375" lon="-2.14239257387816905975341796875">
        <ele>59.59999847412109375</ele>
        <time>2018-09-02T12:46:44.000Z</time>
      </trkpt>
      <trkpt lat="43.28611076809465885162353515625" lon="-2.14253607206046581268310546875">
        <ele>60.40000152587890625</ele>
        <time>2018-09-02T12:46:49.000Z</time>
      </trkpt>
      <trkpt lat="43.28614664264023303985595703125" lon="-2.14259139262139797210693359375">
        <ele>60.799999237060546875</ele>
        <time>2018-09-02T12:46:51.000Z</time>
      </trkpt>
      <trkpt lat="43.2862235046923160552978515625" lon="-2.1426965855062007904052734375">
        <ele>61.40000152587890625</ele>
        <time>2018-09-02T12:46:55.000Z</time>
      </trkpt>
      <trkpt lat="43.28630221076309680938720703125" lon="-2.142803706228733062744140625">
        <ele>62.40000152587890625</ele>
        <time>2018-09-02T12:46:59.000Z</time>
      </trkpt>
      <trkpt lat="43.28632450662553310394287109375" lon="-2.1428283490240573883056640625">
        <ele>62.59999847412109375</ele>
        <time>2018-09-02T12:47:00.000Z</time>
      </trkpt>
      <trkpt lat="43.2864296995103359222412109375" lon="-2.14294351637363433837890625">
        <ele>63.59999847412109375</ele>
        <time>2018-09-02T12:47:05.000Z</time>
      </trkpt>
      <trkpt lat="43.28649298287928104400634765625" lon="-2.1429990045726299285888671875">
        <ele>64.59999847412109375</ele>
        <time>2018-09-02T12:47:08.000Z</time>
      </trkpt>
      <trkpt lat="43.28651343472301959991455078125" lon="-2.14301853440701961517333984375">
        <ele>64.8000030517578125</ele>
        <time>2018-09-02T12:47:09.000Z</time>
      </trkpt>
      <trkpt lat="43.28666347078979015350341796875" lon="-2.1431592665612697601318359375">
        <ele>65.40000152587890625</ele>
        <time>2018-09-02T12:47:16.000Z</time>
      </trkpt>
      <trkpt lat="43.2867257483303546905517578125" lon="-2.14321911334991455078125">
        <ele>65.59999847412109375</ele>
        <time>2018-09-02T12:47:19.000Z</time>
      </trkpt>
      <trkpt lat="43.28685726039111614227294921875" lon="-2.14333704672753810882568359375">
        <ele>66.59999847412109375</ele>
        <time>2018-09-02T12:47:25.000Z</time>
      </trkpt>
      <trkpt lat="43.286878801882266998291015625" lon="-2.1433567441999912261962890625">
        <ele>66.59999847412109375</ele>
        <time>2018-09-02T12:47:26.000Z</time>
      </trkpt>
      <trkpt lat="43.2869926281273365020751953125" lon="-2.14344668202102184295654296875">
        <ele>66.8000030517578125</ele>
        <time>2018-09-02T12:47:31.000Z</time>
      </trkpt>
      <trkpt lat="43.2870516367256641387939453125" lon="-2.14351482689380645751953125">
        <ele>67.40000152587890625</ele>
        <time>2018-09-02T12:47:34.000Z</time>
      </trkpt>
      <trkpt lat="43.287098743021488189697265625" lon="-2.14360811747610569000244140625">
        <ele>68</ele>
        <time>2018-09-02T12:47:37.000Z</time>
      </trkpt>
      <trkpt lat="43.28714660368859767913818359375" lon="-2.14370383881032466888427734375">
        <ele>68.59999847412109375</ele>
        <time>2018-09-02T12:47:40.000Z</time>
      </trkpt>
      <trkpt lat="43.28716814517974853515625" lon="-2.14377374388277530670166015625">
        <ele>69.1999969482421875</ele>
        <time>2018-09-02T12:47:42.000Z</time>
      </trkpt>
      <trkpt lat="43.2872018404304981231689453125" lon="-2.14388740248978137969970703125">
        <ele>69.8000030517578125</ele>
        <time>2018-09-02T12:47:45.000Z</time>
      </trkpt>
      <trkpt lat="43.28723059035837650299072265625" lon="-2.1440366841852664947509765625">
        <ele>70.40000152587890625</ele>
        <time>2018-09-02T12:47:49.000Z</time>
      </trkpt>
      <trkpt lat="43.2872135750949382781982421875" lon="-2.14415361173450946807861328125">
        <ele>70.8000030517578125</ele>
        <time>2018-09-02T12:47:52.000Z</time>
      </trkpt>
      <trkpt lat="43.2871914468705654144287109375" lon="-2.144230306148529052734375">
        <ele>71.59999847412109375</ele>
        <time>2018-09-02T12:47:54.000Z</time>
      </trkpt>
      <trkpt lat="43.2871760241687297821044921875" lon="-2.144378162920475006103515625">
        <ele>72.59999847412109375</ele>
        <time>2018-09-02T12:47:58.000Z</time>
      </trkpt>
      <trkpt lat="43.2871787063777446746826171875" lon="-2.144411690533161163330078125">
        <ele>72.8000030517578125</ele>
        <time>2018-09-02T12:47:59.000Z</time>
      </trkpt>
      <trkpt lat="43.2872300036251544952392578125" lon="-2.14457295835018157958984375">
        <ele>74</ele>
        <time>2018-09-02T12:48:04.000Z</time>
      </trkpt>
      <trkpt lat="43.2872593402862548828125" lon="-2.14463171549141407012939453125">
        <ele>74.40000152587890625</ele>
        <time>2018-09-02T12:48:06.000Z</time>
      </trkpt>
      <trkpt lat="43.28732304275035858154296875" lon="-2.1447511576116085052490234375">
        <ele>75</ele>
        <time>2018-09-02T12:48:10.000Z</time>
      </trkpt>
      <trkpt lat="43.28737107105553150177001953125" lon="-2.14484930969774723052978515625">
        <ele>75.8000030517578125</ele>
        <time>2018-09-02T12:48:13.000Z</time>
      </trkpt>
      <trkpt lat="43.287407197058200836181640625" lon="-2.14490999467670917510986328125">
        <ele>76.40000152587890625</ele>
        <time>2018-09-02T12:48:15.000Z</time>
      </trkpt>
      <trkpt lat="43.28754021786153316497802734375" lon="-2.145072519779205322265625">
        <ele>77.59999847412109375</ele>
        <time>2018-09-02T12:48:22.000Z</time>
      </trkpt>
      <trkpt lat="43.287623114883899688720703125" lon="-2.145119123160839080810546875">
        <ele>78.59999847412109375</ele>
        <time>2018-09-02T12:48:26.000Z</time>
      </trkpt>
      <trkpt lat="43.2876732386648654937744140625" lon="-2.1451196260750293731689453125">
        <ele>79.1999969482421875</ele>
        <time>2018-09-02T12:48:28.000Z</time>
      </trkpt>
      <trkpt lat="43.28769779764115810394287109375" lon="-2.14511769823729991912841796875">
        <ele>79.59999847412109375</ele>
        <time>2018-09-02T12:48:29.000Z</time>
      </trkpt>
      <trkpt lat="43.2877193391323089599609375" lon="-2.145121134817600250244140625">
        <ele>80</ele>
        <time>2018-09-02T12:48:30.000Z</time>
      </trkpt>
      <trkpt lat="43.287819921970367431640625" lon="-2.14514150284230709075927734375">
        <ele>81</ele>
        <time>2018-09-02T12:48:34.000Z</time>
      </trkpt>
      <trkpt lat="43.28784414567053318023681640625" lon="-2.14515424333512783050537109375">
        <ele>81.40000152587890625</ele>
        <time>2018-09-02T12:48:35.000Z</time>
      </trkpt>
      <trkpt lat="43.28790985979139804840087890625" lon="-2.14520218782126903533935546875">
        <ele>82</ele>
        <time>2018-09-02T12:48:38.000Z</time>
      </trkpt>
      <trkpt lat="43.28798211179673671722412109375" lon="-2.1452788822352886199951171875">
        <ele>83.1999969482421875</ele>
        <time>2018-09-02T12:48:42.000Z</time>
      </trkpt>
      <trkpt lat="43.28804279677569866180419921875" lon="-2.14538860134780406951904296875">
        <ele>84.1999969482421875</ele>
        <time>2018-09-02T12:48:47.000Z</time>
      </trkpt>
      <trkpt lat="43.28805754892528057098388671875" lon="-2.145438976585865020751953125">
        <ele>85</ele>
        <time>2018-09-02T12:48:49.000Z</time>
      </trkpt>
      <trkpt lat="43.28806894831359386444091796875" lon="-2.14548918418586254119873046875">
        <ele>85.59999847412109375</ele>
        <time>2018-09-02T12:48:51.000Z</time>
      </trkpt>
      <trkpt lat="43.28804883174598217010498046875" lon="-2.14558943174779415130615234375">
        <ele>86.59999847412109375</ele>
        <time>2018-09-02T12:48:55.000Z</time>
      </trkpt>
      <trkpt lat="43.28801572322845458984375" lon="-2.14568632654845714569091796875">
        <ele>87.59999847412109375</ele>
        <time>2018-09-02T12:48:59.000Z</time>
      </trkpt>
      <trkpt lat="43.28797842375934123992919921875" lon="-2.145742066204547882080078125">
        <ele>88.59999847412109375</ele>
        <time>2018-09-02T12:49:02.000Z</time>
      </trkpt>
      <trkpt lat="43.28796618618071079254150390625" lon="-2.145761512219905853271484375">
        <ele>89</ele>
        <time>2018-09-02T12:49:03.000Z</time>
      </trkpt>
      <trkpt lat="43.2879243604838848114013671875" lon="-2.14582093991339206695556640625">
        <ele>90.1999969482421875</ele>
        <time>2018-09-02T12:49:07.000Z</time>
      </trkpt>
      <trkpt lat="43.2879129610955715179443359375" lon="-2.1458337642252445220947265625">
        <ele>90.59999847412109375</ele>
        <time>2018-09-02T12:49:08.000Z</time>
      </trkpt>
      <trkpt lat="43.28787960112094879150390625" lon="-2.14586569927632808685302734375">
        <ele>91.1999969482421875</ele>
        <time>2018-09-02T12:49:11.000Z</time>
      </trkpt>
      <trkpt lat="43.28784498386085033416748046875" lon="-2.14588682167232036590576171875">
        <ele>92.1999969482421875</ele>
        <time>2018-09-02T12:49:14.000Z</time>
      </trkpt>
      <trkpt lat="43.28781899996101856231689453125" lon="-2.1459065191447734832763671875">
        <ele>92.59999847412109375</ele>
        <time>2018-09-02T12:49:16.000Z</time>
      </trkpt>
      <trkpt lat="43.28776284120976924896240234375" lon="-2.14596108533442020416259765625">
        <ele>93.59999847412109375</ele>
        <time>2018-09-02T12:49:21.000Z</time>
      </trkpt>
      <trkpt lat="43.28773652203381061553955078125" lon="-2.1459786035120487213134765625">
        <ele>94</ele>
        <time>2018-09-02T12:49:23.000Z</time>
      </trkpt>
      <trkpt lat="43.287700228393077850341796875" lon="-2.14601338841021060943603515625">
        <ele>94.59999847412109375</ele>
        <time>2018-09-02T12:49:26.000Z</time>
      </trkpt>
      <trkpt lat="43.28763895668089389801025390625" lon="-2.14611648581922054290771484375">
        <ele>95.8000030517578125</ele>
        <time>2018-09-02T12:49:32.000Z</time>
      </trkpt>
      <trkpt lat="43.28762889839708805084228515625" lon="-2.1461360156536102294921875">
        <ele>96</ele>
        <time>2018-09-02T12:49:33.000Z</time>
      </trkpt>
      <trkpt lat="43.2875793613493442535400390625" lon="-2.146317064762115478515625">
        <ele>97</ele>
        <time>2018-09-02T12:49:41.000Z</time>
      </trkpt>
      <trkpt lat="43.2875330932438373565673828125" lon="-2.14645209722220897674560546875">
        <ele>97.8000030517578125</ele>
        <time>2018-09-02T12:49:47.000Z</time>
      </trkpt>
      <trkpt lat="43.28754172660410404205322265625" lon="-2.14646819047629833221435546875">
        <ele>97.8000030517578125</ele>
        <time>2018-09-02T12:49:48.000Z</time>
      </trkpt>
      <trkpt lat="43.2875719852745532989501953125" lon="-2.14645058847963809967041015625">
        <ele>98</ele>
        <time>2018-09-02T12:49:52.000Z</time>
      </trkpt>
      <trkpt lat="43.287596963346004486083984375" lon="-2.14646332897245883941650390625">
        <ele>97.8000030517578125</ele>
        <time>2018-09-02T12:50:57.000Z</time>
      </trkpt>
      <trkpt lat="43.28760039992630481719970703125" lon="-2.14648126624524593353271484375">
        <ele>97.59999847412109375</ele>
        <time>2018-09-02T12:50:58.000Z</time>
      </trkpt>
      <trkpt lat="43.28759687952697277069091796875" lon="-2.14650272391736507415771484375">
        <ele>97.8000030517578125</ele>
        <time>2018-09-02T12:50:59.000Z</time>
      </trkpt>
      <trkpt lat="43.28752647154033184051513671875" lon="-2.14660917408764362335205078125">
        <ele>97.8000030517578125</ele>
        <time>2018-09-02T12:51:04.000Z</time>
      </trkpt>
      <trkpt lat="43.28750677406787872314453125" lon="-2.14663733728229999542236328125">
        <ele>97.8000030517578125</ele>
        <time>2018-09-02T12:51:05.000Z</time>
      </trkpt>
      <trkpt lat="43.28738029114902019500732421875" lon="-2.14675501920282840728759765625">
        <ele>97.1999969482421875</ele>
        <time>2018-09-02T12:51:09.000Z</time>
      </trkpt>
      <trkpt lat="43.28733653761446475982666015625" lon="-2.1467882953584194183349609375">
        <ele>97</ele>
        <time>2018-09-02T12:51:10.000Z</time>
      </trkpt>
      <trkpt lat="43.28721500001847743988037109375" lon="-2.14693087153136730194091796875">
        <ele>96.59999847412109375</ele>
        <time>2018-09-02T12:51:13.000Z</time>
      </trkpt>
      <trkpt lat="43.287178538739681243896484375" lon="-2.14700027368962764739990234375">
        <ele>95.8000030517578125</ele>
        <time>2018-09-02T12:51:14.000Z</time>
      </trkpt>
      <trkpt lat="43.2871451787650585174560546875" lon="-2.1470803208649158477783203125">
        <ele>95.1999969482421875</ele>
        <time>2018-09-02T12:51:15.000Z</time>
      </trkpt>
      <trkpt lat="43.2871212065219879150390625" lon="-2.14717210270464420318603515625">
        <ele>94.59999847412109375</ele>
        <time>2018-09-02T12:51:16.000Z</time>
      </trkpt>
      <trkpt lat="43.2871133275330066680908203125" lon="-2.147270254790782928466796875">
        <ele>94</ele>
        <time>2018-09-02T12:51:17.000Z</time>
      </trkpt>
      <trkpt lat="43.2871267385780811309814453125" lon="-2.147474102675914764404296875">
        <ele>93.40000152587890625</ele>
        <time>2018-09-02T12:51:19.000Z</time>
      </trkpt>
      <trkpt lat="43.287146352231502532958984375" lon="-2.1476878412067890167236328125">
        <ele>92.8000030517578125</ele>
        <time>2018-09-02T12:51:21.000Z</time>
      </trkpt>
      <trkpt lat="43.287153728306293487548828125" lon="-2.14780024252831935882568359375">
        <ele>92.1999969482421875</ele>
        <time>2018-09-02T12:51:22.000Z</time>
      </trkpt>
      <trkpt lat="43.287152387201786041259765625" lon="-2.14791540987789630889892578125">
        <ele>91.59999847412109375</ele>
        <time>2018-09-02T12:51:23.000Z</time>
      </trkpt>
      <trkpt lat="43.28714123927056789398193359375" lon="-2.14803175069391727447509765625">
        <ele>91.1999969482421875</ele>
        <time>2018-09-02T12:51:24.000Z</time>
      </trkpt>
      <trkpt lat="43.28712363727390766143798828125" lon="-2.1481468342244625091552734375">
        <ele>90.40000152587890625</ele>
        <time>2018-09-02T12:51:25.000Z</time>
      </trkpt>
      <trkpt lat="43.2871072925627231597900390625" lon="-2.148264348506927490234375">
        <ele>89.8000030517578125</ele>
        <time>2018-09-02T12:51:26.000Z</time>
      </trkpt>
      <trkpt lat="43.28708156011998653411865234375" lon="-2.14849778451025485992431640625">
        <ele>89</ele>
        <time>2018-09-02T12:51:28.000Z</time>
      </trkpt>
      <trkpt lat="43.2870710827410221099853515625" lon="-2.1486118622124195098876953125">
        <ele>88</ele>
        <time>2018-09-02T12:51:29.000Z</time>
      </trkpt>
      <trkpt lat="43.28707032836973667144775390625" lon="-2.14872409589588642120361328125">
        <ele>87.40000152587890625</ele>
        <time>2018-09-02T12:51:30.000Z</time>
      </trkpt>
      <trkpt lat="43.28708223067224025726318359375" lon="-2.1488343179225921630859375">
        <ele>86.8000030517578125</ele>
        <time>2018-09-02T12:51:31.000Z</time>
      </trkpt>
      <trkpt lat="43.2871113158762454986572265625" lon="-2.14893833734095096588134765625">
        <ele>87.1999969482421875</ele>
        <time>2018-09-02T12:51:32.000Z</time>
      </trkpt>
      <trkpt lat="43.28719639219343662261962890625" lon="-2.14913480915129184722900390625">
        <ele>87.59999847412109375</ele>
        <time>2018-09-02T12:51:34.000Z</time>
      </trkpt>
      <trkpt lat="43.2873738370835781097412109375" lon="-2.14939062483608722686767578125">
        <ele>87</ele>
        <time>2018-09-02T12:51:37.000Z</time>
      </trkpt>
      <trkpt lat="43.2874439097940921783447265625" lon="-2.14946321211755275726318359375">
        <ele>85.59999847412109375</ele>
        <time>2018-09-02T12:51:38.000Z</time>
      </trkpt>
      <trkpt lat="43.287598304450511932373046875" lon="-2.1495987474918365478515625">
        <ele>84.1999969482421875</ele>
        <time>2018-09-02T12:51:40.000Z</time>
      </trkpt>
      <trkpt lat="43.2876712270081043243408203125" lon="-2.14967208914458751678466796875">
        <ele>83.59999847412109375</ele>
        <time>2018-09-02T12:51:41.000Z</time>
      </trkpt>
      <trkpt lat="43.28773249872028827667236328125" lon="-2.1497489511966705322265625">
        <ele>83</ele>
        <time>2018-09-02T12:51:42.000Z</time>
      </trkpt>
      <trkpt lat="43.287784717977046966552734375" lon="-2.14983251877129077911376953125">
        <ele>81.8000030517578125</ele>
        <time>2018-09-02T12:51:43.000Z</time>
      </trkpt>
      <trkpt lat="43.28786375932395458221435546875" lon="-2.1500064432621002197265625">
        <ele>80.8000030517578125</ele>
        <time>2018-09-02T12:51:45.000Z</time>
      </trkpt>
      <trkpt lat="43.2878921739757061004638671875" lon="-2.150098979473114013671875">
        <ele>80.1999969482421875</ele>
        <time>2018-09-02T12:51:46.000Z</time>
      </trkpt>
      <trkpt lat="43.2879216782748699188232421875" lon="-2.1501886658370494842529296875">
        <ele>79.59999847412109375</ele>
        <time>2018-09-02T12:51:47.000Z</time>
      </trkpt>
      <trkpt lat="43.28799854032695293426513671875" lon="-2.1504434756934642791748046875">
        <ele>78.1999969482421875</ele>
        <time>2018-09-02T12:51:50.000Z</time>
      </trkpt>
      <trkpt lat="43.2880162261426448822021484375" lon="-2.15052033774554729461669921875">
        <ele>77.8000030517578125</ele>
        <time>2018-09-02T12:51:51.000Z</time>
      </trkpt>
      <trkpt lat="43.28802620060741901397705078125" lon="-2.1505992114543914794921875">
        <ele>77.1999969482421875</ele>
        <time>2018-09-02T12:51:52.000Z</time>
      </trkpt>
      <trkpt lat="43.28799988143146038055419921875" lon="-2.150767855346202850341796875">
        <ele>76.40000152587890625</ele>
        <time>2018-09-02T12:51:54.000Z</time>
      </trkpt>
      <trkpt lat="43.28796945512294769287109375" lon="-2.15085376985371112823486328125">
        <ele>76.1999969482421875</ele>
        <time>2018-09-02T12:51:55.000Z</time>
      </trkpt>
      <trkpt lat="43.287933580577373504638671875" lon="-2.15093390084803104400634765625">
        <ele>75.8000030517578125</ele>
        <time>2018-09-02T12:51:56.000Z</time>
      </trkpt>
      <trkpt lat="43.28784607350826263427734375" lon="-2.1510828472673892974853515625">
        <ele>74.59999847412109375</ele>
        <time>2018-09-02T12:51:58.000Z</time>
      </trkpt>
      <trkpt lat="43.28772311098873615264892578125" lon="-2.1511743776500225067138671875">
        <ele>73.40000152587890625</ele>
        <time>2018-09-02T12:52:00.000Z</time>
      </trkpt>
      <trkpt lat="43.28766527585685253143310546875" lon="-2.151198349893093109130859375">
        <ele>73</ele>
        <time>2018-09-02T12:52:01.000Z</time>
      </trkpt>
      <trkpt lat="43.287614397704601287841796875" lon="-2.1512139402329921722412109375">
        <ele>72.59999847412109375</ele>
        <time>2018-09-02T12:52:02.000Z</time>
      </trkpt>
      <trkpt lat="43.2875689677894115447998046875" lon="-2.1512226574122905731201171875">
        <ele>72.1999969482421875</ele>
        <time>2018-09-02T12:52:03.000Z</time>
      </trkpt>
      <trkpt lat="43.28748355619609355926513671875" lon="-2.15124495327472686767578125">
        <ele>71.59999847412109375</ele>
        <time>2018-09-02T12:52:05.000Z</time>
      </trkpt>
      <trkpt lat="43.28744466416537761688232421875" lon="-2.1512595377862453460693359375">
        <ele>71.1999969482421875</ele>
        <time>2018-09-02T12:52:06.000Z</time>
      </trkpt>
      <trkpt lat="43.2873382978141307830810546875" lon="-2.15128677897155284881591796875">
        <ele>70.1999969482421875</ele>
        <time>2018-09-02T12:52:09.000Z</time>
      </trkpt>
      <trkpt lat="43.28725053928792476654052734375" lon="-2.15132516808807849884033203125">
        <ele>69.40000152587890625</ele>
        <time>2018-09-02T12:52:11.000Z</time>
      </trkpt>
      <trkpt lat="43.28719957731664180755615234375" lon="-2.151354588568210601806640625">
        <ele>68.8000030517578125</ele>
        <time>2018-09-02T12:52:12.000Z</time>
      </trkpt>
      <trkpt lat="43.287098072469234466552734375" lon="-2.15142793022096157073974609375">
        <ele>67.59999847412109375</ele>
        <time>2018-09-02T12:52:14.000Z</time>
      </trkpt>
      <trkpt lat="43.28699572943150997161865234375" lon="-2.151526249945163726806640625">
        <ele>66.1999969482421875</ele>
        <time>2018-09-02T12:52:16.000Z</time>
      </trkpt>
      <trkpt lat="43.286887519061565399169921875" lon="-2.1516524814069271087646484375">
        <ele>65.1999969482421875</ele>
        <time>2018-09-02T12:52:18.000Z</time>
      </trkpt>
      <trkpt lat="43.28677712939679622650146484375" lon="-2.15181358158588409423828125">
        <ele>64.40000152587890625</ele>
        <time>2018-09-02T12:52:20.000Z</time>
      </trkpt>
      <trkpt lat="43.2867136783897876739501953125" lon="-2.15189899317920207977294921875">
        <ele>63.40000152587890625</ele>
        <time>2018-09-02T12:52:21.000Z</time>
      </trkpt>
      <trkpt lat="43.2866409234702587127685546875" lon="-2.15197945944964885711669921875">
        <ele>62.200000762939453125</ele>
        <time>2018-09-02T12:52:22.000Z</time>
      </trkpt>
      <trkpt lat="43.28648678027093410491943359375" lon="-2.1521496959030628204345703125">
        <ele>60.799999237060546875</ele>
        <time>2018-09-02T12:52:24.000Z</time>
      </trkpt>
      <trkpt lat="43.286345042288303375244140625" lon="-2.15234943665564060211181640625">
        <ele>58</ele>
        <time>2018-09-02T12:52:26.000Z</time>
      </trkpt>
      <trkpt lat="43.28622627072036266326904296875" lon="-2.15257977135479450225830078125">
        <ele>56.799999237060546875</ele>
        <time>2018-09-02T12:52:28.000Z</time>
      </trkpt>
      <trkpt lat="43.286137841641902923583984375" lon="-2.1527907438576221466064453125">
        <ele>55.799999237060546875</ele>
        <time>2018-09-02T12:52:30.000Z</time>
      </trkpt>
      <trkpt lat="43.28609316609799861907958984375" lon="-2.1528764069080352783203125">
        <ele>55</ele>
        <time>2018-09-02T12:52:31.000Z</time>
      </trkpt>
      <trkpt lat="43.28603935427963733673095703125" lon="-2.15295108966529369354248046875">
        <ele>54.59999847412109375</ele>
        <time>2018-09-02T12:52:32.000Z</time>
      </trkpt>
      <trkpt lat="43.28590339981019496917724609375" lon="-2.15307287871837615966796875">
        <ele>53.40000152587890625</ele>
        <time>2018-09-02T12:52:34.000Z</time>
      </trkpt>
      <trkpt lat="43.28583114780485630035400390625" lon="-2.153111435472965240478515625">
        <ele>52.59999847412109375</ele>
        <time>2018-09-02T12:52:35.000Z</time>
      </trkpt>
      <trkpt lat="43.2857554592192173004150390625" lon="-2.1531307138502597808837890625">
        <ele>51.799999237060546875</ele>
        <time>2018-09-02T12:52:36.000Z</time>
      </trkpt>
      <trkpt lat="43.28559477813541889190673828125" lon="-2.15311822481453418731689453125">
        <ele>50.59999847412109375</ele>
        <time>2018-09-02T12:52:38.000Z</time>
      </trkpt>
      <trkpt lat="43.28550794161856174468994140625" lon="-2.153103388845920562744140625">
        <ele>50</ele>
        <time>2018-09-02T12:52:39.000Z</time>
      </trkpt>
      <trkpt lat="43.28541859053075313568115234375" lon="-2.15308704413473606109619140625">
        <ele>49.200000762939453125</ele>
        <time>2018-09-02T12:52:40.000Z</time>
      </trkpt>
      <trkpt lat="43.2852731645107269287109375" lon="-2.1530626527965068817138671875">
        <ele>47.59999847412109375</ele>
        <time>2018-09-02T12:52:42.000Z</time>
      </trkpt>
      <trkpt lat="43.28518238849937915802001953125" lon="-2.1530552767217159271240234375">
        <ele>46.200000762939453125</ele>
        <time>2018-09-02T12:52:44.000Z</time>
      </trkpt>
      <trkpt lat="43.2851482741534709930419921875" lon="-2.1530683524906635284423828125">
        <ele>45.799999237060546875</ele>
        <time>2018-09-02T12:52:45.000Z</time>
      </trkpt>
      <trkpt lat="43.28512287698686122894287109375" lon="-2.1530857868492603302001953125">
        <ele>45.200000762939453125</ele>
        <time>2018-09-02T12:52:46.000Z</time>
      </trkpt>
      <trkpt lat="43.28510276041924953460693359375" lon="-2.15310649015009403228759765625">
        <ele>44.799999237060546875</ele>
        <time>2018-09-02T12:52:47.000Z</time>
      </trkpt>
      <trkpt lat="43.28504257835447788238525390625" lon="-2.153129540383815765380859375">
        <ele>43.799999237060546875</ele>
        <time>2018-09-02T12:52:49.000Z</time>
      </trkpt>
      <trkpt lat="43.2850014232099056243896484375" lon="-2.153136916458606719970703125">
        <ele>42</ele>
        <time>2018-09-02T12:52:50.000Z</time>
      </trkpt>
      <trkpt lat="43.28495331108570098876953125" lon="-2.153151333332061767578125">
        <ele>41</ele>
        <time>2018-09-02T12:52:51.000Z</time>
      </trkpt>
      <trkpt lat="43.28485499136149883270263671875" lon="-2.1531910635530948638916015625">
        <ele>39.200000762939453125</ele>
        <time>2018-09-02T12:52:53.000Z</time>
      </trkpt>
      <trkpt lat="43.2847596891224384307861328125" lon="-2.1532356552779674530029296875">
        <ele>37.59999847412109375</ele>
        <time>2018-09-02T12:52:55.000Z</time>
      </trkpt>
      <trkpt lat="43.284670673310756683349609375" lon="-2.15328921563923358917236328125">
        <ele>36.200000762939453125</ele>
        <time>2018-09-02T12:52:57.000Z</time>
      </trkpt>
      <trkpt lat="43.28459716401994228363037109375" lon="-2.1533670835196971893310546875">
        <ele>34.799999237060546875</ele>
        <time>2018-09-02T12:52:59.000Z</time>
      </trkpt>
      <trkpt lat="43.28455810435116291046142578125" lon="-2.1534519083797931671142578125">
        <ele>33.59999847412109375</ele>
        <time>2018-09-02T12:53:01.000Z</time>
      </trkpt>
      <trkpt lat="43.28454100526869297027587890625" lon="-2.1535434387624263763427734375">
        <ele>33</ele>
        <time>2018-09-02T12:53:03.000Z</time>
      </trkpt>
      <trkpt lat="43.2845360599458217620849609375" lon="-2.1535866893827915191650390625">
        <ele>32.40000152587890625</ele>
        <time>2018-09-02T12:53:04.000Z</time>
      </trkpt>
      <trkpt lat="43.2845219783484935760498046875" lon="-2.15371258556842803955078125">
        <ele>30.799999237060546875</ele>
        <time>2018-09-02T12:53:07.000Z</time>
      </trkpt>
      <trkpt lat="43.2845139317214488983154296875" lon="-2.15379145927727222442626953125">
        <ele>29.6000003814697265625</ele>
        <time>2018-09-02T12:53:09.000Z</time>
      </trkpt>
      <trkpt lat="43.28450404107570648193359375" lon="-2.153932191431522369384765625">
        <ele>28</ele>
        <time>2018-09-02T12:53:12.000Z</time>
      </trkpt>
      <trkpt lat="43.284490965306758880615234375" lon="-2.1540218777954578399658203125">
        <ele>26.200000762939453125</ele>
        <time>2018-09-02T12:53:14.000Z</time>
      </trkpt>
      <trkpt lat="43.2844887860119342803955078125" lon="-2.1540646255016326904296875">
        <ele>26</ele>
        <time>2018-09-02T12:53:15.000Z</time>
      </trkpt>
      <trkpt lat="43.28448300249874591827392578125" lon="-2.15414048172533512115478515625">
        <ele>25</ele>
        <time>2018-09-02T12:53:17.000Z</time>
      </trkpt>
      <trkpt lat="43.28449465334415435791015625" lon="-2.15420502237975597381591796875">
        <ele>24</ele>
        <time>2018-09-02T12:53:20.000Z</time>
      </trkpt>
      <trkpt lat="43.28449389897286891937255859375" lon="-2.1542056091129779815673828125">
        <ele>24</ele>
        <time>2018-09-02T12:53:21.000Z</time>
      </trkpt>
      <trkpt lat="43.2844926416873931884765625" lon="-2.15420803986489772796630859375">
        <ele>23.799999237060546875</ele>
        <time>2018-09-02T12:53:22.000Z</time>
      </trkpt>
      <trkpt lat="43.28447042964398860931396484375" lon="-2.154282890260219573974609375">
        <ele>23.3999996185302734375</ele>
        <time>2018-09-02T12:53:25.000Z</time>
      </trkpt>
      <trkpt lat="43.28446908853948116302490234375" lon="-2.15432605706155300140380859375">
        <ele>22.799999237060546875</ele>
        <time>2018-09-02T12:53:27.000Z</time>
      </trkpt>
      <trkpt lat="43.28446607105433940887451171875" lon="-2.154425717890262603759765625">
        <ele>21.6000003814697265625</ele>
        <time>2018-09-02T12:53:30.000Z</time>
      </trkpt>
      <trkpt lat="43.28446590341627597808837890625" lon="-2.15445899404585361480712890625">
        <ele>21</ele>
        <time>2018-09-02T12:53:31.000Z</time>
      </trkpt>
      <trkpt lat="43.2844658195972442626953125" lon="-2.1544897556304931640625">
        <ele>20.6000003814697265625</ele>
        <time>2018-09-02T12:53:32.000Z</time>
      </trkpt>
      <trkpt lat="43.28446959145367145538330078125" lon="-2.15457835234701633453369140625">
        <ele>19.799999237060546875</ele>
        <time>2018-09-02T12:53:34.000Z</time>
      </trkpt>
      <trkpt lat="43.28447663225233554840087890625" lon="-2.15461875312030315399169921875">
        <ele>19.6000003814697265625</ele>
        <time>2018-09-02T12:53:35.000Z</time>
      </trkpt>
      <trkpt lat="43.28448317013680934906005859375" lon="-2.15466217137873172760009765625">
        <ele>19.200000762939453125</ele>
        <time>2018-09-02T12:53:36.000Z</time>
      </trkpt>
      <trkpt lat="43.28448417596518993377685546875" lon="-2.15475068427622318267822265625">
        <ele>17.6000003814697265625</ele>
        <time>2018-09-02T12:53:38.000Z</time>
      </trkpt>
      <trkpt lat="43.28444771468639373779296875" lon="-2.1548558771610260009765625">
        <ele>16.6000003814697265625</ele>
        <time>2018-09-02T12:53:41.000Z</time>
      </trkpt>
      <trkpt lat="43.28442634083330631256103515625" lon="-2.15505293570458889007568359375">
        <ele>15.6000003814697265625</ele>
        <time>2018-09-02T12:53:45.000Z</time>
      </trkpt>
      <trkpt lat="43.2844274304807186126708984375" lon="-2.15512217022478580474853515625">
        <ele>15.19999980926513671875</ele>
        <time>2018-09-02T12:53:46.000Z</time>
      </trkpt>
      <trkpt lat="43.2844133488833904266357421875" lon="-2.15525753796100616455078125">
        <ele>14.19999980926513671875</ele>
        <time>2018-09-02T12:53:48.000Z</time>
      </trkpt>
      <trkpt lat="43.28440655954182147979736328125" lon="-2.15532685630023479461669921875">
        <ele>13.6000003814697265625</ele>
        <time>2018-09-02T12:53:49.000Z</time>
      </trkpt>
      <trkpt lat="43.2843918912112712860107421875" lon="-2.1554001979529857635498046875">
        <ele>13</ele>
        <time>2018-09-02T12:53:50.000Z</time>
      </trkpt>
      <trkpt lat="43.2843781448900699615478515625" lon="-2.15547655709087848663330078125">
        <ele>11.80000019073486328125</ele>
        <time>2018-09-02T12:53:51.000Z</time>
      </trkpt>
      <trkpt lat="43.284358195960521697998046875" lon="-2.1555550955235958099365234375">
        <ele>10.80000019073486328125</ele>
        <time>2018-09-02T12:53:52.000Z</time>
      </trkpt>
      <trkpt lat="43.28430664725601673126220703125" lon="-2.15570840053260326385498046875">
        <ele>9</ele>
        <time>2018-09-02T12:53:54.000Z</time>
      </trkpt>
      <trkpt lat="43.2842745445668697357177734375" lon="-2.15578014962375164031982421875">
        <ele>8.3999996185302734375</ele>
        <time>2018-09-02T12:53:55.000Z</time>
      </trkpt>
      <trkpt lat="43.28423975966870784759521484375" lon="-2.1558427624404430389404296875">
        <ele>7.80000019073486328125</ele>
        <time>2018-09-02T12:53:56.000Z</time>
      </trkpt>
      <trkpt lat="43.2841769792139530181884765625" lon="-2.1559718437492847442626953125">
        <ele>7.400000095367431640625</ele>
        <time>2018-09-02T12:53:58.000Z</time>
      </trkpt>
      <trkpt lat="43.2841327227652072906494140625" lon="-2.15618868358433246612548828125">
        <ele>6.80000019073486328125</ele>
        <time>2018-09-02T12:54:01.000Z</time>
      </trkpt>
      <trkpt lat="43.284138254821300506591796875" lon="-2.1562559902667999267578125">
        <ele>6.599999904632568359375</ele>
        <time>2018-09-02T12:54:02.000Z</time>
      </trkpt>
      <trkpt lat="43.28414688818156719207763671875" lon="-2.15644173324108123779296875">
        <ele>6.19999980926513671875</ele>
        <time>2018-09-02T12:54:05.000Z</time>
      </trkpt>
      <trkpt lat="43.28414286486804485321044921875" lon="-2.156503759324550628662109375">
        <ele>5.80000019073486328125</ele>
        <time>2018-09-02T12:54:06.000Z</time>
      </trkpt>
      <trkpt lat="43.2841417752206325531005859375" lon="-2.15656645596027374267578125">
        <ele>5.599999904632568359375</ele>
        <time>2018-09-02T12:54:07.000Z</time>
      </trkpt>
      <trkpt lat="43.284149654209613800048828125" lon="-2.1566289849579334259033203125">
        <ele>5.599999904632568359375</ele>
        <time>2018-09-02T12:54:08.000Z</time>
      </trkpt>
      <trkpt lat="43.284203968942165374755859375" lon="-2.15680693276226520538330078125">
        <ele>5.400000095367431640625</ele>
        <time>2018-09-02T12:54:11.000Z</time>
      </trkpt>
      <trkpt lat="43.28422768972814083099365234375" lon="-2.156860493123531341552734375">
        <ele>5.19999980926513671875</ele>
        <time>2018-09-02T12:54:12.000Z</time>
      </trkpt>
      <trkpt lat="43.2843617163598537445068359375" lon="-2.15721513144671916961669921875">
        <ele>5</ele>
        <time>2018-09-02T12:54:19.000Z</time>
      </trkpt>
      <trkpt lat="43.2844331301748752593994140625" lon="-2.15746608562767505645751953125">
        <ele>5.599999904632568359375</ele>
        <time>2018-09-02T12:54:25.000Z</time>
      </trkpt>
      <trkpt lat="43.28447294421494007110595703125" lon="-2.15755476616322994232177734375">
        <ele>5.400000095367431640625</ele>
        <time>2018-09-02T12:54:27.000Z</time>
      </trkpt>
      <trkpt lat="43.28449599444866180419921875" lon="-2.15759986080229282379150390625">
        <ele>5.400000095367431640625</ele>
        <time>2018-09-02T12:54:28.000Z</time>
      </trkpt>
      <trkpt lat="43.28453279100358486175537109375" lon="-2.1576914750039577484130859375">
        <ele>5.400000095367431640625</ele>
        <time>2018-09-02T12:54:30.000Z</time>
      </trkpt>
      <trkpt lat="43.28457268886268138885498046875" lon="-2.15778325684368610382080078125">
        <ele>5.599999904632568359375</ele>
        <time>2018-09-02T12:54:32.000Z</time>
      </trkpt>
      <trkpt lat="43.28470244072377681732177734375" lon="-2.158086597919464111328125">
        <ele>5.80000019073486328125</ele>
        <time>2018-09-02T12:54:39.000Z</time>
      </trkpt>
      <trkpt lat="43.2848203741014003753662109375" lon="-2.1583697386085987091064453125">
        <ele>6</ele>
        <time>2018-09-02T12:54:46.000Z</time>
      </trkpt>
      <trkpt lat="43.28486236743628978729248046875" lon="-2.15846009552478790283203125">
        <ele>6</ele>
        <time>2018-09-02T12:54:48.000Z</time>
      </trkpt>
      <trkpt lat="43.28503235243260860443115234375" lon="-2.15883770026266574859619140625">
        <ele>6.19999980926513671875</ele>
        <time>2018-09-02T12:54:56.000Z</time>
      </trkpt>
      <trkpt lat="43.2851590029895305633544921875" lon="-2.159112878143787384033203125">
        <ele>6.400000095367431640625</ele>
        <time>2018-09-02T12:55:02.000Z</time>
      </trkpt>
      <trkpt lat="43.28519395552575588226318359375" lon="-2.1592015586793422698974609375">
        <ele>6.599999904632568359375</ele>
        <time>2018-09-02T12:55:04.000Z</time>
      </trkpt>
      <trkpt lat="43.285250030457973480224609375" lon="-2.1593437157571315765380859375">
        <ele>6.80000019073486328125</ele>
        <time>2018-09-02T12:55:07.000Z</time>
      </trkpt>
      <trkpt lat="43.28538288362324237823486328125" lon="-2.15965895913541316986083984375">
        <ele>6.599999904632568359375</ele>
        <time>2018-09-02T12:55:14.000Z</time>
      </trkpt>
      <trkpt lat="43.28540367074310779571533203125" lon="-2.159701623022556304931640625">
        <ele>6.599999904632568359375</ele>
        <time>2018-09-02T12:55:15.000Z</time>
      </trkpt>
      <trkpt lat="43.28546217642724514007568359375" lon="-2.1597437001764774322509765625">
        <ele>6.80000019073486328125</ele>
        <time>2018-09-02T12:55:17.000Z</time>
      </trkpt>
      <trkpt lat="43.285494111478328704833984375" lon="-2.1597380004823207855224609375">
        <ele>7</ele>
        <time>2018-09-02T12:55:18.000Z</time>
      </trkpt>
      <trkpt lat="43.28558287583291530609130859375" lon="-2.15969148091971874237060546875">
        <ele>7.80000019073486328125</ele>
        <time>2018-09-02T12:55:21.000Z</time>
      </trkpt>
      <trkpt lat="43.285608105361461639404296875" lon="-2.15967404656112194061279296875">
        <ele>7.80000019073486328125</ele>
        <time>2018-09-02T12:55:22.000Z</time>
      </trkpt>
      <trkpt lat="43.2856615819036960601806640625" lon="-2.1596246771514415740966796875">
        <ele>7.80000019073486328125</ele>
        <time>2018-09-02T12:55:24.000Z</time>
      </trkpt>
      <trkpt lat="43.285779096186161041259765625" lon="-2.15953029692173004150390625">
        <ele>8.19999980926513671875</ele>
        <time>2018-09-02T12:55:29.000Z</time>
      </trkpt>
      <trkpt lat="43.28578974120318889617919921875" lon="-2.15951495803892612457275390625">
        <ele>8.3999996185302734375</ele>
        <time>2018-09-02T12:55:30.000Z</time>
      </trkpt>
      <trkpt lat="43.28579418361186981201171875" lon="-2.159500457346439361572265625">
        <ele>8.3999996185302734375</ele>
        <time>2018-09-02T12:55:31.000Z</time>
      </trkpt>
      <trkpt lat="43.285817317664623260498046875" lon="-2.15946768410503864288330078125">
        <ele>8.3999996185302734375</ele>
        <time>2018-09-02T12:55:33.000Z</time>
      </trkpt>
      <trkpt lat="43.285888731479644775390625" lon="-2.15941973961889743804931640625">
        <ele>8.80000019073486328125</ele>
        <time>2018-09-02T12:55:37.000Z</time>
      </trkpt>
      <trkpt lat="43.2859110273420810699462890625" lon="-2.15940557420253753662109375">
        <ele>9</ele>
        <time>2018-09-02T12:55:38.000Z</time>
      </trkpt>
      <trkpt lat="43.28609115444123744964599609375" lon="-2.15933642350137233734130859375">
        <ele>9.19999980926513671875</ele>
        <time>2018-09-02T12:55:44.000Z</time>
      </trkpt>
      <trkpt lat="43.28619793988764286041259765625" lon="-2.15930809266865253448486328125">
        <ele>9.80000019073486328125</ele>
        <time>2018-09-02T12:55:48.000Z</time>
      </trkpt>
      <trkpt lat="43.286229036748409271240234375" lon="-2.1592951007187366485595703125">
        <ele>9.80000019073486328125</ele>
        <time>2018-09-02T12:55:49.000Z</time>
      </trkpt>
      <trkpt lat="43.28637731261551380157470703125" lon="-2.1592625789344310760498046875">
        <ele>10.19999980926513671875</ele>
        <time>2018-09-02T12:55:54.000Z</time>
      </trkpt>
      <trkpt lat="43.28645492903888225555419921875" lon="-2.1593547798693180084228515625">
        <ele>10.6000003814697265625</ele>
        <time>2018-09-02T12:55:58.000Z</time>
      </trkpt>
      <trkpt lat="43.28647412359714508056640625" lon="-2.15951244346797466278076171875">
        <ele>11</ele>
        <time>2018-09-02T12:56:02.000Z</time>
      </trkpt>
      <trkpt lat="43.28648191876709461212158203125" lon="-2.1597175486385822296142578125">
        <ele>11.19999980926513671875</ele>
        <time>2018-09-02T12:56:07.000Z</time>
      </trkpt>
      <trkpt lat="43.286493234336376190185546875" lon="-2.15998602099716663360595703125">
        <ele>11.80000019073486328125</ele>
        <time>2018-09-02T12:56:13.000Z</time>
      </trkpt>
      <trkpt lat="43.28649600036442279815673828125" lon="-2.160232365131378173828125">
        <ele>11.3999996185302734375</ele>
        <time>2018-09-02T12:56:18.000Z</time>
      </trkpt>
      <trkpt lat="43.28650086186826229095458984375" lon="-2.16037393547594547271728515625">
        <ele>11.6000003814697265625</ele>
        <time>2018-09-02T12:56:21.000Z</time>
      </trkpt>
      <trkpt lat="43.28648778609931468963623046875" lon="-2.160431183874607086181640625">
        <ele>11.3999996185302734375</ele>
        <time>2018-09-02T12:56:22.000Z</time>
      </trkpt>
      <trkpt lat="43.286407403647899627685546875" lon="-2.160580046474933624267578125">
        <ele>11.19999980926513671875</ele>
        <time>2018-09-02T12:56:26.000Z</time>
      </trkpt>
      <trkpt lat="43.28635669313371181488037109375" lon="-2.16062053106725215911865234375">
        <ele>11</ele>
        <time>2018-09-02T12:56:28.000Z</time>
      </trkpt>
      <trkpt lat="43.286352418363094329833984375" lon="-2.16066596098244190216064453125">
        <ele>10.80000019073486328125</ele>
        <time>2018-09-02T12:56:30.000Z</time>
      </trkpt>
      <trkpt lat="43.286363817751407623291015625" lon="-2.16070602647960186004638671875">
        <ele>11</ele>
        <time>2018-09-02T12:56:32.000Z</time>
      </trkpt>
      <trkpt lat="43.286378569900989532470703125" lon="-2.16071876697242259979248046875">
        <ele>11</ele>
        <time>2018-09-02T12:56:33.000Z</time>
      </trkpt>
      <trkpt lat="43.286406733095645904541015625" lon="-2.1607768535614013671875">
        <ele>11</ele>
        <time>2018-09-02T12:56:35.000Z</time>
      </trkpt>
      <trkpt lat="43.2864588685333728790283203125" lon="-2.16084985993802547454833984375">
        <ele>11</ele>
        <time>2018-09-02T12:56:38.000Z</time>
      </trkpt>
      <trkpt lat="43.28650488518178462982177734375" lon="-2.16086159460246562957763671875">
        <ele>11.3999996185302734375</ele>
        <time>2018-09-02T12:56:40.000Z</time>
      </trkpt>
      <trkpt lat="43.286611251533031463623046875" lon="-2.1608786098659038543701171875">
        <ele>12.19999980926513671875</ele>
        <time>2018-09-02T12:56:44.000Z</time>
      </trkpt>
      <trkpt lat="43.28668694011867046356201171875" lon="-2.16087550856173038482666015625">
        <ele>12.80000019073486328125</ele>
        <time>2018-09-02T12:56:47.000Z</time>
      </trkpt>
      <trkpt lat="43.2867646403610706329345703125" lon="-2.16087735258042812347412109375">
        <ele>13.19999980926513671875</ele>
        <time>2018-09-02T12:56:50.000Z</time>
      </trkpt>
      <trkpt lat="43.28685172833502292633056640625" lon="-2.16086377389729022979736328125">
        <ele>13.6000003814697265625</ele>
        <time>2018-09-02T12:56:53.000Z</time>
      </trkpt>
      <trkpt lat="43.28716571442782878875732421875" lon="-2.1608548052608966827392578125">
        <ele>13.6000003814697265625</ele>
        <time>2018-09-02T12:57:03.000Z</time>
      </trkpt>
      <trkpt lat="43.28739521093666553497314453125" lon="-2.16082706116139888763427734375">
        <ele>13.6000003814697265625</ele>
        <time>2018-09-02T12:57:10.000Z</time>
      </trkpt>
      <trkpt lat="43.28757508657872676849365234375" lon="-2.16082018800079822540283203125">
        <ele>13.80000019073486328125</ele>
        <time>2018-09-02T12:57:15.000Z</time>
      </trkpt>
      <trkpt lat="43.287647925317287445068359375" lon="-2.16082253493368625640869140625">
        <ele>13.80000019073486328125</ele>
        <time>2018-09-02T12:57:17.000Z</time>
      </trkpt>
      <trkpt lat="43.28780726529657840728759765625" lon="-2.16082823462784290313720703125">
        <ele>13.80000019073486328125</ele>
        <time>2018-09-02T12:57:21.000Z</time>
      </trkpt>
      <trkpt lat="43.28794531524181365966796875" lon="-2.1608430705964565277099609375">
        <ele>13.19999980926513671875</ele>
        <time>2018-09-02T12:57:24.000Z</time>
      </trkpt>
      <trkpt lat="43.28803508542478084564208984375" lon="-2.16085421852767467498779296875">
        <ele>12.80000019073486328125</ele>
        <time>2018-09-02T12:57:26.000Z</time>
      </trkpt>
      <trkpt lat="43.28815964050590991973876953125" lon="-2.16086243279278278350830078125">
        <ele>12.19999980926513671875</ele>
        <time>2018-09-02T12:57:29.000Z</time>
      </trkpt>
      <trkpt lat="43.28827044926583766937255859375" lon="-2.16088606975972652435302734375">
        <ele>11.80000019073486328125</ele>
        <time>2018-09-02T12:57:32.000Z</time>
      </trkpt>
      <trkpt lat="43.28832929022610187530517578125" lon="-2.16089881025254726409912109375">
        <ele>11.3999996185302734375</ele>
        <time>2018-09-02T12:57:34.000Z</time>
      </trkpt>
      <trkpt lat="43.2883672602474689483642578125" lon="-2.16089076362550258636474609375">
        <ele>11.3999996185302734375</ele>
        <time>2018-09-02T12:57:36.000Z</time>
      </trkpt>
      <trkpt lat="43.28838595189154148101806640625" lon="-2.16088883578777313232421875">
        <ele>11.3999996185302734375</ele>
        <time>2018-09-02T12:57:37.000Z</time>
      </trkpt>
      <trkpt lat="43.28847211785614490509033203125" lon="-2.1608839742839336395263671875">
        <ele>11.19999980926513671875</ele>
        <time>2018-09-02T12:57:42.000Z</time>
      </trkpt>
      <trkpt lat="43.28850648365914821624755859375" lon="-2.16088213026523590087890625">
        <ele>11</ele>
        <time>2018-09-02T12:57:44.000Z</time>
      </trkpt>
      <trkpt lat="43.28860136680305004119873046875" lon="-2.16089420020580291748046875">
        <ele>11</ele>
        <time>2018-09-02T12:57:51.000Z</time>
      </trkpt>
      <trkpt lat="43.288682587444782257080078125" lon="-2.16089428402483463287353515625">
        <ele>11</ele>
        <time>2018-09-02T12:57:55.000Z</time>
      </trkpt>
      <trkpt lat="43.28869675286114215850830078125" lon="-2.16089059598743915557861328125">
        <ele>11</ele>
        <time>2018-09-02T12:57:56.000Z</time>
      </trkpt>
      <trkpt lat="43.288815356791019439697265625" lon="-2.16088606975972652435302734375">
        <ele>10.6000003814697265625</ele>
        <time>2018-09-02T12:58:02.000Z</time>
      </trkpt>
      <trkpt lat="43.288938067853450775146484375" lon="-2.16089327819645404815673828125">
        <ele>11</ele>
        <time>2018-09-02T12:58:08.000Z</time>
      </trkpt>
      <trkpt lat="43.288953490555286407470703125" lon="-2.16089126653969287872314453125">
        <ele>11</ele>
        <time>2018-09-02T12:58:09.000Z</time>
      </trkpt>
      <trkpt lat="43.289005458354949951171875" lon="-2.16086871922016143798828125">
        <ele>11</ele>
        <time>2018-09-02T12:58:13.000Z</time>
      </trkpt>
      <trkpt lat="43.2890146784484386444091796875" lon="-2.1608734130859375">
        <ele>11</ele>
        <time>2018-09-02T12:58:14.000Z</time>
      </trkpt>
      <trkpt lat="43.28900101594626903533935546875" lon="-2.1608841419219970703125">
        <ele>11</ele>
        <time>2018-09-02T13:00:55.000Z</time>
      </trkpt>
      <trkpt lat="43.28898827545344829559326171875" lon="-2.16087500564754009246826171875">
        <ele>11</ele>
        <time>2018-09-02T13:00:56.000Z</time>
      </trkpt>
      <trkpt lat="43.28894217498600482940673828125" lon="-2.16090668924152851104736328125">
        <ele>10.80000019073486328125</ele>
        <time>2018-09-02T13:01:01.000Z</time>
      </trkpt>
      <trkpt lat="43.28895491547882556915283203125" lon="-2.16101263649761676788330078125">
        <ele>10.80000019073486328125</ele>
        <time>2018-09-02T13:01:05.000Z</time>
      </trkpt>
      <trkpt lat="43.28895508311688899993896484375" lon="-2.16104381717741489410400390625">
        <ele>10.80000019073486328125</ele>
        <time>2018-09-02T13:01:06.000Z</time>
      </trkpt>
      <trkpt lat="43.28893630765378475189208984375" lon="-2.16114289127290248870849609375">
        <ele>10.19999980926513671875</ele>
        <time>2018-09-02T13:01:09.000Z</time>
      </trkpt>
      <trkpt lat="43.28892189078032970428466796875" lon="-2.1612209267914295196533203125">
        <ele>9.80000019073486328125</ele>
        <time>2018-09-02T13:01:11.000Z</time>
      </trkpt>
      <trkpt lat="43.28888651914894580841064453125" lon="-2.16140993870794773101806640625">
        <ele>8.80000019073486328125</ele>
        <time>2018-09-02T13:01:15.000Z</time>
      </trkpt>
      <trkpt lat="43.28888098709285259246826171875" lon="-2.16149342246353626251220703125">
        <ele>8.6000003814697265625</ele>
        <time>2018-09-02T13:01:17.000Z</time>
      </trkpt>
      <trkpt lat="43.288801275193691253662109375" lon="-2.1616547740995883941650390625">
        <ele>8.80000019073486328125</ele>
        <time>2018-09-02T13:01:22.000Z</time>
      </trkpt>
      <trkpt lat="43.28877185471355915069580078125" lon="-2.16171872802078723907470703125">
        <ele>8.6000003814697265625</ele>
        <time>2018-09-02T13:01:24.000Z</time>
      </trkpt>
      <trkpt lat="43.2887491397559642791748046875" lon="-2.16184831224381923675537109375">
        <ele>8.19999980926513671875</ele>
        <time>2018-09-02T13:01:27.000Z</time>
      </trkpt>
      <trkpt lat="43.2887330465018749237060546875" lon="-2.16194487176835536956787109375">
        <ele>7.80000019073486328125</ele>
        <time>2018-09-02T13:01:29.000Z</time>
      </trkpt>
      <trkpt lat="43.288699351251125335693359375" lon="-2.1621003560721874237060546875">
        <ele>6.80000019073486328125</ele>
        <time>2018-09-02T13:01:32.000Z</time>
      </trkpt>
      <trkpt lat="43.288686610758304595947265625" lon="-2.16215483844280242919921875">
        <ele>6.400000095367431640625</ele>
        <time>2018-09-02T13:01:33.000Z</time>
      </trkpt>
      <trkpt lat="43.28867345117032527923583984375" lon="-2.16220739297568798065185546875">
        <ele>6</ele>
        <time>2018-09-02T13:01:34.000Z</time>
      </trkpt>
      <trkpt lat="43.288635648787021636962890625" lon="-2.16254635713994503021240234375">
        <ele>6.599999904632568359375</ele>
        <time>2018-09-02T13:01:41.000Z</time>
      </trkpt>
      <trkpt lat="43.288566581904888153076171875" lon="-2.16274651698768138885498046875">
        <ele>6.400000095367431640625</ele>
        <time>2018-09-02T13:01:46.000Z</time>
      </trkpt>
      <trkpt lat="43.2884601317346096038818359375" lon="-2.16288716532289981842041015625">
        <ele>6.599999904632568359375</ele>
        <time>2018-09-02T13:01:52.000Z</time>
      </trkpt>
      <trkpt lat="43.28844613395631313323974609375" lon="-2.16294206678867340087890625">
        <ele>6.80000019073486328125</ele>
        <time>2018-09-02T13:01:54.000Z</time>
      </trkpt>
      <trkpt lat="43.2884376682341098785400390625" lon="-2.16299277730286121368408203125">
        <ele>6.80000019073486328125</ele>
        <time>2018-09-02T13:01:56.000Z</time>
      </trkpt>
      <trkpt lat="43.288433142006397247314453125" lon="-2.1630173362791538238525390625">
        <ele>6.80000019073486328125</ele>
        <time>2018-09-02T13:01:57.000Z</time>
      </trkpt>
      <trkpt lat="43.28837178647518157958984375" lon="-2.16320098377764225006103515625">
        <ele>7.80000019073486328125</ele>
        <time>2018-09-02T13:02:04.000Z</time>
      </trkpt>
      <trkpt lat="43.288336582481861114501953125" lon="-2.16322462074458599090576171875">
        <ele>8.3999996185302734375</ele>
        <time>2018-09-02T13:02:06.000Z</time>
      </trkpt>
      <trkpt lat="43.28828201629221439361572265625" lon="-2.163240797817707061767578125">
        <ele>8.80000019073486328125</ele>
        <time>2018-09-02T13:02:09.000Z</time>
      </trkpt>
      <trkpt lat="43.28826659359037876129150390625" lon="-2.16325077228248119354248046875">
        <ele>9</ele>
        <time>2018-09-02T13:02:10.000Z</time>
      </trkpt>
      <trkpt lat="43.28824714757502079010009765625" lon="-2.1632513590157032012939453125">
        <ele>9.19999980926513671875</ele>
        <time>2018-09-02T13:02:11.000Z</time>
      </trkpt>
      <trkpt lat="43.2881895639002323150634765625" lon="-2.16325295157730579376220703125">
        <ele>9.6000003814697265625</ele>
        <time>2018-09-02T13:02:14.000Z</time>
      </trkpt>
      <trkpt lat="43.288171291351318359375" lon="-2.16324985027313232421875">
        <ele>9.80000019073486328125</ele>
        <time>2018-09-02T13:02:15.000Z</time>
      </trkpt>
      <trkpt lat="43.28813784755766391754150390625" lon="-2.16323786415159702301025390625">
        <ele>10</ele>
        <time>2018-09-02T13:02:17.000Z</time>
      </trkpt>
      <trkpt lat="43.28810281120240688323974609375" lon="-2.163230068981647491455078125">
        <ele>10.3999996185302734375</ele>
        <time>2018-09-02T13:02:19.000Z</time>
      </trkpt>
      <trkpt lat="43.28807431273162364959716796875" lon="-2.1632350981235504150390625">
        <ele>10.6000003814697265625</ele>
        <time>2018-09-02T13:02:21.000Z</time>
      </trkpt>
      <trkpt lat="43.2880624942481517791748046875" lon="-2.16323886997997760772705078125">
        <ele>10.80000019073486328125</ele>
        <time>2018-09-02T13:02:22.000Z</time>
      </trkpt>
      <trkpt lat="43.288029134273529052734375" lon="-2.16323375701904296875">
        <ele>11</ele>
        <time>2018-09-02T13:02:25.000Z</time>
      </trkpt>
      <trkpt lat="43.28801597468554973602294921875" lon="-2.1631762571632862091064453125">
        <ele>11</ele>
        <time>2018-09-02T13:02:28.000Z</time>
      </trkpt>
      <trkpt lat="43.28802284784615039825439453125" lon="-2.16312571428716182708740234375">
        <ele>11</ele>
        <time>2018-09-02T13:02:30.000Z</time>
      </trkpt>
      <trkpt lat="43.28802770934998989105224609375" lon="-2.16310123912990093231201171875">
        <ele>11.19999980926513671875</ele>
        <time>2018-09-02T13:02:31.000Z</time>
      </trkpt>
      <trkpt lat="43.28804992139339447021484375" lon="-2.16302278451621532440185546875">
        <ele>11.19999980926513671875</ele>
        <time>2018-09-02T13:02:35.000Z</time>
      </trkpt>
      <trkpt lat="43.2880564592778682708740234375" lon="-2.1629405580461025238037109375">
        <ele>11</ele>
        <time>2018-09-02T13:02:38.000Z</time>
      </trkpt>
      <trkpt lat="43.28807012178003787994384765625" lon="-2.16286185197532176971435546875">
        <ele>11</ele>
        <time>2018-09-02T13:02:41.000Z</time>
      </trkpt>
      <trkpt lat="43.28806224279105663299560546875" lon="-2.162754647433757781982421875">
        <ele>11.19999980926513671875</ele>
        <time>2018-09-02T13:02:45.000Z</time>
      </trkpt>
      <trkpt lat="43.2880507595837116241455078125" lon="-2.1627333573997020721435546875">
        <ele>11.19999980926513671875</ele>
        <time>2018-09-02T13:02:46.000Z</time>
      </trkpt>
      <trkpt lat="43.2879709638655185699462890625" lon="-2.16267845593392848968505859375">
        <ele>11.3999996185302734375</ele>
        <time>2018-09-02T13:02:50.000Z</time>
      </trkpt>
      <trkpt lat="43.28794808126986026763916015625" lon="-2.16267518699169158935546875">
        <ele>11.3999996185302734375</ele>
        <time>2018-09-02T13:02:51.000Z</time>
      </trkpt>
      <trkpt lat="43.28789980150759220123291015625" lon="-2.16266370378434658050537109375">
        <ele>11.6000003814697265625</ele>
        <time>2018-09-02T13:02:53.000Z</time>
      </trkpt>
      <trkpt lat="43.28779184259474277496337890625" lon="-2.162654064595699310302734375">
        <ele>11.80000019073486328125</ele>
        <time>2018-09-02T13:02:57.000Z</time>
      </trkpt>
      <trkpt lat="43.2877325825393199920654296875" lon="-2.162650041282176971435546875">
        <ele>12</ele>
        <time>2018-09-02T13:02:59.000Z</time>
      </trkpt>
      <trkpt lat="43.28767533414065837860107421875" lon="-2.1626418270170688629150390625">
        <ele>12.19999980926513671875</ele>
        <time>2018-09-02T13:03:01.000Z</time>
      </trkpt>
      <trkpt lat="43.28753971494734287261962890625" lon="-2.16262883506715297698974609375">
        <ele>12.3999996185302734375</ele>
        <time>2018-09-02T13:03:06.000Z</time>
      </trkpt>
      <trkpt lat="43.287513144314289093017578125" lon="-2.16264727525413036346435546875">
        <ele>12.3999996185302734375</ele>
        <time>2018-09-02T13:03:07.000Z</time>
      </trkpt>
      <trkpt lat="43.28746318817138671875" lon="-2.16274383477866649627685546875">
        <ele>12.6000003814697265625</ele>
        <time>2018-09-02T13:03:10.000Z</time>
      </trkpt>
      <trkpt lat="43.28744416125118732452392578125" lon="-2.16282731853425502777099609375">
        <ele>12.6000003814697265625</ele>
        <time>2018-09-02T13:03:12.000Z</time>
      </trkpt>
      <trkpt lat="43.28740929253399372100830078125" lon="-2.16299973428249359130859375">
        <ele>12.3999996185302734375</ele>
        <time>2018-09-02T13:03:16.000Z</time>
      </trkpt>
      <trkpt lat="43.28734693117439746856689453125" lon="-2.1633811108767986297607421875">
        <ele>12.6000003814697265625</ele>
        <time>2018-09-02T13:03:24.000Z</time>
      </trkpt>
      <trkpt lat="43.2873376272618770599365234375" lon="-2.1634297259151935577392578125">
        <ele>12.6000003814697265625</ele>
        <time>2018-09-02T13:03:25.000Z</time>
      </trkpt>
      <trkpt lat="43.2872767746448516845703125" lon="-2.1637851186096668243408203125">
        <ele>12.19999980926513671875</ele>
        <time>2018-09-02T13:03:32.000Z</time>
      </trkpt>
      <trkpt lat="43.28726026229560375213623046875" lon="-2.16388494707643985748291015625">
        <ele>12.19999980926513671875</ele>
        <time>2018-09-02T13:03:34.000Z</time>
      </trkpt>
      <trkpt lat="43.28722857870161533355712890625" lon="-2.16411821544170379638671875">
        <ele>12.6000003814697265625</ele>
        <time>2018-09-02T13:03:39.000Z</time>
      </trkpt>
      <trkpt lat="43.28722405247390270233154296875" lon="-2.16420832090079784393310546875">
        <ele>12.6000003814697265625</ele>
        <time>2018-09-02T13:03:41.000Z</time>
      </trkpt>
      <trkpt lat="43.28717526979744434356689453125" lon="-2.1644848398864269256591796875">
        <ele>12.19999980926513671875</ele>
        <time>2018-09-02T13:03:47.000Z</time>
      </trkpt>
      <trkpt lat="43.28713453374803066253662109375" lon="-2.164836041629314422607421875">
        <ele>12.3999996185302734375</ele>
        <time>2018-09-02T13:03:54.000Z</time>
      </trkpt>
      <trkpt lat="43.28708172775804996490478515625" lon="-2.16516218148171901702880859375">
        <ele>12</ele>
        <time>2018-09-02T13:04:00.000Z</time>
      </trkpt>
      <trkpt lat="43.2870425842702388763427734375" lon="-2.16539922170341014862060546875">
        <ele>11.19999980926513671875</ele>
        <time>2018-09-02T13:04:04.000Z</time>
      </trkpt>
      <trkpt lat="43.28702540136873722076416015625" lon="-2.16551422141492366790771484375">
        <ele>11.6000003814697265625</ele>
        <time>2018-09-02T13:04:06.000Z</time>
      </trkpt>
      <trkpt lat="43.28700092621147632598876953125" lon="-2.1656968630850315093994140625">
        <ele>11.19999980926513671875</ele>
        <time>2018-09-02T13:04:09.000Z</time>
      </trkpt>
      <trkpt lat="43.28699086792767047882080078125" lon="-2.16576701961457729339599609375">
        <ele>11.19999980926513671875</ele>
        <time>2018-09-02T13:04:10.000Z</time>
      </trkpt>
      <trkpt lat="43.286980725824832916259765625" lon="-2.16583508066833019256591796875">
        <ele>11</ele>
        <time>2018-09-02T13:04:11.000Z</time>
      </trkpt>
      <trkpt lat="43.286896906793117523193359375" lon="-2.1662882901728153228759765625">
        <ele>10.6000003814697265625</ele>
        <time>2018-09-02T13:04:18.000Z</time>
      </trkpt>
      <trkpt lat="43.28684167005121707916259765625" lon="-2.16666287742555141448974609375">
        <ele>10.3999996185302734375</ele>
        <time>2018-09-02T13:04:24.000Z</time>
      </trkpt>
      <trkpt lat="43.2868129201233386993408203125" lon="-2.1667875163257122039794921875">
        <ele>10.19999980926513671875</ele>
        <time>2018-09-02T13:04:26.000Z</time>
      </trkpt>
      <trkpt lat="43.2868048734962940216064453125" lon="-2.16684141196310520172119140625">
        <ele>10.19999980926513671875</ele>
        <time>2018-09-02T13:04:27.000Z</time>
      </trkpt>
      <trkpt lat="43.28678819350898265838623046875" lon="-2.166945599019527435302734375">
        <ele>9.3999996185302734375</ele>
        <time>2018-09-02T13:04:29.000Z</time>
      </trkpt>
      <trkpt lat="43.2867726869881153106689453125" lon="-2.1670309267938137054443359375">
        <ele>9.6000003814697265625</ele>
        <time>2018-09-02T13:04:31.000Z</time>
      </trkpt>
      <trkpt lat="43.286752067506313323974609375" lon="-2.1670611016452312469482421875">
        <ele>9.6000003814697265625</ele>
        <time>2018-09-02T13:04:32.000Z</time>
      </trkpt>
      <trkpt lat="43.28669163398444652557373046875" lon="-2.16709840111434459686279296875">
        <ele>9.80000019073486328125</ele>
        <time>2018-09-02T13:04:34.000Z</time>
      </trkpt>
      <trkpt lat="43.28661217354238033294677734375" lon="-2.16712689958512783050537109375">
        <ele>9.80000019073486328125</ele>
        <time>2018-09-02T13:04:36.000Z</time>
      </trkpt>
      <trkpt lat="43.28649164177477359771728515625" lon="-2.16715313494205474853515625">
        <ele>10.19999980926513671875</ele>
        <time>2018-09-02T13:04:39.000Z</time>
      </trkpt>
      <trkpt lat="43.28622409142553806304931640625" lon="-2.167217172682285308837890625">
        <ele>10</ele>
        <time>2018-09-02T13:04:46.000Z</time>
      </trkpt>
      <trkpt lat="43.28602778725326061248779296875" lon="-2.16727517545223236083984375">
        <ele>9.80000019073486328125</ele>
        <time>2018-09-02T13:04:52.000Z</time>
      </trkpt>
      <trkpt lat="43.28592636622488498687744140625" lon="-2.16736896894872188568115234375">
        <ele>10.19999980926513671875</ele>
        <time>2018-09-02T13:04:57.000Z</time>
      </trkpt>
      <trkpt lat="43.2859267853200435638427734375" lon="-2.16744574718177318572998046875">
        <ele>10</ele>
        <time>2018-09-02T13:04:59.000Z</time>
      </trkpt>
      <trkpt lat="43.2859344966709613800048828125" lon="-2.1675105392932891845703125">
        <ele>10.19999980926513671875</ele>
        <time>2018-09-02T13:05:01.000Z</time>
      </trkpt>
      <trkpt lat="43.28592871315777301788330078125" lon="-2.1676756627857685089111328125">
        <ele>10</ele>
        <time>2018-09-02T13:05:06.000Z</time>
      </trkpt>
      <trkpt lat="43.2859344966709613800048828125" lon="-2.16782092116773128509521484375">
        <ele>10.19999980926513671875</ele>
        <time>2018-09-02T13:05:09.000Z</time>
      </trkpt>
      <trkpt lat="43.28594195656478404998779296875" lon="-2.1680743061006069183349609375">
        <ele>9.80000019073486328125</ele>
        <time>2018-09-02T13:05:14.000Z</time>
      </trkpt>
      <trkpt lat="43.28595369122922420501708984375" lon="-2.16837354004383087158203125">
        <ele>10.19999980926513671875</ele>
        <time>2018-09-02T13:05:20.000Z</time>
      </trkpt>
      <trkpt lat="43.285965509712696075439453125" lon="-2.16852215118706226348876953125">
        <ele>10.19999980926513671875</ele>
        <time>2018-09-02T13:05:23.000Z</time>
      </trkpt>
      <trkpt lat="43.28597732819616794586181640625" lon="-2.16863212175667285919189453125">
        <ele>10.6000003814697265625</ele>
        <time>2018-09-02T13:05:25.000Z</time>
      </trkpt>
      <trkpt lat="43.285990655422210693359375" lon="-2.16879841871559619903564453125">
        <ele>10.3999996185302734375</ele>
        <time>2018-09-02T13:05:28.000Z</time>
      </trkpt>
      <trkpt lat="43.286031894385814666748046875" lon="-2.169177532196044921875">
        <ele>10.3999996185302734375</ele>
        <time>2018-09-02T13:05:35.000Z</time>
      </trkpt>
      <trkpt lat="43.28607237897813320159912109375" lon="-2.16968874447047710418701171875">
        <ele>10.6000003814697265625</ele>
        <time>2018-09-02T13:05:44.000Z</time>
      </trkpt>
      <trkpt lat="43.28612183220684528350830078125" lon="-2.17000708915293216705322265625">
        <ele>10.80000019073486328125</ele>
        <time>2018-09-02T13:05:50.000Z</time>
      </trkpt>
      <trkpt lat="43.2861649990081787109375" lon="-2.1704879589378833770751953125">
        <ele>11</ele>
        <time>2018-09-02T13:05:58.000Z</time>
      </trkpt>
      <trkpt lat="43.28620833344757556915283203125" lon="-2.1709033660590648651123046875">
        <ele>10.80000019073486328125</ele>
        <time>2018-09-02T13:06:05.000Z</time>
      </trkpt>
      <trkpt lat="43.28621269203722476959228515625" lon="-2.170962207019329071044921875">
        <ele>11</ele>
        <time>2018-09-02T13:06:06.000Z</time>
      </trkpt>
      <trkpt lat="43.28622207976877689361572265625" lon="-2.171074189245700836181640625">
        <ele>10.80000019073486328125</ele>
        <time>2018-09-02T13:06:08.000Z</time>
      </trkpt>
      <trkpt lat="43.28624839894473552703857421875" lon="-2.17131315730512142181396484375">
        <ele>10.3999996185302734375</ele>
        <time>2018-09-02T13:06:12.000Z</time>
      </trkpt>
      <trkpt lat="43.2863009534776210784912109375" lon="-2.17175069265067577362060546875">
        <ele>10.6000003814697265625</ele>
        <time>2018-09-02T13:06:19.000Z</time>
      </trkpt>
      <trkpt lat="43.28635635785758495330810546875" lon="-2.1720791794359683990478515625">
        <ele>10.3999996185302734375</ele>
        <time>2018-09-02T13:06:24.000Z</time>
      </trkpt>
      <trkpt lat="43.28637161292135715484619140625" lon="-2.1722109429538249969482421875">
        <ele>10.19999980926513671875</ele>
        <time>2018-09-02T13:06:26.000Z</time>
      </trkpt>
      <trkpt lat="43.28639307059347629547119140625" lon="-2.17234077863395214080810546875">
        <ele>10.3999996185302734375</ele>
        <time>2018-09-02T13:06:28.000Z</time>
      </trkpt>
      <trkpt lat="43.28640648163855075836181640625" lon="-2.17240749858319759368896484375">
        <ele>10.3999996185302734375</ele>
        <time>2018-09-02T13:06:29.000Z</time>
      </trkpt>
      <trkpt lat="43.2864555157721042633056640625" lon="-2.1726793237030506134033203125">
        <ele>10.19999980926513671875</ele>
        <time>2018-09-02T13:06:33.000Z</time>
      </trkpt>
      <trkpt lat="43.286503963172435760498046875" lon="-2.17295316047966480255126953125">
        <ele>9.80000019073486328125</ele>
        <time>2018-09-02T13:06:37.000Z</time>
      </trkpt>
      <trkpt lat="43.286518044769763946533203125" lon="-2.17302122153341770172119140625">
        <ele>9.80000019073486328125</ele>
        <time>2018-09-02T13:06:38.000Z</time>
      </trkpt>
      <trkpt lat="43.2865959964692592620849609375" lon="-2.17343076132237911224365234375">
        <ele>10</ele>
        <time>2018-09-02T13:06:44.000Z</time>
      </trkpt>
      <trkpt lat="43.28662256710231304168701171875" lon="-2.173571325838565826416015625">
        <ele>9.80000019073486328125</ele>
        <time>2018-09-02T13:06:46.000Z</time>
      </trkpt>
      <trkpt lat="43.286658190190792083740234375" lon="-2.17378816567361354827880859375">
        <ele>9</ele>
        <time>2018-09-02T13:06:49.000Z</time>
      </trkpt>
      <trkpt lat="43.286711163818836212158203125" lon="-2.17414791695773601531982421875">
        <ele>9.80000019073486328125</ele>
        <time>2018-09-02T13:06:54.000Z</time>
      </trkpt>
      <trkpt lat="43.28674142248928546905517578125" lon="-2.174435667693614959716796875">
        <ele>10</ele>
        <time>2018-09-02T13:06:58.000Z</time>
      </trkpt>
      <trkpt lat="43.2867609523236751556396484375" lon="-2.17471537180244922637939453125">
        <ele>9.19999980926513671875</ele>
        <time>2018-09-02T13:07:02.000Z</time>
      </trkpt>
      <trkpt lat="43.2867706753313541412353515625" lon="-2.17492592521011829376220703125">
        <ele>9.3999996185302734375</ele>
        <time>2018-09-02T13:07:05.000Z</time>
      </trkpt>
      <trkpt lat="43.28676874749362468719482421875" lon="-2.17522733844816684722900390625">
        <ele>9.6000003814697265625</ele>
        <time>2018-09-02T13:07:09.000Z</time>
      </trkpt>
      <trkpt lat="43.2867505587637424468994140625" lon="-2.1756161749362945556640625">
        <ele>9.3999996185302734375</ele>
        <time>2018-09-02T13:07:15.000Z</time>
      </trkpt>
      <trkpt lat="43.286701776087284088134765625" lon="-2.17607793398201465606689453125">
        <ele>8.80000019073486328125</ele>
        <time>2018-09-02T13:07:22.000Z</time>
      </trkpt>
      <trkpt lat="43.28664620406925678253173828125" lon="-2.1765470691025257110595703125">
        <ele>9.6000003814697265625</ele>
        <time>2018-09-02T13:07:29.000Z</time>
      </trkpt>
      <trkpt lat="43.2866392470896244049072265625" lon="-2.17661705799400806427001953125">
        <ele>9.19999980926513671875</ele>
        <time>2018-09-02T13:07:30.000Z</time>
      </trkpt>
      <trkpt lat="43.28660446219146251678466796875" lon="-2.1770757995545864105224609375">
        <ele>9</ele>
        <time>2018-09-02T13:07:37.000Z</time>
      </trkpt>
      <trkpt lat="43.28660680912435054779052734375" lon="-2.177270762622356414794921875">
        <ele>9</ele>
        <time>2018-09-02T13:07:40.000Z</time>
      </trkpt>
      <trkpt lat="43.28665651381015777587890625" lon="-2.17744401656091213226318359375">
        <ele>9</ele>
        <time>2018-09-02T13:07:43.000Z</time>
      </trkpt>
      <trkpt lat="43.286746032536029815673828125" lon="-2.1776216290891170501708984375">
        <ele>9.6000003814697265625</ele>
        <time>2018-09-02T13:07:47.000Z</time>
      </trkpt>
      <trkpt lat="43.28680361621081829071044921875" lon="-2.17770569957792758941650390625">
        <ele>10</ele>
        <time>2018-09-02T13:07:49.000Z</time>
      </trkpt>
      <trkpt lat="43.28684384934604167938232421875" lon="-2.177736796438694000244140625">
        <ele>10.19999980926513671875</ele>
        <time>2018-09-02T13:07:50.000Z</time>
      </trkpt>
      <trkpt lat="43.28693202696740627288818359375" lon="-2.17778968624770641326904296875">
        <ele>9.80000019073486328125</ele>
        <time>2018-09-02T13:07:52.000Z</time>
      </trkpt>
      <trkpt lat="43.28702799975872039794921875" lon="-2.177815921604633331298828125">
        <ele>9.80000019073486328125</ele>
        <time>2018-09-02T13:07:54.000Z</time>
      </trkpt>
      <trkpt lat="43.28712053596973419189453125" lon="-2.17784567736089229583740234375">
        <ele>9.6000003814697265625</ele>
        <time>2018-09-02T13:07:56.000Z</time>
      </trkpt>
      <trkpt lat="43.2873030938208103179931640625" lon="-2.17792798765003681182861328125">
        <ele>9.19999980926513671875</ele>
        <time>2018-09-02T13:08:00.000Z</time>
      </trkpt>
      <trkpt lat="43.287347517907619476318359375" lon="-2.17796201817691326141357421875">
        <ele>9.19999980926513671875</ele>
        <time>2018-09-02T13:08:01.000Z</time>
      </trkpt>
      <trkpt lat="43.2873882539570331573486328125" lon="-2.1780065260827541351318359375">
        <ele>9</ele>
        <time>2018-09-02T13:08:02.000Z</time>
      </trkpt>
      <trkpt lat="43.287546001374721527099609375" lon="-2.1782140620052814483642578125">
        <ele>8.3999996185302734375</ele>
        <time>2018-09-02T13:08:06.000Z</time>
      </trkpt>
      <trkpt lat="43.2876256294548511505126953125" lon="-2.1783193387091159820556640625">
        <ele>8.19999980926513671875</ele>
        <time>2018-09-02T13:08:08.000Z</time>
      </trkpt>
      <trkpt lat="43.287751860916614532470703125" lon="-2.17847130261361598968505859375">
        <ele>8</ele>
        <time>2018-09-02T13:08:11.000Z</time>
      </trkpt>
      <trkpt lat="43.28784146346151828765869140625" lon="-2.1785630844533443450927734375">
        <ele>7.599999904632568359375</ele>
        <time>2018-09-02T13:08:13.000Z</time>
      </trkpt>
      <trkpt lat="43.2878894917666912078857421875" lon="-2.17859812080860137939453125">
        <ele>7.599999904632568359375</ele>
        <time>2018-09-02T13:08:14.000Z</time>
      </trkpt>
      <trkpt lat="43.288085795938968658447265625" lon="-2.17870247550308704376220703125">
        <ele>8</ele>
        <time>2018-09-02T13:08:18.000Z</time>
      </trkpt>
      <trkpt lat="43.28829308040440082550048828125" lon="-2.1787431277334690093994140625">
        <ele>7.599999904632568359375</ele>
        <time>2018-09-02T13:08:22.000Z</time>
      </trkpt>
      <trkpt lat="43.28845786862075328826904296875" lon="-2.17875561676919460296630859375">
        <ele>7.80000019073486328125</ele>
        <time>2018-09-02T13:08:25.000Z</time>
      </trkpt>
      <trkpt lat="43.28880437649786472320556640625" lon="-2.178812362253665924072265625">
        <ele>7.19999980926513671875</ele>
        <time>2018-09-02T13:08:32.000Z</time>
      </trkpt>
      <trkpt lat="43.28909606672823429107666015625" lon="-2.17883884906768798828125">
        <ele>7.80000019073486328125</ele>
        <time>2018-09-02T13:08:38.000Z</time>
      </trkpt>
      <trkpt lat="43.289142586290836334228515625" lon="-2.17884664423763751983642578125">
        <ele>8</ele>
        <time>2018-09-02T13:08:39.000Z</time>
      </trkpt>
      <trkpt lat="43.28953796066343784332275390625" lon="-2.17890028841793537139892578125">
        <ele>8.3999996185302734375</ele>
        <time>2018-09-02T13:08:48.000Z</time>
      </trkpt>
      <trkpt lat="43.2897819578647613525390625" lon="-2.178930379450321197509765625">
        <ele>9</ele>
        <time>2018-09-02T13:08:54.000Z</time>
      </trkpt>
      <trkpt lat="43.289899639785289764404296875" lon="-2.17894186265766620635986328125">
        <ele>9.3999996185302734375</ele>
        <time>2018-09-02T13:08:57.000Z</time>
      </trkpt>
      <trkpt lat="43.29008974134922027587890625" lon="-2.17896767891943454742431640625">
        <ele>9.3999996185302734375</ele>
        <time>2018-09-02T13:09:02.000Z</time>
      </trkpt>
      <trkpt lat="43.29020465724170207977294921875" lon="-2.17898025177419185638427734375">
        <ele>9.6000003814697265625</ele>
        <time>2018-09-02T13:09:05.000Z</time>
      </trkpt>
      <trkpt lat="43.29050020314753055572509765625" lon="-2.178959213197231292724609375">
        <ele>10</ele>
        <time>2018-09-02T13:09:13.000Z</time>
      </trkpt>
      <trkpt lat="43.290539346635341644287109375" lon="-2.17895342968404293060302734375">
        <ele>10.19999980926513671875</ele>
        <time>2018-09-02T13:09:14.000Z</time>
      </trkpt>
      <trkpt lat="43.29072752036154270172119140625" lon="-2.17891906388103961944580078125">
        <ele>10.3999996185302734375</ele>
        <time>2018-09-02T13:09:19.000Z</time>
      </trkpt>
      <trkpt lat="43.29076272435486316680908203125" lon="-2.178912945091724395751953125">
        <ele>10.3999996185302734375</ele>
        <time>2018-09-02T13:09:20.000Z</time>
      </trkpt>
      <trkpt lat="43.2909297756850719451904296875" lon="-2.17889307998120784759521484375">
        <ele>11.3999996185302734375</ele>
        <time>2018-09-02T13:09:25.000Z</time>
      </trkpt>
      <trkpt lat="43.29103128053247928619384765625" lon="-2.17889643274247646331787109375">
        <ele>11.80000019073486328125</ele>
        <time>2018-09-02T13:09:28.000Z</time>
      </trkpt>
      <trkpt lat="43.2911617867648601531982421875" lon="-2.1789737977087497711181640625">
        <ele>12.19999980926513671875</ele>
        <time>2018-09-02T13:09:32.000Z</time>
      </trkpt>
      <trkpt lat="43.29119338653981685638427734375" lon="-2.179002799093723297119140625">
        <ele>12.3999996185302734375</ele>
        <time>2018-09-02T13:09:33.000Z</time>
      </trkpt>
      <trkpt lat="43.29122121445834636688232421875" lon="-2.1790385060012340545654296875">
        <ele>12.6000003814697265625</ele>
        <time>2018-09-02T13:09:34.000Z</time>
      </trkpt>
      <trkpt lat="43.29129782505333423614501953125" lon="-2.1791672520339488983154296875">
        <ele>13.3999996185302734375</ele>
        <time>2018-09-02T13:09:37.000Z</time>
      </trkpt>
      <trkpt lat="43.29135498963296413421630859375" lon="-2.17931703664362430572509765625">
        <ele>13.3999996185302734375</ele>
        <time>2018-09-02T13:09:40.000Z</time>
      </trkpt>
      <trkpt lat="43.29151676036417484283447265625" lon="-2.1797053702175617218017578125">
        <ele>13.3999996185302734375</ele>
        <time>2018-09-02T13:09:47.000Z</time>
      </trkpt>
      <trkpt lat="43.2916657067835330963134765625" lon="-2.18011013232171535491943359375">
        <ele>13.19999980926513671875</ele>
        <time>2018-09-02T13:09:54.000Z</time>
      </trkpt>
      <trkpt lat="43.2917646132409572601318359375" lon="-2.180660068988800048828125">
        <ele>13.19999980926513671875</ele>
        <time>2018-09-02T13:10:02.000Z</time>
      </trkpt>
      <trkpt lat="43.2917988114058971405029296875" lon="-2.180799543857574462890625">
        <ele>13</ele>
        <time>2018-09-02T13:10:04.000Z</time>
      </trkpt>
      <trkpt lat="43.2918900065124034881591796875" lon="-2.1809914894402027130126953125">
        <ele>13</ele>
        <time>2018-09-02T13:10:07.000Z</time>
      </trkpt>
      <trkpt lat="43.291971981525421142578125" lon="-2.181105315685272216796875">
        <ele>12.80000019073486328125</ele>
        <time>2018-09-02T13:10:09.000Z</time>
      </trkpt>
      <trkpt lat="43.29207465983927249908447265625" lon="-2.18118888325989246368408203125">
        <ele>12.80000019073486328125</ele>
        <time>2018-09-02T13:10:11.000Z</time>
      </trkpt>
      <trkpt lat="43.29218429513275623321533203125" lon="-2.18126247636973857879638671875">
        <ele>12.6000003814697265625</ele>
        <time>2018-09-02T13:10:13.000Z</time>
      </trkpt>
      <trkpt lat="43.2923919148743152618408203125" lon="-2.1814149431884288787841796875">
        <ele>12.3999996185302734375</ele>
        <time>2018-09-02T13:10:17.000Z</time>
      </trkpt>
      <trkpt lat="43.29244061373174190521240234375" lon="-2.1814571879804134368896484375">
        <ele>12.3999996185302734375</ele>
        <time>2018-09-02T13:10:18.000Z</time>
      </trkpt>
      <trkpt lat="43.2927540130913257598876953125" lon="-2.18175013549625873565673828125">
        <ele>12.6000003814697265625</ele>
        <time>2018-09-02T13:10:25.000Z</time>
      </trkpt>
      <trkpt lat="43.2927940785884857177734375" lon="-2.18180327676236629486083984375">
        <ele>12.3999996185302734375</ele>
        <time>2018-09-02T13:10:26.000Z</time>
      </trkpt>
      <trkpt lat="43.29302835278213024139404296875" lon="-2.1821451745927333831787109375">
        <ele>12</ele>
        <time>2018-09-02T13:10:32.000Z</time>
      </trkpt>
      <trkpt lat="43.2931067235767841339111328125" lon="-2.18226394616067409515380859375">
        <ele>12.19999980926513671875</ele>
        <time>2018-09-02T13:10:34.000Z</time>
      </trkpt>
      <trkpt lat="43.2934829033911228179931640625" lon="-2.18283542431890964508056640625">
        <ele>12</ele>
        <time>2018-09-02T13:10:43.000Z</time>
      </trkpt>
      <trkpt lat="43.2937863282859325408935546875" lon="-2.18327413313090801239013671875">
        <ele>12.6000003814697265625</ele>
        <time>2018-09-02T13:10:50.000Z</time>
      </trkpt>
      <trkpt lat="43.29391750507056713104248046875" lon="-2.183465994894504547119140625">
        <ele>12.6000003814697265625</ele>
        <time>2018-09-02T13:10:53.000Z</time>
      </trkpt>
      <trkpt lat="43.29407474957406520843505859375" lon="-2.1837209723889827728271484375">
        <ele>13</ele>
        <time>2018-09-02T13:10:57.000Z</time>
      </trkpt>
      <trkpt lat="43.29413778148591518402099609375" lon="-2.18385566957294940948486328125">
        <ele>13.19999980926513671875</ele>
        <time>2018-09-02T13:10:59.000Z</time>
      </trkpt>
      <trkpt lat="43.29415152780711650848388671875" lon="-2.1839342080056667327880859375">
        <ele>13.3999996185302734375</ele>
        <time>2018-09-02T13:11:00.000Z</time>
      </trkpt>
      <trkpt lat="43.29412319697439670562744140625" lon="-2.18418088741600513458251953125">
        <ele>13</ele>
        <time>2018-09-02T13:11:03.000Z</time>
      </trkpt>
      <trkpt lat="43.29399445094168186187744140625" lon="-2.18438574112951755523681640625">
        <ele>12.6000003814697265625</ele>
        <time>2018-09-02T13:11:06.000Z</time>
      </trkpt>
      <trkpt lat="43.29388749785721302032470703125" lon="-2.1844971366226673126220703125">
        <ele>12.19999980926513671875</ele>
        <time>2018-09-02T13:11:08.000Z</time>
      </trkpt>
      <trkpt lat="43.2937229610979557037353515625" lon="-2.1846758387982845306396484375">
        <ele>11.80000019073486328125</ele>
        <time>2018-09-02T13:11:11.000Z</time>
      </trkpt>
      <trkpt lat="43.29343990422785282135009765625" lon="-2.18498756177723407745361328125">
        <ele>11.19999980926513671875</ele>
        <time>2018-09-02T13:11:16.000Z</time>
      </trkpt>
      <trkpt lat="43.29321828670799732208251953125" lon="-2.18523482792079448699951171875">
        <ele>10.80000019073486328125</ele>
        <time>2018-09-02T13:11:20.000Z</time>
      </trkpt>
      <trkpt lat="43.2928029634058475494384765625" lon="-2.185802198946475982666015625">
        <ele>10</ele>
        <time>2018-09-02T13:11:28.000Z</time>
      </trkpt>
      <trkpt lat="43.2927687652409076690673828125" lon="-2.18589414842426776885986328125">
        <ele>10</ele>
        <time>2018-09-02T13:11:29.000Z</time>
      </trkpt>
      <trkpt lat="43.29269106499850749969482421875" lon="-2.186190783977508544921875">
        <ele>10</ele>
        <time>2018-09-02T13:11:32.000Z</time>
      </trkpt>
      <trkpt lat="43.29248403199017047882080078125" lon="-2.18696434982120990753173828125">
        <ele>9.3999996185302734375</ele>
        <time>2018-09-02T13:11:40.000Z</time>
      </trkpt>
      <trkpt lat="43.29250901006162166595458984375" lon="-2.18735218048095703125">
        <ele>9.6000003814697265625</ele>
        <time>2018-09-02T13:11:44.000Z</time>
      </trkpt>
      <trkpt lat="43.29253683798015117645263671875" lon="-2.188074029982089996337890625">
        <ele>10.3999996185302734375</ele>
        <time>2018-09-02T13:11:52.000Z</time>
      </trkpt>
      <trkpt lat="43.2924373447895050048828125" lon="-2.1884088031947612762451171875">
        <ele>10.3999996185302734375</ele>
        <time>2018-09-02T13:11:56.000Z</time>
      </trkpt>
      <trkpt lat="43.2923997938632965087890625" lon="-2.18848683871328830718994140625">
        <ele>10.3999996185302734375</ele>
        <time>2018-09-02T13:11:57.000Z</time>
      </trkpt>
      <trkpt lat="43.29218848608434200286865234375" lon="-2.18885128386318683624267578125">
        <ele>10.19999980926513671875</ele>
        <time>2018-09-02T13:12:02.000Z</time>
      </trkpt>
      <trkpt lat="43.29207834787666797637939453125" lon="-2.18908396549522876739501953125">
        <ele>10</ele>
        <time>2018-09-02T13:12:05.000Z</time>
      </trkpt>
      <trkpt lat="43.29203903675079345703125" lon="-2.189259231090545654296875">
        <ele>10.19999980926513671875</ele>
        <time>2018-09-02T13:12:07.000Z</time>
      </trkpt>
      <trkpt lat="43.2920402102172374725341796875" lon="-2.18970690853893756866455078125">
        <ele>10.19999980926513671875</ele>
        <time>2018-09-02T13:12:12.000Z</time>
      </trkpt>
      <trkpt lat="43.29214699566364288330078125" lon="-2.190030030906200408935546875">
        <ele>10.3999996185302734375</ele>
        <time>2018-09-02T13:12:16.000Z</time>
      </trkpt>
      <trkpt lat="43.29223458655178546905517578125" lon="-2.19016053713858127593994140625">
        <ele>10.3999996185302734375</ele>
        <time>2018-09-02T13:12:18.000Z</time>
      </trkpt>
      <trkpt lat="43.292287476360797882080078125" lon="-2.1902154386043548583984375">
        <ele>10.3999996185302734375</ele>
        <time>2018-09-02T13:12:19.000Z</time>
      </trkpt>
      <trkpt lat="43.29234137199819087982177734375" lon="-2.19026732258498668670654296875">
        <ele>10.3999996185302734375</ele>
        <time>2018-09-02T13:12:20.000Z</time>
      </trkpt>
      <trkpt lat="43.29268804751336574554443359375" lon="-2.19053168781101703643798828125">
        <ele>10</ele>
        <time>2018-09-02T13:12:26.000Z</time>
      </trkpt>
      <trkpt lat="43.293161876499652862548828125" lon="-2.1909034252166748046875">
        <ele>9.80000019073486328125</ele>
        <time>2018-09-02T13:12:34.000Z</time>
      </trkpt>
      <trkpt lat="43.29327754676342010498046875" lon="-2.19099386595189571380615234375">
        <ele>10</ele>
        <time>2018-09-02T13:12:36.000Z</time>
      </trkpt>
      <trkpt lat="43.29365766607224941253662109375" lon="-2.19118212349712848663330078125">
        <ele>10</ele>
        <time>2018-09-02T13:12:42.000Z</time>
      </trkpt>
      <trkpt lat="43.29372623004019260406494140625" lon="-2.191188745200634002685546875">
        <ele>10</ele>
        <time>2018-09-02T13:12:43.000Z</time>
      </trkpt>
      <trkpt lat="43.29399931244552135467529296875" lon="-2.1911998093128204345703125">
        <ele>10.19999980926513671875</ele>
        <time>2018-09-02T13:12:47.000Z</time>
      </trkpt>
      <trkpt lat="43.294348418712615966796875" lon="-2.19123777933418750762939453125">
        <ele>10</ele>
        <time>2018-09-02T13:12:52.000Z</time>
      </trkpt>
      <trkpt lat="43.2946258597075939178466796875" lon="-2.19126560725271701812744140625">
        <ele>10</ele>
        <time>2018-09-02T13:12:56.000Z</time>
      </trkpt>
      <trkpt lat="43.294824175536632537841796875" lon="-2.1913258731365203857421875">
        <ele>10</ele>
        <time>2018-09-02T13:12:59.000Z</time>
      </trkpt>
      <trkpt lat="43.29494764097034931182861328125" lon="-2.19141866080462932586669921875">
        <ele>10.19999980926513671875</ele>
        <time>2018-09-02T13:13:01.000Z</time>
      </trkpt>
      <trkpt lat="43.29516221769154071807861328125" lon="-2.19166852533817291259765625">
        <ele>10.19999980926513671875</ele>
        <time>2018-09-02T13:13:05.000Z</time>
      </trkpt>
      <trkpt lat="43.2952132634818553924560546875" lon="-2.191742621362209320068359375">
        <ele>10.19999980926513671875</ele>
        <time>2018-09-02T13:13:06.000Z</time>
      </trkpt>
      <trkpt lat="43.295550383627414703369140625" lon="-2.1921136043965816497802734375">
        <ele>10.3999996185302734375</ele>
        <time>2018-09-02T13:13:12.000Z</time>
      </trkpt>
      <trkpt lat="43.29562456347048282623291015625" lon="-2.1921394206583499908447265625">
        <ele>10.3999996185302734375</ele>
        <time>2018-09-02T13:13:13.000Z</time>
      </trkpt>
      <trkpt lat="43.29584685154259204864501953125" lon="-2.19220756553113460540771484375">
        <ele>8.80000019073486328125</ele>
        <time>2018-09-02T13:13:16.000Z</time>
      </trkpt>
      <trkpt lat="43.29606059007346630096435546875" lon="-2.1922829188406467437744140625">
        <ele>10.3999996185302734375</ele>
        <time>2018-09-02T13:13:19.000Z</time>
      </trkpt>
      <trkpt lat="43.2961305789649486541748046875" lon="-2.19230865128338336944580078125">
        <ele>10</ele>
        <time>2018-09-02T13:13:20.000Z</time>
      </trkpt>
      <trkpt lat="43.2965433038771152496337890625" lon="-2.19240353442728519439697265625">
        <ele>10.3999996185302734375</ele>
        <time>2018-09-02T13:13:26.000Z</time>
      </trkpt>
      <trkpt lat="43.29661161638796329498291015625" lon="-2.192397415637969970703125">
        <ele>10.3999996185302734375</ele>
        <time>2018-09-02T13:13:27.000Z</time>
      </trkpt>
      <trkpt lat="43.2970210723578929901123046875" lon="-2.19233027659356594085693359375">
        <ele>10.6000003814697265625</ele>
        <time>2018-09-02T13:13:33.000Z</time>
      </trkpt>
      <trkpt lat="43.29756313003599643707275390625" lon="-2.1922396682202816009521484375">
        <ele>11.19999980926513671875</ele>
        <time>2018-09-02T13:13:41.000Z</time>
      </trkpt>
      <trkpt lat="43.29763068817555904388427734375" lon="-2.19222843647003173828125">
        <ele>11.19999980926513671875</ele>
        <time>2018-09-02T13:13:42.000Z</time>
      </trkpt>
      <trkpt lat="43.2977642118930816650390625" lon="-2.1922094933688640594482421875">
        <ele>11.6000003814697265625</ele>
        <time>2018-09-02T13:13:44.000Z</time>
      </trkpt>
      <trkpt lat="43.298170231282711029052734375" lon="-2.1921786479651927947998046875">
        <ele>12.3999996185302734375</ele>
        <time>2018-09-02T13:13:50.000Z</time>
      </trkpt>
      <trkpt lat="43.29829704947769641876220703125" lon="-2.19222131185233592987060546875">
        <ele>12.80000019073486328125</ele>
        <time>2018-09-02T13:13:52.000Z</time>
      </trkpt>
      <trkpt lat="43.29840785823762416839599609375" lon="-2.19230429269373416900634765625">
        <ele>13</ele>
        <time>2018-09-02T13:13:54.000Z</time>
      </trkpt>
      <trkpt lat="43.2985864765942096710205078125" lon="-2.19254552386701107025146484375">
        <ele>13.3999996185302734375</ele>
        <time>2018-09-02T13:13:58.000Z</time>
      </trkpt>
      <trkpt lat="43.29862142913043498992919921875" lon="-2.1926198713481426239013671875">
        <ele>13.6000003814697265625</ele>
        <time>2018-09-02T13:13:59.000Z</time>
      </trkpt>
      <trkpt lat="43.2988218404352664947509765625" lon="-2.1930936165153980255126953125">
        <ele>13.19999980926513671875</ele>
        <time>2018-09-02T13:14:05.000Z</time>
      </trkpt>
      <trkpt lat="43.29894664697349071502685546875" lon="-2.193402238190174102783203125">
        <ele>14</ele>
        <time>2018-09-02T13:14:09.000Z</time>
      </trkpt>
      <trkpt lat="43.29907405190169811248779296875" lon="-2.19370306469500064849853515625">
        <ele>14.6000003814697265625</ele>
        <time>2018-09-02T13:14:13.000Z</time>
      </trkpt>
      <trkpt lat="43.29913540743291378021240234375" lon="-2.193848825991153717041015625">
        <ele>15</ele>
        <time>2018-09-02T13:14:15.000Z</time>
      </trkpt>
      <trkpt lat="43.29919810406863689422607421875" lon="-2.19406264834105968475341796875">
        <ele>15.80000019073486328125</ele>
        <time>2018-09-02T13:14:18.000Z</time>
      </trkpt>
      <trkpt lat="43.29920480959117412567138671875" lon="-2.19413272105157375335693359375">
        <ele>16</ele>
        <time>2018-09-02T13:14:19.000Z</time>
      </trkpt>
      <trkpt lat="43.29920548014342784881591796875" lon="-2.1942043863236904144287109375">
        <ele>16.200000762939453125</ele>
        <time>2018-09-02T13:14:20.000Z</time>
      </trkpt>
      <trkpt lat="43.299157954752445220947265625" lon="-2.19447948038578033447265625">
        <ele>16.6000003814697265625</ele>
        <time>2018-09-02T13:14:24.000Z</time>
      </trkpt>
      <trkpt lat="43.29911537468433380126953125" lon="-2.19461518339812755584716796875">
        <ele>16.799999237060546875</ele>
        <time>2018-09-02T13:14:26.000Z</time>
      </trkpt>
      <trkpt lat="43.29901068471372127532958984375" lon="-2.194959260523319244384765625">
        <ele>16.799999237060546875</ele>
        <time>2018-09-02T13:14:31.000Z</time>
      </trkpt>
      <trkpt lat="43.29893323592841625213623046875" lon="-2.19523075036704540252685546875">
        <ele>17.200000762939453125</ele>
        <time>2018-09-02T13:14:35.000Z</time>
      </trkpt>
      <trkpt lat="43.2987916655838489532470703125" lon="-2.19576803036034107208251953125">
        <ele>18</ele>
        <time>2018-09-02T13:14:43.000Z</time>
      </trkpt>
      <trkpt lat="43.29867239110171794891357421875" lon="-2.19631335698068141937255859375">
        <ele>18.200000762939453125</ele>
        <time>2018-09-02T13:14:51.000Z</time>
      </trkpt>
      <trkpt lat="43.29864196479320526123046875" lon="-2.1965275146067142486572265625">
        <ele>18.3999996185302734375</ele>
        <time>2018-09-02T13:14:54.000Z</time>
      </trkpt>
      <trkpt lat="43.2986243627965450286865234375" lon="-2.1967316977679729461669921875">
        <ele>18.799999237060546875</ele>
        <time>2018-09-02T13:14:57.000Z</time>
      </trkpt>
      <trkpt lat="43.29861455596983432769775390625" lon="-2.19707292504608631134033203125">
        <ele>19.200000762939453125</ele>
        <time>2018-09-02T13:15:02.000Z</time>
      </trkpt>
      <trkpt lat="43.29861707054078578948974609375" lon="-2.1972751803696155548095703125">
        <ele>19.3999996185302734375</ele>
        <time>2018-09-02T13:15:05.000Z</time>
      </trkpt>
      <trkpt lat="43.2986206747591495513916015625" lon="-2.1973432414233684539794921875">
        <ele>19.6000003814697265625</ele>
        <time>2018-09-02T13:15:06.000Z</time>
      </trkpt>
      <trkpt lat="43.2986887358129024505615234375" lon="-2.19789099879562854766845703125">
        <ele>20.3999996185302734375</ele>
        <time>2018-09-02T13:15:14.000Z</time>
      </trkpt>
      <trkpt lat="43.29873693175613880157470703125" lon="-2.1980855427682399749755859375">
        <ele>20.6000003814697265625</ele>
        <time>2018-09-02T13:15:17.000Z</time>
      </trkpt>
      <trkpt lat="43.29883617348968982696533203125" lon="-2.1984818391501903533935546875">
        <ele>21.200000762939453125</ele>
        <time>2018-09-02T13:15:23.000Z</time>
      </trkpt>
      <trkpt lat="43.29892535693943500518798828125" lon="-2.1988191269338130950927734375">
        <ele>21.799999237060546875</ele>
        <time>2018-09-02T13:15:28.000Z</time>
      </trkpt>
      <trkpt lat="43.298999704420566558837890625" lon="-2.19909765757620334625244140625">
        <ele>21.799999237060546875</ele>
        <time>2018-09-02T13:15:32.000Z</time>
      </trkpt>
      <trkpt lat="43.29913104884326457977294921875" lon="-2.1995852328836917877197265625">
        <ele>22.799999237060546875</ele>
        <time>2018-09-02T13:15:39.000Z</time>
      </trkpt>
      <trkpt lat="43.29921134747564792633056640625" lon="-2.19977508299052715301513671875">
        <ele>23.3999996185302734375</ele>
        <time>2018-09-02T13:15:42.000Z</time>
      </trkpt>
      <trkpt lat="43.2994226552546024322509765625" lon="-2.2001116164028644561767578125">
        <ele>23.799999237060546875</ele>
        <time>2018-09-02T13:15:48.000Z</time>
      </trkpt>
      <trkpt lat="43.29946313984692096710205078125" lon="-2.20016333274543285369873046875">
        <ele>24</ele>
        <time>2018-09-02T13:15:49.000Z</time>
      </trkpt>
      <trkpt lat="43.29970135353505611419677734375" lon="-2.2004623152315616607666015625">
        <ele>24.799999237060546875</ele>
        <time>2018-09-02T13:15:55.000Z</time>
      </trkpt>
      <trkpt lat="43.29985566437244415283203125" lon="-2.2006715275347232818603515625">
        <ele>25.200000762939453125</ele>
        <time>2018-09-02T13:15:59.000Z</time>
      </trkpt>
      <trkpt lat="43.3001299202442169189453125" lon="-2.201028764247894287109375">
        <ele>26</ele>
        <time>2018-09-02T13:16:06.000Z</time>
      </trkpt>
      <trkpt lat="43.30020477063953876495361328125" lon="-2.20113630406558513641357421875">
        <ele>26</ele>
        <time>2018-09-02T13:16:08.000Z</time>
      </trkpt>
      <trkpt lat="43.30031658522784709930419921875" lon="-2.20130058936774730682373046875">
        <ele>26.3999996185302734375</ele>
        <time>2018-09-02T13:16:11.000Z</time>
      </trkpt>
      <trkpt lat="43.3004341833293437957763671875" lon="-2.20155246555805206298828125">
        <ele>26.799999237060546875</ele>
        <time>2018-09-02T13:16:15.000Z</time>
      </trkpt>
      <trkpt lat="43.3005753345787525177001953125" lon="-2.201867960393428802490234375">
        <ele>27</ele>
        <time>2018-09-02T13:16:20.000Z</time>
      </trkpt>
      <trkpt lat="43.30068522132933139801025390625" lon="-2.20211698673665523529052734375">
        <ele>27.6000003814697265625</ele>
        <time>2018-09-02T13:16:24.000Z</time>
      </trkpt>
      <trkpt lat="43.30086886882781982421875" lon="-2.20253909938037395477294921875">
        <ele>28.200000762939453125</ele>
        <time>2018-09-02T13:16:31.000Z</time>
      </trkpt>
      <trkpt lat="43.3008961938321590423583984375" lon="-2.2025960125029087066650390625">
        <ele>28.3999996185302734375</ele>
        <time>2018-09-02T13:16:32.000Z</time>
      </trkpt>
      <trkpt lat="43.30101027153432369232177734375" lon="-2.2028156183660030364990234375">
        <ele>28.799999237060546875</ele>
        <time>2018-09-02T13:16:36.000Z</time>
      </trkpt>
      <trkpt lat="43.30109107308089733123779296875" lon="-2.20290689729154109954833984375">
        <ele>29.200000762939453125</ele>
        <time>2018-09-02T13:16:38.000Z</time>
      </trkpt>
      <trkpt lat="43.30117656849324703216552734375" lon="-2.2029849328100681304931640625">
        <ele>29.6000003814697265625</ele>
        <time>2018-09-02T13:16:40.000Z</time>
      </trkpt>
      <trkpt lat="43.30131470225751399993896484375" lon="-2.20308191142976284027099609375">
        <ele>29.799999237060546875</ele>
        <time>2018-09-02T13:16:43.000Z</time>
      </trkpt>
      <trkpt lat="43.3014643192291259765625" lon="-2.203163802623748779296875">
        <ele>30.3999996185302734375</ele>
        <time>2018-09-02T13:16:46.000Z</time>
      </trkpt>
      <trkpt lat="43.30165852792561054229736328125" lon="-2.203273773193359375">
        <ele>30.799999237060546875</ele>
        <time>2018-09-02T13:16:50.000Z</time>
      </trkpt>
      <trkpt lat="43.302158676087856292724609375" lon="-2.20356537960469722747802734375">
        <ele>31.200000762939453125</ele>
        <time>2018-09-02T13:17:00.000Z</time>
      </trkpt>
      <trkpt lat="43.3024126477539539337158203125" lon="-2.20369161106646060943603515625">
        <ele>31.3999996185302734375</ele>
        <time>2018-09-02T13:17:05.000Z</time>
      </trkpt>
      <trkpt lat="43.3025531284511089324951171875" lon="-2.2037724964320659637451171875">
        <ele>31.799999237060546875</ele>
        <time>2018-09-02T13:17:08.000Z</time>
      </trkpt>
      <trkpt lat="43.30259746871888637542724609375" lon="-2.20380309037864208221435546875">
        <ele>32</ele>
        <time>2018-09-02T13:17:09.000Z</time>
      </trkpt>
      <trkpt lat="43.30268044956028461456298828125" lon="-2.20388473011553287506103515625">
        <ele>32</ele>
        <time>2018-09-02T13:17:11.000Z</time>
      </trkpt>
      <trkpt lat="43.30278103239834308624267578125" lon="-2.204031161963939666748046875">
        <ele>31.6000003814697265625</ele>
        <time>2018-09-02T13:17:14.000Z</time>
      </trkpt>
      <trkpt lat="43.30283668823540210723876953125" lon="-2.20413769595324993133544921875">
        <ele>31.200000762939453125</ele>
        <time>2018-09-02T13:17:16.000Z</time>
      </trkpt>
      <trkpt lat="43.30288463272154331207275390625" lon="-2.20426090992987155914306640625">
        <ele>31</ele>
        <time>2018-09-02T13:17:18.000Z</time>
      </trkpt>
      <trkpt lat="43.302921764552593231201171875" lon="-2.204353697597980499267578125">
        <ele>30.799999237060546875</ele>
        <time>2018-09-02T13:17:20.000Z</time>
      </trkpt>
      <trkpt lat="43.3029571361839771270751953125" lon="-2.204419076442718505859375">
        <ele>30.6000003814697265625</ele>
        <time>2018-09-02T13:17:22.000Z</time>
      </trkpt>
      <trkpt lat="43.3029775880277156829833984375" lon="-2.2044418752193450927734375">
        <ele>30.6000003814697265625</ele>
        <time>2018-09-02T13:17:24.000Z</time>
      </trkpt>
      <trkpt lat="43.30299795605242252349853515625" lon="-2.20448118634521961212158203125">
        <ele>30.6000003814697265625</ele>
        <time>2018-09-02T13:17:28.000Z</time>
      </trkpt>
      <trkpt lat="43.30303148366510868072509765625" lon="-2.20456651411950588226318359375">
        <ele>30.799999237060546875</ele>
        <time>2018-09-02T13:17:34.000Z</time>
      </trkpt>
      <trkpt lat="43.30307724885642528533935546875" lon="-2.20460138283669948577880859375">
        <ele>30.6000003814697265625</ele>
        <time>2018-09-02T13:17:39.000Z</time>
      </trkpt>
      <trkpt lat="43.30310172401368618011474609375" lon="-2.20460289157927036285400390625">
        <ele>30.200000762939453125</ele>
        <time>2018-09-02T13:17:41.000Z</time>
      </trkpt>
      <trkpt lat="43.3031479083001613616943359375" lon="-2.20460758544504642486572265625">
        <ele>30</ele>
        <time>2018-09-02T13:17:45.000Z</time>
      </trkpt>
      <trkpt lat="43.3032146282494068145751953125" lon="-2.20462820492684841156005859375">
        <ele>29.799999237060546875</ele>
        <time>2018-09-02T13:18:25.000Z</time>
      </trkpt>
      <trkpt lat="43.30320565961301326751708984375" lon="-2.20465536229312419891357421875">
        <ele>29.799999237060546875</ele>
        <time>2018-09-02T13:18:26.000Z</time>
      </trkpt>
      <trkpt lat="43.30320465378463268280029296875" lon="-2.20475368201732635498046875">
        <ele>30.200000762939453125</ele>
        <time>2018-09-02T13:18:31.000Z</time>
      </trkpt>
      <trkpt lat="43.303212784230709075927734375" lon="-2.20476265065371990203857421875">
        <ele>30.3999996185302734375</ele>
        <time>2018-09-02T13:18:32.000Z</time>
      </trkpt>
      <trkpt lat="43.3032225072383880615234375" lon="-2.20477388240396976470947265625">
        <ele>30.200000762939453125</ele>
        <time>2018-09-02T13:18:35.000Z</time>
      </trkpt>
      <trkpt lat="43.303169198334217071533203125" lon="-2.20472023822367191314697265625">
        <ele>30.200000762939453125</ele>
        <time>2018-09-02T13:24:50.000Z</time>
      </trkpt>
      <trkpt lat="43.30309954471886157989501953125" lon="-2.204690314829349517822265625">
        <ele>31</ele>
        <time>2018-09-02T13:24:55.000Z</time>
      </trkpt>
      <trkpt lat="43.303095437586307525634765625" lon="-2.20477245748043060302734375">
        <ele>31</ele>
        <time>2018-09-02T13:25:00.000Z</time>
      </trkpt>
      <trkpt lat="43.30306434072554111480712890625" lon="-2.204799950122833251953125">
        <ele>30.799999237060546875</ele>
        <time>2018-09-02T13:25:01.000Z</time>
      </trkpt>
      <trkpt lat="43.30300860106945037841796875" lon="-2.20483842305839061737060546875">
        <ele>30.799999237060546875</ele>
        <time>2018-09-02T13:25:03.000Z</time>
      </trkpt>
      <trkpt lat="43.30297331325709819793701171875" lon="-2.20493129454553127288818359375">
        <ele>31.200000762939453125</ele>
        <time>2018-09-02T13:25:06.000Z</time>
      </trkpt>
      <trkpt lat="43.302973397076129913330078125" lon="-2.20496356487274169921875">
        <ele>31.3999996185302734375</ele>
        <time>2018-09-02T13:25:07.000Z</time>
      </trkpt>
      <trkpt lat="43.30296744592487812042236328125" lon="-2.205111086368560791015625">
        <ele>32</ele>
        <time>2018-09-02T13:25:11.000Z</time>
      </trkpt>
      <trkpt lat="43.302967362105846405029296875" lon="-2.20517973415553569793701171875">
        <ele>32.200000762939453125</ele>
        <time>2018-09-02T13:25:13.000Z</time>
      </trkpt>
      <trkpt lat="43.3029598183929920196533203125" lon="-2.205206640064716339111328125">
        <ele>32.40000152587890625</ele>
        <time>2018-09-02T13:25:14.000Z</time>
      </trkpt>
      <trkpt lat="43.3029454015195369720458984375" lon="-2.2053278423845767974853515625">
        <ele>32.799999237060546875</ele>
        <time>2018-09-02T13:25:18.000Z</time>
      </trkpt>
      <trkpt lat="43.30294062383472919464111328125" lon="-2.20535994507372379302978515625">
        <ele>33</ele>
        <time>2018-09-02T13:25:19.000Z</time>
      </trkpt>
      <trkpt lat="43.30292285420000553131103515625" lon="-2.20544594340026378631591796875">
        <ele>33.40000152587890625</ele>
        <time>2018-09-02T13:25:22.000Z</time>
      </trkpt>
      <trkpt lat="43.30288521945476531982421875" lon="-2.2055518068373203277587890625">
        <ele>33.799999237060546875</ele>
        <time>2018-09-02T13:25:26.000Z</time>
      </trkpt>
      <trkpt lat="43.302848674356937408447265625" lon="-2.20573964528739452362060546875">
        <ele>34.59999847412109375</ele>
        <time>2018-09-02T13:25:33.000Z</time>
      </trkpt>
      <trkpt lat="43.30280584283173084259033203125" lon="-2.20597207546234130859375">
        <ele>36</ele>
        <time>2018-09-02T13:25:41.000Z</time>
      </trkpt>
      <trkpt lat="43.30278656445443630218505859375" lon="-2.2061128914356231689453125">
        <ele>35.799999237060546875</ele>
        <time>2018-09-02T13:25:46.000Z</time>
      </trkpt>
      <trkpt lat="43.30279243178665637969970703125" lon="-2.2062817029654979705810546875">
        <ele>36.59999847412109375</ele>
        <time>2018-09-02T13:25:51.000Z</time>
      </trkpt>
      <trkpt lat="43.30279209651052951812744140625" lon="-2.206407599151134490966796875">
        <ele>37</ele>
        <time>2018-09-02T13:25:55.000Z</time>
      </trkpt>
      <trkpt lat="43.3027951978147029876708984375" lon="-2.20649502240121364593505859375">
        <ele>37.59999847412109375</ele>
        <time>2018-09-02T13:25:58.000Z</time>
      </trkpt>
      <trkpt lat="43.30277265049517154693603515625" lon="-2.20663868822157382965087890625">
        <ele>38.200000762939453125</ele>
        <time>2018-09-02T13:26:03.000Z</time>
      </trkpt>
      <trkpt lat="43.3027770929038524627685546875" lon="-2.20666852779686450958251953125">
        <ele>38.40000152587890625</ele>
        <time>2018-09-02T13:26:04.000Z</time>
      </trkpt>
      <trkpt lat="43.302785642445087432861328125" lon="-2.206752263009548187255859375">
        <ele>39.40000152587890625</ele>
        <time>2018-09-02T13:26:08.000Z</time>
      </trkpt>
      <trkpt lat="43.3027871511876583099365234375" lon="-2.20680749975144863128662109375">
        <ele>39.799999237060546875</ele>
        <time>2018-09-02T13:26:11.000Z</time>
      </trkpt>
      <trkpt lat="43.3027801103889942169189453125" lon="-2.20691529102623462677001953125">
        <ele>40.40000152587890625</ele>
        <time>2018-09-02T13:26:16.000Z</time>
      </trkpt>
      <trkpt lat="43.3027811162173748016357421875" lon="-2.2069341503083705902099609375">
        <ele>40.59999847412109375</ele>
        <time>2018-09-02T13:26:17.000Z</time>
      </trkpt>
      <trkpt lat="43.30276695080101490020751953125" lon="-2.2070333920419216156005859375">
        <ele>41.40000152587890625</ele>
        <time>2018-09-02T13:26:22.000Z</time>
      </trkpt>
      <trkpt lat="43.3027670346200466156005859375" lon="-2.20705577172338962554931640625">
        <ele>41.59999847412109375</ele>
        <time>2018-09-02T13:26:23.000Z</time>
      </trkpt>
      <trkpt lat="43.30275840125977993011474609375" lon="-2.20713472925126552581787109375">
        <ele>42.40000152587890625</ele>
        <time>2018-09-02T13:26:27.000Z</time>
      </trkpt>
      <trkpt lat="43.3027566410601139068603515625" lon="-2.2071504034101963043212890625">
        <ele>42.40000152587890625</ele>
        <time>2018-09-02T13:26:28.000Z</time>
      </trkpt>
      <trkpt lat="43.30274079926311969757080078125" lon="-2.20722055993974208831787109375">
        <ele>43.200000762939453125</ele>
        <time>2018-09-02T13:26:32.000Z</time>
      </trkpt>
      <trkpt lat="43.302732668817043304443359375" lon="-2.20729147084057331085205078125">
        <ele>43.59999847412109375</ele>
        <time>2018-09-02T13:26:35.000Z</time>
      </trkpt>
      <trkpt lat="43.30270928330719470977783203125" lon="-2.2073800675570964813232421875">
        <ele>44.59999847412109375</ele>
        <time>2018-09-02T13:26:40.000Z</time>
      </trkpt>
      <trkpt lat="43.30270693637430667877197265625" lon="-2.20739373005926609039306640625">
        <ele>44.799999237060546875</ele>
        <time>2018-09-02T13:26:41.000Z</time>
      </trkpt>
      <trkpt lat="43.30268832854926586151123046875" lon="-2.207493223249912261962890625">
        <ele>46</ele>
        <time>2018-09-02T13:26:48.000Z</time>
      </trkpt>
      <trkpt lat="43.3026912622153759002685546875" lon="-2.20751694403588771820068359375">
        <ele>46.40000152587890625</ele>
        <time>2018-09-02T13:26:50.000Z</time>
      </trkpt>
      <trkpt lat="43.30269277095794677734375" lon="-2.2075661458075046539306640625">
        <ele>47.40000152587890625</ele>
        <time>2018-09-02T13:26:54.000Z</time>
      </trkpt>
      <trkpt lat="43.30268941819667816162109375" lon="-2.2076053731143474578857421875">
        <ele>48</ele>
        <time>2018-09-02T13:26:57.000Z</time>
      </trkpt>
      <trkpt lat="43.30268849618732929229736328125" lon="-2.20765449106693267822265625">
        <ele>48.59999847412109375</ele>
        <time>2018-09-02T13:27:00.000Z</time>
      </trkpt>
      <trkpt lat="43.30267391167581081390380859375" lon="-2.20775633119046688079833984375">
        <ele>49.799999237060546875</ele>
        <time>2018-09-02T13:27:06.000Z</time>
      </trkpt>
      <trkpt lat="43.30267391167581081390380859375" lon="-2.20777208916842937469482421875">
        <ele>50</ele>
        <time>2018-09-02T13:27:07.000Z</time>
      </trkpt>
      <trkpt lat="43.30266787670552730560302734375" lon="-2.2078370489180088043212890625">
        <ele>50.799999237060546875</ele>
        <time>2018-09-02T13:27:12.000Z</time>
      </trkpt>
      <trkpt lat="43.30265480093657970428466796875" lon="-2.207882143557071685791015625">
        <ele>51.59999847412109375</ele>
        <time>2018-09-02T13:27:16.000Z</time>
      </trkpt>
      <trkpt lat="43.3026547171175479888916015625" lon="-2.20789588987827301025390625">
        <ele>51.799999237060546875</ele>
        <time>2018-09-02T13:27:17.000Z</time>
      </trkpt>
      <trkpt lat="43.30263736657798290252685546875" lon="-2.207954563200473785400390625">
        <ele>52.799999237060546875</ele>
        <time>2018-09-02T13:27:22.000Z</time>
      </trkpt>
      <trkpt lat="43.30263451673090457916259765625" lon="-2.20796721987426280975341796875">
        <ele>53</ele>
        <time>2018-09-02T13:27:23.000Z</time>
      </trkpt>
      <trkpt lat="43.30262395553290843963623046875" lon="-2.20806059427559375762939453125">
        <ele>54.200000762939453125</ele>
        <time>2018-09-02T13:27:30.000Z</time>
      </trkpt>
      <trkpt lat="43.30262948758900165557861328125" lon="-2.208136282861232757568359375">
        <ele>55.200000762939453125</ele>
        <time>2018-09-02T13:27:36.000Z</time>
      </trkpt>
      <trkpt lat="43.302636109292507171630859375" lon="-2.208144664764404296875">
        <ele>55.40000152587890625</ele>
        <time>2018-09-02T13:27:37.000Z</time>
      </trkpt>
      <trkpt lat="43.302646167576313018798828125" lon="-2.2082085348665714263916015625">
        <ele>56.40000152587890625</ele>
        <time>2018-09-02T13:27:43.000Z</time>
      </trkpt>
      <trkpt lat="43.30264474265277385711669921875" lon="-2.2082209400832653045654296875">
        <ele>56.799999237060546875</ele>
        <time>2018-09-02T13:27:44.000Z</time>
      </trkpt>
      <trkpt lat="43.30263216979801654815673828125" lon="-2.20826343633234500885009765625">
        <ele>57.59999847412109375</ele>
        <time>2018-09-02T13:27:48.000Z</time>
      </trkpt>
      <trkpt lat="43.30262395553290843963623046875" lon="-2.20830626785755157470703125">
        <ele>58</ele>
        <time>2018-09-02T13:27:51.000Z</time>
      </trkpt>
      <trkpt lat="43.30263133160769939422607421875" lon="-2.2083614207804203033447265625">
        <ele>58.59999847412109375</ele>
        <time>2018-09-02T13:27:56.000Z</time>
      </trkpt>
      <trkpt lat="43.30263216979801654815673828125" lon="-2.20837390981614589691162109375">
        <ele>58.799999237060546875</ele>
        <time>2018-09-02T13:27:57.000Z</time>
      </trkpt>
      <trkpt lat="43.302632085978984832763671875" lon="-2.20839478075504302978515625">
        <ele>59.200000762939453125</ele>
        <time>2018-09-02T13:27:59.000Z</time>
      </trkpt>
      <trkpt lat="43.3026429824531078338623046875" lon="-2.20843308605253696441650390625">
        <ele>59.799999237060546875</ele>
        <time>2018-09-02T13:28:03.000Z</time>
      </trkpt>
      <trkpt lat="43.30264558084309101104736328125" lon="-2.20844440162181854248046875">
        <ele>59.799999237060546875</ele>
        <time>2018-09-02T13:28:04.000Z</time>
      </trkpt>
      <trkpt lat="43.30263250507414340972900390625" lon="-2.2085122950375080108642578125">
        <ele>61</ele>
        <time>2018-09-02T13:28:10.000Z</time>
      </trkpt>
      <trkpt lat="43.30262663774192333221435546875" lon="-2.20855462364852428436279296875">
        <ele>61.59999847412109375</ele>
        <time>2018-09-02T13:28:13.000Z</time>
      </trkpt>
      <trkpt lat="43.30262563191354274749755859375" lon="-2.20857985317707061767578125">
        <ele>62</ele>
        <time>2018-09-02T13:28:15.000Z</time>
      </trkpt>
      <trkpt lat="43.30262747593224048614501953125" lon="-2.208593599498271942138671875">
        <ele>62.200000762939453125</ele>
        <time>2018-09-02T13:28:16.000Z</time>
      </trkpt>
      <trkpt lat="43.30262160860002040863037109375" lon="-2.20865822397172451019287109375">
        <ele>63.200000762939453125</ele>
        <time>2018-09-02T13:28:21.000Z</time>
      </trkpt>
      <trkpt lat="43.3026243746280670166015625" lon="-2.20871069468557834625244140625">
        <ele>63.799999237060546875</ele>
        <time>2018-09-02T13:28:25.000Z</time>
      </trkpt>
      <trkpt lat="43.30262504518032073974609375" lon="-2.20874522812664508819580078125">
        <ele>64.40000152587890625</ele>
        <time>2018-09-02T13:28:28.000Z</time>
      </trkpt>
      <trkpt lat="43.302620351314544677734375" lon="-2.20879484899342060089111328125">
        <ele>65.1999969482421875</ele>
        <time>2018-09-02T13:28:32.000Z</time>
      </trkpt>
      <trkpt lat="43.302620351314544677734375" lon="-2.20882116816937923431396484375">
        <ele>65.40000152587890625</ele>
        <time>2018-09-02T13:28:34.000Z</time>
      </trkpt>
      <trkpt lat="43.3026216924190521240234375" lon="-2.20883491449058055877685546875">
        <ele>65.59999847412109375</ele>
        <time>2018-09-02T13:28:35.000Z</time>
      </trkpt>
      <trkpt lat="43.30262982286512851715087890625" lon="-2.20889392308890819549560546875">
        <ele>66.40000152587890625</ele>
        <time>2018-09-02T13:28:40.000Z</time>
      </trkpt>
      <trkpt lat="43.30263049341738224029541015625" lon="-2.2089069150388240814208984375">
        <ele>66.59999847412109375</ele>
        <time>2018-09-02T13:28:41.000Z</time>
      </trkpt>
      <trkpt lat="43.30263585783541202545166015625" lon="-2.20897614955902099609375">
        <ele>67.59999847412109375</ele>
        <time>2018-09-02T13:28:46.000Z</time>
      </trkpt>
      <trkpt lat="43.3026409707963466644287109375" lon="-2.20902199856936931610107421875">
        <ele>68.1999969482421875</ele>
        <time>2018-09-02T13:28:49.000Z</time>
      </trkpt>
      <trkpt lat="43.3026369474828243255615234375" lon="-2.20905334688723087310791015625">
        <ele>68.59999847412109375</ele>
        <time>2018-09-02T13:28:51.000Z</time>
      </trkpt>
      <trkpt lat="43.3026158250868320465087890625" lon="-2.20911763608455657958984375">
        <ele>69.40000152587890625</ele>
        <time>2018-09-02T13:28:55.000Z</time>
      </trkpt>
      <trkpt lat="43.30260417424142360687255859375" lon="-2.20915862359106540679931640625">
        <ele>69.8000030517578125</ele>
        <time>2018-09-02T13:28:57.000Z</time>
      </trkpt>
      <trkpt lat="43.302585147321224212646484375" lon="-2.2092767246067523956298828125">
        <ele>70.40000152587890625</ele>
        <time>2018-09-02T13:29:02.000Z</time>
      </trkpt>
      <trkpt lat="43.30256746150553226470947265625" lon="-2.20935978926718235015869140625">
        <ele>70.8000030517578125</ele>
        <time>2018-09-02T13:29:05.000Z</time>
      </trkpt>
      <trkpt lat="43.3025403879582881927490234375" lon="-2.20954603515565395355224609375">
        <ele>71.40000152587890625</ele>
        <time>2018-09-02T13:29:11.000Z</time>
      </trkpt>
      <trkpt lat="43.3025353588163852691650390625" lon="-2.20966237597167491912841796875">
        <ele>72</ele>
        <time>2018-09-02T13:29:15.000Z</time>
      </trkpt>
      <trkpt lat="43.30254315398633480072021484375" lon="-2.209725491702556610107421875">
        <ele>72.1999969482421875</ele>
        <time>2018-09-02T13:29:18.000Z</time>
      </trkpt>
      <trkpt lat="43.302544914186000823974609375" lon="-2.2098148427903652191162109375">
        <ele>72.8000030517578125</ele>
        <time>2018-09-02T13:29:22.000Z</time>
      </trkpt>
      <trkpt lat="43.30253225751221179962158203125" lon="-2.20988248474895954132080078125">
        <ele>72.59999847412109375</ele>
        <time>2018-09-02T13:29:24.000Z</time>
      </trkpt>
      <trkpt lat="43.30251834355294704437255859375" lon="-2.2099591791629791259765625">
        <ele>72.1999969482421875</ele>
        <time>2018-09-02T13:29:26.000Z</time>
      </trkpt>
      <trkpt lat="43.3025105483829975128173828125" lon="-2.21004408784210681915283203125">
        <ele>71.40000152587890625</ele>
        <time>2018-09-02T13:29:28.000Z</time>
      </trkpt>
      <trkpt lat="43.30250711180269718170166015625" lon="-2.2100837342441082000732421875">
        <ele>71</ele>
        <time>2018-09-02T13:29:29.000Z</time>
      </trkpt>
      <trkpt lat="43.30250090919435024261474609375" lon="-2.2101232968270778656005859375">
        <ele>70.8000030517578125</ele>
        <time>2018-09-02T13:29:30.000Z</time>
      </trkpt>
      <trkpt lat="43.30249537713825702667236328125" lon="-2.21016235649585723876953125">
        <ele>70.59999847412109375</ele>
        <time>2018-09-02T13:29:31.000Z</time>
      </trkpt>
      <trkpt lat="43.30248967744410037994384765625" lon="-2.21022312529385089874267578125">
        <ele>70</ele>
        <time>2018-09-02T13:29:33.000Z</time>
      </trkpt>
      <trkpt lat="43.30248682759702205657958984375" lon="-2.21024743281304836273193359375">
        <ele>69.8000030517578125</ele>
        <time>2018-09-02T13:29:34.000Z</time>
      </trkpt>
      <trkpt lat="43.302473835647106170654296875" lon="-2.21026520244777202606201171875">
        <ele>69.40000152587890625</ele>
        <time>2018-09-02T13:29:35.000Z</time>
      </trkpt>
      <trkpt lat="43.302459083497524261474609375" lon="-2.21028565429151058197021484375">
        <ele>69.1999969482421875</ele>
        <time>2018-09-02T13:29:36.000Z</time>
      </trkpt>
      <trkpt lat="43.302440643310546875" lon="-2.21033628098666667938232421875">
        <ele>68.59999847412109375</ele>
        <time>2018-09-02T13:29:38.000Z</time>
      </trkpt>
      <trkpt lat="43.30242387950420379638671875" lon="-2.21038187853991985321044921875">
        <ele>68</ele>
        <time>2018-09-02T13:29:40.000Z</time>
      </trkpt>
      <trkpt lat="43.30241180956363677978515625" lon="-2.2104035876691341400146484375">
        <ele>67.59999847412109375</ele>
        <time>2018-09-02T13:29:41.000Z</time>
      </trkpt>
      <trkpt lat="43.302397392690181732177734375" lon="-2.21042512916028499603271484375">
        <ele>66.8000030517578125</ele>
        <time>2018-09-02T13:29:42.000Z</time>
      </trkpt>
      <trkpt lat="43.3023834787309169769287109375" lon="-2.21044708974659442901611328125">
        <ele>66.40000152587890625</ele>
        <time>2018-09-02T13:29:43.000Z</time>
      </trkpt>
      <trkpt lat="43.30234148539602756500244140625" lon="-2.2105273045599460601806640625">
        <ele>65</ele>
        <time>2018-09-02T13:29:46.000Z</time>
      </trkpt>
      <trkpt lat="43.3022979833185672760009765625" lon="-2.2106002271175384521484375">
        <ele>64.1999969482421875</ele>
        <time>2018-09-02T13:29:49.000Z</time>
      </trkpt>
      <trkpt lat="43.30228574573993682861328125" lon="-2.2106248699128627777099609375">
        <ele>63.59999847412109375</ele>
        <time>2018-09-02T13:29:50.000Z</time>
      </trkpt>
      <trkpt lat="43.3022533915936946868896484375" lon="-2.2106701321899890899658203125">
        <ele>62.59999847412109375</ele>
        <time>2018-09-02T13:29:52.000Z</time>
      </trkpt>
      <trkpt lat="43.3022201992571353912353515625" lon="-2.2107147239148616790771484375">
        <ele>61.40000152587890625</ele>
        <time>2018-09-02T13:29:54.000Z</time>
      </trkpt>
      <trkpt lat="43.302185498178005218505859375" lon="-2.21076761372387409210205078125">
        <ele>60.59999847412109375</ele>
        <time>2018-09-02T13:29:56.000Z</time>
      </trkpt>
      <trkpt lat="43.30217032693326473236083984375" lon="-2.21079342998564243316650390625">
        <ele>60.40000152587890625</ele>
        <time>2018-09-02T13:29:57.000Z</time>
      </trkpt>
      <trkpt lat="43.30212539993226528167724609375" lon="-2.21087372861802577972412109375">
        <ele>59</ele>
        <time>2018-09-02T13:30:00.000Z</time>
      </trkpt>
      <trkpt lat="43.3020850829780101776123046875" lon="-2.21096022985875606536865234375">
        <ele>57.799999237060546875</ele>
        <time>2018-09-02T13:30:03.000Z</time>
      </trkpt>
      <trkpt lat="43.3020746894180774688720703125" lon="-2.210991494357585906982421875">
        <ele>57.40000152587890625</ele>
        <time>2018-09-02T13:30:04.000Z</time>
      </trkpt>
      <trkpt lat="43.3020572550594806671142578125" lon="-2.21105662174522876739501953125">
        <ele>56.200000762939453125</ele>
        <time>2018-09-02T13:30:06.000Z</time>
      </trkpt>
      <trkpt lat="43.30206044018268585205078125" lon="-2.21121990121901035308837890625">
        <ele>54.40000152587890625</ele>
        <time>2018-09-02T13:30:10.000Z</time>
      </trkpt>
      <trkpt lat="43.3020803891122341156005859375" lon="-2.2113359905779361724853515625">
        <ele>53.40000152587890625</ele>
        <time>2018-09-02T13:30:12.000Z</time>
      </trkpt>
      <trkpt lat="43.30212087370455265045166015625" lon="-2.21157160587608814239501953125">
        <ele>53.200000762939453125</ele>
        <time>2018-09-02T13:30:16.000Z</time>
      </trkpt>
      <trkpt lat="43.3021417446434497833251953125" lon="-2.2116689197719097137451171875">
        <ele>53.40000152587890625</ele>
        <time>2018-09-02T13:30:18.000Z</time>
      </trkpt>
      <trkpt lat="43.3021635375916957855224609375" lon="-2.211776711046695709228515625">
        <ele>53.799999237060546875</ele>
        <time>2018-09-02T13:30:21.000Z</time>
      </trkpt>
      <trkpt lat="43.30217200331389904022216796875" lon="-2.2118207998573780059814453125">
        <ele>54.40000152587890625</ele>
        <time>2018-09-02T13:30:23.000Z</time>
      </trkpt>
      <trkpt lat="43.30219295807182788848876953125" lon="-2.211870588362216949462890625">
        <ele>55</ele>
        <time>2018-09-02T13:30:26.000Z</time>
      </trkpt>
      <trkpt lat="43.30219999887049198150634765625" lon="-2.2118841670453548431396484375">
        <ele>55.40000152587890625</ele>
        <time>2018-09-02T13:30:27.000Z</time>
      </trkpt>
      <trkpt lat="43.30220754258334636688232421875" lon="-2.2118969075381755828857421875">
        <ele>55.59999847412109375</ele>
        <time>2018-09-02T13:30:28.000Z</time>
      </trkpt>
      <trkpt lat="43.30222397111356258392333984375" lon="-2.21193940378725528717041015625">
        <ele>56</ele>
        <time>2018-09-02T13:30:31.000Z</time>
      </trkpt>
      <trkpt lat="43.3022295869886875152587890625" lon="-2.21196857281029224395751953125">
        <ele>56.40000152587890625</ele>
        <time>2018-09-02T13:30:33.000Z</time>
      </trkpt>
      <trkpt lat="43.30224190838634967803955078125" lon="-2.211995981633663177490234375">
        <ele>56.59999847412109375</ele>
        <time>2018-09-02T13:30:35.000Z</time>
      </trkpt>
      <trkpt lat="43.30230125226080417633056640625" lon="-2.21206194721162319183349609375">
        <ele>57.59999847412109375</ele>
        <time>2018-09-02T13:30:41.000Z</time>
      </trkpt>
      <trkpt lat="43.302311562001705169677734375" lon="-2.21207502298057079315185546875">
        <ele>57.799999237060546875</ele>
        <time>2018-09-02T13:30:42.000Z</time>
      </trkpt>
      <trkpt lat="43.30233209766447544097900390625" lon="-2.21210829913616180419921875">
        <ele>58.200000762939453125</ele>
        <time>2018-09-02T13:30:45.000Z</time>
      </trkpt>
      <trkpt lat="43.30235104076564311981201171875" lon="-2.212150208652019500732421875">
        <ele>58.799999237060546875</ele>
        <time>2018-09-02T13:30:48.000Z</time>
      </trkpt>
      <trkpt lat="43.30236562527716159820556640625" lon="-2.21217543818056583404541015625">
        <ele>59.200000762939453125</ele>
        <time>2018-09-02T13:30:50.000Z</time>
      </trkpt>
      <trkpt lat="43.30238155089318752288818359375" lon="-2.21221801824867725372314453125">
        <ele>59.799999237060546875</ele>
        <time>2018-09-02T13:30:53.000Z</time>
      </trkpt>
      <trkpt lat="43.30238825641572475433349609375" lon="-2.21222765743732452392578125">
        <ele>60</ele>
        <time>2018-09-02T13:30:54.000Z</time>
      </trkpt>
      <trkpt lat="43.30238741822540760040283203125" lon="-2.21222690306603908538818359375">
        <ele>60.200000762939453125</ele>
        <time>2018-09-02T13:30:55.000Z</time>
      </trkpt>
      <trkpt lat="43.3024622686207294464111328125" lon="-2.21268254332244396209716796875">
        <ele>64.1999969482421875</ele>
        <time>2018-09-02T13:31:43.000Z</time>
      </trkpt>
      <trkpt lat="43.30246905796229839324951171875" lon="-2.212733589112758636474609375">
        <ele>64.40000152587890625</ele>
        <time>2018-09-02T13:31:45.000Z</time>
      </trkpt>
      <trkpt lat="43.302494622766971588134765625" lon="-2.21288873814046382904052734375">
        <ele>64.59999847412109375</ele>
        <time>2018-09-02T13:31:51.000Z</time>
      </trkpt>
      <trkpt lat="43.302503339946269989013671875" lon="-2.21291723661124706268310546875">
        <ele>64.59999847412109375</ele>
        <time>2018-09-02T13:31:52.000Z</time>
      </trkpt>
      <trkpt lat="43.3025165833532810211181640625" lon="-2.213011868298053741455078125">
        <ele>64.8000030517578125</ele>
        <time>2018-09-02T13:31:55.000Z</time>
      </trkpt>
      <trkpt lat="43.3025350235402584075927734375" lon="-2.2130750678479671478271484375">
        <ele>65.1999969482421875</ele>
        <time>2018-09-02T13:31:57.000Z</time>
      </trkpt>
      <trkpt lat="43.3025454171001911163330078125" lon="-2.21310398541390895843505859375">
        <ele>65.1999969482421875</ele>
        <time>2018-09-02T13:31:58.000Z</time>
      </trkpt>
      <trkpt lat="43.3025735802948474884033203125" lon="-2.21319325268268585205078125">
        <ele>64.8000030517578125</ele>
        <time>2018-09-02T13:32:01.000Z</time>
      </trkpt>
      <trkpt lat="43.30259076319634914398193359375" lon="-2.2132567875087261199951171875">
        <ele>64.59999847412109375</ele>
        <time>2018-09-02T13:32:03.000Z</time>
      </trkpt>
      <trkpt lat="43.302611969411373138427734375" lon="-2.2133494913578033447265625">
        <ele>65</ele>
        <time>2018-09-02T13:32:06.000Z</time>
      </trkpt>
      <trkpt lat="43.3026312477886676788330078125" lon="-2.21340087242424488067626953125">
        <ele>65.40000152587890625</ele>
        <time>2018-09-02T13:32:08.000Z</time>
      </trkpt>
      <trkpt lat="43.302669636905193328857421875" lon="-2.21355174668133258819580078125">
        <ele>65.59999847412109375</ele>
        <time>2018-09-02T13:32:13.000Z</time>
      </trkpt>
      <trkpt lat="43.3026979677379131317138671875" lon="-2.21372491680085659027099609375">
        <ele>65.40000152587890625</ele>
        <time>2018-09-02T13:32:18.000Z</time>
      </trkpt>
      <trkpt lat="43.3027019910514354705810546875" lon="-2.21375777386128902435302734375">
        <ele>65.40000152587890625</ele>
        <time>2018-09-02T13:32:19.000Z</time>
      </trkpt>
      <trkpt lat="43.302693776786327362060546875" lon="-2.21388316713273525238037109375">
        <ele>64.8000030517578125</ele>
        <time>2018-09-02T13:32:22.000Z</time>
      </trkpt>
      <trkpt lat="43.3026889152824878692626953125" lon="-2.2139878571033477783203125">
        <ele>63.799999237060546875</ele>
        <time>2018-09-02T13:32:24.000Z</time>
      </trkpt>
      <trkpt lat="43.30268262885510921478271484375" lon="-2.2140876017510890960693359375">
        <ele>63.200000762939453125</ele>
        <time>2018-09-02T13:32:26.000Z</time>
      </trkpt>
      <trkpt lat="43.30268204212188720703125" lon="-2.21413546241819858551025390625">
        <ele>62.59999847412109375</ele>
        <time>2018-09-02T13:32:27.000Z</time>
      </trkpt>
      <trkpt lat="43.30267894081771373748779296875" lon="-2.2141861729323863983154296875">
        <ele>62</ele>
        <time>2018-09-02T13:32:28.000Z</time>
      </trkpt>
      <trkpt lat="43.3026761747896671295166015625" lon="-2.21424065530300140380859375">
        <ele>61.40000152587890625</ele>
        <time>2018-09-02T13:32:29.000Z</time>
      </trkpt>
      <trkpt lat="43.30267558805644512176513671875" lon="-2.2143564932048320770263671875">
        <ele>60.200000762939453125</ele>
        <time>2018-09-02T13:32:31.000Z</time>
      </trkpt>
      <trkpt lat="43.3026788569986820220947265625" lon="-2.2144520469009876251220703125">
        <ele>58.200000762939453125</ele>
        <time>2018-09-02T13:32:33.000Z</time>
      </trkpt>
      <trkpt lat="43.30268137156963348388671875" lon="-2.2144973091781139373779296875">
        <ele>57.40000152587890625</ele>
        <time>2018-09-02T13:32:34.000Z</time>
      </trkpt>
      <trkpt lat="43.3026808686554431915283203125" lon="-2.21454483456909656524658203125">
        <ele>57</ele>
        <time>2018-09-02T13:32:35.000Z</time>
      </trkpt>
      <trkpt lat="43.302678354084491729736328125" lon="-2.21464675851166248321533203125">
        <ele>55.59999847412109375</ele>
        <time>2018-09-02T13:32:37.000Z</time>
      </trkpt>
      <trkpt lat="43.30266905017197132110595703125" lon="-2.2147496044635772705078125">
        <ele>54</ele>
        <time>2018-09-02T13:32:39.000Z</time>
      </trkpt>
      <trkpt lat="43.30266402103006839752197265625" lon="-2.214800901710987091064453125">
        <ele>53.40000152587890625</ele>
        <time>2018-09-02T13:32:40.000Z</time>
      </trkpt>
      <trkpt lat="43.302652537822723388671875" lon="-2.2148966230452060699462890625">
        <ele>53</ele>
        <time>2018-09-02T13:32:42.000Z</time>
      </trkpt>
      <trkpt lat="43.302630074322223663330078125" lon="-2.21498957835137844085693359375">
        <ele>51.59999847412109375</ele>
        <time>2018-09-02T13:32:44.000Z</time>
      </trkpt>
      <trkpt lat="43.302601240575313568115234375" lon="-2.2150994651019573211669921875">
        <ele>50.799999237060546875</ele>
        <time>2018-09-02T13:32:46.000Z</time>
      </trkpt>
      <trkpt lat="43.302585817873477935791015625" lon="-2.21515738405287265777587890625">
        <ele>50.200000762939453125</ele>
        <time>2018-09-02T13:32:47.000Z</time>
      </trkpt>
      <trkpt lat="43.30254449509084224700927734375" lon="-2.21534664742648601531982421875">
        <ele>49.59999847412109375</ele>
        <time>2018-09-02T13:32:51.000Z</time>
      </trkpt>
      <trkpt lat="43.30253544263541698455810546875" lon="-2.21539827995002269744873046875">
        <ele>50.200000762939453125</ele>
        <time>2018-09-02T13:32:53.000Z</time>
      </trkpt>
      <trkpt lat="43.302530162036418914794921875" lon="-2.21543700434267520904541015625">
        <ele>50.799999237060546875</ele>
        <time>2018-09-02T13:32:55.000Z</time>
      </trkpt>
      <trkpt lat="43.30253058113157749176025390625" lon="-2.2154568694531917572021484375">
        <ele>51</ele>
        <time>2018-09-02T13:32:56.000Z</time>
      </trkpt>
      <trkpt lat="43.3025286532938480377197265625" lon="-2.21549081616103649139404296875">
        <ele>51.40000152587890625</ele>
        <time>2018-09-02T13:32:58.000Z</time>
      </trkpt>
      <trkpt lat="43.30252312123775482177734375" lon="-2.21550741232931613922119140625">
        <ele>51.59999847412109375</ele>
        <time>2018-09-02T13:32:59.000Z</time>
      </trkpt>
      <trkpt lat="43.30250442959368228912353515625" lon="-2.21555292606353759765625">
        <ele>52</ele>
        <time>2018-09-02T13:33:02.000Z</time>
      </trkpt>
      <trkpt lat="43.30249303020536899566650390625" lon="-2.21557907760143280029296875">
        <ele>52.40000152587890625</ele>
        <time>2018-09-02T13:33:04.000Z</time>
      </trkpt>
      <trkpt lat="43.30246101133525371551513671875" lon="-2.21561528742313385009765625">
        <ele>53</ele>
        <time>2018-09-02T13:33:08.000Z</time>
      </trkpt>
      <trkpt lat="43.30244106240570545196533203125" lon="-2.21562844701111316680908203125">
        <ele>53.59999847412109375</ele>
        <time>2018-09-02T13:33:10.000Z</time>
      </trkpt>
      <trkpt lat="43.3024304173886775970458984375" lon="-2.2156342305243015289306640625">
        <ele>53.799999237060546875</ele>
        <time>2018-09-02T13:33:11.000Z</time>
      </trkpt>
      <trkpt lat="43.302412815392017364501953125" lon="-2.21565593965351581573486328125">
        <ele>54.40000152587890625</ele>
        <time>2018-09-02T13:33:13.000Z</time>
      </trkpt>
      <trkpt lat="43.302406109869480133056640625" lon="-2.21566985361278057098388671875">
        <ele>54.59999847412109375</ele>
        <time>2018-09-02T13:33:14.000Z</time>
      </trkpt>
      <trkpt lat="43.30240250565111637115478515625" lon="-2.2156975977122783660888671875">
        <ele>55</ele>
        <time>2018-09-02T13:33:16.000Z</time>
      </trkpt>
      <trkpt lat="43.302400745451450347900390625" lon="-2.2157435305416584014892578125">
        <ele>55.799999237060546875</ele>
        <time>2018-09-02T13:33:19.000Z</time>
      </trkpt>
      <trkpt lat="43.30239496193826198577880859375" lon="-2.2157971747219562530517578125">
        <ele>56.799999237060546875</ele>
        <time>2018-09-02T13:33:23.000Z</time>
      </trkpt>
      <trkpt lat="43.30239412374794483184814453125" lon="-2.21581167541444301605224609375">
        <ele>57.200000762939453125</ele>
        <time>2018-09-02T13:33:24.000Z</time>
      </trkpt>
      <trkpt lat="43.3023945428431034088134765625" lon="-2.21585811115801334381103515625">
        <ele>57.799999237060546875</ele>
        <time>2018-09-02T13:33:27.000Z</time>
      </trkpt>
      <trkpt lat="43.30239479430019855499267578125" lon="-2.21588459797203540802001953125">
        <ele>58.200000762939453125</ele>
        <time>2018-09-02T13:33:29.000Z</time>
      </trkpt>
      <trkpt lat="43.30239261500537395477294921875" lon="-2.215916030108928680419921875">
        <ele>58.59999847412109375</ele>
        <time>2018-09-02T13:33:31.000Z</time>
      </trkpt>
      <trkpt lat="43.302390016615390777587890625" lon="-2.2159651480615139007568359375">
        <ele>59.40000152587890625</ele>
        <time>2018-09-02T13:33:35.000Z</time>
      </trkpt>
      <trkpt lat="43.3023787848651409149169921875" lon="-2.21600328572094440460205078125">
        <ele>60</ele>
        <time>2018-09-02T13:33:38.000Z</time>
      </trkpt>
      <trkpt lat="43.3023720793426036834716796875" lon="-2.21602625213563442230224609375">
        <ele>60.40000152587890625</ele>
        <time>2018-09-02T13:33:40.000Z</time>
      </trkpt>
      <trkpt lat="43.30236411653459072113037109375" lon="-2.2160499729216098785400390625">
        <ele>61</ele>
        <time>2018-09-02T13:33:42.000Z</time>
      </trkpt>
      <trkpt lat="43.30235824920237064361572265625" lon="-2.2160719335079193115234375">
        <ele>61.40000152587890625</ele>
        <time>2018-09-02T13:33:44.000Z</time>
      </trkpt>
      <trkpt lat="43.302355147898197174072265625" lon="-2.2160948999226093292236328125">
        <ele>62</ele>
        <time>2018-09-02T13:33:46.000Z</time>
      </trkpt>
      <trkpt lat="43.30235171131789684295654296875" lon="-2.21613706089556217193603515625">
        <ele>62.59999847412109375</ele>
        <time>2018-09-02T13:33:50.000Z</time>
      </trkpt>
      <trkpt lat="43.3023486100137233734130859375" lon="-2.21616321243345737457275390625">
        <ele>63</ele>
        <time>2018-09-02T13:33:52.000Z</time>
      </trkpt>
      <trkpt lat="43.30234550870954990386962890625" lon="-2.2161857597529888153076171875">
        <ele>63.200000762939453125</ele>
        <time>2018-09-02T13:33:54.000Z</time>
      </trkpt>
      <trkpt lat="43.30233528278768062591552734375" lon="-2.21621283330023288726806640625">
        <ele>63.799999237060546875</ele>
        <time>2018-09-02T13:33:57.000Z</time>
      </trkpt>
      <trkpt lat="43.30231751315295696258544921875" lon="-2.21625323407351970672607421875">
        <ele>64.1999969482421875</ele>
        <time>2018-09-02T13:34:00.000Z</time>
      </trkpt>
      <trkpt lat="43.30230183899402618408203125" lon="-2.21630017273128032684326171875">
        <ele>65</ele>
        <time>2018-09-02T13:34:04.000Z</time>
      </trkpt>
      <trkpt lat="43.30229639075696468353271484375" lon="-2.2163225524127483367919921875">
        <ele>65.40000152587890625</ele>
        <time>2018-09-02T13:34:06.000Z</time>
      </trkpt>
      <trkpt lat="43.3022946305572986602783203125" lon="-2.21633587963879108428955078125">
        <ele>65.1999969482421875</ele>
        <time>2018-09-02T13:34:07.000Z</time>
      </trkpt>
      <trkpt lat="43.30228515900671482086181640625" lon="-2.21637141890823841094970703125">
        <ele>67</ele>
        <time>2018-09-02T13:34:10.000Z</time>
      </trkpt>
      <trkpt lat="43.3022674731910228729248046875" lon="-2.216403521597385406494140625">
        <ele>66.40000152587890625</ele>
        <time>2018-09-02T13:34:13.000Z</time>
      </trkpt>
      <trkpt lat="43.302242495119571685791015625" lon="-2.21649664454162120819091796875">
        <ele>67.8000030517578125</ele>
        <time>2018-09-02T13:34:21.000Z</time>
      </trkpt>
      <trkpt lat="43.30224107019603252410888671875" lon="-2.21650921739637851715087890625">
        <ele>67.8000030517578125</ele>
        <time>2018-09-02T13:34:22.000Z</time>
      </trkpt>
      <trkpt lat="43.30223185010254383087158203125" lon="-2.2165314294397830963134765625">
        <ele>68.1999969482421875</ele>
        <time>2018-09-02T13:34:24.000Z</time>
      </trkpt>
      <trkpt lat="43.302223049104213714599609375" lon="-2.2165743447840213775634765625">
        <ele>69</ele>
        <time>2018-09-02T13:34:28.000Z</time>
      </trkpt>
      <trkpt lat="43.30222464166581630706787109375" lon="-2.2165869176387786865234375">
        <ele>69.1999969482421875</ele>
        <time>2018-09-02T13:34:29.000Z</time>
      </trkpt>
      <trkpt lat="43.3022295869886875152587890625" lon="-2.21659873612225055694580078125">
        <ele>69.59999847412109375</ele>
        <time>2018-09-02T13:34:30.000Z</time>
      </trkpt>
      <trkpt lat="43.30222967080771923065185546875" lon="-2.2166097164154052734375">
        <ele>69.8000030517578125</ele>
        <time>2018-09-02T13:34:31.000Z</time>
      </trkpt>
      <trkpt lat="43.30221558921039104461669921875" lon="-2.21665422432124614715576171875">
        <ele>70</ele>
        <time>2018-09-02T13:34:34.000Z</time>
      </trkpt>
      <trkpt lat="43.3022134937345981597900390625" lon="-2.216695211827754974365234375">
        <ele>70.40000152587890625</ele>
        <time>2018-09-02T13:34:36.000Z</time>
      </trkpt>
      <trkpt lat="43.3022242225706577301025390625" lon="-2.21678867004811763763427734375">
        <ele>70.59999847412109375</ele>
        <time>2018-09-02T13:34:40.000Z</time>
      </trkpt>
      <trkpt lat="43.30221558921039104461669921875" lon="-2.21690601669251918792724609375">
        <ele>71.40000152587890625</ele>
        <time>2018-09-02T13:34:45.000Z</time>
      </trkpt>
      <trkpt lat="43.30221198499202728271484375" lon="-2.21692881546914577484130859375">
        <ele>71.40000152587890625</ele>
        <time>2018-09-02T13:34:46.000Z</time>
      </trkpt>
      <trkpt lat="43.30221005715429782867431640625" lon="-2.2169522009789943695068359375">
        <ele>71.59999847412109375</ele>
        <time>2018-09-02T13:34:47.000Z</time>
      </trkpt>
      <trkpt lat="43.30219061113893985748291015625" lon="-2.21707030199468135833740234375">
        <ele>72.40000152587890625</ele>
        <time>2018-09-02T13:34:53.000Z</time>
      </trkpt>
      <trkpt lat="43.30219128169119358062744140625" lon="-2.21709343604743480682373046875">
        <ele>72.8000030517578125</ele>
        <time>2018-09-02T13:34:54.000Z</time>
      </trkpt>
      <trkpt lat="43.3021709136664867401123046875" lon="-2.2171966172754764556884765625">
        <ele>73.40000152587890625</ele>
        <time>2018-09-02T13:34:59.000Z</time>
      </trkpt>
      <trkpt lat="43.3021658845245838165283203125" lon="-2.2172172367572784423828125">
        <ele>73.59999847412109375</ele>
        <time>2018-09-02T13:35:00.000Z</time>
      </trkpt>
      <trkpt lat="43.302162699401378631591796875" lon="-2.217237688601016998291015625">
        <ele>73.8000030517578125</ele>
        <time>2018-09-02T13:35:01.000Z</time>
      </trkpt>
      <trkpt lat="43.30215959809720516204833984375" lon="-2.21731840632855892181396484375">
        <ele>74.40000152587890625</ele>
        <time>2018-09-02T13:35:05.000Z</time>
      </trkpt>
      <trkpt lat="43.3021585084497928619384765625" lon="-2.21733969636261463165283203125">
        <ele>74.59999847412109375</ele>
        <time>2018-09-02T13:35:06.000Z</time>
      </trkpt>
      <trkpt lat="43.3021544851362705230712890625" lon="-2.21738152205944061279296875">
        <ele>75</ele>
        <time>2018-09-02T13:35:08.000Z</time>
      </trkpt>
      <trkpt lat="43.30215155147016048431396484375" lon="-2.21748118288815021514892578125">
        <ele>75.8000030517578125</ele>
        <time>2018-09-02T13:35:13.000Z</time>
      </trkpt>
      <trkpt lat="43.3021528087556362152099609375" lon="-2.217526026070117950439453125">
        <ele>76</ele>
        <time>2018-09-02T13:35:15.000Z</time>
      </trkpt>
      <trkpt lat="43.302142582833766937255859375" lon="-2.217626608908176422119140625">
        <ele>76.8000030517578125</ele>
        <time>2018-09-02T13:35:19.000Z</time>
      </trkpt>
      <trkpt lat="43.3021390624344348907470703125" lon="-2.21772350370883941650390625">
        <ele>77.59999847412109375</ele>
        <time>2018-09-02T13:35:23.000Z</time>
      </trkpt>
      <trkpt lat="43.3021353743970394134521484375" lon="-2.21776549704372882843017578125">
        <ele>78</ele>
        <time>2018-09-02T13:35:25.000Z</time>
      </trkpt>
      <trkpt lat="43.302134536206722259521484375" lon="-2.21795140765607357025146484375">
        <ele>79.1999969482421875</ele>
        <time>2018-09-02T13:35:33.000Z</time>
      </trkpt>
      <trkpt lat="43.302145935595035552978515625" lon="-2.21809490583837032318115234375">
        <ele>80.1999969482421875</ele>
        <time>2018-09-02T13:35:39.000Z</time>
      </trkpt>
      <trkpt lat="43.30215104855597019195556640625" lon="-2.21812449395656585693359375">
        <ele>80.40000152587890625</ele>
        <time>2018-09-02T13:35:40.000Z</time>
      </trkpt>
      <trkpt lat="43.30218072049319744110107421875" lon="-2.21830713562667369842529296875">
        <ele>81.40000152587890625</ele>
        <time>2018-09-02T13:35:46.000Z</time>
      </trkpt>
      <trkpt lat="43.30219061113893985748291015625" lon="-2.21836681477725505828857421875">
        <ele>81.59999847412109375</ele>
        <time>2018-09-02T13:35:48.000Z</time>
      </trkpt>
      <trkpt lat="43.30223520286381244659423828125" lon="-2.21858373843133449554443359375">
        <ele>82</ele>
        <time>2018-09-02T13:35:54.000Z</time>
      </trkpt>
      <trkpt lat="43.302257247269153594970703125" lon="-2.218695469200611114501953125">
        <ele>82.40000152587890625</ele>
        <time>2018-09-02T13:35:57.000Z</time>
      </trkpt>
      <trkpt lat="43.30228733830153942108154296875" lon="-2.21887257881462574005126953125">
        <ele>83</ele>
        <time>2018-09-02T13:36:01.000Z</time>
      </trkpt>
      <trkpt lat="43.302373923361301422119140625" lon="-2.21911615692079067230224609375">
        <ele>83</ele>
        <time>2018-09-02T13:36:07.000Z</time>
      </trkpt>
      <trkpt lat="43.30246352590620517730712890625" lon="-2.21923719160258769989013671875">
        <ele>83</ele>
        <time>2018-09-02T13:36:11.000Z</time>
      </trkpt>
      <trkpt lat="43.302487917244434356689453125" lon="-2.21925294958055019378662109375">
        <ele>83</ele>
        <time>2018-09-02T13:36:12.000Z</time>
      </trkpt>
      <trkpt lat="43.3025025017559528350830078125" lon="-2.2192704677581787109375">
        <ele>83</ele>
        <time>2018-09-02T13:36:13.000Z</time>
      </trkpt>
      <trkpt lat="43.30250610597431659698486328125" lon="-2.21929402090609073638916015625">
        <ele>83.1999969482421875</ele>
        <time>2018-09-02T13:36:14.000Z</time>
      </trkpt>
      <trkpt lat="43.30250208266079425811767578125" lon="-2.2193227708339691162109375">
        <ele>83.1999969482421875</ele>
        <time>2018-09-02T13:36:15.000Z</time>
      </trkpt>
      <trkpt lat="43.3025289885699748992919921875" lon="-2.21948831342160701751708984375">
        <ele>82</ele>
        <time>2018-09-02T13:36:19.000Z</time>
      </trkpt>
      <trkpt lat="43.3025801181793212890625" lon="-2.21960716880857944488525390625">
        <ele>81</ele>
        <time>2018-09-02T13:36:21.000Z</time>
      </trkpt>
      <trkpt lat="43.30265865661203861236572265625" lon="-2.2197653353214263916015625">
        <ele>80</ele>
        <time>2018-09-02T13:36:23.000Z</time>
      </trkpt>
      <trkpt lat="43.3027891628444194793701171875" lon="-2.22003045491874217987060546875">
        <ele>78.59999847412109375</ele>
        <time>2018-09-02T13:36:26.000Z</time>
      </trkpt>
      <trkpt lat="43.3028786815702915191650390625" lon="-2.220235727727413177490234375">
        <ele>76.8000030517578125</ele>
        <time>2018-09-02T13:36:28.000Z</time>
      </trkpt>
      <trkpt lat="43.30291983671486377716064453125" lon="-2.2203465364873409271240234375">
        <ele>75.8000030517578125</ele>
        <time>2018-09-02T13:36:29.000Z</time>
      </trkpt>
      <trkpt lat="43.302964679896831512451171875" lon="-2.22046363167464733123779296875">
        <ele>74.1999969482421875</ele>
        <time>2018-09-02T13:36:30.000Z</time>
      </trkpt>
      <trkpt lat="43.30301187001168727874755859375" lon="-2.22058542072772979736328125">
        <ele>73.1999969482421875</ele>
        <time>2018-09-02T13:36:31.000Z</time>
      </trkpt>
      <trkpt lat="43.30310591496527194976806640625" lon="-2.22083059139549732208251953125">
        <ele>72</ele>
        <time>2018-09-02T13:36:33.000Z</time>
      </trkpt>
      <trkpt lat="43.30322879366576671600341796875" lon="-2.2211733274161815643310546875">
        <ele>70.8000030517578125</ele>
        <time>2018-09-02T13:36:36.000Z</time>
      </trkpt>
      <trkpt lat="43.30332912504673004150390625" lon="-2.221401818096637725830078125">
        <ele>69.59999847412109375</ele>
        <time>2018-09-02T13:36:38.000Z</time>
      </trkpt>
      <trkpt lat="43.30343917943537235260009765625" lon="-2.2216309793293476104736328125">
        <ele>68.59999847412109375</ele>
        <time>2018-09-02T13:36:40.000Z</time>
      </trkpt>
      <trkpt lat="43.30356457270681858062744140625" lon="-2.2218328155577182769775390625">
        <ele>68</ele>
        <time>2018-09-02T13:36:42.000Z</time>
      </trkpt>
      <trkpt lat="43.30362676642835140228271484375" lon="-2.22192811779677867889404296875">
        <ele>67.59999847412109375</ele>
        <time>2018-09-02T13:36:43.000Z</time>
      </trkpt>
      <trkpt lat="43.3036850206553936004638671875" lon="-2.22202249802649021148681640625">
        <ele>67.59999847412109375</ele>
        <time>2018-09-02T13:36:44.000Z</time>
      </trkpt>
      <trkpt lat="43.3037792332470417022705078125" lon="-2.2222032956779003143310546875">
        <ele>67.59999847412109375</ele>
        <time>2018-09-02T13:36:46.000Z</time>
      </trkpt>
      <trkpt lat="43.3038077317178249359130859375" lon="-2.22229239530861377716064453125">
        <ele>67.8000030517578125</ele>
        <time>2018-09-02T13:36:47.000Z</time>
      </trkpt>
      <trkpt lat="43.30385626293718814849853515625" lon="-2.2224406711757183074951171875">
        <ele>69</ele>
        <time>2018-09-02T13:36:49.000Z</time>
      </trkpt>
      <trkpt lat="43.3038938976824283599853515625" lon="-2.2225539945065975189208984375">
        <ele>70.1999969482421875</ele>
        <time>2018-09-02T13:36:51.000Z</time>
      </trkpt>
      <trkpt lat="43.30393253825604915618896484375" lon="-2.22267712466418743133544921875">
        <ele>71.40000152587890625</ele>
        <time>2018-09-02T13:36:54.000Z</time>
      </trkpt>
      <trkpt lat="43.30395064316689968109130859375" lon="-2.2227444313466548919677734375">
        <ele>72.40000152587890625</ele>
        <time>2018-09-02T13:36:56.000Z</time>
      </trkpt>
      <trkpt lat="43.3039586059749126434326171875" lon="-2.2227752767503261566162109375">
        <ele>72.59999847412109375</ele>
        <time>2018-09-02T13:36:57.000Z</time>
      </trkpt>
      <trkpt lat="43.3039815723896026611328125" lon="-2.2228601016104221343994140625">
        <ele>73.1999969482421875</ele>
        <time>2018-09-02T13:37:00.000Z</time>
      </trkpt>
      <trkpt lat="43.3039896190166473388671875" lon="-2.2229170985519886016845703125">
        <ele>73.8000030517578125</ele>
        <time>2018-09-02T13:37:02.000Z</time>
      </trkpt>
      <trkpt lat="43.3040082268416881561279296875" lon="-2.22299530170857906341552734375">
        <ele>74.40000152587890625</ele>
        <time>2018-09-02T13:37:05.000Z</time>
      </trkpt>
      <trkpt lat="43.30401635728776454925537109375" lon="-2.22304374910891056060791015625">
        <ele>74.8000030517578125</ele>
        <time>2018-09-02T13:37:07.000Z</time>
      </trkpt>
      <trkpt lat="43.3040256612002849578857421875" lon="-2.22309420816600322723388671875">
        <ele>75</ele>
        <time>2018-09-02T13:37:09.000Z</time>
      </trkpt>
      <trkpt lat="43.30404133535921573638916015625" lon="-2.2231420688331127166748046875">
        <ele>75.59999847412109375</ele>
        <time>2018-09-02T13:37:11.000Z</time>
      </trkpt>
      <trkpt lat="43.3040494658052921295166015625" lon="-2.223167382180690765380859375">
        <ele>75.8000030517578125</ele>
        <time>2018-09-02T13:37:12.000Z</time>
      </trkpt>
      <trkpt lat="43.3040558360517024993896484375" lon="-2.22319428808987140655517578125">
        <ele>75.8000030517578125</ele>
        <time>2018-09-02T13:37:13.000Z</time>
      </trkpt>
      <trkpt lat="43.304068408906459808349609375" lon="-2.223264612257480621337890625">
        <ele>76.40000152587890625</ele>
        <time>2018-09-02T13:37:16.000Z</time>
      </trkpt>
      <trkpt lat="43.30407637171447277069091796875" lon="-2.22331012599170207977294921875">
        <ele>77</ele>
        <time>2018-09-02T13:37:18.000Z</time>
      </trkpt>
      <trkpt lat="43.30409062094986438751220703125" lon="-2.22335790283977985382080078125">
        <ele>77.1999969482421875</ele>
        <time>2018-09-02T13:37:20.000Z</time>
      </trkpt>
      <trkpt lat="43.30411610193550586700439453125" lon="-2.2234505228698253631591796875">
        <ele>78</ele>
        <time>2018-09-02T13:37:24.000Z</time>
      </trkpt>
      <trkpt lat="43.30413621850311756134033203125" lon="-2.2235356830060482025146484375">
        <ele>78.8000030517578125</ele>
        <time>2018-09-02T13:37:28.000Z</time>
      </trkpt>
      <trkpt lat="43.30414853990077972412109375" lon="-2.22358337603509426116943359375">
        <ele>79.1999969482421875</ele>
        <time>2018-09-02T13:37:30.000Z</time>
      </trkpt>
      <trkpt lat="43.30417661927640438079833984375" lon="-2.22369678318500518798828125">
        <ele>80.1999969482421875</ele>
        <time>2018-09-02T13:37:35.000Z</time>
      </trkpt>
      <trkpt lat="43.304181732237339019775390625" lon="-2.223719917237758636474609375">
        <ele>80.1999969482421875</ele>
        <time>2018-09-02T13:37:36.000Z</time>
      </trkpt>
      <trkpt lat="43.3042043633759021759033203125" lon="-2.22381270490586757659912109375">
        <ele>80.8000030517578125</ele>
        <time>2018-09-02T13:37:40.000Z</time>
      </trkpt>
      <trkpt lat="43.3042217977344989776611328125" lon="-2.22387942485511302947998046875">
        <ele>81.59999847412109375</ele>
        <time>2018-09-02T13:37:43.000Z</time>
      </trkpt>
      <trkpt lat="43.304232694208621978759765625" lon="-2.2239209152758121490478515625">
        <ele>81.8000030517578125</ele>
        <time>2018-09-02T13:37:45.000Z</time>
      </trkpt>
      <trkpt lat="43.30425272695720195770263671875" lon="-2.22400532104074954986572265625">
        <ele>82.59999847412109375</ele>
        <time>2018-09-02T13:37:49.000Z</time>
      </trkpt>
      <trkpt lat="43.30427653156220912933349609375" lon="-2.22409517504274845123291015625">
        <ele>83.1999969482421875</ele>
        <time>2018-09-02T13:37:53.000Z</time>
      </trkpt>
      <trkpt lat="43.30429899506270885467529296875" lon="-2.22415745258331298828125">
        <ele>83.8000030517578125</ele>
        <time>2018-09-02T13:37:56.000Z</time>
      </trkpt>
      <trkpt lat="43.30432011745870113372802734375" lon="-2.2242739610373973846435546875">
        <ele>84.59999847412109375</ele>
        <time>2018-09-02T13:38:01.000Z</time>
      </trkpt>
      <trkpt lat="43.30434006638824939727783203125" lon="-2.22431327216327190399169921875">
        <ele>85</ele>
        <time>2018-09-02T13:38:03.000Z</time>
      </trkpt>
      <trkpt lat="43.3043820597231388092041015625" lon="-2.2244399227201938629150390625">
        <ele>86</ele>
        <time>2018-09-02T13:38:09.000Z</time>
      </trkpt>
      <trkpt lat="43.3044363744556903839111328125" lon="-2.2245954908430576324462890625">
        <ele>87</ele>
        <time>2018-09-02T13:38:16.000Z</time>
      </trkpt>
      <trkpt lat="43.30445305444300174713134765625" lon="-2.224663384258747100830078125">
        <ele>87.59999847412109375</ele>
        <time>2018-09-02T13:38:19.000Z</time>
      </trkpt>
      <trkpt lat="43.304494209587574005126953125" lon="-2.224782072007656097412109375">
        <ele>88.1999969482421875</ele>
        <time>2018-09-02T13:38:24.000Z</time>
      </trkpt>
      <trkpt lat="43.304530084133148193359375" lon="-2.224857509136199951171875">
        <ele>88.8000030517578125</ele>
        <time>2018-09-02T13:38:28.000Z</time>
      </trkpt>
      <trkpt lat="43.30455263145267963409423828125" lon="-2.2249233908951282501220703125">
        <ele>89.1999969482421875</ele>
        <time>2018-09-02T13:38:31.000Z</time>
      </trkpt>
      <trkpt lat="43.30460183322429656982421875" lon="-2.22504786215722560882568359375">
        <ele>89.8000030517578125</ele>
        <time>2018-09-02T13:38:36.000Z</time>
      </trkpt>
      <trkpt lat="43.30464734695851802825927734375" lon="-2.22517660818994045257568359375">
        <ele>90.40000152587890625</ele>
        <time>2018-09-02T13:38:41.000Z</time>
      </trkpt>
      <trkpt lat="43.30469973385334014892578125" lon="-2.2253196872770786285400390625">
        <ele>91.1999969482421875</ele>
        <time>2018-09-02T13:38:46.000Z</time>
      </trkpt>
      <trkpt lat="43.3047163300216197967529296875" lon="-2.2253711521625518798828125">
        <ele>91.40000152587890625</ele>
        <time>2018-09-02T13:38:48.000Z</time>
      </trkpt>
      <trkpt lat="43.30476838164031505584716796875" lon="-2.225538454949855804443359375">
        <ele>92.1999969482421875</ele>
        <time>2018-09-02T13:38:54.000Z</time>
      </trkpt>
      <trkpt lat="43.3047880791127681732177734375" lon="-2.22559503279626369476318359375">
        <ele>92.40000152587890625</ele>
        <time>2018-09-02T13:38:56.000Z</time>
      </trkpt>
      <trkpt lat="43.30485186539590358734130859375" lon="-2.22577013075351715087890625">
        <ele>93.59999847412109375</ele>
        <time>2018-09-02T13:39:03.000Z</time>
      </trkpt>
      <trkpt lat="43.30486066639423370361328125" lon="-2.22579586319625377655029296875">
        <ele>93.59999847412109375</ele>
        <time>2018-09-02T13:39:04.000Z</time>
      </trkpt>
      <trkpt lat="43.30493174493312835693359375" lon="-2.2259650938212871551513671875">
        <ele>94.59999847412109375</ele>
        <time>2018-09-02T13:39:11.000Z</time>
      </trkpt>
      <trkpt lat="43.3049525320529937744140625" lon="-2.22600842826068401336669921875">
        <ele>95</ele>
        <time>2018-09-02T13:39:13.000Z</time>
      </trkpt>
      <trkpt lat="43.3050029911100864410400390625" lon="-2.22613113932311534881591796875">
        <ele>95.59999847412109375</ele>
        <time>2018-09-02T13:39:18.000Z</time>
      </trkpt>
      <trkpt lat="43.305034339427947998046875" lon="-2.226201631128787994384765625">
        <ele>96.1999969482421875</ele>
        <time>2018-09-02T13:39:21.000Z</time>
      </trkpt>
      <trkpt lat="43.30508404411375522613525390625" lon="-2.22628436051309108734130859375">
        <ele>96.8000030517578125</ele>
        <time>2018-09-02T13:39:25.000Z</time>
      </trkpt>
      <trkpt lat="43.30514355562627315521240234375" lon="-2.22638896666467189788818359375">
        <ele>97.40000152587890625</ele>
        <time>2018-09-02T13:39:30.000Z</time>
      </trkpt>
      <trkpt lat="43.30516903661191463470458984375" lon="-2.2264250926673412322998046875">
        <ele>97.8000030517578125</ele>
        <time>2018-09-02T13:39:32.000Z</time>
      </trkpt>
      <trkpt lat="43.3052743971347808837890625" lon="-2.22656465135514736175537109375">
        <ele>99</ele>
        <time>2018-09-02T13:39:40.000Z</time>
      </trkpt>
      <trkpt lat="43.3052913285791873931884765625" lon="-2.22657521255314350128173828125">
        <ele>99</ele>
        <time>2018-09-02T13:39:41.000Z</time>
      </trkpt>
      <trkpt lat="43.305359892547130584716796875" lon="-2.22665928304195404052734375">
        <ele>100</ele>
        <time>2018-09-02T13:39:46.000Z</time>
      </trkpt>
      <trkpt lat="43.30537338741123676300048828125" lon="-2.22667671740055084228515625">
        <ele>100</ele>
        <time>2018-09-02T13:39:47.000Z</time>
      </trkpt>
      <trkpt lat="43.3054391853511333465576171875" lon="-2.22675039432942867279052734375">
        <ele>101</ele>
        <time>2018-09-02T13:39:52.000Z</time>
      </trkpt>
      <trkpt lat="43.30550448037683963775634765625" lon="-2.22683220170438289642333984375">
        <ele>101.59999847412109375</ele>
        <time>2018-09-02T13:39:57.000Z</time>
      </trkpt>
      <trkpt lat="43.3055508323013782501220703125" lon="-2.2268740274012088775634765625">
        <ele>102</ele>
        <time>2018-09-02T13:40:00.000Z</time>
      </trkpt>
      <trkpt lat="43.30561126582324504852294921875" lon="-2.22692758776247501373291015625">
        <ele>102.8000030517578125</ele>
        <time>2018-09-02T13:40:04.000Z</time>
      </trkpt>
      <trkpt lat="43.3056485652923583984375" lon="-2.226981818675994873046875">
        <ele>103.40000152587890625</ele>
        <time>2018-09-02T13:40:07.000Z</time>
      </trkpt>
      <trkpt lat="43.3056839369237422943115234375" lon="-2.2270421683788299560546875">
        <ele>101.40000152587890625</ele>
        <time>2018-09-02T13:40:10.000Z</time>
      </trkpt>
      <trkpt lat="43.30569944344460964202880859375" lon="-2.22705750726163387298583984375">
        <ele>102</ele>
        <time>2018-09-02T13:40:11.000Z</time>
      </trkpt>
      <trkpt lat="43.30571386031806468963623046875" lon="-2.227070666849613189697265625">
        <ele>103</ele>
        <time>2018-09-02T13:40:12.000Z</time>
      </trkpt>
      <trkpt lat="43.3057278580963611602783203125" lon="-2.22708382643759250640869140625">
        <ele>104.40000152587890625</ele>
        <time>2018-09-02T13:40:13.000Z</time>
      </trkpt>
      <trkpt lat="43.30580078065395355224609375" lon="-2.22718206234276294708251953125">
        <ele>103.59999847412109375</ele>
        <time>2018-09-02T13:40:19.000Z</time>
      </trkpt>
      <trkpt lat="43.3058086596429347991943359375" lon="-2.22719999961555004119873046875">
        <ele>103.8000030517578125</ele>
        <time>2018-09-02T13:40:20.000Z</time>
      </trkpt>
      <trkpt lat="43.30587144009768962860107421875" lon="-2.22728180699050426483154296875">
        <ele>105.8000030517578125</ele>
        <time>2018-09-02T13:40:25.000Z</time>
      </trkpt>
      <trkpt lat="43.305951654911041259765625" lon="-2.22742027603089809417724609375">
        <ele>106.8000030517578125</ele>
        <time>2018-09-02T13:40:32.000Z</time>
      </trkpt>
      <trkpt lat="43.3059615455567836761474609375" lon="-2.22744123078882694244384765625">
        <ele>106.8000030517578125</ele>
        <time>2018-09-02T13:40:33.000Z</time>
      </trkpt>
      <trkpt lat="43.3059933967888355255126953125" lon="-2.2276099584996700286865234375">
        <ele>107.8000030517578125</ele>
        <time>2018-09-02T13:40:40.000Z</time>
      </trkpt>
      <trkpt lat="43.3059940673410892486572265625" lon="-2.22764139063656330108642578125">
        <ele>108</ele>
        <time>2018-09-02T13:40:41.000Z</time>
      </trkpt>
      <trkpt lat="43.30599063076078891754150390625" lon="-2.2278010658919811248779296875">
        <ele>109</ele>
        <time>2018-09-02T13:40:46.000Z</time>
      </trkpt>
      <trkpt lat="43.30598761327564716339111328125" lon="-2.22786426544189453125">
        <ele>109.1999969482421875</ele>
        <time>2018-09-02T13:40:48.000Z</time>
      </trkpt>
      <trkpt lat="43.30593916587531566619873046875" lon="-2.22806065343320369720458984375">
        <ele>109.8000030517578125</ele>
        <time>2018-09-02T13:40:54.000Z</time>
      </trkpt>
      <trkpt lat="43.30585501156747341156005859375" lon="-2.2283081710338592529296875">
        <ele>110</ele>
        <time>2018-09-02T13:41:00.000Z</time>
      </trkpt>
      <trkpt lat="43.30575593747198581695556640625" lon="-2.22855828702449798583984375">
        <ele>109.59999847412109375</ele>
        <time>2018-09-02T13:41:05.000Z</time>
      </trkpt>
      <trkpt lat="43.3057288639247417449951171875" lon="-2.22861318849027156829833984375">
        <ele>109.40000152587890625</ele>
        <time>2018-09-02T13:41:06.000Z</time>
      </trkpt>
      <trkpt lat="43.30549090169370174407958984375" lon="-2.22898651845753192901611328125">
        <ele>108.40000152587890625</ele>
        <time>2018-09-02T13:41:13.000Z</time>
      </trkpt>
      <trkpt lat="43.30541588366031646728515625" lon="-2.22908408381044864654541015625">
        <ele>108.40000152587890625</ele>
        <time>2018-09-02T13:41:15.000Z</time>
      </trkpt>
      <trkpt lat="43.3052400313317775726318359375" lon="-2.2292866744101047515869140625">
        <ele>109</ele>
        <time>2018-09-02T13:41:20.000Z</time>
      </trkpt>
      <trkpt lat="43.3050365187227725982666015625" lon="-2.229476608335971832275390625">
        <ele>110.1999969482421875</ele>
        <time>2018-09-02T13:41:26.000Z</time>
      </trkpt>
      <trkpt lat="43.30500843934714794158935546875" lon="-2.2295119799673557281494140625">
        <ele>110.1999969482421875</ele>
        <time>2018-09-02T13:41:27.000Z</time>
      </trkpt>
      <trkpt lat="43.304888494312763214111328125" lon="-2.2297324240207672119140625">
        <ele>111.1999969482421875</ele>
        <time>2018-09-02T13:41:33.000Z</time>
      </trkpt>
      <trkpt lat="43.30487097613513469696044921875" lon="-2.22975430078804492950439453125">
        <ele>111.1999969482421875</ele>
        <time>2018-09-02T13:41:34.000Z</time>
      </trkpt>
      <trkpt lat="43.30482286401093006134033203125" lon="-2.22983376123011112213134765625">
        <ele>111.59999847412109375</ele>
        <time>2018-09-02T13:41:38.000Z</time>
      </trkpt>
      <trkpt lat="43.30478447489440441131591796875" lon="-2.22990953363478183746337890625">
        <ele>111.59999847412109375</ele>
        <time>2018-09-02T13:41:41.000Z</time>
      </trkpt>
      <trkpt lat="43.30474625341594219207763671875" lon="-2.229962758719921112060546875">
        <ele>111.8000030517578125</ele>
        <time>2018-09-02T13:41:43.000Z</time>
      </trkpt>
      <trkpt lat="43.3045470155775547027587890625" lon="-2.23013483919203281402587890625">
        <ele>111.59999847412109375</ele>
        <time>2018-09-02T13:41:50.000Z</time>
      </trkpt>
      <trkpt lat="43.30440326593816280364990234375" lon="-2.230228297412395477294921875">
        <ele>111.40000152587890625</ele>
        <time>2018-09-02T13:41:54.000Z</time>
      </trkpt>
      <trkpt lat="43.304365463554859161376953125" lon="-2.23024900071322917938232421875">
        <ele>111.40000152587890625</ele>
        <time>2018-09-02T13:41:55.000Z</time>
      </trkpt>
      <trkpt lat="43.30432824790477752685546875" lon="-2.23026777617633342742919921875">
        <ele>111.40000152587890625</ele>
        <time>2018-09-02T13:41:56.000Z</time>
      </trkpt>
      <trkpt lat="43.30425557680428028106689453125" lon="-2.23030884750187397003173828125">
        <ele>111.59999847412109375</ele>
        <time>2018-09-02T13:41:58.000Z</time>
      </trkpt>
      <trkpt lat="43.30422020517289638519287109375" lon="-2.23033013753592967987060546875">
        <ele>111.59999847412109375</ele>
        <time>2018-09-02T13:41:59.000Z</time>
      </trkpt>
      <trkpt lat="43.3039438538253307342529296875" lon="-2.23047950305044651031494140625">
        <ele>112.1999969482421875</ele>
        <time>2018-09-02T13:42:07.000Z</time>
      </trkpt>
      <trkpt lat="43.3038523234426975250244140625" lon="-2.2305278666317462921142578125">
        <ele>113</ele>
        <time>2018-09-02T13:42:10.000Z</time>
      </trkpt>
      <trkpt lat="43.3037319593131542205810546875" lon="-2.23059282638132572174072265625">
        <ele>113.40000152587890625</ele>
        <time>2018-09-02T13:42:14.000Z</time>
      </trkpt>
      <trkpt lat="43.3036716096103191375732421875" lon="-2.2306120209395885467529296875">
        <ele>113.8000030517578125</ele>
        <time>2018-09-02T13:42:16.000Z</time>
      </trkpt>
      <trkpt lat="43.30361620523035526275634765625" lon="-2.23061596043407917022705078125">
        <ele>114.1999969482421875</ele>
        <time>2018-09-02T13:42:18.000Z</time>
      </trkpt>
      <trkpt lat="43.30353909172117710113525390625" lon="-2.230588383972644805908203125">
        <ele>114.40000152587890625</ele>
        <time>2018-09-02T13:42:21.000Z</time>
      </trkpt>
      <trkpt lat="43.30351243726909160614013671875" lon="-2.23057664930820465087890625">
        <ele>114.59999847412109375</ele>
        <time>2018-09-02T13:42:22.000Z</time>
      </trkpt>
      <trkpt lat="43.303377069532871246337890625" lon="-2.230452932417392730712890625">
        <ele>115</ele>
        <time>2018-09-02T13:42:28.000Z</time>
      </trkpt>
      <trkpt lat="43.30334614031016826629638671875" lon="-2.23040155135095119476318359375">
        <ele>115.59999847412109375</ele>
        <time>2018-09-02T13:42:31.000Z</time>
      </trkpt>
      <trkpt lat="43.303315378725528717041015625" lon="-2.230332233011722564697265625">
        <ele>115.59999847412109375</ele>
        <time>2018-09-02T13:42:34.000Z</time>
      </trkpt>
      <trkpt lat="43.30322376452386379241943359375" lon="-2.2301979549229145050048828125">
        <ele>115.8000030517578125</ele>
        <time>2018-09-02T13:42:40.000Z</time>
      </trkpt>
      <trkpt lat="43.303180597722530364990234375" lon="-2.230182699859142303466796875">
        <ele>115.8000030517578125</ele>
        <time>2018-09-02T13:42:42.000Z</time>
      </trkpt>
      <trkpt lat="43.3031378500163555145263671875" lon="-2.23019711673259735107421875">
        <ele>115.59999847412109375</ele>
        <time>2018-09-02T13:42:44.000Z</time>
      </trkpt>
      <trkpt lat="43.30304187722504138946533203125" lon="-2.2302720509469509124755859375">
        <ele>115.59999847412109375</ele>
        <time>2018-09-02T13:42:49.000Z</time>
      </trkpt>
      <trkpt lat="43.3030248619616031646728515625" lon="-2.2302831150591373443603515625">
        <ele>115.59999847412109375</ele>
        <time>2018-09-02T13:42:50.000Z</time>
      </trkpt>
      <trkpt lat="43.30293810926377773284912109375" lon="-2.23039434291422367095947265625">
        <ele>115.59999847412109375</ele>
        <time>2018-09-02T13:42:54.000Z</time>
      </trkpt>
      <trkpt lat="43.302850015461444854736328125" lon="-2.23046760074794292449951171875">
        <ele>115.40000152587890625</ele>
        <time>2018-09-02T13:42:57.000Z</time>
      </trkpt>
      <trkpt lat="43.302758149802684783935546875" lon="-2.23054270260035991668701171875">
        <ele>115.1999969482421875</ele>
        <time>2018-09-02T13:43:00.000Z</time>
      </trkpt>
      <trkpt lat="43.3027261309325695037841796875" lon="-2.2305717878043651580810546875">
        <ele>115</ele>
        <time>2018-09-02T13:43:01.000Z</time>
      </trkpt>
      <trkpt lat="43.30258556641638278961181640625" lon="-2.23068402148783206939697265625">
        <ele>114.8000030517578125</ele>
        <time>2018-09-02T13:43:05.000Z</time>
      </trkpt>
      <trkpt lat="43.3025527931749820709228515625" lon="-2.2307055629789829254150390625">
        <ele>114.59999847412109375</ele>
        <time>2018-09-02T13:43:06.000Z</time>
      </trkpt>
      <trkpt lat="43.30240099690854549407958984375" lon="-2.23080933094024658203125">
        <ele>114</ele>
        <time>2018-09-02T13:43:10.000Z</time>
      </trkpt>
      <trkpt lat="43.30231399275362491607666015625" lon="-2.2308480553328990936279296875">
        <ele>113.40000152587890625</ele>
        <time>2018-09-02T13:43:12.000Z</time>
      </trkpt>
      <trkpt lat="43.30215054564177989959716796875" lon="-2.23090882413089275360107421875">
        <ele>112.40000152587890625</ele>
        <time>2018-09-02T13:43:15.000Z</time>
      </trkpt>
      <trkpt lat="43.30202682875096797943115234375" lon="-2.23095727153122425079345703125">
        <ele>111.8000030517578125</ele>
        <time>2018-09-02T13:43:17.000Z</time>
      </trkpt>
      <trkpt lat="43.30183253623545169830322265625" lon="-2.23103706724941730499267578125">
        <ele>111</ele>
        <time>2018-09-02T13:43:20.000Z</time>
      </trkpt>
      <trkpt lat="43.30158174969255924224853515625" lon="-2.231128178536891937255859375">
        <ele>110.40000152587890625</ele>
        <time>2018-09-02T13:43:24.000Z</time>
      </trkpt>
      <trkpt lat="43.3014549314975738525390625" lon="-2.23117209970951080322265625">
        <ele>110.1999969482421875</ele>
        <time>2018-09-02T13:43:26.000Z</time>
      </trkpt>
      <trkpt lat="43.3012643270194530487060546875" lon="-2.23124192096292972564697265625">
        <ele>110</ele>
        <time>2018-09-02T13:43:29.000Z</time>
      </trkpt>
      <trkpt lat="43.3010467328131198883056640625" lon="-2.23133227787911891937255859375">
        <ele>110</ele>
        <time>2018-09-02T13:43:33.000Z</time>
      </trkpt>
      <trkpt lat="43.300956375896930694580078125" lon="-2.2313730977475643157958984375">
        <ele>110.8000030517578125</ele>
        <time>2018-09-02T13:43:35.000Z</time>
      </trkpt>
      <trkpt lat="43.30079670064151287078857421875" lon="-2.23144560120999813079833984375">
        <ele>111.1999969482421875</ele>
        <time>2018-09-02T13:43:39.000Z</time>
      </trkpt>
      <trkpt lat="43.3006618358194828033447265625" lon="-2.2315241396427154541015625">
        <ele>112.59999847412109375</ele>
        <time>2018-09-02T13:43:44.000Z</time>
      </trkpt>
      <trkpt lat="43.30064289271831512451171875" lon="-2.231537215411663055419921875">
        <ele>113</ele>
        <time>2018-09-02T13:43:45.000Z</time>
      </trkpt>
      <trkpt lat="43.3006061799824237823486328125" lon="-2.2315554879605770111083984375">
        <ele>113.59999847412109375</ele>
        <time>2018-09-02T13:43:47.000Z</time>
      </trkpt>
      <trkpt lat="43.300568796694278717041015625" lon="-2.23155909217894077301025390625">
        <ele>114</ele>
        <time>2018-09-02T13:43:49.000Z</time>
      </trkpt>
      <trkpt lat="43.30053468234837055206298828125" lon="-2.231575436890125274658203125">
        <ele>114.40000152587890625</ele>
        <time>2018-09-02T13:43:51.000Z</time>
      </trkpt>
      <trkpt lat="43.30052043311297893524169921875" lon="-2.2315906919538974761962890625">
        <ele>114.59999847412109375</ele>
        <time>2018-09-02T13:43:52.000Z</time>
      </trkpt>
      <trkpt lat="43.3004750870168209075927734375" lon="-2.2316225431859493255615234375">
        <ele>115</ele>
        <time>2018-09-02T13:43:55.000Z</time>
      </trkpt>
      <trkpt lat="43.3004288189113140106201171875" lon="-2.23164148628711700439453125">
        <ele>115.59999847412109375</ele>
        <time>2018-09-02T13:43:58.000Z</time>
      </trkpt>
      <trkpt lat="43.30037492327392101287841796875" lon="-2.2316797077655792236328125">
        <ele>116.40000152587890625</ele>
        <time>2018-09-02T13:44:02.000Z</time>
      </trkpt>
      <trkpt lat="43.300350867211818695068359375" lon="-2.23169337026774883270263671875">
        <ele>116.59999847412109375</ele>
        <time>2018-09-02T13:44:04.000Z</time>
      </trkpt>
      <trkpt lat="43.30033980309963226318359375" lon="-2.23170594312250614166259765625">
        <ele>116.8000030517578125</ele>
        <time>2018-09-02T13:44:05.000Z</time>
      </trkpt>
      <trkpt lat="43.300309292972087860107421875" lon="-2.23175874911248683929443359375">
        <ele>117.59999847412109375</ele>
        <time>2018-09-02T13:44:09.000Z</time>
      </trkpt>
      <trkpt lat="43.3002823032438755035400390625" lon="-2.2317814640700817108154296875">
        <ele>117.8000030517578125</ele>
        <time>2018-09-02T13:44:11.000Z</time>
      </trkpt>
      <trkpt lat="43.30024299211800098419189453125" lon="-2.2318106330931186676025390625">
        <ele>118.40000152587890625</ele>
        <time>2018-09-02T13:44:14.000Z</time>
      </trkpt>
      <trkpt lat="43.30019538290798664093017578125" lon="-2.2318351082503795623779296875">
        <ele>119</ele>
        <time>2018-09-02T13:44:18.000Z</time>
      </trkpt>
      <trkpt lat="43.300096727907657623291015625" lon="-2.23189637996256351470947265625">
        <ele>120</ele>
        <time>2018-09-02T13:44:26.000Z</time>
      </trkpt>
      <trkpt lat="43.300037719309329986572265625" lon="-2.23196041770279407501220703125">
        <ele>121</ele>
        <time>2018-09-02T13:44:32.000Z</time>
      </trkpt>
      <trkpt lat="43.29997099936008453369140625" lon="-2.2321599908173084259033203125">
        <ele>123.1999969482421875</ele>
        <time>2018-09-02T13:44:45.000Z</time>
      </trkpt>
      <trkpt lat="43.29996555112302303314208984375" lon="-2.23225411958992481231689453125">
        <ele>123.8000030517578125</ele>
        <time>2018-09-02T13:44:49.000Z</time>
      </trkpt>
      <trkpt lat="43.299946524202823638916015625" lon="-2.2323018126189708709716796875">
        <ele>124.1999969482421875</ele>
        <time>2018-09-02T13:44:51.000Z</time>
      </trkpt>
      <trkpt lat="43.2999342866241931915283203125" lon="-2.23234799690544605255126953125">
        <ele>124.40000152587890625</ele>
        <time>2018-09-02T13:44:53.000Z</time>
      </trkpt>
      <trkpt lat="43.29992330633103847503662109375" lon="-2.23241086117923259735107421875">
        <ele>124.40000152587890625</ele>
        <time>2018-09-02T13:44:55.000Z</time>
      </trkpt>
      <trkpt lat="43.2998900301754474639892578125" lon="-2.232557795941829681396484375">
        <ele>124.40000152587890625</ele>
        <time>2018-09-02T13:45:00.000Z</time>
      </trkpt>
      <trkpt lat="43.29987955279648303985595703125" lon="-2.23262786865234375">
        <ele>124.40000152587890625</ele>
        <time>2018-09-02T13:45:02.000Z</time>
      </trkpt>
      <trkpt lat="43.29984468407928943634033203125" lon="-2.2328382544219493865966796875">
        <ele>124.40000152587890625</ele>
        <time>2018-09-02T13:45:07.000Z</time>
      </trkpt>
      <trkpt lat="43.2998313568532466888427734375" lon="-2.232945375144481658935546875">
        <ele>125</ele>
        <time>2018-09-02T13:45:10.000Z</time>
      </trkpt>
      <trkpt lat="43.29982775263488292694091796875" lon="-2.23297563381493091583251953125">
        <ele>125.40000152587890625</ele>
        <time>2018-09-02T13:45:11.000Z</time>
      </trkpt>
      <trkpt lat="43.29978986643254756927490234375" lon="-2.23316238261759281158447265625">
        <ele>126.1999969482421875</ele>
        <time>2018-09-02T13:45:16.000Z</time>
      </trkpt>
      <trkpt lat="43.29972683452069759368896484375" lon="-2.23334527574479579925537109375">
        <ele>126.1999969482421875</ele>
        <time>2018-09-02T13:45:21.000Z</time>
      </trkpt>
      <trkpt lat="43.29971308819949626922607421875" lon="-2.2334042005240917205810546875">
        <ele>126.1999969482421875</ele>
        <time>2018-09-02T13:45:22.000Z</time>
      </trkpt>
      <trkpt lat="43.2996922172605991363525390625" lon="-2.23352372646331787109375">
        <ele>126</ele>
        <time>2018-09-02T13:45:24.000Z</time>
      </trkpt>
      <trkpt lat="43.2996871881186962127685546875" lon="-2.23359405063092708587646484375">
        <ele>125.8000030517578125</ele>
        <time>2018-09-02T13:45:25.000Z</time>
      </trkpt>
      <trkpt lat="43.2996846735477447509765625" lon="-2.23373335786163806915283203125">
        <ele>125</ele>
        <time>2018-09-02T13:45:27.000Z</time>
      </trkpt>
      <trkpt lat="43.29969649203121662139892578125" lon="-2.233889512717723846435546875">
        <ele>124.40000152587890625</ele>
        <time>2018-09-02T13:45:29.000Z</time>
      </trkpt>
      <trkpt lat="43.29971359111368656158447265625" lon="-2.23417240194976329803466796875">
        <ele>122.8000030517578125</ele>
        <time>2018-09-02T13:45:32.000Z</time>
      </trkpt>
      <trkpt lat="43.2997391559183597564697265625" lon="-2.2343674488365650177001953125">
        <ele>122.1999969482421875</ele>
        <time>2018-09-02T13:45:34.000Z</time>
      </trkpt>
      <trkpt lat="43.2997570931911468505859375" lon="-2.23445713520050048828125">
        <ele>121.8000030517578125</ele>
        <time>2018-09-02T13:45:35.000Z</time>
      </trkpt>
      <trkpt lat="43.29978860914707183837890625" lon="-2.23462167195975780487060546875">
        <ele>122.1999969482421875</ele>
        <time>2018-09-02T13:45:37.000Z</time>
      </trkpt>
      <trkpt lat="43.2998021878302097320556640625" lon="-2.23468973301351070404052734375">
        <ele>122.40000152587890625</ele>
        <time>2018-09-02T13:45:38.000Z</time>
      </trkpt>
      <trkpt lat="43.29981065355241298675537109375" lon="-2.234752513468265533447265625">
        <ele>122.59999847412109375</ele>
        <time>2018-09-02T13:45:39.000Z</time>
      </trkpt>
      <trkpt lat="43.29981702379882335662841796875" lon="-2.234808504581451416015625">
        <ele>123</ele>
        <time>2018-09-02T13:45:40.000Z</time>
      </trkpt>
      <trkpt lat="43.299823142588138580322265625" lon="-2.2348556108772754669189453125">
        <ele>123.40000152587890625</ele>
        <time>2018-09-02T13:45:41.000Z</time>
      </trkpt>
      <trkpt lat="43.29982842318713665008544921875" lon="-2.23495401442050933837890625">
        <ele>124</ele>
        <time>2018-09-02T13:45:43.000Z</time>
      </trkpt>
      <trkpt lat="43.2998402416706085205078125" lon="-2.23521863110363483428955078125">
        <ele>124.59999847412109375</ele>
        <time>2018-09-02T13:45:48.000Z</time>
      </trkpt>
      <trkpt lat="43.29984367825090885162353515625" lon="-2.23535458557307720184326171875">
        <ele>125.1999969482421875</ele>
        <time>2018-09-02T13:45:51.000Z</time>
      </trkpt>
      <trkpt lat="43.29984434880316257476806640625" lon="-2.23544075153768062591552734375">
        <ele>126.40000152587890625</ele>
        <time>2018-09-02T13:45:54.000Z</time>
      </trkpt>
      <trkpt lat="43.29984359443187713623046875" lon="-2.23550319671630859375">
        <ele>127</ele>
        <time>2018-09-02T13:45:56.000Z</time>
      </trkpt>
      <trkpt lat="43.29983286559581756591796875" lon="-2.23556555807590484619140625">
        <ele>127.40000152587890625</ele>
        <time>2018-09-02T13:45:58.000Z</time>
      </trkpt>
      <trkpt lat="43.2998253218829631805419921875" lon="-2.23559866659343242645263671875">
        <ele>127.59999847412109375</ele>
        <time>2018-09-02T13:45:59.000Z</time>
      </trkpt>
      <trkpt lat="43.29981786198914051055908203125" lon="-2.2356344573199748992919921875">
        <ele>127.8000030517578125</ele>
        <time>2018-09-02T13:46:00.000Z</time>
      </trkpt>
      <trkpt lat="43.2998065464198589324951171875" lon="-2.235698662698268890380859375">
        <ele>128</ele>
        <time>2018-09-02T13:46:02.000Z</time>
      </trkpt>
      <trkpt lat="43.29979942180216312408447265625" lon="-2.23573110066354274749755859375">
        <ele>128.1999969482421875</ele>
        <time>2018-09-02T13:46:03.000Z</time>
      </trkpt>
      <trkpt lat="43.2997783832252025604248046875" lon="-2.23584023304283618927001953125">
        <ele>128.600006103515625</ele>
        <time>2018-09-02T13:46:06.000Z</time>
      </trkpt>
      <trkpt lat="43.2997700013220310211181640625" lon="-2.23588071763515472412109375">
        <ele>128.8000030517578125</ele>
        <time>2018-09-02T13:46:07.000Z</time>
      </trkpt>
      <trkpt lat="43.29973018728196620941162109375" lon="-2.23604056052863597869873046875">
        <ele>129.8000030517578125</ele>
        <time>2018-09-02T13:46:11.000Z</time>
      </trkpt>
      <trkpt lat="43.29969464801251888275146484375" lon="-2.23619612865149974822998046875">
        <ele>130.600006103515625</ele>
        <time>2018-09-02T13:46:15.000Z</time>
      </trkpt>
      <trkpt lat="43.29968777485191822052001953125" lon="-2.23623602651059627532958984375">
        <ele>130.8000030517578125</ele>
        <time>2018-09-02T13:46:16.000Z</time>
      </trkpt>
      <trkpt lat="43.29965114593505859375" lon="-2.236515395343303680419921875">
        <ele>130.8000030517578125</ele>
        <time>2018-09-02T13:46:23.000Z</time>
      </trkpt>
      <trkpt lat="43.29959004186093807220458984375" lon="-2.2368122823536396026611328125">
        <ele>130</ele>
        <time>2018-09-02T13:46:28.000Z</time>
      </trkpt>
      <trkpt lat="43.29957478679716587066650390625" lon="-2.236900292336940765380859375">
        <ele>129.399993896484375</ele>
        <time>2018-09-02T13:46:29.000Z</time>
      </trkpt>
      <trkpt lat="43.29954863525927066802978515625" lon="-2.23709902726113796234130859375">
        <ele>127.40000152587890625</ele>
        <time>2018-09-02T13:46:31.000Z</time>
      </trkpt>
      <trkpt lat="43.29951904714107513427734375" lon="-2.237385772168636322021484375">
        <ele>126.59999847412109375</ele>
        <time>2018-09-02T13:46:34.000Z</time>
      </trkpt>
      <trkpt lat="43.29950655810534954071044921875" lon="-2.237550057470798492431640625">
        <ele>127</ele>
        <time>2018-09-02T13:46:36.000Z</time>
      </trkpt>
      <trkpt lat="43.29949029721319675445556640625" lon="-2.23770327866077423095703125">
        <ele>127.40000152587890625</ele>
        <time>2018-09-02T13:46:38.000Z</time>
      </trkpt>
      <trkpt lat="43.299473114311695098876953125" lon="-2.2378541529178619384765625">
        <ele>127.1999969482421875</ele>
        <time>2018-09-02T13:46:40.000Z</time>
      </trkpt>
      <trkpt lat="43.29940848983824253082275390625" lon="-2.2385488450527191162109375">
        <ele>127</ele>
        <time>2018-09-02T13:46:49.000Z</time>
      </trkpt>
      <trkpt lat="43.2994038797914981842041015625" lon="-2.23862553946673870086669921875">
        <ele>127</ele>
        <time>2018-09-02T13:46:50.000Z</time>
      </trkpt>
      <trkpt lat="43.2993918098509311676025390625" lon="-2.238905243575572967529296875">
        <ele>127.40000152587890625</ele>
        <time>2018-09-02T13:46:54.000Z</time>
      </trkpt>
      <trkpt lat="43.2993928156793117523193359375" lon="-2.23897238261997699737548828125">
        <ele>127.40000152587890625</ele>
        <time>2018-09-02T13:46:55.000Z</time>
      </trkpt>
      <trkpt lat="43.29939457587897777557373046875" lon="-2.239035665988922119140625">
        <ele>127.1999969482421875</ele>
        <time>2018-09-02T13:46:56.000Z</time>
      </trkpt>
      <trkpt lat="43.29939709044992923736572265625" lon="-2.23909861408174037933349609375">
        <ele>127.1999969482421875</ele>
        <time>2018-09-02T13:46:57.000Z</time>
      </trkpt>
      <trkpt lat="43.29943698830902576446533203125" lon="-2.2395568527281284332275390625">
        <ele>126.1999969482421875</ele>
        <time>2018-09-02T13:47:04.000Z</time>
      </trkpt>
      <trkpt lat="43.29945475794374942779541015625" lon="-2.239628769457340240478515625">
        <ele>126</ele>
        <time>2018-09-02T13:47:05.000Z</time>
      </trkpt>
      <trkpt lat="43.2995446957647800445556640625" lon="-2.23984309472143650054931640625">
        <ele>125</ele>
        <time>2018-09-02T13:47:08.000Z</time>
      </trkpt>
      <trkpt lat="43.2995765469968318939208984375" lon="-2.23991132341325283050537109375">
        <ele>124.40000152587890625</ele>
        <time>2018-09-02T13:47:09.000Z</time>
      </trkpt>
      <trkpt lat="43.2996095716953277587890625" lon="-2.23998407833278179168701171875">
        <ele>123.8000030517578125</ele>
        <time>2018-09-02T13:47:10.000Z</time>
      </trkpt>
      <trkpt lat="43.2996838353574275970458984375" lon="-2.2401211224496364593505859375">
        <ele>123</ele>
        <time>2018-09-02T13:47:12.000Z</time>
      </trkpt>
      <trkpt lat="43.29973286949098110198974609375" lon="-2.2401769459247589111328125">
        <ele>122.40000152587890625</ele>
        <time>2018-09-02T13:47:13.000Z</time>
      </trkpt>
      <trkpt lat="43.29978726804256439208984375" lon="-2.24022296257317066192626953125">
        <ele>121.59999847412109375</ele>
        <time>2018-09-02T13:47:14.000Z</time>
      </trkpt>
      <trkpt lat="43.2998420856893062591552734375" lon="-2.24026453681290149688720703125">
        <ele>120.59999847412109375</ele>
        <time>2018-09-02T13:47:15.000Z</time>
      </trkpt>
      <trkpt lat="43.29989916644990444183349609375" lon="-2.24030275829136371612548828125">
        <ele>119.40000152587890625</ele>
        <time>2018-09-02T13:47:16.000Z</time>
      </trkpt>
      <trkpt lat="43.30002824775874614715576171875" lon="-2.24036939442157745361328125">
        <ele>117.8000030517578125</ele>
        <time>2018-09-02T13:47:18.000Z</time>
      </trkpt>
      <trkpt lat="43.3000995777547359466552734375" lon="-2.240392863750457763671875">
        <ele>117.1999969482421875</ele>
        <time>2018-09-02T13:47:19.000Z</time>
      </trkpt>
      <trkpt lat="43.3001679740846157073974609375" lon="-2.24040552042424678802490234375">
        <ele>115</ele>
        <time>2018-09-02T13:47:20.000Z</time>
      </trkpt>
      <trkpt lat="43.30030920915305614471435546875" lon="-2.24044508300721645355224609375">
        <ele>113.1999969482421875</ele>
        <time>2018-09-02T13:47:22.000Z</time>
      </trkpt>
      <trkpt lat="43.300380706787109375" lon="-2.24049973301589488983154296875">
        <ele>112.1999969482421875</ele>
        <time>2018-09-02T13:47:23.000Z</time>
      </trkpt>
      <trkpt lat="43.30045857466757297515869140625" lon="-2.24056058563292026519775390625">
        <ele>111.59999847412109375</ele>
        <time>2018-09-02T13:47:24.000Z</time>
      </trkpt>
      <trkpt lat="43.30054272897541522979736328125" lon="-2.2406143136322498321533203125">
        <ele>111</ele>
        <time>2018-09-02T13:47:25.000Z</time>
      </trkpt>
      <trkpt lat="43.30062855966389179229736328125" lon="-2.24067625589668750762939453125">
        <ele>110.59999847412109375</ele>
        <time>2018-09-02T13:47:26.000Z</time>
      </trkpt>
      <trkpt lat="43.30071237869560718536376953125" lon="-2.24073886871337890625">
        <ele>109.8000030517578125</ele>
        <time>2018-09-02T13:47:27.000Z</time>
      </trkpt>
      <trkpt lat="43.3007949404418468475341796875" lon="-2.24080416373908519744873046875">
        <ele>109.40000152587890625</ele>
        <time>2018-09-02T13:47:28.000Z</time>
      </trkpt>
      <trkpt lat="43.300955034792423248291015625" lon="-2.24092586897313594818115234375">
        <ele>108</ele>
        <time>2018-09-02T13:47:30.000Z</time>
      </trkpt>
      <trkpt lat="43.30101731233298778533935546875" lon="-2.240972220897674560546875">
        <ele>107.59999847412109375</ele>
        <time>2018-09-02T13:47:31.000Z</time>
      </trkpt>
      <trkpt lat="43.3010702021420001983642578125" lon="-2.24100599996745586395263671875">
        <ele>107.59999847412109375</ele>
        <time>2018-09-02T13:47:32.000Z</time>
      </trkpt>
      <trkpt lat="43.30120146274566650390625" lon="-2.24106618203222751617431640625">
        <ele>106.8000030517578125</ele>
        <time>2018-09-02T13:47:35.000Z</time>
      </trkpt>
      <trkpt lat="43.30124764703214168548583984375" lon="-2.24107774905860424041748046875">
        <ele>106.59999847412109375</ele>
        <time>2018-09-02T13:47:36.000Z</time>
      </trkpt>
      <trkpt lat="43.30134160816669464111328125" lon="-2.2411121986806392669677734375">
        <ele>105.8000030517578125</ele>
        <time>2018-09-02T13:47:38.000Z</time>
      </trkpt>
      <trkpt lat="43.30142073333263397216796875" lon="-2.241176068782806396484375">
        <ele>104</ele>
        <time>2018-09-02T13:47:40.000Z</time>
      </trkpt>
      <trkpt lat="43.30145685933530330657958984375" lon="-2.24121303297579288482666015625">
        <ele>103.1999969482421875</ele>
        <time>2018-09-02T13:47:41.000Z</time>
      </trkpt>
      <trkpt lat="43.30148552544414997100830078125" lon="-2.241248153150081634521484375">
        <ele>102.1999969482421875</ele>
        <time>2018-09-02T13:47:42.000Z</time>
      </trkpt>
      <trkpt lat="43.30153531394898891448974609375" lon="-2.2413302958011627197265625">
        <ele>100.1999969482421875</ele>
        <time>2018-09-02T13:47:44.000Z</time>
      </trkpt>
      <trkpt lat="43.30156615935266017913818359375" lon="-2.2413639910519123077392578125">
        <ele>99.40000152587890625</ele>
        <time>2018-09-02T13:47:45.000Z</time>
      </trkpt>
      <trkpt lat="43.3015965856611728668212890625" lon="-2.2414038889110088348388671875">
        <ele>98.59999847412109375</ele>
        <time>2018-09-02T13:47:46.000Z</time>
      </trkpt>
      <trkpt lat="43.3016270957887172698974609375" lon="-2.241443283855915069580078125">
        <ele>98</ele>
        <time>2018-09-02T13:47:47.000Z</time>
      </trkpt>
      <trkpt lat="43.30165718682110309600830078125" lon="-2.24148158915340900421142578125">
        <ele>97</ele>
        <time>2018-09-02T13:47:48.000Z</time>
      </trkpt>
      <trkpt lat="43.3017192967236042022705078125" lon="-2.241539843380451202392578125">
        <ele>96</ele>
        <time>2018-09-02T13:47:50.000Z</time>
      </trkpt>
      <trkpt lat="43.30175064504146575927734375" lon="-2.241572700440883636474609375">
        <ele>95.59999847412109375</ele>
        <time>2018-09-02T13:47:51.000Z</time>
      </trkpt>
      <trkpt lat="43.30179892480373382568359375" lon="-2.24165475927293300628662109375">
        <ele>94.40000152587890625</ele>
        <time>2018-09-02T13:47:53.000Z</time>
      </trkpt>
      <trkpt lat="43.30182834528386592864990234375" lon="-2.2417616285383701324462890625">
        <ele>93.1999969482421875</ele>
        <time>2018-09-02T13:47:55.000Z</time>
      </trkpt>
      <trkpt lat="43.30185298807919025421142578125" lon="-2.24188509397208690643310546875">
        <ele>92</ele>
        <time>2018-09-02T13:47:57.000Z</time>
      </trkpt>
      <trkpt lat="43.30188299529254436492919921875" lon="-2.24201627075672149658203125">
        <ele>91</ele>
        <time>2018-09-02T13:47:59.000Z</time>
      </trkpt>
      <trkpt lat="43.30191836692392826080322265625" lon="-2.242164798080921173095703125">
        <ele>89.8000030517578125</ele>
        <time>2018-09-02T13:48:01.000Z</time>
      </trkpt>
      <trkpt lat="43.301952145993709564208984375" lon="-2.2423258982598781585693359375">
        <ele>88.59999847412109375</ele>
        <time>2018-09-02T13:48:03.000Z</time>
      </trkpt>
      <trkpt lat="43.3019886910915374755859375" lon="-2.24249194376170635223388671875">
        <ele>87.59999847412109375</ele>
        <time>2018-09-02T13:48:05.000Z</time>
      </trkpt>
      <trkpt lat="43.30203755758702754974365234375" lon="-2.2427325882017612457275390625">
        <ele>86.59999847412109375</ele>
        <time>2018-09-02T13:48:08.000Z</time>
      </trkpt>
      <trkpt lat="43.30206572078168392181396484375" lon="-2.24301849491894245147705078125">
        <ele>86.40000152587890625</ele>
        <time>2018-09-02T13:48:12.000Z</time>
      </trkpt>
      <trkpt lat="43.3020575903356075286865234375" lon="-2.2430836223065853118896484375">
        <ele>86.8000030517578125</ele>
        <time>2018-09-02T13:48:13.000Z</time>
      </trkpt>
      <trkpt lat="43.30196212045848369598388671875" lon="-2.2433625720441341400146484375">
        <ele>86.40000152587890625</ele>
        <time>2018-09-02T13:48:18.000Z</time>
      </trkpt>
      <trkpt lat="43.30194015987217426300048828125" lon="-2.24340833723545074462890625">
        <ele>86</ele>
        <time>2018-09-02T13:48:19.000Z</time>
      </trkpt>
      <trkpt lat="43.30192037858068943023681640625" lon="-2.2434460557997226715087890625">
        <ele>85.59999847412109375</ele>
        <time>2018-09-02T13:48:20.000Z</time>
      </trkpt>
      <trkpt lat="43.30184376798570156097412109375" lon="-2.24356868304312229156494140625">
        <ele>84.1999969482421875</ele>
        <time>2018-09-02T13:48:23.000Z</time>
      </trkpt>
      <trkpt lat="43.3017712645232677459716796875" lon="-2.2436934895813465118408203125">
        <ele>83</ele>
        <time>2018-09-02T13:48:25.000Z</time>
      </trkpt>
      <trkpt lat="43.30170462839305400848388671875" lon="-2.24381024949252605438232421875">
        <ele>81.40000152587890625</ele>
        <time>2018-09-02T13:48:27.000Z</time>
      </trkpt>
      <trkpt lat="43.301651738584041595458984375" lon="-2.2439094074070453643798828125">
        <ele>80.40000152587890625</ele>
        <time>2018-09-02T13:48:29.000Z</time>
      </trkpt>
      <trkpt lat="43.3016029559075832366943359375" lon="-2.24400940351188182830810546875">
        <ele>79.1999969482421875</ele>
        <time>2018-09-02T13:48:31.000Z</time>
      </trkpt>
      <trkpt lat="43.30157739110291004180908203125" lon="-2.24406153894960880279541015625">
        <ele>77.1999969482421875</ele>
        <time>2018-09-02T13:48:32.000Z</time>
      </trkpt>
      <trkpt lat="43.30154688097536563873291015625" lon="-2.2441149316728115081787109375">
        <ele>76.40000152587890625</ele>
        <time>2018-09-02T13:48:33.000Z</time>
      </trkpt>
      <trkpt lat="43.30151595175266265869140625" lon="-2.2441722638905048370361328125">
        <ele>75.1999969482421875</ele>
        <time>2018-09-02T13:48:34.000Z</time>
      </trkpt>
      <trkpt lat="43.30148451961576938629150390625" lon="-2.2442282550036907196044921875">
        <ele>74.1999969482421875</ele>
        <time>2018-09-02T13:48:35.000Z</time>
      </trkpt>
      <trkpt lat="43.30145233310759067535400390625" lon="-2.24428567104041576385498046875">
        <ele>73.1999969482421875</ele>
        <time>2018-09-02T13:48:36.000Z</time>
      </trkpt>
      <trkpt lat="43.3014182187616825103759765625" lon="-2.2443459369242191314697265625">
        <ele>72</ele>
        <time>2018-09-02T13:48:37.000Z</time>
      </trkpt>
      <trkpt lat="43.3013771474361419677734375" lon="-2.24440989084541797637939453125">
        <ele>70.40000152587890625</ele>
        <time>2018-09-02T13:48:38.000Z</time>
      </trkpt>
      <trkpt lat="43.3013270236551761627197265625" lon="-2.2444823943078517913818359375">
        <ele>68.40000152587890625</ele>
        <time>2018-09-02T13:48:39.000Z</time>
      </trkpt>
      <trkpt lat="43.30127497203648090362548828125" lon="-2.2445561550557613372802734375">
        <ele>67</ele>
        <time>2018-09-02T13:48:40.000Z</time>
      </trkpt>
      <trkpt lat="43.301227279007434844970703125" lon="-2.24462932907044887542724609375">
        <ele>65.59999847412109375</ele>
        <time>2018-09-02T13:48:41.000Z</time>
      </trkpt>
      <trkpt lat="43.30117640085518360137939453125" lon="-2.24470493383705615997314453125">
        <ele>64.1999969482421875</ele>
        <time>2018-09-02T13:48:42.000Z</time>
      </trkpt>
      <trkpt lat="43.3011277019977569580078125" lon="-2.2447670437395572662353515625">
        <ele>62.59999847412109375</ele>
        <time>2018-09-02T13:48:43.000Z</time>
      </trkpt>
      <trkpt lat="43.3010792545974254608154296875" lon="-2.24482119083404541015625">
        <ele>61.799999237060546875</ele>
        <time>2018-09-02T13:48:44.000Z</time>
      </trkpt>
      <trkpt lat="43.3010316453874111175537109375" lon="-2.24487475119531154632568359375">
        <ele>61.40000152587890625</ele>
        <time>2018-09-02T13:48:45.000Z</time>
      </trkpt>
      <trkpt lat="43.30088705755770206451416015625" lon="-2.24501363933086395263671875">
        <ele>60.40000152587890625</ele>
        <time>2018-09-02T13:48:48.000Z</time>
      </trkpt>
      <trkpt lat="43.30082989297807216644287109375" lon="-2.245042137801647186279296875">
        <ele>60</ele>
        <time>2018-09-02T13:48:49.000Z</time>
      </trkpt>
      <trkpt lat="43.30077163875102996826171875" lon="-2.2450590692460536956787109375">
        <ele>59.40000152587890625</ele>
        <time>2018-09-02T13:48:50.000Z</time>
      </trkpt>
      <trkpt lat="43.30071263015270233154296875" lon="-2.24506787024438381195068359375">
        <ele>58.59999847412109375</ele>
        <time>2018-09-02T13:48:51.000Z</time>
      </trkpt>
      <trkpt lat="43.30058916471898555755615234375" lon="-2.24506518803536891937255859375">
        <ele>57.200000762939453125</ele>
        <time>2018-09-02T13:48:53.000Z</time>
      </trkpt>
      <trkpt lat="43.30045941285789012908935546875" lon="-2.245059907436370849609375">
        <ele>55.40000152587890625</ele>
        <time>2018-09-02T13:48:55.000Z</time>
      </trkpt>
      <trkpt lat="43.300399817526340484619140625" lon="-2.24505546502768993377685546875">
        <ele>53.40000152587890625</ele>
        <time>2018-09-02T13:48:56.000Z</time>
      </trkpt>
      <trkpt lat="43.3003426529467105865478515625" lon="-2.2450590692460536956787109375">
        <ele>52.59999847412109375</ele>
        <time>2018-09-02T13:48:57.000Z</time>
      </trkpt>
      <trkpt lat="43.30028557218611240386962890625" lon="-2.24507373757660388946533203125">
        <ele>51.59999847412109375</ele>
        <time>2018-09-02T13:48:58.000Z</time>
      </trkpt>
      <trkpt lat="43.30022941343486309051513671875" lon="-2.2451046667993068695068359375">
        <ele>50.40000152587890625</ele>
        <time>2018-09-02T13:48:59.000Z</time>
      </trkpt>
      <trkpt lat="43.30017543397843837738037109375" lon="-2.24514967761933803558349609375">
        <ele>49</ele>
        <time>2018-09-02T13:49:00.000Z</time>
      </trkpt>
      <trkpt lat="43.30012933351099491119384765625" lon="-2.24521321244537830352783203125">
        <ele>47.200000762939453125</ele>
        <time>2018-09-02T13:49:01.000Z</time>
      </trkpt>
      <trkpt lat="43.3000925369560718536376953125" lon="-2.2452816925942897796630859375">
        <ele>45.59999847412109375</ele>
        <time>2018-09-02T13:49:02.000Z</time>
      </trkpt>
      <trkpt lat="43.300057165324687957763671875" lon="-2.245341204106807708740234375">
        <ele>44.40000152587890625</ele>
        <time>2018-09-02T13:49:03.000Z</time>
      </trkpt>
      <trkpt lat="43.29996437765657901763916015625" lon="-2.2454298846423625946044921875">
        <ele>42.59999847412109375</ele>
        <time>2018-09-02T13:49:06.000Z</time>
      </trkpt>
      <trkpt lat="43.2999124936759471893310546875" lon="-2.245459891855716705322265625">
        <ele>41.40000152587890625</ele>
        <time>2018-09-02T13:49:07.000Z</time>
      </trkpt>
      <trkpt lat="43.29985206015408039093017578125" lon="-2.24547992460429668426513671875">
        <ele>40.200000762939453125</ele>
        <time>2018-09-02T13:49:08.000Z</time>
      </trkpt>
      <trkpt lat="43.29978869296610355377197265625" lon="-2.245502807199954986572265625">
        <ele>39</ele>
        <time>2018-09-02T13:49:09.000Z</time>
      </trkpt>
      <trkpt lat="43.2996687479317188262939453125" lon="-2.2455522604286670684814453125">
        <ele>37.40000152587890625</ele>
        <time>2018-09-02T13:49:11.000Z</time>
      </trkpt>
      <trkpt lat="43.2995638065040111541748046875" lon="-2.2456129454076290130615234375">
        <ele>35</ele>
        <time>2018-09-02T13:49:13.000Z</time>
      </trkpt>
      <trkpt lat="43.29951041378080844879150390625" lon="-2.2456486523151397705078125">
        <ele>34</ele>
        <time>2018-09-02T13:49:14.000Z</time>
      </trkpt>
      <trkpt lat="43.29945056699216365814208984375" lon="-2.24568896926939487457275390625">
        <ele>32.200000762939453125</ele>
        <time>2018-09-02T13:49:15.000Z</time>
      </trkpt>
      <trkpt lat="43.29939021728932857513427734375" lon="-2.245728783309459686279296875">
        <ele>30.799999237060546875</ele>
        <time>2018-09-02T13:49:16.000Z</time>
      </trkpt>
      <trkpt lat="43.299331963062286376953125" lon="-2.24577312357723712921142578125">
        <ele>29</ele>
        <time>2018-09-02T13:49:17.000Z</time>
      </trkpt>
      <trkpt lat="43.29927370883524417877197265625" lon="-2.2458285279572010040283203125">
        <ele>27.3999996185302734375</ele>
        <time>2018-09-02T13:49:18.000Z</time>
      </trkpt>
      <trkpt lat="43.29921319149434566497802734375" lon="-2.24589616991579532623291015625">
        <ele>26.200000762939453125</ele>
        <time>2018-09-02T13:49:19.000Z</time>
      </trkpt>
      <trkpt lat="43.29916055314242839813232421875" lon="-2.24596221931278705596923828125">
        <ele>25</ele>
        <time>2018-09-02T13:49:20.000Z</time>
      </trkpt>
      <trkpt lat="43.29910732805728912353515625" lon="-2.24602759815752506256103515625">
        <ele>22.3999996185302734375</ele>
        <time>2018-09-02T13:49:21.000Z</time>
      </trkpt>
      <trkpt lat="43.299056030809879302978515625" lon="-2.2460831701755523681640625">
        <ele>21</ele>
        <time>2018-09-02T13:49:22.000Z</time>
      </trkpt>
      <trkpt lat="43.299007751047611236572265625" lon="-2.24613069556653499603271484375">
        <ele>19.799999237060546875</ele>
        <time>2018-09-02T13:49:23.000Z</time>
      </trkpt>
      <trkpt lat="43.29892653040587902069091796875" lon="-2.246220298111438751220703125">
        <ele>18</ele>
        <time>2018-09-02T13:49:25.000Z</time>
      </trkpt>
      <trkpt lat="43.298889733850955963134765625" lon="-2.24630386568605899810791015625">
        <ele>16.200000762939453125</ele>
        <time>2018-09-02T13:49:27.000Z</time>
      </trkpt>
      <trkpt lat="43.29888998530805110931396484375" lon="-2.24634208716452121734619140625">
        <ele>15.6000003814697265625</ele>
        <time>2018-09-02T13:49:28.000Z</time>
      </trkpt>
      <trkpt lat="43.298891074955463409423828125" lon="-2.2463740222156047821044921875">
        <ele>15</ele>
        <time>2018-09-02T13:49:29.000Z</time>
      </trkpt>
      <trkpt lat="43.29889803193509578704833984375" lon="-2.246395647525787353515625">
        <ele>14.6000003814697265625</ele>
        <time>2018-09-02T13:49:30.000Z</time>
      </trkpt>
      <trkpt lat="43.29891144298017024993896484375" lon="-2.2464223019778728485107421875">
        <ele>14</ele>
        <time>2018-09-02T13:49:32.000Z</time>
      </trkpt>
      <trkpt lat="43.2989435456693172454833984375" lon="-2.24643118679523468017578125">
        <ele>14</ele>
        <time>2018-09-02T13:49:35.000Z</time>
      </trkpt>
      <trkpt lat="43.29895175993442535400390625" lon="-2.24648416042327880859375">
        <ele>13.80000019073486328125</ele>
        <time>2018-09-02T13:49:49.000Z</time>
      </trkpt>
      <trkpt lat="43.2989334873855113983154296875" lon="-2.24649966694414615631103515625">
        <ele>13.80000019073486328125</ele>
        <time>2018-09-02T13:49:50.000Z</time>
      </trkpt>
      <trkpt lat="43.29891378991305828094482421875" lon="-2.246519029140472412109375">
        <ele>13.80000019073486328125</ele>
        <time>2018-09-02T13:49:51.000Z</time>
      </trkpt>
      <trkpt lat="43.2987708784639835357666015625" lon="-2.24666110239923000335693359375">
        <ele>13.6000003814697265625</ele>
        <time>2018-09-02T13:49:56.000Z</time>
      </trkpt>
      <trkpt lat="43.2985794357955455780029296875" lon="-2.24689948372542858123779296875">
        <ele>13.3999996185302734375</ele>
        <time>2018-09-02T13:50:02.000Z</time>
      </trkpt>
      <trkpt lat="43.298433758318424224853515625" lon="-2.2470675408840179443359375">
        <ele>13</ele>
        <time>2018-09-02T13:50:06.000Z</time>
      </trkpt>
      <trkpt lat="43.29832722432911396026611328125" lon="-2.2472145594656467437744140625">
        <ele>12.3999996185302734375</ele>
        <time>2018-09-02T13:50:09.000Z</time>
      </trkpt>
      <trkpt lat="43.29815522767603397369384765625" lon="-2.24746023304760456085205078125">
        <ele>12.3999996185302734375</ele>
        <time>2018-09-02T13:50:14.000Z</time>
      </trkpt>
      <trkpt lat="43.29799018800258636474609375" lon="-2.247690819203853607177734375">
        <ele>12.3999996185302734375</ele>
        <time>2018-09-02T13:50:19.000Z</time>
      </trkpt>
      <trkpt lat="43.29788901843130588531494140625" lon="-2.2478234209120273590087890625">
        <ele>11.80000019073486328125</ele>
        <time>2018-09-02T13:50:22.000Z</time>
      </trkpt>
      <trkpt lat="43.2977509684860706329345703125" lon="-2.2480054758489131927490234375">
        <ele>11.6000003814697265625</ele>
        <time>2018-09-02T13:50:26.000Z</time>
      </trkpt>
      <trkpt lat="43.29756514169275760650634765625" lon="-2.24825198762118816375732421875">
        <ele>11.6000003814697265625</ele>
        <time>2018-09-02T13:50:31.000Z</time>
      </trkpt>
      <trkpt lat="43.29749188385903835296630859375" lon="-2.2483531571924686431884765625">
        <ele>11.3999996185302734375</ele>
        <time>2018-09-02T13:50:33.000Z</time>
      </trkpt>
      <trkpt lat="43.29714437015354633331298828125" lon="-2.248837463557720184326171875">
        <ele>11.19999980926513671875</ele>
        <time>2018-09-02T13:50:42.000Z</time>
      </trkpt>
      <trkpt lat="43.29700992442667484283447265625" lon="-2.24903033114969730377197265625">
        <ele>11</ele>
        <time>2018-09-02T13:50:46.000Z</time>
      </trkpt>
      <trkpt lat="43.29690917395055294036865234375" lon="-2.2491665370762348175048828125">
        <ele>11</ele>
        <time>2018-09-02T13:50:49.000Z</time>
      </trkpt>
      <trkpt lat="43.29684128053486347198486328125" lon="-2.24925714544951915740966796875">
        <ele>10.80000019073486328125</ele>
        <time>2018-09-02T13:50:51.000Z</time>
      </trkpt>
      <trkpt lat="43.2966053299605846405029296875" lon="-2.24957850761711597442626953125">
        <ele>11</ele>
        <time>2018-09-02T13:50:58.000Z</time>
      </trkpt>
      <trkpt lat="43.2964668609201908111572265625" lon="-2.24975553341209888458251953125">
        <ele>11</ele>
        <time>2018-09-02T13:51:02.000Z</time>
      </trkpt>
      <trkpt lat="43.29636468552052974700927734375" lon="-2.24990288726985454559326171875">
        <ele>11.3999996185302734375</ele>
        <time>2018-09-02T13:51:05.000Z</time>
      </trkpt>
      <trkpt lat="43.296126388013362884521484375" lon="-2.25021217949688434600830078125">
        <ele>11.3999996185302734375</ele>
        <time>2018-09-02T13:51:12.000Z</time>
      </trkpt>
      <trkpt lat="43.29609713517129421234130859375" lon="-2.25025090388953685760498046875">
        <ele>11.6000003814697265625</ele>
        <time>2018-09-02T13:51:13.000Z</time>
      </trkpt>
      <trkpt lat="43.29589362256228923797607421875" lon="-2.25052381865680217742919921875">
        <ele>11.80000019073486328125</ele>
        <time>2018-09-02T13:51:20.000Z</time>
      </trkpt>
      <trkpt lat="43.295726738870143890380859375" lon="-2.250754572451114654541015625">
        <ele>12</ele>
        <time>2018-09-02T13:51:27.000Z</time>
      </trkpt>
      <trkpt lat="43.29572129063308238983154296875" lon="-2.250794135034084320068359375">
        <ele>12</ele>
        <time>2018-09-02T13:51:28.000Z</time>
      </trkpt>
      <trkpt lat="43.29576252959668636322021484375" lon="-2.25091181695461273193359375">
        <ele>11.6000003814697265625</ele>
        <time>2018-09-02T13:51:31.000Z</time>
      </trkpt>
      <trkpt lat="43.29578801058232784271240234375" lon="-2.250944338738918304443359375">
        <ele>11.3999996185302734375</ele>
        <time>2018-09-02T13:51:32.000Z</time>
      </trkpt>
      <trkpt lat="43.2958358712494373321533203125" lon="-2.250981219112873077392578125">
        <ele>11.3999996185302734375</ele>
        <time>2018-09-02T13:51:34.000Z</time>
      </trkpt>
      <trkpt lat="43.29586411826312541961669921875" lon="-2.2510172612965106964111328125">
        <ele>11.80000019073486328125</ele>
        <time>2018-09-02T13:51:36.000Z</time>
      </trkpt>
      <trkpt lat="43.295873589813709259033203125" lon="-2.25103997625410556793212890625">
        <ele>11.80000019073486328125</ele>
        <time>2018-09-02T13:51:37.000Z</time>
      </trkpt>
      <trkpt lat="43.2958653755486011505126953125" lon="-2.2510591708123683929443359375">
        <ele>11.6000003814697265625</ele>
        <time>2018-09-02T13:51:38.000Z</time>
      </trkpt>
      <trkpt lat="43.2958234660327434539794921875" lon="-2.251053638756275177001953125">
        <ele>11.80000019073486328125</ele>
        <time>2018-09-02T13:51:40.000Z</time>
      </trkpt>
      <trkpt lat="43.2957136631011962890625" lon="-2.250998653471469879150390625">
        <ele>12.19999980926513671875</ele>
        <time>2018-09-02T13:51:44.000Z</time>
      </trkpt>
      <trkpt lat="43.295650966465473175048828125" lon="-2.2510182671248912811279296875">
        <ele>12.19999980926513671875</ele>
        <time>2018-09-02T13:51:46.000Z</time>
      </trkpt>
      <trkpt lat="43.2956192828714847564697265625" lon="-2.25102622993290424346923828125">
        <ele>12.19999980926513671875</ele>
        <time>2018-09-02T13:51:47.000Z</time>
      </trkpt>
      <trkpt lat="43.2955513894557952880859375" lon="-2.2510487772524356842041015625">
        <ele>12.19999980926513671875</ele>
        <time>2018-09-02T13:51:49.000Z</time>
      </trkpt>
      <trkpt lat="43.29535617493093013763427734375" lon="-2.25116335786879062652587890625">
        <ele>12.3999996185302734375</ele>
        <time>2018-09-02T13:51:55.000Z</time>
      </trkpt>
      <trkpt lat="43.29516255296766757965087890625" lon="-2.2514420561492443084716796875">
        <ele>12</ele>
        <time>2018-09-02T13:52:03.000Z</time>
      </trkpt>
      <trkpt lat="43.294980414211750030517578125" lon="-2.25171270780265331268310546875">
        <ele>12.19999980926513671875</ele>
        <time>2018-09-02T13:52:11.000Z</time>
      </trkpt>
      <trkpt lat="43.2948132790625095367431640625" lon="-2.25195896811783313751220703125">
        <ele>12.19999980926513671875</ele>
        <time>2018-09-02T13:52:18.000Z</time>
      </trkpt>
      <trkpt lat="43.294659219682216644287109375" lon="-2.252197265625">
        <ele>11</ele>
        <time>2018-09-02T13:52:24.000Z</time>
      </trkpt>
      <trkpt lat="43.2945205830037593841552734375" lon="-2.2523821704089641571044921875">
        <ele>11.6000003814697265625</ele>
        <time>2018-09-02T13:52:30.000Z</time>
      </trkpt>
      <trkpt lat="43.2944267056882381439208984375" lon="-2.25250580348074436187744140625">
        <ele>11.19999980926513671875</ele>
        <time>2018-09-02T13:52:34.000Z</time>
      </trkpt>
      <trkpt lat="43.29432251863181591033935546875" lon="-2.252626754343509674072265625">
        <ele>11.80000019073486328125</ele>
        <time>2018-09-02T13:52:38.000Z</time>
      </trkpt>
      <trkpt lat="43.2941279746592044830322265625" lon="-2.25289908237755298614501953125">
        <ele>11</ele>
        <time>2018-09-02T13:52:46.000Z</time>
      </trkpt>
      <trkpt lat="43.294031582772731781005859375" lon="-2.25303738377988338470458984375">
        <ele>12</ele>
        <time>2018-09-02T13:52:50.000Z</time>
      </trkpt>
      <trkpt lat="43.29395882785320281982421875" lon="-2.2531667165458202362060546875">
        <ele>11.3999996185302734375</ele>
        <time>2018-09-02T13:52:53.000Z</time>
      </trkpt>
      <trkpt lat="43.293882720172405242919921875" lon="-2.253373079001903533935546875">
        <ele>10.80000019073486328125</ele>
        <time>2018-09-02T13:52:57.000Z</time>
      </trkpt>
      <trkpt lat="43.2938708178699016571044921875" lon="-2.2534270584583282470703125">
        <ele>10.6000003814697265625</ele>
        <time>2018-09-02T13:52:58.000Z</time>
      </trkpt>
      <trkpt lat="43.2938641123473644256591796875" lon="-2.253474332392215728759765625">
        <ele>10.3999996185302734375</ele>
        <time>2018-09-02T13:52:59.000Z</time>
      </trkpt>
      <trkpt lat="43.2939073629677295684814453125" lon="-2.2535898350179195404052734375">
        <ele>10.19999980926513671875</ele>
        <time>2018-09-02T13:53:02.000Z</time>
      </trkpt>
      <trkpt lat="43.294016830623149871826171875" lon="-2.25362076424062252044677734375">
        <ele>10</ele>
        <time>2018-09-02T13:53:05.000Z</time>
      </trkpt>
      <trkpt lat="43.29409654252231121063232421875" lon="-2.25363803096115589141845703125">
        <ele>9.6000003814697265625</ele>
        <time>2018-09-02T13:53:07.000Z</time>
      </trkpt>
      <trkpt lat="43.2941353507339954376220703125" lon="-2.2536481730639934539794921875">
        <ele>9</ele>
        <time>2018-09-02T13:53:08.000Z</time>
      </trkpt>
      <trkpt lat="43.29416577704250812530517578125" lon="-2.2536719776690006256103515625">
        <ele>8.3999996185302734375</ele>
        <time>2018-09-02T13:53:09.000Z</time>
      </trkpt>
      <trkpt lat="43.29420265741646289825439453125" lon="-2.25371615029871463775634765625">
        <ele>8.19999980926513671875</ele>
        <time>2018-09-02T13:53:10.000Z</time>
      </trkpt>
      <trkpt lat="43.29429469071328639984130859375" lon="-2.25395503453910350799560546875">
        <ele>7.80000019073486328125</ele>
        <time>2018-09-02T13:53:14.000Z</time>
      </trkpt>
      <trkpt lat="43.29433274455368518829345703125" lon="-2.2540692798793315887451171875">
        <ele>7.400000095367431640625</ele>
        <time>2018-09-02T13:53:16.000Z</time>
      </trkpt>
      <trkpt lat="43.2944370992481708526611328125" lon="-2.2544194757938385009765625">
        <ele>8</ele>
        <time>2018-09-02T13:53:22.000Z</time>
      </trkpt>
      <trkpt lat="43.2945085130631923675537109375" lon="-2.25464335642755031585693359375">
        <ele>8.3999996185302734375</ele>
        <time>2018-09-02T13:53:26.000Z</time>
      </trkpt>
      <trkpt lat="43.29452385194599628448486328125" lon="-2.254693396389484405517578125">
        <ele>8.3999996185302734375</ele>
        <time>2018-09-02T13:53:27.000Z</time>
      </trkpt>
      <trkpt lat="43.29455486498773097991943359375" lon="-2.254794649779796600341796875">
        <ele>8.3999996185302734375</ele>
        <time>2018-09-02T13:53:29.000Z</time>
      </trkpt>
      <trkpt lat="43.29470179975032806396484375" lon="-2.2551907785236835479736328125">
        <ele>7.80000019073486328125</ele>
        <time>2018-09-02T13:53:37.000Z</time>
      </trkpt>
      <trkpt lat="43.2947928272187709808349609375" lon="-2.25533746182918548583984375">
        <ele>8.19999980926513671875</ele>
        <time>2018-09-02T13:53:41.000Z</time>
      </trkpt>
      <trkpt lat="43.29484169371426105499267578125" lon="-2.25540678016841411590576171875">
        <ele>8.19999980926513671875</ele>
        <time>2018-09-02T13:53:43.000Z</time>
      </trkpt>
      <trkpt lat="43.2949344813823699951171875" lon="-2.25550166331231594085693359375">
        <ele>8.3999996185302734375</ele>
        <time>2018-09-02T13:53:46.000Z</time>
      </trkpt>
      <trkpt lat="43.29503213055431842803955078125" lon="-2.25558380596339702606201171875">
        <ele>8.3999996185302734375</ele>
        <time>2018-09-02T13:53:49.000Z</time>
      </trkpt>
      <trkpt lat="43.295159451663494110107421875" lon="-2.25570802576839923858642578125">
        <ele>8.19999980926513671875</ele>
        <time>2018-09-02T13:53:53.000Z</time>
      </trkpt>
      <trkpt lat="43.29523161984980106353759765625" lon="-2.2557691298425197601318359375">
        <ele>8.19999980926513671875</ele>
        <time>2018-09-02T13:53:55.000Z</time>
      </trkpt>
      <trkpt lat="43.295330107212066650390625" lon="-2.255864180624485015869140625">
        <ele>7.80000019073486328125</ele>
        <time>2018-09-02T13:53:58.000Z</time>
      </trkpt>
      <trkpt lat="43.29545943997800350189208984375" lon="-2.25598228164017200469970703125">
        <ele>8</ele>
        <time>2018-09-02T13:54:02.000Z</time>
      </trkpt>
      <trkpt lat="43.29557678662240505218505859375" lon="-2.25608806125819683074951171875">
        <ele>8.3999996185302734375</ele>
        <time>2018-09-02T13:54:06.000Z</time>
      </trkpt>
      <trkpt lat="43.2957101427018642425537109375" lon="-2.25622636266052722930908203125">
        <ele>8.6000003814697265625</ele>
        <time>2018-09-02T13:54:11.000Z</time>
      </trkpt>
      <trkpt lat="43.29581483267247676849365234375" lon="-2.25636147893965244293212890625">
        <ele>8.6000003814697265625</ele>
        <time>2018-09-02T13:54:17.000Z</time>
      </trkpt>
      <trkpt lat="43.2958365418016910552978515625" lon="-2.2563667595386505126953125">
        <ele>8.6000003814697265625</ele>
        <time>2018-09-02T13:54:18.000Z</time>
      </trkpt>
      <trkpt lat="43.29586043022572994232177734375" lon="-2.256362400949001312255859375">
        <ele>8.6000003814697265625</ele>
        <time>2018-09-02T13:54:19.000Z</time>
      </trkpt>
      <trkpt lat="43.29590552486479282379150390625" lon="-2.25635359995067119598388671875">
        <ele>9</ele>
        <time>2018-09-02T13:54:21.000Z</time>
      </trkpt>
      <trkpt lat="43.2959686405956745147705078125" lon="-2.25632241927087306976318359375">
        <ele>9.3999996185302734375</ele>
        <time>2018-09-02T13:54:24.000Z</time>
      </trkpt>
      <trkpt lat="43.29598632641136646270751953125" lon="-2.2563119418919086456298828125">
        <ele>9.6000003814697265625</ele>
        <time>2018-09-02T13:54:25.000Z</time>
      </trkpt>
      <trkpt lat="43.29601767472922801971435546875" lon="-2.256308086216449737548828125">
        <ele>9.80000019073486328125</ele>
        <time>2018-09-02T13:54:27.000Z</time>
      </trkpt>
      <trkpt lat="43.2960502803325653076171875" lon="-2.256325185298919677734375">
        <ele>9.80000019073486328125</ele>
        <time>2018-09-02T13:54:29.000Z</time>
      </trkpt>
      <trkpt lat="43.2960957102477550506591796875" lon="-2.2563820146024227142333984375">
        <ele>10</ele>
        <time>2018-09-02T13:54:32.000Z</time>
      </trkpt>
      <trkpt lat="43.29614675603806972503662109375" lon="-2.25642283447086811065673828125">
        <ele>10.6000003814697265625</ele>
        <time>2018-09-02T13:54:35.000Z</time>
      </trkpt>
      <trkpt lat="43.29616033472120761871337890625" lon="-2.25643943063914775848388671875">
        <ele>10.6000003814697265625</ele>
        <time>2018-09-02T13:54:36.000Z</time>
      </trkpt>
      <trkpt lat="43.2961875759065151214599609375" lon="-2.25647865794599056243896484375">
        <ele>10.80000019073486328125</ele>
        <time>2018-09-02T13:54:38.000Z</time>
      </trkpt>
      <trkpt lat="43.2962988875806331634521484375" lon="-2.25657706148922443389892578125">
        <ele>10.19999980926513671875</ele>
        <time>2018-09-02T13:54:43.000Z</time>
      </trkpt>
      <trkpt lat="43.296360410749912261962890625" lon="-2.25663506425917148590087890625">
        <ele>9.3999996185302734375</ele>
        <time>2018-09-02T13:54:48.000Z</time>
      </trkpt>
      <trkpt lat="43.2964101992547512054443359375" lon="-2.256676889955997467041015625">
        <ele>8.6000003814697265625</ele>
        <time>2018-09-02T13:54:50.000Z</time>
      </trkpt>
      <trkpt lat="43.29643308185040950775146484375" lon="-2.25668066181242465972900390625">
        <ele>8.6000003814697265625</ele>
        <time>2018-09-02T13:54:51.000Z</time>
      </trkpt>
      <trkpt lat="43.29649209044873714447021484375" lon="-2.25666993297636508941650390625">
        <ele>8.6000003814697265625</ele>
        <time>2018-09-02T13:54:54.000Z</time>
      </trkpt>
      <trkpt lat="43.29650466330349445343017578125" lon="-2.25667915306985378265380859375">
        <ele>8.6000003814697265625</ele>
        <time>2018-09-02T13:54:55.000Z</time>
      </trkpt>
      <trkpt lat="43.2965143024921417236328125" lon="-2.2566405124962329864501953125">
        <ele>8.6000003814697265625</ele>
        <time>2018-09-02T13:54:59.000Z</time>
      </trkpt>
      <trkpt lat="43.296505250036716461181640625" lon="-2.25668686442077159881591796875">
        <ele>8.6000003814697265625</ele>
        <time>2018-09-02T13:55:02.000Z</time>
      </trkpt>
      <trkpt lat="43.29653115011751651763916015625" lon="-2.2567216493189334869384765625">
        <ele>8.6000003814697265625</ele>
        <time>2018-09-02T13:55:04.000Z</time>
      </trkpt>
      <trkpt lat="43.29655948095023632049560546875" lon="-2.2567608766257762908935546875">
        <ele>8.80000019073486328125</ele>
        <time>2018-09-02T13:55:06.000Z</time>
      </trkpt>
      <trkpt lat="43.29657373018562793731689453125" lon="-2.2567833401262760162353515625">
        <ele>8.80000019073486328125</ele>
        <time>2018-09-02T13:55:07.000Z</time>
      </trkpt>
      <trkpt lat="43.29660172574222087860107421875" lon="-2.25682835094630718231201171875">
        <ele>8.80000019073486328125</ele>
        <time>2018-09-02T13:55:09.000Z</time>
      </trkpt>
      <trkpt lat="43.29663827084004878997802734375" lon="-2.2569016925990581512451171875">
        <ele>8.80000019073486328125</ele>
        <time>2018-09-02T13:55:12.000Z</time>
      </trkpt>
      <trkpt lat="43.29668018035590648651123046875" lon="-2.256981320679187774658203125">
        <ele>8.80000019073486328125</ele>
        <time>2018-09-02T13:55:15.000Z</time>
      </trkpt>
      <trkpt lat="43.29672820866107940673828125" lon="-2.257049046456813812255859375">
        <ele>9.19999980926513671875</ele>
        <time>2018-09-02T13:55:19.000Z</time>
      </trkpt>
      <trkpt lat="43.29674690030515193939208984375" lon="-2.257074527442455291748046875">
        <ele>9.80000019073486328125</ele>
        <time>2018-09-02T13:55:21.000Z</time>
      </trkpt>
      <trkpt lat="43.2967578805983066558837890625" lon="-2.25710964761674404144287109375">
        <ele>10.3999996185302734375</ele>
        <time>2018-09-02T13:55:23.000Z</time>
      </trkpt>
      <trkpt lat="43.29676567576825618743896484375" lon="-2.25711970590054988861083984375">
        <ele>10.6000003814697265625</ele>
        <time>2018-09-02T13:55:24.000Z</time>
      </trkpt>
      <trkpt lat="43.29678051173686981201171875" lon="-2.2571427561342716217041015625">
        <ele>10.80000019073486328125</ele>
        <time>2018-09-02T13:55:26.000Z</time>
      </trkpt>
      <trkpt lat="43.29678880982100963592529296875" lon="-2.25715122185647487640380859375">
        <ele>11</ele>
        <time>2018-09-02T13:55:27.000Z</time>
      </trkpt>
      <trkpt lat="43.29681043513119220733642578125" lon="-2.25717452354729175567626953125">
        <ele>11.6000003814697265625</ele>
        <time>2018-09-02T13:55:30.000Z</time>
      </trkpt>
      <trkpt lat="43.29682569019496440887451171875" lon="-2.25720033980906009674072265625">
        <ele>12</ele>
        <time>2018-09-02T13:55:32.000Z</time>
      </trkpt>
      <trkpt lat="43.29685452394187450408935546875" lon="-2.25724183022975921630859375">
        <ele>12.6000003814697265625</ele>
        <time>2018-09-02T13:55:36.000Z</time>
      </trkpt>
      <trkpt lat="43.29685988835990428924560546875" lon="-2.25726437754929065704345703125">
        <ele>13.19999980926513671875</ele>
        <time>2018-09-02T13:55:38.000Z</time>
      </trkpt>
      <trkpt lat="43.2968872971832752227783203125" lon="-2.25729287602007389068603515625">
        <ele>13.80000019073486328125</ele>
        <time>2018-09-02T13:55:41.000Z</time>
      </trkpt>
      <trkpt lat="43.29690984450280666351318359375" lon="-2.25732305087149143218994140625">
        <ele>14</ele>
        <time>2018-09-02T13:55:43.000Z</time>
      </trkpt>
      <trkpt lat="43.2969152927398681640625" lon="-2.25734383799135684967041015625">
        <ele>14.3999996185302734375</ele>
        <time>2018-09-02T13:55:44.000Z</time>
      </trkpt>
      <trkpt lat="43.29693482257425785064697265625" lon="-2.25738021545112133026123046875">
        <ele>14.6000003814697265625</ele>
        <time>2018-09-02T13:55:46.000Z</time>
      </trkpt>
      <trkpt lat="43.2969396002590656280517578125" lon="-2.25740066729485988616943359375">
        <ele>14.80000019073486328125</ele>
        <time>2018-09-02T13:55:47.000Z</time>
      </trkpt>
      <trkpt lat="43.29696021974086761474609375" lon="-2.25742111913859844207763671875">
        <ele>15</ele>
        <time>2018-09-02T13:55:48.000Z</time>
      </trkpt>
      <trkpt lat="43.2969674281775951385498046875" lon="-2.25746017880737781524658203125">
        <ele>15.3999996185302734375</ele>
        <time>2018-09-02T13:55:50.000Z</time>
      </trkpt>
      <trkpt lat="43.29696835018694400787353515625" lon="-2.2574837319552898406982421875">
        <ele>15.3999996185302734375</ele>
        <time>2018-09-02T13:55:51.000Z</time>
      </trkpt>
      <trkpt lat="43.29696692526340484619140625" lon="-2.2575786150991916656494140625">
        <ele>16</ele>
        <time>2018-09-02T13:55:55.000Z</time>
      </trkpt>
      <trkpt lat="43.2969630695879459381103515625" lon="-2.2576114721596240997314453125">
        <ele>16.6000003814697265625</ele>
        <time>2018-09-02T13:55:57.000Z</time>
      </trkpt>
      <trkpt lat="43.2969305478036403656005859375" lon="-2.257644832134246826171875">
        <ele>17.200000762939453125</ele>
        <time>2018-09-02T13:56:00.000Z</time>
      </trkpt>
      <trkpt lat="43.29691051505506038665771484375" lon="-2.2576810419559478759765625">
        <ele>17.6000003814697265625</ele>
        <time>2018-09-02T13:56:02.000Z</time>
      </trkpt>
      <trkpt lat="43.29689542762935161590576171875" lon="-2.2577180899679660797119140625">
        <ele>17.799999237060546875</ele>
        <time>2018-09-02T13:56:04.000Z</time>
      </trkpt>
      <trkpt lat="43.29687698744237422943115234375" lon="-2.257795035839080810546875">
        <ele>18.799999237060546875</ele>
        <time>2018-09-02T13:56:09.000Z</time>
      </trkpt>
      <trkpt lat="43.2968648336827754974365234375" lon="-2.25781272165477275848388671875">
        <ele>18.799999237060546875</ele>
        <time>2018-09-02T13:56:10.000Z</time>
      </trkpt>
      <trkpt lat="43.29677003435790538787841796875" lon="-2.2579497657716274261474609375">
        <ele>19.799999237060546875</ele>
        <time>2018-09-02T13:56:17.000Z</time>
      </trkpt>
      <trkpt lat="43.2967541925609111785888671875" lon="-2.2579675354063510894775390625">
        <ele>19.799999237060546875</ele>
        <time>2018-09-02T13:56:18.000Z</time>
      </trkpt>
      <trkpt lat="43.29668571241199970245361328125" lon="-2.25812436081469058990478515625">
        <ele>20.3999996185302734375</ele>
        <time>2018-09-02T13:56:24.000Z</time>
      </trkpt>
      <trkpt lat="43.29668772406876087188720703125" lon="-2.2581576369702816009521484375">
        <ele>20.3999996185302734375</ele>
        <time>2018-09-02T13:56:25.000Z</time>
      </trkpt>
      <trkpt lat="43.2967092655599117279052734375" lon="-2.25823022425174713134765625">
        <ele>20.3999996185302734375</ele>
        <time>2018-09-02T13:56:28.000Z</time>
      </trkpt>
      <trkpt lat="43.29672326333820819854736328125" lon="-2.25826601497828960418701171875">
        <ele>20.6000003814697265625</ele>
        <time>2018-09-02T13:56:30.000Z</time>
      </trkpt>
      <trkpt lat="43.2967253588140010833740234375" lon="-2.2582845389842987060546875">
        <ele>20.799999237060546875</ele>
        <time>2018-09-02T13:56:31.000Z</time>
      </trkpt>
      <trkpt lat="43.2967387698590755462646484375" lon="-2.25837497971951961517333984375">
        <ele>21</ele>
        <time>2018-09-02T13:56:35.000Z</time>
      </trkpt>
      <trkpt lat="43.2967417873442173004150390625" lon="-2.25845242850482463836669921875">
        <ele>21.3999996185302734375</ele>
        <time>2018-09-02T13:56:38.000Z</time>
      </trkpt>
      <trkpt lat="43.2967437990009784698486328125" lon="-2.2584949247539043426513671875">
        <ele>21.799999237060546875</ele>
        <time>2018-09-02T13:56:40.000Z</time>
      </trkpt>
      <trkpt lat="43.29675234854221343994140625" lon="-2.258513867855072021484375">
        <ele>22</ele>
        <time>2018-09-02T13:56:41.000Z</time>
      </trkpt>
      <trkpt lat="43.296753354370594024658203125" lon="-2.2585475631058216094970703125">
        <ele>22.3999996185302734375</ele>
        <time>2018-09-02T13:56:43.000Z</time>
      </trkpt>
      <trkpt lat="43.29674874432384967803955078125" lon="-2.25862576626241207122802734375">
        <ele>23</ele>
        <time>2018-09-02T13:56:47.000Z</time>
      </trkpt>
      <trkpt lat="43.2967582158744335174560546875" lon="-2.25865828804671764373779296875">
        <ele>23.200000762939453125</ele>
        <time>2018-09-02T13:56:49.000Z</time>
      </trkpt>
      <trkpt lat="43.29676416702568531036376953125" lon="-2.25867689587175846099853515625">
        <ele>24</ele>
        <time>2018-09-02T13:56:50.000Z</time>
      </trkpt>
      <trkpt lat="43.2967759855091571807861328125" lon="-2.25874747149646282196044921875">
        <ele>23.6000003814697265625</ele>
        <time>2018-09-02T13:56:54.000Z</time>
      </trkpt>
      <trkpt lat="43.29677380621433258056640625" lon="-2.25876674987375736236572265625">
        <ele>23.799999237060546875</ele>
        <time>2018-09-02T13:56:55.000Z</time>
      </trkpt>
      <trkpt lat="43.29676416702568531036376953125" lon="-2.258883677423000335693359375">
        <ele>25.200000762939453125</ele>
        <time>2018-09-02T13:57:01.000Z</time>
      </trkpt>
      <trkpt lat="43.2967602275311946868896484375" lon="-2.258920557796955108642578125">
        <ele>25</ele>
        <time>2018-09-02T13:57:03.000Z</time>
      </trkpt>
      <trkpt lat="43.29675008542835712432861328125" lon="-2.25896573625504970550537109375">
        <ele>25.3999996185302734375</ele>
        <time>2018-09-02T13:57:06.000Z</time>
      </trkpt>
      <trkpt lat="43.29674027860164642333984375" lon="-2.25902013480663299560546875">
        <ele>25.799999237060546875</ele>
        <time>2018-09-02T13:57:09.000Z</time>
      </trkpt>
      <trkpt lat="43.296729885041713714599609375" lon="-2.2590695880353450775146484375">
        <ele>26.200000762939453125</ele>
        <time>2018-09-02T13:57:12.000Z</time>
      </trkpt>
      <trkpt lat="43.29672309570014476776123046875" lon="-2.25908241234719753265380859375">
        <ele>26.3999996185302734375</ele>
        <time>2018-09-02T13:57:13.000Z</time>
      </trkpt>
      <trkpt lat="43.29671571962535381317138671875" lon="-2.25909682922065258026123046875">
        <ele>26.3999996185302734375</ele>
        <time>2018-09-02T13:57:14.000Z</time>
      </trkpt>
      <trkpt lat="43.2967047393321990966796875" lon="-2.2591332904994487762451171875">
        <ele>26.6000003814697265625</ele>
        <time>2018-09-02T13:57:16.000Z</time>
      </trkpt>
      <trkpt lat="43.2966821081936359405517578125" lon="-2.25921937264502048492431640625">
        <ele>27.200000762939453125</ele>
        <time>2018-09-02T13:57:21.000Z</time>
      </trkpt>
      <trkpt lat="43.2966770790517330169677734375" lon="-2.25924074649810791015625">
        <ele>27.3999996185302734375</ele>
        <time>2018-09-02T13:57:22.000Z</time>
      </trkpt>
      <trkpt lat="43.29667833633720874786376953125" lon="-2.25935398600995540618896484375">
        <ele>28.3999996185302734375</ele>
        <time>2018-09-02T13:57:28.000Z</time>
      </trkpt>
      <trkpt lat="43.29667565412819385528564453125" lon="-2.259370498359203338623046875">
        <ele>28.3999996185302734375</ele>
        <time>2018-09-02T13:57:29.000Z</time>
      </trkpt>
      <trkpt lat="43.296662159264087677001953125" lon="-2.2594876773655414581298828125">
        <ele>29.3999996185302734375</ele>
        <time>2018-09-02T13:57:36.000Z</time>
      </trkpt>
      <trkpt lat="43.296657465398311614990234375" lon="-2.2595156729221343994140625">
        <ele>29.6000003814697265625</ele>
        <time>2018-09-02T13:57:38.000Z</time>
      </trkpt>
      <trkpt lat="43.2966549508273601531982421875" lon="-2.25961080752313137054443359375">
        <ele>30.6000003814697265625</ele>
        <time>2018-09-02T13:57:45.000Z</time>
      </trkpt>
      <trkpt lat="43.29665838740766048431396484375" lon="-2.259648777544498443603515625">
        <ele>31.200000762939453125</ele>
        <time>2018-09-02T13:57:48.000Z</time>
      </trkpt>
      <trkpt lat="43.296660482883453369140625" lon="-2.2596747614443302154541015625">
        <ele>31.6000003814697265625</ele>
        <time>2018-09-02T13:57:50.000Z</time>
      </trkpt>
      <trkpt lat="43.29666241072118282318115234375" lon="-2.259715162217617034912109375">
        <ele>32.200000762939453125</ele>
        <time>2018-09-02T13:57:53.000Z</time>
      </trkpt>
      <trkpt lat="43.29667632468044757843017578125" lon="-2.25974055938422679901123046875">
        <ele>32.59999847412109375</ele>
        <time>2018-09-02T13:57:55.000Z</time>
      </trkpt>
      <trkpt lat="43.29669660888612270355224609375" lon="-2.25977123714983463287353515625">
        <ele>33.40000152587890625</ele>
        <time>2018-09-02T13:57:58.000Z</time>
      </trkpt>
      <trkpt lat="43.29638178460299968719482421875" lon="-2.26045017130672931671142578125">
        <ele>49.799999237060546875</ele>
        <time>2018-09-02T13:59:28.000Z</time>
      </trkpt>
      <trkpt lat="43.296375162899494171142578125" lon="-2.26042200811207294464111328125">
        <ele>49.40000152587890625</ele>
        <time>2018-09-02T13:59:29.000Z</time>
      </trkpt>
      <trkpt lat="43.2963632605969905853271484375" lon="-2.26035696454346179962158203125">
        <ele>48.40000152587890625</ele>
        <time>2018-09-02T13:59:31.000Z</time>
      </trkpt>
      <trkpt lat="43.29634599387645721435546875" lon="-2.26031254045665264129638671875">
        <ele>47.799999237060546875</ele>
        <time>2018-09-02T13:59:34.000Z</time>
      </trkpt>
      <trkpt lat="43.29642235301434993743896484375" lon="-2.260657958686351776123046875">
        <ele>57.799999237060546875</ele>
        <time>2018-09-02T14:01:34.000Z</time>
      </trkpt>
      <trkpt lat="43.29643392004072666168212890625" lon="-2.26066340692341327667236328125">
        <ele>58</ele>
        <time>2018-09-02T14:01:35.000Z</time>
      </trkpt>
      <trkpt lat="43.29647348262369632720947265625" lon="-2.26069919764995574951171875">
        <ele>58.200000762939453125</ele>
        <time>2018-09-02T14:01:39.000Z</time>
      </trkpt>
      <trkpt lat="43.2964940182864665985107421875" lon="-2.260740436613559722900390625">
        <ele>58.799999237060546875</ele>
        <time>2018-09-02T14:01:42.000Z</time>
      </trkpt>
      <trkpt lat="43.2965017296373844146728515625" lon="-2.26074806414544582366943359375">
        <ele>59.200000762939453125</ele>
        <time>2018-09-02T14:01:43.000Z</time>
      </trkpt>
      <trkpt lat="43.29651690088212490081787109375" lon="-2.2607965953648090362548828125">
        <ele>59.799999237060546875</ele>
        <time>2018-09-02T14:01:47.000Z</time>
      </trkpt>
      <trkpt lat="43.29651891253888607025146484375" lon="-2.2608245909214019775390625">
        <ele>60.200000762939453125</ele>
        <time>2018-09-02T14:01:49.000Z</time>
      </trkpt>
      <trkpt lat="43.29652628861367702484130859375" lon="-2.2608800791203975677490234375">
        <ele>61</ele>
        <time>2018-09-02T14:01:53.000Z</time>
      </trkpt>
      <trkpt lat="43.2965265400707721710205078125" lon="-2.26089156232774257659912109375">
        <ele>61.200000762939453125</ele>
        <time>2018-09-02T14:01:54.000Z</time>
      </trkpt>
      <trkpt lat="43.2965250313282012939453125" lon="-2.2609018720686435699462890625">
        <ele>61.200000762939453125</ele>
        <time>2018-09-02T14:01:55.000Z</time>
      </trkpt>
      <trkpt lat="43.29652838408946990966796875" lon="-2.2609233297407627105712890625">
        <ele>61.59999847412109375</ele>
        <time>2018-09-02T14:01:57.000Z</time>
      </trkpt>
      <trkpt lat="43.29653182066977024078369140625" lon="-2.2609776444733142852783203125">
        <ele>62</ele>
        <time>2018-09-02T14:02:01.000Z</time>
      </trkpt>
      <trkpt lat="43.29652913846075534820556640625" lon="-2.26099063642323017120361328125">
        <ele>62.200000762939453125</ele>
        <time>2018-09-02T14:02:02.000Z</time>
      </trkpt>
      <trkpt lat="43.2965315692126750946044921875" lon="-2.2610041312873363494873046875">
        <ele>62.40000152587890625</ele>
        <time>2018-09-02T14:02:03.000Z</time>
      </trkpt>
      <trkpt lat="43.2965429686009883880615234375" lon="-2.2610614635050296783447265625">
        <ele>63</ele>
        <time>2018-09-02T14:02:08.000Z</time>
      </trkpt>
      <trkpt lat="43.296546824276447296142578125" lon="-2.2611249983310699462890625">
        <ele>64</ele>
        <time>2018-09-02T14:02:13.000Z</time>
      </trkpt>
      <trkpt lat="43.29654590226709842681884765625" lon="-2.26113899610936641693115234375">
        <ele>64</ele>
        <time>2018-09-02T14:02:14.000Z</time>
      </trkpt>
      <trkpt lat="43.2965479977428913116455078125" lon="-2.2611607052385807037353515625">
        <ele>64.40000152587890625</ele>
        <time>2018-09-02T14:02:16.000Z</time>
      </trkpt>
      <trkpt lat="43.29656333662569522857666015625" lon="-2.26120655424892902374267578125">
        <ele>65.1999969482421875</ele>
        <time>2018-09-02T14:02:21.000Z</time>
      </trkpt>
      <trkpt lat="43.2965630851686000823974609375" lon="-2.26123563945293426513671875">
        <ele>65.40000152587890625</ele>
        <time>2018-09-02T14:02:23.000Z</time>
      </trkpt>
      <trkpt lat="43.29656266607344150543212890625" lon="-2.26130529306828975677490234375">
        <ele>66.1999969482421875</ele>
        <time>2018-09-02T14:02:29.000Z</time>
      </trkpt>
      <trkpt lat="43.29655914567410945892333984375" lon="-2.26139263249933719635009765625">
        <ele>67.40000152587890625</ele>
        <time>2018-09-02T14:02:36.000Z</time>
      </trkpt>
      <trkpt lat="43.29657289199531078338623046875" lon="-2.26140570826828479766845703125">
        <ele>67.59999847412109375</ele>
        <time>2018-09-02T14:02:38.000Z</time>
      </trkpt>
      <trkpt lat="43.29657666385173797607421875" lon="-2.2614495456218719482421875">
        <ele>68.1999969482421875</ele>
        <time>2018-09-02T14:02:42.000Z</time>
      </trkpt>
      <trkpt lat="43.2965707965195178985595703125" lon="-2.26147410459816455841064453125">
        <ele>68.59999847412109375</ele>
        <time>2018-09-02T14:02:44.000Z</time>
      </trkpt>
      <trkpt lat="43.296576999127864837646484375" lon="-2.2615273296833038330078125">
        <ele>69.1999969482421875</ele>
        <time>2018-09-02T14:02:49.000Z</time>
      </trkpt>
      <trkpt lat="43.29656853340566158294677734375" lon="-2.26156890392303466796875">
        <ele>69.40000152587890625</ele>
        <time>2018-09-02T14:02:52.000Z</time>
      </trkpt>
      <trkpt lat="43.29656803049147129058837890625" lon="-2.26158432662487030029296875">
        <ele>69.59999847412109375</ele>
        <time>2018-09-02T14:02:53.000Z</time>
      </trkpt>
      <trkpt lat="43.296572305262088775634765625" lon="-2.2616257332265377044677734375">
        <ele>70.1999969482421875</ele>
        <time>2018-09-02T14:02:56.000Z</time>
      </trkpt>
      <trkpt lat="43.29658077098429203033447265625" lon="-2.26163755171000957489013671875">
        <ele>70.40000152587890625</ele>
        <time>2018-09-02T14:02:57.000Z</time>
      </trkpt>
      <trkpt lat="43.29659585841000080108642578125" lon="-2.26164492778480052947998046875">
        <ele>70.59999847412109375</ele>
        <time>2018-09-02T14:02:59.000Z</time>
      </trkpt>
      <trkpt lat="43.29659787006676197052001953125" lon="-2.2616559080779552459716796875">
        <ele>70.59999847412109375</ele>
        <time>2018-09-02T14:03:00.000Z</time>
      </trkpt>
      <trkpt lat="43.29659904353320598602294921875" lon="-2.261669822037220001220703125">
        <ele>70.8000030517578125</ele>
        <time>2018-09-02T14:03:01.000Z</time>
      </trkpt>
      <trkpt lat="43.2966049946844577789306640625" lon="-2.26174249313771724700927734375">
        <ele>71.59999847412109375</ele>
        <time>2018-09-02T14:03:06.000Z</time>
      </trkpt>
      <trkpt lat="43.29660625196993350982666015625" lon="-2.26177166216075420379638671875">
        <ele>72</ele>
        <time>2018-09-02T14:03:08.000Z</time>
      </trkpt>
      <trkpt lat="43.29660750925540924072265625" lon="-2.26178557612001895904541015625">
        <ele>72.1999969482421875</ele>
        <time>2018-09-02T14:03:09.000Z</time>
      </trkpt>
      <trkpt lat="43.29661647789180278778076171875" lon="-2.26182949729263782501220703125">
        <ele>72.59999847412109375</ele>
        <time>2018-09-02T14:03:12.000Z</time>
      </trkpt>
      <trkpt lat="43.296622596681118011474609375" lon="-2.26187190972268581390380859375">
        <ele>73</ele>
        <time>2018-09-02T14:03:15.000Z</time>
      </trkpt>
      <trkpt lat="43.2966204173862934112548828125" lon="-2.26193075068295001983642578125">
        <ele>73.59999847412109375</ele>
        <time>2018-09-02T14:03:19.000Z</time>
      </trkpt>
      <trkpt lat="43.2966143824160099029541015625" lon="-2.2619583271443843841552734375">
        <ele>74</ele>
        <time>2018-09-02T14:03:21.000Z</time>
      </trkpt>
      <trkpt lat="43.2966135442256927490234375" lon="-2.2620347701013088226318359375">
        <ele>74.8000030517578125</ele>
        <time>2018-09-02T14:03:26.000Z</time>
      </trkpt>
      <trkpt lat="43.29661413095891475677490234375" lon="-2.262065112590789794921875">
        <ele>75.1999969482421875</ele>
        <time>2018-09-02T14:03:28.000Z</time>
      </trkpt>
      <trkpt lat="43.2966060005128383636474609375" lon="-2.26208732463419437408447265625">
        <ele>75.40000152587890625</ele>
        <time>2018-09-02T14:03:30.000Z</time>
      </trkpt>
      <trkpt lat="43.29658806324005126953125" lon="-2.26212076842784881591796875">
        <ele>75.8000030517578125</ele>
        <time>2018-09-02T14:03:33.000Z</time>
      </trkpt>
      <trkpt lat="43.296580016613006591796875" lon="-2.26212705485522747039794921875">
        <ele>75.8000030517578125</ele>
        <time>2018-09-02T14:03:34.000Z</time>
      </trkpt>
      <trkpt lat="43.29654305242002010345458984375" lon="-2.2621457464993000030517578125">
        <ele>76.1999969482421875</ele>
        <time>2018-09-02T14:03:37.000Z</time>
      </trkpt>
      <trkpt lat="43.29652972519397735595703125" lon="-2.26215102709829807281494140625">
        <ele>76.40000152587890625</ele>
        <time>2018-09-02T14:03:38.000Z</time>
      </trkpt>
      <trkpt lat="43.29647742211818695068359375" lon="-2.26218304596841335296630859375">
        <ele>77.40000152587890625</ele>
        <time>2018-09-02T14:03:44.000Z</time>
      </trkpt>
      <trkpt lat="43.296467699110507965087890625" lon="-2.262196205556392669677734375">
        <ele>77.59999847412109375</ele>
        <time>2018-09-02T14:03:45.000Z</time>
      </trkpt>
      <trkpt lat="43.29643526114523410797119140625" lon="-2.2622335888445377349853515625">
        <ele>78.40000152587890625</ele>
        <time>2018-09-02T14:03:49.000Z</time>
      </trkpt>
      <trkpt lat="43.296428136527538299560546875" lon="-2.26223953999578952789306640625">
        <ele>78.59999847412109375</ele>
        <time>2018-09-02T14:03:50.000Z</time>
      </trkpt>
      <trkpt lat="43.2964041642844676971435546875" lon="-2.2622728161513805389404296875">
        <ele>79.40000152587890625</ele>
        <time>2018-09-02T14:03:54.000Z</time>
      </trkpt>
      <trkpt lat="43.2963957823812961578369140625" lon="-2.2622775100171566009521484375">
        <ele>79.59999847412109375</ele>
        <time>2018-09-02T14:03:55.000Z</time>
      </trkpt>
      <trkpt lat="43.29635730944573879241943359375" lon="-2.26233911700546741485595703125">
        <ele>80.59999847412109375</ele>
        <time>2018-09-02T14:04:01.000Z</time>
      </trkpt>
      <trkpt lat="43.29635940492153167724609375" lon="-2.26235319860279560089111328125">
        <ele>80.8000030517578125</ele>
        <time>2018-09-02T14:04:02.000Z</time>
      </trkpt>
      <trkpt lat="43.29635881818830966949462890625" lon="-2.2624055854976177215576171875">
        <ele>81.1999969482421875</ele>
        <time>2018-09-02T14:04:06.000Z</time>
      </trkpt>
      <trkpt lat="43.2963602431118488311767578125" lon="-2.26242042146623134613037109375">
        <ele>81.40000152587890625</ele>
        <time>2018-09-02T14:04:07.000Z</time>
      </trkpt>
      <trkpt lat="43.29636887647211551666259765625" lon="-2.26245998404920101165771484375">
        <ele>82</ele>
        <time>2018-09-02T14:04:10.000Z</time>
      </trkpt>
      <trkpt lat="43.296390585601329803466796875" lon="-2.2624987922608852386474609375">
        <ele>82.40000152587890625</ele>
        <time>2018-09-02T14:04:14.000Z</time>
      </trkpt>
      <trkpt lat="43.29639695584774017333984375" lon="-2.262542210519313812255859375">
        <ele>82.8000030517578125</ele>
        <time>2018-09-02T14:04:17.000Z</time>
      </trkpt>
      <trkpt lat="43.2964003086090087890625" lon="-2.26257615722715854644775390625">
        <ele>83</ele>
        <time>2018-09-02T14:04:19.000Z</time>
      </trkpt>
      <trkpt lat="43.296402655541896820068359375" lon="-2.26259644143283367156982421875">
        <ele>83.40000152587890625</ele>
        <time>2018-09-02T14:04:21.000Z</time>
      </trkpt>
      <trkpt lat="43.296399302780628204345703125" lon="-2.26263483054935932159423828125">
        <ele>83.8000030517578125</ele>
        <time>2018-09-02T14:04:24.000Z</time>
      </trkpt>
      <trkpt lat="43.29639653675258159637451171875" lon="-2.26264673285186290740966796875">
        <ele>84</ele>
        <time>2018-09-02T14:04:25.000Z</time>
      </trkpt>
      <trkpt lat="43.2964008115231990814208984375" lon="-2.2626778297126293182373046875">
        <ele>84.40000152587890625</ele>
        <time>2018-09-02T14:04:27.000Z</time>
      </trkpt>
      <trkpt lat="43.29640743322670459747314453125" lon="-2.26269015111029148101806640625">
        <ele>84.40000152587890625</ele>
        <time>2018-09-02T14:04:28.000Z</time>
      </trkpt>
      <trkpt lat="43.2964306510984897613525390625" lon="-2.26274832151830196380615234375">
        <ele>85</ele>
        <time>2018-09-02T14:04:32.000Z</time>
      </trkpt>
      <trkpt lat="43.2964383624494075775146484375" lon="-2.262760140001773834228515625">
        <ele>85.1999969482421875</ele>
        <time>2018-09-02T14:04:33.000Z</time>
      </trkpt>
      <trkpt lat="43.29644448123872280120849609375" lon="-2.26276994682848453521728515625">
        <ele>85.40000152587890625</ele>
        <time>2018-09-02T14:04:34.000Z</time>
      </trkpt>
      <trkpt lat="43.29646535217761993408203125" lon="-2.26284286938607692718505859375">
        <ele>86</ele>
        <time>2018-09-02T14:04:40.000Z</time>
      </trkpt>
      <trkpt lat="43.29647205770015716552734375" lon="-2.26287421770393848419189453125">
        <ele>86.59999847412109375</ele>
        <time>2018-09-02T14:04:42.000Z</time>
      </trkpt>
      <trkpt lat="43.29647985287010669708251953125" lon="-2.26294462569057941436767578125">
        <ele>87.1999969482421875</ele>
        <time>2018-09-02T14:04:47.000Z</time>
      </trkpt>
      <trkpt lat="43.29647767357528209686279296875" lon="-2.26298846304416656494140625">
        <ele>87.8000030517578125</ele>
        <time>2018-09-02T14:04:50.000Z</time>
      </trkpt>
      <trkpt lat="43.29649611376225948333740234375" lon="-2.26306716911494731903076171875">
        <ele>88.40000152587890625</ele>
        <time>2018-09-02T14:04:55.000Z</time>
      </trkpt>
      <trkpt lat="43.2965091057121753692626953125" lon="-2.26311720907688140869140625">
        <ele>89</ele>
        <time>2018-09-02T14:04:58.000Z</time>
      </trkpt>
      <trkpt lat="43.2965196669101715087890625" lon="-2.26316423155367374420166015625">
        <ele>89.40000152587890625</ele>
        <time>2018-09-02T14:05:01.000Z</time>
      </trkpt>
      <trkpt lat="43.29650550149381160736083984375" lon="-2.26321703754365444183349609375">
        <ele>90</ele>
        <time>2018-09-02T14:05:05.000Z</time>
      </trkpt>
      <trkpt lat="43.2965044118463993072509765625" lon="-2.26323388516902923583984375">
        <ele>90.1999969482421875</ele>
        <time>2018-09-02T14:05:06.000Z</time>
      </trkpt>
      <trkpt lat="43.29650399275124073028564453125" lon="-2.263250313699245452880859375">
        <ele>90.40000152587890625</ele>
        <time>2018-09-02T14:05:07.000Z</time>
      </trkpt>
      <trkpt lat="43.2964980415999889373779296875" lon="-2.26329264231026172637939453125">
        <ele>90.8000030517578125</ele>
        <time>2018-09-02T14:05:10.000Z</time>
      </trkpt>
      <trkpt lat="43.296491168439388275146484375" lon="-2.26330496370792388916015625">
        <ele>91</ele>
        <time>2018-09-02T14:05:11.000Z</time>
      </trkpt>
      <trkpt lat="43.29648722894489765167236328125" lon="-2.26331837475299835205078125">
        <ele>91.1999969482421875</ele>
        <time>2018-09-02T14:05:12.000Z</time>
      </trkpt>
      <trkpt lat="43.2964749075472354888916015625" lon="-2.26333849132061004638671875">
        <ele>91.40000152587890625</ele>
        <time>2018-09-02T14:05:14.000Z</time>
      </trkpt>
      <trkpt lat="43.29646744765341281890869140625" lon="-2.2633527405560016632080078125">
        <ele>91.59999847412109375</ele>
        <time>2018-09-02T14:05:15.000Z</time>
      </trkpt>
      <trkpt lat="43.29643442295491695404052734375" lon="-2.26339171640574932098388671875">
        <ele>92.1999969482421875</ele>
        <time>2018-09-02T14:05:19.000Z</time>
      </trkpt>
      <trkpt lat="43.29640877433121204376220703125" lon="-2.26343144662678241729736328125">
        <ele>92.8000030517578125</ele>
        <time>2018-09-02T14:05:22.000Z</time>
      </trkpt>
      <trkpt lat="43.29636401496827602386474609375" lon="-2.26350554265081882476806640625">
        <ele>93.8000030517578125</ele>
        <time>2018-09-02T14:05:28.000Z</time>
      </trkpt>
      <trkpt lat="43.2963104546070098876953125" lon="-2.263582907617092132568359375">
        <ele>94.8000030517578125</ele>
        <time>2018-09-02T14:05:35.000Z</time>
      </trkpt>
      <trkpt lat="43.2962921820580959320068359375" lon="-2.26359388791024684906005859375">
        <ele>95</ele>
        <time>2018-09-02T14:05:37.000Z</time>
      </trkpt>
      <trkpt lat="43.29623878933489322662353515625" lon="-2.2636623680591583251953125">
        <ele>95.8000030517578125</ele>
        <time>2018-09-02T14:05:43.000Z</time>
      </trkpt>
      <trkpt lat="43.296220935881137847900390625" lon="-2.26368181407451629638671875">
        <ele>96.1999969482421875</ele>
        <time>2018-09-02T14:05:45.000Z</time>
      </trkpt>
      <trkpt lat="43.29617978073656558990478515625" lon="-2.26375834085047245025634765625">
        <ele>97</ele>
        <time>2018-09-02T14:05:51.000Z</time>
      </trkpt>
      <trkpt lat="43.29617005772888660430908203125" lon="-2.2637674771249294281005859375">
        <ele>97.1999969482421875</ele>
        <time>2018-09-02T14:05:52.000Z</time>
      </trkpt>
      <trkpt lat="43.29614725895226001739501953125" lon="-2.263805866241455078125">
        <ele>97.59999847412109375</ele>
        <time>2018-09-02T14:05:55.000Z</time>
      </trkpt>
      <trkpt lat="43.29612798057496547698974609375" lon="-2.26384400390088558197021484375">
        <ele>98</ele>
        <time>2018-09-02T14:05:58.000Z</time>
      </trkpt>
      <trkpt lat="43.29610350541770458221435546875" lon="-2.26390519179403781890869140625">
        <ele>98.8000030517578125</ele>
        <time>2018-09-02T14:06:03.000Z</time>
      </trkpt>
      <trkpt lat="43.2960993982851505279541015625" lon="-2.26393452845513820648193359375">
        <ele>99</ele>
        <time>2018-09-02T14:06:05.000Z</time>
      </trkpt>
      <trkpt lat="43.29609110020101070404052734375" lon="-2.2639600932598114013671875">
        <ele>99.1999969482421875</ele>
        <time>2018-09-02T14:06:07.000Z</time>
      </trkpt>
      <trkpt lat="43.296082131564617156982421875" lon="-2.26398800499737262725830078125">
        <ele>99.40000152587890625</ele>
        <time>2018-09-02T14:06:09.000Z</time>
      </trkpt>
      <trkpt lat="43.296060003340244293212890625" lon="-2.26404927670955657958984375">
        <ele>100.40000152587890625</ele>
        <time>2018-09-02T14:06:14.000Z</time>
      </trkpt>
      <trkpt lat="43.29604047350585460662841796875" lon="-2.26415388286113739013671875">
        <ele>101.40000152587890625</ele>
        <time>2018-09-02T14:06:21.000Z</time>
      </trkpt>
      <trkpt lat="43.29602940939366817474365234375" lon="-2.264186404645442962646484375">
        <ele>101.8000030517578125</ele>
        <time>2018-09-02T14:06:23.000Z</time>
      </trkpt>
      <trkpt lat="43.29600191675126552581787109375" lon="-2.26425538770854473114013671875">
        <ele>102.40000152587890625</ele>
        <time>2018-09-02T14:06:27.000Z</time>
      </trkpt>
      <trkpt lat="43.29597157426178455352783203125" lon="-2.264359407126903533935546875">
        <ele>103.40000152587890625</ele>
        <time>2018-09-02T14:06:33.000Z</time>
      </trkpt>
      <trkpt lat="43.29596780240535736083984375" lon="-2.2643783502280712127685546875">
        <ele>103.59999847412109375</ele>
        <time>2018-09-02T14:06:34.000Z</time>
      </trkpt>
      <trkpt lat="43.295941315591335296630859375" lon="-2.264516316354274749755859375">
        <ele>104.59999847412109375</ele>
        <time>2018-09-02T14:06:41.000Z</time>
      </trkpt>
      <trkpt lat="43.29593586735427379608154296875" lon="-2.264536432921886444091796875">
        <ele>104.8000030517578125</ele>
        <time>2018-09-02T14:06:42.000Z</time>
      </trkpt>
      <trkpt lat="43.295915834605693817138671875" lon="-2.26469426415860652923583984375">
        <ele>105.8000030517578125</ele>
        <time>2018-09-02T14:06:49.000Z</time>
      </trkpt>
      <trkpt lat="43.29591155983507633209228515625" lon="-2.26471656002104282379150390625">
        <ele>106</ele>
        <time>2018-09-02T14:06:50.000Z</time>
      </trkpt>
      <trkpt lat="43.29589881934225559234619140625" lon="-2.2648614831268787384033203125">
        <ele>106.40000152587890625</ele>
        <time>2018-09-02T14:06:56.000Z</time>
      </trkpt>
      <trkpt lat="43.29590083099901676177978515625" lon="-2.2649365849792957305908203125">
        <ele>106.8000030517578125</ele>
        <time>2018-09-02T14:06:59.000Z</time>
      </trkpt>
      <trkpt lat="43.295889012515544891357421875" lon="-2.265084274113178253173828125">
        <ele>107.1999969482421875</ele>
        <time>2018-09-02T14:07:04.000Z</time>
      </trkpt>
      <trkpt lat="43.29590301029384136199951171875" lon="-2.26524746976792812347412109375">
        <ele>107.40000152587890625</ele>
        <time>2018-09-02T14:07:09.000Z</time>
      </trkpt>
      <trkpt lat="43.2959002442657947540283203125" lon="-2.2653174586594104766845703125">
        <ele>107.40000152587890625</ele>
        <time>2018-09-02T14:07:11.000Z</time>
      </trkpt>
      <trkpt lat="43.2959123142063617706298828125" lon="-2.2655082307755947113037109375">
        <ele>107.40000152587890625</ele>
        <time>2018-09-02T14:07:16.000Z</time>
      </trkpt>
      <trkpt lat="43.29591809771955013275146484375" lon="-2.265632785856723785400390625">
        <ele>107.59999847412109375</ele>
        <time>2018-09-02T14:07:19.000Z</time>
      </trkpt>
      <trkpt lat="43.29591860063374042510986328125" lon="-2.26576128043234348297119140625">
        <ele>107.8000030517578125</ele>
        <time>2018-09-02T14:07:22.000Z</time>
      </trkpt>
      <trkpt lat="43.29588540829718112945556640625" lon="-2.26594962179660797119140625">
        <ele>107.8000030517578125</ele>
        <time>2018-09-02T14:07:27.000Z</time>
      </trkpt>
      <trkpt lat="43.2957906089723110198974609375" lon="-2.26610711775720119476318359375">
        <ele>109</ele>
        <time>2018-09-02T14:07:33.000Z</time>
      </trkpt>
      <trkpt lat="43.29566605389118194580078125" lon="-2.26621909998357295989990234375">
        <ele>110</ele>
        <time>2018-09-02T14:07:40.000Z</time>
      </trkpt>
      <trkpt lat="43.2955943048000335693359375" lon="-2.266280539333820343017578125">
        <ele>111</ele>
        <time>2018-09-02T14:07:45.000Z</time>
      </trkpt>
      <trkpt lat="43.295578546822071075439453125" lon="-2.2662897594273090362548828125">
        <ele>111.1999969482421875</ele>
        <time>2018-09-02T14:07:46.000Z</time>
      </trkpt>
      <trkpt lat="43.295555748045444488525390625" lon="-2.26631440222263336181640625">
        <ele>111.59999847412109375</ele>
        <time>2018-09-02T14:07:48.000Z</time>
      </trkpt>
      <trkpt lat="43.29552113078534603118896484375" lon="-2.26633711718022823333740234375">
        <ele>112.40000152587890625</ele>
        <time>2018-09-02T14:07:51.000Z</time>
      </trkpt>
      <trkpt lat="43.29548123292624950408935546875" lon="-2.26636025123298168182373046875">
        <ele>113</ele>
        <time>2018-09-02T14:07:54.000Z</time>
      </trkpt>
      <trkpt lat="43.29547134228050708770751953125" lon="-2.266369052231311798095703125">
        <ele>113.1999969482421875</ele>
        <time>2018-09-02T14:07:55.000Z</time>
      </trkpt>
      <trkpt lat="43.29545994289219379425048828125" lon="-2.266376428306102752685546875">
        <ele>113.40000152587890625</ele>
        <time>2018-09-02T14:07:56.000Z</time>
      </trkpt>
      <trkpt lat="43.29538081772625446319580078125" lon="-2.2664107941091060638427734375">
        <ele>114.1999969482421875</ele>
        <time>2018-09-02T14:08:02.000Z</time>
      </trkpt>
      <trkpt lat="43.29536170698702335357666015625" lon="-2.2664178349077701568603515625">
        <ele>114.40000152587890625</ele>
        <time>2018-09-02T14:08:03.000Z</time>
      </trkpt>
      <trkpt lat="43.29528920352458953857421875" lon="-2.2664590738713741302490234375">
        <ele>115.1999969482421875</ele>
        <time>2018-09-02T14:08:08.000Z</time>
      </trkpt>
      <trkpt lat="43.2952608726918697357177734375" lon="-2.2664691321551799774169921875">
        <ele>115.8000030517578125</ele>
        <time>2018-09-02T14:08:10.000Z</time>
      </trkpt>
      <trkpt lat="43.29515375196933746337890625" lon="-2.266500480473041534423828125">
        <ele>116.59999847412109375</ele>
        <time>2018-09-02T14:08:17.000Z</time>
      </trkpt>
      <trkpt lat="43.2951338030397891998291015625" lon="-2.26650861091911792755126953125">
        <ele>116.8000030517578125</ele>
        <time>2018-09-02T14:08:18.000Z</time>
      </trkpt>
      <trkpt lat="43.2950322143733501434326171875" lon="-2.2665650211274623870849609375">
        <ele>117.59999847412109375</ele>
        <time>2018-09-02T14:08:24.000Z</time>
      </trkpt>
      <trkpt lat="43.29501436091959476470947265625" lon="-2.2665744088590145111083984375">
        <ele>117.59999847412109375</ele>
        <time>2018-09-02T14:08:25.000Z</time>
      </trkpt>
      <trkpt lat="43.2949966751039028167724609375" lon="-2.26657725870609283447265625">
        <ele>117.8000030517578125</ele>
        <time>2018-09-02T14:08:26.000Z</time>
      </trkpt>
      <trkpt lat="43.29491637647151947021484375" lon="-2.26661087013781070709228515625">
        <ele>118.40000152587890625</ele>
        <time>2018-09-02T14:08:30.000Z</time>
      </trkpt>
      <trkpt lat="43.29486499540507793426513671875" lon="-2.26664791814982891082763671875">
        <ele>119</ele>
        <time>2018-09-02T14:08:33.000Z</time>
      </trkpt>
      <trkpt lat="43.29477312974631786346435546875" lon="-2.26669586263597011566162109375">
        <ele>119.8000030517578125</ele>
        <time>2018-09-02T14:08:38.000Z</time>
      </trkpt>
      <trkpt lat="43.29475318081676959991455078125" lon="-2.2667055018246173858642578125">
        <ele>120</ele>
        <time>2018-09-02T14:08:39.000Z</time>
      </trkpt>
      <trkpt lat="43.29459995962679386138916015625" lon="-2.26676140911877155303955078125">
        <ele>120.8000030517578125</ele>
        <time>2018-09-02T14:08:47.000Z</time>
      </trkpt>
      <trkpt lat="43.2945795916020870208740234375" lon="-2.26676844991743564605712890625">
        <ele>121</ele>
        <time>2018-09-02T14:08:48.000Z</time>
      </trkpt>
      <trkpt lat="43.29449602402746677398681640625" lon="-2.26680298335850238800048828125">
        <ele>121.59999847412109375</ele>
        <time>2018-09-02T14:08:52.000Z</time>
      </trkpt>
      <trkpt lat="43.2944615744054317474365234375" lon="-2.2668245248496532440185546875">
        <ele>121.8000030517578125</ele>
        <time>2018-09-02T14:08:54.000Z</time>
      </trkpt>
      <trkpt lat="43.29440499655902385711669921875" lon="-2.26685629226267337799072265625">
        <ele>122</ele>
        <time>2018-09-02T14:08:57.000Z</time>
      </trkpt>
      <trkpt lat="43.29431547783315181732177734375" lon="-2.2668634168803691864013671875">
        <ele>122.40000152587890625</ele>
        <time>2018-09-02T14:09:01.000Z</time>
      </trkpt>
      <trkpt lat="43.294291757047176361083984375" lon="-2.26686517708003520965576171875">
        <ele>122.40000152587890625</ele>
        <time>2018-09-02T14:09:02.000Z</time>
      </trkpt>
      <trkpt lat="43.294200897216796875" lon="-2.26686283014714717864990234375">
        <ele>123</ele>
        <time>2018-09-02T14:09:06.000Z</time>
      </trkpt>
      <trkpt lat="43.2941802777349948883056640625" lon="-2.26685361005365848541259765625">
        <ele>123.1999969482421875</ele>
        <time>2018-09-02T14:09:07.000Z</time>
      </trkpt>
      <trkpt lat="43.29412118531763553619384765625" lon="-2.26683835498988628387451171875">
        <ele>123.59999847412109375</ele>
        <time>2018-09-02T14:09:10.000Z</time>
      </trkpt>
      <trkpt lat="43.29402328468859195709228515625" lon="-2.266818992793560028076171875">
        <ele>124.1999969482421875</ele>
        <time>2018-09-02T14:09:15.000Z</time>
      </trkpt>
      <trkpt lat="43.29397114925086498260498046875" lon="-2.266795523464679718017578125">
        <ele>124.59999847412109375</ele>
        <time>2018-09-02T14:09:18.000Z</time>
      </trkpt>
      <trkpt lat="43.2939083687961101531982421875" lon="-2.26677666418254375457763671875">
        <ele>125.40000152587890625</ele>
        <time>2018-09-02T14:09:22.000Z</time>
      </trkpt>
      <trkpt lat="43.29386067576706409454345703125" lon="-2.26677733473479747772216796875">
        <ele>125.8000030517578125</ele>
        <time>2018-09-02T14:09:25.000Z</time>
      </trkpt>
      <trkpt lat="43.29377484507858753204345703125" lon="-2.2667517699301242828369140625">
        <ele>126.59999847412109375</ele>
        <time>2018-09-02T14:09:31.000Z</time>
      </trkpt>
      <trkpt lat="43.293762691318988800048828125" lon="-2.26675738580524921417236328125">
        <ele>126.8000030517578125</ele>
        <time>2018-09-02T14:09:32.000Z</time>
      </trkpt>
      <trkpt lat="43.29372924752533435821533203125" lon="-2.2667685337364673614501953125">
        <ele>127</ele>
        <time>2018-09-02T14:09:34.000Z</time>
      </trkpt>
      <trkpt lat="43.2936287485063076019287109375" lon="-2.2667871415615081787109375">
        <ele>127.59999847412109375</ele>
        <time>2018-09-02T14:09:40.000Z</time>
      </trkpt>
      <trkpt lat="43.29355783760547637939453125" lon="-2.26680264808237552642822265625">
        <ele>128.1999969482421875</ele>
        <time>2018-09-02T14:09:44.000Z</time>
      </trkpt>
      <trkpt lat="43.2935228012502193450927734375" lon="-2.266812957823276519775390625">
        <ele>128.600006103515625</ele>
        <time>2018-09-02T14:09:46.000Z</time>
      </trkpt>
      <trkpt lat="43.29343437217175960540771484375" lon="-2.26684606634080410003662109375">
        <ele>129.1999969482421875</ele>
        <time>2018-09-02T14:09:51.000Z</time>
      </trkpt>
      <trkpt lat="43.293367065489292144775390625" lon="-2.26687305606901645660400390625">
        <ele>129.8000030517578125</ele>
        <time>2018-09-02T14:09:55.000Z</time>
      </trkpt>
      <trkpt lat="43.29327712766826152801513671875" lon="-2.2669319808483123779296875">
        <ele>130.1999969482421875</ele>
        <time>2018-09-02T14:10:00.000Z</time>
      </trkpt>
      <trkpt lat="43.29320571385324001312255859375" lon="-2.26698604412376880645751953125">
        <ele>130.8000030517578125</ele>
        <time>2018-09-02T14:10:04.000Z</time>
      </trkpt>
      <trkpt lat="43.29314670525491237640380859375" lon="-2.26705133914947509765625">
        <ele>131</ele>
        <time>2018-09-02T14:10:07.000Z</time>
      </trkpt>
      <trkpt lat="43.2929711043834686279296875" lon="-2.2672271914780139923095703125">
        <ele>131.8000030517578125</ele>
        <time>2018-09-02T14:10:15.000Z</time>
      </trkpt>
      <trkpt lat="43.2929250039160251617431640625" lon="-2.2672768123447895050048828125">
        <ele>132</ele>
        <time>2018-09-02T14:10:17.000Z</time>
      </trkpt>
      <trkpt lat="43.29280019737780094146728515625" lon="-2.26741536520421504974365234375">
        <ele>132</ele>
        <time>2018-09-02T14:10:23.000Z</time>
      </trkpt>
      <trkpt lat="43.29261931590735912322998046875" lon="-2.2675971686840057373046875">
        <ele>132.399993896484375</ele>
        <time>2018-09-02T14:10:30.000Z</time>
      </trkpt>
      <trkpt lat="43.292591571807861328125" lon="-2.2676228173077106475830078125">
        <ele>132.399993896484375</ele>
        <time>2018-09-02T14:10:31.000Z</time>
      </trkpt>
      <trkpt lat="43.29242452047765254974365234375" lon="-2.26783881895244121551513671875">
        <ele>132.1999969482421875</ele>
        <time>2018-09-02T14:10:38.000Z</time>
      </trkpt>
      <trkpt lat="43.2922603189945220947265625" lon="-2.26816051639616489410400390625">
        <ele>131.600006103515625</ele>
        <time>2018-09-02T14:10:46.000Z</time>
      </trkpt>
      <trkpt lat="43.29222301952540874481201171875" lon="-2.268260009586811065673828125">
        <ele>131.600006103515625</ele>
        <time>2018-09-02T14:10:48.000Z</time>
      </trkpt>
      <trkpt lat="43.29217289574444293975830078125" lon="-2.26843535900115966796875">
        <ele>131</ele>
        <time>2018-09-02T14:10:51.000Z</time>
      </trkpt>
      <trkpt lat="43.292162083089351654052734375" lon="-2.268505431711673736572265625">
        <ele>130.8000030517578125</ele>
        <time>2018-09-02T14:10:52.000Z</time>
      </trkpt>
      <trkpt lat="43.29217406921088695526123046875" lon="-2.26881648413836956024169921875">
        <ele>129.1999969482421875</ele>
        <time>2018-09-02T14:10:56.000Z</time>
      </trkpt>
      <trkpt lat="43.2921796850860118865966796875" lon="-2.268901728093624114990234375">
        <ele>128.8000030517578125</ele>
        <time>2018-09-02T14:10:57.000Z</time>
      </trkpt>
      <trkpt lat="43.2921894080936908721923828125" lon="-2.2690903209149837493896484375">
        <ele>128</ele>
        <time>2018-09-02T14:10:59.000Z</time>
      </trkpt>
      <trkpt lat="43.2921823672950267791748046875" lon="-2.269193418323993682861328125">
        <ele>127.1999969482421875</ele>
        <time>2018-09-02T14:11:00.000Z</time>
      </trkpt>
      <trkpt lat="43.2921669445931911468505859375" lon="-2.2693005390465259552001953125">
        <ele>126.40000152587890625</ele>
        <time>2018-09-02T14:11:01.000Z</time>
      </trkpt>
      <trkpt lat="43.29211941920220851898193359375" lon="-2.269529365003108978271484375">
        <ele>124.8000030517578125</ele>
        <time>2018-09-02T14:11:03.000Z</time>
      </trkpt>
      <trkpt lat="43.292087651789188385009765625" lon="-2.26964796893298625946044921875">
        <ele>124.1999969482421875</ele>
        <time>2018-09-02T14:11:04.000Z</time>
      </trkpt>
      <trkpt lat="43.2920516096055507659912109375" lon="-2.26976581849157810211181640625">
        <ele>123.8000030517578125</ele>
        <time>2018-09-02T14:11:05.000Z</time>
      </trkpt>
      <trkpt lat="43.29198229126632213592529296875" lon="-2.270008809864521026611328125">
        <ele>122.59999847412109375</ele>
        <time>2018-09-02T14:11:07.000Z</time>
      </trkpt>
      <trkpt lat="43.29190987162292003631591796875" lon="-2.27024383842945098876953125">
        <ele>121.1999969482421875</ele>
        <time>2018-09-02T14:11:09.000Z</time>
      </trkpt>
      <trkpt lat="43.29177760519087314605712890625" lon="-2.2706674598157405853271484375">
        <ele>121.1999969482421875</ele>
        <time>2018-09-02T14:11:13.000Z</time>
      </trkpt>
      <trkpt lat="43.29172060824930667877197265625" lon="-2.2708538733422756195068359375">
        <ele>121</ele>
        <time>2018-09-02T14:11:15.000Z</time>
      </trkpt>
      <trkpt lat="43.29164483584463596343994140625" lon="-2.2710959427058696746826171875">
        <ele>121.1999969482421875</ele>
        <time>2018-09-02T14:11:18.000Z</time>
      </trkpt>
      <trkpt lat="43.2915683090686798095703125" lon="-2.2713641636073589324951171875">
        <ele>122.40000152587890625</ele>
        <time>2018-09-02T14:11:22.000Z</time>
      </trkpt>
      <trkpt lat="43.2915356196463108062744140625" lon="-2.27147589437663555145263671875">
        <ele>123</ele>
        <time>2018-09-02T14:11:24.000Z</time>
      </trkpt>
      <trkpt lat="43.2914672233164310455322265625" lon="-2.27163791656494140625">
        <ele>123.59999847412109375</ele>
        <time>2018-09-02T14:11:28.000Z</time>
      </trkpt>
      <trkpt lat="43.29145490191876888275146484375" lon="-2.271675802767276763916015625">
        <ele>123.8000030517578125</ele>
        <time>2018-09-02T14:11:29.000Z</time>
      </trkpt>
      <trkpt lat="43.291421793401241302490234375" lon="-2.2717926464974880218505859375">
        <ele>124.59999847412109375</ele>
        <time>2018-09-02T14:11:32.000Z</time>
      </trkpt>
      <trkpt lat="43.29139220528304576873779296875" lon="-2.27189566008746623992919921875">
        <ele>125.59999847412109375</ele>
        <time>2018-09-02T14:11:35.000Z</time>
      </trkpt>
      <trkpt lat="43.29137192107737064361572265625" lon="-2.27196455933153629302978515625">
        <ele>126</ele>
        <time>2018-09-02T14:11:37.000Z</time>
      </trkpt>
      <trkpt lat="43.29130670987069606781005859375" lon="-2.272131107747554779052734375">
        <ele>126.8000030517578125</ele>
        <time>2018-09-02T14:11:42.000Z</time>
      </trkpt>
      <trkpt lat="43.29125516116619110107421875" lon="-2.27221869863569736480712890625">
        <ele>127.8000030517578125</ele>
        <time>2018-09-02T14:11:45.000Z</time>
      </trkpt>
      <trkpt lat="43.2911637984216213226318359375" lon="-2.27236337028443813323974609375">
        <ele>128.8000030517578125</ele>
        <time>2018-09-02T14:11:52.000Z</time>
      </trkpt>
      <trkpt lat="43.29104234464466571807861328125" lon="-2.27256604470312595367431640625">
        <ele>129.8000030517578125</ele>
        <time>2018-09-02T14:12:01.000Z</time>
      </trkpt>
      <trkpt lat="43.29092281870543956756591796875" lon="-2.2727230377495288848876953125">
        <ele>130.399993896484375</ele>
        <time>2018-09-02T14:12:08.000Z</time>
      </trkpt>
      <trkpt lat="43.2907839305698871612548828125" lon="-2.27290249429643154144287109375">
        <ele>130.8000030517578125</ele>
        <time>2018-09-02T14:12:15.000Z</time>
      </trkpt>
      <trkpt lat="43.2907624728977680206298828125" lon="-2.27293015457689762115478515625">
        <ele>131</ele>
        <time>2018-09-02T14:12:16.000Z</time>
      </trkpt>
      <trkpt lat="43.290640600025653839111328125" lon="-2.27311606518924236297607421875">
        <ele>131.399993896484375</ele>
        <time>2018-09-02T14:12:23.000Z</time>
      </trkpt>
      <trkpt lat="43.2906018756330013275146484375" lon="-2.27322335354983806610107421875">
        <ele>132</ele>
        <time>2018-09-02T14:12:27.000Z</time>
      </trkpt>
      <trkpt lat="43.2905834354460239410400390625" lon="-2.2733027301728725433349609375">
        <ele>132.600006103515625</ele>
        <time>2018-09-02T14:12:30.000Z</time>
      </trkpt>
      <trkpt lat="43.29057061113417148590087890625" lon="-2.2734093479812145233154296875">
        <ele>133.399993896484375</ele>
        <time>2018-09-02T14:12:34.000Z</time>
      </trkpt>
      <trkpt lat="43.29056315124034881591796875" lon="-2.27345980703830718994140625">
        <ele>133.399993896484375</ele>
        <time>2018-09-02T14:12:36.000Z</time>
      </trkpt>
      <trkpt lat="43.290554769337177276611328125" lon="-2.2736413590610027313232421875">
        <ele>134.1999969482421875</ele>
        <time>2018-09-02T14:12:44.000Z</time>
      </trkpt>
      <trkpt lat="43.29055217094719409942626953125" lon="-2.27366231381893157958984375">
        <ele>134.399993896484375</ele>
        <time>2018-09-02T14:12:45.000Z</time>
      </trkpt>
      <trkpt lat="43.29054412432014942169189453125" lon="-2.27369927801191806793212890625">
        <ele>134.8000030517578125</ele>
        <time>2018-09-02T14:12:47.000Z</time>
      </trkpt>
      <trkpt lat="43.29054680652916431427001953125" lon="-2.27375325746834278106689453125">
        <ele>135.399993896484375</ele>
        <time>2018-09-02T14:12:50.000Z</time>
      </trkpt>
      <trkpt lat="43.29054630361497402191162109375" lon="-2.2737647406756877899169921875">
        <ele>135.399993896484375</ele>
        <time>2018-09-02T14:12:51.000Z</time>
      </trkpt>
      <trkpt lat="43.29052216373383998870849609375" lon="-2.27385115809738636016845703125">
        <ele>136.399993896484375</ele>
        <time>2018-09-02T14:12:57.000Z</time>
      </trkpt>
      <trkpt lat="43.29051948152482509613037109375" lon="-2.2738663293421268463134765625">
        <ele>136.8000030517578125</ele>
        <time>2018-09-02T14:12:58.000Z</time>
      </trkpt>
      <trkpt lat="43.2905214093625545501708984375" lon="-2.27393665350973606109619140625">
        <ele>137.600006103515625</ele>
        <time>2018-09-02T14:13:04.000Z</time>
      </trkpt>
      <trkpt lat="43.29051428474485874176025390625" lon="-2.2739464603364467620849609375">
        <ele>138</ele>
        <time>2018-09-02T14:13:05.000Z</time>
      </trkpt>
      <trkpt lat="43.29047866165637969970703125" lon="-2.273993901908397674560546875">
        <ele>138.8000030517578125</ele>
        <time>2018-09-02T14:13:10.000Z</time>
      </trkpt>
      <trkpt lat="43.29047287814319133758544921875" lon="-2.27400639094412326812744140625">
        <ele>139.1999969482421875</ele>
        <time>2018-09-02T14:13:11.000Z</time>
      </trkpt>
      <trkpt lat="43.29045561142265796661376953125" lon="-2.27405014447867870330810546875">
        <ele>140</ele>
        <time>2018-09-02T14:13:15.000Z</time>
      </trkpt>
      <trkpt lat="43.29045510850846767425537109375" lon="-2.27406330406665802001953125">
        <ele>140.1999969482421875</ele>
        <time>2018-09-02T14:13:16.000Z</time>
      </trkpt>
      <trkpt lat="43.29041822813451290130615234375" lon="-2.27411032654345035552978515625">
        <ele>141.1999969482421875</ele>
        <time>2018-09-02T14:13:21.000Z</time>
      </trkpt>
      <trkpt lat="43.290409930050373077392578125" lon="-2.2741124220192432403564453125">
        <ele>141.399993896484375</ele>
        <time>2018-09-02T14:13:22.000Z</time>
      </trkpt>
      <trkpt lat="43.29040045849978923797607421875" lon="-2.274127341806888580322265625">
        <ele>141.600006103515625</ele>
        <time>2018-09-02T14:13:23.000Z</time>
      </trkpt>
      <trkpt lat="43.29036139883100986480712890625" lon="-2.27415910921990871429443359375">
        <ele>142</ele>
        <time>2018-09-02T14:13:27.000Z</time>
      </trkpt>
      <trkpt lat="43.29035134054720401763916015625" lon="-2.27416631765663623809814453125">
        <ele>142.1999969482421875</ele>
        <time>2018-09-02T14:13:28.000Z</time>
      </trkpt>
      <trkpt lat="43.290344886481761932373046875" lon="-2.27417956106364727020263671875">
        <ele>142.399993896484375</ele>
        <time>2018-09-02T14:13:29.000Z</time>
      </trkpt>
      <trkpt lat="43.29033172689378261566162109375" lon="-2.274195738136768341064453125">
        <ele>142.8000030517578125</ele>
        <time>2018-09-02T14:13:31.000Z</time>
      </trkpt>
      <trkpt lat="43.290293924510478973388671875" lon="-2.274218536913394927978515625">
        <ele>143.399993896484375</ele>
        <time>2018-09-02T14:13:35.000Z</time>
      </trkpt>
      <trkpt lat="43.2902862131595611572265625" lon="-2.274234630167484283447265625">
        <ele>143.600006103515625</ele>
        <time>2018-09-02T14:13:36.000Z</time>
      </trkpt>
      <trkpt lat="43.29026634804904460906982421875" lon="-2.2742436826229095458984375">
        <ele>144</ele>
        <time>2018-09-02T14:13:38.000Z</time>
      </trkpt>
      <trkpt lat="43.29024790786206722259521484375" lon="-2.27426505647599697113037109375">
        <ele>144.399993896484375</ele>
        <time>2018-09-02T14:13:40.000Z</time>
      </trkpt>
      <trkpt lat="43.2902360893785953521728515625" lon="-2.274268157780170440673828125">
        <ele>144.600006103515625</ele>
        <time>2018-09-02T14:13:41.000Z</time>
      </trkpt>
      <trkpt lat="43.2902245223522186279296875" lon="-2.2742753662168979644775390625">
        <ele>144.8000030517578125</ele>
        <time>2018-09-02T14:13:42.000Z</time>
      </trkpt>
      <trkpt lat="43.2901918329298496246337890625" lon="-2.2742877714335918426513671875">
        <ele>145.600006103515625</ele>
        <time>2018-09-02T14:13:45.000Z</time>
      </trkpt>
      <trkpt lat="43.29018202610313892364501953125" lon="-2.2742954827845096588134765625">
        <ele>145.8000030517578125</ele>
        <time>2018-09-02T14:13:46.000Z</time>
      </trkpt>
      <trkpt lat="43.29017079435288906097412109375" lon="-2.2742985002696514129638671875">
        <ele>146</ele>
        <time>2018-09-02T14:13:47.000Z</time>
      </trkpt>
      <trkpt lat="43.29016216099262237548828125" lon="-2.27430109865963459014892578125">
        <ele>146.1999969482421875</ele>
        <time>2018-09-02T14:13:48.000Z</time>
      </trkpt>
      <trkpt lat="43.29015335999429225921630859375" lon="-2.2743035294115543365478515625">
        <ele>146.600006103515625</ele>
        <time>2018-09-02T14:13:49.000Z</time>
      </trkpt>
      <trkpt lat="43.29013911075890064239501953125" lon="-2.27430981583893299102783203125">
        <ele>146.8000030517578125</ele>
        <time>2018-09-02T14:13:51.000Z</time>
      </trkpt>
      <trkpt lat="43.29011077992618083953857421875" lon="-2.27432037703692913055419921875">
        <ele>147.1999969482421875</ele>
        <time>2018-09-02T14:13:53.000Z</time>
      </trkpt>
      <trkpt lat="43.29008714295923709869384765625" lon="-2.27432406507432460784912109375">
        <ele>147.399993896484375</ele>
        <time>2018-09-02T14:13:55.000Z</time>
      </trkpt>
      <trkpt lat="43.29004414379596710205078125" lon="-2.2743437625467777252197265625">
        <ele>148.1999969482421875</ele>
        <time>2018-09-02T14:13:59.000Z</time>
      </trkpt>
      <trkpt lat="43.2900245301425457000732421875" lon="-2.2743578441441059112548828125">
        <ele>148.399993896484375</ele>
        <time>2018-09-02T14:14:01.000Z</time>
      </trkpt>
      <trkpt lat="43.29000701196491718292236328125" lon="-2.274371087551116943359375">
        <ele>148.8000030517578125</ele>
        <time>2018-09-02T14:14:03.000Z</time>
      </trkpt>
      <trkpt lat="43.28998521901667118072509765625" lon="-2.2743813134729862213134765625">
        <ele>149.1999969482421875</ele>
        <time>2018-09-02T14:14:05.000Z</time>
      </trkpt>
      <trkpt lat="43.28994263894855976104736328125" lon="-2.27441207505762577056884765625">
        <ele>150</ele>
        <time>2018-09-02T14:14:09.000Z</time>
      </trkpt>
      <trkpt lat="43.28992486931383609771728515625" lon="-2.27443252690136432647705078125">
        <ele>150.1999969482421875</ele>
        <time>2018-09-02T14:14:11.000Z</time>
      </trkpt>
      <trkpt lat="43.28991229645907878875732421875" lon="-2.2744421660900115966796875">
        <ele>150.399993896484375</ele>
        <time>2018-09-02T14:14:12.000Z</time>
      </trkpt>
      <trkpt lat="43.2898283936083316802978515625" lon="-2.2744825668632984161376953125">
        <ele>151</ele>
        <time>2018-09-02T14:14:19.000Z</time>
      </trkpt>
      <trkpt lat="43.289781622588634490966796875" lon="-2.2745207883417606353759765625">
        <ele>151.399993896484375</ele>
        <time>2018-09-02T14:14:23.000Z</time>
      </trkpt>
      <trkpt lat="43.28972521238029003143310546875" lon="-2.27458071894943714141845703125">
        <ele>152</ele>
        <time>2018-09-02T14:14:28.000Z</time>
      </trkpt>
      <trkpt lat="43.2896788604557514190673828125" lon="-2.2746341116726398468017578125">
        <ele>152.399993896484375</ele>
        <time>2018-09-02T14:14:32.000Z</time>
      </trkpt>
      <trkpt lat="43.28961490653455257415771484375" lon="-2.27468566037714481353759765625">
        <ele>153</ele>
        <time>2018-09-02T14:14:37.000Z</time>
      </trkpt>
      <trkpt lat="43.28960048966109752655029296875" lon="-2.274702005088329315185546875">
        <ele>153.1999969482421875</ele>
        <time>2018-09-02T14:14:38.000Z</time>
      </trkpt>
      <trkpt lat="43.28957165591418743133544921875" lon="-2.2747253067791461944580078125">
        <ele>153.600006103515625</ele>
        <time>2018-09-02T14:14:40.000Z</time>
      </trkpt>
      <trkpt lat="43.289517425000667572021484375" lon="-2.27476470172405242919921875">
        <ele>154</ele>
        <time>2018-09-02T14:14:44.000Z</time>
      </trkpt>
      <trkpt lat="43.2894716598093509674072265625" lon="-2.2747823037207126617431640625">
        <ele>154.600006103515625</ele>
        <time>2018-09-02T14:14:48.000Z</time>
      </trkpt>
      <trkpt lat="43.2894559018313884735107421875" lon="-2.27478909306228160858154296875">
        <ele>154.8000030517578125</ele>
        <time>2018-09-02T14:14:49.000Z</time>
      </trkpt>
      <trkpt lat="43.2893876731395721435546875" lon="-2.274828068912029266357421875">
        <ele>155.8000030517578125</ele>
        <time>2018-09-02T14:14:55.000Z</time>
      </trkpt>
      <trkpt lat="43.28937300480902194976806640625" lon="-2.27483871392905712127685546875">
        <ele>156</ele>
        <time>2018-09-02T14:14:56.000Z</time>
      </trkpt>
      <trkpt lat="43.28932053409516811370849609375" lon="-2.27486905641853809356689453125">
        <ele>157</ele>
        <time>2018-09-02T14:15:00.000Z</time>
      </trkpt>
      <trkpt lat="43.28926823101937770843505859375" lon="-2.27492286823689937591552734375">
        <ele>157.399993896484375</ele>
        <time>2018-09-02T14:15:04.000Z</time>
      </trkpt>
      <trkpt lat="43.28918851912021636962890625" lon="-2.275014482438564300537109375">
        <ele>158</ele>
        <time>2018-09-02T14:15:10.000Z</time>
      </trkpt>
      <trkpt lat="43.2891699112951755523681640625" lon="-2.27503694593906402587890625">
        <ele>158</ele>
        <time>2018-09-02T14:15:11.000Z</time>
      </trkpt>
      <trkpt lat="43.28905734233558177947998046875" lon="-2.275182791054248809814453125">
        <ele>158</ele>
        <time>2018-09-02T14:15:17.000Z</time>
      </trkpt>
      <trkpt lat="43.289011828601360321044921875" lon="-2.27522998116910457611083984375">
        <ele>158</ele>
        <time>2018-09-02T14:15:19.000Z</time>
      </trkpt>
      <trkpt lat="43.288932032883167266845703125" lon="-2.275337018072605133056640625">
        <ele>158.399993896484375</ele>
        <time>2018-09-02T14:15:23.000Z</time>
      </trkpt>
      <trkpt lat="43.28884712420403957366943359375" lon="-2.27544288150966167449951171875">
        <ele>158.8000030517578125</ele>
        <time>2018-09-02T14:15:27.000Z</time>
      </trkpt>
      <trkpt lat="43.288809321820735931396484375" lon="-2.27549702860414981842041015625">
        <ele>158.8000030517578125</ele>
        <time>2018-09-02T14:15:29.000Z</time>
      </trkpt>
      <trkpt lat="43.288719467818737030029296875" lon="-2.27561269886791706085205078125">
        <ele>158.8000030517578125</ele>
        <time>2018-09-02T14:15:33.000Z</time>
      </trkpt>
      <trkpt lat="43.288608156144618988037109375" lon="-2.2757643274962902069091796875">
        <ele>159.1999969482421875</ele>
        <time>2018-09-02T14:15:38.000Z</time>
      </trkpt>
      <trkpt lat="43.2885600440204143524169921875" lon="-2.2758280299603939056396484375">
        <ele>159.1999969482421875</ele>
        <time>2018-09-02T14:15:40.000Z</time>
      </trkpt>
      <trkpt lat="43.288388215005397796630859375" lon="-2.27605291642248630523681640625">
        <ele>159.399993896484375</ele>
        <time>2018-09-02T14:15:47.000Z</time>
      </trkpt>
      <trkpt lat="43.2883132807910442352294921875" lon="-2.2761472128331661224365234375">
        <ele>159.399993896484375</ele>
        <time>2018-09-02T14:15:50.000Z</time>
      </trkpt>
      <trkpt lat="43.2880926690995693206787109375" lon="-2.2763684950768947601318359375">
        <ele>160.399993896484375</ele>
        <time>2018-09-02T14:15:58.000Z</time>
      </trkpt>
      <trkpt lat="43.28800843097269535064697265625" lon="-2.276440747082233428955078125">
        <ele>160.600006103515625</ele>
        <time>2018-09-02T14:16:01.000Z</time>
      </trkpt>
      <trkpt lat="43.2878754101693630218505859375" lon="-2.2765847481787204742431640625">
        <ele>160.600006103515625</ele>
        <time>2018-09-02T14:16:06.000Z</time>
      </trkpt>
      <trkpt lat="43.28783123753964900970458984375" lon="-2.27665054611861705780029296875">
        <ele>160.8000030517578125</ele>
        <time>2018-09-02T14:16:08.000Z</time>
      </trkpt>
      <trkpt lat="43.2877751626074314117431640625" lon="-2.276762612164020538330078125">
        <ele>160.8000030517578125</ele>
        <time>2018-09-02T14:16:11.000Z</time>
      </trkpt>
      <trkpt lat="43.2877354323863983154296875" lon="-2.27687316946685314178466796875">
        <ele>161.399993896484375</ele>
        <time>2018-09-02T14:16:14.000Z</time>
      </trkpt>
      <trkpt lat="43.28772135078907012939453125" lon="-2.27690367959439754486083984375">
        <ele>161.600006103515625</ele>
        <time>2018-09-02T14:16:15.000Z</time>
      </trkpt>
      <trkpt lat="43.28769779764115810394287109375" lon="-2.27698288857936859130859375">
        <ele>162.399993896484375</ele>
        <time>2018-09-02T14:16:18.000Z</time>
      </trkpt>
      <trkpt lat="43.28768069855868816375732421875" lon="-2.27705371566116809844970703125">
        <ele>163</ele>
        <time>2018-09-02T14:16:21.000Z</time>
      </trkpt>
      <trkpt lat="43.28766158781945705413818359375" lon="-2.2771238721907138824462890625">
        <ele>163.600006103515625</ele>
        <time>2018-09-02T14:16:24.000Z</time>
      </trkpt>
      <trkpt lat="43.28764214180409908294677734375" lon="-2.277197130024433135986328125">
        <ele>164.1999969482421875</ele>
        <time>2018-09-02T14:16:27.000Z</time>
      </trkpt>
      <trkpt lat="43.2876353524625301361083984375" lon="-2.2772170789539813995361328125">
        <ele>164.399993896484375</ele>
        <time>2018-09-02T14:16:28.000Z</time>
      </trkpt>
      <trkpt lat="43.2876309938728809356689453125" lon="-2.277238704264163970947265625">
        <ele>164.600006103515625</ele>
        <time>2018-09-02T14:16:29.000Z</time>
      </trkpt>
      <trkpt lat="43.287600986659526824951171875" lon="-2.27734657935798168182373046875">
        <ele>165.8000030517578125</ele>
        <time>2018-09-02T14:16:33.000Z</time>
      </trkpt>
      <trkpt lat="43.2875798642635345458984375" lon="-2.27740667760372161865234375">
        <ele>166.600006103515625</ele>
        <time>2018-09-02T14:16:36.000Z</time>
      </trkpt>
      <trkpt lat="43.28757382929325103759765625" lon="-2.277428805828094482421875">
        <ele>166.8000030517578125</ele>
        <time>2018-09-02T14:16:37.000Z</time>
      </trkpt>
      <trkpt lat="43.28754524700343608856201171875" lon="-2.277545146644115447998046875">
        <ele>167.600006103515625</ele>
        <time>2018-09-02T14:16:42.000Z</time>
      </trkpt>
      <trkpt lat="43.2875315845012664794921875" lon="-2.277591414749622344970703125">
        <ele>167.8000030517578125</ele>
        <time>2018-09-02T14:16:44.000Z</time>
      </trkpt>
      <trkpt lat="43.28752311877906322479248046875" lon="-2.27761396206915378570556640625">
        <ele>168</ele>
        <time>2018-09-02T14:16:45.000Z</time>
      </trkpt>
      <trkpt lat="43.2874524593353271484375" lon="-2.277773804962635040283203125">
        <ele>168</ele>
        <time>2018-09-02T14:16:51.000Z</time>
      </trkpt>
      <trkpt lat="43.287404514849185943603515625" lon="-2.27786743082106113433837890625">
        <ele>167.8000030517578125</ele>
        <time>2018-09-02T14:16:54.000Z</time>
      </trkpt>
      <trkpt lat="43.2873637787997722625732421875" lon="-2.277996428310871124267578125">
        <ele>167.8000030517578125</ele>
        <time>2018-09-02T14:16:58.000Z</time>
      </trkpt>
      <trkpt lat="43.28733352012932300567626953125" lon="-2.27813732810318470001220703125">
        <ele>169</ele>
        <time>2018-09-02T14:17:04.000Z</time>
      </trkpt>
      <trkpt lat="43.28732899390161037445068359375" lon="-2.2781615518033504486083984375">
        <ele>169.1999969482421875</ele>
        <time>2018-09-02T14:17:05.000Z</time>
      </trkpt>
      <trkpt lat="43.2873161695897579193115234375" lon="-2.27824897505342960357666015625">
        <ele>170.1999969482421875</ele>
        <time>2018-09-02T14:17:09.000Z</time>
      </trkpt>
      <trkpt lat="43.2872983999550342559814453125" lon="-2.27832994423806667327880859375">
        <ele>171</ele>
        <time>2018-09-02T14:17:13.000Z</time>
      </trkpt>
      <trkpt lat="43.28729127533733844757080078125" lon="-2.2783756256103515625">
        <ele>171.399993896484375</ele>
        <time>2018-09-02T14:17:15.000Z</time>
      </trkpt>
      <trkpt lat="43.287281133234500885009765625" lon="-2.27846673689782619476318359375">
        <ele>172.600006103515625</ele>
        <time>2018-09-02T14:17:19.000Z</time>
      </trkpt>
      <trkpt lat="43.28727501444518566131591796875" lon="-2.27853613905608654022216796875">
        <ele>173.1999969482421875</ele>
        <time>2018-09-02T14:17:22.000Z</time>
      </trkpt>
      <trkpt lat="43.2872685603797435760498046875" lon="-2.2786151804029941558837890625">
        <ele>173.600006103515625</ele>
        <time>2018-09-02T14:17:25.000Z</time>
      </trkpt>
      <trkpt lat="43.2872554846107959747314453125" lon="-2.2787217982113361358642578125">
        <ele>173.8000030517578125</ele>
        <time>2018-09-02T14:17:29.000Z</time>
      </trkpt>
      <trkpt lat="43.287264369428157806396484375" lon="-2.27892505936324596405029296875">
        <ele>173.1999969482421875</ele>
        <time>2018-09-02T14:17:34.000Z</time>
      </trkpt>
      <trkpt lat="43.28728616237640380859375" lon="-2.279031760990619659423828125">
        <ele>172.600006103515625</ele>
        <time>2018-09-02T14:17:36.000Z</time>
      </trkpt>
      <trkpt lat="43.28730418346822261810302734375" lon="-2.27908364497125148773193359375">
        <ele>172.1999969482421875</ele>
        <time>2018-09-02T14:17:37.000Z</time>
      </trkpt>
      <trkpt lat="43.2873493619263172149658203125" lon="-2.2791801206767559051513671875">
        <ele>172</ele>
        <time>2018-09-02T14:17:39.000Z</time>
      </trkpt>
      <trkpt lat="43.28737559728324413299560546875" lon="-2.27922345511615276336669921875">
        <ele>171.8000030517578125</ele>
        <time>2018-09-02T14:17:40.000Z</time>
      </trkpt>
      <trkpt lat="43.28746008686721324920654296875" lon="-2.27934448979794979095458984375">
        <ele>172.1999969482421875</ele>
        <time>2018-09-02T14:17:43.000Z</time>
      </trkpt>
      <trkpt lat="43.28751943074166774749755859375" lon="-2.27942369878292083740234375">
        <ele>171.8000030517578125</ele>
        <time>2018-09-02T14:17:45.000Z</time>
      </trkpt>
      <trkpt lat="43.28758045099675655364990234375" lon="-2.2794986329972743988037109375">
        <ele>171.399993896484375</ele>
        <time>2018-09-02T14:17:47.000Z</time>
      </trkpt>
      <trkpt lat="43.28764985315501689910888671875" lon="-2.2795767523348331451416015625">
        <ele>171</ele>
        <time>2018-09-02T14:17:49.000Z</time>
      </trkpt>
      <trkpt lat="43.2877563871443271636962890625" lon="-2.27968982420861721038818359375">
        <ele>171.399993896484375</ele>
        <time>2018-09-02T14:17:52.000Z</time>
      </trkpt>
      <trkpt lat="43.2877909205853939056396484375" lon="-2.279735170304775238037109375">
        <ele>171.399993896484375</ele>
        <time>2018-09-02T14:17:53.000Z</time>
      </trkpt>
      <trkpt lat="43.287896029651165008544921875" lon="-2.2798654250800609588623046875">
        <ele>171</ele>
        <time>2018-09-02T14:17:56.000Z</time>
      </trkpt>
      <trkpt lat="43.28806593082845211029052734375" lon="-2.28007614612579345703125">
        <ele>171</ele>
        <time>2018-09-02T14:18:01.000Z</time>
      </trkpt>
      <trkpt lat="43.28812393359839916229248046875" lon="-2.28015501983463764190673828125">
        <ele>170.399993896484375</ele>
        <time>2018-09-02T14:18:03.000Z</time>
      </trkpt>
      <trkpt lat="43.2881996221840381622314453125" lon="-2.28025761432945728302001953125">
        <ele>170.8000030517578125</ele>
        <time>2018-09-02T14:18:06.000Z</time>
      </trkpt>
      <trkpt lat="43.28822233714163303375244140625" lon="-2.28028745390474796295166015625">
        <ele>170.8000030517578125</ele>
        <time>2018-09-02T14:18:07.000Z</time>
      </trkpt>
      <trkpt lat="43.288281261920928955078125" lon="-2.28038988076150417327880859375">
        <ele>170.600006103515625</ele>
        <time>2018-09-02T14:18:10.000Z</time>
      </trkpt>
      <trkpt lat="43.288310430943965911865234375" lon="-2.28046649135649204254150390625">
        <ele>170.8000030517578125</ele>
        <time>2018-09-02T14:18:12.000Z</time>
      </trkpt>
      <trkpt lat="43.288324177265167236328125" lon="-2.28050571866333484649658203125">
        <ele>171</ele>
        <time>2018-09-02T14:18:13.000Z</time>
      </trkpt>
      <trkpt lat="43.2883873768150806427001953125" lon="-2.28075943887233734130859375">
        <ele>171.600006103515625</ele>
        <time>2018-09-02T14:18:20.000Z</time>
      </trkpt>
      <trkpt lat="43.2884048111736774444580078125" lon="-2.28092816658318042755126953125">
        <ele>172.1999969482421875</ele>
        <time>2018-09-02T14:18:25.000Z</time>
      </trkpt>
      <trkpt lat="43.28840808011591434478759765625" lon="-2.28096052072942256927490234375">
        <ele>172.399993896484375</ele>
        <time>2018-09-02T14:18:26.000Z</time>
      </trkpt>
      <trkpt lat="43.2884098403155803680419921875" lon="-2.28105959482491016387939453125">
        <ele>172.399993896484375</ele>
        <time>2018-09-02T14:18:29.000Z</time>
      </trkpt>
      <trkpt lat="43.2883981056511402130126953125" lon="-2.2811327688395977020263671875">
        <ele>172.8000030517578125</ele>
        <time>2018-09-02T14:18:32.000Z</time>
      </trkpt>
      <trkpt lat="43.28840036876499652862548828125" lon="-2.28117249906063079833984375">
        <ele>173.1999969482421875</ele>
        <time>2018-09-02T14:18:34.000Z</time>
      </trkpt>
      <trkpt lat="43.28840623609721660614013671875" lon="-2.28124818764626979827880859375">
        <ele>174.399993896484375</ele>
        <time>2018-09-02T14:18:38.000Z</time>
      </trkpt>
      <trkpt lat="43.28840891830623149871826171875" lon="-2.28126528672873973846435546875">
        <ele>174.600006103515625</ele>
        <time>2018-09-02T14:18:39.000Z</time>
      </trkpt>
      <trkpt lat="43.28841880895197391510009765625" lon="-2.281319685280323028564453125">
        <ele>175.1999969482421875</ele>
        <time>2018-09-02T14:18:42.000Z</time>
      </trkpt>
      <trkpt lat="43.2884272746741771697998046875" lon="-2.281371988356113433837890625">
        <ele>175.600006103515625</ele>
        <time>2018-09-02T14:18:45.000Z</time>
      </trkpt>
      <trkpt lat="43.28842786140739917755126953125" lon="-2.2814321704208850860595703125">
        <ele>176</ele>
        <time>2018-09-02T14:18:48.000Z</time>
      </trkpt>
      <trkpt lat="43.288438506424427032470703125" lon="-2.2815163247287273406982421875">
        <ele>176.600006103515625</ele>
        <time>2018-09-02T14:18:52.000Z</time>
      </trkpt>
      <trkpt lat="43.28844998963177204132080078125" lon="-2.281575500965118408203125">
        <ele>177.1999969482421875</ele>
        <time>2018-09-02T14:18:55.000Z</time>
      </trkpt>
      <trkpt lat="43.288452923297882080078125" lon="-2.28162403218448162078857421875">
        <ele>177.600006103515625</ele>
        <time>2018-09-02T14:18:58.000Z</time>
      </trkpt>
      <trkpt lat="43.2884537614881992340087890625" lon="-2.28169016540050506591796875">
        <ele>178.8000030517578125</ele>
        <time>2018-09-02T14:19:02.000Z</time>
      </trkpt>
      <trkpt lat="43.28847178258001804351806640625" lon="-2.28177088312804698944091796875">
        <ele>180</ele>
        <time>2018-09-02T14:19:08.000Z</time>
      </trkpt>
      <trkpt lat="43.2884779013693332672119140625" lon="-2.2818023152649402618408203125">
        <ele>180.1999969482421875</ele>
        <time>2018-09-02T14:19:10.000Z</time>
      </trkpt>
      <trkpt lat="43.288495838642120361328125" lon="-2.281894348561763763427734375">
        <ele>181</ele>
        <time>2018-09-02T14:19:15.000Z</time>
      </trkpt>
      <trkpt lat="43.2885013706982135772705078125" lon="-2.28193064220249652862548828125">
        <ele>181.600006103515625</ele>
        <time>2018-09-02T14:19:17.000Z</time>
      </trkpt>
      <trkpt lat="43.2885090820491313934326171875" lon="-2.28197020478546619415283203125">
        <ele>182.1999969482421875</ele>
        <time>2018-09-02T14:19:20.000Z</time>
      </trkpt>
      <trkpt lat="43.288512267172336578369140625" lon="-2.28201395832002162933349609375">
        <ele>183</ele>
        <time>2018-09-02T14:19:23.000Z</time>
      </trkpt>
      <trkpt lat="43.28851402737200260162353515625" lon="-2.2820256091654300689697265625">
        <ele>183.1999969482421875</ele>
        <time>2018-09-02T14:19:24.000Z</time>
      </trkpt>
      <trkpt lat="43.28851637430489063262939453125" lon="-2.28203927166759967803955078125">
        <ele>183.399993896484375</ele>
        <time>2018-09-02T14:19:25.000Z</time>
      </trkpt>
      <trkpt lat="43.28852467238903045654296875" lon="-2.28209911845624446868896484375">
        <ele>184.1999969482421875</ele>
        <time>2018-09-02T14:19:30.000Z</time>
      </trkpt>
      <trkpt lat="43.288523666560649871826171875" lon="-2.2821127809584140777587890625">
        <ele>184.600006103515625</ele>
        <time>2018-09-02T14:19:31.000Z</time>
      </trkpt>
      <trkpt lat="43.2885258458554744720458984375" lon="-2.28214077651500701904296875">
        <ele>184.8000030517578125</ele>
        <time>2018-09-02T14:19:33.000Z</time>
      </trkpt>
      <trkpt lat="43.2885305397212505340576171875" lon="-2.28218226693570613861083984375">
        <ele>185.399993896484375</ele>
        <time>2018-09-02T14:19:36.000Z</time>
      </trkpt>
      <trkpt lat="43.28855409286916255950927734375" lon="-2.2827293537557125091552734375">
        <ele>190.600006103515625</ele>
        <time>2018-09-02T14:20:10.000Z</time>
      </trkpt>
      <trkpt lat="43.28855476342141628265380859375" lon="-2.2827467881143093109130859375">
        <ele>191</ele>
        <time>2018-09-02T14:20:11.000Z</time>
      </trkpt>
      <trkpt lat="43.2885536737740039825439453125" lon="-2.28278844617307186126708984375">
        <ele>191.399993896484375</ele>
        <time>2018-09-02T14:20:14.000Z</time>
      </trkpt>
      <trkpt lat="43.288553170859813690185546875" lon="-2.28281912393867969512939453125">
        <ele>191.600006103515625</ele>
        <time>2018-09-02T14:20:16.000Z</time>
      </trkpt>
      <trkpt lat="43.288554847240447998046875" lon="-2.2829060442745685577392578125">
        <ele>192.8000030517578125</ele>
        <time>2018-09-02T14:20:22.000Z</time>
      </trkpt>
      <trkpt lat="43.288553170859813690185546875" lon="-2.2829238139092922210693359375">
        <ele>193</ele>
        <time>2018-09-02T14:20:23.000Z</time>
      </trkpt>
      <trkpt lat="43.288545124232769012451171875" lon="-2.282995395362377166748046875">
        <ele>194</ele>
        <time>2018-09-02T14:20:27.000Z</time>
      </trkpt>
      <trkpt lat="43.28854152001440525054931640625" lon="-2.28302967734634876251220703125">
        <ele>194.399993896484375</ele>
        <time>2018-09-02T14:20:29.000Z</time>
      </trkpt>
      <trkpt lat="43.28854269348084926605224609375" lon="-2.28307552635669708251953125">
        <ele>195</ele>
        <time>2018-09-02T14:20:32.000Z</time>
      </trkpt>
      <trkpt lat="43.288541100919246673583984375" lon="-2.283148281276226043701171875">
        <ele>196</ele>
        <time>2018-09-02T14:20:36.000Z</time>
      </trkpt>
      <trkpt lat="43.28854235820472240447998046875" lon="-2.2831628657877445220947265625">
        <ele>196.1999969482421875</ele>
        <time>2018-09-02T14:20:37.000Z</time>
      </trkpt>
      <trkpt lat="43.28854185529053211212158203125" lon="-2.28320234455168247222900390625">
        <ele>197</ele>
        <time>2018-09-02T14:20:40.000Z</time>
      </trkpt>
      <trkpt lat="43.28854202292859554290771484375" lon="-2.283215336501598358154296875">
        <ele>197</ele>
        <time>2018-09-02T14:20:41.000Z</time>
      </trkpt>
      <trkpt lat="43.28854286111891269683837890625" lon="-2.2832416556775569915771484375">
        <ele>197.399993896484375</ele>
        <time>2018-09-02T14:20:43.000Z</time>
      </trkpt>
      <trkpt lat="43.28854654915630817413330078125" lon="-2.28328851051628589630126953125">
        <ele>198.1999969482421875</ele>
        <time>2018-09-02T14:20:46.000Z</time>
      </trkpt>
      <trkpt lat="43.28854721970856189727783203125" lon="-2.28336646221578121185302734375">
        <ele>199.1999969482421875</ele>
        <time>2018-09-02T14:20:51.000Z</time>
      </trkpt>
      <trkpt lat="43.28854923136532306671142578125" lon="-2.2834461741149425506591796875">
        <ele>200.399993896484375</ele>
        <time>2018-09-02T14:20:57.000Z</time>
      </trkpt>
      <trkpt lat="43.28854805789887905120849609375" lon="-2.28345908224582672119140625">
        <ele>200.600006103515625</ele>
        <time>2018-09-02T14:20:58.000Z</time>
      </trkpt>
      <trkpt lat="43.2885496504604816436767578125" lon="-2.28350308723747730255126953125">
        <ele>201.399993896484375</ele>
        <time>2018-09-02T14:21:01.000Z</time>
      </trkpt>
      <trkpt lat="43.28855015337467193603515625" lon="-2.283521108329296112060546875">
        <ele>201.399993896484375</ele>
        <time>2018-09-02T14:21:02.000Z</time>
      </trkpt>
      <trkpt lat="43.288551829755306243896484375" lon="-2.28353577665984630584716796875">
        <ele>201.600006103515625</ele>
        <time>2018-09-02T14:21:03.000Z</time>
      </trkpt>
      <trkpt lat="43.288557864725589752197265625" lon="-2.2835777699947357177734375">
        <ele>202.399993896484375</ele>
        <time>2018-09-02T14:21:06.000Z</time>
      </trkpt>
      <trkpt lat="43.28856289386749267578125" lon="-2.28361138142645359039306640625">
        <ele>202.600006103515625</ele>
        <time>2018-09-02T14:21:08.000Z</time>
      </trkpt>
      <trkpt lat="43.28856599517166614532470703125" lon="-2.28362797759473323822021484375">
        <ele>202.8000030517578125</ele>
        <time>2018-09-02T14:21:09.000Z</time>
      </trkpt>
      <trkpt lat="43.28856750391423702239990234375" lon="-2.2836956195533275604248046875">
        <ele>203.600006103515625</ele>
        <time>2018-09-02T14:21:13.000Z</time>
      </trkpt>
      <trkpt lat="43.288570940494537353515625" lon="-2.283737026154994964599609375">
        <ele>204</ele>
        <time>2018-09-02T14:21:16.000Z</time>
      </trkpt>
      <trkpt lat="43.28856532461941242218017578125" lon="-2.28384557180106639862060546875">
        <ele>204.600006103515625</ele>
        <time>2018-09-02T14:21:21.000Z</time>
      </trkpt>
      <trkpt lat="43.28854973427951335906982421875" lon="-2.28391581214964389801025390625">
        <ele>205.1999969482421875</ele>
        <time>2018-09-02T14:21:24.000Z</time>
      </trkpt>
      <trkpt lat="43.28854453749954700469970703125" lon="-2.283995188772678375244140625">
        <ele>205.399993896484375</ele>
        <time>2018-09-02T14:21:27.000Z</time>
      </trkpt>
      <trkpt lat="43.288538753986358642578125" lon="-2.28410054929554462432861328125">
        <ele>205.8000030517578125</ele>
        <time>2018-09-02T14:21:31.000Z</time>
      </trkpt>
      <trkpt lat="43.28852827660739421844482421875" lon="-2.2841544449329376220703125">
        <ele>206</ele>
        <time>2018-09-02T14:21:33.000Z</time>
      </trkpt>
      <trkpt lat="43.28849055804312229156494140625" lon="-2.28428645990788936614990234375">
        <ele>206.1999969482421875</ele>
        <time>2018-09-02T14:21:38.000Z</time>
      </trkpt>
      <trkpt lat="43.28847412951290607452392578125" lon="-2.2843421995639801025390625">
        <ele>206.399993896484375</ele>
        <time>2018-09-02T14:21:40.000Z</time>
      </trkpt>
      <trkpt lat="43.288429118692874908447265625" lon="-2.28444705717265605926513671875">
        <ele>206.600006103515625</ele>
        <time>2018-09-02T14:21:44.000Z</time>
      </trkpt>
      <trkpt lat="43.2884095050394535064697265625" lon="-2.28449173271656036376953125">
        <ele>206.8000030517578125</ele>
        <time>2018-09-02T14:21:46.000Z</time>
      </trkpt>
      <trkpt lat="43.288360051810741424560546875" lon="-2.28458116762340068817138671875">
        <ele>207.8000030517578125</ele>
        <time>2018-09-02T14:21:51.000Z</time>
      </trkpt>
      <trkpt lat="43.2883297093212604522705078125" lon="-2.2846347279846668243408203125">
        <ele>208.600006103515625</ele>
        <time>2018-09-02T14:21:54.000Z</time>
      </trkpt>
      <trkpt lat="43.2883082516491413116455078125" lon="-2.28467403911054134368896484375">
        <ele>209</ele>
        <time>2018-09-02T14:21:56.000Z</time>
      </trkpt>
      <trkpt lat="43.288268856704235076904296875" lon="-2.284811921417713165283203125">
        <ele>210</ele>
        <time>2018-09-02T14:22:02.000Z</time>
      </trkpt>
      <trkpt lat="43.288245387375354766845703125" lon="-2.28501568548381328582763671875">
        <ele>210.399993896484375</ele>
        <time>2018-09-02T14:22:09.000Z</time>
      </trkpt>
      <trkpt lat="43.2882691919803619384765625" lon="-2.28523160330951213836669921875">
        <ele>209.399993896484375</ele>
        <time>2018-09-02T14:22:14.000Z</time>
      </trkpt>
      <trkpt lat="43.28828888945281505584716796875" lon="-2.285342328250408172607421875">
        <ele>208.1999969482421875</ele>
        <time>2018-09-02T14:22:16.000Z</time>
      </trkpt>
      <trkpt lat="43.28832149505615234375" lon="-2.285507954657077789306640625">
        <ele>206.600006103515625</ele>
        <time>2018-09-02T14:22:18.000Z</time>
      </trkpt>
      <trkpt lat="43.28835879452526569366455078125" lon="-2.28571725077927112579345703125">
        <ele>204.1999969482421875</ele>
        <time>2018-09-02T14:22:20.000Z</time>
      </trkpt>
      <trkpt lat="43.28837941400706768035888671875" lon="-2.285823114216327667236328125">
        <ele>203</ele>
        <time>2018-09-02T14:22:21.000Z</time>
      </trkpt>
      <trkpt lat="43.28839818947017192840576171875" lon="-2.28592000901699066162109375">
        <ele>202.399993896484375</ele>
        <time>2018-09-02T14:22:22.000Z</time>
      </trkpt>
      <trkpt lat="43.28844227828085422515869140625" lon="-2.2861458174884319305419921875">
        <ele>202.1999969482421875</ele>
        <time>2018-09-02T14:22:25.000Z</time>
      </trkpt>
      <trkpt lat="43.2884544320404529571533203125" lon="-2.28619753383100032806396484375">
        <ele>202</ele>
        <time>2018-09-02T14:22:26.000Z</time>
      </trkpt>
      <trkpt lat="43.2884658314287662506103515625" lon="-2.28628772310912609100341796875">
        <ele>201.600006103515625</ele>
        <time>2018-09-02T14:22:28.000Z</time>
      </trkpt>
      <trkpt lat="43.28847195021808147430419921875" lon="-2.2863483242690563201904296875">
        <ele>201.8000030517578125</ele>
        <time>2018-09-02T14:22:30.000Z</time>
      </trkpt>
      <trkpt lat="43.28847396187484264373779296875" lon="-2.2864046506583690643310546875">
        <ele>202.600006103515625</ele>
        <time>2018-09-02T14:22:34.000Z</time>
      </trkpt>
      <trkpt lat="43.28847647644579410552978515625" lon="-2.2864123620092868804931640625">
        <ele>202.600006103515625</ele>
        <time>2018-09-02T14:22:36.000Z</time>
      </trkpt>
      <trkpt lat="43.28842903487384319305419921875" lon="-2.28644513525068759918212890625">
        <ele>202.8000030517578125</ele>
        <time>2018-09-02T14:22:57.000Z</time>
      </trkpt>
      <trkpt lat="43.2883873768150806427001953125" lon="-2.28644714690744876861572265625">
        <ele>202.8000030517578125</ele>
        <time>2018-09-02T14:22:59.000Z</time>
      </trkpt>
      <trkpt lat="43.2883416116237640380859375" lon="-2.286457456648349761962890625">
        <ele>203</ele>
        <time>2018-09-02T14:23:01.000Z</time>
      </trkpt>
      <trkpt lat="43.2882361672818660736083984375" lon="-2.2864991985261440277099609375">
        <ele>203.8000030517578125</ele>
        <time>2018-09-02T14:23:06.000Z</time>
      </trkpt>
      <trkpt lat="43.28819618560373783111572265625" lon="-2.2865122742950916290283203125">
        <ele>203.600006103515625</ele>
        <time>2018-09-02T14:23:08.000Z</time>
      </trkpt>
      <trkpt lat="43.28815846703946590423583984375" lon="-2.2865236736834049224853515625">
        <ele>204</ele>
        <time>2018-09-02T14:23:11.000Z</time>
      </trkpt>
      <trkpt lat="43.288148157298564910888671875" lon="-2.28652744553983211517333984375">
        <ele>204.1999969482421875</ele>
        <time>2018-09-02T14:23:12.000Z</time>
      </trkpt>
      <trkpt lat="43.288160227239131927490234375" lon="-2.2865669243037700653076171875">
        <ele>204.1999969482421875</ele>
        <time>2018-09-02T14:23:16.000Z</time>
      </trkpt>
      <trkpt lat="43.288206495344638824462890625" lon="-2.28653951548039913177490234375">
        <ele>204.399993896484375</ele>
        <time>2018-09-02T14:23:20.000Z</time>
      </trkpt>
      <trkpt lat="43.28823306597769260406494140625" lon="-2.2865102626383304595947265625">
        <ele>204.399993896484375</ele>
        <time>2018-09-02T14:23:22.000Z</time>
      </trkpt>
      <trkpt lat="43.28824974596500396728515625" lon="-2.2865032218396663665771484375">
        <ele>204.1999969482421875</ele>
        <time>2018-09-02T14:23:23.000Z</time>
      </trkpt>
      <trkpt lat="43.28831152059137821197509765625" lon="-2.2864852845668792724609375">
        <ele>203.8000030517578125</ele>
        <time>2018-09-02T14:23:27.000Z</time>
      </trkpt>
      <trkpt lat="43.28835343010723590850830078125" lon="-2.2864549420773983001708984375">
        <ele>203.600006103515625</ele>
        <time>2018-09-02T14:23:29.000Z</time>
      </trkpt>
      <trkpt lat="43.28841964714229106903076171875" lon="-2.28644547052681446075439453125">
        <ele>203.399993896484375</ele>
        <time>2018-09-02T14:23:32.000Z</time>
      </trkpt>
      <trkpt lat="43.288451917469501495361328125" lon="-2.2864432074129581451416015625">
        <ele>203</ele>
        <time>2018-09-02T14:23:34.000Z</time>
      </trkpt>
      <trkpt lat="43.288498185575008392333984375" lon="-2.2864351607859134674072265625">
        <ele>202.8000030517578125</ele>
        <time>2018-09-02T14:23:37.000Z</time>
      </trkpt>
      <trkpt lat="43.28851126134395599365234375" lon="-2.28642971254885196685791015625">
        <ele>202.8000030517578125</ele>
        <time>2018-09-02T14:23:38.000Z</time>
      </trkpt>
      <trkpt lat="43.2884913124144077301025390625" lon="-2.28641764260828495025634765625">
        <ele>202.8000030517578125</ele>
        <time>2018-09-02T14:24:13.000Z</time>
      </trkpt>
      <trkpt lat="43.28847714699804782867431640625" lon="-2.28642233647406101226806640625">
        <ele>202.8000030517578125</ele>
        <time>2018-09-02T14:24:14.000Z</time>
      </trkpt>
      <trkpt lat="43.28835946507751941680908203125" lon="-2.28645888157188892364501953125">
        <ele>203.1999969482421875</ele>
        <time>2018-09-02T14:24:20.000Z</time>
      </trkpt>
      <trkpt lat="43.28833758831024169921875" lon="-2.28646877221763134002685546875">
        <ele>203.399993896484375</ele>
        <time>2018-09-02T14:24:21.000Z</time>
      </trkpt>
      <trkpt lat="43.2881994545459747314453125" lon="-2.2865079157054424285888671875">
        <ele>204.1999969482421875</ele>
        <time>2018-09-02T14:24:27.000Z</time>
      </trkpt>
      <trkpt lat="43.2881510071456432342529296875" lon="-2.28651738725602626800537109375">
        <ele>204.399993896484375</ele>
        <time>2018-09-02T14:24:29.000Z</time>
      </trkpt>
      <trkpt lat="43.2880054973065853118896484375" lon="-2.28656332008540630340576171875">
        <ele>204.399993896484375</ele>
        <time>2018-09-02T14:24:35.000Z</time>
      </trkpt>
      <trkpt lat="43.28789980150759220123291015625" lon="-2.28661880828440189361572265625">
        <ele>204.1999969482421875</ele>
        <time>2018-09-02T14:24:39.000Z</time>
      </trkpt>
      <trkpt lat="43.28778061084449291229248046875" lon="-2.286758534610271453857421875">
        <ele>203.600006103515625</ele>
        <time>2018-09-02T14:24:44.000Z</time>
      </trkpt>
      <trkpt lat="43.28776887618005275726318359375" lon="-2.28679575026035308837890625">
        <ele>203.600006103515625</ele>
        <time>2018-09-02T14:24:45.000Z</time>
      </trkpt>
      <trkpt lat="43.28773819841444492340087890625" lon="-2.2869015298783779144287109375">
        <ele>203.1999969482421875</ele>
        <time>2018-09-02T14:24:48.000Z</time>
      </trkpt>
      <trkpt lat="43.2877005636692047119140625" lon="-2.28701007552444934844970703125">
        <ele>202.600006103515625</ele>
        <time>2018-09-02T14:24:51.000Z</time>
      </trkpt>
      <trkpt lat="43.28766074962913990020751953125" lon="-2.28710822761058807373046875">
        <ele>202.1999969482421875</ele>
        <time>2018-09-02T14:24:53.000Z</time>
      </trkpt>
      <trkpt lat="43.2876383699476718902587890625" lon="-2.2871650569140911102294921875">
        <ele>202</ele>
        <time>2018-09-02T14:24:54.000Z</time>
      </trkpt>
      <trkpt lat="43.28761875629425048828125" lon="-2.2872213833034038543701171875">
        <ele>201.600006103515625</ele>
        <time>2018-09-02T14:24:55.000Z</time>
      </trkpt>
      <trkpt lat="43.28760241158306598663330078125" lon="-2.28728701360523700714111328125">
        <ele>201.1999969482421875</ele>
        <time>2018-09-02T14:24:56.000Z</time>
      </trkpt>
      <trkpt lat="43.287590257823467254638671875" lon="-2.28736060671508312225341796875">
        <ele>200.600006103515625</ele>
        <time>2018-09-02T14:24:57.000Z</time>
      </trkpt>
      <trkpt lat="43.287585563957691192626953125" lon="-2.2875365428626537322998046875">
        <ele>199.1999969482421875</ele>
        <time>2018-09-02T14:24:59.000Z</time>
      </trkpt>
      <trkpt lat="43.2875840552151203155517578125" lon="-2.287831418216228485107421875">
        <ele>197.8000030517578125</ele>
        <time>2018-09-02T14:25:02.000Z</time>
      </trkpt>
      <trkpt lat="43.2875391282141208648681640625" lon="-2.2880304045975208282470703125">
        <ele>197</ele>
        <time>2018-09-02T14:25:04.000Z</time>
      </trkpt>
      <trkpt lat="43.28750300221145153045654296875" lon="-2.2881249524652957916259765625">
        <ele>196.399993896484375</ele>
        <time>2018-09-02T14:25:05.000Z</time>
      </trkpt>
      <trkpt lat="43.28746318817138671875" lon="-2.2882151417434215545654296875">
        <ele>195.8000030517578125</ele>
        <time>2018-09-02T14:25:06.000Z</time>
      </trkpt>
      <trkpt lat="43.28733687289059162139892578125" lon="-2.28846332989633083343505859375">
        <ele>196</ele>
        <time>2018-09-02T14:25:09.000Z</time>
      </trkpt>
      <trkpt lat="43.2871009223163127899169921875" lon="-2.28885660879313945770263671875">
        <ele>197</ele>
        <time>2018-09-02T14:25:15.000Z</time>
      </trkpt>
      <trkpt lat="43.28704451210796833038330078125" lon="-2.2889607958495616912841796875">
        <ele>197.600006103515625</ele>
        <time>2018-09-02T14:25:17.000Z</time>
      </trkpt>
      <trkpt lat="43.28698315657675266265869140625" lon="-2.28909499011933803558349609375">
        <ele>199</ele>
        <time>2018-09-02T14:25:20.000Z</time>
      </trkpt>
      <trkpt lat="43.28694946132600307464599609375" lon="-2.2891736961901187896728515625">
        <ele>199.600006103515625</ele>
        <time>2018-09-02T14:25:22.000Z</time>
      </trkpt>
      <trkpt lat="43.28693454153835773468017578125" lon="-2.28921233676373958587646484375">
        <ele>200</ele>
        <time>2018-09-02T14:25:23.000Z</time>
      </trkpt>
      <trkpt lat="43.2869094796478748321533203125" lon="-2.289292551577091217041015625">
        <ele>200.399993896484375</ele>
        <time>2018-09-02T14:25:25.000Z</time>
      </trkpt>
      <trkpt lat="43.2868826575577259063720703125" lon="-2.28936731815338134765625">
        <ele>200.600006103515625</ele>
        <time>2018-09-02T14:25:27.000Z</time>
      </trkpt>
      <trkpt lat="43.2868484593927860260009765625" lon="-2.28947988711297512054443359375">
        <ele>200.8000030517578125</ele>
        <time>2018-09-02T14:25:30.000Z</time>
      </trkpt>
      <trkpt lat="43.28683043830096721649169921875" lon="-2.28955364786088466644287109375">
        <ele>201.1999969482421875</ele>
        <time>2018-09-02T14:25:32.000Z</time>
      </trkpt>
      <trkpt lat="43.28681887127459049224853515625" lon="-2.28962816298007965087890625">
        <ele>201.399993896484375</ele>
        <time>2018-09-02T14:25:34.000Z</time>
      </trkpt>
      <trkpt lat="43.286809064447879791259765625" lon="-2.28974483907222747802734375">
        <ele>201.600006103515625</ele>
        <time>2018-09-02T14:25:37.000Z</time>
      </trkpt>
      <trkpt lat="43.2868011854588985443115234375" lon="-2.28982505388557910919189453125">
        <ele>201.8000030517578125</ele>
        <time>2018-09-02T14:25:39.000Z</time>
      </trkpt>
      <trkpt lat="43.2867894507944583892822265625" lon="-2.2899314202368259429931640625">
        <ele>202.1999969482421875</ele>
        <time>2018-09-02T14:25:42.000Z</time>
      </trkpt>
      <trkpt lat="43.28678484074771404266357421875" lon="-2.28999671526253223419189453125">
        <ele>202.600006103515625</ele>
        <time>2018-09-02T14:25:44.000Z</time>
      </trkpt>
      <trkpt lat="43.286768831312656402587890625" lon="-2.29016368277370929718017578125">
        <ele>203.399993896484375</ele>
        <time>2018-09-02T14:25:49.000Z</time>
      </trkpt>
      <trkpt lat="43.28676036559045314788818359375" lon="-2.2902323305606842041015625">
        <ele>203.1999969482421875</ele>
        <time>2018-09-02T14:25:51.000Z</time>
      </trkpt>
      <trkpt lat="43.2867161929607391357421875" lon="-2.2904863022267818450927734375">
        <ele>204.399993896484375</ele>
        <time>2018-09-02T14:25:59.000Z</time>
      </trkpt>
      <trkpt lat="43.28671141527593135833740234375" lon="-2.29052008129656314849853515625">
        <ele>204.600006103515625</ele>
        <time>2018-09-02T14:26:00.000Z</time>
      </trkpt>
      <trkpt lat="43.28668593429028987884521484375" lon="-2.29066140018403530120849609375">
        <ele>205.399993896484375</ele>
        <time>2018-09-02T14:26:04.000Z</time>
      </trkpt>
      <trkpt lat="43.28667939640581607818603515625" lon="-2.290696017444133758544921875">
        <ele>205.600006103515625</ele>
        <time>2018-09-02T14:26:05.000Z</time>
      </trkpt>
      <trkpt lat="43.28665743581950664520263671875" lon="-2.2907944209873676300048828125">
        <ele>205.8000030517578125</ele>
        <time>2018-09-02T14:26:08.000Z</time>
      </trkpt>
      <trkpt lat="43.2866008579730987548828125" lon="-2.2910046391189098358154296875">
        <ele>206.600006103515625</ele>
        <time>2018-09-02T14:26:14.000Z</time>
      </trkpt>
      <trkpt lat="43.28658853657543659210205078125" lon="-2.29104311205446720123291015625">
        <ele>206.8000030517578125</ele>
        <time>2018-09-02T14:26:15.000Z</time>
      </trkpt>
      <trkpt lat="43.28648619353771209716796875" lon="-2.29135994799435138702392578125">
        <ele>206.8000030517578125</ele>
        <time>2018-09-02T14:26:23.000Z</time>
      </trkpt>
      <trkpt lat="43.28645023517310619354248046875" lon="-2.2914800606667995452880859375">
        <ele>206.8000030517578125</ele>
        <time>2018-09-02T14:26:26.000Z</time>
      </trkpt>
      <trkpt lat="43.286389298737049102783203125" lon="-2.2916440106928348541259765625">
        <ele>206.600006103515625</ele>
        <time>2018-09-02T14:26:30.000Z</time>
      </trkpt>
      <trkpt lat="43.28637815080583095550537109375" lon="-2.29169053025543689727783203125">
        <ele>206.399993896484375</ele>
        <time>2018-09-02T14:26:31.000Z</time>
      </trkpt>
      <trkpt lat="43.28635032288730144500732421875" lon="-2.29177518747746944427490234375">
        <ele>206.1999969482421875</ele>
        <time>2018-09-02T14:26:33.000Z</time>
      </trkpt>
      <trkpt lat="43.28630321659147739410400390625" lon="-2.29189773090183734893798828125">
        <ele>205.399993896484375</ele>
        <time>2018-09-02T14:26:36.000Z</time>
      </trkpt>
      <trkpt lat="43.28620112501084804534912109375" lon="-2.29196059517562389373779296875">
        <ele>205</ele>
        <time>2018-09-02T14:26:39.000Z</time>
      </trkpt>
      <trkpt lat="43.2861567847430706024169921875" lon="-2.2919668816030025482177734375">
        <ele>204.8000030517578125</ele>
        <time>2018-09-02T14:26:40.000Z</time>
      </trkpt>
      <trkpt lat="43.2860303856432437896728515625" lon="-2.29197534732520580291748046875">
        <ele>204.600006103515625</ele>
        <time>2018-09-02T14:26:43.000Z</time>
      </trkpt>
      <trkpt lat="43.285947404801845550537109375" lon="-2.291966378688812255859375">
        <ele>204.399993896484375</ele>
        <time>2018-09-02T14:26:45.000Z</time>
      </trkpt>
      <trkpt lat="43.285905830562114715576171875" lon="-2.29196260683238506317138671875">
        <ele>204.1999969482421875</ele>
        <time>2018-09-02T14:26:46.000Z</time>
      </trkpt>
      <trkpt lat="43.2858661003410816192626953125" lon="-2.29196512140333652496337890625">
        <ele>204.1999969482421875</ele>
        <time>2018-09-02T14:26:47.000Z</time>
      </trkpt>
      <trkpt lat="43.2857024855911731719970703125" lon="-2.292031086981296539306640625">
        <ele>204.399993896484375</ele>
        <time>2018-09-02T14:26:52.000Z</time>
      </trkpt>
      <trkpt lat="43.285617828369140625" lon="-2.29224323295056819915771484375">
        <ele>204.399993896484375</ele>
        <time>2018-09-02T14:26:57.000Z</time>
      </trkpt>
      <trkpt lat="43.2856200076639652252197265625" lon="-2.29229830205440521240234375">
        <ele>204.1999969482421875</ele>
        <time>2018-09-02T14:26:58.000Z</time>
      </trkpt>
      <trkpt lat="43.28563534654676914215087890625" lon="-2.292411290109157562255859375">
        <ele>204.1999969482421875</ele>
        <time>2018-09-02T14:27:00.000Z</time>
      </trkpt>
      <trkpt lat="43.2856528647243976593017578125" lon="-2.29246325790882110595703125">
        <ele>204.1999969482421875</ele>
        <time>2018-09-02T14:27:01.000Z</time>
      </trkpt>
      <trkpt lat="43.28566904179751873016357421875" lon="-2.292578928172588348388671875">
        <ele>204</ele>
        <time>2018-09-02T14:27:03.000Z</time>
      </trkpt>
      <trkpt lat="43.28569251112639904022216796875" lon="-2.29270054958760738372802734375">
        <ele>203.399993896484375</ele>
        <time>2018-09-02T14:27:05.000Z</time>
      </trkpt>
      <trkpt lat="43.2857048325240612030029296875" lon="-2.2927631624042987823486328125">
        <ele>203</ele>
        <time>2018-09-02T14:27:06.000Z</time>
      </trkpt>
      <trkpt lat="43.285797201097011566162109375" lon="-2.29326079599559307098388671875">
        <ele>202.1999969482421875</ele>
        <time>2018-09-02T14:27:13.000Z</time>
      </trkpt>
      <trkpt lat="43.28581295907497406005859375" lon="-2.29342122562229633331298828125">
        <ele>201.600006103515625</ele>
        <time>2018-09-02T14:27:15.000Z</time>
      </trkpt>
      <trkpt lat="43.28581136651337146759033203125" lon="-2.29357629083096981048583984375">
        <ele>200.600006103515625</ele>
        <time>2018-09-02T14:27:17.000Z</time>
      </trkpt>
      <trkpt lat="43.285801894962787628173828125" lon="-2.29372263886034488677978515625">
        <ele>201</ele>
        <time>2018-09-02T14:27:19.000Z</time>
      </trkpt>
      <trkpt lat="43.285793848335742950439453125" lon="-2.29391634464263916015625">
        <ele>201.600006103515625</ele>
        <time>2018-09-02T14:27:22.000Z</time>
      </trkpt>
      <trkpt lat="43.2857873104512691497802734375" lon="-2.2940120659768581390380859375">
        <ele>202.600006103515625</ele>
        <time>2018-09-02T14:27:24.000Z</time>
      </trkpt>
      <trkpt lat="43.28577700071036815643310546875" lon="-2.29412798769772052764892578125">
        <ele>203.8000030517578125</ele>
        <time>2018-09-02T14:27:27.000Z</time>
      </trkpt>
      <trkpt lat="43.28576543368399143218994140625" lon="-2.29423259384930133819580078125">
        <ele>204.8000030517578125</ele>
        <time>2018-09-02T14:27:30.000Z</time>
      </trkpt>
      <trkpt lat="43.285762332379817962646484375" lon="-2.2942685522139072418212890625">
        <ele>205</ele>
        <time>2018-09-02T14:27:31.000Z</time>
      </trkpt>
      <trkpt lat="43.28575252555310726165771484375" lon="-2.2943401336669921875">
        <ele>205.600006103515625</ele>
        <time>2018-09-02T14:27:33.000Z</time>
      </trkpt>
      <trkpt lat="43.28574053943157196044921875" lon="-2.29440995492041110992431640625">
        <ele>206.1999969482421875</ele>
        <time>2018-09-02T14:27:35.000Z</time>
      </trkpt>
      <trkpt lat="43.28573391772806644439697265625" lon="-2.29444406926631927490234375">
        <ele>206.399993896484375</ele>
        <time>2018-09-02T14:27:36.000Z</time>
      </trkpt>
      <trkpt lat="43.2857239432632923126220703125" lon="-2.29451238177716732025146484375">
        <ele>207</ele>
        <time>2018-09-02T14:27:38.000Z</time>
      </trkpt>
      <trkpt lat="43.28572084195911884307861328125" lon="-2.294544987380504608154296875">
        <ele>207.1999969482421875</ele>
        <time>2018-09-02T14:27:39.000Z</time>
      </trkpt>
      <trkpt lat="43.285710029304027557373046875" lon="-2.29461598210036754608154296875">
        <ele>207.600006103515625</ele>
        <time>2018-09-02T14:27:41.000Z</time>
      </trkpt>
      <trkpt lat="43.285687230527400970458984375" lon="-2.294725365936756134033203125">
        <ele>208.1999969482421875</ele>
        <time>2018-09-02T14:27:44.000Z</time>
      </trkpt>
      <trkpt lat="43.2856270484626293182373046875" lon="-2.29493600316345691680908203125">
        <ele>208.8000030517578125</ele>
        <time>2018-09-02T14:27:50.000Z</time>
      </trkpt>
      <trkpt lat="43.28560064546763896942138671875" lon="-2.295006997883319854736328125">
        <ele>208.600006103515625</ele>
        <time>2018-09-02T14:27:52.000Z</time>
      </trkpt>
      <trkpt lat="43.2855666987597942352294921875" lon="-2.29508687742054462432861328125">
        <ele>208.600006103515625</ele>
        <time>2018-09-02T14:27:54.000Z</time>
      </trkpt>
      <trkpt lat="43.28552202321588993072509765625" lon="-2.295176647603511810302734375">
        <ele>208.1999969482421875</ele>
        <time>2018-09-02T14:27:56.000Z</time>
      </trkpt>
      <trkpt lat="43.28546284697949886322021484375" lon="-2.2952670045197010040283203125">
        <ele>207.8000030517578125</ele>
        <time>2018-09-02T14:27:58.000Z</time>
      </trkpt>
      <trkpt lat="43.28533544205129146575927734375" lon="-2.29542131535708904266357421875">
        <ele>206.8000030517578125</ele>
        <time>2018-09-02T14:28:01.000Z</time>
      </trkpt>
      <trkpt lat="43.28523896634578704833984375" lon="-2.29555291123688220977783203125">
        <ele>205.600006103515625</ele>
        <time>2018-09-02T14:28:03.000Z</time>
      </trkpt>
      <trkpt lat="43.28512924723327159881591796875" lon="-2.2956974990665912628173828125">
        <ele>204.600006103515625</ele>
        <time>2018-09-02T14:28:05.000Z</time>
      </trkpt>
      <trkpt lat="43.2850725017488002777099609375" lon="-2.29577402584254741668701171875">
        <ele>204.1999969482421875</ele>
        <time>2018-09-02T14:28:06.000Z</time>
      </trkpt>
      <trkpt lat="43.284959010779857635498046875" lon="-2.29593177326023578643798828125">
        <ele>203.1999969482421875</ele>
        <time>2018-09-02T14:28:08.000Z</time>
      </trkpt>
      <trkpt lat="43.284802101552486419677734375" lon="-2.29617350734770298004150390625">
        <ele>202</ele>
        <time>2018-09-02T14:28:11.000Z</time>
      </trkpt>
      <trkpt lat="43.28475021757185459136962890625" lon="-2.29625464417040348052978515625">
        <ele>200.8000030517578125</ele>
        <time>2018-09-02T14:28:12.000Z</time>
      </trkpt>
      <trkpt lat="43.28469808213412761688232421875" lon="-2.29633645154535770416259765625">
        <ele>200</ele>
        <time>2018-09-02T14:28:13.000Z</time>
      </trkpt>
      <trkpt lat="43.28464527614414691925048828125" lon="-2.2964216955006122589111328125">
        <ele>199.1999969482421875</ele>
        <time>2018-09-02T14:28:14.000Z</time>
      </trkpt>
      <trkpt lat="43.2845328748226165771484375" lon="-2.2965983860194683074951171875">
        <ele>197.399993896484375</ele>
        <time>2018-09-02T14:28:16.000Z</time>
      </trkpt>
      <trkpt lat="43.28442499972879886627197265625" lon="-2.29677901603281497955322265625">
        <ele>195.8000030517578125</ele>
        <time>2018-09-02T14:28:18.000Z</time>
      </trkpt>
      <trkpt lat="43.28437588177621364593505859375" lon="-2.29687758721411228179931640625">
        <ele>195</ele>
        <time>2018-09-02T14:28:19.000Z</time>
      </trkpt>
      <trkpt lat="43.2843308709561824798583984375" lon="-2.2969832830131053924560546875">
        <ele>194.399993896484375</ele>
        <time>2018-09-02T14:28:20.000Z</time>
      </trkpt>
      <trkpt lat="43.28425484709441661834716796875" lon="-2.2972012124955654144287109375">
        <ele>193.399993896484375</ele>
        <time>2018-09-02T14:28:22.000Z</time>
      </trkpt>
      <trkpt lat="43.28419365920126438140869140625" lon="-2.2974204830825328826904296875">
        <ele>191.8000030517578125</ele>
        <time>2018-09-02T14:28:24.000Z</time>
      </trkpt>
      <trkpt lat="43.284143619239330291748046875" lon="-2.297626845538616180419921875">
        <ele>190</ele>
        <time>2018-09-02T14:28:26.000Z</time>
      </trkpt>
      <trkpt lat="43.28412073664367198944091796875" lon="-2.297725416719913482666015625">
        <ele>189</ele>
        <time>2018-09-02T14:28:27.000Z</time>
      </trkpt>
      <trkpt lat="43.2840978540480136871337890625" lon="-2.29782189242541790008544921875">
        <ele>188.1999969482421875</ele>
        <time>2018-09-02T14:28:28.000Z</time>
      </trkpt>
      <trkpt lat="43.28405804000794887542724609375" lon="-2.29802188463509082794189453125">
        <ele>186.8000030517578125</ele>
        <time>2018-09-02T14:28:30.000Z</time>
      </trkpt>
      <trkpt lat="43.28400858677923679351806640625" lon="-2.2982248105108737945556640625">
        <ele>185.1999969482421875</ele>
        <time>2018-09-02T14:28:32.000Z</time>
      </trkpt>
      <trkpt lat="43.28397120349109172821044921875" lon="-2.29832313023507595062255859375">
        <ele>184.399993896484375</ele>
        <time>2018-09-02T14:28:33.000Z</time>
      </trkpt>
      <trkpt lat="43.2839208282530307769775390625" lon="-2.2984179295599460601806640625">
        <ele>183.399993896484375</ele>
        <time>2018-09-02T14:28:34.000Z</time>
      </trkpt>
      <trkpt lat="43.28379929065704345703125" lon="-2.29859210550785064697265625">
        <ele>180.399993896484375</ele>
        <time>2018-09-02T14:28:36.000Z</time>
      </trkpt>
      <trkpt lat="43.2837340794503688812255859375" lon="-2.2986700572073459625244140625">
        <ele>179.399993896484375</ele>
        <time>2018-09-02T14:28:37.000Z</time>
      </trkpt>
      <trkpt lat="43.28367213718593120574951171875" lon="-2.29873987846076488494873046875">
        <ele>178.399993896484375</ele>
        <time>2018-09-02T14:28:38.000Z</time>
      </trkpt>
      <trkpt lat="43.28355143778026103973388671875" lon="-2.29885487817227840423583984375">
        <ele>177.399993896484375</ele>
        <time>2018-09-02T14:28:40.000Z</time>
      </trkpt>
      <trkpt lat="43.28348924405872821807861328125" lon="-2.29889159090816974639892578125">
        <ele>176.8000030517578125</ele>
        <time>2018-09-02T14:28:41.000Z</time>
      </trkpt>
      <trkpt lat="43.28342068009078502655029296875" lon="-2.298914976418018341064453125">
        <ele>176.1999969482421875</ele>
        <time>2018-09-02T14:28:42.000Z</time>
      </trkpt>
      <trkpt lat="43.2832680456340312957763671875" lon="-2.2989168204367160797119140625">
        <ele>174.8000030517578125</ele>
        <time>2018-09-02T14:28:44.000Z</time>
      </trkpt>
      <trkpt lat="43.28318531624972820281982421875" lon="-2.29889460839331150054931640625">
        <ele>173.8000030517578125</ele>
        <time>2018-09-02T14:28:45.000Z</time>
      </trkpt>
      <trkpt lat="43.283096216619014739990234375" lon="-2.298862002789974212646484375">
        <ele>172.8000030517578125</ele>
        <time>2018-09-02T14:28:46.000Z</time>
      </trkpt>
      <trkpt lat="43.28300007618963718414306640625" lon="-2.298824451863765716552734375">
        <ele>171.8000030517578125</ele>
        <time>2018-09-02T14:28:47.000Z</time>
      </trkpt>
      <trkpt lat="43.2828994095325469970703125" lon="-2.298786230385303497314453125">
        <ele>170.399993896484375</ele>
        <time>2018-09-02T14:28:48.000Z</time>
      </trkpt>
      <trkpt lat="43.2828006707131862640380859375" lon="-2.2987488470971584320068359375">
        <ele>169.399993896484375</ele>
        <time>2018-09-02T14:28:49.000Z</time>
      </trkpt>
      <trkpt lat="43.2826212979853153228759765625" lon="-2.2986791096627712249755859375">
        <ele>167.600006103515625</ele>
        <time>2018-09-02T14:28:51.000Z</time>
      </trkpt>
      <trkpt lat="43.2824756205081939697265625" lon="-2.2986221127212047576904296875">
        <ele>166</ele>
        <time>2018-09-02T14:28:53.000Z</time>
      </trkpt>
      <trkpt lat="43.28234863467514514923095703125" lon="-2.29857861064374446868896484375">
        <ele>164.600006103515625</ele>
        <time>2018-09-02T14:28:55.000Z</time>
      </trkpt>
      <trkpt lat="43.28223648481070995330810546875" lon="-2.2985416464507579803466796875">
        <ele>162.8000030517578125</ele>
        <time>2018-09-02T14:28:57.000Z</time>
      </trkpt>
      <trkpt lat="43.28218619339168071746826171875" lon="-2.2985238768160343170166015625">
        <ele>162.1999969482421875</ele>
        <time>2018-09-02T14:28:58.000Z</time>
      </trkpt>
      <trkpt lat="43.2821351476013660430908203125" lon="-2.29850292205810546875">
        <ele>161.399993896484375</ele>
        <time>2018-09-02T14:28:59.000Z</time>
      </trkpt>
      <trkpt lat="43.28208410181105136871337890625" lon="-2.2984776087105274200439453125">
        <ele>160.1999969482421875</ele>
        <time>2018-09-02T14:29:00.000Z</time>
      </trkpt>
      <trkpt lat="43.28197471797466278076171875" lon="-2.2984273172914981842041015625">
        <ele>158.8000030517578125</ele>
        <time>2018-09-02T14:29:02.000Z</time>
      </trkpt>
      <trkpt lat="43.28185192309319972991943359375" lon="-2.29836788959801197052001953125">
        <ele>157.399993896484375</ele>
        <time>2018-09-02T14:29:04.000Z</time>
      </trkpt>
      <trkpt lat="43.28172300942242145538330078125" lon="-2.29828960262238979339599609375">
        <ele>155.600006103515625</ele>
        <time>2018-09-02T14:29:06.000Z</time>
      </trkpt>
      <trkpt lat="43.28161153011023998260498046875" lon="-2.29820595122873783111572265625">
        <ele>154</ele>
        <time>2018-09-02T14:29:08.000Z</time>
      </trkpt>
      <trkpt lat="43.28155956231057643890380859375" lon="-2.2981716692447662353515625">
        <ele>153.1999969482421875</ele>
        <time>2018-09-02T14:29:09.000Z</time>
      </trkpt>
      <trkpt lat="43.28150927089154720306396484375" lon="-2.298139147460460662841796875">
        <ele>152.399993896484375</ele>
        <time>2018-09-02T14:29:10.000Z</time>
      </trkpt>
      <trkpt lat="43.2814055867493152618408203125" lon="-2.29806295596063137054443359375">
        <ele>151</ele>
        <time>2018-09-02T14:29:12.000Z</time>
      </trkpt>
      <trkpt lat="43.28134984709322452545166015625" lon="-2.298034541308879852294921875">
        <ele>150.399993896484375</ele>
        <time>2018-09-02T14:29:13.000Z</time>
      </trkpt>
      <trkpt lat="43.2812872342765331268310546875" lon="-2.2980206273496150970458984375">
        <ele>149.399993896484375</ele>
        <time>2018-09-02T14:29:14.000Z</time>
      </trkpt>
      <trkpt lat="43.28115052543580532073974609375" lon="-2.29803479276597499847412109375">
        <ele>148</ele>
        <time>2018-09-02T14:29:16.000Z</time>
      </trkpt>
      <trkpt lat="43.28108296729624271392822265625" lon="-2.29806681163609027862548828125">
        <ele>147.1999969482421875</ele>
        <time>2018-09-02T14:29:17.000Z</time>
      </trkpt>
      <trkpt lat="43.28101985156536102294921875" lon="-2.2981126606464385986328125">
        <ele>146.399993896484375</ele>
        <time>2018-09-02T14:29:18.000Z</time>
      </trkpt>
      <trkpt lat="43.28090761788189411163330078125" lon="-2.29823595844209194183349609375">
        <ele>144.8000030517578125</ele>
        <time>2018-09-02T14:29:20.000Z</time>
      </trkpt>
      <trkpt lat="43.28085891902446746826171875" lon="-2.2982992418110370635986328125">
        <ele>144</ele>
        <time>2018-09-02T14:29:21.000Z</time>
      </trkpt>
      <trkpt lat="43.2808144949376583099365234375" lon="-2.29836386628448963165283203125">
        <ele>143</ele>
        <time>2018-09-02T14:29:22.000Z</time>
      </trkpt>
      <trkpt lat="43.28077250160276889801025390625" lon="-2.29843326844274997711181640625">
        <ele>142</ele>
        <time>2018-09-02T14:29:23.000Z</time>
      </trkpt>
      <trkpt lat="43.28072958625853061676025390625" lon="-2.29849915020167827606201171875">
        <ele>140.8000030517578125</ele>
        <time>2018-09-02T14:29:24.000Z</time>
      </trkpt>
      <trkpt lat="43.28068583272397518157958984375" lon="-2.29855497367680072784423828125">
        <ele>140</ele>
        <time>2018-09-02T14:29:25.000Z</time>
      </trkpt>
      <trkpt lat="43.28064191155135631561279296875" lon="-2.29860057123005390167236328125">
        <ele>139.399993896484375</ele>
        <time>2018-09-02T14:29:26.000Z</time>
      </trkpt>
      <trkpt lat="43.28054401092231273651123046875" lon="-2.29867257177829742431640625">
        <ele>138</ele>
        <time>2018-09-02T14:29:28.000Z</time>
      </trkpt>
      <trkpt lat="43.28048885799944400787353515625" lon="-2.29870475828647613525390625">
        <ele>137.1999969482421875</ele>
        <time>2018-09-02T14:29:29.000Z</time>
      </trkpt>
      <trkpt lat="43.28043001703917980194091796875" lon="-2.29873426258563995361328125">
        <ele>136.600006103515625</ele>
        <time>2018-09-02T14:29:30.000Z</time>
      </trkpt>
      <trkpt lat="43.28036547638475894927978515625" lon="-2.29875111021101474761962890625">
        <ele>136.1999969482421875</ele>
        <time>2018-09-02T14:29:31.000Z</time>
      </trkpt>
      <trkpt lat="43.28029431402683258056640625" lon="-2.2987595759332180023193359375">
        <ele>135.600006103515625</ele>
        <time>2018-09-02T14:29:32.000Z</time>
      </trkpt>
      <trkpt lat="43.2802190445363521575927734375" lon="-2.29875915683805942535400390625">
        <ele>135</ele>
        <time>2018-09-02T14:29:33.000Z</time>
      </trkpt>
      <trkpt lat="43.280142433941364288330078125" lon="-2.298745997250080108642578125">
        <ele>134.600006103515625</ele>
        <time>2018-09-02T14:29:34.000Z</time>
      </trkpt>
      <trkpt lat="43.27999298460781574249267578125" lon="-2.2986874915659427642822265625">
        <ele>133.1999969482421875</ele>
        <time>2018-09-02T14:29:36.000Z</time>
      </trkpt>
      <trkpt lat="43.27992492355406284332275390625" lon="-2.298650778830051422119140625">
        <ele>132.399993896484375</ele>
        <time>2018-09-02T14:29:37.000Z</time>
      </trkpt>
      <trkpt lat="43.2798586226999759674072265625" lon="-2.29861062951385974884033203125">
        <ele>131.600006103515625</ele>
        <time>2018-09-02T14:29:38.000Z</time>
      </trkpt>
      <trkpt lat="43.27973616309463977813720703125" lon="-2.29853712022304534912109375">
        <ele>130.399993896484375</ele>
        <time>2018-09-02T14:29:40.000Z</time>
      </trkpt>
      <trkpt lat="43.27962233684957027435302734375" lon="-2.29846947826445102691650390625">
        <ele>129.1999969482421875</ele>
        <time>2018-09-02T14:29:42.000Z</time>
      </trkpt>
      <trkpt lat="43.27956215478479862213134765625" lon="-2.2984464280307292938232421875">
        <ele>128.399993896484375</ele>
        <time>2018-09-02T14:29:43.000Z</time>
      </trkpt>
      <trkpt lat="43.27949660830199718475341796875" lon="-2.2984343580901622772216796875">
        <ele>128</ele>
        <time>2018-09-02T14:29:44.000Z</time>
      </trkpt>
      <trkpt lat="43.27936484478414058685302734375" lon="-2.2984559834003448486328125">
        <ele>126.8000030517578125</ele>
        <time>2018-09-02T14:29:46.000Z</time>
      </trkpt>
      <trkpt lat="43.2792604900896549224853515625" lon="-2.29850602336227893829345703125">
        <ele>125.59999847412109375</ele>
        <time>2018-09-02T14:29:48.000Z</time>
      </trkpt>
      <trkpt lat="43.27922117896378040313720703125" lon="-2.2985302470624446868896484375">
        <ele>125.40000152587890625</ele>
        <time>2018-09-02T14:29:49.000Z</time>
      </trkpt>
      <trkpt lat="43.279188238084316253662109375" lon="-2.29855162091553211212158203125">
        <ele>125.40000152587890625</ele>
        <time>2018-09-02T14:29:50.000Z</time>
      </trkpt>
      <trkpt lat="43.27906183898448944091796875" lon="-2.29860643856227397918701171875">
        <ele>126.40000152587890625</ele>
        <time>2018-09-02T14:29:55.000Z</time>
      </trkpt>
      <trkpt lat="43.27904448844492435455322265625" lon="-2.298602499067783355712890625">
        <ele>126.59999847412109375</ele>
        <time>2018-09-02T14:29:56.000Z</time>
      </trkpt>
      <trkpt lat="43.279031328856945037841796875" lon="-2.2985993139445781707763671875">
        <ele>126.8000030517578125</ele>
        <time>2018-09-02T14:29:57.000Z</time>
      </trkpt>
      <trkpt lat="43.279006518423557281494140625" lon="-2.2985865734517574310302734375">
        <ele>127.40000152587890625</ele>
        <time>2018-09-02T14:29:59.000Z</time>
      </trkpt>
      <trkpt lat="43.2790013216435909271240234375" lon="-2.29857333004474639892578125">
        <ele>127.40000152587890625</ele>
        <time>2018-09-02T14:30:00.000Z</time>
      </trkpt>
      <trkpt lat="43.27899453230202198028564453125" lon="-2.29853083379566669464111328125">
        <ele>128</ele>
        <time>2018-09-02T14:30:02.000Z</time>
      </trkpt>
      <trkpt lat="43.27898598276078701019287109375" lon="-2.29846545495092868804931640625">
        <ele>128.399993896484375</ele>
        <time>2018-09-02T14:30:05.000Z</time>
      </trkpt>
      <trkpt lat="43.27898430638015270233154296875" lon="-2.29844315908849239349365234375">
        <ele>128.600006103515625</ele>
        <time>2018-09-02T14:30:06.000Z</time>
      </trkpt>
      <trkpt lat="43.27897625975310802459716796875" lon="-2.298375181853771209716796875">
        <ele>129</ele>
        <time>2018-09-02T14:30:09.000Z</time>
      </trkpt>
      <trkpt lat="43.27896603383123874664306640625" lon="-2.29833905585110187530517578125">
        <ele>129.399993896484375</ele>
        <time>2018-09-02T14:30:11.000Z</time>
      </trkpt>
      <trkpt lat="43.27896117232739925384521484375" lon="-2.2983160056173801422119140625">
        <ele>129.8000030517578125</ele>
        <time>2018-09-02T14:30:12.000Z</time>
      </trkpt>
      <trkpt lat="43.2789520360529422760009765625" lon="-2.29826345108449459075927734375">
        <ele>130</ele>
        <time>2018-09-02T14:30:14.000Z</time>
      </trkpt>
      <trkpt lat="43.278938792645931243896484375" lon="-2.29818306863307952880859375">
        <ele>130.399993896484375</ele>
        <time>2018-09-02T14:30:17.000Z</time>
      </trkpt>
      <trkpt lat="43.27892714180052280426025390625" lon="-2.29812699370086193084716796875">
        <ele>130.399993896484375</ele>
        <time>2018-09-02T14:30:19.000Z</time>
      </trkpt>
      <trkpt lat="43.27886763028800487518310546875" lon="-2.297990955412387847900390625">
        <ele>130.8000030517578125</ele>
        <time>2018-09-02T14:30:25.000Z</time>
      </trkpt>
      <trkpt lat="43.27883443795144557952880859375" lon="-2.29795734398066997528076171875">
        <ele>131.1999969482421875</ele>
        <time>2018-09-02T14:30:27.000Z</time>
      </trkpt>
      <trkpt lat="43.2787473499774932861328125" lon="-2.2979086451232433319091796875">
        <ele>131.600006103515625</ele>
        <time>2018-09-02T14:30:32.000Z</time>
      </trkpt>
      <trkpt lat="43.27872245572507381439208984375" lon="-2.29788358323276042938232421875">
        <ele>132</ele>
        <time>2018-09-02T14:30:34.000Z</time>
      </trkpt>
      <trkpt lat="43.278683312237262725830078125" lon="-2.2978278435766696929931640625">
        <ele>132.1999969482421875</ele>
        <time>2018-09-02T14:30:37.000Z</time>
      </trkpt>
      <trkpt lat="43.27865942381322383880615234375" lon="-2.297795824706554412841796875">
        <ele>132.600006103515625</ele>
        <time>2018-09-02T14:30:39.000Z</time>
      </trkpt>
      <trkpt lat="43.2786144129931926727294921875" lon="-2.29772650636732578277587890625">
        <ele>133.1999969482421875</ele>
        <time>2018-09-02T14:30:44.000Z</time>
      </trkpt>
      <trkpt lat="43.2785875909030437469482421875" lon="-2.29767554439604282379150390625">
        <ele>133.8000030517578125</ele>
        <time>2018-09-02T14:30:48.000Z</time>
      </trkpt>
      <trkpt lat="43.278569988906383514404296875" lon="-2.29763179086148738861083984375">
        <ele>134.1999969482421875</ele>
        <time>2018-09-02T14:30:51.000Z</time>
      </trkpt>
      <trkpt lat="43.27853587456047534942626953125" lon="-2.29759323410689830780029296875">
        <ele>134.8000030517578125</ele>
        <time>2018-09-02T14:30:55.000Z</time>
      </trkpt>
      <trkpt lat="43.2785181887447834014892578125" lon="-2.29755618609488010406494140625">
        <ele>135.399993896484375</ele>
        <time>2018-09-02T14:30:58.000Z</time>
      </trkpt>
      <trkpt lat="43.27850704081356525421142578125" lon="-2.29752852581441402435302734375">
        <ele>135.600006103515625</ele>
        <time>2018-09-02T14:31:00.000Z</time>
      </trkpt>
      <trkpt lat="43.27850385569036006927490234375" lon="-2.2975146956741809844970703125">
        <ele>135.8000030517578125</ele>
        <time>2018-09-02T14:31:01.000Z</time>
      </trkpt>
      <trkpt lat="43.2784896902740001678466796875" lon="-2.2974754683673381805419921875">
        <ele>136.399993896484375</ele>
        <time>2018-09-02T14:31:04.000Z</time>
      </trkpt>
      <trkpt lat="43.278464712202548980712890625" lon="-2.29742961935698986053466796875">
        <ele>137.1999969482421875</ele>
        <time>2018-09-02T14:31:08.000Z</time>
      </trkpt>
      <trkpt lat="43.27844685874879360198974609375" lon="-2.297396175563335418701171875">
        <ele>137.600006103515625</ele>
        <time>2018-09-02T14:31:11.000Z</time>
      </trkpt>
      <trkpt lat="43.2784487865865230560302734375" lon="-2.29738402180373668670654296875">
        <ele>137.8000030517578125</ele>
        <time>2018-09-02T14:31:12.000Z</time>
      </trkpt>
      <trkpt lat="43.27843914739787578582763671875" lon="-2.2973624803125858306884765625">
        <ele>138.1999969482421875</ele>
        <time>2018-09-02T14:31:14.000Z</time>
      </trkpt>
      <trkpt lat="43.27842322178184986114501953125" lon="-2.2973339818418025970458984375">
        <ele>138.600006103515625</ele>
        <time>2018-09-02T14:31:17.000Z</time>
      </trkpt>
      <trkpt lat="43.27840344049036502838134765625" lon="-2.29729366488754749298095703125">
        <ele>139.399993896484375</ele>
        <time>2018-09-02T14:31:21.000Z</time>
      </trkpt>
      <trkpt lat="43.27838550321757793426513671875" lon="-2.29727673344314098358154296875">
        <ele>140</ele>
        <time>2018-09-02T14:31:24.000Z</time>
      </trkpt>
      <trkpt lat="43.27836035750806331634521484375" lon="-2.29724806733429431915283203125">
        <ele>140.600006103515625</ele>
        <time>2018-09-02T14:31:28.000Z</time>
      </trkpt>
      <trkpt lat="43.27835231088101863861083984375" lon="-2.2972307167947292327880859375">
        <ele>141</ele>
        <time>2018-09-02T14:31:30.000Z</time>
      </trkpt>
      <trkpt lat="43.2783351279795169830322265625" lon="-2.297184951603412628173828125">
        <ele>141.8000030517578125</ele>
        <time>2018-09-02T14:31:35.000Z</time>
      </trkpt>
      <trkpt lat="43.27832917682826519012451171875" lon="-2.29718134738504886627197265625">
        <ele>142</ele>
        <time>2018-09-02T14:31:36.000Z</time>
      </trkpt>
      <trkpt lat="43.27828223817050457000732421875" lon="-2.297153435647487640380859375">
        <ele>143</ele>
        <time>2018-09-02T14:31:42.000Z</time>
      </trkpt>
      <trkpt lat="43.27826145105063915252685546875" lon="-2.297129966318607330322265625">
        <ele>143.399993896484375</ele>
        <time>2018-09-02T14:31:45.000Z</time>
      </trkpt>
      <trkpt lat="43.2782419212162494659423828125" lon="-2.29711060412228107452392578125">
        <ele>144.1999969482421875</ele>
        <time>2018-09-02T14:31:48.000Z</time>
      </trkpt>
      <trkpt lat="43.2781956531107425689697265625" lon="-2.297079674899578094482421875">
        <ele>145</ele>
        <time>2018-09-02T14:31:54.000Z</time>
      </trkpt>
      <trkpt lat="43.27819154597818851470947265625" lon="-2.29708294384181499481201171875">
        <ele>145.1999969482421875</ele>
        <time>2018-09-02T14:31:55.000Z</time>
      </trkpt>
      <trkpt lat="43.27815315686166286468505859375" lon="-2.29706592857837677001953125">
        <ele>146</ele>
        <time>2018-09-02T14:32:01.000Z</time>
      </trkpt>
      <trkpt lat="43.27814946882426738739013671875" lon="-2.29705628938972949981689453125">
        <ele>146.1999969482421875</ele>
        <time>2018-09-02T14:32:02.000Z</time>
      </trkpt>
      <trkpt lat="43.27810697257518768310546875" lon="-2.29705880396068096160888671875">
        <ele>146.8000030517578125</ele>
        <time>2018-09-02T14:32:07.000Z</time>
      </trkpt>
      <trkpt lat="43.2780675776302814483642578125" lon="-2.2970717959105968475341796875">
        <ele>147.399993896484375</ele>
        <time>2018-09-02T14:32:11.000Z</time>
      </trkpt>
      <trkpt lat="43.27707893215119838714599609375" lon="-2.29631331749260425567626953125">
        <ele>172</ele>
        <time>2018-09-02T14:34:16.000Z</time>
      </trkpt>
      <trkpt lat="43.27702377922832965850830078125" lon="-2.296230085194110870361328125">
        <ele>173.1999969482421875</ele>
        <time>2018-09-02T14:34:21.000Z</time>
      </trkpt>
      <trkpt lat="43.2769940234720706939697265625" lon="-2.2962002456188201904296875">
        <ele>173.600006103515625</ele>
        <time>2018-09-02T14:34:23.000Z</time>
      </trkpt>
      <trkpt lat="43.27696979977190494537353515625" lon="-2.296173088252544403076171875">
        <ele>174.1999969482421875</ele>
        <time>2018-09-02T14:34:25.000Z</time>
      </trkpt>
      <trkpt lat="43.27693275175988674163818359375" lon="-2.2961330227553844451904296875">
        <ele>174.600006103515625</ele>
        <time>2018-09-02T14:34:28.000Z</time>
      </trkpt>
      <trkpt lat="43.2769091986119747161865234375" lon="-2.29610611684620380401611328125">
        <ele>175.1999969482421875</ele>
        <time>2018-09-02T14:34:30.000Z</time>
      </trkpt>
      <trkpt lat="43.27689955942332744598388671875" lon="-2.29606906883418560028076171875">
        <ele>175.1999969482421875</ele>
        <time>2018-09-02T14:34:32.000Z</time>
      </trkpt>
      <trkpt lat="43.27687558718025684356689453125" lon="-2.29602632112801074981689453125">
        <ele>175.8000030517578125</ele>
        <time>2018-09-02T14:34:35.000Z</time>
      </trkpt>
      <trkpt lat="43.27686703763902187347412109375" lon="-2.29601584374904632568359375">
        <ele>176.1999969482421875</ele>
        <time>2018-09-02T14:34:36.000Z</time>
      </trkpt>
      <trkpt lat="43.27679445035755634307861328125" lon="-2.29591802693903446197509765625">
        <ele>177.399993896484375</ele>
        <time>2018-09-02T14:34:44.000Z</time>
      </trkpt>
      <trkpt lat="43.2767311669886112213134765625" lon="-2.29587025009095668792724609375">
        <ele>178.1999969482421875</ele>
        <time>2018-09-02T14:34:50.000Z</time>
      </trkpt>
      <trkpt lat="43.27671951614320278167724609375" lon="-2.29587041772902011871337890625">
        <ele>178.399993896484375</ele>
        <time>2018-09-02T14:34:51.000Z</time>
      </trkpt>
      <trkpt lat="43.2766637764871120452880859375" lon="-2.29594619013369083404541015625">
        <ele>179.1999969482421875</ele>
        <time>2018-09-02T14:34:57.000Z</time>
      </trkpt>
      <trkpt lat="43.27664424665272235870361328125" lon="-2.29597770608961582183837890625">
        <ele>179.600006103515625</ele>
        <time>2018-09-02T14:34:59.000Z</time>
      </trkpt>
      <trkpt lat="43.27662010677158832550048828125" lon="-2.2960445098578929901123046875">
        <ele>180.600006103515625</ele>
        <time>2018-09-02T14:35:03.000Z</time>
      </trkpt>
      <trkpt lat="43.2766175083816051483154296875" lon="-2.29606973938643932342529296875">
        <ele>180.600006103515625</ele>
        <time>2018-09-02T14:35:04.000Z</time>
      </trkpt>
      <trkpt lat="43.2766027562320232391357421875" lon="-2.29614458978176116943359375">
        <ele>181</ele>
        <time>2018-09-02T14:35:07.000Z</time>
      </trkpt>
      <trkpt lat="43.27660267241299152374267578125" lon="-2.29618792422115802764892578125">
        <ele>181</ele>
        <time>2018-09-02T14:35:09.000Z</time>
      </trkpt>
      <trkpt lat="43.2766020856797695159912109375" lon="-2.2962108068168163299560546875">
        <ele>181.1999969482421875</ele>
        <time>2018-09-02T14:35:10.000Z</time>
      </trkpt>
      <trkpt lat="43.27658406458795070648193359375" lon="-2.29628716595470905303955078125">
        <ele>181.399993896484375</ele>
        <time>2018-09-02T14:35:13.000Z</time>
      </trkpt>
      <trkpt lat="43.2765715755522251129150390625" lon="-2.29639093391597270965576171875">
        <ele>181.399993896484375</ele>
        <time>2018-09-02T14:35:16.000Z</time>
      </trkpt>
      <trkpt lat="43.2765477709472179412841796875" lon="-2.2965309955179691314697265625">
        <ele>181.8000030517578125</ele>
        <time>2018-09-02T14:35:20.000Z</time>
      </trkpt>
      <trkpt lat="43.2765192724764347076416015625" lon="-2.2966339252889156341552734375">
        <ele>182.399993896484375</ele>
        <time>2018-09-02T14:35:23.000Z</time>
      </trkpt>
      <trkpt lat="43.276500664651393890380859375" lon="-2.29670793749392032623291015625">
        <ele>182.8000030517578125</ele>
        <time>2018-09-02T14:35:25.000Z</time>
      </trkpt>
      <trkpt lat="43.27645280398428440093994140625" lon="-2.29687758721411228179931640625">
        <ele>183.1999969482421875</ele>
        <time>2018-09-02T14:35:30.000Z</time>
      </trkpt>
      <trkpt lat="43.27641977928578853607177734375" lon="-2.29699610732495784759521484375">
        <ele>183.1999969482421875</ele>
        <time>2018-09-02T14:35:34.000Z</time>
      </trkpt>
      <trkpt lat="43.27640519477427005767822265625" lon="-2.2970681078732013702392578125">
        <ele>183.1999969482421875</ele>
        <time>2018-09-02T14:35:36.000Z</time>
      </trkpt>
      <trkpt lat="43.2763784565031528472900390625" lon="-2.29722828604280948638916015625">
        <ele>182.8000030517578125</ele>
        <time>2018-09-02T14:35:40.000Z</time>
      </trkpt>
      <trkpt lat="43.27637569047510623931884765625" lon="-2.2972838580608367919921875">
        <ele>182.600006103515625</ele>
        <time>2018-09-02T14:35:41.000Z</time>
      </trkpt>
      <trkpt lat="43.27637669630348682403564453125" lon="-2.29743179865181446075439453125">
        <ele>181.600006103515625</ele>
        <time>2018-09-02T14:35:43.000Z</time>
      </trkpt>
      <trkpt lat="43.2763851620256900787353515625" lon="-2.2976099140942096710205078125">
        <ele>180</ele>
        <time>2018-09-02T14:35:45.000Z</time>
      </trkpt>
      <trkpt lat="43.2764017581939697265625" lon="-2.29782105423510074615478515625">
        <ele>178.600006103515625</ele>
        <time>2018-09-02T14:35:47.000Z</time>
      </trkpt>
      <trkpt lat="43.276419527828693389892578125" lon="-2.29793119244277477264404296875">
        <ele>177.399993896484375</ele>
        <time>2018-09-02T14:35:48.000Z</time>
      </trkpt>
      <trkpt lat="43.27644878067076206207275390625" lon="-2.2980377264320850372314453125">
        <ele>177.1999969482421875</ele>
        <time>2018-09-02T14:35:49.000Z</time>
      </trkpt>
      <trkpt lat="43.27655875124037265777587890625" lon="-2.29828742332756519317626953125">
        <ele>176.399993896484375</ele>
        <time>2018-09-02T14:35:52.000Z</time>
      </trkpt>
      <trkpt lat="43.27658305875957012176513671875" lon="-2.298366129398345947265625">
        <ele>176</ele>
        <time>2018-09-02T14:35:53.000Z</time>
      </trkpt>
      <trkpt lat="43.2766165025532245635986328125" lon="-2.29853200726211071014404296875">
        <ele>175.1999969482421875</ele>
        <time>2018-09-02T14:35:55.000Z</time>
      </trkpt>
      <trkpt lat="43.27662295661866664886474609375" lon="-2.2986291535198688507080078125">
        <ele>174.1999969482421875</ele>
        <time>2018-09-02T14:35:56.000Z</time>
      </trkpt>
      <trkpt lat="43.2766138203442096710205078125" lon="-2.29873132891952991485595703125">
        <ele>173</ele>
        <time>2018-09-02T14:35:57.000Z</time>
      </trkpt>
      <trkpt lat="43.27656763605773448944091796875" lon="-2.2989429719746112823486328125">
        <ele>171.600006103515625</ele>
        <time>2018-09-02T14:35:59.000Z</time>
      </trkpt>
      <trkpt lat="43.27652891166508197784423828125" lon="-2.2991184890270233154296875">
        <ele>171.600006103515625</ele>
        <time>2018-09-02T14:36:01.000Z</time>
      </trkpt>
      <trkpt lat="43.27647878788411617279052734375" lon="-2.29927179403603076934814453125">
        <ele>170.8000030517578125</ele>
        <time>2018-09-02T14:36:03.000Z</time>
      </trkpt>
      <trkpt lat="43.27644928358495235443115234375" lon="-2.29935293085873126983642578125">
        <ele>170.399993896484375</ele>
        <time>2018-09-02T14:36:04.000Z</time>
      </trkpt>
      <trkpt lat="43.27638189308345317840576171875" lon="-2.29951755143702030181884765625">
        <ele>169.600006103515625</ele>
        <time>2018-09-02T14:36:06.000Z</time>
      </trkpt>
      <trkpt lat="43.27634769491851329803466796875" lon="-2.29959902353584766387939453125">
        <ele>169</ele>
        <time>2018-09-02T14:36:07.000Z</time>
      </trkpt>
      <trkpt lat="43.276283740997314453125" lon="-2.29976448230445384979248046875">
        <ele>167.8000030517578125</ele>
        <time>2018-09-02T14:36:09.000Z</time>
      </trkpt>
      <trkpt lat="43.2762245647609233856201171875" lon="-2.2999151051044464111328125">
        <ele>166.8000030517578125</ele>
        <time>2018-09-02T14:36:11.000Z</time>
      </trkpt>
      <trkpt lat="43.2761977426707744598388671875" lon="-2.2999856807291507720947265625">
        <ele>165.600006103515625</ele>
        <time>2018-09-02T14:36:12.000Z</time>
      </trkpt>
      <trkpt lat="43.27613730914890766143798828125" lon="-2.30013077147305011749267578125">
        <ele>164.399993896484375</ele>
        <time>2018-09-02T14:36:14.000Z</time>
      </trkpt>
      <trkpt lat="43.2761045359075069427490234375" lon="-2.30021425522863864898681640625">
        <ele>163.399993896484375</ele>
        <time>2018-09-02T14:36:15.000Z</time>
      </trkpt>
      <trkpt lat="43.27607176266610622406005859375" lon="-2.300297655165195465087890625">
        <ele>162.600006103515625</ele>
        <time>2018-09-02T14:36:16.000Z</time>
      </trkpt>
      <trkpt lat="43.27600588090717792510986328125" lon="-2.3004570789635181427001953125">
        <ele>160.600006103515625</ele>
        <time>2018-09-02T14:36:18.000Z</time>
      </trkpt>
      <trkpt lat="43.27597101218998432159423828125" lon="-2.30051583610475063323974609375">
        <ele>159.600006103515625</ele>
        <time>2018-09-02T14:36:19.000Z</time>
      </trkpt>
      <trkpt lat="43.27594301663339138031005859375" lon="-2.30055388994514942169189453125">
        <ele>158.600006103515625</ele>
        <time>2018-09-02T14:36:20.000Z</time>
      </trkpt>
      <trkpt lat="43.27591049484908580780029296875" lon="-2.3005737550556659698486328125">
        <ele>158</ele>
        <time>2018-09-02T14:36:21.000Z</time>
      </trkpt>
      <trkpt lat="43.27584461309015750885009765625" lon="-2.30061423964798450469970703125">
        <ele>156.600006103515625</ele>
        <time>2018-09-02T14:36:23.000Z</time>
      </trkpt>
      <trkpt lat="43.2758175395429134368896484375" lon="-2.3006330989301204681396484375">
        <ele>156</ele>
        <time>2018-09-02T14:36:24.000Z</time>
      </trkpt>
      <trkpt lat="43.275797925889492034912109375" lon="-2.3006522096693515777587890625">
        <ele>155.600006103515625</ele>
        <time>2018-09-02T14:36:25.000Z</time>
      </trkpt>
      <trkpt lat="43.2757716067135334014892578125" lon="-2.300687916576862335205078125">
        <ele>154.600006103515625</ele>
        <time>2018-09-02T14:36:27.000Z</time>
      </trkpt>
      <trkpt lat="43.275777138769626617431640625" lon="-2.30071247555315494537353515625">
        <ele>154</ele>
        <time>2018-09-02T14:36:28.000Z</time>
      </trkpt>
      <trkpt lat="43.27580370940268039703369140625" lon="-2.3007906787097454071044921875">
        <ele>153.1999969482421875</ele>
        <time>2018-09-02T14:36:54.000Z</time>
      </trkpt>
      <trkpt lat="43.2758118398487567901611328125" lon="-2.30080903507769107818603515625">
        <ele>153.1999969482421875</ele>
        <time>2018-09-02T14:36:55.000Z</time>
      </trkpt>
      <trkpt lat="43.27583111822605133056640625" lon="-2.300872318446636199951171875">
        <ele>153</ele>
        <time>2018-09-02T14:36:59.000Z</time>
      </trkpt>
      <trkpt lat="43.27583908103406429290771484375" lon="-2.30088983662426471710205078125">
        <ele>152.8000030517578125</ele>
        <time>2018-09-02T14:37:00.000Z</time>
      </trkpt>
      <trkpt lat="43.27591887675225734710693359375" lon="-2.3009397089481353759765625">
        <ele>152.600006103515625</ele>
        <time>2018-09-02T14:37:48.000Z</time>
      </trkpt>
      <trkpt lat="43.27594318427145481109619140625" lon="-2.300948761403560638427734375">
        <ele>152.399993896484375</ele>
        <time>2018-09-02T14:37:49.000Z</time>
      </trkpt>
      <trkpt lat="43.27601878903806209564208984375" lon="-2.30092990212142467498779296875">
        <ele>151.8000030517578125</ele>
        <time>2018-09-02T14:37:52.000Z</time>
      </trkpt>
      <trkpt lat="43.27606304548680782318115234375" lon="-2.30089486576616764068603515625">
        <ele>150.8000030517578125</ele>
        <time>2018-09-02T14:37:54.000Z</time>
      </trkpt>
      <trkpt lat="43.276131860911846160888671875" lon="-2.30088028125464916229248046875">
        <ele>149.399993896484375</ele>
        <time>2018-09-02T14:37:56.000Z</time>
      </trkpt>
      <trkpt lat="43.2762081362307071685791015625" lon="-2.30089453049004077911376953125">
        <ele>147.8000030517578125</ele>
        <time>2018-09-02T14:37:58.000Z</time>
      </trkpt>
      <trkpt lat="43.27626974321901798248291015625" lon="-2.3009187541902065277099609375">
        <ele>147.600006103515625</ele>
        <time>2018-09-02T14:38:00.000Z</time>
      </trkpt>
      <trkpt lat="43.27636864967644214630126953125" lon="-2.3009450733661651611328125">
        <ele>147.1999969482421875</ele>
        <time>2018-09-02T14:38:04.000Z</time>
      </trkpt>
      <trkpt lat="43.27641257084906101226806640625" lon="-2.30099092237651348114013671875">
        <ele>146.399993896484375</ele>
        <time>2018-09-02T14:38:06.000Z</time>
      </trkpt>
      <trkpt lat="43.27647191472351551055908203125" lon="-2.30108463205397129058837890625">
        <ele>145.8000030517578125</ele>
        <time>2018-09-02T14:38:08.000Z</time>
      </trkpt>
      <trkpt lat="43.2765068672597408294677734375" lon="-2.30113618075847625732421875">
        <ele>145.399993896484375</ele>
        <time>2018-09-02T14:38:09.000Z</time>
      </trkpt>
      <trkpt lat="43.2765960507094860076904296875" lon="-2.3012392781674861907958984375">
        <ele>144</ele>
        <time>2018-09-02T14:38:12.000Z</time>
      </trkpt>
      <trkpt lat="43.27662278898060321807861328125" lon="-2.30125612579286098480224609375">
        <ele>143.8000030517578125</ele>
        <time>2018-09-02T14:38:13.000Z</time>
      </trkpt>
      <trkpt lat="43.276650868356227874755859375" lon="-2.3012838698923587799072265625">
        <ele>143.1999969482421875</ele>
        <time>2018-09-02T14:38:16.000Z</time>
      </trkpt>
      <trkpt lat="43.27671666629612445831298828125" lon="-2.3014015518128871917724609375">
        <ele>142.8000030517578125</ele>
        <time>2018-09-02T14:38:20.000Z</time>
      </trkpt>
      <trkpt lat="43.27677852474153041839599609375" lon="-2.30150205083191394805908203125">
        <ele>143</ele>
        <time>2018-09-02T14:38:23.000Z</time>
      </trkpt>
      <trkpt lat="43.27679336071014404296875" lon="-2.30152719654142856597900390625">
        <ele>143.1999969482421875</ele>
        <time>2018-09-02T14:38:24.000Z</time>
      </trkpt>
      <trkpt lat="43.27705395407974720001220703125" lon="-2.3027792014181613922119140625">
        <ele>155</ele>
        <time>2018-09-02T14:41:13.000Z</time>
      </trkpt>
      <trkpt lat="43.27706770040094852447509765625" lon="-2.30280023999512195587158203125">
        <ele>155</ele>
        <time>2018-09-02T14:41:14.000Z</time>
      </trkpt>
      <trkpt lat="43.2770979590713977813720703125" lon="-2.30284047313034534454345703125">
        <ele>155</ele>
        <time>2018-09-02T14:41:16.000Z</time>
      </trkpt>
      <trkpt lat="43.2771371863782405853271484375" lon="-2.302875258028507232666015625">
        <ele>155</ele>
        <time>2018-09-02T14:41:18.000Z</time>
      </trkpt>
      <trkpt lat="43.2772448100149631500244140625" lon="-2.3029339313507080078125">
        <ele>155</ele>
        <time>2018-09-02T14:41:23.000Z</time>
      </trkpt>
      <trkpt lat="43.27730624936521053314208984375" lon="-2.3029545508325099945068359375">
        <ele>154.399993896484375</ele>
        <time>2018-09-02T14:41:25.000Z</time>
      </trkpt>
      <trkpt lat="43.27735788188874721527099609375" lon="-2.30299235321581363677978515625">
        <ele>154.600006103515625</ele>
        <time>2018-09-02T14:41:28.000Z</time>
      </trkpt>
      <trkpt lat="43.2774008810520172119140625" lon="-2.30306762270629405975341796875">
        <ele>155.1999969482421875</ele>
        <time>2018-09-02T14:41:32.000Z</time>
      </trkpt>
      <trkpt lat="43.27741035260260105133056640625" lon="-2.30309980921447277069091796875">
        <ele>155.399993896484375</ele>
        <time>2018-09-02T14:41:34.000Z</time>
      </trkpt>
      <trkpt lat="43.2774251885712146759033203125" lon="-2.30316535569727420806884765625">
        <ele>156.1999969482421875</ele>
        <time>2018-09-02T14:41:38.000Z</time>
      </trkpt>
      <trkpt lat="43.2774332351982593536376953125" lon="-2.30320072732865810394287109375">
        <ele>156.399993896484375</ele>
        <time>2018-09-02T14:41:40.000Z</time>
      </trkpt>
      <trkpt lat="43.277449496090412139892578125" lon="-2.30325638316571712493896484375">
        <ele>157.1999969482421875</ele>
        <time>2018-09-02T14:41:44.000Z</time>
      </trkpt>
      <trkpt lat="43.27745628543198108673095703125" lon="-2.30328756384551525115966796875">
        <ele>157.600006103515625</ele>
        <time>2018-09-02T14:41:47.000Z</time>
      </trkpt>
      <trkpt lat="43.27748872339725494384765625" lon="-2.30363407172262668609619140625">
        <ele>160.399993896484375</ele>
        <time>2018-09-02T14:42:05.000Z</time>
      </trkpt>
      <trkpt lat="43.27749819494783878326416015625" lon="-2.30372141115367412567138671875">
        <ele>161.1999969482421875</ele>
        <time>2018-09-02T14:42:09.000Z</time>
      </trkpt>
      <trkpt lat="43.27750255353748798370361328125" lon="-2.30374102480709552764892578125">
        <ele>161.399993896484375</ele>
        <time>2018-09-02T14:42:10.000Z</time>
      </trkpt>
      <trkpt lat="43.277519904077053070068359375" lon="-2.303887121379375457763671875">
        <ele>161.399993896484375</ele>
        <time>2018-09-02T14:42:16.000Z</time>
      </trkpt>
      <trkpt lat="43.2775177247822284698486328125" lon="-2.30397370643913745880126953125">
        <ele>161.399993896484375</ele>
        <time>2018-09-02T14:42:20.000Z</time>
      </trkpt>
      <trkpt lat="43.27751261182129383087158203125" lon="-2.304007820785045623779296875">
        <ele>161.600006103515625</ele>
        <time>2018-09-02T14:42:22.000Z</time>
      </trkpt>
      <trkpt lat="43.27748880721628665924072265625" lon="-2.30410077609121799468994140625">
        <ele>162.399993896484375</ele>
        <time>2018-09-02T14:42:28.000Z</time>
      </trkpt>
      <trkpt lat="43.27748738229274749755859375" lon="-2.304120473563671112060546875">
        <ele>162.600006103515625</ele>
        <time>2018-09-02T14:42:29.000Z</time>
      </trkpt>
      <trkpt lat="43.27747623436152935028076171875" lon="-2.30422751046717166900634765625">
        <ele>163.1999969482421875</ele>
        <time>2018-09-02T14:42:34.000Z</time>
      </trkpt>
      <trkpt lat="43.27748143114149570465087890625" lon="-2.3042674921452999114990234375">
        <ele>163.8000030517578125</ele>
        <time>2018-09-02T14:42:36.000Z</time>
      </trkpt>
      <trkpt lat="43.27749568037688732147216796875" lon="-2.30436497367918491363525390625">
        <ele>164</ele>
        <time>2018-09-02T14:42:40.000Z</time>
      </trkpt>
      <trkpt lat="43.27753239311277866363525390625" lon="-2.304478548467159271240234375">
        <ele>165</ele>
        <time>2018-09-02T14:42:45.000Z</time>
      </trkpt>
      <trkpt lat="43.2775618135929107666015625" lon="-2.30452112853527069091796875">
        <ele>165.1999969482421875</ele>
        <time>2018-09-02T14:42:48.000Z</time>
      </trkpt>
      <trkpt lat="43.2775847800076007843017578125" lon="-2.3045553267002105712890625">
        <ele>165.600006103515625</ele>
        <time>2018-09-02T14:42:50.000Z</time>
      </trkpt>
      <trkpt lat="43.2776333950459957122802734375" lon="-2.30461391620337963104248046875">
        <ele>166.1999969482421875</ele>
        <time>2018-09-02T14:42:54.000Z</time>
      </trkpt>
      <trkpt lat="43.2776468060910701751708984375" lon="-2.30463336221873760223388671875">
        <ele>166.1999969482421875</ele>
        <time>2018-09-02T14:42:55.000Z</time>
      </trkpt>
      <trkpt lat="43.277662061154842376708984375" lon="-2.30465230531990528106689453125">
        <ele>166.399993896484375</ele>
        <time>2018-09-02T14:42:56.000Z</time>
      </trkpt>
      <trkpt lat="43.2777279429137706756591796875" lon="-2.30473008938133716583251953125">
        <ele>166.600006103515625</ele>
        <time>2018-09-02T14:43:01.000Z</time>
      </trkpt>
      <trkpt lat="43.27785325236618518829345703125" lon="-2.30482698418200016021728515625">
        <ele>166.399993896484375</ele>
        <time>2018-09-02T14:43:06.000Z</time>
      </trkpt>
      <trkpt lat="43.27790237031877040863037109375" lon="-2.304894961416721343994140625">
        <ele>166.399993896484375</ele>
        <time>2018-09-02T14:43:09.000Z</time>
      </trkpt>
      <trkpt lat="43.277918882668018341064453125" lon="-2.30490158312022686004638671875">
        <ele>166.1999969482421875</ele>
        <time>2018-09-02T14:43:10.000Z</time>
      </trkpt>
      <trkpt lat="43.27793606556951999664306640625" lon="-2.3049189336597919464111328125">
        <ele>166</ele>
        <time>2018-09-02T14:43:11.000Z</time>
      </trkpt>
      <trkpt lat="43.27795199118554592132568359375" lon="-2.30493745766580104827880859375">
        <ele>165.8000030517578125</ele>
        <time>2018-09-02T14:43:12.000Z</time>
      </trkpt>
      <trkpt lat="43.27798283658921718597412109375" lon="-2.30508548207581043243408203125">
        <ele>165.1999969482421875</ele>
        <time>2018-09-02T14:43:15.000Z</time>
      </trkpt>
      <trkpt lat="43.27799272723495960235595703125" lon="-2.30513962917029857635498046875">
        <ele>164.8000030517578125</ele>
        <time>2018-09-02T14:43:16.000Z</time>
      </trkpt>
      <trkpt lat="43.27803178690373897552490234375" lon="-2.3052870668470859527587890625">
        <ele>165.8000030517578125</ele>
        <time>2018-09-02T14:43:20.000Z</time>
      </trkpt>
      <trkpt lat="43.27804352156817913055419921875" lon="-2.3053125478327274322509765625">
        <ele>166.1999969482421875</ele>
        <time>2018-09-02T14:43:21.000Z</time>
      </trkpt>
      <trkpt lat="43.27805944718420505523681640625" lon="-2.3054332472383975982666015625">
        <ele>167.600006103515625</ele>
        <time>2018-09-02T14:43:26.000Z</time>
      </trkpt>
      <trkpt lat="43.2780595310032367706298828125" lon="-2.30545311234891414642333984375">
        <ele>167.8000030517578125</ele>
        <time>2018-09-02T14:43:27.000Z</time>
      </trkpt>
      <trkpt lat="43.2780501432716846466064453125" lon="-2.30551932938396930694580078125">
        <ele>168.1999969482421875</ele>
        <time>2018-09-02T14:43:30.000Z</time>
      </trkpt>
      <trkpt lat="43.27803815715014934539794921875" lon="-2.305592335760593414306640625">
        <ele>168.600006103515625</ele>
        <time>2018-09-02T14:43:33.000Z</time>
      </trkpt>
      <trkpt lat="43.278026841580867767333984375" lon="-2.30581856332719326019287109375">
        <ele>169.1999969482421875</ele>
        <time>2018-09-02T14:43:40.000Z</time>
      </trkpt>
      <trkpt lat="43.2780226506292819976806640625" lon="-2.30589785613119602203369140625">
        <ele>169.8000030517578125</ele>
        <time>2018-09-02T14:43:43.000Z</time>
      </trkpt>
      <trkpt lat="43.27799892984330654144287109375" lon="-2.3059965111315250396728515625">
        <ele>169.8000030517578125</ele>
        <time>2018-09-02T14:43:46.000Z</time>
      </trkpt>
      <trkpt lat="43.2779467105865478515625" lon="-2.306130789220333099365234375">
        <ele>169.399993896484375</ele>
        <time>2018-09-02T14:43:50.000Z</time>
      </trkpt>
      <trkpt lat="43.27789415605366230010986328125" lon="-2.30622760020196437835693359375">
        <ele>169.1999969482421875</ele>
        <time>2018-09-02T14:43:53.000Z</time>
      </trkpt>
      <trkpt lat="43.27784621156752109527587890625" lon="-2.306417115032672882080078125">
        <ele>169.600006103515625</ele>
        <time>2018-09-02T14:43:58.000Z</time>
      </trkpt>
      <trkpt lat="43.2778476364910602569580078125" lon="-2.3064588569104671478271484375">
        <ele>169.600006103515625</ele>
        <time>2018-09-02T14:43:59.000Z</time>
      </trkpt>
      <trkpt lat="43.2778620533645153045654296875" lon="-2.30652431957423686981201171875">
        <ele>169.8000030517578125</ele>
        <time>2018-09-02T14:44:01.000Z</time>
      </trkpt>
      <trkpt lat="43.27789105474948883056640625" lon="-2.30659849941730499267578125">
        <ele>170.1999969482421875</ele>
        <time>2018-09-02T14:44:04.000Z</time>
      </trkpt>
      <trkpt lat="43.2779284380376338958740234375" lon="-2.30667670257389545440673828125">
        <ele>170.8000030517578125</ele>
        <time>2018-09-02T14:44:08.000Z</time>
      </trkpt>
      <trkpt lat="43.27795333229005336761474609375" lon="-2.306720875203609466552734375">
        <ele>171.1999969482421875</ele>
        <time>2018-09-02T14:44:11.000Z</time>
      </trkpt>
      <trkpt lat="43.277977891266345977783203125" lon="-2.30679438449442386627197265625">
        <ele>171.8000030517578125</ele>
        <time>2018-09-02T14:44:14.000Z</time>
      </trkpt>
      <trkpt lat="43.2780016958713531494140625" lon="-2.30686713941395282745361328125">
        <ele>172</ele>
        <time>2018-09-02T14:44:17.000Z</time>
      </trkpt>
      <trkpt lat="43.27803195454180240631103515625" lon="-2.30694190599024295806884765625">
        <ele>172</ele>
        <time>2018-09-02T14:44:20.000Z</time>
      </trkpt>
      <trkpt lat="43.27805374749004840850830078125" lon="-2.307007201015949249267578125">
        <ele>172.399993896484375</ele>
        <time>2018-09-02T14:44:23.000Z</time>
      </trkpt>
      <trkpt lat="43.27806665562093257904052734375" lon="-2.30705405585467815399169921875">
        <ele>173</ele>
        <time>2018-09-02T14:44:27.000Z</time>
      </trkpt>
      <trkpt lat="43.27810152433812618255615234375" lon="-2.3073319159448146820068359375">
        <ele>173.8000030517578125</ele>
        <time>2018-09-02T14:46:08.000Z</time>
      </trkpt>
      <trkpt lat="43.2781027816236019134521484375" lon="-2.30735647492110729217529296875">
        <ele>173.8000030517578125</ele>
        <time>2018-09-02T14:46:09.000Z</time>
      </trkpt>
      <trkpt lat="43.27811191789805889129638671875" lon="-2.30740676634013652801513671875">
        <ele>174</ele>
        <time>2018-09-02T14:46:11.000Z</time>
      </trkpt>
      <trkpt lat="43.278118707239627838134765625" lon="-2.30743895284831523895263671875">
        <ele>173.8000030517578125</ele>
        <time>2018-09-02T14:46:13.000Z</time>
      </trkpt>
      <trkpt lat="43.27812264673411846160888671875" lon="-2.3074606619775295257568359375">
        <ele>173.600006103515625</ele>
        <time>2018-09-02T14:46:14.000Z</time>
      </trkpt>
      <trkpt lat="43.278137147426605224609375" lon="-2.30750651098787784576416015625">
        <ele>173.8000030517578125</ele>
        <time>2018-09-02T14:46:16.000Z</time>
      </trkpt>
      <trkpt lat="43.27816153876483440399169921875" lon="-2.3075753264129161834716796875">
        <ele>173.8000030517578125</ele>
        <time>2018-09-02T14:46:19.000Z</time>
      </trkpt>
      <trkpt lat="43.27820328064262866973876953125" lon="-2.30764129199087619781494140625">
        <ele>174.1999969482421875</ele>
        <time>2018-09-02T14:46:22.000Z</time>
      </trkpt>
      <trkpt lat="43.278244435787200927734375" lon="-2.3076705448329448699951171875">
        <ele>174.600006103515625</ele>
        <time>2018-09-02T14:46:25.000Z</time>
      </trkpt>
      <trkpt lat="43.27827385626733303070068359375" lon="-2.30768881738185882568359375">
        <ele>175</ele>
        <time>2018-09-02T14:46:27.000Z</time>
      </trkpt>
      <trkpt lat="43.278289698064327239990234375" lon="-2.3076956905424594879150390625">
        <ele>175.1999969482421875</ele>
        <time>2018-09-02T14:46:28.000Z</time>
      </trkpt>
      <trkpt lat="43.2783264108002185821533203125" lon="-2.30773868970572948455810546875">
        <ele>175.8000030517578125</ele>
        <time>2018-09-02T14:46:31.000Z</time>
      </trkpt>
      <trkpt lat="43.27833604998886585235595703125" lon="-2.3077469877898693084716796875">
        <ele>176</ele>
        <time>2018-09-02T14:46:32.000Z</time>
      </trkpt>
      <trkpt lat="43.27837242744863033294677734375" lon="-2.30779032222926616668701171875">
        <ele>176.1999969482421875</ele>
        <time>2018-09-02T14:46:35.000Z</time>
      </trkpt>
      <trkpt lat="43.27847099862992763519287109375" lon="-2.3078787513077259063720703125">
        <ele>176</ele>
        <time>2018-09-02T14:46:41.000Z</time>
      </trkpt>
      <trkpt lat="43.278592117130756378173828125" lon="-2.30799601413309574127197265625">
        <ele>174.399993896484375</ele>
        <time>2018-09-02T14:46:47.000Z</time>
      </trkpt>
      <trkpt lat="43.278615586459636688232421875" lon="-2.308038510382175445556640625">
        <ele>174</ele>
        <time>2018-09-02T14:46:48.000Z</time>
      </trkpt>
      <trkpt lat="43.2786408998072147369384765625" lon="-2.308079414069652557373046875">
        <ele>173.1999969482421875</ele>
        <time>2018-09-02T14:46:49.000Z</time>
      </trkpt>
      <trkpt lat="43.27867367304861545562744140625" lon="-2.30812174268066883087158203125">
        <ele>172.600006103515625</ele>
        <time>2018-09-02T14:46:50.000Z</time>
      </trkpt>
      <trkpt lat="43.27870502136647701263427734375" lon="-2.3081650771200656890869140625">
        <ele>171.600006103515625</ele>
        <time>2018-09-02T14:46:51.000Z</time>
      </trkpt>
      <trkpt lat="43.27873595058917999267578125" lon="-2.30820422060787677764892578125">
        <ele>170.8000030517578125</ele>
        <time>2018-09-02T14:46:52.000Z</time>
      </trkpt>
      <trkpt lat="43.2787599228322505950927734375" lon="-2.30823992751538753509521484375">
        <ele>170</ele>
        <time>2018-09-02T14:46:53.000Z</time>
      </trkpt>
      <trkpt lat="43.278814740478992462158203125" lon="-2.30828250758349895477294921875">
        <ele>169</ele>
        <time>2018-09-02T14:46:55.000Z</time>
      </trkpt>
      <trkpt lat="43.27884055674076080322265625" lon="-2.3083052225410938262939453125">
        <ele>168.600006103515625</ele>
        <time>2018-09-02T14:46:56.000Z</time>
      </trkpt>
      <trkpt lat="43.27889026142656803131103515625" lon="-2.308365069329738616943359375">
        <ele>167.600006103515625</ele>
        <time>2018-09-02T14:46:58.000Z</time>
      </trkpt>
      <trkpt lat="43.278924711048603057861328125" lon="-2.3084252513945102691650390625">
        <ele>165.600006103515625</ele>
        <time>2018-09-02T14:47:00.000Z</time>
      </trkpt>
      <trkpt lat="43.27894507907330989837646484375" lon="-2.30846104212105274200439453125">
        <ele>164.8000030517578125</ele>
        <time>2018-09-02T14:47:01.000Z</time>
      </trkpt>
      <trkpt lat="43.278963603079319000244140625" lon="-2.30850286781787872314453125">
        <ele>163</ele>
        <time>2018-09-02T14:47:02.000Z</time>
      </trkpt>
      <trkpt lat="43.27900140546262264251708984375" lon="-2.3086049593985080718994140625">
        <ele>161.399993896484375</ele>
        <time>2018-09-02T14:47:04.000Z</time>
      </trkpt>
      <trkpt lat="43.279046751558780670166015625" lon="-2.3086834140121936798095703125">
        <ele>160.1999969482421875</ele>
        <time>2018-09-02T14:47:06.000Z</time>
      </trkpt>
      <trkpt lat="43.279104419052600860595703125" lon="-2.30879581533372402191162109375">
        <ele>158.8000030517578125</ele>
        <time>2018-09-02T14:47:09.000Z</time>
      </trkpt>
      <trkpt lat="43.27914037741720676422119140625" lon="-2.30888214893639087677001953125">
        <ele>157.1999969482421875</ele>
        <time>2018-09-02T14:47:11.000Z</time>
      </trkpt>
      <trkpt lat="43.279174156486988067626953125" lon="-2.30894886888563632965087890625">
        <ele>156</ele>
        <time>2018-09-02T14:47:13.000Z</time>
      </trkpt>
      <trkpt lat="43.27919821254909038543701171875" lon="-2.30896554887294769287109375">
        <ele>155.600006103515625</ele>
        <time>2018-09-02T14:47:14.000Z</time>
      </trkpt>
      <trkpt lat="43.27923174016177654266357421875" lon="-2.30901944451034069061279296875">
        <ele>154.600006103515625</ele>
        <time>2018-09-02T14:47:16.000Z</time>
      </trkpt>
      <trkpt lat="43.27924280427396297454833984375" lon="-2.309071160852909088134765625">
        <ele>154</ele>
        <time>2018-09-02T14:47:17.000Z</time>
      </trkpt>
      <trkpt lat="43.27925537712872028350830078125" lon="-2.30913695879280567169189453125">
        <ele>153.1999969482421875</ele>
        <time>2018-09-02T14:47:18.000Z</time>
      </trkpt>
      <trkpt lat="43.27929510734975337982177734375" lon="-2.3092731647193431854248046875">
        <ele>151.8000030517578125</ele>
        <time>2018-09-02T14:47:20.000Z</time>
      </trkpt>
      <trkpt lat="43.2793466560542583465576171875" lon="-2.30938405729830265045166015625">
        <ele>150.8000030517578125</ele>
        <time>2018-09-02T14:47:22.000Z</time>
      </trkpt>
      <trkpt lat="43.2793868891894817352294921875" lon="-2.30949000455439090728759765625">
        <ele>149.600006103515625</ele>
        <time>2018-09-02T14:47:24.000Z</time>
      </trkpt>
      <trkpt lat="43.2794264517724514007568359375" lon="-2.3096184991300106048583984375">
        <ele>147.8000030517578125</ele>
        <time>2018-09-02T14:47:26.000Z</time>
      </trkpt>
      <trkpt lat="43.2794519327580928802490234375" lon="-2.3097345046699047088623046875">
        <ele>146.399993896484375</ele>
        <time>2018-09-02T14:47:28.000Z</time>
      </trkpt>
      <trkpt lat="43.27948923222720623016357421875" lon="-2.3099470697343349456787109375">
        <ele>145.399993896484375</ele>
        <time>2018-09-02T14:47:32.000Z</time>
      </trkpt>
      <trkpt lat="43.2794941775500774383544921875" lon="-2.3100597225129604339599609375">
        <ele>145</ele>
        <time>2018-09-02T14:47:35.000Z</time>
      </trkpt>
      <trkpt lat="43.2794837839901447296142578125" lon="-2.31010305695235729217529296875">
        <ele>145</ele>
        <time>2018-09-02T14:47:36.000Z</time>
      </trkpt>
      <trkpt lat="43.2794509269297122955322265625" lon="-2.31020431034266948699951171875">
        <ele>144.8000030517578125</ele>
        <time>2018-09-02T14:47:38.000Z</time>
      </trkpt>
      <trkpt lat="43.27942620031535625457763671875" lon="-2.31026113964617252349853515625">
        <ele>144.600006103515625</ele>
        <time>2018-09-02T14:47:39.000Z</time>
      </trkpt>
      <trkpt lat="43.27939736656844615936279296875" lon="-2.31031327508389949798583984375">
        <ele>144.399993896484375</ele>
        <time>2018-09-02T14:47:40.000Z</time>
      </trkpt>
      <trkpt lat="43.279253281652927398681640625" lon="-2.3105633072555065155029296875">
        <ele>144.8000030517578125</ele>
        <time>2018-09-02T14:47:45.000Z</time>
      </trkpt>
      <trkpt lat="43.27921313233673572540283203125" lon="-2.31065961532294750213623046875">
        <ele>145</ele>
        <time>2018-09-02T14:47:47.000Z</time>
      </trkpt>
      <trkpt lat="43.2791676186025142669677734375" lon="-2.31080420315265655517578125">
        <ele>145</ele>
        <time>2018-09-02T14:47:50.000Z</time>
      </trkpt>
      <trkpt lat="43.27909561805427074432373046875" lon="-2.31112011708319187164306640625">
        <ele>145.399993896484375</ele>
        <time>2018-09-02T14:47:56.000Z</time>
      </trkpt>
      <trkpt lat="43.279058150947093963623046875" lon="-2.3112697340548038482666015625">
        <ele>145.399993896484375</ele>
        <time>2018-09-02T14:47:59.000Z</time>
      </trkpt>
      <trkpt lat="43.27904306352138519287109375" lon="-2.3113649524748325347900390625">
        <ele>145.8000030517578125</ele>
        <time>2018-09-02T14:48:01.000Z</time>
      </trkpt>
      <trkpt lat="43.27901934273540973663330078125" lon="-2.31155312620103359222412109375">
        <ele>146</ele>
        <time>2018-09-02T14:48:05.000Z</time>
      </trkpt>
      <trkpt lat="43.278963603079319000244140625" lon="-2.3119597323238849639892578125">
        <ele>146.1999969482421875</ele>
        <time>2018-09-02T14:48:14.000Z</time>
      </trkpt>
      <trkpt lat="43.27897592447698116302490234375" lon="-2.31229484081268310546875">
        <ele>146.399993896484375</ele>
        <time>2018-09-02T14:48:22.000Z</time>
      </trkpt>
      <trkpt lat="43.2790073566138744354248046875" lon="-2.312452755868434906005859375">
        <ele>146.399993896484375</ele>
        <time>2018-09-02T14:48:26.000Z</time>
      </trkpt>
      <trkpt lat="43.27902051620185375213623046875" lon="-2.31249206699430942535400390625">
        <ele>146.600006103515625</ele>
        <time>2018-09-02T14:48:27.000Z</time>
      </trkpt>
      <trkpt lat="43.2790452428162097930908203125" lon="-2.31257236562669277191162109375">
        <ele>146.600006103515625</ele>
        <time>2018-09-02T14:48:29.000Z</time>
      </trkpt>
      <trkpt lat="43.2791753299534320831298828125" lon="-2.3128706775605678558349609375">
        <ele>147.600006103515625</ele>
        <time>2018-09-02T14:48:37.000Z</time>
      </trkpt>
      <trkpt lat="43.27919569797813892364501953125" lon="-2.3129088990390300750732421875">
        <ele>147.600006103515625</ele>
        <time>2018-09-02T14:48:38.000Z</time>
      </trkpt>
      <trkpt lat="43.27933819033205509185791015625" lon="-2.3131491243839263916015625">
        <ele>148</ele>
        <time>2018-09-02T14:48:45.000Z</time>
      </trkpt>
      <trkpt lat="43.279535584151744842529296875" lon="-2.31344156898558139801025390625">
        <ele>148.8000030517578125</ele>
        <time>2018-09-02T14:48:54.000Z</time>
      </trkpt>
      <trkpt lat="43.2795568741858005523681640625" lon="-2.31346956454217433929443359375">
        <ele>148.8000030517578125</ele>
        <time>2018-09-02T14:48:55.000Z</time>
      </trkpt>
      <trkpt lat="43.27966935932636260986328125" lon="-2.31364927254617214202880859375">
        <ele>149.399993896484375</ele>
        <time>2018-09-02T14:49:01.000Z</time>
      </trkpt>
      <trkpt lat="43.2797744683921337127685546875" lon="-2.31384742073714733123779296875">
        <ele>149.8000030517578125</ele>
        <time>2018-09-02T14:49:07.000Z</time>
      </trkpt>
      <trkpt lat="43.27979198656976222991943359375" lon="-2.31387508101761341094970703125">
        <ele>150</ele>
        <time>2018-09-02T14:49:08.000Z</time>
      </trkpt>
      <trkpt lat="43.27986893244087696075439453125" lon="-2.3139881528913974761962890625">
        <ele>150</ele>
        <time>2018-09-02T14:49:12.000Z</time>
      </trkpt>
      <trkpt lat="43.27992416918277740478515625" lon="-2.31408043764531612396240234375">
        <ele>150.1999969482421875</ele>
        <time>2018-09-02T14:49:15.000Z</time>
      </trkpt>
      <trkpt lat="43.27997035346925258636474609375" lon="-2.3141772486269474029541015625">
        <ele>150.8000030517578125</ele>
        <time>2018-09-02T14:49:18.000Z</time>
      </trkpt>
      <trkpt lat="43.28003791160881519317626953125" lon="-2.31428160332143306732177734375">
        <ele>150.600006103515625</ele>
        <time>2018-09-02T14:49:21.000Z</time>
      </trkpt>
      <trkpt lat="43.28015861101448535919189453125" lon="-2.31445242650806903839111328125">
        <ele>151</ele>
        <time>2018-09-02T14:49:26.000Z</time>
      </trkpt>
      <trkpt lat="43.28031518496572971343994140625" lon="-2.314675636589527130126953125">
        <ele>151.1999969482421875</ele>
        <time>2018-09-02T14:49:32.000Z</time>
      </trkpt>
      <trkpt lat="43.28044426627457141876220703125" lon="-2.31488074176013469696044921875">
        <ele>152</ele>
        <time>2018-09-02T14:49:37.000Z</time>
      </trkpt>
      <trkpt lat="43.28049254603683948516845703125" lon="-2.3149638064205646514892578125">
        <ele>152.1999969482421875</ele>
        <time>2018-09-02T14:49:39.000Z</time>
      </trkpt>
      <trkpt lat="43.28058508224785327911376953125" lon="-2.31514175422489643096923828125">
        <ele>152.600006103515625</ele>
        <time>2018-09-02T14:49:43.000Z</time>
      </trkpt>
      <trkpt lat="43.28065180219709873199462890625" lon="-2.3152652196586132049560546875">
        <ele>153.1999969482421875</ele>
        <time>2018-09-02T14:49:46.000Z</time>
      </trkpt>
      <trkpt lat="43.28078490681946277618408203125" lon="-2.31548977084457874298095703125">
        <ele>154.1999969482421875</ele>
        <time>2018-09-02T14:49:53.000Z</time>
      </trkpt>
      <trkpt lat="43.28080384992063045501708984375" lon="-2.31552765704691410064697265625">
        <ele>154.1999969482421875</ele>
        <time>2018-09-02T14:49:54.000Z</time>
      </trkpt>
      <trkpt lat="43.2808636128902435302734375" lon="-2.3156833089888095855712890625">
        <ele>154.8000030517578125</ele>
        <time>2018-09-02T14:49:58.000Z</time>
      </trkpt>
      <trkpt lat="43.28090460039675235748291015625" lon="-2.315798141062259674072265625">
        <ele>155.399993896484375</ele>
        <time>2018-09-02T14:50:01.000Z</time>
      </trkpt>
      <trkpt lat="43.28094298951327800750732421875" lon="-2.31593568809330463409423828125">
        <ele>155.8000030517578125</ele>
        <time>2018-09-02T14:50:05.000Z</time>
      </trkpt>
      <trkpt lat="43.2810015790164470672607421875" lon="-2.3162281326949596405029296875">
        <ele>156.1999969482421875</ele>
        <time>2018-09-02T14:50:12.000Z</time>
      </trkpt>
      <trkpt lat="43.28102446161210536956787109375" lon="-2.3163645900785923004150390625">
        <ele>156.600006103515625</ele>
        <time>2018-09-02T14:50:15.000Z</time>
      </trkpt>
      <trkpt lat="43.28106419183313846588134765625" lon="-2.31660724617540836334228515625">
        <ele>157.1999969482421875</ele>
        <time>2018-09-02T14:50:20.000Z</time>
      </trkpt>
      <trkpt lat="43.281100653111934661865234375" lon="-2.31677974574267864227294921875">
        <ele>157.600006103515625</ele>
        <time>2018-09-02T14:50:24.000Z</time>
      </trkpt>
      <trkpt lat="43.28111372888088226318359375" lon="-2.31692676432430744171142578125">
        <ele>158</ele>
        <time>2018-09-02T14:50:27.000Z</time>
      </trkpt>
      <trkpt lat="43.28109906055033206939697265625" lon="-2.3172292672097682952880859375">
        <ele>158.600006103515625</ele>
        <time>2018-09-02T14:50:32.000Z</time>
      </trkpt>
      <trkpt lat="43.28108950518071651458740234375" lon="-2.31728081591427326202392578125">
        <ele>158.8000030517578125</ele>
        <time>2018-09-02T14:50:33.000Z</time>
      </trkpt>
      <trkpt lat="43.2810190133750438690185546875" lon="-2.31758943758904933929443359375">
        <ele>159.600006103515625</ele>
        <time>2018-09-02T14:50:39.000Z</time>
      </trkpt>
      <trkpt lat="43.28098389320075511932373046875" lon="-2.3176822252571582794189453125">
        <ele>159.8000030517578125</ele>
        <time>2018-09-02T14:50:41.000Z</time>
      </trkpt>
      <trkpt lat="43.2807893492281436920166015625" lon="-2.31807273812592029571533203125">
        <ele>160.399993896484375</ele>
        <time>2018-09-02T14:50:50.000Z</time>
      </trkpt>
      <trkpt lat="43.28071500174701213836669921875" lon="-2.31819846667349338531494140625">
        <ele>160.8000030517578125</ele>
        <time>2018-09-02T14:50:53.000Z</time>
      </trkpt>
      <trkpt lat="43.28063897788524627685546875" lon="-2.31831816025078296661376953125">
        <ele>161.1999969482421875</ele>
        <time>2018-09-02T14:50:56.000Z</time>
      </trkpt>
      <trkpt lat="43.28044309280812740325927734375" lon="-2.318606078624725341796875">
        <ele>162</ele>
        <time>2018-09-02T14:51:03.000Z</time>
      </trkpt>
      <trkpt lat="43.2804171927273273468017578125" lon="-2.318643964827060699462890625">
        <ele>162.1999969482421875</ele>
        <time>2018-09-02T14:51:04.000Z</time>
      </trkpt>
      <trkpt lat="43.28028601594269275665283203125" lon="-2.31894143857061862945556640625">
        <ele>162.8000030517578125</ele>
        <time>2018-09-02T14:51:11.000Z</time>
      </trkpt>
      <trkpt lat="43.280256092548370361328125" lon="-2.3190343938767910003662109375">
        <ele>163.1999969482421875</ele>
        <time>2018-09-02T14:51:13.000Z</time>
      </trkpt>
      <trkpt lat="43.28019130043685436248779296875" lon="-2.3193213902413845062255859375">
        <ele>164</ele>
        <time>2018-09-02T14:51:19.000Z</time>
      </trkpt>
      <trkpt lat="43.28018157742917537689208984375" lon="-2.31937394477427005767822265625">
        <ele>164.1999969482421875</ele>
        <time>2018-09-02T14:51:20.000Z</time>
      </trkpt>
      <trkpt lat="43.280113600194454193115234375" lon="-2.31968273408710956573486328125">
        <ele>165.1999969482421875</ele>
        <time>2018-09-02T14:51:27.000Z</time>
      </trkpt>
      <trkpt lat="43.2800911366939544677734375" lon="-2.31976336799561977386474609375">
        <ele>165.399993896484375</ele>
        <time>2018-09-02T14:51:29.000Z</time>
      </trkpt>
      <trkpt lat="43.2800105027854442596435546875" lon="-2.320007868111133575439453125">
        <ele>166.1999969482421875</ele>
        <time>2018-09-02T14:51:35.000Z</time>
      </trkpt>
      <trkpt lat="43.27996230684220790863037109375" lon="-2.32012613676488399505615234375">
        <ele>166.399993896484375</ele>
        <time>2018-09-02T14:51:38.000Z</time>
      </trkpt>
      <trkpt lat="43.27986272983253002166748046875" lon="-2.3203181661665439605712890625">
        <ele>167</ele>
        <time>2018-09-02T14:51:43.000Z</time>
      </trkpt>
      <trkpt lat="43.27977237291634082794189453125" lon="-2.3204532824456691741943359375">
        <ele>167.600006103515625</ele>
        <time>2018-09-02T14:51:47.000Z</time>
      </trkpt>
      <trkpt lat="43.2796655036509037017822265625" lon="-2.32057574205100536346435546875">
        <ele>168.399993896484375</ele>
        <time>2018-09-02T14:51:51.000Z</time>
      </trkpt>
      <trkpt lat="43.27957623638212680816650390625" lon="-2.32068277895450592041015625">
        <ele>168.8000030517578125</ele>
        <time>2018-09-02T14:51:55.000Z</time>
      </trkpt>
      <trkpt lat="43.27951370738446712493896484375" lon="-2.32075829990208148956298828125">
        <ele>169.1999969482421875</ele>
        <time>2018-09-02T14:51:58.000Z</time>
      </trkpt>
      <trkpt lat="43.27940558083355426788330078125" lon="-2.320884279906749725341796875">
        <ele>169.8000030517578125</ele>
        <time>2018-09-02T14:52:03.000Z</time>
      </trkpt>
      <trkpt lat="43.27934288419783115386962890625" lon="-2.32096281833946704864501953125">
        <ele>170.1999969482421875</ele>
        <time>2018-09-02T14:52:06.000Z</time>
      </trkpt>
      <trkpt lat="43.27927633188664913177490234375" lon="-2.3210363276302814483642578125">
        <ele>171</ele>
        <time>2018-09-02T14:52:09.000Z</time>
      </trkpt>
      <trkpt lat="43.2792194187641143798828125" lon="-2.32114319689571857452392578125">
        <ele>171.1999969482421875</ele>
        <time>2018-09-02T14:52:13.000Z</time>
      </trkpt>
      <trkpt lat="43.279175497591495513916015625" lon="-2.32124092988669872283935546875">
        <ele>172</ele>
        <time>2018-09-02T14:52:17.000Z</time>
      </trkpt>
      <trkpt lat="43.2791518606245517730712890625" lon="-2.32131033204495906829833984375">
        <ele>172.1999969482421875</ele>
        <time>2018-09-02T14:52:20.000Z</time>
      </trkpt>
      <trkpt lat="43.2790928520262241363525390625" lon="-2.32147746719419956207275390625">
        <ele>173</ele>
        <time>2018-09-02T14:52:26.000Z</time>
      </trkpt>
      <trkpt lat="43.27908455394208431243896484375" lon="-2.32150621712207794189453125">
        <ele>173.1999969482421875</ele>
        <time>2018-09-02T14:52:27.000Z</time>
      </trkpt>
      <trkpt lat="43.279015235602855682373046875" lon="-2.32175834476947784423828125">
        <ele>174</ele>
        <time>2018-09-02T14:52:35.000Z</time>
      </trkpt>
      <trkpt lat="43.278998471796512603759765625" lon="-2.3217970691621303558349609375">
        <ele>174.1999969482421875</ele>
        <time>2018-09-02T14:52:36.000Z</time>
      </trkpt>
      <trkpt lat="43.27890752814710140228271484375" lon="-2.322012484073638916015625">
        <ele>175</ele>
        <time>2018-09-02T14:52:42.000Z</time>
      </trkpt>
      <trkpt lat="43.27887014485895633697509765625" lon="-2.322081215679645538330078125">
        <ele>175.399993896484375</ele>
        <time>2018-09-02T14:52:44.000Z</time>
      </trkpt>
      <trkpt lat="43.2788122259080410003662109375" lon="-2.32220836915075778961181640625">
        <ele>176</ele>
        <time>2018-09-02T14:52:48.000Z</time>
      </trkpt>
      <trkpt lat="43.27878816984593868255615234375" lon="-2.32227391563355922698974609375">
        <ele>176.1999969482421875</ele>
        <time>2018-09-02T14:52:50.000Z</time>
      </trkpt>
      <trkpt lat="43.2787619344890117645263671875" lon="-2.32233912684023380279541015625">
        <ele>176.600006103515625</ele>
        <time>2018-09-02T14:52:52.000Z</time>
      </trkpt>
      <trkpt lat="43.278695382177829742431640625" lon="-2.32249134220182895660400390625">
        <ele>177.399993896484375</ele>
        <time>2018-09-02T14:52:57.000Z</time>
      </trkpt>
      <trkpt lat="43.2786807976663112640380859375" lon="-2.322519086301326751708984375">
        <ele>177.600006103515625</ele>
        <time>2018-09-02T14:52:58.000Z</time>
      </trkpt>
      <trkpt lat="43.2785828970372676849365234375" lon="-2.32268177904188632965087890625">
        <ele>178.399993896484375</ele>
        <time>2018-09-02T14:53:04.000Z</time>
      </trkpt>
      <trkpt lat="43.27850318513810634613037109375" lon="-2.3227988742291927337646484375">
        <ele>178.600006103515625</ele>
        <time>2018-09-02T14:53:08.000Z</time>
      </trkpt>
      <trkpt lat="43.27841936610639095306396484375" lon="-2.32290205545723438262939453125">
        <ele>179.1999969482421875</ele>
        <time>2018-09-02T14:53:12.000Z</time>
      </trkpt>
      <trkpt lat="43.27833898365497589111328125" lon="-2.323015294969081878662109375">
        <ele>179.8000030517578125</ele>
        <time>2018-09-02T14:53:16.000Z</time>
      </trkpt>
      <trkpt lat="43.27826262451708316802978515625" lon="-2.32313440181314945220947265625">
        <ele>180.1999969482421875</ele>
        <time>2018-09-02T14:53:20.000Z</time>
      </trkpt>
      <trkpt lat="43.27818517573177814483642578125" lon="-2.32324839569628238677978515625">
        <ele>180.8000030517578125</ele>
        <time>2018-09-02T14:53:24.000Z</time>
      </trkpt>
      <trkpt lat="43.27806933782994747161865234375" lon="-2.323422320187091827392578125">
        <ele>181.8000030517578125</ele>
        <time>2018-09-02T14:53:30.000Z</time>
      </trkpt>
      <trkpt lat="43.2780499756336212158203125" lon="-2.323443107306957244873046875">
        <ele>182</ele>
        <time>2018-09-02T14:53:31.000Z</time>
      </trkpt>
      <trkpt lat="43.27794863842427730560302734375" lon="-2.3235921375453472137451171875">
        <ele>183</ele>
        <time>2018-09-02T14:53:37.000Z</time>
      </trkpt>
      <trkpt lat="43.27780799008905887603759765625" lon="-2.32376958243548870086669921875">
        <ele>184</ele>
        <time>2018-09-02T14:53:44.000Z</time>
      </trkpt>
      <trkpt lat="43.27774361707270145416259765625" lon="-2.3238415829837322235107421875">
        <ele>184.1999969482421875</ele>
        <time>2018-09-02T14:53:47.000Z</time>
      </trkpt>
      <trkpt lat="43.2776468060910701751708984375" lon="-2.323917858302593231201171875">
        <ele>185.1999969482421875</ele>
        <time>2018-09-02T14:53:51.000Z</time>
      </trkpt>
      <trkpt lat="43.2775752246379852294921875" lon="-2.3239773698151111602783203125">
        <ele>185.600006103515625</ele>
        <time>2018-09-02T14:53:54.000Z</time>
      </trkpt>
      <trkpt lat="43.27740046195685863494873046875" lon="-2.3241315968334674835205078125">
        <ele>186.1999969482421875</ele>
        <time>2018-09-02T14:54:01.000Z</time>
      </trkpt>
      <trkpt lat="43.27735000289976596832275390625" lon="-2.3241641186177730560302734375">
        <ele>186.600006103515625</ele>
        <time>2018-09-02T14:54:03.000Z</time>
      </trkpt>
      <trkpt lat="43.27720499597489833831787109375" lon="-2.32428230345249176025390625">
        <ele>187.399993896484375</ele>
        <time>2018-09-02T14:54:09.000Z</time>
      </trkpt>
      <trkpt lat="43.27718085609376430511474609375" lon="-2.32430082745850086212158203125">
        <ele>187.600006103515625</ele>
        <time>2018-09-02T14:54:10.000Z</time>
      </trkpt>
      <trkpt lat="43.2770590670406818389892578125" lon="-2.32437140308320522308349609375">
        <ele>188.8000030517578125</ele>
        <time>2018-09-02T14:54:15.000Z</time>
      </trkpt>
      <trkpt lat="43.27700735069811344146728515625" lon="-2.324399985373020172119140625">
        <ele>189.1999969482421875</ele>
        <time>2018-09-02T14:54:17.000Z</time>
      </trkpt>
      <trkpt lat="43.27684273011982440948486328125" lon="-2.32446880079805850982666015625">
        <ele>189.8000030517578125</ele>
        <time>2018-09-02T14:54:23.000Z</time>
      </trkpt>
      <trkpt lat="43.2768153212964534759521484375" lon="-2.3244732432067394256591796875">
        <ele>190</ele>
        <time>2018-09-02T14:54:24.000Z</time>
      </trkpt>
      <trkpt lat="43.27662111259996891021728515625" lon="-2.3245077766478061676025390625">
        <ele>190.8000030517578125</ele>
        <time>2018-09-02T14:54:31.000Z</time>
      </trkpt>
      <trkpt lat="43.27659646980464458465576171875" lon="-2.3245131410658359527587890625">
        <ele>191</ele>
        <time>2018-09-02T14:54:32.000Z</time>
      </trkpt>
      <trkpt lat="43.2764379680156707763671875" lon="-2.32454423792660236358642578125">
        <ele>191.8000030517578125</ele>
        <time>2018-09-02T14:54:38.000Z</time>
      </trkpt>
      <trkpt lat="43.27641424722969532012939453125" lon="-2.324551530182361602783203125">
        <ele>192</ele>
        <time>2018-09-02T14:54:39.000Z</time>
      </trkpt>
      <trkpt lat="43.27625063247978687286376953125" lon="-2.324587069451808929443359375">
        <ele>192.8000030517578125</ele>
        <time>2018-09-02T14:54:45.000Z</time>
      </trkpt>
      <trkpt lat="43.2761964015662670135498046875" lon="-2.324600480496883392333984375">
        <ele>193</ele>
        <time>2018-09-02T14:54:47.000Z</time>
      </trkpt>
      <trkpt lat="43.27606312930583953857421875" lon="-2.32462135143578052520751953125">
        <ele>193.8000030517578125</ele>
        <time>2018-09-02T14:54:52.000Z</time>
      </trkpt>
      <trkpt lat="43.27598744072020053863525390625" lon="-2.32462855987250804901123046875">
        <ele>194.1999969482421875</ele>
        <time>2018-09-02T14:54:55.000Z</time>
      </trkpt>
      <trkpt lat="43.2758715189993381500244140625" lon="-2.32464230619370937347412109375">
        <ele>194.8000030517578125</ele>
        <time>2018-09-02T14:54:59.000Z</time>
      </trkpt>
      <trkpt lat="43.27576003968715667724609375" lon="-2.32465253211557865142822265625">
        <ele>195.1999969482421875</ele>
        <time>2018-09-02T14:55:03.000Z</time>
      </trkpt>
      <trkpt lat="43.27570430003106594085693359375" lon="-2.32467164285480976104736328125">
        <ele>195.600006103515625</ele>
        <time>2018-09-02T14:55:05.000Z</time>
      </trkpt>
      <trkpt lat="43.2756019569933414459228515625" lon="-2.32469645328819751739501953125">
        <ele>196.399993896484375</ele>
        <time>2018-09-02T14:55:09.000Z</time>
      </trkpt>
      <trkpt lat="43.275490812957286834716796875" lon="-2.32471405528485774993896484375">
        <ele>196.8000030517578125</ele>
        <time>2018-09-02T14:55:13.000Z</time>
      </trkpt>
      <trkpt lat="43.27538629062473773956298828125" lon="-2.32472889125347137451171875">
        <ele>197.399993896484375</ele>
        <time>2018-09-02T14:55:17.000Z</time>
      </trkpt>
      <trkpt lat="43.27525712549686431884765625" lon="-2.3247498460114002227783203125">
        <ele>198.1999969482421875</ele>
        <time>2018-09-02T14:55:22.000Z</time>
      </trkpt>
      <trkpt lat="43.275158889591693878173828125" lon="-2.32476535253226757049560546875">
        <ele>198.600006103515625</ele>
        <time>2018-09-02T14:55:26.000Z</time>
      </trkpt>
      <trkpt lat="43.27510767616331577301025390625" lon="-2.3247796855866909027099609375">
        <ele>199</ele>
        <time>2018-09-02T14:55:28.000Z</time>
      </trkpt>
      <trkpt lat="43.27501379884779453277587890625" lon="-2.32482654042541980743408203125">
        <ele>199.600006103515625</ele>
        <time>2018-09-02T14:55:32.000Z</time>
      </trkpt>
      <trkpt lat="43.27496602199971675872802734375" lon="-2.32485068030655384063720703125">
        <ele>199.8000030517578125</ele>
        <time>2018-09-02T14:55:34.000Z</time>
      </trkpt>
      <trkpt lat="43.27494255267083644866943359375" lon="-2.32486107386648654937744140625">
        <ele>200</ele>
        <time>2018-09-02T14:55:35.000Z</time>
      </trkpt>
      <trkpt lat="43.274847082793712615966796875" lon="-2.32496894896030426025390625">
        <ele>200.8000030517578125</ele>
        <time>2018-09-02T14:55:40.000Z</time>
      </trkpt>
      <trkpt lat="43.27483090572059154510498046875" lon="-2.3249952681362628936767578125">
        <ele>200.8000030517578125</ele>
        <time>2018-09-02T14:55:41.000Z</time>
      </trkpt>
      <trkpt lat="43.27474289573729038238525390625" lon="-2.3251488246023654937744140625">
        <ele>202</ele>
        <time>2018-09-02T14:55:47.000Z</time>
      </trkpt>
      <trkpt lat="43.27473350800573825836181640625" lon="-2.3251800052821636199951171875">
        <ele>202.1999969482421875</ele>
        <time>2018-09-02T14:55:48.000Z</time>
      </trkpt>
      <trkpt lat="43.27469847165048122406005859375" lon="-2.32533213682472705841064453125">
        <ele>203</ele>
        <time>2018-09-02T14:55:53.000Z</time>
      </trkpt>
      <trkpt lat="43.27468455769121646881103515625" lon="-2.32542668469250202178955078125">
        <ele>203.600006103515625</ele>
        <time>2018-09-02T14:55:56.000Z</time>
      </trkpt>
      <trkpt lat="43.27469662763178348541259765625" lon="-2.325610332190990447998046875">
        <ele>204.1999969482421875</ele>
        <time>2018-09-02T14:56:02.000Z</time>
      </trkpt>
      <trkpt lat="43.27470081858336925506591796875" lon="-2.32564427889883518218994140625">
        <ele>204.1999969482421875</ele>
        <time>2018-09-02T14:56:03.000Z</time>
      </trkpt>
      <trkpt lat="43.27475714497268199920654296875" lon="-2.32586287893354892730712890625">
        <ele>205</ele>
        <time>2018-09-02T14:56:10.000Z</time>
      </trkpt>
      <trkpt lat="43.27482705004513263702392578125" lon="-2.32599246315658092498779296875">
        <ele>205.1999969482421875</ele>
        <time>2018-09-02T14:56:14.000Z</time>
      </trkpt>
      <trkpt lat="43.274848759174346923828125" lon="-2.3260183632373809814453125">
        <ele>205.399993896484375</ele>
        <time>2018-09-02T14:56:15.000Z</time>
      </trkpt>
      <trkpt lat="43.2750078476965427398681640625" lon="-2.32614669017493724822998046875">
        <ele>205.8000030517578125</ele>
        <time>2018-09-02T14:56:21.000Z</time>
      </trkpt>
      <trkpt lat="43.27519970946013927459716796875" lon="-2.32618440873920917510986328125">
        <ele>206.1999969482421875</ele>
        <time>2018-09-02T14:56:27.000Z</time>
      </trkpt>
      <trkpt lat="43.27539618127048015594482421875" lon="-2.326150126755237579345703125">
        <ele>207.1999969482421875</ele>
        <time>2018-09-02T14:56:33.000Z</time>
      </trkpt>
      <trkpt lat="43.275535404682159423828125" lon="-2.32609908096492290496826171875">
        <ele>207.8000030517578125</ele>
        <time>2018-09-02T14:56:38.000Z</time>
      </trkpt>
      <trkpt lat="43.2755882106721401214599609375" lon="-2.32608097605407238006591796875">
        <ele>208.1999969482421875</ele>
        <time>2018-09-02T14:56:40.000Z</time>
      </trkpt>
      <trkpt lat="43.2756827585399150848388671875" lon="-2.326083742082118988037109375">
        <ele>208.600006103515625</ele>
        <time>2018-09-02T14:56:44.000Z</time>
      </trkpt>
      <trkpt lat="43.2758279331028461456298828125" lon="-2.3261097259819507598876953125">
        <ele>209.1999969482421875</ele>
        <time>2018-09-02T14:56:49.000Z</time>
      </trkpt>
      <trkpt lat="43.27586472965776920318603515625" lon="-2.32612020336091518402099609375">
        <ele>209.399993896484375</ele>
        <time>2018-09-02T14:56:50.000Z</time>
      </trkpt>
      <trkpt lat="43.276042677462100982666015625" lon="-2.3262227140367031097412109375">
        <ele>209.600006103515625</ele>
        <time>2018-09-02T14:56:56.000Z</time>
      </trkpt>
      <trkpt lat="43.276365213096141815185546875" lon="-2.3264010809361934661865234375">
        <ele>210.399993896484375</ele>
        <time>2018-09-02T14:57:05.000Z</time>
      </trkpt>
      <trkpt lat="43.27656160108745098114013671875" lon="-2.3265315033495426177978515625">
        <ele>210.8000030517578125</ele>
        <time>2018-09-02T14:57:11.000Z</time>
      </trkpt>
      <trkpt lat="43.27669210731983184814453125" lon="-2.3266213573515415191650390625">
        <ele>211</ele>
        <time>2018-09-02T14:57:15.000Z</time>
      </trkpt>
      <trkpt lat="43.27681976370513439178466796875" lon="-2.326702661812305450439453125">
        <ele>211</ele>
        <time>2018-09-02T14:57:19.000Z</time>
      </trkpt>
      <trkpt lat="43.276915736496448516845703125" lon="-2.3267613351345062255859375">
        <ele>211.600006103515625</ele>
        <time>2018-09-02T14:57:22.000Z</time>
      </trkpt>
      <trkpt lat="43.27704221941530704498291015625" lon="-2.32684875838458538055419921875">
        <ele>212</ele>
        <time>2018-09-02T14:57:26.000Z</time>
      </trkpt>
      <trkpt lat="43.27719611115753650665283203125" lon="-2.32695755548775196075439453125">
        <ele>212.600006103515625</ele>
        <time>2018-09-02T14:57:31.000Z</time>
      </trkpt>
      <trkpt lat="43.27731546945869922637939453125" lon="-2.3270491696894168853759765625">
        <ele>213.1999969482421875</ele>
        <time>2018-09-02T14:57:35.000Z</time>
      </trkpt>
      <trkpt lat="43.27737028710544109344482421875" lon="-2.32708864845335483551025390625">
        <ele>213.600006103515625</ele>
        <time>2018-09-02T14:57:37.000Z</time>
      </trkpt>
      <trkpt lat="43.27757916413247585296630859375" lon="-2.327237427234649658203125">
        <ele>214.600006103515625</ele>
        <time>2018-09-02T14:57:45.000Z</time>
      </trkpt>
      <trkpt lat="43.27775426208972930908203125" lon="-2.32734966091811656951904296875">
        <ele>215.600006103515625</ele>
        <time>2018-09-02T14:57:52.000Z</time>
      </trkpt>
      <trkpt lat="43.27789734117686748504638671875" lon="-2.32748343609273433685302734375">
        <ele>216.600006103515625</ele>
        <time>2018-09-02T14:57:58.000Z</time>
      </trkpt>
      <trkpt lat="43.2779210619628429412841796875" lon="-2.32750774361193180084228515625">
        <ele>216.8000030517578125</ele>
        <time>2018-09-02T14:57:59.000Z</time>
      </trkpt>
      <trkpt lat="43.27808124013245105743408203125" lon="-2.3276781477034091949462890625">
        <ele>217.8000030517578125</ele>
        <time>2018-09-02T14:58:06.000Z</time>
      </trkpt>
      <trkpt lat="43.27810429036617279052734375" lon="-2.32770882546901702880859375">
        <ele>217.8000030517578125</ele>
        <time>2018-09-02T14:58:07.000Z</time>
      </trkpt>
      <trkpt lat="43.278262875974178314208984375" lon="-2.327963970601558685302734375">
        <ele>218.1999969482421875</ele>
        <time>2018-09-02T14:58:15.000Z</time>
      </trkpt>
      <trkpt lat="43.27829933725297451019287109375" lon="-2.328040413558483123779296875">
        <ele>219</ele>
        <time>2018-09-02T14:58:17.000Z</time>
      </trkpt>
      <trkpt lat="43.27835096977651119232177734375" lon="-2.32819740660488605499267578125">
        <ele>219.8000030517578125</ele>
        <time>2018-09-02T14:58:21.000Z</time>
      </trkpt>
      <trkpt lat="43.27836488373577594757080078125" lon="-2.32823780737817287445068359375">
        <ele>220</ele>
        <time>2018-09-02T14:58:22.000Z</time>
      </trkpt>
      <trkpt lat="43.278464376926422119140625" lon="-2.3285639472305774688720703125">
        <ele>220.600006103515625</ele>
        <time>2018-09-02T14:58:30.000Z</time>
      </trkpt>
      <trkpt lat="43.27852162532508373260498046875" lon="-2.32876963913440704345703125">
        <ele>221.1999969482421875</ele>
        <time>2018-09-02T14:58:35.000Z</time>
      </trkpt>
      <trkpt lat="43.27856387011706829071044921875" lon="-2.32891120947897434234619140625">
        <ele>221.600006103515625</ele>
        <time>2018-09-02T14:58:39.000Z</time>
      </trkpt>
      <trkpt lat="43.27860879711806774139404296875" lon="-2.329048924148082733154296875">
        <ele>222.1999969482421875</ele>
        <time>2018-09-02T14:58:43.000Z</time>
      </trkpt>
      <trkpt lat="43.27864953316748142242431640625" lon="-2.3291940987110137939453125">
        <ele>223</ele>
        <time>2018-09-02T14:58:47.000Z</time>
      </trkpt>
      <trkpt lat="43.27868138439953327178955078125" lon="-2.32932359911501407623291015625">
        <ele>223.399993896484375</ele>
        <time>2018-09-02T14:58:51.000Z</time>
      </trkpt>
      <trkpt lat="43.27870787121355533599853515625" lon="-2.32943893410265445709228515625">
        <ele>223.8000030517578125</ele>
        <time>2018-09-02T14:58:55.000Z</time>
      </trkpt>
      <trkpt lat="43.27872077934443950653076171875" lon="-2.3294960148632526397705078125">
        <ele>224</ele>
        <time>2018-09-02T14:58:58.000Z</time>
      </trkpt>
      <trkpt lat="43.27873486094176769256591796875" lon="-2.32957723550498485565185546875">
        <ele>224.1999969482421875</ele>
        <time>2018-09-02T14:59:01.000Z</time>
      </trkpt>
      <trkpt lat="43.2787626050412654876708984375" lon="-2.3297387547791004180908203125">
        <ele>223.8000030517578125</ele>
        <time>2018-09-02T14:59:06.000Z</time>
      </trkpt>
      <trkpt lat="43.27876788564026355743408203125" lon="-2.32977814972400665283203125">
        <ele>223.600006103515625</ele>
        <time>2018-09-02T14:59:07.000Z</time>
      </trkpt>
      <trkpt lat="43.27876922674477100372314453125" lon="-2.32986875809729099273681640625">
        <ele>223.399993896484375</ele>
        <time>2018-09-02T14:59:09.000Z</time>
      </trkpt>
      <trkpt lat="43.2787713222205638885498046875" lon="-2.3299818299710750579833984375">
        <ele>223.1999969482421875</ele>
        <time>2018-09-02T14:59:11.000Z</time>
      </trkpt>
      <trkpt lat="43.278769813477993011474609375" lon="-2.3300421796739101409912109375">
        <ele>222.8000030517578125</ele>
        <time>2018-09-02T14:59:12.000Z</time>
      </trkpt>
      <trkpt lat="43.27876235358417034149169921875" lon="-2.3301692493259906768798828125">
        <ele>222.399993896484375</ele>
        <time>2018-09-02T14:59:14.000Z</time>
      </trkpt>
      <trkpt lat="43.27874877490103244781494140625" lon="-2.33023202978074550628662109375">
        <ele>222.1999969482421875</ele>
        <time>2018-09-02T14:59:15.000Z</time>
      </trkpt>
      <trkpt lat="43.2787411473691463470458984375" lon="-2.3303026892244815826416015625">
        <ele>222.1999969482421875</ele>
        <time>2018-09-02T14:59:16.000Z</time>
      </trkpt>
      <trkpt lat="43.27872656285762786865234375" lon="-2.33037418685853481292724609375">
        <ele>222</ele>
        <time>2018-09-02T14:59:17.000Z</time>
      </trkpt>
      <trkpt lat="43.27869563363492488861083984375" lon="-2.33052455820143222808837890625">
        <ele>221.399993896484375</ele>
        <time>2018-09-02T14:59:19.000Z</time>
      </trkpt>
      <trkpt lat="43.2786761038005352020263671875" lon="-2.33059563674032688140869140625">
        <ele>221.1999969482421875</ele>
        <time>2018-09-02T14:59:20.000Z</time>
      </trkpt>
      <trkpt lat="43.278608880937099456787109375" lon="-2.33086084015667438507080078125">
        <ele>220.600006103515625</ele>
        <time>2018-09-02T14:59:24.000Z</time>
      </trkpt>
      <trkpt lat="43.2785842381417751312255859375" lon="-2.3309589922428131103515625">
        <ele>219.8000030517578125</ele>
        <time>2018-09-02T14:59:26.000Z</time>
      </trkpt>
      <trkpt lat="43.2785688154399394989013671875" lon="-2.33107860200107097625732421875">
        <ele>220</ele>
        <time>2018-09-02T14:59:29.000Z</time>
      </trkpt>
      <trkpt lat="43.278548531234264373779296875" lon="-2.33120952732861042022705078125">
        <ele>219.399993896484375</ele>
        <time>2018-09-02T14:59:34.000Z</time>
      </trkpt>
      <trkpt lat="43.2784591801464557647705078125" lon="-2.33125914819538593292236328125">
        <ele>219.600006103515625</ele>
        <time>2018-09-02T14:59:39.000Z</time>
      </trkpt>
      <trkpt lat="43.2783948071300983428955078125" lon="-2.3312153108417987823486328125">
        <ele>219.8000030517578125</ele>
        <time>2018-09-02T14:59:43.000Z</time>
      </trkpt>
      <trkpt lat="43.278391622006893157958984375" lon="-2.3311968706548213958740234375">
        <ele>219.8000030517578125</ele>
        <time>2018-09-02T14:59:44.000Z</time>
      </trkpt>
      <trkpt lat="43.2783934660255908966064453125" lon="-2.33114297501742839813232421875">
        <ele>220</ele>
        <time>2018-09-02T14:59:49.000Z</time>
      </trkpt>
      <trkpt lat="43.27840561978518962860107421875" lon="-2.331065274775028228759765625">
        <ele>220.399993896484375</ele>
        <time>2018-09-02T15:06:17.000Z</time>
      </trkpt>
      <trkpt lat="43.27842053957283496856689453125" lon="-2.33101808466017246246337890625">
        <ele>220.399993896484375</ele>
        <time>2018-09-02T15:06:19.000Z</time>
      </trkpt>
      <trkpt lat="43.27843881212174892425537109375" lon="-2.33096326701343059539794921875">
        <ele>220.399993896484375</ele>
        <time>2018-09-02T15:06:21.000Z</time>
      </trkpt>
      <trkpt lat="43.2784632034599781036376953125" lon="-2.33088246546685695648193359375">
        <ele>220.8000030517578125</ele>
        <time>2018-09-02T15:06:24.000Z</time>
      </trkpt>
      <trkpt lat="43.278482817113399505615234375" lon="-2.33083083294332027435302734375">
        <ele>220.8000030517578125</ele>
        <time>2018-09-02T15:06:26.000Z</time>
      </trkpt>
      <trkpt lat="43.27850586734712123870849609375" lon="-2.33077920041978359222412109375">
        <ele>220.8000030517578125</ele>
        <time>2018-09-02T15:06:28.000Z</time>
      </trkpt>
      <trkpt lat="43.27855146490037441253662109375" lon="-2.330670654773712158203125">
        <ele>221.1999969482421875</ele>
        <time>2018-09-02T15:06:32.000Z</time>
      </trkpt>
      <trkpt lat="43.2785822264850139617919921875" lon="-2.330579794943332672119140625">
        <ele>221.399993896484375</ele>
        <time>2018-09-02T15:06:36.000Z</time>
      </trkpt>
      <trkpt lat="43.27858583070337772369384765625" lon="-2.33055825345218181610107421875">
        <ele>221.399993896484375</ele>
        <time>2018-09-02T15:06:37.000Z</time>
      </trkpt>
      <trkpt lat="43.2785738445818424224853515625" lon="-2.33049170114099979400634765625">
        <ele>221.399993896484375</ele>
        <time>2018-09-02T15:06:40.000Z</time>
      </trkpt>
      <trkpt lat="43.27860795892775058746337890625" lon="-2.33051575720310211181640625">
        <ele>221.600006103515625</ele>
        <time>2018-09-02T15:07:00.000Z</time>
      </trkpt>
      <trkpt lat="43.2786013372242450714111328125" lon="-2.33053796924650669097900390625">
        <ele>221.600006103515625</ele>
        <time>2018-09-02T15:07:01.000Z</time>
      </trkpt>
      <trkpt lat="43.27856923453509807586669921875" lon="-2.33061994425952434539794921875">
        <ele>221.399993896484375</ele>
        <time>2018-09-02T15:07:04.000Z</time>
      </trkpt>
      <trkpt lat="43.27850938774645328521728515625" lon="-2.3307439126074314117431640625">
        <ele>221</ele>
        <time>2018-09-02T15:07:08.000Z</time>
      </trkpt>
      <trkpt lat="43.2784685678780078887939453125" lon="-2.33085237443447113037109375">
        <ele>220.8000030517578125</ele>
        <time>2018-09-02T15:07:11.000Z</time>
      </trkpt>
      <trkpt lat="43.27844090759754180908203125" lon="-2.33096544630825519561767578125">
        <ele>220.600006103515625</ele>
        <time>2018-09-02T15:07:14.000Z</time>
      </trkpt>
      <trkpt lat="43.27841567806899547576904296875" lon="-2.33106804080307483673095703125">
        <ele>220.600006103515625</ele>
        <time>2018-09-02T15:07:18.000Z</time>
      </trkpt>
      <trkpt lat="43.27840914018452167510986328125" lon="-2.33108363114297389984130859375">
        <ele>220.600006103515625</ele>
        <time>2018-09-02T15:07:19.000Z</time>
      </trkpt>
      <trkpt lat="43.2783971540629863739013671875" lon="-2.3311023227870464324951171875">
        <ele>220.600006103515625</ele>
        <time>2018-09-02T15:07:21.000Z</time>
      </trkpt>
      <trkpt lat="43.278388939797878265380859375" lon="-2.33114071190357208251953125">
        <ele>220.600006103515625</ele>
        <time>2018-09-02T15:07:24.000Z</time>
      </trkpt>
      <trkpt lat="43.27839354984462261199951171875" lon="-2.33115269802510738372802734375">
        <ele>220.600006103515625</ele>
        <time>2018-09-02T15:07:25.000Z</time>
      </trkpt>
      <trkpt lat="43.2784078828990459442138671875" lon="-2.33121271245181560516357421875">
        <ele>220.600006103515625</ele>
        <time>2018-09-02T15:07:30.000Z</time>
      </trkpt>
      <trkpt lat="43.2784286700189113616943359375" lon="-2.331283874809741973876953125">
        <ele>220.1999969482421875</ele>
        <time>2018-09-02T15:07:40.000Z</time>
      </trkpt>
      <trkpt lat="43.27842079102993011474609375" lon="-2.33135621063411235809326171875">
        <ele>220.1999969482421875</ele>
        <time>2018-09-02T15:07:42.000Z</time>
      </trkpt>
      <trkpt lat="43.278375528752803802490234375" lon="-2.3315086774528026580810546875">
        <ele>219.8000030517578125</ele>
        <time>2018-09-02T15:07:46.000Z</time>
      </trkpt>
      <trkpt lat="43.27836421318352222442626953125" lon="-2.33160180039703845977783203125">
        <ele>219.600006103515625</ele>
        <time>2018-09-02T15:07:48.000Z</time>
      </trkpt>
      <trkpt lat="43.27843554317951202392578125" lon="-2.33179642818868160247802734375">
        <ele>219</ele>
        <time>2018-09-02T15:07:52.000Z</time>
      </trkpt>
      <trkpt lat="43.27846881933510303497314453125" lon="-2.33183934353291988372802734375">
        <ele>218.600006103515625</ele>
        <time>2018-09-02T15:07:53.000Z</time>
      </trkpt>
      <trkpt lat="43.2785272412002086639404296875" lon="-2.33193087391555309295654296875">
        <ele>218.399993896484375</ele>
        <time>2018-09-02T15:07:55.000Z</time>
      </trkpt>
      <trkpt lat="43.27855884097516536712646484375" lon="-2.33203816227614879608154296875">
        <ele>218.600006103515625</ele>
        <time>2018-09-02T15:07:57.000Z</time>
      </trkpt>
      <trkpt lat="43.2785574160516262054443359375" lon="-2.33220043592154979705810546875">
        <ele>219.1999969482421875</ele>
        <time>2018-09-02T15:08:00.000Z</time>
      </trkpt>
      <trkpt lat="43.27855766750872135162353515625" lon="-2.33225609175860881805419921875">
        <ele>219.1999969482421875</ele>
        <time>2018-09-02T15:08:01.000Z</time>
      </trkpt>
      <trkpt lat="43.27857811935245990753173828125" lon="-2.3323706723749637603759765625">
        <ele>219.1999969482421875</ele>
        <time>2018-09-02T15:08:03.000Z</time>
      </trkpt>
      <trkpt lat="43.2787227071821689605712890625" lon="-2.3325557447969913482666015625">
        <ele>218.8000030517578125</ele>
        <time>2018-09-02T15:08:07.000Z</time>
      </trkpt>
      <trkpt lat="43.27877350151538848876953125" lon="-2.33259472064673900604248046875">
        <ele>218.600006103515625</ele>
        <time>2018-09-02T15:08:08.000Z</time>
      </trkpt>
      <trkpt lat="43.27898003160953521728515625" lon="-2.3327723331749439239501953125">
        <ele>217.399993896484375</ele>
        <time>2018-09-02T15:08:12.000Z</time>
      </trkpt>
      <trkpt lat="43.27908061444759368896484375" lon="-2.3328698985278606414794921875">
        <ele>217</ele>
        <time>2018-09-02T15:08:14.000Z</time>
      </trkpt>
      <trkpt lat="43.2792309857904911041259765625" lon="-2.333014570176601409912109375">
        <ele>216</ele>
        <time>2018-09-02T15:08:17.000Z</time>
      </trkpt>
      <trkpt lat="43.27933316119015216827392578125" lon="-2.333109118044376373291015625">
        <ele>215.600006103515625</ele>
        <time>2018-09-02T15:08:19.000Z</time>
      </trkpt>
      <trkpt lat="43.279436342418193817138671875" lon="-2.33319796621799468994140625">
        <ele>215.600006103515625</ele>
        <time>2018-09-02T15:08:21.000Z</time>
      </trkpt>
      <trkpt lat="43.27959735877811908721923828125" lon="-2.333331070840358734130859375">
        <ele>215</ele>
        <time>2018-09-02T15:08:24.000Z</time>
      </trkpt>
      <trkpt lat="43.2796869613230228424072265625" lon="-2.33343861065804958343505859375">
        <ele>214.8000030517578125</ele>
        <time>2018-09-02T15:08:26.000Z</time>
      </trkpt>
      <trkpt lat="43.27972644008696079254150390625" lon="-2.3335049115121364593505859375">
        <ele>214.600006103515625</ele>
        <time>2018-09-02T15:08:27.000Z</time>
      </trkpt>
      <trkpt lat="43.2798448763787746429443359375" lon="-2.33371068723499774932861328125">
        <ele>214.1999969482421875</ele>
        <time>2018-09-02T15:08:30.000Z</time>
      </trkpt>
      <trkpt lat="43.2799008674919605255126953125" lon="-2.3338665068149566650390625">
        <ele>213.8000030517578125</ele>
        <time>2018-09-02T15:08:32.000Z</time>
      </trkpt>
      <trkpt lat="43.280004970729351043701171875" lon="-2.3344165273010730743408203125">
        <ele>212.8000030517578125</ele>
        <time>2018-09-02T15:08:38.000Z</time>
      </trkpt>
      <trkpt lat="43.2801097445189952850341796875" lon="-2.33506201766431331634521484375">
        <ele>211.600006103515625</ele>
        <time>2018-09-02T15:08:45.000Z</time>
      </trkpt>
      <trkpt lat="43.2802106626331806182861328125" lon="-2.33554230071604251861572265625">
        <ele>210.600006103515625</ele>
        <time>2018-09-02T15:08:50.000Z</time>
      </trkpt>
      <trkpt lat="43.28024796210229396820068359375" lon="-2.33563886024057865142822265625">
        <ele>210.399993896484375</ele>
        <time>2018-09-02T15:08:51.000Z</time>
      </trkpt>
      <trkpt lat="43.28041174449026584625244140625" lon="-2.33587682247161865234375">
        <ele>209.399993896484375</ele>
        <time>2018-09-02T15:08:54.000Z</time>
      </trkpt>
      <trkpt lat="43.2804862596094608306884765625" lon="-2.3359279520809650421142578125">
        <ele>209.1999969482421875</ele>
        <time>2018-09-02T15:08:55.000Z</time>
      </trkpt>
      <trkpt lat="43.28064501285552978515625" lon="-2.33597799204289913177490234375">
        <ele>208.8000030517578125</ele>
        <time>2018-09-02T15:08:57.000Z</time>
      </trkpt>
      <trkpt lat="43.280798234045505523681640625" lon="-2.33599894680082798004150390625">
        <ele>208.600006103515625</ele>
        <time>2018-09-02T15:08:59.000Z</time>
      </trkpt>
      <trkpt lat="43.2808758504688739776611328125" lon="-2.33601101674139499664306640625">
        <ele>208.1999969482421875</ele>
        <time>2018-09-02T15:09:00.000Z</time>
      </trkpt>
      <trkpt lat="43.28103200532495975494384765625" lon="-2.33605158515274524688720703125">
        <ele>207.8000030517578125</ele>
        <time>2018-09-02T15:09:02.000Z</time>
      </trkpt>
      <trkpt lat="43.2811081968247890472412109375" lon="-2.3360872082412242889404296875">
        <ele>207.600006103515625</ele>
        <time>2018-09-02T15:09:03.000Z</time>
      </trkpt>
      <trkpt lat="43.28126049600541591644287109375" lon="-2.33618049882352352142333984375">
        <ele>206.8000030517578125</ele>
        <time>2018-09-02T15:09:05.000Z</time>
      </trkpt>
      <trkpt lat="43.28133408911526203155517578125" lon="-2.33623917214572429656982421875">
        <ele>206.399993896484375</ele>
        <time>2018-09-02T15:09:06.000Z</time>
      </trkpt>
      <trkpt lat="43.28146367333829402923583984375" lon="-2.33637412078678607940673828125">
        <ele>206</ele>
        <time>2018-09-02T15:09:08.000Z</time>
      </trkpt>
      <trkpt lat="43.28152486123144626617431640625" lon="-2.336439751088619232177734375">
        <ele>205.600006103515625</ele>
        <time>2018-09-02T15:09:09.000Z</time>
      </trkpt>
      <trkpt lat="43.28158403746783733367919921875" lon="-2.336506135761737823486328125">
        <ele>205.399993896484375</ele>
        <time>2018-09-02T15:09:10.000Z</time>
      </trkpt>
      <trkpt lat="43.281691074371337890625" lon="-2.33665441162884235382080078125">
        <ele>205</ele>
        <time>2018-09-02T15:09:12.000Z</time>
      </trkpt>
      <trkpt lat="43.2817750610411167144775390625" lon="-2.33683965168893337249755859375">
        <ele>204.600006103515625</ele>
        <time>2018-09-02T15:09:14.000Z</time>
      </trkpt>
      <trkpt lat="43.28188628889620304107666015625" lon="-2.3371414840221405029296875">
        <ele>204</ele>
        <time>2018-09-02T15:09:17.000Z</time>
      </trkpt>
      <trkpt lat="43.2819302938878536224365234375" lon="-2.33724198304116725921630859375">
        <ele>203.600006103515625</ele>
        <time>2018-09-02T15:09:18.000Z</time>
      </trkpt>
      <trkpt lat="43.2819893024861812591552734375" lon="-2.33733099885284900665283203125">
        <ele>203.399993896484375</ele>
        <time>2018-09-02T15:09:19.000Z</time>
      </trkpt>
      <trkpt lat="43.28206080012023448944091796875" lon="-2.337400652468204498291015625">
        <ele>203.399993896484375</ele>
        <time>2018-09-02T15:09:20.000Z</time>
      </trkpt>
      <trkpt lat="43.2823014445602893829345703125" lon="-2.337464354932308197021484375">
        <ele>202.399993896484375</ele>
        <time>2018-09-02T15:09:23.000Z</time>
      </trkpt>
      <trkpt lat="43.28238216228783130645751953125" lon="-2.3374472558498382568359375">
        <ele>202.1999969482421875</ele>
        <time>2018-09-02T15:09:24.000Z</time>
      </trkpt>
      <trkpt lat="43.2825438492000102996826171875" lon="-2.3374085314571857452392578125">
        <ele>201.8000030517578125</ele>
        <time>2018-09-02T15:09:26.000Z</time>
      </trkpt>
      <trkpt lat="43.282709307968616485595703125" lon="-2.33737274073064327239990234375">
        <ele>201.1999969482421875</ele>
        <time>2018-09-02T15:09:28.000Z</time>
      </trkpt>
      <trkpt lat="43.28279555775225162506103515625" lon="-2.3373672924935817718505859375">
        <ele>200.399993896484375</ele>
        <time>2018-09-02T15:09:29.000Z</time>
      </trkpt>
      <trkpt lat="43.2828828133642673492431640625" lon="-2.337376512587070465087890625">
        <ele>200</ele>
        <time>2018-09-02T15:09:30.000Z</time>
      </trkpt>
      <trkpt lat="43.2829691469669342041015625" lon="-2.33740073628723621368408203125">
        <ele>199.8000030517578125</ele>
        <time>2018-09-02T15:09:31.000Z</time>
      </trkpt>
      <trkpt lat="43.2832952030003070831298828125" lon="-2.33761883340775966644287109375">
        <ele>199.1999969482421875</ele>
        <time>2018-09-02T15:09:35.000Z</time>
      </trkpt>
      <trkpt lat="43.28336334787309169769287109375" lon="-2.33770064078271389007568359375">
        <ele>199</ele>
        <time>2018-09-02T15:09:36.000Z</time>
      </trkpt>
      <trkpt lat="43.2835124619305133819580078125" lon="-2.33784631825983524322509765625">
        <ele>197.600006103515625</ele>
        <time>2018-09-02T15:09:38.000Z</time>
      </trkpt>
      <trkpt lat="43.28359343111515045166015625" lon="-2.33790230937302112579345703125">
        <ele>197</ele>
        <time>2018-09-02T15:09:39.000Z</time>
      </trkpt>
      <trkpt lat="43.2836799323558807373046875" lon="-2.33794069848954677581787109375">
        <ele>196.600006103515625</ele>
        <time>2018-09-02T15:09:40.000Z</time>
      </trkpt>
      <trkpt lat="43.283863998949527740478515625" lon="-2.33797766268253326416015625">
        <ele>195.8000030517578125</ele>
        <time>2018-09-02T15:09:42.000Z</time>
      </trkpt>
      <trkpt lat="43.28405552543699741363525390625" lon="-2.33801253139972686767578125">
        <ele>195.1999969482421875</ele>
        <time>2018-09-02T15:09:44.000Z</time>
      </trkpt>
      <trkpt lat="43.2842431962490081787109375" lon="-2.33808637596666812896728515625">
        <ele>193.399993896484375</ele>
        <time>2018-09-02T15:09:46.000Z</time>
      </trkpt>
      <trkpt lat="43.284333050251007080078125" lon="-2.338134907186031341552734375">
        <ele>192.399993896484375</ele>
        <time>2018-09-02T15:09:47.000Z</time>
      </trkpt>
      <trkpt lat="43.2844244129955768585205078125" lon="-2.3381873778998851776123046875">
        <ele>192.1999969482421875</ele>
        <time>2018-09-02T15:09:48.000Z</time>
      </trkpt>
      <trkpt lat="43.2847010158002376556396484375" lon="-2.33835644088685512542724609375">
        <ele>191.1999969482421875</ele>
        <time>2018-09-02T15:09:51.000Z</time>
      </trkpt>
      <trkpt lat="43.28488483093678951263427734375" lon="-2.3384639807045459747314453125">
        <ele>190</ele>
        <time>2018-09-02T15:09:53.000Z</time>
      </trkpt>
      <trkpt lat="43.2851720787584781646728515625" lon="-2.33861326240003108978271484375">
        <ele>188.1999969482421875</ele>
        <time>2018-09-02T15:09:56.000Z</time>
      </trkpt>
      <trkpt lat="43.28527324832975864410400390625" lon="-2.3386487178504467010498046875">
        <ele>187.8000030517578125</ele>
        <time>2018-09-02T15:09:57.000Z</time>
      </trkpt>
      <trkpt lat="43.2853779383003711700439453125" lon="-2.33867528848350048065185546875">
        <ele>187.1999969482421875</ele>
        <time>2018-09-02T15:09:58.000Z</time>
      </trkpt>
      <trkpt lat="43.2856889069080352783203125" lon="-2.33876095153391361236572265625">
        <ele>186</ele>
        <time>2018-09-02T15:10:01.000Z</time>
      </trkpt>
      <trkpt lat="43.2860015518963336944580078125" lon="-2.33883194625377655029296875">
        <ele>184.8000030517578125</ele>
        <time>2018-09-02T15:10:04.000Z</time>
      </trkpt>
      <trkpt lat="43.28630019910633563995361328125" lon="-2.338902689516544342041015625">
        <ele>183.600006103515625</ele>
        <time>2018-09-02T15:10:07.000Z</time>
      </trkpt>
      <trkpt lat="43.28666581772267818450927734375" lon="-2.33900494873523712158203125">
        <ele>183.399993896484375</ele>
        <time>2018-09-02T15:10:11.000Z</time>
      </trkpt>
      <trkpt lat="43.2870756089687347412109375" lon="-2.33922128565609455108642578125">
        <ele>182.600006103515625</ele>
        <time>2018-09-02T15:10:16.000Z</time>
      </trkpt>
      <trkpt lat="43.2871559076011180877685546875" lon="-2.33926889486610889434814453125">
        <ele>182</ele>
        <time>2018-09-02T15:10:17.000Z</time>
      </trkpt>
      <trkpt lat="43.287396132946014404296875" lon="-2.33941339887678623199462890625">
        <ele>180.8000030517578125</ele>
        <time>2018-09-02T15:10:20.000Z</time>
      </trkpt>
      <trkpt lat="43.28756134025752544403076171875" lon="-2.33947961591184139251708984375">
        <ele>180.1999969482421875</ele>
        <time>2018-09-02T15:10:22.000Z</time>
      </trkpt>
      <trkpt lat="43.2876397110521793365478515625" lon="-2.339489422738552093505859375">
        <ele>179.8000030517578125</ele>
        <time>2018-09-02T15:10:23.000Z</time>
      </trkpt>
      <trkpt lat="43.2877783477306365966796875" lon="-2.33946804888546466827392578125">
        <ele>179.399993896484375</ele>
        <time>2018-09-02T15:10:25.000Z</time>
      </trkpt>
      <trkpt lat="43.28783693723380565643310546875" lon="-2.33945128507912158966064453125">
        <ele>179.1999969482421875</ele>
        <time>2018-09-02T15:10:26.000Z</time>
      </trkpt>
      <trkpt lat="43.2879659347236156463623046875" lon="-2.339402921497821807861328125">
        <ele>178.600006103515625</ele>
        <time>2018-09-02T15:10:29.000Z</time>
      </trkpt>
      <trkpt lat="43.28800474293529987335205078125" lon="-2.33938104473054409027099609375">
        <ele>178.399993896484375</ele>
        <time>2018-09-02T15:10:30.000Z</time>
      </trkpt>
      <trkpt lat="43.2881235145032405853271484375" lon="-2.3393226228654384613037109375">
        <ele>177.600006103515625</ele>
        <time>2018-09-02T15:10:33.000Z</time>
      </trkpt>
      <trkpt lat="43.2882790826261043548583984375" lon="-2.3392683081328868865966796875">
        <ele>177.399993896484375</ele>
        <time>2018-09-02T15:10:37.000Z</time>
      </trkpt>
      <trkpt lat="43.28837404958903789520263671875" lon="-2.3392523825168609619140625">
        <ele>176.8000030517578125</ele>
        <time>2018-09-02T15:10:39.000Z</time>
      </trkpt>
      <trkpt lat="43.28850095160305500030517578125" lon="-2.33923972584307193756103515625">
        <ele>176.1999969482421875</ele>
        <time>2018-09-02T15:10:41.000Z</time>
      </trkpt>
      <trkpt lat="43.28864939510822296142578125" lon="-2.3392327688634395599365234375">
        <ele>175.8000030517578125</ele>
        <time>2018-09-02T15:10:43.000Z</time>
      </trkpt>
      <trkpt lat="43.28888501040637493133544921875" lon="-2.339230589568614959716796875">
        <ele>175</ele>
        <time>2018-09-02T15:10:46.000Z</time>
      </trkpt>
      <trkpt lat="43.28905382193624973297119140625" lon="-2.33920745551586151123046875">
        <ele>174.1999969482421875</ele>
        <time>2018-09-02T15:10:48.000Z</time>
      </trkpt>
      <trkpt lat="43.28913613222539424896240234375" lon="-2.33916730619966983795166015625">
        <ele>173.8000030517578125</ele>
        <time>2018-09-02T15:10:49.000Z</time>
      </trkpt>
      <trkpt lat="43.289210312068462371826171875" lon="-2.33910226263105869293212890625">
        <ele>173.600006103515625</ele>
        <time>2018-09-02T15:10:50.000Z</time>
      </trkpt>
      <trkpt lat="43.28938675113022327423095703125" lon="-2.33883437700569629669189453125">
        <ele>172.600006103515625</ele>
        <time>2018-09-02T15:10:53.000Z</time>
      </trkpt>
      <trkpt lat="43.2894458435475826263427734375" lon="-2.3387469537556171417236328125">
        <ele>172.399993896484375</ele>
        <time>2018-09-02T15:10:54.000Z</time>
      </trkpt>
      <trkpt lat="43.28958950936794281005859375" lon="-2.33861627988517284393310546875">
        <ele>172</ele>
        <time>2018-09-02T15:10:56.000Z</time>
      </trkpt>
      <trkpt lat="43.28967542387545108795166015625" lon="-2.33858744613826274871826171875">
        <ele>171.8000030517578125</ele>
        <time>2018-09-02T15:10:57.000Z</time>
      </trkpt>
      <trkpt lat="43.2897650264203548431396484375" lon="-2.33858090825378894805908203125">
        <ele>171.399993896484375</ele>
        <time>2018-09-02T15:10:58.000Z</time>
      </trkpt>
      <trkpt lat="43.289853036403656005859375" lon="-2.338584177196025848388671875">
        <ele>171</ele>
        <time>2018-09-02T15:10:59.000Z</time>
      </trkpt>
      <trkpt lat="43.2899402081966400146484375" lon="-2.33858694322407245635986328125">
        <ele>170.600006103515625</ele>
        <time>2018-09-02T15:11:00.000Z</time>
      </trkpt>
      <trkpt lat="43.2900314033031463623046875" lon="-2.33858694322407245635986328125">
        <ele>170.1999969482421875</ele>
        <time>2018-09-02T15:11:01.000Z</time>
      </trkpt>
      <trkpt lat="43.2901252806186676025390625" lon="-2.3385773040354251861572265625">
        <ele>169.8000030517578125</ele>
        <time>2018-09-02T15:11:02.000Z</time>
      </trkpt>
      <trkpt lat="43.29021982848644256591796875" lon="-2.338545620441436767578125">
        <ele>169.399993896484375</ele>
        <time>2018-09-02T15:11:03.000Z</time>
      </trkpt>
      <trkpt lat="43.29030565917491912841796875" lon="-2.3384790681302547454833984375">
        <ele>168.8000030517578125</ele>
        <time>2018-09-02T15:11:04.000Z</time>
      </trkpt>
      <trkpt lat="43.2903747260570526123046875" lon="-2.338383682072162628173828125">
        <ele>168</ele>
        <time>2018-09-02T15:11:05.000Z</time>
      </trkpt>
      <trkpt lat="43.2904258556663990020751953125" lon="-2.33827094547450542449951171875">
        <ele>167.600006103515625</ele>
        <time>2018-09-02T15:11:06.000Z</time>
      </trkpt>
      <trkpt lat="43.2904898934066295623779296875" lon="-2.33801999129354953765869140625">
        <ele>167</ele>
        <time>2018-09-02T15:11:08.000Z</time>
      </trkpt>
      <trkpt lat="43.29051897861063480377197265625" lon="-2.33789426274597644805908203125">
        <ele>166.399993896484375</ele>
        <time>2018-09-02T15:11:09.000Z</time>
      </trkpt>
      <trkpt lat="43.290584273636341094970703125" lon="-2.33764783479273319244384765625">
        <ele>165.399993896484375</ele>
        <time>2018-09-02T15:11:11.000Z</time>
      </trkpt>
      <trkpt lat="43.2907208986580371856689453125" lon="-2.33716822229325771331787109375">
        <ele>164.600006103515625</ele>
        <time>2018-09-02T15:11:15.000Z</time>
      </trkpt>
      <trkpt lat="43.2908358983695507049560546875" lon="-2.33683914877474308013916015625">
        <ele>164</ele>
        <time>2018-09-02T15:11:18.000Z</time>
      </trkpt>
      <trkpt lat="43.290891386568546295166015625" lon="-2.336748875677585601806640625">
        <ele>164</ele>
        <time>2018-09-02T15:11:19.000Z</time>
      </trkpt>
      <trkpt lat="43.29112230800092220306396484375" lon="-2.33659691177308559417724609375">
        <ele>162.600006103515625</ele>
        <time>2018-09-02T15:11:22.000Z</time>
      </trkpt>
      <trkpt lat="43.29120595939457416534423828125" lon="-2.33656891621649265289306640625">
        <ele>161.8000030517578125</ele>
        <time>2018-09-02T15:11:23.000Z</time>
      </trkpt>
      <trkpt lat="43.29129380173981189727783203125" lon="-2.33654678799211978912353515625">
        <ele>161.399993896484375</ele>
        <time>2018-09-02T15:11:24.000Z</time>
      </trkpt>
      <trkpt lat="43.29159219749271869659423828125" lon="-2.33650990761816501617431640625">
        <ele>160.399993896484375</ele>
        <time>2018-09-02T15:11:27.000Z</time>
      </trkpt>
      <trkpt lat="43.2917900942265987396240234375" lon="-2.33652583323419094085693359375">
        <ele>158.399993896484375</ele>
        <time>2018-09-02T15:11:29.000Z</time>
      </trkpt>
      <trkpt lat="43.292092345654964447021484375" lon="-2.33656950294971466064453125">
        <ele>157.399993896484375</ele>
        <time>2018-09-02T15:11:32.000Z</time>
      </trkpt>
      <trkpt lat="43.29219385050237178802490234375" lon="-2.336582243442535400390625">
        <ele>157</ele>
        <time>2018-09-02T15:11:33.000Z</time>
      </trkpt>
      <trkpt lat="43.2923979498445987701416015625" lon="-2.3366085626184940338134765625">
        <ele>156</ele>
        <time>2018-09-02T15:11:35.000Z</time>
      </trkpt>
      <trkpt lat="43.2927077449858188629150390625" lon="-2.33665089122951030731201171875">
        <ele>154.8000030517578125</ele>
        <time>2018-09-02T15:11:38.000Z</time>
      </trkpt>
      <trkpt lat="43.292809166014194488525390625" lon="-2.33667436055839061737060546875">
        <ele>154.399993896484375</ele>
        <time>2018-09-02T15:11:39.000Z</time>
      </trkpt>
      <trkpt lat="43.2930131815373897552490234375" lon="-2.33672649599611759185791015625">
        <ele>153.600006103515625</ele>
        <time>2018-09-02T15:11:41.000Z</time>
      </trkpt>
      <trkpt lat="43.2932314462959766387939453125" lon="-2.33677871525287628173828125">
        <ele>152.8000030517578125</ele>
        <time>2018-09-02T15:11:43.000Z</time>
      </trkpt>
      <trkpt lat="43.2933434285223484039306640625" lon="-2.33680394478142261505126953125">
        <ele>152</ele>
        <time>2018-09-02T15:11:44.000Z</time>
      </trkpt>
      <trkpt lat="43.29345524311065673828125" lon="-2.3368276655673980712890625">
        <ele>151.399993896484375</ele>
        <time>2018-09-02T15:11:45.000Z</time>
      </trkpt>
      <trkpt lat="43.29356051981449127197265625" lon="-2.33685247600078582763671875">
        <ele>150.8000030517578125</ele>
        <time>2018-09-02T15:11:46.000Z</time>
      </trkpt>
      <trkpt lat="43.29398020170629024505615234375" lon="-2.33699622564017772674560546875">
        <ele>149.600006103515625</ele>
        <time>2018-09-02T15:11:50.000Z</time>
      </trkpt>
      <trkpt lat="43.29414951615035533905029296875" lon="-2.3371993191540241241455078125">
        <ele>148.600006103515625</ele>
        <time>2018-09-02T15:11:52.000Z</time>
      </trkpt>
      <trkpt lat="43.29424356110394001007080078125" lon="-2.3374762572348117828369140625">
        <ele>147</ele>
        <time>2018-09-02T15:11:54.000Z</time>
      </trkpt>
      <trkpt lat="43.29424842260777950286865234375" lon="-2.3376261256635189056396484375">
        <ele>146</ele>
        <time>2018-09-02T15:11:55.000Z</time>
      </trkpt>
      <trkpt lat="43.29422143287956714630126953125" lon="-2.337771467864513397216796875">
        <ele>145</ele>
        <time>2018-09-02T15:11:56.000Z</time>
      </trkpt>
      <trkpt lat="43.29416896216571331024169921875" lon="-2.3379067517817020416259765625">
        <ele>144.399993896484375</ele>
        <time>2018-09-02T15:11:57.000Z</time>
      </trkpt>
      <trkpt lat="43.2940391264855861663818359375" lon="-2.33814219944179058074951171875">
        <ele>144</ele>
        <time>2018-09-02T15:11:59.000Z</time>
      </trkpt>
      <trkpt lat="43.29390342347323894500732421875" lon="-2.3383536748588085174560546875">
        <ele>143.1999969482421875</ele>
        <time>2018-09-02T15:12:01.000Z</time>
      </trkpt>
      <trkpt lat="43.2937729172408580780029296875" lon="-2.33854671008884906768798828125">
        <ele>142.1999969482421875</ele>
        <time>2018-09-02T15:12:03.000Z</time>
      </trkpt>
      <trkpt lat="43.29371483065187931060791015625" lon="-2.338647209107875823974609375">
        <ele>141.8000030517578125</ele>
        <time>2018-09-02T15:12:04.000Z</time>
      </trkpt>
      <trkpt lat="43.293636627495288848876953125" lon="-2.3390248976647853851318359375">
        <ele>141</ele>
        <time>2018-09-02T15:12:07.000Z</time>
      </trkpt>
      <trkpt lat="43.29374684952199459075927734375" lon="-2.33941004611551761627197265625">
        <ele>139.600006103515625</ele>
        <time>2018-09-02T15:12:10.000Z</time>
      </trkpt>
      <trkpt lat="43.29388372600078582763671875" lon="-2.33962143771350383758544921875">
        <ele>138.600006103515625</ele>
        <time>2018-09-02T15:12:12.000Z</time>
      </trkpt>
      <trkpt lat="43.29400618560612201690673828125" lon="-2.3398506827652454376220703125">
        <ele>137.600006103515625</ele>
        <time>2018-09-02T15:12:14.000Z</time>
      </trkpt>
      <trkpt lat="43.2940468378365039825439453125" lon="-2.33998420648276805877685546875">
        <ele>137.399993896484375</ele>
        <time>2018-09-02T15:12:15.000Z</time>
      </trkpt>
      <trkpt lat="43.29407240264117717742919921875" lon="-2.3402858711779117584228515625">
        <ele>135.8000030517578125</ele>
        <time>2018-09-02T15:12:17.000Z</time>
      </trkpt>
      <trkpt lat="43.294074833393096923828125" lon="-2.340446971356868743896484375">
        <ele>134.8000030517578125</ele>
        <time>2018-09-02T15:12:18.000Z</time>
      </trkpt>
      <trkpt lat="43.29407743178308010101318359375" lon="-2.3406114242970943450927734375">
        <ele>133.600006103515625</ele>
        <time>2018-09-02T15:12:19.000Z</time>
      </trkpt>
      <trkpt lat="43.294078521430492401123046875" lon="-2.34077922999858856201171875">
        <ele>132.600006103515625</ele>
        <time>2018-09-02T15:12:20.000Z</time>
      </trkpt>
      <trkpt lat="43.294078521430492401123046875" lon="-2.3409406654536724090576171875">
        <ele>131.600006103515625</ele>
        <time>2018-09-02T15:12:21.000Z</time>
      </trkpt>
      <trkpt lat="43.2940867356956005096435546875" lon="-2.3410918749868869781494140625">
        <ele>130.399993896484375</ele>
        <time>2018-09-02T15:12:22.000Z</time>
      </trkpt>
      <trkpt lat="43.29411699436604976654052734375" lon="-2.34123386442661285400390625">
        <ele>129.399993896484375</ele>
        <time>2018-09-02T15:12:23.000Z</time>
      </trkpt>
      <trkpt lat="43.2942577265202999114990234375" lon="-2.34144751913845539093017578125">
        <ele>128.1999969482421875</ele>
        <time>2018-09-02T15:12:25.000Z</time>
      </trkpt>
      <trkpt lat="43.29445763491094112396240234375" lon="-2.34153402037918567657470703125">
        <ele>127.59999847412109375</ele>
        <time>2018-09-02T15:12:27.000Z</time>
      </trkpt>
      <trkpt lat="43.29456224106252193450927734375" lon="-2.3415418155491352081298828125">
        <ele>127.1999969482421875</ele>
        <time>2018-09-02T15:12:28.000Z</time>
      </trkpt>
      <trkpt lat="43.29476860351860523223876953125" lon="-2.3414893448352813720703125">
        <ele>126.40000152587890625</ele>
        <time>2018-09-02T15:12:30.000Z</time>
      </trkpt>
      <trkpt lat="43.29496121965348720550537109375" lon="-2.3413678072392940521240234375">
        <ele>125.8000030517578125</ele>
        <time>2018-09-02T15:12:32.000Z</time>
      </trkpt>
      <trkpt lat="43.29504587687551975250244140625" lon="-2.3412756063044071197509765625">
        <ele>125.40000152587890625</ele>
        <time>2018-09-02T15:12:33.000Z</time>
      </trkpt>
      <trkpt lat="43.2951988466084003448486328125" lon="-2.3410613648593425750732421875">
        <ele>124.59999847412109375</ele>
        <time>2018-09-02T15:12:35.000Z</time>
      </trkpt>
      <trkpt lat="43.29536430537700653076171875" lon="-2.34087444841861724853515625">
        <ele>123.40000152587890625</ele>
        <time>2018-09-02T15:12:37.000Z</time>
      </trkpt>
      <trkpt lat="43.2955589331686496734619140625" lon="-2.34071896411478519439697265625">
        <ele>122</ele>
        <time>2018-09-02T15:12:39.000Z</time>
      </trkpt>
      <trkpt lat="43.2957684807479381561279296875" lon="-2.34056591056287288665771484375">
        <ele>120</ele>
        <time>2018-09-02T15:12:41.000Z</time>
      </trkpt>
      <trkpt lat="43.29597542993724346160888671875" lon="-2.340417467057704925537109375">
        <ele>118.59999847412109375</ele>
        <time>2018-09-02T15:12:43.000Z</time>
      </trkpt>
      <trkpt lat="43.29618028365075588226318359375" lon="-2.34027388505637645721435546875">
        <ele>117.40000152587890625</ele>
        <time>2018-09-02T15:12:45.000Z</time>
      </trkpt>
      <trkpt lat="43.2963828742504119873046875" lon="-2.34013306908309459686279296875">
        <ele>116.1999969482421875</ele>
        <time>2018-09-02T15:12:47.000Z</time>
      </trkpt>
      <trkpt lat="43.29658630304038524627685546875" lon="-2.33999409712851047515869140625">
        <ele>115</ele>
        <time>2018-09-02T15:12:49.000Z</time>
      </trkpt>
      <trkpt lat="43.29679082147777080535888671875" lon="-2.33985328115522861480712890625">
        <ele>113.59999847412109375</ele>
        <time>2018-09-02T15:12:51.000Z</time>
      </trkpt>
      <trkpt lat="43.29699114896357059478759765625" lon="-2.339712716639041900634765625">
        <ele>112.40000152587890625</ele>
        <time>2018-09-02T15:12:53.000Z</time>
      </trkpt>
      <trkpt lat="43.29719097353518009185791015625" lon="-2.33958941884338855743408203125">
        <ele>111.59999847412109375</ele>
        <time>2018-09-02T15:12:55.000Z</time>
      </trkpt>
      <trkpt lat="43.29728468321263790130615234375" lon="-2.339532673358917236328125">
        <ele>111</ele>
        <time>2018-09-02T15:12:56.000Z</time>
      </trkpt>
      <trkpt lat="43.2974549196660518646240234375" lon="-2.3394382931292057037353515625">
        <ele>109.59999847412109375</ele>
        <time>2018-09-02T15:12:58.000Z</time>
      </trkpt>
      <trkpt lat="43.2975373975932598114013671875" lon="-2.3393987305462360382080078125">
        <ele>109.1999969482421875</ele>
        <time>2018-09-02T15:12:59.000Z</time>
      </trkpt>
      <trkpt lat="43.29771115444600582122802734375" lon="-2.33930879272520542144775390625">
        <ele>108.1999969482421875</ele>
        <time>2018-09-02T15:13:01.000Z</time>
      </trkpt>
      <trkpt lat="43.29789270646870136260986328125" lon="-2.33921105973422527313232421875">
        <ele>107</ele>
        <time>2018-09-02T15:13:03.000Z</time>
      </trkpt>
      <trkpt lat="43.29798675142228603363037109375" lon="-2.33915205113589763641357421875">
        <ele>106.59999847412109375</ele>
        <time>2018-09-02T15:13:04.000Z</time>
      </trkpt>
      <trkpt lat="43.29807735979557037353515625" lon="-2.33907963149249553680419921875">
        <ele>105.1999969482421875</ele>
        <time>2018-09-02T15:13:05.000Z</time>
      </trkpt>
      <trkpt lat="43.298223875463008880615234375" lon="-2.33887963928282260894775390625">
        <ele>104</ele>
        <time>2018-09-02T15:13:07.000Z</time>
      </trkpt>
      <trkpt lat="43.298307694494724273681640625" lon="-2.3386180400848388671875">
        <ele>103</ele>
        <time>2018-09-02T15:13:09.000Z</time>
      </trkpt>
      <trkpt lat="43.29833074472844600677490234375" lon="-2.33847387135028839111328125">
        <ele>102.59999847412109375</ele>
        <time>2018-09-02T15:13:10.000Z</time>
      </trkpt>
      <trkpt lat="43.29834599979221820831298828125" lon="-2.3383243381977081298828125">
        <ele>102</ele>
        <time>2018-09-02T15:13:11.000Z</time>
      </trkpt>
      <trkpt lat="43.29835899174213409423828125" lon="-2.338172458112239837646484375">
        <ele>101.1999969482421875</ele>
        <time>2018-09-02T15:13:12.000Z</time>
      </trkpt>
      <trkpt lat="43.29837466590106487274169921875" lon="-2.338020242750644683837890625">
        <ele>100.40000152587890625</ele>
        <time>2018-09-02T15:13:13.000Z</time>
      </trkpt>
      <trkpt lat="43.2983958721160888671875" lon="-2.337869368493556976318359375">
        <ele>99.59999847412109375</ele>
        <time>2018-09-02T15:13:14.000Z</time>
      </trkpt>
      <trkpt lat="43.29843065701425075531005859375" lon="-2.3377223499119281768798828125">
        <ele>99</ele>
        <time>2018-09-02T15:13:15.000Z</time>
      </trkpt>
      <trkpt lat="43.2985418848693370819091796875" lon="-2.33745672740042209625244140625">
        <ele>97.40000152587890625</ele>
        <time>2018-09-02T15:13:17.000Z</time>
      </trkpt>
      <trkpt lat="43.29870793037116527557373046875" lon="-2.33725422061979770660400390625">
        <ele>96.1999969482421875</ele>
        <time>2018-09-02T15:13:19.000Z</time>
      </trkpt>
      <trkpt lat="43.29880599863827228546142578125" lon="-2.33718146570026874542236328125">
        <ele>95.59999847412109375</ele>
        <time>2018-09-02T15:13:20.000Z</time>
      </trkpt>
      <trkpt lat="43.29890406690537929534912109375" lon="-2.337134443223476409912109375">
        <ele>94.8000030517578125</ele>
        <time>2018-09-02T15:13:21.000Z</time>
      </trkpt>
      <trkpt lat="43.2990062423050403594970703125" lon="-2.33710871078073978424072265625">
        <ele>94.40000152587890625</ele>
        <time>2018-09-02T15:13:22.000Z</time>
      </trkpt>
      <trkpt lat="43.29911445267498493194580078125" lon="-2.33710686676204204559326171875">
        <ele>93.8000030517578125</ele>
        <time>2018-09-02T15:13:23.000Z</time>
      </trkpt>
      <trkpt lat="43.2993301190435886383056640625" lon="-2.33714290894567966461181640625">
        <ele>92.59999847412109375</ele>
        <time>2018-09-02T15:13:25.000Z</time>
      </trkpt>
      <trkpt lat="43.2994280196726322174072265625" lon="-2.3371651209890842437744140625">
        <ele>92</ele>
        <time>2018-09-02T15:13:26.000Z</time>
      </trkpt>
      <trkpt lat="43.29952080734074115753173828125" lon="-2.33718615956604480743408203125">
        <ele>91.59999847412109375</ele>
        <time>2018-09-02T15:13:27.000Z</time>
      </trkpt>
      <trkpt lat="43.29960579983890056610107421875" lon="-2.33720057643949985504150390625">
        <ele>91</ele>
        <time>2018-09-02T15:13:28.000Z</time>
      </trkpt>
      <trkpt lat="43.29974301159381866455078125" lon="-2.3372063599526882171630859375">
        <ele>89.8000030517578125</ele>
        <time>2018-09-02T15:13:30.000Z</time>
      </trkpt>
      <trkpt lat="43.29988089390099048614501953125" lon="-2.33715615235269069671630859375">
        <ele>89</ele>
        <time>2018-09-02T15:13:33.000Z</time>
      </trkpt>
      <trkpt lat="43.29994241707026958465576171875" lon="-2.3371671326458454132080078125">
        <ele>88.8000030517578125</ele>
        <time>2018-09-02T15:13:35.000Z</time>
      </trkpt>
      <trkpt lat="43.29997661523520946502685546875" lon="-2.33717408962547779083251953125">
        <ele>89</ele>
        <time>2018-09-02T15:13:36.000Z</time>
      </trkpt>
      <trkpt lat="43.30000746063888072967529296875" lon="-2.337182722985744476318359375">
        <ele>88.8000030517578125</ele>
        <time>2018-09-02T15:13:37.000Z</time>
      </trkpt>
      <trkpt lat="43.3001143299043178558349609375" lon="-2.3372549749910831451416015625">
        <ele>88.40000152587890625</ele>
        <time>2018-09-02T15:13:41.000Z</time>
      </trkpt>
      <trkpt lat="43.30013168044388294219970703125" lon="-2.337284646928310394287109375">
        <ele>88.40000152587890625</ele>
        <time>2018-09-02T15:13:42.000Z</time>
      </trkpt>
      <trkpt lat="43.30016537569463253021240234375" lon="-2.33735212124884128570556640625">
        <ele>88</ele>
        <time>2018-09-02T15:13:45.000Z</time>
      </trkpt>
      <trkpt lat="43.30016403459012508392333984375" lon="-2.3373505286872386932373046875">
        <ele>88</ele>
        <time>2018-09-02T15:13:46.000Z</time>
      </trkpt>
      <trkpt lat="43.30017459578812122344970703125" lon="-2.33739889226853847503662109375">
        <ele>88.1999969482421875</ele>
        <time>2018-09-02T15:16:15.000Z</time>
      </trkpt>
      <trkpt lat="43.30018633045256137847900390625" lon="-2.33741750009357929229736328125">
        <ele>88</ele>
        <time>2018-09-02T15:16:16.000Z</time>
      </trkpt>
      <trkpt lat="43.300193957984447479248046875" lon="-2.3374346829950809478759765625">
        <ele>87.8000030517578125</ele>
        <time>2018-09-02T15:16:17.000Z</time>
      </trkpt>
      <trkpt lat="43.30021415837109088897705078125" lon="-2.33755513094365596771240234375">
        <ele>87.8000030517578125</ele>
        <time>2018-09-02T15:16:24.000Z</time>
      </trkpt>
      <trkpt lat="43.30022924579679965972900390625" lon="-2.33765739016234874725341796875">
        <ele>87.59999847412109375</ele>
        <time>2018-09-02T15:16:58.000Z</time>
      </trkpt>
      <trkpt lat="43.30024232156574726104736328125" lon="-2.337842546403408050537109375">
        <ele>87</ele>
        <time>2018-09-02T15:17:03.000Z</time>
      </trkpt>
      <trkpt lat="43.3002430759370326995849609375" lon="-2.337882779538631439208984375">
        <ele>86.8000030517578125</ele>
        <time>2018-09-02T15:17:04.000Z</time>
      </trkpt>
      <trkpt lat="43.30024500377476215362548828125" lon="-2.3380217514932155609130859375">
        <ele>86.1999969482421875</ele>
        <time>2018-09-02T15:17:08.000Z</time>
      </trkpt>
      <trkpt lat="43.30024986527860164642333984375" lon="-2.3381756432354450225830078125">
        <ele>85.59999847412109375</ele>
        <time>2018-09-02T15:17:11.000Z</time>
      </trkpt>
      <trkpt lat="43.3002527989447116851806640625" lon="-2.338302545249462127685546875">
        <ele>85</ele>
        <time>2018-09-02T15:17:13.000Z</time>
      </trkpt>
      <trkpt lat="43.30025942064821720123291015625" lon="-2.33844344504177570343017578125">
        <ele>84.59999847412109375</ele>
        <time>2018-09-02T15:17:15.000Z</time>
      </trkpt>
      <trkpt lat="43.30026947893202304840087890625" lon="-2.3388166911900043487548828125">
        <ele>83.40000152587890625</ele>
        <time>2018-09-02T15:17:20.000Z</time>
      </trkpt>
      <trkpt lat="43.30027249641716480255126953125" lon="-2.3389799706637859344482421875">
        <ele>82.8000030517578125</ele>
        <time>2018-09-02T15:17:22.000Z</time>
      </trkpt>
      <trkpt lat="43.3002869971096515655517578125" lon="-2.3391519673168659210205078125">
        <ele>82.40000152587890625</ele>
        <time>2018-09-02T15:17:24.000Z</time>
      </trkpt>
      <trkpt lat="43.30029445700347423553466796875" lon="-2.33924441970884799957275390625">
        <ele>82.40000152587890625</ele>
        <time>2018-09-02T15:17:25.000Z</time>
      </trkpt>
      <trkpt lat="43.3003131486475467681884765625" lon="-2.3394335992634296417236328125">
        <ele>82</ele>
        <time>2018-09-02T15:17:27.000Z</time>
      </trkpt>
      <trkpt lat="43.3003523759543895721435546875" lon="-2.339695282280445098876953125">
        <ele>81</ele>
        <time>2018-09-02T15:17:30.000Z</time>
      </trkpt>
      <trkpt lat="43.30038129352033138275146484375" lon="-2.339773066341876983642578125">
        <ele>80.8000030517578125</ele>
        <time>2018-09-02T15:17:31.000Z</time>
      </trkpt>
      <trkpt lat="43.30051976256072521209716796875" lon="-2.33997867442667484283447265625">
        <ele>79.8000030517578125</ele>
        <time>2018-09-02T15:17:34.000Z</time>
      </trkpt>
      <trkpt lat="43.30057357437908649444580078125" lon="-2.34004086814820766448974609375">
        <ele>79.1999969482421875</ele>
        <time>2018-09-02T15:17:35.000Z</time>
      </trkpt>
      <trkpt lat="43.3006309904158115386962890625" lon="-2.34009836800396442413330078125">
        <ele>78.59999847412109375</ele>
        <time>2018-09-02T15:17:36.000Z</time>
      </trkpt>
      <trkpt lat="43.30069385468959808349609375" lon="-2.34014463610947132110595703125">
        <ele>78.1999969482421875</ele>
        <time>2018-09-02T15:17:37.000Z</time>
      </trkpt>
      <trkpt lat="43.3007617481052875518798828125" lon="-2.34018553979694843292236328125">
        <ele>77.59999847412109375</ele>
        <time>2018-09-02T15:17:38.000Z</time>
      </trkpt>
      <trkpt lat="43.300831317901611328125" lon="-2.34022577293217182159423828125">
        <ele>77</ele>
        <time>2018-09-02T15:17:39.000Z</time>
      </trkpt>
      <trkpt lat="43.30090432427823543548583984375" lon="-2.3402721248567104339599609375">
        <ele>76.40000152587890625</ele>
        <time>2018-09-02T15:17:40.000Z</time>
      </trkpt>
      <trkpt lat="43.30097707919776439666748046875" lon="-2.340334318578243255615234375">
        <ele>76</ele>
        <time>2018-09-02T15:17:41.000Z</time>
      </trkpt>
      <trkpt lat="43.30104212276637554168701171875" lon="-2.34041704796254634857177734375">
        <ele>75.40000152587890625</ele>
        <time>2018-09-02T15:17:42.000Z</time>
      </trkpt>
      <trkpt lat="43.30109694041311740875244140625" lon="-2.34051880426704883575439453125">
        <ele>74.40000152587890625</ele>
        <time>2018-09-02T15:17:43.000Z</time>
      </trkpt>
      <trkpt lat="43.30113817937672138214111328125" lon="-2.34063296578824520111083984375">
        <ele>73.8000030517578125</ele>
        <time>2018-09-02T15:17:44.000Z</time>
      </trkpt>
      <trkpt lat="43.30118662677705287933349609375" lon="-2.34089330770075321197509765625">
        <ele>72.40000152587890625</ele>
        <time>2018-09-02T15:17:46.000Z</time>
      </trkpt>
      <trkpt lat="43.30120909027755260467529296875" lon="-2.3410320281982421875">
        <ele>71.59999847412109375</ele>
        <time>2018-09-02T15:17:47.000Z</time>
      </trkpt>
      <trkpt lat="43.30123742111027240753173828125" lon="-2.34117108397185802459716796875">
        <ele>70.8000030517578125</ele>
        <time>2018-09-02T15:17:48.000Z</time>
      </trkpt>
      <trkpt lat="43.3013156242668628692626953125" lon="-2.3414445854723453521728515625">
        <ele>69.59999847412109375</ele>
        <time>2018-09-02T15:17:50.000Z</time>
      </trkpt>
      <trkpt lat="43.3013672567903995513916015625" lon="-2.341571152210235595703125">
        <ele>69</ele>
        <time>2018-09-02T15:17:51.000Z</time>
      </trkpt>
      <trkpt lat="43.3014245890080928802490234375" lon="-2.34169478528201580047607421875">
        <ele>68.40000152587890625</ele>
        <time>2018-09-02T15:17:52.000Z</time>
      </trkpt>
      <trkpt lat="43.30148586072027683258056640625" lon="-2.34181858599185943603515625">
        <ele>67</ele>
        <time>2018-09-02T15:17:53.000Z</time>
      </trkpt>
      <trkpt lat="43.3015462942421436309814453125" lon="-2.34194372780621051788330078125">
        <ele>66.40000152587890625</ele>
        <time>2018-09-02T15:17:54.000Z</time>
      </trkpt>
      <trkpt lat="43.30160739831626415252685546875" lon="-2.34206845052540302276611328125">
        <ele>65.59999847412109375</ele>
        <time>2018-09-02T15:17:55.000Z</time>
      </trkpt>
      <trkpt lat="43.30172675661742687225341796875" lon="-2.34230683185160160064697265625">
        <ele>64.40000152587890625</ele>
        <time>2018-09-02T15:17:57.000Z</time>
      </trkpt>
      <trkpt lat="43.30184477381408214569091796875" lon="-2.34253800474107265472412109375">
        <ele>63.200000762939453125</ele>
        <time>2018-09-02T15:17:59.000Z</time>
      </trkpt>
      <trkpt lat="43.30190847627818584442138671875" lon="-2.34265132807195186614990234375">
        <ele>62.59999847412109375</ele>
        <time>2018-09-02T15:18:00.000Z</time>
      </trkpt>
      <trkpt lat="43.301972262561321258544921875" lon="-2.3427593708038330078125">
        <ele>62</ele>
        <time>2018-09-02T15:18:01.000Z</time>
      </trkpt>
      <trkpt lat="43.30208323895931243896484375" lon="-2.3429767973721027374267578125">
        <ele>60.59999847412109375</ele>
        <time>2018-09-02T15:18:03.000Z</time>
      </trkpt>
      <trkpt lat="43.30217577517032623291015625" lon="-2.3431953974068164825439453125">
        <ele>59.799999237060546875</ele>
        <time>2018-09-02T15:18:05.000Z</time>
      </trkpt>
      <trkpt lat="43.302194215357303619384765625" lon="-2.3433144204318523406982421875">
        <ele>59</ele>
        <time>2018-09-02T15:18:06.000Z</time>
      </trkpt>
      <trkpt lat="43.30219161696732044219970703125" lon="-2.3434341140091419219970703125">
        <ele>58.40000152587890625</ele>
        <time>2018-09-02T15:18:07.000Z</time>
      </trkpt>
      <trkpt lat="43.30217217095196247100830078125" lon="-2.3435412347316741943359375">
        <ele>57.59999847412109375</ele>
        <time>2018-09-02T15:18:08.000Z</time>
      </trkpt>
      <trkpt lat="43.30209203995764255523681640625" lon="-2.343729995191097259521484375">
        <ele>56.799999237060546875</ele>
        <time>2018-09-02T15:18:10.000Z</time>
      </trkpt>
      <trkpt lat="43.30202825367450714111328125" lon="-2.34380266629159450531005859375">
        <ele>56.40000152587890625</ele>
        <time>2018-09-02T15:18:11.000Z</time>
      </trkpt>
      <trkpt lat="43.3018733561038970947265625" lon="-2.3439142294228076934814453125">
        <ele>55.200000762939453125</ele>
        <time>2018-09-02T15:18:13.000Z</time>
      </trkpt>
      <trkpt lat="43.30170965753495693206787109375" lon="-2.34401120804250240325927734375">
        <ele>54.200000762939453125</ele>
        <time>2018-09-02T15:18:15.000Z</time>
      </trkpt>
      <trkpt lat="43.3015563525259494781494140625" lon="-2.34411313198506832122802734375">
        <ele>53.200000762939453125</ele>
        <time>2018-09-02T15:18:17.000Z</time>
      </trkpt>
      <trkpt lat="43.30148787237703800201416015625" lon="-2.34417800791561603546142578125">
        <ele>52.799999237060546875</ele>
        <time>2018-09-02T15:18:18.000Z</time>
      </trkpt>
      <trkpt lat="43.3013261854648590087890625" lon="-2.34445427544414997100830078125">
        <ele>51.799999237060546875</ele>
        <time>2018-09-02T15:18:21.000Z</time>
      </trkpt>
      <trkpt lat="43.30128125846385955810546875" lon="-2.3445525951683521270751953125">
        <ele>51.40000152587890625</ele>
        <time>2018-09-02T15:18:22.000Z</time>
      </trkpt>
      <trkpt lat="43.30118142999708652496337890625" lon="-2.344736494123935699462890625">
        <ele>50.799999237060546875</ele>
        <time>2018-09-02T15:18:24.000Z</time>
      </trkpt>
      <trkpt lat="43.3011134527623653411865234375" lon="-2.34480648301541805267333984375">
        <ele>50.40000152587890625</ele>
        <time>2018-09-02T15:18:25.000Z</time>
      </trkpt>
      <trkpt lat="43.301036171615123748779296875" lon="-2.3448583669960498809814453125">
        <ele>50.40000152587890625</ele>
        <time>2018-09-02T15:18:26.000Z</time>
      </trkpt>
      <trkpt lat="43.30086157657206058502197265625" lon="-2.3448982648551464080810546875">
        <ele>49.40000152587890625</ele>
        <time>2018-09-02T15:18:28.000Z</time>
      </trkpt>
      <trkpt lat="43.30076987855136394500732421875" lon="-2.3448944091796875">
        <ele>48.799999237060546875</ele>
        <time>2018-09-02T15:18:29.000Z</time>
      </trkpt>
      <trkpt lat="43.3006802760064601898193359375" lon="-2.3448855243623256683349609375">
        <ele>48.59999847412109375</ele>
        <time>2018-09-02T15:18:30.000Z</time>
      </trkpt>
      <trkpt lat="43.30059134401381015777587890625" lon="-2.3448737896978855133056640625">
        <ele>48.200000762939453125</ele>
        <time>2018-09-02T15:18:31.000Z</time>
      </trkpt>
      <trkpt lat="43.30040744505822658538818359375" lon="-2.34487538225948810577392578125">
        <ele>47</ele>
        <time>2018-09-02T15:18:33.000Z</time>
      </trkpt>
      <trkpt lat="43.3003171719610691070556640625" lon="-2.344901449978351593017578125">
        <ele>46.40000152587890625</ele>
        <time>2018-09-02T15:18:34.000Z</time>
      </trkpt>
      <trkpt lat="43.300140984356403350830078125" lon="-2.34500245191156864166259765625">
        <ele>45.799999237060546875</ele>
        <time>2018-09-02T15:18:36.000Z</time>
      </trkpt>
      <trkpt lat="43.3000606857240200042724609375" lon="-2.34507621265947818756103515625">
        <ele>45.200000762939453125</ele>
        <time>2018-09-02T15:18:37.000Z</time>
      </trkpt>
      <trkpt lat="43.2999134995043277740478515625" lon="-2.3452449403703212738037109375">
        <ele>44.200000762939453125</ele>
        <time>2018-09-02T15:18:39.000Z</time>
      </trkpt>
      <trkpt lat="43.29978651367127895355224609375" lon="-2.34544434584677219390869140625">
        <ele>43</ele>
        <time>2018-09-02T15:18:41.000Z</time>
      </trkpt>
      <trkpt lat="43.299726583063602447509765625" lon="-2.34555196948349475860595703125">
        <ele>42.59999847412109375</ele>
        <time>2018-09-02T15:18:42.000Z</time>
      </trkpt>
      <trkpt lat="43.299666233360767364501953125" lon="-2.34565925784409046173095703125">
        <ele>42</ele>
        <time>2018-09-02T15:18:43.000Z</time>
      </trkpt>
      <trkpt lat="43.2995403371751308441162109375" lon="-2.34586226753890514373779296875">
        <ele>40.40000152587890625</ele>
        <time>2018-09-02T15:18:45.000Z</time>
      </trkpt>
      <trkpt lat="43.299399353563785552978515625" lon="-2.34604130499064922332763671875">
        <ele>39</ele>
        <time>2018-09-02T15:18:47.000Z</time>
      </trkpt>
      <trkpt lat="43.299267590045928955078125" lon="-2.34622620977461338043212890625">
        <ele>37.40000152587890625</ele>
        <time>2018-09-02T15:18:49.000Z</time>
      </trkpt>
      <trkpt lat="43.2991698570549488067626953125" lon="-2.34644648618996143341064453125">
        <ele>36</ele>
        <time>2018-09-02T15:18:51.000Z</time>
      </trkpt>
      <trkpt lat="43.2991048134863376617431640625" lon="-2.346692495048046112060546875">
        <ele>35.40000152587890625</ele>
        <time>2018-09-02T15:18:53.000Z</time>
      </trkpt>
      <trkpt lat="43.299071788787841796875" lon="-2.34681244008243083953857421875">
        <ele>34.799999237060546875</ele>
        <time>2018-09-02T15:18:54.000Z</time>
      </trkpt>
      <trkpt lat="43.29903398640453815460205078125" lon="-2.34693028964102268218994140625">
        <ele>34</ele>
        <time>2018-09-02T15:18:55.000Z</time>
      </trkpt>
      <trkpt lat="43.29898662865161895751953125" lon="-2.34703958965837955474853515625">
        <ele>33.40000152587890625</ele>
        <time>2018-09-02T15:18:56.000Z</time>
      </trkpt>
      <trkpt lat="43.29882527701556682586669921875" lon="-2.34736011363565921783447265625">
        <ele>32</ele>
        <time>2018-09-02T15:18:59.000Z</time>
      </trkpt>
      <trkpt lat="43.29872645437717437744140625" lon="-2.3475873470306396484375">
        <ele>30.3999996185302734375</ele>
        <time>2018-09-02T15:19:01.000Z</time>
      </trkpt>
      <trkpt lat="43.29861774109303951263427734375" lon="-2.347945757210254669189453125">
        <ele>29.200000762939453125</ele>
        <time>2018-09-02T15:19:04.000Z</time>
      </trkpt>
      <trkpt lat="43.2986109517514705657958984375" lon="-2.34820735640823841094970703125">
        <ele>28</ele>
        <time>2018-09-02T15:19:06.000Z</time>
      </trkpt>
      <trkpt lat="43.29861422069370746612548828125" lon="-2.34833744354546070098876953125">
        <ele>27.6000003814697265625</ele>
        <time>2018-09-02T15:19:07.000Z</time>
      </trkpt>
      <trkpt lat="43.2986139692366123199462890625" lon="-2.34859392978250980377197265625">
        <ele>26.799999237060546875</ele>
        <time>2018-09-02T15:19:09.000Z</time>
      </trkpt>
      <trkpt lat="43.29861589707434177398681640625" lon="-2.3489594645798206329345703125">
        <ele>25.6000003814697265625</ele>
        <time>2018-09-02T15:19:12.000Z</time>
      </trkpt>
      <trkpt lat="43.29861639998853206634521484375" lon="-2.3490798287093639373779296875">
        <ele>25.200000762939453125</ele>
        <time>2018-09-02T15:19:13.000Z</time>
      </trkpt>
      <trkpt lat="43.2986153103411197662353515625" lon="-2.34943614341318607330322265625">
        <ele>24</ele>
        <time>2018-09-02T15:19:16.000Z</time>
      </trkpt>
      <trkpt lat="43.29861639998853206634521484375" lon="-2.34967469237744808197021484375">
        <ele>23.3999996185302734375</ele>
        <time>2018-09-02T15:19:18.000Z</time>
      </trkpt>
      <trkpt lat="43.29861639998853206634521484375" lon="-2.34991374425590038299560546875">
        <ele>22.799999237060546875</ele>
        <time>2018-09-02T15:19:20.000Z</time>
      </trkpt>
      <trkpt lat="43.298618495464324951171875" lon="-2.3502744175493717193603515625">
        <ele>21.799999237060546875</ele>
        <time>2018-09-02T15:19:23.000Z</time>
      </trkpt>
      <trkpt lat="43.29859309829771518707275390625" lon="-2.3506195843219757080078125">
        <ele>20.799999237060546875</ele>
        <time>2018-09-02T15:19:26.000Z</time>
      </trkpt>
      <trkpt lat="43.29854364506900310516357421875" lon="-2.3507134616374969482421875">
        <ele>20.799999237060546875</ele>
        <time>2018-09-02T15:19:27.000Z</time>
      </trkpt>
      <trkpt lat="43.2983891665935516357421875" lon="-2.3508044891059398651123046875">
        <ele>20.200000762939453125</ele>
        <time>2018-09-02T15:19:29.000Z</time>
      </trkpt>
      <trkpt lat="43.2982149906456470489501953125" lon="-2.3507498390972614288330078125">
        <ele>19.6000003814697265625</ele>
        <time>2018-09-02T15:19:31.000Z</time>
      </trkpt>
      <trkpt lat="43.29799680970609188079833984375" lon="-2.35052579082548618316650390625">
        <ele>18.200000762939453125</ele>
        <time>2018-09-02T15:19:34.000Z</time>
      </trkpt>
      <trkpt lat="43.29786387272179126739501953125" lon="-2.3503944464027881622314453125">
        <ele>17.6000003814697265625</ele>
        <time>2018-09-02T15:19:36.000Z</time>
      </trkpt>
      <trkpt lat="43.29771819524466991424560546875" lon="-2.35030987299978733062744140625">
        <ele>17.200000762939453125</ele>
        <time>2018-09-02T15:19:38.000Z</time>
      </trkpt>
      <trkpt lat="43.29756262712180614471435546875" lon="-2.35025413334369659423828125">
        <ele>16.799999237060546875</ele>
        <time>2018-09-02T15:19:40.000Z</time>
      </trkpt>
      <trkpt lat="43.29734469763934612274169921875" lon="-2.350201494991779327392578125">
        <ele>16.200000762939453125</ele>
        <time>2018-09-02T15:19:43.000Z</time>
      </trkpt>
      <trkpt lat="43.29727672040462493896484375" lon="-2.35020560212433338165283203125">
        <ele>16</ele>
        <time>2018-09-02T15:19:44.000Z</time>
      </trkpt>
      <trkpt lat="43.2971464656293392181396484375" lon="-2.350272238254547119140625">
        <ele>15.80000019073486328125</ele>
        <time>2018-09-02T15:19:46.000Z</time>
      </trkpt>
      <trkpt lat="43.29697857610881328582763671875" lon="-2.35044532455503940582275390625">
        <ele>15.19999980926513671875</ele>
        <time>2018-09-02T15:19:49.000Z</time>
      </trkpt>
      <trkpt lat="43.2969231717288494110107421875" lon="-2.3505074344575405120849609375">
        <ele>15.19999980926513671875</ele>
        <time>2018-09-02T15:19:50.000Z</time>
      </trkpt>
      <trkpt lat="43.2967790029942989349365234375" lon="-2.3507116176187992095947265625">
        <ele>15</ele>
        <time>2018-09-02T15:19:53.000Z</time>
      </trkpt>
      <trkpt lat="43.29670582897961139678955078125" lon="-2.35087095759809017181396484375">
        <ele>15</ele>
        <time>2018-09-02T15:19:55.000Z</time>
      </trkpt>
      <trkpt lat="43.29667632468044757843017578125" lon="-2.35094874165952205657958984375">
        <ele>14.80000019073486328125</ele>
        <time>2018-09-02T15:19:56.000Z</time>
      </trkpt>
      <trkpt lat="43.29657255671918392181396484375" lon="-2.35124655067920684814453125">
        <ele>14.80000019073486328125</ele>
        <time>2018-09-02T15:20:00.000Z</time>
      </trkpt>
      <trkpt lat="43.29650499857962131500244140625" lon="-2.35144461505115032196044921875">
        <ele>14.80000019073486328125</ele>
        <time>2018-09-02T15:20:04.000Z</time>
      </trkpt>
      <trkpt lat="43.29648471437394618988037109375" lon="-2.3515028692781925201416015625">
        <ele>14.80000019073486328125</ele>
        <time>2018-09-02T15:20:06.000Z</time>
      </trkpt>
      <trkpt lat="43.29641883261501789093017578125" lon="-2.35167260281741619110107421875">
        <ele>14.19999980926513671875</ele>
        <time>2018-09-02T15:20:10.000Z</time>
      </trkpt>
      <trkpt lat="43.296380527317523956298828125" lon="-2.35176949761807918548583984375">
        <ele>14.19999980926513671875</ele>
        <time>2018-09-02T15:20:12.000Z</time>
      </trkpt>
      <trkpt lat="43.29633970744907855987548828125" lon="-2.3518522270023822784423828125">
        <ele>14.3999996185302734375</ele>
        <time>2018-09-02T15:20:14.000Z</time>
      </trkpt>
      <trkpt lat="43.29632361419498920440673828125" lon="-2.35190260224044322967529296875">
        <ele>14.19999980926513671875</ele>
        <time>2018-09-02T15:20:16.000Z</time>
      </trkpt>
      <trkpt lat="43.296300731599330902099609375" lon="-2.35194518230855464935302734375">
        <ele>14.3999996185302734375</ele>
        <time>2018-09-02T15:20:37.000Z</time>
      </trkpt>
      <trkpt lat="43.2962889969348907470703125" lon="-2.35196898691356182098388671875">
        <ele>14.3999996185302734375</ele>
        <time>2018-09-02T15:20:38.000Z</time>
      </trkpt>
      <trkpt lat="43.29624666832387447357177734375" lon="-2.3520835675299167633056640625">
        <ele>14</ele>
        <time>2018-09-02T15:20:41.000Z</time>
      </trkpt>
      <trkpt lat="43.296214900910854339599609375" lon="-2.35216780565679073333740234375">
        <ele>14</ele>
        <time>2018-09-02T15:20:43.000Z</time>
      </trkpt>
      <trkpt lat="43.296188078820705413818359375" lon="-2.35224542208015918731689453125">
        <ele>14</ele>
        <time>2018-09-02T15:20:45.000Z</time>
      </trkpt>
      <trkpt lat="43.29615689814090728759765625" lon="-2.35231666825711727142333984375">
        <ele>14.3999996185302734375</ele>
        <time>2018-09-02T15:20:48.000Z</time>
      </trkpt>
      <trkpt lat="43.2961131446063518524169921875" lon="-2.3524389602243900299072265625">
        <ele>14.3999996185302734375</ele>
        <time>2018-09-02T15:20:53.000Z</time>
      </trkpt>
      <trkpt lat="43.2960608415305614471435546875" lon="-2.35257466323673725128173828125">
        <ele>14</ele>
        <time>2018-09-02T15:20:56.000Z</time>
      </trkpt>
      <trkpt lat="43.296027481555938720703125" lon="-2.3526729829609394073486328125">
        <ele>14</ele>
        <time>2018-09-02T15:20:58.000Z</time>
      </trkpt>
      <trkpt lat="43.29598096199333667755126953125" lon="-2.352832742035388946533203125">
        <ele>13.80000019073486328125</ele>
        <time>2018-09-02T15:21:01.000Z</time>
      </trkpt>
      <trkpt lat="43.29592882655560970306396484375" lon="-2.353027872741222381591796875">
        <ele>14.19999980926513671875</ele>
        <time>2018-09-02T15:21:05.000Z</time>
      </trkpt>
      <trkpt lat="43.2958724163472652435302734375" lon="-2.3531864583492279052734375">
        <ele>14.19999980926513671875</ele>
        <time>2018-09-02T15:21:08.000Z</time>
      </trkpt>
      <trkpt lat="43.29585556872189044952392578125" lon="-2.3532419465482234954833984375">
        <ele>14.19999980926513671875</ele>
        <time>2018-09-02T15:21:09.000Z</time>
      </trkpt>
      <trkpt lat="43.2958392240107059478759765625" lon="-2.353300787508487701416015625">
        <ele>14</ele>
        <time>2018-09-02T15:21:10.000Z</time>
      </trkpt>
      <trkpt lat="43.29581734724342823028564453125" lon="-2.35336172394454479217529296875">
        <ele>14</ele>
        <time>2018-09-02T15:21:11.000Z</time>
      </trkpt>
      <trkpt lat="43.29570670612156391143798828125" lon="-2.35365374945104122161865234375">
        <ele>13.80000019073486328125</ele>
        <time>2018-09-02T15:21:16.000Z</time>
      </trkpt>
      <trkpt lat="43.2956075482070446014404296875" lon="-2.3538853414356708526611328125">
        <ele>13.6000003814697265625</ele>
        <time>2018-09-02T15:21:20.000Z</time>
      </trkpt>
      <trkpt lat="43.29558483324944972991943359375" lon="-2.35394946299493312835693359375">
        <ele>13.6000003814697265625</ele>
        <time>2018-09-02T15:21:21.000Z</time>
      </trkpt>
      <trkpt lat="43.2955435104668140411376953125" lon="-2.3540761135518550872802734375">
        <ele>13.3999996185302734375</ele>
        <time>2018-09-02T15:21:23.000Z</time>
      </trkpt>
      <trkpt lat="43.295507133007049560546875" lon="-2.3541917838156223297119140625">
        <ele>13.6000003814697265625</ele>
        <time>2018-09-02T15:21:25.000Z</time>
      </trkpt>
      <trkpt lat="43.295463882386684417724609375" lon="-2.354313321411609649658203125">
        <ele>13.6000003814697265625</ele>
        <time>2018-09-02T15:21:27.000Z</time>
      </trkpt>
      <trkpt lat="43.2953695021569728851318359375" lon="-2.354584224522113800048828125">
        <ele>13.80000019073486328125</ele>
        <time>2018-09-02T15:21:32.000Z</time>
      </trkpt>
      <trkpt lat="43.29532851465046405792236328125" lon="-2.35472478903830051422119140625">
        <ele>14</ele>
        <time>2018-09-02T15:21:35.000Z</time>
      </trkpt>
      <trkpt lat="43.29528626985847949981689453125" lon="-2.3548241145908832550048828125">
        <ele>14</ele>
        <time>2018-09-02T15:21:38.000Z</time>
      </trkpt>
      <trkpt lat="43.29521334730088710784912109375" lon="-2.3548816144466400146484375">
        <ele>14</ele>
        <time>2018-09-02T15:21:41.000Z</time>
      </trkpt>
      <trkpt lat="43.2951797358691692352294921875" lon="-2.35491313040256500244140625">
        <ele>14</ele>
        <time>2018-09-02T15:22:00.000Z</time>
      </trkpt>
      <trkpt lat="43.2951190508902072906494140625" lon="-2.3549632541835308074951171875">
        <ele>14</ele>
        <time>2018-09-02T15:22:03.000Z</time>
      </trkpt>
      <trkpt lat="43.29498946666717529296875" lon="-2.355019748210906982421875">
        <ele>13.80000019073486328125</ele>
        <time>2018-09-02T15:22:07.000Z</time>
      </trkpt>
      <trkpt lat="43.29495635814964771270751953125" lon="-2.35503357835114002227783203125">
        <ele>13.80000019073486328125</ele>
        <time>2018-09-02T15:22:08.000Z</time>
      </trkpt>
      <trkpt lat="43.29474949277937412261962890625" lon="-2.35511236824095249176025390625">
        <ele>13.80000019073486328125</ele>
        <time>2018-09-02T15:22:14.000Z</time>
      </trkpt>
      <trkpt lat="43.29471328295767307281494140625" lon="-2.35512435436248779296875">
        <ele>13.80000019073486328125</ele>
        <time>2018-09-02T15:22:15.000Z</time>
      </trkpt>
      <trkpt lat="43.29441036097705364227294921875" lon="-2.35523239709436893463134765625">
        <ele>13.3999996185302734375</ele>
        <time>2018-09-02T15:22:23.000Z</time>
      </trkpt>
      <trkpt lat="43.2941289804875850677490234375" lon="-2.3553018830716609954833984375">
        <ele>13.3999996185302734375</ele>
        <time>2018-09-02T15:22:30.000Z</time>
      </trkpt>
      <trkpt lat="43.29391859471797943115234375" lon="-2.355300374329090118408203125">
        <ele>13.19999980926513671875</ele>
        <time>2018-09-02T15:22:35.000Z</time>
      </trkpt>
      <trkpt lat="43.29383804462850093841552734375" lon="-2.35528461635112762451171875">
        <ele>13.19999980926513671875</ele>
        <time>2018-09-02T15:22:37.000Z</time>
      </trkpt>
      <trkpt lat="43.29356764443218708038330078125" lon="-2.3552881367504596710205078125">
        <ele>13</ele>
        <time>2018-09-02T15:22:44.000Z</time>
      </trkpt>
      <trkpt lat="43.29328131861984729766845703125" lon="-2.355431132018566131591796875">
        <ele>12.80000019073486328125</ele>
        <time>2018-09-02T15:22:51.000Z</time>
      </trkpt>
      <trkpt lat="43.2931969128549098968505859375" lon="-2.3554755561053752899169921875">
        <ele>12.80000019073486328125</ele>
        <time>2018-09-02T15:22:53.000Z</time>
      </trkpt>
      <trkpt lat="43.29299147240817546844482421875" lon="-2.3556187190115451812744140625">
        <ele>13</ele>
        <time>2018-09-02T15:22:58.000Z</time>
      </trkpt>
      <trkpt lat="43.292913101613521575927734375" lon="-2.355676554143428802490234375">
        <ele>13</ele>
        <time>2018-09-02T15:23:00.000Z</time>
      </trkpt>
      <trkpt lat="43.292794413864612579345703125" lon="-2.3557659052312374114990234375">
        <ele>13</ele>
        <time>2018-09-02T15:23:03.000Z</time>
      </trkpt>
      <trkpt lat="43.29272543080151081085205078125" lon="-2.3558168672025203704833984375">
        <ele>13.19999980926513671875</ele>
        <time>2018-09-02T15:23:05.000Z</time>
      </trkpt>
      <trkpt lat="43.29259090125560760498046875" lon="-2.35593907535076141357421875">
        <ele>13.3999996185302734375</ele>
        <time>2018-09-02T15:23:10.000Z</time>
      </trkpt>
      <trkpt lat="43.292512111365795135498046875" lon="-2.35600076615810394287109375">
        <ele>13.3999996185302734375</ele>
        <time>2018-09-02T15:23:13.000Z</time>
      </trkpt>
      <trkpt lat="43.29245905391871929168701171875" lon="-2.35604477114975452423095703125">
        <ele>13.6000003814697265625</ele>
        <time>2018-09-02T15:23:15.000Z</time>
      </trkpt>
      <trkpt lat="43.2924301363527774810791015625" lon="-2.3560485430061817169189453125">
        <ele>13.3999996185302734375</ele>
        <time>2018-09-02T15:23:16.000Z</time>
      </trkpt>
      <trkpt lat="43.2924093492329120635986328125" lon="-2.3560193739831447601318359375">
        <ele>13.3999996185302734375</ele>
        <time>2018-09-02T15:23:17.000Z</time>
      </trkpt>
      <trkpt lat="43.29241479746997356414794921875" lon="-2.35598266124725341796875">
        <ele>13.19999980926513671875</ele>
        <time>2018-09-02T15:23:20.000Z</time>
      </trkpt>
      <trkpt lat="43.29255737364292144775390625" lon="-2.35587344504892826080322265625">
        <ele>12.80000019073486328125</ele>
        <time>2018-09-02T15:23:24.000Z</time>
      </trkpt>
      <trkpt lat="43.2925957627594470977783203125" lon="-2.3558477126061916351318359375">
        <ele>12.80000019073486328125</ele>
        <time>2018-09-02T15:23:25.000Z</time>
      </trkpt>
      <trkpt lat="43.292717970907688140869140625" lon="-2.35575693659484386444091796875">
        <ele>12.6000003814697265625</ele>
        <time>2018-09-02T15:23:29.000Z</time>
      </trkpt>
      <trkpt lat="43.29288217239081859588623046875" lon="-2.35563196241855621337890625">
        <ele>12.6000003814697265625</ele>
        <time>2018-09-02T15:23:35.000Z</time>
      </trkpt>
      <trkpt lat="43.293097503483295440673828125" lon="-2.3554658330976963043212890625">
        <ele>12.80000019073486328125</ele>
        <time>2018-09-02T15:23:42.000Z</time>
      </trkpt>
      <trkpt lat="43.2933142594993114471435546875" lon="-2.3553411103785037994384765625">
        <ele>12.80000019073486328125</ele>
        <time>2018-09-02T15:23:48.000Z</time>
      </trkpt>
      <trkpt lat="43.29334652982652187347412109375" lon="-2.3553270287811756134033203125">
        <ele>12.80000019073486328125</ele>
        <time>2018-09-02T15:23:49.000Z</time>
      </trkpt>
      <trkpt lat="43.2934914529323577880859375" lon="-2.3552244342863559722900390625">
        <ele>12.6000003814697265625</ele>
        <time>2018-09-02T15:23:54.000Z</time>
      </trkpt>
      <trkpt lat="43.2935580052435398101806640625" lon="-2.35514857806265354156494140625">
        <ele>13</ele>
        <time>2018-09-02T15:23:58.000Z</time>
      </trkpt>
      <trkpt lat="43.293568231165409088134765625" lon="-2.3551337420940399169921875">
        <ele>13</ele>
        <time>2018-09-02T15:23:59.000Z</time>
      </trkpt>
      <trkpt lat="43.2936207018792629241943359375" lon="-2.3550641722977161407470703125">
        <ele>13</ele>
        <time>2018-09-02T15:24:04.000Z</time>
      </trkpt>
      <trkpt lat="43.29332071356475353240966796875" lon="-2.35539550893008708953857421875">
        <ele>7.400000095367431640625</ele>
        <time>2018-09-02T15:51:26.000Z</time>
      </trkpt>
      <trkpt lat="43.29332121647894382476806640625" lon="-2.3554618097841739654541015625">
        <ele>6.80000019073486328125</ele>
        <time>2018-09-02T15:51:27.000Z</time>
      </trkpt>
      <trkpt lat="43.29328349791467189788818359375" lon="-2.35552199184894561767578125">
        <ele>6.599999904632568359375</ele>
        <time>2018-09-02T15:51:28.000Z</time>
      </trkpt>
      <trkpt lat="43.29324661754071712493896484375" lon="-2.3555441200733184814453125">
        <ele>6.599999904632568359375</ele>
        <time>2018-09-02T15:51:29.000Z</time>
      </trkpt>
      <trkpt lat="43.2931508123874664306640625" lon="-2.35542786307632923126220703125">
        <ele>8</ele>
        <time>2018-09-02T15:51:30.000Z</time>
      </trkpt>
      <trkpt lat="43.29314771108329296112060546875" lon="-2.3554985225200653076171875">
        <ele>7.599999904632568359375</ele>
        <time>2018-09-02T15:51:31.000Z</time>
      </trkpt>
      <trkpt lat="43.29312466084957122802734375" lon="-2.35547505319118499755859375">
        <ele>7.80000019073486328125</ele>
        <time>2018-09-02T15:51:32.000Z</time>
      </trkpt>
      <trkpt lat="43.29309591092169284820556640625" lon="-2.35546558164060115814208984375">
        <ele>8.19999980926513671875</ele>
        <time>2018-09-02T15:51:33.000Z</time>
      </trkpt>
      <trkpt lat="43.29305048100650310516357421875" lon="-2.355422079563140869140625">
        <ele>8.80000019073486328125</ele>
        <time>2018-09-02T15:51:34.000Z</time>
      </trkpt>
      <trkpt lat="43.2930446974933147430419921875" lon="-2.3554421961307525634765625">
        <ele>8.6000003814697265625</ele>
        <time>2018-09-02T15:51:35.000Z</time>
      </trkpt>
      <trkpt lat="43.29308300279080867767333984375" lon="-2.35549659468233585357666015625">
        <ele>8</ele>
        <time>2018-09-02T15:51:36.000Z</time>
      </trkpt>
      <trkpt lat="43.29304218292236328125" lon="-2.355461977422237396240234375">
        <ele>8.3999996185302734375</ele>
        <time>2018-09-02T15:51:37.000Z</time>
      </trkpt>
      <trkpt lat="43.293125666677951812744140625" lon="-2.3555436171591281890869140625">
        <ele>7.19999980926513671875</ele>
        <time>2018-09-02T15:51:38.000Z</time>
      </trkpt>
      <trkpt lat="43.29308249987661838531494140625" lon="-2.35554638318717479705810546875">
        <ele>7.599999904632568359375</ele>
        <time>2018-09-02T15:51:39.000Z</time>
      </trkpt>
      <trkpt lat="43.2931027002632617950439453125" lon="-2.35559441149234771728515625">
        <ele>7</ele>
        <time>2018-09-02T15:51:40.000Z</time>
      </trkpt>
      <trkpt lat="43.29306305386126041412353515625" lon="-2.35562534071505069732666015625">
        <ele>7</ele>
        <time>2018-09-02T15:51:41.000Z</time>
      </trkpt>
      <trkpt lat="43.2930074818432331085205078125" lon="-2.355693317949771881103515625">
        <ele>6.80000019073486328125</ele>
        <time>2018-09-02T15:51:42.000Z</time>
      </trkpt>
      <trkpt lat="43.29297521151602268218994140625" lon="-2.3557226546108722686767578125">
        <ele>6.599999904632568359375</ele>
        <time>2018-09-02T15:51:43.000Z</time>
      </trkpt>
      <trkpt lat="43.2929424382746219635009765625" lon="-2.35576515085995197296142578125">
        <ele>6.599999904632568359375</ele>
        <time>2018-09-02T15:51:44.000Z</time>
      </trkpt>
      <trkpt lat="43.2929132692515850067138671875" lon="-2.3557799868285655975341796875">
        <ele>6.599999904632568359375</ele>
        <time>2018-09-02T15:51:45.000Z</time>
      </trkpt>
      <trkpt lat="43.29287789762020111083984375" lon="-2.355819381773471832275390625">
        <ele>6.400000095367431640625</ele>
        <time>2018-09-02T15:51:46.000Z</time>
      </trkpt>
      <trkpt lat="43.29285300336778163909912109375" lon="-2.35580228269100189208984375">
        <ele>6.80000019073486328125</ele>
        <time>2018-09-02T15:51:47.000Z</time>
      </trkpt>
      <trkpt lat="43.29281712882220745086669921875" lon="-2.355828098952770233154296875">
        <ele>6.80000019073486328125</ele>
        <time>2018-09-02T15:51:48.000Z</time>
      </trkpt>
      <trkpt lat="43.29277723096311092376708984375" lon="-2.3558845929801464080810546875">
        <ele>6.599999904632568359375</ele>
        <time>2018-09-02T15:51:49.000Z</time>
      </trkpt>
      <trkpt lat="43.29273750074207782745361328125" lon="-2.355883084237575531005859375">
        <ele>6.80000019073486328125</ele>
        <time>2018-09-02T15:51:50.000Z</time>
      </trkpt>
      <trkpt lat="43.29270212911069393157958984375" lon="-2.3559037037193775177001953125">
        <ele>6.80000019073486328125</ele>
        <time>2018-09-02T15:51:51.000Z</time>
      </trkpt>
      <trkpt lat="43.29266390763223171234130859375" lon="-2.35593102872371673583984375">
        <ele>7</ele>
        <time>2018-09-02T15:51:52.000Z</time>
      </trkpt>
      <trkpt lat="43.2926262728869915008544921875" lon="-2.35596028156578540802001953125">
        <ele>7</ele>
        <time>2018-09-02T15:51:53.000Z</time>
      </trkpt>
      <trkpt lat="43.2925887219607830047607421875" lon="-2.35599028877913951873779296875">
        <ele>7.19999980926513671875</ele>
        <time>2018-09-02T15:51:54.000Z</time>
      </trkpt>
      <trkpt lat="43.292551673948764801025390625" lon="-2.3560200445353984832763671875">
        <ele>7.400000095367431640625</ele>
        <time>2018-09-02T15:51:55.000Z</time>
      </trkpt>
      <trkpt lat="43.292514793574810028076171875" lon="-2.356051392853260040283203125">
        <ele>7.599999904632568359375</ele>
        <time>2018-09-02T15:51:56.000Z</time>
      </trkpt>
      <trkpt lat="43.29247833229601383209228515625" lon="-2.356083579361438751220703125">
        <ele>7.599999904632568359375</ele>
        <time>2018-09-02T15:51:57.000Z</time>
      </trkpt>
      <trkpt lat="43.29244195483624935150146484375" lon="-2.3561102338135242462158203125">
        <ele>7.80000019073486328125</ele>
        <time>2018-09-02T15:51:58.000Z</time>
      </trkpt>
      <trkpt lat="43.29240691848099231719970703125" lon="-2.35613864846527576446533203125">
        <ele>8</ele>
        <time>2018-09-02T15:51:59.000Z</time>
      </trkpt>
      <trkpt lat="43.2923717983067035675048828125" lon="-2.35616882331669330596923828125">
        <ele>8.19999980926513671875</ele>
        <time>2018-09-02T15:52:00.000Z</time>
      </trkpt>
      <trkpt lat="43.292335756123065948486328125" lon="-2.35619883053004741668701171875">
        <ele>8.3999996185302734375</ele>
        <time>2018-09-02T15:52:01.000Z</time>
      </trkpt>
      <trkpt lat="43.2922997139394283294677734375" lon="-2.3562289215624332427978515625">
        <ele>8.6000003814697265625</ele>
        <time>2018-09-02T15:52:02.000Z</time>
      </trkpt>
      <trkpt lat="43.29226308502256870269775390625" lon="-2.356259934604167938232421875">
        <ele>8.80000019073486328125</ele>
        <time>2018-09-02T15:52:03.000Z</time>
      </trkpt>
      <trkpt lat="43.29222570173442363739013671875" lon="-2.356288768351078033447265625">
        <ele>9</ele>
        <time>2018-09-02T15:52:04.000Z</time>
      </trkpt>
      <trkpt lat="43.2921877317130565643310546875" lon="-2.35631902702152729034423828125">
        <ele>9.19999980926513671875</ele>
        <time>2018-09-02T15:52:05.000Z</time>
      </trkpt>
      <trkpt lat="43.292152024805545806884765625" lon="-2.3563455976545810699462890625">
        <ele>9.3999996185302734375</ele>
        <time>2018-09-02T15:52:06.000Z</time>
      </trkpt>
      <trkpt lat="43.29211723990738391876220703125" lon="-2.35637267120182514190673828125">
        <ele>9.6000003814697265625</ele>
        <time>2018-09-02T15:52:07.000Z</time>
      </trkpt>
      <trkpt lat="43.2920807786285877227783203125" lon="-2.35639982856810092926025390625">
        <ele>9.80000019073486328125</ele>
        <time>2018-09-02T15:52:08.000Z</time>
      </trkpt>
      <trkpt lat="43.292042724788188934326171875" lon="-2.35642547719180583953857421875">
        <ele>10</ele>
        <time>2018-09-02T15:52:09.000Z</time>
      </trkpt>
      <trkpt lat="43.29200341366231441497802734375" lon="-2.35644676722586154937744140625">
        <ele>10.19999980926513671875</ele>
        <time>2018-09-02T15:52:10.000Z</time>
      </trkpt>
      <trkpt lat="43.29196519218385219573974609375" lon="-2.35646721906960010528564453125">
        <ele>10.6000003814697265625</ele>
        <time>2018-09-02T15:52:11.000Z</time>
      </trkpt>
      <trkpt lat="43.29193434678018093109130859375" lon="-2.3564609326422214508056640625">
        <ele>11.19999980926513671875</ele>
        <time>2018-09-02T15:52:12.000Z</time>
      </trkpt>
      <trkpt lat="43.291899226605892181396484375" lon="-2.35650007613003253936767578125">
        <ele>11.19999980926513671875</ele>
        <time>2018-09-02T15:52:13.000Z</time>
      </trkpt>
      <trkpt lat="43.29185253940522670745849609375" lon="-2.35652505420148372650146484375">
        <ele>11.80000019073486328125</ele>
        <time>2018-09-02T15:52:14.000Z</time>
      </trkpt>
      <trkpt lat="43.29180694185197353363037109375" lon="-2.35655204392969608306884765625">
        <ele>12.19999980926513671875</ele>
        <time>2018-09-02T15:52:15.000Z</time>
      </trkpt>
      <trkpt lat="43.29176268540322780609130859375" lon="-2.35657081939280033111572265625">
        <ele>12</ele>
        <time>2018-09-02T15:52:16.000Z</time>
      </trkpt>
      <trkpt lat="43.29171909950673580169677734375" lon="-2.356588840484619140625">
        <ele>11.6000003814697265625</ele>
        <time>2018-09-02T15:52:17.000Z</time>
      </trkpt>
      <trkpt lat="43.29167400486767292022705078125" lon="-2.356612980365753173828125">
        <ele>11.19999980926513671875</ele>
        <time>2018-09-02T15:52:18.000Z</time>
      </trkpt>
      <trkpt lat="43.29162924550473690032958984375" lon="-2.35663603059947490692138671875">
        <ele>10.80000019073486328125</ele>
        <time>2018-09-02T15:52:19.000Z</time>
      </trkpt>
      <trkpt lat="43.29158507287502288818359375" lon="-2.35665279440581798553466796875">
        <ele>10.6000003814697265625</ele>
        <time>2018-09-02T15:52:20.000Z</time>
      </trkpt>
      <trkpt lat="43.29154022969305515289306640625" lon="-2.35667123459279537200927734375">
        <ele>10.3999996185302734375</ele>
        <time>2018-09-02T15:52:21.000Z</time>
      </trkpt>
      <trkpt lat="43.291494883596897125244140625" lon="-2.3566916026175022125244140625">
        <ele>10.19999980926513671875</ele>
        <time>2018-09-02T15:52:22.000Z</time>
      </trkpt>
      <trkpt lat="43.29144953750073909759521484375" lon="-2.356713227927684783935546875">
        <ele>9.80000019073486328125</ele>
        <time>2018-09-02T15:52:23.000Z</time>
      </trkpt>
      <trkpt lat="43.29140528105199337005615234375" lon="-2.3567351885139942169189453125">
        <ele>9.6000003814697265625</ele>
        <time>2018-09-02T15:52:24.000Z</time>
      </trkpt>
      <trkpt lat="43.2913595996797084808349609375" lon="-2.3567573167383670806884765625">
        <ele>9.19999980926513671875</ele>
        <time>2018-09-02T15:52:25.000Z</time>
      </trkpt>
      <trkpt lat="43.29131341539323329925537109375" lon="-2.35677684657275676727294921875">
        <ele>9</ele>
        <time>2018-09-02T15:52:26.000Z</time>
      </trkpt>
      <trkpt lat="43.2912667281925678253173828125" lon="-2.3567952029407024383544921875">
        <ele>8.80000019073486328125</ele>
        <time>2018-09-02T15:52:27.000Z</time>
      </trkpt>
      <trkpt lat="43.29121987335383892059326171875" lon="-2.35681389458477497100830078125">
        <ele>8.3999996185302734375</ele>
        <time>2018-09-02T15:52:28.000Z</time>
      </trkpt>
      <trkpt lat="43.2911745272576808929443359375" lon="-2.3568327538669109344482421875">
        <ele>8.19999980926513671875</ele>
        <time>2018-09-02T15:52:29.000Z</time>
      </trkpt>
      <trkpt lat="43.29112867824733257293701171875" lon="-2.35685295425355434417724609375">
        <ele>8</ele>
        <time>2018-09-02T15:52:30.000Z</time>
      </trkpt>
      <trkpt lat="43.29108291305601596832275390625" lon="-2.3568766750395298004150390625">
        <ele>7.599999904632568359375</ele>
        <time>2018-09-02T15:52:31.000Z</time>
      </trkpt>
      <trkpt lat="43.2910363934934139251708984375" lon="-2.35689922235906124114990234375">
        <ele>7.400000095367431640625</ele>
        <time>2018-09-02T15:52:32.000Z</time>
      </trkpt>
      <trkpt lat="43.29099054448306560516357421875" lon="-2.35691942274570465087890625">
        <ele>7</ele>
        <time>2018-09-02T15:52:33.000Z</time>
      </trkpt>
      <trkpt lat="43.29094528220593929290771484375" lon="-2.3569388687610626220703125">
        <ele>6.80000019073486328125</ele>
        <time>2018-09-02T15:52:34.000Z</time>
      </trkpt>
      <trkpt lat="43.290898762643337249755859375" lon="-2.35695898532867431640625">
        <ele>6.80000019073486328125</ele>
        <time>2018-09-02T15:52:35.000Z</time>
      </trkpt>
      <trkpt lat="43.2908535003662109375" lon="-2.35697709023952484130859375">
        <ele>7</ele>
        <time>2018-09-02T15:52:36.000Z</time>
      </trkpt>
      <trkpt lat="43.29080991446971893310546875" lon="-2.3569896630942821502685546875">
        <ele>7</ele>
        <time>2018-09-02T15:52:37.000Z</time>
      </trkpt>
      <trkpt lat="43.29076699912548065185546875" lon="-2.35700533725321292877197265625">
        <ele>7</ele>
        <time>2018-09-02T15:52:38.000Z</time>
      </trkpt>
      <trkpt lat="43.2907260954380035400390625" lon="-2.35702075995504856109619140625">
        <ele>7</ele>
        <time>2018-09-02T15:52:39.000Z</time>
      </trkpt>
      <trkpt lat="43.29068728722631931304931640625" lon="-2.3570366017520427703857421875">
        <ele>7</ele>
        <time>2018-09-02T15:52:40.000Z</time>
      </trkpt>
      <trkpt lat="43.29065107740461826324462890625" lon="-2.3570503480732440948486328125">
        <ele>7.19999980926513671875</ele>
        <time>2018-09-02T15:52:41.000Z</time>
      </trkpt>
      <trkpt lat="43.29061570577323436737060546875" lon="-2.3570644296705722808837890625">
        <ele>7.19999980926513671875</ele>
        <time>2018-09-02T15:52:42.000Z</time>
      </trkpt>
      <trkpt lat="43.29058150760829448699951171875" lon="-2.3570756614208221435546875">
        <ele>7.19999980926513671875</ele>
        <time>2018-09-02T15:52:43.000Z</time>
      </trkpt>
      <trkpt lat="43.290548063814640045166015625" lon="-2.35708697699010372161865234375">
        <ele>7.19999980926513671875</ele>
        <time>2018-09-02T15:52:44.000Z</time>
      </trkpt>
      <trkpt lat="43.2905183918774127960205078125" lon="-2.35709334723651409149169921875">
        <ele>7.19999980926513671875</ele>
        <time>2018-09-02T15:52:45.000Z</time>
      </trkpt>
      <trkpt lat="43.2904855348169803619384765625" lon="-2.357106506824493408203125">
        <ele>7.599999904632568359375</ele>
        <time>2018-09-02T15:52:46.000Z</time>
      </trkpt>
      <trkpt lat="43.29045242629945278167724609375" lon="-2.35712050460278987884521484375">
        <ele>7.80000019073486328125</ele>
        <time>2018-09-02T15:52:47.000Z</time>
      </trkpt>
      <trkpt lat="43.29041839577257633209228515625" lon="-2.35713240690529346466064453125">
        <ele>8.19999980926513671875</ele>
        <time>2018-09-02T15:52:48.000Z</time>
      </trkpt>
      <trkpt lat="43.29038453288376331329345703125" lon="-2.357143722474575042724609375">
        <ele>8.6000003814697265625</ele>
        <time>2018-09-02T15:52:49.000Z</time>
      </trkpt>
      <trkpt lat="43.2903505861759185791015625" lon="-2.35715143382549285888671875">
        <ele>9</ele>
        <time>2018-09-02T15:52:50.000Z</time>
      </trkpt>
      <trkpt lat="43.29031663946807384490966796875" lon="-2.357155792415142059326171875">
        <ele>9.6000003814697265625</ele>
        <time>2018-09-02T15:52:51.000Z</time>
      </trkpt>
      <trkpt lat="43.2902820222079753875732421875" lon="-2.357159815728664398193359375">
        <ele>10</ele>
        <time>2018-09-02T15:52:52.000Z</time>
      </trkpt>
      <trkpt lat="43.2902468182146549224853515625" lon="-2.35716543160378932952880859375">
        <ele>10.6000003814697265625</ele>
        <time>2018-09-02T15:52:53.000Z</time>
      </trkpt>
      <trkpt lat="43.2902126200497150421142578125" lon="-2.35717414878308773040771484375">
        <ele>11</ele>
        <time>2018-09-02T15:52:54.000Z</time>
      </trkpt>
      <trkpt lat="43.29017850570380687713623046875" lon="-2.35718202777206897735595703125">
        <ele>11.6000003814697265625</ele>
        <time>2018-09-02T15:52:55.000Z</time>
      </trkpt>
      <trkpt lat="43.2901440560817718505859375" lon="-2.35718638636171817779541015625">
        <ele>12</ele>
        <time>2018-09-02T15:52:56.000Z</time>
      </trkpt>
      <trkpt lat="43.2901086844503879547119140625" lon="-2.357189320027828216552734375">
        <ele>12.6000003814697265625</ele>
        <time>2018-09-02T15:52:57.000Z</time>
      </trkpt>
      <trkpt lat="43.29007205553352832794189453125" lon="-2.35719175077974796295166015625">
        <ele>13</ele>
        <time>2018-09-02T15:52:58.000Z</time>
      </trkpt>
      <trkpt lat="43.2900340855121612548828125" lon="-2.3571935109794139862060546875">
        <ele>13.6000003814697265625</ele>
        <time>2018-09-02T15:52:59.000Z</time>
      </trkpt>
      <trkpt lat="43.28999410383403301239013671875" lon="-2.357196025550365447998046875">
        <ele>14.19999980926513671875</ele>
        <time>2018-09-02T15:53:00.000Z</time>
      </trkpt>
      <trkpt lat="43.2899531163275241851806640625" lon="-2.3572002165019512176513671875">
        <ele>14.80000019073486328125</ele>
        <time>2018-09-02T15:53:01.000Z</time>
      </trkpt>
      <trkpt lat="43.28991179354488849639892578125" lon="-2.35720532946288585662841796875">
        <ele>15.19999980926513671875</ele>
        <time>2018-09-02T15:53:02.000Z</time>
      </trkpt>
      <trkpt lat="43.28987005166709423065185546875" lon="-2.35721035860478878021240234375">
        <ele>15.80000019073486328125</ele>
        <time>2018-09-02T15:53:03.000Z</time>
      </trkpt>
      <trkpt lat="43.289827890694141387939453125" lon="-2.3572149686515331268310546875">
        <ele>16.3999996185302734375</ele>
        <time>2018-09-02T15:53:04.000Z</time>
      </trkpt>
      <trkpt lat="43.28978522680699825286865234375" lon="-2.35721907578408718109130859375">
        <ele>16.799999237060546875</ele>
        <time>2018-09-02T15:53:05.000Z</time>
      </trkpt>
      <trkpt lat="43.28974239528179168701171875" lon="-2.3572256974875926971435546875">
        <ele>17.3999996185302734375</ele>
        <time>2018-09-02T15:53:06.000Z</time>
      </trkpt>
      <trkpt lat="43.2897014915943145751953125" lon="-2.35722913406789302825927734375">
        <ele>18</ele>
        <time>2018-09-02T15:53:07.000Z</time>
      </trkpt>
      <trkpt lat="43.28966000117361545562744140625" lon="-2.3572320677340030670166015625">
        <ele>18.3999996185302734375</ele>
        <time>2018-09-02T15:53:08.000Z</time>
      </trkpt>
      <trkpt lat="43.2896178402006626129150390625" lon="-2.35723860561847686767578125">
        <ele>19</ele>
        <time>2018-09-02T15:53:09.000Z</time>
      </trkpt>
      <trkpt lat="43.2895749248564243316650390625" lon="-2.3572498373687267303466796875">
        <ele>19.3999996185302734375</ele>
        <time>2018-09-02T15:53:10.000Z</time>
      </trkpt>
      <trkpt lat="43.2895323447883129119873046875" lon="-2.35726215876638889312744140625">
        <ele>19.799999237060546875</ele>
        <time>2018-09-02T15:53:11.000Z</time>
      </trkpt>
      <trkpt lat="43.2894895970821380615234375" lon="-2.35727406106889247894287109375">
        <ele>20.200000762939453125</ele>
        <time>2018-09-02T15:53:12.000Z</time>
      </trkpt>
      <trkpt lat="43.2894471846520900726318359375" lon="-2.35729015432298183441162109375">
        <ele>20.799999237060546875</ele>
        <time>2018-09-02T15:53:13.000Z</time>
      </trkpt>
      <trkpt lat="43.28940452076494693756103515625" lon="-2.3573121987283229827880859375">
        <ele>21</ele>
        <time>2018-09-02T15:53:14.000Z</time>
      </trkpt>
      <trkpt lat="43.2893630303442478179931640625" lon="-2.357337176799774169921875">
        <ele>21.200000762939453125</ele>
        <time>2018-09-02T15:53:15.000Z</time>
      </trkpt>
      <trkpt lat="43.2893224619328975677490234375" lon="-2.35736592672765254974365234375">
        <ele>21.200000762939453125</ele>
        <time>2018-09-02T15:53:16.000Z</time>
      </trkpt>
      <trkpt lat="43.28928013332188129425048828125" lon="-2.35739610157907009124755859375">
        <ele>21.3999996185302734375</ele>
        <time>2018-09-02T15:53:17.000Z</time>
      </trkpt>
      <trkpt lat="43.28923688270151615142822265625" lon="-2.357428707182407379150390625">
        <ele>21.799999237060546875</ele>
        <time>2018-09-02T15:53:18.000Z</time>
      </trkpt>
      <trkpt lat="43.28919530846178531646728515625" lon="-2.357465587556362152099609375">
        <ele>21.799999237060546875</ele>
        <time>2018-09-02T15:53:19.000Z</time>
      </trkpt>
      <trkpt lat="43.28915507532656192779541015625" lon="-2.3575033061206340789794921875">
        <ele>22.200000762939453125</ele>
        <time>2018-09-02T15:53:20.000Z</time>
      </trkpt>
      <trkpt lat="43.28911702148616313934326171875" lon="-2.35754261724650859832763671875">
        <ele>22.3999996185302734375</ele>
        <time>2018-09-02T15:53:21.000Z</time>
      </trkpt>
      <trkpt lat="43.289080895483493804931640625" lon="-2.357586957514286041259765625">
        <ele>22.6000003814697265625</ele>
        <time>2018-09-02T15:53:22.000Z</time>
      </trkpt>
      <trkpt lat="43.28904493711888790130615234375" lon="-2.35763615928590297698974609375">
        <ele>22.3999996185302734375</ele>
        <time>2018-09-02T15:53:23.000Z</time>
      </trkpt>
      <trkpt lat="43.28901308588683605194091796875" lon="-2.3576877079904079437255859375">
        <ele>22.200000762939453125</ele>
        <time>2018-09-02T15:53:24.000Z</time>
      </trkpt>
      <trkpt lat="43.2889811508357524871826171875" lon="-2.35773749649524688720703125">
        <ele>22</ele>
        <time>2018-09-02T15:53:25.000Z</time>
      </trkpt>
      <trkpt lat="43.2889479584991931915283203125" lon="-2.3577864468097686767578125">
        <ele>22</ele>
        <time>2018-09-02T15:53:26.000Z</time>
      </trkpt>
      <trkpt lat="43.2889144308865070343017578125" lon="-2.35783539712429046630859375">
        <ele>21.799999237060546875</ele>
        <time>2018-09-02T15:53:27.000Z</time>
      </trkpt>
      <trkpt lat="43.2888795621693134307861328125" lon="-2.3578814975917339324951171875">
        <ele>21.799999237060546875</ele>
        <time>2018-09-02T15:53:28.000Z</time>
      </trkpt>
      <trkpt lat="43.2888467051088809967041015625" lon="-2.3579284362494945526123046875">
        <ele>21.799999237060546875</ele>
        <time>2018-09-02T15:53:29.000Z</time>
      </trkpt>
      <trkpt lat="43.28881393186748027801513671875" lon="-2.35797512345016002655029296875">
        <ele>21.799999237060546875</ele>
        <time>2018-09-02T15:53:30.000Z</time>
      </trkpt>
      <trkpt lat="43.28877948224544525146484375" lon="-2.358021475374698638916015625">
        <ele>22</ele>
        <time>2018-09-02T15:53:31.000Z</time>
      </trkpt>
      <trkpt lat="43.28874469734728336334228515625" lon="-2.3580695874989032745361328125">
        <ele>22</ele>
        <time>2018-09-02T15:53:32.000Z</time>
      </trkpt>
      <trkpt lat="43.288710750639438629150390625" lon="-2.35811728052794933319091796875">
        <ele>22</ele>
        <time>2018-09-02T15:53:33.000Z</time>
      </trkpt>
      <trkpt lat="43.2886767201125621795654296875" lon="-2.35816396772861480712890625">
        <ele>22.200000762939453125</ele>
        <time>2018-09-02T15:53:34.000Z</time>
      </trkpt>
      <trkpt lat="43.2886431924998760223388671875" lon="-2.3582107387483119964599609375">
        <ele>22.200000762939453125</ele>
        <time>2018-09-02T15:53:35.000Z</time>
      </trkpt>
      <trkpt lat="43.288610167801380157470703125" lon="-2.358258850872516632080078125">
        <ele>22.200000762939453125</ele>
        <time>2018-09-02T15:53:36.000Z</time>
      </trkpt>
      <trkpt lat="43.288577981293201446533203125" lon="-2.35830838792026042938232421875">
        <ele>22.200000762939453125</ele>
        <time>2018-09-02T15:53:37.000Z</time>
      </trkpt>
      <trkpt lat="43.2885479740798473358154296875" lon="-2.3583582602441310882568359375">
        <ele>22</ele>
        <time>2018-09-02T15:53:38.000Z</time>
      </trkpt>
      <trkpt lat="43.288516961038112640380859375" lon="-2.3584072105586528778076171875">
        <ele>22</ele>
        <time>2018-09-02T15:53:39.000Z</time>
      </trkpt>
      <trkpt lat="43.28848619945347309112548828125" lon="-2.358455993235111236572265625">
        <ele>21.799999237060546875</ele>
        <time>2018-09-02T15:53:40.000Z</time>
      </trkpt>
      <trkpt lat="43.28845770098268985748291015625" lon="-2.35850720666348934173583984375">
        <ele>21.799999237060546875</ele>
        <time>2018-09-02T15:53:41.000Z</time>
      </trkpt>
      <trkpt lat="43.28843037597835063934326171875" lon="-2.35856152139604091644287109375">
        <ele>22</ele>
        <time>2018-09-02T15:53:42.000Z</time>
      </trkpt>
      <trkpt lat="43.2884027995169162750244140625" lon="-2.35861734487116336822509765625">
        <ele>22.3999996185302734375</ele>
        <time>2018-09-02T15:53:43.000Z</time>
      </trkpt>
      <trkpt lat="43.28837580978870391845703125" lon="-2.358675263822078704833984375">
        <ele>22.6000003814697265625</ele>
        <time>2018-09-02T15:53:44.000Z</time>
      </trkpt>
      <trkpt lat="43.288350664079189300537109375" lon="-2.35873804427683353424072265625">
        <ele>22.6000003814697265625</ele>
        <time>2018-09-02T15:53:45.000Z</time>
      </trkpt>
      <trkpt lat="43.28832685947418212890625" lon="-2.35880543477833271026611328125">
        <ele>22.6000003814697265625</ele>
        <time>2018-09-02T15:53:46.000Z</time>
      </trkpt>
      <trkpt lat="43.288304395973682403564453125" lon="-2.35887500457465648651123046875">
        <ele>22.3999996185302734375</ele>
        <time>2018-09-02T15:53:47.000Z</time>
      </trkpt>
      <trkpt lat="43.28828268684446811676025390625" lon="-2.35894717276096343994140625">
        <ele>22</ele>
        <time>2018-09-02T15:53:48.000Z</time>
      </trkpt>
      <trkpt lat="43.28826240263879299163818359375" lon="-2.3590224422514438629150390625">
        <ele>21.6000003814697265625</ele>
        <time>2018-09-02T15:53:49.000Z</time>
      </trkpt>
      <trkpt lat="43.288243710994720458984375" lon="-2.359100393950939178466796875">
        <ele>21.200000762939453125</ele>
        <time>2018-09-02T15:53:50.000Z</time>
      </trkpt>
      <trkpt lat="43.288227282464504241943359375" lon="-2.359181530773639678955078125">
        <ele>20.3999996185302734375</ele>
        <time>2018-09-02T15:53:51.000Z</time>
      </trkpt>
      <trkpt lat="43.28821487724781036376953125" lon="-2.3592631705105304718017578125">
        <ele>19.3999996185302734375</ele>
        <time>2018-09-02T15:53:52.000Z</time>
      </trkpt>
      <trkpt lat="43.2882059924304485321044921875" lon="-2.3593473248183727264404296875">
        <ele>18.200000762939453125</ele>
        <time>2018-09-02T15:53:53.000Z</time>
      </trkpt>
      <trkpt lat="43.2881979458034038543701171875" lon="-2.359432987868785858154296875">
        <ele>17.200000762939453125</ele>
        <time>2018-09-02T15:53:54.000Z</time>
      </trkpt>
      <trkpt lat="43.28819149173796176910400390625" lon="-2.359520494937896728515625">
        <ele>17</ele>
        <time>2018-09-02T15:53:55.000Z</time>
      </trkpt>
      <trkpt lat="43.28818805515766143798828125" lon="-2.3596091754734516143798828125">
        <ele>16.799999237060546875</ele>
        <time>2018-09-02T15:53:56.000Z</time>
      </trkpt>
      <trkpt lat="43.28819065354764461517333984375" lon="-2.35969710163772106170654296875">
        <ele>16.200000762939453125</ele>
        <time>2018-09-02T15:53:57.000Z</time>
      </trkpt>
      <trkpt lat="43.2881982810795307159423828125" lon="-2.359784357249736785888671875">
        <ele>15.6000003814697265625</ele>
        <time>2018-09-02T15:53:58.000Z</time>
      </trkpt>
      <trkpt lat="43.28820674680173397064208984375" lon="-2.3598716966807842254638671875">
        <ele>14.80000019073486328125</ele>
        <time>2018-09-02T15:53:59.000Z</time>
      </trkpt>
      <trkpt lat="43.28821546398103237152099609375" lon="-2.3599590361118316650390625">
        <ele>14.19999980926513671875</ele>
        <time>2018-09-02T15:54:00.000Z</time>
      </trkpt>
      <trkpt lat="43.288227617740631103515625" lon="-2.36004553735256195068359375">
        <ele>12.3999996185302734375</ele>
        <time>2018-09-02T15:54:01.000Z</time>
      </trkpt>
      <trkpt lat="43.28824312426149845123291015625" lon="-2.36013027839362621307373046875">
        <ele>10.19999980926513671875</ele>
        <time>2018-09-02T15:54:02.000Z</time>
      </trkpt>
      <trkpt lat="43.28826139681041240692138671875" lon="-2.3602136783301830291748046875">
        <ele>8.6000003814697265625</ele>
        <time>2018-09-02T15:54:03.000Z</time>
      </trkpt>
      <trkpt lat="43.28828235156834125518798828125" lon="-2.3602964915335178375244140625">
        <ele>8.3999996185302734375</ele>
        <time>2018-09-02T15:54:04.000Z</time>
      </trkpt>
      <trkpt lat="43.288306407630443572998046875" lon="-2.36037938855588436126708984375">
        <ele>8</ele>
        <time>2018-09-02T15:54:05.000Z</time>
      </trkpt>
      <trkpt lat="43.28833155333995819091796875" lon="-2.3604624532163143157958984375">
        <ele>7.80000019073486328125</ele>
        <time>2018-09-02T15:54:06.000Z</time>
      </trkpt>
      <trkpt lat="43.2883572019636631011962890625" lon="-2.36054535023868083953857421875">
        <ele>7.400000095367431640625</ele>
        <time>2018-09-02T15:54:07.000Z</time>
      </trkpt>
      <trkpt lat="43.28838511370122432708740234375" lon="-2.36062883399426937103271484375">
        <ele>7</ele>
        <time>2018-09-02T15:54:08.000Z</time>
      </trkpt>
      <trkpt lat="43.28841361217200756072998046875" lon="-2.36071181483566761016845703125">
        <ele>6.599999904632568359375</ele>
        <time>2018-09-02T15:54:09.000Z</time>
      </trkpt>
      <trkpt lat="43.28844177536666393280029296875" lon="-2.360794879496097564697265625">
        <ele>6.400000095367431640625</ele>
        <time>2018-09-02T15:54:10.000Z</time>
      </trkpt>
      <trkpt lat="43.28846968710422515869140625" lon="-2.36087836325168609619140625">
        <ele>6.599999904632568359375</ele>
        <time>2018-09-02T15:54:11.000Z</time>
      </trkpt>
      <trkpt lat="43.28849776647984981536865234375" lon="-2.3609616793692111968994140625">
        <ele>7</ele>
        <time>2018-09-02T15:54:12.000Z</time>
      </trkpt>
      <trkpt lat="43.28852760605514049530029296875" lon="-2.36104357056319713592529296875">
        <ele>7.400000095367431640625</ele>
        <time>2018-09-02T15:54:13.000Z</time>
      </trkpt>
      <trkpt lat="43.28855945728719234466552734375" lon="-2.3611252941191196441650390625">
        <ele>7.80000019073486328125</ele>
        <time>2018-09-02T15:54:14.000Z</time>
      </trkpt>
      <trkpt lat="43.28859248198568820953369140625" lon="-2.36120559275150299072265625">
        <ele>8.19999980926513671875</ele>
        <time>2018-09-02T15:54:15.000Z</time>
      </trkpt>
      <trkpt lat="43.2886277697980403900146484375" lon="-2.36128496937453746795654296875">
        <ele>8.6000003814697265625</ele>
        <time>2018-09-02T15:54:16.000Z</time>
      </trkpt>
      <trkpt lat="43.28866548836231231689453125" lon="-2.361362837255001068115234375">
        <ele>9</ele>
        <time>2018-09-02T15:54:17.000Z</time>
      </trkpt>
      <trkpt lat="43.28870463185012340545654296875" lon="-2.36143852584064006805419921875">
        <ele>9.19999980926513671875</ele>
        <time>2018-09-02T15:54:18.000Z</time>
      </trkpt>
      <trkpt lat="43.28874385915696620941162109375" lon="-2.36151228658854961395263671875">
        <ele>9</ele>
        <time>2018-09-02T15:54:19.000Z</time>
      </trkpt>
      <trkpt lat="43.28878459520637989044189453125" lon="-2.36158168874680995941162109375">
        <ele>8.80000019073486328125</ele>
        <time>2018-09-02T15:54:20.000Z</time>
      </trkpt>
      <trkpt lat="43.28882566653192043304443359375" lon="-2.36164824105799198150634765625">
        <ele>8.80000019073486328125</ele>
        <time>2018-09-02T15:54:21.000Z</time>
      </trkpt>
      <trkpt lat="43.288866318762302398681640625" lon="-2.36171177588403224945068359375">
        <ele>10</ele>
        <time>2018-09-02T15:54:22.000Z</time>
      </trkpt>
      <trkpt lat="43.28890621662139892578125" lon="-2.36177262850105762481689453125">
        <ele>11</ele>
        <time>2018-09-02T15:54:23.000Z</time>
      </trkpt>
      <trkpt lat="43.28894586302340030670166015625" lon="-2.36182979308068752288818359375">
        <ele>12</ele>
        <time>2018-09-02T15:54:24.000Z</time>
      </trkpt>
      <trkpt lat="43.28898525796830654144287109375" lon="-2.36188410781323909759521484375">
        <ele>12.80000019073486328125</ele>
        <time>2018-09-02T15:54:25.000Z</time>
      </trkpt>
      <trkpt lat="43.289024569094181060791015625" lon="-2.361934818327426910400390625">
        <ele>13.3999996185302734375</ele>
        <time>2018-09-02T15:54:26.000Z</time>
      </trkpt>
      <trkpt lat="43.28906337730586528778076171875" lon="-2.3619829304516315460205078125">
        <ele>13</ele>
        <time>2018-09-02T15:54:27.000Z</time>
      </trkpt>
      <trkpt lat="43.28910159878432750701904296875" lon="-2.3620283603668212890625">
        <ele>12.6000003814697265625</ele>
        <time>2018-09-02T15:54:28.000Z</time>
      </trkpt>
      <trkpt lat="43.28914023935794830322265625" lon="-2.36207052133977413177490234375">
        <ele>12.19999980926513671875</ele>
        <time>2018-09-02T15:54:29.000Z</time>
      </trkpt>
      <trkpt lat="43.2891782931983470916748046875" lon="-2.36211075447499752044677734375">
        <ele>11.6000003814697265625</ele>
        <time>2018-09-02T15:54:30.000Z</time>
      </trkpt>
      <trkpt lat="43.28921626321971416473388671875" lon="-2.3621495626866817474365234375">
        <ele>11.19999980926513671875</ele>
        <time>2018-09-02T15:54:31.000Z</time>
      </trkpt>
      <trkpt lat="43.28925582580268383026123046875" lon="-2.36218702979385852813720703125">
        <ele>10.6000003814697265625</ele>
        <time>2018-09-02T15:54:32.000Z</time>
      </trkpt>
      <trkpt lat="43.28929522074759006500244140625" lon="-2.36222323961555957794189453125">
        <ele>10</ele>
        <time>2018-09-02T15:54:33.000Z</time>
      </trkpt>
      <trkpt lat="43.289335034787654876708984375" lon="-2.36225844360888004302978515625">
        <ele>10.3999996185302734375</ele>
        <time>2018-09-02T15:54:34.000Z</time>
      </trkpt>
      <trkpt lat="43.28937384299933910369873046875" lon="-2.362293899059295654296875">
        <ele>10.80000019073486328125</ele>
        <time>2018-09-02T15:54:35.000Z</time>
      </trkpt>
      <trkpt lat="43.28941206447780132293701171875" lon="-2.36233002506196498870849609375">
        <ele>11.19999980926513671875</ele>
        <time>2018-09-02T15:54:36.000Z</time>
      </trkpt>
      <trkpt lat="43.28944978304207324981689453125" lon="-2.3623668216168880462646484375">
        <ele>11.19999980926513671875</ele>
        <time>2018-09-02T15:54:37.000Z</time>
      </trkpt>
      <trkpt lat="43.28948758542537689208984375" lon="-2.3624037019908428192138671875">
        <ele>10.80000019073486328125</ele>
        <time>2018-09-02T15:54:38.000Z</time>
      </trkpt>
      <trkpt lat="43.2895253039896488189697265625" lon="-2.36243932507932186126708984375">
        <ele>10.6000003814697265625</ele>
        <time>2018-09-02T15:54:39.000Z</time>
      </trkpt>
      <trkpt lat="43.28956377692520618438720703125" lon="-2.36247318796813488006591796875">
        <ele>10.19999980926513671875</ele>
        <time>2018-09-02T15:54:40.000Z</time>
      </trkpt>
      <trkpt lat="43.2896017469465732574462890625" lon="-2.36250705085694789886474609375">
        <ele>10.3999996185302734375</ele>
        <time>2018-09-02T15:54:41.000Z</time>
      </trkpt>
      <trkpt lat="43.2896392978727817535400390625" lon="-2.362540997564792633056640625">
        <ele>10.80000019073486328125</ele>
        <time>2018-09-02T15:54:42.000Z</time>
      </trkpt>
      <trkpt lat="43.2896768487989902496337890625" lon="-2.3625746928155422210693359375">
        <ele>11.19999980926513671875</ele>
        <time>2018-09-02T15:54:43.000Z</time>
      </trkpt>
      <trkpt lat="43.28971431590616703033447265625" lon="-2.362609393894672393798828125">
        <ele>11.6000003814697265625</ele>
        <time>2018-09-02T15:54:44.000Z</time>
      </trkpt>
      <trkpt lat="43.2897506095468997955322265625" lon="-2.362645603716373443603515625">
        <ele>12</ele>
        <time>2018-09-02T15:54:45.000Z</time>
      </trkpt>
      <trkpt lat="43.28978799283504486083984375" lon="-2.36268105916678905487060546875">
        <ele>12.3999996185302734375</ele>
        <time>2018-09-02T15:54:46.000Z</time>
      </trkpt>
      <trkpt lat="43.2898260466754436492919921875" lon="-2.36271492205560207366943359375">
        <ele>12.80000019073486328125</ele>
        <time>2018-09-02T15:54:47.000Z</time>
      </trkpt>
      <trkpt lat="43.28986317850649356842041015625" lon="-2.3627493716776371002197265625">
        <ele>13</ele>
        <time>2018-09-02T15:54:48.000Z</time>
      </trkpt>
      <trkpt lat="43.28989955596625804901123046875" lon="-2.36278499476611614227294921875">
        <ele>12.80000019073486328125</ele>
        <time>2018-09-02T15:54:49.000Z</time>
      </trkpt>
      <trkpt lat="43.2899360172450542449951171875" lon="-2.3628207854926586151123046875">
        <ele>12.6000003814697265625</ele>
        <time>2018-09-02T15:54:50.000Z</time>
      </trkpt>
      <trkpt lat="43.2899732328951358795166015625" lon="-2.36285557039082050323486328125">
        <ele>12.19999980926513671875</ele>
        <time>2018-09-02T15:54:51.000Z</time>
      </trkpt>
      <trkpt lat="43.29001061618328094482421875" lon="-2.36289002001285552978515625">
        <ele>12</ele>
        <time>2018-09-02T15:54:52.000Z</time>
      </trkpt>
      <trkpt lat="43.29004707746207714080810546875" lon="-2.3629257269203662872314453125">
        <ele>11.6000003814697265625</ele>
        <time>2018-09-02T15:54:53.000Z</time>
      </trkpt>
      <trkpt lat="43.2900825329124927520751953125" lon="-2.36296336166560649871826171875">
        <ele>11.3999996185302734375</ele>
        <time>2018-09-02T15:54:54.000Z</time>
      </trkpt>
      <trkpt lat="43.29011748544871807098388671875" lon="-2.36300133168697357177734375">
        <ele>11.19999980926513671875</ele>
        <time>2018-09-02T15:54:55.000Z</time>
      </trkpt>
      <trkpt lat="43.290151096880435943603515625" lon="-2.3630407266318798065185546875">
        <ele>11.3999996185302734375</ele>
        <time>2018-09-02T15:54:56.000Z</time>
      </trkpt>
      <trkpt lat="43.29018294811248779296875" lon="-2.36308204941451549530029296875">
        <ele>12</ele>
        <time>2018-09-02T15:54:57.000Z</time>
      </trkpt>
      <trkpt lat="43.29021354205906391143798828125" lon="-2.36312462948262691497802734375">
        <ele>12.6000003814697265625</ele>
        <time>2018-09-02T15:54:58.000Z</time>
      </trkpt>
      <trkpt lat="43.29024438746273517608642578125" lon="-2.3631671257317066192626953125">
        <ele>13.19999980926513671875</ele>
        <time>2018-09-02T15:54:59.000Z</time>
      </trkpt>
      <trkpt lat="43.29027481377124786376953125" lon="-2.36320978961884975433349609375">
        <ele>13.3999996185302734375</ele>
        <time>2018-09-02T15:55:00.000Z</time>
      </trkpt>
      <trkpt lat="43.29030524007976055145263671875" lon="-2.36325102858245372772216796875">
        <ele>13.3999996185302734375</ele>
        <time>2018-09-02T15:55:01.000Z</time>
      </trkpt>
      <trkpt lat="43.2903363369405269622802734375" lon="-2.3632901720702648162841796875">
        <ele>13.3999996185302734375</ele>
        <time>2018-09-02T15:55:02.000Z</time>
      </trkpt>
      <trkpt lat="43.2903671823441982269287109375" lon="-2.36332629807293415069580078125">
        <ele>13.6000003814697265625</ele>
        <time>2018-09-02T15:55:03.000Z</time>
      </trkpt>
      <trkpt lat="43.29039811156690120697021484375" lon="-2.3633587360382080078125">
        <ele>13.80000019073486328125</ele>
        <time>2018-09-02T15:55:04.000Z</time>
      </trkpt>
      <trkpt lat="43.29042904078960418701171875" lon="-2.36338891088962554931640625">
        <ele>14</ele>
        <time>2018-09-02T15:55:05.000Z</time>
      </trkpt>
      <trkpt lat="43.2904600538313388824462890625" lon="-2.3634162358939647674560546875">
        <ele>14.19999980926513671875</ele>
        <time>2018-09-02T15:55:06.000Z</time>
      </trkpt>
      <trkpt lat="43.2904908992350101470947265625" lon="-2.3634407110512256622314453125">
        <ele>14.3999996185302734375</ele>
        <time>2018-09-02T15:55:07.000Z</time>
      </trkpt>
      <trkpt lat="43.290521912276744842529296875" lon="-2.3634625039994716644287109375">
        <ele>14.6000003814697265625</ele>
        <time>2018-09-02T15:55:08.000Z</time>
      </trkpt>
      <trkpt lat="43.29055200330913066864013671875" lon="-2.363481782376766204833984375">
        <ele>14.6000003814697265625</ele>
        <time>2018-09-02T15:55:09.000Z</time>
      </trkpt>
      <trkpt lat="43.290580250322818756103515625" lon="-2.36349812708795070648193359375">
        <ele>14.80000019073486328125</ele>
        <time>2018-09-02T15:55:10.000Z</time>
      </trkpt>
      <trkpt lat="43.2906075753271579742431640625" lon="-2.36351220868527889251708984375">
        <ele>14.80000019073486328125</ele>
        <time>2018-09-02T15:55:11.000Z</time>
      </trkpt>
      <trkpt lat="43.2906349003314971923828125" lon="-2.36351958476006984710693359375">
        <ele>14.6000003814697265625</ele>
        <time>2018-09-02T15:55:12.000Z</time>
      </trkpt>
      <trkpt lat="43.290659375488758087158203125" lon="-2.3635181598365306854248046875">
        <ele>14.3999996185302734375</ele>
        <time>2018-09-02T15:55:13.000Z</time>
      </trkpt>
      <trkpt lat="43.2906786538660526275634765625" lon="-2.36351187340915203094482421875">
        <ele>14.19999980926513671875</ele>
        <time>2018-09-02T15:55:14.000Z</time>
      </trkpt>
      <trkpt lat="43.29069382511079311370849609375" lon="-2.3635060898959636688232421875">
        <ele>14</ele>
        <time>2018-09-02T15:55:15.000Z</time>
      </trkpt>
      <trkpt lat="43.29070690087974071502685546875" lon="-2.3635020665824413299560546875">
        <ele>13.80000019073486328125</ele>
        <time>2018-09-02T15:55:16.000Z</time>
      </trkpt>
      <trkpt lat="43.29071913845837116241455078125" lon="-2.363497205078601837158203125">
        <ele>13.6000003814697265625</ele>
        <time>2018-09-02T15:55:17.000Z</time>
      </trkpt>
      <trkpt lat="43.2907336391508579254150390625" lon="-2.36349209211766719818115234375">
        <ele>13.6000003814697265625</ele>
        <time>2018-09-02T15:55:18.000Z</time>
      </trkpt>
      <trkpt lat="43.29075216315686702728271484375" lon="-2.363487146794795989990234375">
        <ele>13.19999980926513671875</ele>
        <time>2018-09-02T15:55:19.000Z</time>
      </trkpt>
      <trkpt lat="43.29077227972447872161865234375" lon="-2.363479770720005035400390625">
        <ele>13</ele>
        <time>2018-09-02T15:55:20.000Z</time>
      </trkpt>
      <trkpt lat="43.29079256393015384674072265625" lon="-2.36346677877008914947509765625">
        <ele>12.6000003814697265625</ele>
        <time>2018-09-02T15:55:21.000Z</time>
      </trkpt>
      <trkpt lat="43.2908144406974315643310546875" lon="-2.36344783566892147064208984375">
        <ele>12.19999980926513671875</ele>
        <time>2018-09-02T15:55:22.000Z</time>
      </trkpt>
      <trkpt lat="43.29083799384534358978271484375" lon="-2.36342453397810459136962890625">
        <ele>11.80000019073486328125</ele>
        <time>2018-09-02T15:55:23.000Z</time>
      </trkpt>
      <trkpt lat="43.29086213372647762298583984375" lon="-2.36339737661182880401611328125">
        <ele>11.19999980926513671875</ele>
        <time>2018-09-02T15:55:24.000Z</time>
      </trkpt>
      <trkpt lat="43.29088560305535793304443359375" lon="-2.36336837522685527801513671875">
        <ele>10.3999996185302734375</ele>
        <time>2018-09-02T15:55:25.000Z</time>
      </trkpt>
      <trkpt lat="43.29090991057455539703369140625" lon="-2.3633397929370403289794921875">
        <ele>9.80000019073486328125</ele>
        <time>2018-09-02T15:55:26.000Z</time>
      </trkpt>
      <trkpt lat="43.290935643017292022705078125" lon="-2.36331221647560596466064453125">
        <ele>9.19999980926513671875</ele>
        <time>2018-09-02T15:55:27.000Z</time>
      </trkpt>
      <trkpt lat="43.290961124002933502197265625" lon="-2.36328053288161754608154296875">
        <ele>8.80000019073486328125</ele>
        <time>2018-09-02T15:55:28.000Z</time>
      </trkpt>
      <trkpt lat="43.29098149202764034271240234375" lon="-2.363241054117679595947265625">
        <ele>8.6000003814697265625</ele>
        <time>2018-09-02T15:55:29.000Z</time>
      </trkpt>
      <trkpt lat="43.290997333824634552001953125" lon="-2.36319445073604583740234375">
        <ele>8.19999980926513671875</ele>
        <time>2018-09-02T15:55:30.000Z</time>
      </trkpt>
      <trkpt lat="43.29100965522229671478271484375" lon="-2.363144494593143463134765625">
        <ele>7.80000019073486328125</ele>
        <time>2018-09-02T15:55:31.000Z</time>
      </trkpt>
      <trkpt lat="43.29101904295384883880615234375" lon="-2.36309194006025791168212890625">
        <ele>7.400000095367431640625</ele>
        <time>2018-09-02T15:55:32.000Z</time>
      </trkpt>
      <trkpt lat="43.29102692194283008575439453125" lon="-2.36303628422319889068603515625">
        <ele>7.19999980926513671875</ele>
        <time>2018-09-02T15:55:33.000Z</time>
      </trkpt>
      <trkpt lat="43.291034884750843048095703125" lon="-2.362980209290981292724609375">
        <ele>6.80000019073486328125</ele>
        <time>2018-09-02T15:55:34.000Z</time>
      </trkpt>
      <trkpt lat="43.29104452393949031829833984375" lon="-2.3629240505397319793701171875">
        <ele>6.400000095367431640625</ele>
        <time>2018-09-02T15:55:35.000Z</time>
      </trkpt>
      <trkpt lat="43.2910533249378204345703125" lon="-2.36286931671202182769775390625">
        <ele>6</ele>
        <time>2018-09-02T15:55:36.000Z</time>
      </trkpt>
      <trkpt lat="43.29106061719357967376708984375" lon="-2.36281315796077251434326171875">
        <ele>5.599999904632568359375</ele>
        <time>2018-09-02T15:55:37.000Z</time>
      </trkpt>
      <trkpt lat="43.2910685800015926361083984375" lon="-2.36275850795209407806396484375">
        <ele>5.400000095367431640625</ele>
        <time>2018-09-02T15:55:38.000Z</time>
      </trkpt>
      <trkpt lat="43.29107788391411304473876953125" lon="-2.36270385794341564178466796875">
        <ele>5</ele>
        <time>2018-09-02T15:55:39.000Z</time>
      </trkpt>
      <trkpt lat="43.2910880260169506072998046875" lon="-2.36264870502054691314697265625">
        <ele>4.599999904632568359375</ele>
        <time>2018-09-02T15:55:40.000Z</time>
      </trkpt>
      <trkpt lat="43.29109900631010532379150390625" lon="-2.36259170807898044586181640625">
        <ele>4.19999980926513671875</ele>
        <time>2018-09-02T15:55:41.000Z</time>
      </trkpt>
      <trkpt lat="43.29111107625067234039306640625" lon="-2.36253404058516025543212890625">
        <ele>3.7999999523162841796875</ele>
        <time>2018-09-02T15:55:42.000Z</time>
      </trkpt>
      <trkpt lat="43.29112364910542964935302734375" lon="-2.36247536726295948028564453125">
        <ele>3.400000095367431640625</ele>
        <time>2018-09-02T15:55:43.000Z</time>
      </trkpt>
      <trkpt lat="43.29113622196018695831298828125" lon="-2.3624154366552829742431640625">
        <ele>3.400000095367431640625</ele>
        <time>2018-09-02T15:55:44.000Z</time>
      </trkpt>
      <trkpt lat="43.291148878633975982666015625" lon="-2.36235433258116245269775390625">
        <ele>3.400000095367431640625</ele>
        <time>2018-09-02T15:55:45.000Z</time>
      </trkpt>
      <trkpt lat="43.29116254113614559173583984375" lon="-2.36229213885962963104248046875">
        <ele>3.2000000476837158203125</ele>
        <time>2018-09-02T15:55:46.000Z</time>
      </trkpt>
      <trkpt lat="43.2911772094666957855224609375" lon="-2.3622281849384307861328125">
        <ele>3.2000000476837158203125</ele>
        <time>2018-09-02T15:55:47.000Z</time>
      </trkpt>
      <trkpt lat="43.29119221307337284088134765625" lon="-2.36216339282691478729248046875">
        <ele>3</ele>
        <time>2018-09-02T15:55:48.000Z</time>
      </trkpt>
      <trkpt lat="43.2912080548703670501708984375" lon="-2.36209876835346221923828125">
        <ele>3</ele>
        <time>2018-09-02T15:55:49.000Z</time>
      </trkpt>
      <trkpt lat="43.29122431576251983642578125" lon="-2.362034060060977935791015625">
        <ele>2.7999999523162841796875</ele>
        <time>2018-09-02T15:55:50.000Z</time>
      </trkpt>
      <trkpt lat="43.29124166630208492279052734375" lon="-2.36196977086365222930908203125">
        <ele>2.7999999523162841796875</ele>
        <time>2018-09-02T15:55:51.000Z</time>
      </trkpt>
      <trkpt lat="43.29125926829874515533447265625" lon="-2.3619058169424533843994140625">
        <ele>2.599999904632568359375</ele>
        <time>2018-09-02T15:55:52.000Z</time>
      </trkpt>
      <trkpt lat="43.2912764512002468109130859375" lon="-2.3618424497544765472412109375">
        <ele>2.400000095367431640625</ele>
        <time>2018-09-02T15:55:53.000Z</time>
      </trkpt>
      <trkpt lat="43.29129296354949474334716796875" lon="-2.361777238547801971435546875">
        <ele>2.400000095367431640625</ele>
        <time>2018-09-02T15:55:54.000Z</time>
      </trkpt>
      <trkpt lat="43.29130922444164752960205078125" lon="-2.36171227879822254180908203125">
        <ele>2.2000000476837158203125</ele>
        <time>2018-09-02T15:55:55.000Z</time>
      </trkpt>
      <trkpt lat="43.29132582060992717742919921875" lon="-2.3616473190486431121826171875">
        <ele>2.2000000476837158203125</ele>
        <time>2018-09-02T15:55:56.000Z</time>
      </trkpt>
      <trkpt lat="43.29134258441627025604248046875" lon="-2.3615822754800319671630859375">
        <ele>3.400000095367431640625</ele>
        <time>2018-09-02T15:55:57.000Z</time>
      </trkpt>
      <trkpt lat="43.2913602702319622039794921875" lon="-2.3615168966352939605712890625">
        <ele>5</ele>
        <time>2018-09-02T15:55:58.000Z</time>
      </trkpt>
      <trkpt lat="43.29137854278087615966796875" lon="-2.36145093105733394622802734375">
        <ele>6.400000095367431640625</ele>
        <time>2018-09-02T15:55:59.000Z</time>
      </trkpt>
      <trkpt lat="43.29139589332044124603271484375" lon="-2.36138437874615192413330078125">
        <ele>7.80000019073486328125</ele>
        <time>2018-09-02T15:56:00.000Z</time>
      </trkpt>
      <trkpt lat="43.291413076221942901611328125" lon="-2.3613190837204456329345703125">
        <ele>9.3999996185302734375</ele>
        <time>2018-09-02T15:56:01.000Z</time>
      </trkpt>
      <trkpt lat="43.29143059439957141876220703125" lon="-2.36125512979924678802490234375">
        <ele>10.80000019073486328125</ele>
        <time>2018-09-02T15:56:02.000Z</time>
      </trkpt>
      <trkpt lat="43.29144828021526336669921875" lon="-2.36119209788739681243896484375">
        <ele>12.19999980926513671875</ele>
        <time>2018-09-02T15:56:03.000Z</time>
      </trkpt>
      <trkpt lat="43.29146579839289188385009765625" lon="-2.36113057471811771392822265625">
        <ele>13.3999996185302734375</ele>
        <time>2018-09-02T15:56:04.000Z</time>
      </trkpt>
      <trkpt lat="43.2914826460182666778564453125" lon="-2.3610694706439971923828125">
        <ele>14.3999996185302734375</ele>
        <time>2018-09-02T15:56:05.000Z</time>
      </trkpt>
      <trkpt lat="43.2914987392723560333251953125" lon="-2.36101155169308185577392578125">
        <ele>15.6000003814697265625</ele>
        <time>2018-09-02T15:56:06.000Z</time>
      </trkpt>
      <trkpt lat="43.29151323996484279632568359375" lon="-2.36095589585602283477783203125">
        <ele>16.6000003814697265625</ele>
        <time>2018-09-02T15:56:07.000Z</time>
      </trkpt>
      <trkpt lat="43.2915280759334564208984375" lon="-2.3609030060470104217529296875">
        <ele>17.3999996185302734375</ele>
        <time>2018-09-02T15:56:08.000Z</time>
      </trkpt>
      <trkpt lat="43.2915426604449748992919921875" lon="-2.360856235027313232421875">
        <ele>18.200000762939453125</ele>
        <time>2018-09-02T15:56:09.000Z</time>
      </trkpt>
      <trkpt lat="43.29155196435749530792236328125" lon="-2.36081692390143871307373046875">
        <ele>19</ele>
        <time>2018-09-02T15:56:10.000Z</time>
      </trkpt>
      <trkpt lat="43.29154676757752895355224609375" lon="-2.36078708432614803314208984375">
        <ele>19.6000003814697265625</ele>
        <time>2018-09-02T15:56:11.000Z</time>
      </trkpt>
      <trkpt lat="43.2915269024670124053955078125" lon="-2.36077032051980495452880859375">
        <ele>20</ele>
        <time>2018-09-02T15:56:12.000Z</time>
      </trkpt>
      <trkpt lat="43.2915007509291172027587890625" lon="-2.36076512373983860015869140625">
        <ele>20</ele>
        <time>2018-09-02T15:56:13.000Z</time>
      </trkpt>
      <trkpt lat="43.29147283919155597686767578125" lon="-2.3607655428349971771240234375">
        <ele>20</ele>
        <time>2018-09-02T15:56:14.000Z</time>
      </trkpt>
      <trkpt lat="43.29144266434013843536376953125" lon="-2.36076302826404571533203125">
        <ele>19.799999237060546875</ele>
        <time>2018-09-02T15:56:15.000Z</time>
      </trkpt>
      <trkpt lat="43.2914112322032451629638671875" lon="-2.3607605136930942535400390625">
        <ele>19.799999237060546875</ele>
        <time>2018-09-02T15:56:16.000Z</time>
      </trkpt>
      <trkpt lat="43.291378878057003021240234375" lon="-2.3607598431408405303955078125">
        <ele>19.799999237060546875</ele>
        <time>2018-09-02T15:56:17.000Z</time>
      </trkpt>
      <trkpt lat="43.29134342260658740997314453125" lon="-2.36075975932180881500244140625">
        <ele>19.6000003814697265625</ele>
        <time>2018-09-02T15:56:18.000Z</time>
      </trkpt>
      <trkpt lat="43.2913066260516643524169921875" lon="-2.3607631959021091461181640625">
        <ele>19.3999996185302734375</ele>
        <time>2018-09-02T15:56:19.000Z</time>
      </trkpt>
      <trkpt lat="43.291269578039646148681640625" lon="-2.3607688955962657928466796875">
        <ele>19.200000762939453125</ele>
        <time>2018-09-02T15:56:20.000Z</time>
      </trkpt>
      <trkpt lat="43.2912338711321353912353515625" lon="-2.36077467910945415496826171875">
        <ele>18.799999237060546875</ele>
        <time>2018-09-02T15:56:21.000Z</time>
      </trkpt>
      <trkpt lat="43.29119573347270488739013671875" lon="-2.36078473739326000213623046875">
        <ele>18.3999996185302734375</ele>
        <time>2018-09-02T15:56:22.000Z</time>
      </trkpt>
      <trkpt lat="43.29116170294582843780517578125" lon="-2.3607994057238101959228515625">
        <ele>18</ele>
        <time>2018-09-02T15:56:23.000Z</time>
      </trkpt>
      <trkpt lat="43.29113337211310863494873046875" lon="-2.36081742681562900543212890625">
        <ele>17.3999996185302734375</ele>
        <time>2018-09-02T15:56:24.000Z</time>
      </trkpt>
      <trkpt lat="43.29110763967037200927734375" lon="-2.360829412937164306640625">
        <ele>17.200000762939453125</ele>
        <time>2018-09-02T15:56:25.000Z</time>
      </trkpt>
      <trkpt lat="43.29108308069407939910888671875" lon="-2.360834442079067230224609375">
        <ele>17</ele>
        <time>2018-09-02T15:56:26.000Z</time>
      </trkpt>
      <trkpt lat="43.2910598628222942352294921875" lon="-2.3608319275081157684326171875">
        <ele>17</ele>
        <time>2018-09-02T15:56:27.000Z</time>
      </trkpt>
      <trkpt lat="43.291037566959857940673828125" lon="-2.3608309216797351837158203125">
        <ele>17</ele>
        <time>2018-09-02T15:56:28.000Z</time>
      </trkpt>
      <trkpt lat="43.29101552255451679229736328125" lon="-2.360838465392589569091796875">
        <ele>16.6000003814697265625</ele>
        <time>2018-09-02T15:56:29.000Z</time>
      </trkpt>
      <trkpt lat="43.29099473543465137481689453125" lon="-2.36084676347672939300537109375">
        <ele>16.3999996185302734375</ele>
        <time>2018-09-02T15:56:30.000Z</time>
      </trkpt>
      <trkpt lat="43.2909740321338176727294921875" lon="-2.36085279844701290130615234375">
        <ele>16.3999996185302734375</ele>
        <time>2018-09-02T15:56:31.000Z</time>
      </trkpt>
      <trkpt lat="43.290952742099761962890625" lon="-2.3608567379415035247802734375">
        <ele>16.200000762939453125</ele>
        <time>2018-09-02T15:56:32.000Z</time>
      </trkpt>
      <trkpt lat="43.290930278599262237548828125" lon="-2.360861599445343017578125">
        <ele>16.200000762939453125</ele>
        <time>2018-09-02T15:56:33.000Z</time>
      </trkpt>
      <trkpt lat="43.290907479822635650634765625" lon="-2.3608664609491825103759765625">
        <ele>16</ele>
        <time>2018-09-02T15:56:34.000Z</time>
      </trkpt>
      <trkpt lat="43.290885351598262786865234375" lon="-2.36086688004434108734130859375">
        <ele>15.80000019073486328125</ele>
        <time>2018-09-02T15:56:35.000Z</time>
      </trkpt>
      <trkpt lat="43.29086414538323879241943359375" lon="-2.3608681373298168182373046875">
        <ele>15.3999996185302734375</ele>
        <time>2018-09-02T15:56:36.000Z</time>
      </trkpt>
      <trkpt lat="43.2908412627875804901123046875" lon="-2.36087358556687831878662109375">
        <ele>15.19999980926513671875</ele>
        <time>2018-09-02T15:56:37.000Z</time>
      </trkpt>
      <trkpt lat="43.29081888310611248016357421875" lon="-2.360878027975559234619140625">
        <ele>14.80000019073486328125</ele>
        <time>2018-09-02T15:56:38.000Z</time>
      </trkpt>
      <trkpt lat="43.29079725779592990875244140625" lon="-2.3608785308897495269775390625">
        <ele>14.6000003814697265625</ele>
        <time>2018-09-02T15:56:39.000Z</time>
      </trkpt>
      <trkpt lat="43.29077370464801788330078125" lon="-2.36088146455585956573486328125">
        <ele>14.19999980926513671875</ele>
        <time>2018-09-02T15:56:40.000Z</time>
      </trkpt>
      <trkpt lat="43.29074881039559841156005859375" lon="-2.36088817007839679718017578125">
        <ele>13.80000019073486328125</ele>
        <time>2018-09-02T15:56:41.000Z</time>
      </trkpt>
      <trkpt lat="43.29072467051446437835693359375" lon="-2.360896132886409759521484375">
        <ele>13.6000003814697265625</ele>
        <time>2018-09-02T15:56:42.000Z</time>
      </trkpt>
      <trkpt lat="43.2907001115381717681884765625" lon="-2.3609016649425029754638671875">
        <ele>13.19999980926513671875</ele>
        <time>2018-09-02T15:56:43.000Z</time>
      </trkpt>
      <trkpt lat="43.29067471437156200408935546875" lon="-2.3609031736850738525390625">
        <ele>12.80000019073486328125</ele>
        <time>2018-09-02T15:56:44.000Z</time>
      </trkpt>
      <trkpt lat="43.29064873047173023223876953125" lon="-2.360901497304439544677734375">
        <ele>12.3999996185302734375</ele>
        <time>2018-09-02T15:56:45.000Z</time>
      </trkpt>
      <trkpt lat="43.290621824562549591064453125" lon="-2.36089847981929779052734375">
        <ele>12.19999980926513671875</ele>
        <time>2018-09-02T15:56:46.000Z</time>
      </trkpt>
      <trkpt lat="43.290594331920146942138671875" lon="-2.3608946241438388824462890625">
        <ele>11.80000019073486328125</ele>
        <time>2018-09-02T15:56:47.000Z</time>
      </trkpt>
      <trkpt lat="43.29056507907807826995849609375" lon="-2.36088573932647705078125">
        <ele>11.3999996185302734375</ele>
        <time>2018-09-02T15:56:48.000Z</time>
      </trkpt>
      <trkpt lat="43.29053373076021671295166015625" lon="-2.36087643541395664215087890625">
        <ele>11</ele>
        <time>2018-09-02T15:56:49.000Z</time>
      </trkpt>
      <trkpt lat="43.29050011932849884033203125" lon="-2.3608721606433391571044921875">
        <ele>10.6000003814697265625</ele>
        <time>2018-09-02T15:56:50.000Z</time>
      </trkpt>
      <trkpt lat="43.2904630713164806365966796875" lon="-2.360866963863372802734375">
        <ele>10.19999980926513671875</ele>
        <time>2018-09-02T15:56:51.000Z</time>
      </trkpt>
      <trkpt lat="43.2904256880283355712890625" lon="-2.36085631884634494781494140625">
        <ele>9.80000019073486328125</ele>
        <time>2018-09-02T15:56:52.000Z</time>
      </trkpt>
      <trkpt lat="43.2903869636356830596923828125" lon="-2.36083821393549442291259765625">
        <ele>9.19999980926513671875</ele>
        <time>2018-09-02T15:56:53.000Z</time>
      </trkpt>
      <trkpt lat="43.290346227586269378662109375" lon="-2.36081667244434356689453125">
        <ele>8.80000019073486328125</ele>
        <time>2018-09-02T15:56:54.000Z</time>
      </trkpt>
      <trkpt lat="43.290302641689777374267578125" lon="-2.36078926362097263336181640625">
        <ele>8.3999996185302734375</ele>
        <time>2018-09-02T15:56:55.000Z</time>
      </trkpt>
      <trkpt lat="43.29025981016457080841064453125" lon="-2.3607578314840793609619140625">
        <ele>7.80000019073486328125</ele>
        <time>2018-09-02T15:56:56.000Z</time>
      </trkpt>
      <trkpt lat="43.290215469896793365478515625" lon="-2.360722124576568603515625">
        <ele>7.400000095367431640625</ele>
        <time>2018-09-02T15:56:57.000Z</time>
      </trkpt>
      <trkpt lat="43.2901703752577304840087890625" lon="-2.36068331636488437652587890625">
        <ele>6.80000019073486328125</ele>
        <time>2018-09-02T15:56:58.000Z</time>
      </trkpt>
      <trkpt lat="43.29012167640030384063720703125" lon="-2.36063838936388492584228515625">
        <ele>6.19999980926513671875</ele>
        <time>2018-09-02T15:56:59.000Z</time>
      </trkpt>
      <trkpt lat="43.29006685875356197357177734375" lon="-2.36058575101196765899658203125">
        <ele>5.80000019073486328125</ele>
        <time>2018-09-02T15:57:00.000Z</time>
      </trkpt>
      <trkpt lat="43.2900111190974712371826171875" lon="-2.3605311848223209381103515625">
        <ele>5.400000095367431640625</ele>
        <time>2018-09-02T15:57:01.000Z</time>
      </trkpt>
      <trkpt lat="43.2899611629545688629150390625" lon="-2.36047745682299137115478515625">
        <ele>5</ele>
        <time>2018-09-02T15:57:02.000Z</time>
      </trkpt>
      <trkpt lat="43.2899216003715991973876953125" lon="-2.3604238964617252349853515625">
        <ele>4.599999904632568359375</ele>
        <time>2018-09-02T15:57:03.000Z</time>
      </trkpt>
      <trkpt lat="43.2898986339569091796875" lon="-2.36036161892116069793701171875">
        <ele>4.599999904632568359375</ele>
        <time>2018-09-02T15:57:04.000Z</time>
      </trkpt>
      <trkpt lat="43.28989720903337001800537109375" lon="-2.3602887801826000213623046875">
        <ele>4.599999904632568359375</ele>
        <time>2018-09-02T15:57:05.000Z</time>
      </trkpt>
      <trkpt lat="43.28992369584739208221435546875" lon="-2.36020789481699466705322265625">
        <ele>5</ele>
        <time>2018-09-02T15:57:06.000Z</time>
      </trkpt>
      <trkpt lat="43.28996225260198116302490234375" lon="-2.3601298592984676361083984375">
        <ele>5.400000095367431640625</ele>
        <time>2018-09-02T15:57:07.000Z</time>
      </trkpt>
      <trkpt lat="43.29001002945005893707275390625" lon="-2.36006406135857105255126953125">
        <ele>5.80000019073486328125</ele>
        <time>2018-09-02T15:57:08.000Z</time>
      </trkpt>
      <trkpt lat="43.2900635898113250732421875" lon="-2.3600091598927974700927734375">
        <ele>6.400000095367431640625</ele>
        <time>2018-09-02T15:57:09.000Z</time>
      </trkpt>
      <trkpt lat="43.29011857509613037109375" lon="-2.3599595390260219573974609375">
        <ele>6.80000019073486328125</ele>
        <time>2018-09-02T15:57:10.000Z</time>
      </trkpt>
      <trkpt lat="43.29017263837158679962158203125" lon="-2.3599136061966419219970703125">
        <ele>6.80000019073486328125</ele>
        <time>2018-09-02T15:57:11.000Z</time>
      </trkpt>
      <trkpt lat="43.29022628255188465118408203125" lon="-2.35986993648111820220947265625">
        <ele>7</ele>
        <time>2018-09-02T15:57:12.000Z</time>
      </trkpt>
      <trkpt lat="43.290280513465404510498046875" lon="-2.3598271049559116363525390625">
        <ele>7</ele>
        <time>2018-09-02T15:57:13.000Z</time>
      </trkpt>
      <trkpt lat="43.290333487093448638916015625" lon="-2.35978695563971996307373046875">
        <ele>7.19999980926513671875</ele>
        <time>2018-09-02T15:57:14.000Z</time>
      </trkpt>
      <trkpt lat="43.29038654454052448272705078125" lon="-2.35974772833287715911865234375">
        <ele>7.400000095367431640625</ele>
        <time>2018-09-02T15:57:15.000Z</time>
      </trkpt>
      <trkpt lat="43.29044044017791748046875" lon="-2.3597124405205249786376953125">
        <ele>7.80000019073486328125</ele>
        <time>2018-09-02T15:57:16.000Z</time>
      </trkpt>
      <trkpt lat="43.2904955931007862091064453125" lon="-2.3596775718033313751220703125">
        <ele>8</ele>
        <time>2018-09-02T15:57:17.000Z</time>
      </trkpt>
      <trkpt lat="43.29055166803300380706787109375" lon="-2.35964412800967693328857421875">
        <ele>8.3999996185302734375</ele>
        <time>2018-09-02T15:57:18.000Z</time>
      </trkpt>
      <trkpt lat="43.290605060756206512451171875" lon="-2.35960758291184902191162109375">
        <ele>8.6000003814697265625</ele>
        <time>2018-09-02T15:57:19.000Z</time>
      </trkpt>
      <trkpt lat="43.290657363831996917724609375" lon="-2.3595706187188625335693359375">
        <ele>8.80000019073486328125</ele>
        <time>2018-09-02T15:57:20.000Z</time>
      </trkpt>
      <trkpt lat="43.29071075655519962310791015625" lon="-2.3595374263823032379150390625">
        <ele>9.19999980926513671875</ele>
        <time>2018-09-02T15:57:21.000Z</time>
      </trkpt>
      <trkpt lat="43.290764652192592620849609375" lon="-2.35950431786477565765380859375">
        <ele>9.6000003814697265625</ele>
        <time>2018-09-02T15:57:22.000Z</time>
      </trkpt>
      <trkpt lat="43.290818296372890472412109375" lon="-2.3594703711569309234619140625">
        <ele>9.80000019073486328125</ele>
        <time>2018-09-02T15:57:23.000Z</time>
      </trkpt>
      <trkpt lat="43.2908714376389980316162109375" lon="-2.35943801701068878173828125">
        <ele>10.19999980926513671875</ele>
        <time>2018-09-02T15:57:24.000Z</time>
      </trkpt>
      <trkpt lat="43.29092524945735931396484375" lon="-2.35940775834023952484130859375">
        <ele>10.6000003814697265625</ele>
        <time>2018-09-02T15:57:25.000Z</time>
      </trkpt>
      <trkpt lat="43.2909783907234668731689453125" lon="-2.359373979270458221435546875">
        <ele>11</ele>
        <time>2018-09-02T15:57:26.000Z</time>
      </trkpt>
      <trkpt lat="43.29102474264800548553466796875" lon="-2.35932595096528530120849609375">
        <ele>11.3999996185302734375</ele>
        <time>2018-09-02T15:57:27.000Z</time>
      </trkpt>
      <trkpt lat="43.29105944372713565826416015625" lon="-2.35926945693790912628173828125">
        <ele>11.6000003814697265625</ele>
        <time>2018-09-02T15:57:28.000Z</time>
      </trkpt>
      <trkpt lat="43.29107411205768585205078125" lon="-2.35920106060802936553955078125">
        <ele>11</ele>
        <time>2018-09-02T15:57:29.000Z</time>
      </trkpt>
      <trkpt lat="43.29107386060059070587158203125" lon="-2.35912428237497806549072265625">
        <ele>9.6000003814697265625</ele>
        <time>2018-09-02T15:57:30.000Z</time>
      </trkpt>
      <trkpt lat="43.29107738099992275238037109375" lon="-2.3590522818267345428466796875">
        <ele>8.19999980926513671875</ele>
        <time>2018-09-02T15:57:31.000Z</time>
      </trkpt>
      <trkpt lat="43.2910967431962490081787109375" lon="-2.35899050720036029815673828125">
        <ele>7.599999904632568359375</ele>
        <time>2018-09-02T15:57:32.000Z</time>
      </trkpt>
      <trkpt lat="43.2911346293985843658447265625" lon="-2.3589416407048702239990234375">
        <ele>7.80000019073486328125</ele>
        <time>2018-09-02T15:57:33.000Z</time>
      </trkpt>
      <trkpt lat="43.29118165187537670135498046875" lon="-2.35890157520771026611328125">
        <ele>8.19999980926513671875</ele>
        <time>2018-09-02T15:57:34.000Z</time>
      </trkpt>
      <trkpt lat="43.2912291772663593292236328125" lon="-2.3588591627776622772216796875">
        <ele>8.3999996185302734375</ele>
        <time>2018-09-02T15:57:35.000Z</time>
      </trkpt>
      <trkpt lat="43.29127527773380279541015625" lon="-2.35881364904344081878662109375">
        <ele>8.80000019073486328125</ele>
        <time>2018-09-02T15:57:36.000Z</time>
      </trkpt>
      <trkpt lat="43.29132087528705596923828125" lon="-2.35876956023275852203369140625">
        <ele>9</ele>
        <time>2018-09-02T15:57:37.000Z</time>
      </trkpt>
      <trkpt lat="43.2913669757544994354248046875" lon="-2.3587253876030445098876953125">
        <ele>9.19999980926513671875</ele>
        <time>2018-09-02T15:57:38.000Z</time>
      </trkpt>
      <trkpt lat="43.2914129085838794708251953125" lon="-2.3586787842214107513427734375">
        <ele>9.6000003814697265625</ele>
        <time>2018-09-02T15:57:39.000Z</time>
      </trkpt>
      <trkpt lat="43.29145993106067180633544921875" lon="-2.3586331866681575775146484375">
        <ele>9.80000019073486328125</ele>
        <time>2018-09-02T15:57:40.000Z</time>
      </trkpt>
      <trkpt lat="43.2915091328322887420654296875" lon="-2.358588762581348419189453125">
        <ele>10.19999980926513671875</ele>
        <time>2018-09-02T15:57:41.000Z</time>
      </trkpt>
      <trkpt lat="43.29155825078487396240234375" lon="-2.35854752361774444580078125">
        <ele>10.6000003814697265625</ele>
        <time>2018-09-02T15:57:42.000Z</time>
      </trkpt>
      <trkpt lat="43.29160544089972972869873046875" lon="-2.35850720666348934173583984375">
        <ele>11</ele>
        <time>2018-09-02T15:57:43.000Z</time>
      </trkpt>
      <trkpt lat="43.29165237955749034881591796875" lon="-2.35846730880439281463623046875">
        <ele>11.3999996185302734375</ele>
        <time>2018-09-02T15:57:44.000Z</time>
      </trkpt>
      <trkpt lat="43.291699402034282684326171875" lon="-2.35842657275497913360595703125">
        <ele>11.80000019073486328125</ele>
        <time>2018-09-02T15:57:45.000Z</time>
      </trkpt>
      <trkpt lat="43.29174592159688472747802734375" lon="-2.3583818972110748291015625">
        <ele>12.19999980926513671875</ele>
        <time>2018-09-02T15:57:46.000Z</time>
      </trkpt>
      <trkpt lat="43.29179135151207447052001953125" lon="-2.3583336174488067626953125">
        <ele>12.3999996185302734375</ele>
        <time>2018-09-02T15:57:47.000Z</time>
      </trkpt>
      <trkpt lat="43.29183745197951793670654296875" lon="-2.35828726552426815032958984375">
        <ele>12.3999996185302734375</ele>
        <time>2018-09-02T15:57:48.000Z</time>
      </trkpt>
      <trkpt lat="43.2918853126466274261474609375" lon="-2.35824518837034702301025390625">
        <ele>12.6000003814697265625</ele>
        <time>2018-09-02T15:57:49.000Z</time>
      </trkpt>
      <trkpt lat="43.2919345982372760772705078125" lon="-2.3582090623676776885986328125">
        <ele>12.80000019073486328125</ele>
        <time>2018-09-02T15:57:50.000Z</time>
      </trkpt>
      <trkpt lat="43.291984386742115020751953125" lon="-2.35817343927919864654541015625">
        <ele>13.19999980926513671875</ele>
        <time>2018-09-02T15:57:51.000Z</time>
      </trkpt>
      <trkpt lat="43.29203342087566852569580078125" lon="-2.3581356368958950042724609375">
        <ele>13.3999996185302734375</ele>
        <time>2018-09-02T15:57:52.000Z</time>
      </trkpt>
      <trkpt lat="43.29208136536180973052978515625" lon="-2.358095236122608184814453125">
        <ele>13.6000003814697265625</ele>
        <time>2018-09-02T15:57:53.000Z</time>
      </trkpt>
      <trkpt lat="43.2921277172863483428955078125" lon="-2.35805424861609935760498046875">
        <ele>13.80000019073486328125</ele>
        <time>2018-09-02T15:57:54.000Z</time>
      </trkpt>
      <trkpt lat="43.29217323102056980133056640625" lon="-2.3580149374902248382568359375">
        <ele>13.80000019073486328125</ele>
        <time>2018-09-02T15:57:55.000Z</time>
      </trkpt>
      <trkpt lat="43.29221799038350582122802734375" lon="-2.35797747038304805755615234375">
        <ele>14</ele>
        <time>2018-09-02T15:57:56.000Z</time>
      </trkpt>
      <trkpt lat="43.29226291738450527191162109375" lon="-2.3579418472945690155029296875">
        <ele>14.19999980926513671875</ele>
        <time>2018-09-02T15:57:57.000Z</time>
      </trkpt>
      <trkpt lat="43.29230734147131443023681640625" lon="-2.357908822596073150634765625">
        <ele>14.6000003814697265625</ele>
        <time>2018-09-02T15:57:58.000Z</time>
      </trkpt>
      <trkpt lat="43.29235075972974300384521484375" lon="-2.35787722282111644744873046875">
        <ele>14.80000019073486328125</ele>
        <time>2018-09-02T15:57:59.000Z</time>
      </trkpt>
      <trkpt lat="43.292393423616886138916015625" lon="-2.3578462935984134674072265625">
        <ele>15</ele>
        <time>2018-09-02T15:58:00.000Z</time>
      </trkpt>
      <trkpt lat="43.29243441112339496612548828125" lon="-2.35781569965183734893798828125">
        <ele>15.3999996185302734375</ele>
        <time>2018-09-02T15:58:01.000Z</time>
      </trkpt>
      <trkpt lat="43.292475901544094085693359375" lon="-2.35778711736202239990234375">
        <ele>15.6000003814697265625</ele>
        <time>2018-09-02T15:58:02.000Z</time>
      </trkpt>
      <trkpt lat="43.29251714050769805908203125" lon="-2.35775736160576343536376953125">
        <ele>16</ele>
        <time>2018-09-02T15:58:03.000Z</time>
      </trkpt>
      <trkpt lat="43.29255678690969944000244140625" lon="-2.3577249236404895782470703125">
        <ele>16</ele>
        <time>2018-09-02T15:58:04.000Z</time>
      </trkpt>
      <trkpt lat="43.29259567894041538238525390625" lon="-2.35769399441778659820556640625">
        <ele>16.200000762939453125</ele>
        <time>2018-09-02T15:58:05.000Z</time>
      </trkpt>
      <trkpt lat="43.292634487152099609375" lon="-2.35766381956636905670166015625">
        <ele>16.3999996185302734375</ele>
        <time>2018-09-02T15:58:06.000Z</time>
      </trkpt>
      <trkpt lat="43.2926722057163715362548828125" lon="-2.35763129778206348419189453125">
        <ele>15.6000003814697265625</ele>
        <time>2018-09-02T15:58:07.000Z</time>
      </trkpt>
      <trkpt lat="43.29270766116678714752197265625" lon="-2.35759693197906017303466796875">
        <ele>14.6000003814697265625</ele>
        <time>2018-09-02T15:58:08.000Z</time>
      </trkpt>
      <trkpt lat="43.29274286516010761260986328125" lon="-2.357564158737659454345703125">
        <ele>13.80000019073486328125</ele>
        <time>2018-09-02T15:58:09.000Z</time>
      </trkpt>
      <trkpt lat="43.2927774824202060699462890625" lon="-2.3575371690094470977783203125">
        <ele>13.19999980926513671875</ele>
        <time>2018-09-02T15:58:10.000Z</time>
      </trkpt>
      <trkpt lat="43.29281159676611423492431640625" lon="-2.35751688480377197265625">
        <ele>12.6000003814697265625</ele>
        <time>2018-09-02T15:58:11.000Z</time>
      </trkpt>
      <trkpt lat="43.2928423583507537841796875" lon="-2.357497774064540863037109375">
        <ele>12.19999980926513671875</ele>
        <time>2018-09-02T15:58:12.000Z</time>
      </trkpt>
      <trkpt lat="43.2928706891834735870361328125" lon="-2.3574815131723880767822265625">
        <ele>11.80000019073486328125</ele>
        <time>2018-09-02T15:58:13.000Z</time>
      </trkpt>
      <trkpt lat="43.29289826564490795135498046875" lon="-2.3574694432318210601806640625">
        <ele>11.6000003814697265625</ele>
        <time>2018-09-02T15:58:14.000Z</time>
      </trkpt>
      <trkpt lat="43.29292374663054943084716796875" lon="-2.357458211481571197509765625">
        <ele>11.3999996185302734375</ele>
        <time>2018-09-02T15:58:15.000Z</time>
      </trkpt>
      <trkpt lat="43.292945958673954010009765625" lon="-2.3574506677687168121337890625">
        <ele>11.3999996185302734375</ele>
        <time>2018-09-02T15:58:16.000Z</time>
      </trkpt>
      <trkpt lat="43.29296716488897800445556640625" lon="-2.3574489913880825042724609375">
        <ele>11.3999996185302734375</ele>
        <time>2018-09-02T15:58:17.000Z</time>
      </trkpt>
      <trkpt lat="43.2929900474846363067626953125" lon="-2.35745318233966827392578125">
        <ele>11.6000003814697265625</ele>
        <time>2018-09-02T15:58:18.000Z</time>
      </trkpt>
      <trkpt lat="43.293012678623199462890625" lon="-2.35746030695736408233642578125">
        <ele>11.80000019073486328125</ele>
        <time>2018-09-02T15:58:19.000Z</time>
      </trkpt>
      <trkpt lat="43.29303706996142864227294921875" lon="-2.357469610869884490966796875">
        <ele>11.80000019073486328125</ele>
        <time>2018-09-02T15:58:20.000Z</time>
      </trkpt>
      <trkpt lat="43.2930622994899749755859375" lon="-2.357480339705944061279296875">
        <ele>12.19999980926513671875</ele>
        <time>2018-09-02T15:58:21.000Z</time>
      </trkpt>
      <trkpt lat="43.293090797960758209228515625" lon="-2.3574922420084476470947265625">
        <ele>12.6000003814697265625</ele>
        <time>2018-09-02T15:58:22.000Z</time>
      </trkpt>
      <trkpt lat="43.2931211404502391815185546875" lon="-2.357503809034824371337890625">
        <ele>13</ele>
        <time>2018-09-02T15:58:23.000Z</time>
      </trkpt>
      <trkpt lat="43.29315475188195705413818359375" lon="-2.35751688480377197265625">
        <ele>13.3999996185302734375</ele>
        <time>2018-09-02T15:58:24.000Z</time>
      </trkpt>
      <trkpt lat="43.29319045878946781158447265625" lon="-2.35752970911562442779541015625">
        <ele>13.80000019073486328125</ele>
        <time>2018-09-02T15:58:25.000Z</time>
      </trkpt>
      <trkpt lat="43.2932277582585811614990234375" lon="-2.3575415275990962982177734375">
        <ele>14.3999996185302734375</ele>
        <time>2018-09-02T15:58:26.000Z</time>
      </trkpt>
      <trkpt lat="43.293265141546726226806640625" lon="-2.35754999332129955291748046875">
        <ele>14.6000003814697265625</ele>
        <time>2018-09-02T15:58:27.000Z</time>
      </trkpt>
      <trkpt lat="43.2933015190064907073974609375" lon="-2.35755234025418758392333984375">
        <ele>14.80000019073486328125</ele>
        <time>2018-09-02T15:58:28.000Z</time>
      </trkpt>
      <trkpt lat="43.293337561190128326416015625" lon="-2.35754965804517269134521484375">
        <ele>14.80000019073486328125</ele>
        <time>2018-09-02T15:58:29.000Z</time>
      </trkpt>
      <trkpt lat="43.29337519593536853790283203125" lon="-2.3575485683977603912353515625">
        <ele>14.80000019073486328125</ele>
        <time>2018-09-02T15:58:30.000Z</time>
      </trkpt>
      <trkpt lat="43.2934121601283550262451171875" lon="-2.357547394931316375732421875">
        <ele>15</ele>
        <time>2018-09-02T15:58:31.000Z</time>
      </trkpt>
      <trkpt lat="43.29345013014972209930419921875" lon="-2.35754127614200115203857421875">
        <ele>15.19999980926513671875</ele>
        <time>2018-09-02T15:58:32.000Z</time>
      </trkpt>
      <trkpt lat="43.2934875972568988800048828125" lon="-2.35753105022013187408447265625">
        <ele>15</ele>
        <time>2018-09-02T15:58:33.000Z</time>
      </trkpt>
      <trkpt lat="43.29352430999279022216796875" lon="-2.35751755535602569580078125">
        <ele>14.3999996185302734375</ele>
        <time>2018-09-02T15:58:34.000Z</time>
      </trkpt>
      <trkpt lat="43.293561525642871856689453125" lon="-2.3575048148632049560546875">
        <ele>13.80000019073486328125</ele>
        <time>2018-09-02T15:58:35.000Z</time>
      </trkpt>
      <trkpt lat="43.2935982383787631988525390625" lon="-2.35749165527522563934326171875">
        <ele>13.3999996185302734375</ele>
        <time>2018-09-02T15:58:36.000Z</time>
      </trkpt>
      <trkpt lat="43.29363562166690826416015625" lon="-2.35748134553432464599609375">
        <ele>13</ele>
        <time>2018-09-02T15:58:37.000Z</time>
      </trkpt>
      <trkpt lat="43.293672837316989898681640625" lon="-2.3574699461460113525390625">
        <ele>12.80000019073486328125</ele>
        <time>2018-09-02T15:58:38.000Z</time>
      </trkpt>
      <trkpt lat="43.293710052967071533203125" lon="-2.3574538528919219970703125">
        <ele>12.6000003814697265625</ele>
        <time>2018-09-02T15:58:39.000Z</time>
      </trkpt>
      <trkpt lat="43.2937484420835971832275390625" lon="-2.3574335686862468719482421875">
        <ele>12.3999996185302734375</ele>
        <time>2018-09-02T15:58:40.000Z</time>
      </trkpt>
      <trkpt lat="43.29378708265721797943115234375" lon="-2.3574107699096202850341796875">
        <ele>12</ele>
        <time>2018-09-02T15:58:41.000Z</time>
      </trkpt>
      <trkpt lat="43.29382228665053844451904296875" lon="-2.357383109629154205322265625">
        <ele>11.80000019073486328125</ele>
        <time>2018-09-02T15:58:42.000Z</time>
      </trkpt>
      <trkpt lat="43.2938562333583831787109375" lon="-2.35735804773867130279541015625">
        <ele>11.6000003814697265625</ele>
        <time>2018-09-02T15:58:43.000Z</time>
      </trkpt>
      <trkpt lat="43.29388917423784732818603515625" lon="-2.35733424313366413116455078125">
        <ele>11.3999996185302734375</ele>
        <time>2018-09-02T15:58:44.000Z</time>
      </trkpt>
      <trkpt lat="43.2939207740128040313720703125" lon="-2.35731102526187896728515625">
        <ele>11</ele>
        <time>2018-09-02T15:58:45.000Z</time>
      </trkpt>
      <trkpt lat="43.2939526252448558807373046875" lon="-2.35729568637907505035400390625">
        <ele>11</ele>
        <time>2018-09-02T15:58:46.000Z</time>
      </trkpt>
      <trkpt lat="43.2939849793910980224609375" lon="-2.3572848737239837646484375">
        <ele>10.80000019073486328125</ele>
        <time>2018-09-02T15:58:47.000Z</time>
      </trkpt>
      <trkpt lat="43.294016830623149871826171875" lon="-2.35726433806121349334716796875">
        <ele>10.6000003814697265625</ele>
        <time>2018-09-02T15:58:48.000Z</time>
      </trkpt>
      <trkpt lat="43.2940488494932651519775390625" lon="-2.35723483376204967498779296875">
        <ele>10.19999980926513671875</ele>
        <time>2018-09-02T15:58:49.000Z</time>
      </trkpt>
      <trkpt lat="43.29408246092498302459716796875" lon="-2.35720499418675899505615234375">
        <ele>10</ele>
        <time>2018-09-02T15:58:50.000Z</time>
      </trkpt>
      <trkpt lat="43.294117748737335205078125" lon="-2.3571775853633880615234375">
        <ele>9.80000019073486328125</ele>
        <time>2018-09-02T15:58:51.000Z</time>
      </trkpt>
      <trkpt lat="43.29415404237806797027587890625" lon="-2.35715168528258800506591796875">
        <ele>9.3999996185302734375</ele>
        <time>2018-09-02T15:58:52.000Z</time>
      </trkpt>
      <trkpt lat="43.29419209621846675872802734375" lon="-2.35712570138275623321533203125">
        <ele>9.19999980926513671875</ele>
        <time>2018-09-02T15:58:53.000Z</time>
      </trkpt>
      <trkpt lat="43.2942298986017704010009765625" lon="-2.35709619708359241485595703125">
        <ele>8.80000019073486328125</ele>
        <time>2018-09-02T15:58:54.000Z</time>
      </trkpt>
      <trkpt lat="43.29426870681345462799072265625" lon="-2.35706753097474575042724609375">
        <ele>8.6000003814697265625</ele>
        <time>2018-09-02T15:58:55.000Z</time>
      </trkpt>
      <trkpt lat="43.2943080179393291473388671875" lon="-2.3570402897894382476806640625">
        <ele>8.3999996185302734375</ele>
        <time>2018-09-02T15:58:56.000Z</time>
      </trkpt>
      <trkpt lat="43.29434799961745738983154296875" lon="-2.357011623680591583251953125">
        <ele>8.19999980926513671875</ele>
        <time>2018-09-02T15:58:57.000Z</time>
      </trkpt>
      <trkpt lat="43.2943874783813953399658203125" lon="-2.35698170028626918792724609375">
        <ele>8.19999980926513671875</ele>
        <time>2018-09-02T15:58:58.000Z</time>
      </trkpt>
      <trkpt lat="43.29442645423114299774169921875" lon="-2.35695253126323223114013671875">
        <ele>8</ele>
        <time>2018-09-02T15:58:59.000Z</time>
      </trkpt>
      <trkpt lat="43.294464759528636932373046875" lon="-2.3569239489734172821044921875">
        <ele>8</ele>
        <time>2018-09-02T15:59:00.000Z</time>
      </trkpt>
      <trkpt lat="43.29450272955000400543212890625" lon="-2.35689419321715831756591796875">
        <ele>7.80000019073486328125</ele>
        <time>2018-09-02T15:59:01.000Z</time>
      </trkpt>
      <trkpt lat="43.29454162158071994781494140625" lon="-2.35686435364186763763427734375">
        <ele>7.80000019073486328125</ele>
        <time>2018-09-02T15:59:02.000Z</time>
      </trkpt>
      <trkpt lat="43.29458185471594333648681640625" lon="-2.35683627426624298095703125">
        <ele>7.599999904632568359375</ele>
        <time>2018-09-02T15:59:03.000Z</time>
      </trkpt>
      <trkpt lat="43.2946231774985790252685546875" lon="-2.3568074405193328857421875">
        <ele>7.599999904632568359375</ele>
        <time>2018-09-02T15:59:04.000Z</time>
      </trkpt>
      <trkpt lat="43.2946635782718658447265625" lon="-2.356776930391788482666015625">
        <ele>7.400000095367431640625</ele>
        <time>2018-09-02T15:59:05.000Z</time>
      </trkpt>
      <trkpt lat="43.29470406286418437957763671875" lon="-2.3567465879023075103759765625">
        <ele>7.400000095367431640625</ele>
        <time>2018-09-02T15:59:06.000Z</time>
      </trkpt>
      <trkpt lat="43.29474546946585178375244140625" lon="-2.35671683214604854583740234375">
        <ele>7.19999980926513671875</ele>
        <time>2018-09-02T15:59:07.000Z</time>
      </trkpt>
      <trkpt lat="43.2947871275246143341064453125" lon="-2.35668866895139217376708984375">
        <ele>7.19999980926513671875</ele>
        <time>2018-09-02T15:59:08.000Z</time>
      </trkpt>
      <trkpt lat="43.294829539954662322998046875" lon="-2.3566634394228458404541015625">
        <ele>7</ele>
        <time>2018-09-02T15:59:09.000Z</time>
      </trkpt>
      <trkpt lat="43.294871784746646881103515625" lon="-2.35663888044655323028564453125">
        <ele>7</ele>
        <time>2018-09-02T15:59:10.000Z</time>
      </trkpt>
      <trkpt lat="43.2949131913483142852783203125" lon="-2.3566154949367046356201171875">
        <ele>7.19999980926513671875</ele>
        <time>2018-09-02T15:59:11.000Z</time>
      </trkpt>
      <trkpt lat="43.2949551008641719818115234375" lon="-2.356595881283283233642578125">
        <ele>7.19999980926513671875</ele>
        <time>2018-09-02T15:59:12.000Z</time>
      </trkpt>
      <trkpt lat="43.29499810002744197845458984375" lon="-2.35658054240047931671142578125">
        <ele>7.19999980926513671875</ele>
        <time>2018-09-02T15:59:13.000Z</time>
      </trkpt>
      <trkpt lat="43.295041434466838836669921875" lon="-2.356570065021514892578125">
        <ele>7.400000095367431640625</ele>
        <time>2018-09-02T15:59:14.000Z</time>
      </trkpt>
      <trkpt lat="43.29508594237267971038818359375" lon="-2.35656495206058025360107421875">
        <ele>7.599999904632568359375</ele>
        <time>2018-09-02T15:59:15.000Z</time>
      </trkpt>
      <trkpt lat="43.29513095319271087646484375" lon="-2.356562353670597076416015625">
        <ele>7.80000019073486328125</ele>
        <time>2018-09-02T15:59:16.000Z</time>
      </trkpt>
      <trkpt lat="43.2951758801937103271484375" lon="-2.3565628565847873687744140625">
        <ele>7.599999904632568359375</ele>
        <time>2018-09-02T15:59:17.000Z</time>
      </trkpt>
      <trkpt lat="43.2952203042805194854736328125" lon="-2.356564365327358245849609375">
        <ele>7.599999904632568359375</ele>
        <time>2018-09-02T15:59:18.000Z</time>
      </trkpt>
      <trkpt lat="43.29526514746248722076416015625" lon="-2.3565668798983097076416015625">
        <ele>8</ele>
        <time>2018-09-02T15:59:19.000Z</time>
      </trkpt>
      <trkpt lat="43.29530973918735980987548828125" lon="-2.3565702326595783233642578125">
        <ele>8.19999980926513671875</ele>
        <time>2018-09-02T15:59:20.000Z</time>
      </trkpt>
      <trkpt lat="43.29535433091223239898681640625" lon="-2.35657400451600551605224609375">
        <ele>8.6000003814697265625</ele>
        <time>2018-09-02T15:59:21.000Z</time>
      </trkpt>
      <trkpt lat="43.29539925791323184967041015625" lon="-2.35657886601984500885009765625">
        <ele>9</ele>
        <time>2018-09-02T15:59:22.000Z</time>
      </trkpt>
      <trkpt lat="43.2954449392855167388916015625" lon="-2.35658280551433563232421875">
        <ele>9.19999980926513671875</ele>
        <time>2018-09-02T15:59:23.000Z</time>
      </trkpt>
      <trkpt lat="43.29549112357199192047119140625" lon="-2.35658590681850910186767578125">
        <ele>9.6000003814697265625</ele>
        <time>2018-09-02T15:59:24.000Z</time>
      </trkpt>
      <trkpt lat="43.29553730785846710205078125" lon="-2.3565893433988094329833984375">
        <ele>9.80000019073486328125</ele>
        <time>2018-09-02T15:59:25.000Z</time>
      </trkpt>
      <trkpt lat="43.2955824024975299835205078125" lon="-2.35659294761717319488525390625">
        <ele>10.19999980926513671875</ele>
        <time>2018-09-02T15:59:26.000Z</time>
      </trkpt>
      <trkpt lat="43.29562640748918056488037109375" lon="-2.356596887111663818359375">
        <ele>10.3999996185302734375</ele>
        <time>2018-09-02T15:59:27.000Z</time>
      </trkpt>
      <trkpt lat="43.295671083033084869384765625" lon="-2.35660334117710590362548828125">
        <ele>10.80000019073486328125</ele>
        <time>2018-09-02T15:59:28.000Z</time>
      </trkpt>
      <trkpt lat="43.29571575857698917388916015625" lon="-2.35660987906157970428466796875">
        <ele>11.19999980926513671875</ele>
        <time>2018-09-02T15:59:29.000Z</time>
      </trkpt>
      <trkpt lat="43.295762948691844940185546875" lon="-2.35661591403186321258544921875">
        <ele>11.3999996185302734375</ele>
        <time>2018-09-02T15:59:30.000Z</time>
      </trkpt>
      <trkpt lat="43.29580963589251041412353515625" lon="-2.3566211946308612823486328125">
        <ele>11.80000019073486328125</ele>
        <time>2018-09-02T15:59:31.000Z</time>
      </trkpt>
      <trkpt lat="43.29585540108382701873779296875" lon="-2.3566252179443836212158203125">
        <ele>12.19999980926513671875</ele>
        <time>2018-09-02T15:59:32.000Z</time>
      </trkpt>
      <trkpt lat="43.29590166918933391571044921875" lon="-2.356631420552730560302734375">
        <ele>12.3999996185302734375</ele>
        <time>2018-09-02T15:59:33.000Z</time>
      </trkpt>
      <trkpt lat="43.29594827257096767425537109375" lon="-2.3566379584372043609619140625">
        <ele>12.80000019073486328125</ele>
        <time>2018-09-02T15:59:34.000Z</time>
      </trkpt>
      <trkpt lat="43.2959954626858234405517578125" lon="-2.3566446639597415924072265625">
        <ele>12.80000019073486328125</ele>
        <time>2018-09-02T15:59:35.000Z</time>
      </trkpt>
      <trkpt lat="43.2960422337055206298828125" lon="-2.35665111802518367767333984375">
        <ele>12.80000019073486328125</ele>
        <time>2018-09-02T15:59:36.000Z</time>
      </trkpt>
      <trkpt lat="43.29608724452555179595947265625" lon="-2.35665547661483287811279296875">
        <ele>12.6000003814697265625</ele>
        <time>2018-09-02T15:59:37.000Z</time>
      </trkpt>
      <trkpt lat="43.29613300971686840057373046875" lon="-2.356666289269924163818359375">
        <ele>12.6000003814697265625</ele>
        <time>2018-09-02T15:59:38.000Z</time>
      </trkpt>
      <trkpt lat="43.29617726616561412811279296875" lon="-2.35668003559112548828125">
        <ele>12.80000019073486328125</ele>
        <time>2018-09-02T15:59:39.000Z</time>
      </trkpt>
      <trkpt lat="43.29622336663305759429931640625" lon="-2.3567001521587371826171875">
        <ele>13</ele>
        <time>2018-09-02T15:59:40.000Z</time>
      </trkpt>
      <trkpt lat="43.296269215643405914306640625" lon="-2.35671834088861942291259765625">
        <ele>13.3999996185302734375</ele>
        <time>2018-09-02T15:59:41.000Z</time>
      </trkpt>
      <trkpt lat="43.296315483748912811279296875" lon="-2.3567348532378673553466796875">
        <ele>13.6000003814697265625</ele>
        <time>2018-09-02T15:59:42.000Z</time>
      </trkpt>
      <trkpt lat="43.29636133275926113128662109375" lon="-2.3567537963390350341796875">
        <ele>14</ele>
        <time>2018-09-02T15:59:43.000Z</time>
      </trkpt>
      <trkpt lat="43.2964075170457363128662109375" lon="-2.35677517019212245941162109375">
        <ele>14.19999980926513671875</ele>
        <time>2018-09-02T15:59:44.000Z</time>
      </trkpt>
      <trkpt lat="43.29645269550383090972900390625" lon="-2.35679604113101959228515625">
        <ele>14.6000003814697265625</ele>
        <time>2018-09-02T15:59:45.000Z</time>
      </trkpt>
      <trkpt lat="43.29649728722870349884033203125" lon="-2.356817834079265594482421875">
        <ele>15</ele>
        <time>2018-09-02T15:59:46.000Z</time>
      </trkpt>
      <trkpt lat="43.2965426333248615264892578125" lon="-2.3568444885313510894775390625">
        <ele>15.6000003814697265625</ele>
        <time>2018-09-02T15:59:47.000Z</time>
      </trkpt>
      <trkpt lat="43.29658806324005126953125" lon="-2.3568739928305149078369140625">
        <ele>16.200000762939453125</ele>
        <time>2018-09-02T15:59:48.000Z</time>
      </trkpt>
      <trkpt lat="43.296632654964923858642578125" lon="-2.35690198838710784912109375">
        <ele>16.200000762939453125</ele>
        <time>2018-09-02T15:59:49.000Z</time>
      </trkpt>
      <trkpt lat="43.29667481593787670135498046875" lon="-2.3569309897720813751220703125">
        <ele>16.200000762939453125</ele>
        <time>2018-09-02T15:59:50.000Z</time>
      </trkpt>
      <trkpt lat="43.29671840183436870574951171875" lon="-2.35696057789027690887451171875">
        <ele>16.200000762939453125</ele>
        <time>2018-09-02T15:59:51.000Z</time>
      </trkpt>
      <trkpt lat="43.2967632450163364410400390625" lon="-2.35699058510363101959228515625">
        <ele>16.3999996185302734375</ele>
        <time>2018-09-02T15:59:52.000Z</time>
      </trkpt>
      <trkpt lat="43.296807669103145599365234375" lon="-2.357020676136016845703125">
        <ele>16.6000003814697265625</ele>
        <time>2018-09-02T15:59:53.000Z</time>
      </trkpt>
      <trkpt lat="43.29685234464704990386962890625" lon="-2.3570510186254978179931640625">
        <ele>17.200000762939453125</ele>
        <time>2018-09-02T15:59:54.000Z</time>
      </trkpt>
      <trkpt lat="43.29689718782901763916015625" lon="-2.35707591287791728973388671875">
        <ele>17.799999237060546875</ele>
        <time>2018-09-02T15:59:55.000Z</time>
      </trkpt>
      <trkpt lat="43.29694421030580997467041015625" lon="-2.357100136578083038330078125">
        <ele>18.3999996185302734375</ele>
        <time>2018-09-02T15:59:56.000Z</time>
      </trkpt>
      <trkpt lat="43.2969908975064754486083984375" lon="-2.35712352208793163299560546875">
        <ele>18.799999237060546875</ele>
        <time>2018-09-02T15:59:57.000Z</time>
      </trkpt>
      <trkpt lat="43.29703842289745807647705078125" lon="-2.35714581795036792755126953125">
        <ele>19.3999996185302734375</ele>
        <time>2018-09-02T15:59:58.000Z</time>
      </trkpt>
      <trkpt lat="43.2970867864787578582763671875" lon="-2.357163168489933013916015625">
        <ele>19.799999237060546875</ele>
        <time>2018-09-02T15:59:59.000Z</time>
      </trkpt>
      <trkpt lat="43.29713766463100910186767578125" lon="-2.35717959702014923095703125">
        <ele>20.200000762939453125</ele>
        <time>2018-09-02T16:00:00.000Z</time>
      </trkpt>
      <trkpt lat="43.29718686640262603759765625" lon="-2.35719677992165088653564453125">
        <ele>20.6000003814697265625</ele>
        <time>2018-09-02T16:00:01.000Z</time>
      </trkpt>
      <trkpt lat="43.2972359843552112579345703125" lon="-2.35721304081380367279052734375">
        <ele>21</ele>
        <time>2018-09-02T16:00:02.000Z</time>
      </trkpt>
      <trkpt lat="43.2972862757742404937744140625" lon="-2.35722879879176616668701171875">
        <ele>21.3999996185302734375</ele>
        <time>2018-09-02T16:00:03.000Z</time>
      </trkpt>
      <trkpt lat="43.29733631573617458343505859375" lon="-2.3572404496371746063232421875">
        <ele>21.799999237060546875</ele>
        <time>2018-09-02T16:00:04.000Z</time>
      </trkpt>
      <trkpt lat="43.29738627187907695770263671875" lon="-2.35725025646388530731201171875">
        <ele>22</ele>
        <time>2018-09-02T16:00:05.000Z</time>
      </trkpt>
      <trkpt lat="43.29743689857423305511474609375" lon="-2.35726140439510345458984375">
        <ele>22.3999996185302734375</ele>
        <time>2018-09-02T16:00:06.000Z</time>
      </trkpt>
      <trkpt lat="43.2974881120026111602783203125" lon="-2.35727171413600444793701171875">
        <ele>22.6000003814697265625</ele>
        <time>2018-09-02T16:00:07.000Z</time>
      </trkpt>
      <trkpt lat="43.297540247440338134765625" lon="-2.35727758146822452545166015625">
        <ele>22.799999237060546875</ele>
        <time>2018-09-02T16:00:08.000Z</time>
      </trkpt>
      <trkpt lat="43.29759179614484310150146484375" lon="-2.3572759889066219329833984375">
        <ele>22.799999237060546875</ele>
        <time>2018-09-02T16:00:09.000Z</time>
      </trkpt>
      <trkpt lat="43.29764443449676036834716796875" lon="-2.35727422870695590972900390625">
        <ele>22.799999237060546875</ele>
        <time>2018-09-02T16:00:10.000Z</time>
      </trkpt>
      <trkpt lat="43.29769724048674106597900390625" lon="-2.357271127402782440185546875">
        <ele>23.200000762939453125</ele>
        <time>2018-09-02T16:00:11.000Z</time>
      </trkpt>
      <trkpt lat="43.2977496273815631866455078125" lon="-2.3572649247944355010986328125">
        <ele>23.6000003814697265625</ele>
        <time>2018-09-02T16:00:12.000Z</time>
      </trkpt>
      <trkpt lat="43.297801427543163299560546875" lon="-2.35725461505353450775146484375">
        <ele>23.799999237060546875</ele>
        <time>2018-09-02T16:00:13.000Z</time>
      </trkpt>
      <trkpt lat="43.29785205423831939697265625" lon="-2.35723969526588916778564453125">
        <ele>23.799999237060546875</ele>
        <time>2018-09-02T16:00:14.000Z</time>
      </trkpt>
      <trkpt lat="43.29790142364799976348876953125" lon="-2.357223518192768096923828125">
        <ele>24.200000762939453125</ele>
        <time>2018-09-02T16:00:15.000Z</time>
      </trkpt>
      <trkpt lat="43.29795129597187042236328125" lon="-2.35720851458609104156494140625">
        <ele>24.799999237060546875</ele>
        <time>2018-09-02T16:00:16.000Z</time>
      </trkpt>
      <trkpt lat="43.298001252114772796630859375" lon="-2.35719141550362110137939453125">
        <ele>25.200000762939453125</ele>
        <time>2018-09-02T16:00:17.000Z</time>
      </trkpt>
      <trkpt lat="43.29804676584899425506591796875" lon="-2.35716610215604305267333984375">
        <ele>25.200000762939453125</ele>
        <time>2018-09-02T16:00:18.000Z</time>
      </trkpt>
      <trkpt lat="43.29809169284999370574951171875" lon="-2.3571482487022876739501953125">
        <ele>25.6000003814697265625</ele>
        <time>2018-09-02T16:00:19.000Z</time>
      </trkpt>
      <trkpt lat="43.29813477583229541778564453125" lon="-2.35712503083050251007080078125">
        <ele>25.799999237060546875</ele>
        <time>2018-09-02T16:00:20.000Z</time>
      </trkpt>
      <trkpt lat="43.2981781102716922760009765625" lon="-2.3571003042161464691162109375">
        <ele>25.799999237060546875</ele>
        <time>2018-09-02T16:00:21.000Z</time>
      </trkpt>
      <trkpt lat="43.2982176728546619415283203125" lon="-2.3570714704692363739013671875">
        <ele>25.6000003814697265625</ele>
        <time>2018-09-02T16:00:22.000Z</time>
      </trkpt>
      <trkpt lat="43.29825949855148792266845703125" lon="-2.3570379428565502166748046875">
        <ele>25.200000762939453125</ele>
        <time>2018-09-02T16:00:23.000Z</time>
      </trkpt>
      <trkpt lat="43.29830140806734561920166015625" lon="-2.35700257122516632080078125">
        <ele>24.799999237060546875</ele>
        <time>2018-09-02T16:00:24.000Z</time>
      </trkpt>
      <trkpt lat="43.2983444072306156158447265625" lon="-2.3569692112505435943603515625">
        <ele>24.3999996185302734375</ele>
        <time>2018-09-02T16:00:25.000Z</time>
      </trkpt>
      <trkpt lat="43.29838489182293415069580078125" lon="-2.356932163238525390625">
        <ele>23.799999237060546875</ele>
        <time>2018-09-02T16:00:26.000Z</time>
      </trkpt>
      <trkpt lat="43.29842529259622097015380859375" lon="-2.35689704306423664093017578125">
        <ele>23.3999996185302734375</ele>
        <time>2018-09-02T16:00:27.000Z</time>
      </trkpt>
      <trkpt lat="43.2984671182930469512939453125" lon="-2.35686468891799449920654296875">
        <ele>23</ele>
        <time>2018-09-02T16:00:28.000Z</time>
      </trkpt>
      <trkpt lat="43.29850927926599979400634765625" lon="-2.35683015547692775726318359375">
        <ele>22</ele>
        <time>2018-09-02T16:00:29.000Z</time>
      </trkpt>
      <trkpt lat="43.2985489256680011749267578125" lon="-2.356791011989116668701171875">
        <ele>20.6000003814697265625</ele>
        <time>2018-09-02T16:00:30.000Z</time>
      </trkpt>
      <trkpt lat="43.2985884882509708404541015625" lon="-2.3567516170442104339599609375">
        <ele>19.200000762939453125</ele>
        <time>2018-09-02T16:00:31.000Z</time>
      </trkpt>
      <trkpt lat="43.29862779937684535980224609375" lon="-2.35671297647058963775634765625">
        <ele>17.799999237060546875</ele>
        <time>2018-09-02T16:00:32.000Z</time>
      </trkpt>
      <trkpt lat="43.2986672781407833099365234375" lon="-2.3566745035350322723388671875">
        <ele>16.6000003814697265625</ele>
        <time>2018-09-02T16:00:33.000Z</time>
      </trkpt>
      <trkpt lat="43.29870642162859439849853515625" lon="-2.35663536004722118377685546875">
        <ele>15.3999996185302734375</ele>
        <time>2018-09-02T16:00:34.000Z</time>
      </trkpt>
      <trkpt lat="43.2987437210977077484130859375" lon="-2.3565953783690929412841796875">
        <ele>14.80000019073486328125</ele>
        <time>2018-09-02T16:00:35.000Z</time>
      </trkpt>
      <trkpt lat="43.29878001473844051361083984375" lon="-2.35655556432902812957763671875">
        <ele>14.3999996185302734375</ele>
        <time>2018-09-02T16:00:36.000Z</time>
      </trkpt>
      <trkpt lat="43.29881773330271244049072265625" lon="-2.35651801340281963348388671875">
        <ele>14</ele>
        <time>2018-09-02T16:00:37.000Z</time>
      </trkpt>
      <trkpt lat="43.29885763116180896759033203125" lon="-2.35648448579013347625732421875">
        <ele>13.6000003814697265625</ele>
        <time>2018-09-02T16:00:38.000Z</time>
      </trkpt>
      <trkpt lat="43.29889811575412750244140625" lon="-2.3564535565674304962158203125">
        <ele>13.3999996185302734375</ele>
        <time>2018-09-02T16:00:39.000Z</time>
      </trkpt>
      <trkpt lat="43.29894027672708034515380859375" lon="-2.35642899759113788604736328125">
        <ele>13.19999980926513671875</ele>
        <time>2018-09-02T16:00:40.000Z</time>
      </trkpt>
      <trkpt lat="43.29898285679519176483154296875" lon="-2.35640980303287506103515625">
        <ele>13.19999980926513671875</ele>
        <time>2018-09-02T16:00:41.000Z</time>
      </trkpt>
      <trkpt lat="43.29902476631104946136474609375" lon="-2.35639429651200771331787109375">
        <ele>13.19999980926513671875</ele>
        <time>2018-09-02T16:00:42.000Z</time>
      </trkpt>
      <trkpt lat="43.2990669272840023040771484375" lon="-2.3563808016479015350341796875">
        <ele>13.19999980926513671875</ele>
        <time>2018-09-02T16:00:43.000Z</time>
      </trkpt>
      <trkpt lat="43.29910942353308200836181640625" lon="-2.35637149773538112640380859375">
        <ele>13.3999996185302734375</ele>
        <time>2018-09-02T16:00:44.000Z</time>
      </trkpt>
      <trkpt lat="43.29915418289601802825927734375" lon="-2.35636764205992221832275390625">
        <ele>13.6000003814697265625</ele>
        <time>2018-09-02T16:00:45.000Z</time>
      </trkpt>
      <trkpt lat="43.29919961281120777130126953125" lon="-2.3563702404499053955078125">
        <ele>13.80000019073486328125</ele>
        <time>2018-09-02T16:00:46.000Z</time>
      </trkpt>
      <trkpt lat="43.29924521036446094512939453125" lon="-2.35637837089598178863525390625">
        <ele>14.19999980926513671875</ele>
        <time>2018-09-02T16:00:47.000Z</time>
      </trkpt>
      <trkpt lat="43.29928946681320667266845703125" lon="-2.35639178194105625152587890625">
        <ele>14.80000019073486328125</ele>
        <time>2018-09-02T16:00:48.000Z</time>
      </trkpt>
      <trkpt lat="43.29933288507163524627685546875" lon="-2.35640921629965305328369140625">
        <ele>15</ele>
        <time>2018-09-02T16:00:49.000Z</time>
      </trkpt>
      <trkpt lat="43.29937546513974666595458984375" lon="-2.3564307577908039093017578125">
        <ele>15.3999996185302734375</ele>
        <time>2018-09-02T16:00:50.000Z</time>
      </trkpt>
      <trkpt lat="43.299417458474636077880859375" lon="-2.35645615495741367340087890625">
        <ele>15.80000019073486328125</ele>
        <time>2018-09-02T16:00:51.000Z</time>
      </trkpt>
      <trkpt lat="43.29945961944758892059326171875" lon="-2.35648465342819690704345703125">
        <ele>16.200000762939453125</ele>
        <time>2018-09-02T16:00:52.000Z</time>
      </trkpt>
      <trkpt lat="43.29950370825827121734619140625" lon="-2.3565112240612506866455078125">
        <ele>16</ele>
        <time>2018-09-02T16:00:53.000Z</time>
      </trkpt>
      <trkpt lat="43.29955114983022212982177734375" lon="-2.3565356992185115814208984375">
        <ele>15.6000003814697265625</ele>
        <time>2018-09-02T16:00:54.000Z</time>
      </trkpt>
      <trkpt lat="43.299598507583141326904296875" lon="-2.3565564863383769989013671875">
        <ele>15.3999996185302734375</ele>
        <time>2018-09-02T16:00:55.000Z</time>
      </trkpt>
      <trkpt lat="43.299646116793155670166015625" lon="-2.356579117476940155029296875">
        <ele>15.19999980926513671875</ele>
        <time>2018-09-02T16:00:56.000Z</time>
      </trkpt>
      <trkpt lat="43.29969330690801143646240234375" lon="-2.35660200007259845733642578125">
        <ele>14.80000019073486328125</ele>
        <time>2018-09-02T16:00:57.000Z</time>
      </trkpt>
      <trkpt lat="43.29974024556577205657958984375" lon="-2.3566275648772716522216796875">
        <ele>14.6000003814697265625</ele>
        <time>2018-09-02T16:00:58.000Z</time>
      </trkpt>
      <trkpt lat="43.29978718422353267669677734375" lon="-2.35665597952902317047119140625">
        <ele>15</ele>
        <time>2018-09-02T16:00:59.000Z</time>
      </trkpt>
      <trkpt lat="43.2998321950435638427734375" lon="-2.35668246634304523468017578125">
        <ele>16</ele>
        <time>2018-09-02T16:01:00.000Z</time>
      </trkpt>
      <trkpt lat="43.2998769544064998626708984375" lon="-2.3567073605954647064208984375">
        <ele>17</ele>
        <time>2018-09-02T16:01:01.000Z</time>
      </trkpt>
      <trkpt lat="43.29992179758846759796142578125" lon="-2.35673259012401103973388671875">
        <ele>17.799999237060546875</ele>
        <time>2018-09-02T16:01:02.000Z</time>
      </trkpt>
      <trkpt lat="43.299967981874942779541015625" lon="-2.35676041804254055023193359375">
        <ele>18.799999237060546875</ele>
        <time>2018-09-02T16:01:03.000Z</time>
      </trkpt>
      <trkpt lat="43.3000130765140056610107421875" lon="-2.35678640194237232208251953125">
        <ele>20</ele>
        <time>2018-09-02T16:01:04.000Z</time>
      </trkpt>
      <trkpt lat="43.30005817115306854248046875" lon="-2.356815151870250701904296875">
        <ele>21.6000003814697265625</ele>
        <time>2018-09-02T16:01:05.000Z</time>
      </trkpt>
      <trkpt lat="43.30010318197309970855712890625" lon="-2.35684054903686046600341796875">
        <ele>23</ele>
        <time>2018-09-02T16:01:06.000Z</time>
      </trkpt>
      <trkpt lat="43.30014777369797229766845703125" lon="-2.356865108013153076171875">
        <ele>24.200000762939453125</ele>
        <time>2018-09-02T16:01:07.000Z</time>
      </trkpt>
      <trkpt lat="43.300191275775432586669921875" lon="-2.356890924274921417236328125">
        <ele>25.3999996185302734375</ele>
        <time>2018-09-02T16:01:08.000Z</time>
      </trkpt>
      <trkpt lat="43.30023628659546375274658203125" lon="-2.35691682435572147369384765625">
        <ele>26.6000003814697265625</ele>
        <time>2018-09-02T16:01:09.000Z</time>
      </trkpt>
      <trkpt lat="43.3002812974154949188232421875" lon="-2.356939204037189483642578125">
        <ele>27.6000003814697265625</ele>
        <time>2018-09-02T16:01:10.000Z</time>
      </trkpt>
      <trkpt lat="43.30032630823552608489990234375" lon="-2.356966026127338409423828125">
        <ele>28.799999237060546875</ele>
        <time>2018-09-02T16:01:11.000Z</time>
      </trkpt>
      <trkpt lat="43.3003699779510498046875" lon="-2.35699309967458248138427734375">
        <ele>30</ele>
        <time>2018-09-02T16:01:12.000Z</time>
      </trkpt>
      <trkpt lat="43.30041364766657352447509765625" lon="-2.35701874829828739166259765625">
        <ele>31.200000762939453125</ele>
        <time>2018-09-02T16:01:13.000Z</time>
      </trkpt>
      <trkpt lat="43.3004573173820972442626953125" lon="-2.35704473219811916351318359375">
        <ele>32.40000152587890625</ele>
        <time>2018-09-02T16:01:14.000Z</time>
      </trkpt>
      <trkpt lat="43.30050207674503326416015625" lon="-2.35707088373601436614990234375">
        <ele>33.59999847412109375</ele>
        <time>2018-09-02T16:01:15.000Z</time>
      </trkpt>
      <trkpt lat="43.30054708756506443023681640625" lon="-2.35709770582616329193115234375">
        <ele>34</ele>
        <time>2018-09-02T16:01:16.000Z</time>
      </trkpt>
      <trkpt lat="43.300592936575412750244140625" lon="-2.35712737776339054107666015625">
        <ele>33.40000152587890625</ele>
        <time>2018-09-02T16:01:17.000Z</time>
      </trkpt>
      <trkpt lat="43.3006380312144756317138671875" lon="-2.3571549542248249053955078125">
        <ele>32.59999847412109375</ele>
        <time>2018-09-02T16:01:18.000Z</time>
      </trkpt>
      <trkpt lat="43.3006824553012847900390625" lon="-2.3571797646582126617431640625">
        <ele>32</ele>
        <time>2018-09-02T16:01:19.000Z</time>
      </trkpt>
      <trkpt lat="43.300726376473903656005859375" lon="-2.35720247961580753326416015625">
        <ele>31.200000762939453125</ele>
        <time>2018-09-02T16:01:20.000Z</time>
      </trkpt>
      <trkpt lat="43.30077054910361766815185546875" lon="-2.35722796060144901275634765625">
        <ele>30.6000003814697265625</ele>
        <time>2018-09-02T16:01:21.000Z</time>
      </trkpt>
      <trkpt lat="43.30081514082849025726318359375" lon="-2.35725511796772480010986328125">
        <ele>29.799999237060546875</ele>
        <time>2018-09-02T16:01:22.000Z</time>
      </trkpt>
      <trkpt lat="43.3008583076298236846923828125" lon="-2.3572803474962711334228515625">
        <ele>29.200000762939453125</ele>
        <time>2018-09-02T16:01:23.000Z</time>
      </trkpt>
      <trkpt lat="43.3009012229740619659423828125" lon="-2.35730507411062717437744140625">
        <ele>28.6000003814697265625</ele>
        <time>2018-09-02T16:01:24.000Z</time>
      </trkpt>
      <trkpt lat="43.30094355158507823944091796875" lon="-2.3573299683630466461181640625">
        <ele>28</ele>
        <time>2018-09-02T16:01:25.000Z</time>
      </trkpt>
      <trkpt lat="43.30098730511963367462158203125" lon="-2.35735536552965641021728515625">
        <ele>28</ele>
        <time>2018-09-02T16:01:26.000Z</time>
      </trkpt>
      <trkpt lat="43.30103189684450626373291015625" lon="-2.35737766139209270477294921875">
        <ele>28.6000003814697265625</ele>
        <time>2018-09-02T16:01:27.000Z</time>
      </trkpt>
      <trkpt lat="43.30107715912163257598876953125" lon="-2.35739895142614841461181640625">
        <ele>28.6000003814697265625</ele>
        <time>2018-09-02T16:01:28.000Z</time>
      </trkpt>
      <trkpt lat="43.30112426541745662689208984375" lon="-2.3574218340218067169189453125">
        <ele>28.200000762939453125</ele>
        <time>2018-09-02T16:01:29.000Z</time>
      </trkpt>
      <trkpt lat="43.3011701144278049468994140625" lon="-2.35744186677038669586181640625">
        <ele>27.799999237060546875</ele>
        <time>2018-09-02T16:01:30.000Z</time>
      </trkpt>
      <trkpt lat="43.30121663399040699005126953125" lon="-2.357460558414459228515625">
        <ele>27.200000762939453125</ele>
        <time>2018-09-02T16:01:31.000Z</time>
      </trkpt>
      <trkpt lat="43.30126374028623104095458984375" lon="-2.357476316392421722412109375">
        <ele>26.6000003814697265625</ele>
        <time>2018-09-02T16:01:32.000Z</time>
      </trkpt>
      <trkpt lat="43.30131051130592823028564453125" lon="-2.35749215818941593170166015625">
        <ele>26.6000003814697265625</ele>
        <time>2018-09-02T16:01:33.000Z</time>
      </trkpt>
      <trkpt lat="43.3013583719730377197265625" lon="-2.3575101792812347412109375">
        <ele>26.6000003814697265625</ele>
        <time>2018-09-02T16:01:34.000Z</time>
      </trkpt>
      <trkpt lat="43.30140623264014720916748046875" lon="-2.35752199776470661163330078125">
        <ele>26.3999996185302734375</ele>
        <time>2018-09-02T16:01:35.000Z</time>
      </trkpt>
      <trkpt lat="43.30145518295466899871826171875" lon="-2.35753708519041538238525390625">
        <ele>26.200000762939453125</ele>
        <time>2018-09-02T16:01:36.000Z</time>
      </trkpt>
      <trkpt lat="43.3015037141740322113037109375" lon="-2.3575465567409992218017578125">
        <ele>25.799999237060546875</ele>
        <time>2018-09-02T16:01:37.000Z</time>
      </trkpt>
      <trkpt lat="43.3015533350408077239990234375" lon="-2.357557453215122222900390625">
        <ele>25.3999996185302734375</ele>
        <time>2018-09-02T16:01:38.000Z</time>
      </trkpt>
      <trkpt lat="43.3016019500792026519775390625" lon="-2.35756860114634037017822265625">
        <ele>25.200000762939453125</ele>
        <time>2018-09-02T16:01:39.000Z</time>
      </trkpt>
      <trkpt lat="43.3016512356698513031005859375" lon="-2.35757966525852680206298828125">
        <ele>24.799999237060546875</ele>
        <time>2018-09-02T16:01:40.000Z</time>
      </trkpt>
      <trkpt lat="43.30170110799372196197509765625" lon="-2.35758754424750804901123046875">
        <ele>24.3999996185302734375</ele>
        <time>2018-09-02T16:01:41.000Z</time>
      </trkpt>
      <trkpt lat="43.301750980317592620849609375" lon="-2.35758922062814235687255859375">
        <ele>23.6000003814697265625</ele>
        <time>2018-09-02T16:01:42.000Z</time>
      </trkpt>
      <trkpt lat="43.3018034510314464569091796875" lon="-2.3575934953987598419189453125">
        <ele>23</ele>
        <time>2018-09-02T16:01:43.000Z</time>
      </trkpt>
      <trkpt lat="43.30185567028820514678955078125" lon="-2.35759525559842586517333984375">
        <ele>23.200000762939453125</ele>
        <time>2018-09-02T16:01:44.000Z</time>
      </trkpt>
      <trkpt lat="43.30190797336399555206298828125" lon="-2.35759575851261615753173828125">
        <ele>23.6000003814697265625</ele>
        <time>2018-09-02T16:01:45.000Z</time>
      </trkpt>
      <trkpt lat="43.3019603602588176727294921875" lon="-2.357593663036823272705078125">
        <ele>23.799999237060546875</ele>
        <time>2018-09-02T16:01:46.000Z</time>
      </trkpt>
      <trkpt lat="43.30201241187751293182373046875" lon="-2.35759207047522068023681640625">
        <ele>23.799999237060546875</ele>
        <time>2018-09-02T16:01:47.000Z</time>
      </trkpt>
      <trkpt lat="43.30206253565847873687744140625" lon="-2.35758787952363491058349609375">
        <ele>24</ele>
        <time>2018-09-02T16:01:48.000Z</time>
      </trkpt>
      <trkpt lat="43.30211165361106395721435546875" lon="-2.35758058726787567138671875">
        <ele>23.799999237060546875</ele>
        <time>2018-09-02T16:01:49.000Z</time>
      </trkpt>
      <trkpt lat="43.3021591790020465850830078125" lon="-2.35757329501211643218994140625">
        <ele>23.6000003814697265625</ele>
        <time>2018-09-02T16:01:50.000Z</time>
      </trkpt>
      <trkpt lat="43.3022061176598072052001953125" lon="-2.35756575129926204681396484375">
        <ele>23.3999996185302734375</ele>
        <time>2018-09-02T16:01:51.000Z</time>
      </trkpt>
      <trkpt lat="43.30225364305078983306884765625" lon="-2.35755653120577335357666015625">
        <ele>23.200000762939453125</ele>
        <time>2018-09-02T16:01:52.000Z</time>
      </trkpt>
      <trkpt lat="43.30229974351823329925537109375" lon="-2.35754496417939662933349609375">
        <ele>22.799999237060546875</ele>
        <time>2018-09-02T16:01:53.000Z</time>
      </trkpt>
      <trkpt lat="43.30234634689986705780029296875" lon="-2.35753356479108333587646484375">
        <ele>22.6000003814697265625</ele>
        <time>2018-09-02T16:01:54.000Z</time>
      </trkpt>
      <trkpt lat="43.30239295028150081634521484375" lon="-2.3575204052031040191650390625">
        <ele>22</ele>
        <time>2018-09-02T16:01:55.000Z</time>
      </trkpt>
      <trkpt lat="43.302437961101531982421875" lon="-2.35750389285385608673095703125">
        <ele>21.3999996185302734375</ele>
        <time>2018-09-02T16:01:56.000Z</time>
      </trkpt>
      <trkpt lat="43.30248246900737285614013671875" lon="-2.35748847015202045440673828125">
        <ele>21</ele>
        <time>2018-09-02T16:01:57.000Z</time>
      </trkpt>
      <trkpt lat="43.30252622254192829132080078125" lon="-2.3574721254408359527587890625">
        <ele>20.3999996185302734375</ele>
        <time>2018-09-02T16:01:58.000Z</time>
      </trkpt>
      <trkpt lat="43.30256897024810314178466796875" lon="-2.35745393671095371246337890625">
        <ele>20.200000762939453125</ele>
        <time>2018-09-02T16:01:59.000Z</time>
      </trkpt>
      <trkpt lat="43.30261138267815113067626953125" lon="-2.35743516124784946441650390625">
        <ele>19.799999237060546875</ele>
        <time>2018-09-02T16:02:00.000Z</time>
      </trkpt>
      <trkpt lat="43.30265161581337451934814453125" lon="-2.35741353593766689300537109375">
        <ele>19.3999996185302734375</ele>
        <time>2018-09-02T16:02:01.000Z</time>
      </trkpt>
      <trkpt lat="43.3026899211108684539794921875" lon="-2.3573889769613742828369140625">
        <ele>18.799999237060546875</ele>
        <time>2018-09-02T16:02:02.000Z</time>
      </trkpt>
      <trkpt lat="43.30272705294191837310791015625" lon="-2.357363663613796234130859375">
        <ele>18.200000762939453125</ele>
        <time>2018-09-02T16:02:03.000Z</time>
      </trkpt>
      <trkpt lat="43.30276309512555599212646484375" lon="-2.3573386855423450469970703125">
        <ele>17.799999237060546875</ele>
        <time>2018-09-02T16:02:04.000Z</time>
      </trkpt>
      <trkpt lat="43.30279670655727386474609375" lon="-2.35731194727122783660888671875">
        <ele>17</ele>
        <time>2018-09-02T16:02:05.000Z</time>
      </trkpt>
      <trkpt lat="43.3028270490467548370361328125" lon="-2.35728294588625431060791015625">
        <ele>16.3999996185302734375</ele>
        <time>2018-09-02T16:02:06.000Z</time>
      </trkpt>
      <trkpt lat="43.302854709327220916748046875" lon="-2.35725461505353450775146484375">
        <ele>15.6000003814697265625</ele>
        <time>2018-09-02T16:02:07.000Z</time>
      </trkpt>
      <trkpt lat="43.30288127996027469635009765625" lon="-2.357227541506290435791015625">
        <ele>15</ele>
        <time>2018-09-02T16:02:08.000Z</time>
      </trkpt>
      <trkpt lat="43.3029060065746307373046875" lon="-2.357200048863887786865234375">
        <ele>14.3999996185302734375</ele>
        <time>2018-09-02T16:02:09.000Z</time>
      </trkpt>
      <trkpt lat="43.3029299788177013397216796875" lon="-2.357171885669231414794921875">
        <ele>13.80000019073486328125</ele>
        <time>2018-09-02T16:02:10.000Z</time>
      </trkpt>
      <trkpt lat="43.30295286141335964202880859375" lon="-2.357143722474575042724609375">
        <ele>13</ele>
        <time>2018-09-02T16:02:11.000Z</time>
      </trkpt>
      <trkpt lat="43.30297348089516162872314453125" lon="-2.3571143858134746551513671875">
        <ele>12.3999996185302734375</ele>
        <time>2018-09-02T16:02:12.000Z</time>
      </trkpt>
      <trkpt lat="43.3029936812818050384521484375" lon="-2.3570845462381839752197265625">
        <ele>11.6000003814697265625</ele>
        <time>2018-09-02T16:02:13.000Z</time>
      </trkpt>
      <trkpt lat="43.30301396548748016357421875" lon="-2.35705755650997161865234375">
        <ele>11</ele>
        <time>2018-09-02T16:02:14.000Z</time>
      </trkpt>
      <trkpt lat="43.3030369319021701812744140625" lon="-2.35703408718109130859375">
        <ele>10.3999996185302734375</ele>
        <time>2018-09-02T16:02:15.000Z</time>
      </trkpt>
      <trkpt lat="43.3030614070594310760498046875" lon="-2.35701371915638446807861328125">
        <ele>9.80000019073486328125</ele>
        <time>2018-09-02T16:02:16.000Z</time>
      </trkpt>
      <trkpt lat="43.30308764241635799407958984375" lon="-2.35699879936873912811279296875">
        <ele>9.6000003814697265625</ele>
        <time>2018-09-02T16:02:17.000Z</time>
      </trkpt>
      <trkpt lat="43.30311530269682407379150390625" lon="-2.35699192620813846588134765625">
        <ele>9.3999996185302734375</ele>
        <time>2018-09-02T16:02:18.000Z</time>
      </trkpt>
      <trkpt lat="43.303143717348575592041015625" lon="-2.35699159093201160430908203125">
        <ele>9.19999980926513671875</ele>
        <time>2018-09-02T16:02:19.000Z</time>
      </trkpt>
      <trkpt lat="43.303173221647739410400390625" lon="-2.356996200978755950927734375">
        <ele>9.19999980926513671875</ele>
        <time>2018-09-02T16:02:20.000Z</time>
      </trkpt>
      <trkpt lat="43.303204067051410675048828125" lon="-2.35700366087257862091064453125">
        <ele>9.19999980926513671875</ele>
        <time>2018-09-02T16:02:21.000Z</time>
      </trkpt>
      <trkpt lat="43.3032347448170185089111328125" lon="-2.3570111207664012908935546875">
        <ele>9.19999980926513671875</ele>
        <time>2018-09-02T16:02:22.000Z</time>
      </trkpt>
      <trkpt lat="43.3032649196684360504150390625" lon="-2.35701891593635082244873046875">
        <ele>9.19999980926513671875</ele>
        <time>2018-09-02T16:02:23.000Z</time>
      </trkpt>
      <trkpt lat="43.30329366959631443023681640625" lon="-2.35702729783952236175537109375">
        <ele>9.19999980926513671875</ele>
        <time>2018-09-02T16:02:24.000Z</time>
      </trkpt>
      <trkpt lat="43.30332241952419281005859375" lon="-2.3570382781326770782470703125">
        <ele>9.19999980926513671875</ele>
        <time>2018-09-02T16:02:25.000Z</time>
      </trkpt>
      <trkpt lat="43.3033497445285320281982421875" lon="-2.35705311410129070281982421875">
        <ele>9.3999996185302734375</ele>
        <time>2018-09-02T16:02:26.000Z</time>
      </trkpt>
      <trkpt lat="43.30337547697126865386962890625" lon="-2.3570718057453632354736328125">
        <ele>9.6000003814697265625</ele>
        <time>2018-09-02T16:02:27.000Z</time>
      </trkpt>
      <trkpt lat="43.30339894630014896392822265625" lon="-2.35709452070295810699462890625">
        <ele>10</ele>
        <time>2018-09-02T16:02:28.000Z</time>
      </trkpt>
      <trkpt lat="43.3034201525151729583740234375" lon="-2.35712268389761447906494140625">
        <ele>10.3999996185302734375</ele>
        <time>2018-09-02T16:02:29.000Z</time>
      </trkpt>
      <trkpt lat="43.3034409396350383758544921875" lon="-2.3571542836725711822509765625">
        <ele>11</ele>
        <time>2018-09-02T16:02:30.000Z</time>
      </trkpt>
      <trkpt lat="43.30346030183136463165283203125" lon="-2.35718856565654277801513671875">
        <ele>11.6000003814697265625</ele>
        <time>2018-09-02T16:02:31.000Z</time>
      </trkpt>
      <trkpt lat="43.30347840674221515655517578125" lon="-2.357223518192768096923828125">
        <ele>12.19999980926513671875</ele>
        <time>2018-09-02T16:02:32.000Z</time>
      </trkpt>
      <trkpt lat="43.303494751453399658203125" lon="-2.35725763253867626190185546875">
        <ele>13</ele>
        <time>2018-09-02T16:02:33.000Z</time>
      </trkpt>
      <trkpt lat="43.30351143144071102142333984375" lon="-2.3572924174368381500244140625">
        <ele>14</ele>
        <time>2018-09-02T16:02:34.000Z</time>
      </trkpt>
      <trkpt lat="43.30352869816124439239501953125" lon="-2.35732711851596832275390625">
        <ele>14.80000019073486328125</ele>
        <time>2018-09-02T16:02:35.000Z</time>
      </trkpt>
      <trkpt lat="43.30354713834822177886962890625" lon="-2.35736190341413021087646484375">
        <ele>15.6000003814697265625</ele>
        <time>2018-09-02T16:02:36.000Z</time>
      </trkpt>
      <trkpt lat="43.3035658299922943115234375" lon="-2.3573963530361652374267578125">
        <ele>16</ele>
        <time>2018-09-02T16:02:37.000Z</time>
      </trkpt>
      <trkpt lat="43.30358334816992282867431640625" lon="-2.35743105411529541015625">
        <ele>15.80000019073486328125</ele>
        <time>2018-09-02T16:02:38.000Z</time>
      </trkpt>
      <trkpt lat="43.30360145308077335357666015625" lon="-2.35746600665152072906494140625">
        <ele>15.80000019073486328125</ele>
        <time>2018-09-02T16:02:39.000Z</time>
      </trkpt>
      <trkpt lat="43.30361888743937015533447265625" lon="-2.35750188119709491729736328125">
        <ele>17.6000003814697265625</ele>
        <time>2018-09-02T16:02:40.000Z</time>
      </trkpt>
      <trkpt lat="43.303635902702808380126953125" lon="-2.3575375042855739593505859375">
        <ele>18.3999996185302734375</ele>
        <time>2018-09-02T16:02:41.000Z</time>
      </trkpt>
      <trkpt lat="43.3036524988710880279541015625" lon="-2.3575730435550212860107421875">
        <ele>19.200000762939453125</ele>
        <time>2018-09-02T16:02:42.000Z</time>
      </trkpt>
      <trkpt lat="43.3036675862967967987060546875" lon="-2.35761017538607120513916015625">
        <ele>20</ele>
        <time>2018-09-02T16:02:43.000Z</time>
      </trkpt>
      <trkpt lat="43.30367940478026866912841796875" lon="-2.3576484806835651397705078125">
        <ele>21</ele>
        <time>2018-09-02T16:02:44.000Z</time>
      </trkpt>
      <trkpt lat="43.30368854105472564697265625" lon="-2.357688881456851959228515625">
        <ele>21.799999237060546875</ele>
        <time>2018-09-02T16:02:45.000Z</time>
      </trkpt>
      <trkpt lat="43.30369600094854831695556640625" lon="-2.35773154534399509429931640625">
        <ele>22.799999237060546875</ele>
        <time>2018-09-02T16:02:46.000Z</time>
      </trkpt>
      <trkpt lat="43.303702957928180694580078125" lon="-2.35777630470693111419677734375">
        <ele>23.799999237060546875</ele>
        <time>2018-09-02T16:02:47.000Z</time>
      </trkpt>
      <trkpt lat="43.30370957963168621063232421875" lon="-2.35782240517437458038330078125">
        <ele>25</ele>
        <time>2018-09-02T16:02:48.000Z</time>
      </trkpt>
      <trkpt lat="43.3037148602306842803955078125" lon="-2.3578684218227863311767578125">
        <ele>26</ele>
        <time>2018-09-02T16:02:49.000Z</time>
      </trkpt>
      <trkpt lat="43.30371662043035030364990234375" lon="-2.35791510902345180511474609375">
        <ele>27</ele>
        <time>2018-09-02T16:02:50.000Z</time>
      </trkpt>
      <trkpt lat="43.30371695570647716522216796875" lon="-2.35796305350959300994873046875">
        <ele>28.200000762939453125</ele>
        <time>2018-09-02T16:02:51.000Z</time>
      </trkpt>
      <trkpt lat="43.30371804535388946533203125" lon="-2.3580119200050830841064453125">
        <ele>29.200000762939453125</ele>
        <time>2018-09-02T16:02:52.000Z</time>
      </trkpt>
      <trkpt lat="43.303718380630016326904296875" lon="-2.35806028358638286590576171875">
        <ele>30.200000762939453125</ele>
        <time>2018-09-02T16:02:53.000Z</time>
      </trkpt>
      <trkpt lat="43.30371477641165256500244140625" lon="-2.35810973681509494781494140625">
        <ele>29.3999996185302734375</ele>
        <time>2018-09-02T16:02:54.000Z</time>
      </trkpt>
      <trkpt lat="43.30370731651782989501953125" lon="-2.35816103406250476837158203125">
        <ele>28.6000003814697265625</ele>
        <time>2018-09-02T16:02:55.000Z</time>
      </trkpt>
      <trkpt lat="43.30369767732918262481689453125" lon="-2.3582144267857074737548828125">
        <ele>27.799999237060546875</ele>
        <time>2018-09-02T16:02:56.000Z</time>
      </trkpt>
      <trkpt lat="43.3036913909018039703369140625" lon="-2.35827066935598850250244140625">
        <ele>26.799999237060546875</ele>
        <time>2018-09-02T16:02:57.000Z</time>
      </trkpt>
      <trkpt lat="43.30369063653051853179931640625" lon="-2.3583294264972209930419921875">
        <ele>26.6000003814697265625</ele>
        <time>2018-09-02T16:02:58.000Z</time>
      </trkpt>
      <trkpt lat="43.3036937378346920013427734375" lon="-2.35838851891458034515380859375">
        <ele>27.6000003814697265625</ele>
        <time>2018-09-02T16:02:59.000Z</time>
      </trkpt>
      <trkpt lat="43.30369851551949977874755859375" lon="-2.3584474436938762664794921875">
        <ele>28.6000003814697265625</ele>
        <time>2018-09-02T16:03:00.000Z</time>
      </trkpt>
      <trkpt lat="43.30370505340397357940673828125" lon="-2.35850553028285503387451171875">
        <ele>29.3999996185302734375</ele>
        <time>2018-09-02T16:03:01.000Z</time>
      </trkpt>
      <trkpt lat="43.30371226184070110321044921875" lon="-2.35856353305280208587646484375">
        <ele>30.3999996185302734375</ele>
        <time>2018-09-02T16:03:02.000Z</time>
      </trkpt>
      <trkpt lat="43.3037202246487140655517578125" lon="-2.3586201108992099761962890625">
        <ele>31.200000762939453125</ele>
        <time>2018-09-02T16:03:03.000Z</time>
      </trkpt>
      <trkpt lat="43.3037282712757587432861328125" lon="-2.3586784489452838897705078125">
        <ele>32</ele>
        <time>2018-09-02T16:03:04.000Z</time>
      </trkpt>
      <trkpt lat="43.30373824574053287506103515625" lon="-2.3587357811629772186279296875">
        <ele>32.59999847412109375</ele>
        <time>2018-09-02T16:03:05.000Z</time>
      </trkpt>
      <trkpt lat="43.30374998040497303009033203125" lon="-2.3587924428284168243408203125">
        <ele>33.40000152587890625</ele>
        <time>2018-09-02T16:03:06.000Z</time>
      </trkpt>
      <trkpt lat="43.30376255325973033905029296875" lon="-2.35884885303676128387451171875">
        <ele>33.799999237060546875</ele>
        <time>2018-09-02T16:03:07.000Z</time>
      </trkpt>
      <trkpt lat="43.303776048123836517333984375" lon="-2.3589047603309154510498046875">
        <ele>33.200000762939453125</ele>
        <time>2018-09-02T16:03:08.000Z</time>
      </trkpt>
      <trkpt lat="43.30379021354019641876220703125" lon="-2.35895982943475246429443359375">
        <ele>32.59999847412109375</ele>
        <time>2018-09-02T16:03:09.000Z</time>
      </trkpt>
      <trkpt lat="43.3038053847849369049072265625" lon="-2.3590148985385894775390625">
        <ele>31.799999237060546875</ele>
        <time>2018-09-02T16:03:10.000Z</time>
      </trkpt>
      <trkpt lat="43.30382089130580425262451171875" lon="-2.3590683750808238983154296875">
        <ele>31.200000762939453125</ele>
        <time>2018-09-02T16:03:11.000Z</time>
      </trkpt>
      <trkpt lat="43.30383597873151302337646484375" lon="-2.359121851623058319091796875">
        <ele>30.3999996185302734375</ele>
        <time>2018-09-02T16:03:12.000Z</time>
      </trkpt>
      <trkpt lat="43.3038516528904438018798828125" lon="-2.3591749928891658782958984375">
        <ele>30.3999996185302734375</ele>
        <time>2018-09-02T16:03:13.000Z</time>
      </trkpt>
      <trkpt lat="43.30386732704937458038330078125" lon="-2.3592281341552734375">
        <ele>30.6000003814697265625</ele>
        <time>2018-09-02T16:03:14.000Z</time>
      </trkpt>
      <trkpt lat="43.303881995379924774169921875" lon="-2.359281443059444427490234375">
        <ele>31.200000762939453125</ele>
        <time>2018-09-02T16:03:15.000Z</time>
      </trkpt>
      <trkpt lat="43.30389565788209438323974609375" lon="-2.3593355901539325714111328125">
        <ele>31.6000003814697265625</ele>
        <time>2018-09-02T16:03:16.000Z</time>
      </trkpt>
      <trkpt lat="43.30390923656523227691650390625" lon="-2.3593902401626110076904296875">
        <ele>32.200000762939453125</ele>
        <time>2018-09-02T16:03:17.000Z</time>
      </trkpt>
      <trkpt lat="43.30392482690513134002685546875" lon="-2.35944430343806743621826171875">
        <ele>32.59999847412109375</ele>
        <time>2018-09-02T16:03:18.000Z</time>
      </trkpt>
      <trkpt lat="43.30394175834953784942626953125" lon="-2.3594981990754604339599609375">
        <ele>33</ele>
        <time>2018-09-02T16:03:19.000Z</time>
      </trkpt>
      <trkpt lat="43.3039579354226589202880859375" lon="-2.35955192707479000091552734375">
        <ele>32.59999847412109375</ele>
        <time>2018-09-02T16:03:20.000Z</time>
      </trkpt>
      <trkpt lat="43.3039730228483676910400390625" lon="-2.35960657708346843719482421875">
        <ele>32.40000152587890625</ele>
        <time>2018-09-02T16:03:21.000Z</time>
      </trkpt>
      <trkpt lat="43.30398802645504474639892578125" lon="-2.3596608079969882965087890625">
        <ele>32.200000762939453125</ele>
        <time>2018-09-02T16:03:22.000Z</time>
      </trkpt>
      <trkpt lat="43.30400344915688037872314453125" lon="-2.35971537418663501739501953125">
        <ele>32</ele>
        <time>2018-09-02T16:03:23.000Z</time>
      </trkpt>
      <trkpt lat="43.30401870422065258026123046875" lon="-2.35976901836693286895751953125">
        <ele>31.799999237060546875</ele>
        <time>2018-09-02T16:03:24.000Z</time>
      </trkpt>
      <trkpt lat="43.3040340431034564971923828125" lon="-2.3598217405378818511962890625">
        <ele>31.3999996185302734375</ele>
        <time>2018-09-02T16:03:25.000Z</time>
      </trkpt>
      <trkpt lat="43.30404854379594326019287109375" lon="-2.35987479798495769500732421875">
        <ele>31.200000762939453125</ele>
        <time>2018-09-02T16:03:26.000Z</time>
      </trkpt>
      <trkpt lat="43.3040628768503665924072265625" lon="-2.35992827452719211578369140625">
        <ele>31.200000762939453125</ele>
        <time>2018-09-02T16:03:27.000Z</time>
      </trkpt>
      <trkpt lat="43.3040782995522022247314453125" lon="-2.359980829060077667236328125">
        <ele>30.799999237060546875</ele>
        <time>2018-09-02T16:03:28.000Z</time>
      </trkpt>
      <trkpt lat="43.3040930517017841339111328125" lon="-2.3600329644978046417236328125">
        <ele>30.6000003814697265625</ele>
        <time>2018-09-02T16:03:29.000Z</time>
      </trkpt>
      <trkpt lat="43.30410738475620746612548828125" lon="-2.360085435211658477783203125">
        <ele>30.6000003814697265625</ele>
        <time>2018-09-02T16:03:30.000Z</time>
      </trkpt>
      <trkpt lat="43.3041208796203136444091796875" lon="-2.36013698391616344451904296875">
        <ele>30.3999996185302734375</ele>
        <time>2018-09-02T16:03:31.000Z</time>
      </trkpt>
      <trkpt lat="43.30413336865603923797607421875" lon="-2.3601868562400341033935546875">
        <ele>30.799999237060546875</ele>
        <time>2018-09-02T16:03:32.000Z</time>
      </trkpt>
      <trkpt lat="43.30414719879627227783203125" lon="-2.3602354712784290313720703125">
        <ele>31.200000762939453125</ele>
        <time>2018-09-02T16:03:33.000Z</time>
      </trkpt>
      <trkpt lat="43.30416220240294933319091796875" lon="-2.36028425395488739013671875">
        <ele>31.6000003814697265625</ele>
        <time>2018-09-02T16:03:34.000Z</time>
      </trkpt>
      <trkpt lat="43.3041762001812458038330078125" lon="-2.36033261753618717193603515625">
        <ele>32</ele>
        <time>2018-09-02T16:03:35.000Z</time>
      </trkpt>
      <trkpt lat="43.30418952740728855133056640625" lon="-2.360380478203296661376953125">
        <ele>32.40000152587890625</ele>
        <time>2018-09-02T16:03:36.000Z</time>
      </trkpt>
      <trkpt lat="43.3042033575475215911865234375" lon="-2.36042833887040615081787109375">
        <ele>33</ele>
        <time>2018-09-02T16:03:37.000Z</time>
      </trkpt>
      <trkpt lat="43.3042177744209766387939453125" lon="-2.3604748584330081939697265625">
        <ele>33.200000762939453125</ele>
        <time>2018-09-02T16:03:38.000Z</time>
      </trkpt>
      <trkpt lat="43.30423193983733654022216796875" lon="-2.360518611967563629150390625">
        <ele>33.59999847412109375</ele>
        <time>2018-09-02T16:03:39.000Z</time>
      </trkpt>
      <trkpt lat="43.3042452670633792877197265625" lon="-2.360562868416309356689453125">
        <ele>33.799999237060546875</ele>
        <time>2018-09-02T16:03:40.000Z</time>
      </trkpt>
      <trkpt lat="43.30425918102264404296875" lon="-2.36060989089310169219970703125">
        <ele>34.200000762939453125</ele>
        <time>2018-09-02T16:03:41.000Z</time>
      </trkpt>
      <trkpt lat="43.30427326261997222900390625" lon="-2.36065716482698917388916015625">
        <ele>34.59999847412109375</ele>
        <time>2018-09-02T16:03:42.000Z</time>
      </trkpt>
      <trkpt lat="43.30428843386471271514892578125" lon="-2.36070477403700351715087890625">
        <ele>35</ele>
        <time>2018-09-02T16:03:43.000Z</time>
      </trkpt>
      <trkpt lat="43.304304778575897216796875" lon="-2.3607514612376689910888671875">
        <ele>35.40000152587890625</ele>
        <time>2018-09-02T16:03:44.000Z</time>
      </trkpt>
      <trkpt lat="43.3043227158486843109130859375" lon="-2.36079655587673187255859375">
        <ele>36</ele>
        <time>2018-09-02T16:03:45.000Z</time>
      </trkpt>
      <trkpt lat="43.30433922819793224334716796875" lon="-2.3608416505157947540283203125">
        <ele>36</ele>
        <time>2018-09-02T16:03:46.000Z</time>
      </trkpt>
      <trkpt lat="43.30435146577656269073486328125" lon="-2.36088716425001621246337890625">
        <ele>36.200000762939453125</ele>
        <time>2018-09-02T16:03:47.000Z</time>
      </trkpt>
      <trkpt lat="43.30436311662197113037109375" lon="-2.36093292944133281707763671875">
        <ele>36.59999847412109375</ele>
        <time>2018-09-02T16:03:48.000Z</time>
      </trkpt>
      <trkpt lat="43.30437778495252132415771484375" lon="-2.36097735352814197540283203125">
        <ele>36.799999237060546875</ele>
        <time>2018-09-02T16:03:49.000Z</time>
      </trkpt>
      <trkpt lat="43.30439371056854724884033203125" lon="-2.36102211289107799530029296875">
        <ele>37</ele>
        <time>2018-09-02T16:03:50.000Z</time>
      </trkpt>
      <trkpt lat="43.30440963618457317352294921875" lon="-2.3610667884349822998046875">
        <ele>37.200000762939453125</ele>
        <time>2018-09-02T16:03:51.000Z</time>
      </trkpt>
      <trkpt lat="43.3044254779815673828125" lon="-2.3611105419695377349853515625">
        <ele>37.200000762939453125</ele>
        <time>2018-09-02T16:03:52.000Z</time>
      </trkpt>
      <trkpt lat="43.3044403977692127227783203125" lon="-2.36115521751344203948974609375">
        <ele>37.40000152587890625</ele>
        <time>2018-09-02T16:03:53.000Z</time>
      </trkpt>
      <trkpt lat="43.30445573665201663970947265625" lon="-2.36119997687637805938720703125">
        <ele>37.59999847412109375</ele>
        <time>2018-09-02T16:03:54.000Z</time>
      </trkpt>
      <trkpt lat="43.30447082407772541046142578125" lon="-2.36124515533447265625">
        <ele>37.799999237060546875</ele>
        <time>2018-09-02T16:03:55.000Z</time>
      </trkpt>
      <trkpt lat="43.30448607914149761199951171875" lon="-2.36129050143063068389892578125">
        <ele>38</ele>
        <time>2018-09-02T16:03:56.000Z</time>
      </trkpt>
      <trkpt lat="43.3045017533004283905029296875" lon="-2.36133593134582042694091796875">
        <ele>38.200000762939453125</ele>
        <time>2018-09-02T16:03:57.000Z</time>
      </trkpt>
      <trkpt lat="43.3045171760022640228271484375" lon="-2.3613814450800418853759765625">
        <ele>38.40000152587890625</ele>
        <time>2018-09-02T16:03:58.000Z</time>
      </trkpt>
      <trkpt lat="43.3045325987040996551513671875" lon="-2.3614267073571681976318359375">
        <ele>38.40000152587890625</ele>
        <time>2018-09-02T16:03:59.000Z</time>
      </trkpt>
      <trkpt lat="43.30454709939658641815185546875" lon="-2.361472137272357940673828125">
        <ele>38</ele>
        <time>2018-09-02T16:04:00.000Z</time>
      </trkpt>
      <trkpt lat="43.304562605917453765869140625" lon="-2.361517064273357391357421875">
        <ele>37.59999847412109375</ele>
        <time>2018-09-02T16:04:01.000Z</time>
      </trkpt>
      <trkpt lat="43.3045770227909088134765625" lon="-2.36156224273145198822021484375">
        <ele>37.40000152587890625</ele>
        <time>2018-09-02T16:04:02.000Z</time>
      </trkpt>
      <trkpt lat="43.304591439664363861083984375" lon="-2.36160666681826114654541015625">
        <ele>37</ele>
        <time>2018-09-02T16:04:03.000Z</time>
      </trkpt>
      <trkpt lat="43.30460661090910434722900390625" lon="-2.36165125854313373565673828125">
        <ele>36.59999847412109375</ele>
        <time>2018-09-02T16:04:04.000Z</time>
      </trkpt>
      <trkpt lat="43.304622285068035125732421875" lon="-2.36169534735381603240966796875">
        <ele>36.40000152587890625</ele>
        <time>2018-09-02T16:04:05.000Z</time>
      </trkpt>
      <trkpt lat="43.3046378754079341888427734375" lon="-2.36173935234546661376953125">
        <ele>36</ele>
        <time>2018-09-02T16:04:06.000Z</time>
      </trkpt>
      <trkpt lat="43.304653130471706390380859375" lon="-2.3617829382419586181640625">
        <ele>35.799999237060546875</ele>
        <time>2018-09-02T16:04:07.000Z</time>
      </trkpt>
      <trkpt lat="43.3046687208116054534912109375" lon="-2.36182644031941890716552734375">
        <ele>35.59999847412109375</ele>
        <time>2018-09-02T16:04:08.000Z</time>
      </trkpt>
      <trkpt lat="43.30468322150409221649169921875" lon="-2.3618689365684986114501953125">
        <ele>35.40000152587890625</ele>
        <time>2018-09-02T16:04:09.000Z</time>
      </trkpt>
      <trkpt lat="43.30469763837754726409912109375" lon="-2.36191126517951488494873046875">
        <ele>35.200000762939453125</ele>
        <time>2018-09-02T16:04:10.000Z</time>
      </trkpt>
      <trkpt lat="43.3047123067080974578857421875" lon="-2.36195384524762630462646484375">
        <ele>34.799999237060546875</ele>
        <time>2018-09-02T16:04:11.000Z</time>
      </trkpt>
      <trkpt lat="43.3047272264957427978515625" lon="-2.3619975149631500244140625">
        <ele>34.59999847412109375</ele>
        <time>2018-09-02T16:04:12.000Z</time>
      </trkpt>
      <trkpt lat="43.30474273301661014556884765625" lon="-2.36204168759286403656005859375">
        <ele>34.40000152587890625</ele>
        <time>2018-09-02T16:04:13.000Z</time>
      </trkpt>
      <trkpt lat="43.30475815571844577789306640625" lon="-2.36208678223192691802978515625">
        <ele>34.40000152587890625</ele>
        <time>2018-09-02T16:04:14.000Z</time>
      </trkpt>
      <trkpt lat="43.30477458424866199493408203125" lon="-2.3621311224997043609619140625">
        <ele>34.200000762939453125</ele>
        <time>2018-09-02T16:04:15.000Z</time>
      </trkpt>
      <trkpt lat="43.304789923131465911865234375" lon="-2.362175881862640380859375">
        <ele>34</ele>
        <time>2018-09-02T16:04:16.000Z</time>
      </trkpt>
      <trkpt lat="43.3048058487474918365478515625" lon="-2.36222106032073497772216796875">
        <ele>34</ele>
        <time>2018-09-02T16:04:17.000Z</time>
      </trkpt>
      <trkpt lat="43.30482286401093006134033203125" lon="-2.36226615495979785919189453125">
        <ele>33.799999237060546875</ele>
        <time>2018-09-02T16:04:18.000Z</time>
      </trkpt>
      <trkpt lat="43.30484013073146343231201171875" lon="-2.36231259070336818695068359375">
        <ele>33.59999847412109375</ele>
        <time>2018-09-02T16:04:19.000Z</time>
      </trkpt>
      <trkpt lat="43.30485689453780651092529296875" lon="-2.36236019991338253021240234375">
        <ele>33.59999847412109375</ele>
        <time>2018-09-02T16:04:20.000Z</time>
      </trkpt>
      <trkpt lat="43.3048732392489910125732421875" lon="-2.362408228218555450439453125">
        <ele>33.40000152587890625</ele>
        <time>2018-09-02T16:04:21.000Z</time>
      </trkpt>
      <trkpt lat="43.30488991923630237579345703125" lon="-2.36245625652372837066650390625">
        <ele>33.200000762939453125</ele>
        <time>2018-09-02T16:04:22.000Z</time>
      </trkpt>
      <trkpt lat="43.30490701831877231597900390625" lon="-2.362505458295345306396484375">
        <ele>32.59999847412109375</ele>
        <time>2018-09-02T16:04:23.000Z</time>
      </trkpt>
      <trkpt lat="43.3049242012202739715576171875" lon="-2.36255449242889881134033203125">
        <ele>31.3999996185302734375</ele>
        <time>2018-09-02T16:04:24.000Z</time>
      </trkpt>
      <trkpt lat="43.30494104884564876556396484375" lon="-2.3626041971147060394287109375">
        <ele>30.3999996185302734375</ele>
        <time>2018-09-02T16:04:25.000Z</time>
      </trkpt>
      <trkpt lat="43.30495856702327728271484375" lon="-2.362652979791164398193359375">
        <ele>29.200000762939453125</ele>
        <time>2018-09-02T16:04:26.000Z</time>
      </trkpt>
      <trkpt lat="43.30497524701058864593505859375" lon="-2.36270000226795673370361328125">
        <ele>29.3999996185302734375</ele>
        <time>2018-09-02T16:04:27.000Z</time>
      </trkpt>
      <trkpt lat="43.304991424083709716796875" lon="-2.36274694092571735382080078125">
        <ele>29.6000003814697265625</ele>
        <time>2018-09-02T16:04:28.000Z</time>
      </trkpt>
      <trkpt lat="43.30500659532845020294189453125" lon="-2.36279622651636600494384765625">
        <ele>29.799999237060546875</ele>
        <time>2018-09-02T16:04:29.000Z</time>
      </trkpt>
      <trkpt lat="43.305021263659000396728515625" lon="-2.36284534446895122528076171875">
        <ele>30</ele>
        <time>2018-09-02T16:04:30.000Z</time>
      </trkpt>
      <trkpt lat="43.30503392033278942108154296875" lon="-2.36289496533572673797607421875">
        <ele>30.200000762939453125</ele>
        <time>2018-09-02T16:04:31.000Z</time>
      </trkpt>
      <trkpt lat="43.30504573881626129150390625" lon="-2.36294743604958057403564453125">
        <ele>30.6000003814697265625</ele>
        <time>2018-09-02T16:04:32.000Z</time>
      </trkpt>
      <trkpt lat="43.30505638383328914642333984375" lon="-2.3630011640489101409912109375">
        <ele>31</ele>
        <time>2018-09-02T16:04:33.000Z</time>
      </trkpt>
      <trkpt lat="43.3050663582980632781982421875" lon="-2.3630534671247005462646484375">
        <ele>31.6000003814697265625</ele>
        <time>2018-09-02T16:04:34.000Z</time>
      </trkpt>
      <trkpt lat="43.3050730638206005096435546875" lon="-2.3631074465811252593994140625">
        <ele>32</ele>
        <time>2018-09-02T16:04:35.000Z</time>
      </trkpt>
      <trkpt lat="43.30507767386734485626220703125" lon="-2.36316435970366001129150390625">
        <ele>32.799999237060546875</ele>
        <time>2018-09-02T16:04:36.000Z</time>
      </trkpt>
      <trkpt lat="43.30507834441959857940673828125" lon="-2.3632231168448925018310546875">
        <ele>33.59999847412109375</ele>
        <time>2018-09-02T16:04:37.000Z</time>
      </trkpt>
      <trkpt lat="43.305077590048313140869140625" lon="-2.36328287981450557708740234375">
        <ele>34.40000152587890625</ele>
        <time>2018-09-02T16:04:38.000Z</time>
      </trkpt>
      <trkpt lat="43.30507549457252025604248046875" lon="-2.36334322951734066009521484375">
        <ele>34.799999237060546875</ele>
        <time>2018-09-02T16:04:39.000Z</time>
      </trkpt>
      <trkpt lat="43.30506912432610988616943359375" lon="-2.363404668867588043212890625">
        <ele>34.799999237060546875</ele>
        <time>2018-09-02T16:04:40.000Z</time>
      </trkpt>
      <trkpt lat="43.3050586469471454620361328125" lon="-2.363466359674930572509765625">
        <ele>34.799999237060546875</ele>
        <time>2018-09-02T16:04:41.000Z</time>
      </trkpt>
      <trkpt lat="43.3050455711781978607177734375" lon="-2.363528050482273101806640625">
        <ele>34.799999237060546875</ele>
        <time>2018-09-02T16:04:42.000Z</time>
      </trkpt>
      <trkpt lat="43.30502972938120365142822265625" lon="-2.36358965747058391571044921875">
        <ele>35</ele>
        <time>2018-09-02T16:04:43.000Z</time>
      </trkpt>
      <trkpt lat="43.30501061864197254180908203125" lon="-2.3636522702872753143310546875">
        <ele>35.40000152587890625</ele>
        <time>2018-09-02T16:04:44.000Z</time>
      </trkpt>
      <trkpt lat="43.3049882389605045318603515625" lon="-2.3637156374752521514892578125">
        <ele>35.799999237060546875</ele>
        <time>2018-09-02T16:04:45.000Z</time>
      </trkpt>
      <trkpt lat="43.304961584508419036865234375" lon="-2.3637800104916095733642578125">
        <ele>36.40000152587890625</ele>
        <time>2018-09-02T16:04:46.000Z</time>
      </trkpt>
      <trkpt lat="43.3049310743808746337890625" lon="-2.36384564079344272613525390625">
        <ele>37.200000762939453125</ele>
        <time>2018-09-02T16:04:47.000Z</time>
      </trkpt>
      <trkpt lat="43.30489930696785449981689453125" lon="-2.3639114387333393096923828125">
        <ele>37.799999237060546875</ele>
        <time>2018-09-02T16:04:48.000Z</time>
      </trkpt>
      <trkpt lat="43.30486745573580265045166015625" lon="-2.3639798350632190704345703125">
        <ele>38.59999847412109375</ele>
        <time>2018-09-02T16:04:49.000Z</time>
      </trkpt>
      <trkpt lat="43.30483661033213138580322265625" lon="-2.3640525899827480316162109375">
        <ele>39.200000762939453125</ele>
        <time>2018-09-02T16:04:50.000Z</time>
      </trkpt>
      <trkpt lat="43.3048085309565067291259765625" lon="-2.36412760801613330841064453125">
        <ele>39.799999237060546875</ele>
        <time>2018-09-02T16:04:51.000Z</time>
      </trkpt>
      <trkpt lat="43.30478279851377010345458984375" lon="-2.36420539207756519317626953125">
        <ele>40.59999847412109375</ele>
        <time>2018-09-02T16:04:52.000Z</time>
      </trkpt>
      <trkpt lat="43.304760754108428955078125" lon="-2.364285774528980255126953125">
        <ele>41.200000762939453125</ele>
        <time>2018-09-02T16:04:53.000Z</time>
      </trkpt>
      <trkpt lat="43.30474591813981533050537109375" lon="-2.36436925828456878662109375">
        <ele>41.799999237060546875</ele>
        <time>2018-09-02T16:04:54.000Z</time>
      </trkpt>
      <trkpt lat="43.3047371171414852142333984375" lon="-2.36445416696369647979736328125">
        <ele>42</ele>
        <time>2018-09-02T16:04:55.000Z</time>
      </trkpt>
      <trkpt lat="43.3047320879995822906494140625" lon="-2.3645389080047607421875">
        <ele>42</ele>
        <time>2018-09-02T16:04:56.000Z</time>
      </trkpt>
      <trkpt lat="43.3047290705144405364990234375" lon="-2.36462381668388843536376953125">
        <ele>41.59999847412109375</ele>
        <time>2018-09-02T16:04:57.000Z</time>
      </trkpt>
      <trkpt lat="43.30472789704799652099609375" lon="-2.364707887172698974609375">
        <ele>41.200000762939453125</ele>
        <time>2018-09-02T16:04:58.000Z</time>
      </trkpt>
      <trkpt lat="43.3047270588576793670654296875" lon="-2.3647912032902240753173828125">
        <ele>40.799999237060546875</ele>
        <time>2018-09-02T16:04:59.000Z</time>
      </trkpt>
      <trkpt lat="43.3047257177531719207763671875" lon="-2.3648743517696857452392578125">
        <ele>40.200000762939453125</ele>
        <time>2018-09-02T16:05:00.000Z</time>
      </trkpt>
      <trkpt lat="43.30472387373447418212890625" lon="-2.364957332611083984375">
        <ele>39.799999237060546875</ele>
        <time>2018-09-02T16:05:01.000Z</time>
      </trkpt>
      <trkpt lat="43.30472119152545928955078125" lon="-2.36503888852894306182861328125">
        <ele>39.59999847412109375</ele>
        <time>2018-09-02T16:05:02.000Z</time>
      </trkpt>
      <trkpt lat="43.3047193475067615509033203125" lon="-2.3651197738945484161376953125">
        <ele>39.200000762939453125</ele>
        <time>2018-09-02T16:05:03.000Z</time>
      </trkpt>
      <trkpt lat="43.3047190122306346893310546875" lon="-2.36520099453628063201904296875">
        <ele>38.799999237060546875</ele>
        <time>2018-09-02T16:05:04.000Z</time>
      </trkpt>
      <trkpt lat="43.3047186769545078277587890625" lon="-2.3652820475399494171142578125">
        <ele>38.40000152587890625</ele>
        <time>2018-09-02T16:05:05.000Z</time>
      </trkpt>
      <trkpt lat="43.3047180064022541046142578125" lon="-2.3653635196387767791748046875">
        <ele>38.200000762939453125</ele>
        <time>2018-09-02T16:05:06.000Z</time>
      </trkpt>
      <trkpt lat="43.3047170005738735198974609375" lon="-2.3654446564614772796630859375">
        <ele>38</ele>
        <time>2018-09-02T16:05:07.000Z</time>
      </trkpt>
      <trkpt lat="43.3047156594693660736083984375" lon="-2.365525625646114349365234375">
        <ele>38</ele>
        <time>2018-09-02T16:05:08.000Z</time>
      </trkpt>
      <trkpt lat="43.30471456982195377349853515625" lon="-2.36560600809752941131591796875">
        <ele>38.200000762939453125</ele>
        <time>2018-09-02T16:05:09.000Z</time>
      </trkpt>
      <trkpt lat="43.3047136478126049041748046875" lon="-2.36568613909184932708740234375">
        <ele>38.200000762939453125</ele>
        <time>2018-09-02T16:05:10.000Z</time>
      </trkpt>
      <trkpt lat="43.3047109656035900115966796875" lon="-2.36576643772423267364501953125">
        <ele>38.200000762939453125</ele>
        <time>2018-09-02T16:05:11.000Z</time>
      </trkpt>
      <trkpt lat="43.30470534972846508026123046875" lon="-2.36584723927080631256103515625">
        <ele>38.59999847412109375</ele>
        <time>2018-09-02T16:05:12.000Z</time>
      </trkpt>
      <trkpt lat="43.3047002367675304412841796875" lon="-2.36592837609350681304931640625">
        <ele>39.200000762939453125</ele>
        <time>2018-09-02T16:05:13.000Z</time>
      </trkpt>
      <trkpt lat="43.30469981767237186431884765625" lon="-2.36601001583039760589599609375">
        <ele>39.59999847412109375</ele>
        <time>2018-09-02T16:05:14.000Z</time>
      </trkpt>
      <trkpt lat="43.3047029189765453338623046875" lon="-2.36609182320535182952880859375">
        <ele>39.799999237060546875</ele>
        <time>2018-09-02T16:05:15.000Z</time>
      </trkpt>
      <trkpt lat="43.30470778048038482666015625" lon="-2.36617346294224262237548828125">
        <ele>40</ele>
        <time>2018-09-02T16:05:16.000Z</time>
      </trkpt>
      <trkpt lat="43.3047138154506683349609375" lon="-2.3662555217742919921875">
        <ele>40.40000152587890625</ele>
        <time>2018-09-02T16:05:17.000Z</time>
      </trkpt>
      <trkpt lat="43.304721526801586151123046875" lon="-2.36633741296827793121337890625">
        <ele>41</ele>
        <time>2018-09-02T16:05:18.000Z</time>
      </trkpt>
      <trkpt lat="43.30473116599023342132568359375" lon="-2.36641787923872470855712890625">
        <ele>41.40000152587890625</ele>
        <time>2018-09-02T16:05:19.000Z</time>
      </trkpt>
      <trkpt lat="43.30474172718822956085205078125" lon="-2.36649633385241031646728515625">
        <ele>41.799999237060546875</ele>
        <time>2018-09-02T16:05:20.000Z</time>
      </trkpt>
      <trkpt lat="43.3047535456717014312744140625" lon="-2.366573028266429901123046875">
        <ele>42.200000762939453125</ele>
        <time>2018-09-02T16:05:21.000Z</time>
      </trkpt>
      <trkpt lat="43.30476720817387104034423828125" lon="-2.36664720810949802398681640625">
        <ele>42.59999847412109375</ele>
        <time>2018-09-02T16:05:22.000Z</time>
      </trkpt>
      <trkpt lat="43.30478212796151638031005859375" lon="-2.366719208657741546630859375">
        <ele>43.40000152587890625</ele>
        <time>2018-09-02T16:05:23.000Z</time>
      </trkpt>
      <trkpt lat="43.30479771830141544342041015625" lon="-2.3667894490063190460205078125">
        <ele>44.200000762939453125</ele>
        <time>2018-09-02T16:05:24.000Z</time>
      </trkpt>
      <trkpt lat="43.30481532029807567596435546875" lon="-2.36685742624104022979736328125">
        <ele>45</ele>
        <time>2018-09-02T16:05:25.000Z</time>
      </trkpt>
      <trkpt lat="43.30483409576117992401123046875" lon="-2.36692364327609539031982421875">
        <ele>45.799999237060546875</ele>
        <time>2018-09-02T16:05:26.000Z</time>
      </trkpt>
      <trkpt lat="43.304851613938808441162109375" lon="-2.36698768101632595062255859375">
        <ele>46</ele>
        <time>2018-09-02T16:05:27.000Z</time>
      </trkpt>
      <trkpt lat="43.30487139523029327392578125" lon="-2.36704786308109760284423828125">
        <ele>46.200000762939453125</ele>
        <time>2018-09-02T16:05:28.000Z</time>
      </trkpt>
      <trkpt lat="43.3048916794359683990478515625" lon="-2.36710402183234691619873046875">
        <ele>46.200000762939453125</ele>
        <time>2018-09-02T16:05:29.000Z</time>
      </trkpt>
      <trkpt lat="43.30491288565099239349365234375" lon="-2.36715615727007389068603515625">
        <ele>46</ele>
        <time>2018-09-02T16:05:30.000Z</time>
      </trkpt>
      <trkpt lat="43.304933421313762664794921875" lon="-2.3672048561275005340576171875">
        <ele>45.799999237060546875</ele>
        <time>2018-09-02T16:05:31.000Z</time>
      </trkpt>
      <trkpt lat="43.3049533702433109283447265625" lon="-2.36725003458559513092041015625">
        <ele>45.799999237060546875</ele>
        <time>2018-09-02T16:05:32.000Z</time>
      </trkpt>
      <trkpt lat="43.30497189424932003021240234375" lon="-2.36729152500629425048828125">
        <ele>45.59999847412109375</ele>
        <time>2018-09-02T16:05:33.000Z</time>
      </trkpt>
      <trkpt lat="43.30498832277953624725341796875" lon="-2.36733033321797847747802734375">
        <ele>45.40000152587890625</ele>
        <time>2018-09-02T16:05:34.000Z</time>
      </trkpt>
      <trkpt lat="43.30500206910073757171630859375" lon="-2.367366291582584381103515625">
        <ele>45.40000152587890625</ele>
        <time>2018-09-02T16:05:35.000Z</time>
      </trkpt>
      <trkpt lat="43.305017910897731781005859375" lon="-2.3674006573855876922607421875">
        <ele>45.40000152587890625</ele>
        <time>2018-09-02T16:05:36.000Z</time>
      </trkpt>
      <trkpt lat="43.30503442324697971343994140625" lon="-2.36743359826505184173583984375">
        <ele>45.200000762939453125</ele>
        <time>2018-09-02T16:05:37.000Z</time>
      </trkpt>
      <trkpt lat="43.30505152232944965362548828125" lon="-2.367465198040008544921875">
        <ele>45</ele>
        <time>2018-09-02T16:05:38.000Z</time>
      </trkpt>
      <trkpt lat="43.30506728030741214752197265625" lon="-2.36749663017690181732177734375">
        <ele>44.799999237060546875</ele>
        <time>2018-09-02T16:05:39.000Z</time>
      </trkpt>
      <trkpt lat="43.30508337356150150299072265625" lon="-2.36752848140895366668701171875">
        <ele>45</ele>
        <time>2018-09-02T16:05:40.000Z</time>
      </trkpt>
      <trkpt lat="43.30509879626333713531494140625" lon="-2.3675589077174663543701171875">
        <ele>45.200000762939453125</ele>
        <time>2018-09-02T16:05:41.000Z</time>
      </trkpt>
      <trkpt lat="43.3051132969558238983154296875" lon="-2.36758732236921787261962890625">
        <ele>45.40000152587890625</ele>
        <time>2018-09-02T16:05:42.000Z</time>
      </trkpt>
      <trkpt lat="43.3051270432770252227783203125" lon="-2.36761783249676227569580078125">
        <ele>45.59999847412109375</ele>
        <time>2018-09-02T16:05:43.000Z</time>
      </trkpt>
      <trkpt lat="43.3051411248743534088134765625" lon="-2.3676487617194652557373046875">
        <ele>45.799999237060546875</ele>
        <time>2018-09-02T16:05:44.000Z</time>
      </trkpt>
      <trkpt lat="43.30515436828136444091796875" lon="-2.36767801456153392791748046875">
        <ele>46</ele>
        <time>2018-09-02T16:05:45.000Z</time>
      </trkpt>
      <trkpt lat="43.3051676116883754730224609375" lon="-2.3677091114223003387451171875">
        <ele>46.40000152587890625</ele>
        <time>2018-09-02T16:05:46.000Z</time>
      </trkpt>
      <trkpt lat="43.3051806874573230743408203125" lon="-2.3677389509975910186767578125">
        <ele>46.59999847412109375</ele>
        <time>2018-09-02T16:05:47.000Z</time>
      </trkpt>
      <trkpt lat="43.30519401468336582183837890625" lon="-2.36776988022029399871826171875">
        <ele>46.799999237060546875</ele>
        <time>2018-09-02T16:05:48.000Z</time>
      </trkpt>
      <trkpt lat="43.3052068389952182769775390625" lon="-2.36780307255685329437255859375">
        <ele>47.200000762939453125</ele>
        <time>2018-09-02T16:05:49.000Z</time>
      </trkpt>
      <trkpt lat="43.3052195794880390167236328125" lon="-2.36783609725534915924072265625">
        <ele>47.40000152587890625</ele>
        <time>2018-09-02T16:05:50.000Z</time>
      </trkpt>
      <trkpt lat="43.305232822895050048828125" lon="-2.36786426045000553131103515625">
        <ele>47.59999847412109375</ele>
        <time>2018-09-02T16:05:51.000Z</time>
      </trkpt>
      <trkpt lat="43.30524832941591739654541015625" lon="-2.36789233982563018798828125">
        <ele>47.799999237060546875</ele>
        <time>2018-09-02T16:05:52.000Z</time>
      </trkpt>
      <trkpt lat="43.3052658475935459136962890625" lon="-2.36792293377220630645751953125">
        <ele>47.799999237060546875</ele>
        <time>2018-09-02T16:05:53.000Z</time>
      </trkpt>
      <trkpt lat="43.30528420396149158477783203125" lon="-2.3679547011852264404296875">
        <ele>47.799999237060546875</ele>
        <time>2018-09-02T16:05:54.000Z</time>
      </trkpt>
      <trkpt lat="43.3053000457584857940673828125" lon="-2.367989234626293182373046875">
        <ele>48.200000762939453125</ele>
        <time>2018-09-02T16:05:55.000Z</time>
      </trkpt>
      <trkpt lat="43.30531530082225799560546875" lon="-2.368022762238979339599609375">
        <ele>48.40000152587890625</ele>
        <time>2018-09-02T16:05:56.000Z</time>
      </trkpt>
      <trkpt lat="43.305331058800220489501953125" lon="-2.3680564574897289276123046875">
        <ele>48.59999847412109375</ele>
        <time>2018-09-02T16:05:57.000Z</time>
      </trkpt>
      <trkpt lat="43.30534690059721469879150390625" lon="-2.36809057183563709259033203125">
        <ele>48.799999237060546875</ele>
        <time>2018-09-02T16:05:58.000Z</time>
      </trkpt>
      <trkpt lat="43.3053630776703357696533203125" lon="-2.368125021457672119140625">
        <ele>48.799999237060546875</ele>
        <time>2018-09-02T16:05:59.000Z</time>
      </trkpt>
      <trkpt lat="43.30537774600088596343994140625" lon="-2.36815997399389743804931640625">
        <ele>48.59999847412109375</ele>
        <time>2018-09-02T16:06:00.000Z</time>
      </trkpt>
      <trkpt lat="43.3053950965404510498046875" lon="-2.3681935854256153106689453125">
        <ele>48.40000152587890625</ele>
        <time>2018-09-02T16:06:01.000Z</time>
      </trkpt>
      <trkpt lat="43.30540741793811321258544921875" lon="-2.3682291246950626373291015625">
        <ele>48.59999847412109375</ele>
        <time>2018-09-02T16:06:02.000Z</time>
      </trkpt>
      <trkpt lat="43.3054244332015514373779296875" lon="-2.36826248466968536376953125">
        <ele>48.40000152587890625</ele>
        <time>2018-09-02T16:06:03.000Z</time>
      </trkpt>
      <trkpt lat="43.305439688265323638916015625" lon="-2.3682961799204349517822265625">
        <ele>48.200000762939453125</ele>
        <time>2018-09-02T16:06:04.000Z</time>
      </trkpt>
      <trkpt lat="43.3054549433290958404541015625" lon="-2.3683300428092479705810546875">
        <ele>48.200000762939453125</ele>
        <time>2018-09-02T16:06:05.000Z</time>
      </trkpt>
      <trkpt lat="43.3054707013070583343505859375" lon="-2.36836499534547328948974609375">
        <ele>48.40000152587890625</ele>
        <time>2018-09-02T16:06:06.000Z</time>
      </trkpt>
      <trkpt lat="43.30548637546598911285400390625" lon="-2.36840061843395233154296875">
        <ele>48.59999847412109375</ele>
        <time>2018-09-02T16:06:07.000Z</time>
      </trkpt>
      <trkpt lat="43.3055008761584758758544921875" lon="-2.36843548715114593505859375">
        <ele>48.799999237060546875</ele>
        <time>2018-09-02T16:06:08.000Z</time>
      </trkpt>
      <trkpt lat="43.30551571212708950042724609375" lon="-2.36846926622092723846435546875">
        <ele>49</ele>
        <time>2018-09-02T16:06:09.000Z</time>
      </trkpt>
      <trkpt lat="43.30553046427667140960693359375" lon="-2.3685047216713428497314453125">
        <ele>49.40000152587890625</ele>
        <time>2018-09-02T16:06:10.000Z</time>
      </trkpt>
      <trkpt lat="43.3055461384356021881103515625" lon="-2.36853950656950473785400390625">
        <ele>49.40000152587890625</ele>
        <time>2018-09-02T16:06:11.000Z</time>
      </trkpt>
      <trkpt lat="43.30556147731840610504150390625" lon="-2.36857353709638118743896484375">
        <ele>49.59999847412109375</ele>
        <time>2018-09-02T16:06:12.000Z</time>
      </trkpt>
      <trkpt lat="43.30557622946798801422119140625" lon="-2.36860706470906734466552734375">
        <ele>49.799999237060546875</ele>
        <time>2018-09-02T16:06:13.000Z</time>
      </trkpt>
      <trkpt lat="43.30559131689369678497314453125" lon="-2.368640340864658355712890625">
        <ele>50</ele>
        <time>2018-09-02T16:06:14.000Z</time>
      </trkpt>
      <trkpt lat="43.3056058175861835479736328125" lon="-2.36867328174412250518798828125">
        <ele>50.200000762939453125</ele>
        <time>2018-09-02T16:06:15.000Z</time>
      </trkpt>
      <trkpt lat="43.3056212402880191802978515625" lon="-2.36870731227099895477294921875">
        <ele>50.40000152587890625</ele>
        <time>2018-09-02T16:06:16.000Z</time>
      </trkpt>
      <trkpt lat="43.30563674680888652801513671875" lon="-2.3687407560646533966064453125">
        <ele>50.59999847412109375</ele>
        <time>2018-09-02T16:06:17.000Z</time>
      </trkpt>
      <trkpt lat="43.30565191805362701416015625" lon="-2.368774116039276123046875">
        <ele>50.799999237060546875</ele>
        <time>2018-09-02T16:06:18.000Z</time>
      </trkpt>
      <trkpt lat="43.305669017136096954345703125" lon="-2.36880772747099399566650390625">
        <ele>51</ele>
        <time>2018-09-02T16:06:19.000Z</time>
      </trkpt>
      <trkpt lat="43.30568544566631317138671875" lon="-2.36884259618818759918212890625">
        <ele>51.200000762939453125</ele>
        <time>2018-09-02T16:06:20.000Z</time>
      </trkpt>
      <trkpt lat="43.30570296384394168853759765625" lon="-2.3688775487244129180908203125">
        <ele>51.40000152587890625</ele>
        <time>2018-09-02T16:06:21.000Z</time>
      </trkpt>
      <trkpt lat="43.305719308555126190185546875" lon="-2.36891292035579681396484375">
        <ele>51.59999847412109375</ele>
        <time>2018-09-02T16:06:22.000Z</time>
      </trkpt>
      <trkpt lat="43.30573649145662784576416015625" lon="-2.36894887872040271759033203125">
        <ele>51.799999237060546875</ele>
        <time>2018-09-02T16:06:23.000Z</time>
      </trkpt>
      <trkpt lat="43.30575224943459033966064453125" lon="-2.36898458562791347503662109375">
        <ele>52</ele>
        <time>2018-09-02T16:06:24.000Z</time>
      </trkpt>
      <trkpt lat="43.30576800741255283355712890625" lon="-2.3690173588693141937255859375">
        <ele>52.200000762939453125</ele>
        <time>2018-09-02T16:06:25.000Z</time>
      </trkpt>
      <trkpt lat="43.30578359775245189666748046875" lon="-2.36905130557715892791748046875">
        <ele>52.59999847412109375</ele>
        <time>2018-09-02T16:06:26.000Z</time>
      </trkpt>
      <trkpt lat="43.30580036155879497528076171875" lon="-2.36908458173274993896484375">
        <ele>52.59999847412109375</ele>
        <time>2018-09-02T16:06:27.000Z</time>
      </trkpt>
      <trkpt lat="43.3058170415461063385009765625" lon="-2.3691187798976898193359375">
        <ele>52.799999237060546875</ele>
        <time>2018-09-02T16:06:28.000Z</time>
      </trkpt>
      <trkpt lat="43.30583372153341770172119140625" lon="-2.369153313338756561279296875">
        <ele>52.799999237060546875</ele>
        <time>2018-09-02T16:06:29.000Z</time>
      </trkpt>
      <trkpt lat="43.30584914423525333404541015625" lon="-2.36918826587498188018798828125">
        <ele>52.59999847412109375</ele>
        <time>2018-09-02T16:06:30.000Z</time>
      </trkpt>
      <trkpt lat="43.30586523748934268951416015625" lon="-2.3692232184112071990966796875">
        <ele>52.200000762939453125</ele>
        <time>2018-09-02T16:06:31.000Z</time>
      </trkpt>
      <trkpt lat="43.30588149838149547576904296875" lon="-2.36925750039517879486083984375">
        <ele>52.200000762939453125</ele>
        <time>2018-09-02T16:06:32.000Z</time>
      </trkpt>
      <trkpt lat="43.30589734017848968505859375" lon="-2.36929337494075298309326171875">
        <ele>52.200000762939453125</ele>
        <time>2018-09-02T16:06:33.000Z</time>
      </trkpt>
      <trkpt lat="43.3059136010706424713134765625" lon="-2.36932924948632717132568359375">
        <ele>52.200000762939453125</ele>
        <time>2018-09-02T16:06:34.000Z</time>
      </trkpt>
      <trkpt lat="43.305930532515048980712890625" lon="-2.3693657107651233673095703125">
        <ele>52.40000152587890625</ele>
        <time>2018-09-02T16:06:35.000Z</time>
      </trkpt>
      <trkpt lat="43.305947296321392059326171875" lon="-2.369402758777141571044921875">
        <ele>52.40000152587890625</ele>
        <time>2018-09-02T16:06:36.000Z</time>
      </trkpt>
      <trkpt lat="43.30596498213708400726318359375" lon="-2.369442991912364959716796875">
        <ele>52.40000152587890625</ele>
        <time>2018-09-02T16:06:37.000Z</time>
      </trkpt>
      <trkpt lat="43.3059846796095371246337890625" lon="-2.36948548816144466400146484375">
        <ele>52.40000152587890625</ele>
        <time>2018-09-02T16:06:38.000Z</time>
      </trkpt>
      <trkpt lat="43.30600504763424396514892578125" lon="-2.36952940933406352996826171875">
        <ele>52.40000152587890625</ele>
        <time>2018-09-02T16:06:39.000Z</time>
      </trkpt>
      <trkpt lat="43.306025750935077667236328125" lon="-2.36957500688731670379638671875">
        <ele>52.40000152587890625</ele>
        <time>2018-09-02T16:06:40.000Z</time>
      </trkpt>
      <trkpt lat="43.30604813061654567718505859375" lon="-2.3696201853454113006591796875">
        <ele>52.200000762939453125</ele>
        <time>2018-09-02T16:06:41.000Z</time>
      </trkpt>
      <trkpt lat="43.30607168376445770263671875" lon="-2.36966452561318874359130859375">
        <ele>52.200000762939453125</ele>
        <time>2018-09-02T16:06:42.000Z</time>
      </trkpt>
      <trkpt lat="43.3060969971120357513427734375" lon="-2.3697063513100147247314453125">
        <ele>51.799999237060546875</ele>
        <time>2018-09-02T16:06:43.000Z</time>
      </trkpt>
      <trkpt lat="43.3061218075454235076904296875" lon="-2.369747422635555267333984375">
        <ele>51.59999847412109375</ele>
        <time>2018-09-02T16:06:44.000Z</time>
      </trkpt>
      <trkpt lat="43.30614569596946239471435546875" lon="-2.3697891645133495330810546875">
        <ele>51.40000152587890625</ele>
        <time>2018-09-02T16:06:45.000Z</time>
      </trkpt>
      <trkpt lat="43.30616983585059642791748046875" lon="-2.3698307387530803680419921875">
        <ele>51.40000152587890625</ele>
        <time>2018-09-02T16:06:46.000Z</time>
      </trkpt>
      <trkpt lat="43.3061945624649524688720703125" lon="-2.3698739893734455108642578125">
        <ele>51.40000152587890625</ele>
        <time>2018-09-02T16:06:47.000Z</time>
      </trkpt>
      <trkpt lat="43.30621878616511821746826171875" lon="-2.36991866491734981536865234375">
        <ele>51.59999847412109375</ele>
        <time>2018-09-02T16:06:48.000Z</time>
      </trkpt>
      <trkpt lat="43.30624141730368137359619140625" lon="-2.369965352118015289306640625">
        <ele>51.799999237060546875</ele>
        <time>2018-09-02T16:06:49.000Z</time>
      </trkpt>
      <trkpt lat="43.30626287497580051422119140625" lon="-2.37001405097544193267822265625">
        <ele>52.200000762939453125</ele>
        <time>2018-09-02T16:06:50.000Z</time>
      </trkpt>
      <trkpt lat="43.30628215335309505462646484375" lon="-2.3700640909373760223388671875">
        <ele>52.40000152587890625</ele>
        <time>2018-09-02T16:06:51.000Z</time>
      </trkpt>
      <trkpt lat="43.30629992298781871795654296875" lon="-2.3701157234609127044677734375">
        <ele>52.799999237060546875</ele>
        <time>2018-09-02T16:06:52.000Z</time>
      </trkpt>
      <trkpt lat="43.306316770613193511962890625" lon="-2.37016811035573482513427734375">
        <ele>53.40000152587890625</ele>
        <time>2018-09-02T16:06:53.000Z</time>
      </trkpt>
      <trkpt lat="43.3063333667814731597900390625" lon="-2.37022125162184238433837890625">
        <ele>53.799999237060546875</ele>
        <time>2018-09-02T16:06:54.000Z</time>
      </trkpt>
      <trkpt lat="43.306350298225879669189453125" lon="-2.37027414143085479736328125">
        <ele>54.200000762939453125</ele>
        <time>2018-09-02T16:06:55.000Z</time>
      </trkpt>
      <trkpt lat="43.3063658885657787322998046875" lon="-2.3703282885253429412841796875">
        <ele>54.799999237060546875</ele>
        <time>2018-09-02T16:06:56.000Z</time>
      </trkpt>
      <trkpt lat="43.30638139508664608001708984375" lon="-2.3703829385340213775634765625">
        <ele>55.40000152587890625</ele>
        <time>2018-09-02T16:06:57.000Z</time>
      </trkpt>
      <trkpt lat="43.3063960634171962738037109375" lon="-2.37043767236173152923583984375">
        <ele>55.799999237060546875</ele>
        <time>2018-09-02T16:06:58.000Z</time>
      </trkpt>
      <trkpt lat="43.3064098097383975982666015625" lon="-2.370493076741695404052734375">
        <ele>56</ele>
        <time>2018-09-02T16:06:59.000Z</time>
      </trkpt>
      <trkpt lat="43.30642481334507465362548828125" lon="-2.37054638564586639404296875">
        <ele>56.200000762939453125</ele>
        <time>2018-09-02T16:07:00.000Z</time>
      </trkpt>
      <trkpt lat="43.30643956549465656280517578125" lon="-2.37059977836906909942626953125">
        <ele>56.40000152587890625</ele>
        <time>2018-09-02T16:07:01.000Z</time>
      </trkpt>
      <trkpt lat="43.30645364709198474884033203125" lon="-2.37065367400646209716796875">
        <ele>56.799999237060546875</ele>
        <time>2018-09-02T16:07:02.000Z</time>
      </trkpt>
      <trkpt lat="43.3064671419560909271240234375" lon="-2.3707084916532039642333984375">
        <ele>57</ele>
        <time>2018-09-02T16:07:03.000Z</time>
      </trkpt>
      <trkpt lat="43.3064802177250385284423828125" lon="-2.37076339311897754669189453125">
        <ele>57.40000152587890625</ele>
        <time>2018-09-02T16:07:04.000Z</time>
      </trkpt>
      <trkpt lat="43.3064922876656055450439453125" lon="-2.3708187974989414215087890625">
        <ele>57.59999847412109375</ele>
        <time>2018-09-02T16:07:05.000Z</time>
      </trkpt>
      <trkpt lat="43.30650494433939456939697265625" lon="-2.37087420187890529632568359375">
        <ele>57.799999237060546875</ele>
        <time>2018-09-02T16:07:06.000Z</time>
      </trkpt>
      <trkpt lat="43.30651751719415187835693359375" lon="-2.370929606258869171142578125">
        <ele>58</ele>
        <time>2018-09-02T16:07:07.000Z</time>
      </trkpt>
      <trkpt lat="43.30652874894440174102783203125" lon="-2.37098551355302333831787109375">
        <ele>58.200000762939453125</ele>
        <time>2018-09-02T16:07:08.000Z</time>
      </trkpt>
      <trkpt lat="43.306538723409175872802734375" lon="-2.37104116939008235931396484375">
        <ele>58.40000152587890625</ele>
        <time>2018-09-02T16:07:09.000Z</time>
      </trkpt>
      <trkpt lat="43.3065492846071720123291015625" lon="-2.37109682522714138031005859375">
        <ele>59</ele>
        <time>2018-09-02T16:07:10.000Z</time>
      </trkpt>
      <trkpt lat="43.3065600134432315826416015625" lon="-2.371152229607105255126953125">
        <ele>59.59999847412109375</ele>
        <time>2018-09-02T16:07:11.000Z</time>
      </trkpt>
      <trkpt lat="43.3065712451934814453125" lon="-2.37120687961578369140625">
        <ele>60.40000152587890625</ele>
        <time>2018-09-02T16:07:12.000Z</time>
      </trkpt>
      <trkpt lat="43.3065833151340484619140625" lon="-2.37125960178673267364501953125">
        <ele>61</ele>
        <time>2018-09-02T16:07:13.000Z</time>
      </trkpt>
      <trkpt lat="43.30659597180783748626708984375" lon="-2.37131173722445964813232421875">
        <ele>61.59999847412109375</ele>
        <time>2018-09-02T16:07:14.000Z</time>
      </trkpt>
      <trkpt lat="43.30661022104322910308837890625" lon="-2.371363453567028045654296875">
        <ele>62</ele>
        <time>2018-09-02T16:07:15.000Z</time>
      </trkpt>
      <trkpt lat="43.30662631429731845855712890625" lon="-2.3714159242808818817138671875">
        <ele>62.40000152587890625</ele>
        <time>2018-09-02T16:07:16.000Z</time>
      </trkpt>
      <trkpt lat="43.30664358101785182952880859375" lon="-2.37146981991827487945556640625">
        <ele>63</ele>
        <time>2018-09-02T16:07:17.000Z</time>
      </trkpt>
      <trkpt lat="43.30666352994740009307861328125" lon="-2.37152363173663616180419921875">
        <ele>63.40000152587890625</ele>
        <time>2018-09-02T16:07:18.000Z</time>
      </trkpt>
      <trkpt lat="43.30668716691434383392333984375" lon="-2.37157828174531459808349609375">
        <ele>63.59999847412109375</ele>
        <time>2018-09-02T16:07:19.000Z</time>
      </trkpt>
      <trkpt lat="43.30671139061450958251953125" lon="-2.37163477577269077301025390625">
        <ele>63.799999237060546875</ele>
        <time>2018-09-02T16:07:20.000Z</time>
      </trkpt>
      <trkpt lat="43.30673410557210445404052734375" lon="-2.37169344909489154815673828125">
        <ele>64.1999969482421875</ele>
        <time>2018-09-02T16:07:21.000Z</time>
      </trkpt>
      <trkpt lat="43.3067578263580799102783203125" lon="-2.37175061367452144622802734375">
        <ele>64.8000030517578125</ele>
        <time>2018-09-02T16:07:22.000Z</time>
      </trkpt>
      <trkpt lat="43.3067796193063259124755859375" lon="-2.371807359158992767333984375">
        <ele>65.59999847412109375</ele>
        <time>2018-09-02T16:07:23.000Z</time>
      </trkpt>
      <trkpt lat="43.30680099315941333770751953125" lon="-2.37186360172927379608154296875">
        <ele>66.1999969482421875</ele>
        <time>2018-09-02T16:07:24.000Z</time>
      </trkpt>
      <trkpt lat="43.30682270228862762451171875" lon="-2.37192093394696712493896484375">
        <ele>66.8000030517578125</ele>
        <time>2018-09-02T16:07:25.000Z</time>
      </trkpt>
      <trkpt lat="43.30684474669396877288818359375" lon="-2.37197960726916790008544921875">
        <ele>67.40000152587890625</ele>
        <time>2018-09-02T16:07:26.000Z</time>
      </trkpt>
      <trkpt lat="43.3068684674799442291259765625" lon="-2.3720381967723369598388671875">
        <ele>68</ele>
        <time>2018-09-02T16:07:27.000Z</time>
      </trkpt>
      <trkpt lat="43.3068919368088245391845703125" lon="-2.37209561280906200408935546875">
        <ele>68.59999847412109375</ele>
        <time>2018-09-02T16:07:28.000Z</time>
      </trkpt>
      <trkpt lat="43.306914903223514556884765625" lon="-2.372154705226421356201171875">
        <ele>69.1999969482421875</ele>
        <time>2018-09-02T16:07:29.000Z</time>
      </trkpt>
      <trkpt lat="43.30693527124822139739990234375" lon="-2.3722132109105587005615234375">
        <ele>69.8000030517578125</ele>
        <time>2018-09-02T16:07:30.000Z</time>
      </trkpt>
      <trkpt lat="43.30695253796875476837158203125" lon="-2.37227062694728374481201171875">
        <ele>70.59999847412109375</ele>
        <time>2018-09-02T16:07:31.000Z</time>
      </trkpt>
      <trkpt lat="43.3069713972508907318115234375" lon="-2.3723267018795013427734375">
        <ele>71.40000152587890625</ele>
        <time>2018-09-02T16:07:32.000Z</time>
      </trkpt>
      <trkpt lat="43.30698925070464611053466796875" lon="-2.372382022440433502197265625">
        <ele>72.8000030517578125</ele>
        <time>2018-09-02T16:07:33.000Z</time>
      </trkpt>
      <trkpt lat="43.30700819380581378936767578125" lon="-2.37243558280169963836669921875">
        <ele>74.1999969482421875</ele>
        <time>2018-09-02T16:07:34.000Z</time>
      </trkpt>
      <trkpt lat="43.30702931620180606842041015625" lon="-2.37248553894460201263427734375">
        <ele>75.1999969482421875</ele>
        <time>2018-09-02T16:07:35.000Z</time>
      </trkpt>
      <trkpt lat="43.30705345608294010162353515625" lon="-2.3725300468504428863525390625">
        <ele>76</ele>
        <time>2018-09-02T16:07:36.000Z</time>
      </trkpt>
      <trkpt lat="43.30707617104053497314453125" lon="-2.3725696094334125518798828125">
        <ele>76.40000152587890625</ele>
        <time>2018-09-02T16:07:37.000Z</time>
      </trkpt>
      <trkpt lat="43.30710207112133502960205078125" lon="-2.37260908819735050201416015625">
        <ele>77</ele>
        <time>2018-09-02T16:07:38.000Z</time>
      </trkpt>
      <trkpt lat="43.3071330003440380096435546875" lon="-2.37264412455260753631591796875">
        <ele>77.1999969482421875</ele>
        <time>2018-09-02T16:07:39.000Z</time>
      </trkpt>
      <trkpt lat="43.3071685396134853363037109375" lon="-2.3726732097566127777099609375">
        <ele>77.1999969482421875</ele>
        <time>2018-09-02T16:07:40.000Z</time>
      </trkpt>
      <trkpt lat="43.30720349214971065521240234375" lon="-2.3726923204958438873291015625">
        <ele>76.8000030517578125</ele>
        <time>2018-09-02T16:07:41.000Z</time>
      </trkpt>
      <trkpt lat="43.30723735503852367401123046875" lon="-2.37270095385611057281494140625">
        <ele>76.1999969482421875</ele>
        <time>2018-09-02T16:07:42.000Z</time>
      </trkpt>
      <trkpt lat="43.30727272666990756988525390625" lon="-2.37270531244575977325439453125">
        <ele>75.40000152587890625</ele>
        <time>2018-09-02T16:07:43.000Z</time>
      </trkpt>
      <trkpt lat="43.3073110319674015045166015625" lon="-2.37271050922572612762451171875">
        <ele>74.59999847412109375</ele>
        <time>2018-09-02T16:07:44.000Z</time>
      </trkpt>
      <trkpt lat="43.30735000781714916229248046875" lon="-2.37271369434893131256103515625">
        <ele>73.59999847412109375</ele>
        <time>2018-09-02T16:07:45.000Z</time>
      </trkpt>
      <trkpt lat="43.30739133059978485107421875" lon="-2.3727154545485973358154296875">
        <ele>72.59999847412109375</ele>
        <time>2018-09-02T16:07:46.000Z</time>
      </trkpt>
      <trkpt lat="43.3074310608208179473876953125" lon="-2.3727117665112018585205078125">
        <ele>71.1999969482421875</ele>
        <time>2018-09-02T16:07:47.000Z</time>
      </trkpt>
      <trkpt lat="43.30746953375637531280517578125" lon="-2.37270028330385684967041015625">
        <ele>69.8000030517578125</ele>
        <time>2018-09-02T16:07:48.000Z</time>
      </trkpt>
      <trkpt lat="43.3075101859867572784423828125" lon="-2.37268745899200439453125">
        <ele>68.1999969482421875</ele>
        <time>2018-09-02T16:07:49.000Z</time>
      </trkpt>
      <trkpt lat="43.307551257312297821044921875" lon="-2.37267279066145420074462890625">
        <ele>66.59999847412109375</ele>
        <time>2018-09-02T16:07:50.000Z</time>
      </trkpt>
      <trkpt lat="43.30758981406688690185546875" lon="-2.37265351228415966033935546875">
        <ele>64.8000030517578125</ele>
        <time>2018-09-02T16:07:51.000Z</time>
      </trkpt>
      <trkpt lat="43.3076288737356662750244140625" lon="-2.37263255752623081207275390625">
        <ele>63</ele>
        <time>2018-09-02T16:07:52.000Z</time>
      </trkpt>
      <trkpt lat="43.307667933404445648193359375" lon="-2.3726101778447628021240234375">
        <ele>62.40000152587890625</ele>
        <time>2018-09-02T16:07:53.000Z</time>
      </trkpt>
      <trkpt lat="43.307706825435161590576171875" lon="-2.37258695997297763824462890625">
        <ele>61.799999237060546875</ele>
        <time>2018-09-02T16:07:54.000Z</time>
      </trkpt>
      <trkpt lat="43.30774496309459209442138671875" lon="-2.37256382592022418975830078125">
        <ele>61.200000762939453125</ele>
        <time>2018-09-02T16:07:55.000Z</time>
      </trkpt>
      <trkpt lat="43.3077822625637054443359375" lon="-2.3725404404103755950927734375">
        <ele>60.799999237060546875</ele>
        <time>2018-09-02T16:07:56.000Z</time>
      </trkpt>
      <trkpt lat="43.30782274715602397918701171875" lon="-2.37252409569919109344482421875">
        <ele>60.40000152587890625</ele>
        <time>2018-09-02T16:07:57.000Z</time>
      </trkpt>
      <trkpt lat="43.30786482430994510650634765625" lon="-2.37250364385545253753662109375">
        <ele>60</ele>
        <time>2018-09-02T16:07:58.000Z</time>
      </trkpt>
      <trkpt lat="43.307905979454517364501953125" lon="-2.372481264173984527587890625">
        <ele>59.40000152587890625</ele>
        <time>2018-09-02T16:07:59.000Z</time>
      </trkpt>
      <trkpt lat="43.30794596113264560699462890625" lon="-2.3724572919309139251708984375">
        <ele>59</ele>
        <time>2018-09-02T16:08:00.000Z</time>
      </trkpt>
      <trkpt lat="43.307984769344329833984375" lon="-2.37242795526981353759765625">
        <ele>58.40000152587890625</ele>
        <time>2018-09-02T16:08:01.000Z</time>
      </trkpt>
      <trkpt lat="43.30802206881344318389892578125" lon="-2.37239585258066654205322265625">
        <ele>57.59999847412109375</ele>
        <time>2018-09-02T16:08:02.000Z</time>
      </trkpt>
      <trkpt lat="43.30805920064449310302734375" lon="-2.3723642528057098388671875">
        <ele>57</ele>
        <time>2018-09-02T16:08:03.000Z</time>
      </trkpt>
      <trkpt lat="43.30809566192328929901123046875" lon="-2.37232930026948451995849609375">
        <ele>56.40000152587890625</ele>
        <time>2018-09-02T16:08:04.000Z</time>
      </trkpt>
      <trkpt lat="43.308131955564022064208984375" lon="-2.37229426391422748565673828125">
        <ele>55.59999847412109375</ele>
        <time>2018-09-02T16:08:05.000Z</time>
      </trkpt>
      <trkpt lat="43.30816707573831081390380859375" lon="-2.37225755117833614349365234375">
        <ele>54.799999237060546875</ele>
        <time>2018-09-02T16:08:06.000Z</time>
      </trkpt>
      <trkpt lat="43.30820269882678985595703125" lon="-2.37221966497600078582763671875">
        <ele>54</ele>
        <time>2018-09-02T16:08:07.000Z</time>
      </trkpt>
      <trkpt lat="43.30823748372495174407958984375" lon="-2.3721803538501262664794921875">
        <ele>53.200000762939453125</ele>
        <time>2018-09-02T16:08:08.000Z</time>
      </trkpt>
      <trkpt lat="43.30827184952795505523681640625" lon="-2.37214003689587116241455078125">
        <ele>52.40000152587890625</ele>
        <time>2018-09-02T16:08:09.000Z</time>
      </trkpt>
      <trkpt lat="43.30830554477870464324951171875" lon="-2.3720998875796794891357421875">
        <ele>51.59999847412109375</ele>
        <time>2018-09-02T16:08:10.000Z</time>
      </trkpt>
      <trkpt lat="43.30833949148654937744140625" lon="-2.37206049263477325439453125">
        <ele>50.799999237060546875</ele>
        <time>2018-09-02T16:08:11.000Z</time>
      </trkpt>
      <trkpt lat="43.30837276764214038848876953125" lon="-2.3720209300518035888671875">
        <ele>50</ele>
        <time>2018-09-02T16:08:12.000Z</time>
      </trkpt>
      <trkpt lat="43.308406881988048553466796875" lon="-2.37198262475430965423583984375">
        <ele>49.200000762939453125</ele>
        <time>2018-09-02T16:08:13.000Z</time>
      </trkpt>
      <trkpt lat="43.30844317562878131866455078125" lon="-2.37194624729454517364501953125">
        <ele>48.40000152587890625</ele>
        <time>2018-09-02T16:08:14.000Z</time>
      </trkpt>
      <trkpt lat="43.30848190002143383026123046875" lon="-2.371911294758319854736328125">
        <ele>47.200000762939453125</ele>
        <time>2018-09-02T16:08:15.000Z</time>
      </trkpt>
      <trkpt lat="43.308523558080196380615234375" lon="-2.371881119906902313232421875">
        <ele>45.200000762939453125</ele>
        <time>2018-09-02T16:08:16.000Z</time>
      </trkpt>
      <trkpt lat="43.30856689251959323883056640625" lon="-2.37185798585414886474609375">
        <ele>43</ele>
        <time>2018-09-02T16:08:17.000Z</time>
      </trkpt>
      <trkpt lat="43.308609388768672943115234375" lon="-2.37184449099004268646240234375">
        <ele>41.200000762939453125</ele>
        <time>2018-09-02T16:08:18.000Z</time>
      </trkpt>
      <trkpt lat="43.30865389667451381683349609375" lon="-2.3718541301786899566650390625">
        <ele>39.799999237060546875</ele>
        <time>2018-09-02T16:08:19.000Z</time>
      </trkpt>
      <trkpt lat="43.3086947165429592132568359375" lon="-2.3718775995075702667236328125">
        <ele>38.799999237060546875</ele>
        <time>2018-09-02T16:08:20.000Z</time>
      </trkpt>
      <trkpt lat="43.30872916616499423980712890625" lon="-2.37191825173795223236083984375">
        <ele>38.59999847412109375</ele>
        <time>2018-09-02T16:08:21.000Z</time>
      </trkpt>
      <trkpt lat="43.3087540604174137115478515625" lon="-2.37197508104145526885986328125">
        <ele>38.799999237060546875</ele>
        <time>2018-09-02T16:08:22.000Z</time>
      </trkpt>
      <trkpt lat="43.30876889638602733612060546875" lon="-2.372038364410400390625">
        <ele>39.59999847412109375</ele>
        <time>2018-09-02T16:08:23.000Z</time>
      </trkpt>
      <trkpt lat="43.30877761356532573699951171875" lon="-2.37210365943610668182373046875">
        <ele>40.799999237060546875</ele>
        <time>2018-09-02T16:08:24.000Z</time>
      </trkpt>
      <trkpt lat="43.3087802119553089141845703125" lon="-2.37217104993760585784912109375">
        <ele>42</ele>
        <time>2018-09-02T16:08:25.000Z</time>
      </trkpt>
      <trkpt lat="43.3087758533656597137451171875" lon="-2.372237853705883026123046875">
        <ele>42.200000762939453125</ele>
        <time>2018-09-02T16:08:26.000Z</time>
      </trkpt>
      <trkpt lat="43.3087647892534732818603515625" lon="-2.372303903102874755859375">
        <ele>42.799999237060546875</ele>
        <time>2018-09-02T16:08:27.000Z</time>
      </trkpt>
      <trkpt lat="43.3087486959993839263916015625" lon="-2.3723691143095493316650390625">
        <ele>43.59999847412109375</ele>
        <time>2018-09-02T16:08:28.000Z</time>
      </trkpt>
      <trkpt lat="43.3087285794317722320556640625" lon="-2.37243323586881160736083984375">
        <ele>44.799999237060546875</ele>
        <time>2018-09-02T16:08:29.000Z</time>
      </trkpt>
      <trkpt lat="43.30870318226516246795654296875" lon="-2.37249526195228099822998046875">
        <ele>45.799999237060546875</ele>
        <time>2018-09-02T16:08:30.000Z</time>
      </trkpt>
      <trkpt lat="43.30867317505180835723876953125" lon="-2.37255410291254520416259765625">
        <ele>46.40000152587890625</ele>
        <time>2018-09-02T16:08:31.000Z</time>
      </trkpt>
      <trkpt lat="43.30863746814429759979248046875" lon="-2.37260766327381134033203125">
        <ele>47.59999847412109375</ele>
        <time>2018-09-02T16:08:32.000Z</time>
      </trkpt>
      <trkpt lat="43.30859874375164508819580078125" lon="-2.37266005016863346099853515625">
        <ele>48.799999237060546875</ele>
        <time>2018-09-02T16:08:33.000Z</time>
      </trkpt>
      <trkpt lat="43.3085592649877071380615234375" lon="-2.3727137781679630279541015625">
        <ele>50.200000762939453125</ele>
        <time>2018-09-02T16:08:34.000Z</time>
      </trkpt>
      <trkpt lat="43.30851727165281772613525390625" lon="-2.37277186475694179534912109375">
        <ele>51.40000152587890625</ele>
        <time>2018-09-02T16:08:35.000Z</time>
      </trkpt>
      <trkpt lat="43.30847418867051601409912109375" lon="-2.37283037044107913970947265625">
        <ele>52.799999237060546875</ele>
        <time>2018-09-02T16:08:36.000Z</time>
      </trkpt>
      <trkpt lat="43.30843068659305572509765625" lon="-2.3728884570300579071044921875">
        <ele>53.799999237060546875</ele>
        <time>2018-09-02T16:08:37.000Z</time>
      </trkpt>
      <trkpt lat="43.30838240683078765869140625" lon="-2.37294922582805156707763671875">
        <ele>54.59999847412109375</ele>
        <time>2018-09-02T16:08:38.000Z</time>
      </trkpt>
      <trkpt lat="43.30833404324948787689208984375" lon="-2.37301108427345752716064453125">
        <ele>55.59999847412109375</ele>
        <time>2018-09-02T16:08:39.000Z</time>
      </trkpt>
      <trkpt lat="43.3082860149443149566650390625" lon="-2.373074702918529510498046875">
        <ele>56.40000152587890625</ele>
        <time>2018-09-02T16:08:40.000Z</time>
      </trkpt>
      <trkpt lat="43.30823748372495174407958984375" lon="-2.3731394112110137939453125">
        <ele>57.200000762939453125</ele>
        <time>2018-09-02T16:08:41.000Z</time>
      </trkpt>
      <trkpt lat="43.30818719230592250823974609375" lon="-2.37320001237094402313232421875">
        <ele>58.200000762939453125</ele>
        <time>2018-09-02T16:08:42.000Z</time>
      </trkpt>
      <trkpt lat="43.30813539214432239532470703125" lon="-2.37325885333120822906494140625">
        <ele>59.40000152587890625</ele>
        <time>2018-09-02T16:08:43.000Z</time>
      </trkpt>
      <trkpt lat="43.30808308906853199005126953125" lon="-2.373315431177616119384765625">
        <ele>60.59999847412109375</ele>
        <time>2018-09-02T16:08:44.000Z</time>
      </trkpt>
      <trkpt lat="43.30802944488823413848876953125" lon="-2.373368404805660247802734375">
        <ele>62.59999847412109375</ele>
        <time>2018-09-02T16:08:45.000Z</time>
      </trkpt>
      <trkpt lat="43.3079728670418262481689453125" lon="-2.3734151758253574371337890625">
        <ele>64.59999847412109375</ele>
        <time>2018-09-02T16:08:46.000Z</time>
      </trkpt>
      <trkpt lat="43.30791662447154521942138671875" lon="-2.3734577558934688568115234375">
        <ele>66.8000030517578125</ele>
        <time>2018-09-02T16:08:47.000Z</time>
      </trkpt>
      <trkpt lat="43.30786197446286678314208984375" lon="-2.3735016770660877227783203125">
        <ele>68.8000030517578125</ele>
        <time>2018-09-02T16:08:48.000Z</time>
      </trkpt>
      <trkpt lat="43.30780883319675922393798828125" lon="-2.3735486157238483428955078125">
        <ele>70.8000030517578125</ele>
        <time>2018-09-02T16:08:49.000Z</time>
      </trkpt>
      <trkpt lat="43.30775803886353969573974609375" lon="-2.3735995776951313018798828125">
        <ele>72.59999847412109375</ele>
        <time>2018-09-02T16:08:50.000Z</time>
      </trkpt>
      <trkpt lat="43.30770774744451045989990234375" lon="-2.37365632317960262298583984375">
        <ele>74.40000152587890625</ele>
        <time>2018-09-02T16:08:51.000Z</time>
      </trkpt>
      <trkpt lat="43.307661227881908416748046875" lon="-2.37372119911015033721923828125">
        <ele>76</ele>
        <time>2018-09-02T16:08:52.000Z</time>
      </trkpt>
      <trkpt lat="43.3076204918324947357177734375" lon="-2.373795546591281890869140625">
        <ele>77.1999969482421875</ele>
        <time>2018-09-02T16:08:53.000Z</time>
      </trkpt>
      <trkpt lat="43.3075859583914279937744140625" lon="-2.37387760542333126068115234375">
        <ele>78.59999847412109375</ele>
        <time>2018-09-02T16:08:54.000Z</time>
      </trkpt>
      <trkpt lat="43.3075588010251522064208984375" lon="-2.37396595068275928497314453125">
        <ele>79.40000152587890625</ele>
        <time>2018-09-02T16:08:55.000Z</time>
      </trkpt>
      <trkpt lat="43.30754287540912628173828125" lon="-2.37406334839761257171630859375">
        <ele>79.59999847412109375</ele>
        <time>2018-09-02T16:08:56.000Z</time>
      </trkpt>
      <trkpt lat="43.30753055401146411895751953125" lon="-2.37416342832148075103759765625">
        <ele>79.40000152587890625</ele>
        <time>2018-09-02T16:08:57.000Z</time>
      </trkpt>
      <trkpt lat="43.3075246028602123260498046875" lon="-2.37426736392080783843994140625">
        <ele>79</ele>
        <time>2018-09-02T16:08:58.000Z</time>
      </trkpt>
      <trkpt lat="43.3075316436588764190673828125" lon="-2.37437331117689609527587890625">
        <ele>78.1999969482421875</ele>
        <time>2018-09-02T16:08:59.000Z</time>
      </trkpt>
      <trkpt lat="43.30755419097840785980224609375" lon="-2.3744766600430011749267578125">
        <ele>76.8000030517578125</ele>
        <time>2018-09-02T16:09:00.000Z</time>
      </trkpt>
      <trkpt lat="43.30758218653500080108642578125" lon="-2.37457816489040851593017578125">
        <ele>75</ele>
        <time>2018-09-02T16:09:01.000Z</time>
      </trkpt>
      <trkpt lat="43.30760657787322998046875" lon="-2.37468059174716472625732421875">
        <ele>73.40000152587890625</ele>
        <time>2018-09-02T16:09:02.000Z</time>
      </trkpt>
      <trkpt lat="43.3076241798698902130126953125" lon="-2.37478469498455524444580078125">
        <ele>72.1999969482421875</ele>
        <time>2018-09-02T16:09:03.000Z</time>
      </trkpt>
      <trkpt lat="43.30763666890561580657958984375" lon="-2.37489047460258007049560546875">
        <ele>71.1999969482421875</ele>
        <time>2018-09-02T16:09:04.000Z</time>
      </trkpt>
      <trkpt lat="43.3076466433703899383544921875" lon="-2.3749966733157634735107421875">
        <ele>70</ele>
        <time>2018-09-02T16:09:05.000Z</time>
      </trkpt>
      <trkpt lat="43.3076561987400054931640625" lon="-2.37510211765766143798828125">
        <ele>68.40000152587890625</ele>
        <time>2018-09-02T16:09:06.000Z</time>
      </trkpt>
      <trkpt lat="43.30766600556671619415283203125" lon="-2.3752062208950519561767578125">
        <ele>67</ele>
        <time>2018-09-02T16:09:07.000Z</time>
      </trkpt>
      <trkpt lat="43.3076758123934268951416015625" lon="-2.37530973739922046661376953125">
        <ele>65.40000152587890625</ele>
        <time>2018-09-02T16:09:08.000Z</time>
      </trkpt>
      <trkpt lat="43.3076855354011058807373046875" lon="-2.375411577522754669189453125">
        <ele>64</ele>
        <time>2018-09-02T16:09:09.000Z</time>
      </trkpt>
      <trkpt lat="43.30769500695168972015380859375" lon="-2.37551291473209857940673828125">
        <ele>62.59999847412109375</ele>
        <time>2018-09-02T16:09:10.000Z</time>
      </trkpt>
      <trkpt lat="43.30770439468324184417724609375" lon="-2.3756176047027111053466796875">
        <ele>61</ele>
        <time>2018-09-02T16:09:11.000Z</time>
      </trkpt>
      <trkpt lat="43.30771277658641338348388671875" lon="-2.375722713768482208251953125">
        <ele>59.59999847412109375</ele>
        <time>2018-09-02T16:09:12.000Z</time>
      </trkpt>
      <trkpt lat="43.3077234216034412384033203125" lon="-2.3758269846439361572265625">
        <ele>59.40000152587890625</ele>
        <time>2018-09-02T16:09:13.000Z</time>
      </trkpt>
      <trkpt lat="43.30773356370627880096435546875" lon="-2.37593083642423152923583984375">
        <ele>57.59999847412109375</ele>
        <time>2018-09-02T16:09:14.000Z</time>
      </trkpt>
      <trkpt lat="43.30774001777172088623046875" lon="-2.37603259272873401641845703125">
        <ele>56</ele>
        <time>2018-09-02T16:09:15.000Z</time>
      </trkpt>
      <trkpt lat="43.30773909576237201690673828125" lon="-2.3761329241096973419189453125">
        <ele>54.799999237060546875</ele>
        <time>2018-09-02T16:09:16.000Z</time>
      </trkpt>
      <trkpt lat="43.3077313005924224853515625" lon="-2.37623141147196292877197265625">
        <ele>54</ele>
        <time>2018-09-02T16:09:17.000Z</time>
      </trkpt>
      <trkpt lat="43.30771830864250659942626953125" lon="-2.376327551901340484619140625">
        <ele>53.799999237060546875</ele>
        <time>2018-09-02T16:09:18.000Z</time>
      </trkpt>
      <trkpt lat="43.3077017962932586669921875" lon="-2.37642302177846431732177734375">
        <ele>53.59999847412109375</ele>
        <time>2018-09-02T16:09:19.000Z</time>
      </trkpt>
      <trkpt lat="43.30768343992531299591064453125" lon="-2.37651891075074672698974609375">
        <ele>53.59999847412109375</ele>
        <time>2018-09-02T16:09:20.000Z</time>
      </trkpt>
      <trkpt lat="43.30766231752932071685791015625" lon="-2.37661597318947315216064453125">
        <ele>53.59999847412109375</ele>
        <time>2018-09-02T16:09:21.000Z</time>
      </trkpt>
      <trkpt lat="43.30764018930494785308837890625" lon="-2.376713119447231292724609375">
        <ele>54.40000152587890625</ele>
        <time>2018-09-02T16:09:22.000Z</time>
      </trkpt>
      <trkpt lat="43.307616971433162689208984375" lon="-2.37680909223854541778564453125">
        <ele>54.40000152587890625</ele>
        <time>2018-09-02T16:09:23.000Z</time>
      </trkpt>
      <trkpt lat="43.3075916580855846405029296875" lon="-2.37690548412501811981201171875">
        <ele>54.59999847412109375</ele>
        <time>2018-09-02T16:09:24.000Z</time>
      </trkpt>
      <trkpt lat="43.3075675182044506072998046875" lon="-2.37699969671666622161865234375">
        <ele>54.59999847412109375</ele>
        <time>2018-09-02T16:09:25.000Z</time>
      </trkpt>
      <trkpt lat="43.30754379741847515106201171875" lon="-2.37709122709929943084716796875">
        <ele>54.799999237060546875</ele>
        <time>2018-09-02T16:09:26.000Z</time>
      </trkpt>
      <trkpt lat="43.30752099864184856414794921875" lon="-2.37718359567224979400634765625">
        <ele>54.799999237060546875</ele>
        <time>2018-09-02T16:09:27.000Z</time>
      </trkpt>
      <trkpt lat="43.30750138498842716217041015625" lon="-2.37727596424520015716552734375">
        <ele>54.799999237060546875</ele>
        <time>2018-09-02T16:09:28.000Z</time>
      </trkpt>
      <trkpt lat="43.30748118460178375244140625" lon="-2.377367913722991943359375">
        <ele>54.799999237060546875</ele>
        <time>2018-09-02T16:09:29.000Z</time>
      </trkpt>
      <trkpt lat="43.3074602298438549041748046875" lon="-2.37745936028659343719482421875">
        <ele>54.799999237060546875</ele>
        <time>2018-09-02T16:09:30.000Z</time>
      </trkpt>
      <trkpt lat="43.3074407838284969329833984375" lon="-2.37755172885954380035400390625">
        <ele>54.799999237060546875</ele>
        <time>2018-09-02T16:09:31.000Z</time>
      </trkpt>
      <trkpt lat="43.30741790123283863067626953125" lon="-2.3776446841657161712646484375">
        <ele>55.200000762939453125</ele>
        <time>2018-09-02T16:09:32.000Z</time>
      </trkpt>
      <trkpt lat="43.3073931746184825897216796875" lon="-2.37773763947188854217529296875">
        <ele>55.40000152587890625</ele>
        <time>2018-09-02T16:09:33.000Z</time>
      </trkpt>
      <trkpt lat="43.307369537651538848876953125" lon="-2.37783134914934635162353515625">
        <ele>55.200000762939453125</ele>
        <time>2018-09-02T16:09:34.000Z</time>
      </trkpt>
      <trkpt lat="43.3073504269123077392578125" lon="-2.37792606465518474578857421875">
        <ele>54.799999237060546875</ele>
        <time>2018-09-02T16:09:35.000Z</time>
      </trkpt>
      <trkpt lat="43.30733173526823520660400390625" lon="-2.37802078016102313995361328125">
        <ele>54.40000152587890625</ele>
        <time>2018-09-02T16:09:36.000Z</time>
      </trkpt>
      <trkpt lat="43.3073133789002895355224609375" lon="-2.37812002189457416534423828125">
        <ele>53.799999237060546875</ele>
        <time>2018-09-02T16:09:37.000Z</time>
      </trkpt>
      <trkpt lat="43.30730290152132511138916015625" lon="-2.37822152674198150634765625">
        <ele>53.200000762939453125</ele>
        <time>2018-09-02T16:09:38.000Z</time>
      </trkpt>
      <trkpt lat="43.30730206333100795745849609375" lon="-2.37832252867519855499267578125">
        <ele>52</ele>
        <time>2018-09-02T16:09:39.000Z</time>
      </trkpt>
      <trkpt lat="43.3073080144822597503662109375" lon="-2.3784218542277812957763671875">
        <ele>50.59999847412109375</ele>
        <time>2018-09-02T16:09:40.000Z</time>
      </trkpt>
      <trkpt lat="43.3073251135647296905517578125" lon="-2.378524281084537506103515625">
        <ele>48.59999847412109375</ele>
        <time>2018-09-02T16:09:41.000Z</time>
      </trkpt>
      <trkpt lat="43.30734346993267536163330078125" lon="-2.37862444482743740081787109375">
        <ele>46.799999237060546875</ele>
        <time>2018-09-02T16:09:42.000Z</time>
      </trkpt>
      <trkpt lat="43.30735872499644756317138671875" lon="-2.37872444093227386474609375">
        <ele>45.59999847412109375</ele>
        <time>2018-09-02T16:09:43.000Z</time>
      </trkpt>
      <trkpt lat="43.30736978910863399505615234375" lon="-2.37882544286549091339111328125">
        <ele>44.59999847412109375</ele>
        <time>2018-09-02T16:09:44.000Z</time>
      </trkpt>
      <trkpt lat="43.30737448297441005706787109375" lon="-2.37892501987516880035400390625">
        <ele>43.799999237060546875</ele>
        <time>2018-09-02T16:09:45.000Z</time>
      </trkpt>
      <trkpt lat="43.30737062729895114898681640625" lon="-2.3790240101516246795654296875">
        <ele>43.200000762939453125</ele>
        <time>2018-09-02T16:09:46.000Z</time>
      </trkpt>
      <trkpt lat="43.30735453404486179351806640625" lon="-2.3791235871613025665283203125">
        <ele>42.799999237060546875</ele>
        <time>2018-09-02T16:09:47.000Z</time>
      </trkpt>
      <trkpt lat="43.307330645620822906494140625" lon="-2.379219643771648406982421875">
        <ele>43.200000762939453125</ele>
        <time>2018-09-02T16:09:48.000Z</time>
      </trkpt>
      <trkpt lat="43.3072959445416927337646484375" lon="-2.37931008450686931610107421875">
        <ele>44</ele>
        <time>2018-09-02T16:09:49.000Z</time>
      </trkpt>
      <trkpt lat="43.3072565495967864990234375" lon="-2.37939574755728244781494140625">
        <ele>44.799999237060546875</ele>
        <time>2018-09-02T16:09:50.000Z</time>
      </trkpt>
      <trkpt lat="43.3072141371667385101318359375" lon="-2.379481494426727294921875">
        <ele>45.799999237060546875</ele>
        <time>2018-09-02T16:09:51.000Z</time>
      </trkpt>
      <trkpt lat="43.3071705512702465057373046875" lon="-2.37956858240067958831787109375">
        <ele>46.799999237060546875</ele>
        <time>2018-09-02T16:09:52.000Z</time>
      </trkpt>
      <trkpt lat="43.30712847411632537841796875" lon="-2.3796610347926616668701171875">
        <ele>47.59999847412109375</ele>
        <time>2018-09-02T16:09:53.000Z</time>
      </trkpt>
      <trkpt lat="43.3070947788655757904052734375" lon="-2.37976002506911754608154296875">
        <ele>48</ele>
        <time>2018-09-02T16:09:54.000Z</time>
      </trkpt>
      <trkpt lat="43.30707223154604434967041015625" lon="-2.37986312247812747955322265625">
        <ele>48</ele>
        <time>2018-09-02T16:09:55.000Z</time>
      </trkpt>
      <trkpt lat="43.3070612512528896331787109375" lon="-2.379967309534549713134765625">
        <ele>47.59999847412109375</ele>
        <time>2018-09-02T16:09:56.000Z</time>
      </trkpt>
      <trkpt lat="43.30706007778644561767578125" lon="-2.3800690658390522003173828125">
        <ele>47.799999237060546875</ele>
        <time>2018-09-02T16:09:57.000Z</time>
      </trkpt>
      <trkpt lat="43.30706636421382427215576171875" lon="-2.38016688264906406402587890625">
        <ele>47.799999237060546875</ele>
        <time>2018-09-02T16:09:58.000Z</time>
      </trkpt>
      <trkpt lat="43.307077176868915557861328125" lon="-2.38025908358395099639892578125">
        <ele>47.799999237060546875</ele>
        <time>2018-09-02T16:09:59.000Z</time>
      </trkpt>
      <trkpt lat="43.3070862293243408203125" lon="-2.3803480155766010284423828125">
        <ele>47.59999847412109375</ele>
        <time>2018-09-02T16:10:00.000Z</time>
      </trkpt>
      <trkpt lat="43.30708715133368968963623046875" lon="-2.38043569028377532958984375">
        <ele>47.799999237060546875</ele>
        <time>2018-09-02T16:10:01.000Z</time>
      </trkpt>
      <trkpt lat="43.30707776360213756561279296875" lon="-2.38052177242934703826904296875">
        <ele>48.40000152587890625</ele>
        <time>2018-09-02T16:10:02.000Z</time>
      </trkpt>
      <trkpt lat="43.3070607483386993408203125" lon="-2.38060676492750644683837890625">
        <ele>48.200000762939453125</ele>
        <time>2018-09-02T16:10:03.000Z</time>
      </trkpt>
      <trkpt lat="43.30704004503786563873291015625" lon="-2.38069158978760242462158203125">
        <ele>48</ele>
        <time>2018-09-02T16:10:04.000Z</time>
      </trkpt>
      <trkpt lat="43.30701808445155620574951171875" lon="-2.38077674992382526397705078125">
        <ele>47.799999237060546875</ele>
        <time>2018-09-02T16:10:05.000Z</time>
      </trkpt>
      <trkpt lat="43.3069963753223419189453125" lon="-2.38086258061230182647705078125">
        <ele>47.59999847412109375</ele>
        <time>2018-09-02T16:10:06.000Z</time>
      </trkpt>
      <trkpt lat="43.3069734089076519012451171875" lon="-2.38094857893884181976318359375">
        <ele>47.59999847412109375</ele>
        <time>2018-09-02T16:10:07.000Z</time>
      </trkpt>
      <trkpt lat="43.30695052631199359893798828125" lon="-2.38103608600795269012451171875">
        <ele>47.40000152587890625</ele>
        <time>2018-09-02T16:10:08.000Z</time>
      </trkpt>
      <trkpt lat="43.30692722462117671966552734375" lon="-2.3811241798102855682373046875">
        <ele>47.40000152587890625</ele>
        <time>2018-09-02T16:10:09.000Z</time>
      </trkpt>
      <trkpt lat="43.30690509639680385589599609375" lon="-2.38121227361261844635009765625">
        <ele>47.200000762939453125</ele>
        <time>2018-09-02T16:10:10.000Z</time>
      </trkpt>
      <trkpt lat="43.30688397400081157684326171875" lon="-2.38129994831979274749755859375">
        <ele>47</ele>
        <time>2018-09-02T16:10:11.000Z</time>
      </trkpt>
      <trkpt lat="43.30686419270932674407958984375" lon="-2.3813873715698719024658203125">
        <ele>46.59999847412109375</ele>
        <time>2018-09-02T16:10:12.000Z</time>
      </trkpt>
      <trkpt lat="43.30684307031333446502685546875" lon="-2.38147311843931674957275390625">
        <ele>46.40000152587890625</ele>
        <time>2018-09-02T16:10:13.000Z</time>
      </trkpt>
      <trkpt lat="43.3068198524415493011474609375" lon="-2.3815603740513324737548828125">
        <ele>46.40000152587890625</ele>
        <time>2018-09-02T16:10:14.000Z</time>
      </trkpt>
      <trkpt lat="43.30679764039814472198486328125" lon="-2.38164804875850677490234375">
        <ele>46.200000762939453125</ele>
        <time>2018-09-02T16:10:15.000Z</time>
      </trkpt>
      <trkpt lat="43.30677433870732784271240234375" lon="-2.38173480145633220672607421875">
        <ele>45.59999847412109375</ele>
        <time>2018-09-02T16:10:16.000Z</time>
      </trkpt>
      <trkpt lat="43.30674801953136920928955078125" lon="-2.38181971013545989990234375">
        <ele>45</ele>
        <time>2018-09-02T16:10:17.000Z</time>
      </trkpt>
      <trkpt lat="43.30671851523220539093017578125" lon="-2.38190277479588985443115234375">
        <ele>44.799999237060546875</ele>
        <time>2018-09-02T16:10:18.000Z</time>
      </trkpt>
      <trkpt lat="43.30668666400015354156494140625" lon="-2.3819861747324466705322265625">
        <ele>44.799999237060546875</ele>
        <time>2018-09-02T16:10:19.000Z</time>
      </trkpt>
      <trkpt lat="43.306654393672943115234375" lon="-2.3820706643164157867431640625">
        <ele>44.59999847412109375</ele>
        <time>2018-09-02T16:10:20.000Z</time>
      </trkpt>
      <trkpt lat="43.3066206984221935272216796875" lon="-2.38215758465230464935302734375">
        <ele>44.40000152587890625</ele>
        <time>2018-09-02T16:10:21.000Z</time>
      </trkpt>
      <trkpt lat="43.3065859973430633544921875" lon="-2.38224693574011325836181640625">
        <ele>44.40000152587890625</ele>
        <time>2018-09-02T16:10:22.000Z</time>
      </trkpt>
      <trkpt lat="43.306550122797489166259765625" lon="-2.382337711751461029052734375">
        <ele>44.40000152587890625</ele>
        <time>2018-09-02T16:10:23.000Z</time>
      </trkpt>
      <trkpt lat="43.3065134100615978240966796875" lon="-2.3824327625334262847900390625">
        <ele>44.200000762939453125</ele>
        <time>2018-09-02T16:10:24.000Z</time>
      </trkpt>
      <trkpt lat="43.30647711642086505889892578125" lon="-2.3825276456773281097412109375">
        <ele>43.799999237060546875</ele>
        <time>2018-09-02T16:10:25.000Z</time>
      </trkpt>
      <trkpt lat="43.30643939785659313201904296875" lon="-2.38262244500219821929931640625">
        <ele>43.40000152587890625</ele>
        <time>2018-09-02T16:10:26.000Z</time>
      </trkpt>
      <trkpt lat="43.30640084110200405120849609375" lon="-2.38271716050803661346435546875">
        <ele>42.799999237060546875</ele>
        <time>2018-09-02T16:10:27.000Z</time>
      </trkpt>
      <trkpt lat="43.30636136233806610107421875" lon="-2.38281154073774814605712890625">
        <ele>42.40000152587890625</ele>
        <time>2018-09-02T16:10:28.000Z</time>
      </trkpt>
      <trkpt lat="43.3063196204602718353271484375" lon="-2.38290592096745967864990234375">
        <ele>42.200000762939453125</ele>
        <time>2018-09-02T16:10:29.000Z</time>
      </trkpt>
      <trkpt lat="43.3062777109444141387939453125" lon="-2.382998876273632049560546875">
        <ele>42</ele>
        <time>2018-09-02T16:10:30.000Z</time>
      </trkpt>
      <trkpt lat="43.30623672343790531158447265625" lon="-2.38309015519917011260986328125">
        <ele>42.200000762939453125</ele>
        <time>2018-09-02T16:10:31.000Z</time>
      </trkpt>
      <trkpt lat="43.30619565211236476898193359375" lon="-2.3831794224679470062255859375">
        <ele>42.59999847412109375</ele>
        <time>2018-09-02T16:10:32.000Z</time>
      </trkpt>
      <trkpt lat="43.306154496967792510986328125" lon="-2.38326885737478733062744140625">
        <ele>42.799999237060546875</ele>
        <time>2018-09-02T16:10:33.000Z</time>
      </trkpt>
      <trkpt lat="43.3061139285564422607421875" lon="-2.38335552625358104705810546875">
        <ele>43.200000762939453125</ele>
        <time>2018-09-02T16:10:34.000Z</time>
      </trkpt>
      <trkpt lat="43.30607176758348941802978515625" lon="-2.3834365792572498321533203125">
        <ele>43.799999237060546875</ele>
        <time>2018-09-02T16:10:35.000Z</time>
      </trkpt>
      <trkpt lat="43.30602617003023624420166015625" lon="-2.38351277075707912445068359375">
        <ele>44.40000152587890625</ele>
        <time>2018-09-02T16:10:36.000Z</time>
      </trkpt>
      <trkpt lat="43.30597789026796817779541015625" lon="-2.38358099944889545440673828125">
        <ele>45.40000152587890625</ele>
        <time>2018-09-02T16:10:37.000Z</time>
      </trkpt>
      <trkpt lat="43.305923826992511749267578125" lon="-2.3836394213140010833740234375">
        <ele>45.59999847412109375</ele>
        <time>2018-09-02T16:10:38.000Z</time>
      </trkpt>
      <trkpt lat="43.30586574040353298187255859375" lon="-2.38369055092334747314453125">
        <ele>45.799999237060546875</ele>
        <time>2018-09-02T16:10:39.000Z</time>
      </trkpt>
      <trkpt lat="43.30580606125295162200927734375" lon="-2.3837416805326938629150390625">
        <ele>46</ele>
        <time>2018-09-02T16:10:40.000Z</time>
      </trkpt>
      <trkpt lat="43.305745460093021392822265625" lon="-2.3837926425039768218994140625">
        <ele>46.200000762939453125</ele>
        <time>2018-09-02T16:10:41.000Z</time>
      </trkpt>
      <trkpt lat="43.30568519420921802520751953125" lon="-2.3838422633707523345947265625">
        <ele>46.40000152587890625</ele>
        <time>2018-09-02T16:10:42.000Z</time>
      </trkpt>
      <trkpt lat="43.30562819726765155792236328125" lon="-2.3838932253420352935791015625">
        <ele>46.59999847412109375</ele>
        <time>2018-09-02T16:10:43.000Z</time>
      </trkpt>
      <trkpt lat="43.30557740293443202972412109375" lon="-2.383948378264904022216796875">
        <ele>46.59999847412109375</ele>
        <time>2018-09-02T16:10:44.000Z</time>
      </trkpt>
      <trkpt lat="43.3055333979427814483642578125" lon="-2.38400629721581935882568359375">
        <ele>46.40000152587890625</ele>
        <time>2018-09-02T16:10:45.000Z</time>
      </trkpt>
      <trkpt lat="43.30549660138785839080810546875" lon="-2.38406429998576641082763671875">
        <ele>46.200000762939453125</ele>
        <time>2018-09-02T16:10:46.000Z</time>
      </trkpt>
      <trkpt lat="43.305463492870330810546875" lon="-2.3841192014515399932861328125">
        <ele>46</ele>
        <time>2018-09-02T16:10:47.000Z</time>
      </trkpt>
      <trkpt lat="43.30543558113276958465576171875" lon="-2.38417427055537700653076171875">
        <ele>46</ele>
        <time>2018-09-02T16:10:48.000Z</time>
      </trkpt>
      <trkpt lat="43.3054113574326038360595703125" lon="-2.3842268250882625579833984375">
        <ele>46.200000762939453125</ele>
        <time>2018-09-02T16:10:49.000Z</time>
      </trkpt>
      <trkpt lat="43.30538897775113582611083984375" lon="-2.3842751048505306243896484375">
        <ele>46.59999847412109375</ele>
        <time>2018-09-02T16:10:50.000Z</time>
      </trkpt>
      <trkpt lat="43.30537053756415843963623046875" lon="-2.38432212732732295989990234375">
        <ele>46.799999237060546875</ele>
        <time>2018-09-02T16:10:51.000Z</time>
      </trkpt>
      <trkpt lat="43.30535444431006908416748046875" lon="-2.38436705432832241058349609375">
        <ele>47</ele>
        <time>2018-09-02T16:10:52.000Z</time>
      </trkpt>
      <trkpt lat="43.30533868633210659027099609375" lon="-2.38441064022481441497802734375">
        <ele>47.200000762939453125</ele>
        <time>2018-09-02T16:10:53.000Z</time>
      </trkpt>
      <trkpt lat="43.3053221739828586578369140625" lon="-2.384452633559703826904296875">
        <ele>47.40000152587890625</ele>
        <time>2018-09-02T16:10:54.000Z</time>
      </trkpt>
      <trkpt lat="43.3053065836429595947265625" lon="-2.3844933696091175079345703125">
        <ele>47.59999847412109375</ele>
        <time>2018-09-02T16:10:55.000Z</time>
      </trkpt>
      <trkpt lat="43.3052923344075679779052734375" lon="-2.384533770382404327392578125">
        <ele>47.799999237060546875</ele>
        <time>2018-09-02T16:10:56.000Z</time>
      </trkpt>
      <trkpt lat="43.305276744067668914794921875" lon="-2.38457073457539081573486328125">
        <ele>48.200000762939453125</ele>
        <time>2018-09-02T16:10:57.000Z</time>
      </trkpt>
      <trkpt lat="43.305259980261325836181640625" lon="-2.38460627384483814239501953125">
        <ele>48.40000152587890625</ele>
        <time>2018-09-02T16:10:58.000Z</time>
      </trkpt>
      <trkpt lat="43.30524430610239505767822265625" lon="-2.384643740952014923095703125">
        <ele>48.59999847412109375</ele>
        <time>2018-09-02T16:10:59.000Z</time>
      </trkpt>
      <trkpt lat="43.3052287995815277099609375" lon="-2.3846804536879062652587890625">
        <ele>48.799999237060546875</ele>
        <time>2018-09-02T16:11:00.000Z</time>
      </trkpt>
      <trkpt lat="43.30521329306066036224365234375" lon="-2.38471725024282932281494140625">
        <ele>49</ele>
        <time>2018-09-02T16:11:01.000Z</time>
      </trkpt>
      <trkpt lat="43.3051981218159198760986328125" lon="-2.38475530408322811126708984375">
        <ele>49.200000762939453125</ele>
        <time>2018-09-02T16:11:02.000Z</time>
      </trkpt>
      <trkpt lat="43.30518295057117938995361328125" lon="-2.38479067571461200714111328125">
        <ele>49.40000152587890625</ele>
        <time>2018-09-02T16:11:03.000Z</time>
      </trkpt>
      <trkpt lat="43.30516752786934375762939453125" lon="-2.3848246224224567413330078125">
        <ele>49.59999847412109375</ele>
        <time>2018-09-02T16:11:04.000Z</time>
      </trkpt>
      <trkpt lat="43.305152021348476409912109375" lon="-2.38485873676836490631103515625">
        <ele>49.799999237060546875</ele>
        <time>2018-09-02T16:11:05.000Z</time>
      </trkpt>
      <trkpt lat="43.3051364310085773468017578125" lon="-2.38489218056201934814453125">
        <ele>50</ele>
        <time>2018-09-02T16:11:06.000Z</time>
      </trkpt>
      <trkpt lat="43.30512209795415401458740234375" lon="-2.3849248699843883514404296875">
        <ele>50.59999847412109375</ele>
        <time>2018-09-02T16:11:07.000Z</time>
      </trkpt>
      <trkpt lat="43.3051059208810329437255859375" lon="-2.38495521247386932373046875">
        <ele>51</ele>
        <time>2018-09-02T16:11:08.000Z</time>
      </trkpt>
      <trkpt lat="43.30509024672210216522216796875" lon="-2.38498396240174770355224609375">
        <ele>51.40000152587890625</ele>
        <time>2018-09-02T16:11:09.000Z</time>
      </trkpt>
      <trkpt lat="43.3050759136676788330078125" lon="-2.385012544691562652587890625">
        <ele>51.200000762939453125</ele>
        <time>2018-09-02T16:11:10.000Z</time>
      </trkpt>
      <trkpt lat="43.3050619997084140777587890625" lon="-2.38504129461944103240966796875">
        <ele>51</ele>
        <time>2018-09-02T16:11:11.000Z</time>
      </trkpt>
      <trkpt lat="43.30504850484430789947509765625" lon="-2.38506845198571681976318359375">
        <ele>51</ele>
        <time>2018-09-02T16:11:12.000Z</time>
      </trkpt>
      <trkpt lat="43.30503500998020172119140625" lon="-2.3850968666374683380126953125">
        <ele>51</ele>
        <time>2018-09-02T16:11:13.000Z</time>
      </trkpt>
      <trkpt lat="43.3050207607448101043701171875" lon="-2.3851257003843784332275390625">
        <ele>51</ele>
        <time>2018-09-02T16:11:14.000Z</time>
      </trkpt>
      <trkpt lat="43.30500659532845020294189453125" lon="-2.38515445031225681304931640625">
        <ele>51</ele>
        <time>2018-09-02T16:11:15.000Z</time>
      </trkpt>
      <trkpt lat="43.30499368719756603240966796875" lon="-2.38518462516367435455322265625">
        <ele>51</ele>
        <time>2018-09-02T16:11:16.000Z</time>
      </trkpt>
      <trkpt lat="43.30497977323830127716064453125" lon="-2.38521513529121875762939453125">
        <ele>51</ele>
        <time>2018-09-02T16:11:17.000Z</time>
      </trkpt>
      <trkpt lat="43.30496636219322681427001953125" lon="-2.3852470703423023223876953125">
        <ele>51</ele>
        <time>2018-09-02T16:11:18.000Z</time>
      </trkpt>
      <trkpt lat="43.30495110712945461273193359375" lon="-2.38527967594563961029052734375">
        <ele>51</ele>
        <time>2018-09-02T16:11:19.000Z</time>
      </trkpt>
      <trkpt lat="43.3049362711608409881591796875" lon="-2.38531152717769145965576171875">
        <ele>51</ele>
        <time>2018-09-02T16:11:20.000Z</time>
      </trkpt>
      <trkpt lat="43.30492177046835422515869140625" lon="-2.3853439651429653167724609375">
        <ele>51</ele>
        <time>2018-09-02T16:11:21.000Z</time>
      </trkpt>
      <trkpt lat="43.30490550957620143890380859375" lon="-2.38537631928920745849609375">
        <ele>51</ele>
        <time>2018-09-02T16:11:22.000Z</time>
      </trkpt>
      <trkpt lat="43.30488924868404865264892578125" lon="-2.38540976308286190032958984375">
        <ele>51</ele>
        <time>2018-09-02T16:11:23.000Z</time>
      </trkpt>
      <trkpt lat="43.30487399362027645111083984375" lon="-2.385445050895214080810546875">
        <ele>51</ele>
        <time>2018-09-02T16:11:24.000Z</time>
      </trkpt>
      <trkpt lat="43.30485974438488483428955078125" lon="-2.3854797519743442535400390625">
        <ele>51</ele>
        <time>2018-09-02T16:11:25.000Z</time>
      </trkpt>
      <trkpt lat="43.30484515987336635589599609375" lon="-2.385513782501220703125">
        <ele>51</ele>
        <time>2018-09-02T16:11:26.000Z</time>
      </trkpt>
      <trkpt lat="43.304829485714435577392578125" lon="-2.3855478130280971527099609375">
        <ele>51</ele>
        <time>2018-09-02T16:11:27.000Z</time>
      </trkpt>
      <trkpt lat="43.30481297336518764495849609375" lon="-2.385583184659481048583984375">
        <ele>51.200000762939453125</ele>
        <time>2018-09-02T16:11:28.000Z</time>
      </trkpt>
      <trkpt lat="43.30479587428271770477294921875" lon="-2.38561981357634067535400390625">
        <ele>51.200000762939453125</ele>
        <time>2018-09-02T16:11:29.000Z</time>
      </trkpt>
      <trkpt lat="43.3047781884670257568359375" lon="-2.38565661013126373291015625">
        <ele>51.200000762939453125</ele>
        <time>2018-09-02T16:11:30.000Z</time>
      </trkpt>
      <trkpt lat="43.3047605864703655242919921875" lon="-2.385693155229091644287109375">
        <ele>51.200000762939453125</ele>
        <time>2018-09-02T16:11:31.000Z</time>
      </trkpt>
      <trkpt lat="43.30474290065467357635498046875" lon="-2.38573045469820499420166015625">
        <ele>51.200000762939453125</ele>
        <time>2018-09-02T16:11:32.000Z</time>
      </trkpt>
      <trkpt lat="43.30472596921026706695556640625" lon="-2.3857687599956989288330078125">
        <ele>51.200000762939453125</ele>
        <time>2018-09-02T16:11:33.000Z</time>
      </trkpt>
      <trkpt lat="43.30470719374716281890869140625" lon="-2.3858079873025417327880859375">
        <ele>51.200000762939453125</ele>
        <time>2018-09-02T16:11:34.000Z</time>
      </trkpt>
      <trkpt lat="43.304685987532138824462890625" lon="-2.385849058628082275390625">
        <ele>51.200000762939453125</ele>
        <time>2018-09-02T16:11:35.000Z</time>
      </trkpt>
      <trkpt lat="43.304663188755512237548828125" lon="-2.3858914710581302642822265625">
        <ele>51.200000762939453125</ele>
        <time>2018-09-02T16:11:36.000Z</time>
      </trkpt>
      <trkpt lat="43.30463879741728305816650390625" lon="-2.3859360627830028533935546875">
        <ele>51.40000152587890625</ele>
        <time>2018-09-02T16:11:37.000Z</time>
      </trkpt>
      <trkpt lat="43.30461482517421245574951171875" lon="-2.38598157651722431182861328125">
        <ele>51.40000152587890625</ele>
        <time>2018-09-02T16:11:38.000Z</time>
      </trkpt>
      <trkpt lat="43.3045922778546810150146484375" lon="-2.38602935336530208587646484375">
        <ele>51.40000152587890625</ele>
        <time>2018-09-02T16:11:39.000Z</time>
      </trkpt>
      <trkpt lat="43.30457157455384731292724609375" lon="-2.386078722774982452392578125">
        <ele>51.200000762939453125</ele>
        <time>2018-09-02T16:11:40.000Z</time>
      </trkpt>
      <trkpt lat="43.30455263145267963409423828125" lon="-2.38613027147948741912841796875">
        <ele>51.200000762939453125</ele>
        <time>2018-09-02T16:11:41.000Z</time>
      </trkpt>
      <trkpt lat="43.3045336045324802398681640625" lon="-2.3861824907362461090087890625">
        <ele>51</ele>
        <time>2018-09-02T16:11:42.000Z</time>
      </trkpt>
      <trkpt lat="43.30451290123164653778076171875" lon="-2.38623303361237049102783203125">
        <ele>51</ele>
        <time>2018-09-02T16:11:43.000Z</time>
      </trkpt>
      <trkpt lat="43.304490186274051666259765625" lon="-2.38628131337463855743408203125">
        <ele>50.799999237060546875</ele>
        <time>2018-09-02T16:11:44.000Z</time>
      </trkpt>
      <trkpt lat="43.30446847714483737945556640625" lon="-2.38632909022271633148193359375">
        <ele>50.799999237060546875</ele>
        <time>2018-09-02T16:11:45.000Z</time>
      </trkpt>
      <trkpt lat="43.30444735474884510040283203125" lon="-2.3863772861659526824951171875">
        <ele>50.799999237060546875</ele>
        <time>2018-09-02T16:11:46.000Z</time>
      </trkpt>
      <trkpt lat="43.3044266514480113983154296875" lon="-2.38642615266144275665283203125">
        <ele>50.799999237060546875</ele>
        <time>2018-09-02T16:11:47.000Z</time>
      </trkpt>
      <trkpt lat="43.30440611578524112701416015625" lon="-2.38647401332855224609375">
        <ele>50.59999847412109375</ele>
        <time>2018-09-02T16:11:48.000Z</time>
      </trkpt>
      <trkpt lat="43.30438398756086826324462890625" lon="-2.386523298919200897216796875">
        <ele>50.59999847412109375</ele>
        <time>2018-09-02T16:11:49.000Z</time>
      </trkpt>
      <trkpt lat="43.30436202697455883026123046875" lon="-2.38657183013856410980224609375">
        <ele>50.59999847412109375</ele>
        <time>2018-09-02T16:11:50.000Z</time>
      </trkpt>
      <trkpt lat="43.304339312016963958740234375" lon="-2.386620528995990753173828125">
        <ele>50.59999847412109375</ele>
        <time>2018-09-02T16:11:51.000Z</time>
      </trkpt>
      <trkpt lat="43.3043176867067813873291015625" lon="-2.38667073659598827362060546875">
        <ele>51.200000762939453125</ele>
        <time>2018-09-02T16:11:52.000Z</time>
      </trkpt>
      <trkpt lat="43.3042980730533599853515625" lon="-2.38672136329114437103271484375">
        <ele>51.799999237060546875</ele>
        <time>2018-09-02T16:11:53.000Z</time>
      </trkpt>
      <trkpt lat="43.3042791299521923065185546875" lon="-2.386771738529205322265625">
        <ele>53</ele>
        <time>2018-09-02T16:11:54.000Z</time>
      </trkpt>
      <trkpt lat="43.30426211468875408172607421875" lon="-2.38682278431951999664306640625">
        <ele>54</ele>
        <time>2018-09-02T16:11:55.000Z</time>
      </trkpt>
      <trkpt lat="43.3042476139962673187255859375" lon="-2.386873662471771240234375">
        <ele>55</ele>
        <time>2018-09-02T16:11:56.000Z</time>
      </trkpt>
      <trkpt lat="43.3042363822460174560546875" lon="-2.3869237862527370452880859375">
        <ele>55.799999237060546875</ele>
        <time>2018-09-02T16:11:57.000Z</time>
      </trkpt>
      <trkpt lat="43.30423160456120967864990234375" lon="-2.3869740776717662811279296875">
        <ele>56.40000152587890625</ele>
        <time>2018-09-02T16:11:58.000Z</time>
      </trkpt>
      <trkpt lat="43.30423462204635143280029296875" lon="-2.3870243690907955169677734375">
        <ele>57</ele>
        <time>2018-09-02T16:11:59.000Z</time>
      </trkpt>
      <trkpt lat="43.30424652434885501861572265625" lon="-2.3870733194053173065185546875">
        <ele>57.200000762939453125</ele>
        <time>2018-09-02T16:12:00.000Z</time>
      </trkpt>
      <trkpt lat="43.3042667247354984283447265625" lon="-2.38711799494922161102294921875">
        <ele>57</ele>
        <time>2018-09-02T16:12:01.000Z</time>
      </trkpt>
      <trkpt lat="43.30429413355886936187744140625" lon="-2.38715336658060550689697265625">
        <ele>56.59999847412109375</ele>
        <time>2018-09-02T16:12:02.000Z</time>
      </trkpt>
      <trkpt lat="43.30432682298123836517333984375" lon="-2.3871772550046443939208984375">
        <ele>56.59999847412109375</ele>
        <time>2018-09-02T16:12:03.000Z</time>
      </trkpt>
      <trkpt lat="43.304362781345844268798828125" lon="-2.387191839516162872314453125">
        <ele>56.59999847412109375</ele>
        <time>2018-09-02T16:12:04.000Z</time>
      </trkpt>
      <trkpt lat="43.3043999969959259033203125" lon="-2.3871993832290172576904296875">
        <ele>56.40000152587890625</ele>
        <time>2018-09-02T16:12:05.000Z</time>
      </trkpt>
      <trkpt lat="43.30443696118891239166259765625" lon="-2.38720214925706386566162109375">
        <ele>56.40000152587890625</ele>
        <time>2018-09-02T16:12:06.000Z</time>
      </trkpt>
      <trkpt lat="43.30447384156286716461181640625" lon="-2.38720382563769817352294921875">
        <ele>56.200000762939453125</ele>
        <time>2018-09-02T16:12:07.000Z</time>
      </trkpt>
      <trkpt lat="43.30451088957488536834716796875" lon="-2.3872049152851104736328125">
        <ele>56</ele>
        <time>2018-09-02T16:12:08.000Z</time>
      </trkpt>
      <trkpt lat="43.30454709939658641815185546875" lon="-2.38720449618995189666748046875">
        <ele>55.799999237060546875</ele>
        <time>2018-09-02T16:12:09.000Z</time>
      </trkpt>
      <trkpt lat="43.30458347685635089874267578125" lon="-2.3872037418186664581298828125">
        <ele>55.59999847412109375</ele>
        <time>2018-09-02T16:12:10.000Z</time>
      </trkpt>
      <trkpt lat="43.3046197704970836639404296875" lon="-2.387203238904476165771484375">
        <ele>55.59999847412109375</ele>
        <time>2018-09-02T16:12:11.000Z</time>
      </trkpt>
      <trkpt lat="43.30465639941394329071044921875" lon="-2.3872024007141590118408203125">
        <ele>55.59999847412109375</ele>
        <time>2018-09-02T16:12:12.000Z</time>
      </trkpt>
      <trkpt lat="43.30469260923564434051513671875" lon="-2.38720147870481014251708984375">
        <ele>55.59999847412109375</ele>
        <time>2018-09-02T16:12:13.000Z</time>
      </trkpt>
      <trkpt lat="43.3047287352383136749267578125" lon="-2.38720131106674671173095703125">
        <ele>55.40000152587890625</ele>
        <time>2018-09-02T16:12:14.000Z</time>
      </trkpt>
      <trkpt lat="43.3047647774219512939453125" lon="-2.38720198161900043487548828125">
        <ele>55.40000152587890625</ele>
        <time>2018-09-02T16:12:15.000Z</time>
      </trkpt>
      <trkpt lat="43.30480107106268405914306640625" lon="-2.3872022330760955810546875">
        <ele>55.40000152587890625</ele>
        <time>2018-09-02T16:12:16.000Z</time>
      </trkpt>
      <trkpt lat="43.30483761616051197052001953125" lon="-2.38720214925706386566162109375">
        <ele>55.40000152587890625</ele>
        <time>2018-09-02T16:12:17.000Z</time>
      </trkpt>
      <trkpt lat="43.3048742450773715972900390625" lon="-2.387201897799968719482421875">
        <ele>55.200000762939453125</ele>
        <time>2018-09-02T16:12:18.000Z</time>
      </trkpt>
      <trkpt lat="43.304910622537136077880859375" lon="-2.38720181398093700408935546875">
        <ele>55.200000762939453125</ele>
        <time>2018-09-02T16:12:19.000Z</time>
      </trkpt>
      <trkpt lat="43.3049463294446468353271484375" lon="-2.387203238904476165771484375">
        <ele>55.200000762939453125</ele>
        <time>2018-09-02T16:12:20.000Z</time>
      </trkpt>
      <trkpt lat="43.30498161725699901580810546875" lon="-2.38720483146607875823974609375">
        <ele>55.200000762939453125</ele>
        <time>2018-09-02T16:12:21.000Z</time>
      </trkpt>
      <trkpt lat="43.30501631833612918853759765625" lon="-2.38720667548477649688720703125">
        <ele>55.200000762939453125</ele>
        <time>2018-09-02T16:12:22.000Z</time>
      </trkpt>
      <trkpt lat="43.30505018122494220733642578125" lon="-2.3872074298560619354248046875">
        <ele>55.200000762939453125</ele>
        <time>2018-09-02T16:12:23.000Z</time>
      </trkpt>
      <trkpt lat="43.305084295570850372314453125" lon="-2.38720784895122051239013671875">
        <ele>55.200000762939453125</ele>
        <time>2018-09-02T16:12:24.000Z</time>
      </trkpt>
      <trkpt lat="43.3051163144409656524658203125" lon="-2.38720466382801532745361328125">
        <ele>55</ele>
        <time>2018-09-02T16:12:25.000Z</time>
      </trkpt>
      <trkpt lat="43.305149339139461517333984375" lon="-2.3872049152851104736328125">
        <ele>55.200000762939453125</ele>
        <time>2018-09-02T16:12:26.000Z</time>
      </trkpt>
      <trkpt lat="43.30518412403762340545654296875" lon="-2.387203238904476165771484375">
        <ele>55.200000762939453125</ele>
        <time>2018-09-02T16:12:27.000Z</time>
      </trkpt>
      <trkpt lat="43.30522133968770503997802734375" lon="-2.38720164634287357330322265625">
        <ele>55.40000152587890625</ele>
        <time>2018-09-02T16:12:28.000Z</time>
      </trkpt>
      <trkpt lat="43.30525939352810382843017578125" lon="-2.38719980232417583465576171875">
        <ele>55.59999847412109375</ele>
        <time>2018-09-02T16:12:29.000Z</time>
      </trkpt>
      <trkpt lat="43.30529786646366119384765625" lon="-2.3871967010200023651123046875">
        <ele>55.59999847412109375</ele>
        <time>2018-09-02T16:12:30.000Z</time>
      </trkpt>
      <trkpt lat="43.305337429046630859375" lon="-2.3871963657438755035400390625">
        <ele>55.799999237060546875</ele>
        <time>2018-09-02T16:12:31.000Z</time>
      </trkpt>
      <trkpt lat="43.3053815178573131561279296875" lon="-2.38720265217125415802001953125">
        <ele>56.200000762939453125</ele>
        <time>2018-09-02T16:12:32.000Z</time>
      </trkpt>
      <trkpt lat="43.30542434938251972198486328125" lon="-2.38720558583736419677734375">
        <ele>56.40000152587890625</ele>
        <time>2018-09-02T16:12:33.000Z</time>
      </trkpt>
      <trkpt lat="43.30546726472675800323486328125" lon="-2.38721421919763088226318359375">
        <ele>56.40000152587890625</ele>
        <time>2018-09-02T16:12:34.000Z</time>
      </trkpt>
      <trkpt lat="43.305511437356472015380859375" lon="-2.38722260110080242156982421875">
        <ele>56.40000152587890625</ele>
        <time>2018-09-02T16:12:35.000Z</time>
      </trkpt>
      <trkpt lat="43.30555938184261322021484375" lon="-2.3872319050133228302001953125">
        <ele>56.40000152587890625</ele>
        <time>2018-09-02T16:12:36.000Z</time>
      </trkpt>
      <trkpt lat="43.30560900270938873291015625" lon="-2.38723911345005035400390625">
        <ele>56.40000152587890625</ele>
        <time>2018-09-02T16:12:37.000Z</time>
      </trkpt>
      <trkpt lat="43.30566138960421085357666015625" lon="-2.3872426338493824005126953125">
        <ele>56.40000152587890625</ele>
        <time>2018-09-02T16:12:38.000Z</time>
      </trkpt>
      <trkpt lat="43.3057144470512866973876953125" lon="-2.3872433044016361236572265625">
        <ele>56.40000152587890625</ele>
        <time>2018-09-02T16:12:39.000Z</time>
      </trkpt>
      <trkpt lat="43.3057664148509502410888671875" lon="-2.38724154420197010040283203125">
        <ele>56.200000762939453125</ele>
        <time>2018-09-02T16:12:40.000Z</time>
      </trkpt>
      <trkpt lat="43.3058187179267406463623046875" lon="-2.387239448726177215576171875">
        <ele>56.200000762939453125</ele>
        <time>2018-09-02T16:12:41.000Z</time>
      </trkpt>
      <trkpt lat="43.3058690093457698822021484375" lon="-2.3872397840023040771484375">
        <ele>56</ele>
        <time>2018-09-02T16:12:42.000Z</time>
      </trkpt>
      <trkpt lat="43.3059196360409259796142578125" lon="-2.38723970018327236175537109375">
        <ele>56</ele>
        <time>2018-09-02T16:12:43.000Z</time>
      </trkpt>
      <trkpt lat="43.3059699274599552154541015625" lon="-2.3872359283268451690673828125">
        <ele>56</ele>
        <time>2018-09-02T16:12:44.000Z</time>
      </trkpt>
      <trkpt lat="43.3060202188789844512939453125" lon="-2.387233078479766845703125">
        <ele>55.40000152587890625</ele>
        <time>2018-09-02T16:12:45.000Z</time>
      </trkpt>
      <trkpt lat="43.3060701750218868255615234375" lon="-2.38723148591816425323486328125">
        <ele>55</ele>
        <time>2018-09-02T16:12:46.000Z</time>
      </trkpt>
      <trkpt lat="43.3061184547841548919677734375" lon="-2.38723098300397396087646484375">
        <ele>54.59999847412109375</ele>
        <time>2018-09-02T16:12:47.000Z</time>
      </trkpt>
      <trkpt lat="43.306166231632232666015625" lon="-2.38723316229879856109619140625">
        <ele>54.200000762939453125</ele>
        <time>2018-09-02T16:12:48.000Z</time>
      </trkpt>
      <trkpt lat="43.30621191300451755523681640625" lon="-2.3872332461178302764892578125">
        <ele>53.799999237060546875</ele>
        <time>2018-09-02T16:12:49.000Z</time>
      </trkpt>
      <trkpt lat="43.306257426738739013671875" lon="-2.3872344195842742919921875">
        <ele>53.799999237060546875</ele>
        <time>2018-09-02T16:12:50.000Z</time>
      </trkpt>
      <trkpt lat="43.3062998391687870025634765625" lon="-2.38723433576524257659912109375">
        <ele>53.59999847412109375</ele>
        <time>2018-09-02T16:12:51.000Z</time>
      </trkpt>
      <trkpt lat="43.30634283833205699920654296875" lon="-2.38723785616457462310791015625">
        <ele>53.40000152587890625</ele>
        <time>2018-09-02T16:12:52.000Z</time>
      </trkpt>
      <trkpt lat="43.30638550221920013427734375" lon="-2.38724355585873126983642578125">
        <ele>53.40000152587890625</ele>
        <time>2018-09-02T16:12:53.000Z</time>
      </trkpt>
      <trkpt lat="43.3064285852015018463134765625" lon="-2.38724925555288791656494140625">
        <ele>53.200000762939453125</ele>
        <time>2018-09-02T16:12:54.000Z</time>
      </trkpt>
      <trkpt lat="43.30647124908864498138427734375" lon="-2.38725193776190280914306640625">
        <ele>53.200000762939453125</ele>
        <time>2018-09-02T16:12:55.000Z</time>
      </trkpt>
      <trkpt lat="43.3065107278525829315185546875" lon="-2.3872583918273448944091796875">
        <ele>53.200000762939453125</ele>
        <time>2018-09-02T16:12:56.000Z</time>
      </trkpt>
      <trkpt lat="43.30655045807361602783203125" lon="-2.38726199604570865631103515625">
        <ele>53</ele>
        <time>2018-09-02T16:12:57.000Z</time>
      </trkpt>
      <trkpt lat="43.3065895177423954010009765625" lon="-2.3872650973498821258544921875">
        <ele>53</ele>
        <time>2018-09-02T16:12:58.000Z</time>
      </trkpt>
      <trkpt lat="43.30662782303988933563232421875" lon="-2.3872681148350238800048828125">
        <ele>52.799999237060546875</ele>
        <time>2018-09-02T16:12:59.000Z</time>
      </trkpt>
      <trkpt lat="43.306664787232875823974609375" lon="-2.38726870156824588775634765625">
        <ele>52.59999847412109375</ele>
        <time>2018-09-02T16:13:00.000Z</time>
      </trkpt>
      <trkpt lat="43.30670175142586231231689453125" lon="-2.3872724734246730804443359375">
        <ele>52.59999847412109375</ele>
        <time>2018-09-02T16:13:01.000Z</time>
      </trkpt>
      <trkpt lat="43.30673930235207080841064453125" lon="-2.38727624528110027313232421875">
        <ele>52.59999847412109375</ele>
        <time>2018-09-02T16:13:02.000Z</time>
      </trkpt>
      <trkpt lat="43.30677417106926441192626953125" lon="-2.38728244788944721221923828125">
        <ele>52.40000152587890625</ele>
        <time>2018-09-02T16:13:03.000Z</time>
      </trkpt>
      <trkpt lat="43.3068034239113330841064453125" lon="-2.3872976191341876983642578125">
        <ele>52.59999847412109375</ele>
        <time>2018-09-02T16:13:04.000Z</time>
      </trkpt>
      <trkpt lat="43.30682965926826000213623046875" lon="-2.38731765188276767730712890625">
        <ele>53.200000762939453125</ele>
        <time>2018-09-02T16:13:05.000Z</time>
      </trkpt>
      <trkpt lat="43.3068486861884593963623046875" lon="-2.38733835518360137939453125">
        <ele>53.799999237060546875</ele>
        <time>2018-09-02T16:13:06.000Z</time>
      </trkpt>
      <trkpt lat="43.30686628818511962890625" lon="-2.38736375235021114349365234375">
        <ele>54.40000152587890625</ele>
        <time>2018-09-02T16:13:07.000Z</time>
      </trkpt>
      <trkpt lat="43.3068862371146678924560546875" lon="-2.38738805986940860748291015625">
        <ele>54.799999237060546875</ele>
        <time>2018-09-02T16:13:08.000Z</time>
      </trkpt>
      <trkpt lat="43.30690593458712100982666015625" lon="-2.38741613924503326416015625">
        <ele>55</ele>
        <time>2018-09-02T16:13:09.000Z</time>
      </trkpt>
      <trkpt lat="43.30692403949797153472900390625" lon="-2.3874481581151485443115234375">
        <ele>55</ele>
        <time>2018-09-02T16:13:10.000Z</time>
      </trkpt>
      <trkpt lat="43.306939713656902313232421875" lon="-2.387480176985263824462890625">
        <ele>55</ele>
        <time>2018-09-02T16:13:11.000Z</time>
      </trkpt>
      <trkpt lat="43.3069522865116596221923828125" lon="-2.3875115253031253814697265625">
        <ele>55.40000152587890625</ele>
        <time>2018-09-02T16:13:12.000Z</time>
      </trkpt>
      <trkpt lat="43.3069616742432117462158203125" lon="-2.38754195161163806915283203125">
        <ele>55.799999237060546875</ele>
        <time>2018-09-02T16:13:13.000Z</time>
      </trkpt>
      <trkpt lat="43.3069670386612415313720703125" lon="-2.3875708691775798797607421875">
        <ele>56.200000762939453125</ele>
        <time>2018-09-02T16:13:14.000Z</time>
      </trkpt>
      <trkpt lat="43.30697231926023960113525390625" lon="-2.3875986970961093902587890625">
        <ele>56.59999847412109375</ele>
        <time>2018-09-02T16:13:15.000Z</time>
      </trkpt>
      <trkpt lat="43.30697701312601566314697265625" lon="-2.38762560300529003143310546875">
        <ele>57</ele>
        <time>2018-09-02T16:13:16.000Z</time>
      </trkpt>
      <trkpt lat="43.3069834671914577484130859375" lon="-2.3876530118286609649658203125">
        <ele>57.40000152587890625</ele>
        <time>2018-09-02T16:13:17.000Z</time>
      </trkpt>
      <trkpt lat="43.30699377693235874176025390625" lon="-2.3876811750233173370361328125">
        <ele>57.799999237060546875</ele>
        <time>2018-09-02T16:13:18.000Z</time>
      </trkpt>
      <trkpt lat="43.30700576305389404296875" lon="-2.387709505856037139892578125">
        <ele>58.200000762939453125</ele>
        <time>2018-09-02T16:13:19.000Z</time>
      </trkpt>
      <trkpt lat="43.3070173300802707672119140625" lon="-2.38773708231747150421142578125">
        <ele>58.59999847412109375</ele>
        <time>2018-09-02T16:13:20.000Z</time>
      </trkpt>
      <trkpt lat="43.3070267178118228912353515625" lon="-2.3877613060176372528076171875">
        <ele>59</ele>
        <time>2018-09-02T16:13:21.000Z</time>
      </trkpt>
      <trkpt lat="43.30703250132501125335693359375" lon="-2.38778167404234409332275390625">
        <ele>59.40000152587890625</ele>
        <time>2018-09-02T16:13:22.000Z</time>
      </trkpt>
      <trkpt lat="43.307036943733692169189453125" lon="-2.387800700962543487548828125">
        <ele>59.59999847412109375</ele>
        <time>2018-09-02T16:13:23.000Z</time>
      </trkpt>
      <trkpt lat="43.3070384524762630462646484375" lon="-2.38782576285302639007568359375">
        <ele>60</ele>
        <time>2018-09-02T16:13:24.000Z</time>
      </trkpt>
      <trkpt lat="43.30703937448561191558837890625" lon="-2.3878541775047779083251953125">
        <ele>60.40000152587890625</ele>
        <time>2018-09-02T16:13:25.000Z</time>
      </trkpt>
      <trkpt lat="43.30703769810497760772705078125" lon="-2.38788544200360774993896484375">
        <ele>60.799999237060546875</ele>
        <time>2018-09-02T16:13:26.000Z</time>
      </trkpt>
      <trkpt lat="43.3070270530879497528076171875" lon="-2.387919388711452484130859375">
        <ele>61.40000152587890625</ele>
        <time>2018-09-02T16:13:27.000Z</time>
      </trkpt>
      <trkpt lat="43.30701045691967010498046875" lon="-2.38795392215251922607421875">
        <ele>61.799999237060546875</ele>
        <time>2018-09-02T16:13:28.000Z</time>
      </trkpt>
      <trkpt lat="43.30699310638010501861572265625" lon="-2.38798518665134906768798828125">
        <ele>62.200000762939453125</ele>
        <time>2018-09-02T16:13:29.000Z</time>
      </trkpt>
      <trkpt lat="43.306981623172760009765625" lon="-2.3880161158740520477294921875">
        <ele>62.799999237060546875</ele>
        <time>2018-09-02T16:13:30.000Z</time>
      </trkpt>
      <trkpt lat="43.3069770969450473785400390625" lon="-2.38804511725902557373046875">
        <ele>63.200000762939453125</ele>
        <time>2018-09-02T16:13:31.000Z</time>
      </trkpt>
      <trkpt lat="43.30697634257376194000244140625" lon="-2.38806934095919132232666015625">
        <ele>63.40000152587890625</ele>
        <time>2018-09-02T16:13:32.000Z</time>
      </trkpt>
      <trkpt lat="43.30697734840214252471923828125" lon="-2.38809230737388134002685546875">
        <ele>63.799999237060546875</ele>
        <time>2018-09-02T16:13:33.000Z</time>
      </trkpt>
      <trkpt lat="43.3069777674973011016845703125" lon="-2.38811778835952281951904296875">
        <ele>64.1999969482421875</ele>
        <time>2018-09-02T16:13:34.000Z</time>
      </trkpt>
      <trkpt lat="43.3069775998592376708984375" lon="-2.38814779557287693023681640625">
        <ele>64.59999847412109375</ele>
        <time>2018-09-02T16:13:35.000Z</time>
      </trkpt>
      <trkpt lat="43.3069781027734279632568359375" lon="-2.38818065263330936431884765625">
        <ele>64.8000030517578125</ele>
        <time>2018-09-02T16:13:36.000Z</time>
      </trkpt>
      <trkpt lat="43.30697835423052310943603515625" lon="-2.3882135935127735137939453125">
        <ele>65</ele>
        <time>2018-09-02T16:13:37.000Z</time>
      </trkpt>
      <trkpt lat="43.3069797791540622711181640625" lon="-2.3882429301738739013671875">
        <ele>65</ele>
        <time>2018-09-02T16:13:38.000Z</time>
      </trkpt>
      <trkpt lat="43.30698355101048946380615234375" lon="-2.38826883025467395782470703125">
        <ele>65.1999969482421875</ele>
        <time>2018-09-02T16:13:39.000Z</time>
      </trkpt>
      <trkpt lat="43.306986987590789794921875" lon="-2.38829590380191802978515625">
        <ele>65.40000152587890625</ele>
        <time>2018-09-02T16:13:40.000Z</time>
      </trkpt>
      <trkpt lat="43.3069928549230098724365234375" lon="-2.38832297734916210174560546875">
        <ele>65.40000152587890625</ele>
        <time>2018-09-02T16:13:41.000Z</time>
      </trkpt>
      <trkpt lat="43.3070025779306888580322265625" lon="-2.3883483745157718658447265625">
        <ele>65.40000152587890625</ele>
        <time>2018-09-02T16:13:42.000Z</time>
      </trkpt>
      <trkpt lat="43.307016156613826751708984375" lon="-2.38836907781660556793212890625">
        <ele>65.40000152587890625</ele>
        <time>2018-09-02T16:13:43.000Z</time>
      </trkpt>
      <trkpt lat="43.30703417770564556121826171875" lon="-2.388381063938140869140625">
        <ele>65.40000152587890625</ele>
        <time>2018-09-02T16:13:44.000Z</time>
      </trkpt>
      <trkpt lat="43.30704876221716403961181640625" lon="-2.38838466815650463104248046875">
        <ele>65.1999969482421875</ele>
        <time>2018-09-02T16:13:45.000Z</time>
      </trkpt>
      <trkpt lat="43.30705144442617893218994140625" lon="-2.38838751800358295440673828125">
        <ele>65.1999969482421875</ele>
        <time>2018-09-02T16:13:46.000Z</time>
      </trkpt>
      <trkpt lat="43.30705412663519382476806640625" lon="-2.38838701508939266204833984375">
        <ele>65.1999969482421875</ele>
        <time>2018-09-02T16:13:47.000Z</time>
      </trkpt>
      <trkpt lat="43.307055719196796417236328125" lon="-2.38838567398488521575927734375">
        <ele>65.1999969482421875</ele>
        <time>2018-09-02T16:13:48.000Z</time>
      </trkpt>
      <trkpt lat="43.30705764703452587127685546875" lon="-2.3883845843374729156494140625">
        <ele>65.1999969482421875</ele>
        <time>2018-09-02T16:13:49.000Z</time>
      </trkpt>
      <trkpt lat="43.30705965869128704071044921875" lon="-2.38838248886168003082275390625">
        <ele>65.1999969482421875</ele>
        <time>2018-09-02T16:13:50.000Z</time>
      </trkpt>
      <trkpt lat="43.30706167034804821014404296875" lon="-2.38838014192879199981689453125">
        <ele>65.1999969482421875</ele>
        <time>2018-09-02T16:13:51.000Z</time>
      </trkpt>
      <trkpt lat="43.30706686712801456451416015625" lon="-2.38837880082428455352783203125">
        <ele>65</ele>
        <time>2018-09-02T16:13:52.000Z</time>
      </trkpt>
      <trkpt lat="43.30707876943051815032958984375" lon="-2.38837930373847484588623046875">
        <ele>65</ele>
        <time>2018-09-02T16:13:53.000Z</time>
      </trkpt>
      <trkpt lat="43.30709628760814666748046875" lon="-2.3883768729865550994873046875">
        <ele>64.8000030517578125</ele>
        <time>2018-09-02T16:13:54.000Z</time>
      </trkpt>
      <trkpt lat="43.30711196176707744598388671875" lon="-2.38836857490241527557373046875">
        <ele>64.59999847412109375</ele>
        <time>2018-09-02T16:13:55.000Z</time>
      </trkpt>
      <trkpt lat="43.30712302587926387786865234375" lon="-2.38835784606635570526123046875">
        <ele>64.59999847412109375</ele>
        <time>2018-09-02T16:13:56.000Z</time>
      </trkpt>
      <trkpt lat="43.30713308416306972503662109375" lon="-2.38834829069674015045166015625">
        <ele>64.40000152587890625</ele>
        <time>2018-09-02T16:13:57.000Z</time>
      </trkpt>
      <trkpt lat="43.3071454055607318878173828125" lon="-2.388343513011932373046875">
        <ele>64.1999969482421875</ele>
        <time>2018-09-02T16:13:58.000Z</time>
      </trkpt>
      <trkpt lat="43.30716024152934551239013671875" lon="-2.38834560848772525787353515625">
        <ele>64.1999969482421875</ele>
        <time>2018-09-02T16:13:59.000Z</time>
      </trkpt>
      <trkpt lat="43.3071759156882762908935546875" lon="-2.3883490450680255889892578125">
        <ele>64</ele>
        <time>2018-09-02T16:14:00.000Z</time>
      </trkpt>
      <trkpt lat="43.3071896620094776153564453125" lon="-2.38835348747670650482177734375">
        <ele>64</ele>
        <time>2018-09-02T16:14:01.000Z</time>
      </trkpt>
      <trkpt lat="43.30720265395939350128173828125" lon="-2.388357929885387420654296875">
        <ele>63.799999237060546875</ele>
        <time>2018-09-02T16:14:02.000Z</time>
      </trkpt>
      <trkpt lat="43.30721438862383365631103515625" lon="-2.38836186937987804412841796875">
        <ele>63.799999237060546875</ele>
        <time>2018-09-02T16:14:03.000Z</time>
      </trkpt>
      <trkpt lat="43.307224027812480926513671875" lon="-2.3883631266653537750244140625">
        <ele>63.59999847412109375</ele>
        <time>2018-09-02T16:14:04.000Z</time>
      </trkpt>
      <trkpt lat="43.30722947604954242706298828125" lon="-2.38836321048438549041748046875">
        <ele>63.59999847412109375</ele>
        <time>2018-09-02T16:14:05.000Z</time>
      </trkpt>
      <trkpt lat="43.30722905695438385009765625" lon="-2.38836471922695636749267578125">
        <ele>63.59999847412109375</ele>
        <time>2018-09-02T16:14:06.000Z</time>
      </trkpt>
      <trkpt lat="43.3072298951447010040283203125" lon="-2.38836698234081268310546875">
        <ele>63.59999847412109375</ele>
        <time>2018-09-02T16:14:07.000Z</time>
      </trkpt>
      <trkpt lat="43.30723039805889129638671875" lon="-2.38836488686501979827880859375">
        <ele>63.59999847412109375</ele>
        <time>2018-09-02T16:14:08.000Z</time>
      </trkpt>
      <trkpt lat="43.3072288893163204193115234375" lon="-2.3883634619414806365966796875">
        <ele>63.59999847412109375</ele>
        <time>2018-09-02T16:14:09.000Z</time>
      </trkpt>
      <trkpt lat="43.3072288893163204193115234375" lon="-2.38836304284632205963134765625">
        <ele>63.59999847412109375</ele>
        <time>2018-09-02T16:14:10.000Z</time>
      </trkpt>
      <trkpt lat="43.307229392230510711669921875" lon="-2.38836421631276607513427734375">
        <ele>63.59999847412109375</ele>
        <time>2018-09-02T16:14:11.000Z</time>
      </trkpt>
      <trkpt lat="43.3072297275066375732421875" lon="-2.38836228847503662109375">
        <ele>63.59999847412109375</ele>
        <time>2018-09-02T16:14:12.000Z</time>
      </trkpt>
      <trkpt lat="43.30722981132566928863525390625" lon="-2.38836220465600490570068359375">
        <ele>63.59999847412109375</ele>
        <time>2018-09-02T16:14:13.000Z</time>
      </trkpt>
      <trkpt lat="43.3072302304208278656005859375" lon="-2.38836136646568775177001953125">
        <ele>63.59999847412109375</ele>
        <time>2018-09-02T16:14:14.000Z</time>
      </trkpt>
      <trkpt lat="43.30723132006824016571044921875" lon="-2.3883631266653537750244140625">
        <ele>63.59999847412109375</ele>
        <time>2018-09-02T16:14:15.000Z</time>
      </trkpt>
      <trkpt lat="43.30723299644887447357177734375" lon="-2.3883607797324657440185546875">
        <ele>63.59999847412109375</ele>
        <time>2018-09-02T16:14:16.000Z</time>
      </trkpt>
      <trkpt lat="43.3072325773537158966064453125" lon="-2.3883621208369731903076171875">
        <ele>63.59999847412109375</ele>
        <time>2018-09-02T16:14:17.000Z</time>
      </trkpt>
      <trkpt lat="43.307232074439525604248046875" lon="-2.38835885189473628997802734375">
        <ele>63.59999847412109375</ele>
        <time>2018-09-02T16:14:18.000Z</time>
      </trkpt>
      <trkpt lat="43.30722779966890811920166015625" lon="-2.38835969008505344390869140625">
        <ele>63.59999847412109375</ele>
        <time>2018-09-02T16:14:19.000Z</time>
      </trkpt>
      <trkpt lat="43.30723349936306476593017578125" lon="-2.388364970684051513671875">
        <ele>63.59999847412109375</ele>
        <time>2018-09-02T16:14:20.000Z</time>
      </trkpt>
      <trkpt lat="43.30723299644887447357177734375" lon="-2.388363294303417205810546875">
        <ele>63.59999847412109375</ele>
        <time>2018-09-02T16:14:21.000Z</time>
      </trkpt>
      <trkpt lat="43.3072319068014621734619140625" lon="-2.3883637972176074981689453125">
        <ele>63.59999847412109375</ele>
        <time>2018-09-02T16:14:22.000Z</time>
      </trkpt>
      <trkpt lat="43.30723316408693790435791015625" lon="-2.38836002536118030548095703125">
        <ele>63.59999847412109375</ele>
        <time>2018-09-02T16:14:23.000Z</time>
      </trkpt>
      <trkpt lat="43.30723148770630359649658203125" lon="-2.38835918717086315155029296875">
        <ele>63.59999847412109375</ele>
        <time>2018-09-02T16:14:24.000Z</time>
      </trkpt>
      <trkpt lat="43.30722997896373271942138671875" lon="-2.38836471922695636749267578125">
        <ele>63.59999847412109375</ele>
        <time>2018-09-02T16:14:25.000Z</time>
      </trkpt>
      <trkpt lat="43.307230733335018157958984375" lon="-2.38836673088371753692626953125">
        <ele>63.59999847412109375</ele>
        <time>2018-09-02T16:14:26.000Z</time>
      </trkpt>
      <trkpt lat="43.30723400227725505828857421875" lon="-2.38836639560759067535400390625">
        <ele>63.59999847412109375</ele>
        <time>2018-09-02T16:14:27.000Z</time>
      </trkpt>
      <trkpt lat="43.30723349936306476593017578125" lon="-2.38837025128304958343505859375">
        <ele>63.59999847412109375</ele>
        <time>2018-09-02T16:14:28.000Z</time>
      </trkpt>
      <trkpt lat="43.307234756648540496826171875" lon="-2.38836740143597126007080078125">
        <ele>63.59999847412109375</ele>
        <time>2018-09-02T16:14:29.000Z</time>
      </trkpt>
      <trkpt lat="43.30723551101982593536376953125" lon="-2.38836404867470264434814453125">
        <ele>63.59999847412109375</ele>
        <time>2018-09-02T16:14:30.000Z</time>
      </trkpt>
      <trkpt lat="43.30723551101982593536376953125" lon="-2.3883614502847194671630859375">
        <ele>63.59999847412109375</ele>
        <time>2018-09-02T16:14:31.000Z</time>
      </trkpt>
      <trkpt lat="43.30723634921014308929443359375" lon="-2.3883601091802120208740234375">
        <ele>63.59999847412109375</ele>
        <time>2018-09-02T16:14:32.000Z</time>
      </trkpt>
      <trkpt lat="43.3072364330291748046875" lon="-2.38835834898054599761962890625">
        <ele>63.59999847412109375</ele>
        <time>2018-09-02T16:14:33.000Z</time>
      </trkpt>
      <trkpt lat="43.30723450519144535064697265625" lon="-2.38835348747670650482177734375">
        <ele>63.59999847412109375</ele>
        <time>2018-09-02T16:14:34.000Z</time>
      </trkpt>
      <trkpt lat="43.3072342537343502044677734375" lon="-2.38835197873413562774658203125">
        <ele>63.59999847412109375</ele>
        <time>2018-09-02T16:14:35.000Z</time>
      </trkpt>
      <trkpt lat="43.30723416991531848907470703125" lon="-2.38835197873413562774658203125">
        <ele>63.59999847412109375</ele>
        <time>2018-09-02T16:14:36.000Z</time>
      </trkpt>
      <trkpt lat="43.3072362653911113739013671875" lon="-2.38835155963897705078125">
        <ele>63.59999847412109375</ele>
        <time>2018-09-02T16:14:37.000Z</time>
      </trkpt>
      <trkpt lat="43.30723710358142852783203125" lon="-2.38834946416318416595458984375">
        <ele>63.59999847412109375</ele>
        <time>2018-09-02T16:14:38.000Z</time>
      </trkpt>
      <trkpt lat="43.30723978579044342041015625" lon="-2.3883497156202793121337890625">
        <ele>63.40000152587890625</ele>
        <time>2018-09-02T16:14:39.000Z</time>
      </trkpt>
      <trkpt lat="43.3072392828762531280517578125" lon="-2.38835097290575504302978515625">
        <ele>63.40000152587890625</ele>
        <time>2018-09-02T16:14:40.000Z</time>
      </trkpt>
      <trkpt lat="43.30723869614303112030029296875" lon="-2.3883493803441524505615234375">
        <ele>63.40000152587890625</ele>
        <time>2018-09-02T16:14:41.000Z</time>
      </trkpt>
      <trkpt lat="43.30723852850496768951416015625" lon="-2.38835080526769161224365234375">
        <ele>63.59999847412109375</ele>
        <time>2018-09-02T16:14:42.000Z</time>
      </trkpt>
      <trkpt lat="43.30723785795271396636962890625" lon="-2.38834996707737445831298828125">
        <ele>63.59999847412109375</ele>
        <time>2018-09-02T16:14:43.000Z</time>
      </trkpt>
      <trkpt lat="43.3072355948388576507568359375" lon="-2.38834577612578868865966796875">
        <ele>63.59999847412109375</ele>
        <time>2018-09-02T16:14:44.000Z</time>
      </trkpt>
      <trkpt lat="43.30723517574369907379150390625" lon="-2.38834686577320098876953125">
        <ele>63.59999847412109375</ele>
        <time>2018-09-02T16:14:45.000Z</time>
      </trkpt>
      <trkpt lat="43.30723634921014308929443359375" lon="-2.38834544084966182708740234375">
        <ele>63.40000152587890625</ele>
        <time>2018-09-02T16:14:46.000Z</time>
      </trkpt>
      <trkpt lat="43.30723651684820652008056640625" lon="-2.38834711723029613494873046875">
        <ele>63.59999847412109375</ele>
        <time>2018-09-02T16:14:47.000Z</time>
      </trkpt>
      <trkpt lat="43.30723442137241363525390625" lon="-2.38834594376385211944580078125">
        <ele>63.59999847412109375</ele>
        <time>2018-09-02T16:14:48.000Z</time>
      </trkpt>
      <trkpt lat="43.30723266117274761199951171875" lon="-2.38834544084966182708740234375">
        <ele>63.59999847412109375</ele>
        <time>2018-09-02T16:14:49.000Z</time>
      </trkpt>
      <trkpt lat="43.3072319068014621734619140625" lon="-2.3883416689932346343994140625">
        <ele>63.59999847412109375</ele>
        <time>2018-09-02T16:14:50.000Z</time>
      </trkpt>
      <trkpt lat="43.30723266117274761199951171875" lon="-2.3883366398513317108154296875">
        <ele>63.40000152587890625</ele>
        <time>2018-09-02T16:14:51.000Z</time>
      </trkpt>
      <trkpt lat="43.30723081715404987335205078125" lon="-2.388335801661014556884765625">
        <ele>63.40000152587890625</ele>
        <time>2018-09-02T16:14:52.000Z</time>
      </trkpt>
      <trkpt lat="43.30723014660179615020751953125" lon="-2.38833119161427021026611328125">
        <ele>63.40000152587890625</ele>
        <time>2018-09-02T16:14:53.000Z</time>
      </trkpt>
      <trkpt lat="43.30722830258309841156005859375" lon="-2.388327755033969879150390625">
        <ele>63.40000152587890625</ele>
        <time>2018-09-02T16:14:54.000Z</time>
      </trkpt>
      <trkpt lat="43.30722645856440067291259765625" lon="-2.38832515664398670196533203125">
        <ele>63.40000152587890625</ele>
        <time>2018-09-02T16:14:55.000Z</time>
      </trkpt>
      <trkpt lat="43.3072252012789249420166015625" lon="-2.3883212171494960784912109375">
        <ele>63.40000152587890625</ele>
        <time>2018-09-02T16:14:56.000Z</time>
      </trkpt>
      <trkpt lat="43.307225368916988372802734375" lon="-2.3883151821792125701904296875">
        <ele>63.40000152587890625</ele>
        <time>2018-09-02T16:14:57.000Z</time>
      </trkpt>
      <trkpt lat="43.3072243630886077880859375" lon="-2.388310991227626800537109375">
        <ele>63.40000152587890625</ele>
        <time>2018-09-02T16:14:58.000Z</time>
      </trkpt>
      <trkpt lat="43.30722209997475147247314453125" lon="-2.38830906338989734649658203125">
        <ele>63.40000152587890625</ele>
        <time>2018-09-02T16:14:59.000Z</time>
      </trkpt>
      <trkpt lat="43.30722243525087833404541015625" lon="-2.388310991227626800537109375">
        <ele>63.40000152587890625</ele>
        <time>2018-09-02T16:15:00.000Z</time>
      </trkpt>
      <trkpt lat="43.307215981185436248779296875" lon="-2.3883034475147724151611328125">
        <ele>63.40000152587890625</ele>
        <time>2018-09-02T16:15:01.000Z</time>
      </trkpt>
      <trkpt lat="43.30721355043351650238037109375" lon="-2.38829833455383777618408203125">
        <ele>63.40000152587890625</ele>
        <time>2018-09-02T16:15:02.000Z</time>
      </trkpt>
      <trkpt lat="43.3072121255099773406982421875" lon="-2.3882987536489963531494140625">
        <ele>63.40000152587890625</ele>
        <time>2018-09-02T16:15:03.000Z</time>
      </trkpt>
      <trkpt lat="43.3072109520435333251953125" lon="-2.388301603496074676513671875">
        <ele>63.40000152587890625</ele>
        <time>2018-09-02T16:15:04.000Z</time>
      </trkpt>
      <trkpt lat="43.30720885656774044036865234375" lon="-2.38830470480024814605712890625">
        <ele>63.59999847412109375</ele>
        <time>2018-09-02T16:15:05.000Z</time>
      </trkpt>
      <trkpt lat="43.30720785073935985565185546875" lon="-2.3883073031902313232421875">
        <ele>63.59999847412109375</ele>
        <time>2018-09-02T16:15:06.000Z</time>
      </trkpt>
      <trkpt lat="43.3072070963680744171142578125" lon="-2.38830931484699249267578125">
        <ele>63.59999847412109375</ele>
        <time>2018-09-02T16:15:07.000Z</time>
      </trkpt>
      <trkpt lat="43.3072064258158206939697265625" lon="-2.3883101530373096466064453125">
        <ele>63.59999847412109375</ele>
        <time>2018-09-02T16:15:08.000Z</time>
      </trkpt>
      <trkpt lat="43.3072060905396938323974609375" lon="-2.38831291906535625457763671875">
        <ele>63.59999847412109375</ele>
        <time>2018-09-02T16:15:09.000Z</time>
      </trkpt>
      <trkpt lat="43.30720625817775726318359375" lon="-2.38831476308405399322509765625">
        <ele>63.59999847412109375</ele>
        <time>2018-09-02T16:15:10.000Z</time>
      </trkpt>
      <trkpt lat="43.30720583908259868621826171875" lon="-2.3883171938359737396240234375">
        <ele>63.59999847412109375</ele>
        <time>2018-09-02T16:15:11.000Z</time>
      </trkpt>
      <trkpt lat="43.30720751546323299407958984375" lon="-2.38832096569240093231201171875">
        <ele>63.59999847412109375</ele>
        <time>2018-09-02T16:15:12.000Z</time>
      </trkpt>
      <trkpt lat="43.30720785073935985565185546875" lon="-2.38832381553947925567626953125">
        <ele>63.59999847412109375</ele>
        <time>2018-09-02T16:15:13.000Z</time>
      </trkpt>
      <trkpt lat="43.30720852129161357879638671875" lon="-2.38832540810108184814453125">
        <ele>63.59999847412109375</ele>
        <time>2018-09-02T16:15:14.000Z</time>
      </trkpt>
      <trkpt lat="43.30721137113869190216064453125" lon="-2.3883279226720333099365234375">
        <ele>63.59999847412109375</ele>
        <time>2018-09-02T16:15:15.000Z</time>
      </trkpt>
      <trkpt lat="43.30721355043351650238037109375" lon="-2.38832951523363590240478515625">
        <ele>63.59999847412109375</ele>
        <time>2018-09-02T16:15:16.000Z</time>
      </trkpt>
      <trkpt lat="43.3072138018906116485595703125" lon="-2.3883309401571750640869140625">
        <ele>63.59999847412109375</ele>
        <time>2018-09-02T16:15:17.000Z</time>
      </trkpt>
      <trkpt lat="43.30721489153802394866943359375" lon="-2.388333119451999664306640625">
        <ele>63.59999847412109375</ele>
        <time>2018-09-02T16:15:18.000Z</time>
      </trkpt>
      <trkpt lat="43.30721287988126277923583984375" lon="-2.38833437673747539520263671875">
        <ele>63.59999847412109375</ele>
        <time>2018-09-02T16:15:19.000Z</time>
      </trkpt>
      <trkpt lat="43.30721162259578704833984375" lon="-2.38833270035684108734130859375">
        <ele>63.59999847412109375</ele>
        <time>2018-09-02T16:15:20.000Z</time>
      </trkpt>
      <trkpt lat="43.3072111196815967559814453125" lon="-2.3883314430713653564453125">
        <ele>63.59999847412109375</ele>
        <time>2018-09-02T16:15:21.000Z</time>
      </trkpt>
      <trkpt lat="43.30721103586256504058837890625" lon="-2.38833286799490451812744140625">
        <ele>63.59999847412109375</ele>
        <time>2018-09-02T16:15:22.000Z</time>
      </trkpt>
      <trkpt lat="43.3072148077189922332763671875" lon="-2.38833420909941196441650390625">
        <ele>63.59999847412109375</ele>
        <time>2018-09-02T16:15:23.000Z</time>
      </trkpt>
      <trkpt lat="43.30722310580313205718994140625" lon="-2.38832683302462100982666015625">
        <ele>63.59999847412109375</ele>
        <time>2018-09-02T16:15:24.000Z</time>
      </trkpt>
      <trkpt lat="43.30722662620246410369873046875" lon="-2.3883141763508319854736328125">
        <ele>63.40000152587890625</ele>
        <time>2018-09-02T16:15:25.000Z</time>
      </trkpt>
      <trkpt lat="43.30722511745989322662353515625" lon="-2.38829665817320346832275390625">
        <ele>63.40000152587890625</ele>
        <time>2018-09-02T16:15:26.000Z</time>
      </trkpt>
      <trkpt lat="43.307212628424167633056640625" lon="-2.3882786370813846588134765625">
        <ele>63.40000152587890625</ele>
        <time>2018-09-02T16:15:27.000Z</time>
      </trkpt>
      <trkpt lat="43.30719611607491970062255859375" lon="-2.38826832734048366546630859375">
        <ele>63.40000152587890625</ele>
        <time>2018-09-02T16:15:28.000Z</time>
      </trkpt>
      <trkpt lat="43.30717734061181545257568359375" lon="-2.38826748915016651153564453125">
        <ele>63.59999847412109375</ele>
        <time>2018-09-02T16:15:29.000Z</time>
      </trkpt>
      <trkpt lat="43.307154960930347442626953125" lon="-2.3882729373872280120849609375">
        <ele>63.799999237060546875</ele>
        <time>2018-09-02T16:15:30.000Z</time>
      </trkpt>
      <trkpt lat="43.3071316592395305633544921875" lon="-2.38827905617654323577880859375">
        <ele>64</ele>
        <time>2018-09-02T16:15:31.000Z</time>
      </trkpt>
      <trkpt lat="43.30710827372968196868896484375" lon="-2.38828458823263645172119140625">
        <ele>64.1999969482421875</ele>
        <time>2018-09-02T16:15:32.000Z</time>
      </trkpt>
      <trkpt lat="43.30708555877208709716796875" lon="-2.38828710280358791351318359375">
        <ele>64.40000152587890625</ele>
        <time>2018-09-02T16:15:33.000Z</time>
      </trkpt>
      <trkpt lat="43.3070635981857776641845703125" lon="-2.3882883600890636444091796875">
        <ele>64.59999847412109375</ele>
        <time>2018-09-02T16:15:34.000Z</time>
      </trkpt>
      <trkpt lat="43.30704188905656337738037109375" lon="-2.3882893659174442291259765625">
        <ele>64.8000030517578125</ele>
        <time>2018-09-02T16:15:35.000Z</time>
      </trkpt>
      <trkpt lat="43.30702261067926883697509765625" lon="-2.38828609697520732879638671875">
        <ele>65</ele>
        <time>2018-09-02T16:15:36.000Z</time>
      </trkpt>
      <trkpt lat="43.30700567923486232757568359375" lon="-2.3882722668349742889404296875">
        <ele>65</ele>
        <time>2018-09-02T16:15:37.000Z</time>
      </trkpt>
      <trkpt lat="43.3069936931133270263671875" lon="-2.3882494680583477020263671875">
        <ele>65</ele>
        <time>2018-09-02T16:15:38.000Z</time>
      </trkpt>
      <trkpt lat="43.30698874779045581817626953125" lon="-2.38822080194950103759765625">
        <ele>64.8000030517578125</ele>
        <time>2018-09-02T16:15:39.000Z</time>
      </trkpt>
      <trkpt lat="43.30698958598077297210693359375" lon="-2.38818802870810031890869140625">
        <ele>64.59999847412109375</ele>
        <time>2018-09-02T16:15:40.000Z</time>
      </trkpt>
      <trkpt lat="43.30698941834270954132080078125" lon="-2.388149388134479522705078125">
        <ele>64.40000152587890625</ele>
        <time>2018-09-02T16:15:41.000Z</time>
      </trkpt>
      <trkpt lat="43.30698438920080661773681640625" lon="-2.38811083137989044189453125">
        <ele>64</ele>
        <time>2018-09-02T16:15:42.000Z</time>
      </trkpt>
      <trkpt lat="43.30697265453636646270751953125" lon="-2.38807328045368194580078125">
        <ele>63.59999847412109375</ele>
        <time>2018-09-02T16:15:43.000Z</time>
      </trkpt>
      <trkpt lat="43.30695086158812046051025390625" lon="-2.3880439437925815582275390625">
        <ele>63.200000762939453125</ele>
        <time>2018-09-02T16:15:44.000Z</time>
      </trkpt>
      <trkpt lat="43.3069268055260181427001953125" lon="-2.3880203068256378173828125">
        <ele>62.799999237060546875</ele>
        <time>2018-09-02T16:15:45.000Z</time>
      </trkpt>
      <trkpt lat="43.30690878443419933319091796875" lon="-2.387994825839996337890625">
        <ele>62.40000152587890625</ele>
        <time>2018-09-02T16:15:46.000Z</time>
      </trkpt>
      <trkpt lat="43.30688799731433391571044921875" lon="-2.3879745416343212127685546875">
        <ele>62.200000762939453125</ele>
        <time>2018-09-02T16:15:47.000Z</time>
      </trkpt>
      <trkpt lat="43.30686268396675586700439453125" lon="-2.38795517943799495697021484375">
        <ele>61.799999237060546875</ele>
        <time>2018-09-02T16:15:48.000Z</time>
      </trkpt>
      <trkpt lat="43.30683837644755840301513671875" lon="-2.38793053664267063140869140625">
        <ele>61.40000152587890625</ele>
        <time>2018-09-02T16:15:49.000Z</time>
      </trkpt>
      <trkpt lat="43.30681088380515575408935546875" lon="-2.387905307114124298095703125">
        <ele>61.200000762939453125</ele>
        <time>2018-09-02T16:15:50.000Z</time>
      </trkpt>
      <trkpt lat="43.306781463325023651123046875" lon="-2.387883849442005157470703125">
        <ele>61</ele>
        <time>2018-09-02T16:15:51.000Z</time>
      </trkpt>
      <trkpt lat="43.30674986355006694793701171875" lon="-2.38786985166370868682861328125">
        <ele>61</ele>
        <time>2018-09-02T16:15:52.000Z</time>
      </trkpt>
      <trkpt lat="43.30671943724155426025390625" lon="-2.3878620564937591552734375">
        <ele>61</ele>
        <time>2018-09-02T16:15:53.000Z</time>
      </trkpt>
      <trkpt lat="43.30669538117945194244384765625" lon="-2.38785727880895137786865234375">
        <ele>61</ele>
        <time>2018-09-02T16:15:54.000Z</time>
      </trkpt>
      <trkpt lat="43.30667425878345966339111328125" lon="-2.38785996101796627044677734375">
        <ele>61.200000762939453125</ele>
        <time>2018-09-02T16:15:55.000Z</time>
      </trkpt>
      <trkpt lat="43.30665464513003826141357421875" lon="-2.38786063157021999359130859375">
        <ele>61.40000152587890625</ele>
        <time>2018-09-02T16:15:56.000Z</time>
      </trkpt>
      <trkpt lat="43.30663318745791912078857421875" lon="-2.38786046393215656280517578125">
        <ele>61.40000152587890625</ele>
        <time>2018-09-02T16:15:57.000Z</time>
      </trkpt>
      <trkpt lat="43.30661214888095855712890625" lon="-2.3878605477511882781982421875">
        <ele>61.59999847412109375</ele>
        <time>2018-09-02T16:15:58.000Z</time>
      </trkpt>
      <trkpt lat="43.306589685380458831787109375" lon="-2.38785929046571254730224609375">
        <ele>61.799999237060546875</ele>
        <time>2018-09-02T16:15:59.000Z</time>
      </trkpt>
      <trkpt lat="43.306567557156085968017578125" lon="-2.387857697904109954833984375">
        <ele>61.799999237060546875</ele>
        <time>2018-09-02T16:16:00.000Z</time>
      </trkpt>
      <trkpt lat="43.3065452612936496734619140625" lon="-2.38785929046571254730224609375">
        <ele>62</ele>
        <time>2018-09-02T16:16:01.000Z</time>
      </trkpt>
      <trkpt lat="43.3065254800021648406982421875" lon="-2.3878615535795688629150390625">
        <ele>62.200000762939453125</ele>
        <time>2018-09-02T16:16:02.000Z</time>
      </trkpt>
      <trkpt lat="43.30650796182453632354736328125" lon="-2.3878645710647106170654296875">
        <ele>62.200000762939453125</ele>
        <time>2018-09-02T16:16:03.000Z</time>
      </trkpt>
      <trkpt lat="43.30648851580917835235595703125" lon="-2.38786465488374233245849609375">
        <ele>62.40000152587890625</ele>
        <time>2018-09-02T16:16:04.000Z</time>
      </trkpt>
      <trkpt lat="43.306468985974788665771484375" lon="-2.38786817528307437896728515625">
        <ele>62.59999847412109375</ele>
        <time>2018-09-02T16:16:05.000Z</time>
      </trkpt>
      <trkpt lat="43.30644987523555755615234375" lon="-2.3878722824156284332275390625">
        <ele>62.799999237060546875</ele>
        <time>2018-09-02T16:16:06.000Z</time>
      </trkpt>
      <trkpt lat="43.3064304292201995849609375" lon="-2.387873791158199310302734375">
        <ele>62.799999237060546875</ele>
        <time>2018-09-02T16:16:07.000Z</time>
      </trkpt>
      <trkpt lat="43.3064111508429050445556640625" lon="-2.38787890411913394927978515625">
        <ele>63</ele>
        <time>2018-09-02T16:16:08.000Z</time>
      </trkpt>
      <trkpt lat="43.3063893578946590423583984375" lon="-2.3878848552703857421875">
        <ele>63.200000762939453125</ele>
        <time>2018-09-02T16:16:09.000Z</time>
      </trkpt>
      <trkpt lat="43.30636966042220592498779296875" lon="-2.38789197988808155059814453125">
        <ele>63.40000152587890625</ele>
        <time>2018-09-02T16:16:10.000Z</time>
      </trkpt>
      <trkpt lat="43.3063518069684505462646484375" lon="-2.38790488801896572113037109375">
        <ele>63.799999237060546875</ele>
        <time>2018-09-02T16:16:11.000Z</time>
      </trkpt>
      <trkpt lat="43.306332193315029144287109375" lon="-2.3879165388643741607666015625">
        <ele>64</ele>
        <time>2018-09-02T16:16:12.000Z</time>
      </trkpt>
      <trkpt lat="43.30631417222321033477783203125" lon="-2.38792936317622661590576171875">
        <ele>64.1999969482421875</ele>
        <time>2018-09-02T16:16:13.000Z</time>
      </trkpt>
      <trkpt lat="43.30629765987396240234375" lon="-2.38793388940393924713134765625">
        <ele>64.40000152587890625</ele>
        <time>2018-09-02T16:16:14.000Z</time>
      </trkpt>
      <trkpt lat="43.30627678893506526947021484375" lon="-2.3879386670887470245361328125">
        <ele>64.59999847412109375</ele>
        <time>2018-09-02T16:16:15.000Z</time>
      </trkpt>
      <trkpt lat="43.3062555827200412750244140625" lon="-2.38794629462063312530517578125">
        <ele>64.8000030517578125</ele>
        <time>2018-09-02T16:16:16.000Z</time>
      </trkpt>
      <trkpt lat="43.30624041147530078887939453125" lon="-2.38795459270477294921875">
        <ele>65</ele>
        <time>2018-09-02T16:16:17.000Z</time>
      </trkpt>
      <trkpt lat="43.3062233962118625640869140625" lon="-2.387960292398929595947265625">
        <ele>65.1999969482421875</ele>
        <time>2018-09-02T16:16:18.000Z</time>
      </trkpt>
      <trkpt lat="43.3062066324055194854736328125" lon="-2.3879644833505153656005859375">
        <ele>65.1999969482421875</ele>
        <time>2018-09-02T16:16:19.000Z</time>
      </trkpt>
      <trkpt lat="43.30618861131370067596435546875" lon="-2.387969680130481719970703125">
        <ele>65.40000152587890625</ele>
        <time>2018-09-02T16:16:20.000Z</time>
      </trkpt>
      <trkpt lat="43.30617427825927734375" lon="-2.38797596655786037445068359375">
        <ele>65.59999847412109375</ele>
        <time>2018-09-02T16:16:21.000Z</time>
      </trkpt>
      <trkpt lat="43.30615617334842681884765625" lon="-2.38797848112881183624267578125">
        <ele>65.59999847412109375</ele>
        <time>2018-09-02T16:16:22.000Z</time>
      </trkpt>
      <trkpt lat="43.306136392056941986083984375" lon="-2.387981079518795013427734375">
        <ele>65.8000030517578125</ele>
        <time>2018-09-02T16:16:23.000Z</time>
      </trkpt>
      <trkpt lat="43.306116946041584014892578125" lon="-2.38798434846103191375732421875">
        <ele>66</ele>
        <time>2018-09-02T16:16:24.000Z</time>
      </trkpt>
      <trkpt lat="43.3060983382165431976318359375" lon="-2.38798887468874454498291015625">
        <ele>66</ele>
        <time>2018-09-02T16:16:25.000Z</time>
      </trkpt>
      <trkpt lat="43.306078724563121795654296875" lon="-2.38799088634550571441650390625">
        <ele>66.1999969482421875</ele>
        <time>2018-09-02T16:16:26.000Z</time>
      </trkpt>
      <trkpt lat="43.3060601167380809783935546875" lon="-2.38799222745001316070556640625">
        <ele>66.1999969482421875</ele>
        <time>2018-09-02T16:16:27.000Z</time>
      </trkpt>
      <trkpt lat="43.30604209564626216888427734375" lon="-2.387994825839996337890625">
        <ele>66.40000152587890625</ele>
        <time>2018-09-02T16:16:28.000Z</time>
      </trkpt>
      <trkpt lat="43.30602885223925113677978515625" lon="-2.38800329156219959259033203125">
        <ele>66.59999847412109375</ele>
        <time>2018-09-02T16:16:29.000Z</time>
      </trkpt>
      <trkpt lat="43.30601108260452747344970703125" lon="-2.388005219399929046630859375">
        <ele>66.59999847412109375</ele>
        <time>2018-09-02T16:16:30.000Z</time>
      </trkpt>
      <trkpt lat="43.3059927262365818023681640625" lon="-2.38800614140927791595458984375">
        <ele>66.8000030517578125</ele>
        <time>2018-09-02T16:16:31.000Z</time>
      </trkpt>
      <trkpt lat="43.305974118411540985107421875" lon="-2.38800614140927791595458984375">
        <ele>66.8000030517578125</ele>
        <time>2018-09-02T16:16:32.000Z</time>
      </trkpt>
      <trkpt lat="43.30595768988132476806640625" lon="-2.388008572161197662353515625">
        <ele>66.8000030517578125</ele>
        <time>2018-09-02T16:16:33.000Z</time>
      </trkpt>
      <trkpt lat="43.30594067461788654327392578125" lon="-2.38801184110343456268310546875">
        <ele>67</ele>
        <time>2018-09-02T16:16:34.000Z</time>
      </trkpt>
      <trkpt lat="43.305921144783496856689453125" lon="-2.38801502622663974761962890625">
        <ele>67</ele>
        <time>2018-09-02T16:16:35.000Z</time>
      </trkpt>
      <trkpt lat="43.30590270459651947021484375" lon="-2.38802072592079639434814453125">
        <ele>67.1999969482421875</ele>
        <time>2018-09-02T16:16:36.000Z</time>
      </trkpt>
      <trkpt lat="43.30588485114276409149169921875" lon="-2.38802759908139705657958984375">
        <ele>67.40000152587890625</ele>
        <time>2018-09-02T16:16:37.000Z</time>
      </trkpt>
      <trkpt lat="43.3058683387935161590576171875" lon="-2.38803463988006114959716796875">
        <ele>67.59999847412109375</ele>
        <time>2018-09-02T16:16:38.000Z</time>
      </trkpt>
      <trkpt lat="43.30585031770169734954833984375" lon="-2.3880389146506786346435546875">
        <ele>67.59999847412109375</ele>
        <time>2018-09-02T16:16:39.000Z</time>
      </trkpt>
      <trkpt lat="43.30583254806697368621826171875" lon="-2.38804168067872524261474609375">
        <ele>67.8000030517578125</ele>
        <time>2018-09-02T16:16:40.000Z</time>
      </trkpt>
      <trkpt lat="43.30581444315612316131591796875" lon="-2.38804302178323268890380859375">
        <ele>67.8000030517578125</ele>
        <time>2018-09-02T16:16:41.000Z</time>
      </trkpt>
      <trkpt lat="43.30579583533108234405517578125" lon="-2.38804486580193042755126953125">
        <ele>67.8000030517578125</ele>
        <time>2018-09-02T16:16:42.000Z</time>
      </trkpt>
      <trkpt lat="43.305776305496692657470703125" lon="-2.38804302178323268890380859375">
        <ele>68</ele>
        <time>2018-09-02T16:16:43.000Z</time>
      </trkpt>
      <trkpt lat="43.3057573623955249786376953125" lon="-2.38804243505001068115234375">
        <ele>68</ele>
        <time>2018-09-02T16:16:44.000Z</time>
      </trkpt>
      <trkpt lat="43.305738754570484161376953125" lon="-2.38804687745869159698486328125">
        <ele>68</ele>
        <time>2018-09-02T16:16:45.000Z</time>
      </trkpt>
      <trkpt lat="43.30572123639285564422607421875" lon="-2.3880540020763874053955078125">
        <ele>68.1999969482421875</ele>
        <time>2018-09-02T16:16:46.000Z</time>
      </trkpt>
      <trkpt lat="43.3057043887674808502197265625" lon="-2.38806188106536865234375">
        <ele>68.40000152587890625</ele>
        <time>2018-09-02T16:16:47.000Z</time>
      </trkpt>
      <trkpt lat="43.30568720586597919464111328125" lon="-2.38806883804500102996826171875">
        <ele>68.59999847412109375</ele>
        <time>2018-09-02T16:16:48.000Z</time>
      </trkpt>
      <trkpt lat="43.30566910095512866973876953125" lon="-2.38807369954884052276611328125">
        <ele>68.59999847412109375</ele>
        <time>2018-09-02T16:16:49.000Z</time>
      </trkpt>
      <trkpt lat="43.3056497387588024139404296875" lon="-2.3880764655768871307373046875">
        <ele>68.8000030517578125</ele>
        <time>2018-09-02T16:16:50.000Z</time>
      </trkpt>
      <trkpt lat="43.305630795657634735107421875" lon="-2.38807839341461658477783203125">
        <ele>68.8000030517578125</ele>
        <time>2018-09-02T16:16:51.000Z</time>
      </trkpt>
      <trkpt lat="43.3056111820042133331298828125" lon="-2.38807990215718746185302734375">
        <ele>69</ele>
        <time>2018-09-02T16:16:52.000Z</time>
      </trkpt>
      <trkpt lat="43.30559198744595050811767578125" lon="-2.388083003461360931396484375">
        <ele>69</ele>
        <time>2018-09-02T16:16:53.000Z</time>
      </trkpt>
      <trkpt lat="43.30557321198284626007080078125" lon="-2.38808669149875640869140625">
        <ele>69.1999969482421875</ele>
        <time>2018-09-02T16:16:54.000Z</time>
      </trkpt>
      <trkpt lat="43.30555510707199573516845703125" lon="-2.3880912177264690399169921875">
        <ele>69.1999969482421875</ele>
        <time>2018-09-02T16:16:55.000Z</time>
      </trkpt>
      <trkpt lat="43.30553666688501834869384765625" lon="-2.388095073401927947998046875">
        <ele>69.40000152587890625</ele>
        <time>2018-09-02T16:16:56.000Z</time>
      </trkpt>
      <trkpt lat="43.3055184781551361083984375" lon="-2.38809867762029170989990234375">
        <ele>69.40000152587890625</ele>
        <time>2018-09-02T16:16:57.000Z</time>
      </trkpt>
      <trkpt lat="43.30550045706331729888916015625" lon="-2.38810253329575061798095703125">
        <ele>69.59999847412109375</ele>
        <time>2018-09-02T16:16:58.000Z</time>
      </trkpt>
      <trkpt lat="43.30548226833343505859375" lon="-2.38810571841895580291748046875">
        <ele>69.59999847412109375</ele>
        <time>2018-09-02T16:16:59.000Z</time>
      </trkpt>
      <trkpt lat="43.3054636605083942413330078125" lon="-2.38810806535184383392333984375">
        <ele>69.8000030517578125</ele>
        <time>2018-09-02T16:17:00.000Z</time>
      </trkpt>
      <trkpt lat="43.3054452203214168548583984375" lon="-2.38810957409441471099853515625">
        <ele>69.8000030517578125</ele>
        <time>2018-09-02T16:17:01.000Z</time>
      </trkpt>
      <trkpt lat="43.305426277220249176025390625" lon="-2.38811007700860500335693359375">
        <ele>69.8000030517578125</ele>
        <time>2018-09-02T16:17:02.000Z</time>
      </trkpt>
      <trkpt lat="43.305407501757144927978515625" lon="-2.38811175338923931121826171875">
        <ele>70</ele>
        <time>2018-09-02T16:17:03.000Z</time>
      </trkpt>
      <trkpt lat="43.3053892292082309722900390625" lon="-2.38811560906469821929931640625">
        <ele>70</ele>
        <time>2018-09-02T16:17:04.000Z</time>
      </trkpt>
      <trkpt lat="43.30537104047834873199462890625" lon="-2.3881180398166179656982421875">
        <ele>70.1999969482421875</ele>
        <time>2018-09-02T16:17:05.000Z</time>
      </trkpt>
      <trkpt lat="43.30535310320556163787841796875" lon="-2.388121895492076873779296875">
        <ele>70.1999969482421875</ele>
        <time>2018-09-02T16:17:06.000Z</time>
      </trkpt>
      <trkpt lat="43.30533449538052082061767578125" lon="-2.3881249129772186279296875">
        <ele>70.40000152587890625</ele>
        <time>2018-09-02T16:17:07.000Z</time>
      </trkpt>
      <trkpt lat="43.3053184859454631805419921875" lon="-2.3881329596042633056640625">
        <ele>70.59999847412109375</ele>
        <time>2018-09-02T16:17:08.000Z</time>
      </trkpt>
      <trkpt lat="43.305301554501056671142578125" lon="-2.38813924603164196014404296875">
        <ele>70.59999847412109375</ele>
        <time>2018-09-02T16:17:09.000Z</time>
      </trkpt>
      <trkpt lat="43.3052842877805233001708984375" lon="-2.38814427517354488372802734375">
        <ele>70.8000030517578125</ele>
        <time>2018-09-02T16:17:10.000Z</time>
      </trkpt>
      <trkpt lat="43.30526769161224365234375" lon="-2.38814972341060638427734375">
        <ele>70.8000030517578125</ele>
        <time>2018-09-02T16:17:11.000Z</time>
      </trkpt>
      <trkpt lat="43.305249921977519989013671875" lon="-2.388153411448001861572265625">
        <ele>71</ele>
        <time>2018-09-02T16:17:12.000Z</time>
      </trkpt>
      <trkpt lat="43.3052316494286060333251953125" lon="-2.388155758380889892578125">
        <ele>71</ele>
        <time>2018-09-02T16:17:13.000Z</time>
      </trkpt>
      <trkpt lat="43.30521178431808948516845703125" lon="-2.38815768621861934661865234375">
        <ele>71</ele>
        <time>2018-09-02T16:17:14.000Z</time>
      </trkpt>
      <trkpt lat="43.3051920868456363677978515625" lon="-2.38816036842763423919677734375">
        <ele>71.1999969482421875</ele>
        <time>2018-09-02T16:17:15.000Z</time>
      </trkpt>
      <trkpt lat="43.30517121590673923492431640625" lon="-2.388160116970539093017578125">
        <ele>71.1999969482421875</ele>
        <time>2018-09-02T16:17:16.000Z</time>
      </trkpt>
      <trkpt lat="43.3051485009491443634033203125" lon="-2.38815617747604846954345703125">
        <ele>71.1999969482421875</ele>
        <time>2018-09-02T16:17:17.000Z</time>
      </trkpt>
      <trkpt lat="43.30513031221926212310791015625" lon="-2.38815986551344394683837890625">
        <ele>71.1999969482421875</ele>
        <time>2018-09-02T16:17:18.000Z</time>
      </trkpt>
      <trkpt lat="43.30510952509939670562744140625" lon="-2.3881589435040950775146484375">
        <ele>71.1999969482421875</ele>
        <time>2018-09-02T16:17:19.000Z</time>
      </trkpt>
      <trkpt lat="43.30508756451308727264404296875" lon="-2.38815844058990478515625">
        <ele>71.40000152587890625</ele>
        <time>2018-09-02T16:17:20.000Z</time>
      </trkpt>
      <trkpt lat="43.3050692081451416015625" lon="-2.38816288299858570098876953125">
        <ele>71.59999847412109375</ele>
        <time>2018-09-02T16:17:21.000Z</time>
      </trkpt>
      <trkpt lat="43.30504280515015125274658203125" lon="-2.3881512321531772613525390625">
        <ele>71.40000152587890625</ele>
        <time>2018-09-02T16:17:22.000Z</time>
      </trkpt>
      <trkpt lat="43.30502419732511043548583984375" lon="-2.38815508782863616943359375">
        <ele>71.59999847412109375</ele>
        <time>2018-09-02T16:17:23.000Z</time>
      </trkpt>
      <trkpt lat="43.3050060085952281951904296875" lon="-2.38816020078957080841064453125">
        <ele>71.59999847412109375</ele>
        <time>2018-09-02T16:17:24.000Z</time>
      </trkpt>
      <trkpt lat="43.30498538911342620849609375" lon="-2.38815869204699993133544921875">
        <ele>71.8000030517578125</ele>
        <time>2018-09-02T16:17:25.000Z</time>
      </trkpt>
      <trkpt lat="43.304964937269687652587890625" lon="-2.388160116970539093017578125">
        <ele>71.8000030517578125</ele>
        <time>2018-09-02T16:17:26.000Z</time>
      </trkpt>
      <trkpt lat="43.30494272522628307342529296875" lon="-2.38816070370376110076904296875">
        <ele>72</ele>
        <time>2018-09-02T16:17:27.000Z</time>
      </trkpt>
      <trkpt lat="43.30492109991610050201416015625" lon="-2.388167493045330047607421875">
        <ele>72.1999969482421875</ele>
        <time>2018-09-02T16:17:28.000Z</time>
      </trkpt>
      <trkpt lat="43.3049010671675205230712890625" lon="-2.38817461766302585601806640625">
        <ele>72.40000152587890625</ele>
        <time>2018-09-02T16:17:29.000Z</time>
      </trkpt>
      <trkpt lat="43.304879777133464813232421875" lon="-2.38818484358489513397216796875">
        <ele>72.59999847412109375</ele>
        <time>2018-09-02T16:17:30.000Z</time>
      </trkpt>
      <trkpt lat="43.3048574812710285186767578125" lon="-2.38819305785000324249267578125">
        <ele>72.8000030517578125</ele>
        <time>2018-09-02T16:17:31.000Z</time>
      </trkpt>
      <trkpt lat="43.30484046600759029388427734375" lon="-2.38820328377187252044677734375">
        <ele>73</ele>
        <time>2018-09-02T16:17:32.000Z</time>
      </trkpt>
      <trkpt lat="43.3048236183822154998779296875" lon="-2.38821434788405895233154296875">
        <ele>73.40000152587890625</ele>
        <time>2018-09-02T16:17:33.000Z</time>
      </trkpt>
      <trkpt lat="43.304806016385555267333984375" lon="-2.38822055049240589141845703125">
        <ele>73.40000152587890625</ele>
        <time>2018-09-02T16:17:34.000Z</time>
      </trkpt>
      <trkpt lat="43.30478648655116558074951171875" lon="-2.3882295191287994384765625">
        <ele>73.8000030517578125</ele>
        <time>2018-09-02T16:17:35.000Z</time>
      </trkpt>
      <trkpt lat="43.3047666214406490325927734375" lon="-2.388237230479717254638671875">
        <ele>74</ele>
        <time>2018-09-02T16:17:36.000Z</time>
      </trkpt>
      <trkpt lat="43.30474667251110076904296875" lon="-2.38824100233614444732666015625">
        <ele>74</ele>
        <time>2018-09-02T16:17:37.000Z</time>
      </trkpt>
      <trkpt lat="43.3047272264957427978515625" lon="-2.38824494183063507080078125">
        <ele>74.1999969482421875</ele>
        <time>2018-09-02T16:17:38.000Z</time>
      </trkpt>
      <trkpt lat="43.304707445204257965087890625" lon="-2.38824854604899883270263671875">
        <ele>74.40000152587890625</ele>
        <time>2018-09-02T16:17:39.000Z</time>
      </trkpt>
      <trkpt lat="43.304687999188899993896484375" lon="-2.38824754022061824798583984375">
        <ele>74.40000152587890625</ele>
        <time>2018-09-02T16:17:40.000Z</time>
      </trkpt>
      <trkpt lat="43.3046690560877323150634765625" lon="-2.3882484622299671173095703125">
        <ele>74.40000152587890625</ele>
        <time>2018-09-02T16:17:41.000Z</time>
      </trkpt>
      <trkpt lat="43.3046512864530086517333984375" lon="-2.38825156353414058685302734375">
        <ele>74.59999847412109375</ele>
        <time>2018-09-02T16:17:42.000Z</time>
      </trkpt>
      <trkpt lat="43.304632343351840972900390625" lon="-2.38825432956218719482421875">
        <ele>74.8000030517578125</ele>
        <time>2018-09-02T16:17:43.000Z</time>
      </trkpt>
      <trkpt lat="43.30461499281227588653564453125" lon="-2.38825977779924869537353515625">
        <ele>74.8000030517578125</ele>
        <time>2018-09-02T16:17:44.000Z</time>
      </trkpt>
      <trkpt lat="43.30459638498723506927490234375" lon="-2.38826380111277103424072265625">
        <ele>75</ele>
        <time>2018-09-02T16:17:45.000Z</time>
      </trkpt>
      <trkpt lat="43.30457962118089199066162109375" lon="-2.38826782442629337310791015625">
        <ele>75.1999969482421875</ele>
        <time>2018-09-02T16:17:46.000Z</time>
      </trkpt>
      <trkpt lat="43.3045627735555171966552734375" lon="-2.3882705904543399810791015625">
        <ele>75.1999969482421875</ele>
        <time>2018-09-02T16:17:47.000Z</time>
      </trkpt>
      <trkpt lat="43.30454542301595211029052734375" lon="-2.3882739432156085968017578125">
        <ele>75.40000152587890625</ele>
        <time>2018-09-02T16:17:48.000Z</time>
      </trkpt>
      <trkpt lat="43.30452983267605304718017578125" lon="-2.38827805034816265106201171875">
        <ele>75.59999847412109375</ele>
        <time>2018-09-02T16:17:49.000Z</time>
      </trkpt>
      <trkpt lat="43.30451524816453456878662109375" lon="-2.38828090019524097442626953125">
        <ele>75.59999847412109375</ele>
        <time>2018-09-02T16:17:50.000Z</time>
      </trkpt>
      <trkpt lat="43.30449965782463550567626953125" lon="-2.3882858455181121826171875">
        <ele>75.8000030517578125</ele>
        <time>2018-09-02T16:17:51.000Z</time>
      </trkpt>
      <trkpt lat="43.3044826425611972808837890625" lon="-2.38829012028872966766357421875">
        <ele>76</ele>
        <time>2018-09-02T16:17:52.000Z</time>
      </trkpt>
      <trkpt lat="43.3044655434787273406982421875" lon="-2.388295233249664306640625">
        <ele>76</ele>
        <time>2018-09-02T16:17:53.000Z</time>
      </trkpt>
      <trkpt lat="43.304448612034320831298828125" lon="-2.38829967565834522247314453125">
        <ele>76.1999969482421875</ele>
        <time>2018-09-02T16:17:54.000Z</time>
      </trkpt>
      <trkpt lat="43.30443142913281917572021484375" lon="-2.388303615152835845947265625">
        <ele>76.40000152587890625</ele>
        <time>2018-09-02T16:17:55.000Z</time>
      </trkpt>
      <trkpt lat="43.3044162578880786895751953125" lon="-2.38830805756151676177978515625">
        <ele>76.40000152587890625</ele>
        <time>2018-09-02T16:17:56.000Z</time>
      </trkpt>
      <trkpt lat="43.30440008081495761871337890625" lon="-2.38831141032278537750244140625">
        <ele>76.59999847412109375</ele>
        <time>2018-09-02T16:17:57.000Z</time>
      </trkpt>
      <trkpt lat="43.304384909570217132568359375" lon="-2.38830931484699249267578125">
        <ele>76.59999847412109375</ele>
        <time>2018-09-02T16:17:58.000Z</time>
      </trkpt>
      <trkpt lat="43.30436470918357372283935546875" lon="-2.38830721937119960784912109375">
        <ele>76.59999847412109375</ele>
        <time>2018-09-02T16:17:59.000Z</time>
      </trkpt>
      <trkpt lat="43.3043485321104526519775390625" lon="-2.3883073031902313232421875">
        <ele>76.8000030517578125</ele>
        <time>2018-09-02T16:18:00.000Z</time>
      </trkpt>
      <trkpt lat="43.304331935942173004150390625" lon="-2.38831057213246822357177734375">
        <ele>76.8000030517578125</ele>
        <time>2018-09-02T16:18:01.000Z</time>
      </trkpt>
      <trkpt lat="43.304315842688083648681640625" lon="-2.3883158527314662933349609375">
        <ele>77</ele>
        <time>2018-09-02T16:18:02.000Z</time>
      </trkpt>
      <trkpt lat="43.30430008471012115478515625" lon="-2.38832213915884494781494140625">
        <ele>77.1999969482421875</ele>
        <time>2018-09-02T16:18:03.000Z</time>
      </trkpt>
      <trkpt lat="43.3042885176837444305419921875" lon="-2.38832582719624042510986328125">
        <ele>77.1999969482421875</ele>
        <time>2018-09-02T16:18:04.000Z</time>
      </trkpt>
      <trkpt lat="43.3042751066386699676513671875" lon="-2.3883272521197795867919921875">
        <ele>77.40000152587890625</ele>
        <time>2018-09-02T16:18:05.000Z</time>
      </trkpt>
      <trkpt lat="43.3042632043361663818359375" lon="-2.388327419757843017578125">
        <ele>77.40000152587890625</ele>
        <time>2018-09-02T16:18:06.000Z</time>
      </trkpt>
      <trkpt lat="43.30424618907272815704345703125" lon="-2.388329766690731048583984375">
        <ele>77.59999847412109375</ele>
        <time>2018-09-02T16:18:07.000Z</time>
      </trkpt>
      <trkpt lat="43.30423059873282909393310546875" lon="-2.3883312754333019256591796875">
        <ele>77.8000030517578125</ele>
        <time>2018-09-02T16:18:08.000Z</time>
      </trkpt>
      <trkpt lat="43.304215259850025177001953125" lon="-2.38833169452846050262451171875">
        <ele>78</ele>
        <time>2018-09-02T16:18:09.000Z</time>
      </trkpt>
      <trkpt lat="43.304198496043682098388671875" lon="-2.388332448899745941162109375">
        <ele>78</ele>
        <time>2018-09-02T16:18:10.000Z</time>
      </trkpt>
      <trkpt lat="43.30417963676154613494873046875" lon="-2.38833085633814334869384765625">
        <ele>78.1999969482421875</ele>
        <time>2018-09-02T16:18:11.000Z</time>
      </trkpt>
      <trkpt lat="43.30416086129844188690185546875" lon="-2.38833001814782619476318359375">
        <ele>78.40000152587890625</ele>
        <time>2018-09-02T16:18:12.000Z</time>
      </trkpt>
      <trkpt lat="43.30414141528308391571044921875" lon="-2.3883309401571750640869140625">
        <ele>78.59999847412109375</ele>
        <time>2018-09-02T16:18:13.000Z</time>
      </trkpt>
      <trkpt lat="43.30412213690578937530517578125" lon="-2.3883341252803802490234375">
        <ele>78.8000030517578125</ele>
        <time>2018-09-02T16:18:14.000Z</time>
      </trkpt>
      <trkpt lat="43.3041027747094631195068359375" lon="-2.3883366398513317108154296875">
        <ele>79</ele>
        <time>2018-09-02T16:18:15.000Z</time>
      </trkpt>
      <trkpt lat="43.304082490503787994384765625" lon="-2.38834007643163204193115234375">
        <ele>79.1999969482421875</ele>
        <time>2018-09-02T16:18:16.000Z</time>
      </trkpt>
      <trkpt lat="43.30406430177390575408935546875" lon="-2.38834477029740810394287109375">
        <ele>79.40000152587890625</ele>
        <time>2018-09-02T16:18:17.000Z</time>
      </trkpt>
      <trkpt lat="43.3040447719395160675048828125" lon="-2.38834912888705730438232421875">
        <ele>79.59999847412109375</ele>
        <time>2018-09-02T16:18:18.000Z</time>
      </trkpt>
      <trkpt lat="43.3040273375809192657470703125" lon="-2.3883507214486598968505859375">
        <ele>79.8000030517578125</ele>
        <time>2018-09-02T16:18:19.000Z</time>
      </trkpt>
      <trkpt lat="43.30401032231748104095458984375" lon="-2.38835298456251621246337890625">
        <ele>80</ele>
        <time>2018-09-02T16:18:20.000Z</time>
      </trkpt>
      <trkpt lat="43.3039934746921062469482421875" lon="-2.38835357129573822021484375">
        <ele>80</ele>
        <time>2018-09-02T16:18:21.000Z</time>
      </trkpt>
      <trkpt lat="43.3039750345051288604736328125" lon="-2.388353236019611358642578125">
        <ele>80.1999969482421875</ele>
        <time>2018-09-02T16:18:22.000Z</time>
      </trkpt>
      <trkpt lat="43.3039586059749126434326171875" lon="-2.3883570916950702667236328125">
        <ele>80.40000152587890625</ele>
        <time>2018-09-02T16:18:23.000Z</time>
      </trkpt>
      <trkpt lat="43.303941674530506134033203125" lon="-2.38836807198822498321533203125">
        <ele>80.59999847412109375</ele>
        <time>2018-09-02T16:18:24.000Z</time>
      </trkpt>
      <trkpt lat="43.303925581276416778564453125" lon="-2.3883805610239505767822265625">
        <ele>81</ele>
        <time>2018-09-02T16:18:25.000Z</time>
      </trkpt>
      <trkpt lat="43.3039091527462005615234375" lon="-2.38839237950742244720458984375">
        <ele>81.1999969482421875</ele>
        <time>2018-09-02T16:18:26.000Z</time>
      </trkpt>
      <trkpt lat="43.3038912154734134674072265625" lon="-2.38840520381927490234375">
        <ele>81.59999847412109375</ele>
        <time>2018-09-02T16:18:27.000Z</time>
      </trkpt>
      <trkpt lat="43.303875960409641265869140625" lon="-2.38841928541660308837890625">
        <ele>81.8000030517578125</ele>
        <time>2018-09-02T16:18:28.000Z</time>
      </trkpt>
      <trkpt lat="43.3038593642413616180419921875" lon="-2.38843127153813838958740234375">
        <ele>82.1999969482421875</ele>
        <time>2018-09-02T16:18:29.000Z</time>
      </trkpt>
      <trkpt lat="43.3038429357111454010009765625" lon="-2.38844074308872222900390625">
        <ele>82.40000152587890625</ele>
        <time>2018-09-02T16:18:30.000Z</time>
      </trkpt>
      <trkpt lat="43.30382541753351688385009765625" lon="-2.388450466096401214599609375">
        <ele>82.59999847412109375</ele>
        <time>2018-09-02T16:18:31.000Z</time>
      </trkpt>
      <trkpt lat="43.30380932427942752838134765625" lon="-2.38846194930374622344970703125">
        <ele>83</ele>
        <time>2018-09-02T16:18:32.000Z</time>
      </trkpt>
      <trkpt lat="43.3037933148443698883056640625" lon="-2.3884751088917255401611328125">
        <ele>83.1999969482421875</ele>
        <time>2018-09-02T16:18:33.000Z</time>
      </trkpt>
      <trkpt lat="43.30377831123769283294677734375" lon="-2.38848927430808544158935546875">
        <ele>83.40000152587890625</ele>
        <time>2018-09-02T16:18:34.000Z</time>
      </trkpt>
      <trkpt lat="43.303762637078762054443359375" lon="-2.38850218243896961212158203125">
        <ele>83.8000030517578125</ele>
        <time>2018-09-02T16:18:35.000Z</time>
      </trkpt>
      <trkpt lat="43.30374813638627529144287109375" lon="-2.38851458765566349029541015625">
        <ele>84</ele>
        <time>2018-09-02T16:18:36.000Z</time>
      </trkpt>
      <trkpt lat="43.30373355187475681304931640625" lon="-2.3885240592062473297119140625">
        <ele>84.1999969482421875</ele>
        <time>2018-09-02T16:18:37.000Z</time>
      </trkpt>
      <trkpt lat="43.3037182129919528961181640625" lon="-2.3885317705571651458740234375">
        <ele>84.59999847412109375</ele>
        <time>2018-09-02T16:18:38.000Z</time>
      </trkpt>
      <trkpt lat="43.30370320938527584075927734375" lon="-2.3885401524603366851806640625">
        <ele>84.8000030517578125</ele>
        <time>2018-09-02T16:18:39.000Z</time>
      </trkpt>
      <trkpt lat="43.3036880381405353546142578125" lon="-2.3885468579828739166259765625">
        <ele>85</ele>
        <time>2018-09-02T16:18:40.000Z</time>
      </trkpt>
      <trkpt lat="43.3036726154386997222900390625" lon="-2.38855364732444286346435546875">
        <ele>85.1999969482421875</ele>
        <time>2018-09-02T16:18:41.000Z</time>
      </trkpt>
      <trkpt lat="43.3036592043936252593994140625" lon="-2.38856219686567783355712890625">
        <ele>85.40000152587890625</ele>
        <time>2018-09-02T16:18:42.000Z</time>
      </trkpt>
      <trkpt lat="43.3036457933485507965087890625" lon="-2.3885716684162616729736328125">
        <ele>85.59999847412109375</ele>
        <time>2018-09-02T16:18:43.000Z</time>
      </trkpt>
      <trkpt lat="43.30363229848444461822509765625" lon="-2.3885830678045749664306640625">
        <ele>85.8000030517578125</ele>
        <time>2018-09-02T16:18:44.000Z</time>
      </trkpt>
      <trkpt lat="43.303617127239704132080078125" lon="-2.38859488628804683685302734375">
        <ele>86.1999969482421875</ele>
        <time>2018-09-02T16:18:45.000Z</time>
      </trkpt>
      <trkpt lat="43.3036018721759319305419921875" lon="-2.388610728085041046142578125">
        <ele>86.40000152587890625</ele>
        <time>2018-09-02T16:18:46.000Z</time>
      </trkpt>
      <trkpt lat="43.30358795821666717529296875" lon="-2.38862858153879642486572265625">
        <ele>86.8000030517578125</ele>
        <time>2018-09-02T16:18:47.000Z</time>
      </trkpt>
      <trkpt lat="43.303573541343212127685546875" lon="-2.3886457644402980804443359375">
        <ele>87</ele>
        <time>2018-09-02T16:18:48.000Z</time>
      </trkpt>
      <trkpt lat="43.3035576157271862030029296875" lon="-2.3886611871421337127685546875">
        <ele>87.40000152587890625</ele>
        <time>2018-09-02T16:18:49.000Z</time>
      </trkpt>
      <trkpt lat="43.30354076810181140899658203125" lon="-2.38867652602493762969970703125">
        <ele>87.8000030517578125</ele>
        <time>2018-09-02T16:18:50.000Z</time>
      </trkpt>
      <trkpt lat="43.3035240881145000457763671875" lon="-2.388691864907741546630859375">
        <ele>88</ele>
        <time>2018-09-02T16:18:51.000Z</time>
      </trkpt>
      <trkpt lat="43.30350724048912525177001953125" lon="-2.38870603032410144805908203125">
        <ele>88.40000152587890625</ele>
        <time>2018-09-02T16:18:52.000Z</time>
      </trkpt>
      <trkpt lat="43.3034908957779407501220703125" lon="-2.38871977664530277252197265625">
        <ele>88.59999847412109375</ele>
        <time>2018-09-02T16:18:53.000Z</time>
      </trkpt>
      <trkpt lat="43.30347404815256595611572265625" lon="-2.38873419351875782012939453125">
        <ele>89</ele>
        <time>2018-09-02T16:18:54.000Z</time>
      </trkpt>
      <trkpt lat="43.30345879308879375457763671875" lon="-2.38874844275414943695068359375">
        <ele>89.40000152587890625</ele>
        <time>2018-09-02T16:18:55.000Z</time>
      </trkpt>
      <trkpt lat="43.30344186164438724517822265625" lon="-2.38875933922827243804931640625">
        <ele>89.8000030517578125</ele>
        <time>2018-09-02T16:18:56.000Z</time>
      </trkpt>
      <trkpt lat="43.30342358909547328948974609375" lon="-2.38876805640757083892822265625">
        <ele>90.40000152587890625</ele>
        <time>2018-09-02T16:18:57.000Z</time>
      </trkpt>
      <trkpt lat="43.30340531654655933380126953125" lon="-2.38877627067267894744873046875">
        <ele>90.8000030517578125</ele>
        <time>2018-09-02T16:18:58.000Z</time>
      </trkpt>
      <trkpt lat="43.30338704399764537811279296875" lon="-2.38878264091908931732177734375">
        <ele>91.1999969482421875</ele>
        <time>2018-09-02T16:18:59.000Z</time>
      </trkpt>
      <trkpt lat="43.30336910672485828399658203125" lon="-2.38879085518419742584228515625">
        <ele>91.8000030517578125</ele>
        <time>2018-09-02T16:19:00.000Z</time>
      </trkpt>
      <trkpt lat="43.30335116945207118988037109375" lon="-2.3888006620109081268310546875">
        <ele>92.1999969482421875</ele>
        <time>2018-09-02T16:19:01.000Z</time>
      </trkpt>
      <trkpt lat="43.303332813084125518798828125" lon="-2.38880929537117481231689453125">
        <ele>92.59999847412109375</ele>
        <time>2018-09-02T16:19:02.000Z</time>
      </trkpt>
      <trkpt lat="43.30331479199230670928955078125" lon="-2.38881717436015605926513671875">
        <ele>93.1999969482421875</ele>
        <time>2018-09-02T16:19:03.000Z</time>
      </trkpt>
      <trkpt lat="43.30329668708145618438720703125" lon="-2.388826310634613037109375">
        <ele>93.59999847412109375</ele>
        <time>2018-09-02T16:19:04.000Z</time>
      </trkpt>
      <trkpt lat="43.3032786659896373748779296875" lon="-2.38883561454713344573974609375">
        <ele>94.1999969482421875</ele>
        <time>2018-09-02T16:19:05.000Z</time>
      </trkpt>
      <trkpt lat="43.303261063992977142333984375" lon="-2.38884575664997100830078125">
        <ele>94.59999847412109375</ele>
        <time>2018-09-02T16:19:06.000Z</time>
      </trkpt>
      <trkpt lat="43.3032431267201900482177734375" lon="-2.38885707221925258636474609375">
        <ele>95</ele>
        <time>2018-09-02T16:19:07.000Z</time>
      </trkpt>
      <trkpt lat="43.303224183619022369384765625" lon="-2.38886763341724872589111328125">
        <ele>95.59999847412109375</ele>
        <time>2018-09-02T16:19:08.000Z</time>
      </trkpt>
      <trkpt lat="43.303204737603664398193359375" lon="-2.38887484185397624969482421875">
        <ele>96</ele>
        <time>2018-09-02T16:19:09.000Z</time>
      </trkpt>
      <trkpt lat="43.30318504013121128082275390625" lon="-2.38888062536716461181640625">
        <ele>96.59999847412109375</ele>
        <time>2018-09-02T16:19:10.000Z</time>
      </trkpt>
      <trkpt lat="43.30316458828747272491455078125" lon="-2.3888844810426235198974609375">
        <ele>97</ele>
        <time>2018-09-02T16:19:11.000Z</time>
      </trkpt>
      <trkpt lat="43.3031442202627658843994140625" lon="-2.3888871632516384124755859375">
        <ele>97.40000152587890625</ele>
        <time>2018-09-02T16:19:12.000Z</time>
      </trkpt>
      <trkpt lat="43.30312435515224933624267578125" lon="-2.38888758234679698944091796875">
        <ele>97.8000030517578125</ele>
        <time>2018-09-02T16:19:13.000Z</time>
      </trkpt>
      <trkpt lat="43.3031046576797962188720703125" lon="-2.38888590596616268157958984375">
        <ele>98.1999969482421875</ele>
        <time>2018-09-02T16:19:14.000Z</time>
      </trkpt>
      <trkpt lat="43.30308546312153339385986328125" lon="-2.38888154737651348114013671875">
        <ele>98.59999847412109375</ele>
        <time>2018-09-02T16:19:15.000Z</time>
      </trkpt>
      <trkpt lat="43.30306735821068286895751953125" lon="-2.388874255120754241943359375">
        <ele>98.8000030517578125</ele>
        <time>2018-09-02T16:19:16.000Z</time>
      </trkpt>
      <trkpt lat="43.303049504756927490234375" lon="-2.38886578939855098724365234375">
        <ele>99.1999969482421875</ele>
        <time>2018-09-02T16:19:17.000Z</time>
      </trkpt>
      <trkpt lat="43.30303248949348926544189453125" lon="-2.38885606639087200164794921875">
        <ele>99.40000152587890625</ele>
        <time>2018-09-02T16:19:18.000Z</time>
      </trkpt>
      <trkpt lat="43.30301606096327304840087890625" lon="-2.38884508609771728515625">
        <ele>99.59999847412109375</ele>
        <time>2018-09-02T16:19:19.000Z</time>
      </trkpt>
      <trkpt lat="43.30299946479499340057373046875" lon="-2.38883343525230884552001953125">
        <ele>99.8000030517578125</ele>
        <time>2018-09-02T16:19:20.000Z</time>
      </trkpt>
      <trkpt lat="43.30298420973122119903564453125" lon="-2.38882002420723438262939453125">
        <ele>100</ele>
        <time>2018-09-02T16:19:21.000Z</time>
      </trkpt>
      <trkpt lat="43.30296945758163928985595703125" lon="-2.38880326040089130401611328125">
        <ele>100</ele>
        <time>2018-09-02T16:19:22.000Z</time>
      </trkpt>
      <trkpt lat="43.30295587889850139617919921875" lon="-2.388785071671009063720703125">
        <ele>100.40000152587890625</ele>
        <time>2018-09-02T16:19:23.000Z</time>
      </trkpt>
      <trkpt lat="43.3029427193105220794677734375" lon="-2.38876587711274623870849609375">
        <ele>100.59999847412109375</ele>
        <time>2018-09-02T16:19:24.000Z</time>
      </trkpt>
      <trkpt lat="43.30293157137930393218994140625" lon="-2.38874517381191253662109375">
        <ele>100.8000030517578125</ele>
        <time>2018-09-02T16:19:25.000Z</time>
      </trkpt>
      <trkpt lat="43.30292285420000553131103515625" lon="-2.3887232132256031036376953125">
        <ele>100.8000030517578125</ele>
        <time>2018-09-02T16:19:26.000Z</time>
      </trkpt>
      <trkpt lat="43.30291606485843658447265625" lon="-2.38869915716350078582763671875">
        <ele>100.8000030517578125</ele>
        <time>2018-09-02T16:19:27.000Z</time>
      </trkpt>
      <trkpt lat="43.30290944315493106842041015625" lon="-2.38867552019655704498291015625">
        <ele>100.8000030517578125</ele>
        <time>2018-09-02T16:19:28.000Z</time>
      </trkpt>
      <trkpt lat="43.30290265381336212158203125" lon="-2.38865238614380359649658203125">
        <ele>101</ele>
        <time>2018-09-02T16:19:29.000Z</time>
      </trkpt>
      <trkpt lat="43.3028957806527614593505859375" lon="-2.38862958736717700958251953125">
        <ele>101</ele>
        <time>2018-09-02T16:19:30.000Z</time>
      </trkpt>
      <trkpt lat="43.30289033241569995880126953125" lon="-2.3886058665812015533447265625">
        <ele>101</ele>
        <time>2018-09-02T16:19:31.000Z</time>
      </trkpt>
      <trkpt lat="43.302885554730892181396484375" lon="-2.3885822296142578125">
        <ele>101</ele>
        <time>2018-09-02T16:19:32.000Z</time>
      </trkpt>
      <trkpt lat="43.3028813637793064117431640625" lon="-2.38855800591409206390380859375">
        <ele>101</ele>
        <time>2018-09-02T16:19:33.000Z</time>
      </trkpt>
      <trkpt lat="43.30288060940802097320556640625" lon="-2.38853436894714832305908203125">
        <ele>100.8000030517578125</ele>
        <time>2018-09-02T16:19:34.000Z</time>
      </trkpt>
      <trkpt lat="43.30288119614124298095703125" lon="-2.3885089717805385589599609375">
        <ele>100.59999847412109375</ele>
        <time>2018-09-02T16:19:35.000Z</time>
      </trkpt>
      <trkpt lat="43.30288345925509929656982421875" lon="-2.3884831555187702178955078125">
        <ele>100.40000152587890625</ele>
        <time>2018-09-02T16:19:36.000Z</time>
      </trkpt>
      <trkpt lat="43.3028853870928287506103515625" lon="-2.38845658488571643829345703125">
        <ele>100.1999969482421875</ele>
        <time>2018-09-02T16:19:37.000Z</time>
      </trkpt>
      <trkpt lat="43.302888236939907073974609375" lon="-2.3884315229952335357666015625">
        <ele>100</ele>
        <time>2018-09-02T16:19:38.000Z</time>
      </trkpt>
      <trkpt lat="43.30289100296795368194580078125" lon="-2.38840545527637004852294921875">
        <ele>99.8000030517578125</ele>
        <time>2018-09-02T16:19:39.000Z</time>
      </trkpt>
      <trkpt lat="43.30289318226277828216552734375" lon="-2.38837846554815769195556640625">
        <ele>99.59999847412109375</ele>
        <time>2018-09-02T16:19:40.000Z</time>
      </trkpt>
      <trkpt lat="43.30289552919566631317138671875" lon="-2.388354241847991943359375">
        <ele>99.40000152587890625</ele>
        <time>2018-09-02T16:19:41.000Z</time>
      </trkpt>
      <trkpt lat="43.302898295223712921142578125" lon="-2.3883285932242870330810546875">
        <ele>99.1999969482421875</ele>
        <time>2018-09-02T16:19:42.000Z</time>
      </trkpt>
      <trkpt lat="43.30290106125175952911376953125" lon="-2.38830436952412128448486328125">
        <ele>99</ele>
        <time>2018-09-02T16:19:43.000Z</time>
      </trkpt>
      <trkpt lat="43.30290441401302814483642578125" lon="-2.3882793076336383819580078125">
        <ele>98.8000030517578125</ele>
        <time>2018-09-02T16:19:44.000Z</time>
      </trkpt>
      <trkpt lat="43.30290877260267734527587890625" lon="-2.38825458101928234100341796875">
        <ele>98.59999847412109375</ele>
        <time>2018-09-02T16:19:45.000Z</time>
      </trkpt>
      <trkpt lat="43.30291363410651683807373046875" lon="-2.38823161460459232330322265625">
        <ele>98.59999847412109375</ele>
        <time>2018-09-02T16:19:46.000Z</time>
      </trkpt>
      <trkpt lat="43.30291782505810260772705078125" lon="-2.3882075585424900054931640625">
        <ele>98.40000152587890625</ele>
        <time>2018-09-02T16:19:47.000Z</time>
      </trkpt>
      <trkpt lat="43.302921094000339508056640625" lon="-2.38818316720426082611083984375">
        <ele>98.1999969482421875</ele>
        <time>2018-09-02T16:19:48.000Z</time>
      </trkpt>
      <trkpt lat="43.30292352475225925445556640625" lon="-2.38815902732312679290771484375">
        <ele>98.1999969482421875</ele>
        <time>2018-09-02T16:19:49.000Z</time>
      </trkpt>
      <trkpt lat="43.3029262907803058624267578125" lon="-2.38813505508005619049072265625">
        <ele>98</ele>
        <time>2018-09-02T16:19:50.000Z</time>
      </trkpt>
      <trkpt lat="43.30292888917028903961181640625" lon="-2.38811083137989044189453125">
        <ele>98</ele>
        <time>2018-09-02T16:19:51.000Z</time>
      </trkpt>
      <trkpt lat="43.30293207429349422454833984375" lon="-2.38808610476553440093994140625">
        <ele>97.8000030517578125</ele>
        <time>2018-09-02T16:19:52.000Z</time>
      </trkpt>
      <trkpt lat="43.30293542705476284027099609375" lon="-2.38806246779859066009521484375">
        <ele>97.8000030517578125</ele>
        <time>2018-09-02T16:19:53.000Z</time>
      </trkpt>
      <trkpt lat="43.30293945036828517913818359375" lon="-2.38803866319358348846435546875">
        <ele>97.59999847412109375</ele>
        <time>2018-09-02T16:19:54.000Z</time>
      </trkpt>
      <trkpt lat="43.302943222224712371826171875" lon="-2.3880137689411640167236328125">
        <ele>97.40000152587890625</ele>
        <time>2018-09-02T16:19:55.000Z</time>
      </trkpt>
      <trkpt lat="43.3029467426240444183349609375" lon="-2.38798937760293483734130859375">
        <ele>97.40000152587890625</ele>
        <time>2018-09-02T16:19:56.000Z</time>
      </trkpt>
      <trkpt lat="43.30295152030885219573974609375" lon="-2.38796523772180080413818359375">
        <ele>97.59999847412109375</ele>
        <time>2018-09-02T16:19:57.000Z</time>
      </trkpt>
      <trkpt lat="43.3029578067362308502197265625" lon="-2.387941181659698486328125">
        <ele>97.59999847412109375</ele>
        <time>2018-09-02T16:19:58.000Z</time>
      </trkpt>
      <trkpt lat="43.3029638417065143585205078125" lon="-2.387917377054691314697265625">
        <ele>97.59999847412109375</ele>
        <time>2018-09-02T16:19:59.000Z</time>
      </trkpt>
      <trkpt lat="43.3029688708484172821044921875" lon="-2.387893907725811004638671875">
        <ele>97.59999847412109375</ele>
        <time>2018-09-02T16:20:00.000Z</time>
      </trkpt>
      <trkpt lat="43.3029730618000030517578125" lon="-2.3878699354827404022216796875">
        <ele>97.59999847412109375</ele>
        <time>2018-09-02T16:20:01.000Z</time>
      </trkpt>
      <trkpt lat="43.30297851003706455230712890625" lon="-2.38784722052514553070068359375">
        <ele>97.59999847412109375</ele>
        <time>2018-09-02T16:20:02.000Z</time>
      </trkpt>
      <trkpt lat="43.3029839582741260528564453125" lon="-2.3878246732056140899658203125">
        <ele>97.59999847412109375</ele>
        <time>2018-09-02T16:20:03.000Z</time>
      </trkpt>
      <trkpt lat="43.302986808121204376220703125" lon="-2.38780028186738491058349609375">
        <ele>97.8000030517578125</ele>
        <time>2018-09-02T16:20:04.000Z</time>
      </trkpt>
      <trkpt lat="43.3029899932444095611572265625" lon="-2.3877763934433460235595703125">
        <ele>98</ele>
        <time>2018-09-02T16:20:05.000Z</time>
      </trkpt>
      <trkpt lat="43.3029936812818050384521484375" lon="-2.38775149919092655181884765625">
        <ele>98</ele>
        <time>2018-09-02T16:20:06.000Z</time>
      </trkpt>
      <trkpt lat="43.3029977045953273773193359375" lon="-2.38772752694785594940185546875">
        <ele>98.1999969482421875</ele>
        <time>2018-09-02T16:20:07.000Z</time>
      </trkpt>
      <trkpt lat="43.30300332047045230865478515625" lon="-2.38770372234284877777099609375">
        <ele>98.1999969482421875</ele>
        <time>2018-09-02T16:20:08.000Z</time>
      </trkpt>
      <trkpt lat="43.30300902016460895538330078125" lon="-2.38768033683300018310546875">
        <ele>98.1999969482421875</ele>
        <time>2018-09-02T16:20:09.000Z</time>
      </trkpt>
      <trkpt lat="43.30301463603973388671875" lon="-2.387655861675739288330078125">
        <ele>98.1999969482421875</ele>
        <time>2018-09-02T16:20:10.000Z</time>
      </trkpt>
      <trkpt lat="43.30301874317228794097900390625" lon="-2.3876308836042881011962890625">
        <ele>98.1999969482421875</ele>
        <time>2018-09-02T16:20:11.000Z</time>
      </trkpt>
      <trkpt lat="43.30302326940000057220458984375" lon="-2.38760582171380519866943359375">
        <ele>98.40000152587890625</ele>
        <time>2018-09-02T16:20:12.000Z</time>
      </trkpt>
      <trkpt lat="43.303028382360935211181640625" lon="-2.38758084364235401153564453125">
        <ele>98.40000152587890625</ele>
        <time>2018-09-02T16:20:13.000Z</time>
      </trkpt>
      <trkpt lat="43.30303416587412357330322265625" lon="-2.3875554464757442474365234375">
        <ele>98.40000152587890625</ele>
        <time>2018-09-02T16:20:14.000Z</time>
      </trkpt>
      <trkpt lat="43.30304078757762908935546875" lon="-2.38753021694719791412353515625">
        <ele>98.40000152587890625</ele>
        <time>2018-09-02T16:20:15.000Z</time>
      </trkpt>
      <trkpt lat="43.3030469901859760284423828125" lon="-2.38750456832349300384521484375">
        <ele>98.40000152587890625</ele>
        <time>2018-09-02T16:20:16.000Z</time>
      </trkpt>
      <trkpt lat="43.30305327661335468292236328125" lon="-2.38747674040496349334716796875">
        <ele>98.40000152587890625</ele>
        <time>2018-09-02T16:20:17.000Z</time>
      </trkpt>
      <trkpt lat="43.30305847339332103729248046875" lon="-2.3874494992196559906005859375">
        <ele>98.40000152587890625</ele>
        <time>2018-09-02T16:20:18.000Z</time>
      </trkpt>
      <trkpt lat="43.303064592182636260986328125" lon="-2.387423180043697357177734375">
        <ele>98.40000152587890625</ele>
        <time>2018-09-02T16:20:19.000Z</time>
      </trkpt>
      <trkpt lat="43.303070962429046630859375" lon="-2.38739660941064357757568359375">
        <ele>98.40000152587890625</ele>
        <time>2018-09-02T16:20:20.000Z</time>
      </trkpt>
      <trkpt lat="43.303078003227710723876953125" lon="-2.3873698711395263671875">
        <ele>98.1999969482421875</ele>
        <time>2018-09-02T16:20:21.000Z</time>
      </trkpt>
      <trkpt lat="43.30308496020734310150146484375" lon="-2.38734330050647258758544921875">
        <ele>98.1999969482421875</ele>
        <time>2018-09-02T16:20:22.000Z</time>
      </trkpt>
      <trkpt lat="43.30309166572988033294677734375" lon="-2.3873160593211650848388671875">
        <ele>98.1999969482421875</ele>
        <time>2018-09-02T16:20:23.000Z</time>
      </trkpt>
      <trkpt lat="43.303098119795322418212890625" lon="-2.38728965632617473602294921875">
        <ele>98.1999969482421875</ele>
        <time>2018-09-02T16:20:24.000Z</time>
      </trkpt>
      <trkpt lat="43.303104825317859649658203125" lon="-2.38726316951215267181396484375">
        <ele>98</ele>
        <time>2018-09-02T16:20:25.000Z</time>
      </trkpt>
      <trkpt lat="43.30311211757361888885498046875" lon="-2.38723634742200374603271484375">
        <ele>98</ele>
        <time>2018-09-02T16:20:26.000Z</time>
      </trkpt>
      <trkpt lat="43.3031194098293781280517578125" lon="-2.3872097767889499664306640625">
        <ele>97.8000030517578125</ele>
        <time>2018-09-02T16:20:27.000Z</time>
      </trkpt>
      <trkpt lat="43.30312636680901050567626953125" lon="-2.38718320615589618682861328125">
        <ele>97.8000030517578125</ele>
        <time>2018-09-02T16:20:28.000Z</time>
      </trkpt>
      <trkpt lat="43.30313273705542087554931640625" lon="-2.387157976627349853515625">
        <ele>97.8000030517578125</ele>
        <time>2018-09-02T16:20:29.000Z</time>
      </trkpt>
      <trkpt lat="43.30314061604440212249755859375" lon="-2.38713425584137439727783203125">
        <ele>97.59999847412109375</ele>
        <time>2018-09-02T16:20:30.000Z</time>
      </trkpt>
      <trkpt lat="43.30314933322370052337646484375" lon="-2.38711011596024036407470703125">
        <ele>97.40000152587890625</ele>
        <time>2018-09-02T16:20:31.000Z</time>
      </trkpt>
      <trkpt lat="43.3031583018600940704345703125" lon="-2.387084551155567169189453125">
        <ele>97.40000152587890625</ele>
        <time>2018-09-02T16:20:32.000Z</time>
      </trkpt>
      <trkpt lat="43.30316643230617046356201171875" lon="-2.387059740722179412841796875">
        <ele>97.1999969482421875</ele>
        <time>2018-09-02T16:20:33.000Z</time>
      </trkpt>
      <trkpt lat="43.30317548476159572601318359375" lon="-2.3870357684791088104248046875">
        <ele>97</ele>
        <time>2018-09-02T16:20:34.000Z</time>
      </trkpt>
      <trkpt lat="43.3031844533979892730712890625" lon="-2.38701246678829193115234375">
        <ele>96.8000030517578125</ele>
        <time>2018-09-02T16:20:35.000Z</time>
      </trkpt>
      <trkpt lat="43.30319291912019252777099609375" lon="-2.38698874600231647491455078125">
        <ele>96.8000030517578125</ele>
        <time>2018-09-02T16:20:36.000Z</time>
      </trkpt>
      <trkpt lat="43.303199708461761474609375" lon="-2.38696410320699214935302734375">
        <ele>96.59999847412109375</ele>
        <time>2018-09-02T16:20:37.000Z</time>
      </trkpt>
      <trkpt lat="43.3032055757939815521240234375" lon="-2.3869395442306995391845703125">
        <ele>96.59999847412109375</ele>
        <time>2018-09-02T16:20:38.000Z</time>
      </trkpt>
      <trkpt lat="43.30321236513555049896240234375" lon="-2.38691464997828006744384765625">
        <ele>96.59999847412109375</ele>
        <time>2018-09-02T16:20:39.000Z</time>
      </trkpt>
      <trkpt lat="43.30322108231484889984130859375" lon="-2.38688799552619457244873046875">
        <ele>96.40000152587890625</ele>
        <time>2018-09-02T16:20:40.000Z</time>
      </trkpt>
      <trkpt lat="43.30322611145675182342529296875" lon="-2.38686167635023593902587890625">
        <ele>96.59999847412109375</ele>
        <time>2018-09-02T16:20:41.000Z</time>
      </trkpt>
      <trkpt lat="43.30323130823671817779541015625" lon="-2.3868352733552455902099609375">
        <ele>96.59999847412109375</ele>
        <time>2018-09-02T16:20:42.000Z</time>
      </trkpt>
      <trkpt lat="43.30323767848312854766845703125" lon="-2.38681172020733356475830078125">
        <ele>96.59999847412109375</ele>
        <time>2018-09-02T16:20:43.000Z</time>
      </trkpt>
      <trkpt lat="43.303243629634380340576171875" lon="-2.386786825954914093017578125">
        <ele>96.59999847412109375</ele>
        <time>2018-09-02T16:20:44.000Z</time>
      </trkpt>
      <trkpt lat="43.30324488691985607147216796875" lon="-2.386762015521526336669921875">
        <ele>96.8000030517578125</ele>
        <time>2018-09-02T16:20:45.000Z</time>
      </trkpt>
      <trkpt lat="43.3032421208918094635009765625" lon="-2.386737205088138580322265625">
        <ele>97.1999969482421875</ele>
        <time>2018-09-02T16:20:46.000Z</time>
      </trkpt>
      <trkpt lat="43.30323600210249423980712890625" lon="-2.38671474158763885498046875">
        <ele>97.8000030517578125</ele>
        <time>2018-09-02T16:20:47.000Z</time>
      </trkpt>
      <trkpt lat="43.3032287098467350006103515625" lon="-2.38669470883905887603759765625">
        <ele>98.1999969482421875</ele>
        <time>2018-09-02T16:20:48.000Z</time>
      </trkpt>
      <trkpt lat="43.30321873538196086883544921875" lon="-2.38667878322303295135498046875">
        <ele>98.8000030517578125</ele>
        <time>2018-09-02T16:20:49.000Z</time>
      </trkpt>
      <trkpt lat="43.303206749260425567626953125" lon="-2.3866656236350536346435546875">
        <ele>99.40000152587890625</ele>
        <time>2018-09-02T16:20:50.000Z</time>
      </trkpt>
      <trkpt lat="43.3031945116817951202392578125" lon="-2.386654727160930633544921875">
        <ele>100</ele>
        <time>2018-09-02T16:20:51.000Z</time>
      </trkpt>
      <trkpt lat="43.30318151973187923431396484375" lon="-2.386644668877124786376953125">
        <ele>100.59999847412109375</ele>
        <time>2018-09-02T16:20:52.000Z</time>
      </trkpt>
      <trkpt lat="43.3031680248677730560302734375" lon="-2.38663687370717525482177734375">
        <ele>101.1999969482421875</ele>
        <time>2018-09-02T16:20:53.000Z</time>
      </trkpt>
      <trkpt lat="43.303153105080127716064453125" lon="-2.38663293421268463134765625">
        <ele>101.8000030517578125</ele>
        <time>2018-09-02T16:20:54.000Z</time>
      </trkpt>
      <trkpt lat="43.30313759855926036834716796875" lon="-2.3866317607462406158447265625">
        <ele>102.40000152587890625</ele>
        <time>2018-09-02T16:20:55.000Z</time>
      </trkpt>
      <trkpt lat="43.30312167294323444366455078125" lon="-2.3866317607462406158447265625">
        <ele>103.1999969482421875</ele>
        <time>2018-09-02T16:20:56.000Z</time>
      </trkpt>
      <trkpt lat="43.30310490913689136505126953125" lon="-2.3866354487836360931396484375">
        <ele>103.8000030517578125</ele>
        <time>2018-09-02T16:20:57.000Z</time>
      </trkpt>
      <trkpt lat="43.303090073168277740478515625" lon="-2.386642657220363616943359375">
        <ele>104.40000152587890625</ele>
        <time>2018-09-02T16:20:58.000Z</time>
      </trkpt>
      <trkpt lat="43.30307657830417156219482421875" lon="-2.3866548947989940643310546875">
        <ele>104.8000030517578125</ele>
        <time>2018-09-02T16:20:59.000Z</time>
      </trkpt>
      <trkpt lat="43.30306434072554111480712890625" lon="-2.38666914403438568115234375">
        <ele>105.1999969482421875</ele>
        <time>2018-09-02T16:21:00.000Z</time>
      </trkpt>
      <trkpt lat="43.303054533898830413818359375" lon="-2.38668498583137989044189453125">
        <ele>105.40000152587890625</ele>
        <time>2018-09-02T16:21:01.000Z</time>
      </trkpt>
      <trkpt lat="43.3030466549098491668701171875" lon="-2.38670392893254756927490234375">
        <ele>105.59999847412109375</ele>
        <time>2018-09-02T16:21:02.000Z</time>
      </trkpt>
      <trkpt lat="43.30303953029215335845947265625" lon="-2.386724464595317840576171875">
        <ele>105.59999847412109375</ele>
        <time>2018-09-02T16:21:03.000Z</time>
      </trkpt>
      <trkpt lat="43.30303408205509185791015625" lon="-2.38674634136259555816650390625">
        <ele>105.59999847412109375</ele>
        <time>2018-09-02T16:21:04.000Z</time>
      </trkpt>
      <trkpt lat="43.3030298911035060882568359375" lon="-2.38676880486309528350830078125">
        <ele>105.59999847412109375</ele>
        <time>2018-09-02T16:21:05.000Z</time>
      </trkpt>
      <trkpt lat="43.30302662216126918792724609375" lon="-2.3867910169064998626708984375">
        <ele>105.40000152587890625</ele>
        <time>2018-09-02T16:21:06.000Z</time>
      </trkpt>
      <trkpt lat="43.303022347390651702880859375" lon="-2.386811636388301849365234375">
        <ele>105.40000152587890625</ele>
        <time>2018-09-02T16:21:07.000Z</time>
      </trkpt>
      <trkpt lat="43.30301840789616107940673828125" lon="-2.38683275878429412841796875">
        <ele>105.40000152587890625</ele>
        <time>2018-09-02T16:21:08.000Z</time>
      </trkpt>
      <trkpt lat="43.303015641868114471435546875" lon="-2.3868543840944766998291015625">
        <ele>105.1999969482421875</ele>
        <time>2018-09-02T16:21:09.000Z</time>
      </trkpt>
      <trkpt lat="43.30301287584006786346435546875" lon="-2.3868758417665958404541015625">
        <ele>105</ele>
        <time>2018-09-02T16:21:10.000Z</time>
      </trkpt>
      <trkpt lat="43.30300885252654552459716796875" lon="-2.3868979699909687042236328125">
        <ele>105</ele>
        <time>2018-09-02T16:21:11.000Z</time>
      </trkpt>
      <trkpt lat="43.30300432629883289337158203125" lon="-2.38692051731050014495849609375">
        <ele>105</ele>
        <time>2018-09-02T16:21:12.000Z</time>
      </trkpt>
      <trkpt lat="43.3029993809759616851806640625" lon="-2.38694398663938045501708984375">
        <ele>104.8000030517578125</ele>
        <time>2018-09-02T16:21:13.000Z</time>
      </trkpt>
      <trkpt lat="43.30299443565309047698974609375" lon="-2.38696753978729248046875">
        <ele>104.8000030517578125</ele>
        <time>2018-09-02T16:21:14.000Z</time>
      </trkpt>
      <trkpt lat="43.3029886521399021148681640625" lon="-2.3869911767542362213134765625">
        <ele>104.8000030517578125</ele>
        <time>2018-09-02T16:21:15.000Z</time>
      </trkpt>
      <trkpt lat="43.30298286862671375274658203125" lon="-2.38701271824538707733154296875">
        <ele>104.8000030517578125</ele>
        <time>2018-09-02T16:21:16.000Z</time>
      </trkpt>
      <trkpt lat="43.30297566018998622894287109375" lon="-2.3870332539081573486328125">
        <ele>104.8000030517578125</ele>
        <time>2018-09-02T16:21:17.000Z</time>
      </trkpt>
      <trkpt lat="43.302968032658100128173828125" lon="-2.3870547115802764892578125">
        <ele>105</ele>
        <time>2018-09-02T16:21:18.000Z</time>
      </trkpt>
      <trkpt lat="43.30295973457396030426025390625" lon="-2.3870773427188396453857421875">
        <ele>105</ele>
        <time>2018-09-02T16:21:19.000Z</time>
      </trkpt>
      <trkpt lat="43.3029514364898204803466796875" lon="-2.38710106350481510162353515625">
        <ele>105.1999969482421875</ele>
        <time>2018-09-02T16:21:20.000Z</time>
      </trkpt>
      <trkpt lat="43.3029430545866489410400390625" lon="-2.38712352700531482696533203125">
        <ele>105.1999969482421875</ele>
        <time>2018-09-02T16:21:21.000Z</time>
      </trkpt>
      <trkpt lat="43.302934169769287109375" lon="-2.38714582286775112152099609375">
        <ele>105.40000152587890625</ele>
        <time>2018-09-02T16:21:22.000Z</time>
      </trkpt>
      <trkpt lat="43.30292436294257640838623046875" lon="-2.38716778345406055450439453125">
        <ele>105.59999847412109375</ele>
        <time>2018-09-02T16:21:23.000Z</time>
      </trkpt>
      <trkpt lat="43.302914388477802276611328125" lon="-2.38719058223068714141845703125">
        <ele>105.59999847412109375</ele>
        <time>2018-09-02T16:21:24.000Z</time>
      </trkpt>
      <trkpt lat="43.3029051683843135833740234375" lon="-2.387212626636028289794921875">
        <ele>105.8000030517578125</ele>
        <time>2018-09-02T16:21:25.000Z</time>
      </trkpt>
      <trkpt lat="43.302896283566951751708984375" lon="-2.38723400048911571502685546875">
        <ele>106</ele>
        <time>2018-09-02T16:21:26.000Z</time>
      </trkpt>
      <trkpt lat="43.30288714729249477386474609375" lon="-2.38725545816123485565185546875">
        <ele>106.1999969482421875</ele>
        <time>2018-09-02T16:21:27.000Z</time>
      </trkpt>
      <trkpt lat="43.30287859775125980377197265625" lon="-2.3872764967381954193115234375">
        <ele>106.40000152587890625</ele>
        <time>2018-09-02T16:21:28.000Z</time>
      </trkpt>
      <trkpt lat="43.302871473133563995361328125" lon="-2.38729870878159999847412109375">
        <ele>106.40000152587890625</ele>
        <time>2018-09-02T16:21:29.000Z</time>
      </trkpt>
      <trkpt lat="43.302863426506519317626953125" lon="-2.3873200826346874237060546875">
        <ele>106.59999847412109375</ele>
        <time>2018-09-02T16:21:30.000Z</time>
      </trkpt>
      <trkpt lat="43.3028550446033477783203125" lon="-2.387342043220996856689453125">
        <ele>106.8000030517578125</ele>
        <time>2018-09-02T16:21:31.000Z</time>
      </trkpt>
      <trkpt lat="43.3028464950621128082275390625" lon="-2.3873650096356868743896484375">
        <ele>107</ele>
        <time>2018-09-02T16:21:32.000Z</time>
      </trkpt>
      <trkpt lat="43.30283937044441699981689453125" lon="-2.3873899877071380615234375">
        <ele>107</ele>
        <time>2018-09-02T16:21:33.000Z</time>
      </trkpt>
      <trkpt lat="43.3028327487409114837646484375" lon="-2.38741488195955753326416015625">
        <ele>107</ele>
        <time>2018-09-02T16:21:34.000Z</time>
      </trkpt>
      <trkpt lat="43.30282486975193023681640625" lon="-2.3874377645552158355712890625">
        <ele>107.1999969482421875</ele>
        <time>2018-09-02T16:21:35.000Z</time>
      </trkpt>
      <trkpt lat="43.30281606875360012054443359375" lon="-2.38746265880763530731201171875">
        <ele>107.40000152587890625</ele>
        <time>2018-09-02T16:21:36.000Z</time>
      </trkpt>
      <trkpt lat="43.3028082735836505889892578125" lon="-2.3874883912503719329833984375">
        <ele>107.40000152587890625</ele>
        <time>2018-09-02T16:21:37.000Z</time>
      </trkpt>
      <trkpt lat="43.3028014004230499267578125" lon="-2.38751403987407684326171875">
        <ele>107.40000152587890625</ele>
        <time>2018-09-02T16:21:38.000Z</time>
      </trkpt>
      <trkpt lat="43.3027948625385761260986328125" lon="-2.387540526688098907470703125">
        <ele>107.40000152587890625</ele>
        <time>2018-09-02T16:21:39.000Z</time>
      </trkpt>
      <trkpt lat="43.30278731882572174072265625" lon="-2.38756743259727954864501953125">
        <ele>107.40000152587890625</ele>
        <time>2018-09-02T16:21:40.000Z</time>
      </trkpt>
      <trkpt lat="43.3027797751128673553466796875" lon="-2.38759341649711132049560546875">
        <ele>107.40000152587890625</ele>
        <time>2018-09-02T16:21:41.000Z</time>
      </trkpt>
      <trkpt lat="43.30277265049517154693603515625" lon="-2.38762090913951396942138671875">
        <ele>107.40000152587890625</ele>
        <time>2018-09-02T16:21:42.000Z</time>
      </trkpt>
      <trkpt lat="43.3027670346200466156005859375" lon="-2.38764823414385318756103515625">
        <ele>107.40000152587890625</ele>
        <time>2018-09-02T16:21:43.000Z</time>
      </trkpt>
      <trkpt lat="43.30276141874492168426513671875" lon="-2.38767539151012897491455078125">
        <ele>107.40000152587890625</ele>
        <time>2018-09-02T16:21:44.000Z</time>
      </trkpt>
      <trkpt lat="43.30275421030819416046142578125" lon="-2.3877022974193096160888671875">
        <ele>107.40000152587890625</ele>
        <time>2018-09-02T16:21:45.000Z</time>
      </trkpt>
      <trkpt lat="43.30274784006178379058837890625" lon="-2.387728951871395111083984375">
        <ele>107.40000152587890625</ele>
        <time>2018-09-02T16:21:46.000Z</time>
      </trkpt>
      <trkpt lat="43.3027425594627857208251953125" lon="-2.38775602541863918304443359375">
        <ele>107.40000152587890625</ele>
        <time>2018-09-02T16:21:47.000Z</time>
      </trkpt>
      <trkpt lat="43.3027370274066925048828125" lon="-2.38778234459459781646728515625">
        <ele>107.1999969482421875</ele>
        <time>2018-09-02T16:21:48.000Z</time>
      </trkpt>
      <trkpt lat="43.3027311600744724273681640625" lon="-2.38780933432281017303466796875">
        <ele>107.1999969482421875</ele>
        <time>2018-09-02T16:21:49.000Z</time>
      </trkpt>
      <trkpt lat="43.3027244545519351959228515625" lon="-2.387836240231990814208984375">
        <ele>107.1999969482421875</ele>
        <time>2018-09-02T16:21:50.000Z</time>
      </trkpt>
      <trkpt lat="43.3027187548577785491943359375" lon="-2.3878622241318225860595703125">
        <ele>107.1999969482421875</ele>
        <time>2018-09-02T16:21:51.000Z</time>
      </trkpt>
      <trkpt lat="43.30271230079233646392822265625" lon="-2.38788963295519351959228515625">
        <ele>107.1999969482421875</ele>
        <time>2018-09-02T16:21:52.000Z</time>
      </trkpt>
      <trkpt lat="43.30270542763173580169677734375" lon="-2.38791578449308872222900390625">
        <ele>107.1999969482421875</ele>
        <time>2018-09-02T16:21:53.000Z</time>
      </trkpt>
      <trkpt lat="43.30269939266145229339599609375" lon="-2.38793925382196903228759765625">
        <ele>107.1999969482421875</ele>
        <time>2018-09-02T16:21:54.000Z</time>
      </trkpt>
      <trkpt lat="43.30269285477697849273681640625" lon="-2.3879634775221347808837890625">
        <ele>107.1999969482421875</ele>
        <time>2018-09-02T16:21:55.000Z</time>
      </trkpt>
      <trkpt lat="43.302684724330902099609375" lon="-2.38798904232680797576904296875">
        <ele>107.1999969482421875</ele>
        <time>2018-09-02T16:21:56.000Z</time>
      </trkpt>
      <trkpt lat="43.3026781864464282989501953125" lon="-2.38801586441695690155029296875">
        <ele>107.1999969482421875</ele>
        <time>2018-09-02T16:21:57.000Z</time>
      </trkpt>
      <trkpt lat="43.302672319114208221435546875" lon="-2.38804109394550323486328125">
        <ele>107.1999969482421875</ele>
        <time>2018-09-02T16:21:58.000Z</time>
      </trkpt>
      <trkpt lat="43.30266703851521015167236328125" lon="-2.3880657367408275604248046875">
        <ele>107.1999969482421875</ele>
        <time>2018-09-02T16:21:59.000Z</time>
      </trkpt>
      <trkpt lat="43.30265983007848262786865234375" lon="-2.3880900442600250244140625">
        <ele>107.1999969482421875</ele>
        <time>2018-09-02T16:22:00.000Z</time>
      </trkpt>
      <trkpt lat="43.30265044234693050384521484375" lon="-2.3881103284657001495361328125">
        <ele>107.40000152587890625</ele>
        <time>2018-09-02T16:22:01.000Z</time>
      </trkpt>
      <trkpt lat="43.30263854004442691802978515625" lon="-2.38812549971044063568115234375">
        <ele>107.59999847412109375</ele>
        <time>2018-09-02T16:22:02.000Z</time>
      </trkpt>
      <trkpt lat="43.30262378789484500885009765625" lon="-2.38813706673681735992431640625">
        <ele>108</ele>
        <time>2018-09-02T16:22:03.000Z</time>
      </trkpt>
      <trkpt lat="43.30260761082172393798828125" lon="-2.388148717582225799560546875">
        <ele>108.59999847412109375</ele>
        <time>2018-09-02T16:22:04.000Z</time>
      </trkpt>
      <trkpt lat="43.3025916852056980133056640625" lon="-2.38815902732312679290771484375">
        <ele>109</ele>
        <time>2018-09-02T16:22:05.000Z</time>
      </trkpt>
      <trkpt lat="43.30257617868483066558837890625" lon="-2.3881656490266323089599609375">
        <ele>109.59999847412109375</ele>
        <time>2018-09-02T16:22:06.000Z</time>
      </trkpt>
      <trkpt lat="43.30256142653524875640869140625" lon="-2.38816690631210803985595703125">
        <ele>110.1999969482421875</ele>
        <time>2018-09-02T16:22:07.000Z</time>
      </trkpt>
      <trkpt lat="43.30254667438566684722900390625" lon="-2.3881651461124420166015625">
        <ele>110.59999847412109375</ele>
        <time>2018-09-02T16:22:08.000Z</time>
      </trkpt>
      <trkpt lat="43.30253225751221179962158203125" lon="-2.3881616257131099700927734375">
        <ele>111.1999969482421875</ele>
        <time>2018-09-02T16:22:09.000Z</time>
      </trkpt>
      <trkpt lat="43.3025189302861690521240234375" lon="-2.38815450109541416168212890625">
        <ele>111.8000030517578125</ele>
        <time>2018-09-02T16:22:10.000Z</time>
      </trkpt>
      <trkpt lat="43.30250610597431659698486328125" lon="-2.388145029544830322265625">
        <ele>112.40000152587890625</ele>
        <time>2018-09-02T16:22:11.000Z</time>
      </trkpt>
      <trkpt lat="43.302495293319225311279296875" lon="-2.3881317861378192901611328125">
        <ele>113</ele>
        <time>2018-09-02T16:22:12.000Z</time>
      </trkpt>
      <trkpt lat="43.30248917452991008758544921875" lon="-2.38811560906469821929931640625">
        <ele>113.1999969482421875</ele>
        <time>2018-09-02T16:22:13.000Z</time>
      </trkpt>
      <trkpt lat="43.3024840615689754486083984375" lon="-2.38809599541127681732177734375">
        <ele>113.59999847412109375</ele>
        <time>2018-09-02T16:22:14.000Z</time>
      </trkpt>
      <trkpt lat="43.30247609876096248626708984375" lon="-2.3880739510059356689453125">
        <ele>114.1999969482421875</ele>
        <time>2018-09-02T16:22:15.000Z</time>
      </trkpt>
      <trkpt lat="43.3024703152477741241455078125" lon="-2.3880551755428314208984375">
        <ele>114.59999847412109375</ele>
        <time>2018-09-02T16:22:16.000Z</time>
      </trkpt>
      <trkpt lat="43.30246570520102977752685546875" lon="-2.38803598098456859588623046875">
        <ele>115</ele>
        <time>2018-09-02T16:22:17.000Z</time>
      </trkpt>
      <trkpt lat="43.30246201716363430023193359375" lon="-2.38801536150276660919189453125">
        <ele>115.1999969482421875</ele>
        <time>2018-09-02T16:22:18.000Z</time>
      </trkpt>
      <trkpt lat="43.30245883204042911529541015625" lon="-2.38799457438290119171142578125">
        <ele>115.59999847412109375</ele>
        <time>2018-09-02T16:22:19.000Z</time>
      </trkpt>
      <trkpt lat="43.30245598219335079193115234375" lon="-2.3879732005298137664794921875">
        <ele>115.8000030517578125</ele>
        <time>2018-09-02T16:22:20.000Z</time>
      </trkpt>
      <trkpt lat="43.3024518750607967376708984375" lon="-2.38795300014317035675048828125">
        <ele>116.1999969482421875</ele>
        <time>2018-09-02T16:22:21.000Z</time>
      </trkpt>
      <trkpt lat="43.30244961194694042205810546875" lon="-2.38793154247105121612548828125">
        <ele>116.59999847412109375</ele>
        <time>2018-09-02T16:22:22.000Z</time>
      </trkpt>
      <trkpt lat="43.30244894139468669891357421875" lon="-2.3879115097224712371826171875">
        <ele>116.8000030517578125</ele>
        <time>2018-09-02T16:22:23.000Z</time>
      </trkpt>
      <trkpt lat="43.302451036870479583740234375" lon="-2.38789080642163753509521484375">
        <ele>116.8000030517578125</ele>
        <time>2018-09-02T16:22:24.000Z</time>
      </trkpt>
      <trkpt lat="43.3024545572698116302490234375" lon="-2.38787001930177211761474609375">
        <ele>117</ele>
        <time>2018-09-02T16:22:25.000Z</time>
      </trkpt>
      <trkpt lat="43.30245749093592166900634765625" lon="-2.38784839399158954620361328125">
        <ele>117</ele>
        <time>2018-09-02T16:22:26.000Z</time>
      </trkpt>
      <trkpt lat="43.30245799385011196136474609375" lon="-2.3878260143101215362548828125">
        <ele>117.1999969482421875</ele>
        <time>2018-09-02T16:22:27.000Z</time>
      </trkpt>
      <trkpt lat="43.30245715565979480743408203125" lon="-2.3878042213618755340576171875">
        <ele>117.40000152587890625</ele>
        <time>2018-09-02T16:22:28.000Z</time>
      </trkpt>
      <trkpt lat="43.3024548925459384918212890625" lon="-2.38778293132781982421875">
        <ele>117.8000030517578125</ele>
        <time>2018-09-02T16:22:29.000Z</time>
      </trkpt>
      <trkpt lat="43.3024525456130504608154296875" lon="-2.3877636529505252838134765625">
        <ele>118</ele>
        <time>2018-09-02T16:22:30.000Z</time>
      </trkpt>
      <trkpt lat="43.3024518750607967376708984375" lon="-2.38774412311613559722900390625">
        <ele>118.1999969482421875</ele>
        <time>2018-09-02T16:22:31.000Z</time>
      </trkpt>
      <trkpt lat="43.30245338380336761474609375" lon="-2.38772367127239704132080078125">
        <ele>118.40000152587890625</ele>
        <time>2018-09-02T16:22:32.000Z</time>
      </trkpt>
      <trkpt lat="43.30245581455528736114501953125" lon="-2.387704811990261077880859375">
        <ele>118.40000152587890625</ele>
        <time>2018-09-02T16:22:33.000Z</time>
      </trkpt>
      <trkpt lat="43.30245967023074626922607421875" lon="-2.38768410868942737579345703125">
        <ele>118.59999847412109375</ele>
        <time>2018-09-02T16:22:34.000Z</time>
      </trkpt>
      <trkpt lat="43.30246335826814174652099609375" lon="-2.38766382448375225067138671875">
        <ele>118.59999847412109375</ele>
        <time>2018-09-02T16:22:35.000Z</time>
      </trkpt>
      <trkpt lat="43.30246587283909320831298828125" lon="-2.387642450630664825439453125">
        <ele>118.59999847412109375</ele>
        <time>2018-09-02T16:22:36.000Z</time>
      </trkpt>
      <trkpt lat="43.30246746540069580078125" lon="-2.3876233398914337158203125">
        <ele>118.59999847412109375</ele>
        <time>2018-09-02T16:22:37.000Z</time>
      </trkpt>
      <trkpt lat="43.3024740032851696014404296875" lon="-2.3876054026186466217041015625">
        <ele>118.40000152587890625</ele>
        <time>2018-09-02T16:22:38.000Z</time>
      </trkpt>
      <trkpt lat="43.3024817146360874176025390625" lon="-2.387586794793605804443359375">
        <ele>118.1999969482421875</ele>
        <time>2018-09-02T16:22:39.000Z</time>
      </trkpt>
      <trkpt lat="43.30248850397765636444091796875" lon="-2.38756726495921611785888671875">
        <ele>118</ele>
        <time>2018-09-02T16:22:40.000Z</time>
      </trkpt>
      <trkpt lat="43.302496634423732757568359375" lon="-2.38754916004836559295654296875">
        <ele>117.8000030517578125</ele>
        <time>2018-09-02T16:22:41.000Z</time>
      </trkpt>
      <trkpt lat="43.30250392667949199676513671875" lon="-2.3875282891094684600830078125">
        <ele>117.40000152587890625</ele>
        <time>2018-09-02T16:22:42.000Z</time>
      </trkpt>
      <trkpt lat="43.30251012928783893585205078125" lon="-2.38750574178993701934814453125">
        <ele>117.1999969482421875</ele>
        <time>2018-09-02T16:22:43.000Z</time>
      </trkpt>
      <trkpt lat="43.30251599662005901336669921875" lon="-2.38748193718492984771728515625">
        <ele>117.1999969482421875</ele>
        <time>2018-09-02T16:22:44.000Z</time>
      </trkpt>
      <trkpt lat="43.3025209419429302215576171875" lon="-2.387458048760890960693359375">
        <ele>117.1999969482421875</ele>
        <time>2018-09-02T16:22:45.000Z</time>
      </trkpt>
      <trkpt lat="43.3025249652564525604248046875" lon="-2.3874355852603912353515625">
        <ele>117.40000152587890625</ele>
        <time>2018-09-02T16:22:46.000Z</time>
      </trkpt>
      <trkpt lat="43.302530162036418914794921875" lon="-2.38741270266473293304443359375">
        <ele>117.40000152587890625</ele>
        <time>2018-09-02T16:22:47.000Z</time>
      </trkpt>
      <trkpt lat="43.302535526454448699951171875" lon="-2.38739023916423320770263671875">
        <ele>117.59999847412109375</ele>
        <time>2018-09-02T16:22:48.000Z</time>
      </trkpt>
      <trkpt lat="43.3025407232344150543212890625" lon="-2.3873690329492092132568359375">
        <ele>117.59999847412109375</ele>
        <time>2018-09-02T16:22:49.000Z</time>
      </trkpt>
      <trkpt lat="43.30254600383341312408447265625" lon="-2.3873469047248363494873046875">
        <ele>117.8000030517578125</ele>
        <time>2018-09-02T16:22:50.000Z</time>
      </trkpt>
      <trkpt lat="43.30255086533725261688232421875" lon="-2.38732502795755863189697265625">
        <ele>117.8000030517578125</ele>
        <time>2018-09-02T16:22:51.000Z</time>
      </trkpt>
      <trkpt lat="43.30255555920302867889404296875" lon="-2.38730424083769321441650390625">
        <ele>118</ele>
        <time>2018-09-02T16:22:52.000Z</time>
      </trkpt>
      <trkpt lat="43.3025605045258998870849609375" lon="-2.3872825317084789276123046875">
        <ele>118</ele>
        <time>2018-09-02T16:22:53.000Z</time>
      </trkpt>
      <trkpt lat="43.30256628803908824920654296875" lon="-2.38726132549345493316650390625">
        <ele>118.1999969482421875</ele>
        <time>2018-09-02T16:22:54.000Z</time>
      </trkpt>
      <trkpt lat="43.30257316119968891143798828125" lon="-2.3872419632971286773681640625">
        <ele>118.1999969482421875</ele>
        <time>2018-09-02T16:22:55.000Z</time>
      </trkpt>
      <trkpt lat="43.30257936380803585052490234375" lon="-2.38722260110080242156982421875">
        <ele>118.1999969482421875</ele>
        <time>2018-09-02T16:22:56.000Z</time>
      </trkpt>
      <trkpt lat="43.30258523114025592803955078125" lon="-2.38720181398093700408935546875">
        <ele>118.1999969482421875</ele>
        <time>2018-09-02T16:22:57.000Z</time>
      </trkpt>
      <trkpt lat="43.30259109847247600555419921875" lon="-2.387181110680103302001953125">
        <ele>118.40000152587890625</ele>
        <time>2018-09-02T16:22:58.000Z</time>
      </trkpt>
      <trkpt lat="43.30259763635694980621337890625" lon="-2.3871604911983013153076171875">
        <ele>118.40000152587890625</ele>
        <time>2018-09-02T16:22:59.000Z</time>
      </trkpt>
      <trkpt lat="43.3026044256985187530517578125" lon="-2.38714012317359447479248046875">
        <ele>118.40000152587890625</ele>
        <time>2018-09-02T16:23:00.000Z</time>
      </trkpt>
      <trkpt lat="43.3026114664971828460693359375" lon="-2.38711883313953876495361328125">
        <ele>118.59999847412109375</ele>
        <time>2018-09-02T16:23:01.000Z</time>
      </trkpt>
      <trkpt lat="43.30261808820068836212158203125" lon="-2.3870974592864513397216796875">
        <ele>118.59999847412109375</ele>
        <time>2018-09-02T16:23:02.000Z</time>
      </trkpt>
      <trkpt lat="43.3026243746280670166015625" lon="-2.38707591779530048370361328125">
        <ele>118.59999847412109375</ele>
        <time>2018-09-02T16:23:03.000Z</time>
      </trkpt>
      <trkpt lat="43.3026299066841602325439453125" lon="-2.3870545439422130584716796875">
        <ele>118.8000030517578125</ele>
        <time>2018-09-02T16:23:04.000Z</time>
      </trkpt>
      <trkpt lat="43.302635438740253448486328125" lon="-2.38703249953687191009521484375">
        <ele>118.8000030517578125</ele>
        <time>2018-09-02T16:23:05.000Z</time>
      </trkpt>
      <trkpt lat="43.302641808986663818359375" lon="-2.38701037131249904632568359375">
        <ele>118.8000030517578125</ele>
        <time>2018-09-02T16:23:06.000Z</time>
      </trkpt>
      <trkpt lat="43.3026490174233913421630859375" lon="-2.38698824308812618255615234375">
        <ele>118.8000030517578125</ele>
        <time>2018-09-02T16:23:07.000Z</time>
      </trkpt>
      <trkpt lat="43.30265714786946773529052734375" lon="-2.38696561194956302642822265625">
        <ele>118.59999847412109375</ele>
        <time>2018-09-02T16:23:08.000Z</time>
      </trkpt>
      <trkpt lat="43.3026647754013538360595703125" lon="-2.38694314844906330108642578125">
        <ele>118.59999847412109375</ele>
        <time>2018-09-02T16:23:09.000Z</time>
      </trkpt>
      <trkpt lat="43.30267240293323993682861328125" lon="-2.3869206011295318603515625">
        <ele>118.40000152587890625</ele>
        <time>2018-09-02T16:23:10.000Z</time>
      </trkpt>
      <trkpt lat="43.302680365741252899169921875" lon="-2.3868993110954761505126953125">
        <ele>118.40000152587890625</ele>
        <time>2018-09-02T16:23:11.000Z</time>
      </trkpt>
      <trkpt lat="43.3026885800063610076904296875" lon="-2.386877350509166717529296875">
        <ele>118.1999969482421875</ele>
        <time>2018-09-02T16:23:12.000Z</time>
      </trkpt>
      <trkpt lat="43.302695788443088531494140625" lon="-2.38685421645641326904296875">
        <ele>118.1999969482421875</ele>
        <time>2018-09-02T16:23:13.000Z</time>
      </trkpt>
      <trkpt lat="43.3027021586894989013671875" lon="-2.38683233968913555145263671875">
        <ele>118.1999969482421875</ele>
        <time>2018-09-02T16:23:14.000Z</time>
      </trkpt>
      <trkpt lat="43.30270945094525814056396484375" lon="-2.3868097923696041107177734375">
        <ele>118.1999969482421875</ele>
        <time>2018-09-02T16:23:15.000Z</time>
      </trkpt>
      <trkpt lat="43.302717246115207672119140625" lon="-2.3867853172123432159423828125">
        <ele>118.1999969482421875</ele>
        <time>2018-09-02T16:23:16.000Z</time>
      </trkpt>
      <trkpt lat="43.302725963294506072998046875" lon="-2.38676176406443119049072265625">
        <ele>118</ele>
        <time>2018-09-02T16:23:17.000Z</time>
      </trkpt>
      <trkpt lat="43.302736021578311920166015625" lon="-2.38673930056393146514892578125">
        <ele>117.8000030517578125</ele>
        <time>2018-09-02T16:23:18.000Z</time>
      </trkpt>
      <trkpt lat="43.30274666659533977508544921875" lon="-2.386717088520526885986328125">
        <ele>117.59999847412109375</ele>
        <time>2018-09-02T16:23:19.000Z</time>
      </trkpt>
      <trkpt lat="43.30275672487914562225341796875" lon="-2.38669470883905887603759765625">
        <ele>117.40000152587890625</ele>
        <time>2018-09-02T16:23:20.000Z</time>
      </trkpt>
      <trkpt lat="43.302763514220714569091796875" lon="-2.3866711556911468505859375">
        <ele>117.40000152587890625</ele>
        <time>2018-09-02T16:23:21.000Z</time>
      </trkpt>
      <trkpt lat="43.3027683757245540618896484375" lon="-2.386646009981632232666015625">
        <ele>117.59999847412109375</ele>
        <time>2018-09-02T16:23:22.000Z</time>
      </trkpt>
      <trkpt lat="43.3027718961238861083984375" lon="-2.38662161864340305328369140625">
        <ele>117.40000152587890625</ele>
        <time>2018-09-02T16:23:23.000Z</time>
      </trkpt>
      <trkpt lat="43.302773572504520416259765625" lon="-2.38659697584807872772216796875">
        <ele>117.40000152587890625</ele>
        <time>2018-09-02T16:23:24.000Z</time>
      </trkpt>
      <trkpt lat="43.30277482978999614715576171875" lon="-2.3865730874240398406982421875">
        <ele>117.1999969482421875</ele>
        <time>2018-09-02T16:23:25.000Z</time>
      </trkpt>
      <trkpt lat="43.30277499742805957794189453125" lon="-2.38655070774257183074951171875">
        <ele>117.1999969482421875</ele>
        <time>2018-09-02T16:23:26.000Z</time>
      </trkpt>
      <trkpt lat="43.3027718961238861083984375" lon="-2.3865295015275478363037109375">
        <ele>117.40000152587890625</ele>
        <time>2018-09-02T16:23:27.000Z</time>
      </trkpt>
      <trkpt lat="43.30276594497263431549072265625" lon="-2.38650955259799957275390625">
        <ele>117.59999847412109375</ele>
        <time>2018-09-02T16:23:28.000Z</time>
      </trkpt>
      <trkpt lat="43.30275840125977993011474609375" lon="-2.38649069331586360931396484375">
        <ele>118</ele>
        <time>2018-09-02T16:23:29.000Z</time>
      </trkpt>
      <trkpt lat="43.30274750478565692901611328125" lon="-2.3864735104143619537353515625">
        <ele>118.40000152587890625</ele>
        <time>2018-09-02T16:23:30.000Z</time>
      </trkpt>
      <trkpt lat="43.30273560248315334320068359375" lon="-2.3864594288170337677001953125">
        <ele>119</ele>
        <time>2018-09-02T16:23:31.000Z</time>
      </trkpt>
      <trkpt lat="43.302723951637744903564453125" lon="-2.386446185410022735595703125">
        <ele>119.40000152587890625</ele>
        <time>2018-09-02T16:23:32.000Z</time>
      </trkpt>
      <trkpt lat="43.30271112732589244842529296875" lon="-2.386434786021709442138671875">
        <ele>120</ele>
        <time>2018-09-02T16:23:33.000Z</time>
      </trkpt>
      <trkpt lat="43.3026969619095325469970703125" lon="-2.386426739394664764404296875">
        <ele>120.59999847412109375</ele>
        <time>2018-09-02T16:23:34.000Z</time>
      </trkpt>
      <trkpt lat="43.30268363468348979949951171875" lon="-2.38642011769115924835205078125">
        <ele>121.1999969482421875</ele>
        <time>2018-09-02T16:23:35.000Z</time>
      </trkpt>
      <trkpt lat="43.30267072655260562896728515625" lon="-2.386414669454097747802734375">
        <ele>121.8000030517578125</ele>
        <time>2018-09-02T16:23:36.000Z</time>
      </trkpt>
      <trkpt lat="43.302658237516880035400390625" lon="-2.38641190342605113983154296875">
        <ele>122.1999969482421875</ele>
        <time>2018-09-02T16:23:37.000Z</time>
      </trkpt>
      <trkpt lat="43.30264658667147159576416015625" lon="-2.38641039468348026275634765625">
        <ele>122.8000030517578125</ele>
        <time>2018-09-02T16:23:38.000Z</time>
      </trkpt>
      <trkpt lat="43.30263300798833370208740234375" lon="-2.38641039468348026275634765625">
        <ele>123.40000152587890625</ele>
        <time>2018-09-02T16:23:39.000Z</time>
      </trkpt>
      <trkpt lat="43.30262026749551296234130859375" lon="-2.3864151723682880401611328125">
        <ele>123.59999847412109375</ele>
        <time>2018-09-02T16:23:40.000Z</time>
      </trkpt>
      <trkpt lat="43.30260937102138996124267578125" lon="-2.3864218778908252716064453125">
        <ele>123.8000030517578125</ele>
        <time>2018-09-02T16:23:41.000Z</time>
      </trkpt>
      <trkpt lat="43.30259713344275951385498046875" lon="-2.38642900250852108001708984375">
        <ele>124</ele>
        <time>2018-09-02T16:23:42.000Z</time>
      </trkpt>
      <trkpt lat="43.30258606933057308197021484375" lon="-2.386439479887485504150390625">
        <ele>124.1999969482421875</ele>
        <time>2018-09-02T16:23:43.000Z</time>
      </trkpt>
      <trkpt lat="43.3025779388844966888427734375" lon="-2.3864500410854816436767578125">
        <ele>124.40000152587890625</ele>
        <time>2018-09-02T16:23:44.000Z</time>
      </trkpt>
      <trkpt lat="43.30256796441972255706787109375" lon="-2.38646051846444606781005859375">
        <ele>124.59999847412109375</ele>
        <time>2018-09-02T16:23:45.000Z</time>
      </trkpt>
      <trkpt lat="43.3025573194026947021484375" lon="-2.3864741809666156768798828125">
        <ele>124.8000030517578125</ele>
        <time>2018-09-02T16:23:46.000Z</time>
      </trkpt>
      <trkpt lat="43.30254935659468173980712890625" lon="-2.386489100754261016845703125">
        <ele>125</ele>
        <time>2018-09-02T16:23:47.000Z</time>
      </trkpt>
      <trkpt lat="43.3025420643389225006103515625" lon="-2.38650443963706493377685546875">
        <ele>125.1999969482421875</ele>
        <time>2018-09-02T16:23:48.000Z</time>
      </trkpt>
      <trkpt lat="43.30253519117832183837890625" lon="-2.3865194432437419891357421875">
        <ele>125.1999969482421875</ele>
        <time>2018-09-02T16:23:49.000Z</time>
      </trkpt>
      <trkpt lat="43.3025278151035308837890625" lon="-2.386532686650753021240234375">
        <ele>125.40000152587890625</ele>
        <time>2018-09-02T16:23:50.000Z</time>
      </trkpt>
      <trkpt lat="43.30251951701939105987548828125" lon="-2.38654802553355693817138671875">
        <ele>125.59999847412109375</ele>
        <time>2018-09-02T16:23:51.000Z</time>
      </trkpt>
      <trkpt lat="43.30251113511621952056884765625" lon="-2.386566884815692901611328125">
        <ele>125.8000030517578125</ele>
        <time>2018-09-02T16:23:52.000Z</time>
      </trkpt>
      <trkpt lat="43.30250225029885768890380859375" lon="-2.3865861631929874420166015625">
        <ele>126</ele>
        <time>2018-09-02T16:23:53.000Z</time>
      </trkpt>
      <trkpt lat="43.3024929463863372802734375" lon="-2.3866062797605991363525390625">
        <ele>126</ele>
        <time>2018-09-02T16:23:54.000Z</time>
      </trkpt>
      <trkpt lat="43.30248557031154632568359375" lon="-2.3866267316043376922607421875">
        <ele>126.1999969482421875</ele>
        <time>2018-09-02T16:23:55.000Z</time>
      </trkpt>
      <trkpt lat="43.30247827805578708648681640625" lon="-2.38664626143872737884521484375">
        <ele>126.40000152587890625</ele>
        <time>2018-09-02T16:23:56.000Z</time>
      </trkpt>
      <trkpt lat="43.30247157253324985504150390625" lon="-2.386666797101497650146484375">
        <ele>126.40000152587890625</ele>
        <time>2018-09-02T16:23:57.000Z</time>
      </trkpt>
      <trkpt lat="43.302464783191680908203125" lon="-2.38668817095458507537841796875">
        <ele>126.40000152587890625</ele>
        <time>2018-09-02T16:23:58.000Z</time>
      </trkpt>
      <trkpt lat="43.3024579100310802459716796875" lon="-2.3867085389792919158935546875">
        <ele>126.40000152587890625</ele>
        <time>2018-09-02T16:23:59.000Z</time>
      </trkpt>
      <trkpt lat="43.30244944430887699127197265625" lon="-2.38672706298530101776123046875">
        <ele>126.59999847412109375</ele>
        <time>2018-09-02T16:24:00.000Z</time>
      </trkpt>
      <trkpt lat="43.30243972130119800567626953125" lon="-2.38674424588680267333984375">
        <ele>126.59999847412109375</ele>
        <time>2018-09-02T16:24:01.000Z</time>
      </trkpt>
      <trkpt lat="43.30243058502674102783203125" lon="-2.3867596685886383056640625">
        <ele>126.8000030517578125</ele>
        <time>2018-09-02T16:24:02.000Z</time>
      </trkpt>
      <trkpt lat="43.30242178402841091156005859375" lon="-2.38677366636693477630615234375">
        <ele>126.8000030517578125</ele>
        <time>2018-09-02T16:24:03.000Z</time>
      </trkpt>
      <trkpt lat="43.30241256393492221832275390625" lon="-2.386791519820690155029296875">
        <ele>127</ele>
        <time>2018-09-02T16:24:04.000Z</time>
      </trkpt>
      <trkpt lat="43.30240367911756038665771484375" lon="-2.38680887036025524139404296875">
        <ele>127</ele>
        <time>2018-09-02T16:24:05.000Z</time>
      </trkpt>
      <trkpt lat="43.30239395610988140106201171875" lon="-2.38682613708078861236572265625">
        <ele>127.1999969482421875</ele>
        <time>2018-09-02T16:24:06.000Z</time>
      </trkpt>
      <trkpt lat="43.30238406546413898468017578125" lon="-2.386846505105495452880859375">
        <ele>127.1999969482421875</ele>
        <time>2018-09-02T16:24:07.000Z</time>
      </trkpt>
      <trkpt lat="43.30237618647515773773193359375" lon="-2.3868671245872974395751953125">
        <ele>127.1999969482421875</ele>
        <time>2018-09-02T16:24:08.000Z</time>
      </trkpt>
      <trkpt lat="43.30236948095262050628662109375" lon="-2.38688732497394084930419921875">
        <ele>127.1999969482421875</ele>
        <time>2018-09-02T16:24:09.000Z</time>
      </trkpt>
      <trkpt lat="43.30236076377332210540771484375" lon="-2.38690760917961597442626953125">
        <ele>127.40000152587890625</ele>
        <time>2018-09-02T16:24:10.000Z</time>
      </trkpt>
      <trkpt lat="43.302351124584674835205078125" lon="-2.3869268037378787994384765625">
        <ele>127.40000152587890625</ele>
        <time>2018-09-02T16:24:11.000Z</time>
      </trkpt>
      <trkpt lat="43.30234031192958354949951171875" lon="-2.38694683648645877838134765625">
        <ele>127.59999847412109375</ele>
        <time>2018-09-02T16:24:12.000Z</time>
      </trkpt>
      <trkpt lat="43.3023281581699848175048828125" lon="-2.3869663663208484649658203125">
        <ele>127.59999847412109375</ele>
        <time>2018-09-02T16:24:13.000Z</time>
      </trkpt>
      <trkpt lat="43.3023147471249103546142578125" lon="-2.3869844712316989898681640625">
        <ele>127.8000030517578125</ele>
        <time>2018-09-02T16:24:14.000Z</time>
      </trkpt>
      <trkpt lat="43.3022998273372650146484375" lon="-2.3870019055902957916259765625">
        <ele>128</ele>
        <time>2018-09-02T16:24:15.000Z</time>
      </trkpt>
      <trkpt lat="43.30228574573993682861328125" lon="-2.38701925612986087799072265625">
        <ele>128.1999969482421875</ele>
        <time>2018-09-02T16:24:16.000Z</time>
      </trkpt>
      <trkpt lat="43.30227292142808437347412109375" lon="-2.38703803159296512603759765625">
        <ele>128.399993896484375</ele>
        <time>2018-09-02T16:24:17.000Z</time>
      </trkpt>
      <trkpt lat="43.30226085148751735687255859375" lon="-2.387056387960910797119140625">
        <ele>128.399993896484375</ele>
        <time>2018-09-02T16:24:18.000Z</time>
      </trkpt>
      <trkpt lat="43.30224811099469661712646484375" lon="-2.38707457669079303741455078125">
        <ele>128.600006103515625</ele>
        <time>2018-09-02T16:24:19.000Z</time>
      </trkpt>
      <trkpt lat="43.30223453231155872344970703125" lon="-2.38709351979196071624755859375">
        <ele>128.8000030517578125</ele>
        <time>2018-09-02T16:24:20.000Z</time>
      </trkpt>
      <trkpt lat="43.30221994780004024505615234375" lon="-2.3871135525405406951904296875">
        <ele>128.8000030517578125</ele>
        <time>2018-09-02T16:24:21.000Z</time>
      </trkpt>
      <trkpt lat="43.3022061176598072052001953125" lon="-2.3871324956417083740234375">
        <ele>129</ele>
        <time>2018-09-02T16:24:22.000Z</time>
      </trkpt>
      <trkpt lat="43.3021917007863521575927734375" lon="-2.38715135492384433746337890625">
        <ele>129.1999969482421875</ele>
        <time>2018-09-02T16:24:23.000Z</time>
      </trkpt>
      <trkpt lat="43.302176110446453094482421875" lon="-2.38717230968177318572998046875">
        <ele>129.399993896484375</ele>
        <time>2018-09-02T16:24:24.000Z</time>
      </trkpt>
      <trkpt lat="43.30216278322041034698486328125" lon="-2.38719494082033634185791015625">
        <ele>129.600006103515625</ele>
        <time>2018-09-02T16:24:25.000Z</time>
      </trkpt>
      <trkpt lat="43.30214870162308216094970703125" lon="-2.387215308845043182373046875">
        <ele>129.600006103515625</ele>
        <time>2018-09-02T16:24:26.000Z</time>
      </trkpt>
      <trkpt lat="43.30213394947350025177001953125" lon="-2.3872345872223377227783203125">
        <ele>129.8000030517578125</ele>
        <time>2018-09-02T16:24:27.000Z</time>
      </trkpt>
      <trkpt lat="43.30211953260004520416259765625" lon="-2.3872570507228374481201171875">
        <ele>130</ele>
        <time>2018-09-02T16:24:28.000Z</time>
      </trkpt>
      <trkpt lat="43.3021062053740024566650390625" lon="-2.38727875985205173492431640625">
        <ele>130.1999969482421875</ele>
        <time>2018-09-02T16:24:29.000Z</time>
      </trkpt>
      <trkpt lat="43.3020932972431182861328125" lon="-2.387299798429012298583984375">
        <ele>130.1999969482421875</ele>
        <time>2018-09-02T16:24:30.000Z</time>
      </trkpt>
      <trkpt lat="43.30207946710288524627685546875" lon="-2.3873200826346874237060546875">
        <ele>130.399993896484375</ele>
        <time>2018-09-02T16:24:31.000Z</time>
      </trkpt>
      <trkpt lat="43.30206588841974735260009765625" lon="-2.38734128884971141815185546875">
        <ele>130.399993896484375</ele>
        <time>2018-09-02T16:24:32.000Z</time>
      </trkpt>
      <trkpt lat="43.3020525611937046051025390625" lon="-2.38736123777925968170166015625">
        <ele>130.600006103515625</ele>
        <time>2018-09-02T16:24:33.000Z</time>
      </trkpt>
      <trkpt lat="43.30203856341540813446044921875" lon="-2.387381605803966522216796875">
        <ele>130.8000030517578125</ele>
        <time>2018-09-02T16:24:34.000Z</time>
      </trkpt>
      <trkpt lat="43.30202557146549224853515625" lon="-2.3874028958380222320556640625">
        <ele>130.8000030517578125</ele>
        <time>2018-09-02T16:24:35.000Z</time>
      </trkpt>
      <trkpt lat="43.302013836801052093505859375" lon="-2.38742418587207794189453125">
        <ele>131</ele>
        <time>2018-09-02T16:24:36.000Z</time>
      </trkpt>
      <trkpt lat="43.3020021021366119384765625" lon="-2.3874458111822605133056640625">
        <ele>131</ele>
        <time>2018-09-02T16:24:37.000Z</time>
      </trkpt>
      <trkpt lat="43.301990367472171783447265625" lon="-2.38746752031147480010986328125">
        <ele>131.1999969482421875</ele>
        <time>2018-09-02T16:24:38.000Z</time>
      </trkpt>
      <trkpt lat="43.30197863280773162841796875" lon="-2.38748797215521335601806640625">
        <ele>131.399993896484375</ele>
        <time>2018-09-02T16:24:39.000Z</time>
      </trkpt>
      <trkpt lat="43.30196790397167205810546875" lon="-2.38750959746539592742919921875">
        <ele>131.600006103515625</ele>
        <time>2018-09-02T16:24:40.000Z</time>
      </trkpt>
      <trkpt lat="43.30195910297334194183349609375" lon="-2.38753155805170536041259765625">
        <ele>131.8000030517578125</ele>
        <time>2018-09-02T16:24:41.000Z</time>
      </trkpt>
      <trkpt lat="43.30195072107017040252685546875" lon="-2.387552596628665924072265625">
        <ele>132.1999969482421875</ele>
        <time>2018-09-02T16:24:42.000Z</time>
      </trkpt>
      <trkpt lat="43.3019415847957134246826171875" lon="-2.38757346756756305694580078125">
        <ele>132.399993896484375</ele>
        <time>2018-09-02T16:24:43.000Z</time>
      </trkpt>
      <trkpt lat="43.3019325323402881622314453125" lon="-2.3875946737825870513916015625">
        <ele>132.600006103515625</ele>
        <time>2018-09-02T16:24:44.000Z</time>
      </trkpt>
      <trkpt lat="43.30192473717033863067626953125" lon="-2.387616634368896484375">
        <ele>132.8000030517578125</ele>
        <time>2018-09-02T16:24:45.000Z</time>
      </trkpt>
      <trkpt lat="43.3019174449145793914794921875" lon="-2.38763784058392047882080078125">
        <ele>133.1999969482421875</ele>
        <time>2018-09-02T16:24:46.000Z</time>
      </trkpt>
      <trkpt lat="43.30190956592559814453125" lon="-2.3876590467989444732666015625">
        <ele>133.399993896484375</ele>
        <time>2018-09-02T16:24:47.000Z</time>
      </trkpt>
      <trkpt lat="43.3019030280411243438720703125" lon="-2.3876815102994441986083984375">
        <ele>133.600006103515625</ele>
        <time>2018-09-02T16:24:48.000Z</time>
      </trkpt>
      <trkpt lat="43.3018993400037288665771484375" lon="-2.38770489580929279327392578125">
        <ele>133.600006103515625</ele>
        <time>2018-09-02T16:24:49.000Z</time>
      </trkpt>
      <trkpt lat="43.30189640633761882781982421875" lon="-2.38772819750010967254638671875">
        <ele>133.8000030517578125</ele>
        <time>2018-09-02T16:24:50.000Z</time>
      </trkpt>
      <trkpt lat="43.3018933050334453582763671875" lon="-2.38775166682898998260498046875">
        <ele>133.8000030517578125</ele>
        <time>2018-09-02T16:24:51.000Z</time>
      </trkpt>
      <trkpt lat="43.30188970081508159637451171875" lon="-2.38777547143399715423583984375">
        <ele>134</ele>
        <time>2018-09-02T16:24:52.000Z</time>
      </trkpt>
      <trkpt lat="43.30188618041574954986572265625" lon="-2.38779827021062374114990234375">
        <ele>134.1999969482421875</ele>
        <time>2018-09-02T16:24:53.000Z</time>
      </trkpt>
      <trkpt lat="43.30188232474029064178466796875" lon="-2.387821488082408905029296875">
        <ele>134.1999969482421875</ele>
        <time>2018-09-02T16:24:54.000Z</time>
      </trkpt>
      <trkpt lat="43.3018787205219268798828125" lon="-2.3878441192209720611572265625">
        <ele>134.399993896484375</ele>
        <time>2018-09-02T16:24:55.000Z</time>
      </trkpt>
      <trkpt lat="43.30187528394162654876708984375" lon="-2.38786809146404266357421875">
        <ele>134.399993896484375</ele>
        <time>2018-09-02T16:24:56.000Z</time>
      </trkpt>
      <trkpt lat="43.3018735237419605255126953125" lon="-2.38789114169776439666748046875">
        <ele>134.600006103515625</ele>
        <time>2018-09-02T16:24:57.000Z</time>
      </trkpt>
      <trkpt lat="43.30187226645648479461669921875" lon="-2.3879148624837398529052734375">
        <ele>134.600006103515625</ele>
        <time>2018-09-02T16:24:58.000Z</time>
      </trkpt>
      <trkpt lat="43.301869332790374755859375" lon="-2.38793791271746158599853515625">
        <ele>134.8000030517578125</ele>
        <time>2018-09-02T16:24:59.000Z</time>
      </trkpt>
      <trkpt lat="43.3018651418387889862060546875" lon="-2.3879618011415004730224609375">
        <ele>134.8000030517578125</ele>
        <time>2018-09-02T16:25:00.000Z</time>
      </trkpt>
      <trkpt lat="43.30185986123979091644287109375" lon="-2.38798485137522220611572265625">
        <ele>135</ele>
        <time>2018-09-02T16:25:01.000Z</time>
      </trkpt>
      <trkpt lat="43.3018527366220951080322265625" lon="-2.3880050517618656158447265625">
        <ele>135.1999969482421875</ele>
        <time>2018-09-02T16:25:02.000Z</time>
      </trkpt>
      <trkpt lat="43.3018450252711772918701171875" lon="-2.38802458159625530242919921875">
        <ele>135.399993896484375</ele>
        <time>2018-09-02T16:25:03.000Z</time>
      </trkpt>
      <trkpt lat="43.301837146282196044921875" lon="-2.3880422674119472503662109375">
        <ele>135.8000030517578125</ele>
        <time>2018-09-02T16:25:04.000Z</time>
      </trkpt>
      <trkpt lat="43.301828093826770782470703125" lon="-2.38805978558957576751708984375">
        <ele>136</ele>
        <time>2018-09-02T16:25:05.000Z</time>
      </trkpt>
      <trkpt lat="43.3018198795616626739501953125" lon="-2.38807772286236286163330078125">
        <ele>136.1999969482421875</ele>
        <time>2018-09-02T16:25:06.000Z</time>
      </trkpt>
      <trkpt lat="43.30181300640106201171875" lon="-2.38809532485902309417724609375">
        <ele>136.399993896484375</ele>
        <time>2018-09-02T16:25:07.000Z</time>
      </trkpt>
      <trkpt lat="43.30180604942142963409423828125" lon="-2.38811141811311244964599609375">
        <ele>136.600006103515625</ele>
        <time>2018-09-02T16:25:08.000Z</time>
      </trkpt>
      <trkpt lat="43.301795907318592071533203125" lon="-2.38812751136720180511474609375">
        <ele>136.8000030517578125</ele>
        <time>2018-09-02T16:25:09.000Z</time>
      </trkpt>
      <trkpt lat="43.3017853461205959320068359375" lon="-2.388140000402927398681640625">
        <ele>136.600006103515625</ele>
        <time>2018-09-02T16:25:10.000Z</time>
      </trkpt>
      <trkpt lat="43.3017736114561557769775390625" lon="-2.38814947195351123809814453125">
        <ele>136.399993896484375</ele>
        <time>2018-09-02T16:25:11.000Z</time>
      </trkpt>
      <trkpt lat="43.3017608709633350372314453125" lon="-2.38815785385668277740478515625">
        <ele>136.1999969482421875</ele>
        <time>2018-09-02T16:25:12.000Z</time>
      </trkpt>
      <trkpt lat="43.301748298108577728271484375" lon="-2.3881663195788860321044921875">
        <ele>136.1999969482421875</ele>
        <time>2018-09-02T16:25:13.000Z</time>
      </trkpt>
      <trkpt lat="43.3017363958060741424560546875" lon="-2.3881730251014232635498046875">
        <ele>136</ele>
        <time>2018-09-02T16:25:14.000Z</time>
      </trkpt>
      <trkpt lat="43.30172373913228511810302734375" lon="-2.388179562985897064208984375">
        <ele>135.8000030517578125</ele>
        <time>2018-09-02T16:25:15.000Z</time>
      </trkpt>
      <trkpt lat="43.3017115853726863861083984375" lon="-2.38818534649908542633056640625">
        <ele>135.600006103515625</ele>
        <time>2018-09-02T16:25:16.000Z</time>
      </trkpt>
      <trkpt lat="43.30170026980340480804443359375" lon="-2.38818400539457798004150390625">
        <ele>135.600006103515625</ele>
        <time>2018-09-02T16:25:17.000Z</time>
      </trkpt>
      <trkpt lat="43.3016881160438060760498046875" lon="-2.388177551329135894775390625">
        <ele>135.399993896484375</ele>
        <time>2018-09-02T16:25:18.000Z</time>
      </trkpt>
      <trkpt lat="43.3016763813793659210205078125" lon="-2.3881716839969158172607421875">
        <ele>135.1999969482421875</ele>
        <time>2018-09-02T16:25:19.000Z</time>
      </trkpt>
      <trkpt lat="43.3016673289239406585693359375" lon="-2.38816313445568084716796875">
        <ele>135</ele>
        <time>2018-09-02T16:25:20.000Z</time>
      </trkpt>
      <trkpt lat="43.30165266059339046478271484375" lon="-2.3881532438099384307861328125">
        <ele>134.8000030517578125</ele>
        <time>2018-09-02T16:25:21.000Z</time>
      </trkpt>
      <trkpt lat="43.3016371540725231170654296875" lon="-2.388144023716449737548828125">
        <ele>134.600006103515625</ele>
        <time>2018-09-02T16:25:22.000Z</time>
      </trkpt>
      <trkpt lat="43.30162533558905124664306640625" lon="-2.3881371505558490753173828125">
        <ele>134.399993896484375</ele>
        <time>2018-09-02T16:25:23.000Z</time>
      </trkpt>
      <trkpt lat="43.30161661840975284576416015625" lon="-2.38812801428139209747314453125">
        <ele>134.399993896484375</ele>
        <time>2018-09-02T16:25:24.000Z</time>
      </trkpt>
      <trkpt lat="43.301607482135295867919921875" lon="-2.3881141841411590576171875">
        <ele>134.1999969482421875</ele>
        <time>2018-09-02T16:25:25.000Z</time>
      </trkpt>
      <trkpt lat="43.301597423851490020751953125" lon="-2.3880982585251331329345703125">
        <ele>134</ele>
        <time>2018-09-02T16:25:26.000Z</time>
      </trkpt>
      <trkpt lat="43.301589377224445343017578125" lon="-2.3880811594426631927490234375">
        <ele>134</ele>
        <time>2018-09-02T16:25:27.000Z</time>
      </trkpt>
      <trkpt lat="43.30158292315900325775146484375" lon="-2.3880583606660366058349609375">
        <ele>133.8000030517578125</ele>
        <time>2018-09-02T16:25:28.000Z</time>
      </trkpt>
      <trkpt lat="43.30157621763646602630615234375" lon="-2.38803363405168056488037109375">
        <ele>133.8000030517578125</ele>
        <time>2018-09-02T16:25:29.000Z</time>
      </trkpt>
      <trkpt lat="43.301569931209087371826171875" lon="-2.3880087397992610931396484375">
        <ele>133.600006103515625</ele>
        <time>2018-09-02T16:25:30.000Z</time>
      </trkpt>
      <trkpt lat="43.30156431533396244049072265625" lon="-2.38798384554684162139892578125">
        <ele>133.399993896484375</ele>
        <time>2018-09-02T16:25:31.000Z</time>
      </trkpt>
      <trkpt lat="43.30155760981142520904541015625" lon="-2.38795786164700984954833984375">
        <ele>133.399993896484375</ele>
        <time>2018-09-02T16:25:32.000Z</time>
      </trkpt>
      <trkpt lat="43.30155241303145885467529296875" lon="-2.38793120719492435455322265625">
        <ele>133.1999969482421875</ele>
        <time>2018-09-02T16:25:33.000Z</time>
      </trkpt>
      <trkpt lat="43.30154771916568279266357421875" lon="-2.3879041336476802825927734375">
        <ele>133.1999969482421875</ele>
        <time>2018-09-02T16:25:34.000Z</time>
      </trkpt>
      <trkpt lat="43.3015409298241138458251953125" lon="-2.38787672482430934906005859375">
        <ele>133</ele>
        <time>2018-09-02T16:25:35.000Z</time>
      </trkpt>
      <trkpt lat="43.30153346993029117584228515625" lon="-2.387849651277065277099609375">
        <ele>133</ele>
        <time>2018-09-02T16:25:36.000Z</time>
      </trkpt>
      <trkpt lat="43.301525004208087921142578125" lon="-2.387823164463043212890625">
        <ele>132.8000030517578125</ele>
        <time>2018-09-02T16:25:37.000Z</time>
      </trkpt>
      <trkpt lat="43.30151570029556751251220703125" lon="-2.38779759965837001800537109375">
        <ele>132.600006103515625</ele>
        <time>2018-09-02T16:25:38.000Z</time>
      </trkpt>
      <trkpt lat="43.30150916241109371185302734375" lon="-2.38777094520628452301025390625">
        <ele>132.600006103515625</ele>
        <time>2018-09-02T16:25:39.000Z</time>
      </trkpt>
      <trkpt lat="43.30150295980274677276611328125" lon="-2.38774294964969158172607421875">
        <ele>132.600006103515625</ele>
        <time>2018-09-02T16:25:40.000Z</time>
      </trkpt>
      <trkpt lat="43.301496170461177825927734375" lon="-2.3877153731882572174072265625">
        <ele>132.600006103515625</ele>
        <time>2018-09-02T16:25:41.000Z</time>
      </trkpt>
      <trkpt lat="43.301489464938640594482421875" lon="-2.38768746145069599151611328125">
        <ele>132.600006103515625</ele>
        <time>2018-09-02T16:25:42.000Z</time>
      </trkpt>
      <trkpt lat="43.30148217268288135528564453125" lon="-2.38766030408442020416259765625">
        <ele>132.600006103515625</ele>
        <time>2018-09-02T16:25:43.000Z</time>
      </trkpt>
      <trkpt lat="43.30147613771259784698486328125" lon="-2.3876339010894298553466796875">
        <ele>132.8000030517578125</ele>
        <time>2018-09-02T16:25:44.000Z</time>
      </trkpt>
      <trkpt lat="43.30146968364715576171875" lon="-2.38760632462799549102783203125">
        <ele>132.8000030517578125</ele>
        <time>2018-09-02T16:25:45.000Z</time>
      </trkpt>
      <trkpt lat="43.3014638163149356842041015625" lon="-2.38757883198559284210205078125">
        <ele>132.8000030517578125</ele>
        <time>2018-09-02T16:25:46.000Z</time>
      </trkpt>
      <trkpt lat="43.30145769752562046051025390625" lon="-2.38755251280963420867919921875">
        <ele>132.8000030517578125</ele>
        <time>2018-09-02T16:25:47.000Z</time>
      </trkpt>
      <trkpt lat="43.30145199783146381378173828125" lon="-2.38752585835754871368408203125">
        <ele>133</ele>
        <time>2018-09-02T16:25:48.000Z</time>
      </trkpt>
      <trkpt lat="43.30144545994699001312255859375" lon="-2.38749987445771694183349609375">
        <ele>133</ele>
        <time>2018-09-02T16:25:49.000Z</time>
      </trkpt>
      <trkpt lat="43.3014390058815479278564453125" lon="-2.38747523166239261627197265625">
        <ele>133</ele>
        <time>2018-09-02T16:25:50.000Z</time>
      </trkpt>
      <trkpt lat="43.301432467997074127197265625" lon="-2.3874505050480365753173828125">
        <ele>133</ele>
        <time>2018-09-02T16:25:51.000Z</time>
      </trkpt>
      <trkpt lat="43.30142668448388576507568359375" lon="-2.387425191700458526611328125">
        <ele>133.1999969482421875</ele>
        <time>2018-09-02T16:25:52.000Z</time>
      </trkpt>
      <trkpt lat="43.3014212362468242645263671875" lon="-2.38739912398159503936767578125">
        <ele>133.399993896484375</ele>
        <time>2018-09-02T16:25:53.000Z</time>
      </trkpt>
      <trkpt lat="43.30141562037169933319091796875" lon="-2.387373559176921844482421875">
        <ele>133.399993896484375</ele>
        <time>2018-09-02T16:25:54.000Z</time>
      </trkpt>
      <trkpt lat="43.30141075886785984039306640625" lon="-2.38734749145805835723876953125">
        <ele>133.600006103515625</ele>
        <time>2018-09-02T16:25:55.000Z</time>
      </trkpt>
      <trkpt lat="43.30140623264014720916748046875" lon="-2.3873207531869411468505859375">
        <ele>133.600006103515625</ele>
        <time>2018-09-02T16:25:56.000Z</time>
      </trkpt>
      <trkpt lat="43.301400952041149139404296875" lon="-2.38729351200163364410400390625">
        <ele>133.8000030517578125</ele>
        <time>2018-09-02T16:25:57.000Z</time>
      </trkpt>
      <trkpt lat="43.301395587623119354248046875" lon="-2.387266270816326141357421875">
        <ele>133.8000030517578125</ele>
        <time>2018-09-02T16:25:58.000Z</time>
      </trkpt>
      <trkpt lat="43.30139131285250186920166015625" lon="-2.387239448726177215576171875">
        <ele>134</ele>
        <time>2018-09-02T16:25:59.000Z</time>
      </trkpt>
      <trkpt lat="43.3013853617012500762939453125" lon="-2.38721405155956745147705078125">
        <ele>134.1999969482421875</ele>
        <time>2018-09-02T16:26:00.000Z</time>
      </trkpt>
      <trkpt lat="43.30138075165450572967529296875" lon="-2.3871876485645771026611328125">
        <ele>134.1999969482421875</ele>
        <time>2018-09-02T16:26:01.000Z</time>
      </trkpt>
      <trkpt lat="43.30137723125517368316650390625" lon="-2.3871611617505550384521484375">
        <ele>134.399993896484375</ele>
        <time>2018-09-02T16:26:02.000Z</time>
      </trkpt>
      <trkpt lat="43.3013732917606830596923828125" lon="-2.3871338367462158203125">
        <ele>134.399993896484375</ele>
        <time>2018-09-02T16:26:03.000Z</time>
      </trkpt>
      <trkpt lat="43.3013696037232875823974609375" lon="-2.38710491918027400970458984375">
        <ele>134.600006103515625</ele>
        <time>2018-09-02T16:26:04.000Z</time>
      </trkpt>
      <trkpt lat="43.30136616714298725128173828125" lon="-2.38707608543336391448974609375">
        <ele>134.8000030517578125</ele>
        <time>2018-09-02T16:26:05.000Z</time>
      </trkpt>
      <trkpt lat="43.3013602159917354583740234375" lon="-2.38704733550548553466796875">
        <ele>135</ele>
        <time>2018-09-02T16:26:06.000Z</time>
      </trkpt>
      <trkpt lat="43.30135367810726165771484375" lon="-2.3870193399488925933837890625">
        <ele>135.1999969482421875</ele>
        <time>2018-09-02T16:26:07.000Z</time>
      </trkpt>
      <trkpt lat="43.3013494871556758880615234375" lon="-2.3869921825826168060302734375">
        <ele>135.1999969482421875</ele>
        <time>2018-09-02T16:26:08.000Z</time>
      </trkpt>
      <trkpt lat="43.30134739167988300323486328125" lon="-2.38696393556892871856689453125">
        <ele>135.399993896484375</ele>
        <time>2018-09-02T16:26:09.000Z</time>
      </trkpt>
      <trkpt lat="43.3013478107750415802001953125" lon="-2.3869351856410503387451171875">
        <ele>135.600006103515625</ele>
        <time>2018-09-02T16:26:10.000Z</time>
      </trkpt>
      <trkpt lat="43.30134990625083446502685546875" lon="-2.3869066871702671051025390625">
        <ele>135.8000030517578125</ele>
        <time>2018-09-02T16:26:11.000Z</time>
      </trkpt>
      <trkpt lat="43.3013525046408176422119140625" lon="-2.38687827251851558685302734375">
        <ele>136.1999969482421875</ele>
        <time>2018-09-02T16:26:12.000Z</time>
      </trkpt>
      <trkpt lat="43.30135577358305454254150390625" lon="-2.38684960640966892242431640625">
        <ele>136.399993896484375</ele>
        <time>2018-09-02T16:26:13.000Z</time>
      </trkpt>
      <trkpt lat="43.3013595454394817352294921875" lon="-2.386821694672107696533203125">
        <ele>136.600006103515625</ele>
        <time>2018-09-02T16:26:14.000Z</time>
      </trkpt>
      <trkpt lat="43.3013652451336383819580078125" lon="-2.38679411821067333221435546875">
        <ele>136.8000030517578125</ele>
        <time>2018-09-02T16:26:15.000Z</time>
      </trkpt>
      <trkpt lat="43.30137270502746105194091796875" lon="-2.38676779903471469879150390625">
        <ele>137</ele>
        <time>2018-09-02T16:26:16.000Z</time>
      </trkpt>
      <trkpt lat="43.3013823442161083221435546875" lon="-2.386741898953914642333984375">
        <ele>137.399993896484375</ele>
        <time>2018-09-02T16:26:17.000Z</time>
      </trkpt>
      <trkpt lat="43.301392234861850738525390625" lon="-2.38671616651117801666259765625">
        <ele>137.600006103515625</ele>
        <time>2018-09-02T16:26:18.000Z</time>
      </trkpt>
      <trkpt lat="43.30140438862144947052001953125" lon="-2.3866911046206951141357421875">
        <ele>137.8000030517578125</ele>
        <time>2018-09-02T16:26:19.000Z</time>
      </trkpt>
      <trkpt lat="43.3014172129333019256591796875" lon="-2.38666704855859279632568359375">
        <ele>138</ele>
        <time>2018-09-02T16:26:20.000Z</time>
      </trkpt>
      <trkpt lat="43.3014307916164398193359375" lon="-2.3866455070674419403076171875">
        <ele>138.399993896484375</ele>
        <time>2018-09-02T16:26:21.000Z</time>
      </trkpt>
      <trkpt lat="43.301445879042148590087890625" lon="-2.38662597723305225372314453125">
        <ele>138.600006103515625</ele>
        <time>2018-09-02T16:26:22.000Z</time>
      </trkpt>
      <trkpt lat="43.30146205611526966094970703125" lon="-2.38660569302737712860107421875">
        <ele>139</ele>
        <time>2018-09-02T16:26:23.000Z</time>
      </trkpt>
      <trkpt lat="43.3014772273600101470947265625" lon="-2.3865838162600994110107421875">
        <ele>139.399993896484375</ele>
        <time>2018-09-02T16:26:24.000Z</time>
      </trkpt>
      <trkpt lat="43.30149239860475063323974609375" lon="-2.3865613527595996856689453125">
        <ele>139.8000030517578125</ele>
        <time>2018-09-02T16:26:25.000Z</time>
      </trkpt>
      <trkpt lat="43.30150815658271312713623046875" lon="-2.3865392245352268218994140625">
        <ele>140</ele>
        <time>2018-09-02T16:26:26.000Z</time>
      </trkpt>
      <trkpt lat="43.30152399837970733642578125" lon="-2.3865154199302196502685546875">
        <ele>140.399993896484375</ele>
        <time>2018-09-02T16:26:27.000Z</time>
      </trkpt>
      <trkpt lat="43.30153866671025753021240234375" lon="-2.3864906094968318939208984375">
        <ele>140.8000030517578125</ele>
        <time>2018-09-02T16:26:28.000Z</time>
      </trkpt>
      <trkpt lat="43.3015536703169345855712890625" lon="-2.386465631425380706787109375">
        <ele>141.1999969482421875</ele>
        <time>2018-09-02T16:26:29.000Z</time>
      </trkpt>
      <trkpt lat="43.301568925380706787109375" lon="-2.386442162096500396728515625">
        <ele>141.600006103515625</ele>
        <time>2018-09-02T16:26:30.000Z</time>
      </trkpt>
      <trkpt lat="43.301582671701908111572265625" lon="-2.3864191956818103790283203125">
        <ele>141.8000030517578125</ele>
        <time>2018-09-02T16:26:31.000Z</time>
      </trkpt>
      <trkpt lat="43.301594741642475128173828125" lon="-2.38639530725777149200439453125">
        <ele>142.1999969482421875</ele>
        <time>2018-09-02T16:26:32.000Z</time>
      </trkpt>
      <trkpt lat="43.301606811583042144775390625" lon="-2.38637083210051059722900390625">
        <ele>142.600006103515625</ele>
        <time>2018-09-02T16:26:33.000Z</time>
      </trkpt>
      <trkpt lat="43.301619552075862884521484375" lon="-2.38634786568582057952880859375">
        <ele>143</ele>
        <time>2018-09-02T16:26:34.000Z</time>
      </trkpt>
      <trkpt lat="43.30163287930190563201904296875" lon="-2.38632473163306713104248046875">
        <ele>143.1999969482421875</ele>
        <time>2018-09-02T16:26:35.000Z</time>
      </trkpt>
      <trkpt lat="43.30164293758571147918701171875" lon="-2.3862991668283939361572265625">
        <ele>143.600006103515625</ele>
        <time>2018-09-02T16:26:36.000Z</time>
      </trkpt>
      <trkpt lat="43.301649056375026702880859375" lon="-2.38627125509083271026611328125">
        <ele>144</ele>
        <time>2018-09-02T16:26:37.000Z</time>
      </trkpt>
      <trkpt lat="43.30165299586951732635498046875" lon="-2.38624208606779575347900390625">
        <ele>144.399993896484375</ele>
        <time>2018-09-02T16:26:38.000Z</time>
      </trkpt>
      <trkpt lat="43.30165517516434192657470703125" lon="-2.38621375523507595062255859375">
        <ele>144.600006103515625</ele>
        <time>2018-09-02T16:26:39.000Z</time>
      </trkpt>
      <trkpt lat="43.30165752209722995758056640625" lon="-2.38618559204041957855224609375">
        <ele>145</ele>
        <time>2018-09-02T16:26:40.000Z</time>
      </trkpt>
      <trkpt lat="43.30165785737335681915283203125" lon="-2.38615742884576320648193359375">
        <ele>145.1999969482421875</ele>
        <time>2018-09-02T16:26:41.000Z</time>
      </trkpt>
      <trkpt lat="43.30165542662143707275390625" lon="-2.38612993620336055755615234375">
        <ele>145.600006103515625</ele>
        <time>2018-09-02T16:26:42.000Z</time>
      </trkpt>
      <trkpt lat="43.301649391651153564453125" lon="-2.3861047066748142242431640625">
        <ele>145.8000030517578125</ele>
        <time>2018-09-02T16:26:43.000Z</time>
      </trkpt>
      <trkpt lat="43.3016431890428066253662109375" lon="-2.386080734431743621826171875">
        <ele>146</ele>
        <time>2018-09-02T16:26:44.000Z</time>
      </trkpt>
      <trkpt lat="43.30163757316768169403076171875" lon="-2.38605801947414875030517578125">
        <ele>146.1999969482421875</ele>
        <time>2018-09-02T16:26:45.000Z</time>
      </trkpt>
      <trkpt lat="43.30162952654063701629638671875" lon="-2.3860356397926807403564453125">
        <ele>146.399993896484375</ele>
        <time>2018-09-02T16:26:46.000Z</time>
      </trkpt>
      <trkpt lat="43.3016200549900531768798828125" lon="-2.38601527176797389984130859375">
        <ele>146.600006103515625</ele>
        <time>2018-09-02T16:26:47.000Z</time>
      </trkpt>
      <trkpt lat="43.30161117017269134521484375" lon="-2.3859952390193939208984375">
        <ele>146.8000030517578125</ele>
        <time>2018-09-02T16:26:48.000Z</time>
      </trkpt>
      <trkpt lat="43.30160270445048809051513671875" lon="-2.38597637973725795745849609375">
        <ele>147.399993896484375</ele>
        <time>2018-09-02T16:26:49.000Z</time>
      </trkpt>
      <trkpt lat="43.30159449018537998199462890625" lon="-2.3859576880931854248046875">
        <ele>148</ele>
        <time>2018-09-02T16:26:50.000Z</time>
      </trkpt>
      <trkpt lat="43.301586024463176727294921875" lon="-2.38593966700136661529541015625">
        <ele>148.399993896484375</ele>
        <time>2018-09-02T16:26:51.000Z</time>
      </trkpt>
      <trkpt lat="43.301577307283878326416015625" lon="-2.3859226517379283905029296875">
        <ele>149</ele>
        <time>2018-09-02T16:26:52.000Z</time>
      </trkpt>
      <trkpt lat="43.30156934447586536407470703125" lon="-2.3859065584838390350341796875">
        <ele>149.399993896484375</ele>
        <time>2018-09-02T16:26:53.000Z</time>
      </trkpt>
      <trkpt lat="43.3015617169439792633056640625" lon="-2.38589004613459110260009765625">
        <ele>150</ele>
        <time>2018-09-02T16:26:54.000Z</time>
      </trkpt>
      <trkpt lat="43.30155241303145885467529296875" lon="-2.38587462343275547027587890625">
        <ele>150.399993896484375</ele>
        <time>2018-09-02T16:26:55.000Z</time>
      </trkpt>
      <trkpt lat="43.30154185183346271514892578125" lon="-2.38586138002574443817138671875">
        <ele>151</ele>
        <time>2018-09-02T16:26:56.000Z</time>
      </trkpt>
      <trkpt lat="43.3015302009880542755126953125" lon="-2.38584981299936771392822265625">
        <ele>151.399993896484375</ele>
        <time>2018-09-02T16:26:57.000Z</time>
      </trkpt>
      <trkpt lat="43.30151771195232868194580078125" lon="-2.38583975471556186676025390625">
        <ele>151.600006103515625</ele>
        <time>2018-09-02T16:26:58.000Z</time>
      </trkpt>
      <trkpt lat="43.30150564201176166534423828125" lon="-2.3858294449746608734130859375">
        <ele>152</ele>
        <time>2018-09-02T16:26:59.000Z</time>
      </trkpt>
      <trkpt lat="43.30149474553763866424560546875" lon="-2.3858173750340938568115234375">
        <ele>152.399993896484375</ele>
        <time>2018-09-02T16:27:00.000Z</time>
      </trkpt>
      <trkpt lat="43.30148334614932537078857421875" lon="-2.38580605946481227874755859375">
        <ele>152.8000030517578125</ele>
        <time>2018-09-02T16:27:01.000Z</time>
      </trkpt>
      <trkpt lat="43.30147060565650463104248046875" lon="-2.38579809665679931640625">
        <ele>153</ele>
        <time>2018-09-02T16:27:02.000Z</time>
      </trkpt>
      <trkpt lat="43.30145870335400104522705078125" lon="-2.3857913911342620849609375">
        <ele>153.1999969482421875</ele>
        <time>2018-09-02T16:27:03.000Z</time>
      </trkpt>
      <trkpt lat="43.30144629813730716705322265625" lon="-2.385783009231090545654296875">
        <ele>153.399993896484375</ele>
        <time>2018-09-02T16:27:04.000Z</time>
      </trkpt>
      <trkpt lat="43.30143355764448642730712890625" lon="-2.38577471114695072174072265625">
        <ele>153.600006103515625</ele>
        <time>2018-09-02T16:27:05.000Z</time>
      </trkpt>
      <trkpt lat="43.30142098478972911834716796875" lon="-2.38576666451990604400634765625">
        <ele>153.600006103515625</ele>
        <time>2018-09-02T16:27:06.000Z</time>
      </trkpt>
      <trkpt lat="43.3014081604778766632080078125" lon="-2.38575912080705165863037109375">
        <ele>153.8000030517578125</ele>
        <time>2018-09-02T16:27:07.000Z</time>
      </trkpt>
      <trkpt lat="43.3013964258134365081787109375" lon="-2.3857509903609752655029296875">
        <ele>154</ele>
        <time>2018-09-02T16:27:08.000Z</time>
      </trkpt>
      <trkpt lat="43.3013853617012500762939453125" lon="-2.38574084825813770294189453125">
        <ele>154.1999969482421875</ele>
        <time>2018-09-02T16:27:09.000Z</time>
      </trkpt>
      <trkpt lat="43.301374129951000213623046875" lon="-2.3857275210320949554443359375">
        <ele>154.600006103515625</ele>
        <time>2018-09-02T16:27:10.000Z</time>
      </trkpt>
      <trkpt lat="43.30136231146752834320068359375" lon="-2.385715954005718231201171875">
        <ele>154.8000030517578125</ele>
        <time>2018-09-02T16:27:11.000Z</time>
      </trkpt>
      <trkpt lat="43.30134940333664417266845703125" lon="-2.38570648245513439178466796875">
        <ele>155</ele>
        <time>2018-09-02T16:27:12.000Z</time>
      </trkpt>
      <trkpt lat="43.30133632756769657135009765625" lon="-2.38569977693259716033935546875">
        <ele>155.1999969482421875</ele>
        <time>2018-09-02T16:27:13.000Z</time>
      </trkpt>
      <trkpt lat="43.30132241360843181610107421875" lon="-2.3856939934194087982177734375">
        <ele>155.399993896484375</ele>
        <time>2018-09-02T16:27:14.000Z</time>
      </trkpt>
      <trkpt lat="43.30130849964916706085205078125" lon="-2.385688461363315582275390625">
        <ele>155.399993896484375</ele>
        <time>2018-09-02T16:27:15.000Z</time>
      </trkpt>
      <trkpt lat="43.30129508860409259796142578125" lon="-2.38568167202174663543701171875">
        <ele>155.600006103515625</ele>
        <time>2018-09-02T16:27:16.000Z</time>
      </trkpt>
      <trkpt lat="43.3012820966541767120361328125" lon="-2.3856733739376068115234375">
        <ele>155.8000030517578125</ele>
        <time>2018-09-02T16:27:17.000Z</time>
      </trkpt>
      <trkpt lat="43.30126843415200710296630859375" lon="-2.38566490821540355682373046875">
        <ele>156</ele>
        <time>2018-09-02T16:27:18.000Z</time>
      </trkpt>
      <trkpt lat="43.30125418491661548614501953125" lon="-2.3856571130454540252685546875">
        <ele>156.1999969482421875</ele>
        <time>2018-09-02T16:27:19.000Z</time>
      </trkpt>
      <trkpt lat="43.30124094150960445404052734375" lon="-2.38564931787550449371337890625">
        <ele>156.399993896484375</ele>
        <time>2018-09-02T16:27:20.000Z</time>
      </trkpt>
      <trkpt lat="43.30122719518840312957763671875" lon="-2.385640852153301239013671875">
        <ele>156.600006103515625</ele>
        <time>2018-09-02T16:27:21.000Z</time>
      </trkpt>
      <trkpt lat="43.3012130297720432281494140625" lon="-2.38563205115497112274169921875">
        <ele>156.8000030517578125</ele>
        <time>2018-09-02T16:27:22.000Z</time>
      </trkpt>
      <trkpt lat="43.30119903199374675750732421875" lon="-2.38562266342341899871826171875">
        <ele>157.1999969482421875</ele>
        <time>2018-09-02T16:27:23.000Z</time>
      </trkpt>
      <trkpt lat="43.30118511803448200225830078125" lon="-2.38561377860605716705322265625">
        <ele>157.399993896484375</ele>
        <time>2018-09-02T16:27:24.000Z</time>
      </trkpt>
      <trkpt lat="43.30117053352296352386474609375" lon="-2.38560623489320278167724609375">
        <ele>157.600006103515625</ele>
        <time>2018-09-02T16:27:25.000Z</time>
      </trkpt>
      <trkpt lat="43.30115611664950847625732421875" lon="-2.38559936173260211944580078125">
        <ele>158</ele>
        <time>2018-09-02T16:27:26.000Z</time>
      </trkpt>
      <trkpt lat="43.30114237032830715179443359375" lon="-2.3855907283723354339599609375">
        <ele>158.600006103515625</ele>
        <time>2018-09-02T16:27:27.000Z</time>
      </trkpt>
      <trkpt lat="43.30112845636904239654541015625" lon="-2.38558175973594188690185546875">
        <ele>159.1999969482421875</ele>
        <time>2018-09-02T16:27:28.000Z</time>
      </trkpt>
      <trkpt lat="43.30111437477171421051025390625" lon="-2.385571785271167755126953125">
        <ele>159.8000030517578125</ele>
        <time>2018-09-02T16:27:29.000Z</time>
      </trkpt>
      <trkpt lat="43.30110012553632259368896484375" lon="-2.385561056435108184814453125">
        <ele>160.399993896484375</ele>
        <time>2018-09-02T16:27:30.000Z</time>
      </trkpt>
      <trkpt lat="43.30108621157705783843994140625" lon="-2.38554957322776317596435546875">
        <ele>161</ele>
        <time>2018-09-02T16:27:31.000Z</time>
      </trkpt>
      <trkpt lat="43.30107196234166622161865234375" lon="-2.3855401016771793365478515625">
        <ele>161.600006103515625</ele>
        <time>2018-09-02T16:27:32.000Z</time>
      </trkpt>
      <trkpt lat="43.30105754546821117401123046875" lon="-2.385531552135944366455078125">
        <ele>162</ele>
        <time>2018-09-02T16:27:33.000Z</time>
      </trkpt>
      <trkpt lat="43.30104245804250240325927734375" lon="-2.3855266906321048736572265625">
        <ele>162.600006103515625</ele>
        <time>2018-09-02T16:27:34.000Z</time>
      </trkpt>
      <trkpt lat="43.30102871172130107879638671875" lon="-2.38552308641374111175537109375">
        <ele>163</ele>
        <time>2018-09-02T16:27:35.000Z</time>
      </trkpt>
      <trkpt lat="43.30101647414267063140869140625" lon="-2.3855186440050601959228515625">
        <ele>163.399993896484375</ele>
        <time>2018-09-02T16:27:36.000Z</time>
      </trkpt>
      <trkpt lat="43.30100364983081817626953125" lon="-2.3855112679302692413330078125">
        <ele>163.8000030517578125</ele>
        <time>2018-09-02T16:27:37.000Z</time>
      </trkpt>
      <trkpt lat="43.30099149607121944427490234375" lon="-2.38550330512225627899169921875">
        <ele>164.1999969482421875</ele>
        <time>2018-09-02T16:27:38.000Z</time>
      </trkpt>
      <trkpt lat="43.30097808502614498138427734375" lon="-2.3854975216090679168701171875">
        <ele>164.8000030517578125</ele>
        <time>2018-09-02T16:27:39.000Z</time>
      </trkpt>
      <trkpt lat="43.30096350051462650299072265625" lon="-2.38549475558102130889892578125">
        <ele>165.1999969482421875</ele>
        <time>2018-09-02T16:27:40.000Z</time>
      </trkpt>
      <trkpt lat="43.30095025710761547088623046875" lon="-2.385494671761989593505859375">
        <ele>165.399993896484375</ele>
        <time>2018-09-02T16:27:41.000Z</time>
      </trkpt>
      <trkpt lat="43.3009377680718898773193359375" lon="-2.3854941688477993011474609375">
        <ele>165.600006103515625</ele>
        <time>2018-09-02T16:27:42.000Z</time>
      </trkpt>
      <trkpt lat="43.3009253628551959991455078125" lon="-2.3854909837245941162109375">
        <ele>166</ele>
        <time>2018-09-02T16:27:43.000Z</time>
      </trkpt>
      <trkpt lat="43.30091253854334354400634765625" lon="-2.385485284030437469482421875">
        <ele>166.399993896484375</ele>
        <time>2018-09-02T16:27:44.000Z</time>
      </trkpt>
      <trkpt lat="43.300898708403110504150390625" lon="-2.38547832705080509185791015625">
        <ele>167</ele>
        <time>2018-09-02T16:27:45.000Z</time>
      </trkpt>
      <trkpt lat="43.30088454298675060272216796875" lon="-2.385473549365997314453125">
        <ele>167.399993896484375</ele>
        <time>2018-09-02T16:27:46.000Z</time>
      </trkpt>
      <trkpt lat="43.30087046138942241668701171875" lon="-2.38547078333795070648193359375">
        <ele>167.8000030517578125</ele>
        <time>2018-09-02T16:27:47.000Z</time>
      </trkpt>
      <trkpt lat="43.30085688270628452301025390625" lon="-2.3854686878621578216552734375">
        <ele>168</ele>
        <time>2018-09-02T16:27:48.000Z</time>
      </trkpt>
      <trkpt lat="43.30084246583282947540283203125" lon="-2.3854673467576503753662109375">
        <ele>168.399993896484375</ele>
        <time>2018-09-02T16:27:49.000Z</time>
      </trkpt>
      <trkpt lat="43.3008271269500255584716796875" lon="-2.3854660056531429290771484375">
        <ele>168.8000030517578125</ele>
        <time>2018-09-02T16:27:50.000Z</time>
      </trkpt>
      <trkpt lat="43.3008120395243167877197265625" lon="-2.38546349108219146728515625">
        <ele>169.1999969482421875</ele>
        <time>2018-09-02T16:27:51.000Z</time>
      </trkpt>
      <trkpt lat="43.30079603008925914764404296875" lon="-2.38545854575932025909423828125">
        <ele>169.600006103515625</ele>
        <time>2018-09-02T16:27:52.000Z</time>
      </trkpt>
      <trkpt lat="43.300780020654201507568359375" lon="-2.38545502535998821258544921875">
        <ele>170</ele>
        <time>2018-09-02T16:27:53.000Z</time>
      </trkpt>
      <trkpt lat="43.300765268504619598388671875" lon="-2.38545184023678302764892578125">
        <ele>170.399993896484375</ele>
        <time>2018-09-02T16:27:54.000Z</time>
      </trkpt>
      <trkpt lat="43.30075085163116455078125" lon="-2.3854468949139118194580078125">
        <ele>171</ele>
        <time>2018-09-02T16:27:55.000Z</time>
      </trkpt>
      <trkpt lat="43.30073668621480464935302734375" lon="-2.38544362597167491912841796875">
        <ele>171.1999969482421875</ele>
        <time>2018-09-02T16:27:56.000Z</time>
      </trkpt>
      <trkpt lat="43.30072470009326934814453125" lon="-2.38544379360973834991455078125">
        <ele>171.600006103515625</ele>
        <time>2018-09-02T16:27:57.000Z</time>
      </trkpt>
      <trkpt lat="43.30071120522916316986083984375" lon="-2.38544563762843608856201171875">
        <ele>171.8000030517578125</ele>
        <time>2018-09-02T16:27:58.000Z</time>
      </trkpt>
      <trkpt lat="43.300696872174739837646484375" lon="-2.38544463180005550384521484375">
        <ele>172.1999969482421875</ele>
        <time>2018-09-02T16:27:59.000Z</time>
      </trkpt>
      <trkpt lat="43.30068035982549190521240234375" lon="-2.3854425363242626190185546875">
        <ele>172.600006103515625</ele>
        <time>2018-09-02T16:28:00.000Z</time>
      </trkpt>
      <trkpt lat="43.30066309310495853424072265625" lon="-2.3854411952197551727294921875">
        <ele>173</ele>
        <time>2018-09-02T16:28:01.000Z</time>
      </trkpt>
      <trkpt lat="43.30064565874636173248291015625" lon="-2.385441698133945465087890625">
        <ele>173.399993896484375</ele>
        <time>2018-09-02T16:28:02.000Z</time>
      </trkpt>
      <trkpt lat="43.3006273023784160614013671875" lon="-2.38544111140072345733642578125">
        <ele>173.8000030517578125</ele>
        <time>2018-09-02T16:28:03.000Z</time>
      </trkpt>
      <trkpt lat="43.3006102032959461212158203125" lon="-2.38544228486716747283935546875">
        <ele>174</ele>
        <time>2018-09-02T16:28:04.000Z</time>
      </trkpt>
      <trkpt lat="43.3005947805941104888916015625" lon="-2.3854465596377849578857421875">
        <ele>174.1999969482421875</ele>
        <time>2018-09-02T16:28:05.000Z</time>
      </trkpt>
      <trkpt lat="43.30057675950229167938232421875" lon="-2.3854542709887027740478515625">
        <ele>174.399993896484375</ele>
        <time>2018-09-02T16:28:06.000Z</time>
      </trkpt>
      <trkpt lat="43.30055882222950458526611328125" lon="-2.3854680173099040985107421875">
        <ele>174.600006103515625</ele>
        <time>2018-09-02T16:28:07.000Z</time>
      </trkpt>
      <trkpt lat="43.3005429804325103759765625" lon="-2.38548553548753261566162109375">
        <ele>174.399993896484375</ele>
        <time>2018-09-02T16:28:08.000Z</time>
      </trkpt>
      <trkpt lat="43.30052898265421390533447265625" lon="-2.385506741702556610107421875">
        <ele>174.1999969482421875</ele>
        <time>2018-09-02T16:28:09.000Z</time>
      </trkpt>
      <trkpt lat="43.300515823066234588623046875" lon="-2.38552794791758060455322265625">
        <ele>174</ele>
        <time>2018-09-02T16:28:10.000Z</time>
      </trkpt>
      <trkpt lat="43.30050073564052581787109375" lon="-2.38554798066616058349609375">
        <ele>173.8000030517578125</ele>
        <time>2018-09-02T16:28:11.000Z</time>
      </trkpt>
      <trkpt lat="43.30048858188092708587646484375" lon="-2.3855679295957088470458984375">
        <ele>173.600006103515625</ele>
        <time>2018-09-02T16:28:12.000Z</time>
      </trkpt>
      <trkpt lat="43.30047927796840667724609375" lon="-2.385589890182018280029296875">
        <ele>173.1999969482421875</ele>
        <time>2018-09-02T16:28:13.000Z</time>
      </trkpt>
      <trkpt lat="43.30047131516039371490478515625" lon="-2.38560833036899566650390625">
        <ele>172.8000030517578125</ele>
        <time>2018-09-02T16:28:14.000Z</time>
      </trkpt>
      <trkpt lat="43.30045572482049465179443359375" lon="-2.3856296204030513763427734375">
        <ele>172.600006103515625</ele>
        <time>2018-09-02T16:28:15.000Z</time>
      </trkpt>
      <trkpt lat="43.30044030211865901947021484375" lon="-2.38565258681774139404296875">
        <ele>172.399993896484375</ele>
        <time>2018-09-02T16:28:16.000Z</time>
      </trkpt>
      <trkpt lat="43.30042605288326740264892578125" lon="-2.38567563705146312713623046875">
        <ele>172.1999969482421875</ele>
        <time>2018-09-02T16:28:17.000Z</time>
      </trkpt>
      <trkpt lat="43.3004154078662395477294921875" lon="-2.385698519647121429443359375">
        <ele>171.8000030517578125</ele>
        <time>2018-09-02T16:28:18.000Z</time>
      </trkpt>
      <trkpt lat="43.30040593631565570831298828125" lon="-2.3857221566140651702880859375">
        <ele>171.399993896484375</ele>
        <time>2018-09-02T16:28:19.000Z</time>
      </trkpt>
      <trkpt lat="43.3003959618508815765380859375" lon="-2.385747134685516357421875">
        <ele>171</ele>
        <time>2018-09-02T16:28:20.000Z</time>
      </trkpt>
      <trkpt lat="43.30038598738610744476318359375" lon="-2.385773956775665283203125">
        <ele>170.600006103515625</ele>
        <time>2018-09-02T16:28:21.000Z</time>
      </trkpt>
      <trkpt lat="43.30037576146423816680908203125" lon="-2.385803125798702239990234375">
        <ele>170</ele>
        <time>2018-09-02T16:28:22.000Z</time>
      </trkpt>
      <trkpt lat="43.3003671281039714813232421875" lon="-2.38583288155496120452880859375">
        <ele>169.1999969482421875</ele>
        <time>2018-09-02T16:28:23.000Z</time>
      </trkpt>
      <trkpt lat="43.30035723745822906494140625" lon="-2.385859452188014984130859375">
        <ele>168.399993896484375</ele>
        <time>2018-09-02T16:28:24.000Z</time>
      </trkpt>
      <trkpt lat="43.30034592188894748687744140625" lon="-2.3858864419162273406982421875">
        <ele>167.600006103515625</ele>
        <time>2018-09-02T16:28:25.000Z</time>
      </trkpt>
      <trkpt lat="43.3003325946629047393798828125" lon="-2.3859120905399322509765625">
        <ele>166.8000030517578125</ele>
        <time>2018-09-02T16:28:26.000Z</time>
      </trkpt>
      <trkpt lat="43.30031968653202056884765625" lon="-2.3859390802681446075439453125">
        <ele>166</ele>
        <time>2018-09-02T16:28:27.000Z</time>
      </trkpt>
      <trkpt lat="43.30030535347759723663330078125" lon="-2.385963387787342071533203125">
        <ele>165.399993896484375</ele>
        <time>2018-09-02T16:28:28.000Z</time>
      </trkpt>
      <trkpt lat="43.300292193889617919921875" lon="-2.38598375581204891204833984375">
        <ele>164.8000030517578125</ele>
        <time>2018-09-02T16:28:29.000Z</time>
      </trkpt>
      <trkpt lat="43.30027551390230655670166015625" lon="-2.38599993288516998291015625">
        <ele>164.600006103515625</ele>
        <time>2018-09-02T16:28:30.000Z</time>
      </trkpt>
      <trkpt lat="43.30025975592434406280517578125" lon="-2.38601468503475189208984375">
        <ele>164.399993896484375</ele>
        <time>2018-09-02T16:28:31.000Z</time>
      </trkpt>
      <trkpt lat="43.30024324357509613037109375" lon="-2.38602700643241405487060546875">
        <ele>164.1999969482421875</ele>
        <time>2018-09-02T16:28:32.000Z</time>
      </trkpt>
      <trkpt lat="43.300226815044879913330078125" lon="-2.386037819087505340576171875">
        <ele>164.1999969482421875</ele>
        <time>2018-09-02T16:28:33.000Z</time>
      </trkpt>
      <trkpt lat="43.30020912922918796539306640625" lon="-2.386045865714550018310546875">
        <ele>164.1999969482421875</ele>
        <time>2018-09-02T16:28:34.000Z</time>
      </trkpt>
      <trkpt lat="43.30019203014671802520751953125" lon="-2.38605399616062641143798828125">
        <ele>164.1999969482421875</ele>
        <time>2018-09-02T16:28:35.000Z</time>
      </trkpt>
      <trkpt lat="43.3001750148832798004150390625" lon="-2.386062629520893096923828125">
        <ele>164.1999969482421875</ele>
        <time>2018-09-02T16:28:36.000Z</time>
      </trkpt>
      <trkpt lat="43.30015799961984157562255859375" lon="-2.386071346700191497802734375">
        <ele>164.1999969482421875</ele>
        <time>2018-09-02T16:28:37.000Z</time>
      </trkpt>
      <trkpt lat="43.30014291219413280487060546875" lon="-2.3860795609652996063232421875">
        <ele>164.1999969482421875</ele>
        <time>2018-09-02T16:28:38.000Z</time>
      </trkpt>
      <trkpt lat="43.30012832768261432647705078125" lon="-2.38608400337398052215576171875">
        <ele>164.1999969482421875</ele>
        <time>2018-09-02T16:28:39.000Z</time>
      </trkpt>
      <trkpt lat="43.300115503370761871337890625" lon="-2.3860869370400905609130859375">
        <ele>164</ele>
        <time>2018-09-02T16:28:40.000Z</time>
      </trkpt>
      <trkpt lat="43.30010016448795795440673828125" lon="-2.38608718849718570709228515625">
        <ele>163.600006103515625</ele>
        <time>2018-09-02T16:28:41.000Z</time>
      </trkpt>
      <trkpt lat="43.30008574761450290679931640625" lon="-2.38608333282172679901123046875">
        <ele>163.600006103515625</ele>
        <time>2018-09-02T16:28:42.000Z</time>
      </trkpt>
      <trkpt lat="43.30007015727460384368896484375" lon="-2.38607880659401416778564453125">
        <ele>163.600006103515625</ele>
        <time>2018-09-02T16:28:43.000Z</time>
      </trkpt>
      <trkpt lat="43.30005439929664134979248046875" lon="-2.38607411272823810577392578125">
        <ele>163.600006103515625</ele>
        <time>2018-09-02T16:28:44.000Z</time>
      </trkpt>
      <trkpt lat="43.3000387251377105712890625" lon="-2.3860715143382549285888671875">
        <ele>163.399993896484375</ele>
        <time>2018-09-02T16:28:45.000Z</time>
      </trkpt>
      <trkpt lat="43.30002657137811183929443359375" lon="-2.38607101142406463623046875">
        <ele>163.1999969482421875</ele>
        <time>2018-09-02T16:28:46.000Z</time>
      </trkpt>
      <trkpt lat="43.30001668073236942291259765625" lon="-2.38606673665344715118408203125">
        <ele>163.1999969482421875</ele>
        <time>2018-09-02T16:28:47.000Z</time>
      </trkpt>
      <trkpt lat="43.30000410787761211395263671875" lon="-2.38606422208249568939208984375">
        <ele>163.1999969482421875</ele>
        <time>2018-09-02T16:28:48.000Z</time>
      </trkpt>
      <trkpt lat="43.29999472014605998992919921875" lon="-2.38606506027281284332275390625">
        <ele>163</ele>
        <time>2018-09-02T16:28:49.000Z</time>
      </trkpt>
      <trkpt lat="43.29998441040515899658203125" lon="-2.38606405444443225860595703125">
        <ele>163</ele>
        <time>2018-09-02T16:28:50.000Z</time>
      </trkpt>
      <trkpt lat="43.29997192136943340301513671875" lon="-2.38606170751154422760009765625">
        <ele>162.8000030517578125</ele>
        <time>2018-09-02T16:28:51.000Z</time>
      </trkpt>
      <trkpt lat="43.2999601028859615325927734375" lon="-2.38605852238833904266357421875">
        <ele>162.8000030517578125</ele>
        <time>2018-09-02T16:28:52.000Z</time>
      </trkpt>
      <trkpt lat="43.29994895495474338531494140625" lon="-2.386053912341594696044921875">
        <ele>162.8000030517578125</ele>
        <time>2018-09-02T16:28:53.000Z</time>
      </trkpt>
      <trkpt lat="43.29993587918579578399658203125" lon="-2.3860483802855014801025390625">
        <ele>162.8000030517578125</ele>
        <time>2018-09-02T16:28:54.000Z</time>
      </trkpt>
      <trkpt lat="43.29992271959781646728515625" lon="-2.3860433511435985565185546875">
        <ele>162.8000030517578125</ele>
        <time>2018-09-02T16:28:55.000Z</time>
      </trkpt>
      <trkpt lat="43.29990821890532970428466796875" lon="-2.38603706471621990203857421875">
        <ele>163</ele>
        <time>2018-09-02T16:28:56.000Z</time>
      </trkpt>
      <trkpt lat="43.29989723861217498779296875" lon="-2.38603304140269756317138671875">
        <ele>163</ele>
        <time>2018-09-02T16:28:57.000Z</time>
      </trkpt>
      <trkpt lat="43.29988542012870311737060546875" lon="-2.386025749146938323974609375">
        <ele>163.1999969482421875</ele>
        <time>2018-09-02T16:28:58.000Z</time>
      </trkpt>
      <trkpt lat="43.2998732663691043853759765625" lon="-2.386016361415386199951171875">
        <ele>163.600006103515625</ele>
        <time>2018-09-02T16:28:59.000Z</time>
      </trkpt>
      <trkpt lat="43.29986102879047393798828125" lon="-2.38600638695061206817626953125">
        <ele>163.8000030517578125</ele>
        <time>2018-09-02T16:29:00.000Z</time>
      </trkpt>
      <trkpt lat="43.29985029995441436767578125" lon="-2.38599632866680622100830078125">
        <ele>164.1999969482421875</ele>
        <time>2018-09-02T16:29:01.000Z</time>
      </trkpt>
      <trkpt lat="43.29984116367995738983154296875" lon="-2.38598920404911041259765625">
        <ele>164.399993896484375</ele>
        <time>2018-09-02T16:29:02.000Z</time>
      </trkpt>
      <trkpt lat="43.299828507006168365478515625" lon="-2.3859809897840023040771484375">
        <ele>164.600006103515625</ele>
        <time>2018-09-02T16:29:03.000Z</time>
      </trkpt>
      <trkpt lat="43.29981450922787189483642578125" lon="-2.385972104966640472412109375">
        <ele>165</ele>
        <time>2018-09-02T16:29:04.000Z</time>
      </trkpt>
      <trkpt lat="43.2998011820018291473388671875" lon="-2.3859655670821666717529296875">
        <ele>165</ele>
        <time>2018-09-02T16:29:05.000Z</time>
      </trkpt>
      <trkpt lat="43.29978701658546924591064453125" lon="-2.38595877774059772491455078125">
        <ele>165.1999969482421875</ele>
        <time>2018-09-02T16:29:06.000Z</time>
      </trkpt>
      <trkpt lat="43.2997746951878070831298828125" lon="-2.38594989292323589324951171875">
        <ele>165.600006103515625</ele>
        <time>2018-09-02T16:29:07.000Z</time>
      </trkpt>
      <trkpt lat="43.299762122333049774169921875" lon="-2.38593882881104946136474609375">
        <ele>165.8000030517578125</ele>
        <time>2018-09-02T16:29:08.000Z</time>
      </trkpt>
      <trkpt lat="43.299749381840229034423828125" lon="-2.385927848517894744873046875">
        <ele>166.1999969482421875</ele>
        <time>2018-09-02T16:29:09.000Z</time>
      </trkpt>
      <trkpt lat="43.2997354678809642791748046875" lon="-2.385921813547611236572265625">
        <ele>166.399993896484375</ele>
        <time>2018-09-02T16:29:10.000Z</time>
      </trkpt>
      <trkpt lat="43.299718536436557769775390625" lon="-2.38591619767248630523681640625">
        <ele>166.399993896484375</ele>
        <time>2018-09-02T16:29:11.000Z</time>
      </trkpt>
      <trkpt lat="43.29970085062086582183837890625" lon="-2.3859102465212345123291015625">
        <ele>166.600006103515625</ele>
        <time>2018-09-02T16:29:12.000Z</time>
      </trkpt>
      <trkpt lat="43.29968475736677646636962890625" lon="-2.38590463064610958099365234375">
        <ele>166.600006103515625</ele>
        <time>2018-09-02T16:29:13.000Z</time>
      </trkpt>
      <trkpt lat="43.29966925084590911865234375" lon="-2.3858988471329212188720703125">
        <ele>166.8000030517578125</ele>
        <time>2018-09-02T16:29:14.000Z</time>
      </trkpt>
      <trkpt lat="43.29965558834373950958251953125" lon="-2.385890968143939971923828125">
        <ele>167</ele>
        <time>2018-09-02T16:29:15.000Z</time>
      </trkpt>
      <trkpt lat="43.29964150674641132354736328125" lon="-2.38588468171656131744384765625">
        <ele>167.1999969482421875</ele>
        <time>2018-09-02T16:29:16.000Z</time>
      </trkpt>
      <trkpt lat="43.29962507821619510650634765625" lon="-2.3858787305653095245361328125">
        <ele>167.1999969482421875</ele>
        <time>2018-09-02T16:29:17.000Z</time>
      </trkpt>
      <trkpt lat="43.29961015842854976654052734375" lon="-2.3858718574047088623046875">
        <ele>167.399993896484375</ele>
        <time>2018-09-02T16:29:18.000Z</time>
      </trkpt>
      <trkpt lat="43.299595154821872711181640625" lon="-2.3858639784157276153564453125">
        <ele>167.600006103515625</ele>
        <time>2018-09-02T16:29:19.000Z</time>
      </trkpt>
      <trkpt lat="43.29957948066294193267822265625" lon="-2.3858552612364292144775390625">
        <ele>167.8000030517578125</ele>
        <time>2018-09-02T16:29:20.000Z</time>
      </trkpt>
      <trkpt lat="43.2995638065040111541748046875" lon="-2.38584595732390880584716796875">
        <ele>168.1999969482421875</ele>
        <time>2018-09-02T16:29:21.000Z</time>
      </trkpt>
      <trkpt lat="43.2995500601828098297119140625" lon="-2.38583958707749843597412109375">
        <ele>168.1999969482421875</ele>
        <time>2018-09-02T16:29:22.000Z</time>
      </trkpt>
      <trkpt lat="43.29953606240451335906982421875" lon="-2.3858334682881832122802734375">
        <ele>168.399993896484375</ele>
        <time>2018-09-02T16:29:23.000Z</time>
      </trkpt>
      <trkpt lat="43.29952466301620006561279296875" lon="-2.38582366146147251129150390625">
        <ele>168.8000030517578125</ele>
        <time>2018-09-02T16:29:24.000Z</time>
      </trkpt>
      <trkpt lat="43.299512006342411041259765625" lon="-2.3858170397579669952392578125">
        <ele>168.8000030517578125</ele>
        <time>2018-09-02T16:29:25.000Z</time>
      </trkpt>
      <trkpt lat="43.2994994334876537322998046875" lon="-2.38581242971122264862060546875">
        <ele>169</ele>
        <time>2018-09-02T16:29:26.000Z</time>
      </trkpt>
      <trkpt lat="43.29948660917580127716064453125" lon="-2.3858073167502880096435546875">
        <ele>169</ele>
        <time>2018-09-02T16:29:27.000Z</time>
      </trkpt>
      <trkpt lat="43.29947370104491710662841796875" lon="-2.3857962526381015777587890625">
        <ele>169.1999969482421875</ele>
        <time>2018-09-02T16:29:28.000Z</time>
      </trkpt>
      <trkpt lat="43.299460709095001220703125" lon="-2.38578292541205883026123046875">
        <ele>169.399993896484375</ele>
        <time>2018-09-02T16:29:29.000Z</time>
      </trkpt>
      <trkpt lat="43.29944805242121219635009765625" lon="-2.38576867617666721343994140625">
        <ele>169.600006103515625</ele>
        <time>2018-09-02T16:29:30.000Z</time>
      </trkpt>
      <trkpt lat="43.29943514429032802581787109375" lon="-2.38575677387416362762451171875">
        <ele>169.8000030517578125</ele>
        <time>2018-09-02T16:29:31.000Z</time>
      </trkpt>
      <trkpt lat="43.29942047595977783203125" lon="-2.38574688322842121124267578125">
        <ele>169.8000030517578125</ele>
        <time>2018-09-02T16:29:32.000Z</time>
      </trkpt>
      <trkpt lat="43.29940563999116420745849609375" lon="-2.3857382498681545257568359375">
        <ele>170</ele>
        <time>2018-09-02T16:29:33.000Z</time>
      </trkpt>
      <trkpt lat="43.2993918098509311676025390625" lon="-2.385730706155300140380859375">
        <ele>170</ele>
        <time>2018-09-02T16:29:34.000Z</time>
      </trkpt>
      <trkpt lat="43.2993783988058567047119140625" lon="-2.38572634756565093994140625">
        <ele>170</ele>
        <time>2018-09-02T16:29:35.000Z</time>
      </trkpt>
      <trkpt lat="43.29936683177947998046875" lon="-2.38571922294795513153076171875">
        <ele>170.399993896484375</ele>
        <time>2018-09-02T16:29:36.000Z</time>
      </trkpt>
      <trkpt lat="43.29935685731470584869384765625" lon="-2.38571352325379848480224609375">
        <ele>170.600006103515625</ele>
        <time>2018-09-02T16:29:37.000Z</time>
      </trkpt>
      <trkpt lat="43.29934277571737766265869140625" lon="-2.3857097513973712921142578125">
        <ele>171</ele>
        <time>2018-09-02T16:29:38.000Z</time>
      </trkpt>
      <trkpt lat="43.299326263368129730224609375" lon="-2.3857050575315952301025390625">
        <ele>171.1999969482421875</ele>
        <time>2018-09-02T16:29:39.000Z</time>
      </trkpt>
      <trkpt lat="43.29931410960853099822998046875" lon="-2.3856983520090579986572265625">
        <ele>171.600006103515625</ele>
        <time>2018-09-02T16:29:40.000Z</time>
      </trkpt>
      <trkpt lat="43.29930321313440799713134765625" lon="-2.38569474779069423675537109375">
        <ele>171.600006103515625</ele>
        <time>2018-09-02T16:29:41.000Z</time>
      </trkpt>
      <trkpt lat="43.29928879626095294952392578125" lon="-2.385691143572330474853515625">
        <ele>171.600006103515625</ele>
        <time>2018-09-02T16:29:42.000Z</time>
      </trkpt>
      <trkpt lat="43.299269936978816986083984375" lon="-2.3856832645833492279052734375">
        <ele>171.600006103515625</ele>
        <time>2018-09-02T16:29:43.000Z</time>
      </trkpt>
      <trkpt lat="43.2992506586015224456787109375" lon="-2.38567345775663852691650390625">
        <ele>171.8000030517578125</ele>
        <time>2018-09-02T16:29:44.000Z</time>
      </trkpt>
      <trkpt lat="43.29923196695744991302490234375" lon="-2.38566407002508640289306640625">
        <ele>171.8000030517578125</ele>
        <time>2018-09-02T16:29:45.000Z</time>
      </trkpt>
      <trkpt lat="43.2992157898843288421630859375" lon="-2.3856544308364391326904296875">
        <ele>171.8000030517578125</ele>
        <time>2018-09-02T16:29:46.000Z</time>
      </trkpt>
      <trkpt lat="43.29920120537281036376953125" lon="-2.3856457136571407318115234375">
        <ele>172</ele>
        <time>2018-09-02T16:29:47.000Z</time>
      </trkpt>
      <trkpt lat="43.29918913543224334716796875" lon="-2.385634146630764007568359375">
        <ele>172.1999969482421875</ele>
        <time>2018-09-02T16:29:48.000Z</time>
      </trkpt>
      <trkpt lat="43.2991750538349151611328125" lon="-2.385620065033435821533203125">
        <ele>172.600006103515625</ele>
        <time>2018-09-02T16:29:49.000Z</time>
      </trkpt>
      <trkpt lat="43.29916189424693584442138671875" lon="-2.3856074921786785125732421875">
        <ele>172.8000030517578125</ele>
        <time>2018-09-02T16:29:50.000Z</time>
      </trkpt>
      <trkpt lat="43.2991507463157176971435546875" lon="-2.385595254600048065185546875">
        <ele>173.1999969482421875</ele>
        <time>2018-09-02T16:29:51.000Z</time>
      </trkpt>
      <trkpt lat="43.29913817346096038818359375" lon="-2.385583184659481048583984375">
        <ele>173.399993896484375</ele>
        <time>2018-09-02T16:29:52.000Z</time>
      </trkpt>
      <trkpt lat="43.2991254329681396484375" lon="-2.3855716176331043243408203125">
        <ele>173.600006103515625</ele>
        <time>2018-09-02T16:29:53.000Z</time>
      </trkpt>
      <trkpt lat="43.29911042936146259307861328125" lon="-2.38556046970188617706298828125">
        <ele>173.8000030517578125</ele>
        <time>2018-09-02T16:29:54.000Z</time>
      </trkpt>
      <trkpt lat="43.2990944199264049530029296875" lon="-2.38554974086582660675048828125">
        <ele>174</ele>
        <time>2018-09-02T16:29:55.000Z</time>
      </trkpt>
      <trkpt lat="43.29907916486263275146484375" lon="-2.38553834147751331329345703125">
        <ele>174.1999969482421875</ele>
        <time>2018-09-02T16:29:56.000Z</time>
      </trkpt>
      <trkpt lat="43.2990649156272411346435546875" lon="-2.38552560098469257354736328125">
        <ele>174.399993896484375</ele>
        <time>2018-09-02T16:29:57.000Z</time>
      </trkpt>
      <trkpt lat="43.299049995839595794677734375" lon="-2.3855112679302692413330078125">
        <ele>174.8000030517578125</ele>
        <time>2018-09-02T16:29:58.000Z</time>
      </trkpt>
      <trkpt lat="43.29903599806129932403564453125" lon="-2.38549911417067050933837890625">
        <ele>175</ele>
        <time>2018-09-02T16:29:59.000Z</time>
      </trkpt>
      <trkpt lat="43.2990221679210662841796875" lon="-2.385489307343959808349609375">
        <ele>175.1999969482421875</ele>
        <time>2018-09-02T16:30:00.000Z</time>
      </trkpt>
      <trkpt lat="43.29901018179953098297119140625" lon="-2.38548033870756626129150390625">
        <ele>175.399993896484375</ele>
        <time>2018-09-02T16:30:01.000Z</time>
      </trkpt>
      <trkpt lat="43.29899995587766170501708984375" lon="-2.3854656703770160675048828125">
        <ele>175.8000030517578125</ele>
        <time>2018-09-02T16:30:02.000Z</time>
      </trkpt>
      <trkpt lat="43.29899333417415618896484375" lon="-2.3854485712945461273193359375">
        <ele>176.399993896484375</ele>
        <time>2018-09-02T16:30:03.000Z</time>
      </trkpt>
      <trkpt lat="43.29898436553776264190673828125" lon="-2.3854344896972179412841796875">
        <ele>176.8000030517578125</ele>
        <time>2018-09-02T16:30:04.000Z</time>
      </trkpt>
      <trkpt lat="43.29897246323525905609130859375" lon="-2.38542258739471435546875">
        <ele>177</ele>
        <time>2018-09-02T16:30:05.000Z</time>
      </trkpt>
      <trkpt lat="43.29896039329469203948974609375" lon="-2.38541043363511562347412109375">
        <ele>177.1999969482421875</ele>
        <time>2018-09-02T16:30:06.000Z</time>
      </trkpt>
      <trkpt lat="43.298953436315059661865234375" lon="-2.3853949271142482757568359375">
        <ele>177.8000030517578125</ele>
        <time>2018-09-02T16:30:07.000Z</time>
      </trkpt>
      <trkpt lat="43.29894899390637874603271484375" lon="-2.3853835277259349822998046875">
        <ele>178.1999969482421875</ele>
        <time>2018-09-02T16:30:08.000Z</time>
      </trkpt>
      <trkpt lat="43.298938013613224029541015625" lon="-2.38537288270890712738037109375">
        <ele>178.399993896484375</ele>
        <time>2018-09-02T16:30:09.000Z</time>
      </trkpt>
      <trkpt lat="43.29892896115779876708984375" lon="-2.38535997457802295684814453125">
        <ele>178.8000030517578125</ele>
        <time>2018-09-02T16:30:10.000Z</time>
      </trkpt>
      <trkpt lat="43.2989200763404369354248046875" lon="-2.3853469826281070709228515625">
        <ele>179</ele>
        <time>2018-09-02T16:30:11.000Z</time>
      </trkpt>
      <trkpt lat="43.2989121973514556884765625" lon="-2.38533474504947662353515625">
        <ele>179.1999969482421875</ele>
        <time>2018-09-02T16:30:12.000Z</time>
      </trkpt>
      <trkpt lat="43.2989009656012058258056640625" lon="-2.38532057963311672210693359375">
        <ele>179.399993896484375</ele>
        <time>2018-09-02T16:30:13.000Z</time>
      </trkpt>
      <trkpt lat="43.29888830892741680145263671875" lon="-2.3853070847690105438232421875">
        <ele>179.399993896484375</ele>
        <time>2018-09-02T16:30:14.000Z</time>
      </trkpt>
      <trkpt lat="43.29887942411005496978759765625" lon="-2.38529493100941181182861328125">
        <ele>179.600006103515625</ele>
        <time>2018-09-02T16:30:15.000Z</time>
      </trkpt>
      <trkpt lat="43.298871628940105438232421875" lon="-2.38528252579271793365478515625">
        <ele>179.8000030517578125</ele>
        <time>2018-09-02T16:30:16.000Z</time>
      </trkpt>
      <trkpt lat="43.2988627441227436065673828125" lon="-2.38526777364313602447509765625">
        <ele>180</ele>
        <time>2018-09-02T16:30:17.000Z</time>
      </trkpt>
      <trkpt lat="43.2988558709621429443359375" lon="-2.3852520994842052459716796875">
        <ele>180.399993896484375</ele>
        <time>2018-09-02T16:30:18.000Z</time>
      </trkpt>
      <trkpt lat="43.298848830163478851318359375" lon="-2.38523474894464015960693359375">
        <ele>180.600006103515625</ele>
        <time>2018-09-02T16:30:19.000Z</time>
      </trkpt>
      <trkpt lat="43.2988406158983707427978515625" lon="-2.38521547056734561920166015625">
        <ele>181</ele>
        <time>2018-09-02T16:30:20.000Z</time>
      </trkpt>
      <trkpt lat="43.29883164726197719573974609375" lon="-2.3851964436471462249755859375">
        <ele>181.399993896484375</ele>
        <time>2018-09-02T16:30:21.000Z</time>
      </trkpt>
      <trkpt lat="43.29882293008267879486083984375" lon="-2.38517741672694683074951171875">
        <ele>181.8000030517578125</ele>
        <time>2018-09-02T16:30:22.000Z</time>
      </trkpt>
      <trkpt lat="43.29881362617015838623046875" lon="-2.385158054530620574951171875">
        <ele>182.1999969482421875</ele>
        <time>2018-09-02T16:30:23.000Z</time>
      </trkpt>
      <trkpt lat="43.2988050766289234161376953125" lon="-2.38513668067753314971923828125">
        <ele>182.600006103515625</ele>
        <time>2018-09-02T16:30:24.000Z</time>
      </trkpt>
      <trkpt lat="43.2987977005541324615478515625" lon="-2.3851156421005725860595703125">
        <ele>183.1999969482421875</ele>
        <time>2018-09-02T16:30:25.000Z</time>
      </trkpt>
      <trkpt lat="43.29879091121256351470947265625" lon="-2.3850961960852146148681640625">
        <ele>183.600006103515625</ele>
        <time>2018-09-02T16:30:26.000Z</time>
      </trkpt>
      <trkpt lat="43.29878236167132854461669921875" lon="-2.3850797675549983978271484375">
        <ele>183.8000030517578125</ele>
        <time>2018-09-02T16:30:27.000Z</time>
      </trkpt>
      <trkpt lat="43.2987752370536327362060546875" lon="-2.3850618302822113037109375">
        <ele>184.1999969482421875</ele>
        <time>2018-09-02T16:30:28.000Z</time>
      </trkpt>
      <trkpt lat="43.2987681962549686431884765625" lon="-2.385045401751995086669921875">
        <ele>184.600006103515625</ele>
        <time>2018-09-02T16:30:29.000Z</time>
      </trkpt>
      <trkpt lat="43.2987604849040508270263671875" lon="-2.3850291408598423004150390625">
        <ele>184.8000030517578125</ele>
        <time>2018-09-02T16:30:30.000Z</time>
      </trkpt>
      <trkpt lat="43.29875302501022815704345703125" lon="-2.38501061685383319854736328125">
        <ele>185.1999969482421875</ele>
        <time>2018-09-02T16:30:31.000Z</time>
      </trkpt>
      <trkpt lat="43.29874263145029544830322265625" lon="-2.38499033264815807342529296875">
        <ele>185.600006103515625</ele>
        <time>2018-09-02T16:30:32.000Z</time>
      </trkpt>
      <trkpt lat="43.298730812966823577880859375" lon="-2.38497130572795867919921875">
        <ele>185.8000030517578125</ele>
        <time>2018-09-02T16:30:33.000Z</time>
      </trkpt>
      <trkpt lat="43.29872108995914459228515625" lon="-2.3849543742835521697998046875">
        <ele>186</ele>
        <time>2018-09-02T16:30:34.000Z</time>
      </trkpt>
      <trkpt lat="43.298709355294704437255859375" lon="-2.3849382810294628143310546875">
        <ele>186.1999969482421875</ele>
        <time>2018-09-02T16:30:35.000Z</time>
      </trkpt>
      <trkpt lat="43.29869753681123256683349609375" lon="-2.3849228583276271820068359375">
        <ele>186.399993896484375</ele>
        <time>2018-09-02T16:30:36.000Z</time>
      </trkpt>
      <trkpt lat="43.2986870594322681427001953125" lon="-2.3849091120064258575439453125">
        <ele>186.399993896484375</ele>
        <time>2018-09-02T16:30:37.000Z</time>
      </trkpt>
      <trkpt lat="43.29867658205330371856689453125" lon="-2.384891845285892486572265625">
        <ele>186.600006103515625</ele>
        <time>2018-09-02T16:30:38.000Z</time>
      </trkpt>
      <trkpt lat="43.29866610467433929443359375" lon="-2.3848745785653591156005859375">
        <ele>186.8000030517578125</ele>
        <time>2018-09-02T16:30:39.000Z</time>
      </trkpt>
      <trkpt lat="43.298655040562152862548828125" lon="-2.38485940732061862945556640625">
        <ele>187</ele>
        <time>2018-09-02T16:30:40.000Z</time>
      </trkpt>
      <trkpt lat="43.29864154569804668426513671875" lon="-2.38484658300876617431640625">
        <ele>187</ele>
        <time>2018-09-02T16:30:41.000Z</time>
      </trkpt>
      <trkpt lat="43.2986250333487987518310546875" lon="-2.38483711145818233489990234375">
        <ele>186.8000030517578125</ele>
        <time>2018-09-02T16:30:42.000Z</time>
      </trkpt>
      <trkpt lat="43.29860977828502655029296875" lon="-2.3848273046314716339111328125">
        <ele>186.600006103515625</ele>
        <time>2018-09-02T16:30:43.000Z</time>
      </trkpt>
      <trkpt lat="43.298596031963825225830078125" lon="-2.38481816835701465606689453125">
        <ele>186.600006103515625</ele>
        <time>2018-09-02T16:30:44.000Z</time>
      </trkpt>
      <trkpt lat="43.29858287237584590911865234375" lon="-2.38480693660676479339599609375">
        <ele>186.8000030517578125</ele>
        <time>2018-09-02T16:30:45.000Z</time>
      </trkpt>
      <trkpt lat="43.29857113771140575408935546875" lon="-2.38479453139007091522216796875">
        <ele>186.8000030517578125</ele>
        <time>2018-09-02T16:30:46.000Z</time>
      </trkpt>
      <trkpt lat="43.29855856485664844512939453125" lon="-2.3847810365259647369384765625">
        <ele>187</ele>
        <time>2018-09-02T16:30:47.000Z</time>
      </trkpt>
      <trkpt lat="43.2985459081828594207763671875" lon="-2.38476804457604885101318359375">
        <ele>187</ele>
        <time>2018-09-02T16:30:48.000Z</time>
      </trkpt>
      <trkpt lat="43.29853467643260955810546875" lon="-2.3847575671970844268798828125">
        <ele>187.1999969482421875</ele>
        <time>2018-09-02T16:30:49.000Z</time>
      </trkpt>
      <trkpt lat="43.29852260649204254150390625" lon="-2.38474558107554912567138671875">
        <ele>187.1999969482421875</ele>
        <time>2018-09-02T16:30:50.000Z</time>
      </trkpt>
      <trkpt lat="43.29850961454212665557861328125" lon="-2.38473183475434780120849609375">
        <ele>187.399993896484375</ele>
        <time>2018-09-02T16:30:51.000Z</time>
      </trkpt>
      <trkpt lat="43.29849578440189361572265625" lon="-2.38471825607120990753173828125">
        <ele>187.399993896484375</ele>
        <time>2018-09-02T16:30:52.000Z</time>
      </trkpt>
      <trkpt lat="43.2984808646142482757568359375" lon="-2.38470735959708690643310546875">
        <ele>187.399993896484375</ele>
        <time>2018-09-02T16:30:53.000Z</time>
      </trkpt>
      <trkpt lat="43.2984651066362857818603515625" lon="-2.38470098935067653656005859375">
        <ele>187.399993896484375</ele>
        <time>2018-09-02T16:30:54.000Z</time>
      </trkpt>
      <trkpt lat="43.2984535396099090576171875" lon="-2.3846925236284732818603515625">
        <ele>187.399993896484375</ele>
        <time>2018-09-02T16:30:55.000Z</time>
      </trkpt>
      <trkpt lat="43.29844306223094463348388671875" lon="-2.3846804536879062652587890625">
        <ele>187.600006103515625</ele>
        <time>2018-09-02T16:30:56.000Z</time>
      </trkpt>
      <trkpt lat="43.2984315790235996246337890625" lon="-2.38466796465218067169189453125">
        <ele>187.8000030517578125</ele>
        <time>2018-09-02T16:30:57.000Z</time>
      </trkpt>
      <trkpt lat="43.29842059873044490814208984375" lon="-2.38465522415935993194580078125">
        <ele>188</ele>
        <time>2018-09-02T16:30:58.000Z</time>
      </trkpt>
      <trkpt lat="43.29841037280857563018798828125" lon="-2.38464399240911006927490234375">
        <ele>188.1999969482421875</ele>
        <time>2018-09-02T16:30:59.000Z</time>
      </trkpt>
      <trkpt lat="43.2983983866870403289794921875" lon="-2.38463326357305049896240234375">
        <ele>188.399993896484375</ele>
        <time>2018-09-02T16:31:00.000Z</time>
      </trkpt>
      <trkpt lat="43.29838975332677364349365234375" lon="-2.3846224509179592132568359375">
        <ele>188.600006103515625</ele>
        <time>2018-09-02T16:31:01.000Z</time>
      </trkpt>
      <trkpt lat="43.2983832992613315582275390625" lon="-2.384609542787075042724609375">
        <ele>189</ele>
        <time>2018-09-02T16:31:02.000Z</time>
      </trkpt>
      <trkpt lat="43.2983772642910480499267578125" lon="-2.384594120085239410400390625">
        <ele>189.1999969482421875</ele>
        <time>2018-09-02T16:31:03.000Z</time>
      </trkpt>
      <trkpt lat="43.29836930148303508758544921875" lon="-2.384578026831150054931640625">
        <ele>189.600006103515625</ele>
        <time>2018-09-02T16:31:04.000Z</time>
      </trkpt>
      <trkpt lat="43.29835907556116580963134765625" lon="-2.3845661245286464691162109375">
        <ele>189.8000030517578125</ele>
        <time>2018-09-02T16:31:05.000Z</time>
      </trkpt>
      <trkpt lat="43.29834784381091594696044921875" lon="-2.38455556333065032958984375">
        <ele>190</ele>
        <time>2018-09-02T16:31:06.000Z</time>
      </trkpt>
      <trkpt lat="43.298340551555156707763671875" lon="-2.38454491831362247467041015625">
        <ele>190.1999969482421875</ele>
        <time>2018-09-02T16:31:07.000Z</time>
      </trkpt>
      <trkpt lat="43.29833460040390491485595703125" lon="-2.38453167490661144256591796875">
        <ele>190.600006103515625</ele>
        <time>2018-09-02T16:31:08.000Z</time>
      </trkpt>
      <trkpt lat="43.29832680523395538330078125" lon="-2.3845191858708858489990234375">
        <ele>190.8000030517578125</ele>
        <time>2018-09-02T16:31:09.000Z</time>
      </trkpt>
      <trkpt lat="43.2983194291591644287109375" lon="-2.38450854085385799407958984375">
        <ele>191</ele>
        <time>2018-09-02T16:31:10.000Z</time>
      </trkpt>
      <trkpt lat="43.29831230454146862030029296875" lon="-2.384498901665210723876953125">
        <ele>191.1999969482421875</ele>
        <time>2018-09-02T16:31:11.000Z</time>
      </trkpt>
      <trkpt lat="43.29830191098153591156005859375" lon="-2.38448808901011943817138671875">
        <ele>191.399993896484375</ele>
        <time>2018-09-02T16:31:12.000Z</time>
      </trkpt>
      <trkpt lat="43.29829269088804721832275390625" lon="-2.38447912037372589111328125">
        <ele>191.600006103515625</ele>
        <time>2018-09-02T16:31:13.000Z</time>
      </trkpt>
      <trkpt lat="43.29828414134681224822998046875" lon="-2.3844665475189685821533203125">
        <ele>191.8000030517578125</ele>
        <time>2018-09-02T16:31:14.000Z</time>
      </trkpt>
      <trkpt lat="43.29827475361526012420654296875" lon="-2.38445305265486240386962890625">
        <ele>192</ele>
        <time>2018-09-02T16:31:15.000Z</time>
      </trkpt>
      <trkpt lat="43.2982676289975643157958984375" lon="-2.384437210857868194580078125">
        <ele>192.399993896484375</ele>
        <time>2018-09-02T16:31:16.000Z</time>
      </trkpt>
      <trkpt lat="43.29826377332210540771484375" lon="-2.38442019559442996978759765625">
        <ele>192.8000030517578125</ele>
        <time>2018-09-02T16:31:17.000Z</time>
      </trkpt>
      <trkpt lat="43.29825975000858306884765625" lon="-2.38440292887389659881591796875">
        <ele>193.399993896484375</ele>
        <time>2018-09-02T16:31:18.000Z</time>
      </trkpt>
      <trkpt lat="43.2982528768479824066162109375" lon="-2.384387589991092681884765625">
        <ele>193.600006103515625</ele>
        <time>2018-09-02T16:31:19.000Z</time>
      </trkpt>
      <trkpt lat="43.29824591986835002899169921875" lon="-2.38437292166054248809814453125">
        <ele>194</ele>
        <time>2018-09-02T16:31:20.000Z</time>
      </trkpt>
      <trkpt lat="43.29824030399322509765625" lon="-2.3843590915203094482421875">
        <ele>194.1999969482421875</ele>
        <time>2018-09-02T16:31:21.000Z</time>
      </trkpt>
      <trkpt lat="43.29823561012744903564453125" lon="-2.38434341736137866973876953125">
        <ele>194.399993896484375</ele>
        <time>2018-09-02T16:31:22.000Z</time>
      </trkpt>
      <trkpt lat="43.29822932370007038116455078125" lon="-2.3843284137547016143798828125">
        <ele>194.399993896484375</ele>
        <time>2018-09-02T16:31:23.000Z</time>
      </trkpt>
      <trkpt lat="43.2982233725488185882568359375" lon="-2.3843143321573734283447265625">
        <ele>194.399993896484375</ele>
        <time>2018-09-02T16:31:24.000Z</time>
      </trkpt>
      <trkpt lat="43.29821825958788394927978515625" lon="-2.3842989094555377960205078125">
        <ele>194.600006103515625</ele>
        <time>2018-09-02T16:31:25.000Z</time>
      </trkpt>
      <trkpt lat="43.298213481903076171875" lon="-2.3842848278582096099853515625">
        <ele>194.600006103515625</ele>
        <time>2018-09-02T16:31:26.000Z</time>
      </trkpt>
      <trkpt lat="43.29820987768471240997314453125" lon="-2.38426831550896167755126953125">
        <ele>194.8000030517578125</ele>
        <time>2018-09-02T16:31:27.000Z</time>
      </trkpt>
      <trkpt lat="43.29820317216217517852783203125" lon="-2.38425188697874546051025390625">
        <ele>195</ele>
        <time>2018-09-02T16:31:28.000Z</time>
      </trkpt>
      <trkpt lat="43.29819663427770137786865234375" lon="-2.38423646427690982818603515625">
        <ele>195</ele>
        <time>2018-09-02T16:31:29.000Z</time>
      </trkpt>
      <trkpt lat="43.298192359507083892822265625" lon="-2.38421953283250331878662109375">
        <ele>195.1999969482421875</ele>
        <time>2018-09-02T16:31:30.000Z</time>
      </trkpt>
      <trkpt lat="43.29818808473646640777587890625" lon="-2.3842026852071285247802734375">
        <ele>195.399993896484375</ele>
        <time>2018-09-02T16:31:31.000Z</time>
      </trkpt>
      <trkpt lat="43.2981841452419757843017578125" lon="-2.3841872625052928924560546875">
        <ele>195.600006103515625</ele>
        <time>2018-09-02T16:31:32.000Z</time>
      </trkpt>
      <trkpt lat="43.29818003810942173004150390625" lon="-2.38417276181280612945556640625">
        <ele>195.600006103515625</ele>
        <time>2018-09-02T16:31:33.000Z</time>
      </trkpt>
      <trkpt lat="43.29817567951977252960205078125" lon="-2.38415532745420932769775390625">
        <ele>195.8000030517578125</ele>
        <time>2018-09-02T16:31:34.000Z</time>
      </trkpt>
      <trkpt lat="43.298169560730457305908203125" lon="-2.384140156209468841552734375">
        <ele>196</ele>
        <time>2018-09-02T16:31:35.000Z</time>
      </trkpt>
      <trkpt lat="43.298163525760173797607421875" lon="-2.38412548787891864776611328125">
        <ele>196.1999969482421875</ele>
        <time>2018-09-02T16:31:36.000Z</time>
      </trkpt>
      <trkpt lat="43.29815723933279514312744140625" lon="-2.3841118253767490386962890625">
        <ele>196.399993896484375</ele>
        <time>2018-09-02T16:31:37.000Z</time>
      </trkpt>
      <trkpt lat="43.29815204255282878875732421875" lon="-2.38409916870296001434326171875">
        <ele>196.600006103515625</ele>
        <time>2018-09-02T16:31:38.000Z</time>
      </trkpt>
      <trkpt lat="43.29814785160124301910400390625" lon="-2.38408676348626613616943359375">
        <ele>197</ele>
        <time>2018-09-02T16:31:39.000Z</time>
      </trkpt>
      <trkpt lat="43.298138715326786041259765625" lon="-2.38406714983284473419189453125">
        <ele>197.1999969482421875</ele>
        <time>2018-09-02T16:31:40.000Z</time>
      </trkpt>
      <trkpt lat="43.2981316745281219482421875" lon="-2.384045608341693878173828125">
        <ele>197.600006103515625</ele>
        <time>2018-09-02T16:31:41.000Z</time>
      </trkpt>
      <trkpt lat="43.298126645386219024658203125" lon="-2.384025156497955322265625">
        <ele>198.1999969482421875</ele>
        <time>2018-09-02T16:31:42.000Z</time>
      </trkpt>
      <trkpt lat="43.29812086187303066253662109375" lon="-2.38400646485388278961181640625">
        <ele>198.399993896484375</ele>
        <time>2018-09-02T16:31:43.000Z</time>
      </trkpt>
      <trkpt lat="43.29811801202595233917236328125" lon="-2.38398651592433452606201171875">
        <ele>199</ele>
        <time>2018-09-02T16:31:44.000Z</time>
      </trkpt>
      <trkpt lat="43.29811222851276397705078125" lon="-2.38397084176540374755859375">
        <ele>199.1999969482421875</ele>
        <time>2018-09-02T16:31:45.000Z</time>
      </trkpt>
      <trkpt lat="43.29810560680925846099853515625" lon="-2.38395751453936100006103515625">
        <ele>199.399993896484375</ele>
        <time>2018-09-02T16:31:46.000Z</time>
      </trkpt>
      <trkpt lat="43.29810082912445068359375" lon="-2.3839425109326839447021484375">
        <ele>199.8000030517578125</ele>
        <time>2018-09-02T16:31:47.000Z</time>
      </trkpt>
      <trkpt lat="43.29809487797319889068603515625" lon="-2.38392750732600688934326171875">
        <ele>200</ele>
        <time>2018-09-02T16:31:48.000Z</time>
      </trkpt>
      <trkpt lat="43.29808800481259822845458984375" lon="-2.38391392864286899566650390625">
        <ele>200.1999969482421875</ele>
        <time>2018-09-02T16:31:49.000Z</time>
      </trkpt>
      <trkpt lat="43.29808180220425128936767578125" lon="-2.383897416293621063232421875">
        <ele>200.600006103515625</ele>
        <time>2018-09-02T16:31:50.000Z</time>
      </trkpt>
      <trkpt lat="43.29807467758655548095703125" lon="-2.3838808201253414154052734375">
        <ele>200.8000030517578125</ele>
        <time>2018-09-02T16:31:51.000Z</time>
      </trkpt>
      <trkpt lat="43.29806797206401824951171875" lon="-2.38386481069028377532958984375">
        <ele>201.1999969482421875</ele>
        <time>2018-09-02T16:31:52.000Z</time>
      </trkpt>
      <trkpt lat="43.2980617694556713104248046875" lon="-2.3838496394455432891845703125">
        <ele>201.399993896484375</ele>
        <time>2018-09-02T16:31:53.000Z</time>
      </trkpt>
      <trkpt lat="43.29805531539022922515869140625" lon="-2.38383262418210506439208984375">
        <ele>201.600006103515625</ele>
        <time>2018-09-02T16:31:54.000Z</time>
      </trkpt>
      <trkpt lat="43.2980466820299625396728515625" lon="-2.383817620575428009033203125">
        <ele>201.8000030517578125</ele>
        <time>2018-09-02T16:31:55.000Z</time>
      </trkpt>
      <trkpt lat="43.29803955741226673126220703125" lon="-2.38380261696875095367431640625">
        <ele>202.1999969482421875</ele>
        <time>2018-09-02T16:31:56.000Z</time>
      </trkpt>
      <trkpt lat="43.29803134314715862274169921875" lon="-2.38378937356173992156982421875">
        <ele>202.1999969482421875</ele>
        <time>2018-09-02T16:31:57.000Z</time>
      </trkpt>
      <trkpt lat="43.298020698130130767822265625" lon="-2.3837752081453800201416015625">
        <ele>202.399993896484375</ele>
        <time>2018-09-02T16:31:58.000Z</time>
      </trkpt>
      <trkpt lat="43.2980108074843883514404296875" lon="-2.38375936634838581085205078125">
        <ele>202.600006103515625</ele>
        <time>2018-09-02T16:31:59.000Z</time>
      </trkpt>
      <trkpt lat="43.29800116829574108123779296875" lon="-2.3837453685700893402099609375">
        <ele>202.8000030517578125</ele>
        <time>2018-09-02T16:32:00.000Z</time>
      </trkpt>
      <trkpt lat="43.2979923672974109649658203125" lon="-2.38373212516307830810546875">
        <ele>203.1999969482421875</ele>
        <time>2018-09-02T16:32:01.000Z</time>
      </trkpt>
      <trkpt lat="43.2979782857000827789306640625" lon="-2.38372080959379673004150390625">
        <ele>203.1999969482421875</ele>
        <time>2018-09-02T16:32:02.000Z</time>
      </trkpt>
      <trkpt lat="43.29796479083597660064697265625" lon="-2.383708991110324859619140625">
        <ele>203.1999969482421875</ele>
        <time>2018-09-02T16:32:03.000Z</time>
      </trkpt>
      <trkpt lat="43.29795238561928272247314453125" lon="-2.38369633443653583526611328125">
        <ele>203.399993896484375</ele>
        <time>2018-09-02T16:32:04.000Z</time>
      </trkpt>
      <trkpt lat="43.29793914221227169036865234375" lon="-2.38368493504822254180908203125">
        <ele>203.399993896484375</ele>
        <time>2018-09-02T16:32:05.000Z</time>
      </trkpt>
      <trkpt lat="43.2979269884526729583740234375" lon="-2.38367672078311443328857421875">
        <ele>203.399993896484375</ele>
        <time>2018-09-02T16:32:06.000Z</time>
      </trkpt>
      <trkpt lat="43.29791734926402568817138671875" lon="-2.3836685903370380401611328125">
        <ele>203.600006103515625</ele>
        <time>2018-09-02T16:32:07.000Z</time>
      </trkpt>
      <trkpt lat="43.29790544696152210235595703125" lon="-2.3836605437099933624267578125">
        <ele>203.600006103515625</ele>
        <time>2018-09-02T16:32:08.000Z</time>
      </trkpt>
      <trkpt lat="43.2978916168212890625" lon="-2.3836561851203441619873046875">
        <ele>203.399993896484375</ele>
        <time>2018-09-02T16:32:09.000Z</time>
      </trkpt>
      <trkpt lat="43.2978783734142780303955078125" lon="-2.38365157507359981536865234375">
        <ele>203.1999969482421875</ele>
        <time>2018-09-02T16:32:10.000Z</time>
      </trkpt>
      <trkpt lat="43.2978642918169498443603515625" lon="-2.3836491443216800689697265625">
        <ele>203</ele>
        <time>2018-09-02T16:32:11.000Z</time>
      </trkpt>
      <trkpt lat="43.29784878529608249664306640625" lon="-2.38365040160715579986572265625">
        <ele>202.600006103515625</ele>
        <time>2018-09-02T16:32:12.000Z</time>
      </trkpt>
      <trkpt lat="43.29783386550843715667724609375" lon="-2.3836555145680904388427734375">
        <ele>202</ele>
        <time>2018-09-02T16:32:13.000Z</time>
      </trkpt>
      <trkpt lat="43.29782414250075817108154296875" lon="-2.3836625553667545318603515625">
        <ele>201.600006103515625</ele>
        <time>2018-09-02T16:32:14.000Z</time>
      </trkpt>
      <trkpt lat="43.29781693406403064727783203125" lon="-2.3836649022996425628662109375">
        <ele>201.399993896484375</ele>
        <time>2018-09-02T16:32:15.000Z</time>
      </trkpt>
      <trkpt lat="43.2978022657334804534912109375" lon="-2.3836605437099933624267578125">
        <ele>201.1999969482421875</ele>
        <time>2018-09-02T16:32:16.000Z</time>
      </trkpt>
      <trkpt lat="43.29779229126870632171630859375" lon="-2.38365693949162960052490234375">
        <ele>201</ele>
        <time>2018-09-02T16:32:17.000Z</time>
      </trkpt>
      <trkpt lat="43.29778122715651988983154296875" lon="-2.3836555145680904388427734375">
        <ele>200.8000030517578125</ele>
        <time>2018-09-02T16:32:18.000Z</time>
      </trkpt>
      <trkpt lat="43.2977690733969211578369140625" lon="-2.38365341909229755401611328125">
        <ele>200.600006103515625</ele>
        <time>2018-09-02T16:32:19.000Z</time>
      </trkpt>
      <trkpt lat="43.29775792546570301055908203125" lon="-2.38364956341683864593505859375">
        <ele>200.600006103515625</ele>
        <time>2018-09-02T16:32:20.000Z</time>
      </trkpt>
      <trkpt lat="43.2977452687919139862060546875" lon="-2.3836461268365383148193359375">
        <ele>200.399993896484375</ele>
        <time>2018-09-02T16:32:21.000Z</time>
      </trkpt>
      <trkpt lat="43.29772892408072948455810546875" lon="-2.383644618093967437744140625">
        <ele>200</ele>
        <time>2018-09-02T16:32:22.000Z</time>
      </trkpt>
      <trkpt lat="43.2977130822837352752685546875" lon="-2.38363690674304962158203125">
        <ele>200</ele>
        <time>2018-09-02T16:32:23.000Z</time>
      </trkpt>
      <trkpt lat="43.297703526914119720458984375" lon="-2.38362961448729038238525390625">
        <ele>200</ele>
        <time>2018-09-02T16:32:24.000Z</time>
      </trkpt>
      <trkpt lat="43.29768709838390350341796875" lon="-2.38362081348896026611328125">
        <ele>199.8000030517578125</ele>
        <time>2018-09-02T16:32:25.000Z</time>
      </trkpt>
      <trkpt lat="43.29766907729208469390869140625" lon="-2.38361570052802562713623046875">
        <ele>199.600006103515625</ele>
        <time>2018-09-02T16:32:26.000Z</time>
      </trkpt>
      <trkpt lat="43.29765633679926395416259765625" lon="-2.38360916264355182647705078125">
        <ele>199.600006103515625</ele>
        <time>2018-09-02T16:32:27.000Z</time>
      </trkpt>
      <trkpt lat="43.2976420037448406219482421875" lon="-2.38359801471233367919921875">
        <ele>199.600006103515625</ele>
        <time>2018-09-02T16:32:28.000Z</time>
      </trkpt>
      <trkpt lat="43.29762850888073444366455078125" lon="-2.3835874535143375396728515625">
        <ele>199.8000030517578125</ele>
        <time>2018-09-02T16:32:29.000Z</time>
      </trkpt>
      <trkpt lat="43.29761794768273830413818359375" lon="-2.38357630558311939239501953125">
        <ele>200.1999969482421875</ele>
        <time>2018-09-02T16:32:30.000Z</time>
      </trkpt>
      <trkpt lat="43.29760906286537647247314453125" lon="-2.3835670016705989837646484375">
        <ele>200.600006103515625</ele>
        <time>2018-09-02T16:32:31.000Z</time>
      </trkpt>
      <trkpt lat="43.2976017706096172332763671875" lon="-2.38355820067226886749267578125">
        <ele>201</ele>
        <time>2018-09-02T16:32:32.000Z</time>
      </trkpt>
      <trkpt lat="43.297589533030986785888671875" lon="-2.3835410177707672119140625">
        <ele>201.600006103515625</ele>
        <time>2018-09-02T16:32:33.000Z</time>
      </trkpt>
      <trkpt lat="43.2975823245942592620849609375" lon="-2.3835276067256927490234375">
        <ele>202.1999969482421875</ele>
        <time>2018-09-02T16:32:34.000Z</time>
      </trkpt>
      <trkpt lat="43.29757721163332462310791015625" lon="-2.38351545296609401702880859375">
        <ele>202.600006103515625</ele>
        <time>2018-09-02T16:32:35.000Z</time>
      </trkpt>
      <trkpt lat="43.29756983555853366851806640625" lon="-2.38350237719714641571044921875">
        <ele>203.1999969482421875</ele>
        <time>2018-09-02T16:32:36.000Z</time>
      </trkpt>
      <trkpt lat="43.29756245948374271392822265625" lon="-2.3834898881614208221435546875">
        <ele>203.600006103515625</ele>
        <time>2018-09-02T16:32:37.000Z</time>
      </trkpt>
      <trkpt lat="43.297549299895763397216796875" lon="-2.38347035832703113555908203125">
        <ele>204.399993896484375</ele>
        <time>2018-09-02T16:32:38.000Z</time>
      </trkpt>
      <trkpt lat="43.2975363917648792266845703125" lon="-2.3834533430635929107666015625">
        <ele>205</ele>
        <time>2018-09-02T16:32:39.000Z</time>
      </trkpt>
      <trkpt lat="43.29752256162464618682861328125" lon="-2.3834379203617572784423828125">
        <ele>205.600006103515625</ele>
        <time>2018-09-02T16:32:40.000Z</time>
      </trkpt>
      <trkpt lat="43.29751300625503063201904296875" lon="-2.38342677243053913116455078125">
        <ele>206</ele>
        <time>2018-09-02T16:32:41.000Z</time>
      </trkpt>
      <trkpt lat="43.29750009812414646148681640625" lon="-2.383413277566432952880859375">
        <ele>206.1999969482421875</ele>
        <time>2018-09-02T16:32:42.000Z</time>
      </trkpt>
      <trkpt lat="43.29749054275453090667724609375" lon="-2.383399866521358489990234375">
        <ele>206.399993896484375</ele>
        <time>2018-09-02T16:32:43.000Z</time>
      </trkpt>
      <trkpt lat="43.297484256327152252197265625" lon="-2.3833869583904743194580078125">
        <ele>206.600006103515625</ele>
        <time>2018-09-02T16:32:44.000Z</time>
      </trkpt>
      <trkpt lat="43.29747830517590045928955078125" lon="-2.3833718709647655487060546875">
        <ele>207</ele>
        <time>2018-09-02T16:32:45.000Z</time>
      </trkpt>
      <trkpt lat="43.29747059382498264312744140625" lon="-2.38335519097745418548583984375">
        <ele>207.399993896484375</ele>
        <time>2018-09-02T16:32:46.000Z</time>
      </trkpt>
      <trkpt lat="43.29746170900762081146240234375" lon="-2.38334043882787227630615234375">
        <ele>207.600006103515625</ele>
        <time>2018-09-02T16:32:47.000Z</time>
      </trkpt>
      <trkpt lat="43.29745517112314701080322265625" lon="-2.3833262734115123748779296875">
        <ele>207.8000030517578125</ele>
        <time>2018-09-02T16:32:48.000Z</time>
      </trkpt>
      <trkpt lat="43.29744796268641948699951171875" lon="-2.3833115212619304656982421875">
        <ele>208.1999969482421875</ele>
        <time>2018-09-02T16:32:49.000Z</time>
      </trkpt>
      <trkpt lat="43.2974425144493579864501953125" lon="-2.383297272026538848876953125">
        <ele>208.600006103515625</ele>
        <time>2018-09-02T16:32:50.000Z</time>
      </trkpt>
      <trkpt lat="43.29743421636521816253662109375" lon="-2.38328377716243267059326171875">
        <ele>209</ele>
        <time>2018-09-02T16:32:51.000Z</time>
      </trkpt>
      <trkpt lat="43.2974260859191417694091796875" lon="-2.3832712881267070770263671875">
        <ele>209.399993896484375</ele>
        <time>2018-09-02T16:32:52.000Z</time>
      </trkpt>
      <trkpt lat="43.2974177040159702301025390625" lon="-2.3832595534622669219970703125">
        <ele>209.600006103515625</ele>
        <time>2018-09-02T16:32:53.000Z</time>
      </trkpt>
      <trkpt lat="43.2974109984934329986572265625" lon="-2.38324622623622417449951171875">
        <ele>210</ele>
        <time>2018-09-02T16:32:54.000Z</time>
      </trkpt>
      <trkpt lat="43.29740437678992748260498046875" lon="-2.38322946242988109588623046875">
        <ele>210.600006103515625</ele>
        <time>2018-09-02T16:32:55.000Z</time>
      </trkpt>
      <trkpt lat="43.2973995991051197052001953125" lon="-2.3832139559090137481689453125">
        <ele>211</ele>
        <time>2018-09-02T16:32:56.000Z</time>
      </trkpt>
      <trkpt lat="43.297395408153533935546875" lon="-2.38319861702620983123779296875">
        <ele>211.399993896484375</ele>
        <time>2018-09-02T16:32:57.000Z</time>
      </trkpt>
      <trkpt lat="43.29739146865904331207275390625" lon="-2.38318302668631076812744140625">
        <ele>212</ele>
        <time>2018-09-02T16:32:58.000Z</time>
      </trkpt>
      <trkpt lat="43.29738493077456951141357421875" lon="-2.383167855441570281982421875">
        <ele>212.399993896484375</ele>
        <time>2018-09-02T16:32:59.000Z</time>
      </trkpt>
      <trkpt lat="43.29737638123333454132080078125" lon="-2.38315402530133724212646484375">
        <ele>212.8000030517578125</ele>
        <time>2018-09-02T16:33:00.000Z</time>
      </trkpt>
      <trkpt lat="43.29736749641597270965576171875" lon="-2.38313734531402587890625">
        <ele>213.1999969482421875</ele>
        <time>2018-09-02T16:33:01.000Z</time>
      </trkpt>
      <trkpt lat="43.29735961742699146270751953125" lon="-2.38311664201319217681884765625">
        <ele>213.8000030517578125</ele>
        <time>2018-09-02T16:33:02.000Z</time>
      </trkpt>
      <trkpt lat="43.2973499782383441925048828125" lon="-2.38309635780751705169677734375">
        <ele>214.399993896484375</ele>
        <time>2018-09-02T16:33:03.000Z</time>
      </trkpt>
      <trkpt lat="43.297341763973236083984375" lon="-2.38307724706828594207763671875">
        <ele>215</ele>
        <time>2018-09-02T16:33:04.000Z</time>
      </trkpt>
      <trkpt lat="43.29733212478458881378173828125" lon="-2.383060567080974578857421875">
        <ele>215.399993896484375</ele>
        <time>2018-09-02T16:33:05.000Z</time>
      </trkpt>
      <trkpt lat="43.2973231561481952667236328125" lon="-2.383043803274631500244140625">
        <ele>216</ele>
        <time>2018-09-02T16:33:06.000Z</time>
      </trkpt>
      <trkpt lat="43.29731603153049945831298828125" lon="-2.383028380572795867919921875">
        <ele>216.399993896484375</ele>
        <time>2018-09-02T16:33:07.000Z</time>
      </trkpt>
      <trkpt lat="43.2973097451031208038330078125" lon="-2.38301253877580165863037109375">
        <ele>216.8000030517578125</ele>
        <time>2018-09-02T16:33:08.000Z</time>
      </trkpt>
      <trkpt lat="43.2973037101328372955322265625" lon="-2.38299761898815631866455078125">
        <ele>217.1999969482421875</ele>
        <time>2018-09-02T16:33:09.000Z</time>
      </trkpt>
      <trkpt lat="43.29729549586772918701171875" lon="-2.38298286683857440948486328125">
        <ele>217.600006103515625</ele>
        <time>2018-09-02T16:33:10.000Z</time>
      </trkpt>
      <trkpt lat="43.29728987999260425567626953125" lon="-2.3829655162990093231201171875">
        <ele>218.1999969482421875</ele>
        <time>2018-09-02T16:33:11.000Z</time>
      </trkpt>
      <trkpt lat="43.2972815819084644317626953125" lon="-2.38295202143490314483642578125">
        <ele>218.600006103515625</ele>
        <time>2018-09-02T16:33:12.000Z</time>
      </trkpt>
      <trkpt lat="43.29727361910045146942138671875" lon="-2.3829348385334014892578125">
        <ele>219</ele>
        <time>2018-09-02T16:33:13.000Z</time>
      </trkpt>
      <trkpt lat="43.29726465046405792236328125" lon="-2.3829189129173755645751953125">
        <ele>219.600006103515625</ele>
        <time>2018-09-02T16:33:14.000Z</time>
      </trkpt>
      <trkpt lat="43.29725316725671291351318359375" lon="-2.38290625624358654022216796875">
        <ele>219.8000030517578125</ele>
        <time>2018-09-02T16:33:15.000Z</time>
      </trkpt>
      <trkpt lat="43.29724185168743133544921875" lon="-2.382893264293670654296875">
        <ele>220.1999969482421875</ele>
        <time>2018-09-02T16:33:16.000Z</time>
      </trkpt>
      <trkpt lat="43.297232799232006072998046875" lon="-2.38288010470569133758544921875">
        <ele>220.600006103515625</ele>
        <time>2018-09-02T16:33:17.000Z</time>
      </trkpt>
      <trkpt lat="43.2972208969295024871826171875" lon="-2.3828702978789806365966796875">
        <ele>220.8000030517578125</ele>
        <time>2018-09-02T16:33:18.000Z</time>
      </trkpt>
      <trkpt lat="43.29720824025571346282958984375" lon="-2.38286317326128482818603515625">
        <ele>221.1999969482421875</ele>
        <time>2018-09-02T16:33:19.000Z</time>
      </trkpt>
      <trkpt lat="43.2971955835819244384765625" lon="-2.382861413061618804931640625">
        <ele>221.1999969482421875</ele>
        <time>2018-09-02T16:33:20.000Z</time>
      </trkpt>
      <trkpt lat="43.2971840165555477142333984375" lon="-2.38286116160452365875244140625">
        <ele>221.1999969482421875</ele>
        <time>2018-09-02T16:33:21.000Z</time>
      </trkpt>
      <trkpt lat="43.297172449529170989990234375" lon="-2.38285965286195278167724609375">
        <ele>221.1999969482421875</ele>
        <time>2018-09-02T16:33:22.000Z</time>
      </trkpt>
      <trkpt lat="43.297161050140857696533203125" lon="-2.38285663537681102752685546875">
        <ele>221.1999969482421875</ele>
        <time>2018-09-02T16:33:23.000Z</time>
      </trkpt>
      <trkpt lat="43.29714839346706867218017578125" lon="-2.3828542046248912811279296875">
        <ele>221.1999969482421875</ele>
        <time>2018-09-02T16:33:24.000Z</time>
      </trkpt>
      <trkpt lat="43.29713682644069194793701171875" lon="-2.38285546191036701202392578125">
        <ele>221.1999969482421875</ele>
        <time>2018-09-02T16:33:25.000Z</time>
      </trkpt>
      <trkpt lat="43.29712525941431522369384765625" lon="-2.3828562162816524505615234375">
        <ele>221.1999969482421875</ele>
        <time>2018-09-02T16:33:26.000Z</time>
      </trkpt>
      <trkpt lat="43.29711369238793849945068359375" lon="-2.3828555457293987274169921875">
        <ele>221.1999969482421875</ele>
        <time>2018-09-02T16:33:27.000Z</time>
      </trkpt>
      <trkpt lat="43.29710229299962520599365234375" lon="-2.38285495899617671966552734375">
        <ele>221.1999969482421875</ele>
        <time>2018-09-02T16:33:28.000Z</time>
      </trkpt>
      <trkpt lat="43.29709206707775592803955078125" lon="-2.3828568868339061737060546875">
        <ele>221</ele>
        <time>2018-09-02T16:33:29.000Z</time>
      </trkpt>
      <trkpt lat="43.2970817573368549346923828125" lon="-2.38285747356712818145751953125">
        <ele>221</ele>
        <time>2018-09-02T16:33:30.000Z</time>
      </trkpt>
      <trkpt lat="43.29706893302500247955322265625" lon="-2.382854707539081573486328125">
        <ele>221</ele>
        <time>2018-09-02T16:33:31.000Z</time>
      </trkpt>
      <trkpt lat="43.29705351032316684722900390625" lon="-2.38285864703357219696044921875">
        <ele>220.8000030517578125</ele>
        <time>2018-09-02T16:33:32.000Z</time>
      </trkpt>
      <trkpt lat="43.29703825525939464569091796875" lon="-2.382863424718379974365234375">
        <ele>220.600006103515625</ele>
        <time>2018-09-02T16:33:33.000Z</time>
      </trkpt>
      <trkpt lat="43.29702568240463733673095703125" lon="-2.38286987878382205963134765625">
        <ele>220.399993896484375</ele>
        <time>2018-09-02T16:33:34.000Z</time>
      </trkpt>
      <trkpt lat="43.29701378010213375091552734375" lon="-2.38287742249667644500732421875">
        <ele>220.1999969482421875</ele>
        <time>2018-09-02T16:33:35.000Z</time>
      </trkpt>
      <trkpt lat="43.297003470361232757568359375" lon="-2.38288295455276966094970703125">
        <ele>220</ele>
        <time>2018-09-02T16:33:36.000Z</time>
      </trkpt>
      <trkpt lat="43.29699181951582431793212890625" lon="-2.3828904144465923309326171875">
        <ele>219.600006103515625</ele>
        <time>2018-09-02T16:33:37.000Z</time>
      </trkpt>
      <trkpt lat="43.29697991721332073211669921875" lon="-2.38289770670235157012939453125">
        <ele>219.399993896484375</ele>
        <time>2018-09-02T16:33:38.000Z</time>
      </trkpt>
      <trkpt lat="43.296966589987277984619140625" lon="-2.38290064036846160888671875">
        <ele>219.1999969482421875</ele>
        <time>2018-09-02T16:33:39.000Z</time>
      </trkpt>
      <trkpt lat="43.296952508389949798583984375" lon="-2.3829053342342376708984375">
        <ele>219</ele>
        <time>2018-09-02T16:33:40.000Z</time>
      </trkpt>
      <trkpt lat="43.29694211483001708984375" lon="-2.38291396759450435638427734375">
        <ele>218.8000030517578125</ele>
        <time>2018-09-02T16:33:41.000Z</time>
      </trkpt>
      <trkpt lat="43.296933732926845550537109375" lon="-2.382924444973468780517578125">
        <ele>218.399993896484375</ele>
        <time>2018-09-02T16:33:42.000Z</time>
      </trkpt>
      <trkpt lat="43.2969261892139911651611328125" lon="-2.38293685019016265869140625">
        <ele>218</ele>
        <time>2018-09-02T16:33:43.000Z</time>
      </trkpt>
      <trkpt lat="43.296914957463741302490234375" lon="-2.38294548355042934417724609375">
        <ele>217.600006103515625</ele>
        <time>2018-09-02T16:33:44.000Z</time>
      </trkpt>
      <trkpt lat="43.2969033904373645782470703125" lon="-2.38294967450201511383056640625">
        <ele>217.399993896484375</ele>
        <time>2018-09-02T16:33:45.000Z</time>
      </trkpt>
      <trkpt lat="43.29688922502100467681884765625" lon="-2.3829504288733005523681640625">
        <ele>217.399993896484375</ele>
        <time>2018-09-02T16:33:46.000Z</time>
      </trkpt>
      <trkpt lat="43.29687631689012050628662109375" lon="-2.3829514347016811370849609375">
        <ele>217.399993896484375</ele>
        <time>2018-09-02T16:33:47.000Z</time>
      </trkpt>
      <trkpt lat="43.29686290584504604339599609375" lon="-2.38295218907296657562255859375">
        <ele>217.1999969482421875</ele>
        <time>2018-09-02T16:33:48.000Z</time>
      </trkpt>
      <trkpt lat="43.29685050062835216522216796875" lon="-2.3829561285674571990966796875">
        <ele>217.1999969482421875</ele>
        <time>2018-09-02T16:33:49.000Z</time>
      </trkpt>
      <trkpt lat="43.29683708958327770233154296875" lon="-2.38295604474842548370361328125">
        <ele>217</ele>
        <time>2018-09-02T16:33:50.000Z</time>
      </trkpt>
      <trkpt lat="43.29682602547109127044677734375" lon="-2.38295562565326690673828125">
        <ele>217</ele>
        <time>2018-09-02T16:33:51.000Z</time>
      </trkpt>
      <trkpt lat="43.29681395553052425384521484375" lon="-2.38295788876712322235107421875">
        <ele>217</ele>
        <time>2018-09-02T16:33:52.000Z</time>
      </trkpt>
      <trkpt lat="43.29680155031383037567138671875" lon="-2.38296057097613811492919921875">
        <ele>216.8000030517578125</ele>
        <time>2018-09-02T16:33:53.000Z</time>
      </trkpt>
      <trkpt lat="43.296788893640041351318359375" lon="-2.382961325347423553466796875">
        <ele>217</ele>
        <time>2018-09-02T16:33:54.000Z</time>
      </trkpt>
      <trkpt lat="43.2967749796807765960693359375" lon="-2.38296224735677242279052734375">
        <ele>217.1999969482421875</ele>
        <time>2018-09-02T16:33:55.000Z</time>
      </trkpt>
      <trkpt lat="43.2967615686357021331787109375" lon="-2.3829618282616138458251953125">
        <ele>217.399993896484375</ele>
        <time>2018-09-02T16:33:56.000Z</time>
      </trkpt>
      <trkpt lat="43.2967505045235157012939453125" lon="-2.38296308554708957672119140625">
        <ele>217.600006103515625</ele>
        <time>2018-09-02T16:33:57.000Z</time>
      </trkpt>
      <trkpt lat="43.29673717729747295379638671875" lon="-2.3829645104706287384033203125">
        <ele>217.8000030517578125</ele>
        <time>2018-09-02T16:33:58.000Z</time>
      </trkpt>
      <trkpt lat="43.29672393389046192169189453125" lon="-2.3829655162990093231201171875">
        <ele>218</ele>
        <time>2018-09-02T16:33:59.000Z</time>
      </trkpt>
      <trkpt lat="43.29670985229313373565673828125" lon="-2.38296635448932647705078125">
        <ele>218.1999969482421875</ele>
        <time>2018-09-02T16:34:00.000Z</time>
      </trkpt>
      <trkpt lat="43.296696357429027557373046875" lon="-2.3829645104706287384033203125">
        <ele>218.600006103515625</ele>
        <time>2018-09-02T16:34:01.000Z</time>
      </trkpt>
      <trkpt lat="43.29668303020298480987548828125" lon="-2.38295973278582096099853515625">
        <ele>219</ele>
        <time>2018-09-02T16:34:02.000Z</time>
      </trkpt>
      <trkpt lat="43.29667179845273494720458984375" lon="-2.382957637310028076171875">
        <ele>219.1999969482421875</ele>
        <time>2018-09-02T16:34:03.000Z</time>
      </trkpt>
      <trkpt lat="43.2966619916260242462158203125" lon="-2.3829564638435840606689453125">
        <ele>219.399993896484375</ele>
        <time>2018-09-02T16:34:04.000Z</time>
      </trkpt>
      <trkpt lat="43.29665302298963069915771484375" lon="-2.38295302726328372955322265625">
        <ele>219.8000030517578125</ele>
        <time>2018-09-02T16:34:05.000Z</time>
      </trkpt>
      <trkpt lat="43.29664128832519054412841796875" lon="-2.3829507641494274139404296875">
        <ele>220</ele>
        <time>2018-09-02T16:34:06.000Z</time>
      </trkpt>
      <trkpt lat="43.2966264523565769195556640625" lon="-2.3829487524926662445068359375">
        <ele>220.399993896484375</ele>
        <time>2018-09-02T16:34:07.000Z</time>
      </trkpt>
      <trkpt lat="43.29660952091217041015625" lon="-2.3829420469701290130615234375">
        <ele>220.8000030517578125</ele>
        <time>2018-09-02T16:34:08.000Z</time>
      </trkpt>
      <trkpt lat="43.296591751277446746826171875" lon="-2.382938861846923828125">
        <ele>221.399993896484375</ele>
        <time>2018-09-02T16:34:09.000Z</time>
      </trkpt>
      <trkpt lat="43.2965748198330402374267578125" lon="-2.382935173809528350830078125">
        <ele>221.8000030517578125</ele>
        <time>2018-09-02T16:34:10.000Z</time>
      </trkpt>
      <trkpt lat="43.2965550385415554046630859375" lon="-2.3829299770295619964599609375">
        <ele>222.1999969482421875</ele>
        <time>2018-09-02T16:34:11.000Z</time>
      </trkpt>
      <trkpt lat="43.29653643071651458740234375" lon="-2.38292704336345195770263671875">
        <ele>222.8000030517578125</ele>
        <time>2018-09-02T16:34:12.000Z</time>
      </trkpt>
      <trkpt lat="43.29651941545307636260986328125" lon="-2.3829249478876590728759765625">
        <ele>223</ele>
        <time>2018-09-02T16:34:13.000Z</time>
      </trkpt>
      <trkpt lat="43.296501897275447845458984375" lon="-2.3829246126115322113037109375">
        <ele>223.399993896484375</ele>
        <time>2018-09-02T16:34:14.000Z</time>
      </trkpt>
      <trkpt lat="43.2964819483458995819091796875" lon="-2.38291933201253414154052734375">
        <ele>224</ele>
        <time>2018-09-02T16:34:15.000Z</time>
      </trkpt>
      <trkpt lat="43.2964631728827953338623046875" lon="-2.38291581161320209503173828125">
        <ele>224.399993896484375</ele>
        <time>2018-09-02T16:34:16.000Z</time>
      </trkpt>
      <trkpt lat="43.2964464090764522552490234375" lon="-2.38291396759450435638427734375">
        <ele>224.8000030517578125</ele>
        <time>2018-09-02T16:34:17.000Z</time>
      </trkpt>
      <trkpt lat="43.29643039964139461517333984375" lon="-2.38291002810001373291015625">
        <ele>225.1999969482421875</ele>
        <time>2018-09-02T16:34:18.000Z</time>
      </trkpt>
      <trkpt lat="43.2964150607585906982421875" lon="-2.3829048313200473785400390625">
        <ele>225.600006103515625</ele>
        <time>2018-09-02T16:34:19.000Z</time>
      </trkpt>
      <trkpt lat="43.2963991351425647735595703125" lon="-2.3828999698162078857421875">
        <ele>226</ele>
        <time>2018-09-02T16:34:20.000Z</time>
      </trkpt>
      <trkpt lat="43.296383209526538848876953125" lon="-2.38289485685527324676513671875">
        <ele>226.600006103515625</ele>
        <time>2018-09-02T16:34:21.000Z</time>
      </trkpt>
      <trkpt lat="43.2963696308434009552001953125" lon="-2.38289200700819492340087890625">
        <ele>226.600006103515625</ele>
        <time>2018-09-02T16:34:22.000Z</time>
      </trkpt>
      <trkpt lat="43.2963548786938190460205078125" lon="-2.382887899875640869140625">
        <ele>226.8000030517578125</ele>
        <time>2018-09-02T16:34:23.000Z</time>
      </trkpt>
      <trkpt lat="43.29634054563939571380615234375" lon="-2.38288454711437225341796875">
        <ele>226.8000030517578125</ele>
        <time>2018-09-02T16:34:24.000Z</time>
      </trkpt>
      <trkpt lat="43.29632512293756008148193359375" lon="-2.3828776739537715911865234375">
        <ele>227</ele>
        <time>2018-09-02T16:34:25.000Z</time>
      </trkpt>
      <trkpt lat="43.29630852676928043365478515625" lon="-2.382876165211200714111328125">
        <ele>227</ele>
        <time>2018-09-02T16:34:26.000Z</time>
      </trkpt>
      <trkpt lat="43.29629327170550823211669921875" lon="-2.38287373445928096771240234375">
        <ele>227.1999969482421875</ele>
        <time>2018-09-02T16:34:27.000Z</time>
      </trkpt>
      <trkpt lat="43.29627835191786289215087890625" lon="-2.38287054933607578277587890625">
        <ele>227.1999969482421875</ele>
        <time>2018-09-02T16:34:28.000Z</time>
      </trkpt>
      <trkpt lat="43.2962623424828052520751953125" lon="-2.3828666098415851593017578125">
        <ele>227.399993896484375</ele>
        <time>2018-09-02T16:34:29.000Z</time>
      </trkpt>
      <trkpt lat="43.29624448902904987335205078125" lon="-2.38286401145160198211669921875">
        <ele>227.399993896484375</ele>
        <time>2018-09-02T16:34:30.000Z</time>
      </trkpt>
      <trkpt lat="43.2962271384894847869873046875" lon="-2.38285931758582592010498046875">
        <ele>227.600006103515625</ele>
        <time>2018-09-02T16:34:31.000Z</time>
      </trkpt>
      <trkpt lat="43.29621163196861743927001953125" lon="-2.38285294733941555023193359375">
        <ele>227.600006103515625</ele>
        <time>2018-09-02T16:34:32.000Z</time>
      </trkpt>
      <trkpt lat="43.29619553871452808380126953125" lon="-2.382845990359783172607421875">
        <ele>227.8000030517578125</ele>
        <time>2018-09-02T16:34:33.000Z</time>
      </trkpt>
      <trkpt lat="43.29617810435593128204345703125" lon="-2.382844984531402587890625">
        <ele>228</ele>
        <time>2018-09-02T16:34:34.000Z</time>
      </trkpt>
      <trkpt lat="43.2961631007492542266845703125" lon="-2.382843308150768280029296875">
        <ele>228</ele>
        <time>2018-09-02T16:34:35.000Z</time>
      </trkpt>
      <trkpt lat="43.29614843241870403289794921875" lon="-2.3828424699604511260986328125">
        <ele>228</ele>
        <time>2018-09-02T16:34:36.000Z</time>
      </trkpt>
      <trkpt lat="43.2961325906217098236083984375" lon="-2.382839284837245941162109375">
        <ele>228.1999969482421875</ele>
        <time>2018-09-02T16:34:37.000Z</time>
      </trkpt>
      <trkpt lat="43.2961171679198741912841796875" lon="-2.382837273180484771728515625">
        <ele>228.1999969482421875</ele>
        <time>2018-09-02T16:34:38.000Z</time>
      </trkpt>
      <trkpt lat="43.29610115848481655120849609375" lon="-2.38283249549567699432373046875">
        <ele>228.399993896484375</ele>
        <time>2018-09-02T16:34:39.000Z</time>
      </trkpt>
      <trkpt lat="43.29608456231653690338134765625" lon="-2.382830567657947540283203125">
        <ele>228.399993896484375</ele>
        <time>2018-09-02T16:34:40.000Z</time>
      </trkpt>
      <trkpt lat="43.29606779851019382476806640625" lon="-2.382833249866962432861328125">
        <ele>228.399993896484375</ele>
        <time>2018-09-02T16:34:41.000Z</time>
      </trkpt>
      <trkpt lat="43.2960529625415802001953125" lon="-2.38283936865627765655517578125">
        <ele>228.399993896484375</ele>
        <time>2018-09-02T16:34:42.000Z</time>
      </trkpt>
      <trkpt lat="43.2960380427539348602294921875" lon="-2.382845990359783172607421875">
        <ele>228.1999969482421875</ele>
        <time>2018-09-02T16:34:43.000Z</time>
      </trkpt>
      <trkpt lat="43.29602287150919437408447265625" lon="-2.38285210914909839630126953125">
        <ele>228.1999969482421875</ele>
        <time>2018-09-02T16:34:44.000Z</time>
      </trkpt>
      <trkpt lat="43.2960071973502635955810546875" lon="-2.382858060300350189208984375">
        <ele>228</ele>
        <time>2018-09-02T16:34:45.000Z</time>
      </trkpt>
      <trkpt lat="43.2959914393723011016845703125" lon="-2.38286468200385570526123046875">
        <ele>228</ele>
        <time>2018-09-02T16:34:46.000Z</time>
      </trkpt>
      <trkpt lat="43.2959751784801483154296875" lon="-2.38287172280251979827880859375">
        <ele>228</ele>
        <time>2018-09-02T16:34:47.000Z</time>
      </trkpt>
      <trkpt lat="43.29595983959734439849853515625" lon="-2.38288161344826221466064453125">
        <ele>227.8000030517578125</ele>
        <time>2018-09-02T16:34:48.000Z</time>
      </trkpt>
      <trkpt lat="43.295944668352603912353515625" lon="-2.38289150409400463104248046875">
        <ele>228</ele>
        <time>2018-09-02T16:34:49.000Z</time>
      </trkpt>
      <trkpt lat="43.29592932946979999542236328125" lon="-2.382903657853603363037109375">
        <ele>228</ele>
        <time>2018-09-02T16:34:50.000Z</time>
      </trkpt>
      <trkpt lat="43.29591415822505950927734375" lon="-2.3829158954322338104248046875">
        <ele>228</ele>
        <time>2018-09-02T16:34:51.000Z</time>
      </trkpt>
      <trkpt lat="43.29589881934225559234619140625" lon="-2.38292721100151538848876953125">
        <ele>228</ele>
        <time>2018-09-02T16:34:52.000Z</time>
      </trkpt>
      <trkpt lat="43.295882642269134521484375" lon="-2.38294221460819244384765625">
        <ele>227.8000030517578125</ele>
        <time>2018-09-02T16:34:53.000Z</time>
      </trkpt>
      <trkpt lat="43.29586814157664775848388671875" lon="-2.3829584755003452301025390625">
        <ele>227.8000030517578125</ele>
        <time>2018-09-02T16:34:54.000Z</time>
      </trkpt>
      <trkpt lat="43.29585439525544643402099609375" lon="-2.382974065840244293212890625">
        <ele>227.8000030517578125</ele>
        <time>2018-09-02T16:34:55.000Z</time>
      </trkpt>
      <trkpt lat="43.29584182240068912506103515625" lon="-2.38299175165593624114990234375">
        <ele>227.600006103515625</ele>
        <time>2018-09-02T16:34:56.000Z</time>
      </trkpt>
      <trkpt lat="43.2958316802978515625" lon="-2.38301035948097705841064453125">
        <ele>227.399993896484375</ele>
        <time>2018-09-02T16:34:57.000Z</time>
      </trkpt>
      <trkpt lat="43.295821957290172576904296875" lon="-2.38303064368665218353271484375">
        <ele>227.1999969482421875</ele>
        <time>2018-09-02T16:34:58.000Z</time>
      </trkpt>
      <trkpt lat="43.29581147991120815277099609375" lon="-2.3830510117113590240478515625">
        <ele>227</ele>
        <time>2018-09-02T16:34:59.000Z</time>
      </trkpt>
      <trkpt lat="43.2958033494651317596435546875" lon="-2.38307540304958820343017578125">
        <ele>226.600006103515625</ele>
        <time>2018-09-02T16:35:00.000Z</time>
      </trkpt>
      <trkpt lat="43.29579656012356281280517578125" lon="-2.383101470768451690673828125">
        <ele>226.1999969482421875</ele>
        <time>2018-09-02T16:35:01.000Z</time>
      </trkpt>
      <trkpt lat="43.2957906089723110198974609375" lon="-2.38312728703022003173828125">
        <ele>225.8000030517578125</ele>
        <time>2018-09-02T16:35:02.000Z</time>
      </trkpt>
      <trkpt lat="43.29578583128750324249267578125" lon="-2.38315436057746410369873046875">
        <ele>225.399993896484375</ele>
        <time>2018-09-02T16:35:03.000Z</time>
      </trkpt>
      <trkpt lat="43.2957832328975200653076171875" lon="-2.383182607591152191162109375">
        <ele>225</ele>
        <time>2018-09-02T16:35:04.000Z</time>
      </trkpt>
      <trkpt lat="43.2957808859646320343017578125" lon="-2.38321018405258655548095703125">
        <ele>224.600006103515625</ele>
        <time>2018-09-02T16:35:05.000Z</time>
      </trkpt>
      <trkpt lat="43.2957788743078708648681640625" lon="-2.38323901779949665069580078125">
        <ele>224</ele>
        <time>2018-09-02T16:35:06.000Z</time>
      </trkpt>
      <trkpt lat="43.2957778684794902801513671875" lon="-2.3832689411938190460205078125">
        <ele>223.600006103515625</ele>
        <time>2018-09-02T16:35:07.000Z</time>
      </trkpt>
      <trkpt lat="43.29577711410820484161376953125" lon="-2.38329802639782428741455078125">
        <ele>223</ele>
        <time>2018-09-02T16:35:08.000Z</time>
      </trkpt>
      <trkpt lat="43.2957751862704753875732421875" lon="-2.38332635723054409027099609375">
        <ele>222.600006103515625</ele>
        <time>2018-09-02T16:35:09.000Z</time>
      </trkpt>
      <trkpt lat="43.2957741804420948028564453125" lon="-2.3833547718822956085205078125">
        <ele>222.600006103515625</ele>
        <time>2018-09-02T16:35:10.000Z</time>
      </trkpt>
      <trkpt lat="43.29577292315661907196044921875" lon="-2.3833822645246982574462890625">
        <ele>222.399993896484375</ele>
        <time>2018-09-02T16:35:11.000Z</time>
      </trkpt>
      <trkpt lat="43.29577158205211162567138671875" lon="-2.38340749405324459075927734375">
        <ele>222.399993896484375</ele>
        <time>2018-09-02T16:35:12.000Z</time>
      </trkpt>
      <trkpt lat="43.29577174969017505645751953125" lon="-2.3834308795630931854248046875">
        <ele>222.1999969482421875</ele>
        <time>2018-09-02T16:35:13.000Z</time>
      </trkpt>
      <trkpt lat="43.29577459953725337982177734375" lon="-2.38345183432102203369140625">
        <ele>222</ele>
        <time>2018-09-02T16:35:14.000Z</time>
      </trkpt>
      <trkpt lat="43.2957768626511096954345703125" lon="-2.383469603955745697021484375">
        <ele>222</ele>
        <time>2018-09-02T16:35:15.000Z</time>
      </trkpt>
      <trkpt lat="43.2957745157182216644287109375" lon="-2.3834855295717716217041015625">
        <ele>222</ele>
        <time>2018-09-02T16:35:16.000Z</time>
      </trkpt>
      <trkpt lat="43.29576621763408184051513671875" lon="-2.38349650986492633819580078125">
        <ele>222</ele>
        <time>2018-09-02T16:35:17.000Z</time>
      </trkpt>
      <trkpt lat="43.2957525551319122314453125" lon="-2.38349919207394123077392578125">
        <ele>222.1999969482421875</ele>
        <time>2018-09-02T16:35:18.000Z</time>
      </trkpt>
      <trkpt lat="43.29573369584977626800537109375" lon="-2.3835007846355438232421875">
        <ele>222.399993896484375</ele>
        <time>2018-09-02T16:35:19.000Z</time>
      </trkpt>
      <trkpt lat="43.29571559093892574310302734375" lon="-2.38350522704422473907470703125">
        <ele>222.600006103515625</ele>
        <time>2018-09-02T16:35:20.000Z</time>
      </trkpt>
      <trkpt lat="43.29569865949451923370361328125" lon="-2.38351427949965000152587890625">
        <ele>222.8000030517578125</ele>
        <time>2018-09-02T16:35:21.000Z</time>
      </trkpt>
      <trkpt lat="43.29567988403141498565673828125" lon="-2.38352693617343902587890625">
        <ele>223</ele>
        <time>2018-09-02T16:35:22.000Z</time>
      </trkpt>
      <trkpt lat="43.29566010273993015289306640625" lon="-2.383539676666259765625">
        <ele>223.399993896484375</ele>
        <time>2018-09-02T16:35:23.000Z</time>
      </trkpt>
      <trkpt lat="43.295639567077159881591796875" lon="-2.3835509084165096282958984375">
        <ele>223.600006103515625</ele>
        <time>2018-09-02T16:35:24.000Z</time>
      </trkpt>
      <trkpt lat="43.2956196181476116180419921875" lon="-2.38355987705290317535400390625">
        <ele>223.8000030517578125</ele>
        <time>2018-09-02T16:35:25.000Z</time>
      </trkpt>
      <trkpt lat="43.295601345598697662353515625" lon="-2.38356809131801128387451171875">
        <ele>224</ele>
        <time>2018-09-02T16:35:26.000Z</time>
      </trkpt>
      <trkpt lat="43.29558298923075199127197265625" lon="-2.38357529975473880767822265625">
        <ele>224.1999969482421875</ele>
        <time>2018-09-02T16:35:27.000Z</time>
      </trkpt>
      <trkpt lat="43.2955646328628063201904296875" lon="-2.38358133472502231597900390625">
        <ele>224.399993896484375</ele>
        <time>2018-09-02T16:35:28.000Z</time>
      </trkpt>
      <trkpt lat="43.2955461926758289337158203125" lon="-2.3835877887904644012451171875">
        <ele>224.8000030517578125</ele>
        <time>2018-09-02T16:35:29.000Z</time>
      </trkpt>
      <trkpt lat="43.295527584850788116455078125" lon="-2.383592985570430755615234375">
        <ele>225</ele>
        <time>2018-09-02T16:35:30.000Z</time>
      </trkpt>
      <trkpt lat="43.295510150492191314697265625" lon="-2.383597008883953094482421875">
        <ele>225.1999969482421875</ele>
        <time>2018-09-02T16:35:31.000Z</time>
      </trkpt>
      <trkpt lat="43.2954935543239116668701171875" lon="-2.38359910435974597930908203125">
        <ele>225.399993896484375</ele>
        <time>2018-09-02T16:35:32.000Z</time>
      </trkpt>
      <trkpt lat="43.2954767905175685882568359375" lon="-2.3836008645594120025634765625">
        <ele>225.600006103515625</ele>
        <time>2018-09-02T16:35:33.000Z</time>
      </trkpt>
      <trkpt lat="43.29545994289219379425048828125" lon="-2.38360195420682430267333984375">
        <ele>226</ele>
        <time>2018-09-02T16:35:34.000Z</time>
      </trkpt>
      <trkpt lat="43.29544301144778728485107421875" lon="-2.3836027085781097412109375">
        <ele>226.1999969482421875</ele>
        <time>2018-09-02T16:35:35.000Z</time>
      </trkpt>
      <trkpt lat="43.295426331460475921630859375" lon="-2.38360329531133174896240234375">
        <ele>226.399993896484375</ele>
        <time>2018-09-02T16:35:36.000Z</time>
      </trkpt>
      <trkpt lat="43.29541065730154514312744140625" lon="-2.3836011998355388641357421875">
        <ele>226.600006103515625</ele>
        <time>2018-09-02T16:35:37.000Z</time>
      </trkpt>
      <trkpt lat="43.29539489932358264923095703125" lon="-2.38359575159847736358642578125">
        <ele>226.8000030517578125</ele>
        <time>2018-09-02T16:35:38.000Z</time>
      </trkpt>
      <trkpt lat="43.29538148827850818634033203125" lon="-2.38358787260949611663818359375">
        <ele>227.1999969482421875</ele>
        <time>2018-09-02T16:35:39.000Z</time>
      </trkpt>
      <trkpt lat="43.29536564648151397705078125" lon="-2.383581586182117462158203125">
        <ele>227.399993896484375</ele>
        <time>2018-09-02T16:35:40.000Z</time>
      </trkpt>
      <trkpt lat="43.29535097815096378326416015625" lon="-2.383573539555072784423828125">
        <ele>227.600006103515625</ele>
        <time>2018-09-02T16:35:41.000Z</time>
      </trkpt>
      <trkpt lat="43.29533589072525501251220703125" lon="-2.38356440328061580657958984375">
        <ele>227.8000030517578125</ele>
        <time>2018-09-02T16:35:42.000Z</time>
      </trkpt>
      <trkpt lat="43.2953202165663242340087890625" lon="-2.3835579492151737213134765625">
        <ele>228.1999969482421875</ele>
        <time>2018-09-02T16:35:43.000Z</time>
      </trkpt>
      <trkpt lat="43.2953044585883617401123046875" lon="-2.38355367444455623626708984375">
        <ele>228.399993896484375</ele>
        <time>2018-09-02T16:35:44.000Z</time>
      </trkpt>
      <trkpt lat="43.29528987407684326171875" lon="-2.38354847766458988189697265625">
        <ele>228.600006103515625</ele>
        <time>2018-09-02T16:35:45.000Z</time>
      </trkpt>
      <trkpt lat="43.29527403227984905242919921875" lon="-2.3835391737520694732666015625">
        <ele>228.8000030517578125</ele>
        <time>2018-09-02T16:35:46.000Z</time>
      </trkpt>
      <trkpt lat="43.29525911249220371246337890625" lon="-2.38352802582085132598876953125">
        <ele>229.1999969482421875</ele>
        <time>2018-09-02T16:35:47.000Z</time>
      </trkpt>
      <trkpt lat="43.29524385742843151092529296875" lon="-2.38351696170866489410400390625">
        <ele>229.399993896484375</ele>
        <time>2018-09-02T16:35:48.000Z</time>
      </trkpt>
      <trkpt lat="43.29523019492626190185546875" lon="-2.383507154881954193115234375">
        <ele>229.600006103515625</ele>
        <time>2018-09-02T16:35:49.000Z</time>
      </trkpt>
      <trkpt lat="43.2952161133289337158203125" lon="-2.38349667750298976898193359375">
        <ele>230</ele>
        <time>2018-09-02T16:35:50.000Z</time>
      </trkpt>
      <trkpt lat="43.2952021993696689605712890625" lon="-2.38348494283854961395263671875">
        <ele>230.1999969482421875</ele>
        <time>2018-09-02T16:35:51.000Z</time>
      </trkpt>
      <trkpt lat="43.29518803395330905914306640625" lon="-2.38347387872636318206787109375">
        <ele>230.399993896484375</ele>
        <time>2018-09-02T16:35:52.000Z</time>
      </trkpt>
      <trkpt lat="43.29517512582242488861083984375" lon="-2.383464239537715911865234375">
        <ele>230.600006103515625</ele>
        <time>2018-09-02T16:35:53.000Z</time>
      </trkpt>
      <trkpt lat="43.29516188241541385650634765625" lon="-2.3834530077874660491943359375">
        <ele>231</ele>
        <time>2018-09-02T16:35:54.000Z</time>
      </trkpt>
      <trkpt lat="43.2951458729803562164306640625" lon="-2.3834390938282012939453125">
        <ele>231.1999969482421875</ele>
        <time>2018-09-02T16:35:55.000Z</time>
      </trkpt>
      <trkpt lat="43.29512902535498142242431640625" lon="-2.38342576660215854644775390625">
        <ele>231.600006103515625</ele>
        <time>2018-09-02T16:35:56.000Z</time>
      </trkpt>
      <trkpt lat="43.29511075280606746673583984375" lon="-2.38341302610933780670166015625">
        <ele>232.1999969482421875</ele>
        <time>2018-09-02T16:35:57.000Z</time>
      </trkpt>
      <trkpt lat="43.29509147442877292633056640625" lon="-2.3834013752639293670654296875">
        <ele>232.8000030517578125</ele>
        <time>2018-09-02T16:35:58.000Z</time>
      </trkpt>
      <trkpt lat="43.29507404007017612457275390625" lon="-2.38338838331401348114013671875">
        <ele>233.399993896484375</ele>
        <time>2018-09-02T16:35:59.000Z</time>
      </trkpt>
      <trkpt lat="43.2950590364634990692138671875" lon="-2.38337296061217784881591796875">
        <ele>233.600006103515625</ele>
        <time>2018-09-02T16:36:00.000Z</time>
      </trkpt>
      <trkpt lat="43.29504537396132946014404296875" lon="-2.38335795700550079345703125">
        <ele>233.600006103515625</ele>
        <time>2018-09-02T16:36:01.000Z</time>
      </trkpt>
      <trkpt lat="43.295032717287540435791015625" lon="-2.38334144465625286102294921875">
        <ele>233.399993896484375</ele>
        <time>2018-09-02T16:36:02.000Z</time>
      </trkpt>
      <trkpt lat="43.29502056352794170379638671875" lon="-2.38332417793571949005126953125">
        <ele>233.399993896484375</ele>
        <time>2018-09-02T16:36:03.000Z</time>
      </trkpt>
      <trkpt lat="43.2950090803205966949462890625" lon="-2.38330573774874210357666015625">
        <ele>233.399993896484375</ele>
        <time>2018-09-02T16:36:04.000Z</time>
      </trkpt>
      <trkpt lat="43.2949970103800296783447265625" lon="-2.38328821957111358642578125">
        <ele>233.399993896484375</ele>
        <time>2018-09-02T16:36:05.000Z</time>
      </trkpt>
      <trkpt lat="43.29498452134430408477783203125" lon="-2.38327120430767536163330078125">
        <ele>233.600006103515625</ele>
        <time>2018-09-02T16:36:06.000Z</time>
      </trkpt>
      <trkpt lat="43.294973038136959075927734375" lon="-2.383252345025539398193359375">
        <ele>233.8000030517578125</ele>
        <time>2018-09-02T16:36:07.000Z</time>
      </trkpt>
      <trkpt lat="43.294962309300899505615234375" lon="-2.383232228457927703857421875">
        <ele>233.8000030517578125</ele>
        <time>2018-09-02T16:36:08.000Z</time>
      </trkpt>
      <trkpt lat="43.29495049081742763519287109375" lon="-2.38321236334741115570068359375">
        <ele>234</ele>
        <time>2018-09-02T16:36:09.000Z</time>
      </trkpt>
      <trkpt lat="43.29493925906717777252197265625" lon="-2.38319308497011661529541015625">
        <ele>234</ele>
        <time>2018-09-02T16:36:10.000Z</time>
      </trkpt>
      <trkpt lat="43.29493121244013309478759765625" lon="-2.38317246548831462860107421875">
        <ele>234.1999969482421875</ele>
        <time>2018-09-02T16:36:11.000Z</time>
      </trkpt>
      <trkpt lat="43.29492576420307159423828125" lon="-2.38315100781619548797607421875">
        <ele>234.1999969482421875</ele>
        <time>2018-09-02T16:36:12.000Z</time>
      </trkpt>
      <trkpt lat="43.29492065124213695526123046875" lon="-2.383127622306346893310546875">
        <ele>234.1999969482421875</ele>
        <time>2018-09-02T16:36:13.000Z</time>
      </trkpt>
      <trkpt lat="43.29491478390991687774658203125" lon="-2.38310448825359344482421875">
        <ele>234.399993896484375</ele>
        <time>2018-09-02T16:36:14.000Z</time>
      </trkpt>
      <trkpt lat="43.29490807838737964630126953125" lon="-2.38308043219149112701416015625">
        <ele>234.399993896484375</ele>
        <time>2018-09-02T16:36:15.000Z</time>
      </trkpt>
      <trkpt lat="43.29490070231258869171142578125" lon="-2.383057884871959686279296875">
        <ele>234.600006103515625</ele>
        <time>2018-09-02T16:36:16.000Z</time>
      </trkpt>
      <trkpt lat="43.29489299096167087554931640625" lon="-2.38303475081920623779296875">
        <ele>234.600006103515625</ele>
        <time>2018-09-02T16:36:17.000Z</time>
      </trkpt>
      <trkpt lat="43.2948850281536579132080078125" lon="-2.38301061093807220458984375">
        <ele>234.600006103515625</ele>
        <time>2018-09-02T16:36:18.000Z</time>
      </trkpt>
      <trkpt lat="43.29487203620374202728271484375" lon="-2.3829883150756359100341796875">
        <ele>234.8000030517578125</ele>
        <time>2018-09-02T16:36:19.000Z</time>
      </trkpt>
      <trkpt lat="43.2948558591306209564208984375" lon="-2.38297129981219768524169921875">
        <ele>235</ele>
        <time>2018-09-02T16:36:20.000Z</time>
      </trkpt>
      <trkpt lat="43.2948377542197704315185546875" lon="-2.3829614929854869842529296875">
        <ele>235.1999969482421875</ele>
        <time>2018-09-02T16:36:21.000Z</time>
      </trkpt>
      <trkpt lat="43.29481906257569789886474609375" lon="-2.38295939750969409942626953125">
        <ele>235.399993896484375</ele>
        <time>2018-09-02T16:36:22.000Z</time>
      </trkpt>
      <trkpt lat="43.29480129294097423553466796875" lon="-2.3829678632318973541259765625">
        <ele>235.600006103515625</ele>
        <time>2018-09-02T16:36:23.000Z</time>
      </trkpt>
      <trkpt lat="43.294785283505916595458984375" lon="-2.38297549076378345489501953125">
        <ele>235.8000030517578125</ele>
        <time>2018-09-02T16:36:24.000Z</time>
      </trkpt>
      <trkpt lat="43.2947676815092563629150390625" lon="-2.38297968171536922454833984375">
        <ele>236</ele>
        <time>2018-09-02T16:36:25.000Z</time>
      </trkpt>
      <trkpt lat="43.2947485707700252532958984375" lon="-2.38298437558114528656005859375">
        <ele>236.1999969482421875</ele>
        <time>2018-09-02T16:36:26.000Z</time>
      </trkpt>
      <trkpt lat="43.29473038204014301300048828125" lon="-2.38299208693206310272216796875">
        <ele>236.399993896484375</ele>
        <time>2018-09-02T16:36:27.000Z</time>
      </trkpt>
      <trkpt lat="43.2947126962244510650634765625" lon="-2.3830017261207103729248046875">
        <ele>236.600006103515625</ele>
        <time>2018-09-02T16:36:28.000Z</time>
      </trkpt>
      <trkpt lat="43.29469551332294940948486328125" lon="-2.38301052711904048919677734375">
        <ele>236.8000030517578125</ele>
        <time>2018-09-02T16:36:29.000Z</time>
      </trkpt>
      <trkpt lat="43.29467757605016231536865234375" lon="-2.38301773555576801300048828125">
        <ele>237</ele>
        <time>2018-09-02T16:36:30.000Z</time>
      </trkpt>
      <trkpt lat="43.29465947113931179046630859375" lon="-2.38302402198314666748046875">
        <ele>237.1999969482421875</ele>
        <time>2018-09-02T16:36:31.000Z</time>
      </trkpt>
      <trkpt lat="43.294641114771366119384765625" lon="-2.3830315656960010528564453125">
        <ele>237.399993896484375</ele>
        <time>2018-09-02T16:36:32.000Z</time>
      </trkpt>
      <trkpt lat="43.29462359659373760223388671875" lon="-2.3830382712185382843017578125">
        <ele>237.399993896484375</ele>
        <time>2018-09-02T16:36:33.000Z</time>
      </trkpt>
      <trkpt lat="43.294604904949665069580078125" lon="-2.38304078578948974609375">
        <ele>237.600006103515625</ele>
        <time>2018-09-02T16:36:34.000Z</time>
      </trkpt>
      <trkpt lat="43.2945852912962436676025390625" lon="-2.38303986378014087677001953125">
        <ele>238</ele>
        <time>2018-09-02T16:36:35.000Z</time>
      </trkpt>
      <trkpt lat="43.294567354023456573486328125" lon="-2.38303667865693569183349609375">
        <ele>238</ele>
        <time>2018-09-02T16:36:36.000Z</time>
      </trkpt>
      <trkpt lat="43.29454983584582805633544921875" lon="-2.3830329068005084991455078125">
        <ele>237.8000030517578125</ele>
        <time>2018-09-02T16:36:37.000Z</time>
      </trkpt>
      <trkpt lat="43.29453282058238983154296875" lon="-2.3830302245914936065673828125">
        <ele>237.600006103515625</ele>
        <time>2018-09-02T16:36:38.000Z</time>
      </trkpt>
      <trkpt lat="43.2945165596902370452880859375" lon="-2.38303005695343017578125">
        <ele>237.399993896484375</ele>
        <time>2018-09-02T16:36:39.000Z</time>
      </trkpt>
      <trkpt lat="43.2945011369884014129638671875" lon="-2.38303030841052532196044921875">
        <ele>237.399993896484375</ele>
        <time>2018-09-02T16:36:40.000Z</time>
      </trkpt>
      <trkpt lat="43.29448630101978778839111328125" lon="-2.3830288834869861602783203125">
        <ele>237.1999969482421875</ele>
        <time>2018-09-02T16:36:41.000Z</time>
      </trkpt>
      <trkpt lat="43.29447104595601558685302734375" lon="-2.383024357259273529052734375">
        <ele>237</ele>
        <time>2018-09-02T16:36:42.000Z</time>
      </trkpt>
      <trkpt lat="43.29445595853030681610107421875" lon="-2.3830179870128631591796875">
        <ele>236.8000030517578125</ele>
        <time>2018-09-02T16:36:43.000Z</time>
      </trkpt>
      <trkpt lat="43.29444162547588348388671875" lon="-2.38301035948097705841064453125">
        <ele>236.600006103515625</ele>
        <time>2018-09-02T16:36:44.000Z</time>
      </trkpt>
      <trkpt lat="43.29442695714533329010009765625" lon="-2.38300323486328125">
        <ele>236.399993896484375</ele>
        <time>2018-09-02T16:36:45.000Z</time>
      </trkpt>
      <trkpt lat="43.2944119535386562347412109375" lon="-2.38299778662621974945068359375">
        <ele>236.1999969482421875</ele>
        <time>2018-09-02T16:36:46.000Z</time>
      </trkpt>
      <trkpt lat="43.2943965308368206024169921875" lon="-2.3829953558743000030517578125">
        <ele>236</ele>
        <time>2018-09-02T16:36:47.000Z</time>
      </trkpt>
      <trkpt lat="43.2943824492394924163818359375" lon="-2.38299393095076084136962890625">
        <ele>235.8000030517578125</ele>
        <time>2018-09-02T16:36:48.000Z</time>
      </trkpt>
      <trkpt lat="43.294369541108608245849609375" lon="-2.38299225457012653350830078125">
        <ele>235.8000030517578125</ele>
        <time>2018-09-02T16:36:49.000Z</time>
      </trkpt>
      <trkpt lat="43.29435772262513637542724609375" lon="-2.38299049437046051025390625">
        <ele>235.600006103515625</ele>
        <time>2018-09-02T16:36:50.000Z</time>
      </trkpt>
      <trkpt lat="43.2943459041416645050048828125" lon="-2.38298714160919189453125">
        <ele>235.399993896484375</ele>
        <time>2018-09-02T16:36:51.000Z</time>
      </trkpt>
      <trkpt lat="43.29433559440076351165771484375" lon="-2.38298186101019382476806640625">
        <ele>235.1999969482421875</ele>
        <time>2018-09-02T16:36:52.000Z</time>
      </trkpt>
      <trkpt lat="43.29432453028857707977294921875" lon="-2.38297616131603717803955078125">
        <ele>235.1999969482421875</ele>
        <time>2018-09-02T16:36:53.000Z</time>
      </trkpt>
      <trkpt lat="43.29431229270994663238525390625" lon="-2.382972724735736846923828125">
        <ele>235</ele>
        <time>2018-09-02T16:36:54.000Z</time>
      </trkpt>
      <trkpt lat="43.2942993007600307464599609375" lon="-2.38297079689800739288330078125">
        <ele>234.8000030517578125</ele>
        <time>2018-09-02T16:36:55.000Z</time>
      </trkpt>
      <trkpt lat="43.2942858897149562835693359375" lon="-2.3829708807170391082763671875">
        <ele>235</ele>
        <time>2018-09-02T16:36:56.000Z</time>
      </trkpt>
      <trkpt lat="43.2942724786698818206787109375" lon="-2.38297280855476856231689453125">
        <ele>235.399993896484375</ele>
        <time>2018-09-02T16:36:57.000Z</time>
      </trkpt>
      <trkpt lat="43.2942600734531879425048828125" lon="-2.38297247327864170074462890625">
        <ele>235.600006103515625</ele>
        <time>2018-09-02T16:36:58.000Z</time>
      </trkpt>
      <trkpt lat="43.29424808733165264129638671875" lon="-2.38296979106962680816650390625">
        <ele>235.8000030517578125</ele>
        <time>2018-09-02T16:36:59.000Z</time>
      </trkpt>
      <trkpt lat="43.29423534683883190155029296875" lon="-2.3829658515751361846923828125">
        <ele>236</ele>
        <time>2018-09-02T16:37:00.000Z</time>
      </trkpt>
      <trkpt lat="43.29422227106988430023193359375" lon="-2.38296233117580413818359375">
        <ele>236.1999969482421875</ele>
        <time>2018-09-02T16:37:01.000Z</time>
      </trkpt>
      <trkpt lat="43.2942114584147930145263671875" lon="-2.38295788876712322235107421875">
        <ele>236.1999969482421875</ele>
        <time>2018-09-02T16:37:02.000Z</time>
      </trkpt>
      <trkpt lat="43.294201232492923736572265625" lon="-2.3829500935971736907958984375">
        <ele>236.399993896484375</ele>
        <time>2018-09-02T16:37:03.000Z</time>
      </trkpt>
      <trkpt lat="43.29418991692364215850830078125" lon="-2.3829407058656215667724609375">
        <ele>236.399993896484375</ele>
        <time>2018-09-02T16:37:04.000Z</time>
      </trkpt>
      <trkpt lat="43.29417734406888484954833984375" lon="-2.38293525762856006622314453125">
        <ele>236.600006103515625</ele>
        <time>2018-09-02T16:37:05.000Z</time>
      </trkpt>
      <trkpt lat="43.29416661523282527923583984375" lon="-2.382931821048259735107421875">
        <ele>236.600006103515625</ele>
        <time>2018-09-02T16:37:06.000Z</time>
      </trkpt>
      <trkpt lat="43.29415597021579742431640625" lon="-2.3829272948205471038818359375">
        <ele>236.8000030517578125</ele>
        <time>2018-09-02T16:37:07.000Z</time>
      </trkpt>
      <trkpt lat="43.29414532519876956939697265625" lon="-2.382921092212200164794921875">
        <ele>236.8000030517578125</ele>
        <time>2018-09-02T16:37:08.000Z</time>
      </trkpt>
      <trkpt lat="43.29413476400077342987060546875" lon="-2.382914386689662933349609375">
        <ele>237</ele>
        <time>2018-09-02T16:37:09.000Z</time>
      </trkpt>
      <trkpt lat="43.294124789535999298095703125" lon="-2.38290810026228427886962890625">
        <ele>237</ele>
        <time>2018-09-02T16:37:10.000Z</time>
      </trkpt>
      <trkpt lat="43.2941155694425106048583984375" lon="-2.382902316749095916748046875">
        <ele>237.1999969482421875</ele>
        <time>2018-09-02T16:37:11.000Z</time>
      </trkpt>
      <trkpt lat="43.29410634934902191162109375" lon="-2.38289619795978069305419921875">
        <ele>237.1999969482421875</ele>
        <time>2018-09-02T16:37:12.000Z</time>
      </trkpt>
      <trkpt lat="43.29409620724618434906005859375" lon="-2.38288932479918003082275390625">
        <ele>237.1999969482421875</ele>
        <time>2018-09-02T16:37:13.000Z</time>
      </trkpt>
      <trkpt lat="43.2940870709717273712158203125" lon="-2.38288245163857936859130859375">
        <ele>237.399993896484375</ele>
        <time>2018-09-02T16:37:14.000Z</time>
      </trkpt>
      <trkpt lat="43.29407826997339725494384765625" lon="-2.38287608139216899871826171875">
        <ele>237.399993896484375</ele>
        <time>2018-09-02T16:37:15.000Z</time>
      </trkpt>
      <trkpt lat="43.29406653530895709991455078125" lon="-2.38287658430635929107666015625">
        <ele>237.600006103515625</ele>
        <time>2018-09-02T16:37:16.000Z</time>
      </trkpt>
      <trkpt lat="43.2940579019486904144287109375" lon="-2.38287893123924732208251953125">
        <ele>237.8000030517578125</ele>
        <time>2018-09-02T16:37:17.000Z</time>
      </trkpt>
      <trkpt lat="43.2940471731126308441162109375" lon="-2.38288362510502338409423828125">
        <ele>238.1999969482421875</ele>
        <time>2018-09-02T16:37:18.000Z</time>
      </trkpt>
      <trkpt lat="43.29403853975236415863037109375" lon="-2.3828843794763088226318359375">
        <ele>238.1999969482421875</ele>
        <time>2018-09-02T16:37:19.000Z</time>
      </trkpt>
      <trkpt lat="43.29402999021112918853759765625" lon="-2.382882200181484222412109375">
        <ele>238.399993896484375</ele>
        <time>2018-09-02T16:37:20.000Z</time>
      </trkpt>
      <trkpt lat="43.29402009956538677215576171875" lon="-2.3828786797821521759033203125">
        <ele>238.600006103515625</ele>
        <time>2018-09-02T16:37:21.000Z</time>
      </trkpt>
      <trkpt lat="43.29401087947189807891845703125" lon="-2.38287390209734439849853515625">
        <ele>238.600006103515625</ele>
        <time>2018-09-02T16:37:22.000Z</time>
      </trkpt>
      <trkpt lat="43.29400199465453624725341796875" lon="-2.3828679509460926055908203125">
        <ele>238.600006103515625</ele>
        <time>2018-09-02T16:37:23.000Z</time>
      </trkpt>
      <trkpt lat="43.29399243928492069244384765625" lon="-2.38286308944225311279296875">
        <ele>238.8000030517578125</ele>
        <time>2018-09-02T16:37:24.000Z</time>
      </trkpt>
      <trkpt lat="43.29398271627724170684814453125" lon="-2.38286040723323822021484375">
        <ele>239</ele>
        <time>2018-09-02T16:37:25.000Z</time>
      </trkpt>
      <trkpt lat="43.29397316090762615203857421875" lon="-2.3828632570803165435791015625">
        <ele>239.1999969482421875</ele>
        <time>2018-09-02T16:37:26.000Z</time>
      </trkpt>
      <trkpt lat="43.29396377317607402801513671875" lon="-2.38287138752639293670654296875">
        <ele>239.399993896484375</ele>
        <time>2018-09-02T16:37:27.000Z</time>
      </trkpt>
      <trkpt lat="43.29395589418709278106689453125" lon="-2.38287985324859619140625">
        <ele>239.8000030517578125</ele>
        <time>2018-09-02T16:37:28.000Z</time>
      </trkpt>
      <trkpt lat="43.29394667409360408782958984375" lon="-2.3828894086182117462158203125">
        <ele>240.1999969482421875</ele>
        <time>2018-09-02T16:37:29.000Z</time>
      </trkpt>
      <trkpt lat="43.2939395494759082794189453125" lon="-2.38289753906428813934326171875">
        <ele>240.399993896484375</ele>
        <time>2018-09-02T16:37:30.000Z</time>
      </trkpt>
      <trkpt lat="43.293930329382419586181640625" lon="-2.38290290348231792449951171875">
        <ele>240.600006103515625</ele>
        <time>2018-09-02T16:37:31.000Z</time>
      </trkpt>
      <trkpt lat="43.29391884617507457733154296875" lon="-2.3829091899096965789794921875">
        <ele>241</ele>
        <time>2018-09-02T16:37:32.000Z</time>
      </trkpt>
      <trkpt lat="43.2939083687961101531982421875" lon="-2.38291807472705841064453125">
        <ele>241.399993896484375</ele>
        <time>2018-09-02T16:37:33.000Z</time>
      </trkpt>
      <trkpt lat="43.29389872960746288299560546875" lon="-2.382928468286991119384765625">
        <ele>241.8000030517578125</ele>
        <time>2018-09-02T16:37:34.000Z</time>
      </trkpt>
      <trkpt lat="43.29389018006622791290283203125" lon="-2.38294062204658985137939453125">
        <ele>242.1999969482421875</ele>
        <time>2018-09-02T16:37:35.000Z</time>
      </trkpt>
      <trkpt lat="43.2938832230865955352783203125" lon="-2.382953949272632598876953125">
        <ele>242.600006103515625</ele>
        <time>2018-09-02T16:37:36.000Z</time>
      </trkpt>
      <trkpt lat="43.29387593083083629608154296875" lon="-2.38296962343156337738037109375">
        <ele>243</ele>
        <time>2018-09-02T16:37:37.000Z</time>
      </trkpt>
      <trkpt lat="43.29386939294636249542236328125" lon="-2.38298554904758930206298828125">
        <ele>243.399993896484375</ele>
        <time>2018-09-02T16:37:38.000Z</time>
      </trkpt>
      <trkpt lat="43.2938631065189838409423828125" lon="-2.38300080411136150360107421875">
        <ele>243.8000030517578125</ele>
        <time>2018-09-02T16:37:39.000Z</time>
      </trkpt>
      <trkpt lat="43.29385665245354175567626953125" lon="-2.38301706500351428985595703125">
        <ele>244.1999969482421875</ele>
        <time>2018-09-02T16:37:40.000Z</time>
      </trkpt>
      <trkpt lat="43.29385061748325824737548828125" lon="-2.38303299061954021453857421875">
        <ele>244.600006103515625</ele>
        <time>2018-09-02T16:37:41.000Z</time>
      </trkpt>
      <trkpt lat="43.293843828141689300537109375" lon="-2.38304791040718555450439453125">
        <ele>245</ele>
        <time>2018-09-02T16:37:42.000Z</time>
      </trkpt>
      <trkpt lat="43.29383670352399349212646484375" lon="-2.38306081853806972503662109375">
        <ele>245.399993896484375</ele>
        <time>2018-09-02T16:37:43.000Z</time>
      </trkpt>
      <trkpt lat="43.2938295789062976837158203125" lon="-2.3830754868686199188232421875">
        <ele>245.8000030517578125</ele>
        <time>2018-09-02T16:37:44.000Z</time>
      </trkpt>
      <trkpt lat="43.293826393783092498779296875" lon="-2.3830932565033435821533203125">
        <ele>246.1999969482421875</ele>
        <time>2018-09-02T16:37:45.000Z</time>
      </trkpt>
      <trkpt lat="43.29382446594536304473876953125" lon="-2.38311027176678180694580078125">
        <ele>246.399993896484375</ele>
        <time>2018-09-02T16:37:46.000Z</time>
      </trkpt>
      <trkpt lat="43.2938222028315067291259765625" lon="-2.383126281201839447021484375">
        <ele>246.8000030517578125</ele>
        <time>2018-09-02T16:37:47.000Z</time>
      </trkpt>
      <trkpt lat="43.293821699917316436767578125" lon="-2.38314363174140453338623046875">
        <ele>247.1999969482421875</ele>
        <time>2018-09-02T16:37:48.000Z</time>
      </trkpt>
      <trkpt lat="43.2938205264508724212646484375" lon="-2.38316056318581104278564453125">
        <ele>247.399993896484375</ele>
        <time>2018-09-02T16:37:49.000Z</time>
      </trkpt>
      <trkpt lat="43.293817676603794097900390625" lon="-2.38317749463021755218505859375">
        <ele>247.8000030517578125</ele>
        <time>2018-09-02T16:37:50.000Z</time>
      </trkpt>
      <trkpt lat="43.29381541348993778228759765625" lon="-2.38319476135075092315673828125">
        <ele>248.1999969482421875</ele>
        <time>2018-09-02T16:37:51.000Z</time>
      </trkpt>
      <trkpt lat="43.293812982738018035888671875" lon="-2.383211441338062286376953125">
        <ele>248.600006103515625</ele>
        <time>2018-09-02T16:37:52.000Z</time>
      </trkpt>
      <trkpt lat="43.29380887560546398162841796875" lon="-2.38322946242988109588623046875">
        <ele>249</ele>
        <time>2018-09-02T16:37:53.000Z</time>
      </trkpt>
      <trkpt lat="43.29380535520613193511962890625" lon="-2.38324639387428760528564453125">
        <ele>249.1999969482421875</ele>
        <time>2018-09-02T16:37:54.000Z</time>
      </trkpt>
      <trkpt lat="43.2938014157116413116455078125" lon="-2.3832619003951549530029296875">
        <ele>249.600006103515625</ele>
        <time>2018-09-02T16:37:55.000Z</time>
      </trkpt>
      <trkpt lat="43.2937970571219921112060546875" lon="-2.3832779936492443084716796875">
        <ele>250</ele>
        <time>2018-09-02T16:37:56.000Z</time>
      </trkpt>
      <trkpt lat="43.29379261471331119537353515625" lon="-2.38329350017011165618896484375">
        <ele>250.399993896484375</ele>
        <time>2018-09-02T16:37:57.000Z</time>
      </trkpt>
      <trkpt lat="43.29378792084753513336181640625" lon="-2.38330959342420101165771484375">
        <ele>250.8000030517578125</ele>
        <time>2018-09-02T16:37:58.000Z</time>
      </trkpt>
      <trkpt lat="43.29378406517207622528076171875" lon="-2.3833266086876392364501953125">
        <ele>251</ele>
        <time>2018-09-02T16:37:59.000Z</time>
      </trkpt>
      <trkpt lat="43.2937819696962833404541015625" lon="-2.38334312103688716888427734375">
        <ele>251.1999969482421875</ele>
        <time>2018-09-02T16:38:00.000Z</time>
      </trkpt>
      <trkpt lat="43.293780125677585601806640625" lon="-2.38335954956710338592529296875">
        <ele>251.600006103515625</ele>
        <time>2018-09-02T16:38:01.000Z</time>
      </trkpt>
      <trkpt lat="43.2937784492969512939453125" lon="-2.38337815739214420318603515625">
        <ele>251.8000030517578125</ele>
        <time>2018-09-02T16:38:02.000Z</time>
      </trkpt>
      <trkpt lat="43.2937776111066341400146484375" lon="-2.38339760340750217437744140625">
        <ele>252</ele>
        <time>2018-09-02T16:38:03.000Z</time>
      </trkpt>
      <trkpt lat="43.29377752728760242462158203125" lon="-2.38341704942286014556884765625">
        <ele>252.1999969482421875</ele>
        <time>2018-09-02T16:38:04.000Z</time>
      </trkpt>
      <trkpt lat="43.293778114020824432373046875" lon="-2.3834362439811229705810546875">
        <ele>252.399993896484375</ele>
        <time>2018-09-02T16:38:05.000Z</time>
      </trkpt>
      <trkpt lat="43.2937786169350147247314453125" lon="-2.38345493562519550323486328125">
        <ele>252.600006103515625</ele>
        <time>2018-09-02T16:38:06.000Z</time>
      </trkpt>
      <trkpt lat="43.29377752728760242462158203125" lon="-2.383473627269268035888671875">
        <ele>253</ele>
        <time>2018-09-02T16:38:07.000Z</time>
      </trkpt>
      <trkpt lat="43.29377450980246067047119140625" lon="-2.383491732180118560791015625">
        <ele>253.1999969482421875</ele>
        <time>2018-09-02T16:38:08.000Z</time>
      </trkpt>
      <trkpt lat="43.29376973211765289306640625" lon="-2.3835096694529056549072265625">
        <ele>253.600006103515625</ele>
        <time>2018-09-02T16:38:09.000Z</time>
      </trkpt>
      <trkpt lat="43.2937642000615596771240234375" lon="-2.3835274390876293182373046875">
        <ele>253.8000030517578125</ele>
        <time>2018-09-02T16:38:10.000Z</time>
      </trkpt>
      <trkpt lat="43.293759338557720184326171875" lon="-2.38354596309363842010498046875">
        <ele>254.1999969482421875</ele>
        <time>2018-09-02T16:38:11.000Z</time>
      </trkpt>
      <trkpt lat="43.29375623725354671478271484375" lon="-2.3835649900138378143310546875">
        <ele>254.399993896484375</ele>
        <time>2018-09-02T16:38:12.000Z</time>
      </trkpt>
      <trkpt lat="43.29375439323484897613525390625" lon="-2.3835851065814495086669921875">
        <ele>254.8000030517578125</ele>
        <time>2018-09-02T16:38:13.000Z</time>
      </trkpt>
      <trkpt lat="43.2937534712255001068115234375" lon="-2.3836053907871246337890625">
        <ele>255</ele>
        <time>2018-09-02T16:38:14.000Z</time>
      </trkpt>
      <trkpt lat="43.29375338740646839141845703125" lon="-2.383624501526355743408203125">
        <ele>255.1999969482421875</ele>
        <time>2018-09-02T16:38:15.000Z</time>
      </trkpt>
      <trkpt lat="43.29375204630196094512939453125" lon="-2.38364319317042827606201171875">
        <ele>255.399993896484375</ele>
        <time>2018-09-02T16:38:16.000Z</time>
      </trkpt>
      <trkpt lat="43.29375104047358036041259765625" lon="-2.38366180099546909332275390625">
        <ele>255.8000030517578125</ele>
        <time>2018-09-02T16:38:17.000Z</time>
      </trkpt>
      <trkpt lat="43.29375095665454864501953125" lon="-2.38367973826825618743896484375">
        <ele>256</ele>
        <time>2018-09-02T16:38:18.000Z</time>
      </trkpt>
      <trkpt lat="43.29375070519745349884033203125" lon="-2.3836977593600749969482421875">
        <ele>256.20001220703125</ele>
        <time>2018-09-02T16:38:19.000Z</time>
      </trkpt>
      <trkpt lat="43.29375087283551692962646484375" lon="-2.38371678628027439117431640625">
        <ele>256.399993896484375</ele>
        <time>2018-09-02T16:38:20.000Z</time>
      </trkpt>
      <trkpt lat="43.2937524653971195220947265625" lon="-2.3837356455624103546142578125">
        <ele>256.600006103515625</ele>
        <time>2018-09-02T16:38:21.000Z</time>
      </trkpt>
      <trkpt lat="43.2937551476061344146728515625" lon="-2.38375199027359485626220703125">
        <ele>256.79998779296875</ele>
        <time>2018-09-02T16:38:22.000Z</time>
      </trkpt>
      <trkpt lat="43.29375565052032470703125" lon="-2.38376808352768421173095703125">
        <ele>256.79998779296875</ele>
        <time>2018-09-02T16:38:23.000Z</time>
      </trkpt>
      <trkpt lat="43.29375506378710269927978515625" lon="-2.38378467969596385955810546875">
        <ele>257.20001220703125</ele>
        <time>2018-09-02T16:38:24.000Z</time>
      </trkpt>
      <trkpt lat="43.2937541417777538299560546875" lon="-2.3838016949594020843505859375">
        <ele>257.399993896484375</ele>
        <time>2018-09-02T16:38:25.000Z</time>
      </trkpt>
      <trkpt lat="43.2937528006732463836669921875" lon="-2.383816950023174285888671875">
        <ele>257.600006103515625</ele>
        <time>2018-09-02T16:38:26.000Z</time>
      </trkpt>
      <trkpt lat="43.29375137574970722198486328125" lon="-2.3838325403630733489990234375">
        <ele>257.79998779296875</ele>
        <time>2018-09-02T16:38:27.000Z</time>
      </trkpt>
      <trkpt lat="43.29375120811164379119873046875" lon="-2.3838479630649089813232421875">
        <ele>258</ele>
        <time>2018-09-02T16:38:28.000Z</time>
      </trkpt>
      <trkpt lat="43.2937548123300075531005859375" lon="-2.3838627152144908905029296875">
        <ele>258</ele>
        <time>2018-09-02T16:38:29.000Z</time>
      </trkpt>
      <trkpt lat="43.29376277513802051544189453125" lon="-2.38387537188827991485595703125">
        <ele>258.20001220703125</ele>
        <time>2018-09-02T16:38:30.000Z</time>
      </trkpt>
      <trkpt lat="43.2937715761363506317138671875" lon="-2.38388509489595890045166015625">
        <ele>258</ele>
        <time>2018-09-02T16:38:31.000Z</time>
      </trkpt>
      <trkpt lat="43.2937782816588878631591796875" lon="-2.383896075189113616943359375">
        <ele>258.20001220703125</ele>
        <time>2018-09-02T16:38:32.000Z</time>
      </trkpt>
      <trkpt lat="43.29378314316272735595703125" lon="-2.383908145129680633544921875">
        <ele>258.20001220703125</ele>
        <time>2018-09-02T16:38:33.000Z</time>
      </trkpt>
      <trkpt lat="43.29378356225788593292236328125" lon="-2.38391979597508907318115234375">
        <ele>258.399993896484375</ele>
        <time>2018-09-02T16:38:34.000Z</time>
      </trkpt>
      <trkpt lat="43.29378188587725162506103515625" lon="-2.3839324526488780975341796875">
        <ele>258.600006103515625</ele>
        <time>2018-09-02T16:38:35.000Z</time>
      </trkpt>
      <trkpt lat="43.2937853224575519561767578125" lon="-2.38394594751298427581787109375">
        <ele>258.79998779296875</ele>
        <time>2018-09-02T16:38:36.000Z</time>
      </trkpt>
      <trkpt lat="43.2937900163233280181884765625" lon="-2.38395784981548786163330078125">
        <ele>258.79998779296875</ele>
        <time>2018-09-02T16:38:37.000Z</time>
      </trkpt>
      <trkpt lat="43.29379462637007236480712890625" lon="-2.38396941684186458587646484375">
        <ele>259</ele>
        <time>2018-09-02T16:38:38.000Z</time>
      </trkpt>
      <trkpt lat="43.29379898495972156524658203125" lon="-2.38398081623017787933349609375">
        <ele>259</ele>
        <time>2018-09-02T16:38:39.000Z</time>
      </trkpt>
      <trkpt lat="43.29380015842616558074951171875" lon="-2.38399229943752288818359375">
        <ele>259.20001220703125</ele>
        <time>2018-09-02T16:38:40.000Z</time>
      </trkpt>
      <trkpt lat="43.2937994040548801422119140625" lon="-2.384006716310977935791015625">
        <ele>259.399993896484375</ele>
        <time>2018-09-02T16:38:41.000Z</time>
      </trkpt>
      <trkpt lat="43.293802253901958465576171875" lon="-2.38402138464152812957763671875">
        <ele>259.600006103515625</ele>
        <time>2018-09-02T16:38:42.000Z</time>
      </trkpt>
      <trkpt lat="43.29380569048225879669189453125" lon="-2.38403479568660259246826171875">
        <ele>259.600006103515625</ele>
        <time>2018-09-02T16:38:43.000Z</time>
      </trkpt>
      <trkpt lat="43.29380786977708339691162109375" lon="-2.384048290550708770751953125">
        <ele>259.79998779296875</ele>
        <time>2018-09-02T16:38:44.000Z</time>
      </trkpt>
      <trkpt lat="43.293812312185764312744140625" lon="-2.38406044431030750274658203125">
        <ele>260</ele>
        <time>2018-09-02T16:38:45.000Z</time>
      </trkpt>
      <trkpt lat="43.29381474293768405914306640625" lon="-2.38407318480312824249267578125">
        <ele>260</ele>
        <time>2018-09-02T16:38:46.000Z</time>
      </trkpt>
      <trkpt lat="43.293819017708301544189453125" lon="-2.3840868473052978515625">
        <ele>260.20001220703125</ele>
        <time>2018-09-02T16:38:47.000Z</time>
      </trkpt>
      <trkpt lat="43.293825723230838775634765625" lon="-2.38409900106489658355712890625">
        <ele>260.20001220703125</ele>
        <time>2018-09-02T16:38:48.000Z</time>
      </trkpt>
      <trkpt lat="43.29382999800145626068115234375" lon="-2.3841091431677341461181640625">
        <ele>260.399993896484375</ele>
        <time>2018-09-02T16:38:49.000Z</time>
      </trkpt>
      <trkpt lat="43.29382899217307567596435546875" lon="-2.38412104547023773193359375">
        <ele>260.600006103515625</ele>
        <time>2018-09-02T16:38:50.000Z</time>
      </trkpt>
      <trkpt lat="43.293830417096614837646484375" lon="-2.38413512706756591796875">
        <ele>260.79998779296875</ele>
        <time>2018-09-02T16:38:51.000Z</time>
      </trkpt>
      <trkpt lat="43.2938336022198200225830078125" lon="-2.38414912484586238861083984375">
        <ele>260.79998779296875</ele>
        <time>2018-09-02T16:38:52.000Z</time>
      </trkpt>
      <trkpt lat="43.29383812844753265380859375" lon="-2.38416220061480998992919921875">
        <ele>260.79998779296875</ele>
        <time>2018-09-02T16:38:53.000Z</time>
      </trkpt>
      <trkpt lat="43.29384290613234043121337890625" lon="-2.384175360202789306640625">
        <ele>260.79998779296875</ele>
        <time>2018-09-02T16:38:54.000Z</time>
      </trkpt>
      <trkpt lat="43.2938480190932750701904296875" lon="-2.3841882683336734771728515625">
        <ele>260.79998779296875</ele>
        <time>2018-09-02T16:38:55.000Z</time>
      </trkpt>
      <trkpt lat="43.29385212622582912445068359375" lon="-2.38420159555971622467041015625">
        <ele>260.79998779296875</ele>
        <time>2018-09-02T16:38:56.000Z</time>
      </trkpt>
      <trkpt lat="43.2938560657203197479248046875" lon="-2.3842147551476955413818359375">
        <ele>260.79998779296875</ele>
        <time>2018-09-02T16:38:57.000Z</time>
      </trkpt>
      <trkpt lat="43.29386050812900066375732421875" lon="-2.384227998554706573486328125">
        <ele>260.79998779296875</ele>
        <time>2018-09-02T16:38:58.000Z</time>
      </trkpt>
      <trkpt lat="43.29386402852833271026611328125" lon="-2.38424283452332019805908203125">
        <ele>260.79998779296875</ele>
        <time>2018-09-02T16:38:59.000Z</time>
      </trkpt>
      <trkpt lat="43.2938681356608867645263671875" lon="-2.38425607793033123016357421875">
        <ele>260.79998779296875</ele>
        <time>2018-09-02T16:39:00.000Z</time>
      </trkpt>
      <trkpt lat="43.293871320784091949462890625" lon="-2.38426865078508853912353515625">
        <ele>261</ele>
        <time>2018-09-02T16:39:01.000Z</time>
      </trkpt>
      <trkpt lat="43.29387475736439228057861328125" lon="-2.38428357057273387908935546875">
        <ele>261</ele>
        <time>2018-09-02T16:39:02.000Z</time>
      </trkpt>
      <trkpt lat="43.29387861303985118865966796875" lon="-2.38429899327456951141357421875">
        <ele>261</ele>
        <time>2018-09-02T16:39:03.000Z</time>
      </trkpt>
      <trkpt lat="43.2938835583627223968505859375" lon="-2.384312488138675689697265625">
        <ele>261</ele>
        <time>2018-09-02T16:39:04.000Z</time>
      </trkpt>
      <trkpt lat="43.2938889227807521820068359375" lon="-2.38432548008859157562255859375">
        <ele>261</ele>
        <time>2018-09-02T16:39:05.000Z</time>
      </trkpt>
      <trkpt lat="43.2938939519226551055908203125" lon="-2.38433805294334888458251953125">
        <ele>261</ele>
        <time>2018-09-02T16:39:06.000Z</time>
      </trkpt>
      <trkpt lat="43.2938969694077968597412109375" lon="-2.3843512125313282012939453125">
        <ele>261</ele>
        <time>2018-09-02T16:39:07.000Z</time>
      </trkpt>
      <trkpt lat="43.2938986457884311676025390625" lon="-2.38436378538608551025390625">
        <ele>261</ele>
        <time>2018-09-02T16:39:08.000Z</time>
      </trkpt>
      <trkpt lat="43.2938999868929386138916015625" lon="-2.38437795080244541168212890625">
        <ele>261</ele>
        <time>2018-09-02T16:39:09.000Z</time>
      </trkpt>
      <trkpt lat="43.29390342347323894500732421875" lon="-2.384392283856868743896484375">
        <ele>261.20001220703125</ele>
        <time>2018-09-02T16:39:10.000Z</time>
      </trkpt>
      <trkpt lat="43.29391063190996646881103515625" lon="-2.3844046890735626220703125">
        <ele>261</ele>
        <time>2018-09-02T16:39:11.000Z</time>
      </trkpt>
      <trkpt lat="43.29391851089894771575927734375" lon="-2.38441483117640018463134765625">
        <ele>261</ele>
        <time>2018-09-02T16:39:12.000Z</time>
      </trkpt>
      <trkpt lat="43.2939264737069606781005859375" lon="-2.38442371599376201629638671875">
        <ele>261</ele>
        <time>2018-09-02T16:39:13.000Z</time>
      </trkpt>
      <trkpt lat="43.2939335145056247711181640625" lon="-2.384433858096599578857421875">
        <ele>260.79998779296875</ele>
        <time>2018-09-02T16:39:14.000Z</time>
      </trkpt>
      <trkpt lat="43.29394047148525714874267578125" lon="-2.3844447545707225799560546875">
        <ele>260.79998779296875</ele>
        <time>2018-09-02T16:39:15.000Z</time>
      </trkpt>
      <trkpt lat="43.2939475961029529571533203125" lon="-2.38445590250194072723388671875">
        <ele>260.79998779296875</ele>
        <time>2018-09-02T16:39:16.000Z</time>
      </trkpt>
      <trkpt lat="43.2939536310732364654541015625" lon="-2.38446696661412715911865234375">
        <ele>260.79998779296875</ele>
        <time>2018-09-02T16:39:17.000Z</time>
      </trkpt>
      <trkpt lat="43.29395673237740993499755859375" lon="-2.38447953946888446807861328125">
        <ele>260.79998779296875</ele>
        <time>2018-09-02T16:39:18.000Z</time>
      </trkpt>
      <trkpt lat="43.29395924694836139678955078125" lon="-2.38449362106621265411376953125">
        <ele>260.79998779296875</ele>
        <time>2018-09-02T16:39:19.000Z</time>
      </trkpt>
      <trkpt lat="43.29396310262382030487060546875" lon="-2.38450736738741397857666015625">
        <ele>261</ele>
        <time>2018-09-02T16:39:20.000Z</time>
      </trkpt>
      <trkpt lat="43.293966539204120635986328125" lon="-2.38452027551829814910888671875">
        <ele>261</ele>
        <time>2018-09-02T16:39:21.000Z</time>
      </trkpt>
      <trkpt lat="43.293971233069896697998046875" lon="-2.38453469239175319671630859375">
        <ele>261.20001220703125</ele>
        <time>2018-09-02T16:39:22.000Z</time>
      </trkpt>
      <trkpt lat="43.2939781062304973602294921875" lon="-2.3845510371029376983642578125">
        <ele>261.399993896484375</ele>
        <time>2018-09-02T16:39:23.000Z</time>
      </trkpt>
      <trkpt lat="43.29398556612432003021240234375" lon="-2.384565956890583038330078125">
        <ele>261.399993896484375</ele>
        <time>2018-09-02T16:39:24.000Z</time>
      </trkpt>
      <trkpt lat="43.2939903438091278076171875" lon="-2.3845790326595306396484375">
        <ele>261.600006103515625</ele>
        <time>2018-09-02T16:39:25.000Z</time>
      </trkpt>
      <trkpt lat="43.29399327747523784637451171875" lon="-2.38459286279976367950439453125">
        <ele>261.600006103515625</ele>
        <time>2018-09-02T16:39:26.000Z</time>
      </trkpt>
      <trkpt lat="43.293996714055538177490234375" lon="-2.384607531130313873291015625">
        <ele>261.79998779296875</ele>
        <time>2018-09-02T16:39:27.000Z</time>
      </trkpt>
      <trkpt lat="43.29400132410228252410888671875" lon="-2.38462261855602264404296875">
        <ele>262</ele>
        <time>2018-09-02T16:39:28.000Z</time>
      </trkpt>
      <trkpt lat="43.2940066047012805938720703125" lon="-2.38463602960109710693359375">
        <ele>262</ele>
        <time>2018-09-02T16:39:29.000Z</time>
      </trkpt>
      <trkpt lat="43.29401205293834209442138671875" lon="-2.38464944064617156982421875">
        <ele>262.20001220703125</ele>
        <time>2018-09-02T16:39:30.000Z</time>
      </trkpt>
      <trkpt lat="43.29401741735637187957763671875" lon="-2.38466293551027774810791015625">
        <ele>262.20001220703125</ele>
        <time>2018-09-02T16:39:31.000Z</time>
      </trkpt>
      <trkpt lat="43.2940223626792430877685546875" lon="-2.38467735238373279571533203125">
        <ele>262.399993896484375</ele>
        <time>2018-09-02T16:39:32.000Z</time>
      </trkpt>
      <trkpt lat="43.29402730800211429595947265625" lon="-2.38469260744750499725341796875">
        <ele>262.399993896484375</ele>
        <time>2018-09-02T16:39:33.000Z</time>
      </trkpt>
      <trkpt lat="43.29403166659176349639892578125" lon="-2.384708784520626068115234375">
        <ele>262.600006103515625</ele>
        <time>2018-09-02T16:39:34.000Z</time>
      </trkpt>
      <trkpt lat="43.29403552226722240447998046875" lon="-2.38472462631762027740478515625">
        <ele>262.79998779296875</ele>
        <time>2018-09-02T16:39:35.000Z</time>
      </trkpt>
      <trkpt lat="43.29404071904718875885009765625" lon="-2.38474122248589992523193359375">
        <ele>263</ele>
        <time>2018-09-02T16:39:36.000Z</time>
      </trkpt>
      <trkpt lat="43.29404742456972599029541015625" lon="-2.384757064282894134521484375">
        <ele>263</ele>
        <time>2018-09-02T16:39:37.000Z</time>
      </trkpt>
      <trkpt lat="43.2940520346164703369140625" lon="-2.38477106206119060516357421875">
        <ele>263.20001220703125</ele>
        <time>2018-09-02T16:39:38.000Z</time>
      </trkpt>
      <trkpt lat="43.294055052101612091064453125" lon="-2.384785898029804229736328125">
        <ele>263.399993896484375</ele>
        <time>2018-09-02T16:39:39.000Z</time>
      </trkpt>
      <trkpt lat="43.29405605792999267578125" lon="-2.38480207510292530059814453125">
        <ele>263.399993896484375</ele>
        <time>2018-09-02T16:39:40.000Z</time>
      </trkpt>
      <trkpt lat="43.29405815340578556060791015625" lon="-2.38481967709958553314208984375">
        <ele>263.600006103515625</ele>
        <time>2018-09-02T16:39:41.000Z</time>
      </trkpt>
      <trkpt lat="43.2940595783293247222900390625" lon="-2.3848356865346431732177734375">
        <ele>263.79998779296875</ele>
        <time>2018-09-02T16:39:42.000Z</time>
      </trkpt>
      <trkpt lat="43.29406150616705417633056640625" lon="-2.38485069014132022857666015625">
        <ele>264</ele>
        <time>2018-09-02T16:39:43.000Z</time>
      </trkpt>
      <trkpt lat="43.29406670294702053070068359375" lon="-2.38486410118639469146728515625">
        <ele>264.20001220703125</ele>
        <time>2018-09-02T16:39:44.000Z</time>
      </trkpt>
      <trkpt lat="43.29407240264117717742919921875" lon="-2.38487583585083484649658203125">
        <ele>264.20001220703125</ele>
        <time>2018-09-02T16:39:45.000Z</time>
      </trkpt>
      <trkpt lat="43.294074833393096923828125" lon="-2.3848879896104335784912109375">
        <ele>264.399993896484375</ele>
        <time>2018-09-02T16:39:46.000Z</time>
      </trkpt>
      <trkpt lat="43.29407542012631893157958984375" lon="-2.3849014006555080413818359375">
        <ele>264.399993896484375</ele>
        <time>2018-09-02T16:39:47.000Z</time>
      </trkpt>
      <trkpt lat="43.294075168669223785400390625" lon="-2.384917326271533966064453125">
        <ele>264.600006103515625</ele>
        <time>2018-09-02T16:39:48.000Z</time>
      </trkpt>
      <trkpt lat="43.29407575540244579315185546875" lon="-2.38493383862078189849853515625">
        <ele>264.79998779296875</ele>
        <time>2018-09-02T16:39:49.000Z</time>
      </trkpt>
      <trkpt lat="43.29407424665987491607666015625" lon="-2.38495043478906154632568359375">
        <ele>265</ele>
        <time>2018-09-02T16:39:50.000Z</time>
      </trkpt>
      <trkpt lat="43.29406955279409885406494140625" lon="-2.3849620856344699859619140625">
        <ele>265.20001220703125</ele>
        <time>2018-09-02T16:39:51.000Z</time>
      </trkpt>
      <trkpt lat="43.2940609194338321685791015625" lon="-2.3849748261272907257080078125">
        <ele>265.600006103515625</ele>
        <time>2018-09-02T16:39:52.000Z</time>
      </trkpt>
      <trkpt lat="43.29405295662581920623779296875" lon="-2.38498865626752376556396484375">
        <ele>265.600006103515625</ele>
        <time>2018-09-02T16:39:53.000Z</time>
      </trkpt>
      <trkpt lat="43.29404591582715511322021484375" lon="-2.38500005565583705902099609375">
        <ele>265.600006103515625</ele>
        <time>2018-09-02T16:39:54.000Z</time>
      </trkpt>
      <trkpt lat="43.2940391264855861663818359375" lon="-2.3850123770534992218017578125">
        <ele>265.79998779296875</ele>
        <time>2018-09-02T16:39:55.000Z</time>
      </trkpt>
      <trkpt lat="43.29403258860111236572265625" lon="-2.38502671010792255401611328125">
        <ele>265.79998779296875</ele>
        <time>2018-09-02T16:39:56.000Z</time>
      </trkpt>
      <trkpt lat="43.29403082840144634246826171875" lon="-2.385042719542980194091796875">
        <ele>265.79998779296875</ele>
        <time>2018-09-02T16:39:57.000Z</time>
      </trkpt>
      <trkpt lat="43.294032923877239227294921875" lon="-2.3850579746067523956298828125">
        <ele>265.600006103515625</ele>
        <time>2018-09-02T16:39:58.000Z</time>
      </trkpt>
      <trkpt lat="43.29403669573366641998291015625" lon="-2.38507214002311229705810546875">
        <ele>265.600006103515625</ele>
        <time>2018-09-02T16:39:59.000Z</time>
      </trkpt>
      <trkpt lat="43.2940414734184741973876953125" lon="-2.38508471287786960601806640625">
        <ele>265.600006103515625</ele>
        <time>2018-09-02T16:40:00.000Z</time>
      </trkpt>
      <trkpt lat="43.29404574818909168243408203125" lon="-2.3850978724658489227294921875">
        <ele>265.399993896484375</ele>
        <time>2018-09-02T16:40:01.000Z</time>
      </trkpt>
      <trkpt lat="43.29405010677874088287353515625" lon="-2.3851116187870502471923828125">
        <ele>265.399993896484375</ele>
        <time>2018-09-02T16:40:02.000Z</time>
      </trkpt>
      <trkpt lat="43.29405513592064380645751953125" lon="-2.38512553274631500244140625">
        <ele>265.20001220703125</ele>
        <time>2018-09-02T16:40:03.000Z</time>
      </trkpt>
      <trkpt lat="43.2940579019486904144287109375" lon="-2.385138608515262603759765625">
        <ele>265.20001220703125</ele>
        <time>2018-09-02T16:40:04.000Z</time>
      </trkpt>
      <trkpt lat="43.2940582372248172760009765625" lon="-2.38515294156968593597412109375">
        <ele>265.20001220703125</ele>
        <time>2018-09-02T16:40:05.000Z</time>
      </trkpt>
      <trkpt lat="43.2940562255680561065673828125" lon="-2.3851689510047435760498046875">
        <ele>265.20001220703125</ele>
        <time>2018-09-02T16:40:06.000Z</time>
      </trkpt>
      <trkpt lat="43.29405538737773895263671875" lon="-2.38518563099205493927001953125">
        <ele>265.20001220703125</ele>
        <time>2018-09-02T16:40:07.000Z</time>
      </trkpt>
      <trkpt lat="43.2940565608441829681396484375" lon="-2.3852021433413028717041015625">
        <ele>265</ele>
        <time>2018-09-02T16:40:08.000Z</time>
      </trkpt>
      <trkpt lat="43.2940582372248172760009765625" lon="-2.3852175660431385040283203125">
        <ele>265</ele>
        <time>2018-09-02T16:40:09.000Z</time>
      </trkpt>
      <trkpt lat="43.29406234435737133026123046875" lon="-2.38523290492594242095947265625">
        <ele>265</ele>
        <time>2018-09-02T16:40:10.000Z</time>
      </trkpt>
      <trkpt lat="43.29406603239476680755615234375" lon="-2.385247908532619476318359375">
        <ele>265.20001220703125</ele>
        <time>2018-09-02T16:40:11.000Z</time>
      </trkpt>
      <trkpt lat="43.29406770877540111541748046875" lon="-2.3852638341486454010009765625">
        <ele>265.20001220703125</ele>
        <time>2018-09-02T16:40:12.000Z</time>
      </trkpt>
      <trkpt lat="43.294067792594432830810546875" lon="-2.38528235815465450286865234375">
        <ele>265.20001220703125</ele>
        <time>2018-09-02T16:40:13.000Z</time>
      </trkpt>
      <trkpt lat="43.2940681278705596923828125" lon="-2.3853000439703464508056640625">
        <ele>265.399993896484375</ele>
        <time>2018-09-02T16:40:14.000Z</time>
      </trkpt>
      <trkpt lat="43.29406972043216228485107421875" lon="-2.385318316519260406494140625">
        <ele>265.399993896484375</ele>
        <time>2018-09-02T16:40:15.000Z</time>
      </trkpt>
      <trkpt lat="43.29407223500311374664306640625" lon="-2.38533667288720607757568359375">
        <ele>265.600006103515625</ele>
        <time>2018-09-02T16:40:16.000Z</time>
      </trkpt>
      <trkpt lat="43.294074833393096923828125" lon="-2.3853556998074054718017578125">
        <ele>265.600006103515625</ele>
        <time>2018-09-02T16:40:17.000Z</time>
      </trkpt>
      <trkpt lat="43.29407826997339725494384765625" lon="-2.385375984013080596923828125">
        <ele>265.600006103515625</ele>
        <time>2018-09-02T16:40:18.000Z</time>
      </trkpt>
      <trkpt lat="43.29408095218241214752197265625" lon="-2.3853976093232631683349609375">
        <ele>265.79998779296875</ele>
        <time>2018-09-02T16:40:19.000Z</time>
      </trkpt>
      <trkpt lat="43.29408229328691959381103515625" lon="-2.385418899357318878173828125">
        <ele>265.79998779296875</ele>
        <time>2018-09-02T16:40:20.000Z</time>
      </trkpt>
      <trkpt lat="43.29408095218241214752197265625" lon="-2.3854378424584865570068359375">
        <ele>266</ele>
        <time>2018-09-02T16:40:21.000Z</time>
      </trkpt>
      <trkpt lat="43.29407961107790470123291015625" lon="-2.38545812666416168212890625">
        <ele>266</ele>
        <time>2018-09-02T16:40:22.000Z</time>
      </trkpt>
      <trkpt lat="43.294080533087253570556640625" lon="-2.38547866232693195343017578125">
        <ele>266.20001220703125</ele>
        <time>2018-09-02T16:40:23.000Z</time>
      </trkpt>
      <trkpt lat="43.2940810360014438629150390625" lon="-2.38549835979938507080078125">
        <ele>266.20001220703125</ele>
        <time>2018-09-02T16:40:24.000Z</time>
      </trkpt>
      <trkpt lat="43.29408212564885616302490234375" lon="-2.3855183087289333343505859375">
        <ele>266.399993896484375</ele>
        <time>2018-09-02T16:40:25.000Z</time>
      </trkpt>
      <trkpt lat="43.29408355057239532470703125" lon="-2.38553901202976703643798828125">
        <ele>266.399993896484375</ele>
        <time>2018-09-02T16:40:26.000Z</time>
      </trkpt>
      <trkpt lat="43.29408363439142704010009765625" lon="-2.38556097261607646942138671875">
        <ele>266.600006103515625</ele>
        <time>2018-09-02T16:40:27.000Z</time>
      </trkpt>
      <trkpt lat="43.29408229328691959381103515625" lon="-2.3855846934020519256591796875">
        <ele>266.600006103515625</ele>
        <time>2018-09-02T16:40:28.000Z</time>
      </trkpt>
      <trkpt lat="43.29408028163015842437744140625" lon="-2.3856125213205814361572265625">
        <ele>266.79998779296875</ele>
        <time>2018-09-02T16:40:29.000Z</time>
      </trkpt>
      <trkpt lat="43.2940788567066192626953125" lon="-2.38564026542007923126220703125">
        <ele>267</ele>
        <time>2018-09-02T16:40:30.000Z</time>
      </trkpt>
      <trkpt lat="43.29407684504985809326171875" lon="-2.3856638185679912567138671875">
        <ele>267</ele>
        <time>2018-09-02T16:40:31.000Z</time>
      </trkpt>
      <trkpt lat="43.29407374374568462371826171875" lon="-2.385686449706554412841796875">
        <ele>267.20001220703125</ele>
        <time>2018-09-02T16:40:32.000Z</time>
      </trkpt>
      <trkpt lat="43.29407089389860630035400390625" lon="-2.3857117630541324615478515625">
        <ele>267.399993896484375</ele>
        <time>2018-09-02T16:40:33.000Z</time>
      </trkpt>
      <trkpt lat="43.29406745731830596923828125" lon="-2.3857350647449493408203125">
        <ele>267.399993896484375</ele>
        <time>2018-09-02T16:40:34.000Z</time>
      </trkpt>
      <trkpt lat="43.29406301490962505340576171875" lon="-2.3857587017118930816650390625">
        <ele>267.600006103515625</ele>
        <time>2018-09-02T16:40:35.000Z</time>
      </trkpt>
      <trkpt lat="43.29405806958675384521484375" lon="-2.3857828415930271148681640625">
        <ele>267.79998779296875</ele>
        <time>2018-09-02T16:40:36.000Z</time>
      </trkpt>
      <trkpt lat="43.2940508611500263214111328125" lon="-2.38580673001706600189208984375">
        <ele>267.79998779296875</ele>
        <time>2018-09-02T16:40:37.000Z</time>
      </trkpt>
      <trkpt lat="43.294045664370059967041015625" lon="-2.38583271391689777374267578125">
        <ele>267.79998779296875</ele>
        <time>2018-09-02T16:40:38.000Z</time>
      </trkpt>
      <trkpt lat="43.29404306598007678985595703125" lon="-2.38585869781672954559326171875">
        <ele>267.79998779296875</ele>
        <time>2018-09-02T16:40:39.000Z</time>
      </trkpt>
      <trkpt lat="43.29404256306588649749755859375" lon="-2.38588518463075160980224609375">
        <ele>267.600006103515625</ele>
        <time>2018-09-02T16:40:40.000Z</time>
      </trkpt>
      <trkpt lat="43.2940404675900936126708984375" lon="-2.385912425816059112548828125">
        <ele>267.399993896484375</ele>
        <time>2018-09-02T16:40:41.000Z</time>
      </trkpt>
      <trkpt lat="43.29403803683817386627197265625" lon="-2.385941930115222930908203125">
        <ele>267.399993896484375</ele>
        <time>2018-09-02T16:40:42.000Z</time>
      </trkpt>
      <trkpt lat="43.294036276638507843017578125" lon="-2.38597369752824306488037109375">
        <ele>267.20001220703125</ele>
        <time>2018-09-02T16:40:43.000Z</time>
      </trkpt>
      <trkpt lat="43.29403451643884181976318359375" lon="-2.3860017769038677215576171875">
        <ele>267</ele>
        <time>2018-09-02T16:40:44.000Z</time>
      </trkpt>
      <trkpt lat="43.2940317504107952117919921875" lon="-2.38603035919368267059326171875">
        <ele>267</ele>
        <time>2018-09-02T16:40:45.000Z</time>
      </trkpt>
      <trkpt lat="43.29403066076338291168212890625" lon="-2.38606422208249568939208984375">
        <ele>266.79998779296875</ele>
        <time>2018-09-02T16:40:46.000Z</time>
      </trkpt>
      <trkpt lat="43.29403392970561981201171875" lon="-2.38610294647514820098876953125">
        <ele>266.600006103515625</ele>
        <time>2018-09-02T16:40:47.000Z</time>
      </trkpt>
      <trkpt lat="43.294038288295269012451171875" lon="-2.3861419223248958587646484375">
        <ele>266.20001220703125</ele>
        <time>2018-09-02T16:40:48.000Z</time>
      </trkpt>
      <trkpt lat="43.2940364442765712738037109375" lon="-2.386184670031070709228515625">
        <ele>266</ele>
        <time>2018-09-02T16:40:49.000Z</time>
      </trkpt>
      <trkpt lat="43.29402496106922626495361328125" lon="-2.3862270824611186981201171875">
        <ele>265.79998779296875</ele>
        <time>2018-09-02T16:40:50.000Z</time>
      </trkpt>
      <trkpt lat="43.294010460376739501953125" lon="-2.38626706413924694061279296875">
        <ele>265.600006103515625</ele>
        <time>2018-09-02T16:40:51.000Z</time>
      </trkpt>
      <trkpt lat="43.29398757778108119964599609375" lon="-2.38630847074091434478759765625">
        <ele>265.600006103515625</ele>
        <time>2018-09-02T16:40:52.000Z</time>
      </trkpt>
      <trkpt lat="43.2939522899687290191650390625" lon="-2.3863492906093597412109375">
        <ele>265.399993896484375</ele>
        <time>2018-09-02T16:40:53.000Z</time>
      </trkpt>
      <trkpt lat="43.29390962608158588409423828125" lon="-2.3863814771175384521484375">
        <ele>265.399993896484375</ele>
        <time>2018-09-02T16:40:54.000Z</time>
      </trkpt>
      <trkpt lat="43.293865621089935302734375" lon="-2.38639899529516696929931640625">
        <ele>265.600006103515625</ele>
        <time>2018-09-02T16:40:55.000Z</time>
      </trkpt>
      <trkpt lat="43.2938258908689022064208984375" lon="-2.3864071257412433624267578125">
        <ele>265.79998779296875</ele>
        <time>2018-09-02T16:40:56.000Z</time>
      </trkpt>
      <trkpt lat="43.2937923632562160491943359375" lon="-2.3864114843308925628662109375">
        <ele>265.79998779296875</ele>
        <time>2018-09-02T16:40:57.000Z</time>
      </trkpt>
      <trkpt lat="43.293760009109973907470703125" lon="-2.38641140051186084747314453125">
        <ele>266</ele>
        <time>2018-09-02T16:40:58.000Z</time>
      </trkpt>
      <trkpt lat="43.2937263138592243194580078125" lon="-2.38640922121703624725341796875">
        <ele>266.20001220703125</ele>
        <time>2018-09-02T16:40:59.000Z</time>
      </trkpt>
      <trkpt lat="43.2936927862465381622314453125" lon="-2.38640368916094303131103515625">
        <ele>266.399993896484375</ele>
        <time>2018-09-02T16:41:00.000Z</time>
      </trkpt>
      <trkpt lat="43.29366185702383518218994140625" lon="-2.38639899529516696929931640625">
        <ele>266.399993896484375</ele>
        <time>2018-09-02T16:41:01.000Z</time>
      </trkpt>
      <trkpt lat="43.29363469965755939483642578125" lon="-2.38639798946678638458251953125">
        <ele>266.600006103515625</ele>
        <time>2018-09-02T16:41:02.000Z</time>
      </trkpt>
      <trkpt lat="43.293609805405139923095703125" lon="-2.38639731891453266143798828125">
        <ele>266.600006103515625</ele>
        <time>2018-09-02T16:41:03.000Z</time>
      </trkpt>
      <trkpt lat="43.2935895211994647979736328125" lon="-2.386397905647754669189453125">
        <ele>266.79998779296875</ele>
        <time>2018-09-02T16:41:04.000Z</time>
      </trkpt>
      <trkpt lat="43.29357124865055084228515625" lon="-2.3863987438380718231201171875">
        <ele>266.79998779296875</ele>
        <time>2018-09-02T16:41:05.000Z</time>
      </trkpt>
      <trkpt lat="43.29355305992066860198974609375" lon="-2.386397905647754669189453125">
        <ele>266.79998779296875</ele>
        <time>2018-09-02T16:41:06.000Z</time>
      </trkpt>
      <trkpt lat="43.2935382239520549774169921875" lon="-2.38639849238097667694091796875">
        <ele>267</ele>
        <time>2018-09-02T16:41:07.000Z</time>
      </trkpt>
      <trkpt lat="43.29353093169629573822021484375" lon="-2.38639933057129383087158203125">
        <ele>267</ele>
        <time>2018-09-02T16:41:08.000Z</time>
      </trkpt>
      <trkpt lat="43.29352791421115398406982421875" lon="-2.3863977380096912384033203125">
        <ele>267</ele>
        <time>2018-09-02T16:41:09.000Z</time>
      </trkpt>
      <trkpt lat="43.29352699220180511474609375" lon="-2.386397235095500946044921875">
        <ele>267</ele>
        <time>2018-09-02T16:41:10.000Z</time>
      </trkpt>
      <trkpt lat="43.29352456144988536834716796875" lon="-2.3863937146961688995361328125">
        <ele>267</ele>
        <time>2018-09-02T16:41:11.000Z</time>
      </trkpt>
      <trkpt lat="43.29352271743118762969970703125" lon="-2.38639195449650287628173828125">
        <ele>267</ele>
        <time>2018-09-02T16:41:12.000Z</time>
      </trkpt>
      <trkpt lat="43.29352028667926788330078125" lon="-2.38638994283974170684814453125">
        <ele>267</ele>
        <time>2018-09-02T16:41:13.000Z</time>
      </trkpt>
      <trkpt lat="43.293518610298633575439453125" lon="-2.38638885319232940673828125">
        <ele>267</ele>
        <time>2018-09-02T16:41:14.000Z</time>
      </trkpt>
      <trkpt lat="43.2935181073844432830810546875" lon="-2.38638809882104396820068359375">
        <ele>267</ele>
        <time>2018-09-02T16:41:15.000Z</time>
      </trkpt>
      <trkpt lat="43.29351852647960186004638671875" lon="-2.38638793118298053741455078125">
        <ele>267</ele>
        <time>2018-09-02T16:41:16.000Z</time>
      </trkpt>
      <trkpt lat="43.293520621955394744873046875" lon="-2.38638742826879024505615234375">
        <ele>267</ele>
        <time>2018-09-02T16:41:17.000Z</time>
      </trkpt>
      <trkpt lat="43.29352087341248989105224609375" lon="-2.386388517916202545166015625">
        <ele>267</ele>
        <time>2018-09-02T16:41:18.000Z</time>
      </trkpt>
      <trkpt lat="43.293520621955394744873046875" lon="-2.38638759590685367584228515625">
        <ele>267</ele>
        <time>2018-09-02T16:41:19.000Z</time>
      </trkpt>
      <trkpt lat="43.29351802356541156768798828125" lon="-2.3863876797258853912353515625">
        <ele>267</ele>
        <time>2018-09-02T16:41:20.000Z</time>
      </trkpt>
      <trkpt lat="43.2933890" lon="-2.3863690">
        <ele>291.8</ele>
        <time>2018-09-03T05:49:43Z</time>
      </trkpt>
      <trkpt lat="43.2933770" lon="-2.3863720">
        <ele>291.8</ele>
        <time>2018-09-03T05:49:44Z</time>
      </trkpt>
      <trkpt lat="43.2933610" lon="-2.3863750">
        <ele>291.4</ele>
        <time>2018-09-03T05:49:45Z</time>
      </trkpt>
      <trkpt lat="43.2933420" lon="-2.3863800">
        <ele>290.8</ele>
        <time>2018-09-03T05:49:46Z</time>
      </trkpt>
      <trkpt lat="43.2933230" lon="-2.3863860">
        <ele>290.4</ele>
        <time>2018-09-03T05:49:47Z</time>
      </trkpt>
      <trkpt lat="43.2932900" lon="-2.3863990">
        <ele>290.0</ele>
        <time>2018-09-03T05:49:48Z</time>
      </trkpt>
      <trkpt lat="43.2932500" lon="-2.3864170">
        <ele>289.4</ele>
        <time>2018-09-03T05:49:49Z</time>
      </trkpt>
      <trkpt lat="43.2930750" lon="-2.3866000">
        <ele>289.6</ele>
        <time>2018-09-03T05:49:58Z</time>
      </trkpt>
      <trkpt lat="43.2930710" lon="-2.3865720">
        <ele>289.6</ele>
        <time>2018-09-03T05:50:01Z</time>
      </trkpt>
      <trkpt lat="43.2930880" lon="-2.3865570">
        <ele>289.6</ele>
        <time>2018-09-03T05:50:02Z</time>
      </trkpt>
      <trkpt lat="43.2931170" lon="-2.3866350">
        <ele>289.6</ele>
        <time>2018-09-03T05:50:07Z</time>
      </trkpt>
      <trkpt lat="43.2930890" lon="-2.3868390">
        <ele>289.6</ele>
        <time>2018-09-03T05:50:12Z</time>
      </trkpt>
      <trkpt lat="43.2930580" lon="-2.3869880">
        <ele>289.6</ele>
        <time>2018-09-03T05:50:14Z</time>
      </trkpt>
      <trkpt lat="43.2930340" lon="-2.3871530">
        <ele>289.6</ele>
        <time>2018-09-03T05:50:16Z</time>
      </trkpt>
      <trkpt lat="43.2929890" lon="-2.3874060">
        <ele>288.2</ele>
        <time>2018-09-03T05:50:19Z</time>
      </trkpt>
      <trkpt lat="43.2929420" lon="-2.3876480">
        <ele>287.0</ele>
        <time>2018-09-03T05:50:21Z</time>
      </trkpt>
      <trkpt lat="43.2929440" lon="-2.3877780">
        <ele>285.8</ele>
        <time>2018-09-03T05:50:22Z</time>
      </trkpt>
      <trkpt lat="43.2929550" lon="-2.3878980">
        <ele>284.4</ele>
        <time>2018-09-03T05:50:23Z</time>
      </trkpt>
      <trkpt lat="43.2930270" lon="-2.3880920">
        <ele>282.6</ele>
        <time>2018-09-03T05:50:25Z</time>
      </trkpt>
      <trkpt lat="43.2930640" lon="-2.3882470">
        <ele>281.2</ele>
        <time>2018-09-03T05:50:27Z</time>
      </trkpt>
      <trkpt lat="43.2931410" lon="-2.3883260">
        <ele>280.6</ele>
        <time>2018-09-03T05:50:30Z</time>
      </trkpt>
      <trkpt lat="43.2932220" lon="-2.3883720">
        <ele>280.4</ele>
        <time>2018-09-03T05:50:32Z</time>
      </trkpt>
      <trkpt lat="43.2932840" lon="-2.3884220">
        <ele>279.8</ele>
        <time>2018-09-03T05:50:33Z</time>
      </trkpt>
      <trkpt lat="43.2934910" lon="-2.3886190">
        <ele>278.8</ele>
        <time>2018-09-03T05:50:36Z</time>
      </trkpt>
      <trkpt lat="43.2935430" lon="-2.3887340">
        <ele>278.4</ele>
        <time>2018-09-03T05:50:37Z</time>
      </trkpt>
      <trkpt lat="43.2936030" lon="-2.3888620">
        <ele>278.2</ele>
        <time>2018-09-03T05:50:38Z</time>
      </trkpt>
      <trkpt lat="43.2936510" lon="-2.3890100">
        <ele>278.0</ele>
        <time>2018-09-03T05:50:39Z</time>
      </trkpt>
      <trkpt lat="43.2936570" lon="-2.3893180">
        <ele>277.8</ele>
        <time>2018-09-03T05:50:41Z</time>
      </trkpt>
      <trkpt lat="43.2935990" lon="-2.3895430">
        <ele>277.2</ele>
        <time>2018-09-03T05:50:43Z</time>
      </trkpt>
      <trkpt lat="43.2935610" lon="-2.3896120">
        <ele>275.8</ele>
        <time>2018-09-03T05:50:44Z</time>
      </trkpt>
      <trkpt lat="43.2935350" lon="-2.3896700">
        <ele>274.0</ele>
        <time>2018-09-03T05:50:45Z</time>
      </trkpt>
      <trkpt lat="43.2935250" lon="-2.3897280">
        <ele>272.2</ele>
        <time>2018-09-03T05:50:46Z</time>
      </trkpt>
      <trkpt lat="43.2935380" lon="-2.3897500">
        <ele>270.4</ele>
        <time>2018-09-03T05:50:47Z</time>
      </trkpt>
      <trkpt lat="43.2935630" lon="-2.3897380">
        <ele>269.0</ele>
        <time>2018-09-03T05:50:48Z</time>
      </trkpt>
      <trkpt lat="43.2936220" lon="-2.3896920">
        <ele>267.6</ele>
        <time>2018-09-03T05:50:50Z</time>
      </trkpt>
      <trkpt lat="43.2936330" lon="-2.3899570">
        <ele>266.4</ele>
        <time>2018-09-03T05:50:55Z</time>
      </trkpt>
      <trkpt lat="43.2936020" lon="-2.3900380">
        <ele>265.8</ele>
        <time>2018-09-03T05:50:56Z</time>
      </trkpt>
      <trkpt lat="43.2935940" lon="-2.3901500">
        <ele>264.6</ele>
        <time>2018-09-03T05:50:57Z</time>
      </trkpt>
      <trkpt lat="43.2936690" lon="-2.3904070">
        <ele>263.0</ele>
        <time>2018-09-03T05:50:59Z</time>
      </trkpt>
      <trkpt lat="43.2937200" lon="-2.3905480">
        <ele>262.0</ele>
        <time>2018-09-03T05:51:00Z</time>
      </trkpt>
      <trkpt lat="43.2937610" lon="-2.3906990">
        <ele>260.8</ele>
        <time>2018-09-03T05:51:01Z</time>
      </trkpt>
      <trkpt lat="43.2938080" lon="-2.3908480">
        <ele>259.4</ele>
        <time>2018-09-03T05:51:02Z</time>
      </trkpt>
      <trkpt lat="43.2938560" lon="-2.3909910">
        <ele>258.0</ele>
        <time>2018-09-03T05:51:03Z</time>
      </trkpt>
      <trkpt lat="43.2938960" lon="-2.3911300">
        <ele>256.2</ele>
        <time>2018-09-03T05:51:04Z</time>
      </trkpt>
      <trkpt lat="43.2939410" lon="-2.3912570">
        <ele>254.0</ele>
        <time>2018-09-03T05:51:05Z</time>
      </trkpt>
      <trkpt lat="43.2939950" lon="-2.3913670">
        <ele>251.8</ele>
        <time>2018-09-03T05:51:06Z</time>
      </trkpt>
      <trkpt lat="43.2940470" lon="-2.3914600">
        <ele>250.6</ele>
        <time>2018-09-03T05:51:07Z</time>
      </trkpt>
      <trkpt lat="43.2941960" lon="-2.3916540">
        <ele>249.6</ele>
        <time>2018-09-03T05:51:10Z</time>
      </trkpt>
      <trkpt lat="43.2942780" lon="-2.3917540">
        <ele>249.4</ele>
        <time>2018-09-03T05:51:13Z</time>
      </trkpt>
      <trkpt lat="43.2942990" lon="-2.3917780">
        <ele>249.4</ele>
        <time>2018-09-03T05:51:14Z</time>
      </trkpt>
      <trkpt lat="43.2943240" lon="-2.3918260">
        <ele>250.2</ele>
        <time>2018-09-03T05:51:16Z</time>
      </trkpt>
      <trkpt lat="43.2943310" lon="-2.3918430">
        <ele>251.0</ele>
        <time>2018-09-03T05:51:17Z</time>
      </trkpt>
      <trkpt lat="43.2943420" lon="-2.3918540">
        <ele>252.8</ele>
        <time>2018-09-03T05:51:19Z</time>
      </trkpt>
      <trkpt lat="43.2943550" lon="-2.3918680">
        <ele>254.4</ele>
        <time>2018-09-03T05:51:21Z</time>
      </trkpt>
      <trkpt lat="43.2943630" lon="-2.3918750">
        <ele>255.4</ele>
        <time>2018-09-03T05:51:23Z</time>
      </trkpt>
      <trkpt lat="43.2943630" lon="-2.3918750">
        <ele>256.2</ele>
        <time>2018-09-03T05:51:25Z</time>
      </trkpt>
      <trkpt lat="43.2943630" lon="-2.3918750">
        <ele>256.6</ele>
        <time>2018-09-03T05:51:28Z</time>
      </trkpt>
      <trkpt lat="43.2943630" lon="-2.3918750">
        <ele>256.6</ele>
        <time>2018-09-03T05:51:29Z</time>
      </trkpt>
      <trkpt lat="43.2943630" lon="-2.3918750">
        <ele>256.6</ele>
        <time>2018-09-03T05:51:33Z</time>
      </trkpt>
      <trkpt lat="43.2943630" lon="-2.3918750">
        <ele>256.8</ele>
        <time>2018-09-03T05:51:50Z</time>
      </trkpt>
      <trkpt lat="43.2943520" lon="-2.3918890">
        <ele>256.8</ele>
        <time>2018-09-03T05:51:57Z</time>
      </trkpt>
      <trkpt lat="43.2943520" lon="-2.3918890">
        <ele>256.8</ele>
        <time>2018-09-03T05:52:02Z</time>
      </trkpt>
      <trkpt lat="43.2943520" lon="-2.3918890">
        <ele>256.8</ele>
        <time>2018-09-03T05:52:05Z</time>
      </trkpt>
      <trkpt lat="43.2943520" lon="-2.3918890">
        <ele>256.4</ele>
        <time>2018-09-03T05:52:26Z</time>
      </trkpt>
      <trkpt lat="43.2943520" lon="-2.3918890">
        <ele>256.6</ele>
        <time>2018-09-03T05:52:42Z</time>
      </trkpt>
      <trkpt lat="43.2943520" lon="-2.3918890">
        <ele>256.4</ele>
        <time>2018-09-03T05:52:50Z</time>
      </trkpt>
      <trkpt lat="43.2943520" lon="-2.3918890">
        <ele>256.2</ele>
        <time>2018-09-03T05:53:02Z</time>
      </trkpt>
      <trkpt lat="43.2943520" lon="-2.3918890">
        <ele>256.4</ele>
        <time>2018-09-03T05:53:13Z</time>
      </trkpt>
      <trkpt lat="43.2943520" lon="-2.3918890">
        <ele>256.4</ele>
        <time>2018-09-03T05:53:17Z</time>
      </trkpt>
      <trkpt lat="43.2943520" lon="-2.3918890">
        <ele>256.4</ele>
        <time>2018-09-03T05:53:20Z</time>
      </trkpt>
      <trkpt lat="43.2943520" lon="-2.3918890">
        <ele>256.4</ele>
        <time>2018-09-03T05:53:22Z</time>
      </trkpt>
      <trkpt lat="43.2943520" lon="-2.3918890">
        <ele>256.2</ele>
        <time>2018-09-03T05:53:48Z</time>
      </trkpt>
      <trkpt lat="43.2943520" lon="-2.3918890">
        <ele>256.4</ele>
        <time>2018-09-03T05:53:55Z</time>
      </trkpt>
      <trkpt lat="43.2943520" lon="-2.3918890">
        <ele>256.0</ele>
        <time>2018-09-03T05:53:58Z</time>
      </trkpt>
      <trkpt lat="43.2943520" lon="-2.3918890">
        <ele>256.2</ele>
        <time>2018-09-03T05:54:01Z</time>
      </trkpt>
      <trkpt lat="43.2943520" lon="-2.3918890">
        <ele>256.0</ele>
        <time>2018-09-03T05:54:03Z</time>
      </trkpt>
      <trkpt lat="43.2943520" lon="-2.3918890">
        <ele>256.0</ele>
        <time>2018-09-03T05:54:07Z</time>
      </trkpt>
      <trkpt lat="43.2943520" lon="-2.3918890">
        <ele>256.0</ele>
        <time>2018-09-03T05:54:08Z</time>
      </trkpt>
      <trkpt lat="43.2943520" lon="-2.3918890">
        <ele>256.0</ele>
        <time>2018-09-03T05:54:15Z</time>
      </trkpt>
      <trkpt lat="43.2943520" lon="-2.3918890">
        <ele>256.0</ele>
        <time>2018-09-03T05:54:36Z</time>
      </trkpt>
      <trkpt lat="43.2943520" lon="-2.3918890">
        <ele>255.8</ele>
        <time>2018-09-03T05:54:57Z</time>
      </trkpt>
      <trkpt lat="43.2943520" lon="-2.3918890">
        <ele>256.0</ele>
        <time>2018-09-03T05:55:05Z</time>
      </trkpt>
      <trkpt lat="43.2943520" lon="-2.3918890">
        <ele>255.8</ele>
        <time>2018-09-03T05:55:15Z</time>
      </trkpt>
      <trkpt lat="43.2943360" lon="-2.3918940">
        <ele>255.8</ele>
        <time>2018-09-03T05:55:19Z</time>
      </trkpt>
      <trkpt lat="43.2943350" lon="-2.3920310">
        <ele>255.8</ele>
        <time>2018-09-03T05:55:22Z</time>
      </trkpt>
      <trkpt lat="43.2944580" lon="-2.3922490">
        <ele>255.8</ele>
        <time>2018-09-03T05:55:25Z</time>
      </trkpt>
      <trkpt lat="43.2945140" lon="-2.3923210">
        <ele>255.8</ele>
        <time>2018-09-03T05:55:26Z</time>
      </trkpt>
      <trkpt lat="43.2945790" lon="-2.3923880">
        <ele>255.6</ele>
        <time>2018-09-03T05:55:27Z</time>
      </trkpt>
      <trkpt lat="43.2947240" lon="-2.3925160">
        <ele>254.6</ele>
        <time>2018-09-03T05:55:29Z</time>
      </trkpt>
      <trkpt lat="43.2948830" lon="-2.3926180">
        <ele>253.2</ele>
        <time>2018-09-03T05:55:31Z</time>
      </trkpt>
      <trkpt lat="43.2949610" lon="-2.3926590">
        <ele>251.2</ele>
        <time>2018-09-03T05:55:32Z</time>
      </trkpt>
      <trkpt lat="43.2950370" lon="-2.3926930">
        <ele>250.2</ele>
        <time>2018-09-03T05:55:33Z</time>
      </trkpt>
      <trkpt lat="43.2952000" lon="-2.3927610">
        <ele>248.2</ele>
        <time>2018-09-03T05:55:35Z</time>
      </trkpt>
      <trkpt lat="43.2953670" lon="-2.3927890">
        <ele>246.4</ele>
        <time>2018-09-03T05:55:37Z</time>
      </trkpt>
      <trkpt lat="43.2954510" lon="-2.3927890">
        <ele>245.4</ele>
        <time>2018-09-03T05:55:38Z</time>
      </trkpt>
      <trkpt lat="43.2955390" lon="-2.3927780">
        <ele>244.8</ele>
        <time>2018-09-03T05:55:39Z</time>
      </trkpt>
      <trkpt lat="43.2957100" lon="-2.3927190">
        <ele>243.0</ele>
        <time>2018-09-03T05:55:41Z</time>
      </trkpt>
      <trkpt lat="43.2957900" lon="-2.3926580">
        <ele>242.0</ele>
        <time>2018-09-03T05:55:42Z</time>
      </trkpt>
      <trkpt lat="43.2959280" lon="-2.3924880">
        <ele>240.4</ele>
        <time>2018-09-03T05:55:44Z</time>
      </trkpt>
      <trkpt lat="43.2960240" lon="-2.3922980">
        <ele>238.6</ele>
        <time>2018-09-03T05:55:46Z</time>
      </trkpt>
      <trkpt lat="43.2960550" lon="-2.3922140">
        <ele>237.6</ele>
        <time>2018-09-03T05:55:47Z</time>
      </trkpt>
      <trkpt lat="43.2960810" lon="-2.3921460">
        <ele>236.2</ele>
        <time>2018-09-03T05:55:48Z</time>
      </trkpt>
      <trkpt lat="43.2961100" lon="-2.3920940">
        <ele>234.8</ele>
        <time>2018-09-03T05:55:49Z</time>
      </trkpt>
      <trkpt lat="43.2961460" lon="-2.3920580">
        <ele>233.4</ele>
        <time>2018-09-03T05:55:50Z</time>
      </trkpt>
      <trkpt lat="43.2961890" lon="-2.3920650">
        <ele>231.8</ele>
        <time>2018-09-03T05:55:51Z</time>
      </trkpt>
      <trkpt lat="43.2962210" lon="-2.3921250">
        <ele>230.2</ele>
        <time>2018-09-03T05:55:52Z</time>
      </trkpt>
      <trkpt lat="43.2962400" lon="-2.3922010">
        <ele>229.0</ele>
        <time>2018-09-03T05:55:53Z</time>
      </trkpt>
      <trkpt lat="43.2962680" lon="-2.3923710">
        <ele>227.4</ele>
        <time>2018-09-03T05:55:55Z</time>
      </trkpt>
      <trkpt lat="43.2962800" lon="-2.3924600">
        <ele>226.8</ele>
        <time>2018-09-03T05:55:56Z</time>
      </trkpt>
      <trkpt lat="43.2962890" lon="-2.3925500">
        <ele>226.4</ele>
        <time>2018-09-03T05:55:57Z</time>
      </trkpt>
      <trkpt lat="43.2963050" lon="-2.3927200">
        <ele>224.8</ele>
        <time>2018-09-03T05:55:59Z</time>
      </trkpt>
      <trkpt lat="43.2963090" lon="-2.3927940">
        <ele>223.6</ele>
        <time>2018-09-03T05:56:00Z</time>
      </trkpt>
      <trkpt lat="43.2963070" lon="-2.3928600">
        <ele>222.2</ele>
        <time>2018-09-03T05:56:01Z</time>
      </trkpt>
      <trkpt lat="43.2963090" lon="-2.3929220">
        <ele>220.8</ele>
        <time>2018-09-03T05:56:02Z</time>
      </trkpt>
      <trkpt lat="43.2963200" lon="-2.3929760">
        <ele>219.4</ele>
        <time>2018-09-03T05:56:03Z</time>
      </trkpt>
      <trkpt lat="43.2963510" lon="-2.3930130">
        <ele>218.2</ele>
        <time>2018-09-03T05:56:04Z</time>
      </trkpt>
      <trkpt lat="43.2963980" lon="-2.3930120">
        <ele>217.2</ele>
        <time>2018-09-03T05:56:05Z</time>
      </trkpt>
      <trkpt lat="43.2964530" lon="-2.3929650">
        <ele>216.0</ele>
        <time>2018-09-03T05:56:06Z</time>
      </trkpt>
      <trkpt lat="43.2965140" lon="-2.3928900">
        <ele>215.6</ele>
        <time>2018-09-03T05:56:07Z</time>
      </trkpt>
      <trkpt lat="43.2966750" lon="-2.3926420">
        <ele>214.6</ele>
        <time>2018-09-03T05:56:10Z</time>
      </trkpt>
      <trkpt lat="43.2967610" lon="-2.3925500">
        <ele>213.4</ele>
        <time>2018-09-03T05:56:12Z</time>
      </trkpt>
      <trkpt lat="43.2968150" lon="-2.3925570">
        <ele>212.2</ele>
        <time>2018-09-03T05:56:13Z</time>
      </trkpt>
      <trkpt lat="43.2968560" lon="-2.3926050">
        <ele>210.4</ele>
        <time>2018-09-03T05:56:14Z</time>
      </trkpt>
      <trkpt lat="43.2968640" lon="-2.3927110">
        <ele>208.4</ele>
        <time>2018-09-03T05:56:15Z</time>
      </trkpt>
      <trkpt lat="43.2968700" lon="-2.3928340">
        <ele>207.2</ele>
        <time>2018-09-03T05:56:16Z</time>
      </trkpt>
      <trkpt lat="43.2969100" lon="-2.3930900">
        <ele>206.0</ele>
        <time>2018-09-03T05:56:18Z</time>
      </trkpt>
      <trkpt lat="43.2970550" lon="-2.3933330">
        <ele>204.2</ele>
        <time>2018-09-03T05:56:21Z</time>
      </trkpt>
      <trkpt lat="43.2970660" lon="-2.3934170">
        <ele>202.6</ele>
        <time>2018-09-03T05:56:22Z</time>
      </trkpt>
      <trkpt lat="43.2970560" lon="-2.3935000">
        <ele>200.4</ele>
        <time>2018-09-03T05:56:23Z</time>
      </trkpt>
      <trkpt lat="43.2970250" lon="-2.3935690">
        <ele>198.6</ele>
        <time>2018-09-03T05:56:24Z</time>
      </trkpt>
      <trkpt lat="43.2969790" lon="-2.3936240">
        <ele>197.2</ele>
        <time>2018-09-03T05:56:25Z</time>
      </trkpt>
      <trkpt lat="43.2969340" lon="-2.3936810">
        <ele>196.4</ele>
        <time>2018-09-03T05:56:26Z</time>
      </trkpt>
      <trkpt lat="43.2968880" lon="-2.3937340">
        <ele>195.8</ele>
        <time>2018-09-03T05:56:27Z</time>
      </trkpt>
      <trkpt lat="43.2968000" lon="-2.3938310">
        <ele>195.2</ele>
        <time>2018-09-03T05:56:29Z</time>
      </trkpt>
      <trkpt lat="43.2966480" lon="-2.3940020">
        <ele>195.0</ele>
        <time>2018-09-03T05:56:33Z</time>
      </trkpt>
      <trkpt lat="43.2965540" lon="-2.3941310">
        <ele>195.0</ele>
        <time>2018-09-03T05:56:36Z</time>
      </trkpt>
      <trkpt lat="43.2965280" lon="-2.3941740">
        <ele>195.0</ele>
        <time>2018-09-03T05:56:37Z</time>
      </trkpt>
      <trkpt lat="43.2964620" lon="-2.3943040">
        <ele>195.2</ele>
        <time>2018-09-03T05:56:40Z</time>
      </trkpt>
      <trkpt lat="43.2964220" lon="-2.3943900">
        <ele>195.6</ele>
        <time>2018-09-03T05:56:42Z</time>
      </trkpt>
      <trkpt lat="43.2963850" lon="-2.3944710">
        <ele>196.0</ele>
        <time>2018-09-03T05:56:44Z</time>
      </trkpt>
      <trkpt lat="43.2963370" lon="-2.3946320">
        <ele>196.4</ele>
        <time>2018-09-03T05:56:48Z</time>
      </trkpt>
      <trkpt lat="43.2963230" lon="-2.3947520">
        <ele>197.0</ele>
        <time>2018-09-03T05:56:51Z</time>
      </trkpt>
      <trkpt lat="43.2963540" lon="-2.3949180">
        <ele>197.6</ele>
        <time>2018-09-03T05:56:55Z</time>
      </trkpt>
      <trkpt lat="43.2964010" lon="-2.3949890">
        <ele>198.0</ele>
        <time>2018-09-03T05:56:57Z</time>
      </trkpt>
      <trkpt lat="43.2966710" lon="-2.3951980">
        <ele>198.6</ele>
        <time>2018-09-03T05:57:07Z</time>
      </trkpt>
      <trkpt lat="43.2967610" lon="-2.3952340">
        <ele>199.0</ele>
        <time>2018-09-03T05:57:12Z</time>
      </trkpt>
      <trkpt lat="43.2967810" lon="-2.3952400">
        <ele>199.2</ele>
        <time>2018-09-03T05:57:13Z</time>
      </trkpt>
      <trkpt lat="43.2968290" lon="-2.3952630">
        <ele>200.2</ele>
        <time>2018-09-03T05:57:16Z</time>
      </trkpt>
      <trkpt lat="43.2968930" lon="-2.3952770">
        <ele>201.2</ele>
        <time>2018-09-03T05:57:20Z</time>
      </trkpt>
      <trkpt lat="43.2969610" lon="-2.3952710">
        <ele>202.4</ele>
        <time>2018-09-03T05:57:24Z</time>
      </trkpt>
      <trkpt lat="43.2970210" lon="-2.3952860">
        <ele>203.6</ele>
        <time>2018-09-03T05:57:28Z</time>
      </trkpt>
      <trkpt lat="43.2970960" lon="-2.3952780">
        <ele>204.8</ele>
        <time>2018-09-03T05:57:33Z</time>
      </trkpt>
      <trkpt lat="43.2971270" lon="-2.3952810">
        <ele>205.4</ele>
        <time>2018-09-03T05:57:36Z</time>
      </trkpt>
      <trkpt lat="43.2971500" lon="-2.3953230">
        <ele>206.0</ele>
        <time>2018-09-03T05:57:39Z</time>
      </trkpt>
      <trkpt lat="43.2971580" lon="-2.3953620">
        <ele>206.2</ele>
        <time>2018-09-03T05:57:41Z</time>
      </trkpt>
      <trkpt lat="43.2971770" lon="-2.3954340">
        <ele>207.0</ele>
        <time>2018-09-03T05:57:45Z</time>
      </trkpt>
      <trkpt lat="43.2971950" lon="-2.3955050">
        <ele>208.0</ele>
        <time>2018-09-03T05:57:49Z</time>
      </trkpt>
      <trkpt lat="43.2971960" lon="-2.3955270">
        <ele>208.6</ele>
        <time>2018-09-03T05:57:50Z</time>
      </trkpt>
      <trkpt lat="43.2972240" lon="-2.3956520">
        <ele>208.8</ele>
        <time>2018-09-03T05:57:54Z</time>
      </trkpt>
      <trkpt lat="43.2972670" lon="-2.3957190">
        <ele>209.0</ele>
        <time>2018-09-03T05:57:56Z</time>
      </trkpt>
      <trkpt lat="43.2973850" lon="-2.3959030">
        <ele>208.6</ele>
        <time>2018-09-03T05:58:02Z</time>
      </trkpt>
      <trkpt lat="43.2974580" lon="-2.3960130">
        <ele>208.4</ele>
        <time>2018-09-03T05:58:06Z</time>
      </trkpt>
      <trkpt lat="43.2975080" lon="-2.3961230">
        <ele>208.4</ele>
        <time>2018-09-03T05:58:11Z</time>
      </trkpt>
      <trkpt lat="43.2975380" lon="-2.3962270">
        <ele>209.2</ele>
        <time>2018-09-03T05:58:15Z</time>
      </trkpt>
      <trkpt lat="43.2975460" lon="-2.3962860">
        <ele>210.0</ele>
        <time>2018-09-03T05:58:17Z</time>
      </trkpt>
      <trkpt lat="43.2975620" lon="-2.3964140">
        <ele>211.2</ele>
        <time>2018-09-03T05:58:22Z</time>
      </trkpt>
      <trkpt lat="43.2975980" lon="-2.3965530">
        <ele>212.2</ele>
        <time>2018-09-03T05:58:27Z</time>
      </trkpt>
      <trkpt lat="43.2975820" lon="-2.3967060">
        <ele>212.4</ele>
        <time>2018-09-03T05:58:33Z</time>
      </trkpt>
      <trkpt lat="43.2975630" lon="-2.3967200">
        <ele>212.6</ele>
        <time>2018-09-03T05:58:34Z</time>
      </trkpt>
      <trkpt lat="43.2974570" lon="-2.3967260">
        <ele>213.2</ele>
        <time>2018-09-03T05:58:40Z</time>
      </trkpt>
      <trkpt lat="43.2973490" lon="-2.3967140">
        <ele>214.2</ele>
        <time>2018-09-03T05:58:47Z</time>
      </trkpt>
      <trkpt lat="43.2972410" lon="-2.3966980">
        <ele>215.2</ele>
        <time>2018-09-03T05:58:54Z</time>
      </trkpt>
      <trkpt lat="43.2971620" lon="-2.3966860">
        <ele>216.4</ele>
        <time>2018-09-03T05:58:59Z</time>
      </trkpt>
      <trkpt lat="43.2970410" lon="-2.3967090">
        <ele>217.6</ele>
        <time>2018-09-03T05:59:08Z</time>
      </trkpt>
      <trkpt lat="43.2969660" lon="-2.3967650">
        <ele>218.6</ele>
        <time>2018-09-03T05:59:16Z</time>
      </trkpt>
      <trkpt lat="43.2968950" lon="-2.3968470">
        <ele>219.6</ele>
        <time>2018-09-03T05:59:24Z</time>
      </trkpt>
      <trkpt lat="43.2968200" lon="-2.3969630">
        <ele>220.8</ele>
        <time>2018-09-03T05:59:32Z</time>
      </trkpt>
      <trkpt lat="43.2967110" lon="-2.3971680">
        <ele>222.0</ele>
        <time>2018-09-03T05:59:42Z</time>
      </trkpt>
      <trkpt lat="43.2966400" lon="-2.3973650">
        <ele>223.2</ele>
        <time>2018-09-03T05:59:51Z</time>
      </trkpt>
      <trkpt lat="43.2965950" lon="-2.3974360">
        <ele>224.0</ele>
        <time>2018-09-03T05:59:56Z</time>
      </trkpt>
      <trkpt lat="43.2965740" lon="-2.3974610">
        <ele>224.2</ele>
        <time>2018-09-03T05:59:58Z</time>
      </trkpt>
      <trkpt lat="43.2965070" lon="-2.3975170">
        <ele>225.0</ele>
        <time>2018-09-03T06:00:03Z</time>
      </trkpt>
      <trkpt lat="43.2964630" lon="-2.3975330">
        <ele>225.4</ele>
        <time>2018-09-03T06:00:06Z</time>
      </trkpt>
      <trkpt lat="43.2963570" lon="-2.3975100">
        <ele>226.6</ele>
        <time>2018-09-03T06:00:13Z</time>
      </trkpt>
      <trkpt lat="43.2962470" lon="-2.3974430">
        <ele>227.6</ele>
        <time>2018-09-03T06:00:21Z</time>
      </trkpt>
      <trkpt lat="43.2961330" lon="-2.3973850">
        <ele>228.8</ele>
        <time>2018-09-03T06:00:29Z</time>
      </trkpt>
      <trkpt lat="43.2960590" lon="-2.3973610">
        <ele>230.0</ele>
        <time>2018-09-03T06:00:34Z</time>
      </trkpt>
      <trkpt lat="43.2960450" lon="-2.3973570">
        <ele>230.0</ele>
        <time>2018-09-03T06:00:35Z</time>
      </trkpt>
      <trkpt lat="43.2959360" lon="-2.3973170">
        <ele>231.2</ele>
        <time>2018-09-03T06:00:42Z</time>
      </trkpt>
      <trkpt lat="43.2958140" lon="-2.3972810">
        <ele>232.2</ele>
        <time>2018-09-03T06:00:50Z</time>
      </trkpt>
      <trkpt lat="43.2957370" lon="-2.3972490">
        <ele>233.2</ele>
        <time>2018-09-03T06:00:55Z</time>
      </trkpt>
      <trkpt lat="43.2956550" lon="-2.3972130">
        <ele>234.2</ele>
        <time>2018-09-03T06:01:02Z</time>
      </trkpt>
      <trkpt lat="43.2954580" lon="-2.3971330">
        <ele>235.2</ele>
        <time>2018-09-03T06:01:14Z</time>
      </trkpt>
      <trkpt lat="43.2953290" lon="-2.3971590">
        <ele>236.4</ele>
        <time>2018-09-03T06:01:21Z</time>
      </trkpt>
      <trkpt lat="43.2952010" lon="-2.3972720">
        <ele>237.2</ele>
        <time>2018-09-03T06:01:29Z</time>
      </trkpt>
      <trkpt lat="43.2951810" lon="-2.3973130">
        <ele>237.6</ele>
        <time>2018-09-03T06:01:31Z</time>
      </trkpt>
      <trkpt lat="43.2951440" lon="-2.3974690">
        <ele>238.6</ele>
        <time>2018-09-03T06:01:39Z</time>
      </trkpt>
      <trkpt lat="43.2951300" lon="-2.3975620">
        <ele>239.0</ele>
        <time>2018-09-03T06:01:43Z</time>
      </trkpt>
      <trkpt lat="43.2951190" lon="-2.3976490">
        <ele>239.6</ele>
        <time>2018-09-03T06:01:47Z</time>
      </trkpt>
      <trkpt lat="43.2950770" lon="-2.3978220">
        <ele>240.6</ele>
        <time>2018-09-03T06:01:56Z</time>
      </trkpt>
      <trkpt lat="43.2949830" lon="-2.3979900">
        <ele>241.8</ele>
        <time>2018-09-03T06:02:06Z</time>
      </trkpt>
      <trkpt lat="43.2948850" lon="-2.3981100">
        <ele>242.8</ele>
        <time>2018-09-03T06:02:15Z</time>
      </trkpt>
      <trkpt lat="43.2948000" lon="-2.3982030">
        <ele>243.8</ele>
        <time>2018-09-03T06:02:23Z</time>
      </trkpt>
      <trkpt lat="43.2947190" lon="-2.3982790">
        <ele>245.0</ele>
        <time>2018-09-03T06:02:30Z</time>
      </trkpt>
      <trkpt lat="43.2946300" lon="-2.3983730">
        <ele>246.0</ele>
        <time>2018-09-03T06:02:38Z</time>
      </trkpt>
      <trkpt lat="43.2945180" lon="-2.3984660">
        <ele>247.2</ele>
        <time>2018-09-03T06:02:48Z</time>
      </trkpt>
      <trkpt lat="43.2943990" lon="-2.3985220">
        <ele>248.2</ele>
        <time>2018-09-03T06:02:57Z</time>
      </trkpt>
      <trkpt lat="43.2942920" lon="-2.3985540">
        <ele>249.4</ele>
        <time>2018-09-03T06:03:05Z</time>
      </trkpt>
      <trkpt lat="43.2941730" lon="-2.3985680">
        <ele>250.4</ele>
        <time>2018-09-03T06:03:13Z</time>
      </trkpt>
      <trkpt lat="43.2940830" lon="-2.3985780">
        <ele>251.6</ele>
        <time>2018-09-03T06:03:19Z</time>
      </trkpt>
      <trkpt lat="43.2939700" lon="-2.3985980">
        <ele>252.6</ele>
        <time>2018-09-03T06:03:27Z</time>
      </trkpt>
      <trkpt lat="43.2938290" lon="-2.3986500">
        <ele>253.8</ele>
        <time>2018-09-03T06:03:37Z</time>
      </trkpt>
      <trkpt lat="43.2937650" lon="-2.3987390">
        <ele>254.8</ele>
        <time>2018-09-03T06:03:44Z</time>
      </trkpt>
      <trkpt lat="43.2937230" lon="-2.3988300">
        <ele>255.8</ele>
        <time>2018-09-03T06:03:50Z</time>
      </trkpt>
      <trkpt lat="43.2936650" lon="-2.3989360">
        <ele>256.6</ele>
        <time>2018-09-03T06:03:57Z</time>
      </trkpt>
      <trkpt lat="43.2936350" lon="-2.3989820">
        <ele>257.0</ele>
        <time>2018-09-03T06:04:00Z</time>
      </trkpt>
      <trkpt lat="43.2935190" lon="-2.3991450">
        <ele>258.2</ele>
        <time>2018-09-03T06:04:11Z</time>
      </trkpt>
      <trkpt lat="43.2934900" lon="-2.3991890">
        <ele>258.8</ele>
        <time>2018-09-03T06:04:14Z</time>
      </trkpt>
      <trkpt lat="43.2934700" lon="-2.3992500">
        <ele>259.2</ele>
        <time>2018-09-03T06:04:17Z</time>
      </trkpt>
      <trkpt lat="43.2934450" lon="-2.3992860">
        <ele>259.6</ele>
        <time>2018-09-03T06:04:19Z</time>
      </trkpt>
      <trkpt lat="43.2933940" lon="-2.3993520">
        <ele>259.8</ele>
        <time>2018-09-03T06:04:23Z</time>
      </trkpt>
      <trkpt lat="43.2933760" lon="-2.3993900">
        <ele>260.6</ele>
        <time>2018-09-03T06:04:25Z</time>
      </trkpt>
      <trkpt lat="43.2933520" lon="-2.3994270">
        <ele>261.0</ele>
        <time>2018-09-03T06:04:27Z</time>
      </trkpt>
      <trkpt lat="43.2932920" lon="-2.3995090">
        <ele>261.6</ele>
        <time>2018-09-03T06:04:32Z</time>
      </trkpt>
      <trkpt lat="43.2931640" lon="-2.3997060">
        <ele>262.2</ele>
        <time>2018-09-03T06:04:41Z</time>
      </trkpt>
      <trkpt lat="43.2931180" lon="-2.3997740">
        <ele>262.4</ele>
        <time>2018-09-03T06:04:44Z</time>
      </trkpt>
      <trkpt lat="43.2930650" lon="-2.3998390">
        <ele>262.6</ele>
        <time>2018-09-03T06:04:47Z</time>
      </trkpt>
      <trkpt lat="43.2929330" lon="-2.3999480">
        <ele>262.6</ele>
        <time>2018-09-03T06:04:53Z</time>
      </trkpt>
      <trkpt lat="43.2927510" lon="-2.4000570">
        <ele>262.8</ele>
        <time>2018-09-03T06:05:00Z</time>
      </trkpt>
      <trkpt lat="43.2924020" lon="-2.4002460">
        <ele>263.4</ele>
        <time>2018-09-03T06:05:13Z</time>
      </trkpt>
      <trkpt lat="43.2921480" lon="-2.4003510">
        <ele>263.6</ele>
        <time>2018-09-03T06:05:22Z</time>
      </trkpt>
      <trkpt lat="43.2920850" lon="-2.4003630">
        <ele>263.6</ele>
        <time>2018-09-03T06:05:24Z</time>
      </trkpt>
      <trkpt lat="43.2920240" lon="-2.4003710">
        <ele>263.6</ele>
        <time>2018-09-03T06:05:26Z</time>
      </trkpt>
      <trkpt lat="43.2918570" lon="-2.4003640">
        <ele>263.8</ele>
        <time>2018-09-03T06:05:32Z</time>
      </trkpt>
      <trkpt lat="43.2918100" lon="-2.4003770">
        <ele>263.8</ele>
        <time>2018-09-03T06:05:34Z</time>
      </trkpt>
      <trkpt lat="43.2915690" lon="-2.4005690">
        <ele>264.6</ele>
        <time>2018-09-03T06:05:44Z</time>
      </trkpt>
      <trkpt lat="43.2912540" lon="-2.4010700">
        <ele>264.0</ele>
        <time>2018-09-03T06:05:56Z</time>
      </trkpt>
      <trkpt lat="43.2910150" lon="-2.4014070">
        <ele>262.4</ele>
        <time>2018-09-03T06:06:02Z</time>
      </trkpt>
      <trkpt lat="43.2909100" lon="-2.4015090">
        <ele>261.4</ele>
        <time>2018-09-03T06:06:04Z</time>
      </trkpt>
      <trkpt lat="43.2908550" lon="-2.4015510">
        <ele>261.0</ele>
        <time>2018-09-03T06:06:05Z</time>
      </trkpt>
      <trkpt lat="43.2907420" lon="-2.4016140">
        <ele>260.2</ele>
        <time>2018-09-03T06:06:07Z</time>
      </trkpt>
      <trkpt lat="43.2905310" lon="-2.4015980">
        <ele>259.4</ele>
        <time>2018-09-03T06:06:11Z</time>
      </trkpt>
      <trkpt lat="43.2904370" lon="-2.4015310">
        <ele>259.4</ele>
        <time>2018-09-03T06:06:13Z</time>
      </trkpt>
      <trkpt lat="43.2902880" lon="-2.4014280">
        <ele>259.0</ele>
        <time>2018-09-03T06:06:16Z</time>
      </trkpt>
      <trkpt lat="43.2900130" lon="-2.4015390">
        <ele>258.0</ele>
        <time>2018-09-03T06:06:21Z</time>
      </trkpt>
      <trkpt lat="43.2899700" lon="-2.4015980">
        <ele>258.0</ele>
        <time>2018-09-03T06:06:22Z</time>
      </trkpt>
      <trkpt lat="43.2898540" lon="-2.4017830">
        <ele>257.4</ele>
        <time>2018-09-03T06:06:25Z</time>
      </trkpt>
      <trkpt lat="43.2897770" lon="-2.4019190">
        <ele>257.2</ele>
        <time>2018-09-03T06:06:27Z</time>
      </trkpt>
      <trkpt lat="43.2897370" lon="-2.4019890">
        <ele>256.8</ele>
        <time>2018-09-03T06:06:28Z</time>
      </trkpt>
      <trkpt lat="43.2896160" lon="-2.4021910">
        <ele>256.4</ele>
        <time>2018-09-03T06:06:31Z</time>
      </trkpt>
      <trkpt lat="43.2894780" lon="-2.4025510">
        <ele>256.2</ele>
        <time>2018-09-03T06:06:35Z</time>
      </trkpt>
      <trkpt lat="43.2893850" lon="-2.4027810">
        <ele>255.8</ele>
        <time>2018-09-03T06:06:37Z</time>
      </trkpt>
      <trkpt lat="43.2892840" lon="-2.4030280">
        <ele>254.2</ele>
        <time>2018-09-03T06:06:39Z</time>
      </trkpt>
      <trkpt lat="43.2891790" lon="-2.4032830">
        <ele>252.4</ele>
        <time>2018-09-03T06:06:41Z</time>
      </trkpt>
      <trkpt lat="43.2890750" lon="-2.4035570">
        <ele>250.6</ele>
        <time>2018-09-03T06:06:43Z</time>
      </trkpt>
      <trkpt lat="43.2890240" lon="-2.4037000">
        <ele>249.6</ele>
        <time>2018-09-03T06:06:44Z</time>
      </trkpt>
      <trkpt lat="43.2889800" lon="-2.4038470">
        <ele>248.4</ele>
        <time>2018-09-03T06:06:45Z</time>
      </trkpt>
      <trkpt lat="43.2889450" lon="-2.4039970">
        <ele>247.2</ele>
        <time>2018-09-03T06:06:46Z</time>
      </trkpt>
      <trkpt lat="43.2889160" lon="-2.4041580">
        <ele>246.2</ele>
        <time>2018-09-03T06:06:47Z</time>
      </trkpt>
      <trkpt lat="43.2888880" lon="-2.4043180">
        <ele>245.0</ele>
        <time>2018-09-03T06:06:48Z</time>
      </trkpt>
      <trkpt lat="43.2888510" lon="-2.4044810">
        <ele>243.8</ele>
        <time>2018-09-03T06:06:49Z</time>
      </trkpt>
      <trkpt lat="43.2887990" lon="-2.4046370">
        <ele>242.6</ele>
        <time>2018-09-03T06:06:50Z</time>
      </trkpt>
      <trkpt lat="43.2887390" lon="-2.4047890">
        <ele>241.4</ele>
        <time>2018-09-03T06:06:51Z</time>
      </trkpt>
      <trkpt lat="43.2886710" lon="-2.4049360">
        <ele>240.2</ele>
        <time>2018-09-03T06:06:52Z</time>
      </trkpt>
      <trkpt lat="43.2886030" lon="-2.4050800">
        <ele>239.0</ele>
        <time>2018-09-03T06:06:53Z</time>
      </trkpt>
      <trkpt lat="43.2885450" lon="-2.4052140">
        <ele>238.0</ele>
        <time>2018-09-03T06:06:54Z</time>
      </trkpt>
      <trkpt lat="43.2884720" lon="-2.4053630">
        <ele>237.0</ele>
        <time>2018-09-03T06:06:55Z</time>
      </trkpt>
      <trkpt lat="43.2883990" lon="-2.4055130">
        <ele>235.8</ele>
        <time>2018-09-03T06:06:56Z</time>
      </trkpt>
      <trkpt lat="43.2883300" lon="-2.4056660">
        <ele>234.6</ele>
        <time>2018-09-03T06:06:57Z</time>
      </trkpt>
      <trkpt lat="43.2882630" lon="-2.4058210">
        <ele>233.2</ele>
        <time>2018-09-03T06:06:58Z</time>
      </trkpt>
      <trkpt lat="43.2882020" lon="-2.4059790">
        <ele>232.0</ele>
        <time>2018-09-03T06:06:59Z</time>
      </trkpt>
      <trkpt lat="43.2881540" lon="-2.4061340">
        <ele>230.6</ele>
        <time>2018-09-03T06:07:00Z</time>
      </trkpt>
      <trkpt lat="43.2881160" lon="-2.4062950">
        <ele>229.4</ele>
        <time>2018-09-03T06:07:01Z</time>
      </trkpt>
      <trkpt lat="43.2880940" lon="-2.4064680">
        <ele>228.2</ele>
        <time>2018-09-03T06:07:02Z</time>
      </trkpt>
      <trkpt lat="43.2880670" lon="-2.4066270">
        <ele>225.8</ele>
        <time>2018-09-03T06:07:03Z</time>
      </trkpt>
      <trkpt lat="43.2880670" lon="-2.4067950">
        <ele>224.6</ele>
        <time>2018-09-03T06:07:04Z</time>
      </trkpt>
      <trkpt lat="43.2880770" lon="-2.4069630">
        <ele>223.2</ele>
        <time>2018-09-03T06:07:05Z</time>
      </trkpt>
      <trkpt lat="43.2880860" lon="-2.4071220">
        <ele>222.0</ele>
        <time>2018-09-03T06:07:06Z</time>
      </trkpt>
      <trkpt lat="43.2881000" lon="-2.4073910">
        <ele>220.6</ele>
        <time>2018-09-03T06:07:08Z</time>
      </trkpt>
      <trkpt lat="43.2878730" lon="-2.4078270">
        <ele>220.2</ele>
        <time>2018-09-03T06:07:14Z</time>
      </trkpt>
      <trkpt lat="43.2878230" lon="-2.4079100">
        <ele>220.2</ele>
        <time>2018-09-03T06:07:16Z</time>
      </trkpt>
      <trkpt lat="43.2877760" lon="-2.4080320">
        <ele>221.0</ele>
        <time>2018-09-03T06:07:19Z</time>
      </trkpt>
      <trkpt lat="43.2877490" lon="-2.4081320">
        <ele>221.4</ele>
        <time>2018-09-03T06:07:21Z</time>
      </trkpt>
      <trkpt lat="43.2877120" lon="-2.4083710">
        <ele>221.4</ele>
        <time>2018-09-03T06:07:25Z</time>
      </trkpt>
      <trkpt lat="43.2876600" lon="-2.4085920">
        <ele>221.4</ele>
        <time>2018-09-03T06:07:28Z</time>
      </trkpt>
      <trkpt lat="43.2875910" lon="-2.4088560">
        <ele>221.0</ele>
        <time>2018-09-03T06:07:31Z</time>
      </trkpt>
      <trkpt lat="43.2875290" lon="-2.4091400">
        <ele>220.2</ele>
        <time>2018-09-03T06:07:34Z</time>
      </trkpt>
      <trkpt lat="43.2875320" lon="-2.4093270">
        <ele>219.0</ele>
        <time>2018-09-03T06:07:36Z</time>
      </trkpt>
      <trkpt lat="43.2875510" lon="-2.4095280">
        <ele>218.4</ele>
        <time>2018-09-03T06:07:39Z</time>
      </trkpt>
      <trkpt lat="43.2875530" lon="-2.4095800">
        <ele>218.4</ele>
        <time>2018-09-03T06:07:40Z</time>
      </trkpt>
      <trkpt lat="43.2875630" lon="-2.4096700">
        <ele>218.4</ele>
        <time>2018-09-03T06:07:42Z</time>
      </trkpt>
      <trkpt lat="43.2875700" lon="-2.4097450">
        <ele>218.2</ele>
        <time>2018-09-03T06:07:44Z</time>
      </trkpt>
      <trkpt lat="43.2875770" lon="-2.4098170">
        <ele>219.2</ele>
        <time>2018-09-03T06:07:46Z</time>
      </trkpt>
      <trkpt lat="43.2875830" lon="-2.4098600">
        <ele>219.8</ele>
        <time>2018-09-03T06:07:47Z</time>
      </trkpt>
      <trkpt lat="43.2875940" lon="-2.4101670">
        <ele>221.0</ele>
        <time>2018-09-03T06:07:52Z</time>
      </trkpt>
      <trkpt lat="43.2875780" lon="-2.4104030">
        <ele>221.0</ele>
        <time>2018-09-03T06:07:55Z</time>
      </trkpt>
      <trkpt lat="43.2874330" lon="-2.4108570">
        <ele>219.8</ele>
        <time>2018-09-03T06:08:01Z</time>
      </trkpt>
      <trkpt lat="43.2873790" lon="-2.4110710">
        <ele>219.0</ele>
        <time>2018-09-03T06:08:04Z</time>
      </trkpt>
      <trkpt lat="43.2873690" lon="-2.4111370">
        <ele>219.0</ele>
        <time>2018-09-03T06:08:05Z</time>
      </trkpt>
      <trkpt lat="43.2873360" lon="-2.4117270">
        <ele>220.2</ele>
        <time>2018-09-03T06:08:16Z</time>
      </trkpt>
      <trkpt lat="43.2873350" lon="-2.4117690">
        <ele>220.4</ele>
        <time>2018-09-03T06:08:17Z</time>
      </trkpt>
      <trkpt lat="43.2873410" lon="-2.4119560">
        <ele>221.4</ele>
        <time>2018-09-03T06:08:22Z</time>
      </trkpt>
      <trkpt lat="43.2873660" lon="-2.4122240">
        <ele>222.4</ele>
        <time>2018-09-03T06:08:30Z</time>
      </trkpt>
      <trkpt lat="43.2873750" lon="-2.4123910">
        <ele>223.6</ele>
        <time>2018-09-03T06:08:36Z</time>
      </trkpt>
      <trkpt lat="43.2873910" lon="-2.4126670">
        <ele>224.6</ele>
        <time>2018-09-03T06:08:45Z</time>
      </trkpt>
      <trkpt lat="43.2873600" lon="-2.4127550">
        <ele>225.2</ele>
        <time>2018-09-03T06:08:49Z</time>
      </trkpt>
      <trkpt lat="43.2873360" lon="-2.4128060">
        <ele>225.6</ele>
        <time>2018-09-03T06:08:52Z</time>
      </trkpt>
      <trkpt lat="43.2872800" lon="-2.4129070">
        <ele>226.8</ele>
        <time>2018-09-03T06:08:58Z</time>
      </trkpt>
      <trkpt lat="43.2872270" lon="-2.4129820">
        <ele>227.8</ele>
        <time>2018-09-03T06:09:03Z</time>
      </trkpt>
      <trkpt lat="43.2872010" lon="-2.4130890">
        <ele>229.0</ele>
        <time>2018-09-03T06:09:08Z</time>
      </trkpt>
      <trkpt lat="43.2871720" lon="-2.4131890">
        <ele>230.0</ele>
        <time>2018-09-03T06:09:13Z</time>
      </trkpt>
      <trkpt lat="43.2871190" lon="-2.4133270">
        <ele>231.0</ele>
        <time>2018-09-03T06:09:20Z</time>
      </trkpt>
      <trkpt lat="43.2870310" lon="-2.4134350">
        <ele>232.2</ele>
        <time>2018-09-03T06:09:27Z</time>
      </trkpt>
      <trkpt lat="43.2869550" lon="-2.4136560">
        <ele>233.2</ele>
        <time>2018-09-03T06:09:37Z</time>
      </trkpt>
      <trkpt lat="43.2868860" lon="-2.4138730">
        <ele>234.6</ele>
        <time>2018-09-03T06:09:47Z</time>
      </trkpt>
      <trkpt lat="43.2868420" lon="-2.4139670">
        <ele>235.0</ele>
        <time>2018-09-03T06:09:52Z</time>
      </trkpt>
      <trkpt lat="43.2868050" lon="-2.4140480">
        <ele>235.4</ele>
        <time>2018-09-03T06:09:56Z</time>
      </trkpt>
      <trkpt lat="43.2867830" lon="-2.4141150">
        <ele>235.6</ele>
        <time>2018-09-03T06:09:59Z</time>
      </trkpt>
      <trkpt lat="43.2867020" lon="-2.4143100">
        <ele>236.4</ele>
        <time>2018-09-03T06:10:07Z</time>
      </trkpt>
      <trkpt lat="43.2865940" lon="-2.4145620">
        <ele>236.6</ele>
        <time>2018-09-03T06:10:16Z</time>
      </trkpt>
      <trkpt lat="43.2864590" lon="-2.4147560">
        <ele>237.8</ele>
        <time>2018-09-03T06:10:26Z</time>
      </trkpt>
      <trkpt lat="43.2863500" lon="-2.4149070">
        <ele>239.0</ele>
        <time>2018-09-03T06:10:34Z</time>
      </trkpt>
      <trkpt lat="43.2862600" lon="-2.4150150">
        <ele>240.0</ele>
        <time>2018-09-03T06:10:40Z</time>
      </trkpt>
      <trkpt lat="43.2861630" lon="-2.4151580">
        <ele>241.0</ele>
        <time>2018-09-03T06:10:47Z</time>
      </trkpt>
      <trkpt lat="43.2859360" lon="-2.4156630">
        <ele>242.2</ele>
        <time>2018-09-03T06:11:05Z</time>
      </trkpt>
      <trkpt lat="43.2858620" lon="-2.4159230">
        <ele>243.2</ele>
        <time>2018-09-03T06:11:15Z</time>
      </trkpt>
      <trkpt lat="43.2857940" lon="-2.4161400">
        <ele>243.2</ele>
        <time>2018-09-03T06:11:20Z</time>
      </trkpt>
      <trkpt lat="43.2857090" lon="-2.4163520">
        <ele>243.2</ele>
        <time>2018-09-03T06:11:24Z</time>
      </trkpt>
      <trkpt lat="43.2856700" lon="-2.4164770">
        <ele>243.0</ele>
        <time>2018-09-03T06:11:26Z</time>
      </trkpt>
      <trkpt lat="43.2856270" lon="-2.4166740">
        <ele>242.2</ele>
        <time>2018-09-03T06:11:29Z</time>
      </trkpt>
      <trkpt lat="43.2856150" lon="-2.4167530">
        <ele>241.8</ele>
        <time>2018-09-03T06:11:30Z</time>
      </trkpt>
      <trkpt lat="43.2855950" lon="-2.4169810">
        <ele>241.0</ele>
        <time>2018-09-03T06:11:34Z</time>
      </trkpt>
      <trkpt lat="43.2855690" lon="-2.4170820">
        <ele>241.0</ele>
        <time>2018-09-03T06:11:37Z</time>
      </trkpt>
      <trkpt lat="43.2854700" lon="-2.4173320">
        <ele>242.6</ele>
        <time>2018-09-03T06:11:44Z</time>
      </trkpt>
      <trkpt lat="43.2854130" lon="-2.4175110">
        <ele>243.0</ele>
        <time>2018-09-03T06:11:49Z</time>
      </trkpt>
      <trkpt lat="43.2853390" lon="-2.4177330">
        <ele>244.0</ele>
        <time>2018-09-03T06:11:55Z</time>
      </trkpt>
      <trkpt lat="43.2852990" lon="-2.4178980">
        <ele>245.0</ele>
        <time>2018-09-03T06:11:59Z</time>
      </trkpt>
      <trkpt lat="43.2852590" lon="-2.4180320">
        <ele>245.8</ele>
        <time>2018-09-03T06:12:04Z</time>
      </trkpt>
      <trkpt lat="43.2852360" lon="-2.4180910">
        <ele>246.2</ele>
        <time>2018-09-03T06:12:06Z</time>
      </trkpt>
      <trkpt lat="43.2851720" lon="-2.4182900">
        <ele>247.2</ele>
        <time>2018-09-03T06:12:12Z</time>
      </trkpt>
      <trkpt lat="43.2850970" lon="-2.4187320">
        <ele>248.2</ele>
        <time>2018-09-03T06:12:26Z</time>
      </trkpt>
      <trkpt lat="43.2850950" lon="-2.4188250">
        <ele>249.0</ele>
        <time>2018-09-03T06:12:30Z</time>
      </trkpt>
      <trkpt lat="43.2850880" lon="-2.4188690">
        <ele>249.4</ele>
        <time>2018-09-03T06:12:32Z</time>
      </trkpt>
      <trkpt lat="43.2850660" lon="-2.4189520">
        <ele>250.2</ele>
        <time>2018-09-03T06:12:36Z</time>
      </trkpt>
      <trkpt lat="43.2850600" lon="-2.4189730">
        <ele>250.4</ele>
        <time>2018-09-03T06:12:37Z</time>
      </trkpt>
      <trkpt lat="43.2850370" lon="-2.4191030">
        <ele>251.4</ele>
        <time>2018-09-03T06:12:42Z</time>
      </trkpt>
      <trkpt lat="43.2850560" lon="-2.4195250">
        <ele>252.6</ele>
        <time>2018-09-03T06:12:55Z</time>
      </trkpt>
      <trkpt lat="43.2851100" lon="-2.4197080">
        <ele>253.4</ele>
        <time>2018-09-03T06:13:02Z</time>
      </trkpt>
      <trkpt lat="43.2851560" lon="-2.4198670">
        <ele>254.4</ele>
        <time>2018-09-03T06:13:08Z</time>
      </trkpt>
      <trkpt lat="43.2851850" lon="-2.4199910">
        <ele>255.6</ele>
        <time>2018-09-03T06:13:14Z</time>
      </trkpt>
      <trkpt lat="43.2852090" lon="-2.4200660">
        <ele>256.8</ele>
        <time>2018-09-03T06:13:18Z</time>
      </trkpt>
      <trkpt lat="43.2852300" lon="-2.4201690">
        <ele>258.2</ele>
        <time>2018-09-03T06:13:23Z</time>
      </trkpt>
      <trkpt lat="43.2852340" lon="-2.4202470">
        <ele>259.2</ele>
        <time>2018-09-03T06:13:27Z</time>
      </trkpt>
      <trkpt lat="43.2852390" lon="-2.4203300">
        <ele>260.4</ele>
        <time>2018-09-03T06:13:32Z</time>
      </trkpt>
      <trkpt lat="43.2852460" lon="-2.4204390">
        <ele>261.6</ele>
        <time>2018-09-03T06:13:37Z</time>
      </trkpt>
      <trkpt lat="43.2852360" lon="-2.4205460">
        <ele>262.8</ele>
        <time>2018-09-03T06:13:42Z</time>
      </trkpt>
      <trkpt lat="43.2852410" lon="-2.4206690">
        <ele>263.8</ele>
        <time>2018-09-03T06:13:48Z</time>
      </trkpt>
      <trkpt lat="43.2852510" lon="-2.4207740">
        <ele>264.8</ele>
        <time>2018-09-03T06:13:53Z</time>
      </trkpt>
      <trkpt lat="43.2852680" lon="-2.4208610">
        <ele>266.2</ele>
        <time>2018-09-03T06:13:58Z</time>
      </trkpt>
      <trkpt lat="43.2852790" lon="-2.4209640">
        <ele>267.2</ele>
        <time>2018-09-03T06:14:04Z</time>
      </trkpt>
      <trkpt lat="43.2852820" lon="-2.4210570">
        <ele>268.4</ele>
        <time>2018-09-03T06:14:09Z</time>
      </trkpt>
      <trkpt lat="43.2852880" lon="-2.4211790">
        <ele>269.4</ele>
        <time>2018-09-03T06:14:15Z</time>
      </trkpt>
      <trkpt lat="43.2852900" lon="-2.4212810">
        <ele>270.4</ele>
        <time>2018-09-03T06:14:20Z</time>
      </trkpt>
      <trkpt lat="43.2852750" lon="-2.4213820">
        <ele>271.8</ele>
        <time>2018-09-03T06:14:26Z</time>
      </trkpt>
      <trkpt lat="43.2852610" lon="-2.4214170">
        <ele>272.2</ele>
        <time>2018-09-03T06:14:28Z</time>
      </trkpt>
      <trkpt lat="43.2852390" lon="-2.4214680">
        <ele>273.0</ele>
        <time>2018-09-03T06:14:31Z</time>
      </trkpt>
      <trkpt lat="43.2852170" lon="-2.4215220">
        <ele>274.2</ele>
        <time>2018-09-03T06:14:34Z</time>
      </trkpt>
      <trkpt lat="43.2851930" lon="-2.4216350">
        <ele>275.2</ele>
        <time>2018-09-03T06:14:40Z</time>
      </trkpt>
      <trkpt lat="43.2851680" lon="-2.4218220">
        <ele>276.2</ele>
        <time>2018-09-03T06:14:49Z</time>
      </trkpt>
      <trkpt lat="43.2851310" lon="-2.4219470">
        <ele>277.4</ele>
        <time>2018-09-03T06:14:56Z</time>
      </trkpt>
      <trkpt lat="43.2851140" lon="-2.4220470">
        <ele>278.4</ele>
        <time>2018-09-03T06:15:01Z</time>
      </trkpt>
      <trkpt lat="43.2850830" lon="-2.4221450">
        <ele>279.4</ele>
        <time>2018-09-03T06:15:07Z</time>
      </trkpt>
      <trkpt lat="43.2850390" lon="-2.4221990">
        <ele>280.6</ele>
        <time>2018-09-03T06:15:11Z</time>
      </trkpt>
      <trkpt lat="43.2849810" lon="-2.4222510">
        <ele>281.6</ele>
        <time>2018-09-03T06:15:16Z</time>
      </trkpt>
      <trkpt lat="43.2849380" lon="-2.4222830">
        <ele>282.8</ele>
        <time>2018-09-03T06:15:20Z</time>
      </trkpt>
      <trkpt lat="43.2849010" lon="-2.4223180">
        <ele>284.0</ele>
        <time>2018-09-03T06:15:24Z</time>
      </trkpt>
      <trkpt lat="43.2848640" lon="-2.4223520">
        <ele>285.0</ele>
        <time>2018-09-03T06:15:28Z</time>
      </trkpt>
      <trkpt lat="43.2848350" lon="-2.4223900">
        <ele>286.2</ele>
        <time>2018-09-03T06:15:32Z</time>
      </trkpt>
      <trkpt lat="43.2848280" lon="-2.4224020">
        <ele>287.2</ele>
        <time>2018-09-03T06:15:36Z</time>
      </trkpt>
      <trkpt lat="43.2848150" lon="-2.4224130">
        <ele>288.4</ele>
        <time>2018-09-03T06:15:41Z</time>
      </trkpt>
      <trkpt lat="43.2847810" lon="-2.4224340">
        <ele>289.4</ele>
        <time>2018-09-03T06:15:45Z</time>
      </trkpt>
      <trkpt lat="43.2846610" lon="-2.4225050">
        <ele>290.6</ele>
        <time>2018-09-03T06:15:51Z</time>
      </trkpt>
      <trkpt lat="43.2846460" lon="-2.4225120">
        <ele>290.8</ele>
        <time>2018-09-03T06:15:52Z</time>
      </trkpt>
      <trkpt lat="43.2845810" lon="-2.4225240">
        <ele>291.6</ele>
        <time>2018-09-03T06:15:56Z</time>
      </trkpt>
      <trkpt lat="43.2845540" lon="-2.4225370">
        <ele>292.2</ele>
        <time>2018-09-03T06:15:58Z</time>
      </trkpt>
      <trkpt lat="43.2845120" lon="-2.4225430">
        <ele>293.0</ele>
        <time>2018-09-03T06:16:01Z</time>
      </trkpt>
      <trkpt lat="43.2844570" lon="-2.4225750">
        <ele>294.4</ele>
        <time>2018-09-03T06:16:05Z</time>
      </trkpt>
      <trkpt lat="43.2844110" lon="-2.4225860">
        <ele>295.4</ele>
        <time>2018-09-03T06:16:09Z</time>
      </trkpt>
      <trkpt lat="43.2843390" lon="-2.4225930">
        <ele>296.6</ele>
        <time>2018-09-03T06:16:14Z</time>
      </trkpt>
      <trkpt lat="43.2842850" lon="-2.4226000">
        <ele>297.8</ele>
        <time>2018-09-03T06:16:18Z</time>
      </trkpt>
      <trkpt lat="43.2842200" lon="-2.4226160">
        <ele>299.0</ele>
        <time>2018-09-03T06:16:23Z</time>
      </trkpt>
      <trkpt lat="43.2841390" lon="-2.4226460">
        <ele>300.0</ele>
        <time>2018-09-03T06:16:29Z</time>
      </trkpt>
      <trkpt lat="43.2840410" lon="-2.4226780">
        <ele>301.2</ele>
        <time>2018-09-03T06:16:36Z</time>
      </trkpt>
      <trkpt lat="43.2839490" lon="-2.4227030">
        <ele>301.8</ele>
        <time>2018-09-03T06:16:42Z</time>
      </trkpt>
      <trkpt lat="43.2839210" lon="-2.4227160">
        <ele>302.2</ele>
        <time>2018-09-03T06:16:44Z</time>
      </trkpt>
      <trkpt lat="43.2838390" lon="-2.4227530">
        <ele>302.6</ele>
        <time>2018-09-03T06:16:49Z</time>
      </trkpt>
      <trkpt lat="43.2836890" lon="-2.4227900">
        <ele>303.4</ele>
        <time>2018-09-03T06:16:58Z</time>
      </trkpt>
      <trkpt lat="43.2835790" lon="-2.4227760">
        <ele>304.2</ele>
        <time>2018-09-03T06:17:05Z</time>
      </trkpt>
      <trkpt lat="43.2834710" lon="-2.4227730">
        <ele>305.4</ele>
        <time>2018-09-03T06:17:12Z</time>
      </trkpt>
      <trkpt lat="43.2833030" lon="-2.4228200">
        <ele>306.2</ele>
        <time>2018-09-03T06:17:24Z</time>
      </trkpt>
      <trkpt lat="43.2832490" lon="-2.4228180">
        <ele>306.4</ele>
        <time>2018-09-03T06:17:27Z</time>
      </trkpt>
      <trkpt lat="43.2831400" lon="-2.4228670">
        <ele>307.0</ele>
        <time>2018-09-03T06:17:34Z</time>
      </trkpt>
      <trkpt lat="43.2830880" lon="-2.4228730">
        <ele>307.6</ele>
        <time>2018-09-03T06:17:38Z</time>
      </trkpt>
      <trkpt lat="43.2830170" lon="-2.4228730">
        <ele>308.4</ele>
        <time>2018-09-03T06:17:43Z</time>
      </trkpt>
      <trkpt lat="43.2830030" lon="-2.4228770">
        <ele>308.6</ele>
        <time>2018-09-03T06:17:44Z</time>
      </trkpt>
      <trkpt lat="43.2829390" lon="-2.4229120">
        <ele>309.8</ele>
        <time>2018-09-03T06:17:51Z</time>
      </trkpt>
      <trkpt lat="43.2828900" lon="-2.4229200">
        <ele>310.8</ele>
        <time>2018-09-03T06:17:55Z</time>
      </trkpt>
      <trkpt lat="43.2828390" lon="-2.4229300">
        <ele>311.8</ele>
        <time>2018-09-03T06:17:59Z</time>
      </trkpt>
      <trkpt lat="43.2828000" lon="-2.4229370">
        <ele>313.0</ele>
        <time>2018-09-03T06:18:02Z</time>
      </trkpt>
      <trkpt lat="43.2827460" lon="-2.4229480">
        <ele>314.2</ele>
        <time>2018-09-03T06:18:07Z</time>
      </trkpt>
      <trkpt lat="43.2826980" lon="-2.4229540">
        <ele>315.4</ele>
        <time>2018-09-03T06:18:12Z</time>
      </trkpt>
      <trkpt lat="43.2826490" lon="-2.4229680">
        <ele>316.4</ele>
        <time>2018-09-03T06:18:16Z</time>
      </trkpt>
      <trkpt lat="43.2825720" lon="-2.4229820">
        <ele>317.6</ele>
        <time>2018-09-03T06:18:21Z</time>
      </trkpt>
      <trkpt lat="43.2824900" lon="-2.4230230">
        <ele>319.0</ele>
        <time>2018-09-03T06:18:26Z</time>
      </trkpt>
      <trkpt lat="43.2824130" lon="-2.4230500">
        <ele>320.0</ele>
        <time>2018-09-03T06:18:31Z</time>
      </trkpt>
      <trkpt lat="43.2823790" lon="-2.4230660">
        <ele>321.2</ele>
        <time>2018-09-03T06:18:35Z</time>
      </trkpt>
      <trkpt lat="43.2823080" lon="-2.4231020">
        <ele>322.4</ele>
        <time>2018-09-03T06:18:40Z</time>
      </trkpt>
      <trkpt lat="43.2822450" lon="-2.4231200">
        <ele>323.6</ele>
        <time>2018-09-03T06:18:45Z</time>
      </trkpt>
      <trkpt lat="43.2821720" lon="-2.4231430">
        <ele>324.6</ele>
        <time>2018-09-03T06:18:51Z</time>
      </trkpt>
      <trkpt lat="43.2820870" lon="-2.4231760">
        <ele>325.8</ele>
        <time>2018-09-03T06:18:58Z</time>
      </trkpt>
      <trkpt lat="43.2819660" lon="-2.4231770">
        <ele>326.8</ele>
        <time>2018-09-03T06:19:06Z</time>
      </trkpt>
      <trkpt lat="43.2818530" lon="-2.4232010">
        <ele>328.0</ele>
        <time>2018-09-03T06:19:14Z</time>
      </trkpt>
      <trkpt lat="43.2817270" lon="-2.4232180">
        <ele>329.4</ele>
        <time>2018-09-03T06:19:24Z</time>
      </trkpt>
      <trkpt lat="43.2816640" lon="-2.4232290">
        <ele>330.6</ele>
        <time>2018-09-03T06:19:29Z</time>
      </trkpt>
      <trkpt lat="43.2815860" lon="-2.4232330">
        <ele>331.6</ele>
        <time>2018-09-03T06:19:35Z</time>
      </trkpt>
      <trkpt lat="43.2815070" lon="-2.4232470">
        <ele>332.8</ele>
        <time>2018-09-03T06:19:41Z</time>
      </trkpt>
      <trkpt lat="43.2814250" lon="-2.4232480">
        <ele>313.2</ele>
        <time>2018-09-03T06:19:47Z</time>
      </trkpt>
      <trkpt lat="43.2813580" lon="-2.4232320">
        <ele>334.6</ele>
        <time>2018-09-03T06:19:52Z</time>
      </trkpt>
      <trkpt lat="43.2813210" lon="-2.4232310">
        <ele>335.0</ele>
        <time>2018-09-03T06:19:55Z</time>
      </trkpt>
      <trkpt lat="43.2812890" lon="-2.4232120">
        <ele>335.4</ele>
        <time>2018-09-03T06:19:58Z</time>
      </trkpt>
      <trkpt lat="43.2812350" lon="-2.4231970">
        <ele>336.0</ele>
        <time>2018-09-03T06:20:03Z</time>
      </trkpt>
      <trkpt lat="43.2811620" lon="-2.4231590">
        <ele>337.2</ele>
        <time>2018-09-03T06:20:10Z</time>
      </trkpt>
      <trkpt lat="43.2811060" lon="-2.4231210">
        <ele>337.8</ele>
        <time>2018-09-03T06:20:16Z</time>
      </trkpt>
      <trkpt lat="43.2810810" lon="-2.4231160">
        <ele>338.2</ele>
        <time>2018-09-03T06:20:18Z</time>
      </trkpt>
      <trkpt lat="43.2809940" lon="-2.4231030">
        <ele>339.0</ele>
        <time>2018-09-03T06:20:25Z</time>
      </trkpt>
      <trkpt lat="43.2809110" lon="-2.4230800">
        <ele>340.2</ele>
        <time>2018-09-03T06:20:32Z</time>
      </trkpt>
      <trkpt lat="43.2808310" lon="-2.4230750">
        <ele>341.2</ele>
        <time>2018-09-03T06:20:38Z</time>
      </trkpt>
      <trkpt lat="43.2807500" lon="-2.4230880">
        <ele>342.6</ele>
        <time>2018-09-03T06:20:44Z</time>
      </trkpt>
      <trkpt lat="43.2807230" lon="-2.4230880">
        <ele>342.8</ele>
        <time>2018-09-03T06:20:46Z</time>
      </trkpt>
      <trkpt lat="43.2806700" lon="-2.4230770">
        <ele>343.6</ele>
        <time>2018-09-03T06:20:50Z</time>
      </trkpt>
      <trkpt lat="43.2806160" lon="-2.4230710">
        <ele>344.6</ele>
        <time>2018-09-03T06:20:54Z</time>
      </trkpt>
      <trkpt lat="43.2805460" lon="-2.4230700">
        <ele>345.4</ele>
        <time>2018-09-03T06:20:59Z</time>
      </trkpt>
      <trkpt lat="43.2805320" lon="-2.4230700">
        <ele>345.6</ele>
        <time>2018-09-03T06:21:00Z</time>
      </trkpt>
      <trkpt lat="43.2805000" lon="-2.4230920">
        <ele>346.4</ele>
        <time>2018-09-03T06:21:03Z</time>
      </trkpt>
      <trkpt lat="43.2804970" lon="-2.4231200">
        <ele>347.0</ele>
        <time>2018-09-03T06:21:05Z</time>
      </trkpt>
      <trkpt lat="43.2805200" lon="-2.4231830">
        <ele>348.0</ele>
        <time>2018-09-03T06:21:09Z</time>
      </trkpt>
      <trkpt lat="43.2805530" lon="-2.4232150">
        <ele>348.4</ele>
        <time>2018-09-03T06:21:12Z</time>
      </trkpt>
      <trkpt lat="43.2805970" lon="-2.4232540">
        <ele>349.2</ele>
        <time>2018-09-03T06:21:16Z</time>
      </trkpt>
      <trkpt lat="43.2806190" lon="-2.4232760">
        <ele>349.4</ele>
        <time>2018-09-03T06:21:18Z</time>
      </trkpt>
      <trkpt lat="43.2806610" lon="-2.4233120">
        <ele>350.2</ele>
        <time>2018-09-03T06:21:22Z</time>
      </trkpt>
      <trkpt lat="43.2807200" lon="-2.4233750">
        <ele>351.4</ele>
        <time>2018-09-03T06:21:28Z</time>
      </trkpt>
      <trkpt lat="43.2807610" lon="-2.4234110">
        <ele>352.6</ele>
        <time>2018-09-03T06:21:32Z</time>
      </trkpt>
      <trkpt lat="43.2807970" lon="-2.4234800">
        <ele>353.8</ele>
        <time>2018-09-03T06:21:37Z</time>
      </trkpt>
      <trkpt lat="43.2808240" lon="-2.4235600">
        <ele>354.8</ele>
        <time>2018-09-03T06:21:42Z</time>
      </trkpt>
      <trkpt lat="43.2808390" lon="-2.4236430">
        <ele>356.0</ele>
        <time>2018-09-03T06:21:47Z</time>
      </trkpt>
      <trkpt lat="43.2808750" lon="-2.4236840">
        <ele>356.6</ele>
        <time>2018-09-03T06:21:51Z</time>
      </trkpt>
      <trkpt lat="43.2809150" lon="-2.4236950">
        <ele>357.0</ele>
        <time>2018-09-03T06:21:54Z</time>
      </trkpt>
      <trkpt lat="43.2809660" lon="-2.4236740">
        <ele>357.6</ele>
        <time>2018-09-03T06:21:58Z</time>
      </trkpt>
      <trkpt lat="43.2810230" lon="-2.4236730">
        <ele>358.0</ele>
        <time>2018-09-03T06:22:02Z</time>
      </trkpt>
      <trkpt lat="43.2811270" lon="-2.4236770">
        <ele>359.2</ele>
        <time>2018-09-03T06:22:10Z</time>
      </trkpt>
      <trkpt lat="43.2812350" lon="-2.4237240">
        <ele>360.4</ele>
        <time>2018-09-03T06:22:18Z</time>
      </trkpt>
      <trkpt lat="43.2812600" lon="-2.4237330">
        <ele>360.8</ele>
        <time>2018-09-03T06:22:20Z</time>
      </trkpt>
      <trkpt lat="43.2813190" lon="-2.4237740">
        <ele>361.4</ele>
        <time>2018-09-03T06:22:25Z</time>
      </trkpt>
      <trkpt lat="43.2813840" lon="-2.4238470">
        <ele>362.4</ele>
        <time>2018-09-03T06:22:31Z</time>
      </trkpt>
      <trkpt lat="43.2814240" lon="-2.4239390">
        <ele>363.6</ele>
        <time>2018-09-03T06:22:37Z</time>
      </trkpt>
      <trkpt lat="43.2814860" lon="-2.4240300">
        <ele>364.6</ele>
        <time>2018-09-03T06:22:44Z</time>
      </trkpt>
      <trkpt lat="43.2815290" lon="-2.4240720">
        <ele>365.6</ele>
        <time>2018-09-03T06:22:49Z</time>
      </trkpt>
      <trkpt lat="43.2816050" lon="-2.4240760">
        <ele>366.8</ele>
        <time>2018-09-03T06:22:55Z</time>
      </trkpt>
      <trkpt lat="43.2816820" lon="-2.4240710">
        <ele>368.0</ele>
        <time>2018-09-03T06:23:01Z</time>
      </trkpt>
      <trkpt lat="43.2817320" lon="-2.4240630">
        <ele>369.0</ele>
        <time>2018-09-03T06:23:05Z</time>
      </trkpt>
      <trkpt lat="43.2817980" lon="-2.4240640">
        <ele>370.0</ele>
        <time>2018-09-03T06:23:10Z</time>
      </trkpt>
      <trkpt lat="43.2818780" lon="-2.4240690">
        <ele>371.2</ele>
        <time>2018-09-03T06:23:16Z</time>
      </trkpt>
      <trkpt lat="43.2819640" lon="-2.4240630">
        <ele>372.4</ele>
        <time>2018-09-03T06:23:22Z</time>
      </trkpt>
      <trkpt lat="43.2820600" lon="-2.4240760">
        <ele>373.4</ele>
        <time>2018-09-03T06:23:29Z</time>
      </trkpt>
      <trkpt lat="43.2821320" lon="-2.4240910">
        <ele>374.4</ele>
        <time>2018-09-03T06:23:34Z</time>
      </trkpt>
      <trkpt lat="43.2822350" lon="-2.4241020">
        <ele>375.4</ele>
        <time>2018-09-03T06:23:41Z</time>
      </trkpt>
      <trkpt lat="43.2823220" lon="-2.4241100">
        <ele>376.8</ele>
        <time>2018-09-03T06:23:47Z</time>
      </trkpt>
      <trkpt lat="43.2824260" lon="-2.4241170">
        <ele>377.8</ele>
        <time>2018-09-03T06:23:54Z</time>
      </trkpt>
      <trkpt lat="43.2825000" lon="-2.4241520">
        <ele>378.6</ele>
        <time>2018-09-03T06:23:59Z</time>
      </trkpt>
      <trkpt lat="43.2825390" lon="-2.4241780">
        <ele>379.0</ele>
        <time>2018-09-03T06:24:02Z</time>
      </trkpt>
      <trkpt lat="43.2826180" lon="-2.4242290">
        <ele>380.0</ele>
        <time>2018-09-03T06:24:08Z</time>
      </trkpt>
      <trkpt lat="43.2826860" lon="-2.4242790">
        <ele>381.0</ele>
        <time>2018-09-03T06:24:13Z</time>
      </trkpt>
      <trkpt lat="43.2827740" lon="-2.4243330">
        <ele>382.0</ele>
        <time>2018-09-03T06:24:20Z</time>
      </trkpt>
      <trkpt lat="43.2828300" lon="-2.4243860">
        <ele>383.2</ele>
        <time>2018-09-03T06:24:25Z</time>
      </trkpt>
      <trkpt lat="43.2828830" lon="-2.4244720">
        <ele>384.2</ele>
        <time>2018-09-03T06:24:31Z</time>
      </trkpt>
      <trkpt lat="43.2829120" lon="-2.4246020">
        <ele>385.4</ele>
        <time>2018-09-03T06:24:38Z</time>
      </trkpt>
      <trkpt lat="43.2828790" lon="-2.4247870">
        <ele>386.4</ele>
        <time>2018-09-03T06:24:47Z</time>
      </trkpt>
      <trkpt lat="43.2828320" lon="-2.4248990">
        <ele>387.2</ele>
        <time>2018-09-03T06:24:53Z</time>
      </trkpt>
      <trkpt lat="43.2828020" lon="-2.4249460">
        <ele>387.6</ele>
        <time>2018-09-03T06:24:56Z</time>
      </trkpt>
      <trkpt lat="43.2826850" lon="-2.4250740">
        <ele>388.8</ele>
        <time>2018-09-03T06:25:06Z</time>
      </trkpt>
      <trkpt lat="43.2825280" lon="-2.4251720">
        <ele>389.8</ele>
        <time>2018-09-03T06:25:18Z</time>
      </trkpt>
      <trkpt lat="43.2824080" lon="-2.4252300">
        <ele>390.8</ele>
        <time>2018-09-03T06:25:27Z</time>
      </trkpt>
      <trkpt lat="43.2823030" lon="-2.4252600">
        <ele>392.0</ele>
        <time>2018-09-03T06:25:35Z</time>
      </trkpt>
      <trkpt lat="43.2821980" lon="-2.4253160">
        <ele>393.0</ele>
        <time>2018-09-03T06:25:43Z</time>
      </trkpt>
      <trkpt lat="43.2820960" lon="-2.4253770">
        <ele>394.2</ele>
        <time>2018-09-03T06:25:51Z</time>
      </trkpt>
      <trkpt lat="43.2820520" lon="-2.4254150">
        <ele>394.4</ele>
        <time>2018-09-03T06:25:55Z</time>
      </trkpt>
      <trkpt lat="43.2820070" lon="-2.4254920">
        <ele>395.2</ele>
        <time>2018-09-03T06:26:00Z</time>
      </trkpt>
      <trkpt lat="43.2819160" lon="-2.4256400">
        <ele>396.2</ele>
        <time>2018-09-03T06:26:10Z</time>
      </trkpt>
      <trkpt lat="43.2818980" lon="-2.4257470">
        <ele>397.2</ele>
        <time>2018-09-03T06:26:16Z</time>
      </trkpt>
      <trkpt lat="43.2818940" lon="-2.4257640">
        <ele>397.6</ele>
        <time>2018-09-03T06:26:17Z</time>
      </trkpt>
      <trkpt lat="43.2818740" lon="-2.4258500">
        <ele>398.4</ele>
        <time>2018-09-03T06:26:22Z</time>
      </trkpt>
      <trkpt lat="43.2818600" lon="-2.4259350">
        <ele>399.6</ele>
        <time>2018-09-03T06:26:27Z</time>
      </trkpt>
      <trkpt lat="43.2818430" lon="-2.4260170">
        <ele>400.8</ele>
        <time>2018-09-03T06:26:32Z</time>
      </trkpt>
      <trkpt lat="43.2818200" lon="-2.4260940">
        <ele>401.8</ele>
        <time>2018-09-03T06:26:37Z</time>
      </trkpt>
      <trkpt lat="43.2818020" lon="-2.4261630">
        <ele>402.8</ele>
        <time>2018-09-03T06:26:41Z</time>
      </trkpt>
      <trkpt lat="43.2817640" lon="-2.4262560">
        <ele>404.2</ele>
        <time>2018-09-03T06:26:47Z</time>
      </trkpt>
      <trkpt lat="43.2816800" lon="-2.4263570">
        <ele>405.2</ele>
        <time>2018-09-03T06:26:55Z</time>
      </trkpt>
      <trkpt lat="43.2816120" lon="-2.4264790">
        <ele>406.4</ele>
        <time>2018-09-03T06:27:03Z</time>
      </trkpt>
      <trkpt lat="43.2815510" lon="-2.4265850">
        <ele>407.4</ele>
        <time>2018-09-03T06:27:10Z</time>
      </trkpt>
      <trkpt lat="43.2814910" lon="-2.4266810">
        <ele>408.6</ele>
        <time>2018-09-03T06:27:17Z</time>
      </trkpt>
      <trkpt lat="43.2814360" lon="-2.4267560">
        <ele>409.6</ele>
        <time>2018-09-03T06:27:23Z</time>
      </trkpt>
      <trkpt lat="43.2813710" lon="-2.4268340">
        <ele>410.8</ele>
        <time>2018-09-03T06:27:30Z</time>
      </trkpt>
      <trkpt lat="43.2813140" lon="-2.4268670">
        <ele>411.8</ele>
        <time>2018-09-03T06:27:35Z</time>
      </trkpt>
      <trkpt lat="43.2813010" lon="-2.4268650">
        <ele>412.2</ele>
        <time>2018-09-03T06:27:36Z</time>
      </trkpt>
      <trkpt lat="43.2812650" lon="-2.4268350">
        <ele>413.0</ele>
        <time>2018-09-03T06:27:39Z</time>
      </trkpt>
      <trkpt lat="43.2812230" lon="-2.4267690">
        <ele>414.0</ele>
        <time>2018-09-03T06:27:44Z</time>
      </trkpt>
      <trkpt lat="43.2812130" lon="-2.4266970">
        <ele>415.4</ele>
        <time>2018-09-03T06:27:48Z</time>
      </trkpt>
      <trkpt lat="43.2812270" lon="-2.4266030">
        <ele>416.4</ele>
        <time>2018-09-03T06:27:53Z</time>
      </trkpt>
      <trkpt lat="43.2812490" lon="-2.4265260">
        <ele>416.8</ele>
        <time>2018-09-03T06:27:57Z</time>
      </trkpt>
      <trkpt lat="43.2812830" lon="-2.4263810">
        <ele>417.6</ele>
        <time>2018-09-03T06:28:04Z</time>
      </trkpt>
      <trkpt lat="43.2812980" lon="-2.4263190">
        <ele>417.8</ele>
        <time>2018-09-03T06:28:07Z</time>
      </trkpt>
      <trkpt lat="43.2812860" lon="-2.4260440">
        <ele>418.8</ele>
        <time>2018-09-03T06:28:21Z</time>
      </trkpt>
      <trkpt lat="43.2812820" lon="-2.4260260">
        <ele>419.0</ele>
        <time>2018-09-03T06:28:22Z</time>
      </trkpt>
      <trkpt lat="43.2812190" lon="-2.4259880">
        <ele>419.6</ele>
        <time>2018-09-03T06:28:27Z</time>
      </trkpt>
      <trkpt lat="43.2812050" lon="-2.4259900">
        <ele>419.8</ele>
        <time>2018-09-03T06:28:28Z</time>
      </trkpt>
      <trkpt lat="43.2811440" lon="-2.4260330">
        <ele>420.8</ele>
        <time>2018-09-03T06:28:33Z</time>
      </trkpt>
      <trkpt lat="43.2811190" lon="-2.4260710">
        <ele>421.4</ele>
        <time>2018-09-03T06:28:36Z</time>
      </trkpt>
      <trkpt lat="43.2811050" lon="-2.4261310">
        <ele>422.0</ele>
        <time>2018-09-03T06:28:39Z</time>
      </trkpt>
      <trkpt lat="43.2810460" lon="-2.4262590">
        <ele>423.0</ele>
        <time>2018-09-03T06:28:46Z</time>
      </trkpt>
      <trkpt lat="43.2809310" lon="-2.4264290">
        <ele>424.2</ele>
        <time>2018-09-03T06:28:58Z</time>
      </trkpt>
      <trkpt lat="43.2808780" lon="-2.4265050">
        <ele>425.6</ele>
        <time>2018-09-03T06:29:04Z</time>
      </trkpt>
      <trkpt lat="43.2808260" lon="-2.4265860">
        <ele>426.6</ele>
        <time>2018-09-03T06:29:10Z</time>
      </trkpt>
      <trkpt lat="43.2807830" lon="-2.4266690">
        <ele>427.8</ele>
        <time>2018-09-03T06:29:16Z</time>
      </trkpt>
      <trkpt lat="43.2807460" lon="-2.4267370">
        <ele>428.8</ele>
        <time>2018-09-03T06:29:21Z</time>
      </trkpt>
      <trkpt lat="43.2807150" lon="-2.4268380">
        <ele>430.0</ele>
        <time>2018-09-03T06:29:27Z</time>
      </trkpt>
      <trkpt lat="43.2807010" lon="-2.4269060">
        <ele>431.2</ele>
        <time>2018-09-03T06:29:31Z</time>
      </trkpt>
      <trkpt lat="43.2807020" lon="-2.4269740">
        <ele>432.2</ele>
        <time>2018-09-03T06:29:35Z</time>
      </trkpt>
      <trkpt lat="43.2807170" lon="-2.4270670">
        <ele>433.4</ele>
        <time>2018-09-03T06:29:40Z</time>
      </trkpt>
      <trkpt lat="43.2807420" lon="-2.4271550">
        <ele>434.6</ele>
        <time>2018-09-03T06:29:46Z</time>
      </trkpt>
      <trkpt lat="43.2807710" lon="-2.4272430">
        <ele>435.6</ele>
        <time>2018-09-03T06:29:51Z</time>
      </trkpt>
      <trkpt lat="43.2808260" lon="-2.4273590">
        <ele>436.8</ele>
        <time>2018-09-03T06:29:58Z</time>
      </trkpt>
      <trkpt lat="43.2808830" lon="-2.4274700">
        <ele>438.0</ele>
        <time>2018-09-03T06:30:05Z</time>
      </trkpt>
      <trkpt lat="43.2809230" lon="-2.4275460">
        <ele>439.0</ele>
        <time>2018-09-03T06:30:10Z</time>
      </trkpt>
      <trkpt lat="43.2809620" lon="-2.4276210">
        <ele>440.0</ele>
        <time>2018-09-03T06:30:15Z</time>
      </trkpt>
      <trkpt lat="43.2810120" lon="-2.4277080">
        <ele>441.2</ele>
        <time>2018-09-03T06:30:21Z</time>
      </trkpt>
      <trkpt lat="43.2810680" lon="-2.4278120">
        <ele>442.4</ele>
        <time>2018-09-03T06:30:28Z</time>
      </trkpt>
      <trkpt lat="43.2811160" lon="-2.4278740">
        <ele>443.4</ele>
        <time>2018-09-03T06:30:33Z</time>
      </trkpt>
      <trkpt lat="43.2811610" lon="-2.4279450">
        <ele>444.6</ele>
        <time>2018-09-03T06:30:38Z</time>
      </trkpt>
      <trkpt lat="43.2811950" lon="-2.4280040">
        <ele>445.6</ele>
        <time>2018-09-03T06:30:42Z</time>
      </trkpt>
      <trkpt lat="43.2812540" lon="-2.4280920">
        <ele>446.8</ele>
        <time>2018-09-03T06:30:48Z</time>
      </trkpt>
      <trkpt lat="43.2812880" lon="-2.4281670">
        <ele>447.4</ele>
        <time>2018-09-03T06:30:52Z</time>
      </trkpt>
      <trkpt lat="43.2813110" lon="-2.4282080">
        <ele>447.8</ele>
        <time>2018-09-03T06:30:54Z</time>
      </trkpt>
      <trkpt lat="43.2813290" lon="-2.4282550">
        <ele>447.8</ele>
        <time>2018-09-03T06:30:56Z</time>
      </trkpt>
      <trkpt lat="43.2813560" lon="-2.4283120">
        <ele>447.8</ele>
        <time>2018-09-03T06:30:59Z</time>
      </trkpt>
      <trkpt lat="43.2813830" lon="-2.4283860">
        <ele>448.0</ele>
        <time>2018-09-03T06:31:02Z</time>
      </trkpt>
      <trkpt lat="43.2814000" lon="-2.4284400">
        <ele>448.0</ele>
        <time>2018-09-03T06:31:04Z</time>
      </trkpt>
      <trkpt lat="43.2814150" lon="-2.4284850">
        <ele>448.0</ele>
        <time>2018-09-03T06:31:06Z</time>
      </trkpt>
      <trkpt lat="43.2814170" lon="-2.4285280">
        <ele>447.8</ele>
        <time>2018-09-03T06:31:08Z</time>
      </trkpt>
      <trkpt lat="43.2814210" lon="-2.4285660">
        <ele>447.8</ele>
        <time>2018-09-03T06:31:10Z</time>
      </trkpt>
      <trkpt lat="43.2814380" lon="-2.4285930">
        <ele>447.6</ele>
        <time>2018-09-03T06:31:15Z</time>
      </trkpt>
      <trkpt lat="43.2813960" lon="-2.4284650">
        <ele>447.6</ele>
        <time>2018-09-03T06:31:24Z</time>
      </trkpt>
      <trkpt lat="43.2813910" lon="-2.4284560">
        <ele>447.6</ele>
        <time>2018-09-03T06:31:25Z</time>
      </trkpt>
      <trkpt lat="43.2813820" lon="-2.4284340">
        <ele>447.6</ele>
        <time>2018-09-03T06:31:27Z</time>
      </trkpt>
      <trkpt lat="43.2813790" lon="-2.4284210">
        <ele>447.6</ele>
        <time>2018-09-03T06:31:29Z</time>
      </trkpt>
      <trkpt lat="43.2813700" lon="-2.4283970">
        <ele>447.6</ele>
        <time>2018-09-03T06:31:31Z</time>
      </trkpt>
      <trkpt lat="43.2813950" lon="-2.4284290">
        <ele>447.6</ele>
        <time>2018-09-03T06:31:35Z</time>
      </trkpt>
      <trkpt lat="43.2814240" lon="-2.4285050">
        <ele>447.8</ele>
        <time>2018-09-03T06:31:40Z</time>
      </trkpt>
      <trkpt lat="43.2814430" lon="-2.4285820">
        <ele>447.8</ele>
        <time>2018-09-03T06:31:45Z</time>
      </trkpt>
      <trkpt lat="43.2814420" lon="-2.4285970">
        <ele>447.8</ele>
        <time>2018-09-03T06:31:46Z</time>
      </trkpt>
      <trkpt lat="43.2814070" lon="-2.4285080">
        <ele>447.4</ele>
        <time>2018-09-03T06:31:55Z</time>
      </trkpt>
      <trkpt lat="43.2814050" lon="-2.4284530">
        <ele>447.4</ele>
        <time>2018-09-03T06:31:58Z</time>
      </trkpt>
      <trkpt lat="43.2813960" lon="-2.4283950">
        <ele>447.4</ele>
        <time>2018-09-03T06:32:01Z</time>
      </trkpt>
      <trkpt lat="43.2813740" lon="-2.4283400">
        <ele>447.6</ele>
        <time>2018-09-03T06:32:04Z</time>
      </trkpt>
      <trkpt lat="43.2812930" lon="-2.4281960">
        <ele>447.8</ele>
        <time>2018-09-03T06:32:14Z</time>
      </trkpt>
      <trkpt lat="43.2812650" lon="-2.4281380">
        <ele>447.8</ele>
        <time>2018-09-03T06:32:18Z</time>
      </trkpt>
      <trkpt lat="43.2812420" lon="-2.4280900">
        <ele>447.8</ele>
        <time>2018-09-03T06:32:21Z</time>
      </trkpt>
      <trkpt lat="43.2812760" lon="-2.4281070">
        <ele>447.8</ele>
        <time>2018-09-03T06:32:25Z</time>
      </trkpt>
      <trkpt lat="43.2812900" lon="-2.4281380">
        <ele>447.8</ele>
        <time>2018-09-03T06:32:27Z</time>
      </trkpt>
      <trkpt lat="43.2813000" lon="-2.4281570">
        <ele>447.6</ele>
        <time>2018-09-03T06:32:28Z</time>
      </trkpt>
      <trkpt lat="43.2814520" lon="-2.4285760">
        <ele>447.4</ele>
        <time>2018-09-03T06:32:53Z</time>
      </trkpt>
      <trkpt lat="43.2814520" lon="-2.4285770">
        <ele>447.4</ele>
        <time>2018-09-03T06:33:01Z</time>
      </trkpt>
      <trkpt lat="43.2814530" lon="-2.4285760">
        <ele>447.4</ele>
        <time>2018-09-03T06:33:15Z</time>
      </trkpt>
      <trkpt lat="43.2814520" lon="-2.4285760">
        <ele>447.4</ele>
        <time>2018-09-03T06:33:20Z</time>
      </trkpt>
      <trkpt lat="43.2814520" lon="-2.4285750">
        <ele>447.4</ele>
        <time>2018-09-03T06:33:28Z</time>
      </trkpt>
      <trkpt lat="43.2814520" lon="-2.4285760">
        <ele>447.4</ele>
        <time>2018-09-03T06:33:50Z</time>
      </trkpt>
      <trkpt lat="43.2814520" lon="-2.4285760">
        <ele>447.2</ele>
        <time>2018-09-03T06:34:00Z</time>
      </trkpt>
      <trkpt lat="43.2814520" lon="-2.4285760">
        <ele>447.2</ele>
        <time>2018-09-03T06:34:02Z</time>
      </trkpt>
      <trkpt lat="43.2814520" lon="-2.4285760">
        <ele>447.2</ele>
        <time>2018-09-03T06:34:26Z</time>
      </trkpt>
      <trkpt lat="43.2814520" lon="-2.4285760">
        <ele>447.2</ele>
        <time>2018-09-03T06:34:29Z</time>
      </trkpt>
      <trkpt lat="43.2814520" lon="-2.4285750">
        <ele>447.2</ele>
        <time>2018-09-03T06:34:42Z</time>
      </trkpt>
      <trkpt lat="43.2814520" lon="-2.4285750">
        <ele>447.0</ele>
        <time>2018-09-03T06:34:48Z</time>
      </trkpt>
      <trkpt lat="43.2814520" lon="-2.4285710">
        <ele>446.8</ele>
        <time>2018-09-03T06:35:26Z</time>
      </trkpt>
      <trkpt lat="43.2814520" lon="-2.4285710">
        <ele>446.8</ele>
        <time>2018-09-03T06:35:28Z</time>
      </trkpt>
      <trkpt lat="43.2814580" lon="-2.4286020">
        <ele>447.2</ele>
        <time>2018-09-03T06:35:51Z</time>
      </trkpt>
      <trkpt lat="43.2814580" lon="-2.4286020">
        <ele>447.2</ele>
        <time>2018-09-03T06:35:56Z</time>
      </trkpt>
      <trkpt lat="43.2814580" lon="-2.4286020">
        <ele>447.2</ele>
        <time>2018-09-03T06:36:04Z</time>
      </trkpt>
      <trkpt lat="43.2814580" lon="-2.4286010">
        <ele>447.2</ele>
        <time>2018-09-03T06:36:12Z</time>
      </trkpt>
      <trkpt lat="43.2814580" lon="-2.4286010">
        <ele>447.0</ele>
        <time>2018-09-03T06:36:23Z</time>
      </trkpt>
      <trkpt lat="43.2814580" lon="-2.4286010">
        <ele>446.8</ele>
        <time>2018-09-03T06:36:37Z</time>
      </trkpt>
      <trkpt lat="43.2814580" lon="-2.4286030">
        <ele>447.0</ele>
        <time>2018-09-03T06:36:52Z</time>
      </trkpt>
      <trkpt lat="43.2814580" lon="-2.4286030">
        <ele>447.0</ele>
        <time>2018-09-03T06:36:55Z</time>
      </trkpt>
      <trkpt lat="43.2814580" lon="-2.4286030">
        <ele>447.2</ele>
        <time>2018-09-03T06:37:07Z</time>
      </trkpt>
      <trkpt lat="43.2814580" lon="-2.4286030">
        <ele>447.2</ele>
        <time>2018-09-03T06:37:09Z</time>
      </trkpt>
      <trkpt lat="43.2814580" lon="-2.4286030">
        <ele>447.2</ele>
        <time>2018-09-03T06:37:11Z</time>
      </trkpt>
      <trkpt lat="43.2814580" lon="-2.4286030">
        <ele>447.0</ele>
        <time>2018-09-03T06:37:22Z</time>
      </trkpt>
      <trkpt lat="43.2814580" lon="-2.4286030">
        <ele>447.0</ele>
        <time>2018-09-03T06:37:37Z</time>
      </trkpt>
      <trkpt lat="43.2814570" lon="-2.4286030">
        <ele>447.0</ele>
        <time>2018-09-03T06:37:40Z</time>
      </trkpt>
      <trkpt lat="43.2814580" lon="-2.4286030">
        <ele>447.0</ele>
        <time>2018-09-03T06:37:42Z</time>
      </trkpt>
      <trkpt lat="43.2814570" lon="-2.4286030">
        <ele>447.0</ele>
        <time>2018-09-03T06:37:47Z</time>
      </trkpt>
      <trkpt lat="43.2814480" lon="-2.4285810">
        <ele>447.0</ele>
        <time>2018-09-03T06:37:57Z</time>
      </trkpt>
      <trkpt lat="43.2814270" lon="-2.4284990">
        <ele>447.0</ele>
        <time>2018-09-03T06:38:04Z</time>
      </trkpt>
      <trkpt lat="43.2814190" lon="-2.4285130">
        <ele>447.0</ele>
        <time>2018-09-03T06:38:06Z</time>
      </trkpt>
      <trkpt lat="43.2814380" lon="-2.4285590">
        <ele>447.0</ele>
        <time>2018-09-03T06:38:11Z</time>
      </trkpt>
      <trkpt lat="43.2814420" lon="-2.4285730">
        <ele>446.8</ele>
        <time>2018-09-03T06:38:18Z</time>
      </trkpt>
      <trkpt lat="43.2814400" lon="-2.4285740">
        <ele>446.8</ele>
        <time>2018-09-03T06:38:21Z</time>
      </trkpt>
      <trkpt lat="43.2814400" lon="-2.4285740">
        <ele>446.8</ele>
        <time>2018-09-03T06:38:23Z</time>
      </trkpt>
      <trkpt lat="43.2814390" lon="-2.4285740">
        <ele>446.8</ele>
        <time>2018-09-03T06:38:31Z</time>
      </trkpt>
      <trkpt lat="43.2814400" lon="-2.4285740">
        <ele>446.8</ele>
        <time>2018-09-03T06:38:49Z</time>
      </trkpt>
      <trkpt lat="43.2814390" lon="-2.4285740">
        <ele>446.6</ele>
        <time>2018-09-03T06:39:00Z</time>
      </trkpt>
      <trkpt lat="43.2814510" lon="-2.4285990">
        <ele>446.6</ele>
        <time>2018-09-03T06:39:07Z</time>
      </trkpt>
      <trkpt lat="43.2814280" lon="-2.4286300">
        <ele>446.6</ele>
        <time>2018-09-03T06:39:11Z</time>
      </trkpt>
      <trkpt lat="43.2814060" lon="-2.4285410">
        <ele>446.6</ele>
        <time>2018-09-03T06:39:17Z</time>
      </trkpt>
      <trkpt lat="43.2814030" lon="-2.4284930">
        <ele>446.4</ele>
        <time>2018-09-03T06:39:20Z</time>
      </trkpt>
      <trkpt lat="43.2814220" lon="-2.4285140">
        <ele>446.4</ele>
        <time>2018-09-03T06:39:24Z</time>
      </trkpt>
      <trkpt lat="43.2814260" lon="-2.4285410">
        <ele>446.4</ele>
        <time>2018-09-03T06:39:26Z</time>
      </trkpt>
      <trkpt lat="43.2814270" lon="-2.4285980">
        <ele>446.4</ele>
        <time>2018-09-03T06:39:32Z</time>
      </trkpt>
      <trkpt lat="43.2814620" lon="-2.4286390">
        <ele>446.4</ele>
        <time>2018-09-03T06:39:38Z</time>
      </trkpt>
      <trkpt lat="43.2814920" lon="-2.4287730">
        <ele>446.4</ele>
        <time>2018-09-03T06:39:44Z</time>
      </trkpt>
      <trkpt lat="43.2816250" lon="-2.4290900">
        <ele>446.0</ele>
        <time>2018-09-03T06:39:50Z</time>
      </trkpt>
      <trkpt lat="43.2816630" lon="-2.4291820">
        <ele>445.6</ele>
        <time>2018-09-03T06:39:52Z</time>
      </trkpt>
      <trkpt lat="43.2816750" lon="-2.4292350">
        <ele>444.2</ele>
        <time>2018-09-03T06:39:54Z</time>
      </trkpt>
      <trkpt lat="43.2816730" lon="-2.4292880">
        <ele>443.0</ele>
        <time>2018-09-03T06:39:57Z</time>
      </trkpt>
      <trkpt lat="43.2816310" lon="-2.4293450">
        <ele>442.0</ele>
        <time>2018-09-03T06:40:00Z</time>
      </trkpt>
      <trkpt lat="43.2815040" lon="-2.4293960">
        <ele>441.4</ele>
        <time>2018-09-03T06:40:03Z</time>
      </trkpt>
      <trkpt lat="43.2813810" lon="-2.4293960">
        <ele>441.0</ele>
        <time>2018-09-03T06:40:05Z</time>
      </trkpt>
      <trkpt lat="43.2813130" lon="-2.4293970">
        <ele>440.8</ele>
        <time>2018-09-03T06:40:06Z</time>
      </trkpt>
      <trkpt lat="43.2810920" lon="-2.4294240">
        <ele>439.2</ele>
        <time>2018-09-03T06:40:09Z</time>
      </trkpt>
      <trkpt lat="43.2809450" lon="-2.4294500">
        <ele>437.6</ele>
        <time>2018-09-03T06:40:11Z</time>
      </trkpt>
      <trkpt lat="43.2807890" lon="-2.4294750">
        <ele>436.0</ele>
        <time>2018-09-03T06:40:13Z</time>
      </trkpt>
      <trkpt lat="43.2806250" lon="-2.4294820">
        <ele>434.6</ele>
        <time>2018-09-03T06:40:15Z</time>
      </trkpt>
      <trkpt lat="43.2803830" lon="-2.4294450">
        <ele>433.2</ele>
        <time>2018-09-03T06:40:18Z</time>
      </trkpt>
      <trkpt lat="43.2801550" lon="-2.4294130">
        <ele>431.6</ele>
        <time>2018-09-03T06:40:21Z</time>
      </trkpt>
      <trkpt lat="43.2800160" lon="-2.4294100">
        <ele>430.6</ele>
        <time>2018-09-03T06:40:23Z</time>
      </trkpt>
      <trkpt lat="43.2798170" lon="-2.4293960">
        <ele>430.0</ele>
        <time>2018-09-03T06:40:26Z</time>
      </trkpt>
      <trkpt lat="43.2794850" lon="-2.4293610">
        <ele>429.8</ele>
        <time>2018-09-03T06:40:32Z</time>
      </trkpt>
      <trkpt lat="43.2793430" lon="-2.4293850">
        <ele>430.4</ele>
        <time>2018-09-03T06:40:35Z</time>
      </trkpt>
      <trkpt lat="43.2791840" lon="-2.4294160">
        <ele>430.6</ele>
        <time>2018-09-03T06:40:38Z</time>
      </trkpt>
      <trkpt lat="43.2791240" lon="-2.4294180">
        <ele>430.6</ele>
        <time>2018-09-03T06:40:39Z</time>
      </trkpt>
      <trkpt lat="43.2789260" lon="-2.4294000">
        <ele>430.6</ele>
        <time>2018-09-03T06:40:42Z</time>
      </trkpt>
      <trkpt lat="43.2786990" lon="-2.4294510">
        <ele>430.4</ele>
        <time>2018-09-03T06:40:46Z</time>
      </trkpt>
      <trkpt lat="43.2786060" lon="-2.4295130">
        <ele>429.4</ele>
        <time>2018-09-03T06:40:48Z</time>
      </trkpt>
      <trkpt lat="43.2785050" lon="-2.4295770">
        <ele>428.8</ele>
        <time>2018-09-03T06:40:50Z</time>
      </trkpt>
      <trkpt lat="43.2783990" lon="-2.4296180">
        <ele>428.8</ele>
        <time>2018-09-03T06:40:52Z</time>
      </trkpt>
      <trkpt lat="43.2782680" lon="-2.4296470">
        <ele>428.8</ele>
        <time>2018-09-03T06:40:55Z</time>
      </trkpt>
      <trkpt lat="43.2780980" lon="-2.4296550">
        <ele>429.2</ele>
        <time>2018-09-03T06:41:00Z</time>
      </trkpt>
      <trkpt lat="43.2779930" lon="-2.4296910">
        <ele>431.0</ele>
        <time>2018-09-03T06:41:03Z</time>
      </trkpt>
      <trkpt lat="43.2776880" lon="-2.4300350">
        <ele>431.8</ele>
        <time>2018-09-03T06:41:11Z</time>
      </trkpt>
      <trkpt lat="43.2776100" lon="-2.4301490">
        <ele>431.8</ele>
        <time>2018-09-03T06:41:13Z</time>
      </trkpt>
      <trkpt lat="43.2775410" lon="-2.4302510">
        <ele>431.8</ele>
        <time>2018-09-03T06:41:15Z</time>
      </trkpt>
      <trkpt lat="43.2774920" lon="-2.4303240">
        <ele>431.8</ele>
        <time>2018-09-03T06:41:17Z</time>
      </trkpt>
      <trkpt lat="43.2774630" lon="-2.4303780">
        <ele>431.8</ele>
        <time>2018-09-03T06:41:19Z</time>
      </trkpt>
      <trkpt lat="43.2774400" lon="-2.4304220">
        <ele>431.8</ele>
        <time>2018-09-03T06:41:21Z</time>
      </trkpt>
      <trkpt lat="43.2773990" lon="-2.4304760">
        <ele>432.0</ele>
        <time>2018-09-03T06:41:24Z</time>
      </trkpt>
      <trkpt lat="43.2773730" lon="-2.4305120">
        <ele>433.2</ele>
        <time>2018-09-03T06:41:26Z</time>
      </trkpt>
      <trkpt lat="43.2773460" lon="-2.4305470">
        <ele>434.4</ele>
        <time>2018-09-03T06:41:28Z</time>
      </trkpt>
      <trkpt lat="43.2772870" lon="-2.4306220">
        <ele>435.6</ele>
        <time>2018-09-03T06:41:32Z</time>
      </trkpt>
      <trkpt lat="43.2771410" lon="-2.4307600">
        <ele>436.4</ele>
        <time>2018-09-03T06:41:42Z</time>
      </trkpt>
      <trkpt lat="43.2770350" lon="-2.4308100">
        <ele>437.4</ele>
        <time>2018-09-03T06:41:49Z</time>
      </trkpt>
      <trkpt lat="43.2770040" lon="-2.4308220">
        <ele>437.6</ele>
        <time>2018-09-03T06:41:51Z</time>
      </trkpt>
      <trkpt lat="43.2769070" lon="-2.4308270">
        <ele>438.8</ele>
        <time>2018-09-03T06:41:57Z</time>
      </trkpt>
      <trkpt lat="43.2768290" lon="-2.4308180">
        <ele>439.0</ele>
        <time>2018-09-03T06:42:00Z</time>
      </trkpt>
      <trkpt lat="43.2767220" lon="-2.4308000">
        <ele>439.0</ele>
        <time>2018-09-03T06:42:03Z</time>
      </trkpt>
      <trkpt lat="43.2766770" lon="-2.4307910">
        <ele>439.0</ele>
        <time>2018-09-03T06:42:04Z</time>
      </trkpt>
      <trkpt lat="43.2765190" lon="-2.4307380">
        <ele>439.0</ele>
        <time>2018-09-03T06:42:07Z</time>
      </trkpt>
      <trkpt lat="43.2762910" lon="-2.4306660">
        <ele>437.8</ele>
        <time>2018-09-03T06:42:11Z</time>
      </trkpt>
      <trkpt lat="43.2762240" lon="-2.4306420">
        <ele>437.4</ele>
        <time>2018-09-03T06:42:12Z</time>
      </trkpt>
      <trkpt lat="43.2761600" lon="-2.4306150">
        <ele>436.2</ele>
        <time>2018-09-03T06:42:13Z</time>
      </trkpt>
      <trkpt lat="43.2760950" lon="-2.4305820">
        <ele>435.6</ele>
        <time>2018-09-03T06:42:14Z</time>
      </trkpt>
      <trkpt lat="43.2760330" lon="-2.4305490">
        <ele>435.0</ele>
        <time>2018-09-03T06:42:15Z</time>
      </trkpt>
      <trkpt lat="43.2759070" lon="-2.4304800">
        <ele>434.2</ele>
        <time>2018-09-03T06:42:17Z</time>
      </trkpt>
      <trkpt lat="43.2758450" lon="-2.4304450">
        <ele>433.6</ele>
        <time>2018-09-03T06:42:18Z</time>
      </trkpt>
      <trkpt lat="43.2756720" lon="-2.4303250">
        <ele>432.4</ele>
        <time>2018-09-03T06:42:21Z</time>
      </trkpt>
      <trkpt lat="43.2754060" lon="-2.4301710">
        <ele>431.4</ele>
        <time>2018-09-03T06:42:25Z</time>
      </trkpt>
      <trkpt lat="43.2753320" lon="-2.4301310">
        <ele>431.2</ele>
        <time>2018-09-03T06:42:26Z</time>
      </trkpt>
      <trkpt lat="43.2751840" lon="-2.4300310">
        <ele>430.6</ele>
        <time>2018-09-03T06:42:28Z</time>
      </trkpt>
      <trkpt lat="43.2750550" lon="-2.4298830">
        <ele>429.8</ele>
        <time>2018-09-03T06:42:30Z</time>
      </trkpt>
      <trkpt lat="43.2749890" lon="-2.4298100">
        <ele>429.4</ele>
        <time>2018-09-03T06:42:31Z</time>
      </trkpt>
      <trkpt lat="43.2749160" lon="-2.4297520">
        <ele>428.8</ele>
        <time>2018-09-03T06:42:32Z</time>
      </trkpt>
      <trkpt lat="43.2747580" lon="-2.4296760">
        <ele>427.0</ele>
        <time>2018-09-03T06:42:34Z</time>
      </trkpt>
      <trkpt lat="43.2746770" lon="-2.4296490">
        <ele>426.4</ele>
        <time>2018-09-03T06:42:35Z</time>
      </trkpt>
      <trkpt lat="43.2745940" lon="-2.4296230">
        <ele>425.8</ele>
        <time>2018-09-03T06:42:36Z</time>
      </trkpt>
      <trkpt lat="43.2744230" lon="-2.4295710">
        <ele>424.4</ele>
        <time>2018-09-03T06:42:38Z</time>
      </trkpt>
      <trkpt lat="43.2742370" lon="-2.4295320">
        <ele>423.4</ele>
        <time>2018-09-03T06:42:40Z</time>
      </trkpt>
      <trkpt lat="43.2739490" lon="-2.4294930">
        <ele>422.4</ele>
        <time>2018-09-03T06:42:43Z</time>
      </trkpt>
      <trkpt lat="43.2738560" lon="-2.4295040">
        <ele>422.0</ele>
        <time>2018-09-03T06:42:44Z</time>
      </trkpt>
      <trkpt lat="43.2737210" lon="-2.4295760">
        <ele>420.4</ele>
        <time>2018-09-03T06:42:46Z</time>
      </trkpt>
      <trkpt lat="43.2736610" lon="-2.4296420">
        <ele>419.4</ele>
        <time>2018-09-03T06:42:47Z</time>
      </trkpt>
      <trkpt lat="43.2735990" lon="-2.4296980">
        <ele>418.8</ele>
        <time>2018-09-03T06:42:48Z</time>
      </trkpt>
      <trkpt lat="43.2734630" lon="-2.4298060">
        <ele>418.0</ele>
        <time>2018-09-03T06:42:50Z</time>
      </trkpt>
      <trkpt lat="43.2732060" lon="-2.4300230">
        <ele>417.0</ele>
        <time>2018-09-03T06:42:53Z</time>
      </trkpt>
      <trkpt lat="43.2729220" lon="-2.4302620">
        <ele>416.2</ele>
        <time>2018-09-03T06:42:56Z</time>
      </trkpt>
      <trkpt lat="43.2728330" lon="-2.4303360">
        <ele>415.8</ele>
        <time>2018-09-03T06:42:57Z</time>
      </trkpt>
      <trkpt lat="43.2726560" lon="-2.4304270">
        <ele>414.0</ele>
        <time>2018-09-03T06:42:59Z</time>
      </trkpt>
      <trkpt lat="43.2725750" lon="-2.4304420">
        <ele>412.6</ele>
        <time>2018-09-03T06:43:00Z</time>
      </trkpt>
      <trkpt lat="43.2725130" lon="-2.4304300">
        <ele>411.2</ele>
        <time>2018-09-03T06:43:01Z</time>
      </trkpt>
      <trkpt lat="43.2724670" lon="-2.4304190">
        <ele>409.8</ele>
        <time>2018-09-03T06:43:02Z</time>
      </trkpt>
      <trkpt lat="43.2724270" lon="-2.4304060">
        <ele>408.4</ele>
        <time>2018-09-03T06:43:03Z</time>
      </trkpt>
      <trkpt lat="43.2724000" lon="-2.4304020">
        <ele>407.0</ele>
        <time>2018-09-03T06:43:04Z</time>
      </trkpt>
      <trkpt lat="43.2723830" lon="-2.4304070">
        <ele>405.8</ele>
        <time>2018-09-03T06:43:05Z</time>
      </trkpt>
      <trkpt lat="43.2723610" lon="-2.4304210">
        <ele>405.0</ele>
        <time>2018-09-03T06:43:06Z</time>
      </trkpt>
      <trkpt lat="43.2723450" lon="-2.4304440">
        <ele>404.4</ele>
        <time>2018-09-03T06:43:07Z</time>
      </trkpt>
      <trkpt lat="43.2723140" lon="-2.4306040">
        <ele>403.2</ele>
        <time>2018-09-03T06:43:11Z</time>
      </trkpt>
      <trkpt lat="43.2723140" lon="-2.4306560">
        <ele>403.0</ele>
        <time>2018-09-03T06:43:12Z</time>
      </trkpt>
      <trkpt lat="43.2723270" lon="-2.4308700">
        <ele>402.2</ele>
        <time>2018-09-03T06:43:15Z</time>
      </trkpt>
      <trkpt lat="43.2724000" lon="-2.4312940">
        <ele>400.6</ele>
        <time>2018-09-03T06:43:19Z</time>
      </trkpt>
      <trkpt lat="43.2724340" lon="-2.4315950">
        <ele>398.6</ele>
        <time>2018-09-03T06:43:21Z</time>
      </trkpt>
      <trkpt lat="43.2724180" lon="-2.4319760">
        <ele>396.6</ele>
        <time>2018-09-03T06:43:23Z</time>
      </trkpt>
      <trkpt lat="43.2723950" lon="-2.4321430">
        <ele>395.0</ele>
        <time>2018-09-03T06:43:24Z</time>
      </trkpt>
      <trkpt lat="43.2723750" lon="-2.4323180">
        <ele>393.0</ele>
        <time>2018-09-03T06:43:25Z</time>
      </trkpt>
      <trkpt lat="43.2723660" lon="-2.4324640">
        <ele>390.4</ele>
        <time>2018-09-03T06:43:26Z</time>
      </trkpt>
      <trkpt lat="43.2723550" lon="-2.4326040">
        <ele>386.8</ele>
        <time>2018-09-03T06:43:27Z</time>
      </trkpt>
      <trkpt lat="43.2723270" lon="-2.4327330">
        <ele>383.0</ele>
        <time>2018-09-03T06:43:28Z</time>
      </trkpt>
      <trkpt lat="43.2722720" lon="-2.4328380">
        <ele>379.8</ele>
        <time>2018-09-03T06:43:29Z</time>
      </trkpt>
      <trkpt lat="43.2721990" lon="-2.4329450">
        <ele>377.8</ele>
        <time>2018-09-03T06:43:30Z</time>
      </trkpt>
      <trkpt lat="43.2721090" lon="-2.4330400">
        <ele>376.6</ele>
        <time>2018-09-03T06:43:31Z</time>
      </trkpt>
      <trkpt lat="43.2719150" lon="-2.4331120">
        <ele>375.4</ele>
        <time>2018-09-03T06:43:33Z</time>
      </trkpt>
      <trkpt lat="43.2716890" lon="-2.4330940">
        <ele>374.4</ele>
        <time>2018-09-03T06:43:35Z</time>
      </trkpt>
      <trkpt lat="43.2715790" lon="-2.4330610">
        <ele>372.6</ele>
        <time>2018-09-03T06:43:36Z</time>
      </trkpt>
      <trkpt lat="43.2714840" lon="-2.4330130">
        <ele>371.0</ele>
        <time>2018-09-03T06:43:37Z</time>
      </trkpt>
      <trkpt lat="43.2713920" lon="-2.4329680">
        <ele>369.4</ele>
        <time>2018-09-03T06:43:38Z</time>
      </trkpt>
      <trkpt lat="43.2713000" lon="-2.4329170">
        <ele>368.2</ele>
        <time>2018-09-03T06:43:39Z</time>
      </trkpt>
      <trkpt lat="43.2712080" lon="-2.4328760">
        <ele>367.0</ele>
        <time>2018-09-03T06:43:40Z</time>
      </trkpt>
      <trkpt lat="43.2711290" lon="-2.4328520">
        <ele>366.2</ele>
        <time>2018-09-03T06:43:41Z</time>
      </trkpt>
      <trkpt lat="43.2710560" lon="-2.4328560">
        <ele>365.4</ele>
        <time>2018-09-03T06:43:42Z</time>
      </trkpt>
      <trkpt lat="43.2708110" lon="-2.4330440">
        <ele>364.2</ele>
        <time>2018-09-03T06:43:45Z</time>
      </trkpt>
      <trkpt lat="43.2703220" lon="-2.4334240">
        <ele>362.2</ele>
        <time>2018-09-03T06:43:50Z</time>
      </trkpt>
      <trkpt lat="43.2702700" lon="-2.4335080">
        <ele>360.8</ele>
        <time>2018-09-03T06:43:51Z</time>
      </trkpt>
      <trkpt lat="43.2702280" lon="-2.4335900">
        <ele>358.4</ele>
        <time>2018-09-03T06:43:52Z</time>
      </trkpt>
      <trkpt lat="43.2702070" lon="-2.4336800">
        <ele>355.6</ele>
        <time>2018-09-03T06:43:53Z</time>
      </trkpt>
      <trkpt lat="43.2701920" lon="-2.4337720">
        <ele>352.8</ele>
        <time>2018-09-03T06:43:54Z</time>
      </trkpt>
      <trkpt lat="43.2701730" lon="-2.4338760">
        <ele>350.0</ele>
        <time>2018-09-03T06:43:55Z</time>
      </trkpt>
      <trkpt lat="43.2701570" lon="-2.4339710">
        <ele>345.6</ele>
        <time>2018-09-03T06:43:56Z</time>
      </trkpt>
      <trkpt lat="43.2701370" lon="-2.4340560">
        <ele>343.8</ele>
        <time>2018-09-03T06:43:57Z</time>
      </trkpt>
      <trkpt lat="43.2701200" lon="-2.4341430">
        <ele>342.4</ele>
        <time>2018-09-03T06:43:58Z</time>
      </trkpt>
      <trkpt lat="43.2700880" lon="-2.4342490">
        <ele>341.2</ele>
        <time>2018-09-03T06:43:59Z</time>
      </trkpt>
      <trkpt lat="43.2700330" lon="-2.4344820">
        <ele>339.2</ele>
        <time>2018-09-03T06:44:01Z</time>
      </trkpt>
      <trkpt lat="43.2699930" lon="-2.4347830">
        <ele>337.6</ele>
        <time>2018-09-03T06:44:03Z</time>
      </trkpt>
      <trkpt lat="43.2699750" lon="-2.4349560">
        <ele>336.4</ele>
        <time>2018-09-03T06:44:04Z</time>
      </trkpt>
      <trkpt lat="43.2699470" lon="-2.4351300">
        <ele>335.2</ele>
        <time>2018-09-03T06:44:05Z</time>
      </trkpt>
      <trkpt lat="43.2699120" lon="-2.4352850">
        <ele>333.8</ele>
        <time>2018-09-03T06:44:06Z</time>
      </trkpt>
      <trkpt lat="43.2698910" lon="-2.4354490">
        <ele>332.4</ele>
        <time>2018-09-03T06:44:07Z</time>
      </trkpt>
      <trkpt lat="43.2698510" lon="-2.4355880">
        <ele>330.4</ele>
        <time>2018-09-03T06:44:08Z</time>
      </trkpt>
      <trkpt lat="43.2697970" lon="-2.4357220">
        <ele>327.6</ele>
        <time>2018-09-03T06:44:09Z</time>
      </trkpt>
      <trkpt lat="43.2697200" lon="-2.4358610">
        <ele>324.6</ele>
        <time>2018-09-03T06:44:10Z</time>
      </trkpt>
      <trkpt lat="43.2696390" lon="-2.4360030">
        <ele>321.6</ele>
        <time>2018-09-03T06:44:11Z</time>
      </trkpt>
      <trkpt lat="43.2695510" lon="-2.4361590">
        <ele>319.2</ele>
        <time>2018-09-03T06:44:12Z</time>
      </trkpt>
      <trkpt lat="43.2694580" lon="-2.4363240">
        <ele>317.6</ele>
        <time>2018-09-03T06:44:13Z</time>
      </trkpt>
      <trkpt lat="43.2693590" lon="-2.4364940">
        <ele>316.4</ele>
        <time>2018-09-03T06:44:14Z</time>
      </trkpt>
      <trkpt lat="43.2691660" lon="-2.4368160">
        <ele>314.8</ele>
        <time>2018-09-03T06:44:16Z</time>
      </trkpt>
      <trkpt lat="43.2690640" lon="-2.4369610">
        <ele>313.0</ele>
        <time>2018-09-03T06:44:17Z</time>
      </trkpt>
      <trkpt lat="43.2689720" lon="-2.4370820">
        <ele>310.0</ele>
        <time>2018-09-03T06:44:18Z</time>
      </trkpt>
      <trkpt lat="43.2688880" lon="-2.4371860">
        <ele>306.4</ele>
        <time>2018-09-03T06:44:19Z</time>
      </trkpt>
      <trkpt lat="43.2688080" lon="-2.4372810">
        <ele>302.0</ele>
        <time>2018-09-03T06:44:20Z</time>
      </trkpt>
      <trkpt lat="43.2687360" lon="-2.4373740">
        <ele>298.0</ele>
        <time>2018-09-03T06:44:21Z</time>
      </trkpt>
      <trkpt lat="43.2686810" lon="-2.4374710">
        <ele>294.0</ele>
        <time>2018-09-03T06:44:22Z</time>
      </trkpt>
      <trkpt lat="43.2686630" lon="-2.4376010">
        <ele>291.2</ele>
        <time>2018-09-03T06:44:23Z</time>
      </trkpt>
      <trkpt lat="43.2686650" lon="-2.4377370">
        <ele>289.6</ele>
        <time>2018-09-03T06:44:24Z</time>
      </trkpt>
      <trkpt lat="43.2687140" lon="-2.4380090">
        <ele>288.2</ele>
        <time>2018-09-03T06:44:26Z</time>
      </trkpt>
      <trkpt lat="43.2689070" lon="-2.4382950">
        <ele>286.6</ele>
        <time>2018-09-03T06:44:29Z</time>
      </trkpt>
      <trkpt lat="43.2689910" lon="-2.4383570">
        <ele>284.0</ele>
        <time>2018-09-03T06:44:30Z</time>
      </trkpt>
      <trkpt lat="43.2690760" lon="-2.4384260">
        <ele>282.6</ele>
        <time>2018-09-03T06:44:31Z</time>
      </trkpt>
      <trkpt lat="43.2691560" lon="-2.4385070">
        <ele>281.0</ele>
        <time>2018-09-03T06:44:32Z</time>
      </trkpt>
      <trkpt lat="43.2692340" lon="-2.4385980">
        <ele>279.8</ele>
        <time>2018-09-03T06:44:33Z</time>
      </trkpt>
      <trkpt lat="43.2694000" lon="-2.4388270">
        <ele>278.8</ele>
        <time>2018-09-03T06:44:35Z</time>
      </trkpt>
      <trkpt lat="43.2694740" lon="-2.4389660">
        <ele>278.6</ele>
        <time>2018-09-03T06:44:36Z</time>
      </trkpt>
      <trkpt lat="43.2696810" lon="-2.4394500">
        <ele>277.2</ele>
        <time>2018-09-03T06:44:39Z</time>
      </trkpt>
      <trkpt lat="43.2697430" lon="-2.4396290">
        <ele>276.2</ele>
        <time>2018-09-03T06:44:40Z</time>
      </trkpt>
      <trkpt lat="43.2698020" lon="-2.4398010">
        <ele>274.8</ele>
        <time>2018-09-03T06:44:41Z</time>
      </trkpt>
      <trkpt lat="43.2698570" lon="-2.4399580">
        <ele>273.0</ele>
        <time>2018-09-03T06:44:42Z</time>
      </trkpt>
      <trkpt lat="43.2699050" lon="-2.4400840">
        <ele>270.8</ele>
        <time>2018-09-03T06:44:43Z</time>
      </trkpt>
      <trkpt lat="43.2699550" lon="-2.4401880">
        <ele>268.6</ele>
        <time>2018-09-03T06:44:44Z</time>
      </trkpt>
      <trkpt lat="43.2700210" lon="-2.4402750">
        <ele>266.2</ele>
        <time>2018-09-03T06:44:45Z</time>
      </trkpt>
      <trkpt lat="43.2701010" lon="-2.4403550">
        <ele>263.8</ele>
        <time>2018-09-03T06:44:46Z</time>
      </trkpt>
      <trkpt lat="43.2702040" lon="-2.4404270">
        <ele>261.4</ele>
        <time>2018-09-03T06:44:47Z</time>
      </trkpt>
      <trkpt lat="43.2703130" lon="-2.4404900">
        <ele>259.2</ele>
        <time>2018-09-03T06:44:48Z</time>
      </trkpt>
      <trkpt lat="43.2704040" lon="-2.4405630">
        <ele>257.8</ele>
        <time>2018-09-03T06:44:49Z</time>
      </trkpt>
      <trkpt lat="43.2705270" lon="-2.4407190">
        <ele>255.8</ele>
        <time>2018-09-03T06:44:51Z</time>
      </trkpt>
      <trkpt lat="43.2705400" lon="-2.4408830">
        <ele>253.2</ele>
        <time>2018-09-03T06:44:53Z</time>
      </trkpt>
      <trkpt lat="43.2704970" lon="-2.4409320">
        <ele>250.8</ele>
        <time>2018-09-03T06:44:54Z</time>
      </trkpt>
      <trkpt lat="43.2704340" lon="-2.4409250">
        <ele>248.0</ele>
        <time>2018-09-03T06:44:55Z</time>
      </trkpt>
      <trkpt lat="43.2703710" lon="-2.4408810">
        <ele>245.6</ele>
        <time>2018-09-03T06:44:56Z</time>
      </trkpt>
      <trkpt lat="43.2703130" lon="-2.4408220">
        <ele>244.2</ele>
        <time>2018-09-03T06:44:57Z</time>
      </trkpt>
      <trkpt lat="43.2702430" lon="-2.4407770">
        <ele>243.2</ele>
        <time>2018-09-03T06:44:58Z</time>
      </trkpt>
      <trkpt lat="43.2700820" lon="-2.4407450">
        <ele>241.2</ele>
        <time>2018-09-03T06:45:00Z</time>
      </trkpt>
      <trkpt lat="43.2699300" lon="-2.4407250">
        <ele>239.8</ele>
        <time>2018-09-03T06:45:02Z</time>
      </trkpt>
      <trkpt lat="43.2697900" lon="-2.4406160">
        <ele>238.2</ele>
        <time>2018-09-03T06:45:04Z</time>
      </trkpt>
      <trkpt lat="43.2697220" lon="-2.4405490">
        <ele>236.4</ele>
        <time>2018-09-03T06:45:05Z</time>
      </trkpt>
      <trkpt lat="43.2694950" lon="-2.4403590">
        <ele>235.4</ele>
        <time>2018-09-03T06:45:08Z</time>
      </trkpt>
      <trkpt lat="43.2691630" lon="-2.4401010">
        <ele>233.4</ele>
        <time>2018-09-03T06:45:12Z</time>
      </trkpt>
      <trkpt lat="43.2690190" lon="-2.4399450">
        <ele>231.6</ele>
        <time>2018-09-03T06:45:14Z</time>
      </trkpt>
      <trkpt lat="43.2689050" lon="-2.4398350">
        <ele>230.4</ele>
        <time>2018-09-03T06:45:16Z</time>
      </trkpt>
      <trkpt lat="43.2688290" lon="-2.4398160">
        <ele>228.6</ele>
        <time>2018-09-03T06:45:18Z</time>
      </trkpt>
      <trkpt lat="43.2688010" lon="-2.4398580">
        <ele>227.4</ele>
        <time>2018-09-03T06:45:19Z</time>
      </trkpt>
      <trkpt lat="43.2687970" lon="-2.4399300">
        <ele>226.2</ele>
        <time>2018-09-03T06:45:20Z</time>
      </trkpt>
      <trkpt lat="43.2688340" lon="-2.4400080">
        <ele>224.8</ele>
        <time>2018-09-03T06:45:21Z</time>
      </trkpt>
      <trkpt lat="43.2688700" lon="-2.4401000">
        <ele>223.6</ele>
        <time>2018-09-03T06:45:22Z</time>
      </trkpt>
      <trkpt lat="43.2688980" lon="-2.4401940">
        <ele>222.8</ele>
        <time>2018-09-03T06:45:23Z</time>
      </trkpt>
      <trkpt lat="43.2689180" lon="-2.4402870">
        <ele>222.0</ele>
        <time>2018-09-03T06:45:24Z</time>
      </trkpt>
      <trkpt lat="43.2689160" lon="-2.4404310">
        <ele>220.6</ele>
        <time>2018-09-03T06:45:26Z</time>
      </trkpt>
      <trkpt lat="43.2688750" lon="-2.4404830">
        <ele>219.4</ele>
        <time>2018-09-03T06:45:27Z</time>
      </trkpt>
      <trkpt lat="43.2688280" lon="-2.4405260">
        <ele>217.8</ele>
        <time>2018-09-03T06:45:28Z</time>
      </trkpt>
      <trkpt lat="43.2687790" lon="-2.4405840">
        <ele>215.4</ele>
        <time>2018-09-03T06:45:29Z</time>
      </trkpt>
      <trkpt lat="43.2687590" lon="-2.4406530">
        <ele>213.2</ele>
        <time>2018-09-03T06:45:30Z</time>
      </trkpt>
      <trkpt lat="43.2687660" lon="-2.4407670">
        <ele>211.4</ele>
        <time>2018-09-03T06:45:31Z</time>
      </trkpt>
      <trkpt lat="43.2687900" lon="-2.4408770">
        <ele>210.0</ele>
        <time>2018-09-03T06:45:32Z</time>
      </trkpt>
      <trkpt lat="43.2688840" lon="-2.4410610">
        <ele>208.2</ele>
        <time>2018-09-03T06:45:34Z</time>
      </trkpt>
      <trkpt lat="43.2689580" lon="-2.4411150">
        <ele>206.8</ele>
        <time>2018-09-03T06:45:35Z</time>
      </trkpt>
      <trkpt lat="43.2690410" lon="-2.4411540">
        <ele>205.4</ele>
        <time>2018-09-03T06:45:36Z</time>
      </trkpt>
      <trkpt lat="43.2691380" lon="-2.4411740">
        <ele>204.2</ele>
        <time>2018-09-03T06:45:37Z</time>
      </trkpt>
      <trkpt lat="43.2692250" lon="-2.4412170">
        <ele>202.8</ele>
        <time>2018-09-03T06:45:38Z</time>
      </trkpt>
      <trkpt lat="43.2692930" lon="-2.4412830">
        <ele>199.0</ele>
        <time>2018-09-03T06:45:39Z</time>
      </trkpt>
      <trkpt lat="43.2693620" lon="-2.4413570">
        <ele>197.6</ele>
        <time>2018-09-03T06:45:40Z</time>
      </trkpt>
      <trkpt lat="43.2694210" lon="-2.4414670">
        <ele>196.2</ele>
        <time>2018-09-03T06:45:41Z</time>
      </trkpt>
      <trkpt lat="43.2694920" lon="-2.4415630">
        <ele>194.8</ele>
        <time>2018-09-03T06:45:42Z</time>
      </trkpt>
      <trkpt lat="43.2695860" lon="-2.4416610">
        <ele>193.2</ele>
        <time>2018-09-03T06:45:43Z</time>
      </trkpt>
      <trkpt lat="43.2697140" lon="-2.4417500">
        <ele>191.4</ele>
        <time>2018-09-03T06:45:44Z</time>
      </trkpt>
      <trkpt lat="43.2698390" lon="-2.4418320">
        <ele>189.4</ele>
        <time>2018-09-03T06:45:45Z</time>
      </trkpt>
      <trkpt lat="43.2699480" lon="-2.4419270">
        <ele>187.4</ele>
        <time>2018-09-03T06:45:46Z</time>
      </trkpt>
      <trkpt lat="43.2700440" lon="-2.4419990">
        <ele>185.2</ele>
        <time>2018-09-03T06:45:47Z</time>
      </trkpt>
      <trkpt lat="43.2701360" lon="-2.4420840">
        <ele>183.0</ele>
        <time>2018-09-03T06:45:48Z</time>
      </trkpt>
      <trkpt lat="43.2702200" lon="-2.4421790">
        <ele>180.4</ele>
        <time>2018-09-03T06:45:49Z</time>
      </trkpt>
      <trkpt lat="43.2703030" lon="-2.4422710">
        <ele>177.2</ele>
        <time>2018-09-03T06:45:50Z</time>
      </trkpt>
      <trkpt lat="43.2703730" lon="-2.4423500">
        <ele>173.8</ele>
        <time>2018-09-03T06:45:51Z</time>
      </trkpt>
      <trkpt lat="43.2704300" lon="-2.4424250">
        <ele>170.4</ele>
        <time>2018-09-03T06:45:52Z</time>
      </trkpt>
      <trkpt lat="43.2704630" lon="-2.4425000">
        <ele>168.6</ele>
        <time>2018-09-03T06:45:53Z</time>
      </trkpt>
      <trkpt lat="43.2705080" lon="-2.4426420">
        <ele>167.2</ele>
        <time>2018-09-03T06:45:55Z</time>
      </trkpt>
      <trkpt lat="43.2705170" lon="-2.4427190">
        <ele>166.6</ele>
        <time>2018-09-03T06:45:56Z</time>
      </trkpt>
      <trkpt lat="43.2705140" lon="-2.4428100">
        <ele>166.2</ele>
        <time>2018-09-03T06:45:57Z</time>
      </trkpt>
      <trkpt lat="43.2704740" lon="-2.4430110">
        <ele>165.0</ele>
        <time>2018-09-03T06:45:59Z</time>
      </trkpt>
      <trkpt lat="43.2704630" lon="-2.4433020">
        <ele>164.0</ele>
        <time>2018-09-03T06:46:02Z</time>
      </trkpt>
      <trkpt lat="43.2705470" lon="-2.4436300">
        <ele>164.0</ele>
        <time>2018-09-03T06:46:08Z</time>
      </trkpt>
      <trkpt lat="43.2705600" lon="-2.4436720">
        <ele>164.2</ele>
        <time>2018-09-03T06:46:11Z</time>
      </trkpt>
      <trkpt lat="43.2705600" lon="-2.4436820">
        <ele>164.0</ele>
        <time>2018-09-03T06:46:12Z</time>
      </trkpt>
      <trkpt lat="43.2705950" lon="-2.4436980">
        <ele>163.8</ele>
        <time>2018-09-03T06:46:16Z</time>
      </trkpt>
      <trkpt lat="43.2705870" lon="-2.4436500">
        <ele>163.8</ele>
        <time>2018-09-03T06:46:19Z</time>
      </trkpt>
      <trkpt lat="43.2705590" lon="-2.4436400">
        <ele>163.8</ele>
        <time>2018-09-03T06:46:21Z</time>
      </trkpt>
      <trkpt lat="43.2705750" lon="-2.4436550">
        <ele>163.8</ele>
        <time>2018-09-03T06:46:30Z</time>
      </trkpt>
      <trkpt lat="43.2705880" lon="-2.4436870">
        <ele>163.8</ele>
        <time>2018-09-03T06:46:31Z</time>
      </trkpt>
      <trkpt lat="43.2706050" lon="-2.4438160">
        <ele>163.8</ele>
        <time>2018-09-03T06:46:35Z</time>
      </trkpt>
      <trkpt lat="43.2706190" lon="-2.4438600">
        <ele>163.8</ele>
        <time>2018-09-03T06:46:37Z</time>
      </trkpt>
      <trkpt lat="43.2705970" lon="-2.4438500">
        <ele>163.4</ele>
        <time>2018-09-03T06:46:40Z</time>
      </trkpt>
      <trkpt lat="43.2705880" lon="-2.4438100">
        <ele>162.6</ele>
        <time>2018-09-03T06:46:42Z</time>
      </trkpt>
      <trkpt lat="43.2705870" lon="-2.4437870">
        <ele>162.4</ele>
        <time>2018-09-03T06:46:43Z</time>
      </trkpt>
      <trkpt lat="43.2705940" lon="-2.4437390">
        <ele>162.4</ele>
        <time>2018-09-03T06:46:45Z</time>
      </trkpt>
      <trkpt lat="43.2706000" lon="-2.4437190">
        <ele>162.4</ele>
        <time>2018-09-03T06:46:46Z</time>
      </trkpt>
      <trkpt lat="43.2706110" lon="-2.4436850">
        <ele>162.2</ele>
        <time>2018-09-03T06:46:48Z</time>
      </trkpt>
      <trkpt lat="43.2706330" lon="-2.4436740">
        <ele>162.2</ele>
        <time>2018-09-03T06:46:50Z</time>
      </trkpt>
      <trkpt lat="43.2707270" lon="-2.4437040">
        <ele>163.0</ele>
        <time>2018-09-03T06:46:55Z</time>
      </trkpt>
      <trkpt lat="43.2709180" lon="-2.4438480">
        <ele>163.2</ele>
        <time>2018-09-03T06:47:01Z</time>
      </trkpt>
      <trkpt lat="43.2711910" lon="-2.4440160">
        <ele>162.4</ele>
        <time>2018-09-03T06:47:07Z</time>
      </trkpt>
      <trkpt lat="43.2712480" lon="-2.4440410">
        <ele>162.2</ele>
        <time>2018-09-03T06:47:08Z</time>
      </trkpt>
      <trkpt lat="43.2713750" lon="-2.4440790">
        <ele>162.0</ele>
        <time>2018-09-03T06:47:10Z</time>
      </trkpt>
      <trkpt lat="43.2715160" lon="-2.4440990">
        <ele>161.6</ele>
        <time>2018-09-03T06:47:12Z</time>
      </trkpt>
      <trkpt lat="43.2717080" lon="-2.4441370">
        <ele>160.2</ele>
        <time>2018-09-03T06:47:15Z</time>
      </trkpt>
      <trkpt lat="43.2718140" lon="-2.4441520">
        <ele>158.8</ele>
        <time>2018-09-03T06:47:17Z</time>
      </trkpt>
      <trkpt lat="43.2718950" lon="-2.4441540">
        <ele>157.6</ele>
        <time>2018-09-03T06:47:19Z</time>
      </trkpt>
      <trkpt lat="43.2719410" lon="-2.4441510">
        <ele>156.4</ele>
        <time>2018-09-03T06:47:21Z</time>
      </trkpt>
      <trkpt lat="43.2719690" lon="-2.4441610">
        <ele>156.2</ele>
        <time>2018-09-03T06:47:40Z</time>
      </trkpt>
      <trkpt lat="43.2722780" lon="-2.4442030">
        <ele>155.8</ele>
        <time>2018-09-03T06:47:52Z</time>
      </trkpt>
      <trkpt lat="43.2723200" lon="-2.4442110">
        <ele>155.6</ele>
        <time>2018-09-03T06:47:53Z</time>
      </trkpt>
      <trkpt lat="43.2726260" lon="-2.4443070">
        <ele>154.6</ele>
        <time>2018-09-03T06:47:59Z</time>
      </trkpt>
      <trkpt lat="43.2726820" lon="-2.4443150">
        <ele>154.4</ele>
        <time>2018-09-03T06:48:00Z</time>
      </trkpt>
      <trkpt lat="43.2728460" lon="-2.4443550">
        <ele>154.0</ele>
        <time>2018-09-03T06:48:03Z</time>
      </trkpt>
      <trkpt lat="43.2729560" lon="-2.4443760">
        <ele>153.4</ele>
        <time>2018-09-03T06:48:05Z</time>
      </trkpt>
      <trkpt lat="43.2731190" lon="-2.4444130">
        <ele>153.0</ele>
        <time>2018-09-03T06:48:08Z</time>
      </trkpt>
      <trkpt lat="43.2733860" lon="-2.4444890">
        <ele>152.4</ele>
        <time>2018-09-03T06:48:13Z</time>
      </trkpt>
      <trkpt lat="43.2735480" lon="-2.4445340">
        <ele>152.4</ele>
        <time>2018-09-03T06:48:16Z</time>
      </trkpt>
      <trkpt lat="43.2739200" lon="-2.4446600">
        <ele>151.6</ele>
        <time>2018-09-03T06:48:23Z</time>
      </trkpt>
      <trkpt lat="43.2739720" lon="-2.4446780">
        <ele>151.6</ele>
        <time>2018-09-03T06:48:24Z</time>
      </trkpt>
      <trkpt lat="43.2743120" lon="-2.4448260">
        <ele>150.6</ele>
        <time>2018-09-03T06:48:30Z</time>
      </trkpt>
      <trkpt lat="43.2743650" lon="-2.4448690">
        <ele>150.4</ele>
        <time>2018-09-03T06:48:31Z</time>
      </trkpt>
      <trkpt lat="43.2745670" lon="-2.4451340">
        <ele>149.4</ele>
        <time>2018-09-03T06:48:36Z</time>
      </trkpt>
      <trkpt lat="43.2745930" lon="-2.4451890">
        <ele>149.2</ele>
        <time>2018-09-03T06:48:37Z</time>
      </trkpt>
      <trkpt lat="43.2747230" lon="-2.4455770">
        <ele>148.8</ele>
        <time>2018-09-03T06:48:43Z</time>
      </trkpt>
      <trkpt lat="43.2750130" lon="-2.4457990">
        <ele>148.8</ele>
        <time>2018-09-03T06:48:49Z</time>
      </trkpt>
      <trkpt lat="43.2751940" lon="-2.4458610">
        <ele>148.4</ele>
        <time>2018-09-03T06:48:52Z</time>
      </trkpt>
      <trkpt lat="43.2752510" lon="-2.4458930">
        <ele>148.4</ele>
        <time>2018-09-03T06:48:53Z</time>
      </trkpt>
      <trkpt lat="43.2754160" lon="-2.4460050">
        <ele>148.0</ele>
        <time>2018-09-03T06:48:56Z</time>
      </trkpt>
      <trkpt lat="43.2756230" lon="-2.4463350">
        <ele>147.4</ele>
        <time>2018-09-03T06:49:01Z</time>
      </trkpt>
      <trkpt lat="43.2757250" lon="-2.4466620">
        <ele>147.4</ele>
        <time>2018-09-03T06:49:05Z</time>
      </trkpt>
      <trkpt lat="43.2757860" lon="-2.4468290">
        <ele>147.0</ele>
        <time>2018-09-03T06:49:07Z</time>
      </trkpt>
      <trkpt lat="43.2758950" lon="-2.4469550">
        <ele>146.2</ele>
        <time>2018-09-03T06:49:09Z</time>
      </trkpt>
      <trkpt lat="43.2761140" lon="-2.4470580">
        <ele>145.2</ele>
        <time>2018-09-03T06:49:12Z</time>
      </trkpt>
      <trkpt lat="43.2761860" lon="-2.4470960">
        <ele>144.8</ele>
        <time>2018-09-03T06:49:13Z</time>
      </trkpt>
      <trkpt lat="43.2764010" lon="-2.4472370">
        <ele>143.4</ele>
        <time>2018-09-03T06:49:16Z</time>
      </trkpt>
      <trkpt lat="43.2766190" lon="-2.4473890">
        <ele>142.2</ele>
        <time>2018-09-03T06:49:19Z</time>
      </trkpt>
      <trkpt lat="43.2768410" lon="-2.4473760">
        <ele>141.0</ele>
        <time>2018-09-03T06:49:22Z</time>
      </trkpt>
      <trkpt lat="43.2769830" lon="-2.4473020">
        <ele>140.2</ele>
        <time>2018-09-03T06:49:24Z</time>
      </trkpt>
      <trkpt lat="43.2770600" lon="-2.4472710">
        <ele>139.8</ele>
        <time>2018-09-03T06:49:25Z</time>
      </trkpt>
      <trkpt lat="43.2771350" lon="-2.4472500">
        <ele>139.4</ele>
        <time>2018-09-03T06:49:26Z</time>
      </trkpt>
      <trkpt lat="43.2773770" lon="-2.4472610">
        <ele>138.6</ele>
        <time>2018-09-03T06:49:29Z</time>
      </trkpt>
      <trkpt lat="43.2775390" lon="-2.4473220">
        <ele>138.4</ele>
        <time>2018-09-03T06:49:31Z</time>
      </trkpt>
      <trkpt lat="43.2778430" lon="-2.4474930">
        <ele>137.4</ele>
        <time>2018-09-03T06:49:35Z</time>
      </trkpt>
      <trkpt lat="43.2780660" lon="-2.4476220">
        <ele>136.4</ele>
        <time>2018-09-03T06:49:38Z</time>
      </trkpt>
      <trkpt lat="43.2783640" lon="-2.4477610">
        <ele>135.0</ele>
        <time>2018-09-03T06:49:42Z</time>
      </trkpt>
      <trkpt lat="43.2784330" lon="-2.4478070">
        <ele>134.6</ele>
        <time>2018-09-03T06:49:43Z</time>
      </trkpt>
      <trkpt lat="43.2786100" lon="-2.4480070">
        <ele>133.8</ele>
        <time>2018-09-03T06:49:46Z</time>
      </trkpt>
      <trkpt lat="43.2786630" lon="-2.4480860">
        <ele>133.6</ele>
        <time>2018-09-03T06:49:47Z</time>
      </trkpt>
      <trkpt lat="43.2787910" lon="-2.4483540">
        <ele>132.8</ele>
        <time>2018-09-03T06:49:50Z</time>
      </trkpt>
      <trkpt lat="43.2788150" lon="-2.4488620">
        <ele>131.6</ele>
        <time>2018-09-03T06:49:55Z</time>
      </trkpt>
      <trkpt lat="43.2788090" lon="-2.4489620">
        <ele>131.2</ele>
        <time>2018-09-03T06:49:56Z</time>
      </trkpt>
      <trkpt lat="43.2789460" lon="-2.4493850">
        <ele>131.0</ele>
        <time>2018-09-03T06:50:01Z</time>
      </trkpt>
      <trkpt lat="43.2790670" lon="-2.4494910">
        <ele>131.0</ele>
        <time>2018-09-03T06:50:03Z</time>
      </trkpt>
      <trkpt lat="43.2792390" lon="-2.4496440">
        <ele>130.8</ele>
        <time>2018-09-03T06:50:06Z</time>
      </trkpt>
      <trkpt lat="43.2792840" lon="-2.4497130">
        <ele>130.8</ele>
        <time>2018-09-03T06:50:07Z</time>
      </trkpt>
      <trkpt lat="43.2793170" lon="-2.4500610">
        <ele>130.4</ele>
        <time>2018-09-03T06:50:11Z</time>
      </trkpt>
      <trkpt lat="43.2793040" lon="-2.4501470">
        <ele>130.4</ele>
        <time>2018-09-03T06:50:12Z</time>
      </trkpt>
      <trkpt lat="43.2792800" lon="-2.4503130">
        <ele>130.4</ele>
        <time>2018-09-03T06:50:14Z</time>
      </trkpt>
      <trkpt lat="43.2795730" lon="-2.4509100">
        <ele>129.8</ele>
        <time>2018-09-03T06:50:22Z</time>
      </trkpt>
      <trkpt lat="43.2797790" lon="-2.4510410">
        <ele>129.6</ele>
        <time>2018-09-03T06:50:25Z</time>
      </trkpt>
      <trkpt lat="43.2799330" lon="-2.4509950">
        <ele>128.0</ele>
        <time>2018-09-03T06:50:27Z</time>
      </trkpt>
      <trkpt lat="43.2800660" lon="-2.4508790">
        <ele>126.2</ele>
        <time>2018-09-03T06:50:29Z</time>
      </trkpt>
      <trkpt lat="43.2801370" lon="-2.4508170">
        <ele>125.4</ele>
        <time>2018-09-03T06:50:30Z</time>
      </trkpt>
      <trkpt lat="43.2802090" lon="-2.4507570">
        <ele>124.8</ele>
        <time>2018-09-03T06:50:31Z</time>
      </trkpt>
      <trkpt lat="43.2803650" lon="-2.4506560">
        <ele>123.4</ele>
        <time>2018-09-03T06:50:33Z</time>
      </trkpt>
      <trkpt lat="43.2804470" lon="-2.4506270">
        <ele>122.8</ele>
        <time>2018-09-03T06:50:34Z</time>
      </trkpt>
      <trkpt lat="43.2805320" lon="-2.4506150">
        <ele>122.2</ele>
        <time>2018-09-03T06:50:35Z</time>
      </trkpt>
      <trkpt lat="43.2807950" lon="-2.4506910">
        <ele>121.0</ele>
        <time>2018-09-03T06:50:38Z</time>
      </trkpt>
      <trkpt lat="43.2809470" lon="-2.4508040">
        <ele>120.2</ele>
        <time>2018-09-03T06:50:40Z</time>
      </trkpt>
      <trkpt lat="43.2810160" lon="-2.4508680">
        <ele>119.8</ele>
        <time>2018-09-03T06:50:41Z</time>
      </trkpt>
      <trkpt lat="43.2810850" lon="-2.4509300">
        <ele>119.4</ele>
        <time>2018-09-03T06:50:42Z</time>
      </trkpt>
      <trkpt lat="43.2812160" lon="-2.4510720">
        <ele>118.6</ele>
        <time>2018-09-03T06:50:44Z</time>
      </trkpt>
      <trkpt lat="43.2813570" lon="-2.4511860">
        <ele>118.2</ele>
        <time>2018-09-03T06:50:46Z</time>
      </trkpt>
      <trkpt lat="43.2815910" lon="-2.4512890">
        <ele>117.4</ele>
        <time>2018-09-03T06:50:49Z</time>
      </trkpt>
      <trkpt lat="43.2816750" lon="-2.4513080">
        <ele>117.0</ele>
        <time>2018-09-03T06:50:50Z</time>
      </trkpt>
      <trkpt lat="43.2818460" lon="-2.4513440">
        <ele>116.2</ele>
        <time>2018-09-03T06:50:52Z</time>
      </trkpt>
      <trkpt lat="43.2820070" lon="-2.4514030">
        <ele>115.6</ele>
        <time>2018-09-03T06:50:54Z</time>
      </trkpt>
      <trkpt lat="43.2821380" lon="-2.4515440">
        <ele>114.8</ele>
        <time>2018-09-03T06:50:56Z</time>
      </trkpt>
      <trkpt lat="43.2822430" lon="-2.4518460">
        <ele>113.8</ele>
        <time>2018-09-03T06:50:59Z</time>
      </trkpt>
      <trkpt lat="43.2822710" lon="-2.4520670">
        <ele>113.0</ele>
        <time>2018-09-03T06:51:01Z</time>
      </trkpt>
      <trkpt lat="43.2823000" lon="-2.4524050">
        <ele>112.6</ele>
        <time>2018-09-03T06:51:04Z</time>
      </trkpt>
      <trkpt lat="43.2823640" lon="-2.4529660">
        <ele>111.6</ele>
        <time>2018-09-03T06:51:09Z</time>
      </trkpt>
      <trkpt lat="43.2824990" lon="-2.4532590">
        <ele>110.8</ele>
        <time>2018-09-03T06:51:12Z</time>
      </trkpt>
      <trkpt lat="43.2825520" lon="-2.4533450">
        <ele>110.6</ele>
        <time>2018-09-03T06:51:13Z</time>
      </trkpt>
      <trkpt lat="43.2826100" lon="-2.4534240">
        <ele>110.4</ele>
        <time>2018-09-03T06:51:14Z</time>
      </trkpt>
      <trkpt lat="43.2828310" lon="-2.4537190">
        <ele>109.6</ele>
        <time>2018-09-03T06:51:18Z</time>
      </trkpt>
      <trkpt lat="43.2829320" lon="-2.4538640">
        <ele>109.2</ele>
        <time>2018-09-03T06:51:20Z</time>
      </trkpt>
      <trkpt lat="43.2829700" lon="-2.4539460">
        <ele>109.2</ele>
        <time>2018-09-03T06:51:21Z</time>
      </trkpt>
      <trkpt lat="43.2830150" lon="-2.4543230">
        <ele>109.0</ele>
        <time>2018-09-03T06:51:25Z</time>
      </trkpt>
      <trkpt lat="43.2830080" lon="-2.4544180">
        <ele>109.0</ele>
        <time>2018-09-03T06:51:26Z</time>
      </trkpt>
      <trkpt lat="43.2829710" lon="-2.4547570">
        <ele>108.8</ele>
        <time>2018-09-03T06:51:30Z</time>
      </trkpt>
      <trkpt lat="43.2829440" lon="-2.4549410">
        <ele>108.4</ele>
        <time>2018-09-03T06:51:32Z</time>
      </trkpt>
      <trkpt lat="43.2829330" lon="-2.4551220">
        <ele>108.2</ele>
        <time>2018-09-03T06:51:34Z</time>
      </trkpt>
      <trkpt lat="43.2829270" lon="-2.4553890">
        <ele>108.0</ele>
        <time>2018-09-03T06:51:37Z</time>
      </trkpt>
      <trkpt lat="43.2829350" lon="-2.4554790">
        <ele>107.8</ele>
        <time>2018-09-03T06:51:38Z</time>
      </trkpt>
      <trkpt lat="43.2830880" lon="-2.4558510">
        <ele>107.4</ele>
        <time>2018-09-03T06:51:43Z</time>
      </trkpt>
      <trkpt lat="43.2831250" lon="-2.4559130">
        <ele>107.4</ele>
        <time>2018-09-03T06:51:44Z</time>
      </trkpt>
      <trkpt lat="43.2832350" lon="-2.4561190">
        <ele>107.2</ele>
        <time>2018-09-03T06:51:47Z</time>
      </trkpt>
      <trkpt lat="43.2832730" lon="-2.4562000">
        <ele>107.2</ele>
        <time>2018-09-03T06:51:48Z</time>
      </trkpt>
      <trkpt lat="43.2833150" lon="-2.4562790">
        <ele>107.2</ele>
        <time>2018-09-03T06:51:49Z</time>
      </trkpt>
      <trkpt lat="43.2834790" lon="-2.4565750">
        <ele>107.2</ele>
        <time>2018-09-03T06:51:53Z</time>
      </trkpt>
      <trkpt lat="43.2835250" lon="-2.4571850">
        <ele>106.4</ele>
        <time>2018-09-03T06:52:00Z</time>
      </trkpt>
      <trkpt lat="43.2835080" lon="-2.4572690">
        <ele>106.2</ele>
        <time>2018-09-03T06:52:01Z</time>
      </trkpt>
      <trkpt lat="43.2834400" lon="-2.4576720">
        <ele>106.0</ele>
        <time>2018-09-03T06:52:06Z</time>
      </trkpt>
      <trkpt lat="43.2834120" lon="-2.4584960">
        <ele>105.8</ele>
        <time>2018-09-03T06:52:15Z</time>
      </trkpt>
      <trkpt lat="43.2834710" lon="-2.4588560">
        <ele>105.6</ele>
        <time>2018-09-03T06:52:18Z</time>
      </trkpt>
      <trkpt lat="43.2834880" lon="-2.4589770">
        <ele>105.0</ele>
        <time>2018-09-03T06:52:19Z</time>
      </trkpt>
      <trkpt lat="43.2835270" lon="-2.4592190">
        <ele>103.8</ele>
        <time>2018-09-03T06:52:21Z</time>
      </trkpt>
      <trkpt lat="43.2835600" lon="-2.4594550">
        <ele>102.0</ele>
        <time>2018-09-03T06:52:23Z</time>
      </trkpt>
      <trkpt lat="43.2835970" lon="-2.4596830">
        <ele>100.6</ele>
        <time>2018-09-03T06:52:25Z</time>
      </trkpt>
      <trkpt lat="43.2836460" lon="-2.4600080">
        <ele>99.4</ele>
        <time>2018-09-03T06:52:28Z</time>
      </trkpt>
      <trkpt lat="43.2837090" lon="-2.4603040">
        <ele>98.8</ele>
        <time>2018-09-03T06:52:31Z</time>
      </trkpt>
      <trkpt lat="43.2838350" lon="-2.4606450">
        <ele>98.0</ele>
        <time>2018-09-03T06:52:35Z</time>
      </trkpt>
      <trkpt lat="43.2838770" lon="-2.4607190">
        <ele>97.8</ele>
        <time>2018-09-03T06:52:36Z</time>
      </trkpt>
      <trkpt lat="43.2841920" lon="-2.4608900">
        <ele>97.4</ele>
        <time>2018-09-03T06:52:41Z</time>
      </trkpt>
      <trkpt lat="43.2842490" lon="-2.4608930">
        <ele>97.2</ele>
        <time>2018-09-03T06:52:42Z</time>
      </trkpt>
      <trkpt lat="43.2843000" lon="-2.4608890">
        <ele>97.2</ele>
        <time>2018-09-03T06:52:43Z</time>
      </trkpt>
      <trkpt lat="43.2845420" lon="-2.4608750">
        <ele>97.0</ele>
        <time>2018-09-03T06:52:49Z</time>
      </trkpt>
      <trkpt lat="43.2846250" lon="-2.4608760">
        <ele>96.8</ele>
        <time>2018-09-03T06:52:51Z</time>
      </trkpt>
      <trkpt lat="43.2847640" lon="-2.4608790">
        <ele>96.8</ele>
        <time>2018-09-03T06:52:54Z</time>
      </trkpt>
      <trkpt lat="43.2849980" lon="-2.4609050">
        <ele>96.8</ele>
        <time>2018-09-03T06:52:59Z</time>
      </trkpt>
      <trkpt lat="43.2851370" lon="-2.4611450">
        <ele>96.6</ele>
        <time>2018-09-03T06:53:04Z</time>
      </trkpt>
      <trkpt lat="43.2852480" lon="-2.4616960">
        <ele>96.2</ele>
        <time>2018-09-03T06:53:12Z</time>
      </trkpt>
      <trkpt lat="43.2852490" lon="-2.4619140">
        <ele>96.0</ele>
        <time>2018-09-03T06:53:15Z</time>
      </trkpt>
      <trkpt lat="43.2852010" lon="-2.4622920">
        <ele>95.4</ele>
        <time>2018-09-03T06:53:20Z</time>
      </trkpt>
      <trkpt lat="43.2852630" lon="-2.4625110">
        <ele>94.8</ele>
        <time>2018-09-03T06:53:23Z</time>
      </trkpt>
      <trkpt lat="43.2853730" lon="-2.4625710">
        <ele>94.4</ele>
        <time>2018-09-03T06:53:25Z</time>
      </trkpt>
      <trkpt lat="43.2854940" lon="-2.4625710">
        <ele>93.8</ele>
        <time>2018-09-03T06:53:27Z</time>
      </trkpt>
      <trkpt lat="43.2855570" lon="-2.4625660">
        <ele>93.8</ele>
        <time>2018-09-03T06:53:28Z</time>
      </trkpt>
      <trkpt lat="43.2858330" lon="-2.4625200">
        <ele>93.4</ele>
        <time>2018-09-03T06:53:32Z</time>
      </trkpt>
      <trkpt lat="43.2861370" lon="-2.4624860">
        <ele>92.6</ele>
        <time>2018-09-03T06:53:36Z</time>
      </trkpt>
      <trkpt lat="43.2863800" lon="-2.4624760">
        <ele>91.6</ele>
        <time>2018-09-03T06:53:39Z</time>
      </trkpt>
      <trkpt lat="43.2865500" lon="-2.4624650">
        <ele>90.6</ele>
        <time>2018-09-03T06:53:41Z</time>
      </trkpt>
      <trkpt lat="43.2867080" lon="-2.4624580">
        <ele>89.4</ele>
        <time>2018-09-03T06:53:43Z</time>
      </trkpt>
      <trkpt lat="43.2867850" lon="-2.4624620">
        <ele>88.2</ele>
        <time>2018-09-03T06:53:44Z</time>
      </trkpt>
      <trkpt lat="43.2868600" lon="-2.4624740">
        <ele>87.6</ele>
        <time>2018-09-03T06:53:45Z</time>
      </trkpt>
      <trkpt lat="43.2870540" lon="-2.4626050">
        <ele>87.0</ele>
        <time>2018-09-03T06:53:48Z</time>
      </trkpt>
      <trkpt lat="43.2871470" lon="-2.4627250">
        <ele>87.0</ele>
        <time>2018-09-03T06:53:50Z</time>
      </trkpt>
      <trkpt lat="43.2872130" lon="-2.4628420">
        <ele>87.0</ele>
        <time>2018-09-03T06:53:52Z</time>
      </trkpt>
      <trkpt lat="43.2875050" lon="-2.4634970">
        <ele>87.4</ele>
        <time>2018-09-03T06:54:02Z</time>
      </trkpt>
      <trkpt lat="43.2875730" lon="-2.4636330">
        <ele>87.6</ele>
        <time>2018-09-03T06:54:04Z</time>
      </trkpt>
      <trkpt lat="43.2876500" lon="-2.4637640">
        <ele>87.6</ele>
        <time>2018-09-03T06:54:06Z</time>
      </trkpt>
      <trkpt lat="43.2879530" lon="-2.4638300">
        <ele>87.4</ele>
        <time>2018-09-03T06:54:11Z</time>
      </trkpt>
      <trkpt lat="43.2884310" lon="-2.4637340">
        <ele>86.2</ele>
        <time>2018-09-03T06:54:18Z</time>
      </trkpt>
      <trkpt lat="43.2885740" lon="-2.4637000">
        <ele>85.0</ele>
        <time>2018-09-03T06:54:20Z</time>
      </trkpt>
      <trkpt lat="43.2887270" lon="-2.4636870">
        <ele>84.2</ele>
        <time>2018-09-03T06:54:22Z</time>
      </trkpt>
      <trkpt lat="43.2888120" lon="-2.4637000">
        <ele>83.8</ele>
        <time>2018-09-03T06:54:23Z</time>
      </trkpt>
      <trkpt lat="43.2890330" lon="-2.4638870">
        <ele>82.8</ele>
        <time>2018-09-03T06:54:26Z</time>
      </trkpt>
      <trkpt lat="43.2891120" lon="-2.4641840">
        <ele>81.8</ele>
        <time>2018-09-03T06:54:29Z</time>
      </trkpt>
      <trkpt lat="43.2890780" lon="-2.4645080">
        <ele>80.6</ele>
        <time>2018-09-03T06:54:32Z</time>
      </trkpt>
      <trkpt lat="43.2890400" lon="-2.4648380">
        <ele>79.2</ele>
        <time>2018-09-03T06:54:35Z</time>
      </trkpt>
      <trkpt lat="43.2889920" lon="-2.4655820">
        <ele>78.6</ele>
        <time>2018-09-03T06:54:42Z</time>
      </trkpt>
      <trkpt lat="43.2889780" lon="-2.4657940">
        <ele>78.2</ele>
        <time>2018-09-03T06:54:44Z</time>
      </trkpt>
      <trkpt lat="43.2889690" lon="-2.4661140">
        <ele>77.8</ele>
        <time>2018-09-03T06:54:47Z</time>
      </trkpt>
      <trkpt lat="43.2890580" lon="-2.4665060">
        <ele>77.4</ele>
        <time>2018-09-03T06:54:51Z</time>
      </trkpt>
      <trkpt lat="43.2891940" lon="-2.4669420">
        <ele>77.4</ele>
        <time>2018-09-03T06:54:56Z</time>
      </trkpt>
      <trkpt lat="43.2893450" lon="-2.4673320">
        <ele>77.4</ele>
        <time>2018-09-03T06:55:01Z</time>
      </trkpt>
      <trkpt lat="43.2894650" lon="-2.4675230">
        <ele>77.4</ele>
        <time>2018-09-03T06:55:04Z</time>
      </trkpt>
      <trkpt lat="43.2895210" lon="-2.4676550">
        <ele>77.6</ele>
        <time>2018-09-03T06:55:06Z</time>
      </trkpt>
      <trkpt lat="43.2895300" lon="-2.4680690">
        <ele>77.8</ele>
        <time>2018-09-03T06:55:11Z</time>
      </trkpt>
      <trkpt lat="43.2894500" lon="-2.4687070">
        <ele>77.4</ele>
        <time>2018-09-03T06:55:17Z</time>
      </trkpt>
      <trkpt lat="43.2894540" lon="-2.4688130">
        <ele>76.8</ele>
        <time>2018-09-03T06:55:18Z</time>
      </trkpt>
      <trkpt lat="43.2895030" lon="-2.4690120">
        <ele>75.6</ele>
        <time>2018-09-03T06:55:20Z</time>
      </trkpt>
      <trkpt lat="43.2896840" lon="-2.4692770">
        <ele>75.0</ele>
        <time>2018-09-03T06:55:24Z</time>
      </trkpt>
      <trkpt lat="43.2900500" lon="-2.4697340">
        <ele>77.0</ele>
        <time>2018-09-03T06:55:34Z</time>
      </trkpt>
      <trkpt lat="43.2901540" lon="-2.4698490">
        <ele>78.0</ele>
        <time>2018-09-03T06:55:37Z</time>
      </trkpt>
      <trkpt lat="43.2903710" lon="-2.4701020">
        <ele>78.4</ele>
        <time>2018-09-03T06:55:43Z</time>
      </trkpt>
      <trkpt lat="43.2904460" lon="-2.4701950">
        <ele>78.4</ele>
        <time>2018-09-03T06:55:45Z</time>
      </trkpt>
      <trkpt lat="43.2906130" lon="-2.4704070">
        <ele>78.4</ele>
        <time>2018-09-03T06:55:49Z</time>
      </trkpt>
      <trkpt lat="43.2907590" lon="-2.4706070">
        <ele>77.8</ele>
        <time>2018-09-03T06:55:52Z</time>
      </trkpt>
      <trkpt lat="43.2908640" lon="-2.4708940">
        <ele>77.2</ele>
        <time>2018-09-03T06:55:55Z</time>
      </trkpt>
      <trkpt lat="43.2909030" lon="-2.4712070">
        <ele>75.6</ele>
        <time>2018-09-03T06:55:58Z</time>
      </trkpt>
      <trkpt lat="43.2909190" lon="-2.4714150">
        <ele>74.2</ele>
        <time>2018-09-03T06:56:00Z</time>
      </trkpt>
      <trkpt lat="43.2909420" lon="-2.4716340">
        <ele>72.2</ele>
        <time>2018-09-03T06:56:02Z</time>
      </trkpt>
      <trkpt lat="43.2909610" lon="-2.4717420">
        <ele>71.6</ele>
        <time>2018-09-03T06:56:03Z</time>
      </trkpt>
      <trkpt lat="43.2909840" lon="-2.4718440">
        <ele>71.2</ele>
        <time>2018-09-03T06:56:04Z</time>
      </trkpt>
      <trkpt lat="43.2910930" lon="-2.4721310">
        <ele>70.0</ele>
        <time>2018-09-03T06:56:07Z</time>
      </trkpt>
      <trkpt lat="43.2911920" lon="-2.4722920">
        <ele>69.4</ele>
        <time>2018-09-03T06:56:09Z</time>
      </trkpt>
      <trkpt lat="43.2912350" lon="-2.4723780">
        <ele>69.4</ele>
        <time>2018-09-03T06:56:10Z</time>
      </trkpt>
      <trkpt lat="43.2911470" lon="-2.4729160">
        <ele>69.0</ele>
        <time>2018-09-03T06:56:16Z</time>
      </trkpt>
      <trkpt lat="43.2911160" lon="-2.4730080">
        <ele>69.0</ele>
        <time>2018-09-03T06:56:17Z</time>
      </trkpt>
      <trkpt lat="43.2910180" lon="-2.4733820">
        <ele>68.6</ele>
        <time>2018-09-03T06:56:21Z</time>
      </trkpt>
      <trkpt lat="43.2911010" lon="-2.4738620">
        <ele>68.6</ele>
        <time>2018-09-03T06:56:26Z</time>
      </trkpt>
      <trkpt lat="43.2913190" lon="-2.4741280">
        <ele>68.0</ele>
        <time>2018-09-03T06:56:30Z</time>
      </trkpt>
      <trkpt lat="43.2914330" lon="-2.4742410">
        <ele>67.6</ele>
        <time>2018-09-03T06:56:32Z</time>
      </trkpt>
      <trkpt lat="43.2915100" lon="-2.4747670">
        <ele>67.6</ele>
        <time>2018-09-03T06:56:39Z</time>
      </trkpt>
      <trkpt lat="43.2913370" lon="-2.4755130">
        <ele>68.8</ele>
        <time>2018-09-03T06:56:50Z</time>
      </trkpt>
      <trkpt lat="43.2912970" lon="-2.4759190">
        <ele>69.0</ele>
        <time>2018-09-03T06:56:56Z</time>
      </trkpt>
      <trkpt lat="43.2913740" lon="-2.4762590">
        <ele>69.0</ele>
        <time>2018-09-03T06:57:01Z</time>
      </trkpt>
      <trkpt lat="43.2914460" lon="-2.4764380">
        <ele>69.2</ele>
        <time>2018-09-03T06:57:04Z</time>
      </trkpt>
      <trkpt lat="43.2916410" lon="-2.4768720">
        <ele>70.4</ele>
        <time>2018-09-03T06:57:13Z</time>
      </trkpt>
      <trkpt lat="43.2917940" lon="-2.4772120">
        <ele>71.6</ele>
        <time>2018-09-03T06:57:21Z</time>
      </trkpt>
      <trkpt lat="43.2918550" lon="-2.4775590">
        <ele>72.2</ele>
        <time>2018-09-03T06:57:28Z</time>
      </trkpt>
      <trkpt lat="43.2918160" lon="-2.4777350">
        <ele>72.2</ele>
        <time>2018-09-03T06:57:31Z</time>
      </trkpt>
      <trkpt lat="43.2917920" lon="-2.4777970">
        <ele>72.2</ele>
        <time>2018-09-03T06:57:32Z</time>
      </trkpt>
      <trkpt lat="43.2914500" lon="-2.4782260">
        <ele>70.8</ele>
        <time>2018-09-03T06:57:40Z</time>
      </trkpt>
      <trkpt lat="43.2913150" lon="-2.4783870">
        <ele>69.4</ele>
        <time>2018-09-03T06:57:43Z</time>
      </trkpt>
      <trkpt lat="43.2911920" lon="-2.4785560">
        <ele>68.2</ele>
        <time>2018-09-03T06:57:46Z</time>
      </trkpt>
      <trkpt lat="43.2908840" lon="-2.4790230">
        <ele>67.0</ele>
        <time>2018-09-03T06:57:54Z</time>
      </trkpt>
      <trkpt lat="43.2908470" lon="-2.4790760">
        <ele>66.8</ele>
        <time>2018-09-03T06:57:55Z</time>
      </trkpt>
      <trkpt lat="43.2906010" lon="-2.4794600">
        <ele>66.6</ele>
        <time>2018-09-03T06:58:02Z</time>
      </trkpt>
      <trkpt lat="43.2903210" lon="-2.4798920">
        <ele>66.8</ele>
        <time>2018-09-03T06:58:11Z</time>
      </trkpt>
      <trkpt lat="43.2902350" lon="-2.4800160">
        <ele>67.0</ele>
        <time>2018-09-03T06:58:14Z</time>
      </trkpt>
      <trkpt lat="43.2902130" lon="-2.4800730">
        <ele>67.2</ele>
        <time>2018-09-03T06:58:15Z</time>
      </trkpt>
      <trkpt lat="43.2901730" lon="-2.4801850">
        <ele>67.6</ele>
        <time>2018-09-03T06:58:17Z</time>
      </trkpt>
      <trkpt lat="43.2901320" lon="-2.4803740">
        <ele>68.0</ele>
        <time>2018-09-03T06:58:20Z</time>
      </trkpt>
      <trkpt lat="43.2900690" lon="-2.4808750">
        <ele>68.2</ele>
        <time>2018-09-03T06:58:27Z</time>
      </trkpt>
      <trkpt lat="43.2900690" lon="-2.4813570">
        <ele>68.2</ele>
        <time>2018-09-03T06:58:34Z</time>
      </trkpt>
      <trkpt lat="43.2900670" lon="-2.4821230">
        <ele>68.6</ele>
        <time>2018-09-03T06:58:45Z</time>
      </trkpt>
      <trkpt lat="43.2900640" lon="-2.4822770">
        <ele>68.6</ele>
        <time>2018-09-03T06:58:47Z</time>
      </trkpt>
      <trkpt lat="43.2900970" lon="-2.4825440">
        <ele>68.6</ele>
        <time>2018-09-03T06:58:51Z</time>
      </trkpt>
      <trkpt lat="43.2901260" lon="-2.4828220">
        <ele>68.6</ele>
        <time>2018-09-03T06:58:55Z</time>
      </trkpt>
      <trkpt lat="43.2902590" lon="-2.4834130">
        <ele>69.0</ele>
        <time>2018-09-03T06:59:04Z</time>
      </trkpt>
      <trkpt lat="43.2904760" lon="-2.4837270">
        <ele>69.0</ele>
        <time>2018-09-03T06:59:10Z</time>
      </trkpt>
      <trkpt lat="43.2905560" lon="-2.4838100">
        <ele>69.0</ele>
        <time>2018-09-03T06:59:12Z</time>
      </trkpt>
      <trkpt lat="43.2909810" lon="-2.4840160">
        <ele>69.4</ele>
        <time>2018-09-03T06:59:23Z</time>
      </trkpt>
      <trkpt lat="43.2911480" lon="-2.4840620">
        <ele>69.6</ele>
        <time>2018-09-03T06:59:27Z</time>
      </trkpt>
      <trkpt lat="43.2911860" lon="-2.4840690">
        <ele>69.8</ele>
        <time>2018-09-03T06:59:28Z</time>
      </trkpt>
      <trkpt lat="43.2913300" lon="-2.4841140">
        <ele>69.8</ele>
        <time>2018-09-03T06:59:32Z</time>
      </trkpt>
      <trkpt lat="43.2916160" lon="-2.4841660">
        <ele>71.0</ele>
        <time>2018-09-03T06:59:40Z</time>
      </trkpt>
      <trkpt lat="43.2918160" lon="-2.4842430">
        <ele>71.8</ele>
        <time>2018-09-03T06:59:46Z</time>
      </trkpt>
      <trkpt lat="43.2918460" lon="-2.4842640">
        <ele>72.0</ele>
        <time>2018-09-03T06:59:47Z</time>
      </trkpt>
      <trkpt lat="43.2919990" lon="-2.4843950">
        <ele>73.0</ele>
        <time>2018-09-03T06:59:53Z</time>
      </trkpt>
      <trkpt lat="43.2921330" lon="-2.4846150">
        <ele>74.2</ele>
        <time>2018-09-03T07:00:00Z</time>
      </trkpt>
      <trkpt lat="43.2922340" lon="-2.4848810">
        <ele>75.2</ele>
        <time>2018-09-03T07:00:08Z</time>
      </trkpt>
      <trkpt lat="43.2922640" lon="-2.4851040">
        <ele>75.8</ele>
        <time>2018-09-03T07:00:15Z</time>
      </trkpt>
      <trkpt lat="43.2922470" lon="-2.4852350">
        <ele>76.2</ele>
        <time>2018-09-03T07:00:19Z</time>
      </trkpt>
      <trkpt lat="43.2921240" lon="-2.4857400">
        <ele>77.2</ele>
        <time>2018-09-03T07:00:33Z</time>
      </trkpt>
      <trkpt lat="43.2920560" lon="-2.4860190">
        <ele>78.0</ele>
        <time>2018-09-03T07:00:40Z</time>
      </trkpt>
      <trkpt lat="43.2920030" lon="-2.4861510">
        <ele>78.2</ele>
        <time>2018-09-03T07:00:44Z</time>
      </trkpt>
      <trkpt lat="43.2918170" lon="-2.4863560">
        <ele>79.2</ele>
        <time>2018-09-03T07:00:54Z</time>
      </trkpt>
      <trkpt lat="43.2917530" lon="-2.4863910">
        <ele>79.4</ele>
        <time>2018-09-03T07:00:57Z</time>
      </trkpt>
      <trkpt lat="43.2915640" lon="-2.4864670">
        <ele>80.2</ele>
        <time>2018-09-03T07:01:05Z</time>
      </trkpt>
      <trkpt lat="43.2913330" lon="-2.4866000">
        <ele>80.8</ele>
        <time>2018-09-03T07:01:15Z</time>
      </trkpt>
      <trkpt lat="43.2912260" lon="-2.4866690">
        <ele>81.0</ele>
        <time>2018-09-03T07:01:20Z</time>
      </trkpt>
      <trkpt lat="43.2909260" lon="-2.4868680">
        <ele>82.0</ele>
        <time>2018-09-03T07:01:35Z</time>
      </trkpt>
      <trkpt lat="43.2906210" lon="-2.4869010">
        <ele>82.6</ele>
        <time>2018-09-03T07:01:45Z</time>
      </trkpt>
      <trkpt lat="43.2904560" lon="-2.4869100">
        <ele>82.6</ele>
        <time>2018-09-03T07:01:50Z</time>
      </trkpt>
      <trkpt lat="43.2902380" lon="-2.4869250">
        <ele>82.4</ele>
        <time>2018-09-03T07:01:56Z</time>
      </trkpt>
      <trkpt lat="43.2899880" lon="-2.4869800">
        <ele>82.2</ele>
        <time>2018-09-03T07:02:03Z</time>
      </trkpt>
      <trkpt lat="43.2898590" lon="-2.4870060">
        <ele>82.2</ele>
        <time>2018-09-03T07:02:06Z</time>
      </trkpt>
      <trkpt lat="43.2897650" lon="-2.4870300">
        <ele>82.0</ele>
        <time>2018-09-03T07:02:08Z</time>
      </trkpt>
      <trkpt lat="43.2896230" lon="-2.4871040">
        <ele>82.0</ele>
        <time>2018-09-03T07:02:11Z</time>
      </trkpt>
      <trkpt lat="43.2893900" lon="-2.4872690">
        <ele>81.8</ele>
        <time>2018-09-03T07:02:16Z</time>
      </trkpt>
      <trkpt lat="43.2889070" lon="-2.4876740">
        <ele>81.2</ele>
        <time>2018-09-03T07:02:26Z</time>
      </trkpt>
      <trkpt lat="43.2887190" lon="-2.4878480">
        <ele>81.0</ele>
        <time>2018-09-03T07:02:30Z</time>
      </trkpt>
      <trkpt lat="43.2883470" lon="-2.4882070">
        <ele>80.8</ele>
        <time>2018-09-03T07:02:38Z</time>
      </trkpt>
      <trkpt lat="43.2880170" lon="-2.4886390">
        <ele>80.8</ele>
        <time>2018-09-03T07:02:46Z</time>
      </trkpt>
      <trkpt lat="43.2876540" lon="-2.4892740">
        <ele>80.2</ele>
        <time>2018-09-03T07:02:56Z</time>
      </trkpt>
      <trkpt lat="43.2875720" lon="-2.4894830">
        <ele>80.0</ele>
        <time>2018-09-03T07:02:59Z</time>
      </trkpt>
      <trkpt lat="43.2873870" lon="-2.4901170">
        <ele>80.0</ele>
        <time>2018-09-03T07:03:08Z</time>
      </trkpt>
      <trkpt lat="43.2872710" lon="-2.4908030">
        <ele>81.0</ele>
        <time>2018-09-03T07:03:18Z</time>
      </trkpt>
      <trkpt lat="43.2872920" lon="-2.4909540">
        <ele>81.2</ele>
        <time>2018-09-03T07:03:20Z</time>
      </trkpt>
      <trkpt lat="43.2873840" lon="-2.4912490">
        <ele>81.6</ele>
        <time>2018-09-03T07:03:24Z</time>
      </trkpt>
      <trkpt lat="43.2874940" lon="-2.4914280">
        <ele>82.2</ele>
        <time>2018-09-03T07:03:27Z</time>
      </trkpt>
      <trkpt lat="43.2876560" lon="-2.4916260">
        <ele>82.6</ele>
        <time>2018-09-03T07:03:31Z</time>
      </trkpt>
      <trkpt lat="43.2877870" lon="-2.4917550">
        <ele>83.2</ele>
        <time>2018-09-03T07:03:34Z</time>
      </trkpt>
      <trkpt lat="43.2881490" lon="-2.4921360">
        <ele>84.4</ele>
        <time>2018-09-03T07:03:43Z</time>
      </trkpt>
      <trkpt lat="43.2882930" lon="-2.4923250">
        <ele>85.0</ele>
        <time>2018-09-03T07:03:47Z</time>
      </trkpt>
      <trkpt lat="43.2883590" lon="-2.4924360">
        <ele>85.2</ele>
        <time>2018-09-03T07:03:49Z</time>
      </trkpt>
      <trkpt lat="43.2884060" lon="-2.4925590">
        <ele>85.2</ele>
        <time>2018-09-03T07:03:51Z</time>
      </trkpt>
      <trkpt lat="43.2884400" lon="-2.4926870">
        <ele>85.4</ele>
        <time>2018-09-03T07:03:53Z</time>
      </trkpt>
      <trkpt lat="43.2884610" lon="-2.4928170">
        <ele>85.6</ele>
        <time>2018-09-03T07:03:55Z</time>
      </trkpt>
      <trkpt lat="43.2884000" lon="-2.4934600">
        <ele>87.0</ele>
        <time>2018-09-03T07:04:06Z</time>
      </trkpt>
      <trkpt lat="43.2882560" lon="-2.4937420">
        <ele>88.0</ele>
        <time>2018-09-03T07:04:12Z</time>
      </trkpt>
      <trkpt lat="43.2881600" lon="-2.4938740">
        <ele>88.4</ele>
        <time>2018-09-03T07:04:15Z</time>
      </trkpt>
      <trkpt lat="43.2879620" lon="-2.4940630">
        <ele>89.4</ele>
        <time>2018-09-03T07:04:20Z</time>
      </trkpt>
      <trkpt lat="43.2875770" lon="-2.4942440">
        <ele>90.4</ele>
        <time>2018-09-03T07:04:29Z</time>
      </trkpt>
      <trkpt lat="43.2871270" lon="-2.4942980">
        <ele>91.4</ele>
        <time>2018-09-03T07:04:39Z</time>
      </trkpt>
      <trkpt lat="43.2868350" lon="-2.4943880">
        <ele>92.4</ele>
        <time>2018-09-03T07:04:46Z</time>
      </trkpt>
      <trkpt lat="43.2867850" lon="-2.4944070">
        <ele>92.6</ele>
        <time>2018-09-03T07:04:47Z</time>
      </trkpt>
      <trkpt lat="43.2863550" lon="-2.4945530">
        <ele>93.0</ele>
        <time>2018-09-03T07:04:55Z</time>
      </trkpt>
      <trkpt lat="43.2863020" lon="-2.4945800">
        <ele>93.0</ele>
        <time>2018-09-03T07:04:56Z</time>
      </trkpt>
      <trkpt lat="43.2861960" lon="-2.4946280">
        <ele>93.0</ele>
        <time>2018-09-03T07:04:58Z</time>
      </trkpt>
      <trkpt lat="43.2860970" lon="-2.4946830">
        <ele>93.0</ele>
        <time>2018-09-03T07:05:00Z</time>
      </trkpt>
      <trkpt lat="43.2855470" lon="-2.4950010">
        <ele>92.6</ele>
        <time>2018-09-03T07:05:11Z</time>
      </trkpt>
      <trkpt lat="43.2853930" lon="-2.4950830">
        <ele>92.6</ele>
        <time>2018-09-03T07:05:14Z</time>
      </trkpt>
      <trkpt lat="43.2852920" lon="-2.4951350">
        <ele>92.6</ele>
        <time>2018-09-03T07:05:16Z</time>
      </trkpt>
      <trkpt lat="43.2847590" lon="-2.4953900">
        <ele>92.6</ele>
        <time>2018-09-03T07:05:26Z</time>
      </trkpt>
      <trkpt lat="43.2842290" lon="-2.4955860">
        <ele>93.2</ele>
        <time>2018-09-03T07:05:36Z</time>
      </trkpt>
      <trkpt lat="43.2838940" lon="-2.4956670">
        <ele>93.6</ele>
        <time>2018-09-03T07:05:43Z</time>
      </trkpt>
      <trkpt lat="43.2834350" lon="-2.4958330">
        <ele>94.4</ele>
        <time>2018-09-03T07:05:54Z</time>
      </trkpt>
      <trkpt lat="43.2828550" lon="-2.4958960">
        <ele>95.2</ele>
        <time>2018-09-03T07:06:06Z</time>
      </trkpt>
      <trkpt lat="43.2828070" lon="-2.4959060">
        <ele>95.4</ele>
        <time>2018-09-03T07:06:07Z</time>
      </trkpt>
      <trkpt lat="43.2822250" lon="-2.4959900">
        <ele>96.2</ele>
        <time>2018-09-03T07:06:19Z</time>
      </trkpt>
      <trkpt lat="43.2820310" lon="-2.4960210">
        <ele>96.2</ele>
        <time>2018-09-03T07:06:23Z</time>
      </trkpt>
      <trkpt lat="43.2819350" lon="-2.4960470">
        <ele>96.2</ele>
        <time>2018-09-03T07:06:25Z</time>
      </trkpt>
      <trkpt lat="43.2813870" lon="-2.4960650">
        <ele>96.2</ele>
        <time>2018-09-03T07:06:36Z</time>
      </trkpt>
      <trkpt lat="43.2809860" lon="-2.4960620">
        <ele>96.2</ele>
        <time>2018-09-03T07:06:44Z</time>
      </trkpt>
      <trkpt lat="43.2804880" lon="-2.4961110">
        <ele>96.0</ele>
        <time>2018-09-03T07:06:53Z</time>
      </trkpt>
      <trkpt lat="43.2803100" lon="-2.4961270">
        <ele>96.0</ele>
        <time>2018-09-03T07:06:56Z</time>
      </trkpt>
      <trkpt lat="43.2800180" lon="-2.4961500">
        <ele>96.0</ele>
        <time>2018-09-03T07:07:01Z</time>
      </trkpt>
      <trkpt lat="43.2796810" lon="-2.4961810">
        <ele>96.0</ele>
        <time>2018-09-03T07:07:07Z</time>
      </trkpt>
      <trkpt lat="43.2793440" lon="-2.4962140">
        <ele>96.0</ele>
        <time>2018-09-03T07:07:13Z</time>
      </trkpt>
      <trkpt lat="43.2791790" lon="-2.4962260">
        <ele>96.2</ele>
        <time>2018-09-03T07:07:16Z</time>
      </trkpt>
      <trkpt lat="43.2789640" lon="-2.4962390">
        <ele>96.2</ele>
        <time>2018-09-03T07:07:20Z</time>
      </trkpt>
      <trkpt lat="43.2786460" lon="-2.4962590">
        <ele>96.8</ele>
        <time>2018-09-03T07:07:26Z</time>
      </trkpt>
      <trkpt lat="43.2781030" lon="-2.4963120">
        <ele>97.2</ele>
        <time>2018-09-03T07:07:36Z</time>
      </trkpt>
      <trkpt lat="43.2776000" lon="-2.4963450">
        <ele>97.8</ele>
        <time>2018-09-03T07:07:46Z</time>
      </trkpt>
      <trkpt lat="43.2771920" lon="-2.4963780">
        <ele>98.8</ele>
        <time>2018-09-03T07:07:55Z</time>
      </trkpt>
      <trkpt lat="43.2770180" lon="-2.4964160">
        <ele>99.4</ele>
        <time>2018-09-03T07:07:59Z</time>
      </trkpt>
      <trkpt lat="43.2768870" lon="-2.4964180">
        <ele>100.0</ele>
        <time>2018-09-03T07:08:02Z</time>
      </trkpt>
      <trkpt lat="43.2763400" lon="-2.4964700">
        <ele>101.0</ele>
        <time>2018-09-03T07:08:14Z</time>
      </trkpt>
      <trkpt lat="43.2762930" lon="-2.4964750">
        <ele>101.0</ele>
        <time>2018-09-03T07:08:15Z</time>
      </trkpt>
      <trkpt lat="43.2762440" lon="-2.4964850">
        <ele>101.0</ele>
        <time>2018-09-03T07:08:16Z</time>
      </trkpt>
      <trkpt lat="43.2759550" lon="-2.4965460">
        <ele>101.2</ele>
        <time>2018-09-03T07:08:22Z</time>
      </trkpt>
      <trkpt lat="43.2753750" lon="-2.4966980">
        <ele>101.2</ele>
        <time>2018-09-03T07:08:33Z</time>
      </trkpt>
      <trkpt lat="43.2750740" lon="-2.4967760">
        <ele>101.0</ele>
        <time>2018-09-03T07:08:38Z</time>
      </trkpt>
      <trkpt lat="43.2749520" lon="-2.4968080">
        <ele>100.6</ele>
        <time>2018-09-03T07:08:40Z</time>
      </trkpt>
      <trkpt lat="43.2748920" lon="-2.4968240">
        <ele>100.6</ele>
        <time>2018-09-03T07:08:41Z</time>
      </trkpt>
      <trkpt lat="43.2747760" lon="-2.4968550">
        <ele>100.2</ele>
        <time>2018-09-03T07:08:43Z</time>
      </trkpt>
      <trkpt lat="43.2747170" lon="-2.4968700">
        <ele>100.0</ele>
        <time>2018-09-03T07:08:44Z</time>
      </trkpt>
      <trkpt lat="43.2744800" lon="-2.4969360">
        <ele>99.6</ele>
        <time>2018-09-03T07:08:48Z</time>
      </trkpt>
      <trkpt lat="43.2742000" lon="-2.4970170">
        <ele>99.2</ele>
        <time>2018-09-03T07:08:53Z</time>
      </trkpt>
      <trkpt lat="43.2740940" lon="-2.4970460">
        <ele>99.2</ele>
        <time>2018-09-03T07:08:55Z</time>
      </trkpt>
      <trkpt lat="43.2739870" lon="-2.4970650">
        <ele>99.0</ele>
        <time>2018-09-03T07:08:57Z</time>
      </trkpt>
      <trkpt lat="43.2738290" lon="-2.4971080">
        <ele>99.0</ele>
        <time>2018-09-03T07:09:00Z</time>
      </trkpt>
      <trkpt lat="43.2733390" lon="-2.4972990">
        <ele>99.2</ele>
        <time>2018-09-03T07:09:10Z</time>
      </trkpt>
      <trkpt lat="43.2730580" lon="-2.4974440">
        <ele>99.4</ele>
        <time>2018-09-03T07:09:16Z</time>
      </trkpt>
      <trkpt lat="43.2726920" lon="-2.4973390">
        <ele>99.8</ele>
        <time>2018-09-03T07:09:24Z</time>
      </trkpt>
      <trkpt lat="43.2725060" lon="-2.4971970">
        <ele>100.0</ele>
        <time>2018-09-03T07:09:28Z</time>
      </trkpt>
      <trkpt lat="43.2722950" lon="-2.4971750">
        <ele>100.0</ele>
        <time>2018-09-03T07:09:32Z</time>
      </trkpt>
      <trkpt lat="43.2720380" lon="-2.4972180">
        <ele>100.0</ele>
        <time>2018-09-03T07:09:37Z</time>
      </trkpt>
      <trkpt lat="43.2718130" lon="-2.4972410">
        <ele>100.2</ele>
        <time>2018-09-03T07:09:42Z</time>
      </trkpt>
      <trkpt lat="43.2717320" lon="-2.4972490">
        <ele>100.2</ele>
        <time>2018-09-03T07:09:44Z</time>
      </trkpt>
      <trkpt lat="43.2712930" lon="-2.4973280">
        <ele>100.8</ele>
        <time>2018-09-03T07:09:55Z</time>
      </trkpt>
      <trkpt lat="43.2711990" lon="-2.4973280">
        <ele>101.0</ele>
        <time>2018-09-03T07:09:58Z</time>
      </trkpt>
      <trkpt lat="43.2707850" lon="-2.4973570">
        <ele>101.4</ele>
        <time>2018-09-03T07:10:09Z</time>
      </trkpt>
      <trkpt lat="43.2706130" lon="-2.4972070">
        <ele>101.8</ele>
        <time>2018-09-03T07:10:14Z</time>
      </trkpt>
      <trkpt lat="43.2703690" lon="-2.4971130">
        <ele>101.8</ele>
        <time>2018-09-03T07:10:20Z</time>
      </trkpt>
      <trkpt lat="43.2702390" lon="-2.4971200">
        <ele>101.8</ele>
        <time>2018-09-03T07:10:23Z</time>
      </trkpt>
      <trkpt lat="43.2700250" lon="-2.4971440">
        <ele>101.8</ele>
        <time>2018-09-03T07:10:28Z</time>
      </trkpt>
      <trkpt lat="43.2697530" lon="-2.4972110">
        <ele>102.0</ele>
        <time>2018-09-03T07:10:36Z</time>
      </trkpt>
      <trkpt lat="43.2697060" lon="-2.4972230">
        <ele>102.2</ele>
        <time>2018-09-03T07:10:39Z</time>
      </trkpt>
      <trkpt lat="43.2691990" lon="-2.4973440">
        <ele>102.8</ele>
        <time>2018-09-03T07:10:56Z</time>
      </trkpt>
      <trkpt lat="43.2687850" lon="-2.4973370">
        <ele>103.2</ele>
        <time>2018-09-03T07:11:09Z</time>
      </trkpt>
      <trkpt lat="43.2684950" lon="-2.4972010">
        <ele>103.8</ele>
        <time>2018-09-03T07:11:18Z</time>
      </trkpt>
      <trkpt lat="43.2683100" lon="-2.4971310">
        <ele>104.4</ele>
        <time>2018-09-03T07:11:24Z</time>
      </trkpt>
      <trkpt lat="43.2682640" lon="-2.4972010">
        <ele>105.4</ele>
        <time>2018-09-03T07:11:31Z</time>
      </trkpt>
      <trkpt lat="43.2682540" lon="-2.4972200">
        <ele>105.4</ele>
        <time>2018-09-03T07:11:32Z</time>
      </trkpt>
      <trkpt lat="43.2681450" lon="-2.4973800">
        <ele>106.2</ele>
        <time>2018-09-03T07:11:38Z</time>
      </trkpt>
      <trkpt lat="43.2677810" lon="-2.4979300">
        <ele>106.2</ele>
        <time>2018-09-03T07:11:55Z</time>
      </trkpt>
      <trkpt lat="43.2674260" lon="-2.4982330">
        <ele>106.8</ele>
        <time>2018-09-03T07:12:09Z</time>
      </trkpt>
      <trkpt lat="43.2673040" lon="-2.4983750">
        <ele>108.2</ele>
        <time>2018-09-03T07:12:16Z</time>
      </trkpt>
      <trkpt lat="43.2672570" lon="-2.4984760">
        <ele>108.8</ele>
        <time>2018-09-03T07:12:20Z</time>
      </trkpt>
      <trkpt lat="43.2672960" lon="-2.4985320">
        <ele>109.2</ele>
        <time>2018-09-03T07:12:23Z</time>
      </trkpt>
      <trkpt lat="43.2673560" lon="-2.4986100">
        <ele>109.4</ele>
        <time>2018-09-03T07:12:26Z</time>
      </trkpt>
      <trkpt lat="43.2674040" lon="-2.4986940">
        <ele>109.4</ele>
        <time>2018-09-03T07:12:29Z</time>
      </trkpt>
      <trkpt lat="43.2673880" lon="-2.4987680">
        <ele>109.4</ele>
        <time>2018-09-03T07:12:33Z</time>
      </trkpt>
      <trkpt lat="43.2673350" lon="-2.4988280">
        <ele>108.8</ele>
        <time>2018-09-03T07:12:37Z</time>
      </trkpt>
      <trkpt lat="43.2673140" lon="-2.4988690">
        <ele>108.8</ele>
        <time>2018-09-03T07:12:39Z</time>
      </trkpt>
      <trkpt lat="43.2673010" lon="-2.4988900">
        <ele>108.8</ele>
        <time>2018-09-03T07:12:40Z</time>
      </trkpt>
      <trkpt lat="43.2671960" lon="-2.4990670">
        <ele>108.6</ele>
        <time>2018-09-03T07:12:47Z</time>
      </trkpt>
      <trkpt lat="43.2670940" lon="-2.4991850">
        <ele>108.6</ele>
        <time>2018-09-03T07:12:54Z</time>
      </trkpt>
      <trkpt lat="43.2670790" lon="-2.4992200">
        <ele>108.6</ele>
        <time>2018-09-03T07:12:56Z</time>
      </trkpt>
      <trkpt lat="43.2670870" lon="-2.4993900">
        <ele>108.6</ele>
        <time>2018-09-03T07:13:03Z</time>
      </trkpt>
      <trkpt lat="43.2670540" lon="-2.4994540">
        <ele>108.8</ele>
        <time>2018-09-03T07:13:06Z</time>
      </trkpt>
      <trkpt lat="43.2668200" lon="-2.4998590">
        <ele>110.2</ele>
        <time>2018-09-03T07:13:44Z</time>
      </trkpt>
      <trkpt lat="43.2668200" lon="-2.4998590">
        <ele>110.0</ele>
        <time>2018-09-03T07:13:56Z</time>
      </trkpt>
      <trkpt lat="43.2668200" lon="-2.4998590">
        <ele>110.0</ele>
        <time>2018-09-03T07:13:59Z</time>
      </trkpt>
      <trkpt lat="43.2668200" lon="-2.4998590">
        <ele>110.0</ele>
        <time>2018-09-03T07:14:25Z</time>
      </trkpt>
      <trkpt lat="43.2668200" lon="-2.4998590">
        <ele>110.0</ele>
        <time>2018-09-03T07:14:33Z</time>
      </trkpt>
      <trkpt lat="43.2668200" lon="-2.4998590">
        <ele>110.0</ele>
        <time>2018-09-03T07:14:45Z</time>
      </trkpt>
      <trkpt lat="43.2668200" lon="-2.4998590">
        <ele>110.0</ele>
        <time>2018-09-03T07:14:47Z</time>
      </trkpt>
      <trkpt lat="43.2668200" lon="-2.4998590">
        <ele>110.2</ele>
        <time>2018-09-03T07:15:00Z</time>
      </trkpt>
      <trkpt lat="43.2668200" lon="-2.4998590">
        <ele>110.2</ele>
        <time>2018-09-03T07:15:06Z</time>
      </trkpt>
      <trkpt lat="43.2668200" lon="-2.4998590">
        <ele>110.2</ele>
        <time>2018-09-03T07:15:08Z</time>
      </trkpt>
      <trkpt lat="43.2668280" lon="-2.4998180">
        <ele>110.2</ele>
        <time>2018-09-03T07:15:22Z</time>
      </trkpt>
      <trkpt lat="43.2668740" lon="-2.4997530">
        <ele>110.0</ele>
        <time>2018-09-03T07:15:25Z</time>
      </trkpt>
      <trkpt lat="43.2669170" lon="-2.4996680">
        <ele>110.0</ele>
        <time>2018-09-03T07:15:28Z</time>
      </trkpt>
      <trkpt lat="43.2670930" lon="-2.4993560">
        <ele>109.2</ele>
        <time>2018-09-03T07:15:40Z</time>
      </trkpt>
      <trkpt lat="43.2670660" lon="-2.4993640">
        <ele>109.0</ele>
        <time>2018-09-03T07:15:44Z</time>
      </trkpt>
      <trkpt lat="43.2670690" lon="-2.4993740">
        <ele>109.0</ele>
        <time>2018-09-03T07:15:47Z</time>
      </trkpt>
      <trkpt lat="43.2670660" lon="-2.4993740">
        <ele>109.0</ele>
        <time>2018-09-03T07:15:56Z</time>
      </trkpt>
      <trkpt lat="43.2670590" lon="-2.4993850">
        <ele>109.0</ele>
        <time>2018-09-03T07:16:05Z</time>
      </trkpt>
      <trkpt lat="43.2670420" lon="-2.4993970">
        <ele>109.0</ele>
        <time>2018-09-03T07:16:07Z</time>
      </trkpt>
      <trkpt lat="43.2670210" lon="-2.4994160">
        <ele>109.0</ele>
        <time>2018-09-03T07:16:09Z</time>
      </trkpt>
      <trkpt lat="43.2669590" lon="-2.4995330">
        <ele>109.2</ele>
        <time>2018-09-03T07:16:15Z</time>
      </trkpt>
      <trkpt lat="43.2669010" lon="-2.4996390">
        <ele>109.2</ele>
        <time>2018-09-03T07:16:20Z</time>
      </trkpt>
      <trkpt lat="43.2668190" lon="-2.4997870">
        <ele>109.8</ele>
        <time>2018-09-03T07:16:29Z</time>
      </trkpt>
      <trkpt lat="43.2667990" lon="-2.4998150">
        <ele>109.8</ele>
        <time>2018-09-03T07:16:32Z</time>
      </trkpt>
      <trkpt lat="43.2667790" lon="-2.4998890">
        <ele>110.0</ele>
        <time>2018-09-03T07:16:36Z</time>
      </trkpt>
      <trkpt lat="43.2668170" lon="-2.4999680">
        <ele>110.0</ele>
        <time>2018-09-03T07:16:40Z</time>
      </trkpt>
      <trkpt lat="43.2669380" lon="-2.5000790">
        <ele>110.0</ele>
        <time>2018-09-03T07:16:46Z</time>
      </trkpt>
      <trkpt lat="43.2671930" lon="-2.5002900">
        <ele>109.6</ele>
        <time>2018-09-03T07:16:54Z</time>
      </trkpt>
      <trkpt lat="43.2672290" lon="-2.5003230">
        <ele>109.4</ele>
        <time>2018-09-03T07:16:55Z</time>
      </trkpt>
      <trkpt lat="43.2673730" lon="-2.5004860">
        <ele>108.6</ele>
        <time>2018-09-03T07:16:59Z</time>
      </trkpt>
      <trkpt lat="43.2674140" lon="-2.5005180">
        <ele>108.4</ele>
        <time>2018-09-03T07:17:00Z</time>
      </trkpt>
      <trkpt lat="43.2676700" lon="-2.5007940">
        <ele>107.6</ele>
        <time>2018-09-03T07:17:08Z</time>
      </trkpt>
      <trkpt lat="43.2677550" lon="-2.5009630">
        <ele>107.4</ele>
        <time>2018-09-03T07:17:12Z</time>
      </trkpt>
      <trkpt lat="43.2678160" lon="-2.5011200">
        <ele>107.4</ele>
        <time>2018-09-03T07:17:16Z</time>
      </trkpt>
      <trkpt lat="43.2680040" lon="-2.5014610">
        <ele>107.2</ele>
        <time>2018-09-03T07:17:26Z</time>
      </trkpt>
      <trkpt lat="43.2680380" lon="-2.5015340">
        <ele>107.2</ele>
        <time>2018-09-03T07:17:28Z</time>
      </trkpt>
      <trkpt lat="43.2680490" lon="-2.5016130">
        <ele>107.2</ele>
        <time>2018-09-03T07:17:30Z</time>
      </trkpt>
      <trkpt lat="43.2680370" lon="-2.5016470">
        <ele>107.2</ele>
        <time>2018-09-03T07:17:31Z</time>
      </trkpt>
      <trkpt lat="43.2677980" lon="-2.5019470">
        <ele>107.4</ele>
        <time>2018-09-03T07:17:42Z</time>
      </trkpt>
      <trkpt lat="43.2677060" lon="-2.5020330">
        <ele>107.4</ele>
        <time>2018-09-03T07:17:45Z</time>
      </trkpt>
      <trkpt lat="43.2676130" lon="-2.5020910">
        <ele>107.4</ele>
        <time>2018-09-03T07:17:48Z</time>
      </trkpt>
      <trkpt lat="43.2675390" lon="-2.5021560">
        <ele>107.4</ele>
        <time>2018-09-03T07:17:51Z</time>
      </trkpt>
      <trkpt lat="43.2673550" lon="-2.5024730">
        <ele>108.4</ele>
        <time>2018-09-03T07:18:00Z</time>
      </trkpt>
      <trkpt lat="43.2672810" lon="-2.5025590">
        <ele>108.6</ele>
        <time>2018-09-03T07:18:03Z</time>
      </trkpt>
      <trkpt lat="43.2669180" lon="-2.5029760">
        <ele>108.8</ele>
        <time>2018-09-03T07:18:17Z</time>
      </trkpt>
      <trkpt lat="43.2668130" lon="-2.5030830">
        <ele>109.0</ele>
        <time>2018-09-03T07:18:21Z</time>
      </trkpt>
      <trkpt lat="43.2666810" lon="-2.5032210">
        <ele>109.0</ele>
        <time>2018-09-03T07:18:27Z</time>
      </trkpt>
      <trkpt lat="43.2666090" lon="-2.5032970">
        <ele>109.2</ele>
        <time>2018-09-03T07:18:30Z</time>
      </trkpt>
      <trkpt lat="43.2665130" lon="-2.5034270">
        <ele>109.4</ele>
        <time>2018-09-03T07:18:34Z</time>
      </trkpt>
      <trkpt lat="43.2663930" lon="-2.5035590">
        <ele>109.4</ele>
        <time>2018-09-03T07:18:39Z</time>
      </trkpt>
      <trkpt lat="43.2662690" lon="-2.5037080">
        <ele>109.6</ele>
        <time>2018-09-03T07:18:44Z</time>
      </trkpt>
      <trkpt lat="43.2658840" lon="-2.5042610">
        <ele>110.4</ele>
        <time>2018-09-03T07:19:00Z</time>
      </trkpt>
      <trkpt lat="43.2658410" lon="-2.5043380">
        <ele>110.6</ele>
        <time>2018-09-03T07:19:02Z</time>
      </trkpt>
      <trkpt lat="43.2657550" lon="-2.5045010">
        <ele>111.2</ele>
        <time>2018-09-03T07:19:06Z</time>
      </trkpt>
      <trkpt lat="43.2655830" lon="-2.5047150">
        <ele>111.6</ele>
        <time>2018-09-03T07:19:13Z</time>
      </trkpt>
      <trkpt lat="43.2654880" lon="-2.5049630">
        <ele>111.8</ele>
        <time>2018-09-03T07:19:19Z</time>
      </trkpt>
      <trkpt lat="43.2654400" lon="-2.5050710">
        <ele>111.8</ele>
        <time>2018-09-03T07:19:21Z</time>
      </trkpt>
      <trkpt lat="43.2654210" lon="-2.5051340">
        <ele>111.8</ele>
        <time>2018-09-03T07:19:22Z</time>
      </trkpt>
      <trkpt lat="43.2653940" lon="-2.5052490">
        <ele>111.8</ele>
        <time>2018-09-03T07:19:24Z</time>
      </trkpt>
      <trkpt lat="43.2653880" lon="-2.5052890">
        <ele>111.8</ele>
        <time>2018-09-03T07:19:25Z</time>
      </trkpt>
      <trkpt lat="43.2653970" lon="-2.5053730">
        <ele>111.4</ele>
        <time>2018-09-03T07:19:27Z</time>
      </trkpt>
      <trkpt lat="43.2654910" lon="-2.5056130">
        <ele>109.8</ele>
        <time>2018-09-03T07:19:32Z</time>
      </trkpt>
      <trkpt lat="43.2654970" lon="-2.5056990">
        <ele>109.4</ele>
        <time>2018-09-03T07:19:34Z</time>
      </trkpt>
      <trkpt lat="43.2654970" lon="-2.5057420">
        <ele>109.4</ele>
        <time>2018-09-03T07:19:35Z</time>
      </trkpt>
      <trkpt lat="43.2654870" lon="-2.5060020">
        <ele>109.2</ele>
        <time>2018-09-03T07:19:41Z</time>
      </trkpt>
      <trkpt lat="43.2654820" lon="-2.5060890">
        <ele>109.4</ele>
        <time>2018-09-03T07:19:43Z</time>
      </trkpt>
      <trkpt lat="43.2654460" lon="-2.5064610">
        <ele>110.8</ele>
        <time>2018-09-03T07:19:52Z</time>
      </trkpt>
      <trkpt lat="43.2654530" lon="-2.5065550">
        <ele>111.4</ele>
        <time>2018-09-03T07:19:56Z</time>
      </trkpt>
      <trkpt lat="43.2655210" lon="-2.5065700">
        <ele>112.0</ele>
        <time>2018-09-03T07:20:00Z</time>
      </trkpt>
      <trkpt lat="43.2655930" lon="-2.5065390">
        <ele>113.0</ele>
        <time>2018-09-03T07:20:04Z</time>
      </trkpt>
      <trkpt lat="43.2656080" lon="-2.5065230">
        <ele>113.2</ele>
        <time>2018-09-03T07:20:05Z</time>
      </trkpt>
      <trkpt lat="43.2656550" lon="-2.5064920">
        <ele>113.6</ele>
        <time>2018-09-03T07:20:09Z</time>
      </trkpt>
      <trkpt lat="43.2656680" lon="-2.5065010">
        <ele>113.6</ele>
        <time>2018-09-03T07:20:10Z</time>
      </trkpt>
      <trkpt lat="43.2656990" lon="-2.5065780">
        <ele>114.2</ele>
        <time>2018-09-03T07:20:13Z</time>
      </trkpt>
      <trkpt lat="43.2655620" lon="-2.5067750">
        <ele>114.4</ele>
        <time>2018-09-03T07:20:20Z</time>
      </trkpt>
      <trkpt lat="43.2654950" lon="-2.5068130">
        <ele>114.4</ele>
        <time>2018-09-03T07:20:22Z</time>
      </trkpt>
      <trkpt lat="43.2654270" lon="-2.5068510">
        <ele>114.2</ele>
        <time>2018-09-03T07:20:24Z</time>
      </trkpt>
      <trkpt lat="43.2653780" lon="-2.5069210">
        <ele>114.2</ele>
        <time>2018-09-03T07:20:26Z</time>
      </trkpt>
      <trkpt lat="43.2652130" lon="-2.5071420">
        <ele>114.0</ele>
        <time>2018-09-03T07:20:32Z</time>
      </trkpt>
      <trkpt lat="43.2651370" lon="-2.5073420">
        <ele>113.8</ele>
        <time>2018-09-03T07:20:36Z</time>
      </trkpt>
      <trkpt lat="43.2651010" lon="-2.5075800">
        <ele>113.8</ele>
        <time>2018-09-03T07:20:40Z</time>
      </trkpt>
      <trkpt lat="43.2650750" lon="-2.5077670">
        <ele>113.8</ele>
        <time>2018-09-03T07:20:43Z</time>
      </trkpt>
      <trkpt lat="43.2650550" lon="-2.5079640">
        <ele>114.0</ele>
        <time>2018-09-03T07:20:46Z</time>
      </trkpt>
      <trkpt lat="43.2649630" lon="-2.5087540">
        <ele>114.8</ele>
        <time>2018-09-03T07:20:58Z</time>
      </trkpt>
      <trkpt lat="43.2649310" lon="-2.5090090">
        <ele>115.4</ele>
        <time>2018-09-03T07:21:02Z</time>
      </trkpt>
      <trkpt lat="43.2648420" lon="-2.5097650">
        <ele>116.2</ele>
        <time>2018-09-03T07:21:14Z</time>
      </trkpt>
      <trkpt lat="43.2648260" lon="-2.5098900">
        <ele>116.4</ele>
        <time>2018-09-03T07:21:16Z</time>
      </trkpt>
      <trkpt lat="43.2647280" lon="-2.5106500">
        <ele>117.4</ele>
        <time>2018-09-03T07:21:28Z</time>
      </trkpt>
      <trkpt lat="43.2646310" lon="-2.5114370">
        <ele>117.8</ele>
        <time>2018-09-03T07:21:40Z</time>
      </trkpt>
      <trkpt lat="43.2645810" lon="-2.5118790">
        <ele>118.0</ele>
        <time>2018-09-03T07:21:47Z</time>
      </trkpt>
      <trkpt lat="43.2645350" lon="-2.5122800">
        <ele>118.6</ele>
        <time>2018-09-03T07:21:54Z</time>
      </trkpt>
      <trkpt lat="43.2645140" lon="-2.5124550">
        <ele>118.8</ele>
        <time>2018-09-03T07:21:57Z</time>
      </trkpt>
      <trkpt lat="43.2644910" lon="-2.5126270">
        <ele>119.2</ele>
        <time>2018-09-03T07:22:00Z</time>
      </trkpt>
      <trkpt lat="43.2644750" lon="-2.5128000">
        <ele>119.6</ele>
        <time>2018-09-03T07:22:03Z</time>
      </trkpt>
      <trkpt lat="43.2644420" lon="-2.5130890">
        <ele>120.0</ele>
        <time>2018-09-03T07:22:08Z</time>
      </trkpt>
      <trkpt lat="43.2644180" lon="-2.5134210">
        <ele>120.6</ele>
        <time>2018-09-03T07:22:14Z</time>
      </trkpt>
      <trkpt lat="43.2644020" lon="-2.5138070">
        <ele>121.6</ele>
        <time>2018-09-03T07:22:21Z</time>
      </trkpt>
      <trkpt lat="43.2643880" lon="-2.5142630">
        <ele>122.6</ele>
        <time>2018-09-03T07:22:30Z</time>
      </trkpt>
      <trkpt lat="43.2643850" lon="-2.5144100">
        <ele>123.4</ele>
        <time>2018-09-03T07:22:33Z</time>
      </trkpt>
      <trkpt lat="43.2643830" lon="-2.5146440">
        <ele>123.8</ele>
        <time>2018-09-03T07:22:38Z</time>
      </trkpt>
      <trkpt lat="43.2643830" lon="-2.5148660">
        <ele>125.0</ele>
        <time>2018-09-03T07:22:43Z</time>
      </trkpt>
      <trkpt lat="43.2643790" lon="-2.5150320">
        <ele>126.0</ele>
        <time>2018-09-03T07:22:47Z</time>
      </trkpt>
      <trkpt lat="43.2643800" lon="-2.5151950">
        <ele>127.2</ele>
        <time>2018-09-03T07:22:51Z</time>
      </trkpt>
      <trkpt lat="43.2643770" lon="-2.5153580">
        <ele>128.2</ele>
        <time>2018-09-03T07:22:55Z</time>
      </trkpt>
      <trkpt lat="43.2643700" lon="-2.5155550">
        <ele>129.4</ele>
        <time>2018-09-03T07:23:00Z</time>
      </trkpt>
      <trkpt lat="43.2643680" lon="-2.5157090">
        <ele>130.6</ele>
        <time>2018-09-03T07:23:04Z</time>
      </trkpt>
      <trkpt lat="43.2643660" lon="-2.5157860">
        <ele>131.6</ele>
        <time>2018-09-03T07:23:06Z</time>
      </trkpt>
      <trkpt lat="43.2643560" lon="-2.5159860">
        <ele>132.8</ele>
        <time>2018-09-03T07:23:11Z</time>
      </trkpt>
      <trkpt lat="43.2643430" lon="-2.5162220">
        <ele>133.8</ele>
        <time>2018-09-03T07:23:17Z</time>
      </trkpt>
      <trkpt lat="43.2643170" lon="-2.5164720">
        <ele>134.8</ele>
        <time>2018-09-03T07:23:23Z</time>
      </trkpt>
      <trkpt lat="43.2642690" lon="-2.5167570">
        <ele>135.8</ele>
        <time>2018-09-03T07:23:30Z</time>
      </trkpt>
      <trkpt lat="43.2642060" lon="-2.5170410">
        <ele>137.0</ele>
        <time>2018-09-03T07:23:37Z</time>
      </trkpt>
      <trkpt lat="43.2641190" lon="-2.5173490">
        <ele>138.0</ele>
        <time>2018-09-03T07:23:44Z</time>
      </trkpt>
      <trkpt lat="43.2639560" lon="-2.5177450">
        <ele>139.0</ele>
        <time>2018-09-03T07:23:54Z</time>
      </trkpt>
      <trkpt lat="43.2639340" lon="-2.5177810">
        <ele>139.0</ele>
        <time>2018-09-03T07:23:55Z</time>
      </trkpt>
      <trkpt lat="43.2635760" lon="-2.5183790">
        <ele>139.6</ele>
        <time>2018-09-03T07:24:08Z</time>
      </trkpt>
      <trkpt lat="43.2634310" lon="-2.5186930">
        <ele>139.6</ele>
        <time>2018-09-03T07:24:13Z</time>
      </trkpt>
      <trkpt lat="43.2632990" lon="-2.5189310">
        <ele>139.4</ele>
        <time>2018-09-03T07:24:17Z</time>
      </trkpt>
      <trkpt lat="43.2631700" lon="-2.5191700">
        <ele>139.4</ele>
        <time>2018-09-03T07:24:21Z</time>
      </trkpt>
      <trkpt lat="43.2630760" lon="-2.5193440">
        <ele>139.2</ele>
        <time>2018-09-03T07:24:24Z</time>
      </trkpt>
      <trkpt lat="43.2630130" lon="-2.5194640">
        <ele>139.2</ele>
        <time>2018-09-03T07:24:26Z</time>
      </trkpt>
      <trkpt lat="43.2628810" lon="-2.5196990">
        <ele>139.0</ele>
        <time>2018-09-03T07:24:30Z</time>
      </trkpt>
      <trkpt lat="43.2625300" lon="-2.5203040">
        <ele>139.0</ele>
        <time>2018-09-03T07:24:41Z</time>
      </trkpt>
      <trkpt lat="43.2622240" lon="-2.5207620">
        <ele>140.2</ele>
        <time>2018-09-03T07:24:51Z</time>
      </trkpt>
      <trkpt lat="43.2618740" lon="-2.5211910">
        <ele>141.2</ele>
        <time>2018-09-03T07:25:01Z</time>
      </trkpt>
      <trkpt lat="43.2615180" lon="-2.5215830">
        <ele>142.0</ele>
        <time>2018-09-03T07:25:11Z</time>
      </trkpt>
      <trkpt lat="43.2614430" lon="-2.5216580">
        <ele>142.0</ele>
        <time>2018-09-03T07:25:13Z</time>
      </trkpt>
      <trkpt lat="43.2612910" lon="-2.5217980">
        <ele>142.2</ele>
        <time>2018-09-03T07:25:17Z</time>
      </trkpt>
      <trkpt lat="43.2612140" lon="-2.5218660">
        <ele>142.4</ele>
        <time>2018-09-03T07:25:19Z</time>
      </trkpt>
      <trkpt lat="43.2610950" lon="-2.5219690">
        <ele>143.0</ele>
        <time>2018-09-03T07:25:22Z</time>
      </trkpt>
      <trkpt lat="43.2610130" lon="-2.5220370">
        <ele>143.4</ele>
        <time>2018-09-03T07:25:24Z</time>
      </trkpt>
      <trkpt lat="43.2606420" lon="-2.5223260">
        <ele>143.8</ele>
        <time>2018-09-03T07:25:33Z</time>
      </trkpt>
      <trkpt lat="43.2604770" lon="-2.5224520">
        <ele>143.8</ele>
        <time>2018-09-03T07:25:37Z</time>
      </trkpt>
      <trkpt lat="43.2601880" lon="-2.5226620">
        <ele>144.2</ele>
        <time>2018-09-03T07:25:44Z</time>
      </trkpt>
      <trkpt lat="43.2597030" lon="-2.5230530">
        <ele>144.4</ele>
        <time>2018-09-03T07:25:56Z</time>
      </trkpt>
      <trkpt lat="43.2596620" lon="-2.5230860">
        <ele>144.4</ele>
        <time>2018-09-03T07:25:57Z</time>
      </trkpt>
      <trkpt lat="43.2591590" lon="-2.5234230">
        <ele>145.0</ele>
        <time>2018-09-03T07:26:09Z</time>
      </trkpt>
      <trkpt lat="43.2586400" lon="-2.5237490">
        <ele>145.4</ele>
        <time>2018-09-03T07:26:21Z</time>
      </trkpt>
      <trkpt lat="43.2580980" lon="-2.5240850">
        <ele>145.4</ele>
        <time>2018-09-03T07:26:32Z</time>
      </trkpt>
      <trkpt lat="43.2577900" lon="-2.5242740">
        <ele>144.8</ele>
        <time>2018-09-03T07:26:38Z</time>
      </trkpt>
      <trkpt lat="43.2575840" lon="-2.5244000">
        <ele>144.6</ele>
        <time>2018-09-03T07:26:42Z</time>
      </trkpt>
      <trkpt lat="43.2572170" lon="-2.5246170">
        <ele>144.4</ele>
        <time>2018-09-03T07:26:49Z</time>
      </trkpt>
      <trkpt lat="43.2568470" lon="-2.5248410">
        <ele>144.2</ele>
        <time>2018-09-03T07:26:56Z</time>
      </trkpt>
      <trkpt lat="43.2566400" lon="-2.5249700">
        <ele>143.8</ele>
        <time>2018-09-03T07:27:00Z</time>
      </trkpt>
      <trkpt lat="43.2562440" lon="-2.5252110">
        <ele>143.6</ele>
        <time>2018-09-03T07:27:08Z</time>
      </trkpt>
      <trkpt lat="43.2560530" lon="-2.5253270">
        <ele>143.8</ele>
        <time>2018-09-03T07:27:12Z</time>
      </trkpt>
      <trkpt lat="43.2556420" lon="-2.5255770">
        <ele>144.0</ele>
        <time>2018-09-03T07:27:21Z</time>
      </trkpt>
      <trkpt lat="43.2554570" lon="-2.5256800">
        <ele>144.0</ele>
        <time>2018-09-03T07:27:25Z</time>
      </trkpt>
      <trkpt lat="43.2553660" lon="-2.5257360">
        <ele>144.0</ele>
        <time>2018-09-03T07:27:27Z</time>
      </trkpt>
      <trkpt lat="43.2551350" lon="-2.5258810">
        <ele>144.4</ele>
        <time>2018-09-03T07:27:32Z</time>
      </trkpt>
      <trkpt lat="43.2546260" lon="-2.5262020">
        <ele>144.8</ele>
        <time>2018-09-03T07:27:43Z</time>
      </trkpt>
      <trkpt lat="43.2541240" lon="-2.5265170">
        <ele>145.4</ele>
        <time>2018-09-03T07:27:54Z</time>
      </trkpt>
      <trkpt lat="43.2540330" lon="-2.5265680">
        <ele>145.4</ele>
        <time>2018-09-03T07:27:56Z</time>
      </trkpt>
      <trkpt lat="43.2536550" lon="-2.5267640">
        <ele>145.0</ele>
        <time>2018-09-03T07:28:03Z</time>
      </trkpt>
      <trkpt lat="43.2535020" lon="-2.5268460">
        <ele>144.4</ele>
        <time>2018-09-03T07:28:06Z</time>
      </trkpt>
      <trkpt lat="43.2532800" lon="-2.5269830">
        <ele>144.0</ele>
        <time>2018-09-03T07:28:11Z</time>
      </trkpt>
      <trkpt lat="43.2531970" lon="-2.5270370">
        <ele>144.0</ele>
        <time>2018-09-03T07:28:13Z</time>
      </trkpt>
      <trkpt lat="43.2530750" lon="-2.5271040">
        <ele>144.0</ele>
        <time>2018-09-03T07:28:16Z</time>
      </trkpt>
      <trkpt lat="43.2530370" lon="-2.5271240">
        <ele>144.0</ele>
        <time>2018-09-03T07:28:17Z</time>
      </trkpt>
      <trkpt lat="43.2528930" lon="-2.5273080">
        <ele>145.6</ele>
        <time>2018-09-03T07:28:23Z</time>
      </trkpt>
      <trkpt lat="43.2529070" lon="-2.5275070">
        <ele>146.2</ele>
        <time>2018-09-03T07:28:27Z</time>
      </trkpt>
      <trkpt lat="43.2529030" lon="-2.5276710">
        <ele>146.6</ele>
        <time>2018-09-03T07:28:30Z</time>
      </trkpt>
      <trkpt lat="43.2528850" lon="-2.5277750">
        <ele>146.8</ele>
        <time>2018-09-03T07:28:32Z</time>
      </trkpt>
      <trkpt lat="43.2528020" lon="-2.5280310">
        <ele>147.0</ele>
        <time>2018-09-03T07:28:37Z</time>
      </trkpt>
      <trkpt lat="43.2526290" lon="-2.5285470">
        <ele>147.2</ele>
        <time>2018-09-03T07:28:47Z</time>
      </trkpt>
      <trkpt lat="43.2525750" lon="-2.5286990">
        <ele>147.4</ele>
        <time>2018-09-03T07:28:50Z</time>
      </trkpt>
      <trkpt lat="43.2525190" lon="-2.5288580">
        <ele>147.6</ele>
        <time>2018-09-03T07:28:53Z</time>
      </trkpt>
      <trkpt lat="43.2523850" lon="-2.5292250">
        <ele>148.2</ele>
        <time>2018-09-03T07:29:00Z</time>
      </trkpt>
      <trkpt lat="43.2523100" lon="-2.5294360">
        <ele>148.8</ele>
        <time>2018-09-03T07:29:04Z</time>
      </trkpt>
      <trkpt lat="43.2521800" lon="-2.5298240">
        <ele>149.8</ele>
        <time>2018-09-03T07:29:11Z</time>
      </trkpt>
      <trkpt lat="43.2520300" lon="-2.5303780">
        <ele>151.0</ele>
        <time>2018-09-03T07:29:20Z</time>
      </trkpt>
      <trkpt lat="43.2519380" lon="-2.5309450">
        <ele>152.2</ele>
        <time>2018-09-03T07:29:29Z</time>
      </trkpt>
      <trkpt lat="43.2519620" lon="-2.5315960">
        <ele>153.2</ele>
        <time>2018-09-03T07:29:39Z</time>
      </trkpt>
      <trkpt lat="43.2521370" lon="-2.5323550">
        <ele>154.2</ele>
        <time>2018-09-03T07:29:51Z</time>
      </trkpt>
      <trkpt lat="43.2521380" lon="-2.5324850">
        <ele>154.4</ele>
        <time>2018-09-03T07:29:53Z</time>
      </trkpt>
      <trkpt lat="43.2520940" lon="-2.5328040">
        <ele>155.4</ele>
        <time>2018-09-03T07:29:58Z</time>
      </trkpt>
      <trkpt lat="43.2518440" lon="-2.5335210">
        <ele>155.8</ele>
        <time>2018-09-03T07:30:10Z</time>
      </trkpt>
      <trkpt lat="43.2516590" lon="-2.5338950">
        <ele>156.2</ele>
        <time>2018-09-03T07:30:17Z</time>
      </trkpt>
      <trkpt lat="43.2515420" lon="-2.5341640">
        <ele>156.4</ele>
        <time>2018-09-03T07:30:22Z</time>
      </trkpt>
      <trkpt lat="43.2514380" lon="-2.5347380">
        <ele>157.4</ele>
        <time>2018-09-03T07:30:32Z</time>
      </trkpt>
      <trkpt lat="43.2514340" lon="-2.5347980">
        <ele>157.4</ele>
        <time>2018-09-03T07:30:33Z</time>
      </trkpt>
      <trkpt lat="43.2514270" lon="-2.5350330">
        <ele>158.2</ele>
        <time>2018-09-03T07:30:37Z</time>
      </trkpt>
      <trkpt lat="43.2514280" lon="-2.5352090">
        <ele>158.6</ele>
        <time>2018-09-03T07:30:40Z</time>
      </trkpt>
      <trkpt lat="43.2514550" lon="-2.5356030">
        <ele>159.6</ele>
        <time>2018-09-03T07:30:47Z</time>
      </trkpt>
      <trkpt lat="43.2515350" lon="-2.5359100">
        <ele>161.0</ele>
        <time>2018-09-03T07:30:53Z</time>
      </trkpt>
      <trkpt lat="43.2516800" lon="-2.5363410">
        <ele>162.0</ele>
        <time>2018-09-03T07:31:02Z</time>
      </trkpt>
      <trkpt lat="43.2518140" lon="-2.5367290">
        <ele>163.0</ele>
        <time>2018-09-03T07:31:10Z</time>
      </trkpt>
      <trkpt lat="43.2519400" lon="-2.5371040">
        <ele>164.2</ele>
        <time>2018-09-03T07:31:18Z</time>
      </trkpt>
      <trkpt lat="43.2520350" lon="-2.5373910">
        <ele>165.2</ele>
        <time>2018-09-03T07:31:24Z</time>
      </trkpt>
      <trkpt lat="43.2520660" lon="-2.5374850">
        <ele>165.4</ele>
        <time>2018-09-03T07:31:26Z</time>
      </trkpt>
      <trkpt lat="43.2521920" lon="-2.5378530">
        <ele>166.4</ele>
        <time>2018-09-03T07:31:34Z</time>
      </trkpt>
      <trkpt lat="43.2522070" lon="-2.5379030">
        <ele>166.4</ele>
        <time>2018-09-03T07:31:35Z</time>
      </trkpt>
      <trkpt lat="43.2522610" lon="-2.5381700">
        <ele>167.0</ele>
        <time>2018-09-03T07:31:40Z</time>
      </trkpt>
      <trkpt lat="43.2522730" lon="-2.5383950">
        <ele>167.6</ele>
        <time>2018-09-03T07:31:44Z</time>
      </trkpt>
      <trkpt lat="43.2522710" lon="-2.5388050">
        <ele>168.6</ele>
        <time>2018-09-03T07:31:51Z</time>
      </trkpt>
      <trkpt lat="43.2522540" lon="-2.5391450">
        <ele>169.0</ele>
        <time>2018-09-03T07:31:57Z</time>
      </trkpt>
      <trkpt lat="43.2521990" lon="-2.5394270">
        <ele>169.0</ele>
        <time>2018-09-03T07:32:02Z</time>
      </trkpt>
      <trkpt lat="43.2521390" lon="-2.5395950">
        <ele>169.2</ele>
        <time>2018-09-03T07:32:05Z</time>
      </trkpt>
      <trkpt lat="43.2520510" lon="-2.5397370">
        <ele>169.2</ele>
        <time>2018-09-03T07:32:08Z</time>
      </trkpt>
      <trkpt lat="43.2519130" lon="-2.5399090">
        <ele>169.2</ele>
        <time>2018-09-03T07:32:12Z</time>
      </trkpt>
      <trkpt lat="43.2517030" lon="-2.5401140">
        <ele>169.6</ele>
        <time>2018-09-03T07:32:18Z</time>
      </trkpt>
      <trkpt lat="43.2514870" lon="-2.5403600">
        <ele>170.2</ele>
        <time>2018-09-03T07:32:25Z</time>
      </trkpt>
      <trkpt lat="43.2514100" lon="-2.5404740">
        <ele>170.6</ele>
        <time>2018-09-03T07:32:28Z</time>
      </trkpt>
      <trkpt lat="43.2512140" lon="-2.5408620">
        <ele>171.8</ele>
        <time>2018-09-03T07:32:37Z</time>
      </trkpt>
      <trkpt lat="43.2510940" lon="-2.5411210">
        <ele>172.8</ele>
        <time>2018-09-03T07:32:43Z</time>
      </trkpt>
      <trkpt lat="43.2508500" lon="-2.5416230">
        <ele>173.8</ele>
        <time>2018-09-03T07:32:54Z</time>
      </trkpt>
      <trkpt lat="43.2506550" lon="-2.5420280">
        <ele>175.0</ele>
        <time>2018-09-03T07:33:03Z</time>
      </trkpt>
      <trkpt lat="43.2504520" lon="-2.5424060">
        <ele>176.0</ele>
        <time>2018-09-03T07:33:12Z</time>
      </trkpt>
      <trkpt lat="43.2500660" lon="-2.5428480">
        <ele>177.0</ele>
        <time>2018-09-03T07:33:25Z</time>
      </trkpt>
      <trkpt lat="43.2499970" lon="-2.5429310">
        <ele>177.2</ele>
        <time>2018-09-03T07:33:27Z</time>
      </trkpt>
      <trkpt lat="43.2496310" lon="-2.5434880">
        <ele>177.8</ele>
        <time>2018-09-03T07:33:41Z</time>
      </trkpt>
      <trkpt lat="43.2495460" lon="-2.5437970">
        <ele>178.2</ele>
        <time>2018-09-03T07:33:47Z</time>
      </trkpt>
      <trkpt lat="43.2495010" lon="-2.5441110">
        <ele>179.2</ele>
        <time>2018-09-03T07:33:53Z</time>
      </trkpt>
      <trkpt lat="43.2494860" lon="-2.5446950">
        <ele>180.4</ele>
        <time>2018-09-03T07:34:05Z</time>
      </trkpt>
      <trkpt lat="43.2494970" lon="-2.5450690">
        <ele>181.4</ele>
        <time>2018-09-03T07:34:13Z</time>
      </trkpt>
      <trkpt lat="43.2495140" lon="-2.5456210">
        <ele>182.4</ele>
        <time>2018-09-03T07:34:25Z</time>
      </trkpt>
      <trkpt lat="43.2495350" lon="-2.5462980">
        <ele>183.8</ele>
        <time>2018-09-03T07:34:39Z</time>
      </trkpt>
      <trkpt lat="43.2495590" lon="-2.5467300">
        <ele>184.8</ele>
        <time>2018-09-03T07:34:50Z</time>
      </trkpt>
      <trkpt lat="43.2495690" lon="-2.5469810">
        <ele>185.8</ele>
        <time>2018-09-03T07:34:57Z</time>
      </trkpt>
      <trkpt lat="43.2495840" lon="-2.5473630">
        <ele>186.8</ele>
        <time>2018-09-03T07:35:07Z</time>
      </trkpt>
      <trkpt lat="43.2495950" lon="-2.5476680">
        <ele>187.8</ele>
        <time>2018-09-03T07:35:15Z</time>
      </trkpt>
      <trkpt lat="43.2496040" lon="-2.5479000">
        <ele>188.4</ele>
        <time>2018-09-03T07:35:21Z</time>
      </trkpt>
      <trkpt lat="43.2496140" lon="-2.5480880">
        <ele>189.2</ele>
        <time>2018-09-03T07:35:26Z</time>
      </trkpt>
      <trkpt lat="43.2495910" lon="-2.5483230">
        <ele>190.2</ele>
        <time>2018-09-03T07:35:33Z</time>
      </trkpt>
      <trkpt lat="43.2495240" lon="-2.5485430">
        <ele>191.2</ele>
        <time>2018-09-03T07:35:43Z</time>
      </trkpt>
      <trkpt lat="43.2495290" lon="-2.5486560">
        <ele>192.2</ele>
        <time>2018-09-03T07:35:48Z</time>
      </trkpt>
      <trkpt lat="43.2495320" lon="-2.5486770">
        <ele>192.4</ele>
        <time>2018-09-03T07:35:49Z</time>
      </trkpt>
      <trkpt lat="43.2495270" lon="-2.5488240">
        <ele>193.0</ele>
        <time>2018-09-03T07:35:55Z</time>
      </trkpt>
      <trkpt lat="43.2495250" lon="-2.5489230">
        <ele>193.4</ele>
        <time>2018-09-03T07:35:59Z</time>
      </trkpt>
      <trkpt lat="43.2495820" lon="-2.5490020">
        <ele>193.6</ele>
        <time>2018-09-03T07:36:02Z</time>
      </trkpt>
      <trkpt lat="43.2497450" lon="-2.5492770">
        <ele>193.8</ele>
        <time>2018-09-03T07:36:12Z</time>
      </trkpt>
      <trkpt lat="43.2497870" lon="-2.5492970">
        <ele>194.0</ele>
        <time>2018-09-03T07:36:14Z</time>
      </trkpt>
      <trkpt lat="43.2498370" lon="-2.5493090">
        <ele>194.0</ele>
        <time>2018-09-03T07:36:16Z</time>
      </trkpt>
      <trkpt lat="43.2498850" lon="-2.5493250">
        <ele>194.0</ele>
        <time>2018-09-03T07:36:18Z</time>
      </trkpt>
      <trkpt lat="43.2499070" lon="-2.5493310">
        <ele>194.0</ele>
        <time>2018-09-03T07:36:19Z</time>
      </trkpt>
      <trkpt lat="43.2499150" lon="-2.5493870">
        <ele>194.2</ele>
        <time>2018-09-03T07:36:22Z</time>
      </trkpt>
      <trkpt lat="43.2499180" lon="-2.5494590">
        <ele>194.2</ele>
        <time>2018-09-03T07:36:26Z</time>
      </trkpt>
      <trkpt lat="43.2499480" lon="-2.5494930">
        <ele>194.2</ele>
        <time>2018-09-03T07:36:29Z</time>
      </trkpt>
      <trkpt lat="43.2499710" lon="-2.5495120">
        <ele>194.2</ele>
        <time>2018-09-03T07:36:31Z</time>
      </trkpt>
      <trkpt lat="43.2499830" lon="-2.5495180">
        <ele>194.4</ele>
        <time>2018-09-03T07:36:34Z</time>
      </trkpt>
      <trkpt lat="43.2499920" lon="-2.5495030">
        <ele>194.4</ele>
        <time>2018-09-03T07:36:37Z</time>
      </trkpt>
      <trkpt lat="43.2499920" lon="-2.5495030">
        <ele>194.4</ele>
        <time>2018-09-03T07:37:03Z</time>
      </trkpt>
      <trkpt lat="43.2499920" lon="-2.5495030">
        <ele>194.4</ele>
        <time>2018-09-03T07:37:06Z</time>
      </trkpt>
      <trkpt lat="43.2499920" lon="-2.5495030">
        <ele>194.4</ele>
        <time>2018-09-03T07:37:07Z</time>
      </trkpt>
      <trkpt lat="43.2499920" lon="-2.5495030">
        <ele>194.4</ele>
        <time>2018-09-03T07:37:08Z</time>
      </trkpt>
      <trkpt lat="43.2499920" lon="-2.5495030">
        <ele>194.4</ele>
        <time>2018-09-03T07:37:14Z</time>
      </trkpt>
      <trkpt lat="43.2499920" lon="-2.5495030">
        <ele>194.4</ele>
        <time>2018-09-03T07:37:18Z</time>
      </trkpt>
      <trkpt lat="43.2498440" lon="-2.5494090">
        <ele>172.8</ele>
        <time>2018-09-03T08:23:53Z</time>
      </trkpt>
      <trkpt lat="43.2498500" lon="-2.5493980">
        <ele>172.8</ele>
        <time>2018-09-03T08:23:54Z</time>
      </trkpt>
      <trkpt lat="43.2498330" lon="-2.5493120">
        <ele>172.6</ele>
        <time>2018-09-03T08:24:01Z</time>
      </trkpt>
      <trkpt lat="43.2497940" lon="-2.5492710">
        <ele>172.6</ele>
        <time>2018-09-03T08:24:05Z</time>
      </trkpt>
      <trkpt lat="43.2497570" lon="-2.5492460">
        <ele>172.6</ele>
        <time>2018-09-03T08:24:08Z</time>
      </trkpt>
      <trkpt lat="43.2496960" lon="-2.5493140">
        <ele>172.6</ele>
        <time>2018-09-03T08:24:13Z</time>
      </trkpt>
      <trkpt lat="43.2496960" lon="-2.5493370">
        <ele>172.6</ele>
        <time>2018-09-03T08:24:14Z</time>
      </trkpt>
      <trkpt lat="43.2496980" lon="-2.5493830">
        <ele>172.6</ele>
        <time>2018-09-03T08:24:16Z</time>
      </trkpt>
      <trkpt lat="43.2497120" lon="-2.5495300">
        <ele>172.8</ele>
        <time>2018-09-03T08:24:23Z</time>
      </trkpt>
      <trkpt lat="43.2497160" lon="-2.5495920">
        <ele>173.0</ele>
        <time>2018-09-03T08:24:26Z</time>
      </trkpt>
      <trkpt lat="43.2497190" lon="-2.5496340">
        <ele>173.0</ele>
        <time>2018-09-03T08:24:28Z</time>
      </trkpt>
      <trkpt lat="43.2497090" lon="-2.5498170">
        <ele>173.8</ele>
        <time>2018-09-03T08:24:37Z</time>
      </trkpt>
      <trkpt lat="43.2497210" lon="-2.5498790">
        <ele>174.4</ele>
        <time>2018-09-03T08:24:40Z</time>
      </trkpt>
      <trkpt lat="43.2497420" lon="-2.5499410">
        <ele>174.4</ele>
        <time>2018-09-03T08:24:43Z</time>
      </trkpt>
      <trkpt lat="43.2498200" lon="-2.5501280">
        <ele>175.0</ele>
        <time>2018-09-03T08:24:53Z</time>
      </trkpt>
      <trkpt lat="43.2498670" lon="-2.5502120">
        <ele>175.6</ele>
        <time>2018-09-03T08:24:58Z</time>
      </trkpt>
      <trkpt lat="43.2499010" lon="-2.5502910">
        <ele>176.0</ele>
        <time>2018-09-03T08:25:02Z</time>
      </trkpt>
      <trkpt lat="43.2499150" lon="-2.5504230">
        <ele>176.6</ele>
        <time>2018-09-03T08:25:08Z</time>
      </trkpt>
      <trkpt lat="43.2499140" lon="-2.5505130">
        <ele>177.2</ele>
        <time>2018-09-03T08:25:12Z</time>
      </trkpt>
      <trkpt lat="43.2498850" lon="-2.5507000">
        <ele>178.2</ele>
        <time>2018-09-03T08:25:21Z</time>
      </trkpt>
      <trkpt lat="43.2498570" lon="-2.5508240">
        <ele>179.4</ele>
        <time>2018-09-03T08:25:28Z</time>
      </trkpt>
      <trkpt lat="43.2498430" lon="-2.5509210">
        <ele>180.4</ele>
        <time>2018-09-03T08:25:33Z</time>
      </trkpt>
      <trkpt lat="43.2498350" lon="-2.5509380">
        <ele>180.4</ele>
        <time>2018-09-03T08:25:34Z</time>
      </trkpt>
      <trkpt lat="43.2498200" lon="-2.5509870">
        <ele>180.6</ele>
        <time>2018-09-03T08:25:37Z</time>
      </trkpt>
      <trkpt lat="43.2497760" lon="-2.5510840">
        <ele>181.4</ele>
        <time>2018-09-03T08:25:44Z</time>
      </trkpt>
      <trkpt lat="43.2497500" lon="-2.5511190">
        <ele>181.6</ele>
        <time>2018-09-03T08:25:47Z</time>
      </trkpt>
      <trkpt lat="43.2497900" lon="-2.5512170">
        <ele>182.0</ele>
        <time>2018-09-03T08:25:53Z</time>
      </trkpt>
      <trkpt lat="43.2498130" lon="-2.5513270">
        <ele>182.4</ele>
        <time>2018-09-03T08:25:58Z</time>
      </trkpt>
      <trkpt lat="43.2498160" lon="-2.5515190">
        <ele>183.6</ele>
        <time>2018-09-03T08:26:07Z</time>
      </trkpt>
      <trkpt lat="43.2498190" lon="-2.5516200">
        <ele>184.2</ele>
        <time>2018-09-03T08:26:12Z</time>
      </trkpt>
      <trkpt lat="43.2498230" lon="-2.5517410">
        <ele>184.8</ele>
        <time>2018-09-03T08:26:18Z</time>
      </trkpt>
      <trkpt lat="43.2498400" lon="-2.5519290">
        <ele>185.8</ele>
        <time>2018-09-03T08:26:27Z</time>
      </trkpt>
      <trkpt lat="43.2498430" lon="-2.5519710">
        <ele>186.0</ele>
        <time>2018-09-03T08:26:29Z</time>
      </trkpt>
      <trkpt lat="43.2498490" lon="-2.5520320">
        <ele>186.2</ele>
        <time>2018-09-03T08:26:32Z</time>
      </trkpt>
      <trkpt lat="43.2498640" lon="-2.5521550">
        <ele>186.8</ele>
        <time>2018-09-03T08:26:38Z</time>
      </trkpt>
      <trkpt lat="43.2498650" lon="-2.5521770">
        <ele>187.0</ele>
        <time>2018-09-03T08:26:39Z</time>
      </trkpt>
      <trkpt lat="43.2498780" lon="-2.5522370">
        <ele>187.2</ele>
        <time>2018-09-03T08:26:42Z</time>
      </trkpt>
      <trkpt lat="43.2499280" lon="-2.5524630">
        <ele>188.2</ele>
        <time>2018-09-03T08:26:53Z</time>
      </trkpt>
      <trkpt lat="43.2499820" lon="-2.5526350">
        <ele>189.2</ele>
        <time>2018-09-03T08:27:02Z</time>
      </trkpt>
      <trkpt lat="43.2500320" lon="-2.5528750">
        <ele>190.2</ele>
        <time>2018-09-03T08:27:14Z</time>
      </trkpt>
      <trkpt lat="43.2500680" lon="-2.5530560">
        <ele>191.0</ele>
        <time>2018-09-03T08:27:23Z</time>
      </trkpt>
      <trkpt lat="43.2500850" lon="-2.5531390">
        <ele>191.2</ele>
        <time>2018-09-03T08:27:27Z</time>
      </trkpt>
      <trkpt lat="43.2501040" lon="-2.5532410">
        <ele>191.6</ele>
        <time>2018-09-03T08:27:32Z</time>
      </trkpt>
      <trkpt lat="43.2501360" lon="-2.5534070">
        <ele>192.2</ele>
        <time>2018-09-03T08:27:40Z</time>
      </trkpt>
      <trkpt lat="43.2501550" lon="-2.5535330">
        <ele>192.8</ele>
        <time>2018-09-03T08:27:46Z</time>
      </trkpt>
      <trkpt lat="43.2501490" lon="-2.5536640">
        <ele>193.4</ele>
        <time>2018-09-03T08:27:52Z</time>
      </trkpt>
      <trkpt lat="43.2501370" lon="-2.5537860">
        <ele>193.8</ele>
        <time>2018-09-03T08:27:58Z</time>
      </trkpt>
      <trkpt lat="43.2501420" lon="-2.5539330">
        <ele>194.6</ele>
        <time>2018-09-03T08:28:05Z</time>
      </trkpt>
      <trkpt lat="43.2502050" lon="-2.5541440">
        <ele>195.6</ele>
        <time>2018-09-03T08:28:16Z</time>
      </trkpt>
      <trkpt lat="43.2502940" lon="-2.5542970">
        <ele>196.6</ele>
        <time>2018-09-03T08:28:26Z</time>
      </trkpt>
      <trkpt lat="43.2503910" lon="-2.5544800">
        <ele>197.6</ele>
        <time>2018-09-03T08:28:37Z</time>
      </trkpt>
      <trkpt lat="43.2505050" lon="-2.5546900">
        <ele>199.0</ele>
        <time>2018-09-03T08:28:49Z</time>
      </trkpt>
      <trkpt lat="43.2505800" lon="-2.5548470">
        <ele>199.6</ele>
        <time>2018-09-03T08:28:57Z</time>
      </trkpt>
      <trkpt lat="43.2505970" lon="-2.5549370">
        <ele>200.0</ele>
        <time>2018-09-03T08:29:01Z</time>
      </trkpt>
      <trkpt lat="43.2506240" lon="-2.5551590">
        <ele>201.0</ele>
        <time>2018-09-03T08:29:11Z</time>
      </trkpt>
      <trkpt lat="43.2506260" lon="-2.5552010">
        <ele>201.2</ele>
        <time>2018-09-03T08:29:13Z</time>
      </trkpt>
      <trkpt lat="43.2506240" lon="-2.5552870">
        <ele>201.6</ele>
        <time>2018-09-03T08:29:17Z</time>
      </trkpt>
      <trkpt lat="43.2506070" lon="-2.5554330">
        <ele>202.0</ele>
        <time>2018-09-03T08:29:24Z</time>
      </trkpt>
      <trkpt lat="43.2506010" lon="-2.5554520">
        <ele>202.2</ele>
        <time>2018-09-03T08:29:25Z</time>
      </trkpt>
      <trkpt lat="43.2505760" lon="-2.5555940">
        <ele>202.8</ele>
        <time>2018-09-03T08:29:32Z</time>
      </trkpt>
      <trkpt lat="43.2505710" lon="-2.5556350">
        <ele>203.2</ele>
        <time>2018-09-03T08:29:34Z</time>
      </trkpt>
      <trkpt lat="43.2505680" lon="-2.5556780">
        <ele>203.0</ele>
        <time>2018-09-03T08:29:36Z</time>
      </trkpt>
      <trkpt lat="43.2505650" lon="-2.5557210">
        <ele>203.4</ele>
        <time>2018-09-03T08:29:38Z</time>
      </trkpt>
      <trkpt lat="43.2505570" lon="-2.5558050">
        <ele>203.6</ele>
        <time>2018-09-03T08:29:42Z</time>
      </trkpt>
      <trkpt lat="43.2505600" lon="-2.5559120">
        <ele>204.2</ele>
        <time>2018-09-03T08:29:47Z</time>
      </trkpt>
      <trkpt lat="43.2505640" lon="-2.5559540">
        <ele>204.6</ele>
        <time>2018-09-03T08:29:49Z</time>
      </trkpt>
      <trkpt lat="43.2505920" lon="-2.5561660">
        <ele>205.8</ele>
        <time>2018-09-03T08:29:59Z</time>
      </trkpt>
      <trkpt lat="43.2506460" lon="-2.5563610">
        <ele>206.8</ele>
        <time>2018-09-03T08:30:09Z</time>
      </trkpt>
      <trkpt lat="43.2506700" lon="-2.5564950">
        <ele>207.8</ele>
        <time>2018-09-03T08:30:16Z</time>
      </trkpt>
      <trkpt lat="43.2507500" lon="-2.5566770">
        <ele>208.8</ele>
        <time>2018-09-03T08:30:27Z</time>
      </trkpt>
      <trkpt lat="43.2508090" lon="-2.5568910">
        <ele>210.0</ele>
        <time>2018-09-03T08:30:38Z</time>
      </trkpt>
      <trkpt lat="43.2508300" lon="-2.5569620">
        <ele>210.4</ele>
        <time>2018-09-03T08:30:42Z</time>
      </trkpt>
      <trkpt lat="43.2508740" lon="-2.5570710">
        <ele>211.0</ele>
        <time>2018-09-03T08:30:48Z</time>
      </trkpt>
      <trkpt lat="43.2509630" lon="-2.5572390">
        <ele>212.2</ele>
        <time>2018-09-03T08:30:58Z</time>
      </trkpt>
      <trkpt lat="43.2510410" lon="-2.5574530">
        <ele>213.4</ele>
        <time>2018-09-03T08:31:10Z</time>
      </trkpt>
      <trkpt lat="43.2509850" lon="-2.5576590">
        <ele>214.4</ele>
        <time>2018-09-03T08:31:20Z</time>
      </trkpt>
      <trkpt lat="43.2509190" lon="-2.5579280">
        <ele>215.6</ele>
        <time>2018-09-03T08:31:33Z</time>
      </trkpt>
      <trkpt lat="43.2509210" lon="-2.5581820">
        <ele>216.8</ele>
        <time>2018-09-03T08:31:43Z</time>
      </trkpt>
      <trkpt lat="43.2509990" lon="-2.5584110">
        <ele>217.8</ele>
        <time>2018-09-03T08:31:54Z</time>
      </trkpt>
      <trkpt lat="43.2511240" lon="-2.5586200">
        <ele>219.0</ele>
        <time>2018-09-03T08:32:06Z</time>
      </trkpt>
      <trkpt lat="43.2512630" lon="-2.5587580">
        <ele>220.0</ele>
        <time>2018-09-03T08:32:16Z</time>
      </trkpt>
      <trkpt lat="43.2513340" lon="-2.5588190">
        <ele>220.2</ele>
        <time>2018-09-03T08:32:21Z</time>
      </trkpt>
      <trkpt lat="43.2514440" lon="-2.5588420">
        <ele>221.0</ele>
        <time>2018-09-03T08:32:28Z</time>
      </trkpt>
      <trkpt lat="43.2516070" lon="-2.5588020">
        <ele>222.2</ele>
        <time>2018-09-03T08:32:39Z</time>
      </trkpt>
      <trkpt lat="43.2516970" lon="-2.5587440">
        <ele>222.8</ele>
        <time>2018-09-03T08:32:45Z</time>
      </trkpt>
      <trkpt lat="43.2517400" lon="-2.5587070">
        <ele>223.2</ele>
        <time>2018-09-03T08:32:48Z</time>
      </trkpt>
      <trkpt lat="43.2518620" lon="-2.5585840">
        <ele>224.2</ele>
        <time>2018-09-03T08:32:58Z</time>
      </trkpt>
      <trkpt lat="43.2519450" lon="-2.5584940">
        <ele>225.0</ele>
        <time>2018-09-03T08:33:04Z</time>
      </trkpt>
      <trkpt lat="43.2519870" lon="-2.5584540">
        <ele>225.4</ele>
        <time>2018-09-03T08:33:07Z</time>
      </trkpt>
      <trkpt lat="43.2521560" lon="-2.5583390">
        <ele>226.4</ele>
        <time>2018-09-03T08:33:17Z</time>
      </trkpt>
      <trkpt lat="43.2523890" lon="-2.5583090">
        <ele>227.6</ele>
        <time>2018-09-03T08:33:30Z</time>
      </trkpt>
      <trkpt lat="43.2526190" lon="-2.5583250">
        <ele>228.6</ele>
        <time>2018-09-03T08:33:42Z</time>
      </trkpt>
      <trkpt lat="43.2527750" lon="-2.5582720">
        <ele>229.8</ele>
        <time>2018-09-03T08:33:51Z</time>
      </trkpt>
      <trkpt lat="43.2529090" lon="-2.5582030">
        <ele>231.0</ele>
        <time>2018-09-03T08:33:59Z</time>
      </trkpt>
      <trkpt lat="43.2530520" lon="-2.5581280">
        <ele>232.0</ele>
        <time>2018-09-03T08:34:08Z</time>
      </trkpt>
      <trkpt lat="43.2532180" lon="-2.5580390">
        <ele>233.4</ele>
        <time>2018-09-03T08:34:19Z</time>
      </trkpt>
      <trkpt lat="43.2533680" lon="-2.5579920">
        <ele>234.4</ele>
        <time>2018-09-03T08:34:28Z</time>
      </trkpt>
      <trkpt lat="43.2535580" lon="-2.5579500">
        <ele>235.4</ele>
        <time>2018-09-03T08:34:39Z</time>
      </trkpt>
      <trkpt lat="43.2537100" lon="-2.5579300">
        <ele>236.4</ele>
        <time>2018-09-03T08:34:47Z</time>
      </trkpt>
      <trkpt lat="43.2539390" lon="-2.5579190">
        <ele>237.4</ele>
        <time>2018-09-03T08:34:59Z</time>
      </trkpt>
      <trkpt lat="43.2540690" lon="-2.5579050">
        <ele>238.4</ele>
        <time>2018-09-03T08:35:06Z</time>
      </trkpt>
      <trkpt lat="43.2542070" lon="-2.5578990">
        <ele>239.4</ele>
        <time>2018-09-03T08:35:14Z</time>
      </trkpt>
      <trkpt lat="43.2543160" lon="-2.5579410">
        <ele>240.2</ele>
        <time>2018-09-03T08:35:21Z</time>
      </trkpt>
      <trkpt lat="43.2543300" lon="-2.5579520">
        <ele>240.6</ele>
        <time>2018-09-03T08:35:22Z</time>
      </trkpt>
      <trkpt lat="43.2544240" lon="-2.5580200">
        <ele>241.4</ele>
        <time>2018-09-03T08:35:29Z</time>
      </trkpt>
      <trkpt lat="43.2544500" lon="-2.5580370">
        <ele>241.6</ele>
        <time>2018-09-03T08:35:31Z</time>
      </trkpt>
      <trkpt lat="43.2545760" lon="-2.5581510">
        <ele>242.6</ele>
        <time>2018-09-03T08:35:40Z</time>
      </trkpt>
      <trkpt lat="43.2546790" lon="-2.5582830">
        <ele>243.6</ele>
        <time>2018-09-03T08:35:49Z</time>
      </trkpt>
      <trkpt lat="43.2547550" lon="-2.5584650">
        <ele>244.4</ele>
        <time>2018-09-03T08:35:58Z</time>
      </trkpt>
      <trkpt lat="43.2547760" lon="-2.5585230">
        <ele>244.6</ele>
        <time>2018-09-03T08:36:01Z</time>
      </trkpt>
      <trkpt lat="43.2547800" lon="-2.5585410">
        <ele>244.8</ele>
        <time>2018-09-03T08:36:02Z</time>
      </trkpt>
      <trkpt lat="43.2548400" lon="-2.5586760">
        <ele>245.6</ele>
        <time>2018-09-03T08:36:09Z</time>
      </trkpt>
      <trkpt lat="43.2548480" lon="-2.5586970">
        <ele>245.8</ele>
        <time>2018-09-03T08:36:10Z</time>
      </trkpt>
      <trkpt lat="43.2549190" lon="-2.5588560">
        <ele>246.6</ele>
        <time>2018-09-03T08:36:18Z</time>
      </trkpt>
      <trkpt lat="43.2549240" lon="-2.5588760">
        <ele>246.8</ele>
        <time>2018-09-03T08:36:19Z</time>
      </trkpt>
      <trkpt lat="43.2549150" lon="-2.5590020">
        <ele>247.6</ele>
        <time>2018-09-03T08:36:28Z</time>
      </trkpt>
      <trkpt lat="43.2547470" lon="-2.5588000">
        <ele>248.6</ele>
        <time>2018-09-03T08:36:42Z</time>
      </trkpt>
      <trkpt lat="43.2546350" lon="-2.5586380">
        <ele>249.6</ele>
        <time>2018-09-03T08:36:53Z</time>
      </trkpt>
      <trkpt lat="43.2544890" lon="-2.5585730">
        <ele>250.4</ele>
        <time>2018-09-03T08:37:02Z</time>
      </trkpt>
      <trkpt lat="43.2543210" lon="-2.5585660">
        <ele>251.6</ele>
        <time>2018-09-03T08:37:11Z</time>
      </trkpt>
      <trkpt lat="43.2541780" lon="-2.5586310">
        <ele>252.6</ele>
        <time>2018-09-03T08:37:18Z</time>
      </trkpt>
      <trkpt lat="43.2540260" lon="-2.5587500">
        <ele>253.4</ele>
        <time>2018-09-03T08:37:26Z</time>
      </trkpt>
      <trkpt lat="43.2538730" lon="-2.5589200">
        <ele>254.6</ele>
        <time>2018-09-03T08:37:36Z</time>
      </trkpt>
      <trkpt lat="43.2537910" lon="-2.5590310">
        <ele>255.0</ele>
        <time>2018-09-03T08:37:42Z</time>
      </trkpt>
      <trkpt lat="43.2536740" lon="-2.5591840">
        <ele>255.6</ele>
        <time>2018-09-03T08:37:50Z</time>
      </trkpt>
      <trkpt lat="43.2535460" lon="-2.5593410">
        <ele>256.6</ele>
        <time>2018-09-03T08:38:00Z</time>
      </trkpt>
      <trkpt lat="43.2534720" lon="-2.5594310">
        <ele>257.4</ele>
        <time>2018-09-03T08:38:05Z</time>
      </trkpt>
      <trkpt lat="43.2534460" lon="-2.5594530">
        <ele>257.8</ele>
        <time>2018-09-03T08:38:07Z</time>
      </trkpt>
      <trkpt lat="43.2533050" lon="-2.5594900">
        <ele>258.6</ele>
        <time>2018-09-03T08:38:15Z</time>
      </trkpt>
      <trkpt lat="43.2532860" lon="-2.5594970">
        <ele>259.0</ele>
        <time>2018-09-03T08:38:17Z</time>
      </trkpt>
      <trkpt lat="43.2531120" lon="-2.5595640">
        <ele>260.0</ele>
        <time>2018-09-03T08:38:29Z</time>
      </trkpt>
      <trkpt lat="43.2529590" lon="-2.5595850">
        <ele>260.8</ele>
        <time>2018-09-03T08:38:39Z</time>
      </trkpt>
      <trkpt lat="43.2529170" lon="-2.5595980">
        <ele>261.0</ele>
        <time>2018-09-03T08:38:42Z</time>
      </trkpt>
      <trkpt lat="43.2527700" lon="-2.5597340">
        <ele>262.0</ele>
        <time>2018-09-03T08:38:55Z</time>
      </trkpt>
      <trkpt lat="43.2527650" lon="-2.5599020">
        <ele>263.2</ele>
        <time>2018-09-03T08:39:03Z</time>
      </trkpt>
      <trkpt lat="43.2527850" lon="-2.5599890">
        <ele>264.2</ele>
        <time>2018-09-03T08:39:08Z</time>
      </trkpt>
      <trkpt lat="43.2527930" lon="-2.5600050">
        <ele>264.4</ele>
        <time>2018-09-03T08:39:09Z</time>
      </trkpt>
      <trkpt lat="43.2528640" lon="-2.5601090">
        <ele>265.4</ele>
        <time>2018-09-03T08:39:16Z</time>
      </trkpt>
      <trkpt lat="43.2528750" lon="-2.5601220">
        <ele>265.6</ele>
        <time>2018-09-03T08:39:17Z</time>
      </trkpt>
      <trkpt lat="43.2529260" lon="-2.5601660">
        <ele>266.0</ele>
        <time>2018-09-03T08:39:21Z</time>
      </trkpt>
      <trkpt lat="43.2529790" lon="-2.5602110">
        <ele>266.4</ele>
        <time>2018-09-03T08:39:25Z</time>
      </trkpt>
      <trkpt lat="43.2531200" lon="-2.5603410">
        <ele>267.6</ele>
        <time>2018-09-03T08:39:36Z</time>
      </trkpt>
      <trkpt lat="43.2532170" lon="-2.5605320">
        <ele>268.8</ele>
        <time>2018-09-03T08:39:46Z</time>
      </trkpt>
      <trkpt lat="43.2532860" lon="-2.5608020">
        <ele>269.8</ele>
        <time>2018-09-03T08:39:58Z</time>
      </trkpt>
      <trkpt lat="43.2532660" lon="-2.5609960">
        <ele>270.4</ele>
        <time>2018-09-03T08:40:06Z</time>
      </trkpt>
      <trkpt lat="43.2532450" lon="-2.5610670">
        <ele>270.8</ele>
        <time>2018-09-03T08:40:09Z</time>
      </trkpt>
      <trkpt lat="43.2531960" lon="-2.5612280">
        <ele>271.8</ele>
        <time>2018-09-03T08:40:17Z</time>
      </trkpt>
      <trkpt lat="43.2531530" lon="-2.5614540">
        <ele>273.0</ele>
        <time>2018-09-03T08:40:28Z</time>
      </trkpt>
      <trkpt lat="43.2531200" lon="-2.5616250">
        <ele>274.0</ele>
        <time>2018-09-03T08:40:36Z</time>
      </trkpt>
      <trkpt lat="43.2529980" lon="-2.5619000">
        <ele>275.0</ele>
        <time>2018-09-03T08:40:50Z</time>
      </trkpt>
      <trkpt lat="43.2529410" lon="-2.5621020">
        <ele>276.2</ele>
        <time>2018-09-03T08:40:59Z</time>
      </trkpt>
      <trkpt lat="43.2529470" lon="-2.5623210">
        <ele>277.2</ele>
        <time>2018-09-03T08:41:09Z</time>
      </trkpt>
      <trkpt lat="43.2529700" lon="-2.5624500">
        <ele>277.8</ele>
        <time>2018-09-03T08:41:15Z</time>
      </trkpt>
      <trkpt lat="43.2529750" lon="-2.5625330">
        <ele>278.0</ele>
        <time>2018-09-03T08:41:19Z</time>
      </trkpt>
      <trkpt lat="43.2529910" lon="-2.5627030">
        <ele>279.2</ele>
        <time>2018-09-03T08:41:27Z</time>
      </trkpt>
      <trkpt lat="43.2530270" lon="-2.5629310">
        <ele>280.2</ele>
        <time>2018-09-03T08:41:38Z</time>
      </trkpt>
      <trkpt lat="43.2530500" lon="-2.5631210">
        <ele>281.4</ele>
        <time>2018-09-03T08:41:47Z</time>
      </trkpt>
      <trkpt lat="43.2530720" lon="-2.5632680">
        <ele>282.6</ele>
        <time>2018-09-03T08:41:54Z</time>
      </trkpt>
      <trkpt lat="43.2531110" lon="-2.5635550">
        <ele>283.6</ele>
        <time>2018-09-03T08:42:05Z</time>
      </trkpt>
      <trkpt lat="43.2532100" lon="-2.5637670">
        <ele>284.6</ele>
        <time>2018-09-03T08:42:16Z</time>
      </trkpt>
      <trkpt lat="43.2533100" lon="-2.5638610">
        <ele>285.6</ele>
        <time>2018-09-03T08:42:23Z</time>
      </trkpt>
      <trkpt lat="43.2534450" lon="-2.5639630">
        <ele>286.4</ele>
        <time>2018-09-03T08:42:31Z</time>
      </trkpt>
      <trkpt lat="43.2534770" lon="-2.5639970">
        <ele>286.6</ele>
        <time>2018-09-03T08:42:33Z</time>
      </trkpt>
      <trkpt lat="43.2535390" lon="-2.5640530">
        <ele>287.2</ele>
        <time>2018-09-03T08:42:37Z</time>
      </trkpt>
      <trkpt lat="43.2535840" lon="-2.5641110">
        <ele>287.8</ele>
        <time>2018-09-03T08:42:41Z</time>
      </trkpt>
      <trkpt lat="43.2537020" lon="-2.5642760">
        <ele>288.8</ele>
        <time>2018-09-03T08:42:51Z</time>
      </trkpt>
      <trkpt lat="43.2537700" lon="-2.5644170">
        <ele>289.2</ele>
        <time>2018-09-03T08:42:58Z</time>
      </trkpt>
      <trkpt lat="43.2537930" lon="-2.5644920">
        <ele>289.6</ele>
        <time>2018-09-03T08:43:01Z</time>
      </trkpt>
      <trkpt lat="43.2538110" lon="-2.5645370">
        <ele>290.0</ele>
        <time>2018-09-03T08:43:03Z</time>
      </trkpt>
      <trkpt lat="43.2539210" lon="-2.5648310">
        <ele>291.0</ele>
        <time>2018-09-03T08:43:16Z</time>
      </trkpt>
      <trkpt lat="43.2540110" lon="-2.5650710">
        <ele>292.0</ele>
        <time>2018-09-03T08:43:27Z</time>
      </trkpt>
      <trkpt lat="43.2541100" lon="-2.5652560">
        <ele>293.2</ele>
        <time>2018-09-03T08:43:37Z</time>
      </trkpt>
      <trkpt lat="43.2541780" lon="-2.5653350">
        <ele>293.8</ele>
        <time>2018-09-03T08:43:42Z</time>
      </trkpt>
      <trkpt lat="43.2542440" lon="-2.5653750">
        <ele>294.2</ele>
        <time>2018-09-03T08:43:46Z</time>
      </trkpt>
      <trkpt lat="43.2543800" lon="-2.5654020">
        <ele>295.2</ele>
        <time>2018-09-03T08:43:55Z</time>
      </trkpt>
      <trkpt lat="43.2545770" lon="-2.5654240">
        <ele>296.4</ele>
        <time>2018-09-03T08:44:07Z</time>
      </trkpt>
      <trkpt lat="43.2546970" lon="-2.5654960">
        <ele>297.2</ele>
        <time>2018-09-03T08:44:15Z</time>
      </trkpt>
      <trkpt lat="43.2547380" lon="-2.5655340">
        <ele>297.4</ele>
        <time>2018-09-03T08:44:18Z</time>
      </trkpt>
      <trkpt lat="43.2548610" lon="-2.5656720">
        <ele>298.4</ele>
        <time>2018-09-03T08:44:27Z</time>
      </trkpt>
      <trkpt lat="43.2549910" lon="-2.5658340">
        <ele>299.6</ele>
        <time>2018-09-03T08:44:38Z</time>
      </trkpt>
      <trkpt lat="43.2551090" lon="-2.5659510">
        <ele>300.6</ele>
        <time>2018-09-03T08:44:47Z</time>
      </trkpt>
      <trkpt lat="43.2552540" lon="-2.5660750">
        <ele>301.6</ele>
        <time>2018-09-03T08:44:57Z</time>
      </trkpt>
      <trkpt lat="43.2553650" lon="-2.5661440">
        <ele>302.2</ele>
        <time>2018-09-03T08:45:05Z</time>
      </trkpt>
      <trkpt lat="43.2554310" lon="-2.5661490">
        <ele>302.8</ele>
        <time>2018-09-03T08:45:09Z</time>
      </trkpt>
      <trkpt lat="43.2555890" lon="-2.5661780">
        <ele>304.0</ele>
        <time>2018-09-03T08:45:19Z</time>
      </trkpt>
      <trkpt lat="43.2557040" lon="-2.5662710">
        <ele>305.2</ele>
        <time>2018-09-03T08:45:28Z</time>
      </trkpt>
      <trkpt lat="43.2557960" lon="-2.5664540">
        <ele>306.2</ele>
        <time>2018-09-03T08:45:37Z</time>
      </trkpt>
      <trkpt lat="43.2558510" lon="-2.5666890">
        <ele>307.4</ele>
        <time>2018-09-03T08:45:48Z</time>
      </trkpt>
      <trkpt lat="43.2558610" lon="-2.5669540">
        <ele>308.4</ele>
        <time>2018-09-03T08:45:59Z</time>
      </trkpt>
      <trkpt lat="43.2558260" lon="-2.5671530">
        <ele>309.4</ele>
        <time>2018-09-03T08:46:08Z</time>
      </trkpt>
      <trkpt lat="43.2557470" lon="-2.5673640">
        <ele>310.4</ele>
        <time>2018-09-03T08:46:19Z</time>
      </trkpt>
      <trkpt lat="43.2556940" lon="-2.5674200">
        <ele>310.8</ele>
        <time>2018-09-03T08:46:23Z</time>
      </trkpt>
      <trkpt lat="43.2556290" lon="-2.5674340">
        <ele>311.2</ele>
        <time>2018-09-03T08:46:27Z</time>
      </trkpt>
      <trkpt lat="43.2554590" lon="-2.5673850">
        <ele>312.4</ele>
        <time>2018-09-03T08:46:37Z</time>
      </trkpt>
      <trkpt lat="43.2552680" lon="-2.5673520">
        <ele>313.4</ele>
        <time>2018-09-03T08:46:48Z</time>
      </trkpt>
      <trkpt lat="43.2550610" lon="-2.5673530">
        <ele>314.4</ele>
        <time>2018-09-03T08:47:00Z</time>
      </trkpt>
      <trkpt lat="43.2549120" lon="-2.5673530">
        <ele>315.4</ele>
        <time>2018-09-03T08:47:09Z</time>
      </trkpt>
      <trkpt lat="43.2547540" lon="-2.5673520">
        <ele>316.4</ele>
        <time>2018-09-03T08:47:18Z</time>
      </trkpt>
      <trkpt lat="43.2546280" lon="-2.5674250">
        <ele>317.6</ele>
        <time>2018-09-03T08:47:26Z</time>
      </trkpt>
      <trkpt lat="43.2545980" lon="-2.5674930">
        <ele>318.0</ele>
        <time>2018-09-03T08:47:30Z</time>
      </trkpt>
      <trkpt lat="43.2545740" lon="-2.5675660">
        <ele>318.4</ele>
        <time>2018-09-03T08:47:34Z</time>
      </trkpt>
      <trkpt lat="43.2545380" lon="-2.5676940">
        <ele>319.6</ele>
        <time>2018-09-03T08:47:40Z</time>
      </trkpt>
      <trkpt lat="43.2544740" lon="-2.5678980">
        <ele>320.6</ele>
        <time>2018-09-03T08:47:50Z</time>
      </trkpt>
      <trkpt lat="43.2543760" lon="-2.5680510">
        <ele>321.6</ele>
        <time>2018-09-03T08:47:58Z</time>
      </trkpt>
      <trkpt lat="43.2543610" lon="-2.5680660">
        <ele>321.8</ele>
        <time>2018-09-03T08:47:59Z</time>
      </trkpt>
      <trkpt lat="43.2542050" lon="-2.5681350">
        <ele>322.8</ele>
        <time>2018-09-03T08:48:09Z</time>
      </trkpt>
      <trkpt lat="43.2541360" lon="-2.5680950">
        <ele>323.2</ele>
        <time>2018-09-03T08:48:13Z</time>
      </trkpt>
      <trkpt lat="43.2540390" lon="-2.5680450">
        <ele>323.6</ele>
        <time>2018-09-03T08:48:19Z</time>
      </trkpt>
      <trkpt lat="43.2540110" lon="-2.5680230">
        <ele>323.8</ele>
        <time>2018-09-03T08:48:21Z</time>
      </trkpt>
      <trkpt lat="43.2539950" lon="-2.5680120">
        <ele>323.8</ele>
        <time>2018-09-03T08:48:22Z</time>
      </trkpt>
      <trkpt lat="43.2539600" lon="-2.5679840">
        <ele>324.2</ele>
        <time>2018-09-03T08:48:24Z</time>
      </trkpt>
      <trkpt lat="43.2538910" lon="-2.5679260">
        <ele>324.8</ele>
        <time>2018-09-03T08:48:28Z</time>
      </trkpt>
      <trkpt lat="43.2538590" lon="-2.5679070">
        <ele>325.0</ele>
        <time>2018-09-03T08:48:30Z</time>
      </trkpt>
      <trkpt lat="43.2537850" lon="-2.5678520">
        <ele>325.4</ele>
        <time>2018-09-03T08:48:35Z</time>
      </trkpt>
      <trkpt lat="43.2537700" lon="-2.5678420">
        <ele>325.6</ele>
        <time>2018-09-03T08:48:36Z</time>
      </trkpt>
      <trkpt lat="43.2537550" lon="-2.5678330">
        <ele>325.6</ele>
        <time>2018-09-03T08:48:37Z</time>
      </trkpt>
      <trkpt lat="43.2537260" lon="-2.5678130">
        <ele>325.8</ele>
        <time>2018-09-03T08:48:39Z</time>
      </trkpt>
      <trkpt lat="43.2537000" lon="-2.5677910">
        <ele>326.0</ele>
        <time>2018-09-03T08:48:41Z</time>
      </trkpt>
      <trkpt lat="43.2535510" lon="-2.5677040">
        <ele>327.0</ele>
        <time>2018-09-03T08:48:50Z</time>
      </trkpt>
      <trkpt lat="43.2535350" lon="-2.5676930">
        <ele>327.0</ele>
        <time>2018-09-03T08:48:51Z</time>
      </trkpt>
      <trkpt lat="43.2534700" lon="-2.5676450">
        <ele>327.2</ele>
        <time>2018-09-03T08:48:55Z</time>
      </trkpt>
      <trkpt lat="43.2533230" lon="-2.5675410">
        <ele>328.0</ele>
        <time>2018-09-03T08:49:04Z</time>
      </trkpt>
      <trkpt lat="43.2531480" lon="-2.5674300">
        <ele>329.2</ele>
        <time>2018-09-03T08:49:16Z</time>
      </trkpt>
      <trkpt lat="43.2530000" lon="-2.5673310">
        <ele>330.2</ele>
        <time>2018-09-03T08:49:25Z</time>
      </trkpt>
      <trkpt lat="43.2528700" lon="-2.5672440">
        <ele>331.2</ele>
        <time>2018-09-03T08:49:34Z</time>
      </trkpt>
      <trkpt lat="43.2527150" lon="-2.5672930">
        <ele>332.2</ele>
        <time>2018-09-03T08:49:44Z</time>
      </trkpt>
      <trkpt lat="43.2526320" lon="-2.5674330">
        <ele>333.2</ele>
        <time>2018-09-03T08:49:52Z</time>
      </trkpt>
      <trkpt lat="43.2525930" lon="-2.5675450">
        <ele>334.6</ele>
        <time>2018-09-03T08:49:58Z</time>
      </trkpt>
      <trkpt lat="43.2525490" lon="-2.5676960">
        <ele>335.4</ele>
        <time>2018-09-03T08:50:06Z</time>
      </trkpt>
      <trkpt lat="43.2524640" lon="-2.5679210">
        <ele>336.6</ele>
        <time>2018-09-03T08:50:17Z</time>
      </trkpt>
      <trkpt lat="43.2524270" lon="-2.5682000">
        <ele>337.6</ele>
        <time>2018-09-03T08:50:30Z</time>
      </trkpt>
      <trkpt lat="43.2524360" lon="-2.5684210">
        <ele>338.6</ele>
        <time>2018-09-03T08:50:39Z</time>
      </trkpt>
      <trkpt lat="43.2523890" lon="-2.5686950">
        <ele>339.6</ele>
        <time>2018-09-03T08:50:50Z</time>
      </trkpt>
      <trkpt lat="43.2523300" lon="-2.5689560">
        <ele>340.8</ele>
        <time>2018-09-03T08:51:03Z</time>
      </trkpt>
      <trkpt lat="43.2523050" lon="-2.5690530">
        <ele>342.0</ele>
        <time>2018-09-03T08:51:08Z</time>
      </trkpt>
      <trkpt lat="43.2522760" lon="-2.5692080">
        <ele>342.8</ele>
        <time>2018-09-03T08:51:15Z</time>
      </trkpt>
      <trkpt lat="43.2522660" lon="-2.5692270">
        <ele>342.8</ele>
        <time>2018-09-03T08:51:16Z</time>
      </trkpt>
      <trkpt lat="43.2521720" lon="-2.5694120">
        <ele>344.0</ele>
        <time>2018-09-03T08:51:26Z</time>
      </trkpt>
      <trkpt lat="43.2520720" lon="-2.5695860">
        <ele>344.8</ele>
        <time>2018-09-03T08:51:36Z</time>
      </trkpt>
      <trkpt lat="43.2520630" lon="-2.5695990">
        <ele>345.0</ele>
        <time>2018-09-03T08:51:37Z</time>
      </trkpt>
      <trkpt lat="43.2519530" lon="-2.5698200">
        <ele>346.0</ele>
        <time>2018-09-03T08:51:49Z</time>
      </trkpt>
      <trkpt lat="43.2519450" lon="-2.5698660">
        <ele>346.2</ele>
        <time>2018-09-03T08:51:51Z</time>
      </trkpt>
      <trkpt lat="43.2519200" lon="-2.5700050">
        <ele>346.8</ele>
        <time>2018-09-03T08:51:57Z</time>
      </trkpt>
      <trkpt lat="43.2519030" lon="-2.5701050">
        <ele>347.0</ele>
        <time>2018-09-03T08:52:01Z</time>
      </trkpt>
      <trkpt lat="43.2518720" lon="-2.5702830">
        <ele>348.0</ele>
        <time>2018-09-03T08:52:09Z</time>
      </trkpt>
      <trkpt lat="43.2518390" lon="-2.5704170">
        <ele>349.2</ele>
        <time>2018-09-03T08:52:16Z</time>
      </trkpt>
      <trkpt lat="43.2517750" lon="-2.5705680">
        <ele>350.0</ele>
        <time>2018-09-03T08:52:24Z</time>
      </trkpt>
      <trkpt lat="43.2516780" lon="-2.5707630">
        <ele>351.2</ele>
        <time>2018-09-03T08:52:33Z</time>
      </trkpt>
      <trkpt lat="43.2515920" lon="-2.5709570">
        <ele>352.2</ele>
        <time>2018-09-03T08:52:43Z</time>
      </trkpt>
      <trkpt lat="43.2515280" lon="-2.5711420">
        <ele>353.0</ele>
        <time>2018-09-03T08:52:52Z</time>
      </trkpt>
      <trkpt lat="43.2515380" lon="-2.5712850">
        <ele>353.8</ele>
        <time>2018-09-03T08:52:59Z</time>
      </trkpt>
      <trkpt lat="43.2515510" lon="-2.5713230">
        <ele>354.0</ele>
        <time>2018-09-03T08:53:01Z</time>
      </trkpt>
      <trkpt lat="43.2516210" lon="-2.5714750">
        <ele>355.2</ele>
        <time>2018-09-03T08:53:09Z</time>
      </trkpt>
      <trkpt lat="43.2516580" lon="-2.5715240">
        <ele>355.6</ele>
        <time>2018-09-03T08:53:12Z</time>
      </trkpt>
      <trkpt lat="43.2517130" lon="-2.5715890">
        <ele>356.2</ele>
        <time>2018-09-03T08:53:16Z</time>
      </trkpt>
      <trkpt lat="43.2518080" lon="-2.5716540">
        <ele>357.0</ele>
        <time>2018-09-03T08:53:21Z</time>
      </trkpt>
      <trkpt lat="43.2518240" lon="-2.5716670">
        <ele>357.2</ele>
        <time>2018-09-03T08:53:22Z</time>
      </trkpt>
      <trkpt lat="43.2519460" lon="-2.5717830">
        <ele>358.2</ele>
        <time>2018-09-03T08:53:30Z</time>
      </trkpt>
      <trkpt lat="43.2520080" lon="-2.5718430">
        <ele>358.6</ele>
        <time>2018-09-03T08:53:34Z</time>
      </trkpt>
      <trkpt lat="43.2520490" lon="-2.5718660">
        <ele>358.6</ele>
        <time>2018-09-03T08:53:36Z</time>
      </trkpt>
      <trkpt lat="43.2521150" lon="-2.5719220">
        <ele>358.6</ele>
        <time>2018-09-03T08:53:39Z</time>
      </trkpt>
      <trkpt lat="43.2522900" lon="-2.5720540">
        <ele>358.6</ele>
        <time>2018-09-03T08:53:44Z</time>
      </trkpt>
      <trkpt lat="43.2525080" lon="-2.5721830">
        <ele>358.4</ele>
        <time>2018-09-03T08:53:48Z</time>
      </trkpt>
      <trkpt lat="43.2528660" lon="-2.5723770">
        <ele>357.0</ele>
        <time>2018-09-03T08:53:53Z</time>
      </trkpt>
      <trkpt lat="43.2530370" lon="-2.5724460">
        <ele>355.8</ele>
        <time>2018-09-03T08:53:55Z</time>
      </trkpt>
      <trkpt lat="43.2532230" lon="-2.5725290">
        <ele>354.2</ele>
        <time>2018-09-03T08:53:57Z</time>
      </trkpt>
      <trkpt lat="43.2534130" lon="-2.5726250">
        <ele>352.4</ele>
        <time>2018-09-03T08:53:59Z</time>
      </trkpt>
      <trkpt lat="43.2535120" lon="-2.5726760">
        <ele>350.4</ele>
        <time>2018-09-03T08:54:00Z</time>
      </trkpt>
      <trkpt lat="43.2537080" lon="-2.5728000">
        <ele>348.8</ele>
        <time>2018-09-03T08:54:02Z</time>
      </trkpt>
      <trkpt lat="43.2538110" lon="-2.5728630">
        <ele>347.8</ele>
        <time>2018-09-03T08:54:03Z</time>
      </trkpt>
      <trkpt lat="43.2539110" lon="-2.5729350">
        <ele>346.6</ele>
        <time>2018-09-03T08:54:04Z</time>
      </trkpt>
      <trkpt lat="43.2540990" lon="-2.5731070">
        <ele>344.8</ele>
        <time>2018-09-03T08:54:06Z</time>
      </trkpt>
      <trkpt lat="43.2542800" lon="-2.5733140">
        <ele>343.2</ele>
        <time>2018-09-03T08:54:08Z</time>
      </trkpt>
      <trkpt lat="43.2543700" lon="-2.5734220">
        <ele>342.0</ele>
        <time>2018-09-03T08:54:09Z</time>
      </trkpt>
      <trkpt lat="43.2544620" lon="-2.5735270">
        <ele>341.0</ele>
        <time>2018-09-03T08:54:10Z</time>
      </trkpt>
      <trkpt lat="43.2546440" lon="-2.5737550">
        <ele>339.2</ele>
        <time>2018-09-03T08:54:12Z</time>
      </trkpt>
      <trkpt lat="43.2547370" lon="-2.5738680">
        <ele>338.2</ele>
        <time>2018-09-03T08:54:13Z</time>
      </trkpt>
      <trkpt lat="43.2548310" lon="-2.5739660">
        <ele>337.4</ele>
        <time>2018-09-03T08:54:14Z</time>
      </trkpt>
      <trkpt lat="43.2549280" lon="-2.5740250">
        <ele>336.8</ele>
        <time>2018-09-03T08:54:15Z</time>
      </trkpt>
      <trkpt lat="43.2551330" lon="-2.5739690">
        <ele>335.2</ele>
        <time>2018-09-03T08:54:17Z</time>
      </trkpt>
      <trkpt lat="43.2553150" lon="-2.5738160">
        <ele>333.4</ele>
        <time>2018-09-03T08:54:19Z</time>
      </trkpt>
      <trkpt lat="43.2553990" lon="-2.5737250">
        <ele>332.4</ele>
        <time>2018-09-03T08:54:20Z</time>
      </trkpt>
      <trkpt lat="43.2554770" lon="-2.5736490">
        <ele>331.4</ele>
        <time>2018-09-03T08:54:21Z</time>
      </trkpt>
      <trkpt lat="43.2556590" lon="-2.5736060">
        <ele>330.0</ele>
        <time>2018-09-03T08:54:23Z</time>
      </trkpt>
      <trkpt lat="43.2557370" lon="-2.5739230">
        <ele>329.0</ele>
        <time>2018-09-03T08:54:26Z</time>
      </trkpt>
      <trkpt lat="43.2557450" lon="-2.5740460">
        <ele>328.0</ele>
        <time>2018-09-03T08:54:27Z</time>
      </trkpt>
      <trkpt lat="43.2557500" lon="-2.5741760">
        <ele>327.0</ele>
        <time>2018-09-03T08:54:28Z</time>
      </trkpt>
      <trkpt lat="43.2557680" lon="-2.5744520">
        <ele>326.0</ele>
        <time>2018-09-03T08:54:30Z</time>
      </trkpt>
      <trkpt lat="43.2558010" lon="-2.5749070">
        <ele>324.6</ele>
        <time>2018-09-03T08:54:33Z</time>
      </trkpt>
      <trkpt lat="43.2558210" lon="-2.5750610">
        <ele>323.6</ele>
        <time>2018-09-03T08:54:34Z</time>
      </trkpt>
      <trkpt lat="43.2559150" lon="-2.5753530">
        <ele>322.2</ele>
        <time>2018-09-03T08:54:36Z</time>
      </trkpt>
      <trkpt lat="43.2560410" lon="-2.5756340">
        <ele>320.2</ele>
        <time>2018-09-03T08:54:38Z</time>
      </trkpt>
      <trkpt lat="43.2560860" lon="-2.5757890">
        <ele>319.0</ele>
        <time>2018-09-03T08:54:39Z</time>
      </trkpt>
      <trkpt lat="43.2561190" lon="-2.5759500">
        <ele>317.6</ele>
        <time>2018-09-03T08:54:40Z</time>
      </trkpt>
      <trkpt lat="43.2561410" lon="-2.5761130">
        <ele>316.4</ele>
        <time>2018-09-03T08:54:41Z</time>
      </trkpt>
      <trkpt lat="43.2561610" lon="-2.5762800">
        <ele>315.2</ele>
        <time>2018-09-03T08:54:42Z</time>
      </trkpt>
      <trkpt lat="43.2561790" lon="-2.5764500">
        <ele>314.0</ele>
        <time>2018-09-03T08:54:43Z</time>
      </trkpt>
      <trkpt lat="43.2561910" lon="-2.5766210">
        <ele>312.8</ele>
        <time>2018-09-03T08:54:44Z</time>
      </trkpt>
      <trkpt lat="43.2562040" lon="-2.5769700">
        <ele>311.4</ele>
        <time>2018-09-03T08:54:46Z</time>
      </trkpt>
      <trkpt lat="43.2562210" lon="-2.5771430">
        <ele>310.8</ele>
        <time>2018-09-03T08:54:47Z</time>
      </trkpt>
      <trkpt lat="43.2562540" lon="-2.5773110">
        <ele>310.2</ele>
        <time>2018-09-03T08:54:48Z</time>
      </trkpt>
      <trkpt lat="43.2563640" lon="-2.5776270">
        <ele>308.6</ele>
        <time>2018-09-03T08:54:50Z</time>
      </trkpt>
      <trkpt lat="43.2564780" lon="-2.5779380">
        <ele>306.8</ele>
        <time>2018-09-03T08:54:52Z</time>
      </trkpt>
      <trkpt lat="43.2565380" lon="-2.5780900">
        <ele>305.6</ele>
        <time>2018-09-03T08:54:53Z</time>
      </trkpt>
      <trkpt lat="43.2566020" lon="-2.5782400">
        <ele>304.6</ele>
        <time>2018-09-03T08:54:54Z</time>
      </trkpt>
      <trkpt lat="43.2567480" lon="-2.5785310">
        <ele>303.0</ele>
        <time>2018-09-03T08:54:56Z</time>
      </trkpt>
      <trkpt lat="43.2568930" lon="-2.5788400">
        <ele>301.2</ele>
        <time>2018-09-03T08:54:58Z</time>
      </trkpt>
      <trkpt lat="43.2569560" lon="-2.5790000">
        <ele>299.8</ele>
        <time>2018-09-03T08:54:59Z</time>
      </trkpt>
      <trkpt lat="43.2570970" lon="-2.5793150">
        <ele>298.2</ele>
        <time>2018-09-03T08:55:01Z</time>
      </trkpt>
      <trkpt lat="43.2572700" lon="-2.5796120">
        <ele>296.6</ele>
        <time>2018-09-03T08:55:03Z</time>
      </trkpt>
      <trkpt lat="43.2574370" lon="-2.5799240">
        <ele>294.6</ele>
        <time>2018-09-03T08:55:05Z</time>
      </trkpt>
      <trkpt lat="43.2575020" lon="-2.5801000">
        <ele>293.6</ele>
        <time>2018-09-03T08:55:06Z</time>
      </trkpt>
      <trkpt lat="43.2576310" lon="-2.5804440">
        <ele>291.6</ele>
        <time>2018-09-03T08:55:08Z</time>
      </trkpt>
      <trkpt lat="43.2577280" lon="-2.5805830">
        <ele>289.8</ele>
        <time>2018-09-03T08:55:09Z</time>
      </trkpt>
      <trkpt lat="43.2579280" lon="-2.5808540">
        <ele>288.0</ele>
        <time>2018-09-03T08:55:11Z</time>
      </trkpt>
      <trkpt lat="43.2581130" lon="-2.5811410">
        <ele>286.2</ele>
        <time>2018-09-03T08:55:13Z</time>
      </trkpt>
      <trkpt lat="43.2581970" lon="-2.5812930">
        <ele>285.2</ele>
        <time>2018-09-03T08:55:14Z</time>
      </trkpt>
      <trkpt lat="43.2582700" lon="-2.5814420">
        <ele>283.8</ele>
        <time>2018-09-03T08:55:15Z</time>
      </trkpt>
      <trkpt lat="43.2583330" lon="-2.5815710">
        <ele>282.6</ele>
        <time>2018-09-03T08:55:16Z</time>
      </trkpt>
      <trkpt lat="43.2583890" lon="-2.5816780">
        <ele>282.0</ele>
        <time>2018-09-03T08:55:17Z</time>
      </trkpt>
      <trkpt lat="43.2584740" lon="-2.5818270">
        <ele>281.4</ele>
        <time>2018-09-03T08:55:19Z</time>
      </trkpt>
      <trkpt lat="43.2585070" lon="-2.5818840">
        <ele>281.4</ele>
        <time>2018-09-03T08:55:20Z</time>
      </trkpt>
      <trkpt lat="43.2586310" lon="-2.5820410">
        <ele>281.6</ele>
        <time>2018-09-03T08:55:33Z</time>
      </trkpt>
      <trkpt lat="43.2587340" lon="-2.5821440">
        <ele>281.6</ele>
        <time>2018-09-03T08:55:55Z</time>
      </trkpt>
      <trkpt lat="43.2588040" lon="-2.5822240">
        <ele>281.6</ele>
        <time>2018-09-03T08:55:57Z</time>
      </trkpt>
      <trkpt lat="43.2588900" lon="-2.5823200">
        <ele>281.6</ele>
        <time>2018-09-03T08:55:59Z</time>
      </trkpt>
      <trkpt lat="43.2590590" lon="-2.5824690">
        <ele>281.2</ele>
        <time>2018-09-03T08:56:02Z</time>
      </trkpt>
      <trkpt lat="43.2592010" lon="-2.5825230">
        <ele>280.4</ele>
        <time>2018-09-03T08:56:04Z</time>
      </trkpt>
      <trkpt lat="43.2592780" lon="-2.5825090">
        <ele>280.0</ele>
        <time>2018-09-03T08:56:05Z</time>
      </trkpt>
      <trkpt lat="43.2594660" lon="-2.5823430">
        <ele>278.8</ele>
        <time>2018-09-03T08:56:08Z</time>
      </trkpt>
      <trkpt lat="43.2596020" lon="-2.5823000">
        <ele>277.4</ele>
        <time>2018-09-03T08:56:10Z</time>
      </trkpt>
      <trkpt lat="43.2597160" lon="-2.5824090">
        <ele>275.8</ele>
        <time>2018-09-03T08:56:12Z</time>
      </trkpt>
      <trkpt lat="43.2597970" lon="-2.5825950">
        <ele>274.8</ele>
        <time>2018-09-03T08:56:14Z</time>
      </trkpt>
      <trkpt lat="43.2598740" lon="-2.5828110">
        <ele>274.2</ele>
        <time>2018-09-03T08:56:16Z</time>
      </trkpt>
      <trkpt lat="43.2599080" lon="-2.5829300">
        <ele>273.8</ele>
        <time>2018-09-03T08:56:17Z</time>
      </trkpt>
      <trkpt lat="43.2599340" lon="-2.5830600">
        <ele>272.6</ele>
        <time>2018-09-03T08:56:18Z</time>
      </trkpt>
      <trkpt lat="43.2599600" lon="-2.5835930">
        <ele>271.4</ele>
        <time>2018-09-03T08:56:22Z</time>
      </trkpt>
      <trkpt lat="43.2599760" lon="-2.5837140">
        <ele>271.0</ele>
        <time>2018-09-03T08:56:23Z</time>
      </trkpt>
      <trkpt lat="43.2600110" lon="-2.5838210">
        <ele>270.0</ele>
        <time>2018-09-03T08:56:24Z</time>
      </trkpt>
      <trkpt lat="43.2600510" lon="-2.5839320">
        <ele>268.8</ele>
        <time>2018-09-03T08:56:25Z</time>
      </trkpt>
      <trkpt lat="43.2600910" lon="-2.5840530">
        <ele>267.6</ele>
        <time>2018-09-03T08:56:26Z</time>
      </trkpt>
      <trkpt lat="43.2601270" lon="-2.5841850">
        <ele>266.6</ele>
        <time>2018-09-03T08:56:27Z</time>
      </trkpt>
      <trkpt lat="43.2601590" lon="-2.5843260">
        <ele>266.0</ele>
        <time>2018-09-03T08:56:28Z</time>
      </trkpt>
      <trkpt lat="43.2601970" lon="-2.5844700">
        <ele>265.2</ele>
        <time>2018-09-03T08:56:29Z</time>
      </trkpt>
      <trkpt lat="43.2602930" lon="-2.5847460">
        <ele>264.4</ele>
        <time>2018-09-03T08:56:31Z</time>
      </trkpt>
      <trkpt lat="43.2603330" lon="-2.5848790">
        <ele>264.0</ele>
        <time>2018-09-03T08:56:32Z</time>
      </trkpt>
      <trkpt lat="43.2602810" lon="-2.5852240">
        <ele>262.8</ele>
        <time>2018-09-03T08:56:35Z</time>
      </trkpt>
      <trkpt lat="43.2602230" lon="-2.5853050">
        <ele>261.8</ele>
        <time>2018-09-03T08:56:36Z</time>
      </trkpt>
      <trkpt lat="43.2601310" lon="-2.5853630">
        <ele>260.4</ele>
        <time>2018-09-03T08:56:37Z</time>
      </trkpt>
      <trkpt lat="43.2600390" lon="-2.5854300">
        <ele>259.0</ele>
        <time>2018-09-03T08:56:38Z</time>
      </trkpt>
      <trkpt lat="43.2599030" lon="-2.5856450">
        <ele>258.0</ele>
        <time>2018-09-03T08:56:40Z</time>
      </trkpt>
      <trkpt lat="43.2599150" lon="-2.5860640">
        <ele>256.8</ele>
        <time>2018-09-03T08:56:43Z</time>
      </trkpt>
      <trkpt lat="43.2600020" lon="-2.5863340">
        <ele>254.6</ele>
        <time>2018-09-03T08:56:45Z</time>
      </trkpt>
      <trkpt lat="43.2601370" lon="-2.5865260">
        <ele>253.2</ele>
        <time>2018-09-03T08:56:47Z</time>
      </trkpt>
      <trkpt lat="43.2602140" lon="-2.5865910">
        <ele>252.0</ele>
        <time>2018-09-03T08:56:48Z</time>
      </trkpt>
      <trkpt lat="43.2604090" lon="-2.5866500">
        <ele>251.0</ele>
        <time>2018-09-03T08:56:50Z</time>
      </trkpt>
      <trkpt lat="43.2605730" lon="-2.5867940">
        <ele>248.4</ele>
        <time>2018-09-03T08:56:52Z</time>
      </trkpt>
      <trkpt lat="43.2606800" lon="-2.5870120">
        <ele>247.2</ele>
        <time>2018-09-03T08:56:54Z</time>
      </trkpt>
      <trkpt lat="43.2607080" lon="-2.5871360">
        <ele>246.2</ele>
        <time>2018-09-03T08:56:55Z</time>
      </trkpt>
      <trkpt lat="43.2607240" lon="-2.5872590">
        <ele>245.6</ele>
        <time>2018-09-03T08:56:56Z</time>
      </trkpt>
      <trkpt lat="43.2607150" lon="-2.5873750">
        <ele>245.2</ele>
        <time>2018-09-03T08:56:57Z</time>
      </trkpt>
      <trkpt lat="43.2606780" lon="-2.5874770">
        <ele>244.2</ele>
        <time>2018-09-03T08:56:58Z</time>
      </trkpt>
      <trkpt lat="43.2605680" lon="-2.5876470">
        <ele>242.6</ele>
        <time>2018-09-03T08:57:00Z</time>
      </trkpt>
      <trkpt lat="43.2604530" lon="-2.5878230">
        <ele>241.4</ele>
        <time>2018-09-03T08:57:02Z</time>
      </trkpt>
      <trkpt lat="43.2604000" lon="-2.5880240">
        <ele>240.4</ele>
        <time>2018-09-03T08:57:04Z</time>
      </trkpt>
      <trkpt lat="43.2604960" lon="-2.5883490">
        <ele>239.4</ele>
        <time>2018-09-03T08:57:07Z</time>
      </trkpt>
      <trkpt lat="43.2605350" lon="-2.5884620">
        <ele>239.2</ele>
        <time>2018-09-03T08:57:08Z</time>
      </trkpt>
      <trkpt lat="43.2605990" lon="-2.5887070">
        <ele>238.0</ele>
        <time>2018-09-03T08:57:10Z</time>
      </trkpt>
      <trkpt lat="43.2606650" lon="-2.5889560">
        <ele>236.6</ele>
        <time>2018-09-03T08:57:12Z</time>
      </trkpt>
      <trkpt lat="43.2608110" lon="-2.5891760">
        <ele>234.8</ele>
        <time>2018-09-03T08:57:14Z</time>
      </trkpt>
      <trkpt lat="43.2611220" lon="-2.5893770">
        <ele>234.0</ele>
        <time>2018-09-03T08:57:17Z</time>
      </trkpt>
      <trkpt lat="43.2612440" lon="-2.5893790">
        <ele>233.2</ele>
        <time>2018-09-03T08:57:18Z</time>
      </trkpt>
      <trkpt lat="43.2613640" lon="-2.5893500">
        <ele>232.0</ele>
        <time>2018-09-03T08:57:19Z</time>
      </trkpt>
      <trkpt lat="43.2614890" lon="-2.5893120">
        <ele>231.0</ele>
        <time>2018-09-03T08:57:20Z</time>
      </trkpt>
      <trkpt lat="43.2616180" lon="-2.5892890">
        <ele>229.6</ele>
        <time>2018-09-03T08:57:21Z</time>
      </trkpt>
      <trkpt lat="43.2617400" lon="-2.5893230">
        <ele>228.2</ele>
        <time>2018-09-03T08:57:22Z</time>
      </trkpt>
      <trkpt lat="43.2618610" lon="-2.5893780">
        <ele>226.8</ele>
        <time>2018-09-03T08:57:23Z</time>
      </trkpt>
      <trkpt lat="43.2619720" lon="-2.5894580">
        <ele>225.2</ele>
        <time>2018-09-03T08:57:24Z</time>
      </trkpt>
      <trkpt lat="43.2620800" lon="-2.5895520">
        <ele>223.6</ele>
        <time>2018-09-03T08:57:25Z</time>
      </trkpt>
      <trkpt lat="43.2621880" lon="-2.5896500">
        <ele>222.2</ele>
        <time>2018-09-03T08:57:26Z</time>
      </trkpt>
      <trkpt lat="43.2622940" lon="-2.5897520">
        <ele>219.4</ele>
        <time>2018-09-03T08:57:27Z</time>
      </trkpt>
      <trkpt lat="43.2623970" lon="-2.5898640">
        <ele>218.2</ele>
        <time>2018-09-03T08:57:28Z</time>
      </trkpt>
      <trkpt lat="43.2624960" lon="-2.5899860">
        <ele>216.8</ele>
        <time>2018-09-03T08:57:29Z</time>
      </trkpt>
      <trkpt lat="43.2625860" lon="-2.5901200">
        <ele>215.8</ele>
        <time>2018-09-03T08:57:30Z</time>
      </trkpt>
      <trkpt lat="43.2627470" lon="-2.5904090">
        <ele>214.2</ele>
        <time>2018-09-03T08:57:32Z</time>
      </trkpt>
      <trkpt lat="43.2628920" lon="-2.5906830">
        <ele>212.4</ele>
        <time>2018-09-03T08:57:34Z</time>
      </trkpt>
      <trkpt lat="43.2629500" lon="-2.5908210">
        <ele>211.6</ele>
        <time>2018-09-03T08:57:35Z</time>
      </trkpt>
      <trkpt lat="43.2629980" lon="-2.5909660">
        <ele>211.0</ele>
        <time>2018-09-03T08:57:36Z</time>
      </trkpt>
      <trkpt lat="43.2630650" lon="-2.5912640">
        <ele>209.6</ele>
        <time>2018-09-03T08:57:38Z</time>
      </trkpt>
      <trkpt lat="43.2631690" lon="-2.5915410">
        <ele>207.8</ele>
        <time>2018-09-03T08:57:40Z</time>
      </trkpt>
      <trkpt lat="43.2633260" lon="-2.5917790">
        <ele>206.6</ele>
        <time>2018-09-03T08:57:42Z</time>
      </trkpt>
      <trkpt lat="43.2634100" lon="-2.5918930">
        <ele>206.2</ele>
        <time>2018-09-03T08:57:43Z</time>
      </trkpt>
      <trkpt lat="43.2635920" lon="-2.5921050">
        <ele>205.6</ele>
        <time>2018-09-03T08:57:45Z</time>
      </trkpt>
      <trkpt lat="43.2637730" lon="-2.5922760">
        <ele>204.6</ele>
        <time>2018-09-03T08:57:47Z</time>
      </trkpt>
      <trkpt lat="43.2639610" lon="-2.5924280">
        <ele>203.2</ele>
        <time>2018-09-03T08:57:49Z</time>
      </trkpt>
      <trkpt lat="43.2640480" lon="-2.5925160">
        <ele>202.0</ele>
        <time>2018-09-03T08:57:50Z</time>
      </trkpt>
      <trkpt lat="43.2641290" lon="-2.5926180">
        <ele>200.4</ele>
        <time>2018-09-03T08:57:51Z</time>
      </trkpt>
      <trkpt lat="43.2642000" lon="-2.5927210">
        <ele>199.0</ele>
        <time>2018-09-03T08:57:52Z</time>
      </trkpt>
      <trkpt lat="43.2642690" lon="-2.5928050">
        <ele>198.0</ele>
        <time>2018-09-03T08:57:53Z</time>
      </trkpt>
      <trkpt lat="43.2643340" lon="-2.5928700">
        <ele>197.6</ele>
        <time>2018-09-03T08:57:54Z</time>
      </trkpt>
      <trkpt lat="43.2644720" lon="-2.5929350">
        <ele>196.4</ele>
        <time>2018-09-03T08:57:56Z</time>
      </trkpt>
      <trkpt lat="43.2646680" lon="-2.5928850">
        <ele>195.4</ele>
        <time>2018-09-03T08:57:59Z</time>
      </trkpt>
      <trkpt lat="43.2647710" lon="-2.5927590">
        <ele>195.0</ele>
        <time>2018-09-03T08:58:01Z</time>
      </trkpt>
      <trkpt lat="43.2648190" lon="-2.5926810">
        <ele>194.8</ele>
        <time>2018-09-03T08:58:02Z</time>
      </trkpt>
      <trkpt lat="43.2650690" lon="-2.5922230">
        <ele>194.2</ele>
        <time>2018-09-03T08:58:07Z</time>
      </trkpt>
      <trkpt lat="43.2652180" lon="-2.5919760">
        <ele>193.6</ele>
        <time>2018-09-03T08:58:10Z</time>
      </trkpt>
      <trkpt lat="43.2652680" lon="-2.5919170">
        <ele>193.2</ele>
        <time>2018-09-03T08:58:11Z</time>
      </trkpt>
      <trkpt lat="43.2653830" lon="-2.5918520">
        <ele>192.0</ele>
        <time>2018-09-03T08:58:13Z</time>
      </trkpt>
      <trkpt lat="43.2655830" lon="-2.5919530">
        <ele>190.8</ele>
        <time>2018-09-03T08:58:16Z</time>
      </trkpt>
      <trkpt lat="43.2656490" lon="-2.5920070">
        <ele>190.6</ele>
        <time>2018-09-03T08:58:17Z</time>
      </trkpt>
      <trkpt lat="43.2657780" lon="-2.5921380">
        <ele>190.2</ele>
        <time>2018-09-03T08:58:19Z</time>
      </trkpt>
      <trkpt lat="43.2658950" lon="-2.5922940">
        <ele>189.6</ele>
        <time>2018-09-03T08:58:21Z</time>
      </trkpt>
      <trkpt lat="43.2660100" lon="-2.5924530">
        <ele>188.8</ele>
        <time>2018-09-03T08:58:23Z</time>
      </trkpt>
      <trkpt lat="43.2660650" lon="-2.5925310">
        <ele>188.2</ele>
        <time>2018-09-03T08:58:24Z</time>
      </trkpt>
      <trkpt lat="43.2661140" lon="-2.5926140">
        <ele>187.6</ele>
        <time>2018-09-03T08:58:25Z</time>
      </trkpt>
      <trkpt lat="43.2661620" lon="-2.5926920">
        <ele>187.0</ele>
        <time>2018-09-03T08:58:26Z</time>
      </trkpt>
      <trkpt lat="43.2662070" lon="-2.5927720">
        <ele>186.6</ele>
        <time>2018-09-03T08:58:27Z</time>
      </trkpt>
      <trkpt lat="43.2663570" lon="-2.5929710">
        <ele>185.4</ele>
        <time>2018-09-03T08:58:30Z</time>
      </trkpt>
      <trkpt lat="43.2665680" lon="-2.5930990">
        <ele>185.4</ele>
        <time>2018-09-03T08:58:34Z</time>
      </trkpt>
      <trkpt lat="43.2666590" lon="-2.5930980">
        <ele>185.4</ele>
        <time>2018-09-03T08:58:36Z</time>
      </trkpt>
      <trkpt lat="43.2667520" lon="-2.5932110">
        <ele>186.2</ele>
        <time>2018-09-03T08:58:40Z</time>
      </trkpt>
      <trkpt lat="43.2667290" lon="-2.5932320">
        <ele>186.6</ele>
        <time>2018-09-03T08:58:41Z</time>
      </trkpt>
      <trkpt lat="43.2666310" lon="-2.5931710">
        <ele>187.4</ele>
        <time>2018-09-03T08:58:44Z</time>
      </trkpt>
      <trkpt lat="43.2665160" lon="-2.5930880">
        <ele>187.6</ele>
        <time>2018-09-03T08:58:47Z</time>
      </trkpt>
      <trkpt lat="43.2663400" lon="-2.5929950">
        <ele>187.6</ele>
        <time>2018-09-03T08:58:51Z</time>
      </trkpt>
      <trkpt lat="43.2663460" lon="-2.5931630">
        <ele>187.6</ele>
        <time>2018-09-03T08:58:58Z</time>
      </trkpt>
      <trkpt lat="43.2663770" lon="-2.5931830">
        <ele>187.6</ele>
        <time>2018-09-03T08:59:00Z</time>
      </trkpt>
      <trkpt lat="43.2664010" lon="-2.5932040">
        <ele>187.6</ele>
        <time>2018-09-03T08:59:02Z</time>
      </trkpt>
      <trkpt lat="43.2664210" lon="-2.5932260">
        <ele>188.0</ele>
        <time>2018-09-03T08:59:04Z</time>
      </trkpt>
      <trkpt lat="43.2664370" lon="-2.5932500">
        <ele>188.8</ele>
        <time>2018-09-03T08:59:06Z</time>
      </trkpt>
      <trkpt lat="43.2664610" lon="-2.5932730">
        <ele>189.6</ele>
        <time>2018-09-03T08:59:09Z</time>
      </trkpt>
      <trkpt lat="43.2664700" lon="-2.5932810">
        <ele>189.8</ele>
        <time>2018-09-03T08:59:10Z</time>
      </trkpt>
      <trkpt lat="43.2664950" lon="-2.5933190">
        <ele>190.6</ele>
        <time>2018-09-03T08:59:13Z</time>
      </trkpt>
      <trkpt lat="43.2665160" lon="-2.5933380">
        <ele>191.0</ele>
        <time>2018-09-03T08:59:15Z</time>
      </trkpt>
      <trkpt lat="43.2665540" lon="-2.5933820">
        <ele>191.8</ele>
        <time>2018-09-03T08:59:19Z</time>
      </trkpt>
      <trkpt lat="43.2665710" lon="-2.5934060">
        <ele>192.2</ele>
        <time>2018-09-03T08:59:21Z</time>
      </trkpt>
      <trkpt lat="43.2666110" lon="-2.5934890">
        <ele>193.0</ele>
        <time>2018-09-03T08:59:27Z</time>
      </trkpt>
      <trkpt lat="43.2666180" lon="-2.5935010">
        <ele>193.2</ele>
        <time>2018-09-03T08:59:28Z</time>
      </trkpt>
      <trkpt lat="43.2666440" lon="-2.5935650">
        <ele>194.2</ele>
        <time>2018-09-03T08:59:33Z</time>
      </trkpt>
      <trkpt lat="43.2666710" lon="-2.5936340">
        <ele>195.4</ele>
        <time>2018-09-03T08:59:39Z</time>
      </trkpt>
      <trkpt lat="43.2667010" lon="-2.5937340">
        <ele>196.2</ele>
        <time>2018-09-03T08:59:46Z</time>
      </trkpt>
      <trkpt lat="43.2667060" lon="-2.5937480">
        <ele>196.4</ele>
        <time>2018-09-03T08:59:47Z</time>
      </trkpt>
      <trkpt lat="43.2667290" lon="-2.5938400">
        <ele>197.6</ele>
        <time>2018-09-03T08:59:53Z</time>
      </trkpt>
      <trkpt lat="43.2667360" lon="-2.5939330">
        <ele>198.6</ele>
        <time>2018-09-03T08:59:59Z</time>
      </trkpt>
      <trkpt lat="43.2667620" lon="-2.5940100">
        <ele>199.8</ele>
        <time>2018-09-03T09:00:05Z</time>
      </trkpt>
      <trkpt lat="43.2667820" lon="-2.5940970">
        <ele>200.8</ele>
        <time>2018-09-03T09:00:12Z</time>
      </trkpt>
      <trkpt lat="43.2667850" lon="-2.5942070">
        <ele>202.0</ele>
        <time>2018-09-03T09:00:19Z</time>
      </trkpt>
      <trkpt lat="43.2667750" lon="-2.5942930">
        <ele>203.4</ele>
        <time>2018-09-03T09:00:26Z</time>
      </trkpt>
      <trkpt lat="43.2667870" lon="-2.5943770">
        <ele>204.6</ele>
        <time>2018-09-03T09:00:33Z</time>
      </trkpt>
      <trkpt lat="43.2668490" lon="-2.5944820">
        <ele>205.8</ele>
        <time>2018-09-03T09:00:40Z</time>
      </trkpt>
      <trkpt lat="43.2668780" lon="-2.5945390">
        <ele>206.8</ele>
        <time>2018-09-03T09:00:44Z</time>
      </trkpt>
      <trkpt lat="43.2668710" lon="-2.5945750">
        <ele>207.0</ele>
        <time>2018-09-03T09:00:46Z</time>
      </trkpt>
      <trkpt lat="43.2668830" lon="-2.5946410">
        <ele>207.8</ele>
        <time>2018-09-03T09:00:51Z</time>
      </trkpt>
      <trkpt lat="43.2669030" lon="-2.5946930">
        <ele>208.6</ele>
        <time>2018-09-03T09:00:55Z</time>
      </trkpt>
      <trkpt lat="43.2669060" lon="-2.5947320">
        <ele>209.0</ele>
        <time>2018-09-03T09:00:57Z</time>
      </trkpt>
      <trkpt lat="43.2669370" lon="-2.5948120">
        <ele>210.0</ele>
        <time>2018-09-03T09:01:02Z</time>
      </trkpt>
      <trkpt lat="43.2669430" lon="-2.5948460">
        <ele>210.2</ele>
        <time>2018-09-03T09:01:04Z</time>
      </trkpt>
      <trkpt lat="43.2669540" lon="-2.5949160">
        <ele>211.0</ele>
        <time>2018-09-03T09:01:08Z</time>
      </trkpt>
      <trkpt lat="43.2669650" lon="-2.5950070">
        <ele>212.2</ele>
        <time>2018-09-03T09:01:14Z</time>
      </trkpt>
      <trkpt lat="43.2669760" lon="-2.5951060">
        <ele>213.2</ele>
        <time>2018-09-03T09:01:20Z</time>
      </trkpt>
      <trkpt lat="43.2669830" lon="-2.5952030">
        <ele>214.2</ele>
        <time>2018-09-03T09:01:26Z</time>
      </trkpt>
      <trkpt lat="43.2669810" lon="-2.5952200">
        <ele>214.2</ele>
        <time>2018-09-03T09:01:27Z</time>
      </trkpt>
      <trkpt lat="43.2669780" lon="-2.5952890">
        <ele>214.8</ele>
        <time>2018-09-03T09:01:31Z</time>
      </trkpt>
      <trkpt lat="43.2669830" lon="-2.5953430">
        <ele>215.4</ele>
        <time>2018-09-03T09:01:34Z</time>
      </trkpt>
      <trkpt lat="43.2670200" lon="-2.5954950">
        <ele>216.4</ele>
        <time>2018-09-03T09:01:43Z</time>
      </trkpt>
      <trkpt lat="43.2670240" lon="-2.5955130">
        <ele>216.4</ele>
        <time>2018-09-03T09:01:44Z</time>
      </trkpt>
      <trkpt lat="43.2670460" lon="-2.5956200">
        <ele>217.0</ele>
        <time>2018-09-03T09:01:50Z</time>
      </trkpt>
      <trkpt lat="43.2670490" lon="-2.5956740">
        <ele>217.6</ele>
        <time>2018-09-03T09:01:53Z</time>
      </trkpt>
      <trkpt lat="43.2670880" lon="-2.5957780">
        <ele>218.8</ele>
        <time>2018-09-03T09:02:00Z</time>
      </trkpt>
      <trkpt lat="43.2671100" lon="-2.5958810">
        <ele>219.8</ele>
        <time>2018-09-03T09:02:07Z</time>
      </trkpt>
      <trkpt lat="43.2671220" lon="-2.5959460">
        <ele>220.6</ele>
        <time>2018-09-03T09:02:12Z</time>
      </trkpt>
      <trkpt lat="43.2671280" lon="-2.5959580">
        <ele>220.8</ele>
        <time>2018-09-03T09:02:13Z</time>
      </trkpt>
      <trkpt lat="43.2671530" lon="-2.5960280">
        <ele>222.2</ele>
        <time>2018-09-03T09:02:18Z</time>
      </trkpt>
      <trkpt lat="43.2671730" lon="-2.5960970">
        <ele>223.2</ele>
        <time>2018-09-03T09:02:23Z</time>
      </trkpt>
      <trkpt lat="43.2671750" lon="-2.5961410">
        <ele>224.0</ele>
        <time>2018-09-03T09:02:27Z</time>
      </trkpt>
      <trkpt lat="43.2671780" lon="-2.5961540">
        <ele>224.2</ele>
        <time>2018-09-03T09:02:28Z</time>
      </trkpt>
      <trkpt lat="43.2672080" lon="-2.5962570">
        <ele>225.4</ele>
        <time>2018-09-03T09:02:35Z</time>
      </trkpt>
      <trkpt lat="43.2672360" lon="-2.5963290">
        <ele>226.6</ele>
        <time>2018-09-03T09:02:40Z</time>
      </trkpt>
      <trkpt lat="43.2672480" lon="-2.5963880">
        <ele>227.4</ele>
        <time>2018-09-03T09:02:44Z</time>
      </trkpt>
      <trkpt lat="43.2672570" lon="-2.5964230">
        <ele>227.8</ele>
        <time>2018-09-03T09:02:46Z</time>
      </trkpt>
      <trkpt lat="43.2672750" lon="-2.5965130">
        <ele>229.0</ele>
        <time>2018-09-03T09:02:51Z</time>
      </trkpt>
      <trkpt lat="43.2672900" lon="-2.5966040">
        <ele>230.0</ele>
        <time>2018-09-03T09:02:56Z</time>
      </trkpt>
      <trkpt lat="43.2673150" lon="-2.5967310">
        <ele>231.2</ele>
        <time>2018-09-03T09:03:03Z</time>
      </trkpt>
      <trkpt lat="43.2673270" lon="-2.5968440">
        <ele>232.0</ele>
        <time>2018-09-03T09:03:10Z</time>
      </trkpt>
      <trkpt lat="43.2673270" lon="-2.5969100">
        <ele>233.2</ele>
        <time>2018-09-03T09:03:14Z</time>
      </trkpt>
      <trkpt lat="43.2673180" lon="-2.5969940">
        <ele>234.2</ele>
        <time>2018-09-03T09:03:19Z</time>
      </trkpt>
      <trkpt lat="43.2672880" lon="-2.5970860">
        <ele>235.2</ele>
        <time>2018-09-03T09:03:25Z</time>
      </trkpt>
      <trkpt lat="43.2672300" lon="-2.5971930">
        <ele>236.4</ele>
        <time>2018-09-03T09:03:32Z</time>
      </trkpt>
      <trkpt lat="43.2671820" lon="-2.5972590">
        <ele>237.4</ele>
        <time>2018-09-03T09:03:37Z</time>
      </trkpt>
      <trkpt lat="43.2671470" lon="-2.5973250">
        <ele>238.4</ele>
        <time>2018-09-03T09:03:42Z</time>
      </trkpt>
      <trkpt lat="43.2671150" lon="-2.5973730">
        <ele>239.4</ele>
        <time>2018-09-03T09:03:46Z</time>
      </trkpt>
      <trkpt lat="43.2670860" lon="-2.5973940">
        <ele>240.2</ele>
        <time>2018-09-03T09:03:49Z</time>
      </trkpt>
      <trkpt lat="43.2670680" lon="-2.5974240">
        <ele>240.6</ele>
        <time>2018-09-03T09:03:51Z</time>
      </trkpt>
      <trkpt lat="43.2670390" lon="-2.5975040">
        <ele>241.8</ele>
        <time>2018-09-03T09:03:56Z</time>
      </trkpt>
      <trkpt lat="43.2670170" lon="-2.5975700">
        <ele>243.0</ele>
        <time>2018-09-03T09:04:00Z</time>
      </trkpt>
      <trkpt lat="43.2669990" lon="-2.5976410">
        <ele>244.4</ele>
        <time>2018-09-03T09:04:04Z</time>
      </trkpt>
      <trkpt lat="43.2669850" lon="-2.5977230">
        <ele>245.4</ele>
        <time>2018-09-03T09:04:09Z</time>
      </trkpt>
      <trkpt lat="43.2669870" lon="-2.5977970">
        <ele>246.6</ele>
        <time>2018-09-03T09:04:13Z</time>
      </trkpt>
      <trkpt lat="43.2669980" lon="-2.5978950">
        <ele>247.6</ele>
        <time>2018-09-03T09:04:18Z</time>
      </trkpt>
      <trkpt lat="43.2669960" lon="-2.5979690">
        <ele>248.8</ele>
        <time>2018-09-03T09:04:22Z</time>
      </trkpt>
      <trkpt lat="43.2670160" lon="-2.5981060">
        <ele>249.8</ele>
        <time>2018-09-03T09:04:28Z</time>
      </trkpt>
      <trkpt lat="43.2669900" lon="-2.5982230">
        <ele>251.0</ele>
        <time>2018-09-03T09:04:34Z</time>
      </trkpt>
      <trkpt lat="43.2669800" lon="-2.5982870">
        <ele>251.8</ele>
        <time>2018-09-03T09:04:37Z</time>
      </trkpt>
      <trkpt lat="43.2669750" lon="-2.5983550">
        <ele>252.0</ele>
        <time>2018-09-03T09:04:40Z</time>
      </trkpt>
      <trkpt lat="43.2669790" lon="-2.5984900">
        <ele>253.2</ele>
        <time>2018-09-03T09:04:46Z</time>
      </trkpt>
      <trkpt lat="43.2669720" lon="-2.5985810">
        <ele>253.6</ele>
        <time>2018-09-03T09:04:50Z</time>
      </trkpt>
      <trkpt lat="43.2669680" lon="-2.5986960">
        <ele>254.0</ele>
        <time>2018-09-03T09:04:55Z</time>
      </trkpt>
      <trkpt lat="43.2669660" lon="-2.5987420">
        <ele>254.2</ele>
        <time>2018-09-03T09:04:57Z</time>
      </trkpt>
      <trkpt lat="43.2669650" lon="-2.5988070">
        <ele>254.4</ele>
        <time>2018-09-03T09:05:00Z</time>
      </trkpt>
      <trkpt lat="43.2669570" lon="-2.5988860">
        <ele>254.4</ele>
        <time>2018-09-03T09:05:03Z</time>
      </trkpt>
      <trkpt lat="43.2669300" lon="-2.5990980">
        <ele>254.4</ele>
        <time>2018-09-03T09:05:11Z</time>
      </trkpt>
      <trkpt lat="43.2669290" lon="-2.5991520">
        <ele>254.6</ele>
        <time>2018-09-03T09:05:13Z</time>
      </trkpt>
      <trkpt lat="43.2669270" lon="-2.5991800">
        <ele>254.6</ele>
        <time>2018-09-03T09:05:14Z</time>
      </trkpt>
      <trkpt lat="43.2669230" lon="-2.5992600">
        <ele>254.6</ele>
        <time>2018-09-03T09:05:17Z</time>
      </trkpt>
      <trkpt lat="43.2669260" lon="-2.5993890">
        <ele>254.6</ele>
        <time>2018-09-03T09:05:23Z</time>
      </trkpt>
      <trkpt lat="43.2669300" lon="-2.5994720">
        <ele>254.6</ele>
        <time>2018-09-03T09:05:26Z</time>
      </trkpt>
      <trkpt lat="43.2669270" lon="-2.5995270">
        <ele>254.8</ele>
        <time>2018-09-03T09:05:28Z</time>
      </trkpt>
      <trkpt lat="43.2669360" lon="-2.5996490">
        <ele>255.2</ele>
        <time>2018-09-03T09:05:33Z</time>
      </trkpt>
      <trkpt lat="43.2669340" lon="-2.5997220">
        <ele>255.4</ele>
        <time>2018-09-03T09:05:36Z</time>
      </trkpt>
      <trkpt lat="43.2669310" lon="-2.5998190">
        <ele>255.6</ele>
        <time>2018-09-03T09:05:40Z</time>
      </trkpt>
      <trkpt lat="43.2669410" lon="-2.5998790">
        <ele>256.0</ele>
        <time>2018-09-03T09:05:43Z</time>
      </trkpt>
      <trkpt lat="43.2669460" lon="-2.5999270">
        <ele>256.2</ele>
        <time>2018-09-03T09:05:45Z</time>
      </trkpt>
      <trkpt lat="43.2669570" lon="-2.5999950">
        <ele>256.4</ele>
        <time>2018-09-03T09:05:48Z</time>
      </trkpt>
      <trkpt lat="43.2669830" lon="-2.6003600">
        <ele>257.0</ele>
        <time>2018-09-03T09:05:59Z</time>
      </trkpt>
      <trkpt lat="43.2669830" lon="-2.6004300">
        <ele>257.2</ele>
        <time>2018-09-03T09:06:01Z</time>
      </trkpt>
      <trkpt lat="43.2668730" lon="-2.6011800">
        <ele>257.6</ele>
        <time>2018-09-03T09:06:21Z</time>
      </trkpt>
      <trkpt lat="43.2668420" lon="-2.6013190">
        <ele>257.8</ele>
        <time>2018-09-03T09:06:25Z</time>
      </trkpt>
      <trkpt lat="43.2667920" lon="-2.6014950">
        <ele>258.0</ele>
        <time>2018-09-03T09:06:30Z</time>
      </trkpt>
      <trkpt lat="43.2667030" lon="-2.6017090">
        <ele>258.0</ele>
        <time>2018-09-03T09:06:35Z</time>
      </trkpt>
      <trkpt lat="43.2666830" lon="-2.6017570">
        <ele>258.0</ele>
        <time>2018-09-03T09:06:36Z</time>
      </trkpt>
      <trkpt lat="43.2666390" lon="-2.6019200">
        <ele>258.0</ele>
        <time>2018-09-03T09:06:39Z</time>
      </trkpt>
      <trkpt lat="43.2667170" lon="-2.6021510">
        <ele>257.6</ele>
        <time>2018-09-03T09:06:45Z</time>
      </trkpt>
      <trkpt lat="43.2668260" lon="-2.6023000">
        <ele>257.6</ele>
        <time>2018-09-03T09:06:51Z</time>
      </trkpt>
      <trkpt lat="43.2668420" lon="-2.6023250">
        <ele>258.0</ele>
        <time>2018-09-03T09:06:52Z</time>
      </trkpt>
      <trkpt lat="43.2668590" lon="-2.6023490">
        <ele>258.2</ele>
        <time>2018-09-03T09:06:53Z</time>
      </trkpt>
      <trkpt lat="43.2668800" lon="-2.6023690">
        <ele>258.6</ele>
        <time>2018-09-03T09:06:54Z</time>
      </trkpt>
      <trkpt lat="43.2669020" lon="-2.6023850">
        <ele>259.0</ele>
        <time>2018-09-03T09:06:55Z</time>
      </trkpt>
      <trkpt lat="43.2669220" lon="-2.6024040">
        <ele>259.4</ele>
        <time>2018-09-03T09:06:56Z</time>
      </trkpt>
      <trkpt lat="43.2669600" lon="-2.6024710">
        <ele>260.2</ele>
        <time>2018-09-03T09:06:58Z</time>
      </trkpt>
      <trkpt lat="43.2669930" lon="-2.6025820">
        <ele>261.6</ele>
        <time>2018-09-03T09:07:01Z</time>
      </trkpt>
      <trkpt lat="43.2670360" lon="-2.6027170">
        <ele>262.8</ele>
        <time>2018-09-03T09:07:05Z</time>
      </trkpt>
      <trkpt lat="43.2670530" lon="-2.6028640">
        <ele>263.4</ele>
        <time>2018-09-03T09:07:09Z</time>
      </trkpt>
      <trkpt lat="43.2670560" lon="-2.6029320">
        <ele>263.8</ele>
        <time>2018-09-03T09:07:11Z</time>
      </trkpt>
      <trkpt lat="43.2670650" lon="-2.6030270">
        <ele>264.6</ele>
        <time>2018-09-03T09:07:14Z</time>
      </trkpt>
      <trkpt lat="43.2670660" lon="-2.6030660">
        <ele>264.8</ele>
        <time>2018-09-03T09:07:15Z</time>
      </trkpt>
      <trkpt lat="43.2670770" lon="-2.6032130">
        <ele>266.0</ele>
        <time>2018-09-03T09:07:19Z</time>
      </trkpt>
      <trkpt lat="43.2671190" lon="-2.6034950">
        <ele>266.6</ele>
        <time>2018-09-03T09:07:26Z</time>
      </trkpt>
      <trkpt lat="43.2671510" lon="-2.6036280">
        <ele>266.6</ele>
        <time>2018-09-03T09:07:29Z</time>
      </trkpt>
      <trkpt lat="43.2671810" lon="-2.6037350">
        <ele>266.6</ele>
        <time>2018-09-03T09:07:31Z</time>
      </trkpt>
      <trkpt lat="43.2672000" lon="-2.6038590">
        <ele>266.6</ele>
        <time>2018-09-03T09:07:33Z</time>
      </trkpt>
      <trkpt lat="43.2672050" lon="-2.6040580">
        <ele>266.4</ele>
        <time>2018-09-03T09:07:36Z</time>
      </trkpt>
      <trkpt lat="43.2671990" lon="-2.6042590">
        <ele>265.8</ele>
        <time>2018-09-03T09:07:39Z</time>
      </trkpt>
      <trkpt lat="43.2671660" lon="-2.6045270">
        <ele>265.0</ele>
        <time>2018-09-03T09:07:43Z</time>
      </trkpt>
      <trkpt lat="43.2671630" lon="-2.6045890">
        <ele>265.0</ele>
        <time>2018-09-03T09:07:44Z</time>
      </trkpt>
      <trkpt lat="43.2672550" lon="-2.6049640">
        <ele>266.0</ele>
        <time>2018-09-03T09:07:55Z</time>
      </trkpt>
      <trkpt lat="43.2672900" lon="-2.6050280">
        <ele>267.4</ele>
        <time>2018-09-03T09:07:58Z</time>
      </trkpt>
      <trkpt lat="43.2673380" lon="-2.6050840">
        <ele>268.4</ele>
        <time>2018-09-03T09:08:01Z</time>
      </trkpt>
      <trkpt lat="43.2674140" lon="-2.6051430">
        <ele>269.4</ele>
        <time>2018-09-03T09:08:05Z</time>
      </trkpt>
      <trkpt lat="43.2675160" lon="-2.6052010">
        <ele>270.6</ele>
        <time>2018-09-03T09:08:10Z</time>
      </trkpt>
      <trkpt lat="43.2675600" lon="-2.6052550">
        <ele>271.0</ele>
        <time>2018-09-03T09:08:13Z</time>
      </trkpt>
      <trkpt lat="43.2675690" lon="-2.6052780">
        <ele>271.2</ele>
        <time>2018-09-03T09:08:14Z</time>
      </trkpt>
      <trkpt lat="43.2675430" lon="-2.6053390">
        <ele>271.6</ele>
        <time>2018-09-03T09:08:17Z</time>
      </trkpt>
      <trkpt lat="43.2674670" lon="-2.6054270">
        <ele>271.8</ele>
        <time>2018-09-03T09:08:22Z</time>
      </trkpt>
      <trkpt lat="43.2674490" lon="-2.6054620">
        <ele>271.8</ele>
        <time>2018-09-03T09:08:24Z</time>
      </trkpt>
      <trkpt lat="43.2674390" lon="-2.6054970">
        <ele>271.8</ele>
        <time>2018-09-03T09:08:27Z</time>
      </trkpt>
      <trkpt lat="43.2674150" lon="-2.6055240">
        <ele>272.0</ele>
        <time>2018-09-03T09:08:32Z</time>
      </trkpt>
      <trkpt lat="43.2673770" lon="-2.6057270">
        <ele>272.0</ele>
        <time>2018-09-03T09:08:38Z</time>
      </trkpt>
      <trkpt lat="43.2673060" lon="-2.6061480">
        <ele>271.4</ele>
        <time>2018-09-03T09:08:43Z</time>
      </trkpt>
      <trkpt lat="43.2672530" lon="-2.6064010">
        <ele>270.8</ele>
        <time>2018-09-03T09:08:45Z</time>
      </trkpt>
      <trkpt lat="43.2672030" lon="-2.6065340">
        <ele>270.4</ele>
        <time>2018-09-03T09:08:46Z</time>
      </trkpt>
      <trkpt lat="43.2671390" lon="-2.6066650">
        <ele>269.8</ele>
        <time>2018-09-03T09:08:47Z</time>
      </trkpt>
      <trkpt lat="43.2670790" lon="-2.6067910">
        <ele>269.0</ele>
        <time>2018-09-03T09:08:48Z</time>
      </trkpt>
      <trkpt lat="43.2670350" lon="-2.6069220">
        <ele>268.0</ele>
        <time>2018-09-03T09:08:49Z</time>
      </trkpt>
      <trkpt lat="43.2670150" lon="-2.6070590">
        <ele>266.8</ele>
        <time>2018-09-03T09:08:50Z</time>
      </trkpt>
      <trkpt lat="43.2670100" lon="-2.6071930">
        <ele>265.4</ele>
        <time>2018-09-03T09:08:51Z</time>
      </trkpt>
      <trkpt lat="43.2670240" lon="-2.6073030">
        <ele>263.8</ele>
        <time>2018-09-03T09:08:52Z</time>
      </trkpt>
      <trkpt lat="43.2670410" lon="-2.6073950">
        <ele>262.0</ele>
        <time>2018-09-03T09:08:53Z</time>
      </trkpt>
      <trkpt lat="43.2670570" lon="-2.6074730">
        <ele>260.0</ele>
        <time>2018-09-03T09:08:54Z</time>
      </trkpt>
      <trkpt lat="43.2670840" lon="-2.6076080">
        <ele>258.0</ele>
        <time>2018-09-03T09:08:56Z</time>
      </trkpt>
      <trkpt lat="43.2671000" lon="-2.6077520">
        <ele>257.2</ele>
        <time>2018-09-03T09:08:58Z</time>
      </trkpt>
      <trkpt lat="43.2671040" lon="-2.6078330">
        <ele>256.8</ele>
        <time>2018-09-03T09:08:59Z</time>
      </trkpt>
      <trkpt lat="43.2671010" lon="-2.6081280">
        <ele>255.6</ele>
        <time>2018-09-03T09:09:02Z</time>
      </trkpt>
      <trkpt lat="43.2670940" lon="-2.6083660">
        <ele>254.8</ele>
        <time>2018-09-03T09:09:04Z</time>
      </trkpt>
      <trkpt lat="43.2671030" lon="-2.6084870">
        <ele>254.6</ele>
        <time>2018-09-03T09:09:05Z</time>
      </trkpt>
      <trkpt lat="43.2672690" lon="-2.6087910">
        <ele>254.6</ele>
        <time>2018-09-03T09:09:09Z</time>
      </trkpt>
      <trkpt lat="43.2673860" lon="-2.6090030">
        <ele>254.6</ele>
        <time>2018-09-03T09:09:13Z</time>
      </trkpt>
      <trkpt lat="43.2675270" lon="-2.6091400">
        <ele>254.4</ele>
        <time>2018-09-03T09:09:16Z</time>
      </trkpt>
      <trkpt lat="43.2675830" lon="-2.6091800">
        <ele>254.4</ele>
        <time>2018-09-03T09:09:17Z</time>
      </trkpt>
      <trkpt lat="43.2676320" lon="-2.6092170">
        <ele>254.4</ele>
        <time>2018-09-03T09:09:18Z</time>
      </trkpt>
      <trkpt lat="43.2676770" lon="-2.6092490">
        <ele>254.6</ele>
        <time>2018-09-03T09:09:19Z</time>
      </trkpt>
      <trkpt lat="43.2677200" lon="-2.6092740">
        <ele>254.6</ele>
        <time>2018-09-03T09:09:20Z</time>
      </trkpt>
      <trkpt lat="43.2678870" lon="-2.6093320">
        <ele>255.0</ele>
        <time>2018-09-03T09:09:24Z</time>
      </trkpt>
      <trkpt lat="43.2680980" lon="-2.6092920">
        <ele>255.2</ele>
        <time>2018-09-03T09:09:28Z</time>
      </trkpt>
      <trkpt lat="43.2684250" lon="-2.6091290">
        <ele>255.2</ele>
        <time>2018-09-03T09:09:34Z</time>
      </trkpt>
      <trkpt lat="43.2685110" lon="-2.6090380">
        <ele>254.8</ele>
        <time>2018-09-03T09:09:36Z</time>
      </trkpt>
      <trkpt lat="43.2686010" lon="-2.6089390">
        <ele>254.6</ele>
        <time>2018-09-03T09:09:38Z</time>
      </trkpt>
      <trkpt lat="43.2690090" lon="-2.6084720">
        <ele>253.8</ele>
        <time>2018-09-03T09:09:47Z</time>
      </trkpt>
      <trkpt lat="43.2690590" lon="-2.6084350">
        <ele>253.4</ele>
        <time>2018-09-03T09:09:48Z</time>
      </trkpt>
      <trkpt lat="43.2691110" lon="-2.6083990">
        <ele>253.0</ele>
        <time>2018-09-03T09:09:49Z</time>
      </trkpt>
      <trkpt lat="43.2692140" lon="-2.6083480">
        <ele>252.4</ele>
        <time>2018-09-03T09:09:51Z</time>
      </trkpt>
      <trkpt lat="43.2692730" lon="-2.6083340">
        <ele>251.8</ele>
        <time>2018-09-03T09:09:52Z</time>
      </trkpt>
      <trkpt lat="43.2693400" lon="-2.6083280">
        <ele>251.4</ele>
        <time>2018-09-03T09:09:53Z</time>
      </trkpt>
      <trkpt lat="43.2694950" lon="-2.6083260">
        <ele>251.2</ele>
        <time>2018-09-03T09:09:55Z</time>
      </trkpt>
      <trkpt lat="43.2696740" lon="-2.6082710">
        <ele>250.6</ele>
        <time>2018-09-03T09:09:57Z</time>
      </trkpt>
      <trkpt lat="43.2698600" lon="-2.6081840">
        <ele>249.8</ele>
        <time>2018-09-03T09:09:59Z</time>
      </trkpt>
      <trkpt lat="43.2699580" lon="-2.6081390">
        <ele>249.2</ele>
        <time>2018-09-03T09:10:00Z</time>
      </trkpt>
      <trkpt lat="43.2701340" lon="-2.6080480">
        <ele>247.8</ele>
        <time>2018-09-03T09:10:02Z</time>
      </trkpt>
      <trkpt lat="43.2703050" lon="-2.6079730">
        <ele>244.4</ele>
        <time>2018-09-03T09:10:04Z</time>
      </trkpt>
      <trkpt lat="43.2704720" lon="-2.6079190">
        <ele>242.8</ele>
        <time>2018-09-03T09:10:06Z</time>
      </trkpt>
      <trkpt lat="43.2705580" lon="-2.6078970">
        <ele>240.8</ele>
        <time>2018-09-03T09:10:07Z</time>
      </trkpt>
      <trkpt lat="43.2706510" lon="-2.6078760">
        <ele>239.6</ele>
        <time>2018-09-03T09:10:08Z</time>
      </trkpt>
      <trkpt lat="43.2708520" lon="-2.6078540">
        <ele>238.2</ele>
        <time>2018-09-03T09:10:10Z</time>
      </trkpt>
      <trkpt lat="43.2711790" lon="-2.6078360">
        <ele>237.0</ele>
        <time>2018-09-03T09:10:13Z</time>
      </trkpt>
      <trkpt lat="43.2712780" lon="-2.6078200">
        <ele>236.6</ele>
        <time>2018-09-03T09:10:14Z</time>
      </trkpt>
      <trkpt lat="43.2713660" lon="-2.6077940">
        <ele>235.4</ele>
        <time>2018-09-03T09:10:15Z</time>
      </trkpt>
      <trkpt lat="43.2714480" lon="-2.6077530">
        <ele>234.4</ele>
        <time>2018-09-03T09:10:16Z</time>
      </trkpt>
      <trkpt lat="43.2715260" lon="-2.6077020">
        <ele>233.2</ele>
        <time>2018-09-03T09:10:17Z</time>
      </trkpt>
      <trkpt lat="43.2715950" lon="-2.6076550">
        <ele>231.2</ele>
        <time>2018-09-03T09:10:18Z</time>
      </trkpt>
      <trkpt lat="43.2716590" lon="-2.6076230">
        <ele>230.4</ele>
        <time>2018-09-03T09:10:19Z</time>
      </trkpt>
      <trkpt lat="43.2717120" lon="-2.6076060">
        <ele>229.8</ele>
        <time>2018-09-03T09:10:20Z</time>
      </trkpt>
      <trkpt lat="43.2718470" lon="-2.6075960">
        <ele>229.4</ele>
        <time>2018-09-03T09:10:23Z</time>
      </trkpt>
      <trkpt lat="43.2718890" lon="-2.6075910">
        <ele>229.4</ele>
        <time>2018-09-03T09:10:24Z</time>
      </trkpt>
      <trkpt lat="43.2720310" lon="-2.6075440">
        <ele>229.0</ele>
        <time>2018-09-03T09:10:27Z</time>
      </trkpt>
      <trkpt lat="43.2721550" lon="-2.6074780">
        <ele>228.8</ele>
        <time>2018-09-03T09:10:29Z</time>
      </trkpt>
      <trkpt lat="43.2724950" lon="-2.6073390">
        <ele>228.4</ele>
        <time>2018-09-03T09:10:34Z</time>
      </trkpt>
      <trkpt lat="43.2725870" lon="-2.6073080">
        <ele>226.8</ele>
        <time>2018-09-03T09:10:37Z</time>
      </trkpt>
      <trkpt lat="43.2726080" lon="-2.6073060">
        <ele>225.6</ele>
        <time>2018-09-03T09:10:38Z</time>
      </trkpt>
      <trkpt lat="43.2726300" lon="-2.6073100">
        <ele>224.4</ele>
        <time>2018-09-03T09:10:39Z</time>
      </trkpt>
      <trkpt lat="43.2726800" lon="-2.6073470">
        <ele>223.8</ele>
        <time>2018-09-03T09:10:43Z</time>
      </trkpt>
      <trkpt lat="43.2727360" lon="-2.6075000">
        <ele>223.6</ele>
        <time>2018-09-03T09:10:49Z</time>
      </trkpt>
      <trkpt lat="43.2728250" lon="-2.6077300">
        <ele>223.2</ele>
        <time>2018-09-03T09:10:55Z</time>
      </trkpt>
      <trkpt lat="43.2728610" lon="-2.6078250">
        <ele>223.0</ele>
        <time>2018-09-03T09:10:57Z</time>
      </trkpt>
      <trkpt lat="43.2729100" lon="-2.6079280">
        <ele>222.6</ele>
        <time>2018-09-03T09:10:59Z</time>
      </trkpt>
      <trkpt lat="43.2729880" lon="-2.6081150">
        <ele>222.2</ele>
        <time>2018-09-03T09:11:02Z</time>
      </trkpt>
      <trkpt lat="43.2731530" lon="-2.6085020">
        <ele>221.0</ele>
        <time>2018-09-03T09:11:07Z</time>
      </trkpt>
      <trkpt lat="43.2732430" lon="-2.6087840">
        <ele>219.8</ele>
        <time>2018-09-03T09:11:10Z</time>
      </trkpt>
      <trkpt lat="43.2732930" lon="-2.6091080">
        <ele>218.0</ele>
        <time>2018-09-03T09:11:13Z</time>
      </trkpt>
      <trkpt lat="43.2733070" lon="-2.6093380">
        <ele>216.6</ele>
        <time>2018-09-03T09:11:15Z</time>
      </trkpt>
      <trkpt lat="43.2733210" lon="-2.6095720">
        <ele>215.6</ele>
        <time>2018-09-03T09:11:17Z</time>
      </trkpt>
      <trkpt lat="43.2733400" lon="-2.6096850">
        <ele>214.8</ele>
        <time>2018-09-03T09:11:18Z</time>
      </trkpt>
      <trkpt lat="43.2733750" lon="-2.6097880">
        <ele>214.0</ele>
        <time>2018-09-03T09:11:19Z</time>
      </trkpt>
      <trkpt lat="43.2735020" lon="-2.6099170">
        <ele>212.2</ele>
        <time>2018-09-03T09:11:21Z</time>
      </trkpt>
      <trkpt lat="43.2736730" lon="-2.6098970">
        <ele>210.8</ele>
        <time>2018-09-03T09:11:23Z</time>
      </trkpt>
      <trkpt lat="43.2738280" lon="-2.6097410">
        <ele>209.2</ele>
        <time>2018-09-03T09:11:25Z</time>
      </trkpt>
      <trkpt lat="43.2739440" lon="-2.6095360">
        <ele>208.2</ele>
        <time>2018-09-03T09:11:27Z</time>
      </trkpt>
      <trkpt lat="43.2740040" lon="-2.6094430">
        <ele>208.0</ele>
        <time>2018-09-03T09:11:28Z</time>
      </trkpt>
      <trkpt lat="43.2741450" lon="-2.6093770">
        <ele>207.0</ele>
        <time>2018-09-03T09:11:30Z</time>
      </trkpt>
      <trkpt lat="43.2742570" lon="-2.6095220">
        <ele>205.4</ele>
        <time>2018-09-03T09:11:32Z</time>
      </trkpt>
      <trkpt lat="43.2743080" lon="-2.6097080">
        <ele>204.4</ele>
        <time>2018-09-03T09:11:34Z</time>
      </trkpt>
      <trkpt lat="43.2743320" lon="-2.6097850">
        <ele>204.2</ele>
        <time>2018-09-03T09:11:35Z</time>
      </trkpt>
      <trkpt lat="43.2743610" lon="-2.6098480">
        <ele>204.0</ele>
        <time>2018-09-03T09:11:36Z</time>
      </trkpt>
      <trkpt lat="43.2745550" lon="-2.6100280">
        <ele>203.8</ele>
        <time>2018-09-03T09:11:40Z</time>
      </trkpt>
      <trkpt lat="43.2746080" lon="-2.6100630">
        <ele>203.8</ele>
        <time>2018-09-03T09:11:41Z</time>
      </trkpt>
      <trkpt lat="43.2747640" lon="-2.6101610">
        <ele>203.8</ele>
        <time>2018-09-03T09:11:44Z</time>
      </trkpt>
      <trkpt lat="43.2748060" lon="-2.6102000">
        <ele>203.8</ele>
        <time>2018-09-03T09:11:45Z</time>
      </trkpt>
      <trkpt lat="43.2748690" lon="-2.6106500">
        <ele>203.8</ele>
        <time>2018-09-03T09:11:51Z</time>
      </trkpt>
      <trkpt lat="43.2747570" lon="-2.6108350">
        <ele>203.8</ele>
        <time>2018-09-03T09:11:54Z</time>
      </trkpt>
      <trkpt lat="43.2744080" lon="-2.6108290">
        <ele>203.6</ele>
        <time>2018-09-03T09:12:00Z</time>
      </trkpt>
      <trkpt lat="43.2741850" lon="-2.6107140">
        <ele>203.4</ele>
        <time>2018-09-03T09:12:04Z</time>
      </trkpt>
      <trkpt lat="43.2741230" lon="-2.6107070">
        <ele>203.4</ele>
        <time>2018-09-03T09:12:05Z</time>
      </trkpt>
      <trkpt lat="43.2738270" lon="-2.6109200">
        <ele>202.8</ele>
        <time>2018-09-03T09:12:10Z</time>
      </trkpt>
      <trkpt lat="43.2737670" lon="-2.6109740">
        <ele>202.4</ele>
        <time>2018-09-03T09:12:11Z</time>
      </trkpt>
      <trkpt lat="43.2735670" lon="-2.6111150">
        <ele>201.2</ele>
        <time>2018-09-03T09:12:14Z</time>
      </trkpt>
      <trkpt lat="43.2733340" lon="-2.6112530">
        <ele>199.8</ele>
        <time>2018-09-03T09:12:17Z</time>
      </trkpt>
      <trkpt lat="43.2732070" lon="-2.6114150">
        <ele>198.2</ele>
        <time>2018-09-03T09:12:19Z</time>
      </trkpt>
      <trkpt lat="43.2731420" lon="-2.6116460">
        <ele>196.8</ele>
        <time>2018-09-03T09:12:21Z</time>
      </trkpt>
      <trkpt lat="43.2731240" lon="-2.6118990">
        <ele>194.8</ele>
        <time>2018-09-03T09:12:23Z</time>
      </trkpt>
      <trkpt lat="43.2731190" lon="-2.6122820">
        <ele>193.8</ele>
        <time>2018-09-03T09:12:26Z</time>
      </trkpt>
      <trkpt lat="43.2731660" lon="-2.6126650">
        <ele>192.2</ele>
        <time>2018-09-03T09:12:29Z</time>
      </trkpt>
      <trkpt lat="43.2732030" lon="-2.6129220">
        <ele>191.0</ele>
        <time>2018-09-03T09:12:31Z</time>
      </trkpt>
      <trkpt lat="43.2732740" lon="-2.6133170">
        <ele>189.6</ele>
        <time>2018-09-03T09:12:34Z</time>
      </trkpt>
      <trkpt lat="43.2733110" lon="-2.6135830">
        <ele>188.6</ele>
        <time>2018-09-03T09:12:36Z</time>
      </trkpt>
      <trkpt lat="43.2733270" lon="-2.6139880">
        <ele>187.0</ele>
        <time>2018-09-03T09:12:39Z</time>
      </trkpt>
      <trkpt lat="43.2733410" lon="-2.6142590">
        <ele>185.8</ele>
        <time>2018-09-03T09:12:41Z</time>
      </trkpt>
      <trkpt lat="43.2733900" lon="-2.6146620">
        <ele>184.4</ele>
        <time>2018-09-03T09:12:44Z</time>
      </trkpt>
      <trkpt lat="43.2734580" lon="-2.6150630">
        <ele>183.0</ele>
        <time>2018-09-03T09:12:47Z</time>
      </trkpt>
      <trkpt lat="43.2734920" lon="-2.6151950">
        <ele>182.2</ele>
        <time>2018-09-03T09:12:48Z</time>
      </trkpt>
      <trkpt lat="43.2735360" lon="-2.6153230">
        <ele>181.4</ele>
        <time>2018-09-03T09:12:49Z</time>
      </trkpt>
      <trkpt lat="43.2736350" lon="-2.6155740">
        <ele>180.4</ele>
        <time>2018-09-03T09:12:51Z</time>
      </trkpt>
      <trkpt lat="43.2737530" lon="-2.6158200">
        <ele>179.2</ele>
        <time>2018-09-03T09:12:53Z</time>
      </trkpt>
      <trkpt lat="43.2738970" lon="-2.6160430">
        <ele>178.6</ele>
        <time>2018-09-03T09:12:55Z</time>
      </trkpt>
      <trkpt lat="43.2742000" lon="-2.6161980">
        <ele>177.8</ele>
        <time>2018-09-03T09:12:58Z</time>
      </trkpt>
      <trkpt lat="43.2745790" lon="-2.6160770">
        <ele>176.2</ele>
        <time>2018-09-03T09:13:02Z</time>
      </trkpt>
      <trkpt lat="43.2747330" lon="-2.6159490">
        <ele>175.2</ele>
        <time>2018-09-03T09:13:04Z</time>
      </trkpt>
      <trkpt lat="43.2748070" lon="-2.6159080">
        <ele>174.8</ele>
        <time>2018-09-03T09:13:05Z</time>
      </trkpt>
      <trkpt lat="43.2749320" lon="-2.6159610">
        <ele>174.2</ele>
        <time>2018-09-03T09:13:07Z</time>
      </trkpt>
      <trkpt lat="43.2749760" lon="-2.6162010">
        <ele>173.4</ele>
        <time>2018-09-03T09:13:10Z</time>
      </trkpt>
      <trkpt lat="43.2748680" lon="-2.6163590">
        <ele>172.6</ele>
        <time>2018-09-03T09:13:12Z</time>
      </trkpt>
      <trkpt lat="43.2748030" lon="-2.6164370">
        <ele>172.4</ele>
        <time>2018-09-03T09:13:13Z</time>
      </trkpt>
      <trkpt lat="43.2746020" lon="-2.6166850">
        <ele>171.6</ele>
        <time>2018-09-03T09:13:16Z</time>
      </trkpt>
      <trkpt lat="43.2742930" lon="-2.6170100">
        <ele>170.4</ele>
        <time>2018-09-03T09:13:20Z</time>
      </trkpt>
      <trkpt lat="43.2740030" lon="-2.6171740">
        <ele>168.8</ele>
        <time>2018-09-03T09:13:23Z</time>
      </trkpt>
      <trkpt lat="43.2738170" lon="-2.6172950">
        <ele>166.8</ele>
        <time>2018-09-03T09:13:25Z</time>
      </trkpt>
      <trkpt lat="43.2737310" lon="-2.6173650">
        <ele>165.8</ele>
        <time>2018-09-03T09:13:26Z</time>
      </trkpt>
      <trkpt lat="43.2735690" lon="-2.6175310">
        <ele>164.4</ele>
        <time>2018-09-03T09:13:28Z</time>
      </trkpt>
      <trkpt lat="43.2734670" lon="-2.6180780">
        <ele>161.4</ele>
        <time>2018-09-03T09:13:32Z</time>
      </trkpt>
      <trkpt lat="43.2735540" lon="-2.6183410">
        <ele>160.0</ele>
        <time>2018-09-03T09:13:34Z</time>
      </trkpt>
      <trkpt lat="43.2739200" lon="-2.6186290">
        <ele>159.2</ele>
        <time>2018-09-03T09:13:38Z</time>
      </trkpt>
      <trkpt lat="43.2740200" lon="-2.6186710">
        <ele>158.4</ele>
        <time>2018-09-03T09:13:39Z</time>
      </trkpt>
      <trkpt lat="43.2741100" lon="-2.6187290">
        <ele>157.2</ele>
        <time>2018-09-03T09:13:40Z</time>
      </trkpt>
      <trkpt lat="43.2741910" lon="-2.6188050">
        <ele>156.2</ele>
        <time>2018-09-03T09:13:41Z</time>
      </trkpt>
      <trkpt lat="43.2743100" lon="-2.6190110">
        <ele>154.8</ele>
        <time>2018-09-03T09:13:43Z</time>
      </trkpt>
      <trkpt lat="43.2743730" lon="-2.6191100">
        <ele>154.2</ele>
        <time>2018-09-03T09:13:44Z</time>
      </trkpt>
      <trkpt lat="43.2745290" lon="-2.6192610">
        <ele>153.4</ele>
        <time>2018-09-03T09:13:46Z</time>
      </trkpt>
      <trkpt lat="43.2747080" lon="-2.6193500">
        <ele>151.8</ele>
        <time>2018-09-03T09:13:48Z</time>
      </trkpt>
      <trkpt lat="43.2748880" lon="-2.6194100">
        <ele>151.2</ele>
        <time>2018-09-03T09:13:50Z</time>
      </trkpt>
      <trkpt lat="43.2750600" lon="-2.6194790">
        <ele>150.8</ele>
        <time>2018-09-03T09:13:52Z</time>
      </trkpt>
      <trkpt lat="43.2751880" lon="-2.6196350">
        <ele>150.4</ele>
        <time>2018-09-03T09:13:54Z</time>
      </trkpt>
      <trkpt lat="43.2752400" lon="-2.6198650">
        <ele>150.2</ele>
        <time>2018-09-03T09:13:56Z</time>
      </trkpt>
      <trkpt lat="43.2752700" lon="-2.6199770">
        <ele>150.0</ele>
        <time>2018-09-03T09:13:57Z</time>
      </trkpt>
      <trkpt lat="43.2754890" lon="-2.6203660">
        <ele>150.0</ele>
        <time>2018-09-03T09:14:01Z</time>
      </trkpt>
      <trkpt lat="43.2756310" lon="-2.6205530">
        <ele>149.8</ele>
        <time>2018-09-03T09:14:03Z</time>
      </trkpt>
      <trkpt lat="43.2759050" lon="-2.6209710">
        <ele>148.0</ele>
        <time>2018-09-03T09:14:07Z</time>
      </trkpt>
      <trkpt lat="43.2759840" lon="-2.6210660">
        <ele>147.6</ele>
        <time>2018-09-03T09:14:08Z</time>
      </trkpt>
      <trkpt lat="43.2760680" lon="-2.6211550">
        <ele>147.0</ele>
        <time>2018-09-03T09:14:09Z</time>
      </trkpt>
      <trkpt lat="43.2762280" lon="-2.6213500">
        <ele>146.0</ele>
        <time>2018-09-03T09:14:11Z</time>
      </trkpt>
      <trkpt lat="43.2763520" lon="-2.6215830">
        <ele>144.8</ele>
        <time>2018-09-03T09:14:13Z</time>
      </trkpt>
      <trkpt lat="43.2764480" lon="-2.6218360">
        <ele>143.4</ele>
        <time>2018-09-03T09:14:15Z</time>
      </trkpt>
      <trkpt lat="43.2765000" lon="-2.6219550">
        <ele>142.0</ele>
        <time>2018-09-03T09:14:16Z</time>
      </trkpt>
      <trkpt lat="43.2765600" lon="-2.6220650">
        <ele>140.6</ele>
        <time>2018-09-03T09:14:17Z</time>
      </trkpt>
      <trkpt lat="43.2766300" lon="-2.6221680">
        <ele>139.4</ele>
        <time>2018-09-03T09:14:18Z</time>
      </trkpt>
      <trkpt lat="43.2767620" lon="-2.6223840">
        <ele>138.0</ele>
        <time>2018-09-03T09:14:20Z</time>
      </trkpt>
      <trkpt lat="43.2768200" lon="-2.6225050">
        <ele>137.4</ele>
        <time>2018-09-03T09:14:21Z</time>
      </trkpt>
      <trkpt lat="43.2768730" lon="-2.6226280">
        <ele>136.8</ele>
        <time>2018-09-03T09:14:22Z</time>
      </trkpt>
      <trkpt lat="43.2769580" lon="-2.6228920">
        <ele>135.4</ele>
        <time>2018-09-03T09:14:24Z</time>
      </trkpt>
      <trkpt lat="43.2770350" lon="-2.6231690">
        <ele>134.4</ele>
        <time>2018-09-03T09:14:26Z</time>
      </trkpt>
      <trkpt lat="43.2772090" lon="-2.6237250">
        <ele>133.0</ele>
        <time>2018-09-03T09:14:30Z</time>
      </trkpt>
      <trkpt lat="43.2773460" lon="-2.6239480">
        <ele>131.8</ele>
        <time>2018-09-03T09:14:32Z</time>
      </trkpt>
      <trkpt lat="43.2775470" lon="-2.6240740">
        <ele>130.4</ele>
        <time>2018-09-03T09:14:34Z</time>
      </trkpt>
      <trkpt lat="43.2777640" lon="-2.6241590">
        <ele>128.8</ele>
        <time>2018-09-03T09:14:36Z</time>
      </trkpt>
      <trkpt lat="43.2779670" lon="-2.6242720">
        <ele>126.8</ele>
        <time>2018-09-03T09:14:38Z</time>
      </trkpt>
      <trkpt lat="43.2781240" lon="-2.6244650">
        <ele>125.2</ele>
        <time>2018-09-03T09:14:40Z</time>
      </trkpt>
      <trkpt lat="43.2782330" lon="-2.6247040">
        <ele>124.0</ele>
        <time>2018-09-03T09:14:42Z</time>
      </trkpt>
      <trkpt lat="43.2782920" lon="-2.6249520">
        <ele>123.8</ele>
        <time>2018-09-03T09:14:44Z</time>
      </trkpt>
      <trkpt lat="43.2783030" lon="-2.6250770">
        <ele>123.6</ele>
        <time>2018-09-03T09:14:45Z</time>
      </trkpt>
      <trkpt lat="43.2783020" lon="-2.6253220">
        <ele>123.6</ele>
        <time>2018-09-03T09:14:47Z</time>
      </trkpt>
      <trkpt lat="43.2782760" lon="-2.6255640">
        <ele>123.4</ele>
        <time>2018-09-03T09:14:49Z</time>
      </trkpt>
      <trkpt lat="43.2782560" lon="-2.6258000">
        <ele>123.4</ele>
        <time>2018-09-03T09:14:51Z</time>
      </trkpt>
      <trkpt lat="43.2783810" lon="-2.6263690">
        <ele>122.8</ele>
        <time>2018-09-03T09:14:56Z</time>
      </trkpt>
      <trkpt lat="43.2785230" lon="-2.6265170">
        <ele>121.8</ele>
        <time>2018-09-03T09:14:58Z</time>
      </trkpt>
      <trkpt lat="43.2786810" lon="-2.6266160">
        <ele>121.2</ele>
        <time>2018-09-03T09:15:00Z</time>
      </trkpt>
      <trkpt lat="43.2788340" lon="-2.6267130">
        <ele>120.6</ele>
        <time>2018-09-03T09:15:02Z</time>
      </trkpt>
      <trkpt lat="43.2790140" lon="-2.6269570">
        <ele>119.4</ele>
        <time>2018-09-03T09:15:05Z</time>
      </trkpt>
      <trkpt lat="43.2791000" lon="-2.6271660">
        <ele>119.0</ele>
        <time>2018-09-03T09:15:07Z</time>
      </trkpt>
      <trkpt lat="43.2791520" lon="-2.6272580">
        <ele>119.0</ele>
        <time>2018-09-03T09:15:08Z</time>
      </trkpt>
      <trkpt lat="43.2794780" lon="-2.6276260">
        <ele>118.2</ele>
        <time>2018-09-03T09:15:13Z</time>
      </trkpt>
      <trkpt lat="43.2796610" lon="-2.6278460">
        <ele>116.4</ele>
        <time>2018-09-03T09:15:16Z</time>
      </trkpt>
      <trkpt lat="43.2798220" lon="-2.6280830">
        <ele>115.4</ele>
        <time>2018-09-03T09:15:19Z</time>
      </trkpt>
      <trkpt lat="43.2801660" lon="-2.6286480">
        <ele>114.8</ele>
        <time>2018-09-03T09:15:26Z</time>
      </trkpt>
      <trkpt lat="43.2802680" lon="-2.6289380">
        <ele>114.4</ele>
        <time>2018-09-03T09:15:29Z</time>
      </trkpt>
      <trkpt lat="43.2803400" lon="-2.6292500">
        <ele>114.0</ele>
        <time>2018-09-03T09:15:32Z</time>
      </trkpt>
      <trkpt lat="43.2803830" lon="-2.6294690">
        <ele>113.8</ele>
        <time>2018-09-03T09:15:34Z</time>
      </trkpt>
      <trkpt lat="43.2804620" lon="-2.6296720">
        <ele>113.4</ele>
        <time>2018-09-03T09:15:36Z</time>
      </trkpt>
      <trkpt lat="43.2805730" lon="-2.6298490">
        <ele>112.6</ele>
        <time>2018-09-03T09:15:38Z</time>
      </trkpt>
      <trkpt lat="43.2806340" lon="-2.6299290">
        <ele>112.6</ele>
        <time>2018-09-03T09:15:39Z</time>
      </trkpt>
      <trkpt lat="43.2806930" lon="-2.6300070">
        <ele>112.4</ele>
        <time>2018-09-03T09:15:40Z</time>
      </trkpt>
      <trkpt lat="43.2808630" lon="-2.6302270">
        <ele>111.2</ele>
        <time>2018-09-03T09:15:43Z</time>
      </trkpt>
      <trkpt lat="43.2811470" lon="-2.6306130">
        <ele>110.4</ele>
        <time>2018-09-03T09:15:49Z</time>
      </trkpt>
      <trkpt lat="43.2812340" lon="-2.6307390">
        <ele>110.4</ele>
        <time>2018-09-03T09:15:51Z</time>
      </trkpt>
      <trkpt lat="43.2816920" lon="-2.6312050">
        <ele>110.4</ele>
        <time>2018-09-03T09:16:00Z</time>
      </trkpt>
      <trkpt lat="43.2818470" lon="-2.6313550">
        <ele>110.4</ele>
        <time>2018-09-03T09:16:03Z</time>
      </trkpt>
      <trkpt lat="43.2820020" lon="-2.6315000">
        <ele>110.4</ele>
        <time>2018-09-03T09:16:06Z</time>
      </trkpt>
      <trkpt lat="43.2821030" lon="-2.6315910">
        <ele>110.4</ele>
        <time>2018-09-03T09:16:08Z</time>
      </trkpt>
      <trkpt lat="43.2821530" lon="-2.6316330">
        <ele>110.4</ele>
        <time>2018-09-03T09:16:09Z</time>
      </trkpt>
      <trkpt lat="43.2822470" lon="-2.6317200">
        <ele>110.4</ele>
        <time>2018-09-03T09:16:11Z</time>
      </trkpt>
      <trkpt lat="43.2823360" lon="-2.6318010">
        <ele>110.4</ele>
        <time>2018-09-03T09:16:13Z</time>
      </trkpt>
      <trkpt lat="43.2824670" lon="-2.6319140">
        <ele>110.4</ele>
        <time>2018-09-03T09:16:16Z</time>
      </trkpt>
      <trkpt lat="43.2827540" lon="-2.6321590">
        <ele>111.4</ele>
        <time>2018-09-03T09:16:23Z</time>
      </trkpt>
      <trkpt lat="43.2829230" lon="-2.6322830">
        <ele>112.2</ele>
        <time>2018-09-03T09:16:27Z</time>
      </trkpt>
      <trkpt lat="43.2829640" lon="-2.6323120">
        <ele>112.2</ele>
        <time>2018-09-03T09:16:28Z</time>
      </trkpt>
      <trkpt lat="43.2833510" lon="-2.6323940">
        <ele>113.0</ele>
        <time>2018-09-03T09:16:37Z</time>
      </trkpt>
      <trkpt lat="43.2835040" lon="-2.6323120">
        <ele>113.2</ele>
        <time>2018-09-03T09:16:41Z</time>
      </trkpt>
      <trkpt lat="43.2836550" lon="-2.6321290">
        <ele>114.0</ele>
        <time>2018-09-03T09:16:46Z</time>
      </trkpt>
      <trkpt lat="43.2837540" lon="-2.6319950">
        <ele>114.0</ele>
        <time>2018-09-03T09:16:49Z</time>
      </trkpt>
      <trkpt lat="43.2838300" lon="-2.6318940">
        <ele>114.0</ele>
        <time>2018-09-03T09:16:51Z</time>
      </trkpt>
      <trkpt lat="43.2839210" lon="-2.6316900">
        <ele>113.8</ele>
        <time>2018-09-03T09:16:54Z</time>
      </trkpt>
      <trkpt lat="43.2839320" lon="-2.6314380">
        <ele>113.2</ele>
        <time>2018-09-03T09:16:57Z</time>
      </trkpt>
      <trkpt lat="43.2839700" lon="-2.6312690">
        <ele>112.0</ele>
        <time>2018-09-03T09:16:59Z</time>
      </trkpt>
      <trkpt lat="43.2840410" lon="-2.6311150">
        <ele>110.8</ele>
        <time>2018-09-03T09:17:01Z</time>
      </trkpt>
      <trkpt lat="43.2841510" lon="-2.6310060">
        <ele>110.4</ele>
        <time>2018-09-03T09:17:03Z</time>
      </trkpt>
      <trkpt lat="43.2842090" lon="-2.6309620">
        <ele>110.2</ele>
        <time>2018-09-03T09:17:04Z</time>
      </trkpt>
      <trkpt lat="43.2842680" lon="-2.6309200">
        <ele>110.0</ele>
        <time>2018-09-03T09:17:05Z</time>
      </trkpt>
      <trkpt lat="43.2847800" lon="-2.6306530">
        <ele>109.2</ele>
        <time>2018-09-03T09:17:13Z</time>
      </trkpt>
      <trkpt lat="43.2848510" lon="-2.6306180">
        <ele>109.0</ele>
        <time>2018-09-03T09:17:14Z</time>
      </trkpt>
      <trkpt lat="43.2851150" lon="-2.6304710">
        <ele>108.2</ele>
        <time>2018-09-03T09:17:18Z</time>
      </trkpt>
      <trkpt lat="43.2853160" lon="-2.6304520">
        <ele>108.0</ele>
        <time>2018-09-03T09:17:21Z</time>
      </trkpt>
      <trkpt lat="43.2854490" lon="-2.6304590">
        <ele>107.8</ele>
        <time>2018-09-03T09:17:23Z</time>
      </trkpt>
      <trkpt lat="43.2855810" lon="-2.6304880">
        <ele>107.2</ele>
        <time>2018-09-03T09:17:25Z</time>
      </trkpt>
      <trkpt lat="43.2857040" lon="-2.6305920">
        <ele>106.8</ele>
        <time>2018-09-03T09:17:27Z</time>
      </trkpt>
      <trkpt lat="43.2858210" lon="-2.6307250">
        <ele>106.6</ele>
        <time>2018-09-03T09:17:29Z</time>
      </trkpt>
      <trkpt lat="43.2862770" lon="-2.6312430">
        <ele>105.6</ele>
        <time>2018-09-03T09:17:36Z</time>
      </trkpt>
      <trkpt lat="43.2865930" lon="-2.6314220">
        <ele>104.6</ele>
        <time>2018-09-03T09:17:40Z</time>
      </trkpt>
      <trkpt lat="43.2866780" lon="-2.6314440">
        <ele>104.2</ele>
        <time>2018-09-03T09:17:41Z</time>
      </trkpt>
      <trkpt lat="43.2868470" lon="-2.6314640">
        <ele>103.2</ele>
        <time>2018-09-03T09:17:43Z</time>
      </trkpt>
      <trkpt lat="43.2870100" lon="-2.6314770">
        <ele>101.6</ele>
        <time>2018-09-03T09:17:45Z</time>
      </trkpt>
      <trkpt lat="43.2875600" lon="-2.6314920">
        <ele>100.6</ele>
        <time>2018-09-03T09:17:52Z</time>
      </trkpt>
      <trkpt lat="43.2877960" lon="-2.6315150">
        <ele>100.2</ele>
        <time>2018-09-03T09:17:55Z</time>
      </trkpt>
      <trkpt lat="43.2881680" lon="-2.6316340">
        <ele>99.4</ele>
        <time>2018-09-03T09:18:00Z</time>
      </trkpt>
      <trkpt lat="43.2884600" lon="-2.6317450">
        <ele>99.2</ele>
        <time>2018-09-03T09:18:04Z</time>
      </trkpt>
      <trkpt lat="43.2888690" lon="-2.6319030">
        <ele>98.6</ele>
        <time>2018-09-03T09:18:10Z</time>
      </trkpt>
      <trkpt lat="43.2889950" lon="-2.6320020">
        <ele>98.2</ele>
        <time>2018-09-03T09:18:12Z</time>
      </trkpt>
      <trkpt lat="43.2891540" lon="-2.6324680">
        <ele>97.8</ele>
        <time>2018-09-03T09:18:17Z</time>
      </trkpt>
      <trkpt lat="43.2892020" lon="-2.6327580">
        <ele>97.6</ele>
        <time>2018-09-03T09:18:20Z</time>
      </trkpt>
      <trkpt lat="43.2892110" lon="-2.6328570">
        <ele>97.6</ele>
        <time>2018-09-03T09:18:21Z</time>
      </trkpt>
      <trkpt lat="43.2892790" lon="-2.6334570">
        <ele>97.0</ele>
        <time>2018-09-03T09:18:27Z</time>
      </trkpt>
      <trkpt lat="43.2893530" lon="-2.6337390">
        <ele>96.6</ele>
        <time>2018-09-03T09:18:30Z</time>
      </trkpt>
      <trkpt lat="43.2893780" lon="-2.6338350">
        <ele>96.4</ele>
        <time>2018-09-03T09:18:31Z</time>
      </trkpt>
      <trkpt lat="43.2895580" lon="-2.6343880">
        <ele>96.0</ele>
        <time>2018-09-03T09:18:37Z</time>
      </trkpt>
      <trkpt lat="43.2898170" lon="-2.6345580">
        <ele>95.8</ele>
        <time>2018-09-03T09:18:41Z</time>
      </trkpt>
      <trkpt lat="43.2901890" lon="-2.6342150">
        <ele>95.6</ele>
        <time>2018-09-03T09:18:47Z</time>
      </trkpt>
      <trkpt lat="43.2902400" lon="-2.6341430">
        <ele>95.2</ele>
        <time>2018-09-03T09:18:48Z</time>
      </trkpt>
      <trkpt lat="43.2906390" lon="-2.6337350">
        <ele>94.2</ele>
        <time>2018-09-03T09:18:55Z</time>
      </trkpt>
      <trkpt lat="43.2908440" lon="-2.6336210">
        <ele>94.0</ele>
        <time>2018-09-03T09:18:58Z</time>
      </trkpt>
      <trkpt lat="43.2911770" lon="-2.6335970">
        <ele>93.0</ele>
        <time>2018-09-03T09:19:02Z</time>
      </trkpt>
      <trkpt lat="43.2914790" lon="-2.6338140">
        <ele>91.8</ele>
        <time>2018-09-03T09:19:06Z</time>
      </trkpt>
      <trkpt lat="43.2915430" lon="-2.6338890">
        <ele>91.8</ele>
        <time>2018-09-03T09:19:07Z</time>
      </trkpt>
      <trkpt lat="43.2916620" lon="-2.6340400">
        <ele>90.2</ele>
        <time>2018-09-03T09:19:09Z</time>
      </trkpt>
      <trkpt lat="43.2918790" lon="-2.6343430">
        <ele>89.2</ele>
        <time>2018-09-03T09:19:13Z</time>
      </trkpt>
      <trkpt lat="43.2919860" lon="-2.6344990">
        <ele>89.0</ele>
        <time>2018-09-03T09:19:15Z</time>
      </trkpt>
      <trkpt lat="43.2920430" lon="-2.6345730">
        <ele>88.8</ele>
        <time>2018-09-03T09:19:16Z</time>
      </trkpt>
      <trkpt lat="43.2921050" lon="-2.6346400">
        <ele>88.6</ele>
        <time>2018-09-03T09:19:17Z</time>
      </trkpt>
      <trkpt lat="43.2926240" lon="-2.6348530">
        <ele>88.4</ele>
        <time>2018-09-03T09:19:24Z</time>
      </trkpt>
      <trkpt lat="43.2928570" lon="-2.6348270">
        <ele>88.4</ele>
        <time>2018-09-03T09:19:27Z</time>
      </trkpt>
      <trkpt lat="43.2931170" lon="-2.6346070">
        <ele>88.2</ele>
        <time>2018-09-03T09:19:31Z</time>
      </trkpt>
      <trkpt lat="43.2931720" lon="-2.6345390">
        <ele>88.0</ele>
        <time>2018-09-03T09:19:32Z</time>
      </trkpt>
      <trkpt lat="43.2935650" lon="-2.6340420">
        <ele>87.2</ele>
        <time>2018-09-03T09:19:39Z</time>
      </trkpt>
      <trkpt lat="43.2937720" lon="-2.6339230">
        <ele>87.0</ele>
        <time>2018-09-03T09:19:42Z</time>
      </trkpt>
      <trkpt lat="43.2938450" lon="-2.6338980">
        <ele>86.8</ele>
        <time>2018-09-03T09:19:43Z</time>
      </trkpt>
      <trkpt lat="43.2939170" lon="-2.6338810">
        <ele>86.8</ele>
        <time>2018-09-03T09:19:44Z</time>
      </trkpt>
      <trkpt lat="43.2941810" lon="-2.6339440">
        <ele>86.2</ele>
        <time>2018-09-03T09:19:48Z</time>
      </trkpt>
      <trkpt lat="43.2942340" lon="-2.6339810">
        <ele>86.0</ele>
        <time>2018-09-03T09:19:49Z</time>
      </trkpt>
      <trkpt lat="43.2943290" lon="-2.6340560">
        <ele>86.0</ele>
        <time>2018-09-03T09:19:51Z</time>
      </trkpt>
      <trkpt lat="43.2944910" lon="-2.6341830">
        <ele>86.0</ele>
        <time>2018-09-03T09:19:55Z</time>
      </trkpt>
      <trkpt lat="43.2946160" lon="-2.6342930">
        <ele>87.8</ele>
        <time>2018-09-03T09:19:59Z</time>
      </trkpt>
      <trkpt lat="43.2946400" lon="-2.6343240">
        <ele>88.4</ele>
        <time>2018-09-03T09:20:00Z</time>
      </trkpt>
      <trkpt lat="43.2947120" lon="-2.6344240">
        <ele>89.6</ele>
        <time>2018-09-03T09:20:03Z</time>
      </trkpt>
      <trkpt lat="43.2947760" lon="-2.6345580">
        <ele>90.6</ele>
        <time>2018-09-03T09:20:07Z</time>
      </trkpt>
      <trkpt lat="43.2948210" lon="-2.6347910">
        <ele>91.8</ele>
        <time>2018-09-03T09:20:14Z</time>
      </trkpt>
      <trkpt lat="43.2948170" lon="-2.6349700">
        <ele>92.6</ele>
        <time>2018-09-03T09:20:19Z</time>
      </trkpt>
      <trkpt lat="43.2948170" lon="-2.6350030">
        <ele>92.8</ele>
        <time>2018-09-03T09:20:20Z</time>
      </trkpt>
      <trkpt lat="43.2948050" lon="-2.6352080">
        <ele>93.8</ele>
        <time>2018-09-03T09:20:26Z</time>
      </trkpt>
      <trkpt lat="43.2946910" lon="-2.6355420">
        <ele>94.8</ele>
        <time>2018-09-03T09:20:34Z</time>
      </trkpt>
      <trkpt lat="43.2946460" lon="-2.6357590">
        <ele>95.0</ele>
        <time>2018-09-03T09:20:38Z</time>
      </trkpt>
      <trkpt lat="43.2946040" lon="-2.6359780">
        <ele>96.2</ele>
        <time>2018-09-03T09:20:43Z</time>
      </trkpt>
      <trkpt lat="43.2945660" lon="-2.6361210">
        <ele>97.4</ele>
        <time>2018-09-03T09:20:47Z</time>
      </trkpt>
      <trkpt lat="43.2945010" lon="-2.6362800">
        <ele>98.4</ele>
        <time>2018-09-03T09:20:52Z</time>
      </trkpt>
      <trkpt lat="43.2943250" lon="-2.6366380">
        <ele>99.6</ele>
        <time>2018-09-03T09:21:04Z</time>
      </trkpt>
      <trkpt lat="43.2942340" lon="-2.6368580">
        <ele>100.8</ele>
        <time>2018-09-03T09:21:12Z</time>
      </trkpt>
      <trkpt lat="43.2943600" lon="-2.6370300">
        <ele>101.8</ele>
        <time>2018-09-03T09:21:22Z</time>
      </trkpt>
      <trkpt lat="43.2945380" lon="-2.6369830">
        <ele>102.8</ele>
        <time>2018-09-03T09:21:30Z</time>
      </trkpt>
      <trkpt lat="43.2945890" lon="-2.6369690">
        <ele>102.8</ele>
        <time>2018-09-03T09:21:32Z</time>
      </trkpt>
      <trkpt lat="43.2946530" lon="-2.6369430">
        <ele>102.8</ele>
        <time>2018-09-03T09:21:35Z</time>
      </trkpt>
      <trkpt lat="43.2947030" lon="-2.6369200">
        <ele>102.8</ele>
        <time>2018-09-03T09:21:37Z</time>
      </trkpt>
      <trkpt lat="43.2948370" lon="-2.6368500">
        <ele>102.8</ele>
        <time>2018-09-03T09:21:42Z</time>
      </trkpt>
      <trkpt lat="43.2948910" lon="-2.6368180">
        <ele>102.6</ele>
        <time>2018-09-03T09:21:44Z</time>
      </trkpt>
      <trkpt lat="43.2950640" lon="-2.6366980">
        <ele>102.6</ele>
        <time>2018-09-03T09:21:50Z</time>
      </trkpt>
      <trkpt lat="43.2951300" lon="-2.6366540">
        <ele>102.6</ele>
        <time>2018-09-03T09:21:52Z</time>
      </trkpt>
      <trkpt lat="43.2955400" lon="-2.6363730">
        <ele>102.4</ele>
        <time>2018-09-03T09:22:04Z</time>
      </trkpt>
      <trkpt lat="43.2957490" lon="-2.6362960">
        <ele>102.6</ele>
        <time>2018-09-03T09:22:09Z</time>
      </trkpt>
      <trkpt lat="43.2960450" lon="-2.6363080">
        <ele>102.6</ele>
        <time>2018-09-03T09:22:16Z</time>
      </trkpt>
      <trkpt lat="43.2961740" lon="-2.6363460">
        <ele>102.6</ele>
        <time>2018-09-03T09:22:19Z</time>
      </trkpt>
      <trkpt lat="43.2963000" lon="-2.6363940">
        <ele>102.6</ele>
        <time>2018-09-03T09:22:22Z</time>
      </trkpt>
      <trkpt lat="43.2964190" lon="-2.6364390">
        <ele>102.6</ele>
        <time>2018-09-03T09:22:25Z</time>
      </trkpt>
      <trkpt lat="43.2965510" lon="-2.6365020">
        <ele>102.6</ele>
        <time>2018-09-03T09:22:28Z</time>
      </trkpt>
      <trkpt lat="43.2967250" lon="-2.6367080">
        <ele>102.4</ele>
        <time>2018-09-03T09:22:33Z</time>
      </trkpt>
      <trkpt lat="43.2967860" lon="-2.6368210">
        <ele>102.2</ele>
        <time>2018-09-03T09:22:35Z</time>
      </trkpt>
      <trkpt lat="43.2968560" lon="-2.6369450">
        <ele>101.8</ele>
        <time>2018-09-03T09:22:37Z</time>
      </trkpt>
      <trkpt lat="43.2971700" lon="-2.6373720">
        <ele>100.8</ele>
        <time>2018-09-03T09:22:43Z</time>
      </trkpt>
      <trkpt lat="43.2972960" lon="-2.6375130">
        <ele>99.8</ele>
        <time>2018-09-03T09:22:45Z</time>
      </trkpt>
      <trkpt lat="43.2975510" lon="-2.6375290">
        <ele>98.4</ele>
        <time>2018-09-03T09:22:49Z</time>
      </trkpt>
      <trkpt lat="43.2975600" lon="-2.6373470">
        <ele>97.0</ele>
        <time>2018-09-03T09:22:51Z</time>
      </trkpt>
      <trkpt lat="43.2975130" lon="-2.6371600">
        <ele>96.0</ele>
        <time>2018-09-03T09:22:53Z</time>
      </trkpt>
      <trkpt lat="43.2974880" lon="-2.6370640">
        <ele>95.6</ele>
        <time>2018-09-03T09:22:54Z</time>
      </trkpt>
      <trkpt lat="43.2974160" lon="-2.6367750">
        <ele>94.2</ele>
        <time>2018-09-03T09:22:57Z</time>
      </trkpt>
      <trkpt lat="43.2973670" lon="-2.6365810">
        <ele>93.4</ele>
        <time>2018-09-03T09:22:59Z</time>
      </trkpt>
      <trkpt lat="43.2973440" lon="-2.6364860">
        <ele>93.2</ele>
        <time>2018-09-03T09:23:00Z</time>
      </trkpt>
      <trkpt lat="43.2972760" lon="-2.6362110">
        <ele>92.0</ele>
        <time>2018-09-03T09:23:03Z</time>
      </trkpt>
      <trkpt lat="43.2971780" lon="-2.6358810">
        <ele>91.0</ele>
        <time>2018-09-03T09:23:06Z</time>
      </trkpt>
      <trkpt lat="43.2970780" lon="-2.6356200">
        <ele>90.2</ele>
        <time>2018-09-03T09:23:08Z</time>
      </trkpt>
      <trkpt lat="43.2970040" lon="-2.6353370">
        <ele>89.8</ele>
        <time>2018-09-03T09:23:10Z</time>
      </trkpt>
      <trkpt lat="43.2970110" lon="-2.6351920">
        <ele>89.4</ele>
        <time>2018-09-03T09:23:11Z</time>
      </trkpt>
      <trkpt lat="43.2970930" lon="-2.6350040">
        <ele>88.8</ele>
        <time>2018-09-03T09:23:13Z</time>
      </trkpt>
      <trkpt lat="43.2972370" lon="-2.6349300">
        <ele>86.6</ele>
        <time>2018-09-03T09:23:15Z</time>
      </trkpt>
      <trkpt lat="43.2973290" lon="-2.6349310">
        <ele>85.2</ele>
        <time>2018-09-03T09:23:16Z</time>
      </trkpt>
      <trkpt lat="43.2974180" lon="-2.6349430">
        <ele>84.0</ele>
        <time>2018-09-03T09:23:17Z</time>
      </trkpt>
      <trkpt lat="43.2975060" lon="-2.6349530">
        <ele>83.2</ele>
        <time>2018-09-03T09:23:18Z</time>
      </trkpt>
      <trkpt lat="43.2975910" lon="-2.6349640">
        <ele>82.0</ele>
        <time>2018-09-03T09:23:19Z</time>
      </trkpt>
      <trkpt lat="43.2978560" lon="-2.6350100">
        <ele>81.0</ele>
        <time>2018-09-03T09:23:22Z</time>
      </trkpt>
      <trkpt lat="43.2981580" lon="-2.6354480">
        <ele>79.8</ele>
        <time>2018-09-03T09:23:27Z</time>
      </trkpt>
      <trkpt lat="43.2982010" lon="-2.6357080">
        <ele>79.2</ele>
        <time>2018-09-03T09:23:29Z</time>
      </trkpt>
      <trkpt lat="43.2982120" lon="-2.6358410">
        <ele>78.8</ele>
        <time>2018-09-03T09:23:30Z</time>
      </trkpt>
      <trkpt lat="43.2982330" lon="-2.6361030">
        <ele>77.8</ele>
        <time>2018-09-03T09:23:32Z</time>
      </trkpt>
      <trkpt lat="43.2982440" lon="-2.6363790">
        <ele>76.6</ele>
        <time>2018-09-03T09:23:34Z</time>
      </trkpt>
      <trkpt lat="43.2982660" lon="-2.6365120">
        <ele>75.8</ele>
        <time>2018-09-03T09:23:35Z</time>
      </trkpt>
      <trkpt lat="43.2983040" lon="-2.6366380">
        <ele>75.2</ele>
        <time>2018-09-03T09:23:36Z</time>
      </trkpt>
      <trkpt lat="43.2984560" lon="-2.6368130">
        <ele>74.0</ele>
        <time>2018-09-03T09:23:38Z</time>
      </trkpt>
      <trkpt lat="43.2986330" lon="-2.6369450">
        <ele>73.0</ele>
        <time>2018-09-03T09:23:40Z</time>
      </trkpt>
      <trkpt lat="43.2987200" lon="-2.6370110">
        <ele>72.6</ele>
        <time>2018-09-03T09:23:41Z</time>
      </trkpt>
      <trkpt lat="43.2988060" lon="-2.6370790">
        <ele>72.2</ele>
        <time>2018-09-03T09:23:42Z</time>
      </trkpt>
      <trkpt lat="43.2988910" lon="-2.6371490">
        <ele>71.6</ele>
        <time>2018-09-03T09:23:43Z</time>
      </trkpt>
      <trkpt lat="43.2990580" lon="-2.6373000">
        <ele>69.8</ele>
        <time>2018-09-03T09:23:45Z</time>
      </trkpt>
      <trkpt lat="43.2992140" lon="-2.6374680">
        <ele>68.2</ele>
        <time>2018-09-03T09:23:47Z</time>
      </trkpt>
      <trkpt lat="43.2993630" lon="-2.6376450">
        <ele>66.8</ele>
        <time>2018-09-03T09:23:49Z</time>
      </trkpt>
      <trkpt lat="43.2995120" lon="-2.6378280">
        <ele>66.0</ele>
        <time>2018-09-03T09:23:51Z</time>
      </trkpt>
      <trkpt lat="43.2996690" lon="-2.6379990">
        <ele>64.0</ele>
        <time>2018-09-03T09:23:53Z</time>
      </trkpt>
      <trkpt lat="43.2998370" lon="-2.6381520">
        <ele>63.0</ele>
        <time>2018-09-03T09:23:55Z</time>
      </trkpt>
      <trkpt lat="43.3000050" lon="-2.6382980">
        <ele>62.0</ele>
        <time>2018-09-03T09:23:57Z</time>
      </trkpt>
      <trkpt lat="43.3000830" lon="-2.6383770">
        <ele>61.4</ele>
        <time>2018-09-03T09:23:58Z</time>
      </trkpt>
      <trkpt lat="43.3001540" lon="-2.6384620">
        <ele>60.8</ele>
        <time>2018-09-03T09:23:59Z</time>
      </trkpt>
      <trkpt lat="43.3003600" lon="-2.6387270">
        <ele>59.6</ele>
        <time>2018-09-03T09:24:02Z</time>
      </trkpt>
      <trkpt lat="43.3004320" lon="-2.6388030">
        <ele>59.6</ele>
        <time>2018-09-03T09:24:03Z</time>
      </trkpt>
      <trkpt lat="43.3010020" lon="-2.6391470">
        <ele>59.0</ele>
        <time>2018-09-03T09:24:10Z</time>
      </trkpt>
      <trkpt lat="43.3015150" lon="-2.6393980">
        <ele>58.6</ele>
        <time>2018-09-03T09:24:16Z</time>
      </trkpt>
      <trkpt lat="43.3018690" lon="-2.6395610">
        <ele>57.0</ele>
        <time>2018-09-03T09:24:20Z</time>
      </trkpt>
      <trkpt lat="43.3019650" lon="-2.6395850">
        <ele>56.6</ele>
        <time>2018-09-03T09:24:21Z</time>
      </trkpt>
      <trkpt lat="43.3021620" lon="-2.6396040">
        <ele>56.0</ele>
        <time>2018-09-03T09:24:23Z</time>
      </trkpt>
      <trkpt lat="43.3023650" lon="-2.6396030">
        <ele>55.4</ele>
        <time>2018-09-03T09:24:25Z</time>
      </trkpt>
      <trkpt lat="43.3025640" lon="-2.6396010">
        <ele>54.8</ele>
        <time>2018-09-03T09:24:27Z</time>
      </trkpt>
      <trkpt lat="43.3027570" lon="-2.6395900">
        <ele>53.2</ele>
        <time>2018-09-03T09:24:29Z</time>
      </trkpt>
      <trkpt lat="43.3030350" lon="-2.6395920">
        <ele>52.0</ele>
        <time>2018-09-03T09:24:32Z</time>
      </trkpt>
      <trkpt lat="43.3031230" lon="-2.6396120">
        <ele>51.0</ele>
        <time>2018-09-03T09:24:33Z</time>
      </trkpt>
      <trkpt lat="43.3032070" lon="-2.6396430">
        <ele>50.2</ele>
        <time>2018-09-03T09:24:34Z</time>
      </trkpt>
      <trkpt lat="43.3033650" lon="-2.6397250">
        <ele>48.8</ele>
        <time>2018-09-03T09:24:36Z</time>
      </trkpt>
      <trkpt lat="43.3035130" lon="-2.6398190">
        <ele>48.6</ele>
        <time>2018-09-03T09:24:38Z</time>
      </trkpt>
      <trkpt lat="43.3040090" lon="-2.6401360">
        <ele>48.2</ele>
        <time>2018-09-03T09:24:45Z</time>
      </trkpt>
      <trkpt lat="43.3044090" lon="-2.6403780">
        <ele>48.2</ele>
        <time>2018-09-03T09:24:51Z</time>
      </trkpt>
      <trkpt lat="43.3045980" lon="-2.6404840">
        <ele>48.2</ele>
        <time>2018-09-03T09:24:54Z</time>
      </trkpt>
      <trkpt lat="43.3047910" lon="-2.6405490">
        <ele>48.4</ele>
        <time>2018-09-03T09:24:57Z</time>
      </trkpt>
      <trkpt lat="43.3050590" lon="-2.6405480">
        <ele>48.2</ele>
        <time>2018-09-03T09:25:01Z</time>
      </trkpt>
      <trkpt lat="43.3054740" lon="-2.6404760">
        <ele>48.4</ele>
        <time>2018-09-03T09:25:08Z</time>
      </trkpt>
      <trkpt lat="43.3055800" lon="-2.6404850">
        <ele>48.4</ele>
        <time>2018-09-03T09:25:10Z</time>
      </trkpt>
      <trkpt lat="43.3057480" lon="-2.6405470">
        <ele>48.2</ele>
        <time>2018-09-03T09:25:13Z</time>
      </trkpt>
      <trkpt lat="43.3057990" lon="-2.6405810">
        <ele>48.2</ele>
        <time>2018-09-03T09:25:14Z</time>
      </trkpt>
      <trkpt lat="43.3059820" lon="-2.6407660">
        <ele>48.0</ele>
        <time>2018-09-03T09:25:18Z</time>
      </trkpt>
      <trkpt lat="43.3061050" lon="-2.6409290">
        <ele>47.8</ele>
        <time>2018-09-03T09:25:21Z</time>
      </trkpt>
      <trkpt lat="43.3062820" lon="-2.6411550">
        <ele>47.6</ele>
        <time>2018-09-03T09:25:25Z</time>
      </trkpt>
      <trkpt lat="43.3064270" lon="-2.6413280">
        <ele>46.8</ele>
        <time>2018-09-03T09:25:28Z</time>
      </trkpt>
      <trkpt lat="43.3066070" lon="-2.6415460">
        <ele>45.8</ele>
        <time>2018-09-03T09:25:32Z</time>
      </trkpt>
      <trkpt lat="43.3067450" lon="-2.6416970">
        <ele>45.2</ele>
        <time>2018-09-03T09:25:35Z</time>
      </trkpt>
      <trkpt lat="43.3068500" lon="-2.6417820">
        <ele>44.6</ele>
        <time>2018-09-03T09:25:37Z</time>
      </trkpt>
      <trkpt lat="43.3070210" lon="-2.6418710">
        <ele>44.2</ele>
        <time>2018-09-03T09:25:40Z</time>
      </trkpt>
      <trkpt lat="43.3073870" lon="-2.6419950">
        <ele>43.6</ele>
        <time>2018-09-03T09:25:46Z</time>
      </trkpt>
      <trkpt lat="43.3077520" lon="-2.6421430">
        <ele>43.0</ele>
        <time>2018-09-03T09:25:52Z</time>
      </trkpt>
      <trkpt lat="43.3078550" lon="-2.6422390">
        <ele>42.6</ele>
        <time>2018-09-03T09:25:54Z</time>
      </trkpt>
      <trkpt lat="43.3080240" lon="-2.6427010">
        <ele>42.2</ele>
        <time>2018-09-03T09:26:00Z</time>
      </trkpt>
      <trkpt lat="43.3080720" lon="-2.6429480">
        <ele>42.0</ele>
        <time>2018-09-03T09:26:03Z</time>
      </trkpt>
      <trkpt lat="43.3082040" lon="-2.6433310">
        <ele>41.6</ele>
        <time>2018-09-03T09:26:08Z</time>
      </trkpt>
      <trkpt lat="43.3084210" lon="-2.6436470">
        <ele>40.4</ele>
        <time>2018-09-03T09:26:13Z</time>
      </trkpt>
      <trkpt lat="43.3088270" lon="-2.6442190">
        <ele>39.6</ele>
        <time>2018-09-03T09:26:22Z</time>
      </trkpt>
      <trkpt lat="43.3089760" lon="-2.6444010">
        <ele>39.4</ele>
        <time>2018-09-03T09:26:25Z</time>
      </trkpt>
      <trkpt lat="43.3090260" lon="-2.6444590">
        <ele>39.0</ele>
        <time>2018-09-03T09:26:26Z</time>
      </trkpt>
      <trkpt lat="43.3091720" lon="-2.6446330">
        <ele>38.0</ele>
        <time>2018-09-03T09:26:29Z</time>
      </trkpt>
      <trkpt lat="43.3092720" lon="-2.6447570">
        <ele>37.2</ele>
        <time>2018-09-03T09:26:31Z</time>
      </trkpt>
      <trkpt lat="43.3093230" lon="-2.6448200">
        <ele>37.0</ele>
        <time>2018-09-03T09:26:32Z</time>
      </trkpt>
      <trkpt lat="43.3094250" lon="-2.6449430">
        <ele>36.6</ele>
        <time>2018-09-03T09:26:34Z</time>
      </trkpt>
      <trkpt lat="43.3095760" lon="-2.6451280">
        <ele>36.2</ele>
        <time>2018-09-03T09:26:37Z</time>
      </trkpt>
      <trkpt lat="43.3096260" lon="-2.6451890">
        <ele>36.0</ele>
        <time>2018-09-03T09:26:38Z</time>
      </trkpt>
      <trkpt lat="43.3100380" lon="-2.6456890">
        <ele>35.0</ele>
        <time>2018-09-03T09:26:46Z</time>
      </trkpt>
      <trkpt lat="43.3102040" lon="-2.6458630">
        <ele>34.8</ele>
        <time>2018-09-03T09:26:49Z</time>
      </trkpt>
      <trkpt lat="43.3105500" lon="-2.6461590">
        <ele>34.4</ele>
        <time>2018-09-03T09:26:55Z</time>
      </trkpt>
      <trkpt lat="43.3110540" lon="-2.6465810">
        <ele>34.4</ele>
        <time>2018-09-03T09:27:04Z</time>
      </trkpt>
      <trkpt lat="43.3115240" lon="-2.6469730">
        <ele>34.4</ele>
        <time>2018-09-03T09:27:12Z</time>
      </trkpt>
      <trkpt lat="43.3119890" lon="-2.6473570">
        <ele>33.8</ele>
        <time>2018-09-03T09:27:20Z</time>
      </trkpt>
      <trkpt lat="43.3124970" lon="-2.6477650">
        <ele>33.4</ele>
        <time>2018-09-03T09:27:29Z</time>
      </trkpt>
      <trkpt lat="43.3129540" lon="-2.6482450">
        <ele>33.2</ele>
        <time>2018-09-03T09:27:38Z</time>
      </trkpt>
      <trkpt lat="43.3134080" lon="-2.6486850">
        <ele>33.2</ele>
        <time>2018-09-03T09:27:47Z</time>
      </trkpt>
      <trkpt lat="43.3138280" lon="-2.6490800">
        <ele>33.8</ele>
        <time>2018-09-03T09:27:56Z</time>
      </trkpt>
      <trkpt lat="43.3141620" lon="-2.6493740">
        <ele>34.0</ele>
        <time>2018-09-03T09:28:04Z</time>
      </trkpt>
      <trkpt lat="43.3145170" lon="-2.6496910">
        <ele>35.0</ele>
        <time>2018-09-03T09:28:13Z</time>
      </trkpt>
      <trkpt lat="43.3145860" lon="-2.6497770">
        <ele>35.2</ele>
        <time>2018-09-03T09:28:15Z</time>
      </trkpt>
      <trkpt lat="43.3147790" lon="-2.6500580">
        <ele>35.4</ele>
        <time>2018-09-03T09:28:21Z</time>
      </trkpt>
      <trkpt lat="43.3148710" lon="-2.6502690">
        <ele>35.8</ele>
        <time>2018-09-03T09:28:25Z</time>
      </trkpt>
      <trkpt lat="43.3148860" lon="-2.6503240">
        <ele>35.8</ele>
        <time>2018-09-03T09:28:26Z</time>
      </trkpt>
      <trkpt lat="43.3149200" lon="-2.6505460">
        <ele>36.2</ele>
        <time>2018-09-03T09:28:30Z</time>
      </trkpt>
      <trkpt lat="43.3149230" lon="-2.6506060">
        <ele>36.4</ele>
        <time>2018-09-03T09:28:31Z</time>
      </trkpt>
      <trkpt lat="43.3149170" lon="-2.6508410">
        <ele>36.6</ele>
        <time>2018-09-03T09:28:35Z</time>
      </trkpt>
      <trkpt lat="43.3146450" lon="-2.6513020">
        <ele>37.0</ele>
        <time>2018-09-03T09:28:44Z</time>
      </trkpt>
      <trkpt lat="43.3144500" lon="-2.6514990">
        <ele>37.2</ele>
        <time>2018-09-03T09:28:49Z</time>
      </trkpt>
      <trkpt lat="43.3143210" lon="-2.6518080">
        <ele>37.2</ele>
        <time>2018-09-03T09:28:54Z</time>
      </trkpt>
      <trkpt lat="43.3143000" lon="-2.6520470">
        <ele>37.0</ele>
        <time>2018-09-03T09:28:57Z</time>
      </trkpt>
      <trkpt lat="43.3143590" lon="-2.6524650">
        <ele>36.4</ele>
        <time>2018-09-03T09:29:02Z</time>
      </trkpt>
      <trkpt lat="43.3144360" lon="-2.6526110">
        <ele>36.0</ele>
        <time>2018-09-03T09:29:04Z</time>
      </trkpt>
      <trkpt lat="43.3147740" lon="-2.6529300">
        <ele>35.4</ele>
        <time>2018-09-03T09:29:10Z</time>
      </trkpt>
      <trkpt lat="43.3148370" lon="-2.6529770">
        <ele>35.2</ele>
        <time>2018-09-03T09:29:11Z</time>
      </trkpt>
      <trkpt lat="43.3149500" lon="-2.6530880">
        <ele>35.0</ele>
        <time>2018-09-03T09:29:13Z</time>
      </trkpt>
      <trkpt lat="43.3149950" lon="-2.6531620">
        <ele>34.8</ele>
        <time>2018-09-03T09:29:14Z</time>
      </trkpt>
      <trkpt lat="43.3151180" lon="-2.6534390">
        <ele>34.4</ele>
        <time>2018-09-03T09:29:18Z</time>
      </trkpt>
      <trkpt lat="43.3151280" lon="-2.6535150">
        <ele>34.4</ele>
        <time>2018-09-03T09:29:19Z</time>
      </trkpt>
      <trkpt lat="43.3151000" lon="-2.6538670">
        <ele>34.2</ele>
        <time>2018-09-03T09:29:23Z</time>
      </trkpt>
      <trkpt lat="43.3150810" lon="-2.6541510">
        <ele>34.0</ele>
        <time>2018-09-03T09:29:26Z</time>
      </trkpt>
      <trkpt lat="43.3150960" lon="-2.6543490">
        <ele>33.8</ele>
        <time>2018-09-03T09:29:28Z</time>
      </trkpt>
      <trkpt lat="43.3151730" lon="-2.6545220">
        <ele>33.6</ele>
        <time>2018-09-03T09:29:30Z</time>
      </trkpt>
      <trkpt lat="43.3153660" lon="-2.6545630">
        <ele>33.2</ele>
        <time>2018-09-03T09:29:33Z</time>
      </trkpt>
      <trkpt lat="43.3154300" lon="-2.6545580">
        <ele>33.0</ele>
        <time>2018-09-03T09:29:34Z</time>
      </trkpt>
      <trkpt lat="43.3154990" lon="-2.6545530">
        <ele>32.2</ele>
        <time>2018-09-03T09:29:35Z</time>
      </trkpt>
      <trkpt lat="43.3156370" lon="-2.6545370">
        <ele>31.4</ele>
        <time>2018-09-03T09:29:37Z</time>
      </trkpt>
      <trkpt lat="43.3159310" lon="-2.6545400">
        <ele>31.2</ele>
        <time>2018-09-03T09:29:41Z</time>
      </trkpt>
      <trkpt lat="43.3159980" lon="-2.6545260">
        <ele>31.0</ele>
        <time>2018-09-03T09:29:42Z</time>
      </trkpt>
      <trkpt lat="43.3163000" lon="-2.6542270">
        <ele>30.6</ele>
        <time>2018-09-03T09:29:47Z</time>
      </trkpt>
      <trkpt lat="43.3163550" lon="-2.6541440">
        <ele>30.6</ele>
        <time>2018-09-03T09:29:48Z</time>
      </trkpt>
      <trkpt lat="43.3164680" lon="-2.6538790">
        <ele>30.8</ele>
        <time>2018-09-03T09:29:51Z</time>
      </trkpt>
      <trkpt lat="43.3165370" lon="-2.6537160">
        <ele>30.4</ele>
        <time>2018-09-03T09:29:53Z</time>
      </trkpt>
      <trkpt lat="43.3166480" lon="-2.6536090">
        <ele>30.0</ele>
        <time>2018-09-03T09:29:55Z</time>
      </trkpt>
      <trkpt lat="43.3168540" lon="-2.6536560">
        <ele>29.8</ele>
        <time>2018-09-03T09:29:58Z</time>
      </trkpt>
      <trkpt lat="43.3169970" lon="-2.6538630">
        <ele>29.6</ele>
        <time>2018-09-03T09:30:01Z</time>
      </trkpt>
      <trkpt lat="43.3170380" lon="-2.6539450">
        <ele>29.4</ele>
        <time>2018-09-03T09:30:02Z</time>
      </trkpt>
      <trkpt lat="43.3171690" lon="-2.6542150">
        <ele>28.8</ele>
        <time>2018-09-03T09:30:05Z</time>
      </trkpt>
      <trkpt lat="43.3172220" lon="-2.6543030">
        <ele>28.0</ele>
        <time>2018-09-03T09:30:06Z</time>
      </trkpt>
      <trkpt lat="43.3172810" lon="-2.6543820">
        <ele>27.6</ele>
        <time>2018-09-03T09:30:07Z</time>
      </trkpt>
      <trkpt lat="43.3176770" lon="-2.6545530">
        <ele>27.0</ele>
        <time>2018-09-03T09:30:12Z</time>
      </trkpt>
      <trkpt lat="43.3177590" lon="-2.6545360">
        <ele>26.8</ele>
        <time>2018-09-03T09:30:13Z</time>
      </trkpt>
      <trkpt lat="43.3178420" lon="-2.6545030">
        <ele>26.4</ele>
        <time>2018-09-03T09:30:14Z</time>
      </trkpt>
      <trkpt lat="43.3179200" lon="-2.6544580">
        <ele>26.4</ele>
        <time>2018-09-03T09:30:15Z</time>
      </trkpt>
      <trkpt lat="43.3180020" lon="-2.6544100">
        <ele>26.2</ele>
        <time>2018-09-03T09:30:16Z</time>
      </trkpt>
      <trkpt lat="43.3182680" lon="-2.6542530">
        <ele>25.8</ele>
        <time>2018-09-03T09:30:19Z</time>
      </trkpt>
      <trkpt lat="43.3183610" lon="-2.6542280">
        <ele>25.2</ele>
        <time>2018-09-03T09:30:20Z</time>
      </trkpt>
      <trkpt lat="43.3185430" lon="-2.6542460">
        <ele>24.2</ele>
        <time>2018-09-03T09:30:22Z</time>
      </trkpt>
      <trkpt lat="43.3187220" lon="-2.6543360">
        <ele>23.2</ele>
        <time>2018-09-03T09:30:24Z</time>
      </trkpt>
      <trkpt lat="43.3188050" lon="-2.6544030">
        <ele>22.8</ele>
        <time>2018-09-03T09:30:25Z</time>
      </trkpt>
      <trkpt lat="43.3188860" lon="-2.6544700">
        <ele>22.0</ele>
        <time>2018-09-03T09:30:26Z</time>
      </trkpt>
      <trkpt lat="43.3190510" lon="-2.6546100">
        <ele>20.6</ele>
        <time>2018-09-03T09:30:28Z</time>
      </trkpt>
      <trkpt lat="43.3193030" lon="-2.6548080">
        <ele>19.6</ele>
        <time>2018-09-03T09:30:31Z</time>
      </trkpt>
      <trkpt lat="43.3195480" lon="-2.6550240">
        <ele>18.6</ele>
        <time>2018-09-03T09:30:34Z</time>
      </trkpt>
      <trkpt lat="43.3196200" lon="-2.6551110">
        <ele>18.4</ele>
        <time>2018-09-03T09:30:35Z</time>
      </trkpt>
      <trkpt lat="43.3197440" lon="-2.6553010">
        <ele>17.2</ele>
        <time>2018-09-03T09:30:37Z</time>
      </trkpt>
      <trkpt lat="43.3198740" lon="-2.6554740">
        <ele>16.4</ele>
        <time>2018-09-03T09:30:39Z</time>
      </trkpt>
      <trkpt lat="43.3200900" lon="-2.6556630">
        <ele>16.2</ele>
        <time>2018-09-03T09:30:42Z</time>
      </trkpt>
      <trkpt lat="43.3201650" lon="-2.6557130">
        <ele>16.2</ele>
        <time>2018-09-03T09:30:43Z</time>
      </trkpt>
      <trkpt lat="43.3204320" lon="-2.6558990">
        <ele>16.2</ele>
        <time>2018-09-03T09:30:47Z</time>
      </trkpt>
      <trkpt lat="43.3205480" lon="-2.6561130">
        <ele>16.6</ele>
        <time>2018-09-03T09:30:50Z</time>
      </trkpt>
      <trkpt lat="43.3205680" lon="-2.6561980">
        <ele>16.4</ele>
        <time>2018-09-03T09:30:51Z</time>
      </trkpt>
      <trkpt lat="43.3205700" lon="-2.6562870">
        <ele>16.6</ele>
        <time>2018-09-03T09:30:52Z</time>
      </trkpt>
      <trkpt lat="43.3205650" lon="-2.6563780">
        <ele>16.6</ele>
        <time>2018-09-03T09:30:53Z</time>
      </trkpt>
      <trkpt lat="43.3205570" lon="-2.6564680">
        <ele>16.6</ele>
        <time>2018-09-03T09:30:54Z</time>
      </trkpt>
      <trkpt lat="43.3205460" lon="-2.6565580">
        <ele>16.6</ele>
        <time>2018-09-03T09:30:55Z</time>
      </trkpt>
      <trkpt lat="43.3205390" lon="-2.6566450">
        <ele>16.6</ele>
        <time>2018-09-03T09:30:56Z</time>
      </trkpt>
      <trkpt lat="43.3205360" lon="-2.6567290">
        <ele>16.6</ele>
        <time>2018-09-03T09:30:57Z</time>
      </trkpt>
      <trkpt lat="43.3205510" lon="-2.6568160">
        <ele>16.6</ele>
        <time>2018-09-03T09:30:58Z</time>
      </trkpt>
      <trkpt lat="43.3206420" lon="-2.6575490">
        <ele>17.0</ele>
        <time>2018-09-03T09:31:07Z</time>
      </trkpt>
      <trkpt lat="43.3207460" lon="-2.6583330">
        <ele>17.0</ele>
        <time>2018-09-03T09:31:17Z</time>
      </trkpt>
      <trkpt lat="43.3207690" lon="-2.6585770">
        <ele>17.4</ele>
        <time>2018-09-03T09:31:20Z</time>
      </trkpt>
      <trkpt lat="43.3208720" lon="-2.6591910">
        <ele>17.4</ele>
        <time>2018-09-03T09:31:28Z</time>
      </trkpt>
      <trkpt lat="43.3209010" lon="-2.6593240">
        <ele>17.6</ele>
        <time>2018-09-03T09:31:30Z</time>
      </trkpt>
      <trkpt lat="43.3209850" lon="-2.6601280">
        <ele>16.8</ele>
        <time>2018-09-03T09:31:41Z</time>
      </trkpt>
      <trkpt lat="43.3209900" lon="-2.6602800">
        <ele>16.6</ele>
        <time>2018-09-03T09:31:43Z</time>
      </trkpt>
      <trkpt lat="43.3209900" lon="-2.6604430">
        <ele>16.4</ele>
        <time>2018-09-03T09:31:45Z</time>
      </trkpt>
      <trkpt lat="43.3210020" lon="-2.6609410">
        <ele>16.2</ele>
        <time>2018-09-03T09:31:51Z</time>
      </trkpt>
      <trkpt lat="43.3209720" lon="-2.6616850">
        <ele>15.4</ele>
        <time>2018-09-03T09:32:00Z</time>
      </trkpt>
      <trkpt lat="43.3209310" lon="-2.6618450">
        <ele>15.2</ele>
        <time>2018-09-03T09:32:02Z</time>
      </trkpt>
      <trkpt lat="43.3207230" lon="-2.6625620">
        <ele>15.0</ele>
        <time>2018-09-03T09:32:11Z</time>
      </trkpt>
      <trkpt lat="43.3205020" lon="-2.6632340">
        <ele>15.0</ele>
        <time>2018-09-03T09:32:19Z</time>
      </trkpt>
      <trkpt lat="43.3204450" lon="-2.6633960">
        <ele>14.6</ele>
        <time>2018-09-03T09:32:21Z</time>
      </trkpt>
      <trkpt lat="43.3203670" lon="-2.6636310">
        <ele>14.2</ele>
        <time>2018-09-03T09:32:24Z</time>
      </trkpt>
      <trkpt lat="43.3203160" lon="-2.6637890">
        <ele>14.2</ele>
        <time>2018-09-03T09:32:26Z</time>
      </trkpt>
      <trkpt lat="43.3202660" lon="-2.6639300">
        <ele>14.0</ele>
        <time>2018-09-03T09:32:28Z</time>
      </trkpt>
      <trkpt lat="43.3202190" lon="-2.6640600">
        <ele>14.0</ele>
        <time>2018-09-03T09:32:30Z</time>
      </trkpt>
      <trkpt lat="43.3201790" lon="-2.6641780">
        <ele>14.0</ele>
        <time>2018-09-03T09:32:32Z</time>
      </trkpt>
      <trkpt lat="43.3201460" lon="-2.6642900">
        <ele>14.0</ele>
        <time>2018-09-03T09:32:34Z</time>
      </trkpt>
      <trkpt lat="43.3201190" lon="-2.6644080">
        <ele>14.0</ele>
        <time>2018-09-03T09:32:36Z</time>
      </trkpt>
      <trkpt lat="43.3200460" lon="-2.6647460">
        <ele>13.8</ele>
        <time>2018-09-03T09:32:42Z</time>
      </trkpt>
      <trkpt lat="43.3200270" lon="-2.6648410">
        <ele>13.6</ele>
        <time>2018-09-03T09:32:44Z</time>
      </trkpt>
      <trkpt lat="43.3200120" lon="-2.6649260">
        <ele>13.6</ele>
        <time>2018-09-03T09:32:46Z</time>
      </trkpt>
      <trkpt lat="43.3199630" lon="-2.6651810">
        <ele>13.6</ele>
        <time>2018-09-03T09:32:50Z</time>
      </trkpt>
      <trkpt lat="43.3199280" lon="-2.6653270">
        <ele>13.4</ele>
        <time>2018-09-03T09:32:52Z</time>
      </trkpt>
      <trkpt lat="43.3197380" lon="-2.6659810">
        <ele>12.6</ele>
        <time>2018-09-03T09:33:02Z</time>
      </trkpt>
      <trkpt lat="43.3197280" lon="-2.6660090">
        <ele>12.4</ele>
        <time>2018-09-03T09:33:03Z</time>
      </trkpt>
      <trkpt lat="43.3197150" lon="-2.6660450">
        <ele>12.4</ele>
        <time>2018-09-03T09:33:05Z</time>
      </trkpt>
      <trkpt lat="43.3196980" lon="-2.6660870">
        <ele>12.2</ele>
        <time>2018-09-03T09:33:07Z</time>
      </trkpt>
      <trkpt lat="43.3196950" lon="-2.6661960">
        <ele>12.2</ele>
        <time>2018-09-03T09:33:10Z</time>
      </trkpt>
      <trkpt lat="43.3197050" lon="-2.6662880">
        <ele>12.4</ele>
        <time>2018-09-03T09:33:12Z</time>
      </trkpt>
      <trkpt lat="43.3197080" lon="-2.6663960">
        <ele>12.4</ele>
        <time>2018-09-03T09:33:14Z</time>
      </trkpt>
      <trkpt lat="43.3197030" lon="-2.6664530">
        <ele>12.4</ele>
        <time>2018-09-03T09:33:15Z</time>
      </trkpt>
      <trkpt lat="43.3196450" lon="-2.6666190">
        <ele>12.4</ele>
        <time>2018-09-03T09:33:18Z</time>
      </trkpt>
      <trkpt lat="43.3195780" lon="-2.6667090">
        <ele>12.4</ele>
        <time>2018-09-03T09:33:20Z</time>
      </trkpt>
      <trkpt lat="43.3194770" lon="-2.6668650">
        <ele>12.4</ele>
        <time>2018-09-03T09:33:23Z</time>
      </trkpt>
      <trkpt lat="43.3192880" lon="-2.6675820">
        <ele>12.0</ele>
        <time>2018-09-03T09:33:33Z</time>
      </trkpt>
      <trkpt lat="43.3192810" lon="-2.6677270">
        <ele>11.8</ele>
        <time>2018-09-03T09:33:35Z</time>
      </trkpt>
      <trkpt lat="43.3192870" lon="-2.6684680">
        <ele>11.8</ele>
        <time>2018-09-03T09:33:45Z</time>
      </trkpt>
      <trkpt lat="43.3192930" lon="-2.6686860">
        <ele>11.8</ele>
        <time>2018-09-03T09:33:48Z</time>
      </trkpt>
      <trkpt lat="43.3193000" lon="-2.6688200">
        <ele>11.8</ele>
        <time>2018-09-03T09:33:50Z</time>
      </trkpt>
      <trkpt lat="43.3193200" lon="-2.6691600">
        <ele>11.8</ele>
        <time>2018-09-03T09:33:55Z</time>
      </trkpt>
      <trkpt lat="43.3193260" lon="-2.6696010">
        <ele>11.8</ele>
        <time>2018-09-03T09:34:01Z</time>
      </trkpt>
      <trkpt lat="43.3193190" lon="-2.6698970">
        <ele>11.8</ele>
        <time>2018-09-03T09:34:05Z</time>
      </trkpt>
      <trkpt lat="43.3193270" lon="-2.6700310">
        <ele>11.8</ele>
        <time>2018-09-03T09:34:07Z</time>
      </trkpt>
      <trkpt lat="43.3191890" lon="-2.6707970">
        <ele>11.6</ele>
        <time>2018-09-03T09:34:18Z</time>
      </trkpt>
      <trkpt lat="43.3191200" lon="-2.6712150">
        <ele>11.6</ele>
        <time>2018-09-03T09:34:25Z</time>
      </trkpt>
      <trkpt lat="43.3190850" lon="-2.6714110">
        <ele>11.6</ele>
        <time>2018-09-03T09:34:28Z</time>
      </trkpt>
      <trkpt lat="43.3190130" lon="-2.6719750">
        <ele>11.6</ele>
        <time>2018-09-03T09:34:38Z</time>
      </trkpt>
      <trkpt lat="43.3192910" lon="-2.6721920">
        <ele>11.6</ele>
        <time>2018-09-03T09:34:46Z</time>
      </trkpt>
      <trkpt lat="43.3193450" lon="-2.6722560">
        <ele>11.6</ele>
        <time>2018-09-03T09:34:48Z</time>
      </trkpt>
      <trkpt lat="43.3194030" lon="-2.6723130">
        <ele>11.4</ele>
        <time>2018-09-03T09:34:50Z</time>
      </trkpt>
      <trkpt lat="43.3194640" lon="-2.6723660">
        <ele>11.2</ele>
        <time>2018-09-03T09:34:52Z</time>
      </trkpt>
      <trkpt lat="43.3195310" lon="-2.6724340">
        <ele>10.8</ele>
        <time>2018-09-03T09:34:57Z</time>
      </trkpt>
      <trkpt lat="43.3195180" lon="-2.6724320">
        <ele>10.8</ele>
        <time>2018-09-03T09:35:00Z</time>
      </trkpt>
      <trkpt lat="43.3194860" lon="-2.6724610">
        <ele>10.8</ele>
        <time>2018-09-03T09:35:06Z</time>
      </trkpt>
      <trkpt lat="43.3194400" lon="-2.6725010">
        <ele>11.0</ele>
        <time>2018-09-03T09:35:09Z</time>
      </trkpt>
      <trkpt lat="43.3191990" lon="-2.6727030">
        <ele>11.0</ele>
        <time>2018-09-03T09:35:21Z</time>
      </trkpt>
      <trkpt lat="43.3192430" lon="-2.6727520">
        <ele>11.0</ele>
        <time>2018-09-03T09:35:25Z</time>
      </trkpt>
      <trkpt lat="43.3193840" lon="-2.6728200">
        <ele>11.0</ele>
        <time>2018-09-03T09:35:30Z</time>
      </trkpt>
      <trkpt lat="43.3193740" lon="-2.6727940">
        <ele>10.8</ele>
        <time>2018-09-03T09:35:31Z</time>
      </trkpt>
      <trkpt lat="43.3193300" lon="-2.6727490">
        <ele>10.6</ele>
        <time>2018-09-03T09:35:33Z</time>
      </trkpt>
      <trkpt lat="43.3193100" lon="-2.6727290">
        <ele>10.6</ele>
        <time>2018-09-03T09:35:34Z</time>
      </trkpt>
      <trkpt lat="43.3192990" lon="-2.6726910">
        <ele>10.6</ele>
        <time>2018-09-03T09:35:52Z</time>
      </trkpt>
      <trkpt lat="43.3192980" lon="-2.6726910">
        <ele>10.6</ele>
        <time>2018-09-03T09:36:04Z</time>
      </trkpt>
      <trkpt lat="43.3192990" lon="-2.6726900">
        <ele>10.6</ele>
        <time>2018-09-03T09:36:14Z</time>
      </trkpt>
      <trkpt lat="43.3192920" lon="-2.6726880">
        <ele>10.6</ele>
        <time>2018-09-03T09:36:16Z</time>
      </trkpt>
      <trkpt lat="43.3192550" lon="-2.6727060">
        <ele>10.8</ele>
        <time>2018-09-03T09:36:24Z</time>
      </trkpt>
      <trkpt lat="43.3192460" lon="-2.6727150">
        <ele>10.8</ele>
        <time>2018-09-03T09:36:26Z</time>
      </trkpt>
      <trkpt lat="43.3192340" lon="-2.6727250">
        <ele>10.8</ele>
        <time>2018-09-03T09:36:29Z</time>
      </trkpt>
      <trkpt lat="43.3192340" lon="-2.6727260">
        <ele>11.0</ele>
        <time>2018-09-03T09:36:32Z</time>
      </trkpt>
      <trkpt lat="43.3192340" lon="-2.6727240">
        <ele>11.0</ele>
        <time>2018-09-03T09:36:34Z</time>
      </trkpt>
      <trkpt lat="43.3192440" lon="-2.6727220">
        <ele>11.0</ele>
        <time>2018-09-03T09:36:44Z</time>
      </trkpt>
      <trkpt lat="43.3192440" lon="-2.6727210">
        <ele>11.0</ele>
        <time>2018-09-03T09:36:58Z</time>
      </trkpt>
      <trkpt lat="43.3192440" lon="-2.6727200">
        <ele>11.2</ele>
        <time>2018-09-03T09:37:30Z</time>
      </trkpt>
      <trkpt lat="43.3192440" lon="-2.6727200">
        <ele>11.2</ele>
        <time>2018-09-03T09:37:32Z</time>
      </trkpt>
      <trkpt lat="43.3192440" lon="-2.6727200">
        <ele>11.2</ele>
        <time>2018-09-03T09:37:35Z</time>
      </trkpt>
      <trkpt lat="43.3192440" lon="-2.6727200">
        <ele>11.2</ele>
        <time>2018-09-03T09:37:39Z</time>
      </trkpt>
      <trkpt lat="43.3192440" lon="-2.6727200">
        <ele>11.2</ele>
        <time>2018-09-03T09:37:41Z</time>
      </trkpt>
      <trkpt lat="43.3192440" lon="-2.6727200">
        <ele>11.2</ele>
        <time>2018-09-03T09:37:50Z</time>
      </trkpt>
      <trkpt lat="43.3192440" lon="-2.6727200">
        <ele>11.2</ele>
        <time>2018-09-03T09:37:54Z</time>
      </trkpt>
      <trkpt lat="43.3192440" lon="-2.6727170">
        <ele>11.4</ele>
        <time>2018-09-03T09:38:39Z</time>
      </trkpt>
      <trkpt lat="43.3192440" lon="-2.6727170">
        <ele>11.4</ele>
        <time>2018-09-03T09:39:03Z</time>
      </trkpt>
      <trkpt lat="43.3192440" lon="-2.6727170">
        <ele>11.4</ele>
        <time>2018-09-03T09:39:09Z</time>
      </trkpt>
      <trkpt lat="43.3192440" lon="-2.6727170">
        <ele>11.4</ele>
        <time>2018-09-03T09:39:33Z</time>
      </trkpt>
      <trkpt lat="43.3192440" lon="-2.6727170">
        <ele>11.4</ele>
        <time>2018-09-03T09:39:36Z</time>
      </trkpt>
      <trkpt lat="43.3192440" lon="-2.6727170">
        <ele>11.4</ele>
        <time>2018-09-03T09:39:42Z</time>
      </trkpt>
      <trkpt lat="43.3192440" lon="-2.6727170">
        <ele>11.4</ele>
        <time>2018-09-03T09:39:50Z</time>
      </trkpt>
      <trkpt lat="43.3192440" lon="-2.6727170">
        <ele>11.4</ele>
        <time>2018-09-03T09:39:54Z</time>
      </trkpt>
      <trkpt lat="43.3192440" lon="-2.6727170">
        <ele>11.4</ele>
        <time>2018-09-03T09:40:03Z</time>
      </trkpt>
      <trkpt lat="43.3192440" lon="-2.6727170">
        <ele>11.4</ele>
        <time>2018-09-03T09:40:20Z</time>
      </trkpt>
      <trkpt lat="43.3192440" lon="-2.6727170">
        <ele>11.4</ele>
        <time>2018-09-03T09:40:29Z</time>
      </trkpt>
      <trkpt lat="43.3192440" lon="-2.6727170">
        <ele>11.4</ele>
        <time>2018-09-03T09:40:32Z</time>
      </trkpt>
      <trkpt lat="43.3192440" lon="-2.6727170">
        <ele>11.6</ele>
        <time>2018-09-03T09:40:45Z</time>
      </trkpt>
      <trkpt lat="43.3192440" lon="-2.6727170">
        <ele>11.6</ele>
        <time>2018-09-03T09:40:48Z</time>
      </trkpt>
      <trkpt lat="43.3192430" lon="-2.6727190">
        <ele>11.6</ele>
        <time>2018-09-03T09:40:54Z</time>
      </trkpt>
      <trkpt lat="43.3192250" lon="-2.6727290">
        <ele>11.6</ele>
        <time>2018-09-03T09:40:58Z</time>
      </trkpt>
      <trkpt lat="43.3192160" lon="-2.6727340">
        <ele>11.6</ele>
        <time>2018-09-03T09:41:00Z</time>
      </trkpt>
      <trkpt lat="43.3191880" lon="-2.6727310">
        <ele>11.6</ele>
        <time>2018-09-03T09:41:02Z</time>
      </trkpt>
      <trkpt lat="43.3191790" lon="-2.6727330">
        <ele>11.6</ele>
        <time>2018-09-03T09:41:03Z</time>
      </trkpt>
      <trkpt lat="43.3191160" lon="-2.6727260">
        <ele>12.0</ele>
        <time>2018-09-03T09:41:11Z</time>
      </trkpt>
      <trkpt lat="43.3190620" lon="-2.6727510">
        <ele>12.2</ele>
        <time>2018-09-03T09:41:16Z</time>
      </trkpt>
      <trkpt lat="43.3190220" lon="-2.6727970">
        <ele>12.4</ele>
        <time>2018-09-03T09:41:19Z</time>
      </trkpt>
      <trkpt lat="43.3189510" lon="-2.6728700">
        <ele>12.4</ele>
        <time>2018-09-03T09:41:24Z</time>
      </trkpt>
      <trkpt lat="43.3189090" lon="-2.6729110">
        <ele>12.4</ele>
        <time>2018-09-03T09:41:27Z</time>
      </trkpt>
      <trkpt lat="43.3188690" lon="-2.6729420">
        <ele>12.4</ele>
        <time>2018-09-03T09:41:30Z</time>
      </trkpt>
      <trkpt lat="43.3188060" lon="-2.6730350">
        <ele>12.4</ele>
        <time>2018-09-03T09:41:35Z</time>
      </trkpt>
      <trkpt lat="43.3187810" lon="-2.6730750">
        <ele>12.6</ele>
        <time>2018-09-03T09:41:38Z</time>
      </trkpt>
      <trkpt lat="43.3186760" lon="-2.6731940">
        <ele>13.0</ele>
        <time>2018-09-03T09:41:46Z</time>
      </trkpt>
      <trkpt lat="43.3186520" lon="-2.6732160">
        <ele>13.0</ele>
        <time>2018-09-03T09:41:48Z</time>
      </trkpt>
      <trkpt lat="43.3186310" lon="-2.6732380">
        <ele>13.2</ele>
        <time>2018-09-03T09:41:51Z</time>
      </trkpt>
      <trkpt lat="43.3186080" lon="-2.6732700">
        <ele>13.6</ele>
        <time>2018-09-03T09:41:55Z</time>
      </trkpt>
      <trkpt lat="43.3185780" lon="-2.6732900">
        <ele>13.8</ele>
        <time>2018-09-03T09:42:00Z</time>
      </trkpt>
      <trkpt lat="43.3185530" lon="-2.6732860">
        <ele>13.8</ele>
        <time>2018-09-03T09:42:04Z</time>
      </trkpt>
      <trkpt lat="43.3185120" lon="-2.6733630">
        <ele>14.0</ele>
        <time>2018-09-03T09:42:13Z</time>
      </trkpt>
      <trkpt lat="43.3184500" lon="-2.6734780">
        <ele>14.0</ele>
        <time>2018-09-03T09:42:19Z</time>
      </trkpt>
      <trkpt lat="43.3184200" lon="-2.6735260">
        <ele>13.8</ele>
        <time>2018-09-03T09:42:22Z</time>
      </trkpt>
      <trkpt lat="43.3183960" lon="-2.6735390">
        <ele>13.8</ele>
        <time>2018-09-03T09:42:28Z</time>
      </trkpt>
      <trkpt lat="43.3183940" lon="-2.6735410">
        <ele>13.8</ele>
        <time>2018-09-03T09:42:32Z</time>
      </trkpt>
      <trkpt lat="43.3183910" lon="-2.6735430">
        <ele>13.8</ele>
        <time>2018-09-03T09:42:35Z</time>
      </trkpt>
      <trkpt lat="43.3183930" lon="-2.6735440">
        <ele>13.8</ele>
        <time>2018-09-03T09:42:38Z</time>
      </trkpt>
      <trkpt lat="43.3183930" lon="-2.6735470">
        <ele>13.8</ele>
        <time>2018-09-03T09:42:50Z</time>
      </trkpt>
      <trkpt lat="43.3183930" lon="-2.6735480">
        <ele>13.8</ele>
        <time>2018-09-03T09:42:53Z</time>
      </trkpt>
      <trkpt lat="43.3183930" lon="-2.6735490">
        <ele>13.8</ele>
        <time>2018-09-03T09:42:56Z</time>
      </trkpt>
      <trkpt lat="43.3183930" lon="-2.6735490">
        <ele>13.8</ele>
        <time>2018-09-03T09:43:03Z</time>
      </trkpt>
      <trkpt lat="43.3183930" lon="-2.6735490">
        <ele>13.8</ele>
        <time>2018-09-03T09:43:11Z</time>
      </trkpt>
      <trkpt lat="43.3183970" lon="-2.6735490">
        <ele>13.8</ele>
        <time>2018-09-03T09:43:25Z</time>
      </trkpt>
      <trkpt lat="43.3183970" lon="-2.6735490">
        <ele>13.6</ele>
        <time>2018-09-03T09:43:32Z</time>
      </trkpt>
      <trkpt lat="43.3183970" lon="-2.6735490">
        <ele>13.6</ele>
        <time>2018-09-03T09:43:34Z</time>
      </trkpt>
      <trkpt lat="43.3183960" lon="-2.6735490">
        <ele>13.6</ele>
        <time>2018-09-03T09:43:37Z</time>
      </trkpt>
      <trkpt lat="43.3183960" lon="-2.6735510">
        <ele>13.6</ele>
        <time>2018-09-03T09:43:42Z</time>
      </trkpt>
      <trkpt lat="43.3183960" lon="-2.6735500">
        <ele>13.6</ele>
        <time>2018-09-03T09:43:49Z</time>
      </trkpt>
      <trkpt lat="43.3183960" lon="-2.6735500">
        <ele>13.4</ele>
        <time>2018-09-03T09:43:57Z</time>
      </trkpt>
      <trkpt lat="43.3183970" lon="-2.6735510">
        <ele>13.4</ele>
        <time>2018-09-03T09:44:01Z</time>
      </trkpt>
      <trkpt lat="43.3183970" lon="-2.6735470">
        <ele>13.4</ele>
        <time>2018-09-03T09:44:13Z</time>
      </trkpt>
      <trkpt lat="43.3183120" lon="-2.6737030">
        <ele>13.4</ele>
        <time>2018-09-03T09:44:23Z</time>
      </trkpt>
      <trkpt lat="43.3182310" lon="-2.6739300">
        <ele>13.4</ele>
        <time>2018-09-03T09:44:30Z</time>
      </trkpt>
      <trkpt lat="43.3181520" lon="-2.6741430">
        <ele>13.2</ele>
        <time>2018-09-03T09:44:35Z</time>
      </trkpt>
      <trkpt lat="43.3180310" lon="-2.6744500">
        <ele>12.4</ele>
        <time>2018-09-03T09:44:41Z</time>
      </trkpt>
      <trkpt lat="43.3178400" lon="-2.6748100">
        <ele>11.6</ele>
        <time>2018-09-03T09:44:48Z</time>
      </trkpt>
      <trkpt lat="43.3176230" lon="-2.6750980">
        <ele>10.6</ele>
        <time>2018-09-03T09:44:55Z</time>
      </trkpt>
      <trkpt lat="43.3174170" lon="-2.6755570">
        <ele>10.4</ele>
        <time>2018-09-03T09:45:05Z</time>
      </trkpt>
      <trkpt lat="43.3171300" lon="-2.6760250">
        <ele>10.0</ele>
        <time>2018-09-03T09:45:18Z</time>
      </trkpt>
      <trkpt lat="43.3170430" lon="-2.6762220">
        <ele>10.0</ele>
        <time>2018-09-03T09:45:24Z</time>
      </trkpt>
      <trkpt lat="43.3171220" lon="-2.6763350">
        <ele>10.0</ele>
        <time>2018-09-03T09:45:28Z</time>
      </trkpt>
      <trkpt lat="43.3171970" lon="-2.6764260">
        <ele>10.0</ele>
        <time>2018-09-03T09:45:31Z</time>
      </trkpt>
      <trkpt lat="43.3172630" lon="-2.6765270">
        <ele>9.8</ele>
        <time>2018-09-03T09:45:35Z</time>
      </trkpt>
      <trkpt lat="43.3173660" lon="-2.6766410">
        <ele>9.6</ele>
        <time>2018-09-03T09:45:41Z</time>
      </trkpt>
      <trkpt lat="43.3174120" lon="-2.6766850">
        <ele>9.6</ele>
        <time>2018-09-03T09:45:43Z</time>
      </trkpt>
      <trkpt lat="43.3174610" lon="-2.6767210">
        <ele>9.6</ele>
        <time>2018-09-03T09:45:45Z</time>
      </trkpt>
      <trkpt lat="43.3175140" lon="-2.6767660">
        <ele>9.4</ele>
        <time>2018-09-03T09:45:47Z</time>
      </trkpt>
      <trkpt lat="43.3175820" lon="-2.6768550">
        <ele>9.4</ele>
        <time>2018-09-03T09:45:50Z</time>
      </trkpt>
      <trkpt lat="43.3176810" lon="-2.6769350">
        <ele>9.6</ele>
        <time>2018-09-03T09:45:55Z</time>
      </trkpt>
      <trkpt lat="43.3177200" lon="-2.6769320">
        <ele>9.6</ele>
        <time>2018-09-03T09:45:57Z</time>
      </trkpt>
      <trkpt lat="43.3177010" lon="-2.6769050">
        <ele>9.6</ele>
        <time>2018-09-03T09:46:02Z</time>
      </trkpt>
      <trkpt lat="43.3176870" lon="-2.6768810">
        <ele>10.2</ele>
        <time>2018-09-03T09:46:16Z</time>
      </trkpt>
      <trkpt lat="43.3176970" lon="-2.6768020">
        <ele>10.2</ele>
        <time>2018-09-03T09:46:19Z</time>
      </trkpt>
      <trkpt lat="43.3177210" lon="-2.6767790">
        <ele>10.2</ele>
        <time>2018-09-03T09:46:23Z</time>
      </trkpt>
      <trkpt lat="43.3177240" lon="-2.6767860">
        <ele>10.2</ele>
        <time>2018-09-03T09:46:26Z</time>
      </trkpt>
      <trkpt lat="43.3177250" lon="-2.6767760">
        <ele>10.2</ele>
        <time>2018-09-03T09:46:30Z</time>
      </trkpt>
      <trkpt lat="43.3177240" lon="-2.6767750">
        <ele>10.2</ele>
        <time>2018-09-03T09:46:36Z</time>
      </trkpt>
      <trkpt lat="43.3177240" lon="-2.6767740">
        <ele>10.2</ele>
        <time>2018-09-03T09:46:43Z</time>
      </trkpt>
      <trkpt lat="43.3177240" lon="-2.6767740">
        <ele>10.2</ele>
        <time>2018-09-03T09:46:45Z</time>
      </trkpt>
      <trkpt lat="43.3177240" lon="-2.6767740">
        <ele>10.0</ele>
        <time>2018-09-03T09:46:47Z</time>
      </trkpt>
      <trkpt lat="43.3177240" lon="-2.6767710">
        <ele>9.8</ele>
        <time>2018-09-03T09:47:05Z</time>
      </trkpt>
      <trkpt lat="43.3177250" lon="-2.6767660">
        <ele>10.0</ele>
        <time>2018-09-03T09:47:37Z</time>
      </trkpt>
      <trkpt lat="43.3177250" lon="-2.6767650">
        <ele>9.8</ele>
        <time>2018-09-03T09:47:45Z</time>
      </trkpt>
      <trkpt lat="43.3177250" lon="-2.6767640">
        <ele>9.8</ele>
        <time>2018-09-03T09:47:48Z</time>
      </trkpt>
      <trkpt lat="43.3177250" lon="-2.6767640">
        <ele>9.8</ele>
        <time>2018-09-03T09:47:55Z</time>
      </trkpt>
      <trkpt lat="43.3177250" lon="-2.6767640">
        <ele>9.8</ele>
        <time>2018-09-03T09:47:59Z</time>
      </trkpt>
      <trkpt lat="43.3177250" lon="-2.6767640">
        <ele>9.8</ele>
        <time>2018-09-03T09:48:03Z</time>
      </trkpt>
      <trkpt lat="43.3177250" lon="-2.6767630">
        <ele>10.0</ele>
        <time>2018-09-03T09:48:12Z</time>
      </trkpt>
      <trkpt lat="43.3177250" lon="-2.6767630">
        <ele>10.0</ele>
        <time>2018-09-03T09:48:18Z</time>
      </trkpt>
      <trkpt lat="43.3177250" lon="-2.6767620">
        <ele>10.0</ele>
        <time>2018-09-03T09:48:29Z</time>
      </trkpt>
      <trkpt lat="43.3177250" lon="-2.6767620">
        <ele>10.0</ele>
        <time>2018-09-03T09:48:37Z</time>
      </trkpt>
      <trkpt lat="43.3177250" lon="-2.6767590">
        <ele>10.4</ele>
        <time>2018-09-03T09:49:00Z</time>
      </trkpt>
      <trkpt lat="43.3177250" lon="-2.6767590">
        <ele>10.4</ele>
        <time>2018-09-03T09:49:05Z</time>
      </trkpt>
      <trkpt lat="43.3177250" lon="-2.6767590">
        <ele>10.4</ele>
        <time>2018-09-03T09:49:07Z</time>
      </trkpt>
      <trkpt lat="43.3177250" lon="-2.6767590">
        <ele>10.4</ele>
        <time>2018-09-03T09:49:13Z</time>
      </trkpt>
      <trkpt lat="43.3177250" lon="-2.6767590">
        <ele>10.4</ele>
        <time>2018-09-03T09:49:15Z</time>
      </trkpt>
      <trkpt lat="43.3177250" lon="-2.6767590">
        <ele>10.4</ele>
        <time>2018-09-03T09:49:17Z</time>
      </trkpt>
      <trkpt lat="43.3177250" lon="-2.6767580">
        <ele>10.4</ele>
        <time>2018-09-03T09:49:20Z</time>
      </trkpt>
      <trkpt lat="43.3177020" lon="-2.6767620">
        <ele>10.4</ele>
        <time>2018-09-03T09:49:25Z</time>
      </trkpt>
      <trkpt lat="43.3176680" lon="-2.6768150">
        <ele>10.6</ele>
        <time>2018-09-03T09:49:38Z</time>
      </trkpt>
      <trkpt lat="43.3175690" lon="-2.6768570">
        <ele>10.6</ele>
        <time>2018-09-03T09:49:42Z</time>
      </trkpt>
      <trkpt lat="43.3173350" lon="-2.6769160">
        <ele>10.6</ele>
        <time>2018-09-03T09:50:01Z</time>
      </trkpt>
      <trkpt lat="43.3173350" lon="-2.6769150">
        <ele>10.6</ele>
        <time>2018-09-03T09:50:04Z</time>
      </trkpt>
      <trkpt lat="43.3173360" lon="-2.6769160">
        <ele>10.6</ele>
        <time>2018-09-03T09:50:09Z</time>
      </trkpt>
      <trkpt lat="43.3173360" lon="-2.6769170">
        <ele>10.6</ele>
        <time>2018-09-03T09:50:15Z</time>
      </trkpt>
      <trkpt lat="43.3173350" lon="-2.6769210">
        <ele>10.6</ele>
        <time>2018-09-03T09:50:18Z</time>
      </trkpt>
      <trkpt lat="43.3173350" lon="-2.6769230">
        <ele>10.6</ele>
        <time>2018-09-03T09:50:21Z</time>
      </trkpt>
      <trkpt lat="43.3173350" lon="-2.6769230">
        <ele>10.6</ele>
        <time>2018-09-03T09:50:24Z</time>
      </trkpt>
      <trkpt lat="43.3173350" lon="-2.6769240">
        <ele>10.6</ele>
        <time>2018-09-03T09:50:30Z</time>
      </trkpt>
      <trkpt lat="43.3173350" lon="-2.6769250">
        <ele>10.6</ele>
        <time>2018-09-03T09:50:40Z</time>
      </trkpt>
      <trkpt lat="43.3173350" lon="-2.6769260">
        <ele>10.8</ele>
        <time>2018-09-03T09:51:22Z</time>
      </trkpt>
      <trkpt lat="43.3173350" lon="-2.6769260">
        <ele>10.8</ele>
        <time>2018-09-03T09:51:26Z</time>
      </trkpt>
      <trkpt lat="43.3173350" lon="-2.6769270">
        <ele>10.6</ele>
        <time>2018-09-03T09:51:46Z</time>
      </trkpt>
      <trkpt lat="43.3173350" lon="-2.6769280">
        <ele>10.6</ele>
        <time>2018-09-03T09:51:49Z</time>
      </trkpt>
      <trkpt lat="43.3173350" lon="-2.6769280">
        <ele>10.6</ele>
        <time>2018-09-03T09:52:02Z</time>
      </trkpt>
      <trkpt lat="43.3173350" lon="-2.6769290">
        <ele>10.6</ele>
        <time>2018-09-03T09:52:08Z</time>
      </trkpt>
      <trkpt lat="43.3173350" lon="-2.6769290">
        <ele>10.6</ele>
        <time>2018-09-03T09:52:11Z</time>
      </trkpt>
      <trkpt lat="43.3173350" lon="-2.6769290">
        <ele>10.8</ele>
        <time>2018-09-03T09:52:16Z</time>
      </trkpt>
      <trkpt lat="43.3173350" lon="-2.6769310">
        <ele>10.4</ele>
        <time>2018-09-03T09:53:28Z</time>
      </trkpt>
      <trkpt lat="43.3173350" lon="-2.6769310">
        <ele>10.4</ele>
        <time>2018-09-03T09:53:32Z</time>
      </trkpt>
      <trkpt lat="43.3173350" lon="-2.6769310">
        <ele>10.6</ele>
        <time>2018-09-03T09:53:44Z</time>
      </trkpt>
      <trkpt lat="43.3173350" lon="-2.6769320">
        <ele>10.6</ele>
        <time>2018-09-03T09:53:58Z</time>
      </trkpt>
      <trkpt lat="43.3173350" lon="-2.6769320">
        <ele>10.6</ele>
        <time>2018-09-03T09:54:01Z</time>
      </trkpt>
      <trkpt lat="43.3173350" lon="-2.6769330">
        <ele>10.4</ele>
        <time>2018-09-03T09:54:26Z</time>
      </trkpt>
      <trkpt lat="43.3173350" lon="-2.6769330">
        <ele>10.6</ele>
        <time>2018-09-03T09:54:48Z</time>
      </trkpt>
      <trkpt lat="43.3173350" lon="-2.6769320">
        <ele>10.6</ele>
        <time>2018-09-03T09:54:55Z</time>
      </trkpt>
      <trkpt lat="43.3173350" lon="-2.6769310">
        <ele>10.6</ele>
        <time>2018-09-03T09:55:05Z</time>
      </trkpt>
      <trkpt lat="43.3173350" lon="-2.6769320">
        <ele>10.6</ele>
        <time>2018-09-03T09:55:17Z</time>
      </trkpt>
      <trkpt lat="43.3173350" lon="-2.6769310">
        <ele>10.6</ele>
        <time>2018-09-03T09:55:41Z</time>
      </trkpt>
      <trkpt lat="43.3173350" lon="-2.6769310">
        <ele>10.6</ele>
        <time>2018-09-03T09:55:54Z</time>
      </trkpt>
      <trkpt lat="43.3173350" lon="-2.6769310">
        <ele>10.6</ele>
        <time>2018-09-03T09:56:05Z</time>
      </trkpt>
      <trkpt lat="43.3173350" lon="-2.6769320">
        <ele>10.8</ele>
        <time>2018-09-03T09:56:41Z</time>
      </trkpt>
      <trkpt lat="43.3173350" lon="-2.6769320">
        <ele>10.8</ele>
        <time>2018-09-03T09:56:46Z</time>
      </trkpt>
      <trkpt lat="43.3173350" lon="-2.6769320">
        <ele>10.8</ele>
        <time>2018-09-03T09:56:53Z</time>
      </trkpt>
      <trkpt lat="43.3173350" lon="-2.6769320">
        <ele>10.8</ele>
        <time>2018-09-03T09:56:58Z</time>
      </trkpt>
      <trkpt lat="43.3173350" lon="-2.6769320">
        <ele>10.8</ele>
        <time>2018-09-03T09:57:12Z</time>
      </trkpt>
      <trkpt lat="43.3173350" lon="-2.6769330">
        <ele>11.2</ele>
        <time>2018-09-03T09:57:42Z</time>
      </trkpt>
      <trkpt lat="43.3173350" lon="-2.6769330">
        <ele>11.0</ele>
        <time>2018-09-03T09:58:00Z</time>
      </trkpt>
      <trkpt lat="43.3173350" lon="-2.6769330">
        <ele>11.0</ele>
        <time>2018-09-03T09:58:10Z</time>
      </trkpt>
      <trkpt lat="43.3173350" lon="-2.6769340">
        <ele>11.0</ele>
        <time>2018-09-03T09:58:36Z</time>
      </trkpt>
      <trkpt lat="43.3173350" lon="-2.6769340">
        <ele>11.2</ele>
        <time>2018-09-03T09:58:55Z</time>
      </trkpt>
      <trkpt lat="43.3173350" lon="-2.6769340">
        <ele>11.2</ele>
        <time>2018-09-03T09:59:01Z</time>
      </trkpt>
      <trkpt lat="43.3173350" lon="-2.6769360">
        <ele>11.2</ele>
        <time>2018-09-03T09:59:05Z</time>
      </trkpt>
      <trkpt lat="43.3173350" lon="-2.6769390">
        <ele>11.2</ele>
        <time>2018-09-03T09:59:17Z</time>
      </trkpt>
      <trkpt lat="43.3173350" lon="-2.6769400">
        <ele>11.0</ele>
        <time>2018-09-03T09:59:55Z</time>
      </trkpt>
      <trkpt lat="43.3173350" lon="-2.6769400">
        <ele>11.2</ele>
        <time>2018-09-03T10:00:09Z</time>
      </trkpt>
      <trkpt lat="43.3173350" lon="-2.6769410">
        <ele>11.2</ele>
        <time>2018-09-03T10:00:14Z</time>
      </trkpt>
      <trkpt lat="43.3173350" lon="-2.6769420">
        <ele>11.0</ele>
        <time>2018-09-03T10:00:20Z</time>
      </trkpt>
      <trkpt lat="43.3173350" lon="-2.6769420">
        <ele>11.0</ele>
        <time>2018-09-03T10:00:25Z</time>
      </trkpt>
      <trkpt lat="43.3173350" lon="-2.6769440">
        <ele>11.2</ele>
        <time>2018-09-03T10:00:38Z</time>
      </trkpt>
      <trkpt lat="43.3173350" lon="-2.6769450">
        <ele>11.2</ele>
        <time>2018-09-03T10:00:43Z</time>
      </trkpt>
      <trkpt lat="43.3173350" lon="-2.6769470">
        <ele>11.2</ele>
        <time>2018-09-03T10:00:56Z</time>
      </trkpt>
      <trkpt lat="43.3173350" lon="-2.6769470">
        <ele>11.2</ele>
        <time>2018-09-03T10:01:01Z</time>
      </trkpt>
      <trkpt lat="43.3173350" lon="-2.6769510">
        <ele>11.4</ele>
        <time>2018-09-03T10:01:39Z</time>
      </trkpt>
      <trkpt lat="43.3173350" lon="-2.6769530">
        <ele>11.4</ele>
        <time>2018-09-03T10:01:57Z</time>
      </trkpt>
      <trkpt lat="43.3173340" lon="-2.6769550">
        <ele>11.4</ele>
        <time>2018-09-03T10:02:27Z</time>
      </trkpt>
      <trkpt lat="43.3173340" lon="-2.6769560">
        <ele>11.4</ele>
        <time>2018-09-03T10:02:31Z</time>
      </trkpt>
      <trkpt lat="43.3173340" lon="-2.6769560">
        <ele>11.4</ele>
        <time>2018-09-03T10:02:37Z</time>
      </trkpt>
      <trkpt lat="43.3173340" lon="-2.6769560">
        <ele>11.4</ele>
        <time>2018-09-03T10:02:42Z</time>
      </trkpt>
      <trkpt lat="43.3173340" lon="-2.6769570">
        <ele>11.2</ele>
        <time>2018-09-03T10:02:44Z</time>
      </trkpt>
      <trkpt lat="43.3173340" lon="-2.6769560">
        <ele>11.2</ele>
        <time>2018-09-03T10:02:55Z</time>
      </trkpt>
      <trkpt lat="43.3173340" lon="-2.6769580">
        <ele>11.2</ele>
        <time>2018-09-03T10:03:11Z</time>
      </trkpt>
      <trkpt lat="43.3173340" lon="-2.6769600">
        <ele>11.2</ele>
        <time>2018-09-03T10:03:21Z</time>
      </trkpt>
      <trkpt lat="43.3173340" lon="-2.6769620">
        <ele>11.2</ele>
        <time>2018-09-03T10:03:26Z</time>
      </trkpt>
      <trkpt lat="43.3173340" lon="-2.6769640">
        <ele>11.4</ele>
        <time>2018-09-03T10:03:35Z</time>
      </trkpt>
      <trkpt lat="43.3173340" lon="-2.6769670">
        <ele>11.4</ele>
        <time>2018-09-03T10:04:16Z</time>
      </trkpt>
      <trkpt lat="43.3173340" lon="-2.6769710">
        <ele>11.6</ele>
        <time>2018-09-03T10:04:42Z</time>
      </trkpt>
      <trkpt lat="43.3173340" lon="-2.6769730">
        <ele>11.6</ele>
        <time>2018-09-03T10:04:59Z</time>
      </trkpt>
      <trkpt lat="43.3173340" lon="-2.6769720">
        <ele>11.6</ele>
        <time>2018-09-03T10:05:09Z</time>
      </trkpt>
      <trkpt lat="43.3173340" lon="-2.6769750">
        <ele>11.4</ele>
        <time>2018-09-03T10:06:04Z</time>
      </trkpt>
      <trkpt lat="43.3173340" lon="-2.6769750">
        <ele>11.4</ele>
        <time>2018-09-03T10:06:10Z</time>
      </trkpt>
      <trkpt lat="43.3173340" lon="-2.6769770">
        <ele>11.6</ele>
        <time>2018-09-03T10:06:16Z</time>
      </trkpt>
      <trkpt lat="43.3173340" lon="-2.6769790">
        <ele>11.6</ele>
        <time>2018-09-03T10:06:32Z</time>
      </trkpt>
      <trkpt lat="43.3173340" lon="-2.6769790">
        <ele>11.6</ele>
        <time>2018-09-03T10:06:38Z</time>
      </trkpt>
      <trkpt lat="43.3173340" lon="-2.6769810">
        <ele>11.4</ele>
        <time>2018-09-03T10:06:49Z</time>
      </trkpt>
      <trkpt lat="43.3173340" lon="-2.6769810">
        <ele>11.4</ele>
        <time>2018-09-03T10:06:52Z</time>
      </trkpt>
      <trkpt lat="43.3173340" lon="-2.6769800">
        <ele>11.4</ele>
        <time>2018-09-03T10:07:02Z</time>
      </trkpt>
      <trkpt lat="43.3173340" lon="-2.6769790">
        <ele>11.4</ele>
        <time>2018-09-03T10:07:05Z</time>
      </trkpt>
      <trkpt lat="43.3173340" lon="-2.6769780">
        <ele>11.4</ele>
        <time>2018-09-03T10:07:07Z</time>
      </trkpt>
      <trkpt lat="43.3173340" lon="-2.6769780">
        <ele>11.4</ele>
        <time>2018-09-03T10:07:12Z</time>
      </trkpt>
      <trkpt lat="43.3173340" lon="-2.6769790">
        <ele>11.4</ele>
        <time>2018-09-03T10:07:19Z</time>
      </trkpt>
      <trkpt lat="43.3173340" lon="-2.6769770">
        <ele>11.4</ele>
        <time>2018-09-03T10:07:36Z</time>
      </trkpt>
      <trkpt lat="43.3173340" lon="-2.6769740">
        <ele>11.0</ele>
        <time>2018-09-03T10:08:05Z</time>
      </trkpt>
      <trkpt lat="43.3173340" lon="-2.6769730">
        <ele>11.0</ele>
        <time>2018-09-03T10:08:18Z</time>
      </trkpt>
      <trkpt lat="43.3173340" lon="-2.6769720">
        <ele>11.0</ele>
        <time>2018-09-03T10:08:21Z</time>
      </trkpt>
      <trkpt lat="43.3173340" lon="-2.6769720">
        <ele>10.8</ele>
        <time>2018-09-03T10:08:26Z</time>
      </trkpt>
      <trkpt lat="43.3173340" lon="-2.6769710">
        <ele>10.8</ele>
        <time>2018-09-03T10:08:34Z</time>
      </trkpt>
      <trkpt lat="43.3173340" lon="-2.6769710">
        <ele>10.8</ele>
        <time>2018-09-03T10:08:41Z</time>
      </trkpt>
      <trkpt lat="43.3173340" lon="-2.6769720">
        <ele>10.8</ele>
        <time>2018-09-03T10:08:43Z</time>
      </trkpt>
      <trkpt lat="43.3173340" lon="-2.6769730">
        <ele>10.6</ele>
        <time>2018-09-03T10:09:03Z</time>
      </trkpt>
      <trkpt lat="43.3173340" lon="-2.6769730">
        <ele>10.4</ele>
        <time>2018-09-03T10:09:18Z</time>
      </trkpt>
      <trkpt lat="43.3173340" lon="-2.6769750">
        <ele>10.6</ele>
        <time>2018-09-03T10:09:37Z</time>
      </trkpt>
      <trkpt lat="43.3173340" lon="-2.6769750">
        <ele>10.4</ele>
        <time>2018-09-03T10:09:55Z</time>
      </trkpt>
      <trkpt lat="43.3173340" lon="-2.6769750">
        <ele>10.4</ele>
        <time>2018-09-03T10:10:00Z</time>
      </trkpt>
      <trkpt lat="43.3173340" lon="-2.6769750">
        <ele>10.4</ele>
        <time>2018-09-03T10:10:07Z</time>
      </trkpt>
      <trkpt lat="43.3173340" lon="-2.6769750">
        <ele>10.4</ele>
        <time>2018-09-03T10:10:11Z</time>
      </trkpt>
      <trkpt lat="43.3173340" lon="-2.6769750">
        <ele>10.4</ele>
        <time>2018-09-03T10:10:35Z</time>
      </trkpt>
      <trkpt lat="43.3173340" lon="-2.6769750">
        <ele>10.2</ele>
        <time>2018-09-03T10:10:47Z</time>
      </trkpt>
      <trkpt lat="43.3173340" lon="-2.6769740">
        <ele>10.0</ele>
        <time>2018-09-03T10:11:12Z</time>
      </trkpt>
      <trkpt lat="43.3173340" lon="-2.6769740">
        <ele>10.0</ele>
        <time>2018-09-03T10:11:25Z</time>
      </trkpt>
      <trkpt lat="43.3173340" lon="-2.6769740">
        <ele>10.0</ele>
        <time>2018-09-03T10:11:29Z</time>
      </trkpt>
      <trkpt lat="43.3173340" lon="-2.6769750">
        <ele>10.0</ele>
        <time>2018-09-03T10:11:40Z</time>
      </trkpt>
      <trkpt lat="43.3173340" lon="-2.6769750">
        <ele>10.0</ele>
        <time>2018-09-03T10:11:43Z</time>
      </trkpt>
      <trkpt lat="43.3173340" lon="-2.6769750">
        <ele>10.0</ele>
        <time>2018-09-03T10:11:50Z</time>
      </trkpt>
      <trkpt lat="43.3173340" lon="-2.6769750">
        <ele>10.0</ele>
        <time>2018-09-03T10:11:57Z</time>
      </trkpt>
      <trkpt lat="43.3173340" lon="-2.6769750">
        <ele>10.0</ele>
        <time>2018-09-03T10:12:00Z</time>
      </trkpt>
      <trkpt lat="43.3173340" lon="-2.6769760">
        <ele>10.2</ele>
        <time>2018-09-03T10:12:16Z</time>
      </trkpt>
      <trkpt lat="43.3173340" lon="-2.6769760">
        <ele>10.2</ele>
        <time>2018-09-03T10:12:41Z</time>
      </trkpt>
      <trkpt lat="43.3173340" lon="-2.6769760">
        <ele>9.8</ele>
        <time>2018-09-03T10:13:03Z</time>
      </trkpt>
      <trkpt lat="43.3173340" lon="-2.6769750">
        <ele>9.8</ele>
        <time>2018-09-03T10:13:16Z</time>
      </trkpt>
      <trkpt lat="43.3173340" lon="-2.6769750">
        <ele>10.0</ele>
        <time>2018-09-03T10:13:26Z</time>
      </trkpt>
      <trkpt lat="43.3173340" lon="-2.6769750">
        <ele>10.0</ele>
        <time>2018-09-03T10:13:41Z</time>
      </trkpt>
      <trkpt lat="43.3173340" lon="-2.6769750">
        <ele>10.0</ele>
        <time>2018-09-03T10:13:44Z</time>
      </trkpt>
      <trkpt lat="43.3173340" lon="-2.6769750">
        <ele>10.0</ele>
        <time>2018-09-03T10:13:46Z</time>
      </trkpt>
      <trkpt lat="43.3173340" lon="-2.6769750">
        <ele>10.0</ele>
        <time>2018-09-03T10:13:49Z</time>
      </trkpt>
      <trkpt lat="43.3173330" lon="-2.6769710">
        <ele>10.0</ele>
        <time>2018-09-03T10:13:57Z</time>
      </trkpt>
      <trkpt lat="43.3173340" lon="-2.6769710">
        <ele>10.0</ele>
        <time>2018-09-03T10:13:59Z</time>
      </trkpt>
      <trkpt lat="43.3173340" lon="-2.6769720">
        <ele>10.0</ele>
        <time>2018-09-03T10:14:01Z</time>
      </trkpt>
      <trkpt lat="43.3173340" lon="-2.6769740">
        <ele>10.0</ele>
        <time>2018-09-03T10:14:08Z</time>
      </trkpt>
      <trkpt lat="43.3173340" lon="-2.6769750">
        <ele>10.0</ele>
        <time>2018-09-03T10:14:12Z</time>
      </trkpt>
      <trkpt lat="43.3173340" lon="-2.6769760">
        <ele>10.0</ele>
        <time>2018-09-03T10:14:23Z</time>
      </trkpt>
      <trkpt lat="43.3173340" lon="-2.6769770">
        <ele>10.0</ele>
        <time>2018-09-03T10:14:25Z</time>
      </trkpt>
      <trkpt lat="43.3173340" lon="-2.6769770">
        <ele>10.0</ele>
        <time>2018-09-03T10:14:27Z</time>
      </trkpt>
      <trkpt lat="43.3173340" lon="-2.6769800">
        <ele>10.0</ele>
        <time>2018-09-03T10:14:33Z</time>
      </trkpt>
      <trkpt lat="43.3173340" lon="-2.6769800">
        <ele>10.0</ele>
        <time>2018-09-03T10:14:35Z</time>
      </trkpt>
      <trkpt lat="43.3173340" lon="-2.6769790">
        <ele>9.8</ele>
        <time>2018-09-03T10:14:58Z</time>
      </trkpt>
      <trkpt lat="43.3173340" lon="-2.6769800">
        <ele>9.8</ele>
        <time>2018-09-03T10:15:00Z</time>
      </trkpt>
      <trkpt lat="43.3173340" lon="-2.6769810">
        <ele>9.8</ele>
        <time>2018-09-03T10:15:02Z</time>
      </trkpt>
      <trkpt lat="43.3172980" lon="-2.6770350">
        <ele>9.6</ele>
        <time>2018-09-03T10:17:59Z</time>
      </trkpt>
      <trkpt lat="43.3173060" lon="-2.6770280">
        <ele>9.6</ele>
        <time>2018-09-03T10:18:00Z</time>
      </trkpt>
      <trkpt lat="43.3173510" lon="-2.6770110">
        <ele>9.6</ele>
        <time>2018-09-03T10:18:05Z</time>
      </trkpt>
      <trkpt lat="43.3173530" lon="-2.6769190">
        <ele>9.6</ele>
        <time>2018-09-03T10:18:14Z</time>
      </trkpt>
      <trkpt lat="43.3173330" lon="-2.6769250">
        <ele>9.6</ele>
        <time>2018-09-03T10:18:16Z</time>
      </trkpt>
      <trkpt lat="43.3171200" lon="-2.6770970">
        <ele>9.8</ele>
        <time>2018-09-03T10:18:32Z</time>
      </trkpt>
      <trkpt lat="43.3168190" lon="-2.6772510">
        <ele>9.8</ele>
        <time>2018-09-03T10:18:56Z</time>
      </trkpt>
      <trkpt lat="43.3167060" lon="-2.6772940">
        <ele>10.0</ele>
        <time>2018-09-03T10:19:02Z</time>
      </trkpt>
      <trkpt lat="43.3166650" lon="-2.6773140">
        <ele>10.2</ele>
        <time>2018-09-03T10:19:05Z</time>
      </trkpt>
      <trkpt lat="43.3165840" lon="-2.6773200">
        <ele>10.2</ele>
        <time>2018-09-03T10:19:10Z</time>
      </trkpt>
      <trkpt lat="43.3165270" lon="-2.6773530">
        <ele>10.2</ele>
        <time>2018-09-03T10:19:14Z</time>
      </trkpt>
      <trkpt lat="43.3165110" lon="-2.6773610">
        <ele>10.2</ele>
        <time>2018-09-03T10:19:17Z</time>
      </trkpt>
      <trkpt lat="43.3165210" lon="-2.6773490">
        <ele>10.2</ele>
        <time>2018-09-03T10:19:44Z</time>
      </trkpt>
      <trkpt lat="43.3165210" lon="-2.6773490">
        <ele>10.2</ele>
        <time>2018-09-03T10:19:46Z</time>
      </trkpt>
      <trkpt lat="43.3164890" lon="-2.6773880">
        <ele>10.4</ele>
        <time>2018-09-03T10:19:56Z</time>
      </trkpt>
      <trkpt lat="43.3164430" lon="-2.6773710">
        <ele>10.6</ele>
        <time>2018-09-03T10:20:01Z</time>
      </trkpt>
      <trkpt lat="43.3164150" lon="-2.6773430">
        <ele>10.8</ele>
        <time>2018-09-03T10:20:04Z</time>
      </trkpt>
      <trkpt lat="43.3163800" lon="-2.6773400">
        <ele>11.0</ele>
        <time>2018-09-03T10:20:07Z</time>
      </trkpt>
      <trkpt lat="43.3163380" lon="-2.6774130">
        <ele>10.8</ele>
        <time>2018-09-03T10:20:12Z</time>
      </trkpt>
      <trkpt lat="43.3163400" lon="-2.6775010">
        <ele>10.8</ele>
        <time>2018-09-03T10:20:18Z</time>
      </trkpt>
      <trkpt lat="43.3163400" lon="-2.6775500">
        <ele>10.8</ele>
        <time>2018-09-03T10:20:21Z</time>
      </trkpt>
      <trkpt lat="43.3163240" lon="-2.6776010">
        <ele>10.8</ele>
        <time>2018-09-03T10:20:24Z</time>
      </trkpt>
      <trkpt lat="43.3162260" lon="-2.6777750">
        <ele>10.8</ele>
        <time>2018-09-03T10:20:51Z</time>
      </trkpt>
      <trkpt lat="43.3162100" lon="-2.6777900">
        <ele>10.8</ele>
        <time>2018-09-03T10:20:55Z</time>
      </trkpt>
      <trkpt lat="43.3161670" lon="-2.6778630">
        <ele>10.8</ele>
        <time>2018-09-03T10:20:59Z</time>
      </trkpt>
      <trkpt lat="43.3160910" lon="-2.6781460">
        <ele>10.8</ele>
        <time>2018-09-03T10:21:13Z</time>
      </trkpt>
      <trkpt lat="43.3160720" lon="-2.6782090">
        <ele>10.8</ele>
        <time>2018-09-03T10:21:15Z</time>
      </trkpt>
      <trkpt lat="43.3160090" lon="-2.6786100">
        <ele>11.0</ele>
        <time>2018-09-03T10:21:37Z</time>
      </trkpt>
      <trkpt lat="43.3160300" lon="-2.6786860">
        <ele>11.0</ele>
        <time>2018-09-03T10:21:43Z</time>
      </trkpt>
      <trkpt lat="43.3160240" lon="-2.6786870">
        <ele>11.0</ele>
        <time>2018-09-03T10:21:44Z</time>
      </trkpt>
      <trkpt lat="43.3159960" lon="-2.6786960">
        <ele>10.8</ele>
        <time>2018-09-03T10:21:46Z</time>
      </trkpt>
      <trkpt lat="43.3159760" lon="-2.6787270">
        <ele>10.8</ele>
        <time>2018-09-03T10:21:47Z</time>
      </trkpt>
      <trkpt lat="43.3159490" lon="-2.6787770">
        <ele>10.8</ele>
        <time>2018-09-03T10:21:49Z</time>
      </trkpt>
      <trkpt lat="43.3159330" lon="-2.6788340">
        <ele>10.8</ele>
        <time>2018-09-03T10:21:51Z</time>
      </trkpt>
      <trkpt lat="43.3159240" lon="-2.6788770">
        <ele>10.8</ele>
        <time>2018-09-03T10:21:53Z</time>
      </trkpt>
      <trkpt lat="43.3158890" lon="-2.6789900">
        <ele>11.8</ele>
        <time>2018-09-03T10:21:59Z</time>
      </trkpt>
      <trkpt lat="43.3158240" lon="-2.6790730">
        <ele>13.0</ele>
        <time>2018-09-03T10:22:04Z</time>
      </trkpt>
      <trkpt lat="43.3158100" lon="-2.6791690">
        <ele>14.0</ele>
        <time>2018-09-03T10:22:08Z</time>
      </trkpt>
      <trkpt lat="43.3158090" lon="-2.6791860">
        <ele>14.0</ele>
        <time>2018-09-03T10:22:09Z</time>
      </trkpt>
      <trkpt lat="43.3157850" lon="-2.6792520">
        <ele>14.6</ele>
        <time>2018-09-03T10:22:13Z</time>
      </trkpt>
      <trkpt lat="43.3157640" lon="-2.6793130">
        <ele>15.2</ele>
        <time>2018-09-03T10:22:16Z</time>
      </trkpt>
      <trkpt lat="43.3157290" lon="-2.6794240">
        <ele>16.4</ele>
        <time>2018-09-03T10:22:21Z</time>
      </trkpt>
      <trkpt lat="43.3157070" lon="-2.6795360">
        <ele>17.4</ele>
        <time>2018-09-03T10:22:26Z</time>
      </trkpt>
      <trkpt lat="43.3156720" lon="-2.6796470">
        <ele>18.6</ele>
        <time>2018-09-03T10:22:31Z</time>
      </trkpt>
      <trkpt lat="43.3156260" lon="-2.6797610">
        <ele>20.0</ele>
        <time>2018-09-03T10:22:37Z</time>
      </trkpt>
      <trkpt lat="43.3155570" lon="-2.6798910">
        <ele>21.0</ele>
        <time>2018-09-03T10:22:44Z</time>
      </trkpt>
      <trkpt lat="43.3155590" lon="-2.6799070">
        <ele>22.0</ele>
        <time>2018-09-03T10:22:50Z</time>
      </trkpt>
      <trkpt lat="43.3155590" lon="-2.6799080">
        <ele>22.2</ele>
        <time>2018-09-03T10:22:56Z</time>
      </trkpt>
      <trkpt lat="43.3155590" lon="-2.6799080">
        <ele>22.2</ele>
        <time>2018-09-03T10:23:01Z</time>
      </trkpt>
      <trkpt lat="43.3155740" lon="-2.6799250">
        <ele>22.2</ele>
        <time>2018-09-03T10:23:07Z</time>
      </trkpt>
      <trkpt lat="43.3155820" lon="-2.6799190">
        <ele>22.0</ele>
        <time>2018-09-03T10:23:11Z</time>
      </trkpt>
      <trkpt lat="43.3155920" lon="-2.6799100">
        <ele>22.0</ele>
        <time>2018-09-03T10:23:12Z</time>
      </trkpt>
      <trkpt lat="43.3156160" lon="-2.6799270">
        <ele>22.0</ele>
        <time>2018-09-03T10:23:14Z</time>
      </trkpt>
      <trkpt lat="43.3155760" lon="-2.6799450">
        <ele>22.0</ele>
        <time>2018-09-03T10:23:18Z</time>
      </trkpt>
      <trkpt lat="43.3155590" lon="-2.6799340">
        <ele>22.0</ele>
        <time>2018-09-03T10:23:21Z</time>
      </trkpt>
      <trkpt lat="43.3155750" lon="-2.6799610">
        <ele>22.0</ele>
        <time>2018-09-03T10:23:24Z</time>
      </trkpt>
      <trkpt lat="43.3155390" lon="-2.6799310">
        <ele>22.0</ele>
        <time>2018-09-03T10:23:31Z</time>
      </trkpt>
      <trkpt lat="43.3155350" lon="-2.6799110">
        <ele>22.0</ele>
        <time>2018-09-03T10:23:32Z</time>
      </trkpt>
      <trkpt lat="43.3155280" lon="-2.6798680">
        <ele>22.0</ele>
        <time>2018-09-03T10:23:34Z</time>
      </trkpt>
      <trkpt lat="43.3155210" lon="-2.6798480">
        <ele>22.0</ele>
        <time>2018-09-03T10:23:35Z</time>
      </trkpt>
      <trkpt lat="43.3154900" lon="-2.6798450">
        <ele>22.0</ele>
        <time>2018-09-03T10:23:38Z</time>
      </trkpt>
      <trkpt lat="43.3154120" lon="-2.6798590">
        <ele>22.0</ele>
        <time>2018-09-03T10:23:44Z</time>
      </trkpt>
      <trkpt lat="43.3153100" lon="-2.6798090">
        <ele>22.2</ele>
        <time>2018-09-03T10:23:50Z</time>
      </trkpt>
      <trkpt lat="43.3152490" lon="-2.6797700">
        <ele>22.2</ele>
        <time>2018-09-03T10:23:54Z</time>
      </trkpt>
      <trkpt lat="43.3151070" lon="-2.6796720">
        <ele>22.8</ele>
        <time>2018-09-03T10:24:02Z</time>
      </trkpt>
      <trkpt lat="43.3150690" lon="-2.6796570">
        <ele>23.0</ele>
        <time>2018-09-03T10:24:04Z</time>
      </trkpt>
      <trkpt lat="43.3148690" lon="-2.6795920">
        <ele>23.8</ele>
        <time>2018-09-03T10:24:13Z</time>
      </trkpt>
      <trkpt lat="43.3147240" lon="-2.6795520">
        <ele>24.2</ele>
        <time>2018-09-03T10:24:19Z</time>
      </trkpt>
      <trkpt lat="43.3144110" lon="-2.6795120">
        <ele>25.4</ele>
        <time>2018-09-03T10:24:34Z</time>
      </trkpt>
      <trkpt lat="43.3142660" lon="-2.6793940">
        <ele>25.8</ele>
        <time>2018-09-03T10:24:42Z</time>
      </trkpt>
      <trkpt lat="43.3142590" lon="-2.6793750">
        <ele>25.8</ele>
        <time>2018-09-03T10:24:43Z</time>
      </trkpt>
      <trkpt lat="43.3142720" lon="-2.6793480">
        <ele>25.8</ele>
        <time>2018-09-03T10:24:45Z</time>
      </trkpt>
      <trkpt lat="43.3142840" lon="-2.6793730">
        <ele>25.8</ele>
        <time>2018-09-03T10:24:47Z</time>
      </trkpt>
      <trkpt lat="43.3142710" lon="-2.6793820">
        <ele>25.8</ele>
        <time>2018-09-03T10:24:48Z</time>
      </trkpt>
      <trkpt lat="43.3141060" lon="-2.6792600">
        <ele>26.0</ele>
        <time>2018-09-03T10:24:57Z</time>
      </trkpt>
      <trkpt lat="43.3140460" lon="-2.6792570">
        <ele>26.0</ele>
        <time>2018-09-03T10:25:01Z</time>
      </trkpt>
      <trkpt lat="43.3139610" lon="-2.6792470">
        <ele>26.4</ele>
        <time>2018-09-03T10:25:06Z</time>
      </trkpt>
      <trkpt lat="43.3138250" lon="-2.6792470">
        <ele>27.6</ele>
        <time>2018-09-03T10:25:13Z</time>
      </trkpt>
      <trkpt lat="43.3137700" lon="-2.6792600">
        <ele>27.8</ele>
        <time>2018-09-03T10:25:16Z</time>
      </trkpt>
      <trkpt lat="43.3136030" lon="-2.6792760">
        <ele>28.6</ele>
        <time>2018-09-03T10:25:25Z</time>
      </trkpt>
      <trkpt lat="43.3135610" lon="-2.6792740">
        <ele>28.8</ele>
        <time>2018-09-03T10:25:27Z</time>
      </trkpt>
      <trkpt lat="43.3134780" lon="-2.6792640">
        <ele>29.2</ele>
        <time>2018-09-03T10:25:32Z</time>
      </trkpt>
      <trkpt lat="43.3134450" lon="-2.6793370">
        <ele>29.2</ele>
        <time>2018-09-03T10:25:37Z</time>
      </trkpt>
      <trkpt lat="43.3134290" lon="-2.6793790">
        <ele>29.2</ele>
        <time>2018-09-03T10:25:39Z</time>
      </trkpt>
      <trkpt lat="43.3133980" lon="-2.6794200">
        <ele>29.2</ele>
        <time>2018-09-03T10:25:43Z</time>
      </trkpt>
      <trkpt lat="43.3134910" lon="-2.6794850">
        <ele>29.4</ele>
        <time>2018-09-03T10:25:50Z</time>
      </trkpt>
      <trkpt lat="43.3135440" lon="-2.6795160">
        <ele>29.6</ele>
        <time>2018-09-03T10:25:56Z</time>
      </trkpt>
      <trkpt lat="43.3135460" lon="-2.6795190">
        <ele>29.8</ele>
        <time>2018-09-03T10:25:57Z</time>
      </trkpt>
      <trkpt lat="43.3135520" lon="-2.6795310">
        <ele>30.4</ele>
        <time>2018-09-03T10:26:00Z</time>
      </trkpt>
      <trkpt lat="43.3135500" lon="-2.6795540">
        <ele>30.6</ele>
        <time>2018-09-03T10:26:02Z</time>
      </trkpt>
      <trkpt lat="43.3134970" lon="-2.6796250">
        <ele>30.8</ele>
        <time>2018-09-03T10:26:06Z</time>
      </trkpt>
      <trkpt lat="43.3134240" lon="-2.6797490">
        <ele>30.8</ele>
        <time>2018-09-03T10:26:12Z</time>
      </trkpt>
      <trkpt lat="43.3132790" lon="-2.6799240">
        <ele>30.8</ele>
        <time>2018-09-03T10:26:20Z</time>
      </trkpt>
      <trkpt lat="43.3132490" lon="-2.6800060">
        <ele>31.0</ele>
        <time>2018-09-03T10:26:23Z</time>
      </trkpt>
      <trkpt lat="43.3132200" lon="-2.6800550">
        <ele>31.0</ele>
        <time>2018-09-03T10:26:25Z</time>
      </trkpt>
      <trkpt lat="43.3131810" lon="-2.6801150">
        <ele>31.2</ele>
        <time>2018-09-03T10:26:28Z</time>
      </trkpt>
      <trkpt lat="43.3131320" lon="-2.6801950">
        <ele>31.4</ele>
        <time>2018-09-03T10:26:33Z</time>
      </trkpt>
      <trkpt lat="43.3131190" lon="-2.6802020">
        <ele>31.4</ele>
        <time>2018-09-03T10:26:34Z</time>
      </trkpt>
      <trkpt lat="43.3130090" lon="-2.6800990">
        <ele>31.0</ele>
        <time>2018-09-03T10:26:42Z</time>
      </trkpt>
      <trkpt lat="43.3129230" lon="-2.6800480">
        <ele>30.8</ele>
        <time>2018-09-03T10:26:54Z</time>
      </trkpt>
      <trkpt lat="43.3129590" lon="-2.6801100">
        <ele>30.8</ele>
        <time>2018-09-03T10:26:57Z</time>
      </trkpt>
      <trkpt lat="43.3130430" lon="-2.6802070">
        <ele>30.8</ele>
        <time>2018-09-03T10:27:02Z</time>
      </trkpt>
      <trkpt lat="43.3130260" lon="-2.6802660">
        <ele>30.4</ele>
        <time>2018-09-03T10:27:05Z</time>
      </trkpt>
      <trkpt lat="43.3129730" lon="-2.6803870">
        <ele>30.2</ele>
        <time>2018-09-03T10:27:09Z</time>
      </trkpt>
      <trkpt lat="43.3128850" lon="-2.6805630">
        <ele>30.0</ele>
        <time>2018-09-03T10:27:12Z</time>
      </trkpt>
      <trkpt lat="43.3128380" lon="-2.6807240">
        <ele>29.6</ele>
        <time>2018-09-03T10:27:14Z</time>
      </trkpt>
      <trkpt lat="43.3128170" lon="-2.6809540">
        <ele>28.8</ele>
        <time>2018-09-03T10:27:17Z</time>
      </trkpt>
      <trkpt lat="43.3127930" lon="-2.6811720">
        <ele>27.6</ele>
        <time>2018-09-03T10:27:20Z</time>
      </trkpt>
      <trkpt lat="43.3127810" lon="-2.6812340">
        <ele>27.0</ele>
        <time>2018-09-03T10:27:21Z</time>
      </trkpt>
      <trkpt lat="43.3127430" lon="-2.6813440">
        <ele>26.6</ele>
        <time>2018-09-03T10:27:23Z</time>
      </trkpt>
      <trkpt lat="43.3127020" lon="-2.6814200">
        <ele>26.4</ele>
        <time>2018-09-03T10:27:25Z</time>
      </trkpt>
      <trkpt lat="43.3126400" lon="-2.6814910">
        <ele>26.4</ele>
        <time>2018-09-03T10:27:28Z</time>
      </trkpt>
      <trkpt lat="43.3125930" lon="-2.6815710">
        <ele>26.6</ele>
        <time>2018-09-03T10:27:31Z</time>
      </trkpt>
      <trkpt lat="43.3125650" lon="-2.6816010">
        <ele>27.2</ele>
        <time>2018-09-03T10:27:33Z</time>
      </trkpt>
      <trkpt lat="43.3125240" lon="-2.6816170">
        <ele>27.8</ele>
        <time>2018-09-03T10:27:35Z</time>
      </trkpt>
      <trkpt lat="43.3123570" lon="-2.6816600">
        <ele>28.8</ele>
        <time>2018-09-03T10:27:41Z</time>
      </trkpt>
      <trkpt lat="43.3122700" lon="-2.6816670">
        <ele>28.8</ele>
        <time>2018-09-03T10:27:44Z</time>
      </trkpt>
      <trkpt lat="43.3122120" lon="-2.6816690">
        <ele>28.8</ele>
        <time>2018-09-03T10:27:46Z</time>
      </trkpt>
      <trkpt lat="43.3120930" lon="-2.6816680">
        <ele>29.2</ele>
        <time>2018-09-03T10:27:50Z</time>
      </trkpt>
      <trkpt lat="43.3118350" lon="-2.6816190">
        <ele>30.2</ele>
        <time>2018-09-03T10:27:58Z</time>
      </trkpt>
      <trkpt lat="43.3113920" lon="-2.6815450">
        <ele>30.4</ele>
        <time>2018-09-03T10:28:08Z</time>
      </trkpt>
      <trkpt lat="43.3113430" lon="-2.6815530">
        <ele>30.4</ele>
        <time>2018-09-03T10:28:09Z</time>
      </trkpt>
      <trkpt lat="43.3109180" lon="-2.6817630">
        <ele>30.6</ele>
        <time>2018-09-03T10:28:21Z</time>
      </trkpt>
      <trkpt lat="43.3108630" lon="-2.6818460">
        <ele>31.4</ele>
        <time>2018-09-03T10:28:24Z</time>
      </trkpt>
      <trkpt lat="43.3108180" lon="-2.6820180">
        <ele>32.4</ele>
        <time>2018-09-03T10:28:29Z</time>
      </trkpt>
      <trkpt lat="43.3107780" lon="-2.6822020">
        <ele>33.0</ele>
        <time>2018-09-03T10:28:34Z</time>
      </trkpt>
      <trkpt lat="43.3107300" lon="-2.6824800">
        <ele>33.4</ele>
        <time>2018-09-03T10:28:41Z</time>
      </trkpt>
      <trkpt lat="43.3106500" lon="-2.6828400">
        <ele>34.6</ele>
        <time>2018-09-03T10:28:50Z</time>
      </trkpt>
      <trkpt lat="43.3105530" lon="-2.6831810">
        <ele>35.0</ele>
        <time>2018-09-03T10:28:59Z</time>
      </trkpt>
      <trkpt lat="43.3105170" lon="-2.6832880">
        <ele>35.0</ele>
        <time>2018-09-03T10:29:02Z</time>
      </trkpt>
      <trkpt lat="43.3104540" lon="-2.6834690">
        <ele>35.2</ele>
        <time>2018-09-03T10:29:07Z</time>
      </trkpt>
      <trkpt lat="43.3104300" lon="-2.6838890">
        <ele>35.6</ele>
        <time>2018-09-03T10:29:19Z</time>
      </trkpt>
      <trkpt lat="43.3105180" lon="-2.6840920">
        <ele>36.8</ele>
        <time>2018-09-03T10:29:25Z</time>
      </trkpt>
      <trkpt lat="43.3106130" lon="-2.6843940">
        <ele>37.6</ele>
        <time>2018-09-03T10:29:35Z</time>
      </trkpt>
      <trkpt lat="43.3106130" lon="-2.6844180">
        <ele>37.8</ele>
        <time>2018-09-03T10:29:36Z</time>
      </trkpt>
      <trkpt lat="43.3106110" lon="-2.6844480">
        <ele>38.2</ele>
        <time>2018-09-03T10:29:38Z</time>
      </trkpt>
      <trkpt lat="43.3106080" lon="-2.6844710">
        <ele>38.4</ele>
        <time>2018-09-03T10:29:40Z</time>
      </trkpt>
      <trkpt lat="43.3106340" lon="-2.6845670">
        <ele>38.4</ele>
        <time>2018-09-03T10:29:45Z</time>
      </trkpt>
      <trkpt lat="43.3106350" lon="-2.6845920">
        <ele>38.4</ele>
        <time>2018-09-03T10:29:46Z</time>
      </trkpt>
      <trkpt lat="43.3106240" lon="-2.6847520">
        <ele>38.6</ele>
        <time>2018-09-03T10:29:52Z</time>
      </trkpt>
      <trkpt lat="43.3105890" lon="-2.6850460">
        <ele>39.2</ele>
        <time>2018-09-03T10:30:02Z</time>
      </trkpt>
      <trkpt lat="43.3105520" lon="-2.6852000">
        <ele>39.6</ele>
        <time>2018-09-03T10:30:08Z</time>
      </trkpt>
      <trkpt lat="43.3105480" lon="-2.6852270">
        <ele>39.6</ele>
        <time>2018-09-03T10:30:09Z</time>
      </trkpt>
      <trkpt lat="43.3105380" lon="-2.6853470">
        <ele>40.0</ele>
        <time>2018-09-03T10:30:13Z</time>
      </trkpt>
      <trkpt lat="43.3105480" lon="-2.6857180">
        <ele>40.8</ele>
        <time>2018-09-03T10:30:25Z</time>
      </trkpt>
      <trkpt lat="43.3105810" lon="-2.6860310">
        <ele>41.6</ele>
        <time>2018-09-03T10:30:35Z</time>
      </trkpt>
      <trkpt lat="43.3105820" lon="-2.6861660">
        <ele>41.8</ele>
        <time>2018-09-03T10:30:40Z</time>
      </trkpt>
      <trkpt lat="43.3105880" lon="-2.6864870">
        <ele>42.8</ele>
        <time>2018-09-03T10:30:52Z</time>
      </trkpt>
      <trkpt lat="43.3105350" lon="-2.6868250">
        <ele>43.6</ele>
        <time>2018-09-03T10:31:05Z</time>
      </trkpt>
      <trkpt lat="43.3105260" lon="-2.6868500">
        <ele>44.0</ele>
        <time>2018-09-03T10:31:06Z</time>
      </trkpt>
      <trkpt lat="43.3103230" lon="-2.6870560">
        <ele>44.8</ele>
        <time>2018-09-03T10:31:18Z</time>
      </trkpt>
      <trkpt lat="43.3102630" lon="-2.6870770">
        <ele>45.0</ele>
        <time>2018-09-03T10:31:21Z</time>
      </trkpt>
      <trkpt lat="43.3099230" lon="-2.6872060">
        <ele>46.0</ele>
        <time>2018-09-03T10:31:36Z</time>
      </trkpt>
      <trkpt lat="43.3098060" lon="-2.6872220">
        <ele>46.6</ele>
        <time>2018-09-03T10:31:41Z</time>
      </trkpt>
      <trkpt lat="43.3097830" lon="-2.6872220">
        <ele>46.6</ele>
        <time>2018-09-03T10:31:42Z</time>
      </trkpt>
      <trkpt lat="43.3097340" lon="-2.6872120">
        <ele>46.8</ele>
        <time>2018-09-03T10:31:44Z</time>
      </trkpt>
      <trkpt lat="43.3096850" lon="-2.6872180">
        <ele>46.8</ele>
        <time>2018-09-03T10:31:46Z</time>
      </trkpt>
      <trkpt lat="43.3096610" lon="-2.6872120">
        <ele>47.0</ele>
        <time>2018-09-03T10:31:47Z</time>
      </trkpt>
      <trkpt lat="43.3095930" lon="-2.6871760">
        <ele>47.4</ele>
        <time>2018-09-03T10:31:50Z</time>
      </trkpt>
      <trkpt lat="43.3093350" lon="-2.6871410">
        <ele>48.0</ele>
        <time>2018-09-03T10:32:01Z</time>
      </trkpt>
      <trkpt lat="43.3092060" lon="-2.6872110">
        <ele>49.2</ele>
        <time>2018-09-03T10:32:07Z</time>
      </trkpt>
      <trkpt lat="43.3090280" lon="-2.6877060">
        <ele>50.2</ele>
        <time>2018-09-03T10:32:23Z</time>
      </trkpt>
      <trkpt lat="43.3089380" lon="-2.6880670">
        <ele>51.0</ele>
        <time>2018-09-03T10:32:33Z</time>
      </trkpt>
      <trkpt lat="43.3089200" lon="-2.6881730">
        <ele>51.2</ele>
        <time>2018-09-03T10:32:36Z</time>
      </trkpt>
      <trkpt lat="43.3088240" lon="-2.6885220">
        <ele>51.8</ele>
        <time>2018-09-03T10:32:47Z</time>
      </trkpt>
      <trkpt lat="43.3087010" lon="-2.6887920">
        <ele>52.2</ele>
        <time>2018-09-03T10:32:56Z</time>
      </trkpt>
      <trkpt lat="43.3087160" lon="-2.6892430">
        <ele>53.2</ele>
        <time>2018-09-03T10:33:11Z</time>
      </trkpt>
      <trkpt lat="43.3088750" lon="-2.6895560">
        <ele>54.4</ele>
        <time>2018-09-03T10:33:22Z</time>
      </trkpt>
      <trkpt lat="43.3091620" lon="-2.6899390">
        <ele>55.2</ele>
        <time>2018-09-03T10:33:33Z</time>
      </trkpt>
      <trkpt lat="43.3091940" lon="-2.6899660">
        <ele>55.4</ele>
        <time>2018-09-03T10:33:34Z</time>
      </trkpt>
      <trkpt lat="43.3093860" lon="-2.6901170">
        <ele>56.4</ele>
        <time>2018-09-03T10:33:40Z</time>
      </trkpt>
      <trkpt lat="43.3095250" lon="-2.6902850">
        <ele>57.2</ele>
        <time>2018-09-03T10:33:45Z</time>
      </trkpt>
      <trkpt lat="43.3096000" lon="-2.6904050">
        <ele>57.6</ele>
        <time>2018-09-03T10:33:48Z</time>
      </trkpt>
      <trkpt lat="43.3098250" lon="-2.6906040">
        <ele>58.6</ele>
        <time>2018-09-03T10:33:55Z</time>
      </trkpt>
      <trkpt lat="43.3100440" lon="-2.6907990">
        <ele>59.6</ele>
        <time>2018-09-03T10:34:02Z</time>
      </trkpt>
      <trkpt lat="43.3101750" lon="-2.6910400">
        <ele>60.8</ele>
        <time>2018-09-03T10:34:08Z</time>
      </trkpt>
      <trkpt lat="43.3104310" lon="-2.6913910">
        <ele>62.0</ele>
        <time>2018-09-03T10:34:18Z</time>
      </trkpt>
      <trkpt lat="43.3107660" lon="-2.6915260">
        <ele>63.0</ele>
        <time>2018-09-03T10:34:28Z</time>
      </trkpt>
      <trkpt lat="43.3108180" lon="-2.6915390">
        <ele>64.0</ele>
        <time>2018-09-03T10:34:35Z</time>
      </trkpt>
      <trkpt lat="43.3108180" lon="-2.6915390">
        <ele>65.2</ele>
        <time>2018-09-03T10:34:39Z</time>
      </trkpt>
      <trkpt lat="43.3108180" lon="-2.6915390">
        <ele>65.4</ele>
        <time>2018-09-03T10:34:41Z</time>
      </trkpt>
      <trkpt lat="43.3108180" lon="-2.6915390">
        <ele>65.6</ele>
        <time>2018-09-03T10:34:44Z</time>
      </trkpt>
      <trkpt lat="43.3108180" lon="-2.6915390">
        <ele>65.6</ele>
        <time>2018-09-03T10:34:46Z</time>
      </trkpt>
      <trkpt lat="43.3108180" lon="-2.6915390">
        <ele>65.6</ele>
        <time>2018-09-03T10:34:48Z</time>
      </trkpt>
      <trkpt lat="43.3108180" lon="-2.6915390">
        <ele>65.6</ele>
        <time>2018-09-03T10:34:51Z</time>
      </trkpt>
      <trkpt lat="43.3108180" lon="-2.6915390">
        <ele>65.6</ele>
        <time>2018-09-03T10:34:54Z</time>
      </trkpt>
      <trkpt lat="43.3108180" lon="-2.6915390">
        <ele>65.6</ele>
        <time>2018-09-03T10:35:13Z</time>
      </trkpt>
      <trkpt lat="43.3108180" lon="-2.6915390">
        <ele>65.6</ele>
        <time>2018-09-03T10:35:16Z</time>
      </trkpt>
      <trkpt lat="43.3108180" lon="-2.6915390">
        <ele>65.6</ele>
        <time>2018-09-03T10:35:20Z</time>
      </trkpt>
      <trkpt lat="43.3109360" lon="-2.6915900">
        <ele>65.6</ele>
        <time>2018-09-03T10:35:28Z</time>
      </trkpt>
      <trkpt lat="43.3111820" lon="-2.6916570">
        <ele>65.8</ele>
        <time>2018-09-03T10:35:37Z</time>
      </trkpt>
      <trkpt lat="43.3112940" lon="-2.6916590">
        <ele>66.0</ele>
        <time>2018-09-03T10:35:41Z</time>
      </trkpt>
      <trkpt lat="43.3113700" lon="-2.6916640">
        <ele>66.2</ele>
        <time>2018-09-03T10:35:44Z</time>
      </trkpt>
      <trkpt lat="43.3115160" lon="-2.6917020">
        <ele>67.6</ele>
        <time>2018-09-03T10:35:51Z</time>
      </trkpt>
      <trkpt lat="43.3117360" lon="-2.6917830">
        <ele>68.6</ele>
        <time>2018-09-03T10:36:00Z</time>
      </trkpt>
      <trkpt lat="43.3119000" lon="-2.6918660">
        <ele>69.0</ele>
        <time>2018-09-03T10:36:07Z</time>
      </trkpt>
      <trkpt lat="43.3119940" lon="-2.6919090">
        <ele>69.6</ele>
        <time>2018-09-03T10:36:11Z</time>
      </trkpt>
      <trkpt lat="43.3120400" lon="-2.6919350">
        <ele>69.8</ele>
        <time>2018-09-03T10:36:13Z</time>
      </trkpt>
      <trkpt lat="43.3121980" lon="-2.6920280">
        <ele>70.8</ele>
        <time>2018-09-03T10:36:20Z</time>
      </trkpt>
      <trkpt lat="43.3122680" lon="-2.6921140">
        <ele>71.2</ele>
        <time>2018-09-03T10:36:24Z</time>
      </trkpt>
      <trkpt lat="43.3122910" lon="-2.6921680">
        <ele>71.4</ele>
        <time>2018-09-03T10:36:26Z</time>
      </trkpt>
      <trkpt lat="43.3123090" lon="-2.6922520">
        <ele>71.6</ele>
        <time>2018-09-03T10:36:29Z</time>
      </trkpt>
      <trkpt lat="43.3122500" lon="-2.6925080">
        <ele>72.4</ele>
        <time>2018-09-03T10:36:39Z</time>
      </trkpt>
      <trkpt lat="43.3121350" lon="-2.6925360">
        <ele>73.4</ele>
        <time>2018-09-03T10:36:47Z</time>
      </trkpt>
      <trkpt lat="43.3119950" lon="-2.6924970">
        <ele>74.4</ele>
        <time>2018-09-03T10:36:53Z</time>
      </trkpt>
      <trkpt lat="43.3118050" lon="-2.6923250">
        <ele>75.4</ele>
        <time>2018-09-03T10:37:02Z</time>
      </trkpt>
      <trkpt lat="43.3116190" lon="-2.6921760">
        <ele>76.2</ele>
        <time>2018-09-03T10:37:10Z</time>
      </trkpt>
      <trkpt lat="43.3113670" lon="-2.6920070">
        <ele>77.0</ele>
        <time>2018-09-03T10:37:22Z</time>
      </trkpt>
      <trkpt lat="43.3112180" lon="-2.6919530">
        <ele>77.8</ele>
        <time>2018-09-03T10:37:29Z</time>
      </trkpt>
      <trkpt lat="43.3110600" lon="-2.6919540">
        <ele>78.8</ele>
        <time>2018-09-03T10:37:37Z</time>
      </trkpt>
      <trkpt lat="43.3109190" lon="-2.6920990">
        <ele>79.6</ele>
        <time>2018-09-03T10:37:46Z</time>
      </trkpt>
      <trkpt lat="43.3108270" lon="-2.6922890">
        <ele>80.2</ele>
        <time>2018-09-03T10:37:53Z</time>
      </trkpt>
      <trkpt lat="43.3106760" lon="-2.6923680">
        <ele>81.4</ele>
        <time>2018-09-03T10:38:01Z</time>
      </trkpt>
      <trkpt lat="43.3105710" lon="-2.6924880">
        <ele>82.0</ele>
        <time>2018-09-03T10:38:08Z</time>
      </trkpt>
      <trkpt lat="43.3104520" lon="-2.6925900">
        <ele>83.2</ele>
        <time>2018-09-03T10:38:16Z</time>
      </trkpt>
      <trkpt lat="43.3103420" lon="-2.6926720">
        <ele>84.0</ele>
        <time>2018-09-03T10:38:23Z</time>
      </trkpt>
      <trkpt lat="43.3102020" lon="-2.6927720">
        <ele>85.0</ele>
        <time>2018-09-03T10:38:32Z</time>
      </trkpt>
      <trkpt lat="43.3101580" lon="-2.6928210">
        <ele>85.2</ele>
        <time>2018-09-03T10:38:35Z</time>
      </trkpt>
      <trkpt lat="43.3100770" lon="-2.6928750">
        <ele>85.8</ele>
        <time>2018-09-03T10:38:40Z</time>
      </trkpt>
      <trkpt lat="43.3100140" lon="-2.6929360">
        <ele>86.4</ele>
        <time>2018-09-03T10:38:44Z</time>
      </trkpt>
      <trkpt lat="43.3099470" lon="-2.6929990">
        <ele>86.8</ele>
        <time>2018-09-03T10:38:48Z</time>
      </trkpt>
      <trkpt lat="43.3097920" lon="-2.6931770">
        <ele>88.0</ele>
        <time>2018-09-03T10:38:58Z</time>
      </trkpt>
      <trkpt lat="43.3096520" lon="-2.6933970">
        <ele>88.8</ele>
        <time>2018-09-03T10:39:09Z</time>
      </trkpt>
      <trkpt lat="43.3095770" lon="-2.6936590">
        <ele>89.8</ele>
        <time>2018-09-03T10:39:21Z</time>
      </trkpt>
      <trkpt lat="43.3095820" lon="-2.6939520">
        <ele>90.8</ele>
        <time>2018-09-03T10:39:32Z</time>
      </trkpt>
      <trkpt lat="43.3096340" lon="-2.6941220">
        <ele>91.8</ele>
        <time>2018-09-03T10:39:39Z</time>
      </trkpt>
      <trkpt lat="43.3097490" lon="-2.6943380">
        <ele>93.0</ele>
        <time>2018-09-03T10:39:49Z</time>
      </trkpt>
      <trkpt lat="43.3098390" lon="-2.6945050">
        <ele>93.8</ele>
        <time>2018-09-03T10:39:57Z</time>
      </trkpt>
      <trkpt lat="43.3098590" lon="-2.6945410">
        <ele>94.0</ele>
        <time>2018-09-03T10:39:59Z</time>
      </trkpt>
      <trkpt lat="43.3099040" lon="-2.6946440">
        <ele>94.6</ele>
        <time>2018-09-03T10:40:04Z</time>
      </trkpt>
      <trkpt lat="43.3099380" lon="-2.6947710">
        <ele>95.2</ele>
        <time>2018-09-03T10:40:09Z</time>
      </trkpt>
      <trkpt lat="43.3099470" lon="-2.6948250">
        <ele>95.2</ele>
        <time>2018-09-03T10:40:11Z</time>
      </trkpt>
      <trkpt lat="43.3099410" lon="-2.6950100">
        <ele>96.4</ele>
        <time>2018-09-03T10:40:19Z</time>
      </trkpt>
      <trkpt lat="43.3099330" lon="-2.6950730">
        <ele>96.6</ele>
        <time>2018-09-03T10:40:22Z</time>
      </trkpt>
      <trkpt lat="43.3099060" lon="-2.6952260">
        <ele>97.2</ele>
        <time>2018-09-03T10:40:31Z</time>
      </trkpt>
      <trkpt lat="43.3099020" lon="-2.6952790">
        <ele>97.4</ele>
        <time>2018-09-03T10:40:34Z</time>
      </trkpt>
      <trkpt lat="43.3098730" lon="-2.6955380">
        <ele>98.6</ele>
        <time>2018-09-03T10:40:47Z</time>
      </trkpt>
      <trkpt lat="43.3098390" lon="-2.6956900">
        <ele>99.4</ele>
        <time>2018-09-03T10:40:53Z</time>
      </trkpt>
      <trkpt lat="43.3098240" lon="-2.6957760">
        <ele>99.4</ele>
        <time>2018-09-03T10:40:56Z</time>
      </trkpt>
      <trkpt lat="43.3098170" lon="-2.6958070">
        <ele>99.6</ele>
        <time>2018-09-03T10:40:57Z</time>
      </trkpt>
      <trkpt lat="43.3097980" lon="-2.6958980">
        <ele>99.8</ele>
        <time>2018-09-03T10:41:00Z</time>
      </trkpt>
      <trkpt lat="43.3097690" lon="-2.6960590">
        <ele>100.2</ele>
        <time>2018-09-03T10:41:05Z</time>
      </trkpt>
      <trkpt lat="43.3097450" lon="-2.6961880">
        <ele>100.6</ele>
        <time>2018-09-03T10:41:09Z</time>
      </trkpt>
      <trkpt lat="43.3097020" lon="-2.6964180">
        <ele>101.8</ele>
        <time>2018-09-03T10:41:16Z</time>
      </trkpt>
      <trkpt lat="43.3096540" lon="-2.6967020">
        <ele>102.8</ele>
        <time>2018-09-03T10:41:25Z</time>
      </trkpt>
      <trkpt lat="43.3096170" lon="-2.6968910">
        <ele>104.0</ele>
        <time>2018-09-03T10:41:31Z</time>
      </trkpt>
      <trkpt lat="43.3096040" lon="-2.6973420">
        <ele>105.2</ele>
        <time>2018-09-03T10:41:46Z</time>
      </trkpt>
      <trkpt lat="43.3096180" lon="-2.6974250">
        <ele>106.0</ele>
        <time>2018-09-03T10:41:49Z</time>
      </trkpt>
      <trkpt lat="43.3096330" lon="-2.6974790">
        <ele>106.2</ele>
        <time>2018-09-03T10:41:51Z</time>
      </trkpt>
      <trkpt lat="43.3097150" lon="-2.6976560">
        <ele>107.4</ele>
        <time>2018-09-03T10:41:58Z</time>
      </trkpt>
      <trkpt lat="43.3099260" lon="-2.6979360">
        <ele>108.4</ele>
        <time>2018-09-03T10:42:09Z</time>
      </trkpt>
      <trkpt lat="43.3100540" lon="-2.6981250">
        <ele>109.4</ele>
        <time>2018-09-03T10:42:17Z</time>
      </trkpt>
      <trkpt lat="43.3100920" lon="-2.6981750">
        <ele>109.4</ele>
        <time>2018-09-03T10:42:19Z</time>
      </trkpt>
      <trkpt lat="43.3101570" lon="-2.6982460">
        <ele>109.8</ele>
        <time>2018-09-03T10:42:22Z</time>
      </trkpt>
      <trkpt lat="43.3102600" lon="-2.6983750">
        <ele>110.2</ele>
        <time>2018-09-03T10:42:27Z</time>
      </trkpt>
      <trkpt lat="43.3103380" lon="-2.6984740">
        <ele>110.8</ele>
        <time>2018-09-03T10:42:31Z</time>
      </trkpt>
      <trkpt lat="43.3104470" lon="-2.6986040">
        <ele>110.8</ele>
        <time>2018-09-03T10:42:36Z</time>
      </trkpt>
      <trkpt lat="43.3104910" lon="-2.6986570">
        <ele>111.0</ele>
        <time>2018-09-03T10:42:38Z</time>
      </trkpt>
      <trkpt lat="43.3105800" lon="-2.6987610">
        <ele>111.0</ele>
        <time>2018-09-03T10:42:42Z</time>
      </trkpt>
      <trkpt lat="43.3110200" lon="-2.6990280">
        <ele>111.8</ele>
        <time>2018-09-03T10:43:00Z</time>
      </trkpt>
      <trkpt lat="43.3111410" lon="-2.6991280">
        <ele>112.8</ele>
        <time>2018-09-03T10:43:06Z</time>
      </trkpt>
      <trkpt lat="43.3111600" lon="-2.6991500">
        <ele>112.8</ele>
        <time>2018-09-03T10:43:07Z</time>
      </trkpt>
      <trkpt lat="43.3112250" lon="-2.6993290">
        <ele>113.8</ele>
        <time>2018-09-03T10:43:13Z</time>
      </trkpt>
      <trkpt lat="43.3112530" lon="-2.6995130">
        <ele>115.0</ele>
        <time>2018-09-03T10:43:19Z</time>
      </trkpt>
      <trkpt lat="43.3113310" lon="-2.6997140">
        <ele>116.0</ele>
        <time>2018-09-03T10:43:26Z</time>
      </trkpt>
      <trkpt lat="43.3114620" lon="-2.6998710">
        <ele>117.0</ele>
        <time>2018-09-03T10:43:34Z</time>
      </trkpt>
      <trkpt lat="43.3116150" lon="-2.6999730">
        <ele>118.0</ele>
        <time>2018-09-03T10:43:42Z</time>
      </trkpt>
      <trkpt lat="43.3117540" lon="-2.7000570">
        <ele>119.4</ele>
        <time>2018-09-03T10:43:49Z</time>
      </trkpt>
      <trkpt lat="43.3119020" lon="-2.7001330">
        <ele>120.6</ele>
        <time>2018-09-03T10:43:57Z</time>
      </trkpt>
      <trkpt lat="43.3120860" lon="-2.7002060">
        <ele>121.6</ele>
        <time>2018-09-03T10:44:07Z</time>
      </trkpt>
      <trkpt lat="43.3122090" lon="-2.7002970">
        <ele>122.6</ele>
        <time>2018-09-03T10:44:14Z</time>
      </trkpt>
      <trkpt lat="43.3123930" lon="-2.7004070">
        <ele>123.6</ele>
        <time>2018-09-03T10:44:23Z</time>
      </trkpt>
      <trkpt lat="43.3124950" lon="-2.7005150">
        <ele>124.2</ele>
        <time>2018-09-03T10:44:29Z</time>
      </trkpt>
      <trkpt lat="43.3125300" lon="-2.7005910">
        <ele>124.6</ele>
        <time>2018-09-03T10:44:32Z</time>
      </trkpt>
      <trkpt lat="43.3125380" lon="-2.7008340">
        <ele>125.4</ele>
        <time>2018-09-03T10:44:41Z</time>
      </trkpt>
      <trkpt lat="43.3125310" lon="-2.7008600">
        <ele>125.6</ele>
        <time>2018-09-03T10:44:42Z</time>
      </trkpt>
      <trkpt lat="43.3123830" lon="-2.7010330">
        <ele>126.4</ele>
        <time>2018-09-03T10:44:52Z</time>
      </trkpt>
      <trkpt lat="43.3121990" lon="-2.7011320">
        <ele>127.6</ele>
        <time>2018-09-03T10:45:02Z</time>
      </trkpt>
      <trkpt lat="43.3120720" lon="-2.7013090">
        <ele>128.6</ele>
        <time>2018-09-03T10:45:12Z</time>
      </trkpt>
      <trkpt lat="43.3119670" lon="-2.7014640">
        <ele>129.4</ele>
        <time>2018-09-03T10:45:20Z</time>
      </trkpt>
      <trkpt lat="43.3119320" lon="-2.7015000">
        <ele>129.6</ele>
        <time>2018-09-03T10:45:22Z</time>
      </trkpt>
      <trkpt lat="43.3117860" lon="-2.7015800">
        <ele>130.8</ele>
        <time>2018-09-03T10:45:30Z</time>
      </trkpt>
      <trkpt lat="43.3115370" lon="-2.7016840">
        <ele>131.8</ele>
        <time>2018-09-03T10:45:42Z</time>
      </trkpt>
      <trkpt lat="43.3114780" lon="-2.7017170">
        <ele>131.8</ele>
        <time>2018-09-03T10:45:45Z</time>
      </trkpt>
      <trkpt lat="43.3114000" lon="-2.7017500">
        <ele>132.6</ele>
        <time>2018-09-03T10:45:49Z</time>
      </trkpt>
      <trkpt lat="43.3112590" lon="-2.7018820">
        <ele>133.6</ele>
        <time>2018-09-03T10:45:57Z</time>
      </trkpt>
      <trkpt lat="43.3112310" lon="-2.7019890">
        <ele>134.2</ele>
        <time>2018-09-03T10:46:01Z</time>
      </trkpt>
      <trkpt lat="43.3112300" lon="-2.7020500">
        <ele>134.8</ele>
        <time>2018-09-03T10:46:03Z</time>
      </trkpt>
      <trkpt lat="43.3112680" lon="-2.7022260">
        <ele>135.8</ele>
        <time>2018-09-03T10:46:09Z</time>
      </trkpt>
      <trkpt lat="43.3113270" lon="-2.7024050">
        <ele>136.8</ele>
        <time>2018-09-03T10:46:15Z</time>
      </trkpt>
      <trkpt lat="43.3114420" lon="-2.7026260">
        <ele>137.8</ele>
        <time>2018-09-03T10:46:24Z</time>
      </trkpt>
      <trkpt lat="43.3115580" lon="-2.7027830">
        <ele>138.8</ele>
        <time>2018-09-03T10:46:32Z</time>
      </trkpt>
      <trkpt lat="43.3116890" lon="-2.7029360">
        <ele>139.8</ele>
        <time>2018-09-03T10:46:40Z</time>
      </trkpt>
      <trkpt lat="43.3118140" lon="-2.7030840">
        <ele>140.8</ele>
        <time>2018-09-03T10:46:48Z</time>
      </trkpt>
      <trkpt lat="43.3118310" lon="-2.7031050">
        <ele>140.8</ele>
        <time>2018-09-03T10:46:49Z</time>
      </trkpt>
      <trkpt lat="43.3119830" lon="-2.7032990">
        <ele>142.0</ele>
        <time>2018-09-03T10:46:59Z</time>
      </trkpt>
      <trkpt lat="43.3121560" lon="-2.7034600">
        <ele>143.0</ele>
        <time>2018-09-03T10:47:09Z</time>
      </trkpt>
      <trkpt lat="43.3123050" lon="-2.7035860">
        <ele>144.0</ele>
        <time>2018-09-03T10:47:17Z</time>
      </trkpt>
      <trkpt lat="43.3124980" lon="-2.7037910">
        <ele>145.2</ele>
        <time>2018-09-03T10:47:28Z</time>
      </trkpt>
      <trkpt lat="43.3126130" lon="-2.7039800">
        <ele>146.4</ele>
        <time>2018-09-03T10:47:37Z</time>
      </trkpt>
      <trkpt lat="43.3127340" lon="-2.7042170">
        <ele>147.4</ele>
        <time>2018-09-03T10:47:47Z</time>
      </trkpt>
      <trkpt lat="43.3128240" lon="-2.7044000">
        <ele>148.4</ele>
        <time>2018-09-03T10:47:55Z</time>
      </trkpt>
      <trkpt lat="43.3128530" lon="-2.7044800">
        <ele>148.6</ele>
        <time>2018-09-03T10:47:58Z</time>
      </trkpt>
      <trkpt lat="43.3129220" lon="-2.7046500">
        <ele>149.4</ele>
        <time>2018-09-03T10:48:05Z</time>
      </trkpt>
      <trkpt lat="43.3130620" lon="-2.7048680">
        <ele>150.4</ele>
        <time>2018-09-03T10:48:15Z</time>
      </trkpt>
      <trkpt lat="43.3131950" lon="-2.7049360">
        <ele>151.4</ele>
        <time>2018-09-03T10:48:23Z</time>
      </trkpt>
      <trkpt lat="43.3133380" lon="-2.7049370">
        <ele>152.4</ele>
        <time>2018-09-03T10:48:31Z</time>
      </trkpt>
      <trkpt lat="43.3135020" lon="-2.7048920">
        <ele>153.4</ele>
        <time>2018-09-03T10:48:40Z</time>
      </trkpt>
      <trkpt lat="43.3136830" lon="-2.7048210">
        <ele>154.4</ele>
        <time>2018-09-03T10:48:49Z</time>
      </trkpt>
      <trkpt lat="43.3138300" lon="-2.7047840">
        <ele>155.6</ele>
        <time>2018-09-03T10:48:56Z</time>
      </trkpt>
      <trkpt lat="43.3139150" lon="-2.7047770">
        <ele>155.8</ele>
        <time>2018-09-03T10:49:00Z</time>
      </trkpt>
      <trkpt lat="43.3140360" lon="-2.7047630">
        <ele>156.6</ele>
        <time>2018-09-03T10:49:06Z</time>
      </trkpt>
      <trkpt lat="43.3142410" lon="-2.7047730">
        <ele>157.6</ele>
        <time>2018-09-03T10:49:16Z</time>
      </trkpt>
      <trkpt lat="43.3144490" lon="-2.7048170">
        <ele>158.8</ele>
        <time>2018-09-03T10:49:27Z</time>
      </trkpt>
      <trkpt lat="43.3145510" lon="-2.7048170">
        <ele>159.2</ele>
        <time>2018-09-03T10:49:32Z</time>
      </trkpt>
      <trkpt lat="43.3146180" lon="-2.7048160">
        <ele>159.8</ele>
        <time>2018-09-03T10:49:36Z</time>
      </trkpt>
      <trkpt lat="43.3147980" lon="-2.7047880">
        <ele>161.0</ele>
        <time>2018-09-03T10:49:45Z</time>
      </trkpt>
      <trkpt lat="43.3148540" lon="-2.7047700">
        <ele>161.2</ele>
        <time>2018-09-03T10:49:48Z</time>
      </trkpt>
      <trkpt lat="43.3149290" lon="-2.7047250">
        <ele>161.8</ele>
        <time>2018-09-03T10:49:52Z</time>
      </trkpt>
      <trkpt lat="43.3149530" lon="-2.7047100">
        <ele>162.0</ele>
        <time>2018-09-03T10:49:53Z</time>
      </trkpt>
      <trkpt lat="43.3150590" lon="-2.7046720">
        <ele>162.4</ele>
        <time>2018-09-03T10:49:58Z</time>
      </trkpt>
      <trkpt lat="43.3151140" lon="-2.7046440">
        <ele>162.8</ele>
        <time>2018-09-03T10:50:01Z</time>
      </trkpt>
      <trkpt lat="43.3151530" lon="-2.7046260">
        <ele>163.0</ele>
        <time>2018-09-03T10:50:03Z</time>
      </trkpt>
      <trkpt lat="43.3152980" lon="-2.7045760">
        <ele>164.0</ele>
        <time>2018-09-03T10:50:11Z</time>
      </trkpt>
      <trkpt lat="43.3154870" lon="-2.7045990">
        <ele>165.2</ele>
        <time>2018-09-03T10:50:21Z</time>
      </trkpt>
      <trkpt lat="43.3156910" lon="-2.7046740">
        <ele>166.2</ele>
        <time>2018-09-03T10:50:32Z</time>
      </trkpt>
      <trkpt lat="43.3158450" lon="-2.7047480">
        <ele>167.4</ele>
        <time>2018-09-03T10:50:40Z</time>
      </trkpt>
      <trkpt lat="43.3159820" lon="-2.7048360">
        <ele>168.4</ele>
        <time>2018-09-03T10:50:48Z</time>
      </trkpt>
      <trkpt lat="43.3161170" lon="-2.7049190">
        <ele>169.2</ele>
        <time>2018-09-03T10:50:56Z</time>
      </trkpt>
      <trkpt lat="43.3163220" lon="-2.7050430">
        <ele>170.4</ele>
        <time>2018-09-03T10:51:08Z</time>
      </trkpt>
      <trkpt lat="43.3164550" lon="-2.7051200">
        <ele>171.2</ele>
        <time>2018-09-03T10:51:15Z</time>
      </trkpt>
      <trkpt lat="43.3165110" lon="-2.7051520">
        <ele>171.6</ele>
        <time>2018-09-03T10:51:18Z</time>
      </trkpt>
      <trkpt lat="43.3167460" lon="-2.7052480">
        <ele>172.4</ele>
        <time>2018-09-03T10:51:31Z</time>
      </trkpt>
      <trkpt lat="43.3168920" lon="-2.7053150">
        <ele>173.2</ele>
        <time>2018-09-03T10:51:39Z</time>
      </trkpt>
      <trkpt lat="43.3170120" lon="-2.7053730">
        <ele>174.2</ele>
        <time>2018-09-03T10:51:46Z</time>
      </trkpt>
      <trkpt lat="43.3171660" lon="-2.7054100">
        <ele>175.4</ele>
        <time>2018-09-03T10:51:54Z</time>
      </trkpt>
      <trkpt lat="43.3172990" lon="-2.7054510">
        <ele>176.2</ele>
        <time>2018-09-03T10:52:02Z</time>
      </trkpt>
      <trkpt lat="43.3175000" lon="-2.7055100">
        <ele>177.0</ele>
        <time>2018-09-03T10:52:14Z</time>
      </trkpt>
      <trkpt lat="43.3176010" lon="-2.7055270">
        <ele>178.0</ele>
        <time>2018-09-03T10:52:20Z</time>
      </trkpt>
      <trkpt lat="43.3177360" lon="-2.7055660">
        <ele>178.8</ele>
        <time>2018-09-03T10:52:27Z</time>
      </trkpt>
      <trkpt lat="43.3178580" lon="-2.7057160">
        <ele>180.0</ele>
        <time>2018-09-03T10:52:35Z</time>
      </trkpt>
      <trkpt lat="43.3178850" lon="-2.7058080">
        <ele>180.2</ele>
        <time>2018-09-03T10:52:39Z</time>
      </trkpt>
      <trkpt lat="43.3178480" lon="-2.7059410">
        <ele>180.6</ele>
        <time>2018-09-03T10:52:45Z</time>
      </trkpt>
      <trkpt lat="43.3177050" lon="-2.7059680">
        <ele>181.6</ele>
        <time>2018-09-03T10:52:55Z</time>
      </trkpt>
      <trkpt lat="43.3175730" lon="-2.7059700">
        <ele>182.6</ele>
        <time>2018-09-03T10:53:02Z</time>
      </trkpt>
      <trkpt lat="43.3174150" lon="-2.7059800">
        <ele>183.4</ele>
        <time>2018-09-03T10:53:10Z</time>
      </trkpt>
      <trkpt lat="43.3172720" lon="-2.7060200">
        <ele>184.6</ele>
        <time>2018-09-03T10:53:18Z</time>
      </trkpt>
      <trkpt lat="43.3171270" lon="-2.7060440">
        <ele>185.4</ele>
        <time>2018-09-03T10:53:26Z</time>
      </trkpt>
      <trkpt lat="43.3169550" lon="-2.7060750">
        <ele>186.4</ele>
        <time>2018-09-03T10:53:34Z</time>
      </trkpt>
      <trkpt lat="43.3169370" lon="-2.7060890">
        <ele>186.2</ele>
        <time>2018-09-03T10:53:35Z</time>
      </trkpt>
      <trkpt lat="43.3168020" lon="-2.7061580">
        <ele>187.4</ele>
        <time>2018-09-03T10:53:42Z</time>
      </trkpt>
      <trkpt lat="43.3166280" lon="-2.7062600">
        <ele>188.2</ele>
        <time>2018-09-03T10:53:51Z</time>
      </trkpt>
      <trkpt lat="43.3164550" lon="-2.7063380">
        <ele>189.4</ele>
        <time>2018-09-03T10:53:59Z</time>
      </trkpt>
      <trkpt lat="43.3162780" lon="-2.7063700">
        <ele>190.4</ele>
        <time>2018-09-03T10:54:07Z</time>
      </trkpt>
      <trkpt lat="43.3160730" lon="-2.7064440">
        <ele>191.2</ele>
        <time>2018-09-03T10:54:15Z</time>
      </trkpt>
      <trkpt lat="43.3159630" lon="-2.7064910">
        <ele>192.4</ele>
        <time>2018-09-03T10:54:20Z</time>
      </trkpt>
      <trkpt lat="43.3157620" lon="-2.7066850">
        <ele>193.2</ele>
        <time>2018-09-03T10:54:30Z</time>
      </trkpt>
      <trkpt lat="43.3157370" lon="-2.7069880">
        <ele>194.4</ele>
        <time>2018-09-03T10:54:38Z</time>
      </trkpt>
      <trkpt lat="43.3157550" lon="-2.7071990">
        <ele>195.4</ele>
        <time>2018-09-03T10:54:44Z</time>
      </trkpt>
      <trkpt lat="43.3157640" lon="-2.7074120">
        <ele>196.4</ele>
        <time>2018-09-03T10:54:50Z</time>
      </trkpt>
      <trkpt lat="43.3157870" lon="-2.7077250">
        <ele>197.6</ele>
        <time>2018-09-03T10:55:00Z</time>
      </trkpt>
      <trkpt lat="43.3158000" lon="-2.7079760">
        <ele>198.8</ele>
        <time>2018-09-03T10:55:08Z</time>
      </trkpt>
      <trkpt lat="43.3157520" lon="-2.7081750">
        <ele>199.8</ele>
        <time>2018-09-03T10:55:16Z</time>
      </trkpt>
      <trkpt lat="43.3156230" lon="-2.7083000">
        <ele>200.8</ele>
        <time>2018-09-03T10:55:24Z</time>
      </trkpt>
      <trkpt lat="43.3155220" lon="-2.7084900">
        <ele>201.8</ele>
        <time>2018-09-03T10:55:32Z</time>
      </trkpt>
      <trkpt lat="43.3155070" lon="-2.7085440">
        <ele>202.4</ele>
        <time>2018-09-03T10:55:34Z</time>
      </trkpt>
      <trkpt lat="43.3155220" lon="-2.7086660">
        <ele>203.0</ele>
        <time>2018-09-03T10:55:38Z</time>
      </trkpt>
      <trkpt lat="43.3155840" lon="-2.7089220">
        <ele>204.0</ele>
        <time>2018-09-03T10:55:46Z</time>
      </trkpt>
      <trkpt lat="43.3156520" lon="-2.7091410">
        <ele>205.2</ele>
        <time>2018-09-03T10:55:53Z</time>
      </trkpt>
      <trkpt lat="43.3157330" lon="-2.7093800">
        <ele>206.2</ele>
        <time>2018-09-03T10:56:01Z</time>
      </trkpt>
      <trkpt lat="43.3158470" lon="-2.7096190">
        <ele>207.2</ele>
        <time>2018-09-03T10:56:10Z</time>
      </trkpt>
      <trkpt lat="43.3159460" lon="-2.7098140">
        <ele>208.4</ele>
        <time>2018-09-03T10:56:18Z</time>
      </trkpt>
      <trkpt lat="43.3160470" lon="-2.7100600">
        <ele>209.6</ele>
        <time>2018-09-03T10:56:27Z</time>
      </trkpt>
      <trkpt lat="43.3160970" lon="-2.7102460">
        <ele>210.6</ele>
        <time>2018-09-03T10:56:33Z</time>
      </trkpt>
      <trkpt lat="43.3161420" lon="-2.7105750">
        <ele>211.6</ele>
        <time>2018-09-03T10:56:44Z</time>
      </trkpt>
      <trkpt lat="43.3161700" lon="-2.7108300">
        <ele>212.6</ele>
        <time>2018-09-03T10:56:54Z</time>
      </trkpt>
      <trkpt lat="43.3162360" lon="-2.7110560">
        <ele>214.0</ele>
        <time>2018-09-03T10:57:02Z</time>
      </trkpt>
      <trkpt lat="43.3163370" lon="-2.7112920">
        <ele>215.0</ele>
        <time>2018-09-03T10:57:11Z</time>
      </trkpt>
      <trkpt lat="43.3164490" lon="-2.7114680">
        <ele>216.0</ele>
        <time>2018-09-03T10:57:19Z</time>
      </trkpt>
      <trkpt lat="43.3165880" lon="-2.7116760">
        <ele>217.2</ele>
        <time>2018-09-03T10:57:28Z</time>
      </trkpt>
      <trkpt lat="43.3167010" lon="-2.7118880">
        <ele>218.2</ele>
        <time>2018-09-03T10:57:37Z</time>
      </trkpt>
      <trkpt lat="43.3167850" lon="-2.7120400">
        <ele>219.4</ele>
        <time>2018-09-03T10:57:44Z</time>
      </trkpt>
      <trkpt lat="43.3168520" lon="-2.7122450">
        <ele>220.4</ele>
        <time>2018-09-03T10:57:51Z</time>
      </trkpt>
      <trkpt lat="43.3168160" lon="-2.7125320">
        <ele>221.4</ele>
        <time>2018-09-03T10:58:02Z</time>
      </trkpt>
      <trkpt lat="43.3167660" lon="-2.7127130">
        <ele>222.4</ele>
        <time>2018-09-03T10:58:11Z</time>
      </trkpt>
      <trkpt lat="43.3166450" lon="-2.7129000">
        <ele>223.8</ele>
        <time>2018-09-03T10:58:20Z</time>
      </trkpt>
      <trkpt lat="43.3164550" lon="-2.7129730">
        <ele>224.8</ele>
        <time>2018-09-03T10:58:29Z</time>
      </trkpt>
      <trkpt lat="43.3162560" lon="-2.7129850">
        <ele>225.8</ele>
        <time>2018-09-03T10:58:38Z</time>
      </trkpt>
      <trkpt lat="43.3161460" lon="-2.7130460">
        <ele>226.6</ele>
        <time>2018-09-03T10:58:44Z</time>
      </trkpt>
      <trkpt lat="43.3160140" lon="-2.7131660">
        <ele>227.8</ele>
        <time>2018-09-03T10:58:52Z</time>
      </trkpt>
      <trkpt lat="43.3158730" lon="-2.7132610">
        <ele>228.8</ele>
        <time>2018-09-03T10:58:59Z</time>
      </trkpt>
      <trkpt lat="43.3156990" lon="-2.7132330">
        <ele>229.8</ele>
        <time>2018-09-03T10:59:08Z</time>
      </trkpt>
      <trkpt lat="43.3155200" lon="-2.7131110">
        <ele>231.0</ele>
        <time>2018-09-03T10:59:19Z</time>
      </trkpt>
      <trkpt lat="43.3152390" lon="-2.7130460">
        <ele>232.0</ele>
        <time>2018-09-03T10:59:29Z</time>
      </trkpt>
      <trkpt lat="43.3148550" lon="-2.7131850">
        <ele>233.0</ele>
        <time>2018-09-03T10:59:43Z</time>
      </trkpt>
      <trkpt lat="43.3146980" lon="-2.7135030">
        <ele>234.0</ele>
        <time>2018-09-03T10:59:53Z</time>
      </trkpt>
      <trkpt lat="43.3146870" lon="-2.7139530">
        <ele>235.2</ele>
        <time>2018-09-03T11:00:05Z</time>
      </trkpt>
      <trkpt lat="43.3146900" lon="-2.7141690">
        <ele>235.8</ele>
        <time>2018-09-03T11:00:11Z</time>
      </trkpt>
      <trkpt lat="43.3146970" lon="-2.7143510">
        <ele>236.2</ele>
        <time>2018-09-03T11:00:16Z</time>
      </trkpt>
      <trkpt lat="43.3146750" lon="-2.7147320">
        <ele>237.2</ele>
        <time>2018-09-03T11:00:27Z</time>
      </trkpt>
      <trkpt lat="43.3146550" lon="-2.7150980">
        <ele>238.6</ele>
        <time>2018-09-03T11:00:39Z</time>
      </trkpt>
      <trkpt lat="43.3146450" lon="-2.7153160">
        <ele>239.2</ele>
        <time>2018-09-03T11:00:46Z</time>
      </trkpt>
      <trkpt lat="43.3146370" lon="-2.7153860">
        <ele>239.6</ele>
        <time>2018-09-03T11:00:48Z</time>
      </trkpt>
      <trkpt lat="43.3146400" lon="-2.7156070">
        <ele>240.8</ele>
        <time>2018-09-03T11:00:55Z</time>
      </trkpt>
      <trkpt lat="43.3146720" lon="-2.7158180">
        <ele>241.8</ele>
        <time>2018-09-03T11:01:02Z</time>
      </trkpt>
      <trkpt lat="43.3147190" lon="-2.7160780">
        <ele>242.8</ele>
        <time>2018-09-03T11:01:11Z</time>
      </trkpt>
      <trkpt lat="43.3147610" lon="-2.7163010">
        <ele>243.8</ele>
        <time>2018-09-03T11:01:19Z</time>
      </trkpt>
      <trkpt lat="43.3147910" lon="-2.7165720">
        <ele>245.0</ele>
        <time>2018-09-03T11:01:28Z</time>
      </trkpt>
      <trkpt lat="43.3147990" lon="-2.7168170">
        <ele>246.0</ele>
        <time>2018-09-03T11:01:36Z</time>
      </trkpt>
      <trkpt lat="43.3148020" lon="-2.7170070">
        <ele>247.0</ele>
        <time>2018-09-03T11:01:42Z</time>
      </trkpt>
      <trkpt lat="43.3147950" lon="-2.7173210">
        <ele>248.2</ele>
        <time>2018-09-03T11:01:52Z</time>
      </trkpt>
      <trkpt lat="43.3147800" lon="-2.7175570">
        <ele>249.2</ele>
        <time>2018-09-03T11:02:00Z</time>
      </trkpt>
      <trkpt lat="43.3147090" lon="-2.7178150">
        <ele>250.2</ele>
        <time>2018-09-03T11:02:09Z</time>
      </trkpt>
      <trkpt lat="43.3146950" lon="-2.7178720">
        <ele>250.4</ele>
        <time>2018-09-03T11:02:11Z</time>
      </trkpt>
      <trkpt lat="43.3146630" lon="-2.7179840">
        <ele>250.8</ele>
        <time>2018-09-03T11:02:15Z</time>
      </trkpt>
      <trkpt lat="43.3146440" lon="-2.7180360">
        <ele>251.0</ele>
        <time>2018-09-03T11:02:17Z</time>
      </trkpt>
      <trkpt lat="43.3146170" lon="-2.7181120">
        <ele>251.4</ele>
        <time>2018-09-03T11:02:20Z</time>
      </trkpt>
      <trkpt lat="43.3145990" lon="-2.7181910">
        <ele>251.8</ele>
        <time>2018-09-03T11:02:23Z</time>
      </trkpt>
      <trkpt lat="43.3145760" lon="-2.7182720">
        <ele>252.0</ele>
        <time>2018-09-03T11:02:26Z</time>
      </trkpt>
      <trkpt lat="43.3145520" lon="-2.7183490">
        <ele>252.4</ele>
        <time>2018-09-03T11:02:29Z</time>
      </trkpt>
      <trkpt lat="43.3145200" lon="-2.7184710">
        <ele>253.0</ele>
        <time>2018-09-03T11:02:34Z</time>
      </trkpt>
      <trkpt lat="43.3144810" lon="-2.7185660">
        <ele>253.8</ele>
        <time>2018-09-03T11:02:38Z</time>
      </trkpt>
      <trkpt lat="43.3143750" lon="-2.7188100">
        <ele>255.0</ele>
        <time>2018-09-03T11:02:48Z</time>
      </trkpt>
      <trkpt lat="43.3142890" lon="-2.7188920">
        <ele>255.6</ele>
        <time>2018-09-03T11:02:54Z</time>
      </trkpt>
      <trkpt lat="43.3142500" lon="-2.7189350">
        <ele>256.0</ele>
        <time>2018-09-03T11:02:57Z</time>
      </trkpt>
      <trkpt lat="43.3141660" lon="-2.7190310">
        <ele>256.6</ele>
        <time>2018-09-03T11:03:03Z</time>
      </trkpt>
      <trkpt lat="43.3141200" lon="-2.7190830">
        <ele>257.0</ele>
        <time>2018-09-03T11:03:06Z</time>
      </trkpt>
      <trkpt lat="43.3139680" lon="-2.7192510">
        <ele>258.0</ele>
        <time>2018-09-03T11:03:15Z</time>
      </trkpt>
      <trkpt lat="43.3138400" lon="-2.7194690">
        <ele>259.4</ele>
        <time>2018-09-03T11:03:25Z</time>
      </trkpt>
      <trkpt lat="43.3137880" lon="-2.7196250">
        <ele>260.0</ele>
        <time>2018-09-03T11:03:32Z</time>
      </trkpt>
      <trkpt lat="43.3137620" lon="-2.7197110">
        <ele>260.4</ele>
        <time>2018-09-03T11:03:36Z</time>
      </trkpt>
      <trkpt lat="43.3136450" lon="-2.7199710">
        <ele>261.6</ele>
        <time>2018-09-03T11:03:49Z</time>
      </trkpt>
      <trkpt lat="43.3135990" lon="-2.7201850">
        <ele>262.6</ele>
        <time>2018-09-03T11:03:58Z</time>
      </trkpt>
      <trkpt lat="43.3135770" lon="-2.7202840">
        <ele>263.0</ele>
        <time>2018-09-03T11:04:03Z</time>
      </trkpt>
      <trkpt lat="43.3135260" lon="-2.7205240">
        <ele>263.6</ele>
        <time>2018-09-03T11:04:13Z</time>
      </trkpt>
      <trkpt lat="43.3135390" lon="-2.7207040">
        <ele>264.0</ele>
        <time>2018-09-03T11:04:19Z</time>
      </trkpt>
      <trkpt lat="43.3136340" lon="-2.7209720">
        <ele>264.8</ele>
        <time>2018-09-03T11:04:28Z</time>
      </trkpt>
      <trkpt lat="43.3137850" lon="-2.7214740">
        <ele>265.0</ele>
        <time>2018-09-03T11:04:43Z</time>
      </trkpt>
      <trkpt lat="43.3138300" lon="-2.7216090">
        <ele>264.8</ele>
        <time>2018-09-03T11:04:47Z</time>
      </trkpt>
      <trkpt lat="43.3138430" lon="-2.7216370">
        <ele>264.8</ele>
        <time>2018-09-03T11:04:49Z</time>
      </trkpt>
      <trkpt lat="43.3138420" lon="-2.7216600">
        <ele>264.8</ele>
        <time>2018-09-03T11:04:51Z</time>
      </trkpt>
      <trkpt lat="43.3138300" lon="-2.7216730">
        <ele>265.0</ele>
        <time>2018-09-03T11:04:53Z</time>
      </trkpt>
      <trkpt lat="43.3137890" lon="-2.7216140">
        <ele>265.2</ele>
        <time>2018-09-03T11:04:58Z</time>
      </trkpt>
      <trkpt lat="43.3137370" lon="-2.7215480">
        <ele>265.2</ele>
        <time>2018-09-03T11:05:02Z</time>
      </trkpt>
      <trkpt lat="43.3137140" lon="-2.7215200">
        <ele>265.2</ele>
        <time>2018-09-03T11:05:04Z</time>
      </trkpt>
      <trkpt lat="43.3137950" lon="-2.7214910">
        <ele>265.4</ele>
        <time>2018-09-03T11:05:11Z</time>
      </trkpt>
      <trkpt lat="43.3137130" lon="-2.7215700">
        <ele>265.4</ele>
        <time>2018-09-03T11:05:17Z</time>
      </trkpt>
      <trkpt lat="43.3136190" lon="-2.7215410">
        <ele>265.4</ele>
        <time>2018-09-03T11:05:24Z</time>
      </trkpt>
      <trkpt lat="43.3136040" lon="-2.7215440">
        <ele>265.4</ele>
        <time>2018-09-03T11:05:25Z</time>
      </trkpt>
      <trkpt lat="43.3135750" lon="-2.7215550">
        <ele>265.8</ele>
        <time>2018-09-03T11:05:27Z</time>
      </trkpt>
      <trkpt lat="43.3134580" lon="-2.7216410">
        <ele>266.8</ele>
        <time>2018-09-03T11:05:35Z</time>
      </trkpt>
      <trkpt lat="43.3133860" lon="-2.7217140">
        <ele>267.2</ele>
        <time>2018-09-03T11:05:40Z</time>
      </trkpt>
      <trkpt lat="43.3133230" lon="-2.7217900">
        <ele>268.0</ele>
        <time>2018-09-03T11:05:45Z</time>
      </trkpt>
      <trkpt lat="43.3133070" lon="-2.7218040">
        <ele>268.0</ele>
        <time>2018-09-03T11:05:46Z</time>
      </trkpt>
      <trkpt lat="43.3132640" lon="-2.7218440">
        <ele>268.6</ele>
        <time>2018-09-03T11:05:49Z</time>
      </trkpt>
      <trkpt lat="43.3132020" lon="-2.7218990">
        <ele>269.2</ele>
        <time>2018-09-03T11:05:54Z</time>
      </trkpt>
      <trkpt lat="43.3131760" lon="-2.7219090">
        <ele>270.2</ele>
        <time>2018-09-03T11:06:00Z</time>
      </trkpt>
      <trkpt lat="43.3131670" lon="-2.7219090">
        <ele>270.8</ele>
        <time>2018-09-03T11:06:15Z</time>
      </trkpt>
      <trkpt lat="43.3131670" lon="-2.7219090">
        <ele>270.8</ele>
        <time>2018-09-03T11:06:17Z</time>
      </trkpt>
      <trkpt lat="43.3131570" lon="-2.7218970">
        <ele>270.8</ele>
        <time>2018-09-03T11:06:39Z</time>
      </trkpt>
      <trkpt lat="43.3131570" lon="-2.7218970">
        <ele>270.8</ele>
        <time>2018-09-03T11:06:40Z</time>
      </trkpt>
      <trkpt lat="43.3131570" lon="-2.7218970">
        <ele>270.8</ele>
        <time>2018-09-03T11:06:42Z</time>
      </trkpt>
      <trkpt lat="43.3131570" lon="-2.7218970">
        <ele>270.8</ele>
        <time>2018-09-03T11:06:43Z</time>
      </trkpt>
      <trkpt lat="43.3131570" lon="-2.7218970">
        <ele>271.0</ele>
        <time>2018-09-03T11:06:50Z</time>
      </trkpt>
      <trkpt lat="43.3131570" lon="-2.7218970">
        <ele>271.0</ele>
        <time>2018-09-03T11:06:53Z</time>
      </trkpt>
      <trkpt lat="43.3131570" lon="-2.7218970">
        <ele>270.8</ele>
        <time>2018-09-03T11:07:02Z</time>
      </trkpt>
      <trkpt lat="43.3131570" lon="-2.7218970">
        <ele>270.8</ele>
        <time>2018-09-03T11:07:05Z</time>
      </trkpt>
      <trkpt lat="43.3131590" lon="-2.7219060">
        <ele>271.0</ele>
        <time>2018-09-03T11:07:18Z</time>
      </trkpt>
      <trkpt lat="43.3131900" lon="-2.7219500">
        <ele>270.8</ele>
        <time>2018-09-03T11:07:28Z</time>
      </trkpt>
      <trkpt lat="43.3131900" lon="-2.7219500">
        <ele>271.0</ele>
        <time>2018-09-03T11:07:31Z</time>
      </trkpt>
      <trkpt lat="43.3131900" lon="-2.7219510">
        <ele>271.0</ele>
        <time>2018-09-03T11:07:35Z</time>
      </trkpt>
      <trkpt lat="43.3131900" lon="-2.7219510">
        <ele>271.2</ele>
        <time>2018-09-03T11:07:49Z</time>
      </trkpt>
      <trkpt lat="43.3131900" lon="-2.7219510">
        <ele>271.2</ele>
        <time>2018-09-03T11:07:52Z</time>
      </trkpt>
      <trkpt lat="43.3131900" lon="-2.7219520">
        <ele>271.2</ele>
        <time>2018-09-03T11:08:15Z</time>
      </trkpt>
      <trkpt lat="43.3131900" lon="-2.7219530">
        <ele>271.0</ele>
        <time>2018-09-03T11:08:42Z</time>
      </trkpt>
      <trkpt lat="43.3131900" lon="-2.7219540">
        <ele>271.2</ele>
        <time>2018-09-03T11:08:57Z</time>
      </trkpt>
      <trkpt lat="43.3131900" lon="-2.7219550">
        <ele>271.0</ele>
        <time>2018-09-03T11:09:22Z</time>
      </trkpt>
      <trkpt lat="43.3131900" lon="-2.7219570">
        <ele>271.4</ele>
        <time>2018-09-03T11:09:52Z</time>
      </trkpt>
      <trkpt lat="43.3131900" lon="-2.7219570">
        <ele>271.4</ele>
        <time>2018-09-03T11:10:01Z</time>
      </trkpt>
      <trkpt lat="43.3131900" lon="-2.7219580">
        <ele>271.4</ele>
        <time>2018-09-03T11:10:13Z</time>
      </trkpt>
      <trkpt lat="43.3131900" lon="-2.7219580">
        <ele>271.4</ele>
        <time>2018-09-03T11:10:32Z</time>
      </trkpt>
      <trkpt lat="43.3131900" lon="-2.7219580">
        <ele>271.4</ele>
        <time>2018-09-03T11:10:42Z</time>
      </trkpt>
      <trkpt lat="43.3131900" lon="-2.7219590">
        <ele>271.2</ele>
        <time>2018-09-03T11:10:52Z</time>
      </trkpt>
      <trkpt lat="43.3131900" lon="-2.7219600">
        <ele>271.6</ele>
        <time>2018-09-03T11:11:30Z</time>
      </trkpt>
      <trkpt lat="43.3131900" lon="-2.7219600">
        <ele>271.6</ele>
        <time>2018-09-03T11:11:33Z</time>
      </trkpt>
      <trkpt lat="43.3131890" lon="-2.7219600">
        <ele>271.6</ele>
        <time>2018-09-03T11:11:37Z</time>
      </trkpt>
      <trkpt lat="43.3131890" lon="-2.7219600">
        <ele>271.6</ele>
        <time>2018-09-03T11:11:43Z</time>
      </trkpt>
      <trkpt lat="43.3131900" lon="-2.7219600">
        <ele>271.4</ele>
        <time>2018-09-03T11:11:51Z</time>
      </trkpt>
      <trkpt lat="43.3131900" lon="-2.7219600">
        <ele>271.4</ele>
        <time>2018-09-03T11:11:54Z</time>
      </trkpt>
      <trkpt lat="43.3131900" lon="-2.7219600">
        <ele>271.4</ele>
        <time>2018-09-03T11:12:00Z</time>
      </trkpt>
      <trkpt lat="43.3131900" lon="-2.7219600">
        <ele>271.4</ele>
        <time>2018-09-03T11:12:03Z</time>
      </trkpt>
      <trkpt lat="43.3131900" lon="-2.7219600">
        <ele>271.4</ele>
        <time>2018-09-03T11:12:07Z</time>
      </trkpt>
      <trkpt lat="43.3131890" lon="-2.7219610">
        <ele>271.4</ele>
        <time>2018-09-03T11:12:09Z</time>
      </trkpt>
      <trkpt lat="43.3131900" lon="-2.7219610">
        <ele>271.4</ele>
        <time>2018-09-03T11:12:26Z</time>
      </trkpt>
      <trkpt lat="43.3131900" lon="-2.7219610">
        <ele>271.4</ele>
        <time>2018-09-03T11:12:30Z</time>
      </trkpt>
      <trkpt lat="43.3131910" lon="-2.7219610">
        <ele>271.4</ele>
        <time>2018-09-03T11:12:34Z</time>
      </trkpt>
      <trkpt lat="43.3131900" lon="-2.7219600">
        <ele>271.4</ele>
        <time>2018-09-03T11:14:02Z</time>
      </trkpt>
      <trkpt lat="43.3131920" lon="-2.7219610">
        <ele>271.4</ele>
        <time>2018-09-03T11:14:22Z</time>
      </trkpt>
      <trkpt lat="43.3132070" lon="-2.7219630">
        <ele>271.4</ele>
        <time>2018-09-03T11:14:24Z</time>
      </trkpt>
      <trkpt lat="43.3132150" lon="-2.7219570">
        <ele>271.4</ele>
        <time>2018-09-03T11:14:25Z</time>
      </trkpt>
      <trkpt lat="43.3132260" lon="-2.7219480">
        <ele>271.4</ele>
        <time>2018-09-03T11:14:26Z</time>
      </trkpt>
      <trkpt lat="43.3132530" lon="-2.7219050">
        <ele>271.4</ele>
        <time>2018-09-03T11:14:28Z</time>
      </trkpt>
      <trkpt lat="43.3132680" lon="-2.7218690">
        <ele>271.4</ele>
        <time>2018-09-03T11:14:29Z</time>
      </trkpt>
      <trkpt lat="43.3132890" lon="-2.7218250">
        <ele>271.4</ele>
        <time>2018-09-03T11:14:30Z</time>
      </trkpt>
      <trkpt lat="43.3135620" lon="-2.7214820">
        <ele>270.0</ele>
        <time>2018-09-03T11:14:37Z</time>
      </trkpt>
      <trkpt lat="43.3136210" lon="-2.7214320">
        <ele>268.6</ele>
        <time>2018-09-03T11:14:39Z</time>
      </trkpt>
      <trkpt lat="43.3136680" lon="-2.7213990">
        <ele>267.6</ele>
        <time>2018-09-03T11:14:41Z</time>
      </trkpt>
      <trkpt lat="43.3137010" lon="-2.7214010">
        <ele>267.2</ele>
        <time>2018-09-03T11:14:42Z</time>
      </trkpt>
      <trkpt lat="43.3137860" lon="-2.7214960">
        <ele>266.4</ele>
        <time>2018-09-03T11:14:45Z</time>
      </trkpt>
      <trkpt lat="43.3138180" lon="-2.7215930">
        <ele>266.2</ele>
        <time>2018-09-03T11:14:47Z</time>
      </trkpt>
      <trkpt lat="43.3138780" lon="-2.7217970">
        <ele>265.6</ele>
        <time>2018-09-03T11:14:51Z</time>
      </trkpt>
      <trkpt lat="43.3139430" lon="-2.7220130">
        <ele>265.2</ele>
        <time>2018-09-03T11:14:55Z</time>
      </trkpt>
      <trkpt lat="43.3139880" lon="-2.7221280">
        <ele>265.0</ele>
        <time>2018-09-03T11:14:57Z</time>
      </trkpt>
      <trkpt lat="43.3140940" lon="-2.7222940">
        <ele>264.4</ele>
        <time>2018-09-03T11:15:00Z</time>
      </trkpt>
      <trkpt lat="43.3141410" lon="-2.7223480">
        <ele>264.2</ele>
        <time>2018-09-03T11:15:01Z</time>
      </trkpt>
      <trkpt lat="43.3141940" lon="-2.7223960">
        <ele>264.2</ele>
        <time>2018-09-03T11:15:02Z</time>
      </trkpt>
      <trkpt lat="43.3142520" lon="-2.7224370">
        <ele>264.2</ele>
        <time>2018-09-03T11:15:03Z</time>
      </trkpt>
      <trkpt lat="43.3143790" lon="-2.7225100">
        <ele>263.8</ele>
        <time>2018-09-03T11:15:05Z</time>
      </trkpt>
      <trkpt lat="43.3145250" lon="-2.7225600">
        <ele>263.2</ele>
        <time>2018-09-03T11:15:07Z</time>
      </trkpt>
      <trkpt lat="43.3147700" lon="-2.7225960">
        <ele>261.6</ele>
        <time>2018-09-03T11:15:10Z</time>
      </trkpt>
      <trkpt lat="43.3149460" lon="-2.7226110">
        <ele>260.6</ele>
        <time>2018-09-03T11:15:12Z</time>
      </trkpt>
      <trkpt lat="43.3151240" lon="-2.7226220">
        <ele>259.4</ele>
        <time>2018-09-03T11:15:14Z</time>
      </trkpt>
      <trkpt lat="43.3152110" lon="-2.7226420">
        <ele>259.0</ele>
        <time>2018-09-03T11:15:15Z</time>
      </trkpt>
      <trkpt lat="43.3152960" lon="-2.7226780">
        <ele>258.2</ele>
        <time>2018-09-03T11:15:16Z</time>
      </trkpt>
      <trkpt lat="43.3154600" lon="-2.7227900">
        <ele>256.6</ele>
        <time>2018-09-03T11:15:18Z</time>
      </trkpt>
      <trkpt lat="43.3156210" lon="-2.7229170">
        <ele>254.6</ele>
        <time>2018-09-03T11:15:20Z</time>
      </trkpt>
      <trkpt lat="43.3157060" lon="-2.7229790">
        <ele>253.4</ele>
        <time>2018-09-03T11:15:21Z</time>
      </trkpt>
      <trkpt lat="43.3158850" lon="-2.7230830">
        <ele>252.4</ele>
        <time>2018-09-03T11:15:23Z</time>
      </trkpt>
      <trkpt lat="43.3160880" lon="-2.7231360">
        <ele>251.4</ele>
        <time>2018-09-03T11:15:25Z</time>
      </trkpt>
      <trkpt lat="43.3163950" lon="-2.7231810">
        <ele>249.8</ele>
        <time>2018-09-03T11:15:28Z</time>
      </trkpt>
      <trkpt lat="43.3164990" lon="-2.7232190">
        <ele>249.2</ele>
        <time>2018-09-03T11:15:29Z</time>
      </trkpt>
      <trkpt lat="43.3165990" lon="-2.7232810">
        <ele>247.8</ele>
        <time>2018-09-03T11:15:30Z</time>
      </trkpt>
      <trkpt lat="43.3167880" lon="-2.7234500">
        <ele>246.2</ele>
        <time>2018-09-03T11:15:32Z</time>
      </trkpt>
      <trkpt lat="43.3168920" lon="-2.7235290">
        <ele>245.4</ele>
        <time>2018-09-03T11:15:33Z</time>
      </trkpt>
      <trkpt lat="43.3170000" lon="-2.7235920">
        <ele>244.6</ele>
        <time>2018-09-03T11:15:34Z</time>
      </trkpt>
      <trkpt lat="43.3172290" lon="-2.7236590">
        <ele>243.6</ele>
        <time>2018-09-03T11:15:36Z</time>
      </trkpt>
      <trkpt lat="43.3174600" lon="-2.7237240">
        <ele>242.0</ele>
        <time>2018-09-03T11:15:38Z</time>
      </trkpt>
      <trkpt lat="43.3175710" lon="-2.7237850">
        <ele>240.6</ele>
        <time>2018-09-03T11:15:39Z</time>
      </trkpt>
      <trkpt lat="43.3176750" lon="-2.7238690">
        <ele>239.0</ele>
        <time>2018-09-03T11:15:40Z</time>
      </trkpt>
      <trkpt lat="43.3177680" lon="-2.7239630">
        <ele>237.6</ele>
        <time>2018-09-03T11:15:41Z</time>
      </trkpt>
      <trkpt lat="43.3178580" lon="-2.7240630">
        <ele>236.8</ele>
        <time>2018-09-03T11:15:42Z</time>
      </trkpt>
      <trkpt lat="43.3179480" lon="-2.7241560">
        <ele>236.4</ele>
        <time>2018-09-03T11:15:43Z</time>
      </trkpt>
      <trkpt lat="43.3180450" lon="-2.7242390">
        <ele>236.0</ele>
        <time>2018-09-03T11:15:44Z</time>
      </trkpt>
      <trkpt lat="43.3182480" lon="-2.7243940">
        <ele>235.2</ele>
        <time>2018-09-03T11:15:46Z</time>
      </trkpt>
      <trkpt lat="43.3184530" lon="-2.7245370">
        <ele>233.8</ele>
        <time>2018-09-03T11:15:48Z</time>
      </trkpt>
      <trkpt lat="43.3189050" lon="-2.7246850">
        <ele>232.2</ele>
        <time>2018-09-03T11:15:52Z</time>
      </trkpt>
      <trkpt lat="43.3191280" lon="-2.7247420">
        <ele>230.2</ele>
        <time>2018-09-03T11:15:54Z</time>
      </trkpt>
      <trkpt lat="43.3193440" lon="-2.7247730">
        <ele>228.8</ele>
        <time>2018-09-03T11:15:56Z</time>
      </trkpt>
      <trkpt lat="43.3195520" lon="-2.7247860">
        <ele>227.4</ele>
        <time>2018-09-03T11:15:58Z</time>
      </trkpt>
      <trkpt lat="43.3196540" lon="-2.7248070">
        <ele>226.0</ele>
        <time>2018-09-03T11:15:59Z</time>
      </trkpt>
      <trkpt lat="43.3198430" lon="-2.7249170">
        <ele>224.8</ele>
        <time>2018-09-03T11:16:01Z</time>
      </trkpt>
      <trkpt lat="43.3200150" lon="-2.7250700">
        <ele>223.6</ele>
        <time>2018-09-03T11:16:03Z</time>
      </trkpt>
      <trkpt lat="43.3202570" lon="-2.7252990">
        <ele>222.8</ele>
        <time>2018-09-03T11:16:06Z</time>
      </trkpt>
      <trkpt lat="43.3204240" lon="-2.7254470">
        <ele>222.4</ele>
        <time>2018-09-03T11:16:08Z</time>
      </trkpt>
      <trkpt lat="43.3205850" lon="-2.7256050">
        <ele>220.8</ele>
        <time>2018-09-03T11:16:10Z</time>
      </trkpt>
      <trkpt lat="43.3207400" lon="-2.7257710">
        <ele>219.6</ele>
        <time>2018-09-03T11:16:12Z</time>
      </trkpt>
      <trkpt lat="43.3208860" lon="-2.7259230">
        <ele>218.4</ele>
        <time>2018-09-03T11:16:14Z</time>
      </trkpt>
      <trkpt lat="43.3210610" lon="-2.7260170">
        <ele>217.2</ele>
        <time>2018-09-03T11:16:16Z</time>
      </trkpt>
      <trkpt lat="43.3212530" lon="-2.7260750">
        <ele>216.2</ele>
        <time>2018-09-03T11:16:18Z</time>
      </trkpt>
      <trkpt lat="43.3213490" lon="-2.7261090">
        <ele>215.8</ele>
        <time>2018-09-03T11:16:19Z</time>
      </trkpt>
      <trkpt lat="43.3214380" lon="-2.7261620">
        <ele>215.6</ele>
        <time>2018-09-03T11:16:20Z</time>
      </trkpt>
      <trkpt lat="43.3216110" lon="-2.7262720">
        <ele>215.4</ele>
        <time>2018-09-03T11:16:22Z</time>
      </trkpt>
      <trkpt lat="43.3219770" lon="-2.7262000">
        <ele>214.6</ele>
        <time>2018-09-03T11:16:26Z</time>
      </trkpt>
      <trkpt lat="43.3222130" lon="-2.7259460">
        <ele>212.4</ele>
        <time>2018-09-03T11:16:29Z</time>
      </trkpt>
      <trkpt lat="43.3222920" lon="-2.7258800">
        <ele>211.2</ele>
        <time>2018-09-03T11:16:30Z</time>
      </trkpt>
      <trkpt lat="43.3224590" lon="-2.7258850">
        <ele>209.2</ele>
        <time>2018-09-03T11:16:32Z</time>
      </trkpt>
      <trkpt lat="43.3225810" lon="-2.7260490">
        <ele>208.2</ele>
        <time>2018-09-03T11:16:34Z</time>
      </trkpt>
      <trkpt lat="43.3226060" lon="-2.7262200">
        <ele>207.2</ele>
        <time>2018-09-03T11:16:36Z</time>
      </trkpt>
      <trkpt lat="43.3224890" lon="-2.7265240">
        <ele>206.0</ele>
        <time>2018-09-03T11:16:39Z</time>
      </trkpt>
      <trkpt lat="43.3223200" lon="-2.7271760">
        <ele>204.8</ele>
        <time>2018-09-03T11:16:44Z</time>
      </trkpt>
      <trkpt lat="43.3223000" lon="-2.7273200">
        <ele>203.8</ele>
        <time>2018-09-03T11:16:45Z</time>
      </trkpt>
      <trkpt lat="43.3223040" lon="-2.7274610">
        <ele>202.8</ele>
        <time>2018-09-03T11:16:46Z</time>
      </trkpt>
      <trkpt lat="43.3223350" lon="-2.7276000">
        <ele>201.8</ele>
        <time>2018-09-03T11:16:47Z</time>
      </trkpt>
      <trkpt lat="43.3224440" lon="-2.7278280">
        <ele>200.2</ele>
        <time>2018-09-03T11:16:49Z</time>
      </trkpt>
      <trkpt lat="43.3226400" lon="-2.7279790">
        <ele>199.0</ele>
        <time>2018-09-03T11:16:51Z</time>
      </trkpt>
      <trkpt lat="43.3227440" lon="-2.7280490">
        <ele>198.2</ele>
        <time>2018-09-03T11:16:52Z</time>
      </trkpt>
      <trkpt lat="43.3228550" lon="-2.7281220">
        <ele>197.0</ele>
        <time>2018-09-03T11:16:53Z</time>
      </trkpt>
      <trkpt lat="43.3229750" lon="-2.7281960">
        <ele>195.6</ele>
        <time>2018-09-03T11:16:54Z</time>
      </trkpt>
      <trkpt lat="43.3231030" lon="-2.7282640">
        <ele>194.0</ele>
        <time>2018-09-03T11:16:55Z</time>
      </trkpt>
      <trkpt lat="43.3232270" lon="-2.7283160">
        <ele>192.4</ele>
        <time>2018-09-03T11:16:56Z</time>
      </trkpt>
      <trkpt lat="43.3233440" lon="-2.7283530">
        <ele>191.2</ele>
        <time>2018-09-03T11:16:57Z</time>
      </trkpt>
      <trkpt lat="43.3235420" lon="-2.7284480">
        <ele>189.6</ele>
        <time>2018-09-03T11:16:59Z</time>
      </trkpt>
      <trkpt lat="43.3236420" lon="-2.7287800">
        <ele>188.4</ele>
        <time>2018-09-03T11:17:02Z</time>
      </trkpt>
      <trkpt lat="43.3234670" lon="-2.7290280">
        <ele>187.2</ele>
        <time>2018-09-03T11:17:05Z</time>
      </trkpt>
      <trkpt lat="43.3233090" lon="-2.7293050">
        <ele>186.6</ele>
        <time>2018-09-03T11:17:08Z</time>
      </trkpt>
      <trkpt lat="43.3231560" lon="-2.7296040">
        <ele>186.4</ele>
        <time>2018-09-03T11:17:11Z</time>
      </trkpt>
      <trkpt lat="43.3230520" lon="-2.7298190">
        <ele>186.2</ele>
        <time>2018-09-03T11:17:13Z</time>
      </trkpt>
      <trkpt lat="43.3228170" lon="-2.7302150">
        <ele>185.2</ele>
        <time>2018-09-03T11:17:17Z</time>
      </trkpt>
      <trkpt lat="43.3227490" lon="-2.7303030">
        <ele>184.8</ele>
        <time>2018-09-03T11:17:18Z</time>
      </trkpt>
      <trkpt lat="43.3226090" lon="-2.7304780">
        <ele>183.4</ele>
        <time>2018-09-03T11:17:20Z</time>
      </trkpt>
      <trkpt lat="43.3225270" lon="-2.7307050">
        <ele>181.8</ele>
        <time>2018-09-03T11:17:22Z</time>
      </trkpt>
      <trkpt lat="43.3225560" lon="-2.7309720">
        <ele>180.8</ele>
        <time>2018-09-03T11:17:24Z</time>
      </trkpt>
      <trkpt lat="43.3226620" lon="-2.7312320">
        <ele>179.4</ele>
        <time>2018-09-03T11:17:26Z</time>
      </trkpt>
      <trkpt lat="43.3228790" lon="-2.7315330">
        <ele>178.4</ele>
        <time>2018-09-03T11:17:29Z</time>
      </trkpt>
      <trkpt lat="43.3231010" lon="-2.7318030">
        <ele>177.0</ele>
        <time>2018-09-03T11:17:32Z</time>
      </trkpt>
      <trkpt lat="43.3233230" lon="-2.7320430">
        <ele>175.0</ele>
        <time>2018-09-03T11:17:35Z</time>
      </trkpt>
      <trkpt lat="43.3234030" lon="-2.7321090">
        <ele>174.2</ele>
        <time>2018-09-03T11:17:36Z</time>
      </trkpt>
      <trkpt lat="43.3234870" lon="-2.7321570">
        <ele>173.8</ele>
        <time>2018-09-03T11:17:37Z</time>
      </trkpt>
      <trkpt lat="43.3236710" lon="-2.7321810">
        <ele>172.6</ele>
        <time>2018-09-03T11:17:39Z</time>
      </trkpt>
      <trkpt lat="43.3237660" lon="-2.7321810">
        <ele>171.8</ele>
        <time>2018-09-03T11:17:40Z</time>
      </trkpt>
      <trkpt lat="43.3238600" lon="-2.7321810">
        <ele>171.0</ele>
        <time>2018-09-03T11:17:41Z</time>
      </trkpt>
      <trkpt lat="43.3240450" lon="-2.7322080">
        <ele>170.0</ele>
        <time>2018-09-03T11:17:43Z</time>
      </trkpt>
      <trkpt lat="43.3241370" lon="-2.7322460">
        <ele>169.8</ele>
        <time>2018-09-03T11:17:44Z</time>
      </trkpt>
      <trkpt lat="43.3243090" lon="-2.7323630">
        <ele>169.2</ele>
        <time>2018-09-03T11:17:46Z</time>
      </trkpt>
      <trkpt lat="43.3243890" lon="-2.7324330">
        <ele>169.0</ele>
        <time>2018-09-03T11:17:47Z</time>
      </trkpt>
      <trkpt lat="43.3245440" lon="-2.7325870">
        <ele>168.6</ele>
        <time>2018-09-03T11:17:49Z</time>
      </trkpt>
      <trkpt lat="43.3248590" lon="-2.7328940">
        <ele>167.2</ele>
        <time>2018-09-03T11:17:53Z</time>
      </trkpt>
      <trkpt lat="43.3250150" lon="-2.7330470">
        <ele>166.0</ele>
        <time>2018-09-03T11:17:55Z</time>
      </trkpt>
      <trkpt lat="43.3251710" lon="-2.7332010">
        <ele>165.2</ele>
        <time>2018-09-03T11:17:57Z</time>
      </trkpt>
      <trkpt lat="43.3252560" lon="-2.7332640">
        <ele>164.8</ele>
        <time>2018-09-03T11:17:58Z</time>
      </trkpt>
      <trkpt lat="43.3254380" lon="-2.7333590">
        <ele>163.4</ele>
        <time>2018-09-03T11:18:00Z</time>
      </trkpt>
      <trkpt lat="43.3257220" lon="-2.7334550">
        <ele>162.2</ele>
        <time>2018-09-03T11:18:03Z</time>
      </trkpt>
      <trkpt lat="43.3260980" lon="-2.7335650">
        <ele>161.0</ele>
        <time>2018-09-03T11:18:07Z</time>
      </trkpt>
      <trkpt lat="43.3261870" lon="-2.7336120">
        <ele>160.6</ele>
        <time>2018-09-03T11:18:08Z</time>
      </trkpt>
      <trkpt lat="43.3262740" lon="-2.7336700">
        <ele>160.0</ele>
        <time>2018-09-03T11:18:09Z</time>
      </trkpt>
      <trkpt lat="43.3264170" lon="-2.7338420">
        <ele>159.0</ele>
        <time>2018-09-03T11:18:11Z</time>
      </trkpt>
      <trkpt lat="43.3264800" lon="-2.7339420">
        <ele>158.4</ele>
        <time>2018-09-03T11:18:12Z</time>
      </trkpt>
      <trkpt lat="43.3266840" lon="-2.7342390">
        <ele>157.6</ele>
        <time>2018-09-03T11:18:15Z</time>
      </trkpt>
      <trkpt lat="43.3268400" lon="-2.7344250">
        <ele>156.6</ele>
        <time>2018-09-03T11:18:17Z</time>
      </trkpt>
      <trkpt lat="43.3270080" lon="-2.7345940">
        <ele>155.0</ele>
        <time>2018-09-03T11:18:19Z</time>
      </trkpt>
      <trkpt lat="43.3270970" lon="-2.7346700">
        <ele>153.8</ele>
        <time>2018-09-03T11:18:20Z</time>
      </trkpt>
      <trkpt lat="43.3271840" lon="-2.7347460">
        <ele>152.6</ele>
        <time>2018-09-03T11:18:21Z</time>
      </trkpt>
      <trkpt lat="43.3273630" lon="-2.7348930">
        <ele>150.2</ele>
        <time>2018-09-03T11:18:23Z</time>
      </trkpt>
      <trkpt lat="43.3277090" lon="-2.7352000">
        <ele>149.2</ele>
        <time>2018-09-03T11:18:27Z</time>
      </trkpt>
      <trkpt lat="43.3278890" lon="-2.7355690">
        <ele>148.0</ele>
        <time>2018-09-03T11:18:30Z</time>
      </trkpt>
      <trkpt lat="43.3278750" lon="-2.7360350">
        <ele>147.4</ele>
        <time>2018-09-03T11:18:33Z</time>
      </trkpt>
      <trkpt lat="43.3278550" lon="-2.7365120">
        <ele>146.6</ele>
        <time>2018-09-03T11:18:36Z</time>
      </trkpt>
      <trkpt lat="43.3278440" lon="-2.7368340">
        <ele>145.4</ele>
        <time>2018-09-03T11:18:38Z</time>
      </trkpt>
      <trkpt lat="43.3278420" lon="-2.7371490">
        <ele>143.6</ele>
        <time>2018-09-03T11:18:40Z</time>
      </trkpt>
      <trkpt lat="43.3278400" lon="-2.7373100">
        <ele>142.2</ele>
        <time>2018-09-03T11:18:41Z</time>
      </trkpt>
      <trkpt lat="43.3278370" lon="-2.7374710">
        <ele>140.6</ele>
        <time>2018-09-03T11:18:42Z</time>
      </trkpt>
      <trkpt lat="43.3278340" lon="-2.7376330">
        <ele>139.4</ele>
        <time>2018-09-03T11:18:43Z</time>
      </trkpt>
      <trkpt lat="43.3278420" lon="-2.7379580">
        <ele>137.8</ele>
        <time>2018-09-03T11:18:45Z</time>
      </trkpt>
      <trkpt lat="43.3278710" lon="-2.7382810">
        <ele>136.0</ele>
        <time>2018-09-03T11:18:47Z</time>
      </trkpt>
      <trkpt lat="43.3279320" lon="-2.7385970">
        <ele>134.6</ele>
        <time>2018-09-03T11:18:49Z</time>
      </trkpt>
      <trkpt lat="43.3280320" lon="-2.7388950">
        <ele>132.8</ele>
        <time>2018-09-03T11:18:51Z</time>
      </trkpt>
      <trkpt lat="43.3281760" lon="-2.7391640">
        <ele>131.4</ele>
        <time>2018-09-03T11:18:53Z</time>
      </trkpt>
      <trkpt lat="43.3283310" lon="-2.7394170">
        <ele>129.8</ele>
        <time>2018-09-03T11:18:55Z</time>
      </trkpt>
      <trkpt lat="43.3284820" lon="-2.7396730">
        <ele>128.2</ele>
        <time>2018-09-03T11:18:57Z</time>
      </trkpt>
      <trkpt lat="43.3285510" lon="-2.7398040">
        <ele>127.2</ele>
        <time>2018-09-03T11:18:58Z</time>
      </trkpt>
      <trkpt lat="43.3287030" lon="-2.7400570">
        <ele>125.8</ele>
        <time>2018-09-03T11:19:00Z</time>
      </trkpt>
      <trkpt lat="43.3288840" lon="-2.7402520">
        <ele>124.4</ele>
        <time>2018-09-03T11:19:02Z</time>
      </trkpt>
      <trkpt lat="43.3291030" lon="-2.7403300">
        <ele>123.0</ele>
        <time>2018-09-03T11:19:04Z</time>
      </trkpt>
      <trkpt lat="43.3292080" lon="-2.7403680">
        <ele>122.6</ele>
        <time>2018-09-03T11:19:05Z</time>
      </trkpt>
      <trkpt lat="43.3293720" lon="-2.7405400">
        <ele>121.8</ele>
        <time>2018-09-03T11:19:07Z</time>
      </trkpt>
      <trkpt lat="43.3294640" lon="-2.7407960">
        <ele>120.8</ele>
        <time>2018-09-03T11:19:09Z</time>
      </trkpt>
      <trkpt lat="43.3295000" lon="-2.7409300">
        <ele>120.2</ele>
        <time>2018-09-03T11:19:10Z</time>
      </trkpt>
      <trkpt lat="43.3295440" lon="-2.7410580">
        <ele>119.8</ele>
        <time>2018-09-03T11:19:11Z</time>
      </trkpt>
      <trkpt lat="43.3296020" lon="-2.7411740">
        <ele>119.4</ele>
        <time>2018-09-03T11:19:12Z</time>
      </trkpt>
      <trkpt lat="43.3298690" lon="-2.7416000">
        <ele>117.8</ele>
        <time>2018-09-03T11:19:16Z</time>
      </trkpt>
      <trkpt lat="43.3299970" lon="-2.7418270">
        <ele>116.4</ele>
        <time>2018-09-03T11:19:18Z</time>
      </trkpt>
      <trkpt lat="43.3301210" lon="-2.7420590">
        <ele>115.4</ele>
        <time>2018-09-03T11:19:20Z</time>
      </trkpt>
      <trkpt lat="43.3301830" lon="-2.7421750">
        <ele>115.2</ele>
        <time>2018-09-03T11:19:21Z</time>
      </trkpt>
      <trkpt lat="43.3303250" lon="-2.7423840">
        <ele>114.6</ele>
        <time>2018-09-03T11:19:23Z</time>
      </trkpt>
      <trkpt lat="43.3305040" lon="-2.7425280">
        <ele>113.6</ele>
        <time>2018-09-03T11:19:25Z</time>
      </trkpt>
      <trkpt lat="43.3307030" lon="-2.7426290">
        <ele>111.8</ele>
        <time>2018-09-03T11:19:27Z</time>
      </trkpt>
      <trkpt lat="43.3308780" lon="-2.7427980">
        <ele>110.6</ele>
        <time>2018-09-03T11:19:29Z</time>
      </trkpt>
      <trkpt lat="43.3309980" lon="-2.7430320">
        <ele>109.6</ele>
        <time>2018-09-03T11:19:31Z</time>
      </trkpt>
      <trkpt lat="43.3310880" lon="-2.7432930">
        <ele>107.6</ele>
        <time>2018-09-03T11:19:33Z</time>
      </trkpt>
      <trkpt lat="43.3312300" lon="-2.7436750">
        <ele>106.2</ele>
        <time>2018-09-03T11:19:36Z</time>
      </trkpt>
      <trkpt lat="43.3313220" lon="-2.7439240">
        <ele>105.0</ele>
        <time>2018-09-03T11:19:38Z</time>
      </trkpt>
      <trkpt lat="43.3314210" lon="-2.7441560">
        <ele>104.4</ele>
        <time>2018-09-03T11:19:40Z</time>
      </trkpt>
      <trkpt lat="43.3314850" lon="-2.7442510">
        <ele>103.8</ele>
        <time>2018-09-03T11:19:41Z</time>
      </trkpt>
      <trkpt lat="43.3316340" lon="-2.7443570">
        <ele>102.6</ele>
        <time>2018-09-03T11:19:43Z</time>
      </trkpt>
      <trkpt lat="43.3317110" lon="-2.7443860">
        <ele>102.0</ele>
        <time>2018-09-03T11:19:44Z</time>
      </trkpt>
      <trkpt lat="43.3318670" lon="-2.7444410">
        <ele>101.6</ele>
        <time>2018-09-03T11:19:46Z</time>
      </trkpt>
      <trkpt lat="43.3320160" lon="-2.7444980">
        <ele>101.4</ele>
        <time>2018-09-03T11:19:48Z</time>
      </trkpt>
      <trkpt lat="43.3325280" lon="-2.7448440">
        <ele>100.8</ele>
        <time>2018-09-03T11:19:56Z</time>
      </trkpt>
      <trkpt lat="43.3330920" lon="-2.7450040">
        <ele>101.2</ele>
        <time>2018-09-03T11:20:05Z</time>
      </trkpt>
      <trkpt lat="43.3333110" lon="-2.7451800">
        <ele>101.2</ele>
        <time>2018-09-03T11:20:09Z</time>
      </trkpt>
      <trkpt lat="43.3334010" lon="-2.7452990">
        <ele>101.2</ele>
        <time>2018-09-03T11:20:11Z</time>
      </trkpt>
      <trkpt lat="43.3335800" lon="-2.7455490">
        <ele>100.4</ele>
        <time>2018-09-03T11:20:15Z</time>
      </trkpt>
      <trkpt lat="43.3336300" lon="-2.7455970">
        <ele>100.2</ele>
        <time>2018-09-03T11:20:16Z</time>
      </trkpt>
      <trkpt lat="43.3339310" lon="-2.7458160">
        <ele>99.6</ele>
        <time>2018-09-03T11:20:21Z</time>
      </trkpt>
      <trkpt lat="43.3340270" lon="-2.7459520">
        <ele>99.4</ele>
        <time>2018-09-03T11:20:23Z</time>
      </trkpt>
      <trkpt lat="43.3340850" lon="-2.7461100">
        <ele>99.0</ele>
        <time>2018-09-03T11:20:25Z</time>
      </trkpt>
      <trkpt lat="43.3341030" lon="-2.7461960">
        <ele>98.8</ele>
        <time>2018-09-03T11:20:26Z</time>
      </trkpt>
      <trkpt lat="43.3341570" lon="-2.7465330">
        <ele>98.2</ele>
        <time>2018-09-03T11:20:30Z</time>
      </trkpt>
      <trkpt lat="43.3342150" lon="-2.7468620">
        <ele>98.0</ele>
        <time>2018-09-03T11:20:34Z</time>
      </trkpt>
      <trkpt lat="43.3343390" lon="-2.7473390">
        <ele>97.4</ele>
        <time>2018-09-03T11:20:40Z</time>
      </trkpt>
      <trkpt lat="43.3344600" lon="-2.7478170">
        <ele>96.8</ele>
        <time>2018-09-03T11:20:46Z</time>
      </trkpt>
      <trkpt lat="43.3345380" lon="-2.7480510">
        <ele>96.6</ele>
        <time>2018-09-03T11:20:49Z</time>
      </trkpt>
      <trkpt lat="43.3345920" lon="-2.7482020">
        <ele>96.4</ele>
        <time>2018-09-03T11:20:51Z</time>
      </trkpt>
      <trkpt lat="43.3347320" lon="-2.7485630">
        <ele>96.2</ele>
        <time>2018-09-03T11:20:56Z</time>
      </trkpt>
      <trkpt lat="43.3347200" lon="-2.7488580">
        <ele>95.6</ele>
        <time>2018-09-03T11:21:00Z</time>
      </trkpt>
      <trkpt lat="43.3346530" lon="-2.7489850">
        <ele>95.4</ele>
        <time>2018-09-03T11:21:02Z</time>
      </trkpt>
      <trkpt lat="43.3346120" lon="-2.7490430">
        <ele>95.4</ele>
        <time>2018-09-03T11:21:03Z</time>
      </trkpt>
      <trkpt lat="43.3345700" lon="-2.7491000">
        <ele>95.4</ele>
        <time>2018-09-03T11:21:04Z</time>
      </trkpt>
      <trkpt lat="43.3344820" lon="-2.7492130">
        <ele>95.2</ele>
        <time>2018-09-03T11:21:06Z</time>
      </trkpt>
      <trkpt lat="43.3341100" lon="-2.7495320">
        <ele>95.0</ele>
        <time>2018-09-03T11:21:13Z</time>
      </trkpt>
      <trkpt lat="43.3338570" lon="-2.7497990">
        <ele>94.6</ele>
        <time>2018-09-03T11:21:18Z</time>
      </trkpt>
      <trkpt lat="43.3337500" lon="-2.7500410">
        <ele>94.2</ele>
        <time>2018-09-03T11:21:21Z</time>
      </trkpt>
      <trkpt lat="43.3335050" lon="-2.7505020">
        <ele>93.4</ele>
        <time>2018-09-03T11:21:27Z</time>
      </trkpt>
      <trkpt lat="43.3334590" lon="-2.7505730">
        <ele>93.2</ele>
        <time>2018-09-03T11:21:28Z</time>
      </trkpt>
      <trkpt lat="43.3332080" lon="-2.7508850">
        <ele>91.8</ele>
        <time>2018-09-03T11:21:33Z</time>
      </trkpt>
      <trkpt lat="43.3330960" lon="-2.7509880">
        <ele>91.4</ele>
        <time>2018-09-03T11:21:35Z</time>
      </trkpt>
      <trkpt lat="43.3329100" lon="-2.7511020">
        <ele>90.6</ele>
        <time>2018-09-03T11:21:38Z</time>
      </trkpt>
      <trkpt lat="43.3325760" lon="-2.7511340">
        <ele>90.2</ele>
        <time>2018-09-03T11:21:43Z</time>
      </trkpt>
      <trkpt lat="43.3319900" lon="-2.7510490">
        <ele>89.8</ele>
        <time>2018-09-03T11:21:52Z</time>
      </trkpt>
      <trkpt lat="43.3316820" lon="-2.7512510">
        <ele>89.0</ele>
        <time>2018-09-03T11:21:57Z</time>
      </trkpt>
      <trkpt lat="43.3315720" lon="-2.7513670">
        <ele>88.4</ele>
        <time>2018-09-03T11:21:59Z</time>
      </trkpt>
      <trkpt lat="43.3314600" lon="-2.7514660">
        <ele>87.6</ele>
        <time>2018-09-03T11:22:01Z</time>
      </trkpt>
      <trkpt lat="43.3313990" lon="-2.7514960">
        <ele>87.4</ele>
        <time>2018-09-03T11:22:02Z</time>
      </trkpt>
      <trkpt lat="43.3313340" lon="-2.7515090">
        <ele>87.4</ele>
        <time>2018-09-03T11:22:03Z</time>
      </trkpt>
      <trkpt lat="43.3312010" lon="-2.7515180">
        <ele>87.2</ele>
        <time>2018-09-03T11:22:05Z</time>
      </trkpt>
      <trkpt lat="43.3311360" lon="-2.7515280">
        <ele>87.2</ele>
        <time>2018-09-03T11:22:06Z</time>
      </trkpt>
      <trkpt lat="43.3308720" lon="-2.7517370">
        <ele>86.4</ele>
        <time>2018-09-03T11:22:11Z</time>
      </trkpt>
      <trkpt lat="43.3308270" lon="-2.7517940">
        <ele>86.2</ele>
        <time>2018-09-03T11:22:12Z</time>
      </trkpt>
      <trkpt lat="43.3307870" lon="-2.7518570">
        <ele>86.0</ele>
        <time>2018-09-03T11:22:13Z</time>
      </trkpt>
      <trkpt lat="43.3306450" lon="-2.7521450">
        <ele>85.8</ele>
        <time>2018-09-03T11:22:17Z</time>
      </trkpt>
      <trkpt lat="43.3304160" lon="-2.7528180">
        <ele>85.4</ele>
        <time>2018-09-03T11:22:25Z</time>
      </trkpt>
      <trkpt lat="43.3303570" lon="-2.7529930">
        <ele>85.2</ele>
        <time>2018-09-03T11:22:27Z</time>
      </trkpt>
      <trkpt lat="43.3301970" lon="-2.7533170">
        <ele>84.6</ele>
        <time>2018-09-03T11:22:31Z</time>
      </trkpt>
      <trkpt lat="43.3300960" lon="-2.7534480">
        <ele>84.0</ele>
        <time>2018-09-03T11:22:33Z</time>
      </trkpt>
      <trkpt lat="43.3297400" lon="-2.7538520">
        <ele>82.8</ele>
        <time>2018-09-03T11:22:40Z</time>
      </trkpt>
      <trkpt lat="43.3294140" lon="-2.7545470">
        <ele>82.0</ele>
        <time>2018-09-03T11:22:49Z</time>
      </trkpt>
      <trkpt lat="43.3293480" lon="-2.7547150">
        <ele>81.6</ele>
        <time>2018-09-03T11:22:51Z</time>
      </trkpt>
      <trkpt lat="43.3292640" lon="-2.7548740">
        <ele>80.8</ele>
        <time>2018-09-03T11:22:53Z</time>
      </trkpt>
      <trkpt lat="43.3291660" lon="-2.7550150">
        <ele>80.6</ele>
        <time>2018-09-03T11:22:55Z</time>
      </trkpt>
      <trkpt lat="43.3291070" lon="-2.7550780">
        <ele>80.4</ele>
        <time>2018-09-03T11:22:56Z</time>
      </trkpt>
      <trkpt lat="43.3285980" lon="-2.7554360">
        <ele>79.4</ele>
        <time>2018-09-03T11:23:03Z</time>
      </trkpt>
      <trkpt lat="43.3282060" lon="-2.7556560">
        <ele>78.2</ele>
        <time>2018-09-03T11:23:08Z</time>
      </trkpt>
      <trkpt lat="43.3280300" lon="-2.7557560">
        <ele>77.8</ele>
        <time>2018-09-03T11:23:11Z</time>
      </trkpt>
      <trkpt lat="43.3278630" lon="-2.7556840">
        <ele>77.4</ele>
        <time>2018-09-03T11:23:15Z</time>
      </trkpt>
      <trkpt lat="43.3278280" lon="-2.7556400">
        <ele>77.2</ele>
        <time>2018-09-03T11:23:16Z</time>
      </trkpt>
      <trkpt lat="43.3275160" lon="-2.7552620">
        <ele>76.6</ele>
        <time>2018-09-03T11:23:24Z</time>
      </trkpt>
      <trkpt lat="43.3273790" lon="-2.7551380">
        <ele>76.6</ele>
        <time>2018-09-03T11:23:27Z</time>
      </trkpt>
      <trkpt lat="43.3271820" lon="-2.7549870">
        <ele>76.6</ele>
        <time>2018-09-03T11:23:31Z</time>
      </trkpt>
      <trkpt lat="43.3269110" lon="-2.7548180">
        <ele>76.2</ele>
        <time>2018-09-03T11:23:36Z</time>
      </trkpt>
      <trkpt lat="43.3266950" lon="-2.7546890">
        <ele>76.0</ele>
        <time>2018-09-03T11:23:40Z</time>
      </trkpt>
      <trkpt lat="43.3265430" lon="-2.7545900">
        <ele>75.4</ele>
        <time>2018-09-03T11:23:43Z</time>
      </trkpt>
      <trkpt lat="43.3264500" lon="-2.7545270">
        <ele>75.4</ele>
        <time>2018-09-03T11:23:45Z</time>
      </trkpt>
      <trkpt lat="43.3261810" lon="-2.7543960">
        <ele>75.4</ele>
        <time>2018-09-03T11:23:51Z</time>
      </trkpt>
      <trkpt lat="43.3260550" lon="-2.7543390">
        <ele>75.6</ele>
        <time>2018-09-03T11:23:54Z</time>
      </trkpt>
      <trkpt lat="43.3260140" lon="-2.7543200">
        <ele>75.8</ele>
        <time>2018-09-03T11:23:55Z</time>
      </trkpt>
      <trkpt lat="43.3258520" lon="-2.7542430">
        <ele>76.2</ele>
        <time>2018-09-03T11:23:59Z</time>
      </trkpt>
      <trkpt lat="43.3256580" lon="-2.7541470">
        <ele>76.8</ele>
        <time>2018-09-03T11:24:04Z</time>
      </trkpt>
      <trkpt lat="43.3253990" lon="-2.7539820">
        <ele>77.4</ele>
        <time>2018-09-03T11:24:11Z</time>
      </trkpt>
      <trkpt lat="43.3253640" lon="-2.7539520">
        <ele>77.4</ele>
        <time>2018-09-03T11:24:12Z</time>
      </trkpt>
      <trkpt lat="43.3251390" lon="-2.7537290">
        <ele>77.8</ele>
        <time>2018-09-03T11:24:19Z</time>
      </trkpt>
      <trkpt lat="43.3248070" lon="-2.7531320">
        <ele>79.0</ele>
        <time>2018-09-03T11:24:33Z</time>
      </trkpt>
      <trkpt lat="43.3247450" lon="-2.7529890">
        <ele>79.0</ele>
        <time>2018-09-03T11:24:36Z</time>
      </trkpt>
      <trkpt lat="43.3245840" lon="-2.7526190">
        <ele>79.2</ele>
        <time>2018-09-03T11:24:44Z</time>
      </trkpt>
      <trkpt lat="43.3244660" lon="-2.7523450">
        <ele>79.0</ele>
        <time>2018-09-03T11:24:50Z</time>
      </trkpt>
      <trkpt lat="43.3241720" lon="-2.7516940">
        <ele>79.6</ele>
        <time>2018-09-03T11:25:05Z</time>
      </trkpt>
      <trkpt lat="43.3240920" lon="-2.7515280">
        <ele>80.0</ele>
        <time>2018-09-03T11:25:09Z</time>
      </trkpt>
      <trkpt lat="43.3239610" lon="-2.7513010">
        <ele>80.2</ele>
        <time>2018-09-03T11:25:15Z</time>
      </trkpt>
      <trkpt lat="43.3238140" lon="-2.7511810">
        <ele>80.8</ele>
        <time>2018-09-03T11:25:21Z</time>
      </trkpt>
      <trkpt lat="43.3236850" lon="-2.7510980">
        <ele>81.4</ele>
        <time>2018-09-03T11:25:26Z</time>
      </trkpt>
      <trkpt lat="43.3232590" lon="-2.7506330">
        <ele>82.4</ele>
        <time>2018-09-03T11:25:42Z</time>
      </trkpt>
      <trkpt lat="43.3232030" lon="-2.7505730">
        <ele>82.6</ele>
        <time>2018-09-03T11:25:44Z</time>
      </trkpt>
      <trkpt lat="43.3228310" lon="-2.7500150">
        <ele>83.4</ele>
        <time>2018-09-03T11:25:59Z</time>
      </trkpt>
      <trkpt lat="43.3227420" lon="-2.7498460">
        <ele>83.6</ele>
        <time>2018-09-03T11:26:03Z</time>
      </trkpt>
      <trkpt lat="43.3226800" lon="-2.7497170">
        <ele>83.6</ele>
        <time>2018-09-03T11:26:06Z</time>
      </trkpt>
      <trkpt lat="43.3226150" lon="-2.7495860">
        <ele>83.6</ele>
        <time>2018-09-03T11:26:09Z</time>
      </trkpt>
      <trkpt lat="43.3225230" lon="-2.7494130">
        <ele>83.6</ele>
        <time>2018-09-03T11:26:13Z</time>
      </trkpt>
      <trkpt lat="43.3224760" lon="-2.7493250">
        <ele>83.6</ele>
        <time>2018-09-03T11:26:15Z</time>
      </trkpt>
      <trkpt lat="43.3224100" lon="-2.7491880">
        <ele>83.8</ele>
        <time>2018-09-03T11:26:18Z</time>
      </trkpt>
      <trkpt lat="43.3222540" lon="-2.7489930">
        <ele>83.8</ele>
        <time>2018-09-03T11:26:23Z</time>
      </trkpt>
      <trkpt lat="43.3221030" lon="-2.7488580">
        <ele>83.8</ele>
        <time>2018-09-03T11:26:27Z</time>
      </trkpt>
      <trkpt lat="43.3216260" lon="-2.7485100">
        <ele>83.2</ele>
        <time>2018-09-03T11:26:38Z</time>
      </trkpt>
      <trkpt lat="43.3214880" lon="-2.7484560">
        <ele>83.0</ele>
        <time>2018-09-03T11:26:41Z</time>
      </trkpt>
      <trkpt lat="43.3210280" lon="-2.7481810">
        <ele>83.6</ele>
        <time>2018-09-03T11:26:54Z</time>
      </trkpt>
      <trkpt lat="43.3207240" lon="-2.7475550">
        <ele>84.2</ele>
        <time>2018-09-03T11:27:07Z</time>
      </trkpt>
      <trkpt lat="43.3203960" lon="-2.7471160">
        <ele>85.0</ele>
        <time>2018-09-03T11:27:18Z</time>
      </trkpt>
      <trkpt lat="43.3200370" lon="-2.7466270">
        <ele>85.6</ele>
        <time>2018-09-03T11:27:32Z</time>
      </trkpt>
      <trkpt lat="43.3200090" lon="-2.7465680">
        <ele>86.0</ele>
        <time>2018-09-03T11:27:34Z</time>
      </trkpt>
      <trkpt lat="43.3199440" lon="-2.7464260">
        <ele>87.2</ele>
        <time>2018-09-03T11:27:40Z</time>
      </trkpt>
      <trkpt lat="43.3198790" lon="-2.7462640">
        <ele>88.4</ele>
        <time>2018-09-03T11:27:46Z</time>
      </trkpt>
      <trkpt lat="43.3197890" lon="-2.7460640">
        <ele>89.4</ele>
        <time>2018-09-03T11:27:52Z</time>
      </trkpt>
      <trkpt lat="43.3197020" lon="-2.7458470">
        <ele>90.2</ele>
        <time>2018-09-03T11:27:58Z</time>
      </trkpt>
      <trkpt lat="43.3196630" lon="-2.7457460">
        <ele>90.6</ele>
        <time>2018-09-03T11:28:01Z</time>
      </trkpt>
      <trkpt lat="43.3196040" lon="-2.7456850">
        <ele>91.0</ele>
        <time>2018-09-03T11:28:04Z</time>
      </trkpt>
      <trkpt lat="43.3195430" lon="-2.7455810">
        <ele>91.6</ele>
        <time>2018-09-03T11:28:08Z</time>
      </trkpt>
      <trkpt lat="43.3193790" lon="-2.7454260">
        <ele>92.8</ele>
        <time>2018-09-03T11:28:16Z</time>
      </trkpt>
      <trkpt lat="43.3193370" lon="-2.7453890">
        <ele>93.0</ele>
        <time>2018-09-03T11:28:18Z</time>
      </trkpt>
      <trkpt lat="43.3191560" lon="-2.7452630">
        <ele>93.6</ele>
        <time>2018-09-03T11:28:26Z</time>
      </trkpt>
      <trkpt lat="43.3190190" lon="-2.7452420">
        <ele>94.0</ele>
        <time>2018-09-03T11:28:31Z</time>
      </trkpt>
      <trkpt lat="43.3187100" lon="-2.7452480">
        <ele>95.0</ele>
        <time>2018-09-03T11:28:42Z</time>
      </trkpt>
      <trkpt lat="43.3185010" lon="-2.7452780">
        <ele>96.0</ele>
        <time>2018-09-03T11:28:49Z</time>
      </trkpt>
      <trkpt lat="43.3182050" lon="-2.7454020">
        <ele>97.4</ele>
        <time>2018-09-03T11:28:58Z</time>
      </trkpt>
      <trkpt lat="43.3179500" lon="-2.7455140">
        <ele>97.4</ele>
        <time>2018-09-03T11:29:04Z</time>
      </trkpt>
      <trkpt lat="43.3178140" lon="-2.7455700">
        <ele>97.4</ele>
        <time>2018-09-03T11:29:07Z</time>
      </trkpt>
      <trkpt lat="43.3175170" lon="-2.7456930">
        <ele>97.0</ele>
        <time>2018-09-03T11:29:13Z</time>
      </trkpt>
      <trkpt lat="43.3172310" lon="-2.7458020">
        <ele>96.2</ele>
        <time>2018-09-03T11:29:18Z</time>
      </trkpt>
      <trkpt lat="43.3171110" lon="-2.7458450">
        <ele>95.8</ele>
        <time>2018-09-03T11:29:20Z</time>
      </trkpt>
      <trkpt lat="43.3169900" lon="-2.7458860">
        <ele>95.6</ele>
        <time>2018-09-03T11:29:22Z</time>
      </trkpt>
      <trkpt lat="43.3168700" lon="-2.7459240">
        <ele>95.4</ele>
        <time>2018-09-03T11:29:24Z</time>
      </trkpt>
      <trkpt lat="43.3168090" lon="-2.7459440">
        <ele>95.0</ele>
        <time>2018-09-03T11:29:25Z</time>
      </trkpt>
      <trkpt lat="43.3162780" lon="-2.7461210">
        <ele>94.4</ele>
        <time>2018-09-03T11:29:34Z</time>
      </trkpt>
      <trkpt lat="43.3160950" lon="-2.7461820">
        <ele>94.4</ele>
        <time>2018-09-03T11:29:37Z</time>
      </trkpt>
      <trkpt lat="43.3159670" lon="-2.7462240">
        <ele>94.4</ele>
        <time>2018-09-03T11:29:39Z</time>
      </trkpt>
      <trkpt lat="43.3158360" lon="-2.7462700">
        <ele>94.4</ele>
        <time>2018-09-03T11:29:41Z</time>
      </trkpt>
      <trkpt lat="43.3155720" lon="-2.7463470">
        <ele>94.6</ele>
        <time>2018-09-03T11:29:45Z</time>
      </trkpt>
      <trkpt lat="43.3151290" lon="-2.7464630">
        <ele>95.0</ele>
        <time>2018-09-03T11:29:52Z</time>
      </trkpt>
      <trkpt lat="43.3147450" lon="-2.7465630">
        <ele>94.8</ele>
        <time>2018-09-03T11:29:58Z</time>
      </trkpt>
      <trkpt lat="43.3142470" lon="-2.7467120">
        <ele>94.8</ele>
        <time>2018-09-03T11:30:06Z</time>
      </trkpt>
      <trkpt lat="43.3136960" lon="-2.7468320">
        <ele>95.4</ele>
        <time>2018-09-03T11:30:15Z</time>
      </trkpt>
      <trkpt lat="43.3131320" lon="-2.7468750">
        <ele>96.2</ele>
        <time>2018-09-03T11:30:25Z</time>
      </trkpt>
      <trkpt lat="43.3127810" lon="-2.7468970">
        <ele>96.6</ele>
        <time>2018-09-03T11:30:32Z</time>
      </trkpt>
      <trkpt lat="43.3124480" lon="-2.7469600">
        <ele>97.8</ele>
        <time>2018-09-03T11:30:41Z</time>
      </trkpt>
      <trkpt lat="43.3123590" lon="-2.7469840">
        <ele>99.0</ele>
        <time>2018-09-03T11:30:44Z</time>
      </trkpt>
      <trkpt lat="43.3122470" lon="-2.7470110">
        <ele>100.2</ele>
        <time>2018-09-03T11:30:48Z</time>
      </trkpt>
      <trkpt lat="43.3121210" lon="-2.7470510">
        <ele>101.4</ele>
        <time>2018-09-03T11:30:53Z</time>
      </trkpt>
      <trkpt lat="43.3119690" lon="-2.7470860">
        <ele>102.4</ele>
        <time>2018-09-03T11:31:00Z</time>
      </trkpt>
      <trkpt lat="43.3118490" lon="-2.7471260">
        <ele>103.8</ele>
        <time>2018-09-03T11:31:06Z</time>
      </trkpt>
      <trkpt lat="43.3116960" lon="-2.7471910">
        <ele>104.8</ele>
        <time>2018-09-03T11:31:14Z</time>
      </trkpt>
      <trkpt lat="43.3114990" lon="-2.7472690">
        <ele>106.0</ele>
        <time>2018-09-03T11:31:24Z</time>
      </trkpt>
      <trkpt lat="43.3113170" lon="-2.7473350">
        <ele>107.2</ele>
        <time>2018-09-03T11:31:33Z</time>
      </trkpt>
      <trkpt lat="43.3111310" lon="-2.7473740">
        <ele>108.4</ele>
        <time>2018-09-03T11:31:41Z</time>
      </trkpt>
      <trkpt lat="43.3109040" lon="-2.7473760">
        <ele>109.4</ele>
        <time>2018-09-03T11:31:50Z</time>
      </trkpt>
      <trkpt lat="43.3106250" lon="-2.7473800">
        <ele>110.8</ele>
        <time>2018-09-03T11:32:00Z</time>
      </trkpt>
      <trkpt lat="43.3104260" lon="-2.7473590">
        <ele>111.8</ele>
        <time>2018-09-03T11:32:08Z</time>
      </trkpt>
      <trkpt lat="43.3101450" lon="-2.7473220">
        <ele>113.0</ele>
        <time>2018-09-03T11:32:20Z</time>
      </trkpt>
      <trkpt lat="43.3100200" lon="-2.7472930">
        <ele>114.2</ele>
        <time>2018-09-03T11:32:26Z</time>
      </trkpt>
      <trkpt lat="43.3098480" lon="-2.7472380">
        <ele>115.4</ele>
        <time>2018-09-03T11:32:34Z</time>
      </trkpt>
      <trkpt lat="43.3096800" lon="-2.7471290">
        <ele>116.4</ele>
        <time>2018-09-03T11:32:43Z</time>
      </trkpt>
      <trkpt lat="43.3095120" lon="-2.7470040">
        <ele>117.6</ele>
        <time>2018-09-03T11:32:52Z</time>
      </trkpt>
      <trkpt lat="43.3093810" lon="-2.7468690">
        <ele>118.6</ele>
        <time>2018-09-03T11:33:00Z</time>
      </trkpt>
      <trkpt lat="43.3092180" lon="-2.7466690">
        <ele>119.6</ele>
        <time>2018-09-03T11:33:10Z</time>
      </trkpt>
      <trkpt lat="43.3090580" lon="-2.7463790">
        <ele>120.6</ele>
        <time>2018-09-03T11:33:22Z</time>
      </trkpt>
      <trkpt lat="43.3090040" lon="-2.7463010">
        <ele>121.8</ele>
        <time>2018-09-03T11:33:26Z</time>
      </trkpt>
      <trkpt lat="43.3089020" lon="-2.7461520">
        <ele>123.0</ele>
        <time>2018-09-03T11:33:33Z</time>
      </trkpt>
      <trkpt lat="43.3087180" lon="-2.7460150">
        <ele>124.0</ele>
        <time>2018-09-03T11:33:43Z</time>
      </trkpt>
      <trkpt lat="43.3086110" lon="-2.7459510">
        <ele>125.0</ele>
        <time>2018-09-03T11:33:49Z</time>
      </trkpt>
      <trkpt lat="43.3084500" lon="-2.7458710">
        <ele>126.0</ele>
        <time>2018-09-03T11:33:58Z</time>
      </trkpt>
      <trkpt lat="43.3083260" lon="-2.7458340">
        <ele>127.2</ele>
        <time>2018-09-03T11:34:05Z</time>
      </trkpt>
      <trkpt lat="43.3081990" lon="-2.7457860">
        <ele>128.2</ele>
        <time>2018-09-03T11:34:13Z</time>
      </trkpt>
      <trkpt lat="43.3080180" lon="-2.7457950">
        <ele>129.2</ele>
        <time>2018-09-03T11:34:22Z</time>
      </trkpt>
      <trkpt lat="43.3079670" lon="-2.7458090">
        <ele>129.4</ele>
        <time>2018-09-03T11:34:24Z</time>
      </trkpt>
      <trkpt lat="43.3078720" lon="-2.7458310">
        <ele>129.6</ele>
        <time>2018-09-03T11:34:28Z</time>
      </trkpt>
      <trkpt lat="43.3077120" lon="-2.7458500">
        <ele>130.4</ele>
        <time>2018-09-03T11:34:36Z</time>
      </trkpt>
      <trkpt lat="43.3074400" lon="-2.7458370">
        <ele>131.6</ele>
        <time>2018-09-03T11:34:50Z</time>
      </trkpt>
      <trkpt lat="43.3073090" lon="-2.7457450">
        <ele>132.0</ele>
        <time>2018-09-03T11:34:55Z</time>
      </trkpt>
      <trkpt lat="43.3071900" lon="-2.7455980">
        <ele>132.8</ele>
        <time>2018-09-03T11:35:03Z</time>
      </trkpt>
      <trkpt lat="43.3071440" lon="-2.7455550">
        <ele>133.2</ele>
        <time>2018-09-03T11:35:06Z</time>
      </trkpt>
      <trkpt lat="43.3070900" lon="-2.7455160">
        <ele>133.6</ele>
        <time>2018-09-03T11:35:09Z</time>
      </trkpt>
      <trkpt lat="43.3070700" lon="-2.7455040">
        <ele>134.0</ele>
        <time>2018-09-03T11:35:10Z</time>
      </trkpt>
      <trkpt lat="43.3069700" lon="-2.7453860">
        <ele>134.4</ele>
        <time>2018-09-03T11:35:16Z</time>
      </trkpt>
      <trkpt lat="43.3068820" lon="-2.7452490">
        <ele>135.0</ele>
        <time>2018-09-03T11:35:22Z</time>
      </trkpt>
      <trkpt lat="43.3068270" lon="-2.7451260">
        <ele>136.0</ele>
        <time>2018-09-03T11:35:28Z</time>
      </trkpt>
      <trkpt lat="43.3067940" lon="-2.7450820">
        <ele>136.4</ele>
        <time>2018-09-03T11:35:31Z</time>
      </trkpt>
      <trkpt lat="43.3066730" lon="-2.7449020">
        <ele>137.0</ele>
        <time>2018-09-03T11:35:38Z</time>
      </trkpt>
      <trkpt lat="43.3065870" lon="-2.7447570">
        <ele>137.4</ele>
        <time>2018-09-03T11:35:45Z</time>
      </trkpt>
      <trkpt lat="43.3065010" lon="-2.7446790">
        <ele>138.6</ele>
        <time>2018-09-03T11:35:52Z</time>
      </trkpt>
      <trkpt lat="43.3064390" lon="-2.7446460">
        <ele>139.2</ele>
        <time>2018-09-03T11:35:56Z</time>
      </trkpt>
      <trkpt lat="43.3063990" lon="-2.7446310">
        <ele>139.4</ele>
        <time>2018-09-03T11:35:59Z</time>
      </trkpt>
      <trkpt lat="43.3063710" lon="-2.7446200">
        <ele>139.4</ele>
        <time>2018-09-03T11:36:01Z</time>
      </trkpt>
      <trkpt lat="43.3062990" lon="-2.7446120">
        <ele>139.8</ele>
        <time>2018-09-03T11:36:05Z</time>
      </trkpt>
      <trkpt lat="43.3062260" lon="-2.7445920">
        <ele>140.0</ele>
        <time>2018-09-03T11:36:09Z</time>
      </trkpt>
      <trkpt lat="43.3061050" lon="-2.7445580">
        <ele>140.2</ele>
        <time>2018-09-03T11:36:15Z</time>
      </trkpt>
      <trkpt lat="43.3058620" lon="-2.7445110">
        <ele>141.0</ele>
        <time>2018-09-03T11:36:26Z</time>
      </trkpt>
      <trkpt lat="43.3057300" lon="-2.7444900">
        <ele>141.8</ele>
        <time>2018-09-03T11:36:32Z</time>
      </trkpt>
      <trkpt lat="43.3057080" lon="-2.7444860">
        <ele>142.0</ele>
        <time>2018-09-03T11:36:33Z</time>
      </trkpt>
      <trkpt lat="43.3055460" lon="-2.7444750">
        <ele>142.8</ele>
        <time>2018-09-03T11:36:39Z</time>
      </trkpt>
      <trkpt lat="43.3054870" lon="-2.7444690">
        <ele>143.0</ele>
        <time>2018-09-03T11:36:41Z</time>
      </trkpt>
      <trkpt lat="43.3053410" lon="-2.7444550">
        <ele>143.8</ele>
        <time>2018-09-03T11:36:46Z</time>
      </trkpt>
      <trkpt lat="43.3051990" lon="-2.7444700">
        <ele>144.2</ele>
        <time>2018-09-03T11:36:51Z</time>
      </trkpt>
      <trkpt lat="43.3050240" lon="-2.7444880">
        <ele>145.2</ele>
        <time>2018-09-03T11:36:57Z</time>
      </trkpt>
      <trkpt lat="43.3049960" lon="-2.7444840">
        <ele>145.4</ele>
        <time>2018-09-03T11:36:58Z</time>
      </trkpt>
      <trkpt lat="43.3048140" lon="-2.7444190">
        <ele>146.6</ele>
        <time>2018-09-03T11:37:05Z</time>
      </trkpt>
      <trkpt lat="43.3045770" lon="-2.7443140">
        <ele>147.6</ele>
        <time>2018-09-03T11:37:15Z</time>
      </trkpt>
      <trkpt lat="43.3044240" lon="-2.7444480">
        <ele>148.8</ele>
        <time>2018-09-03T11:37:22Z</time>
      </trkpt>
      <trkpt lat="43.3042830" lon="-2.7446080">
        <ele>150.0</ele>
        <time>2018-09-03T11:37:29Z</time>
      </trkpt>
      <trkpt lat="43.3041590" lon="-2.7446740">
        <ele>151.2</ele>
        <time>2018-09-03T11:37:34Z</time>
      </trkpt>
      <trkpt lat="43.3039800" lon="-2.7447010">
        <ele>152.2</ele>
        <time>2018-09-03T11:37:41Z</time>
      </trkpt>
      <trkpt lat="43.3037430" lon="-2.7446890">
        <ele>153.2</ele>
        <time>2018-09-03T11:37:49Z</time>
      </trkpt>
      <trkpt lat="43.3035230" lon="-2.7446250">
        <ele>154.4</ele>
        <time>2018-09-03T11:37:57Z</time>
      </trkpt>
      <trkpt lat="43.3033670" lon="-2.7444890">
        <ele>155.4</ele>
        <time>2018-09-03T11:38:03Z</time>
      </trkpt>
      <trkpt lat="43.3032450" lon="-2.7443210">
        <ele>156.6</ele>
        <time>2018-09-03T11:38:09Z</time>
      </trkpt>
      <trkpt lat="43.3030760" lon="-2.7440900">
        <ele>157.6</ele>
        <time>2018-09-03T11:38:17Z</time>
      </trkpt>
      <trkpt lat="43.3027720" lon="-2.7438700">
        <ele>158.6</ele>
        <time>2018-09-03T11:38:29Z</time>
      </trkpt>
      <trkpt lat="43.3025700" lon="-2.7437570">
        <ele>159.6</ele>
        <time>2018-09-03T11:38:37Z</time>
      </trkpt>
      <trkpt lat="43.3024600" lon="-2.7436590">
        <ele>160.8</ele>
        <time>2018-09-03T11:38:42Z</time>
      </trkpt>
      <trkpt lat="43.3022640" lon="-2.7433890">
        <ele>161.8</ele>
        <time>2018-09-03T11:38:50Z</time>
      </trkpt>
      <trkpt lat="43.3021620" lon="-2.7432010">
        <ele>162.8</ele>
        <time>2018-09-03T11:38:55Z</time>
      </trkpt>
      <trkpt lat="43.3020030" lon="-2.7429090">
        <ele>163.8</ele>
        <time>2018-09-03T11:39:03Z</time>
      </trkpt>
      <trkpt lat="43.3018670" lon="-2.7426600">
        <ele>165.0</ele>
        <time>2018-09-03T11:39:10Z</time>
      </trkpt>
      <trkpt lat="43.3017810" lon="-2.7424910">
        <ele>166.2</ele>
        <time>2018-09-03T11:39:14Z</time>
      </trkpt>
      <trkpt lat="43.3016450" lon="-2.7421920">
        <ele>167.2</ele>
        <time>2018-09-03T11:39:21Z</time>
      </trkpt>
      <trkpt lat="43.3016260" lon="-2.7421510">
        <ele>167.4</ele>
        <time>2018-09-03T11:39:22Z</time>
      </trkpt>
      <trkpt lat="43.3015350" lon="-2.7419250">
        <ele>168.4</ele>
        <time>2018-09-03T11:39:28Z</time>
      </trkpt>
      <trkpt lat="43.3014490" lon="-2.7417370">
        <ele>169.6</ele>
        <time>2018-09-03T11:39:33Z</time>
      </trkpt>
      <trkpt lat="43.3013540" lon="-2.7414810">
        <ele>170.8</ele>
        <time>2018-09-03T11:39:40Z</time>
      </trkpt>
      <trkpt lat="43.3012360" lon="-2.7411000">
        <ele>172.0</ele>
        <time>2018-09-03T11:39:50Z</time>
      </trkpt>
      <trkpt lat="43.3012120" lon="-2.7409790">
        <ele>172.2</ele>
        <time>2018-09-03T11:39:53Z</time>
      </trkpt>
      <trkpt lat="43.3012220" lon="-2.7409070">
        <ele>172.4</ele>
        <time>2018-09-03T11:39:55Z</time>
      </trkpt>
      <trkpt lat="43.3012720" lon="-2.7408760">
        <ele>172.4</ele>
        <time>2018-09-03T11:39:57Z</time>
      </trkpt>
      <trkpt lat="43.3013810" lon="-2.7409550">
        <ele>172.4</ele>
        <time>2018-09-03T11:40:01Z</time>
      </trkpt>
      <trkpt lat="43.3014160" lon="-2.7409230">
        <ele>172.6</ele>
        <time>2018-09-03T11:40:04Z</time>
      </trkpt>
      <trkpt lat="43.3013910" lon="-2.7409040">
        <ele>172.6</ele>
        <time>2018-09-03T11:40:07Z</time>
      </trkpt>
      <trkpt lat="43.3013740" lon="-2.7409050">
        <ele>172.6</ele>
        <time>2018-09-03T11:40:08Z</time>
      </trkpt>
      <trkpt lat="43.3013240" lon="-2.7409150">
        <ele>172.6</ele>
        <time>2018-09-03T11:40:10Z</time>
      </trkpt>
      <trkpt lat="43.3012970" lon="-2.7409790">
        <ele>172.6</ele>
        <time>2018-09-03T11:40:12Z</time>
      </trkpt>
      <trkpt lat="43.3013660" lon="-2.7410220">
        <ele>172.6</ele>
        <time>2018-09-03T11:40:15Z</time>
      </trkpt>
      <trkpt lat="43.3013960" lon="-2.7409710">
        <ele>172.6</ele>
        <time>2018-09-03T11:40:17Z</time>
      </trkpt>
      <trkpt lat="43.3014310" lon="-2.7409020">
        <ele>172.8</ele>
        <time>2018-09-03T11:40:21Z</time>
      </trkpt>
      <trkpt lat="43.3014530" lon="-2.7408540">
        <ele>172.8</ele>
        <time>2018-09-03T11:40:24Z</time>
      </trkpt>
      <trkpt lat="43.3014760" lon="-2.7407800">
        <ele>173.0</ele>
        <time>2018-09-03T11:40:28Z</time>
      </trkpt>
      <trkpt lat="43.3014950" lon="-2.7407440">
        <ele>174.2</ele>
        <time>2018-09-03T11:40:36Z</time>
      </trkpt>
      <trkpt lat="43.3014640" lon="-2.7408210">
        <ele>174.2</ele>
        <time>2018-09-03T11:40:39Z</time>
      </trkpt>
      <trkpt lat="43.3014360" lon="-2.7408840">
        <ele>174.2</ele>
        <time>2018-09-03T11:40:41Z</time>
      </trkpt>
      <trkpt lat="43.3014200" lon="-2.7409180">
        <ele>174.2</ele>
        <time>2018-09-03T11:40:42Z</time>
      </trkpt>
      <trkpt lat="43.3013510" lon="-2.7409810">
        <ele>174.2</ele>
        <time>2018-09-03T11:40:45Z</time>
      </trkpt>
      <trkpt lat="43.3013290" lon="-2.7408620">
        <ele>172.8</ele>
        <time>2018-09-03T11:40:52Z</time>
      </trkpt>
      <trkpt lat="43.3013630" lon="-2.7407840">
        <ele>172.4</ele>
        <time>2018-09-03T11:40:55Z</time>
      </trkpt>
      <trkpt lat="43.3013460" lon="-2.7406650">
        <ele>172.4</ele>
        <time>2018-09-03T11:40:58Z</time>
      </trkpt>
      <trkpt lat="43.3013010" lon="-2.7406120">
        <ele>172.2</ele>
        <time>2018-09-03T11:41:00Z</time>
      </trkpt>
      <trkpt lat="43.3012750" lon="-2.7405980">
        <ele>172.0</ele>
        <time>2018-09-03T11:41:01Z</time>
      </trkpt>
      <trkpt lat="43.3012460" lon="-2.7405890">
        <ele>171.8</ele>
        <time>2018-09-03T11:41:02Z</time>
      </trkpt>
      <trkpt lat="43.3011310" lon="-2.7405490">
        <ele>170.8</ele>
        <time>2018-09-03T11:41:05Z</time>
      </trkpt>
      <trkpt lat="43.3010870" lon="-2.7405490">
        <ele>170.2</ele>
        <time>2018-09-03T11:41:06Z</time>
      </trkpt>
      <trkpt lat="43.3010420" lon="-2.7405470">
        <ele>169.8</ele>
        <time>2018-09-03T11:41:07Z</time>
      </trkpt>
      <trkpt lat="43.3009910" lon="-2.7405410">
        <ele>169.4</ele>
        <time>2018-09-03T11:41:08Z</time>
      </trkpt>
      <trkpt lat="43.3007710" lon="-2.7404290">
        <ele>168.8</ele>
        <time>2018-09-03T11:41:15Z</time>
      </trkpt>
      <trkpt lat="43.3007440" lon="-2.7404160">
        <ele>168.8</ele>
        <time>2018-09-03T11:41:16Z</time>
      </trkpt>
      <trkpt lat="43.3007280" lon="-2.7404020">
        <ele>168.8</ele>
        <time>2018-09-03T11:41:17Z</time>
      </trkpt>
      <trkpt lat="43.3007110" lon="-2.7403870">
        <ele>169.4</ele>
        <time>2018-09-03T11:41:18Z</time>
      </trkpt>
      <trkpt lat="43.3007010" lon="-2.7403720">
        <ele>170.2</ele>
        <time>2018-09-03T11:41:19Z</time>
      </trkpt>
      <trkpt lat="43.3006870" lon="-2.7403620">
        <ele>171.0</ele>
        <time>2018-09-03T11:41:20Z</time>
      </trkpt>
      <trkpt lat="43.3006570" lon="-2.7403410">
        <ele>172.6</ele>
        <time>2018-09-03T11:41:22Z</time>
      </trkpt>
      <trkpt lat="43.3006290" lon="-2.7403160">
        <ele>174.0</ele>
        <time>2018-09-03T11:41:24Z</time>
      </trkpt>
      <trkpt lat="43.3006000" lon="-2.7402950">
        <ele>175.0</ele>
        <time>2018-09-03T11:41:26Z</time>
      </trkpt>
      <trkpt lat="43.3005550" lon="-2.7402510">
        <ele>176.4</ele>
        <time>2018-09-03T11:41:29Z</time>
      </trkpt>
      <trkpt lat="43.3004070" lon="-2.7401280">
        <ele>177.4</ele>
        <time>2018-09-03T11:41:39Z</time>
      </trkpt>
      <trkpt lat="43.3001450" lon="-2.7400510">
        <ele>177.6</ele>
        <time>2018-09-03T11:41:51Z</time>
      </trkpt>
      <trkpt lat="43.3000510" lon="-2.7400480">
        <ele>177.8</ele>
        <time>2018-09-03T11:41:56Z</time>
      </trkpt>
      <trkpt lat="43.3000120" lon="-2.7400450">
        <ele>177.8</ele>
        <time>2018-09-03T11:41:59Z</time>
      </trkpt>
      <trkpt lat="43.2999830" lon="-2.7400430">
        <ele>178.0</ele>
        <time>2018-09-03T11:42:02Z</time>
      </trkpt>
      <trkpt lat="43.2999620" lon="-2.7400390">
        <ele>178.2</ele>
        <time>2018-09-03T11:42:04Z</time>
      </trkpt>
      <trkpt lat="43.2999330" lon="-2.7400290">
        <ele>178.2</ele>
        <time>2018-09-03T11:42:06Z</time>
      </trkpt>
      <trkpt lat="43.2998630" lon="-2.7400500">
        <ele>178.2</ele>
        <time>2018-09-03T11:42:13Z</time>
      </trkpt>
      <trkpt lat="43.2998100" lon="-2.7401090">
        <ele>178.2</ele>
        <time>2018-09-03T11:42:18Z</time>
      </trkpt>
      <trkpt lat="43.2997810" lon="-2.7401550">
        <ele>178.2</ele>
        <time>2018-09-03T11:42:21Z</time>
      </trkpt>
      <trkpt lat="43.2997400" lon="-2.7402190">
        <ele>178.0</ele>
        <time>2018-09-03T11:42:24Z</time>
      </trkpt>
      <trkpt lat="43.2996260" lon="-2.7402070">
        <ele>178.0</ele>
        <time>2018-09-03T11:42:29Z</time>
      </trkpt>
      <trkpt lat="43.2996120" lon="-2.7401890">
        <ele>178.0</ele>
        <time>2018-09-03T11:42:30Z</time>
      </trkpt>
      <trkpt lat="43.2995860" lon="-2.7400940">
        <ele>178.2</ele>
        <time>2018-09-03T11:42:34Z</time>
      </trkpt>
      <trkpt lat="43.2995890" lon="-2.7400720">
        <ele>178.2</ele>
        <time>2018-09-03T11:42:35Z</time>
      </trkpt>
      <trkpt lat="43.2995590" lon="-2.7400190">
        <ele>178.8</ele>
        <time>2018-09-03T11:42:39Z</time>
      </trkpt>
      <trkpt lat="43.2995890" lon="-2.7399520">
        <ele>179.8</ele>
        <time>2018-09-03T11:42:46Z</time>
      </trkpt>
      <trkpt lat="43.2996150" lon="-2.7399840">
        <ele>180.0</ele>
        <time>2018-09-03T11:42:50Z</time>
      </trkpt>
      <trkpt lat="43.2995730" lon="-2.7400350">
        <ele>180.0</ele>
        <time>2018-09-03T11:42:55Z</time>
      </trkpt>
      <trkpt lat="43.2995440" lon="-2.7399600">
        <ele>180.0</ele>
        <time>2018-09-03T11:42:58Z</time>
      </trkpt>
      <trkpt lat="43.2995370" lon="-2.7399090">
        <ele>180.0</ele>
        <time>2018-09-03T11:43:00Z</time>
      </trkpt>
      <trkpt lat="43.2995250" lon="-2.7398350">
        <ele>180.0</ele>
        <time>2018-09-03T11:43:03Z</time>
      </trkpt>
      <trkpt lat="43.2995060" lon="-2.7397940">
        <ele>180.2</ele>
        <time>2018-09-03T11:43:05Z</time>
      </trkpt>
      <trkpt lat="43.2994790" lon="-2.7397080">
        <ele>180.6</ele>
        <time>2018-09-03T11:43:09Z</time>
      </trkpt>
      <trkpt lat="43.2994660" lon="-2.7396670">
        <ele>180.8</ele>
        <time>2018-09-03T11:43:11Z</time>
      </trkpt>
      <trkpt lat="43.2994140" lon="-2.7395090">
        <ele>181.8</ele>
        <time>2018-09-03T11:43:18Z</time>
      </trkpt>
      <trkpt lat="43.2994080" lon="-2.7394810">
        <ele>181.8</ele>
        <time>2018-09-03T11:43:19Z</time>
      </trkpt>
      <trkpt lat="43.2993600" lon="-2.7393030">
        <ele>182.6</ele>
        <time>2018-09-03T11:43:25Z</time>
      </trkpt>
      <trkpt lat="43.2993260" lon="-2.7391840">
        <ele>182.8</ele>
        <time>2018-09-03T11:43:29Z</time>
      </trkpt>
      <trkpt lat="43.2992880" lon="-2.7390730">
        <ele>183.4</ele>
        <time>2018-09-03T11:43:33Z</time>
      </trkpt>
      <trkpt lat="43.2992370" lon="-2.7389270">
        <ele>183.8</ele>
        <time>2018-09-03T11:43:38Z</time>
      </trkpt>
      <trkpt lat="43.2992040" lon="-2.7388830">
        <ele>184.0</ele>
        <time>2018-09-03T11:43:40Z</time>
      </trkpt>
      <trkpt lat="43.2989930" lon="-2.7387020">
        <ele>185.2</ele>
        <time>2018-09-03T11:43:52Z</time>
      </trkpt>
      <trkpt lat="43.2989090" lon="-2.7386330">
        <ele>186.2</ele>
        <time>2018-09-03T11:43:58Z</time>
      </trkpt>
      <trkpt lat="43.2988950" lon="-2.7386210">
        <ele>186.4</ele>
        <time>2018-09-03T11:43:59Z</time>
      </trkpt>
      <trkpt lat="43.2987930" lon="-2.7385340">
        <ele>187.4</ele>
        <time>2018-09-03T11:44:06Z</time>
      </trkpt>
      <trkpt lat="43.2987800" lon="-2.7385210">
        <ele>187.4</ele>
        <time>2018-09-03T11:44:07Z</time>
      </trkpt>
      <trkpt lat="43.2987080" lon="-2.7384650">
        <ele>187.8</ele>
        <time>2018-09-03T11:44:12Z</time>
      </trkpt>
      <trkpt lat="43.2986400" lon="-2.7384150">
        <ele>188.4</ele>
        <time>2018-09-03T11:44:17Z</time>
      </trkpt>
      <trkpt lat="43.2985450" lon="-2.7383310">
        <ele>189.6</ele>
        <time>2018-09-03T11:44:24Z</time>
      </trkpt>
      <trkpt lat="43.2984270" lon="-2.7382260">
        <ele>190.8</ele>
        <time>2018-09-03T11:44:32Z</time>
      </trkpt>
      <trkpt lat="43.2983200" lon="-2.7381380">
        <ele>191.8</ele>
        <time>2018-09-03T11:44:39Z</time>
      </trkpt>
      <trkpt lat="43.2982300" lon="-2.7380650">
        <ele>193.0</ele>
        <time>2018-09-03T11:44:45Z</time>
      </trkpt>
      <trkpt lat="43.2981180" lon="-2.7380160">
        <ele>194.2</ele>
        <time>2018-09-03T11:44:51Z</time>
      </trkpt>
      <trkpt lat="43.2980370" lon="-2.7379700">
        <ele>195.2</ele>
        <time>2018-09-03T11:44:56Z</time>
      </trkpt>
      <trkpt lat="43.2979640" lon="-2.7379460">
        <ele>196.4</ele>
        <time>2018-09-03T11:45:01Z</time>
      </trkpt>
      <trkpt lat="43.2978850" lon="-2.7379250">
        <ele>197.4</ele>
        <time>2018-09-03T11:45:06Z</time>
      </trkpt>
      <trkpt lat="43.2977820" lon="-2.7378850">
        <ele>198.6</ele>
        <time>2018-09-03T11:45:12Z</time>
      </trkpt>
      <trkpt lat="43.2976810" lon="-2.7378410">
        <ele>199.6</ele>
        <time>2018-09-03T11:45:18Z</time>
      </trkpt>
      <trkpt lat="43.2975870" lon="-2.7377790">
        <ele>200.6</ele>
        <time>2018-09-03T11:45:24Z</time>
      </trkpt>
      <trkpt lat="43.2975180" lon="-2.7377150">
        <ele>201.6</ele>
        <time>2018-09-03T11:45:29Z</time>
      </trkpt>
      <trkpt lat="43.2975040" lon="-2.7377040">
        <ele>201.8</ele>
        <time>2018-09-03T11:45:30Z</time>
      </trkpt>
      <trkpt lat="43.2974160" lon="-2.7376500">
        <ele>203.0</ele>
        <time>2018-09-03T11:45:36Z</time>
      </trkpt>
      <trkpt lat="43.2973250" lon="-2.7375710">
        <ele>204.2</ele>
        <time>2018-09-03T11:45:42Z</time>
      </trkpt>
      <trkpt lat="43.2972540" lon="-2.7375120">
        <ele>205.2</ele>
        <time>2018-09-03T11:45:47Z</time>
      </trkpt>
      <trkpt lat="43.2971470" lon="-2.7374230">
        <ele>206.4</ele>
        <time>2018-09-03T11:45:54Z</time>
      </trkpt>
      <trkpt lat="43.2969880" lon="-2.7373730">
        <ele>207.4</ele>
        <time>2018-09-03T11:46:03Z</time>
      </trkpt>
      <trkpt lat="43.2968390" lon="-2.7373680">
        <ele>208.6</ele>
        <time>2018-09-03T11:46:12Z</time>
      </trkpt>
      <trkpt lat="43.2967750" lon="-2.7373860">
        <ele>209.2</ele>
        <time>2018-09-03T11:46:16Z</time>
      </trkpt>
      <trkpt lat="43.2967260" lon="-2.7374050">
        <ele>209.6</ele>
        <time>2018-09-03T11:46:19Z</time>
      </trkpt>
      <trkpt lat="43.2966370" lon="-2.7374440">
        <ele>210.4</ele>
        <time>2018-09-03T11:46:25Z</time>
      </trkpt>
      <trkpt lat="43.2965850" lon="-2.7374780">
        <ele>210.6</ele>
        <time>2018-09-03T11:46:28Z</time>
      </trkpt>
      <trkpt lat="43.2965700" lon="-2.7374870">
        <ele>210.8</ele>
        <time>2018-09-03T11:46:29Z</time>
      </trkpt>
      <trkpt lat="43.2962710" lon="-2.7375530">
        <ele>211.6</ele>
        <time>2018-09-03T11:46:43Z</time>
      </trkpt>
      <trkpt lat="43.2962440" lon="-2.7375630">
        <ele>211.8</ele>
        <time>2018-09-03T11:46:44Z</time>
      </trkpt>
      <trkpt lat="43.2961190" lon="-2.7375630">
        <ele>212.2</ele>
        <time>2018-09-03T11:46:49Z</time>
      </trkpt>
      <trkpt lat="43.2957310" lon="-2.7375180">
        <ele>213.0</ele>
        <time>2018-09-03T11:47:06Z</time>
      </trkpt>
      <trkpt lat="43.2956050" lon="-2.7375250">
        <ele>213.6</ele>
        <time>2018-09-03T11:47:12Z</time>
      </trkpt>
      <trkpt lat="43.2955060" lon="-2.7374890">
        <ele>214.0</ele>
        <time>2018-09-03T11:47:18Z</time>
      </trkpt>
      <trkpt lat="43.2954860" lon="-2.7374840">
        <ele>214.2</ele>
        <time>2018-09-03T11:47:19Z</time>
      </trkpt>
      <trkpt lat="43.2953570" lon="-2.7374700">
        <ele>215.2</ele>
        <time>2018-09-03T11:47:26Z</time>
      </trkpt>
      <trkpt lat="43.2953370" lon="-2.7374690">
        <ele>215.4</ele>
        <time>2018-09-03T11:47:27Z</time>
      </trkpt>
      <trkpt lat="43.2952460" lon="-2.7375080">
        <ele>216.6</ele>
        <time>2018-09-03T11:47:33Z</time>
      </trkpt>
      <trkpt lat="43.2951590" lon="-2.7375990">
        <ele>217.8</ele>
        <time>2018-09-03T11:47:39Z</time>
      </trkpt>
      <trkpt lat="43.2950740" lon="-2.7377260">
        <ele>218.8</ele>
        <time>2018-09-03T11:47:45Z</time>
      </trkpt>
      <trkpt lat="43.2950040" lon="-2.7378480">
        <ele>219.8</ele>
        <time>2018-09-03T11:47:51Z</time>
      </trkpt>
      <trkpt lat="43.2949150" lon="-2.7379370">
        <ele>220.8</ele>
        <time>2018-09-03T11:47:57Z</time>
      </trkpt>
      <trkpt lat="43.2949050" lon="-2.7379590">
        <ele>221.0</ele>
        <time>2018-09-03T11:47:58Z</time>
      </trkpt>
      <trkpt lat="43.2948510" lon="-2.7380810">
        <ele>221.8</ele>
        <time>2018-09-03T11:48:04Z</time>
      </trkpt>
      <trkpt lat="43.2948130" lon="-2.7381360">
        <ele>222.0</ele>
        <time>2018-09-03T11:48:07Z</time>
      </trkpt>
      <trkpt lat="43.2947020" lon="-2.7382680">
        <ele>223.0</ele>
        <time>2018-09-03T11:48:15Z</time>
      </trkpt>
      <trkpt lat="43.2945770" lon="-2.7383390">
        <ele>224.2</ele>
        <time>2018-09-03T11:48:22Z</time>
      </trkpt>
      <trkpt lat="43.2944580" lon="-2.7383270">
        <ele>225.2</ele>
        <time>2018-09-03T11:48:28Z</time>
      </trkpt>
      <trkpt lat="43.2944410" lon="-2.7383190">
        <ele>225.4</ele>
        <time>2018-09-03T11:48:29Z</time>
      </trkpt>
      <trkpt lat="43.2942980" lon="-2.7381830">
        <ele>226.4</ele>
        <time>2018-09-03T11:48:38Z</time>
      </trkpt>
      <trkpt lat="43.2942330" lon="-2.7380830">
        <ele>226.6</ele>
        <time>2018-09-03T11:48:43Z</time>
      </trkpt>
      <trkpt lat="43.2941860" lon="-2.7379950">
        <ele>226.8</ele>
        <time>2018-09-03T11:48:47Z</time>
      </trkpt>
      <trkpt lat="43.2941770" lon="-2.7379720">
        <ele>226.8</ele>
        <time>2018-09-03T11:48:48Z</time>
      </trkpt>
      <trkpt lat="43.2941560" lon="-2.7379300">
        <ele>227.0</ele>
        <time>2018-09-03T11:48:50Z</time>
      </trkpt>
      <trkpt lat="43.2940970" lon="-2.7378140">
        <ele>227.8</ele>
        <time>2018-09-03T11:48:56Z</time>
      </trkpt>
      <trkpt lat="43.2940050" lon="-2.7376380">
        <ele>228.4</ele>
        <time>2018-09-03T11:49:04Z</time>
      </trkpt>
      <trkpt lat="43.2939680" lon="-2.7375700">
        <ele>228.4</ele>
        <time>2018-09-03T11:49:07Z</time>
      </trkpt>
      <trkpt lat="43.2939460" lon="-2.7375310">
        <ele>228.8</ele>
        <time>2018-09-03T11:49:09Z</time>
      </trkpt>
      <trkpt lat="43.2939040" lon="-2.7374800">
        <ele>229.0</ele>
        <time>2018-09-03T11:49:12Z</time>
      </trkpt>
      <trkpt lat="43.2938220" lon="-2.7373420">
        <ele>229.8</ele>
        <time>2018-09-03T11:49:19Z</time>
      </trkpt>
      <trkpt lat="43.2936950" lon="-2.7372080">
        <ele>230.8</ele>
        <time>2018-09-03T11:49:27Z</time>
      </trkpt>
      <trkpt lat="43.2935480" lon="-2.7371650">
        <ele>231.4</ele>
        <time>2018-09-03T11:49:35Z</time>
      </trkpt>
      <trkpt lat="43.2935170" lon="-2.7371990">
        <ele>232.0</ele>
        <time>2018-09-03T11:49:40Z</time>
      </trkpt>
      <trkpt lat="43.2935020" lon="-2.7372150">
        <ele>232.0</ele>
        <time>2018-09-03T11:49:41Z</time>
      </trkpt>
      <trkpt lat="43.2934930" lon="-2.7372350">
        <ele>232.2</ele>
        <time>2018-09-03T11:49:49Z</time>
      </trkpt>
      <trkpt lat="43.2934930" lon="-2.7372390">
        <ele>232.2</ele>
        <time>2018-09-03T11:52:56Z</time>
      </trkpt>
      <trkpt lat="43.2934930" lon="-2.7372390">
        <ele>232.2</ele>
        <time>2018-09-03T11:52:57Z</time>
      </trkpt>
      <trkpt lat="43.2934930" lon="-2.7372400">
        <ele>232.2</ele>
        <time>2018-09-03T11:52:59Z</time>
      </trkpt>
      <trkpt lat="43.2934920" lon="-2.7372450">
        <ele>232.2</ele>
        <time>2018-09-03T11:53:00Z</time>
      </trkpt>
      <trkpt lat="43.2934830" lon="-2.7372850">
        <ele>232.2</ele>
        <time>2018-09-03T11:53:02Z</time>
      </trkpt>
      <trkpt lat="43.2934800" lon="-2.7373540">
        <ele>232.2</ele>
        <time>2018-09-03T11:53:05Z</time>
      </trkpt>
      <trkpt lat="43.2934830" lon="-2.7373820">
        <ele>232.0</ele>
        <time>2018-09-03T11:53:06Z</time>
      </trkpt>
      <trkpt lat="43.2934620" lon="-2.7376710">
        <ele>231.0</ele>
        <time>2018-09-03T11:53:15Z</time>
      </trkpt>
      <trkpt lat="43.2934320" lon="-2.7379080">
        <ele>230.6</ele>
        <time>2018-09-03T11:53:20Z</time>
      </trkpt>
      <trkpt lat="43.2934210" lon="-2.7379580">
        <ele>230.4</ele>
        <time>2018-09-03T11:53:21Z</time>
      </trkpt>
      <trkpt lat="43.2933610" lon="-2.7381790">
        <ele>230.0</ele>
        <time>2018-09-03T11:53:25Z</time>
      </trkpt>
      <trkpt lat="43.2932760" lon="-2.7384120">
        <ele>229.4</ele>
        <time>2018-09-03T11:53:29Z</time>
      </trkpt>
      <trkpt lat="43.2930510" lon="-2.7388050">
        <ele>229.2</ele>
        <time>2018-09-03T11:53:35Z</time>
      </trkpt>
      <trkpt lat="43.2926930" lon="-2.7389750">
        <ele>227.6</ele>
        <time>2018-09-03T11:53:40Z</time>
      </trkpt>
      <trkpt lat="43.2924950" lon="-2.7389820">
        <ele>226.2</ele>
        <time>2018-09-03T11:53:42Z</time>
      </trkpt>
      <trkpt lat="43.2922800" lon="-2.7389550">
        <ele>224.4</ele>
        <time>2018-09-03T11:53:44Z</time>
      </trkpt>
      <trkpt lat="43.2920610" lon="-2.7389440">
        <ele>222.4</ele>
        <time>2018-09-03T11:53:46Z</time>
      </trkpt>
      <trkpt lat="43.2919440" lon="-2.7389450">
        <ele>220.8</ele>
        <time>2018-09-03T11:53:47Z</time>
      </trkpt>
      <trkpt lat="43.2918270" lon="-2.7389400">
        <ele>219.4</ele>
        <time>2018-09-03T11:53:48Z</time>
      </trkpt>
      <trkpt lat="43.2917050" lon="-2.7389340">
        <ele>217.8</ele>
        <time>2018-09-03T11:53:49Z</time>
      </trkpt>
      <trkpt lat="43.2915850" lon="-2.7389340">
        <ele>216.2</ele>
        <time>2018-09-03T11:53:50Z</time>
      </trkpt>
      <trkpt lat="43.2914690" lon="-2.7389260">
        <ele>214.4</ele>
        <time>2018-09-03T11:53:51Z</time>
      </trkpt>
      <trkpt lat="43.2913530" lon="-2.7389240">
        <ele>213.0</ele>
        <time>2018-09-03T11:53:52Z</time>
      </trkpt>
      <trkpt lat="43.2912470" lon="-2.7389130">
        <ele>211.6</ele>
        <time>2018-09-03T11:53:53Z</time>
      </trkpt>
      <trkpt lat="43.2911460" lon="-2.7388920">
        <ele>210.2</ele>
        <time>2018-09-03T11:53:54Z</time>
      </trkpt>
      <trkpt lat="43.2910410" lon="-2.7388610">
        <ele>208.8</ele>
        <time>2018-09-03T11:53:55Z</time>
      </trkpt>
      <trkpt lat="43.2909400" lon="-2.7388230">
        <ele>207.2</ele>
        <time>2018-09-03T11:53:56Z</time>
      </trkpt>
      <trkpt lat="43.2908480" lon="-2.7387790">
        <ele>205.2</ele>
        <time>2018-09-03T11:53:57Z</time>
      </trkpt>
      <trkpt lat="43.2907670" lon="-2.7387240">
        <ele>203.6</ele>
        <time>2018-09-03T11:53:58Z</time>
      </trkpt>
      <trkpt lat="43.2906950" lon="-2.7386510">
        <ele>202.4</ele>
        <time>2018-09-03T11:53:59Z</time>
      </trkpt>
      <trkpt lat="43.2905620" lon="-2.7385320">
        <ele>200.4</ele>
        <time>2018-09-03T11:54:01Z</time>
      </trkpt>
      <trkpt lat="43.2905080" lon="-2.7384820">
        <ele>199.2</ele>
        <time>2018-09-03T11:54:02Z</time>
      </trkpt>
      <trkpt lat="43.2904640" lon="-2.7384380">
        <ele>197.6</ele>
        <time>2018-09-03T11:54:03Z</time>
      </trkpt>
      <trkpt lat="43.2904300" lon="-2.7383930">
        <ele>196.2</ele>
        <time>2018-09-03T11:54:04Z</time>
      </trkpt>
      <trkpt lat="43.2903900" lon="-2.7383480">
        <ele>195.2</ele>
        <time>2018-09-03T11:54:05Z</time>
      </trkpt>
      <trkpt lat="43.2902950" lon="-2.7382570">
        <ele>193.4</ele>
        <time>2018-09-03T11:54:07Z</time>
      </trkpt>
      <trkpt lat="43.2901750" lon="-2.7381650">
        <ele>192.0</ele>
        <time>2018-09-03T11:54:09Z</time>
      </trkpt>
      <trkpt lat="43.2899820" lon="-2.7380560">
        <ele>190.8</ele>
        <time>2018-09-03T11:54:12Z</time>
      </trkpt>
      <trkpt lat="43.2898660" lon="-2.7380140">
        <ele>188.8</ele>
        <time>2018-09-03T11:54:14Z</time>
      </trkpt>
      <trkpt lat="43.2897670" lon="-2.7379950">
        <ele>188.4</ele>
        <time>2018-09-03T11:54:16Z</time>
      </trkpt>
      <trkpt lat="43.2896940" lon="-2.7379640">
        <ele>188.2</ele>
        <time>2018-09-03T11:54:18Z</time>
      </trkpt>
      <trkpt lat="43.2896310" lon="-2.7379400">
        <ele>188.2</ele>
        <time>2018-09-03T11:54:20Z</time>
      </trkpt>
      <trkpt lat="43.2895760" lon="-2.7379160">
        <ele>188.2</ele>
        <time>2018-09-03T11:54:23Z</time>
      </trkpt>
      <trkpt lat="43.2894530" lon="-2.7379110">
        <ele>190.0</ele>
        <time>2018-09-03T11:54:29Z</time>
      </trkpt>
      <trkpt lat="43.2893870" lon="-2.7379220">
        <ele>190.6</ele>
        <time>2018-09-03T11:54:32Z</time>
      </trkpt>
      <trkpt lat="43.2893440" lon="-2.7379360">
        <ele>191.0</ele>
        <time>2018-09-03T11:54:34Z</time>
      </trkpt>
      <trkpt lat="43.2892530" lon="-2.7379660">
        <ele>191.4</ele>
        <time>2018-09-03T11:54:39Z</time>
      </trkpt>
      <trkpt lat="43.2891700" lon="-2.7380060">
        <ele>192.0</ele>
        <time>2018-09-03T11:54:43Z</time>
      </trkpt>
      <trkpt lat="43.2891550" lon="-2.7380130">
        <ele>192.2</ele>
        <time>2018-09-03T11:54:44Z</time>
      </trkpt>
      <trkpt lat="43.2890590" lon="-2.7380410">
        <ele>192.8</ele>
        <time>2018-09-03T11:54:49Z</time>
      </trkpt>
      <trkpt lat="43.2889360" lon="-2.7380960">
        <ele>193.2</ele>
        <time>2018-09-03T11:54:54Z</time>
      </trkpt>
      <trkpt lat="43.2887600" lon="-2.7381370">
        <ele>194.4</ele>
        <time>2018-09-03T11:55:03Z</time>
      </trkpt>
      <trkpt lat="43.2887300" lon="-2.7381400">
        <ele>194.6</ele>
        <time>2018-09-03T11:55:05Z</time>
      </trkpt>
      <trkpt lat="43.2886480" lon="-2.7381690">
        <ele>195.0</ele>
        <time>2018-09-03T11:55:09Z</time>
      </trkpt>
      <trkpt lat="43.2885750" lon="-2.7381980">
        <ele>195.4</ele>
        <time>2018-09-03T11:55:13Z</time>
      </trkpt>
      <trkpt lat="43.2884220" lon="-2.7382650">
        <ele>196.8</ele>
        <time>2018-09-03T11:55:21Z</time>
      </trkpt>
      <trkpt lat="43.2882960" lon="-2.7383220">
        <ele>197.8</ele>
        <time>2018-09-03T11:55:28Z</time>
      </trkpt>
      <trkpt lat="43.2881750" lon="-2.7383880">
        <ele>199.0</ele>
        <time>2018-09-03T11:55:35Z</time>
      </trkpt>
      <trkpt lat="43.2880700" lon="-2.7384340">
        <ele>200.0</ele>
        <time>2018-09-03T11:55:41Z</time>
      </trkpt>
      <trkpt lat="43.2879700" lon="-2.7384840">
        <ele>201.2</ele>
        <time>2018-09-03T11:55:47Z</time>
      </trkpt>
      <trkpt lat="43.2878130" lon="-2.7385350">
        <ele>202.2</ele>
        <time>2018-09-03T11:55:56Z</time>
      </trkpt>
      <trkpt lat="43.2876730" lon="-2.7385650">
        <ele>203.4</ele>
        <time>2018-09-03T11:56:03Z</time>
      </trkpt>
      <trkpt lat="43.2875530" lon="-2.7385900">
        <ele>204.0</ele>
        <time>2018-09-03T11:56:09Z</time>
      </trkpt>
      <trkpt lat="43.2874910" lon="-2.7385950">
        <ele>204.4</ele>
        <time>2018-09-03T11:56:12Z</time>
      </trkpt>
      <trkpt lat="43.2872220" lon="-2.7386310">
        <ele>205.4</ele>
        <time>2018-09-03T11:56:26Z</time>
      </trkpt>
      <trkpt lat="43.2872070" lon="-2.7386360">
        <ele>205.6</ele>
        <time>2018-09-03T11:56:27Z</time>
      </trkpt>
      <trkpt lat="43.2870960" lon="-2.7386460">
        <ele>206.8</ele>
        <time>2018-09-03T11:56:35Z</time>
      </trkpt>
      <trkpt lat="43.2869790" lon="-2.7386820">
        <ele>207.8</ele>
        <time>2018-09-03T11:56:45Z</time>
      </trkpt>
      <trkpt lat="43.2868260" lon="-2.7387480">
        <ele>208.8</ele>
        <time>2018-09-03T11:56:56Z</time>
      </trkpt>
      <trkpt lat="43.2867590" lon="-2.7387720">
        <ele>209.8</ele>
        <time>2018-09-03T11:57:06Z</time>
      </trkpt>
      <trkpt lat="43.2865600" lon="-2.7388200">
        <ele>211.0</ele>
        <time>2018-09-03T11:57:16Z</time>
      </trkpt>
      <trkpt lat="43.2864430" lon="-2.7388240">
        <ele>212.2</ele>
        <time>2018-09-03T11:57:23Z</time>
      </trkpt>
      <trkpt lat="43.2863090" lon="-2.7388240">
        <ele>213.2</ele>
        <time>2018-09-03T11:57:31Z</time>
      </trkpt>
      <trkpt lat="43.2861700" lon="-2.7388330">
        <ele>214.4</ele>
        <time>2018-09-03T11:57:39Z</time>
      </trkpt>
      <trkpt lat="43.2860190" lon="-2.7388480">
        <ele>215.6</ele>
        <time>2018-09-03T11:57:47Z</time>
      </trkpt>
      <trkpt lat="43.2859060" lon="-2.7388480">
        <ele>216.6</ele>
        <time>2018-09-03T11:57:56Z</time>
      </trkpt>
      <trkpt lat="43.2857710" lon="-2.7388940">
        <ele>217.6</ele>
        <time>2018-09-03T11:58:05Z</time>
      </trkpt>
      <trkpt lat="43.2856400" lon="-2.7389860">
        <ele>218.8</ele>
        <time>2018-09-03T11:58:14Z</time>
      </trkpt>
      <trkpt lat="43.2855170" lon="-2.7390860">
        <ele>220.0</ele>
        <time>2018-09-03T11:58:21Z</time>
      </trkpt>
      <trkpt lat="43.2854180" lon="-2.7391550">
        <ele>221.0</ele>
        <time>2018-09-03T11:58:28Z</time>
      </trkpt>
      <trkpt lat="43.2853460" lon="-2.7392210">
        <ele>222.2</ele>
        <time>2018-09-03T11:58:33Z</time>
      </trkpt>
      <trkpt lat="43.2852630" lon="-2.7392800">
        <ele>223.4</ele>
        <time>2018-09-03T11:58:39Z</time>
      </trkpt>
      <trkpt lat="43.2852010" lon="-2.7393400">
        <ele>224.6</ele>
        <time>2018-09-03T11:58:45Z</time>
      </trkpt>
      <trkpt lat="43.2851330" lon="-2.7394010">
        <ele>225.6</ele>
        <time>2018-09-03T11:58:51Z</time>
      </trkpt>
      <trkpt lat="43.2850360" lon="-2.7394600">
        <ele>227.0</ele>
        <time>2018-09-03T11:58:58Z</time>
      </trkpt>
      <trkpt lat="43.2849450" lon="-2.7395110">
        <ele>228.2</ele>
        <time>2018-09-03T11:59:05Z</time>
      </trkpt>
      <trkpt lat="43.2848630" lon="-2.7395520">
        <ele>229.2</ele>
        <time>2018-09-03T11:59:11Z</time>
      </trkpt>
      <trkpt lat="43.2847720" lon="-2.7396040">
        <ele>230.2</ele>
        <time>2018-09-03T11:59:18Z</time>
      </trkpt>
      <trkpt lat="43.2846590" lon="-2.7396750">
        <ele>231.6</ele>
        <time>2018-09-03T11:59:25Z</time>
      </trkpt>
      <trkpt lat="43.2846290" lon="-2.7396940">
        <ele>231.8</ele>
        <time>2018-09-03T11:59:27Z</time>
      </trkpt>
      <trkpt lat="43.2845820" lon="-2.7397270">
        <ele>232.4</ele>
        <time>2018-09-03T11:59:31Z</time>
      </trkpt>
      <trkpt lat="43.2845460" lon="-2.7397470">
        <ele>232.6</ele>
        <time>2018-09-03T11:59:34Z</time>
      </trkpt>
      <trkpt lat="43.2844650" lon="-2.7397670">
        <ele>233.6</ele>
        <time>2018-09-03T11:59:40Z</time>
      </trkpt>
      <trkpt lat="43.2844240" lon="-2.7397710">
        <ele>234.0</ele>
        <time>2018-09-03T11:59:43Z</time>
      </trkpt>
      <trkpt lat="43.2843720" lon="-2.7397610">
        <ele>234.8</ele>
        <time>2018-09-03T11:59:47Z</time>
      </trkpt>
      <trkpt lat="43.2842810" lon="-2.7397480">
        <ele>235.8</ele>
        <time>2018-09-03T11:59:53Z</time>
      </trkpt>
      <trkpt lat="43.2842580" lon="-2.7397300">
        <ele>236.0</ele>
        <time>2018-09-03T11:59:55Z</time>
      </trkpt>
      <trkpt lat="43.2842100" lon="-2.7396870">
        <ele>236.8</ele>
        <time>2018-09-03T11:59:59Z</time>
      </trkpt>
      <trkpt lat="43.2841300" lon="-2.7396270">
        <ele>237.8</ele>
        <time>2018-09-03T12:00:05Z</time>
      </trkpt>
      <trkpt lat="43.2840130" lon="-2.7395620">
        <ele>239.0</ele>
        <time>2018-09-03T12:00:13Z</time>
      </trkpt>
      <trkpt lat="43.2839250" lon="-2.7395270">
        <ele>240.0</ele>
        <time>2018-09-03T12:00:19Z</time>
      </trkpt>
      <trkpt lat="43.2838740" lon="-2.7394880">
        <ele>241.2</ele>
        <time>2018-09-03T12:00:24Z</time>
      </trkpt>
      <trkpt lat="43.2838290" lon="-2.7394720">
        <ele>242.4</ele>
        <time>2018-09-03T12:00:29Z</time>
      </trkpt>
      <trkpt lat="43.2837950" lon="-2.7394630">
        <ele>243.2</ele>
        <time>2018-09-03T12:00:32Z</time>
      </trkpt>
      <trkpt lat="43.2837610" lon="-2.7394610">
        <ele>243.8</ele>
        <time>2018-09-03T12:00:34Z</time>
      </trkpt>
      <trkpt lat="43.2836620" lon="-2.7394610">
        <ele>244.8</ele>
        <time>2018-09-03T12:00:41Z</time>
      </trkpt>
      <trkpt lat="43.2835870" lon="-2.7394620">
        <ele>245.8</ele>
        <time>2018-09-03T12:00:47Z</time>
      </trkpt>
      <trkpt lat="43.2835330" lon="-2.7394840">
        <ele>246.6</ele>
        <time>2018-09-03T12:00:51Z</time>
      </trkpt>
      <trkpt lat="43.2835190" lon="-2.7394890">
        <ele>246.8</ele>
        <time>2018-09-03T12:00:52Z</time>
      </trkpt>
      <trkpt lat="43.2834450" lon="-2.7395130">
        <ele>247.8</ele>
        <time>2018-09-03T12:00:57Z</time>
      </trkpt>
      <trkpt lat="43.2833740" lon="-2.7395220">
        <ele>248.8</ele>
        <time>2018-09-03T12:01:03Z</time>
      </trkpt>
      <trkpt lat="43.2833150" lon="-2.7395310">
        <ele>250.2</ele>
        <time>2018-09-03T12:01:08Z</time>
      </trkpt>
      <trkpt lat="43.2832550" lon="-2.7395360">
        <ele>251.2</ele>
        <time>2018-09-03T12:01:13Z</time>
      </trkpt>
      <trkpt lat="43.2831910" lon="-2.7395370">
        <ele>252.4</ele>
        <time>2018-09-03T12:01:18Z</time>
      </trkpt>
      <trkpt lat="43.2831540" lon="-2.7395350">
        <ele>253.0</ele>
        <time>2018-09-03T12:01:21Z</time>
      </trkpt>
      <trkpt lat="43.2831290" lon="-2.7395340">
        <ele>253.6</ele>
        <time>2018-09-03T12:01:23Z</time>
      </trkpt>
      <trkpt lat="43.2830700" lon="-2.7395290">
        <ele>254.6</ele>
        <time>2018-09-03T12:01:28Z</time>
      </trkpt>
      <trkpt lat="43.2830140" lon="-2.7395450">
        <ele>255.8</ele>
        <time>2018-09-03T12:01:33Z</time>
      </trkpt>
      <trkpt lat="43.2829550" lon="-2.7395360">
        <ele>257.0</ele>
        <time>2018-09-03T12:01:38Z</time>
      </trkpt>
      <trkpt lat="43.2829000" lon="-2.7395260">
        <ele>258.4</ele>
        <time>2018-09-03T12:01:43Z</time>
      </trkpt>
      <trkpt lat="43.2828340" lon="-2.7395240">
        <ele>259.6</ele>
        <time>2018-09-03T12:01:48Z</time>
      </trkpt>
      <trkpt lat="43.2827600" lon="-2.7395180">
        <ele>260.8</ele>
        <time>2018-09-03T12:01:54Z</time>
      </trkpt>
      <trkpt lat="43.2827290" lon="-2.7395440">
        <ele>261.4</ele>
        <time>2018-09-03T12:01:58Z</time>
      </trkpt>
      <trkpt lat="43.2827520" lon="-2.7395920">
        <ele>261.8</ele>
        <time>2018-09-03T12:02:02Z</time>
      </trkpt>
      <trkpt lat="43.2827610" lon="-2.7396010">
        <ele>261.8</ele>
        <time>2018-09-03T12:02:03Z</time>
      </trkpt>
      <trkpt lat="43.2827870" lon="-2.7396300">
        <ele>262.2</ele>
        <time>2018-09-03T12:02:07Z</time>
      </trkpt>
      <trkpt lat="43.2828010" lon="-2.7396320">
        <ele>262.2</ele>
        <time>2018-09-03T12:02:09Z</time>
      </trkpt>
      <trkpt lat="43.2828150" lon="-2.7396290">
        <ele>262.4</ele>
        <time>2018-09-03T12:02:11Z</time>
      </trkpt>
      <trkpt lat="43.2828260" lon="-2.7396580">
        <ele>262.8</ele>
        <time>2018-09-03T12:02:16Z</time>
      </trkpt>
      <trkpt lat="43.2828060" lon="-2.7396560">
        <ele>263.0</ele>
        <time>2018-09-03T12:02:18Z</time>
      </trkpt>
      <trkpt lat="43.2827920" lon="-2.7396470">
        <ele>263.0</ele>
        <time>2018-09-03T12:02:19Z</time>
      </trkpt>
      <trkpt lat="43.2827590" lon="-2.7396210">
        <ele>263.0</ele>
        <time>2018-09-03T12:02:21Z</time>
      </trkpt>
      <trkpt lat="43.2827570" lon="-2.7396060">
        <ele>263.0</ele>
        <time>2018-09-03T12:02:23Z</time>
      </trkpt>
      <trkpt lat="43.2827860" lon="-2.7396130">
        <ele>262.6</ele>
        <time>2018-09-03T12:02:31Z</time>
      </trkpt>
      <trkpt lat="43.2828000" lon="-2.7396210">
        <ele>262.6</ele>
        <time>2018-09-03T12:02:34Z</time>
      </trkpt>
      <trkpt lat="43.2828190" lon="-2.7396510">
        <ele>262.8</ele>
        <time>2018-09-03T12:02:39Z</time>
      </trkpt>
      <trkpt lat="43.2828410" lon="-2.7396800">
        <ele>263.0</ele>
        <time>2018-09-03T12:02:43Z</time>
      </trkpt>
      <trkpt lat="43.2828870" lon="-2.7397100">
        <ele>263.4</ele>
        <time>2018-09-03T12:02:48Z</time>
      </trkpt>
      <trkpt lat="43.2829260" lon="-2.7397680">
        <ele>263.8</ele>
        <time>2018-09-03T12:02:54Z</time>
      </trkpt>
      <trkpt lat="43.2829470" lon="-2.7397880">
        <ele>264.0</ele>
        <time>2018-09-03T12:02:57Z</time>
      </trkpt>
      <trkpt lat="43.2829580" lon="-2.7397950">
        <ele>264.0</ele>
        <time>2018-09-03T12:02:58Z</time>
      </trkpt>
      <trkpt lat="43.2830080" lon="-2.7398100">
        <ele>264.4</ele>
        <time>2018-09-03T12:03:02Z</time>
      </trkpt>
      <trkpt lat="43.2830520" lon="-2.7398350">
        <ele>265.0</ele>
        <time>2018-09-03T12:03:09Z</time>
      </trkpt>
      <trkpt lat="43.2831660" lon="-2.7398940">
        <ele>266.0</ele>
        <time>2018-09-03T12:03:22Z</time>
      </trkpt>
      <trkpt lat="43.2831920" lon="-2.7399460">
        <ele>266.4</ele>
        <time>2018-09-03T12:03:28Z</time>
      </trkpt>
      <trkpt lat="43.2832570" lon="-2.7399870">
        <ele>267.0</ele>
        <time>2018-09-03T12:03:38Z</time>
      </trkpt>
      <trkpt lat="43.2832930" lon="-2.7400010">
        <ele>267.4</ele>
        <time>2018-09-03T12:03:42Z</time>
      </trkpt>
      <trkpt lat="43.2833200" lon="-2.7400360">
        <ele>267.8</ele>
        <time>2018-09-03T12:03:50Z</time>
      </trkpt>
      <trkpt lat="43.2833360" lon="-2.7400640">
        <ele>267.8</ele>
        <time>2018-09-03T12:03:54Z</time>
      </trkpt>
      <trkpt lat="43.2833310" lon="-2.7400860">
        <ele>268.0</ele>
        <time>2018-09-03T12:03:56Z</time>
      </trkpt>
      <trkpt lat="43.2833350" lon="-2.7400970">
        <ele>268.0</ele>
        <time>2018-09-03T12:03:57Z</time>
      </trkpt>
      <trkpt lat="43.2833460" lon="-2.7401140">
        <ele>268.2</ele>
        <time>2018-09-03T12:03:59Z</time>
      </trkpt>
      <trkpt lat="43.2833600" lon="-2.7401130">
        <ele>268.2</ele>
        <time>2018-09-03T12:04:01Z</time>
      </trkpt>
      <trkpt lat="43.2833780" lon="-2.7401480">
        <ele>268.6</ele>
        <time>2018-09-03T12:04:06Z</time>
      </trkpt>
      <trkpt lat="43.2834410" lon="-2.7402250">
        <ele>269.0</ele>
        <time>2018-09-03T12:04:15Z</time>
      </trkpt>
      <trkpt lat="43.2834490" lon="-2.7402310">
        <ele>269.0</ele>
        <time>2018-09-03T12:04:16Z</time>
      </trkpt>
      <trkpt lat="43.2834540" lon="-2.7402300">
        <ele>269.2</ele>
        <time>2018-09-03T12:04:19Z</time>
      </trkpt>
      <trkpt lat="43.2834580" lon="-2.7402330">
        <ele>269.4</ele>
        <time>2018-09-03T12:04:26Z</time>
      </trkpt>
      <trkpt lat="43.2834590" lon="-2.7402320">
        <ele>269.8</ele>
        <time>2018-09-03T12:04:46Z</time>
      </trkpt>
      <trkpt lat="43.2834600" lon="-2.7402340">
        <ele>269.8</ele>
        <time>2018-09-03T12:04:49Z</time>
      </trkpt>
      <trkpt lat="43.2834590" lon="-2.7402330">
        <ele>269.8</ele>
        <time>2018-09-03T12:04:52Z</time>
      </trkpt>
      <trkpt lat="43.2834590" lon="-2.7402330">
        <ele>269.8</ele>
        <time>2018-09-03T12:04:59Z</time>
      </trkpt>
      <trkpt lat="43.2834580" lon="-2.7402320">
        <ele>269.8</ele>
        <time>2018-09-03T12:05:02Z</time>
      </trkpt>
      <trkpt lat="43.2834530" lon="-2.7402150">
        <ele>269.8</ele>
        <time>2018-09-03T12:05:07Z</time>
      </trkpt>
      <trkpt lat="43.2834070" lon="-2.7401250">
        <ele>269.8</ele>
        <time>2018-09-03T12:05:11Z</time>
      </trkpt>
      <trkpt lat="43.2833890" lon="-2.7401080">
        <ele>269.6</ele>
        <time>2018-09-03T12:05:12Z</time>
      </trkpt>
      <trkpt lat="43.2833230" lon="-2.7400740">
        <ele>269.2</ele>
        <time>2018-09-03T12:05:16Z</time>
      </trkpt>
      <trkpt lat="43.2832460" lon="-2.7399960">
        <ele>268.4</ele>
        <time>2018-09-03T12:05:22Z</time>
      </trkpt>
      <trkpt lat="43.2831330" lon="-2.7399110">
        <ele>268.2</ele>
        <time>2018-09-03T12:05:27Z</time>
      </trkpt>
      <trkpt lat="43.2829700" lon="-2.7397980">
        <ele>267.6</ele>
        <time>2018-09-03T12:05:32Z</time>
      </trkpt>
      <trkpt lat="43.2828400" lon="-2.7397200">
        <ele>266.6</ele>
        <time>2018-09-03T12:05:36Z</time>
      </trkpt>
      <trkpt lat="43.2827330" lon="-2.7396560">
        <ele>265.4</ele>
        <time>2018-09-03T12:05:41Z</time>
      </trkpt>
      <trkpt lat="43.2827220" lon="-2.7396410">
        <ele>265.0</ele>
        <time>2018-09-03T12:05:43Z</time>
      </trkpt>
      <trkpt lat="43.2827270" lon="-2.7396260">
        <ele>264.2</ele>
        <time>2018-09-03T12:05:45Z</time>
      </trkpt>
      <trkpt lat="43.2827350" lon="-2.7396360">
        <ele>263.8</ele>
        <time>2018-09-03T12:05:49Z</time>
      </trkpt>
      <trkpt lat="43.2827520" lon="-2.7396450">
        <ele>264.4</ele>
        <time>2018-09-03T12:06:05Z</time>
      </trkpt>
      <trkpt lat="43.2827520" lon="-2.7396450">
        <ele>264.4</ele>
        <time>2018-09-03T12:06:07Z</time>
      </trkpt>
      <trkpt lat="43.2827560" lon="-2.7396500">
        <ele>264.6</ele>
        <time>2018-09-03T12:06:09Z</time>
      </trkpt>
      <trkpt lat="43.2827810" lon="-2.7396650">
        <ele>265.2</ele>
        <time>2018-09-03T12:06:15Z</time>
      </trkpt>
      <trkpt lat="43.2827990" lon="-2.7396860">
        <ele>265.6</ele>
        <time>2018-09-03T12:06:17Z</time>
      </trkpt>
      <trkpt lat="43.2828610" lon="-2.7397460">
        <ele>266.0</ele>
        <time>2018-09-03T12:06:22Z</time>
      </trkpt>
      <trkpt lat="43.2829710" lon="-2.7398540">
        <ele>266.4</ele>
        <time>2018-09-03T12:06:28Z</time>
      </trkpt>
      <trkpt lat="43.2830040" lon="-2.7398790">
        <ele>266.6</ele>
        <time>2018-09-03T12:06:30Z</time>
      </trkpt>
      <trkpt lat="43.2831010" lon="-2.7399570">
        <ele>267.4</ele>
        <time>2018-09-03T12:06:37Z</time>
      </trkpt>
      <trkpt lat="43.2831480" lon="-2.7400060">
        <ele>267.8</ele>
        <time>2018-09-03T12:06:41Z</time>
      </trkpt>
      <trkpt lat="43.2831730" lon="-2.7400230">
        <ele>268.0</ele>
        <time>2018-09-03T12:06:43Z</time>
      </trkpt>
      <trkpt lat="43.2832720" lon="-2.7401070">
        <ele>268.8</ele>
        <time>2018-09-03T12:06:52Z</time>
      </trkpt>
      <trkpt lat="43.2832930" lon="-2.7401340">
        <ele>268.8</ele>
        <time>2018-09-03T12:06:54Z</time>
      </trkpt>
      <trkpt lat="43.2833100" lon="-2.7401340">
        <ele>269.0</ele>
        <time>2018-09-03T12:06:55Z</time>
      </trkpt>
      <trkpt lat="43.2833280" lon="-2.7401330">
        <ele>269.2</ele>
        <time>2018-09-03T12:06:57Z</time>
      </trkpt>
      <trkpt lat="43.2833390" lon="-2.7401470">
        <ele>269.2</ele>
        <time>2018-09-03T12:06:59Z</time>
      </trkpt>
      <trkpt lat="43.2833490" lon="-2.7401820">
        <ele>269.4</ele>
        <time>2018-09-03T12:07:02Z</time>
      </trkpt>
      <trkpt lat="43.2833670" lon="-2.7402200">
        <ele>269.8</ele>
        <time>2018-09-03T12:07:05Z</time>
      </trkpt>
      <trkpt lat="43.2834010" lon="-2.7402740">
        <ele>270.0</ele>
        <time>2018-09-03T12:07:09Z</time>
      </trkpt>
      <trkpt lat="43.2834330" lon="-2.7403090">
        <ele>270.0</ele>
        <time>2018-09-03T12:07:13Z</time>
      </trkpt>
      <trkpt lat="43.2834520" lon="-2.7403620">
        <ele>270.4</ele>
        <time>2018-09-03T12:07:17Z</time>
      </trkpt>
      <trkpt lat="43.2834740" lon="-2.7404150">
        <ele>270.8</ele>
        <time>2018-09-03T12:07:21Z</time>
      </trkpt>
      <trkpt lat="43.2834870" lon="-2.7404390">
        <ele>271.0</ele>
        <time>2018-09-03T12:07:23Z</time>
      </trkpt>
      <trkpt lat="43.2835150" lon="-2.7404840">
        <ele>271.2</ele>
        <time>2018-09-03T12:07:27Z</time>
      </trkpt>
      <trkpt lat="43.2835450" lon="-2.7405320">
        <ele>271.4</ele>
        <time>2018-09-03T12:07:31Z</time>
      </trkpt>
      <trkpt lat="43.2835840" lon="-2.7406640">
        <ele>272.0</ele>
        <time>2018-09-03T12:07:40Z</time>
      </trkpt>
      <trkpt lat="43.2836060" lon="-2.7407570">
        <ele>272.4</ele>
        <time>2018-09-03T12:07:46Z</time>
      </trkpt>
      <trkpt lat="43.2836400" lon="-2.7408420">
        <ele>272.6</ele>
        <time>2018-09-03T12:07:51Z</time>
      </trkpt>
      <trkpt lat="43.2836500" lon="-2.7408550">
        <ele>272.6</ele>
        <time>2018-09-03T12:07:52Z</time>
      </trkpt>
      <trkpt lat="43.2837160" lon="-2.7409940">
        <ele>273.0</ele>
        <time>2018-09-03T12:08:00Z</time>
      </trkpt>
      <trkpt lat="43.2837680" lon="-2.7411040">
        <ele>273.2</ele>
        <time>2018-09-03T12:08:06Z</time>
      </trkpt>
      <trkpt lat="43.2838440" lon="-2.7411980">
        <ele>273.6</ele>
        <time>2018-09-03T12:08:14Z</time>
      </trkpt>
      <trkpt lat="43.2839200" lon="-2.7412820">
        <ele>273.8</ele>
        <time>2018-09-03T12:08:20Z</time>
      </trkpt>
      <trkpt lat="43.2839720" lon="-2.7413120">
        <ele>274.0</ele>
        <time>2018-09-03T12:08:23Z</time>
      </trkpt>
      <trkpt lat="43.2840280" lon="-2.7413400">
        <ele>274.2</ele>
        <time>2018-09-03T12:08:26Z</time>
      </trkpt>
      <trkpt lat="43.2843370" lon="-2.7415140">
        <ele>275.0</ele>
        <time>2018-09-03T12:08:42Z</time>
      </trkpt>
      <trkpt lat="43.2843950" lon="-2.7415500">
        <ele>275.0</ele>
        <time>2018-09-03T12:08:45Z</time>
      </trkpt>
      <trkpt lat="43.2844590" lon="-2.7415690">
        <ele>275.0</ele>
        <time>2018-09-03T12:08:48Z</time>
      </trkpt>
      <trkpt lat="43.2847020" lon="-2.7416580">
        <ele>275.4</ele>
        <time>2018-09-03T12:08:59Z</time>
      </trkpt>
      <trkpt lat="43.2849030" lon="-2.7417260">
        <ele>276.0</ele>
        <time>2018-09-03T12:09:08Z</time>
      </trkpt>
      <trkpt lat="43.2849780" lon="-2.7417990">
        <ele>276.8</ele>
        <time>2018-09-03T12:09:14Z</time>
      </trkpt>
      <trkpt lat="43.2849690" lon="-2.7418500">
        <ele>277.2</ele>
        <time>2018-09-03T12:09:18Z</time>
      </trkpt>
      <trkpt lat="43.2849450" lon="-2.7418870">
        <ele>277.6</ele>
        <time>2018-09-03T12:09:22Z</time>
      </trkpt>
      <trkpt lat="43.2848700" lon="-2.7419390">
        <ele>277.8</ele>
        <time>2018-09-03T12:09:28Z</time>
      </trkpt>
      <trkpt lat="43.2848190" lon="-2.7419780">
        <ele>278.0</ele>
        <time>2018-09-03T12:09:33Z</time>
      </trkpt>
      <trkpt lat="43.2848110" lon="-2.7419830">
        <ele>278.0</ele>
        <time>2018-09-03T12:09:34Z</time>
      </trkpt>
      <trkpt lat="43.2847870" lon="-2.7419810">
        <ele>278.0</ele>
        <time>2018-09-03T12:09:36Z</time>
      </trkpt>
      <trkpt lat="43.2847360" lon="-2.7419840">
        <ele>278.0</ele>
        <time>2018-09-03T12:09:40Z</time>
      </trkpt>
      <trkpt lat="43.2846720" lon="-2.7420010">
        <ele>278.2</ele>
        <time>2018-09-03T12:09:48Z</time>
      </trkpt>
      <trkpt lat="43.2846660" lon="-2.7420080">
        <ele>278.2</ele>
        <time>2018-09-03T12:09:51Z</time>
      </trkpt>
      <trkpt lat="43.2846620" lon="-2.7420110">
        <ele>278.2</ele>
        <time>2018-09-03T12:09:55Z</time>
      </trkpt>
      <trkpt lat="43.2846620" lon="-2.7420120">
        <ele>278.4</ele>
        <time>2018-09-03T12:10:04Z</time>
      </trkpt>
      <trkpt lat="43.2846620" lon="-2.7420130">
        <ele>278.4</ele>
        <time>2018-09-03T12:10:13Z</time>
      </trkpt>
      <trkpt lat="43.2846620" lon="-2.7420130">
        <ele>278.4</ele>
        <time>2018-09-03T12:10:16Z</time>
      </trkpt>
      <trkpt lat="43.2846620" lon="-2.7420120">
        <ele>278.4</ele>
        <time>2018-09-03T12:10:22Z</time>
      </trkpt>
      <trkpt lat="43.2846590" lon="-2.7420050">
        <ele>278.6</ele>
        <time>2018-09-03T12:10:27Z</time>
      </trkpt>
      <trkpt lat="43.2846550" lon="-2.7419950">
        <ele>278.6</ele>
        <time>2018-09-03T12:10:28Z</time>
      </trkpt>
      <trkpt lat="43.2846690" lon="-2.7419720">
        <ele>278.6</ele>
        <time>2018-09-03T12:10:30Z</time>
      </trkpt>
      <trkpt lat="43.2847000" lon="-2.7419900">
        <ele>278.4</ele>
        <time>2018-09-03T12:10:33Z</time>
      </trkpt>
      <trkpt lat="43.2846950" lon="-2.7420160">
        <ele>278.6</ele>
        <time>2018-09-03T12:10:39Z</time>
      </trkpt>
      <trkpt lat="43.2846930" lon="-2.7420340">
        <ele>278.6</ele>
        <time>2018-09-03T12:10:41Z</time>
      </trkpt>
      <trkpt lat="43.2846930" lon="-2.7420800">
        <ele>278.6</ele>
        <time>2018-09-03T12:10:44Z</time>
      </trkpt>
      <trkpt lat="43.2846590" lon="-2.7421230">
        <ele>278.8</ele>
        <time>2018-09-03T12:10:47Z</time>
      </trkpt>
      <trkpt lat="43.2846450" lon="-2.7421360">
        <ele>278.8</ele>
        <time>2018-09-03T12:10:48Z</time>
      </trkpt>
      <trkpt lat="43.2843620" lon="-2.7426520">
        <ele>278.6</ele>
        <time>2018-09-03T12:11:03Z</time>
      </trkpt>
      <trkpt lat="43.2840740" lon="-2.7428890">
        <ele>277.0</ele>
        <time>2018-09-03T12:11:08Z</time>
      </trkpt>
      <trkpt lat="43.2838980" lon="-2.7429770">
        <ele>275.8</ele>
        <time>2018-09-03T12:11:10Z</time>
      </trkpt>
      <trkpt lat="43.2838030" lon="-2.7430240">
        <ele>274.8</ele>
        <time>2018-09-03T12:11:11Z</time>
      </trkpt>
      <trkpt lat="43.2835910" lon="-2.7431000">
        <ele>273.2</ele>
        <time>2018-09-03T12:11:13Z</time>
      </trkpt>
      <trkpt lat="43.2834290" lon="-2.7431800">
        <ele>271.4</ele>
        <time>2018-09-03T12:11:15Z</time>
      </trkpt>
      <trkpt lat="43.2833730" lon="-2.7432320">
        <ele>270.0</ele>
        <time>2018-09-03T12:11:16Z</time>
      </trkpt>
      <trkpt lat="43.2833280" lon="-2.7432910">
        <ele>268.6</ele>
        <time>2018-09-03T12:11:17Z</time>
      </trkpt>
      <trkpt lat="43.2833230" lon="-2.7433670">
        <ele>267.2</ele>
        <time>2018-09-03T12:11:18Z</time>
      </trkpt>
      <trkpt lat="43.2833250" lon="-2.7434550">
        <ele>265.6</ele>
        <time>2018-09-03T12:11:19Z</time>
      </trkpt>
      <trkpt lat="43.2833600" lon="-2.7435730">
        <ele>264.4</ele>
        <time>2018-09-03T12:11:21Z</time>
      </trkpt>
      <trkpt lat="43.2834210" lon="-2.7436740">
        <ele>264.2</ele>
        <time>2018-09-03T12:11:24Z</time>
      </trkpt>
      <trkpt lat="43.2834420" lon="-2.7436950">
        <ele>264.2</ele>
        <time>2018-09-03T12:11:25Z</time>
      </trkpt>
      <trkpt lat="43.2834710" lon="-2.7437460">
        <ele>264.2</ele>
        <time>2018-09-03T12:11:27Z</time>
      </trkpt>
      <trkpt lat="43.2834860" lon="-2.7437660">
        <ele>264.2</ele>
        <time>2018-09-03T12:11:28Z</time>
      </trkpt>
      <trkpt lat="43.2835290" lon="-2.7438420">
        <ele>265.0</ele>
        <time>2018-09-03T12:11:31Z</time>
      </trkpt>
      <trkpt lat="43.2835530" lon="-2.7438810">
        <ele>265.6</ele>
        <time>2018-09-03T12:11:33Z</time>
      </trkpt>
      <trkpt lat="43.2835880" lon="-2.7439330">
        <ele>266.8</ele>
        <time>2018-09-03T12:11:37Z</time>
      </trkpt>
      <trkpt lat="43.2836350" lon="-2.7440100">
        <ele>268.0</ele>
        <time>2018-09-03T12:11:41Z</time>
      </trkpt>
      <trkpt lat="43.2836680" lon="-2.7440660">
        <ele>268.4</ele>
        <time>2018-09-03T12:11:44Z</time>
      </trkpt>
      <trkpt lat="43.2836980" lon="-2.7441310">
        <ele>268.6</ele>
        <time>2018-09-03T12:11:47Z</time>
      </trkpt>
      <trkpt lat="43.2837330" lon="-2.7441880">
        <ele>269.0</ele>
        <time>2018-09-03T12:11:50Z</time>
      </trkpt>
      <trkpt lat="43.2837440" lon="-2.7442080">
        <ele>269.2</ele>
        <time>2018-09-03T12:11:51Z</time>
      </trkpt>
      <trkpt lat="43.2837800" lon="-2.7442700">
        <ele>269.6</ele>
        <time>2018-09-03T12:11:54Z</time>
      </trkpt>
      <trkpt lat="43.2838100" lon="-2.7443410">
        <ele>270.2</ele>
        <time>2018-09-03T12:11:57Z</time>
      </trkpt>
      <trkpt lat="43.2838850" lon="-2.7445250">
        <ele>270.8</ele>
        <time>2018-09-03T12:12:05Z</time>
      </trkpt>
      <trkpt lat="43.2839070" lon="-2.7446110">
        <ele>271.0</ele>
        <time>2018-09-03T12:12:08Z</time>
      </trkpt>
      <trkpt lat="43.2839480" lon="-2.7447140">
        <ele>271.0</ele>
        <time>2018-09-03T12:12:11Z</time>
      </trkpt>
      <trkpt lat="43.2840000" lon="-2.7449060">
        <ele>271.0</ele>
        <time>2018-09-03T12:12:15Z</time>
      </trkpt>
      <trkpt lat="43.2840040" lon="-2.7451450">
        <ele>270.6</ele>
        <time>2018-09-03T12:12:19Z</time>
      </trkpt>
      <trkpt lat="43.2840000" lon="-2.7451990">
        <ele>270.4</ele>
        <time>2018-09-03T12:12:20Z</time>
      </trkpt>
      <trkpt lat="43.2840390" lon="-2.7454020">
        <ele>269.6</ele>
        <time>2018-09-03T12:12:24Z</time>
      </trkpt>
      <trkpt lat="43.2840940" lon="-2.7454650">
        <ele>269.6</ele>
        <time>2018-09-03T12:12:26Z</time>
      </trkpt>
      <trkpt lat="43.2841600" lon="-2.7455250">
        <ele>269.6</ele>
        <time>2018-09-03T12:12:29Z</time>
      </trkpt>
      <trkpt lat="43.2843000" lon="-2.7456050">
        <ele>271.4</ele>
        <time>2018-09-03T12:12:37Z</time>
      </trkpt>
      <trkpt lat="43.2843680" lon="-2.7456500">
        <ele>272.6</ele>
        <time>2018-09-03T12:12:41Z</time>
      </trkpt>
      <trkpt lat="43.2844200" lon="-2.7456980">
        <ele>273.4</ele>
        <time>2018-09-03T12:12:44Z</time>
      </trkpt>
      <trkpt lat="43.2844370" lon="-2.7457180">
        <ele>273.8</ele>
        <time>2018-09-03T12:12:45Z</time>
      </trkpt>
      <trkpt lat="43.2844770" lon="-2.7457740">
        <ele>274.2</ele>
        <time>2018-09-03T12:12:48Z</time>
      </trkpt>
      <trkpt lat="43.2845190" lon="-2.7458320">
        <ele>275.0</ele>
        <time>2018-09-03T12:12:51Z</time>
      </trkpt>
      <trkpt lat="43.2845830" lon="-2.7459250">
        <ele>275.8</ele>
        <time>2018-09-03T12:12:56Z</time>
      </trkpt>
      <trkpt lat="43.2845940" lon="-2.7459440">
        <ele>276.0</ele>
        <time>2018-09-03T12:12:57Z</time>
      </trkpt>
      <trkpt lat="43.2846640" lon="-2.7460300">
        <ele>277.2</ele>
        <time>2018-09-03T12:13:02Z</time>
      </trkpt>
      <trkpt lat="43.2847370" lon="-2.7461460">
        <ele>278.2</ele>
        <time>2018-09-03T12:13:08Z</time>
      </trkpt>
      <trkpt lat="43.2847690" lon="-2.7461800">
        <ele>278.6</ele>
        <time>2018-09-03T12:13:11Z</time>
      </trkpt>
      <trkpt lat="43.2847960" lon="-2.7462180">
        <ele>278.8</ele>
        <time>2018-09-03T12:13:14Z</time>
      </trkpt>
      <trkpt lat="43.2848120" lon="-2.7462440">
        <ele>279.0</ele>
        <time>2018-09-03T12:13:16Z</time>
      </trkpt>
      <trkpt lat="43.2848210" lon="-2.7462780">
        <ele>279.0</ele>
        <time>2018-09-03T12:13:18Z</time>
      </trkpt>
      <trkpt lat="43.2847760" lon="-2.7463580">
        <ele>279.2</ele>
        <time>2018-09-03T12:13:26Z</time>
      </trkpt>
      <trkpt lat="43.2847300" lon="-2.7463680">
        <ele>279.4</ele>
        <time>2018-09-03T12:13:30Z</time>
      </trkpt>
      <trkpt lat="43.2846980" lon="-2.7463670">
        <ele>279.8</ele>
        <time>2018-09-03T12:13:33Z</time>
      </trkpt>
      <trkpt lat="43.2846620" lon="-2.7463550">
        <ele>280.2</ele>
        <time>2018-09-03T12:13:36Z</time>
      </trkpt>
      <trkpt lat="43.2846280" lon="-2.7463440">
        <ele>280.8</ele>
        <time>2018-09-03T12:13:40Z</time>
      </trkpt>
      <trkpt lat="43.2846080" lon="-2.7463400">
        <ele>281.2</ele>
        <time>2018-09-03T12:13:44Z</time>
      </trkpt>
      <trkpt lat="43.2846020" lon="-2.7463420">
        <ele>281.6</ele>
        <time>2018-09-03T12:13:47Z</time>
      </trkpt>
      <trkpt lat="43.2845960" lon="-2.7463410">
        <ele>282.2</ele>
        <time>2018-09-03T12:13:51Z</time>
      </trkpt>
      <trkpt lat="43.2845960" lon="-2.7463410">
        <ele>282.2</ele>
        <time>2018-09-03T12:13:52Z</time>
      </trkpt>
      <trkpt lat="43.2845780" lon="-2.7463380">
        <ele>283.4</ele>
        <time>2018-09-03T12:13:59Z</time>
      </trkpt>
      <trkpt lat="43.2845600" lon="-2.7463370">
        <ele>284.2</ele>
        <time>2018-09-03T12:14:07Z</time>
      </trkpt>
      <trkpt lat="43.2843900" lon="-2.7463780">
        <ele>285.4</ele>
        <time>2018-09-03T12:14:14Z</time>
      </trkpt>
      <trkpt lat="43.2843260" lon="-2.7463960">
        <ele>285.8</ele>
        <time>2018-09-03T12:14:17Z</time>
      </trkpt>
      <trkpt lat="43.2842410" lon="-2.7464190">
        <ele>286.6</ele>
        <time>2018-09-03T12:14:21Z</time>
      </trkpt>
      <trkpt lat="43.2841210" lon="-2.7464570">
        <ele>287.8</ele>
        <time>2018-09-03T12:14:28Z</time>
      </trkpt>
      <trkpt lat="43.2840240" lon="-2.7464830">
        <ele>288.8</ele>
        <time>2018-09-03T12:14:34Z</time>
      </trkpt>
      <trkpt lat="43.2839270" lon="-2.7465090">
        <ele>289.6</ele>
        <time>2018-09-03T12:14:40Z</time>
      </trkpt>
      <trkpt lat="43.2838290" lon="-2.7465300">
        <ele>290.8</ele>
        <time>2018-09-03T12:14:47Z</time>
      </trkpt>
      <trkpt lat="43.2837390" lon="-2.7465430">
        <ele>292.0</ele>
        <time>2018-09-03T12:14:53Z</time>
      </trkpt>
      <trkpt lat="43.2836710" lon="-2.7465530">
        <ele>293.0</ele>
        <time>2018-09-03T12:14:58Z</time>
      </trkpt>
      <trkpt lat="43.2836030" lon="-2.7465660">
        <ele>294.2</ele>
        <time>2018-09-03T12:15:03Z</time>
      </trkpt>
      <trkpt lat="43.2835330" lon="-2.7465780">
        <ele>295.2</ele>
        <time>2018-09-03T12:15:08Z</time>
      </trkpt>
      <trkpt lat="43.2834580" lon="-2.7465880">
        <ele>296.4</ele>
        <time>2018-09-03T12:15:14Z</time>
      </trkpt>
      <trkpt lat="43.2833980" lon="-2.7465890">
        <ele>297.2</ele>
        <time>2018-09-03T12:15:19Z</time>
      </trkpt>
      <trkpt lat="43.2833290" lon="-2.7466010">
        <ele>298.4</ele>
        <time>2018-09-03T12:15:25Z</time>
      </trkpt>
      <trkpt lat="43.2832530" lon="-2.7466030">
        <ele>299.6</ele>
        <time>2018-09-03T12:15:31Z</time>
      </trkpt>
      <trkpt lat="43.2831840" lon="-2.7466130">
        <ele>300.8</ele>
        <time>2018-09-03T12:15:36Z</time>
      </trkpt>
      <trkpt lat="43.2831350" lon="-2.7466170">
        <ele>302.0</ele>
        <time>2018-09-03T12:15:40Z</time>
      </trkpt>
      <trkpt lat="43.2830730" lon="-2.7466190">
        <ele>303.0</ele>
        <time>2018-09-03T12:15:45Z</time>
      </trkpt>
      <trkpt lat="43.2829950" lon="-2.7466190">
        <ele>304.0</ele>
        <time>2018-09-03T12:15:51Z</time>
      </trkpt>
      <trkpt lat="43.2829220" lon="-2.7466260">
        <ele>305.2</ele>
        <time>2018-09-03T12:15:57Z</time>
      </trkpt>
      <trkpt lat="43.2828590" lon="-2.7466300">
        <ele>306.2</ele>
        <time>2018-09-03T12:16:02Z</time>
      </trkpt>
      <trkpt lat="43.2827810" lon="-2.7466380">
        <ele>307.2</ele>
        <time>2018-09-03T12:16:08Z</time>
      </trkpt>
      <trkpt lat="43.2827120" lon="-2.7466450">
        <ele>308.4</ele>
        <time>2018-09-03T12:16:13Z</time>
      </trkpt>
      <trkpt lat="43.2826440" lon="-2.7466500">
        <ele>309.4</ele>
        <time>2018-09-03T12:16:18Z</time>
      </trkpt>
      <trkpt lat="43.2825500" lon="-2.7466600">
        <ele>310.6</ele>
        <time>2018-09-03T12:16:24Z</time>
      </trkpt>
      <trkpt lat="43.2824490" lon="-2.7466670">
        <ele>311.6</ele>
        <time>2018-09-03T12:16:30Z</time>
      </trkpt>
      <trkpt lat="43.2823580" lon="-2.7466860">
        <ele>312.8</ele>
        <time>2018-09-03T12:16:36Z</time>
      </trkpt>
      <trkpt lat="43.2823370" lon="-2.7466940">
        <ele>313.0</ele>
        <time>2018-09-03T12:16:38Z</time>
      </trkpt>
      <trkpt lat="43.2822770" lon="-2.7466670">
        <ele>313.6</ele>
        <time>2018-09-03T12:16:43Z</time>
      </trkpt>
      <trkpt lat="43.2822620" lon="-2.7466650">
        <ele>313.8</ele>
        <time>2018-09-03T12:16:44Z</time>
      </trkpt>
      <trkpt lat="43.2822250" lon="-2.7466710">
        <ele>313.8</ele>
        <time>2018-09-03T12:16:47Z</time>
      </trkpt>
      <trkpt lat="43.2822100" lon="-2.7466810">
        <ele>314.0</ele>
        <time>2018-09-03T12:16:50Z</time>
      </trkpt>
      <trkpt lat="43.2821970" lon="-2.7466860">
        <ele>315.0</ele>
        <time>2018-09-03T12:18:41Z</time>
      </trkpt>
      <trkpt lat="43.2821940" lon="-2.7466870">
        <ele>315.0</ele>
        <time>2018-09-03T12:18:42Z</time>
      </trkpt>
      <trkpt lat="43.2821550" lon="-2.7466780">
        <ele>315.0</ele>
        <time>2018-09-03T12:18:46Z</time>
      </trkpt>
      <trkpt lat="43.2820420" lon="-2.7467040">
        <ele>315.0</ele>
        <time>2018-09-03T12:18:57Z</time>
      </trkpt>
      <trkpt lat="43.2820150" lon="-2.7467150">
        <ele>315.0</ele>
        <time>2018-09-03T12:18:59Z</time>
      </trkpt>
      <trkpt lat="43.2819710" lon="-2.7467430">
        <ele>315.0</ele>
        <time>2018-09-03T12:19:04Z</time>
      </trkpt>
      <trkpt lat="43.2819440" lon="-2.7467630">
        <ele>315.0</ele>
        <time>2018-09-03T12:19:07Z</time>
      </trkpt>
      <trkpt lat="43.2818550" lon="-2.7467790">
        <ele>315.0</ele>
        <time>2018-09-03T12:19:13Z</time>
      </trkpt>
      <trkpt lat="43.2818310" lon="-2.7467930">
        <ele>315.0</ele>
        <time>2018-09-03T12:19:15Z</time>
      </trkpt>
      <trkpt lat="43.2818050" lon="-2.7468120">
        <ele>315.0</ele>
        <time>2018-09-03T12:19:17Z</time>
      </trkpt>
      <trkpt lat="43.2815670" lon="-2.7469320">
        <ele>315.2</ele>
        <time>2018-09-03T12:19:28Z</time>
      </trkpt>
      <trkpt lat="43.2813060" lon="-2.7469750">
        <ele>315.4</ele>
        <time>2018-09-03T12:19:39Z</time>
      </trkpt>
      <trkpt lat="43.2808650" lon="-2.7470710">
        <ele>315.6</ele>
        <time>2018-09-03T12:19:58Z</time>
      </trkpt>
      <trkpt lat="43.2808210" lon="-2.7470860">
        <ele>315.6</ele>
        <time>2018-09-03T12:20:00Z</time>
      </trkpt>
      <trkpt lat="43.2805210" lon="-2.7472300">
        <ele>315.4</ele>
        <time>2018-09-03T12:20:12Z</time>
      </trkpt>
      <trkpt lat="43.2803140" lon="-2.7473140">
        <ele>315.2</ele>
        <time>2018-09-03T12:20:17Z</time>
      </trkpt>
      <trkpt lat="43.2801640" lon="-2.7473510">
        <ele>314.6</ele>
        <time>2018-09-03T12:20:20Z</time>
      </trkpt>
      <trkpt lat="43.2799990" lon="-2.7473730">
        <ele>314.2</ele>
        <time>2018-09-03T12:20:23Z</time>
      </trkpt>
      <trkpt lat="43.2798890" lon="-2.7473810">
        <ele>313.6</ele>
        <time>2018-09-03T12:20:25Z</time>
      </trkpt>
      <trkpt lat="43.2797310" lon="-2.7473950">
        <ele>312.6</ele>
        <time>2018-09-03T12:20:28Z</time>
      </trkpt>
      <trkpt lat="43.2794990" lon="-2.7474110">
        <ele>312.0</ele>
        <time>2018-09-03T12:20:33Z</time>
      </trkpt>
      <trkpt lat="43.2790640" lon="-2.7475580">
        <ele>311.6</ele>
        <time>2018-09-03T12:20:43Z</time>
      </trkpt>
      <trkpt lat="43.2790040" lon="-2.7476280">
        <ele>311.4</ele>
        <time>2018-09-03T12:20:45Z</time>
      </trkpt>
      <trkpt lat="43.2790050" lon="-2.7478650">
        <ele>310.4</ele>
        <time>2018-09-03T12:20:50Z</time>
      </trkpt>
      <trkpt lat="43.2790480" lon="-2.7479240">
        <ele>309.8</ele>
        <time>2018-09-03T12:20:52Z</time>
      </trkpt>
      <trkpt lat="43.2791710" lon="-2.7479760">
        <ele>309.6</ele>
        <time>2018-09-03T12:20:56Z</time>
      </trkpt>
      <trkpt lat="43.2792130" lon="-2.7479680">
        <ele>309.4</ele>
        <time>2018-09-03T12:20:57Z</time>
      </trkpt>
      <trkpt lat="43.2794460" lon="-2.7480010">
        <ele>308.2</ele>
        <time>2018-09-03T12:21:02Z</time>
      </trkpt>
      <trkpt lat="43.2795340" lon="-2.7480380">
        <ele>306.8</ele>
        <time>2018-09-03T12:21:04Z</time>
      </trkpt>
      <trkpt lat="43.2795750" lon="-2.7480630">
        <ele>306.0</ele>
        <time>2018-09-03T12:21:05Z</time>
      </trkpt>
      <trkpt lat="43.2796200" lon="-2.7480830">
        <ele>305.0</ele>
        <time>2018-09-03T12:21:06Z</time>
      </trkpt>
      <trkpt lat="43.2796540" lon="-2.7481190">
        <ele>304.2</ele>
        <time>2018-09-03T12:21:07Z</time>
      </trkpt>
      <trkpt lat="43.2796880" lon="-2.7481470">
        <ele>303.4</ele>
        <time>2018-09-03T12:21:08Z</time>
      </trkpt>
      <trkpt lat="43.2797860" lon="-2.7482100">
        <ele>302.4</ele>
        <time>2018-09-03T12:21:10Z</time>
      </trkpt>
      <trkpt lat="43.2799170" lon="-2.7483050">
        <ele>301.4</ele>
        <time>2018-09-03T12:21:13Z</time>
      </trkpt>
      <trkpt lat="43.2799490" lon="-2.7483520">
        <ele>301.2</ele>
        <time>2018-09-03T12:21:14Z</time>
      </trkpt>
      <trkpt lat="43.2800480" lon="-2.7484910">
        <ele>300.8</ele>
        <time>2018-09-03T12:21:17Z</time>
      </trkpt>
      <trkpt lat="43.2800830" lon="-2.7486090">
        <ele>300.6</ele>
        <time>2018-09-03T12:21:19Z</time>
      </trkpt>
      <trkpt lat="43.2801070" lon="-2.7486610">
        <ele>300.6</ele>
        <time>2018-09-03T12:21:20Z</time>
      </trkpt>
      <trkpt lat="43.2802440" lon="-2.7487750">
        <ele>300.2</ele>
        <time>2018-09-03T12:21:24Z</time>
      </trkpt>
      <trkpt lat="43.2805480" lon="-2.7487250">
        <ele>299.4</ele>
        <time>2018-09-03T12:21:32Z</time>
      </trkpt>
      <trkpt lat="43.2805900" lon="-2.7487180">
        <ele>299.4</ele>
        <time>2018-09-03T12:21:33Z</time>
      </trkpt>
      <trkpt lat="43.2807760" lon="-2.7487060">
        <ele>299.2</ele>
        <time>2018-09-03T12:21:38Z</time>
      </trkpt>
      <trkpt lat="43.2809120" lon="-2.7486990">
        <ele>299.0</ele>
        <time>2018-09-03T12:21:42Z</time>
      </trkpt>
      <trkpt lat="43.2809420" lon="-2.7487030">
        <ele>299.0</ele>
        <time>2018-09-03T12:21:43Z</time>
      </trkpt>
      <trkpt lat="43.2810400" lon="-2.7487410">
        <ele>298.8</ele>
        <time>2018-09-03T12:21:46Z</time>
      </trkpt>
      <trkpt lat="43.2811160" lon="-2.7487770">
        <ele>298.8</ele>
        <time>2018-09-03T12:21:48Z</time>
      </trkpt>
      <trkpt lat="43.2812030" lon="-2.7488190">
        <ele>298.8</ele>
        <time>2018-09-03T12:21:50Z</time>
      </trkpt>
      <trkpt lat="43.2812390" lon="-2.7488500">
        <ele>298.8</ele>
        <time>2018-09-03T12:21:51Z</time>
      </trkpt>
      <trkpt lat="43.2813580" lon="-2.7489310">
        <ele>298.4</ele>
        <time>2018-09-03T12:21:54Z</time>
      </trkpt>
      <trkpt lat="43.2814280" lon="-2.7489890">
        <ele>298.2</ele>
        <time>2018-09-03T12:21:56Z</time>
      </trkpt>
      <trkpt lat="43.2814600" lon="-2.7490240">
        <ele>298.0</ele>
        <time>2018-09-03T12:21:57Z</time>
      </trkpt>
      <trkpt lat="43.2815810" lon="-2.7491840">
        <ele>297.6</ele>
        <time>2018-09-03T12:22:01Z</time>
      </trkpt>
      <trkpt lat="43.2816190" lon="-2.7493620">
        <ele>297.4</ele>
        <time>2018-09-03T12:22:04Z</time>
      </trkpt>
      <trkpt lat="43.2816480" lon="-2.7494850">
        <ele>297.4</ele>
        <time>2018-09-03T12:22:06Z</time>
      </trkpt>
      <trkpt lat="43.2818660" lon="-2.7496210">
        <ele>297.0</ele>
        <time>2018-09-03T12:22:11Z</time>
      </trkpt>
      <trkpt lat="43.2820160" lon="-2.7496510">
        <ele>296.6</ele>
        <time>2018-09-03T12:22:14Z</time>
      </trkpt>
      <trkpt lat="43.2822100" lon="-2.7501700">
        <ele>296.0</ele>
        <time>2018-09-03T12:22:25Z</time>
      </trkpt>
      <trkpt lat="43.2822000" lon="-2.7502110">
        <ele>296.0</ele>
        <time>2018-09-03T12:22:26Z</time>
      </trkpt>
      <trkpt lat="43.2820380" lon="-2.7506070">
        <ele>296.2</ele>
        <time>2018-09-03T12:22:35Z</time>
      </trkpt>
      <trkpt lat="43.2820020" lon="-2.7506850">
        <ele>296.2</ele>
        <time>2018-09-03T12:22:37Z</time>
      </trkpt>
      <trkpt lat="43.2819890" lon="-2.7507250">
        <ele>296.2</ele>
        <time>2018-09-03T12:22:38Z</time>
      </trkpt>
      <trkpt lat="43.2819920" lon="-2.7508050">
        <ele>296.2</ele>
        <time>2018-09-03T12:22:40Z</time>
      </trkpt>
      <trkpt lat="43.2821690" lon="-2.7508970">
        <ele>296.2</ele>
        <time>2018-09-03T12:22:46Z</time>
      </trkpt>
      <trkpt lat="43.2823420" lon="-2.7508870">
        <ele>296.0</ele>
        <time>2018-09-03T12:22:50Z</time>
      </trkpt>
      <trkpt lat="43.2824750" lon="-2.7508800">
        <ele>296.0</ele>
        <time>2018-09-03T12:22:53Z</time>
      </trkpt>
      <trkpt lat="43.2825560" lon="-2.7508710">
        <ele>295.6</ele>
        <time>2018-09-03T12:22:55Z</time>
      </trkpt>
      <trkpt lat="43.2826250" lon="-2.7508870">
        <ele>295.6</ele>
        <time>2018-09-03T12:22:57Z</time>
      </trkpt>
      <trkpt lat="43.2826560" lon="-2.7508970">
        <ele>295.6</ele>
        <time>2018-09-03T12:22:58Z</time>
      </trkpt>
      <trkpt lat="43.2827040" lon="-2.7509280">
        <ele>295.6</ele>
        <time>2018-09-03T12:23:00Z</time>
      </trkpt>
      <trkpt lat="43.2827400" lon="-2.7509600">
        <ele>295.6</ele>
        <time>2018-09-03T12:23:02Z</time>
      </trkpt>
      <trkpt lat="43.2827920" lon="-2.7509980">
        <ele>296.0</ele>
        <time>2018-09-03T12:23:05Z</time>
      </trkpt>
      <trkpt lat="43.2828400" lon="-2.7510340">
        <ele>297.2</ele>
        <time>2018-09-03T12:23:08Z</time>
      </trkpt>
      <trkpt lat="43.2828820" lon="-2.7510650">
        <ele>297.8</ele>
        <time>2018-09-03T12:23:11Z</time>
      </trkpt>
      <trkpt lat="43.2829080" lon="-2.7510870">
        <ele>298.4</ele>
        <time>2018-09-03T12:23:13Z</time>
      </trkpt>
      <trkpt lat="43.2829590" lon="-2.7511310">
        <ele>299.2</ele>
        <time>2018-09-03T12:23:17Z</time>
      </trkpt>
      <trkpt lat="43.2829790" lon="-2.7511630">
        <ele>299.6</ele>
        <time>2018-09-03T12:23:19Z</time>
      </trkpt>
      <trkpt lat="43.2830200" lon="-2.7512290">
        <ele>300.4</ele>
        <time>2018-09-03T12:23:23Z</time>
      </trkpt>
      <trkpt lat="43.2830250" lon="-2.7512500">
        <ele>300.6</ele>
        <time>2018-09-03T12:23:24Z</time>
      </trkpt>
      <trkpt lat="43.2830440" lon="-2.7513180">
        <ele>301.8</ele>
        <time>2018-09-03T12:23:28Z</time>
      </trkpt>
      <trkpt lat="43.2830520" lon="-2.7513810">
        <ele>302.8</ele>
        <time>2018-09-03T12:23:32Z</time>
      </trkpt>
      <trkpt lat="43.2830530" lon="-2.7514500">
        <ele>303.8</ele>
        <time>2018-09-03T12:23:36Z</time>
      </trkpt>
      <trkpt lat="43.2830400" lon="-2.7515510">
        <ele>305.0</ele>
        <time>2018-09-03T12:23:42Z</time>
      </trkpt>
      <trkpt lat="43.2830400" lon="-2.7516960">
        <ele>305.4</ele>
        <time>2018-09-03T12:23:48Z</time>
      </trkpt>
      <trkpt lat="43.2830640" lon="-2.7518920">
        <ele>305.8</ele>
        <time>2018-09-03T12:23:55Z</time>
      </trkpt>
      <trkpt lat="43.2830780" lon="-2.7519990">
        <ele>305.8</ele>
        <time>2018-09-03T12:23:57Z</time>
      </trkpt>
      <trkpt lat="43.2830870" lon="-2.7520690">
        <ele>305.8</ele>
        <time>2018-09-03T12:23:58Z</time>
      </trkpt>
      <trkpt lat="43.2830940" lon="-2.7522420">
        <ele>305.6</ele>
        <time>2018-09-03T12:24:00Z</time>
      </trkpt>
      <trkpt lat="43.2830940" lon="-2.7524390">
        <ele>305.4</ele>
        <time>2018-09-03T12:24:02Z</time>
      </trkpt>
      <trkpt lat="43.2832240" lon="-2.7526830">
        <ele>303.4</ele>
        <time>2018-09-03T12:24:06Z</time>
      </trkpt>
      <trkpt lat="43.2833220" lon="-2.7526700">
        <ele>301.4</ele>
        <time>2018-09-03T12:24:08Z</time>
      </trkpt>
      <trkpt lat="43.2833670" lon="-2.7526520">
        <ele>300.2</ele>
        <time>2018-09-03T12:24:09Z</time>
      </trkpt>
      <trkpt lat="43.2834150" lon="-2.7526340">
        <ele>299.0</ele>
        <time>2018-09-03T12:24:10Z</time>
      </trkpt>
      <trkpt lat="43.2834680" lon="-2.7526190">
        <ele>298.2</ele>
        <time>2018-09-03T12:24:11Z</time>
      </trkpt>
      <trkpt lat="43.2835240" lon="-2.7526060">
        <ele>297.8</ele>
        <time>2018-09-03T12:24:12Z</time>
      </trkpt>
      <trkpt lat="43.2835850" lon="-2.7525930">
        <ele>297.6</ele>
        <time>2018-09-03T12:24:13Z</time>
      </trkpt>
      <trkpt lat="43.2836480" lon="-2.7525850">
        <ele>297.4</ele>
        <time>2018-09-03T12:24:14Z</time>
      </trkpt>
      <trkpt lat="43.2837810" lon="-2.7526000">
        <ele>297.2</ele>
        <time>2018-09-03T12:24:16Z</time>
      </trkpt>
      <trkpt lat="43.2839060" lon="-2.7526760">
        <ele>296.8</ele>
        <time>2018-09-03T12:24:18Z</time>
      </trkpt>
      <trkpt lat="43.2839530" lon="-2.7527410">
        <ele>296.6</ele>
        <time>2018-09-03T12:24:19Z</time>
      </trkpt>
      <trkpt lat="43.2840080" lon="-2.7529070">
        <ele>295.6</ele>
        <time>2018-09-03T12:24:21Z</time>
      </trkpt>
      <trkpt lat="43.2840230" lon="-2.7530890">
        <ele>294.6</ele>
        <time>2018-09-03T12:24:23Z</time>
      </trkpt>
      <trkpt lat="43.2840380" lon="-2.7531720">
        <ele>294.2</ele>
        <time>2018-09-03T12:24:24Z</time>
      </trkpt>
      <trkpt lat="43.2841770" lon="-2.7533480">
        <ele>293.4</ele>
        <time>2018-09-03T12:24:28Z</time>
      </trkpt>
      <trkpt lat="43.2842470" lon="-2.7533380">
        <ele>293.4</ele>
        <time>2018-09-03T12:24:30Z</time>
      </trkpt>
      <trkpt lat="43.2842760" lon="-2.7533300">
        <ele>293.4</ele>
        <time>2018-09-03T12:24:31Z</time>
      </trkpt>
      <trkpt lat="43.2843000" lon="-2.7533280">
        <ele>293.4</ele>
        <time>2018-09-03T12:24:32Z</time>
      </trkpt>
      <trkpt lat="43.2843200" lon="-2.7533290">
        <ele>293.4</ele>
        <time>2018-09-03T12:24:33Z</time>
      </trkpt>
      <trkpt lat="43.2843550" lon="-2.7533250">
        <ele>293.4</ele>
        <time>2018-09-03T12:24:35Z</time>
      </trkpt>
      <trkpt lat="43.2843870" lon="-2.7533240">
        <ele>293.6</ele>
        <time>2018-09-03T12:24:37Z</time>
      </trkpt>
      <trkpt lat="43.2844360" lon="-2.7533360">
        <ele>294.8</ele>
        <time>2018-09-03T12:24:40Z</time>
      </trkpt>
      <trkpt lat="43.2844700" lon="-2.7533480">
        <ele>295.6</ele>
        <time>2018-09-03T12:24:42Z</time>
      </trkpt>
      <trkpt lat="43.2845150" lon="-2.7533630">
        <ele>296.2</ele>
        <time>2018-09-03T12:24:45Z</time>
      </trkpt>
      <trkpt lat="43.2845440" lon="-2.7533760">
        <ele>296.6</ele>
        <time>2018-09-03T12:24:47Z</time>
      </trkpt>
      <trkpt lat="43.2846200" lon="-2.7534170">
        <ele>298.0</ele>
        <time>2018-09-03T12:24:52Z</time>
      </trkpt>
      <trkpt lat="43.2846560" lon="-2.7534380">
        <ele>298.4</ele>
        <time>2018-09-03T12:24:54Z</time>
      </trkpt>
      <trkpt lat="43.2847090" lon="-2.7535000">
        <ele>299.0</ele>
        <time>2018-09-03T12:24:58Z</time>
      </trkpt>
      <trkpt lat="43.2847450" lon="-2.7535960">
        <ele>300.2</ele>
        <time>2018-09-03T12:25:03Z</time>
      </trkpt>
      <trkpt lat="43.2847620" lon="-2.7537190">
        <ele>301.2</ele>
        <time>2018-09-03T12:25:09Z</time>
      </trkpt>
      <trkpt lat="43.2847640" lon="-2.7538400">
        <ele>302.2</ele>
        <time>2018-09-03T12:25:15Z</time>
      </trkpt>
      <trkpt lat="43.2847100" lon="-2.7539150">
        <ele>302.8</ele>
        <time>2018-09-03T12:25:23Z</time>
      </trkpt>
      <trkpt lat="43.2846720" lon="-2.7539050">
        <ele>303.0</ele>
        <time>2018-09-03T12:25:26Z</time>
      </trkpt>
      <trkpt lat="43.2846610" lon="-2.7539070">
        <ele>303.2</ele>
        <time>2018-09-03T12:25:27Z</time>
      </trkpt>
      <trkpt lat="43.2846040" lon="-2.7539210">
        <ele>304.0</ele>
        <time>2018-09-03T12:25:33Z</time>
      </trkpt>
      <trkpt lat="43.2846050" lon="-2.7539410">
        <ele>304.2</ele>
        <time>2018-09-03T12:25:36Z</time>
      </trkpt>
      <trkpt lat="43.2846210" lon="-2.7539460">
        <ele>304.4</ele>
        <time>2018-09-03T12:25:38Z</time>
      </trkpt>
      <trkpt lat="43.2846270" lon="-2.7539500">
        <ele>304.4</ele>
        <time>2018-09-03T12:25:40Z</time>
      </trkpt>
      <trkpt lat="43.2846690" lon="-2.7539180">
        <ele>304.4</ele>
        <time>2018-09-03T12:25:45Z</time>
      </trkpt>
      <trkpt lat="43.2847060" lon="-2.7538820">
        <ele>304.4</ele>
        <time>2018-09-03T12:25:47Z</time>
      </trkpt>
      <trkpt lat="43.2847390" lon="-2.7538620">
        <ele>304.4</ele>
        <time>2018-09-03T12:25:49Z</time>
      </trkpt>
      <trkpt lat="43.2847660" lon="-2.7538780">
        <ele>304.2</ele>
        <time>2018-09-03T12:25:51Z</time>
      </trkpt>
      <trkpt lat="43.2847790" lon="-2.7538830">
        <ele>304.2</ele>
        <time>2018-09-03T12:25:52Z</time>
      </trkpt>
      <trkpt lat="43.2847910" lon="-2.7538800">
        <ele>304.0</ele>
        <time>2018-09-03T12:25:53Z</time>
      </trkpt>
      <trkpt lat="43.2848010" lon="-2.7538540">
        <ele>303.8</ele>
        <time>2018-09-03T12:25:55Z</time>
      </trkpt>
      <trkpt lat="43.2848140" lon="-2.7538170">
        <ele>303.2</ele>
        <time>2018-09-03T12:25:58Z</time>
      </trkpt>
      <trkpt lat="43.2848320" lon="-2.7538190">
        <ele>303.2</ele>
        <time>2018-09-03T12:26:00Z</time>
      </trkpt>
      <trkpt lat="43.2848190" lon="-2.7538520">
        <ele>302.8</ele>
        <time>2018-09-03T12:26:03Z</time>
      </trkpt>
      <trkpt lat="43.2847910" lon="-2.7538580">
        <ele>302.8</ele>
        <time>2018-09-03T12:26:05Z</time>
      </trkpt>
      <trkpt lat="43.2847630" lon="-2.7538710">
        <ele>302.8</ele>
        <time>2018-09-03T12:26:07Z</time>
      </trkpt>
      <trkpt lat="43.2847490" lon="-2.7538600">
        <ele>302.8</ele>
        <time>2018-09-03T12:26:12Z</time>
      </trkpt>
      <trkpt lat="43.2847700" lon="-2.7538590">
        <ele>302.8</ele>
        <time>2018-09-03T12:26:14Z</time>
      </trkpt>
      <trkpt lat="43.2848050" lon="-2.7538500">
        <ele>302.8</ele>
        <time>2018-09-03T12:26:17Z</time>
      </trkpt>
      <trkpt lat="43.2848060" lon="-2.7538390">
        <ele>302.8</ele>
        <time>2018-09-03T12:26:23Z</time>
      </trkpt>
      <trkpt lat="43.2848060" lon="-2.7538380">
        <ele>302.8</ele>
        <time>2018-09-03T12:26:26Z</time>
      </trkpt>
      <trkpt lat="43.2848080" lon="-2.7538310">
        <ele>302.8</ele>
        <time>2018-09-03T12:26:33Z</time>
      </trkpt>
      <trkpt lat="43.2848080" lon="-2.7538200">
        <ele>302.8</ele>
        <time>2018-09-03T12:26:34Z</time>
      </trkpt>
      <trkpt lat="43.2847930" lon="-2.7538040">
        <ele>302.8</ele>
        <time>2018-09-03T12:26:36Z</time>
      </trkpt>
      <trkpt lat="43.2847720" lon="-2.7538160">
        <ele>302.8</ele>
        <time>2018-09-03T12:26:38Z</time>
      </trkpt>
      <trkpt lat="43.2847490" lon="-2.7538290">
        <ele>302.8</ele>
        <time>2018-09-03T12:26:40Z</time>
      </trkpt>
      <trkpt lat="43.2847240" lon="-2.7538490">
        <ele>302.8</ele>
        <time>2018-09-03T12:26:42Z</time>
      </trkpt>
      <trkpt lat="43.2846920" lon="-2.7538860">
        <ele>302.8</ele>
        <time>2018-09-03T12:26:45Z</time>
      </trkpt>
      <trkpt lat="43.2846400" lon="-2.7539100">
        <ele>303.0</ele>
        <time>2018-09-03T12:26:50Z</time>
      </trkpt>
      <trkpt lat="43.2845930" lon="-2.7539230">
        <ele>303.2</ele>
        <time>2018-09-03T12:26:53Z</time>
      </trkpt>
      <trkpt lat="43.2845590" lon="-2.7539390">
        <ele>303.6</ele>
        <time>2018-09-03T12:26:56Z</time>
      </trkpt>
      <trkpt lat="43.2845210" lon="-2.7539580">
        <ele>303.8</ele>
        <time>2018-09-03T12:26:59Z</time>
      </trkpt>
      <trkpt lat="43.2844920" lon="-2.7539740">
        <ele>304.0</ele>
        <time>2018-09-03T12:27:01Z</time>
      </trkpt>
      <trkpt lat="43.2844770" lon="-2.7539850">
        <ele>304.2</ele>
        <time>2018-09-03T12:27:02Z</time>
      </trkpt>
      <trkpt lat="43.2844320" lon="-2.7540160">
        <ele>304.6</ele>
        <time>2018-09-03T12:27:05Z</time>
      </trkpt>
      <trkpt lat="43.2844000" lon="-2.7540250">
        <ele>305.0</ele>
        <time>2018-09-03T12:27:08Z</time>
      </trkpt>
      <trkpt lat="43.2843920" lon="-2.7540290">
        <ele>305.2</ele>
        <time>2018-09-03T12:27:09Z</time>
      </trkpt>
      <trkpt lat="43.2843580" lon="-2.7540580">
        <ele>306.2</ele>
        <time>2018-09-03T12:27:13Z</time>
      </trkpt>
      <trkpt lat="43.2843470" lon="-2.7540670">
        <ele>306.4</ele>
        <time>2018-09-03T12:27:14Z</time>
      </trkpt>
      <trkpt lat="43.2842880" lon="-2.7541560">
        <ele>307.4</ele>
        <time>2018-09-03T12:27:20Z</time>
      </trkpt>
      <trkpt lat="43.2842230" lon="-2.7542540">
        <ele>308.4</ele>
        <time>2018-09-03T12:27:25Z</time>
      </trkpt>
      <trkpt lat="43.2842090" lon="-2.7542730">
        <ele>308.6</ele>
        <time>2018-09-03T12:27:26Z</time>
      </trkpt>
      <trkpt lat="43.2841840" lon="-2.7543230">
        <ele>309.2</ele>
        <time>2018-09-03T12:27:30Z</time>
      </trkpt>
      <trkpt lat="43.2841680" lon="-2.7543580">
        <ele>309.6</ele>
        <time>2018-09-03T12:27:32Z</time>
      </trkpt>
      <trkpt lat="43.2840960" lon="-2.7545120">
        <ele>310.8</ele>
        <time>2018-09-03T12:27:39Z</time>
      </trkpt>
      <trkpt lat="43.2840120" lon="-2.7546410">
        <ele>311.8</ele>
        <time>2018-09-03T12:27:45Z</time>
      </trkpt>
      <trkpt lat="43.2839340" lon="-2.7547420">
        <ele>313.0</ele>
        <time>2018-09-03T12:27:52Z</time>
      </trkpt>
      <trkpt lat="43.2838860" lon="-2.7548110">
        <ele>314.0</ele>
        <time>2018-09-03T12:27:58Z</time>
      </trkpt>
      <trkpt lat="43.2838170" lon="-2.7549050">
        <ele>315.0</ele>
        <time>2018-09-03T12:28:03Z</time>
      </trkpt>
      <trkpt lat="43.2837820" lon="-2.7549790">
        <ele>316.2</ele>
        <time>2018-09-03T12:28:08Z</time>
      </trkpt>
      <trkpt lat="43.2837690" lon="-2.7550600">
        <ele>317.4</ele>
        <time>2018-09-03T12:28:14Z</time>
      </trkpt>
      <trkpt lat="43.2837690" lon="-2.7551060">
        <ele>317.8</ele>
        <time>2018-09-03T12:28:17Z</time>
      </trkpt>
      <trkpt lat="43.2837570" lon="-2.7551820">
        <ele>318.4</ele>
        <time>2018-09-03T12:28:20Z</time>
      </trkpt>
      <trkpt lat="43.2837550" lon="-2.7553150">
        <ele>319.0</ele>
        <time>2018-09-03T12:28:25Z</time>
      </trkpt>
      <trkpt lat="43.2837580" lon="-2.7554960">
        <ele>319.4</ele>
        <time>2018-09-03T12:28:31Z</time>
      </trkpt>
      <trkpt lat="43.2837390" lon="-2.7557990">
        <ele>320.4</ele>
        <time>2018-09-03T12:28:43Z</time>
      </trkpt>
      <trkpt lat="43.2837180" lon="-2.7559550">
        <ele>321.6</ele>
        <time>2018-09-03T12:28:49Z</time>
      </trkpt>
      <trkpt lat="43.2837160" lon="-2.7560530">
        <ele>322.6</ele>
        <time>2018-09-03T12:28:54Z</time>
      </trkpt>
      <trkpt lat="43.2836980" lon="-2.7561470">
        <ele>323.8</ele>
        <time>2018-09-03T12:28:59Z</time>
      </trkpt>
      <trkpt lat="43.2836760" lon="-2.7562260">
        <ele>324.8</ele>
        <time>2018-09-03T12:29:03Z</time>
      </trkpt>
      <trkpt lat="43.2836550" lon="-2.7563210">
        <ele>326.0</ele>
        <time>2018-09-03T12:29:08Z</time>
      </trkpt>
      <trkpt lat="43.2836030" lon="-2.7564280">
        <ele>326.8</ele>
        <time>2018-09-03T12:29:13Z</time>
      </trkpt>
      <trkpt lat="43.2835710" lon="-2.7565340">
        <ele>327.8</ele>
        <time>2018-09-03T12:29:19Z</time>
      </trkpt>
      <trkpt lat="43.2835680" lon="-2.7565520">
        <ele>327.8</ele>
        <time>2018-09-03T12:29:20Z</time>
      </trkpt>
      <trkpt lat="43.2835590" lon="-2.7567980">
        <ele>329.0</ele>
        <time>2018-09-03T12:29:29Z</time>
      </trkpt>
      <trkpt lat="43.2835560" lon="-2.7569590">
        <ele>330.0</ele>
        <time>2018-09-03T12:29:35Z</time>
      </trkpt>
      <trkpt lat="43.2835410" lon="-2.7571110">
        <ele>331.2</ele>
        <time>2018-09-03T12:29:41Z</time>
      </trkpt>
      <trkpt lat="43.2835120" lon="-2.7572510">
        <ele>332.4</ele>
        <time>2018-09-03T12:29:47Z</time>
      </trkpt>
      <trkpt lat="43.2834810" lon="-2.7573440">
        <ele>333.4</ele>
        <time>2018-09-03T12:29:51Z</time>
      </trkpt>
      <trkpt lat="43.2834650" lon="-2.7574050">
        <ele>333.8</ele>
        <time>2018-09-03T12:29:54Z</time>
      </trkpt>
      <trkpt lat="43.2834610" lon="-2.7574220">
        <ele>334.0</ele>
        <time>2018-09-03T12:29:55Z</time>
      </trkpt>
      <trkpt lat="43.2834420" lon="-2.7574430">
        <ele>334.0</ele>
        <time>2018-09-03T12:29:57Z</time>
      </trkpt>
      <trkpt lat="43.2834180" lon="-2.7574420">
        <ele>334.2</ele>
        <time>2018-09-03T12:29:59Z</time>
      </trkpt>
      <trkpt lat="43.2834080" lon="-2.7574190">
        <ele>334.2</ele>
        <time>2018-09-03T12:30:01Z</time>
      </trkpt>
      <trkpt lat="43.2834150" lon="-2.7573980">
        <ele>334.2</ele>
        <time>2018-09-03T12:30:03Z</time>
      </trkpt>
      <trkpt lat="43.2834250" lon="-2.7574000">
        <ele>334.2</ele>
        <time>2018-09-03T12:30:04Z</time>
      </trkpt>
      <trkpt lat="43.2834420" lon="-2.7574620">
        <ele>334.2</ele>
        <time>2018-09-03T12:30:10Z</time>
      </trkpt>
      <trkpt lat="43.2834430" lon="-2.7574620">
        <ele>334.0</ele>
        <time>2018-09-03T12:30:13Z</time>
      </trkpt>
      <trkpt lat="43.2834440" lon="-2.7574620">
        <ele>334.0</ele>
        <time>2018-09-03T12:30:16Z</time>
      </trkpt>
      <trkpt lat="43.2834440" lon="-2.7574620">
        <ele>334.0</ele>
        <time>2018-09-03T12:30:17Z</time>
      </trkpt>
      <trkpt lat="43.2834440" lon="-2.7574620">
        <ele>334.0</ele>
        <time>2018-09-03T12:30:21Z</time>
      </trkpt>
      <trkpt lat="43.2834440" lon="-2.7574620">
        <ele>334.2</ele>
        <time>2018-09-03T12:30:22Z</time>
      </trkpt>
      <trkpt lat="43.2834440" lon="-2.7574620">
        <ele>334.2</ele>
        <time>2018-09-03T12:30:23Z</time>
      </trkpt>
      <trkpt lat="43.2834440" lon="-2.7574630">
        <ele>334.0</ele>
        <time>2018-09-03T12:30:37Z</time>
      </trkpt>
      <trkpt lat="43.2834440" lon="-2.7574620">
        <ele>334.0</ele>
        <time>2018-09-03T12:30:40Z</time>
      </trkpt>
      <trkpt lat="43.2834440" lon="-2.7574620">
        <ele>334.0</ele>
        <time>2018-09-03T12:30:44Z</time>
      </trkpt>
      <trkpt lat="43.2834440" lon="-2.7574620">
        <ele>333.8</ele>
        <time>2018-09-03T12:30:48Z</time>
      </trkpt>
      <trkpt lat="43.2834440" lon="-2.7574620">
        <ele>333.8</ele>
        <time>2018-09-03T12:30:54Z</time>
      </trkpt>
      <trkpt lat="43.2834440" lon="-2.7574620">
        <ele>333.8</ele>
        <time>2018-09-03T12:30:58Z</time>
      </trkpt>
      <trkpt lat="43.2834440" lon="-2.7574620">
        <ele>333.8</ele>
        <time>2018-09-03T12:31:06Z</time>
      </trkpt>
      <trkpt lat="43.2834440" lon="-2.7574620">
        <ele>333.8</ele>
        <time>2018-09-03T12:31:12Z</time>
      </trkpt>
      <trkpt lat="43.2834440" lon="-2.7574610">
        <ele>333.6</ele>
        <time>2018-09-03T12:31:33Z</time>
      </trkpt>
      <trkpt lat="43.2834440" lon="-2.7574600">
        <ele>333.4</ele>
        <time>2018-09-03T12:31:37Z</time>
      </trkpt>
      <trkpt lat="43.2834440" lon="-2.7574680">
        <ele>333.4</ele>
        <time>2018-09-03T12:31:40Z</time>
      </trkpt>
      <trkpt lat="43.2834360" lon="-2.7574790">
        <ele>333.6</ele>
        <time>2018-09-03T12:31:42Z</time>
      </trkpt>
      <trkpt lat="43.2834380" lon="-2.7574790">
        <ele>333.4</ele>
        <time>2018-09-03T12:31:44Z</time>
      </trkpt>
      <trkpt lat="43.2834370" lon="-2.7574820">
        <ele>333.6</ele>
        <time>2018-09-03T12:31:58Z</time>
      </trkpt>
      <trkpt lat="43.2834370" lon="-2.7574840">
        <ele>333.6</ele>
        <time>2018-09-03T12:32:10Z</time>
      </trkpt>
      <trkpt lat="43.2834370" lon="-2.7574830">
        <ele>333.6</ele>
        <time>2018-09-03T12:32:15Z</time>
      </trkpt>
      <trkpt lat="43.2834370" lon="-2.7574830">
        <ele>333.6</ele>
        <time>2018-09-03T12:32:16Z</time>
      </trkpt>
      <trkpt lat="43.2834370" lon="-2.7574840">
        <ele>333.6</ele>
        <time>2018-09-03T12:32:27Z</time>
      </trkpt>
      <trkpt lat="43.2834370" lon="-2.7574830">
        <ele>333.4</ele>
        <time>2018-09-03T12:32:42Z</time>
      </trkpt>
      <trkpt lat="43.2834370" lon="-2.7574830">
        <ele>333.4</ele>
        <time>2018-09-03T12:32:54Z</time>
      </trkpt>
      <trkpt lat="43.2834370" lon="-2.7574830">
        <ele>333.2</ele>
        <time>2018-09-03T12:33:05Z</time>
      </trkpt>
      <trkpt lat="43.2834370" lon="-2.7574830">
        <ele>333.2</ele>
        <time>2018-09-03T12:33:11Z</time>
      </trkpt>
      <trkpt lat="43.2834370" lon="-2.7574830">
        <ele>333.2</ele>
        <time>2018-09-03T12:33:20Z</time>
      </trkpt>
      <trkpt lat="43.2834370" lon="-2.7574830">
        <ele>333.2</ele>
        <time>2018-09-03T12:33:23Z</time>
      </trkpt>
      <trkpt lat="43.2834370" lon="-2.7574820">
        <ele>333.2</ele>
        <time>2018-09-03T12:33:32Z</time>
      </trkpt>
      <trkpt lat="43.2834370" lon="-2.7574820">
        <ele>333.2</ele>
        <time>2018-09-03T12:33:35Z</time>
      </trkpt>
      <trkpt lat="43.2834370" lon="-2.7574820">
        <ele>333.2</ele>
        <time>2018-09-03T12:33:42Z</time>
      </trkpt>
      <trkpt lat="43.2834370" lon="-2.7574820">
        <ele>333.2</ele>
        <time>2018-09-03T12:33:44Z</time>
      </trkpt>
      <trkpt lat="43.2834370" lon="-2.7574830">
        <ele>333.0</ele>
        <time>2018-09-03T12:34:15Z</time>
      </trkpt>
      <trkpt lat="43.2834320" lon="-2.7574990">
        <ele>333.2</ele>
        <time>2018-09-03T12:34:44Z</time>
      </trkpt>
      <trkpt lat="43.2833940" lon="-2.7575380">
        <ele>333.2</ele>
        <time>2018-09-03T12:34:47Z</time>
      </trkpt>
      <trkpt lat="43.2833300" lon="-2.7575560">
        <ele>333.0</ele>
        <time>2018-09-03T12:34:50Z</time>
      </trkpt>
      <trkpt lat="43.2832480" lon="-2.7575510">
        <ele>332.8</ele>
        <time>2018-09-03T12:34:53Z</time>
      </trkpt>
      <trkpt lat="43.2831840" lon="-2.7575440">
        <ele>332.8</ele>
        <time>2018-09-03T12:34:55Z</time>
      </trkpt>
      <trkpt lat="43.2831080" lon="-2.7575320">
        <ele>332.6</ele>
        <time>2018-09-03T12:34:57Z</time>
      </trkpt>
      <trkpt lat="43.2829110" lon="-2.7575120">
        <ele>332.4</ele>
        <time>2018-09-03T12:35:01Z</time>
      </trkpt>
      <trkpt lat="43.2827270" lon="-2.7574860">
        <ele>332.0</ele>
        <time>2018-09-03T12:35:04Z</time>
      </trkpt>
      <trkpt lat="43.2825990" lon="-2.7574720">
        <ele>331.6</ele>
        <time>2018-09-03T12:35:06Z</time>
      </trkpt>
      <trkpt lat="43.2825360" lon="-2.7574620">
        <ele>331.2</ele>
        <time>2018-09-03T12:35:07Z</time>
      </trkpt>
      <trkpt lat="43.2824160" lon="-2.7574400">
        <ele>330.2</ele>
        <time>2018-09-03T12:35:09Z</time>
      </trkpt>
      <trkpt lat="43.2823040" lon="-2.7574250">
        <ele>329.0</ele>
        <time>2018-09-03T12:35:11Z</time>
      </trkpt>
      <trkpt lat="43.2822020" lon="-2.7574120">
        <ele>328.0</ele>
        <time>2018-09-03T12:35:13Z</time>
      </trkpt>
      <trkpt lat="43.2819740" lon="-2.7573540">
        <ele>326.8</ele>
        <time>2018-09-03T12:35:17Z</time>
      </trkpt>
      <trkpt lat="43.2817860" lon="-2.7572470">
        <ele>325.8</ele>
        <time>2018-09-03T12:35:20Z</time>
      </trkpt>
      <trkpt lat="43.2817260" lon="-2.7571900">
        <ele>325.6</ele>
        <time>2018-09-03T12:35:21Z</time>
      </trkpt>
      <trkpt lat="43.2816070" lon="-2.7570530">
        <ele>325.2</ele>
        <time>2018-09-03T12:35:23Z</time>
      </trkpt>
      <trkpt lat="43.2815500" lon="-2.7569710">
        <ele>324.8</ele>
        <time>2018-09-03T12:35:24Z</time>
      </trkpt>
      <trkpt lat="43.2814940" lon="-2.7568830">
        <ele>324.2</ele>
        <time>2018-09-03T12:35:25Z</time>
      </trkpt>
      <trkpt lat="43.2813820" lon="-2.7566910">
        <ele>323.0</ele>
        <time>2018-09-03T12:35:27Z</time>
      </trkpt>
      <trkpt lat="43.2812700" lon="-2.7564790">
        <ele>321.8</ele>
        <time>2018-09-03T12:35:29Z</time>
      </trkpt>
      <trkpt lat="43.2812050" lon="-2.7563760">
        <ele>321.2</ele>
        <time>2018-09-03T12:35:30Z</time>
      </trkpt>
      <trkpt lat="43.2811310" lon="-2.7562850">
        <ele>320.6</ele>
        <time>2018-09-03T12:35:31Z</time>
      </trkpt>
      <trkpt lat="43.2809450" lon="-2.7561900">
        <ele>319.4</ele>
        <time>2018-09-03T12:35:33Z</time>
      </trkpt>
      <trkpt lat="43.2806410" lon="-2.7562690">
        <ele>318.0</ele>
        <time>2018-09-03T12:35:36Z</time>
      </trkpt>
      <trkpt lat="43.2805330" lon="-2.7562870">
        <ele>317.6</ele>
        <time>2018-09-03T12:35:37Z</time>
      </trkpt>
      <trkpt lat="43.2804260" lon="-2.7562680">
        <ele>316.6</ele>
        <time>2018-09-03T12:35:38Z</time>
      </trkpt>
      <trkpt lat="43.2803220" lon="-2.7562240">
        <ele>315.4</ele>
        <time>2018-09-03T12:35:39Z</time>
      </trkpt>
      <trkpt lat="43.2802240" lon="-2.7561710">
        <ele>314.2</ele>
        <time>2018-09-03T12:35:40Z</time>
      </trkpt>
      <trkpt lat="43.2801300" lon="-2.7561280">
        <ele>313.0</ele>
        <time>2018-09-03T12:35:41Z</time>
      </trkpt>
      <trkpt lat="43.2800380" lon="-2.7561270">
        <ele>311.6</ele>
        <time>2018-09-03T12:35:42Z</time>
      </trkpt>
      <trkpt lat="43.2799570" lon="-2.7561700">
        <ele>310.6</ele>
        <time>2018-09-03T12:35:43Z</time>
      </trkpt>
      <trkpt lat="43.2799030" lon="-2.7562530">
        <ele>309.4</ele>
        <time>2018-09-03T12:35:44Z</time>
      </trkpt>
      <trkpt lat="43.2799230" lon="-2.7564570">
        <ele>307.4</ele>
        <time>2018-09-03T12:35:46Z</time>
      </trkpt>
      <trkpt lat="43.2800720" lon="-2.7565640">
        <ele>305.8</ele>
        <time>2018-09-03T12:35:48Z</time>
      </trkpt>
      <trkpt lat="43.2802520" lon="-2.7565890">
        <ele>304.0</ele>
        <time>2018-09-03T12:35:50Z</time>
      </trkpt>
      <trkpt lat="43.2804440" lon="-2.7566000">
        <ele>302.4</ele>
        <time>2018-09-03T12:35:52Z</time>
      </trkpt>
      <trkpt lat="43.2805430" lon="-2.7566160">
        <ele>301.6</ele>
        <time>2018-09-03T12:35:53Z</time>
      </trkpt>
      <trkpt lat="43.2806410" lon="-2.7566530">
        <ele>300.4</ele>
        <time>2018-09-03T12:35:54Z</time>
      </trkpt>
      <trkpt lat="43.2808150" lon="-2.7568080">
        <ele>299.2</ele>
        <time>2018-09-03T12:35:56Z</time>
      </trkpt>
      <trkpt lat="43.2809620" lon="-2.7572070">
        <ele>297.8</ele>
        <time>2018-09-03T12:35:59Z</time>
      </trkpt>
      <trkpt lat="43.2809990" lon="-2.7575160">
        <ele>296.6</ele>
        <time>2018-09-03T12:36:01Z</time>
      </trkpt>
      <trkpt lat="43.2810280" lon="-2.7578290">
        <ele>294.8</ele>
        <time>2018-09-03T12:36:03Z</time>
      </trkpt>
      <trkpt lat="43.2810470" lon="-2.7579860">
        <ele>293.2</ele>
        <time>2018-09-03T12:36:04Z</time>
      </trkpt>
      <trkpt lat="43.2810830" lon="-2.7581400">
        <ele>291.8</ele>
        <time>2018-09-03T12:36:05Z</time>
      </trkpt>
      <trkpt lat="43.2811380" lon="-2.7582800">
        <ele>290.6</ele>
        <time>2018-09-03T12:36:06Z</time>
      </trkpt>
      <trkpt lat="43.2812110" lon="-2.7584030">
        <ele>289.2</ele>
        <time>2018-09-03T12:36:07Z</time>
      </trkpt>
      <trkpt lat="43.2812990" lon="-2.7585080">
        <ele>287.8</ele>
        <time>2018-09-03T12:36:08Z</time>
      </trkpt>
      <trkpt lat="43.2815090" lon="-2.7586610">
        <ele>285.8</ele>
        <time>2018-09-03T12:36:10Z</time>
      </trkpt>
      <trkpt lat="43.2816240" lon="-2.7587150">
        <ele>284.8</ele>
        <time>2018-09-03T12:36:11Z</time>
      </trkpt>
      <trkpt lat="43.2817440" lon="-2.7587630">
        <ele>284.0</ele>
        <time>2018-09-03T12:36:12Z</time>
      </trkpt>
      <trkpt lat="43.2818630" lon="-2.7588170">
        <ele>283.2</ele>
        <time>2018-09-03T12:36:13Z</time>
      </trkpt>
      <trkpt lat="43.2819740" lon="-2.7588930">
        <ele>282.0</ele>
        <time>2018-09-03T12:36:14Z</time>
      </trkpt>
      <trkpt lat="43.2820670" lon="-2.7589990">
        <ele>280.6</ele>
        <time>2018-09-03T12:36:15Z</time>
      </trkpt>
      <trkpt lat="43.2821640" lon="-2.7593040">
        <ele>279.4</ele>
        <time>2018-09-03T12:36:17Z</time>
      </trkpt>
      <trkpt lat="43.2821540" lon="-2.7596340">
        <ele>278.6</ele>
        <time>2018-09-03T12:36:19Z</time>
      </trkpt>
      <trkpt lat="43.2821400" lon="-2.7598010">
        <ele>277.6</ele>
        <time>2018-09-03T12:36:20Z</time>
      </trkpt>
      <trkpt lat="43.2821360" lon="-2.7599700">
        <ele>276.8</ele>
        <time>2018-09-03T12:36:21Z</time>
      </trkpt>
      <trkpt lat="43.2821510" lon="-2.7601370">
        <ele>276.0</ele>
        <time>2018-09-03T12:36:22Z</time>
      </trkpt>
      <trkpt lat="43.2821930" lon="-2.7602950">
        <ele>273.6</ele>
        <time>2018-09-03T12:36:23Z</time>
      </trkpt>
      <trkpt lat="43.2822590" lon="-2.7604390">
        <ele>272.4</ele>
        <time>2018-09-03T12:36:24Z</time>
      </trkpt>
      <trkpt lat="43.2823450" lon="-2.7605580">
        <ele>271.2</ele>
        <time>2018-09-03T12:36:25Z</time>
      </trkpt>
      <trkpt lat="43.2824330" lon="-2.7606720">
        <ele>270.0</ele>
        <time>2018-09-03T12:36:26Z</time>
      </trkpt>
      <trkpt lat="43.2825000" lon="-2.7608080">
        <ele>268.8</ele>
        <time>2018-09-03T12:36:27Z</time>
      </trkpt>
      <trkpt lat="43.2825380" lon="-2.7609630">
        <ele>267.8</ele>
        <time>2018-09-03T12:36:28Z</time>
      </trkpt>
      <trkpt lat="43.2825320" lon="-2.7611240">
        <ele>266.6</ele>
        <time>2018-09-03T12:36:29Z</time>
      </trkpt>
      <trkpt lat="43.2824280" lon="-2.7614330">
        <ele>265.0</ele>
        <time>2018-09-03T12:36:31Z</time>
      </trkpt>
      <trkpt lat="43.2822700" lon="-2.7617050">
        <ele>264.0</ele>
        <time>2018-09-03T12:36:33Z</time>
      </trkpt>
      <trkpt lat="43.2821880" lon="-2.7618370">
        <ele>263.4</ele>
        <time>2018-09-03T12:36:34Z</time>
      </trkpt>
      <trkpt lat="43.2820260" lon="-2.7621050">
        <ele>261.8</ele>
        <time>2018-09-03T12:36:36Z</time>
      </trkpt>
      <trkpt lat="43.2819450" lon="-2.7622410">
        <ele>260.6</ele>
        <time>2018-09-03T12:36:37Z</time>
      </trkpt>
      <trkpt lat="43.2818630" lon="-2.7623760">
        <ele>259.6</ele>
        <time>2018-09-03T12:36:38Z</time>
      </trkpt>
      <trkpt lat="43.2817810" lon="-2.7625110">
        <ele>258.4</ele>
        <time>2018-09-03T12:36:39Z</time>
      </trkpt>
      <trkpt lat="43.2817000" lon="-2.7626460">
        <ele>257.2</ele>
        <time>2018-09-03T12:36:40Z</time>
      </trkpt>
      <trkpt lat="43.2816200" lon="-2.7627810">
        <ele>256.2</ele>
        <time>2018-09-03T12:36:41Z</time>
      </trkpt>
      <trkpt lat="43.2814580" lon="-2.7630470">
        <ele>254.6</ele>
        <time>2018-09-03T12:36:43Z</time>
      </trkpt>
      <trkpt lat="43.2813010" lon="-2.7633110">
        <ele>252.8</ele>
        <time>2018-09-03T12:36:45Z</time>
      </trkpt>
      <trkpt lat="43.2812260" lon="-2.7634460">
        <ele>251.8</ele>
        <time>2018-09-03T12:36:46Z</time>
      </trkpt>
      <trkpt lat="43.2811550" lon="-2.7635820">
        <ele>250.4</ele>
        <time>2018-09-03T12:36:47Z</time>
      </trkpt>
      <trkpt lat="43.2810900" lon="-2.7637250">
        <ele>249.2</ele>
        <time>2018-09-03T12:36:48Z</time>
      </trkpt>
      <trkpt lat="43.2810370" lon="-2.7638750">
        <ele>248.0</ele>
        <time>2018-09-03T12:36:49Z</time>
      </trkpt>
      <trkpt lat="43.2809970" lon="-2.7640300">
        <ele>246.8</ele>
        <time>2018-09-03T12:36:50Z</time>
      </trkpt>
      <trkpt lat="43.2809730" lon="-2.7641990">
        <ele>245.6</ele>
        <time>2018-09-03T12:36:51Z</time>
      </trkpt>
      <trkpt lat="43.2809570" lon="-2.7643740">
        <ele>244.4</ele>
        <time>2018-09-03T12:36:52Z</time>
      </trkpt>
      <trkpt lat="43.2809530" lon="-2.7647280">
        <ele>243.2</ele>
        <time>2018-09-03T12:36:54Z</time>
      </trkpt>
      <trkpt lat="43.2809640" lon="-2.7649050">
        <ele>242.6</ele>
        <time>2018-09-03T12:36:55Z</time>
      </trkpt>
      <trkpt lat="43.2809790" lon="-2.7650840">
        <ele>242.0</ele>
        <time>2018-09-03T12:36:56Z</time>
      </trkpt>
      <trkpt lat="43.2809950" lon="-2.7652620">
        <ele>240.0</ele>
        <time>2018-09-03T12:36:57Z</time>
      </trkpt>
      <trkpt lat="43.2809980" lon="-2.7654410">
        <ele>239.2</ele>
        <time>2018-09-03T12:36:58Z</time>
      </trkpt>
      <trkpt lat="43.2809870" lon="-2.7656210">
        <ele>238.4</ele>
        <time>2018-09-03T12:36:59Z</time>
      </trkpt>
      <trkpt lat="43.2809610" lon="-2.7657990">
        <ele>237.4</ele>
        <time>2018-09-03T12:37:00Z</time>
      </trkpt>
      <trkpt lat="43.2808600" lon="-2.7661380">
        <ele>235.4</ele>
        <time>2018-09-03T12:37:02Z</time>
      </trkpt>
      <trkpt lat="43.2807930" lon="-2.7662950">
        <ele>234.6</ele>
        <time>2018-09-03T12:37:03Z</time>
      </trkpt>
      <trkpt lat="43.2807250" lon="-2.7664470">
        <ele>233.6</ele>
        <time>2018-09-03T12:37:04Z</time>
      </trkpt>
      <trkpt lat="43.2806600" lon="-2.7665980">
        <ele>232.4</ele>
        <time>2018-09-03T12:37:05Z</time>
      </trkpt>
      <trkpt lat="43.2805960" lon="-2.7667470">
        <ele>231.2</ele>
        <time>2018-09-03T12:37:06Z</time>
      </trkpt>
      <trkpt lat="43.2804660" lon="-2.7670400">
        <ele>229.2</ele>
        <time>2018-09-03T12:37:08Z</time>
      </trkpt>
      <trkpt lat="43.2804020" lon="-2.7671840">
        <ele>227.6</ele>
        <time>2018-09-03T12:37:09Z</time>
      </trkpt>
      <trkpt lat="43.2803380" lon="-2.7673300">
        <ele>226.2</ele>
        <time>2018-09-03T12:37:10Z</time>
      </trkpt>
      <trkpt lat="43.2802740" lon="-2.7674750">
        <ele>225.0</ele>
        <time>2018-09-03T12:37:11Z</time>
      </trkpt>
      <trkpt lat="43.2801450" lon="-2.7677570">
        <ele>223.4</ele>
        <time>2018-09-03T12:37:13Z</time>
      </trkpt>
      <trkpt lat="43.2800130" lon="-2.7680340">
        <ele>221.6</ele>
        <time>2018-09-03T12:37:15Z</time>
      </trkpt>
      <trkpt lat="43.2798860" lon="-2.7683150">
        <ele>220.0</ele>
        <time>2018-09-03T12:37:17Z</time>
      </trkpt>
      <trkpt lat="43.2797650" lon="-2.7686020">
        <ele>218.8</ele>
        <time>2018-09-03T12:37:19Z</time>
      </trkpt>
      <trkpt lat="43.2796530" lon="-2.7689000">
        <ele>217.8</ele>
        <time>2018-09-03T12:37:21Z</time>
      </trkpt>
      <trkpt lat="43.2795690" lon="-2.7692180">
        <ele>216.4</ele>
        <time>2018-09-03T12:37:23Z</time>
      </trkpt>
      <trkpt lat="43.2795450" lon="-2.7693820">
        <ele>215.4</ele>
        <time>2018-09-03T12:37:24Z</time>
      </trkpt>
      <trkpt lat="43.2795330" lon="-2.7695470">
        <ele>214.0</ele>
        <time>2018-09-03T12:37:25Z</time>
      </trkpt>
      <trkpt lat="43.2795300" lon="-2.7697080">
        <ele>212.8</ele>
        <time>2018-09-03T12:37:26Z</time>
      </trkpt>
      <trkpt lat="43.2795340" lon="-2.7698680">
        <ele>212.0</ele>
        <time>2018-09-03T12:37:27Z</time>
      </trkpt>
      <trkpt lat="43.2795380" lon="-2.7700260">
        <ele>211.4</ele>
        <time>2018-09-03T12:37:28Z</time>
      </trkpt>
      <trkpt lat="43.2795470" lon="-2.7703400">
        <ele>209.2</ele>
        <time>2018-09-03T12:37:30Z</time>
      </trkpt>
      <trkpt lat="43.2795510" lon="-2.7704940">
        <ele>208.0</ele>
        <time>2018-09-03T12:37:31Z</time>
      </trkpt>
      <trkpt lat="43.2795540" lon="-2.7706480">
        <ele>206.0</ele>
        <time>2018-09-03T12:37:32Z</time>
      </trkpt>
      <trkpt lat="43.2795470" lon="-2.7709580">
        <ele>204.0</ele>
        <time>2018-09-03T12:37:34Z</time>
      </trkpt>
      <trkpt lat="43.2795360" lon="-2.7711130">
        <ele>202.8</ele>
        <time>2018-09-03T12:37:35Z</time>
      </trkpt>
      <trkpt lat="43.2795070" lon="-2.7714180">
        <ele>201.6</ele>
        <time>2018-09-03T12:37:37Z</time>
      </trkpt>
      <trkpt lat="43.2794890" lon="-2.7715700">
        <ele>201.0</ele>
        <time>2018-09-03T12:37:38Z</time>
      </trkpt>
      <trkpt lat="43.2794490" lon="-2.7718830">
        <ele>200.0</ele>
        <time>2018-09-03T12:37:40Z</time>
      </trkpt>
      <trkpt lat="43.2794100" lon="-2.7722120">
        <ele>198.0</ele>
        <time>2018-09-03T12:37:42Z</time>
      </trkpt>
      <trkpt lat="43.2793670" lon="-2.7725500">
        <ele>196.8</ele>
        <time>2018-09-03T12:37:44Z</time>
      </trkpt>
      <trkpt lat="43.2792920" lon="-2.7730510">
        <ele>195.6</ele>
        <time>2018-09-03T12:37:47Z</time>
      </trkpt>
      <trkpt lat="43.2791680" lon="-2.7735020">
        <ele>194.4</ele>
        <time>2018-09-03T12:37:50Z</time>
      </trkpt>
      <trkpt lat="43.2791140" lon="-2.7736340">
        <ele>192.4</ele>
        <time>2018-09-03T12:37:51Z</time>
      </trkpt>
      <trkpt lat="43.2790540" lon="-2.7737540">
        <ele>191.0</ele>
        <time>2018-09-03T12:37:52Z</time>
      </trkpt>
      <trkpt lat="43.2789920" lon="-2.7738660">
        <ele>189.8</ele>
        <time>2018-09-03T12:37:53Z</time>
      </trkpt>
      <trkpt lat="43.2788550" lon="-2.7740610">
        <ele>188.8</ele>
        <time>2018-09-03T12:37:55Z</time>
      </trkpt>
      <trkpt lat="43.2787780" lon="-2.7741370">
        <ele>188.8</ele>
        <time>2018-09-03T12:37:56Z</time>
      </trkpt>
      <trkpt lat="43.2782360" lon="-2.7745360">
        <ele>188.8</ele>
        <time>2018-09-03T12:38:03Z</time>
      </trkpt>
      <trkpt lat="43.2781030" lon="-2.7746740">
        <ele>189.8</ele>
        <time>2018-09-03T12:38:05Z</time>
      </trkpt>
      <trkpt lat="43.2778550" lon="-2.7749480">
        <ele>190.2</ele>
        <time>2018-09-03T12:38:09Z</time>
      </trkpt>
      <trkpt lat="43.2777410" lon="-2.7750920">
        <ele>190.2</ele>
        <time>2018-09-03T12:38:11Z</time>
      </trkpt>
      <trkpt lat="43.2776300" lon="-2.7752260">
        <ele>190.2</ele>
        <time>2018-09-03T12:38:13Z</time>
      </trkpt>
      <trkpt lat="43.2774550" lon="-2.7753790">
        <ele>190.4</ele>
        <time>2018-09-03T12:38:16Z</time>
      </trkpt>
      <trkpt lat="43.2771960" lon="-2.7753980">
        <ele>190.2</ele>
        <time>2018-09-03T12:38:20Z</time>
      </trkpt>
      <trkpt lat="43.2771310" lon="-2.7753770">
        <ele>190.2</ele>
        <time>2018-09-03T12:38:21Z</time>
      </trkpt>
      <trkpt lat="43.2769980" lon="-2.7753340">
        <ele>190.2</ele>
        <time>2018-09-03T12:38:23Z</time>
      </trkpt>
      <trkpt lat="43.2768640" lon="-2.7752920">
        <ele>190.2</ele>
        <time>2018-09-03T12:38:25Z</time>
      </trkpt>
      <trkpt lat="43.2766590" lon="-2.7752480">
        <ele>190.2</ele>
        <time>2018-09-03T12:38:28Z</time>
      </trkpt>
      <trkpt lat="43.2764540" lon="-2.7752380">
        <ele>190.4</ele>
        <time>2018-09-03T12:38:31Z</time>
      </trkpt>
      <trkpt lat="43.2762000" lon="-2.7753310">
        <ele>190.4</ele>
        <time>2018-09-03T12:38:35Z</time>
      </trkpt>
      <trkpt lat="43.2760360" lon="-2.7754810">
        <ele>190.4</ele>
        <time>2018-09-03T12:38:38Z</time>
      </trkpt>
      <trkpt lat="43.2759860" lon="-2.7755420">
        <ele>190.4</ele>
        <time>2018-09-03T12:38:39Z</time>
      </trkpt>
      <trkpt lat="43.2758630" lon="-2.7757580">
        <ele>190.4</ele>
        <time>2018-09-03T12:38:42Z</time>
      </trkpt>
      <trkpt lat="43.2758050" lon="-2.7759190">
        <ele>190.4</ele>
        <time>2018-09-03T12:38:44Z</time>
      </trkpt>
      <trkpt lat="43.2755820" lon="-2.7767010">
        <ele>190.4</ele>
        <time>2018-09-03T12:38:52Z</time>
      </trkpt>
      <trkpt lat="43.2754450" lon="-2.7771960">
        <ele>188.8</ele>
        <time>2018-09-03T12:38:56Z</time>
      </trkpt>
      <trkpt lat="43.2753790" lon="-2.7774660">
        <ele>187.2</ele>
        <time>2018-09-03T12:38:58Z</time>
      </trkpt>
      <trkpt lat="43.2753490" lon="-2.7776060">
        <ele>186.4</ele>
        <time>2018-09-03T12:38:59Z</time>
      </trkpt>
      <trkpt lat="43.2753200" lon="-2.7777480">
        <ele>185.6</ele>
        <time>2018-09-03T12:39:00Z</time>
      </trkpt>
      <trkpt lat="43.2752680" lon="-2.7780420">
        <ele>183.8</ele>
        <time>2018-09-03T12:39:02Z</time>
      </trkpt>
      <trkpt lat="43.2752350" lon="-2.7783500">
        <ele>181.8</ele>
        <time>2018-09-03T12:39:04Z</time>
      </trkpt>
      <trkpt lat="43.2752330" lon="-2.7785100">
        <ele>180.8</ele>
        <time>2018-09-03T12:39:05Z</time>
      </trkpt>
      <trkpt lat="43.2752580" lon="-2.7786690">
        <ele>180.2</ele>
        <time>2018-09-03T12:39:06Z</time>
      </trkpt>
      <trkpt lat="43.2754980" lon="-2.7790160">
        <ele>178.6</ele>
        <time>2018-09-03T12:39:09Z</time>
      </trkpt>
      <trkpt lat="43.2757200" lon="-2.7791330">
        <ele>176.6</ele>
        <time>2018-09-03T12:39:11Z</time>
      </trkpt>
      <trkpt lat="43.2759160" lon="-2.7793110">
        <ele>175.0</ele>
        <time>2018-09-03T12:39:13Z</time>
      </trkpt>
      <trkpt lat="43.2759740" lon="-2.7794570">
        <ele>173.8</ele>
        <time>2018-09-03T12:39:14Z</time>
      </trkpt>
      <trkpt lat="43.2760020" lon="-2.7796100">
        <ele>171.4</ele>
        <time>2018-09-03T12:39:15Z</time>
      </trkpt>
      <trkpt lat="43.2759730" lon="-2.7799250">
        <ele>169.4</ele>
        <time>2018-09-03T12:39:17Z</time>
      </trkpt>
      <trkpt lat="43.2758940" lon="-2.7802300">
        <ele>168.2</ele>
        <time>2018-09-03T12:39:19Z</time>
      </trkpt>
      <trkpt lat="43.2758050" lon="-2.7805310">
        <ele>166.6</ele>
        <time>2018-09-03T12:39:21Z</time>
      </trkpt>
      <trkpt lat="43.2757010" lon="-2.7808200">
        <ele>165.2</ele>
        <time>2018-09-03T12:39:23Z</time>
      </trkpt>
      <trkpt lat="43.2755860" lon="-2.7811000">
        <ele>164.0</ele>
        <time>2018-09-03T12:39:25Z</time>
      </trkpt>
      <trkpt lat="43.2753840" lon="-2.7815020">
        <ele>162.4</ele>
        <time>2018-09-03T12:39:28Z</time>
      </trkpt>
      <trkpt lat="43.2751420" lon="-2.7818740">
        <ele>161.4</ele>
        <time>2018-09-03T12:39:31Z</time>
      </trkpt>
      <trkpt lat="43.2748660" lon="-2.7822210">
        <ele>160.0</ele>
        <time>2018-09-03T12:39:34Z</time>
      </trkpt>
      <trkpt lat="43.2745460" lon="-2.7825260">
        <ele>158.2</ele>
        <time>2018-09-03T12:39:37Z</time>
      </trkpt>
      <trkpt lat="43.2744290" lon="-2.7826180">
        <ele>156.4</ele>
        <time>2018-09-03T12:39:38Z</time>
      </trkpt>
      <trkpt lat="43.2743110" lon="-2.7827050">
        <ele>155.2</ele>
        <time>2018-09-03T12:39:39Z</time>
      </trkpt>
      <trkpt lat="43.2740640" lon="-2.7828660">
        <ele>153.6</ele>
        <time>2018-09-03T12:39:41Z</time>
      </trkpt>
      <trkpt lat="43.2738060" lon="-2.7830050">
        <ele>152.2</ele>
        <time>2018-09-03T12:39:43Z</time>
      </trkpt>
      <trkpt lat="43.2736770" lon="-2.7830720">
        <ele>151.0</ele>
        <time>2018-09-03T12:39:44Z</time>
      </trkpt>
      <trkpt lat="43.2735480" lon="-2.7831380">
        <ele>149.0</ele>
        <time>2018-09-03T12:39:45Z</time>
      </trkpt>
      <trkpt lat="43.2734160" lon="-2.7832090">
        <ele>147.2</ele>
        <time>2018-09-03T12:39:46Z</time>
      </trkpt>
      <trkpt lat="43.2732820" lon="-2.7832810">
        <ele>146.0</ele>
        <time>2018-09-03T12:39:47Z</time>
      </trkpt>
      <trkpt lat="43.2730090" lon="-2.7834310">
        <ele>144.0</ele>
        <time>2018-09-03T12:39:49Z</time>
      </trkpt>
      <trkpt lat="43.2728770" lon="-2.7834990">
        <ele>141.6</ele>
        <time>2018-09-03T12:39:50Z</time>
      </trkpt>
      <trkpt lat="43.2726260" lon="-2.7836320">
        <ele>140.4</ele>
        <time>2018-09-03T12:39:52Z</time>
      </trkpt>
      <trkpt lat="43.2721630" lon="-2.7839100">
        <ele>138.8</ele>
        <time>2018-09-03T12:39:56Z</time>
      </trkpt>
      <trkpt lat="43.2720480" lon="-2.7839810">
        <ele>136.8</ele>
        <time>2018-09-03T12:39:57Z</time>
      </trkpt>
      <trkpt lat="43.2719290" lon="-2.7840450">
        <ele>135.6</ele>
        <time>2018-09-03T12:39:58Z</time>
      </trkpt>
      <trkpt lat="43.2718050" lon="-2.7840860">
        <ele>135.0</ele>
        <time>2018-09-03T12:39:59Z</time>
      </trkpt>
      <trkpt lat="43.2715450" lon="-2.7840720">
        <ele>134.6</ele>
        <time>2018-09-03T12:40:01Z</time>
      </trkpt>
      <trkpt lat="43.2712100" lon="-2.7838120">
        <ele>133.4</ele>
        <time>2018-09-03T12:40:04Z</time>
      </trkpt>
      <trkpt lat="43.2711100" lon="-2.7837100">
        <ele>132.8</ele>
        <time>2018-09-03T12:40:05Z</time>
      </trkpt>
      <trkpt lat="43.2710120" lon="-2.7836050">
        <ele>131.8</ele>
        <time>2018-09-03T12:40:06Z</time>
      </trkpt>
      <trkpt lat="43.2707190" lon="-2.7832980">
        <ele>130.6</ele>
        <time>2018-09-03T12:40:09Z</time>
      </trkpt>
      <trkpt lat="43.2706140" lon="-2.7832140">
        <ele>130.4</ele>
        <time>2018-09-03T12:40:10Z</time>
      </trkpt>
      <trkpt lat="43.2701390" lon="-2.7830620">
        <ele>129.8</ele>
        <time>2018-09-03T12:40:14Z</time>
      </trkpt>
      <trkpt lat="43.2698920" lon="-2.7830240">
        <ele>128.0</ele>
        <time>2018-09-03T12:40:16Z</time>
      </trkpt>
      <trkpt lat="43.2697680" lon="-2.7830010">
        <ele>126.2</ele>
        <time>2018-09-03T12:40:17Z</time>
      </trkpt>
      <trkpt lat="43.2696450" lon="-2.7829720">
        <ele>125.0</ele>
        <time>2018-09-03T12:40:18Z</time>
      </trkpt>
      <trkpt lat="43.2693990" lon="-2.7829180">
        <ele>123.0</ele>
        <time>2018-09-03T12:40:20Z</time>
      </trkpt>
      <trkpt lat="43.2691500" lon="-2.7829090">
        <ele>121.6</ele>
        <time>2018-09-03T12:40:22Z</time>
      </trkpt>
      <trkpt lat="43.2690280" lon="-2.7829400">
        <ele>120.4</ele>
        <time>2018-09-03T12:40:23Z</time>
      </trkpt>
      <trkpt lat="43.2689090" lon="-2.7829980">
        <ele>118.4</ele>
        <time>2018-09-03T12:40:24Z</time>
      </trkpt>
      <trkpt lat="43.2687980" lon="-2.7830780">
        <ele>117.2</ele>
        <time>2018-09-03T12:40:25Z</time>
      </trkpt>
      <trkpt lat="43.2686890" lon="-2.7831670">
        <ele>116.4</ele>
        <time>2018-09-03T12:40:26Z</time>
      </trkpt>
      <trkpt lat="43.2685790" lon="-2.7832510">
        <ele>116.0</ele>
        <time>2018-09-03T12:40:27Z</time>
      </trkpt>
      <trkpt lat="43.2683510" lon="-2.7833940">
        <ele>114.2</ele>
        <time>2018-09-03T12:40:29Z</time>
      </trkpt>
      <trkpt lat="43.2681200" lon="-2.7835010">
        <ele>112.8</ele>
        <time>2018-09-03T12:40:31Z</time>
      </trkpt>
      <trkpt lat="43.2678900" lon="-2.7836060">
        <ele>111.4</ele>
        <time>2018-09-03T12:40:33Z</time>
      </trkpt>
      <trkpt lat="43.2677830" lon="-2.7836840">
        <ele>110.8</ele>
        <time>2018-09-03T12:40:34Z</time>
      </trkpt>
      <trkpt lat="43.2676900" lon="-2.7837910">
        <ele>110.2</ele>
        <time>2018-09-03T12:40:35Z</time>
      </trkpt>
      <trkpt lat="43.2675450" lon="-2.7840490">
        <ele>108.4</ele>
        <time>2018-09-03T12:40:37Z</time>
      </trkpt>
      <trkpt lat="43.2674150" lon="-2.7843230">
        <ele>106.6</ele>
        <time>2018-09-03T12:40:39Z</time>
      </trkpt>
      <trkpt lat="43.2672870" lon="-2.7845940">
        <ele>105.0</ele>
        <time>2018-09-03T12:40:41Z</time>
      </trkpt>
      <trkpt lat="43.2671730" lon="-2.7848690">
        <ele>103.8</ele>
        <time>2018-09-03T12:40:43Z</time>
      </trkpt>
      <trkpt lat="43.2670480" lon="-2.7852850">
        <ele>102.6</ele>
        <time>2018-09-03T12:40:46Z</time>
      </trkpt>
      <trkpt lat="43.2668760" lon="-2.7860480">
        <ele>101.8</ele>
        <time>2018-09-03T12:40:52Z</time>
      </trkpt>
      <trkpt lat="43.2667950" lon="-2.7863970">
        <ele>101.4</ele>
        <time>2018-09-03T12:40:55Z</time>
      </trkpt>
      <trkpt lat="43.2666290" lon="-2.7871810">
        <ele>100.8</ele>
        <time>2018-09-03T12:41:02Z</time>
      </trkpt>
      <trkpt lat="43.2666040" lon="-2.7872900">
        <ele>100.2</ele>
        <time>2018-09-03T12:41:03Z</time>
      </trkpt>
      <trkpt lat="43.2665240" lon="-2.7876070">
        <ele>99.2</ele>
        <time>2018-09-03T12:41:06Z</time>
      </trkpt>
      <trkpt lat="43.2664760" lon="-2.7878180">
        <ele>97.8</ele>
        <time>2018-09-03T12:41:08Z</time>
      </trkpt>
      <trkpt lat="43.2664260" lon="-2.7880270">
        <ele>96.4</ele>
        <time>2018-09-03T12:41:10Z</time>
      </trkpt>
      <trkpt lat="43.2663220" lon="-2.7884450">
        <ele>95.4</ele>
        <time>2018-09-03T12:41:14Z</time>
      </trkpt>
      <trkpt lat="43.2662980" lon="-2.7885530">
        <ele>95.4</ele>
        <time>2018-09-03T12:41:15Z</time>
      </trkpt>
      <trkpt lat="43.2662250" lon="-2.7888880">
        <ele>95.0</ele>
        <time>2018-09-03T12:41:18Z</time>
      </trkpt>
      <trkpt lat="43.2661390" lon="-2.7892460">
        <ele>94.2</ele>
        <time>2018-09-03T12:41:21Z</time>
      </trkpt>
      <trkpt lat="43.2660440" lon="-2.7897670">
        <ele>93.2</ele>
        <time>2018-09-03T12:41:25Z</time>
      </trkpt>
      <trkpt lat="43.2660100" lon="-2.7900390">
        <ele>91.8</ele>
        <time>2018-09-03T12:41:27Z</time>
      </trkpt>
      <trkpt lat="43.2659800" lon="-2.7903070">
        <ele>90.2</ele>
        <time>2018-09-03T12:41:29Z</time>
      </trkpt>
      <trkpt lat="43.2659550" lon="-2.7905720">
        <ele>88.8</ele>
        <time>2018-09-03T12:41:31Z</time>
      </trkpt>
      <trkpt lat="43.2659330" lon="-2.7908320">
        <ele>87.6</ele>
        <time>2018-09-03T12:41:33Z</time>
      </trkpt>
      <trkpt lat="43.2658990" lon="-2.7912120">
        <ele>86.4</ele>
        <time>2018-09-03T12:41:36Z</time>
      </trkpt>
      <trkpt lat="43.2658570" lon="-2.7915770">
        <ele>86.0</ele>
        <time>2018-09-03T12:41:39Z</time>
      </trkpt>
      <trkpt lat="43.2658110" lon="-2.7918000">
        <ele>85.8</ele>
        <time>2018-09-03T12:41:41Z</time>
      </trkpt>
      <trkpt lat="43.2657500" lon="-2.7920110">
        <ele>85.8</ele>
        <time>2018-09-03T12:41:43Z</time>
      </trkpt>
      <trkpt lat="43.2656060" lon="-2.7923910">
        <ele>85.8</ele>
        <time>2018-09-03T12:41:47Z</time>
      </trkpt>
      <trkpt lat="43.2654440" lon="-2.7927210">
        <ele>85.8</ele>
        <time>2018-09-03T12:41:51Z</time>
      </trkpt>
      <trkpt lat="43.2652760" lon="-2.7929930">
        <ele>86.2</ele>
        <time>2018-09-03T12:41:55Z</time>
      </trkpt>
      <trkpt lat="43.2652270" lon="-2.7930480">
        <ele>86.6</ele>
        <time>2018-09-03T12:41:56Z</time>
      </trkpt>
      <trkpt lat="43.2650820" lon="-2.7932010">
        <ele>87.8</ele>
        <time>2018-09-03T12:41:59Z</time>
      </trkpt>
      <trkpt lat="43.2645700" lon="-2.7935330">
        <ele>88.2</ele>
        <time>2018-09-03T12:42:09Z</time>
      </trkpt>
      <trkpt lat="43.2641620" lon="-2.7936500">
        <ele>88.2</ele>
        <time>2018-09-03T12:42:17Z</time>
      </trkpt>
      <trkpt lat="43.2638660" lon="-2.7936810">
        <ele>88.4</ele>
        <time>2018-09-03T12:42:23Z</time>
      </trkpt>
      <trkpt lat="43.2638210" lon="-2.7936900">
        <ele>88.4</ele>
        <time>2018-09-03T12:42:24Z</time>
      </trkpt>
      <trkpt lat="43.2636630" lon="-2.7937990">
        <ele>88.6</ele>
        <time>2018-09-03T12:42:28Z</time>
      </trkpt>
      <trkpt lat="43.2635410" lon="-2.7939160">
        <ele>88.8</ele>
        <time>2018-09-03T12:42:31Z</time>
      </trkpt>
      <trkpt lat="43.2630290" lon="-2.7943490">
        <ele>87.6</ele>
        <time>2018-09-03T12:42:41Z</time>
      </trkpt>
      <trkpt lat="43.2628410" lon="-2.7944580">
        <ele>86.6</ele>
        <time>2018-09-03T12:42:44Z</time>
      </trkpt>
      <trkpt lat="43.2627130" lon="-2.7945430">
        <ele>86.2</ele>
        <time>2018-09-03T12:42:46Z</time>
      </trkpt>
      <trkpt lat="43.2624440" lon="-2.7947050">
        <ele>85.6</ele>
        <time>2018-09-03T12:42:50Z</time>
      </trkpt>
      <trkpt lat="43.2622450" lon="-2.7948200">
        <ele>84.4</ele>
        <time>2018-09-03T12:42:53Z</time>
      </trkpt>
      <trkpt lat="43.2620630" lon="-2.7949410">
        <ele>83.6</ele>
        <time>2018-09-03T12:42:56Z</time>
      </trkpt>
      <trkpt lat="43.2619390" lon="-2.7953150">
        <ele>83.6</ele>
        <time>2018-09-03T12:43:02Z</time>
      </trkpt>
      <trkpt lat="43.2619440" lon="-2.7953760">
        <ele>83.6</ele>
        <time>2018-09-03T12:43:03Z</time>
      </trkpt>
      <trkpt lat="43.2620530" lon="-2.7957200">
        <ele>83.8</ele>
        <time>2018-09-03T12:43:10Z</time>
      </trkpt>
      <trkpt lat="43.2621280" lon="-2.7959820">
        <ele>84.0</ele>
        <time>2018-09-03T12:43:17Z</time>
      </trkpt>
      <trkpt lat="43.2621500" lon="-2.7960800">
        <ele>85.0</ele>
        <time>2018-09-03T12:43:20Z</time>
      </trkpt>
      <trkpt lat="43.2621500" lon="-2.7961380">
        <ele>85.4</ele>
        <time>2018-09-03T12:43:22Z</time>
      </trkpt>
      <trkpt lat="43.2621350" lon="-2.7962330">
        <ele>85.6</ele>
        <time>2018-09-03T12:43:26Z</time>
      </trkpt>
      <trkpt lat="43.2620940" lon="-2.7961380">
        <ele>86.2</ele>
        <time>2018-09-03T12:43:32Z</time>
      </trkpt>
      <trkpt lat="43.2621090" lon="-2.7960310">
        <ele>86.2</ele>
        <time>2018-09-03T12:43:36Z</time>
      </trkpt>
      <trkpt lat="43.2621000" lon="-2.7959640">
        <ele>86.2</ele>
        <time>2018-09-03T12:43:38Z</time>
      </trkpt>
      <trkpt lat="43.2620480" lon="-2.7957370">
        <ele>86.2</ele>
        <time>2018-09-03T12:43:43Z</time>
      </trkpt>
      <trkpt lat="43.2619960" lon="-2.7955690">
        <ele>86.0</ele>
        <time>2018-09-03T12:43:46Z</time>
      </trkpt>
      <trkpt lat="43.2619580" lon="-2.7954480">
        <ele>85.8</ele>
        <time>2018-09-03T12:43:48Z</time>
      </trkpt>
      <trkpt lat="43.2619190" lon="-2.7952630">
        <ele>85.4</ele>
        <time>2018-09-03T12:43:51Z</time>
      </trkpt>
      <trkpt lat="43.2618790" lon="-2.7950920">
        <ele>85.0</ele>
        <time>2018-09-03T12:43:54Z</time>
      </trkpt>
      <trkpt lat="43.2617040" lon="-2.7950570">
        <ele>84.6</ele>
        <time>2018-09-03T12:43:58Z</time>
      </trkpt>
      <trkpt lat="43.2614000" lon="-2.7950830">
        <ele>83.4</ele>
        <time>2018-09-03T12:44:04Z</time>
      </trkpt>
      <trkpt lat="43.2613250" lon="-2.7948940">
        <ele>82.4</ele>
        <time>2018-09-03T12:44:07Z</time>
      </trkpt>
      <trkpt lat="43.2613010" lon="-2.7948320">
        <ele>82.2</ele>
        <time>2018-09-03T12:44:08Z</time>
      </trkpt>
      <trkpt lat="43.2611780" lon="-2.7944790">
        <ele>82.0</ele>
        <time>2018-09-03T12:44:15Z</time>
      </trkpt>
      <trkpt lat="43.2610790" lon="-2.7942190">
        <ele>82.6</ele>
        <time>2018-09-03T12:44:24Z</time>
      </trkpt>
      <trkpt lat="43.2610950" lon="-2.7942670">
        <ele>82.6</ele>
        <time>2018-09-03T12:44:26Z</time>
      </trkpt>
      <trkpt lat="43.2611230" lon="-2.7943210">
        <ele>82.6</ele>
        <time>2018-09-03T12:44:28Z</time>
      </trkpt>
      <trkpt lat="43.2611400" lon="-2.7943530">
        <ele>82.6</ele>
        <time>2018-09-03T12:44:29Z</time>
      </trkpt>
      <trkpt lat="43.2611840" lon="-2.7944750">
        <ele>82.6</ele>
        <time>2018-09-03T12:44:32Z</time>
      </trkpt>
      <trkpt lat="43.2612250" lon="-2.7946450">
        <ele>82.4</ele>
        <time>2018-09-03T12:44:36Z</time>
      </trkpt>
      <trkpt lat="43.2613150" lon="-2.7949020">
        <ele>82.2</ele>
        <time>2018-09-03T12:44:42Z</time>
      </trkpt>
      <trkpt lat="43.2614150" lon="-2.7951840">
        <ele>82.2</ele>
        <time>2018-09-03T12:44:48Z</time>
      </trkpt>
      <trkpt lat="43.2612890" lon="-2.7953290">
        <ele>82.0</ele>
        <time>2018-09-03T12:44:53Z</time>
      </trkpt>
      <trkpt lat="43.2612470" lon="-2.7953630">
        <ele>82.0</ele>
        <time>2018-09-03T12:44:55Z</time>
      </trkpt>
      <trkpt lat="43.2612240" lon="-2.7953800">
        <ele>82.0</ele>
        <time>2018-09-03T12:44:57Z</time>
      </trkpt>
      <trkpt lat="43.2611140" lon="-2.7954690">
        <ele>82.8</ele>
        <time>2018-09-03T12:45:03Z</time>
      </trkpt>
      <trkpt lat="43.2610660" lon="-2.7955890">
        <ele>83.2</ele>
        <time>2018-09-03T12:45:07Z</time>
      </trkpt>
      <trkpt lat="43.2610480" lon="-2.7956630">
        <ele>83.6</ele>
        <time>2018-09-03T12:45:10Z</time>
      </trkpt>
      <trkpt lat="43.2610420" lon="-2.7957260">
        <ele>83.8</ele>
        <time>2018-09-03T12:45:13Z</time>
      </trkpt>
      <trkpt lat="43.2610430" lon="-2.7957430">
        <ele>83.8</ele>
        <time>2018-09-03T12:45:14Z</time>
      </trkpt>
      <trkpt lat="43.2610450" lon="-2.7958020">
        <ele>84.4</ele>
        <time>2018-09-03T12:45:17Z</time>
      </trkpt>
      <trkpt lat="43.2610490" lon="-2.7958360">
        <ele>84.8</ele>
        <time>2018-09-03T12:45:19Z</time>
      </trkpt>
      <trkpt lat="43.2610660" lon="-2.7959150">
        <ele>86.0</ele>
        <time>2018-09-03T12:45:24Z</time>
      </trkpt>
      <trkpt lat="43.2610990" lon="-2.7960370">
        <ele>87.2</ele>
        <time>2018-09-03T12:45:35Z</time>
      </trkpt>
      <trkpt lat="43.2610970" lon="-2.7961110">
        <ele>87.8</ele>
        <time>2018-09-03T12:45:39Z</time>
      </trkpt>
      <trkpt lat="43.2610570" lon="-2.7961750">
        <ele>88.0</ele>
        <time>2018-09-03T12:45:43Z</time>
      </trkpt>
      <trkpt lat="43.2610130" lon="-2.7962480">
        <ele>88.2</ele>
        <time>2018-09-03T12:45:47Z</time>
      </trkpt>
      <trkpt lat="43.2609690" lon="-2.7963890">
        <ele>88.4</ele>
        <time>2018-09-03T12:45:54Z</time>
      </trkpt>
      <trkpt lat="43.2609050" lon="-2.7964130">
        <ele>88.6</ele>
        <time>2018-09-03T12:45:58Z</time>
      </trkpt>
      <trkpt lat="43.2608920" lon="-2.7964200">
        <ele>88.6</ele>
        <time>2018-09-03T12:45:59Z</time>
      </trkpt>
      <trkpt lat="43.2608600" lon="-2.7964760">
        <ele>89.2</ele>
        <time>2018-09-03T12:46:03Z</time>
      </trkpt>
      <trkpt lat="43.2608570" lon="-2.7964930">
        <ele>89.2</ele>
        <time>2018-09-03T12:46:04Z</time>
      </trkpt>
      <trkpt lat="43.2608500" lon="-2.7965060">
        <ele>89.2</ele>
        <time>2018-09-03T12:46:05Z</time>
      </trkpt>
      <trkpt lat="43.2608130" lon="-2.7965350">
        <ele>89.6</ele>
        <time>2018-09-03T12:46:08Z</time>
      </trkpt>
      <trkpt lat="43.2608000" lon="-2.7965550">
        <ele>89.6</ele>
        <time>2018-09-03T12:46:10Z</time>
      </trkpt>
      <trkpt lat="43.2607970" lon="-2.7965580">
        <ele>89.8</ele>
        <time>2018-09-03T12:46:11Z</time>
      </trkpt>
      <trkpt lat="43.2607890" lon="-2.7965630">
        <ele>90.0</ele>
        <time>2018-09-03T12:46:14Z</time>
      </trkpt>
      <trkpt lat="43.2607870" lon="-2.7965660">
        <ele>90.0</ele>
        <time>2018-09-03T12:46:20Z</time>
      </trkpt>
      <trkpt lat="43.2607880" lon="-2.7965730">
        <ele>89.8</ele>
        <time>2018-09-03T12:46:34Z</time>
      </trkpt>
      <trkpt lat="43.2607910" lon="-2.7965720">
        <ele>90.0</ele>
        <time>2018-09-03T12:46:48Z</time>
      </trkpt>
      <trkpt lat="43.2607900" lon="-2.7965720">
        <ele>90.0</ele>
        <time>2018-09-03T12:46:51Z</time>
      </trkpt>
      <trkpt lat="43.2607910" lon="-2.7965720">
        <ele>90.0</ele>
        <time>2018-09-03T12:46:53Z</time>
      </trkpt>
      <trkpt lat="43.2607900" lon="-2.7965720">
        <ele>90.0</ele>
        <time>2018-09-03T12:46:54Z</time>
      </trkpt>
      <trkpt lat="43.2607900" lon="-2.7965710">
        <ele>90.0</ele>
        <time>2018-09-03T12:46:57Z</time>
      </trkpt>
      <trkpt lat="43.2607900" lon="-2.7965720">
        <ele>89.8</ele>
        <time>2018-09-03T12:47:21Z</time>
      </trkpt>
      <trkpt lat="43.2607900" lon="-2.7965720">
        <ele>89.8</ele>
        <time>2018-09-03T12:47:27Z</time>
      </trkpt>
      <trkpt lat="43.2608420" lon="-2.7964900">
        <ele>87.8</ele>
        <time>2018-09-03T14:14:29Z</time>
      </trkpt>
      <trkpt lat="43.2608420" lon="-2.7964900">
        <ele>87.8</ele>
        <time>2018-09-03T14:14:30Z</time>
      </trkpt>
      <trkpt lat="43.2608420" lon="-2.7964900">
        <ele>87.8</ele>
        <time>2018-09-03T14:14:33Z</time>
      </trkpt>
      <trkpt lat="43.2608380" lon="-2.7965060">
        <ele>87.8</ele>
        <time>2018-09-03T14:14:37Z</time>
      </trkpt>
      <trkpt lat="43.2608310" lon="-2.7965100">
        <ele>87.8</ele>
        <time>2018-09-03T14:14:43Z</time>
      </trkpt>
      <trkpt lat="43.2608310" lon="-2.7965110">
        <ele>88.0</ele>
        <time>2018-09-03T14:14:54Z</time>
      </trkpt>
      <trkpt lat="43.2608310" lon="-2.7965110">
        <ele>88.0</ele>
        <time>2018-09-03T14:14:57Z</time>
      </trkpt>
      <trkpt lat="43.2608310" lon="-2.7965110">
        <ele>88.0</ele>
        <time>2018-09-03T14:14:59Z</time>
      </trkpt>
      <trkpt lat="43.2608360" lon="-2.7965110">
        <ele>88.2</ele>
        <time>2018-09-03T14:15:15Z</time>
      </trkpt>
      <trkpt lat="43.2608400" lon="-2.7964990">
        <ele>88.2</ele>
        <time>2018-09-03T14:15:17Z</time>
      </trkpt>
      <trkpt lat="43.2608340" lon="-2.7964800">
        <ele>88.2</ele>
        <time>2018-09-03T14:15:22Z</time>
      </trkpt>
      <trkpt lat="43.2608310" lon="-2.7964580">
        <ele>88.2</ele>
        <time>2018-09-03T14:15:24Z</time>
      </trkpt>
      <trkpt lat="43.2608970" lon="-2.7963640">
        <ele>87.8</ele>
        <time>2018-09-03T14:15:33Z</time>
      </trkpt>
      <trkpt lat="43.2609390" lon="-2.7963590">
        <ele>87.8</ele>
        <time>2018-09-03T14:15:35Z</time>
      </trkpt>
      <trkpt lat="43.2609650" lon="-2.7963270">
        <ele>87.4</ele>
        <time>2018-09-03T14:15:39Z</time>
      </trkpt>
      <trkpt lat="43.2609890" lon="-2.7963130">
        <ele>87.2</ele>
        <time>2018-09-03T14:15:42Z</time>
      </trkpt>
      <trkpt lat="43.2609890" lon="-2.7963490">
        <ele>87.2</ele>
        <time>2018-09-03T14:15:47Z</time>
      </trkpt>
      <trkpt lat="43.2609890" lon="-2.7963280">
        <ele>87.2</ele>
        <time>2018-09-03T14:15:48Z</time>
      </trkpt>
      <trkpt lat="43.2609760" lon="-2.7962290">
        <ele>87.0</ele>
        <time>2018-09-03T14:15:52Z</time>
      </trkpt>
      <trkpt lat="43.2609800" lon="-2.7961710">
        <ele>87.0</ele>
        <time>2018-09-03T14:15:54Z</time>
      </trkpt>
      <trkpt lat="43.2609900" lon="-2.7960960">
        <ele>86.4</ele>
        <time>2018-09-03T14:15:59Z</time>
      </trkpt>
      <trkpt lat="43.2609910" lon="-2.7960960">
        <ele>86.4</ele>
        <time>2018-09-03T14:16:05Z</time>
      </trkpt>
      <trkpt lat="43.2609900" lon="-2.7962030">
        <ele>86.4</ele>
        <time>2018-09-03T14:16:17Z</time>
      </trkpt>
      <trkpt lat="43.2609560" lon="-2.7962380">
        <ele>86.4</ele>
        <time>2018-09-03T14:16:20Z</time>
      </trkpt>
      <trkpt lat="43.2609430" lon="-2.7962400">
        <ele>86.4</ele>
        <time>2018-09-03T14:16:21Z</time>
      </trkpt>
      <trkpt lat="43.2609340" lon="-2.7962490">
        <ele>86.4</ele>
        <time>2018-09-03T14:16:22Z</time>
      </trkpt>
      <trkpt lat="43.2609310" lon="-2.7962840">
        <ele>86.8</ele>
        <time>2018-09-03T14:16:31Z</time>
      </trkpt>
      <trkpt lat="43.2609310" lon="-2.7962840">
        <ele>87.0</ele>
        <time>2018-09-03T14:16:38Z</time>
      </trkpt>
      <trkpt lat="43.2609310" lon="-2.7962840">
        <ele>87.0</ele>
        <time>2018-09-03T14:16:41Z</time>
      </trkpt>
      <trkpt lat="43.2609470" lon="-2.7962850">
        <ele>87.0</ele>
        <time>2018-09-03T14:16:47Z</time>
      </trkpt>
      <trkpt lat="43.2609910" lon="-2.7962760">
        <ele>87.0</ele>
        <time>2018-09-03T14:16:50Z</time>
      </trkpt>
      <trkpt lat="43.2610110" lon="-2.7962350">
        <ele>87.0</ele>
        <time>2018-09-03T14:16:52Z</time>
      </trkpt>
      <trkpt lat="43.2610220" lon="-2.7961300">
        <ele>86.4</ele>
        <time>2018-09-03T14:17:01Z</time>
      </trkpt>
      <trkpt lat="43.2610190" lon="-2.7961280">
        <ele>86.2</ele>
        <time>2018-09-03T14:17:10Z</time>
      </trkpt>
      <trkpt lat="43.2610210" lon="-2.7961280">
        <ele>86.4</ele>
        <time>2018-09-03T14:17:29Z</time>
      </trkpt>
      <trkpt lat="43.2610210" lon="-2.7961280">
        <ele>86.2</ele>
        <time>2018-09-03T14:17:31Z</time>
      </trkpt>
      <trkpt lat="43.2610210" lon="-2.7961280">
        <ele>86.2</ele>
        <time>2018-09-03T14:17:35Z</time>
      </trkpt>
      <trkpt lat="43.2610210" lon="-2.7961290">
        <ele>86.2</ele>
        <time>2018-09-03T14:17:36Z</time>
      </trkpt>
      <trkpt lat="43.2610210" lon="-2.7961290">
        <ele>86.2</ele>
        <time>2018-09-03T14:17:39Z</time>
      </trkpt>
      <trkpt lat="43.2610260" lon="-2.7961300">
        <ele>86.2</ele>
        <time>2018-09-03T14:17:42Z</time>
      </trkpt>
      <trkpt lat="43.2610530" lon="-2.7961230">
        <ele>86.2</ele>
        <time>2018-09-03T14:17:45Z</time>
      </trkpt>
      <trkpt lat="43.2611210" lon="-2.7961690">
        <ele>86.2</ele>
        <time>2018-09-03T14:17:50Z</time>
      </trkpt>
      <trkpt lat="43.2611760" lon="-2.7962210">
        <ele>86.0</ele>
        <time>2018-09-03T14:17:53Z</time>
      </trkpt>
      <trkpt lat="43.2614470" lon="-2.7965230">
        <ele>85.8</ele>
        <time>2018-09-03T14:18:09Z</time>
      </trkpt>
      <trkpt lat="43.2614970" lon="-2.7965970">
        <ele>86.2</ele>
        <time>2018-09-03T14:18:12Z</time>
      </trkpt>
      <trkpt lat="43.2615660" lon="-2.7967060">
        <ele>86.6</ele>
        <time>2018-09-03T14:18:16Z</time>
      </trkpt>
      <trkpt lat="43.2616690" lon="-2.7970080">
        <ele>87.2</ele>
        <time>2018-09-03T14:18:25Z</time>
      </trkpt>
      <trkpt lat="43.2617170" lon="-2.7972570">
        <ele>87.4</ele>
        <time>2018-09-03T14:18:32Z</time>
      </trkpt>
      <trkpt lat="43.2617520" lon="-2.7974900">
        <ele>87.6</ele>
        <time>2018-09-03T14:18:39Z</time>
      </trkpt>
      <trkpt lat="43.2618430" lon="-2.7978420">
        <ele>88.8</ele>
        <time>2018-09-03T14:18:50Z</time>
      </trkpt>
      <trkpt lat="43.2619030" lon="-2.7980940">
        <ele>89.6</ele>
        <time>2018-09-03T14:18:58Z</time>
      </trkpt>
      <trkpt lat="43.2619160" lon="-2.7981500">
        <ele>90.0</ele>
        <time>2018-09-03T14:19:00Z</time>
      </trkpt>
      <trkpt lat="43.2620040" lon="-2.7984720">
        <ele>91.0</ele>
        <time>2018-09-03T14:19:11Z</time>
      </trkpt>
      <trkpt lat="43.2620790" lon="-2.7987890">
        <ele>92.0</ele>
        <time>2018-09-03T14:19:22Z</time>
      </trkpt>
      <trkpt lat="43.2620860" lon="-2.7988170">
        <ele>92.2</ele>
        <time>2018-09-03T14:19:23Z</time>
      </trkpt>
      <trkpt lat="43.2621320" lon="-2.7990220">
        <ele>93.4</ele>
        <time>2018-09-03T14:19:30Z</time>
      </trkpt>
      <trkpt lat="43.2622010" lon="-2.7993120">
        <ele>94.2</ele>
        <time>2018-09-03T14:19:40Z</time>
      </trkpt>
      <trkpt lat="43.2622930" lon="-2.7997050">
        <ele>95.4</ele>
        <time>2018-09-03T14:19:54Z</time>
      </trkpt>
      <trkpt lat="43.2623660" lon="-2.7999210">
        <ele>96.6</ele>
        <time>2018-09-03T14:20:02Z</time>
      </trkpt>
      <trkpt lat="43.2624560" lon="-2.8001640">
        <ele>97.6</ele>
        <time>2018-09-03T14:20:12Z</time>
      </trkpt>
      <trkpt lat="43.2625870" lon="-2.8004690">
        <ele>98.8</ele>
        <time>2018-09-03T14:20:25Z</time>
      </trkpt>
      <trkpt lat="43.2626770" lon="-2.8007040">
        <ele>99.8</ele>
        <time>2018-09-03T14:20:35Z</time>
      </trkpt>
      <trkpt lat="43.2628110" lon="-2.8009950">
        <ele>101.0</ele>
        <time>2018-09-03T14:20:48Z</time>
      </trkpt>
      <trkpt lat="43.2629290" lon="-2.8012710">
        <ele>102.2</ele>
        <time>2018-09-03T14:21:00Z</time>
      </trkpt>
      <trkpt lat="43.2629980" lon="-2.8014320">
        <ele>103.2</ele>
        <time>2018-09-03T14:21:07Z</time>
      </trkpt>
      <trkpt lat="43.2630080" lon="-2.8014560">
        <ele>103.4</ele>
        <time>2018-09-03T14:21:08Z</time>
      </trkpt>
      <trkpt lat="43.2631290" lon="-2.8017330">
        <ele>104.4</ele>
        <time>2018-09-03T14:21:20Z</time>
      </trkpt>
      <trkpt lat="43.2632260" lon="-2.8019430">
        <ele>105.6</ele>
        <time>2018-09-03T14:21:29Z</time>
      </trkpt>
      <trkpt lat="43.2633280" lon="-2.8022160">
        <ele>106.8</ele>
        <time>2018-09-03T14:21:39Z</time>
      </trkpt>
      <trkpt lat="43.2633900" lon="-2.8024720">
        <ele>108.0</ele>
        <time>2018-09-03T14:21:47Z</time>
      </trkpt>
      <trkpt lat="43.2636070" lon="-2.8031900">
        <ele>108.4</ele>
        <time>2018-09-03T14:22:06Z</time>
      </trkpt>
      <trkpt lat="43.2638630" lon="-2.8038570">
        <ele>107.6</ele>
        <time>2018-09-03T14:22:18Z</time>
      </trkpt>
      <trkpt lat="43.2640000" lon="-2.8042140">
        <ele>107.2</ele>
        <time>2018-09-03T14:22:23Z</time>
      </trkpt>
      <trkpt lat="43.2640550" lon="-2.8043700">
        <ele>107.0</ele>
        <time>2018-09-03T14:22:25Z</time>
      </trkpt>
      <trkpt lat="43.2641560" lon="-2.8047050">
        <ele>105.6</ele>
        <time>2018-09-03T14:22:29Z</time>
      </trkpt>
      <trkpt lat="43.2642340" lon="-2.8050570">
        <ele>104.6</ele>
        <time>2018-09-03T14:22:33Z</time>
      </trkpt>
      <trkpt lat="43.2643970" lon="-2.8058550">
        <ele>103.6</ele>
        <time>2018-09-03T14:22:42Z</time>
      </trkpt>
      <trkpt lat="43.2644130" lon="-2.8059430">
        <ele>103.6</ele>
        <time>2018-09-03T14:22:43Z</time>
      </trkpt>
      <trkpt lat="43.2645630" lon="-2.8066600">
        <ele>102.8</ele>
        <time>2018-09-03T14:22:51Z</time>
      </trkpt>
      <trkpt lat="43.2647290" lon="-2.8073900">
        <ele>102.8</ele>
        <time>2018-09-03T14:22:59Z</time>
      </trkpt>
      <trkpt lat="43.2647500" lon="-2.8074820">
        <ele>102.8</ele>
        <time>2018-09-03T14:23:00Z</time>
      </trkpt>
      <trkpt lat="43.2649230" lon="-2.8082030">
        <ele>101.6</ele>
        <time>2018-09-03T14:23:08Z</time>
      </trkpt>
      <trkpt lat="43.2651610" lon="-2.8088840">
        <ele>100.4</ele>
        <time>2018-09-03T14:23:16Z</time>
      </trkpt>
      <trkpt lat="43.2652680" lon="-2.8091240">
        <ele>100.0</ele>
        <time>2018-09-03T14:23:19Z</time>
      </trkpt>
      <trkpt lat="43.2653480" lon="-2.8092760">
        <ele>99.8</ele>
        <time>2018-09-03T14:23:21Z</time>
      </trkpt>
      <trkpt lat="43.2653820" lon="-2.8093560">
        <ele>99.2</ele>
        <time>2018-09-03T14:23:22Z</time>
      </trkpt>
      <trkpt lat="43.2654130" lon="-2.8094380">
        <ele>98.2</ele>
        <time>2018-09-03T14:23:23Z</time>
      </trkpt>
      <trkpt lat="43.2656290" lon="-2.8099430">
        <ele>97.4</ele>
        <time>2018-09-03T14:23:29Z</time>
      </trkpt>
      <trkpt lat="43.2656990" lon="-2.8101180">
        <ele>97.0</ele>
        <time>2018-09-03T14:23:31Z</time>
      </trkpt>
      <trkpt lat="43.2658290" lon="-2.8104860">
        <ele>95.6</ele>
        <time>2018-09-03T14:23:35Z</time>
      </trkpt>
      <trkpt lat="43.2659400" lon="-2.8109660">
        <ele>94.2</ele>
        <time>2018-09-03T14:23:40Z</time>
      </trkpt>
      <trkpt lat="43.2660860" lon="-2.8117060">
        <ele>93.2</ele>
        <time>2018-09-03T14:23:48Z</time>
      </trkpt>
      <trkpt lat="43.2661330" lon="-2.8119450">
        <ele>93.2</ele>
        <time>2018-09-03T14:23:51Z</time>
      </trkpt>
      <trkpt lat="43.2662040" lon="-2.8123010">
        <ele>93.4</ele>
        <time>2018-09-03T14:23:56Z</time>
      </trkpt>
      <trkpt lat="43.2662760" lon="-2.8126530">
        <ele>95.4</ele>
        <time>2018-09-03T14:24:02Z</time>
      </trkpt>
      <trkpt lat="43.2663320" lon="-2.8128960">
        <ele>97.0</ele>
        <time>2018-09-03T14:24:07Z</time>
      </trkpt>
      <trkpt lat="43.2663600" lon="-2.8130290">
        <ele>98.4</ele>
        <time>2018-09-03T14:24:10Z</time>
      </trkpt>
      <trkpt lat="43.2663970" lon="-2.8131940">
        <ele>99.4</ele>
        <time>2018-09-03T14:24:14Z</time>
      </trkpt>
      <trkpt lat="43.2664780" lon="-2.8134860">
        <ele>100.4</ele>
        <time>2018-09-03T14:24:21Z</time>
      </trkpt>
      <trkpt lat="43.2666070" lon="-2.8138510">
        <ele>101.4</ele>
        <time>2018-09-03T14:24:30Z</time>
      </trkpt>
      <trkpt lat="43.2667860" lon="-2.8143580">
        <ele>102.2</ele>
        <time>2018-09-03T14:24:41Z</time>
      </trkpt>
      <trkpt lat="43.2669200" lon="-2.8147260">
        <ele>102.4</ele>
        <time>2018-09-03T14:24:49Z</time>
      </trkpt>
      <trkpt lat="43.2670950" lon="-2.8151780">
        <ele>102.8</ele>
        <time>2018-09-03T14:24:58Z</time>
      </trkpt>
      <trkpt lat="43.2673560" lon="-2.8158460">
        <ele>103.2</ele>
        <time>2018-09-03T14:25:12Z</time>
      </trkpt>
      <trkpt lat="43.2674680" lon="-2.8161270">
        <ele>103.4</ele>
        <time>2018-09-03T14:25:18Z</time>
      </trkpt>
      <trkpt lat="43.2675250" lon="-2.8162710">
        <ele>104.0</ele>
        <time>2018-09-03T14:25:21Z</time>
      </trkpt>
      <trkpt lat="43.2678110" lon="-2.8169480">
        <ele>104.6</ele>
        <time>2018-09-03T14:25:35Z</time>
      </trkpt>
      <trkpt lat="43.2680950" lon="-2.8176350">
        <ele>104.4</ele>
        <time>2018-09-03T14:25:47Z</time>
      </trkpt>
      <trkpt lat="43.2683700" lon="-2.8183160">
        <ele>103.6</ele>
        <time>2018-09-03T14:25:57Z</time>
      </trkpt>
      <trkpt lat="43.2684310" lon="-2.8184700">
        <ele>103.4</ele>
        <time>2018-09-03T14:25:59Z</time>
      </trkpt>
      <trkpt lat="43.2684920" lon="-2.8186350">
        <ele>103.4</ele>
        <time>2018-09-03T14:26:01Z</time>
      </trkpt>
      <trkpt lat="43.2685660" lon="-2.8188030">
        <ele>103.4</ele>
        <time>2018-09-03T14:26:03Z</time>
      </trkpt>
      <trkpt lat="43.2687190" lon="-2.8191690">
        <ele>102.4</ele>
        <time>2018-09-03T14:26:07Z</time>
      </trkpt>
      <trkpt lat="43.2688450" lon="-2.8194580">
        <ele>101.6</ele>
        <time>2018-09-03T14:26:10Z</time>
      </trkpt>
      <trkpt lat="43.2689270" lon="-2.8196440">
        <ele>101.2</ele>
        <time>2018-09-03T14:26:12Z</time>
      </trkpt>
      <trkpt lat="43.2690010" lon="-2.8198220">
        <ele>100.2</ele>
        <time>2018-09-03T14:26:14Z</time>
      </trkpt>
      <trkpt lat="43.2690320" lon="-2.8199150">
        <ele>99.0</ele>
        <time>2018-09-03T14:26:15Z</time>
      </trkpt>
      <trkpt lat="43.2690960" lon="-2.8201030">
        <ele>98.0</ele>
        <time>2018-09-03T14:26:17Z</time>
      </trkpt>
      <trkpt lat="43.2692150" lon="-2.8203820">
        <ele>97.0</ele>
        <time>2018-09-03T14:26:20Z</time>
      </trkpt>
      <trkpt lat="43.2693530" lon="-2.8206740">
        <ele>95.6</ele>
        <time>2018-09-03T14:26:23Z</time>
      </trkpt>
      <trkpt lat="43.2694550" lon="-2.8208760">
        <ele>94.2</ele>
        <time>2018-09-03T14:26:25Z</time>
      </trkpt>
      <trkpt lat="43.2696160" lon="-2.8211880">
        <ele>93.2</ele>
        <time>2018-09-03T14:26:28Z</time>
      </trkpt>
      <trkpt lat="43.2697260" lon="-2.8214060">
        <ele>92.0</ele>
        <time>2018-09-03T14:26:30Z</time>
      </trkpt>
      <trkpt lat="43.2698320" lon="-2.8216300">
        <ele>90.6</ele>
        <time>2018-09-03T14:26:32Z</time>
      </trkpt>
      <trkpt lat="43.2699400" lon="-2.8218550">
        <ele>89.6</ele>
        <time>2018-09-03T14:26:34Z</time>
      </trkpt>
      <trkpt lat="43.2699960" lon="-2.8219670">
        <ele>89.2</ele>
        <time>2018-09-03T14:26:35Z</time>
      </trkpt>
      <trkpt lat="43.2701070" lon="-2.8221900">
        <ele>87.4</ele>
        <time>2018-09-03T14:26:37Z</time>
      </trkpt>
      <trkpt lat="43.2702160" lon="-2.8224180">
        <ele>86.4</ele>
        <time>2018-09-03T14:26:39Z</time>
      </trkpt>
      <trkpt lat="43.2703180" lon="-2.8226540">
        <ele>85.2</ele>
        <time>2018-09-03T14:26:41Z</time>
      </trkpt>
      <trkpt lat="43.2704210" lon="-2.8230090">
        <ele>84.4</ele>
        <time>2018-09-03T14:26:44Z</time>
      </trkpt>
      <trkpt lat="43.2704290" lon="-2.8231190">
        <ele>84.0</ele>
        <time>2018-09-03T14:26:45Z</time>
      </trkpt>
      <trkpt lat="43.2704280" lon="-2.8233360">
        <ele>82.8</ele>
        <time>2018-09-03T14:26:47Z</time>
      </trkpt>
      <trkpt lat="43.2704470" lon="-2.8235500">
        <ele>81.8</ele>
        <time>2018-09-03T14:26:49Z</time>
      </trkpt>
      <trkpt lat="43.2704730" lon="-2.8237560">
        <ele>81.2</ele>
        <time>2018-09-03T14:26:51Z</time>
      </trkpt>
      <trkpt lat="43.2704850" lon="-2.8239600">
        <ele>80.6</ele>
        <time>2018-09-03T14:26:53Z</time>
      </trkpt>
      <trkpt lat="43.2705660" lon="-2.8242410">
        <ele>80.2</ele>
        <time>2018-09-03T14:26:56Z</time>
      </trkpt>
      <trkpt lat="43.2706030" lon="-2.8243270">
        <ele>80.0</ele>
        <time>2018-09-03T14:26:57Z</time>
      </trkpt>
      <trkpt lat="43.2707300" lon="-2.8245790">
        <ele>79.6</ele>
        <time>2018-09-03T14:27:00Z</time>
      </trkpt>
      <trkpt lat="43.2708160" lon="-2.8247490">
        <ele>79.6</ele>
        <time>2018-09-03T14:27:02Z</time>
      </trkpt>
      <trkpt lat="43.2709490" lon="-2.8249990">
        <ele>79.4</ele>
        <time>2018-09-03T14:27:05Z</time>
      </trkpt>
      <trkpt lat="43.2710390" lon="-2.8251640">
        <ele>78.6</ele>
        <time>2018-09-03T14:27:07Z</time>
      </trkpt>
      <trkpt lat="43.2712040" lon="-2.8254920">
        <ele>77.6</ele>
        <time>2018-09-03T14:27:11Z</time>
      </trkpt>
      <trkpt lat="43.2713610" lon="-2.8258080">
        <ele>76.6</ele>
        <time>2018-09-03T14:27:15Z</time>
      </trkpt>
      <trkpt lat="43.2715880" lon="-2.8262590">
        <ele>76.2</ele>
        <time>2018-09-03T14:27:21Z</time>
      </trkpt>
      <trkpt lat="43.2717700" lon="-2.8266480">
        <ele>76.2</ele>
        <time>2018-09-03T14:27:26Z</time>
      </trkpt>
      <trkpt lat="43.2720470" lon="-2.8272860">
        <ele>76.0</ele>
        <time>2018-09-03T14:27:34Z</time>
      </trkpt>
      <trkpt lat="43.2722770" lon="-2.8278790">
        <ele>75.6</ele>
        <time>2018-09-03T14:27:41Z</time>
      </trkpt>
      <trkpt lat="43.2723070" lon="-2.8279670">
        <ele>75.4</ele>
        <time>2018-09-03T14:27:42Z</time>
      </trkpt>
      <trkpt lat="43.2725400" lon="-2.8286830">
        <ele>74.8</ele>
        <time>2018-09-03T14:27:50Z</time>
      </trkpt>
      <trkpt lat="43.2725660" lon="-2.8287730">
        <ele>74.4</ele>
        <time>2018-09-03T14:27:51Z</time>
      </trkpt>
      <trkpt lat="43.2726710" lon="-2.8291210">
        <ele>73.4</ele>
        <time>2018-09-03T14:27:55Z</time>
      </trkpt>
      <trkpt lat="43.2728900" lon="-2.8298030">
        <ele>72.6</ele>
        <time>2018-09-03T14:28:03Z</time>
      </trkpt>
      <trkpt lat="43.2730180" lon="-2.8302390">
        <ele>72.4</ele>
        <time>2018-09-03T14:28:08Z</time>
      </trkpt>
      <trkpt lat="43.2731960" lon="-2.8308420">
        <ele>71.4</ele>
        <time>2018-09-03T14:28:15Z</time>
      </trkpt>
      <trkpt lat="43.2734140" lon="-2.8315910">
        <ele>70.8</ele>
        <time>2018-09-03T14:28:24Z</time>
      </trkpt>
      <trkpt lat="43.2734810" lon="-2.8318160">
        <ele>70.0</ele>
        <time>2018-09-03T14:28:27Z</time>
      </trkpt>
      <trkpt lat="43.2736590" lon="-2.8324100">
        <ele>69.2</ele>
        <time>2018-09-03T14:28:35Z</time>
      </trkpt>
      <trkpt lat="43.2737400" lon="-2.8326850">
        <ele>69.0</ele>
        <time>2018-09-03T14:28:39Z</time>
      </trkpt>
      <trkpt lat="43.2739730" lon="-2.8334270">
        <ele>69.2</ele>
        <time>2018-09-03T14:28:50Z</time>
      </trkpt>
      <trkpt lat="43.2741990" lon="-2.8341510">
        <ele>68.2</ele>
        <time>2018-09-03T14:29:02Z</time>
      </trkpt>
      <trkpt lat="43.2744370" lon="-2.8348820">
        <ele>68.6</ele>
        <time>2018-09-03T14:29:15Z</time>
      </trkpt>
      <trkpt lat="43.2745570" lon="-2.8352430">
        <ele>68.6</ele>
        <time>2018-09-03T14:29:21Z</time>
      </trkpt>
      <trkpt lat="43.2746050" lon="-2.8353600">
        <ele>68.8</ele>
        <time>2018-09-03T14:29:23Z</time>
      </trkpt>
      <trkpt lat="43.2747600" lon="-2.8359060">
        <ele>68.6</ele>
        <time>2018-09-03T14:29:31Z</time>
      </trkpt>
      <trkpt lat="43.2749660" lon="-2.8366040">
        <ele>67.4</ele>
        <time>2018-09-03T14:29:40Z</time>
      </trkpt>
      <trkpt lat="43.2751120" lon="-2.8371100">
        <ele>66.2</ele>
        <time>2018-09-03T14:29:46Z</time>
      </trkpt>
      <trkpt lat="43.2752330" lon="-2.8375570">
        <ele>65.0</ele>
        <time>2018-09-03T14:29:51Z</time>
      </trkpt>
      <trkpt lat="43.2753310" lon="-2.8379270">
        <ele>63.8</ele>
        <time>2018-09-03T14:29:55Z</time>
      </trkpt>
      <trkpt lat="43.2754560" lon="-2.8383910">
        <ele>62.8</ele>
        <time>2018-09-03T14:30:00Z</time>
      </trkpt>
      <trkpt lat="43.2755720" lon="-2.8389490">
        <ele>61.8</ele>
        <time>2018-09-03T14:30:06Z</time>
      </trkpt>
      <trkpt lat="43.2756500" lon="-2.8394410">
        <ele>60.6</ele>
        <time>2018-09-03T14:30:11Z</time>
      </trkpt>
      <trkpt lat="43.2757310" lon="-2.8399400">
        <ele>59.4</ele>
        <time>2018-09-03T14:30:16Z</time>
      </trkpt>
      <trkpt lat="43.2757960" lon="-2.8405470">
        <ele>58.6</ele>
        <time>2018-09-03T14:30:22Z</time>
      </trkpt>
      <trkpt lat="43.2758130" lon="-2.8407470">
        <ele>58.4</ele>
        <time>2018-09-03T14:30:24Z</time>
      </trkpt>
      <trkpt lat="43.2758670" lon="-2.8415340">
        <ele>57.8</ele>
        <time>2018-09-03T14:30:32Z</time>
      </trkpt>
      <trkpt lat="43.2759080" lon="-2.8423150">
        <ele>57.6</ele>
        <time>2018-09-03T14:30:40Z</time>
      </trkpt>
      <trkpt lat="43.2759160" lon="-2.8425100">
        <ele>57.6</ele>
        <time>2018-09-03T14:30:42Z</time>
      </trkpt>
      <trkpt lat="43.2759910" lon="-2.8431940">
        <ele>56.2</ele>
        <time>2018-09-03T14:30:49Z</time>
      </trkpt>
      <trkpt lat="43.2761280" lon="-2.8437560">
        <ele>55.8</ele>
        <time>2018-09-03T14:30:55Z</time>
      </trkpt>
      <trkpt lat="43.2761610" lon="-2.8438450">
        <ele>55.8</ele>
        <time>2018-09-03T14:30:56Z</time>
      </trkpt>
      <trkpt lat="43.2763590" lon="-2.8441180">
        <ele>55.6</ele>
        <time>2018-09-03T14:31:00Z</time>
      </trkpt>
      <trkpt lat="43.2764510" lon="-2.8448020">
        <ele>55.6</ele>
        <time>2018-09-03T14:31:08Z</time>
      </trkpt>
      <trkpt lat="43.2766770" lon="-2.8455490">
        <ele>55.4</ele>
        <time>2018-09-03T14:31:18Z</time>
      </trkpt>
      <trkpt lat="43.2769390" lon="-2.8462350">
        <ele>55.6</ele>
        <time>2018-09-03T14:31:28Z</time>
      </trkpt>
      <trkpt lat="43.2771250" lon="-2.8466240">
        <ele>55.8</ele>
        <time>2018-09-03T14:31:34Z</time>
      </trkpt>
      <trkpt lat="43.2774670" lon="-2.8472890">
        <ele>55.4</ele>
        <time>2018-09-03T14:31:44Z</time>
      </trkpt>
      <trkpt lat="43.2777910" lon="-2.8479570">
        <ele>54.6</ele>
        <time>2018-09-03T14:31:53Z</time>
      </trkpt>
      <trkpt lat="43.2778660" lon="-2.8481110">
        <ele>54.2</ele>
        <time>2018-09-03T14:31:55Z</time>
      </trkpt>
      <trkpt lat="43.2781790" lon="-2.8487440">
        <ele>53.2</ele>
        <time>2018-09-03T14:32:03Z</time>
      </trkpt>
      <trkpt lat="43.2783620" lon="-2.8491280">
        <ele>52.6</ele>
        <time>2018-09-03T14:32:08Z</time>
      </trkpt>
      <trkpt lat="43.2784660" lon="-2.8493550">
        <ele>52.4</ele>
        <time>2018-09-03T14:32:11Z</time>
      </trkpt>
      <trkpt lat="43.2785810" lon="-2.8495850">
        <ele>52.2</ele>
        <time>2018-09-03T14:32:14Z</time>
      </trkpt>
      <trkpt lat="43.2787670" lon="-2.8499210">
        <ele>51.8</ele>
        <time>2018-09-03T14:32:19Z</time>
      </trkpt>
      <trkpt lat="43.2787690" lon="-2.8500070">
        <ele>51.6</ele>
        <time>2018-09-03T14:32:20Z</time>
      </trkpt>
      <trkpt lat="43.2787790" lon="-2.8500920">
        <ele>51.4</ele>
        <time>2018-09-03T14:32:21Z</time>
      </trkpt>
      <trkpt lat="43.2788030" lon="-2.8501750">
        <ele>51.2</ele>
        <time>2018-09-03T14:32:22Z</time>
      </trkpt>
      <trkpt lat="43.2790640" lon="-2.8508400">
        <ele>50.2</ele>
        <time>2018-09-03T14:32:30Z</time>
      </trkpt>
      <trkpt lat="43.2791920" lon="-2.8511750">
        <ele>49.0</ele>
        <time>2018-09-03T14:32:34Z</time>
      </trkpt>
      <trkpt lat="43.2794690" lon="-2.8518950">
        <ele>48.4</ele>
        <time>2018-09-03T14:32:43Z</time>
      </trkpt>
      <trkpt lat="43.2795950" lon="-2.8521970">
        <ele>48.4</ele>
        <time>2018-09-03T14:32:47Z</time>
      </trkpt>
      <trkpt lat="43.2798540" lon="-2.8528670">
        <ele>48.4</ele>
        <time>2018-09-03T14:32:56Z</time>
      </trkpt>
      <trkpt lat="43.2800160" lon="-2.8532990">
        <ele>48.8</ele>
        <time>2018-09-03T14:33:02Z</time>
      </trkpt>
      <trkpt lat="43.2801960" lon="-2.8537690">
        <ele>47.8</ele>
        <time>2018-09-03T14:33:09Z</time>
      </trkpt>
      <trkpt lat="43.2804780" lon="-2.8544300">
        <ele>47.2</ele>
        <time>2018-09-03T14:33:20Z</time>
      </trkpt>
      <trkpt lat="43.2807480" lon="-2.8550810">
        <ele>47.8</ele>
        <time>2018-09-03T14:33:31Z</time>
      </trkpt>
      <trkpt lat="43.2809180" lon="-2.8555060">
        <ele>48.2</ele>
        <time>2018-09-03T14:33:38Z</time>
      </trkpt>
      <trkpt lat="43.2811920" lon="-2.8561920">
        <ele>48.8</ele>
        <time>2018-09-03T14:33:50Z</time>
      </trkpt>
      <trkpt lat="43.2812870" lon="-2.8564420">
        <ele>48.8</ele>
        <time>2018-09-03T14:33:55Z</time>
      </trkpt>
      <trkpt lat="43.2813590" lon="-2.8566320">
        <ele>49.2</ele>
        <time>2018-09-03T14:33:59Z</time>
      </trkpt>
      <trkpt lat="43.2815140" lon="-2.8570240">
        <ele>50.2</ele>
        <time>2018-09-03T14:34:08Z</time>
      </trkpt>
      <trkpt lat="43.2816970" lon="-2.8574700">
        <ele>51.4</ele>
        <time>2018-09-03T14:34:19Z</time>
      </trkpt>
      <trkpt lat="43.2817530" lon="-2.8577800">
        <ele>52.0</ele>
        <time>2018-09-03T14:34:26Z</time>
      </trkpt>
      <trkpt lat="43.2820070" lon="-2.8583840">
        <ele>52.4</ele>
        <time>2018-09-03T14:34:41Z</time>
      </trkpt>
      <trkpt lat="43.2820590" lon="-2.8584970">
        <ele>52.6</ele>
        <time>2018-09-03T14:34:44Z</time>
      </trkpt>
      <trkpt lat="43.2821630" lon="-2.8587630">
        <ele>53.6</ele>
        <time>2018-09-03T14:34:51Z</time>
      </trkpt>
      <trkpt lat="43.2822140" lon="-2.8588930">
        <ele>54.2</ele>
        <time>2018-09-03T14:34:55Z</time>
      </trkpt>
      <trkpt lat="43.2822680" lon="-2.8589810">
        <ele>54.6</ele>
        <time>2018-09-03T14:34:59Z</time>
      </trkpt>
      <trkpt lat="43.2823220" lon="-2.8590080">
        <ele>54.6</ele>
        <time>2018-09-03T14:35:01Z</time>
      </trkpt>
      <trkpt lat="43.2824540" lon="-2.8592740">
        <ele>55.0</ele>
        <time>2018-09-03T14:35:08Z</time>
      </trkpt>
      <trkpt lat="43.2826120" lon="-2.8596430">
        <ele>55.4</ele>
        <time>2018-09-03T14:35:17Z</time>
      </trkpt>
      <trkpt lat="43.2827840" lon="-2.8600470">
        <ele>55.8</ele>
        <time>2018-09-03T14:35:27Z</time>
      </trkpt>
      <trkpt lat="43.2828000" lon="-2.8600830">
        <ele>56.0</ele>
        <time>2018-09-03T14:35:28Z</time>
      </trkpt>
      <trkpt lat="43.2830080" lon="-2.8605770">
        <ele>57.0</ele>
        <time>2018-09-03T14:35:41Z</time>
      </trkpt>
      <trkpt lat="43.2831550" lon="-2.8609790">
        <ele>57.8</ele>
        <time>2018-09-03T14:35:52Z</time>
      </trkpt>
      <trkpt lat="43.2832850" lon="-2.8612730">
        <ele>58.0</ele>
        <time>2018-09-03T14:36:00Z</time>
      </trkpt>
      <trkpt lat="43.2835570" lon="-2.8619490">
        <ele>58.6</ele>
        <time>2018-09-03T14:36:17Z</time>
      </trkpt>
      <trkpt lat="43.2838230" lon="-2.8626140">
        <ele>59.2</ele>
        <time>2018-09-03T14:36:33Z</time>
      </trkpt>
      <trkpt lat="43.2838390" lon="-2.8626580">
        <ele>59.4</ele>
        <time>2018-09-03T14:36:34Z</time>
      </trkpt>
      <trkpt lat="43.2840770" lon="-2.8633230">
        <ele>59.8</ele>
        <time>2018-09-03T14:36:49Z</time>
      </trkpt>
      <trkpt lat="43.2842970" lon="-2.8640380">
        <ele>59.8</ele>
        <time>2018-09-03T14:37:05Z</time>
      </trkpt>
      <trkpt lat="43.2845050" lon="-2.8647010">
        <ele>60.2</ele>
        <time>2018-09-03T14:37:19Z</time>
      </trkpt>
      <trkpt lat="43.2845570" lon="-2.8648470">
        <ele>60.4</ele>
        <time>2018-09-03T14:37:22Z</time>
      </trkpt>
      <trkpt lat="43.2847480" lon="-2.8655780">
        <ele>60.0</ele>
        <time>2018-09-03T14:37:36Z</time>
      </trkpt>
      <trkpt lat="43.2847870" lon="-2.8657550">
        <ele>59.8</ele>
        <time>2018-09-03T14:37:39Z</time>
      </trkpt>
      <trkpt lat="43.2848130" lon="-2.8658710">
        <ele>59.8</ele>
        <time>2018-09-03T14:37:41Z</time>
      </trkpt>
      <trkpt lat="43.2848500" lon="-2.8660380">
        <ele>59.2</ele>
        <time>2018-09-03T14:37:44Z</time>
      </trkpt>
      <trkpt lat="43.2848680" lon="-2.8660910">
        <ele>59.0</ele>
        <time>2018-09-03T14:37:45Z</time>
      </trkpt>
      <trkpt lat="43.2849400" lon="-2.8662360">
        <ele>58.8</ele>
        <time>2018-09-03T14:37:48Z</time>
      </trkpt>
      <trkpt lat="43.2848230" lon="-2.8663430">
        <ele>58.8</ele>
        <time>2018-09-03T14:37:53Z</time>
      </trkpt>
      <trkpt lat="43.2847940" lon="-2.8663240">
        <ele>58.8</ele>
        <time>2018-09-03T14:37:54Z</time>
      </trkpt>
      <trkpt lat="43.2847430" lon="-2.8662850">
        <ele>58.8</ele>
        <time>2018-09-03T14:37:56Z</time>
      </trkpt>
      <trkpt lat="43.2846960" lon="-2.8662480">
        <ele>59.0</ele>
        <time>2018-09-03T14:37:58Z</time>
      </trkpt>
      <trkpt lat="43.2846520" lon="-2.8662080">
        <ele>59.6</ele>
        <time>2018-09-03T14:38:00Z</time>
      </trkpt>
      <trkpt lat="43.2845950" lon="-2.8661540">
        <ele>60.4</ele>
        <time>2018-09-03T14:38:03Z</time>
      </trkpt>
      <trkpt lat="43.2845060" lon="-2.8660730">
        <ele>61.4</ele>
        <time>2018-09-03T14:38:08Z</time>
      </trkpt>
      <trkpt lat="43.2844270" lon="-2.8659830">
        <ele>62.4</ele>
        <time>2018-09-03T14:38:13Z</time>
      </trkpt>
      <trkpt lat="43.2844030" lon="-2.8659490">
        <ele>62.6</ele>
        <time>2018-09-03T14:38:15Z</time>
      </trkpt>
      <trkpt lat="43.2843120" lon="-2.8658360">
        <ele>63.8</ele>
        <time>2018-09-03T14:38:22Z</time>
      </trkpt>
      <trkpt lat="43.2842020" lon="-2.8657260">
        <ele>65.0</ele>
        <time>2018-09-03T14:38:29Z</time>
      </trkpt>
      <trkpt lat="43.2840040" lon="-2.8655700">
        <ele>66.0</ele>
        <time>2018-09-03T14:38:39Z</time>
      </trkpt>
      <trkpt lat="43.2838880" lon="-2.8655100">
        <ele>66.0</ele>
        <time>2018-09-03T14:38:43Z</time>
      </trkpt>
      <trkpt lat="43.2838060" lon="-2.8654820">
        <ele>66.0</ele>
        <time>2018-09-03T14:38:45Z</time>
      </trkpt>
      <trkpt lat="43.2837140" lon="-2.8655130">
        <ele>66.0</ele>
        <time>2018-09-03T14:38:47Z</time>
      </trkpt>
      <trkpt lat="43.2836090" lon="-2.8655620">
        <ele>65.8</ele>
        <time>2018-09-03T14:38:49Z</time>
      </trkpt>
      <trkpt lat="43.2834920" lon="-2.8655290">
        <ele>65.4</ele>
        <time>2018-09-03T14:38:51Z</time>
      </trkpt>
      <trkpt lat="43.2834440" lon="-2.8654830">
        <ele>64.6</ele>
        <time>2018-09-03T14:38:52Z</time>
      </trkpt>
      <trkpt lat="43.2833480" lon="-2.8653980">
        <ele>63.8</ele>
        <time>2018-09-03T14:38:54Z</time>
      </trkpt>
      <trkpt lat="43.2832910" lon="-2.8653770">
        <ele>63.4</ele>
        <time>2018-09-03T14:38:55Z</time>
      </trkpt>
      <trkpt lat="43.2831720" lon="-2.8653650">
        <ele>62.2</ele>
        <time>2018-09-03T14:38:57Z</time>
      </trkpt>
      <trkpt lat="43.2831160" lon="-2.8653700">
        <ele>61.4</ele>
        <time>2018-09-03T14:38:58Z</time>
      </trkpt>
      <trkpt lat="43.2830630" lon="-2.8653790">
        <ele>61.0</ele>
        <time>2018-09-03T14:38:59Z</time>
      </trkpt>
      <trkpt lat="43.2828170" lon="-2.8654790">
        <ele>60.4</ele>
        <time>2018-09-03T14:39:05Z</time>
      </trkpt>
      <trkpt lat="43.2826990" lon="-2.8656430">
        <ele>60.6</ele>
        <time>2018-09-03T14:39:10Z</time>
      </trkpt>
      <trkpt lat="43.2821690" lon="-2.8658500">
        <ele>62.2</ele>
        <time>2018-09-03T14:39:26Z</time>
      </trkpt>
      <trkpt lat="43.2819690" lon="-2.8659210">
        <ele>62.4</ele>
        <time>2018-09-03T14:39:33Z</time>
      </trkpt>
      <trkpt lat="43.2819010" lon="-2.8659420">
        <ele>62.8</ele>
        <time>2018-09-03T14:39:36Z</time>
      </trkpt>
      <trkpt lat="43.2818030" lon="-2.8659610">
        <ele>63.4</ele>
        <time>2018-09-03T14:39:41Z</time>
      </trkpt>
      <trkpt lat="43.2816830" lon="-2.8660120">
        <ele>64.4</ele>
        <time>2018-09-03T14:39:48Z</time>
      </trkpt>
      <trkpt lat="43.2815560" lon="-2.8660580">
        <ele>65.6</ele>
        <time>2018-09-03T14:39:57Z</time>
      </trkpt>
      <trkpt lat="43.2815520" lon="-2.8660120">
        <ele>66.2</ele>
        <time>2018-09-03T14:40:02Z</time>
      </trkpt>
      <trkpt lat="43.2816520" lon="-2.8659390">
        <ele>66.2</ele>
        <time>2018-09-03T14:40:06Z</time>
      </trkpt>
      <trkpt lat="43.2817490" lon="-2.8659010">
        <ele>66.2</ele>
        <time>2018-09-03T14:40:09Z</time>
      </trkpt>
      <trkpt lat="43.2818010" lon="-2.8659260">
        <ele>65.8</ele>
        <time>2018-09-03T14:40:11Z</time>
      </trkpt>
      <trkpt lat="43.2817880" lon="-2.8660000">
        <ele>65.0</ele>
        <time>2018-09-03T14:40:20Z</time>
      </trkpt>
      <trkpt lat="43.2817880" lon="-2.8660000">
        <ele>65.0</ele>
        <time>2018-09-03T14:40:21Z</time>
      </trkpt>
      <trkpt lat="43.2817880" lon="-2.8660000">
        <ele>65.0</ele>
        <time>2018-09-03T14:40:23Z</time>
      </trkpt>
      <trkpt lat="43.2817880" lon="-2.8660000">
        <ele>65.4</ele>
        <time>2018-09-03T14:40:31Z</time>
      </trkpt>
      <trkpt lat="43.2817830" lon="-2.8660040">
        <ele>65.4</ele>
        <time>2018-09-03T14:40:33Z</time>
      </trkpt>
      <trkpt lat="43.2817630" lon="-2.8660130">
        <ele>65.4</ele>
        <time>2018-09-03T14:40:35Z</time>
      </trkpt>
      <trkpt lat="43.2817480" lon="-2.8660190">
        <ele>65.4</ele>
        <time>2018-09-03T14:40:36Z</time>
      </trkpt>
      <trkpt lat="43.2817120" lon="-2.8660260">
        <ele>65.4</ele>
        <time>2018-09-03T14:40:38Z</time>
      </trkpt>
      <trkpt lat="43.2814380" lon="-2.8660530">
        <ele>66.8</ele>
        <time>2018-09-03T14:40:55Z</time>
      </trkpt>
      <trkpt lat="43.2813210" lon="-2.8660760">
        <ele>68.0</ele>
        <time>2018-09-03T14:41:03Z</time>
      </trkpt>
      <trkpt lat="43.2812530" lon="-2.8661080">
        <ele>68.8</ele>
        <time>2018-09-03T14:41:08Z</time>
      </trkpt>
      <trkpt lat="43.2812240" lon="-2.8661040">
        <ele>69.2</ele>
        <time>2018-09-03T14:41:10Z</time>
      </trkpt>
      <trkpt lat="43.2811250" lon="-2.8660860">
        <ele>69.6</ele>
        <time>2018-09-03T14:41:17Z</time>
      </trkpt>
      <trkpt lat="43.2810670" lon="-2.8661010">
        <ele>70.4</ele>
        <time>2018-09-03T14:41:21Z</time>
      </trkpt>
      <trkpt lat="43.2809130" lon="-2.8661100">
        <ele>71.6</ele>
        <time>2018-09-03T14:41:31Z</time>
      </trkpt>
      <trkpt lat="43.2808330" lon="-2.8661510">
        <ele>72.6</ele>
        <time>2018-09-03T14:41:37Z</time>
      </trkpt>
      <trkpt lat="43.2807330" lon="-2.8662100">
        <ele>73.6</ele>
        <time>2018-09-03T14:41:44Z</time>
      </trkpt>
      <trkpt lat="43.2806320" lon="-2.8662770">
        <ele>74.8</ele>
        <time>2018-09-03T14:41:52Z</time>
      </trkpt>
      <trkpt lat="43.2805900" lon="-2.8662910">
        <ele>75.4</ele>
        <time>2018-09-03T14:41:55Z</time>
      </trkpt>
      <trkpt lat="43.2805540" lon="-2.8663100">
        <ele>75.8</ele>
        <time>2018-09-03T14:41:58Z</time>
      </trkpt>
      <trkpt lat="43.2804080" lon="-2.8663850">
        <ele>77.0</ele>
        <time>2018-09-03T14:42:08Z</time>
      </trkpt>
      <trkpt lat="43.2802080" lon="-2.8665930">
        <ele>78.0</ele>
        <time>2018-09-03T14:42:23Z</time>
      </trkpt>
      <trkpt lat="43.2801750" lon="-2.8666190">
        <ele>78.2</ele>
        <time>2018-09-03T14:42:25Z</time>
      </trkpt>
      <trkpt lat="43.2800080" lon="-2.8667120">
        <ele>79.0</ele>
        <time>2018-09-03T14:42:34Z</time>
      </trkpt>
      <trkpt lat="43.2798780" lon="-2.8668210">
        <ele>80.4</ele>
        <time>2018-09-03T14:42:42Z</time>
      </trkpt>
      <trkpt lat="43.2796870" lon="-2.8669970">
        <ele>81.4</ele>
        <time>2018-09-03T14:42:52Z</time>
      </trkpt>
      <trkpt lat="43.2794390" lon="-2.8671940">
        <ele>82.2</ele>
        <time>2018-09-03T14:43:03Z</time>
      </trkpt>
      <trkpt lat="43.2793450" lon="-2.8672710">
        <ele>82.6</ele>
        <time>2018-09-03T14:43:07Z</time>
      </trkpt>
      <trkpt lat="43.2791510" lon="-2.8674160">
        <ele>83.2</ele>
        <time>2018-09-03T14:43:16Z</time>
      </trkpt>
      <trkpt lat="43.2791170" lon="-2.8674570">
        <ele>83.6</ele>
        <time>2018-09-03T14:43:18Z</time>
      </trkpt>
      <trkpt lat="43.2790150" lon="-2.8675970">
        <ele>84.6</ele>
        <time>2018-09-03T14:43:24Z</time>
      </trkpt>
      <trkpt lat="43.2789240" lon="-2.8677030">
        <ele>85.8</ele>
        <time>2018-09-03T14:43:29Z</time>
      </trkpt>
      <trkpt lat="43.2788240" lon="-2.8678080">
        <ele>86.8</ele>
        <time>2018-09-03T14:43:34Z</time>
      </trkpt>
      <trkpt lat="43.2787000" lon="-2.8679370">
        <ele>88.2</ele>
        <time>2018-09-03T14:43:40Z</time>
      </trkpt>
      <trkpt lat="43.2785790" lon="-2.8680540">
        <ele>89.2</ele>
        <time>2018-09-03T14:43:46Z</time>
      </trkpt>
      <trkpt lat="43.2784380" lon="-2.8682050">
        <ele>90.4</ele>
        <time>2018-09-03T14:43:53Z</time>
      </trkpt>
      <trkpt lat="43.2783270" lon="-2.8683920">
        <ele>91.4</ele>
        <time>2018-09-03T14:44:00Z</time>
      </trkpt>
      <trkpt lat="43.2782280" lon="-2.8686120">
        <ele>92.6</ele>
        <time>2018-09-03T14:44:07Z</time>
      </trkpt>
      <trkpt lat="43.2781200" lon="-2.8687710">
        <ele>93.6</ele>
        <time>2018-09-03T14:44:13Z</time>
      </trkpt>
      <trkpt lat="43.2779900" lon="-2.8688280">
        <ele>94.8</ele>
        <time>2018-09-03T14:44:18Z</time>
      </trkpt>
      <trkpt lat="43.2777050" lon="-2.8689320">
        <ele>95.8</ele>
        <time>2018-09-03T14:44:27Z</time>
      </trkpt>
      <trkpt lat="43.2774080" lon="-2.8688030">
        <ele>89.4</ele>
        <time>2018-09-03T14:44:36Z</time>
      </trkpt>
      <trkpt lat="43.2773710" lon="-2.8687800">
        <ele>96.8</ele>
        <time>2018-09-03T14:44:37Z</time>
      </trkpt>
      <trkpt lat="43.2773320" lon="-2.8687600">
        <ele>96.8</ele>
        <time>2018-09-03T14:44:38Z</time>
      </trkpt>
      <trkpt lat="43.2772560" lon="-2.8687290">
        <ele>96.8</ele>
        <time>2018-09-03T14:44:40Z</time>
      </trkpt>
      <trkpt lat="43.2769710" lon="-2.8686180">
        <ele>96.8</ele>
        <time>2018-09-03T14:44:47Z</time>
      </trkpt>
      <trkpt lat="43.2765720" lon="-2.8684420">
        <ele>97.2</ele>
        <time>2018-09-03T14:44:56Z</time>
      </trkpt>
      <trkpt lat="43.2764250" lon="-2.8682400">
        <ele>97.4</ele>
        <time>2018-09-03T14:45:01Z</time>
      </trkpt>
      <trkpt lat="43.2763190" lon="-2.8679520">
        <ele>97.8</ele>
        <time>2018-09-03T14:45:06Z</time>
      </trkpt>
      <trkpt lat="43.2763070" lon="-2.8679000">
        <ele>98.0</ele>
        <time>2018-09-03T14:45:07Z</time>
      </trkpt>
      <trkpt lat="43.2762650" lon="-2.8676690">
        <ele>99.0</ele>
        <time>2018-09-03T14:45:15Z</time>
      </trkpt>
      <trkpt lat="43.2762560" lon="-2.8676320">
        <ele>99.8</ele>
        <time>2018-09-03T14:45:17Z</time>
      </trkpt>
      <trkpt lat="43.2762490" lon="-2.8676150">
        <ele>100.2</ele>
        <time>2018-09-03T14:45:18Z</time>
      </trkpt>
      <trkpt lat="43.2762360" lon="-2.8675390">
        <ele>101.2</ele>
        <time>2018-09-03T14:45:22Z</time>
      </trkpt>
      <trkpt lat="43.2762220" lon="-2.8674750">
        <ele>102.0</ele>
        <time>2018-09-03T14:45:26Z</time>
      </trkpt>
      <trkpt lat="43.2762170" lon="-2.8674590">
        <ele>102.2</ele>
        <time>2018-09-03T14:45:27Z</time>
      </trkpt>
      <trkpt lat="43.2762020" lon="-2.8673770">
        <ele>103.4</ele>
        <time>2018-09-03T14:45:32Z</time>
      </trkpt>
      <trkpt lat="43.2761760" lon="-2.8673040">
        <ele>104.4</ele>
        <time>2018-09-03T14:45:37Z</time>
      </trkpt>
      <trkpt lat="43.2761540" lon="-2.8672070">
        <ele>105.4</ele>
        <time>2018-09-03T14:45:43Z</time>
      </trkpt>
      <trkpt lat="43.2761430" lon="-2.8671330">
        <ele>106.6</ele>
        <time>2018-09-03T14:45:47Z</time>
      </trkpt>
      <trkpt lat="43.2761210" lon="-2.8670100">
        <ele>107.8</ele>
        <time>2018-09-03T14:45:53Z</time>
      </trkpt>
      <trkpt lat="43.2760930" lon="-2.8668810">
        <ele>108.8</ele>
        <time>2018-09-03T14:45:59Z</time>
      </trkpt>
      <trkpt lat="43.2760460" lon="-2.8667650">
        <ele>110.0</ele>
        <time>2018-09-03T14:46:04Z</time>
      </trkpt>
      <trkpt lat="43.2759110" lon="-2.8666600">
        <ele>111.0</ele>
        <time>2018-09-03T14:46:13Z</time>
      </trkpt>
      <trkpt lat="43.2758630" lon="-2.8666440">
        <ele>111.2</ele>
        <time>2018-09-03T14:46:17Z</time>
      </trkpt>
      <trkpt lat="43.2758210" lon="-2.8666710">
        <ele>111.2</ele>
        <time>2018-09-03T14:46:20Z</time>
      </trkpt>
      <trkpt lat="43.2757800" lon="-2.8666880">
        <ele>111.0</ele>
        <time>2018-09-03T14:46:23Z</time>
      </trkpt>
      <trkpt lat="43.2756930" lon="-2.8667630">
        <ele>111.0</ele>
        <time>2018-09-03T14:46:29Z</time>
      </trkpt>
      <trkpt lat="43.2756470" lon="-2.8668020">
        <ele>111.0</ele>
        <time>2018-09-03T14:46:32Z</time>
      </trkpt>
      <trkpt lat="43.2756150" lon="-2.8668290">
        <ele>111.2</ele>
        <time>2018-09-03T14:46:34Z</time>
      </trkpt>
      <trkpt lat="43.2755820" lon="-2.8668550">
        <ele>111.4</ele>
        <time>2018-09-03T14:46:36Z</time>
      </trkpt>
      <trkpt lat="43.2755490" lon="-2.8668770">
        <ele>111.4</ele>
        <time>2018-09-03T14:46:38Z</time>
      </trkpt>
      <trkpt lat="43.2755030" lon="-2.8669200">
        <ele>111.6</ele>
        <time>2018-09-03T14:46:41Z</time>
      </trkpt>
      <trkpt lat="43.2754000" lon="-2.8670190">
        <ele>111.6</ele>
        <time>2018-09-03T14:46:48Z</time>
      </trkpt>
      <trkpt lat="43.2753050" lon="-2.8671610">
        <ele>111.6</ele>
        <time>2018-09-03T14:46:58Z</time>
      </trkpt>
      <trkpt lat="43.2753170" lon="-2.8670870">
        <ele>112.0</ele>
        <time>2018-09-03T14:47:08Z</time>
      </trkpt>
      <trkpt lat="43.2753280" lon="-2.8670720">
        <ele>112.2</ele>
        <time>2018-09-03T14:47:21Z</time>
      </trkpt>
      <trkpt lat="43.2753510" lon="-2.8670870">
        <ele>112.2</ele>
        <time>2018-09-03T14:47:23Z</time>
      </trkpt>
      <trkpt lat="43.2752770" lon="-2.8671190">
        <ele>112.2</ele>
        <time>2018-09-03T14:47:32Z</time>
      </trkpt>
      <trkpt lat="43.2753320" lon="-2.8670750">
        <ele>112.4</ele>
        <time>2018-09-03T14:47:37Z</time>
      </trkpt>
      <trkpt lat="43.2753420" lon="-2.8670570">
        <ele>112.4</ele>
        <time>2018-09-03T14:47:38Z</time>
      </trkpt>
      <trkpt lat="43.2753720" lon="-2.8670310">
        <ele>112.2</ele>
        <time>2018-09-03T14:47:40Z</time>
      </trkpt>
      <trkpt lat="43.2754440" lon="-2.8669640">
        <ele>112.2</ele>
        <time>2018-09-03T14:47:44Z</time>
      </trkpt>
      <trkpt lat="43.2755010" lon="-2.8669010">
        <ele>112.2</ele>
        <time>2018-09-03T14:47:47Z</time>
      </trkpt>
      <trkpt lat="43.2756130" lon="-2.8668610">
        <ele>112.0</ele>
        <time>2018-09-03T14:47:52Z</time>
      </trkpt>
      <trkpt lat="43.2755780" lon="-2.8669260">
        <ele>112.0</ele>
        <time>2018-09-03T14:47:56Z</time>
      </trkpt>
      <trkpt lat="43.2754870" lon="-2.8669680">
        <ele>111.8</ele>
        <time>2018-09-03T14:48:00Z</time>
      </trkpt>
      <trkpt lat="43.2754650" lon="-2.8669850">
        <ele>111.8</ele>
        <time>2018-09-03T14:48:01Z</time>
      </trkpt>
      <trkpt lat="43.2753560" lon="-2.8670670">
        <ele>111.6</ele>
        <time>2018-09-03T14:48:07Z</time>
      </trkpt>
      <trkpt lat="43.2753390" lon="-2.8671020">
        <ele>111.6</ele>
        <time>2018-09-03T14:48:10Z</time>
      </trkpt>
      <trkpt lat="43.2752990" lon="-2.8671720">
        <ele>111.8</ele>
        <time>2018-09-03T14:48:18Z</time>
      </trkpt>
      <trkpt lat="43.2753090" lon="-2.8672610">
        <ele>112.0</ele>
        <time>2018-09-03T14:48:22Z</time>
      </trkpt>
      <trkpt lat="43.2753320" lon="-2.8673440">
        <ele>112.0</ele>
        <time>2018-09-03T14:48:26Z</time>
      </trkpt>
      <trkpt lat="43.2755040" lon="-2.8676920">
        <ele>110.8</ele>
        <time>2018-09-03T14:48:33Z</time>
      </trkpt>
      <trkpt lat="43.2756500" lon="-2.8681180">
        <ele>109.0</ele>
        <time>2018-09-03T14:48:37Z</time>
      </trkpt>
      <trkpt lat="43.2756790" lon="-2.8682090">
        <ele>108.0</ele>
        <time>2018-09-03T14:48:38Z</time>
      </trkpt>
      <trkpt lat="43.2757050" lon="-2.8682870">
        <ele>106.2</ele>
        <time>2018-09-03T14:48:39Z</time>
      </trkpt>
      <trkpt lat="43.2757500" lon="-2.8684510">
        <ele>105.8</ele>
        <time>2018-09-03T14:48:42Z</time>
      </trkpt>
      <trkpt lat="43.2757640" lon="-2.8685450">
        <ele>105.6</ele>
        <time>2018-09-03T14:48:45Z</time>
      </trkpt>
      <trkpt lat="43.2757710" lon="-2.8686940">
        <ele>106.6</ele>
        <time>2018-09-03T14:48:50Z</time>
      </trkpt>
      <trkpt lat="43.2757700" lon="-2.8687560">
        <ele>107.4</ele>
        <time>2018-09-03T14:48:52Z</time>
      </trkpt>
      <trkpt lat="43.2757720" lon="-2.8690350">
        <ele>108.0</ele>
        <time>2018-09-03T14:49:00Z</time>
      </trkpt>
      <trkpt lat="43.2757720" lon="-2.8691370">
        <ele>108.0</ele>
        <time>2018-09-03T14:49:03Z</time>
      </trkpt>
      <trkpt lat="43.2757810" lon="-2.8694050">
        <ele>108.4</ele>
        <time>2018-09-03T14:49:12Z</time>
      </trkpt>
      <trkpt lat="43.2757640" lon="-2.8696260">
        <ele>109.6</ele>
        <time>2018-09-03T14:49:21Z</time>
      </trkpt>
      <trkpt lat="43.2757460" lon="-2.8698050">
        <ele>110.8</ele>
        <time>2018-09-03T14:49:29Z</time>
      </trkpt>
      <trkpt lat="43.2757290" lon="-2.8699160">
        <ele>111.6</ele>
        <time>2018-09-03T14:49:35Z</time>
      </trkpt>
      <trkpt lat="43.2757270" lon="-2.8699360">
        <ele>111.8</ele>
        <time>2018-09-03T14:49:36Z</time>
      </trkpt>
      <trkpt lat="43.2757240" lon="-2.8700670">
        <ele>113.0</ele>
        <time>2018-09-03T14:49:42Z</time>
      </trkpt>
      <trkpt lat="43.2757410" lon="-2.8701930">
        <ele>114.0</ele>
        <time>2018-09-03T14:49:49Z</time>
      </trkpt>
      <trkpt lat="43.2757440" lon="-2.8702660">
        <ele>114.6</ele>
        <time>2018-09-03T14:49:53Z</time>
      </trkpt>
      <trkpt lat="43.2757400" lon="-2.8703260">
        <ele>115.0</ele>
        <time>2018-09-03T14:49:56Z</time>
      </trkpt>
      <trkpt lat="43.2757460" lon="-2.8703840">
        <ele>115.4</ele>
        <time>2018-09-03T14:49:59Z</time>
      </trkpt>
      <trkpt lat="43.2757590" lon="-2.8704560">
        <ele>116.0</ele>
        <time>2018-09-03T14:50:03Z</time>
      </trkpt>
      <trkpt lat="43.2757720" lon="-2.8705430">
        <ele>117.0</ele>
        <time>2018-09-03T14:50:08Z</time>
      </trkpt>
      <trkpt lat="43.2757730" lon="-2.8706650">
        <ele>118.2</ele>
        <time>2018-09-03T14:50:15Z</time>
      </trkpt>
      <trkpt lat="43.2757650" lon="-2.8708050">
        <ele>119.4</ele>
        <time>2018-09-03T14:50:23Z</time>
      </trkpt>
      <trkpt lat="43.2757630" lon="-2.8709280">
        <ele>120.4</ele>
        <time>2018-09-03T14:50:31Z</time>
      </trkpt>
      <trkpt lat="43.2757450" lon="-2.8710350">
        <ele>121.8</ele>
        <time>2018-09-03T14:50:38Z</time>
      </trkpt>
      <trkpt lat="43.2757090" lon="-2.8711310">
        <ele>122.8</ele>
        <time>2018-09-03T14:50:45Z</time>
      </trkpt>
      <trkpt lat="43.2756690" lon="-2.8712320">
        <ele>124.0</ele>
        <time>2018-09-03T14:50:53Z</time>
      </trkpt>
      <trkpt lat="43.2756100" lon="-2.8712240">
        <ele>125.2</ele>
        <time>2018-09-03T14:50:58Z</time>
      </trkpt>
      <trkpt lat="43.2754890" lon="-2.8710820">
        <ele>126.2</ele>
        <time>2018-09-03T14:51:09Z</time>
      </trkpt>
      <trkpt lat="43.2754150" lon="-2.8709990">
        <ele>127.2</ele>
        <time>2018-09-03T14:51:16Z</time>
      </trkpt>
      <trkpt lat="43.2753320" lon="-2.8708860">
        <ele>128.4</ele>
        <time>2018-09-03T14:51:24Z</time>
      </trkpt>
      <trkpt lat="43.2752450" lon="-2.8708080">
        <ele>129.6</ele>
        <time>2018-09-03T14:51:31Z</time>
      </trkpt>
      <trkpt lat="43.2751120" lon="-2.8707060">
        <ele>130.6</ele>
        <time>2018-09-03T14:51:41Z</time>
      </trkpt>
      <trkpt lat="43.2750230" lon="-2.8706280">
        <ele>131.4</ele>
        <time>2018-09-03T14:51:48Z</time>
      </trkpt>
      <trkpt lat="43.2749850" lon="-2.8705970">
        <ele>131.6</ele>
        <time>2018-09-03T14:51:51Z</time>
      </trkpt>
      <trkpt lat="43.2748060" lon="-2.8704340">
        <ele>132.8</ele>
        <time>2018-09-03T14:52:06Z</time>
      </trkpt>
      <trkpt lat="43.2747120" lon="-2.8703900">
        <ele>133.8</ele>
        <time>2018-09-03T14:52:14Z</time>
      </trkpt>
      <trkpt lat="43.2746510" lon="-2.8703710">
        <ele>134.8</ele>
        <time>2018-09-03T14:52:20Z</time>
      </trkpt>
      <trkpt lat="43.2745880" lon="-2.8703610">
        <ele>136.2</ele>
        <time>2018-09-03T14:52:26Z</time>
      </trkpt>
      <trkpt lat="43.2745260" lon="-2.8703500">
        <ele>137.4</ele>
        <time>2018-09-03T14:52:32Z</time>
      </trkpt>
      <trkpt lat="43.2744520" lon="-2.8703440">
        <ele>138.6</ele>
        <time>2018-09-03T14:52:39Z</time>
      </trkpt>
      <trkpt lat="43.2743910" lon="-2.8703340">
        <ele>139.6</ele>
        <time>2018-09-03T14:52:45Z</time>
      </trkpt>
      <trkpt lat="43.2743390" lon="-2.8703250">
        <ele>140.6</ele>
        <time>2018-09-03T14:52:50Z</time>
      </trkpt>
      <trkpt lat="43.2742750" lon="-2.8703280">
        <ele>141.8</ele>
        <time>2018-09-03T14:52:57Z</time>
      </trkpt>
      <trkpt lat="43.2741990" lon="-2.8703270">
        <ele>142.8</ele>
        <time>2018-09-03T14:53:05Z</time>
      </trkpt>
      <trkpt lat="43.2741800" lon="-2.8703300">
        <ele>143.2</ele>
        <time>2018-09-03T14:53:07Z</time>
      </trkpt>
      <trkpt lat="43.2741600" lon="-2.8703390">
        <ele>143.8</ele>
        <time>2018-09-03T14:53:09Z</time>
      </trkpt>
      <trkpt lat="43.2741070" lon="-2.8703460">
        <ele>145.4</ele>
        <time>2018-09-03T14:53:14Z</time>
      </trkpt>
      <trkpt lat="43.2740660" lon="-2.8703530">
        <ele>146.6</ele>
        <time>2018-09-03T14:53:18Z</time>
      </trkpt>
      <trkpt lat="43.2740080" lon="-2.8703530">
        <ele>147.8</ele>
        <time>2018-09-03T14:53:23Z</time>
      </trkpt>
      <trkpt lat="43.2739480" lon="-2.8703590">
        <ele>148.8</ele>
        <time>2018-09-03T14:53:28Z</time>
      </trkpt>
      <trkpt lat="43.2738560" lon="-2.8703700">
        <ele>150.0</ele>
        <time>2018-09-03T14:53:35Z</time>
      </trkpt>
      <trkpt lat="43.2737870" lon="-2.8703690">
        <ele>151.0</ele>
        <time>2018-09-03T14:53:40Z</time>
      </trkpt>
      <trkpt lat="43.2736970" lon="-2.8703670">
        <ele>152.2</ele>
        <time>2018-09-03T14:53:47Z</time>
      </trkpt>
      <trkpt lat="43.2736350" lon="-2.8703620">
        <ele>153.4</ele>
        <time>2018-09-03T14:53:52Z</time>
      </trkpt>
      <trkpt lat="43.2735610" lon="-2.8703370">
        <ele>154.4</ele>
        <time>2018-09-03T14:53:58Z</time>
      </trkpt>
      <trkpt lat="43.2734590" lon="-2.8702910">
        <ele>155.4</ele>
        <time>2018-09-03T14:54:06Z</time>
      </trkpt>
      <trkpt lat="43.2734460" lon="-2.8702860">
        <ele>155.6</ele>
        <time>2018-09-03T14:54:07Z</time>
      </trkpt>
      <trkpt lat="43.2733120" lon="-2.8702000">
        <ele>156.6</ele>
        <time>2018-09-03T14:54:17Z</time>
      </trkpt>
      <trkpt lat="43.2732160" lon="-2.8701470">
        <ele>157.8</ele>
        <time>2018-09-03T14:54:25Z</time>
      </trkpt>
      <trkpt lat="43.2732020" lon="-2.8701420">
        <ele>158.0</ele>
        <time>2018-09-03T14:54:26Z</time>
      </trkpt>
      <trkpt lat="43.2731350" lon="-2.8701190">
        <ele>158.8</ele>
        <time>2018-09-03T14:54:32Z</time>
      </trkpt>
      <trkpt lat="43.2731250" lon="-2.8701130">
        <ele>158.8</ele>
        <time>2018-09-03T14:54:33Z</time>
      </trkpt>
      <trkpt lat="43.2731140" lon="-2.8701080">
        <ele>159.0</ele>
        <time>2018-09-03T14:54:34Z</time>
      </trkpt>
      <trkpt lat="43.2730590" lon="-2.8700750">
        <ele>159.8</ele>
        <time>2018-09-03T14:54:39Z</time>
      </trkpt>
      <trkpt lat="43.2730460" lon="-2.8700710">
        <ele>160.0</ele>
        <time>2018-09-03T14:54:40Z</time>
      </trkpt>
      <trkpt lat="43.2729920" lon="-2.8700480">
        <ele>161.0</ele>
        <time>2018-09-03T14:54:46Z</time>
      </trkpt>
      <trkpt lat="43.2729510" lon="-2.8700280">
        <ele>162.2</ele>
        <time>2018-09-03T14:54:51Z</time>
      </trkpt>
      <trkpt lat="43.2729050" lon="-2.8700240">
        <ele>163.2</ele>
        <time>2018-09-03T14:54:55Z</time>
      </trkpt>
      <trkpt lat="43.2728530" lon="-2.8700300">
        <ele>164.4</ele>
        <time>2018-09-03T14:54:59Z</time>
      </trkpt>
      <trkpt lat="43.2728060" lon="-2.8700410">
        <ele>165.4</ele>
        <time>2018-09-03T14:55:03Z</time>
      </trkpt>
      <trkpt lat="43.2727350" lon="-2.8700570">
        <ele>166.6</ele>
        <time>2018-09-03T14:55:09Z</time>
      </trkpt>
      <trkpt lat="43.2726740" lon="-2.8700810">
        <ele>167.6</ele>
        <time>2018-09-03T14:55:15Z</time>
      </trkpt>
      <trkpt lat="43.2726410" lon="-2.8700880">
        <ele>168.6</ele>
        <time>2018-09-03T14:55:20Z</time>
      </trkpt>
      <trkpt lat="43.2725870" lon="-2.8701170">
        <ele>169.6</ele>
        <time>2018-09-03T14:55:25Z</time>
      </trkpt>
      <trkpt lat="43.2725770" lon="-2.8701240">
        <ele>170.0</ele>
        <time>2018-09-03T14:55:26Z</time>
      </trkpt>
      <trkpt lat="43.2725470" lon="-2.8701580">
        <ele>171.0</ele>
        <time>2018-09-03T14:55:30Z</time>
      </trkpt>
      <trkpt lat="43.2725310" lon="-2.8701750">
        <ele>172.2</ele>
        <time>2018-09-03T14:55:32Z</time>
      </trkpt>
      <trkpt lat="43.2725000" lon="-2.8702080">
        <ele>173.4</ele>
        <time>2018-09-03T14:55:36Z</time>
      </trkpt>
      <trkpt lat="43.2724710" lon="-2.8702550">
        <ele>174.6</ele>
        <time>2018-09-03T14:55:40Z</time>
      </trkpt>
      <trkpt lat="43.2724530" lon="-2.8703380">
        <ele>175.6</ele>
        <time>2018-09-03T14:55:45Z</time>
      </trkpt>
      <trkpt lat="43.2724430" lon="-2.8704090">
        <ele>176.6</ele>
        <time>2018-09-03T14:55:50Z</time>
      </trkpt>
      <trkpt lat="43.2724380" lon="-2.8704680">
        <ele>177.8</ele>
        <time>2018-09-03T14:55:55Z</time>
      </trkpt>
      <trkpt lat="43.2724500" lon="-2.8705630">
        <ele>179.0</ele>
        <time>2018-09-03T14:56:01Z</time>
      </trkpt>
      <trkpt lat="43.2724600" lon="-2.8706130">
        <ele>179.6</ele>
        <time>2018-09-03T14:56:04Z</time>
      </trkpt>
      <trkpt lat="43.2724660" lon="-2.8706420">
        <ele>180.2</ele>
        <time>2018-09-03T14:56:06Z</time>
      </trkpt>
      <trkpt lat="43.2724850" lon="-2.8707130">
        <ele>181.2</ele>
        <time>2018-09-03T14:56:11Z</time>
      </trkpt>
      <trkpt lat="43.2725050" lon="-2.8708100">
        <ele>182.4</ele>
        <time>2018-09-03T14:56:17Z</time>
      </trkpt>
      <trkpt lat="43.2724850" lon="-2.8709380">
        <ele>183.6</ele>
        <time>2018-09-03T14:56:24Z</time>
      </trkpt>
      <trkpt lat="43.2724720" lon="-2.8710210">
        <ele>184.4</ele>
        <time>2018-09-03T14:56:30Z</time>
      </trkpt>
      <trkpt lat="43.2724720" lon="-2.8710320">
        <ele>184.6</ele>
        <time>2018-09-03T14:56:31Z</time>
      </trkpt>
      <trkpt lat="43.2724630" lon="-2.8711070">
        <ele>186.0</ele>
        <time>2018-09-03T14:56:36Z</time>
      </trkpt>
      <trkpt lat="43.2724510" lon="-2.8711610">
        <ele>187.0</ele>
        <time>2018-09-03T14:56:40Z</time>
      </trkpt>
      <trkpt lat="43.2724350" lon="-2.8712400">
        <ele>188.2</ele>
        <time>2018-09-03T14:56:45Z</time>
      </trkpt>
      <trkpt lat="43.2724300" lon="-2.8713270">
        <ele>189.4</ele>
        <time>2018-09-03T14:56:50Z</time>
      </trkpt>
      <trkpt lat="43.2724280" lon="-2.8714150">
        <ele>190.4</ele>
        <time>2018-09-03T14:56:55Z</time>
      </trkpt>
      <trkpt lat="43.2724140" lon="-2.8714730">
        <ele>191.8</ele>
        <time>2018-09-03T14:57:01Z</time>
      </trkpt>
      <trkpt lat="43.2724000" lon="-2.8715040">
        <ele>192.8</ele>
        <time>2018-09-03T14:57:05Z</time>
      </trkpt>
      <trkpt lat="43.2723770" lon="-2.8716060">
        <ele>194.0</ele>
        <time>2018-09-03T14:57:11Z</time>
      </trkpt>
      <trkpt lat="43.2723420" lon="-2.8716870">
        <ele>195.0</ele>
        <time>2018-09-03T14:57:17Z</time>
      </trkpt>
      <trkpt lat="43.2722840" lon="-2.8717970">
        <ele>196.2</ele>
        <time>2018-09-03T14:57:27Z</time>
      </trkpt>
      <trkpt lat="43.2722380" lon="-2.8718940">
        <ele>197.4</ele>
        <time>2018-09-03T14:57:35Z</time>
      </trkpt>
      <trkpt lat="43.2722100" lon="-2.8719810">
        <ele>198.4</ele>
        <time>2018-09-03T14:57:41Z</time>
      </trkpt>
      <trkpt lat="43.2721730" lon="-2.8720540">
        <ele>199.6</ele>
        <time>2018-09-03T14:57:47Z</time>
      </trkpt>
      <trkpt lat="43.2721410" lon="-2.8721060">
        <ele>200.6</ele>
        <time>2018-09-03T14:57:51Z</time>
      </trkpt>
      <trkpt lat="43.2721130" lon="-2.8721630">
        <ele>202.0</ele>
        <time>2018-09-03T14:57:55Z</time>
      </trkpt>
      <trkpt lat="43.2721000" lon="-2.8722040">
        <ele>203.0</ele>
        <time>2018-09-03T14:57:59Z</time>
      </trkpt>
      <trkpt lat="43.2720940" lon="-2.8722450">
        <ele>204.0</ele>
        <time>2018-09-03T14:58:02Z</time>
      </trkpt>
      <trkpt lat="43.2720880" lon="-2.8722680">
        <ele>204.4</ele>
        <time>2018-09-03T14:58:04Z</time>
      </trkpt>
      <trkpt lat="43.2720800" lon="-2.8723040">
        <ele>205.2</ele>
        <time>2018-09-03T14:58:07Z</time>
      </trkpt>
      <trkpt lat="43.2720680" lon="-2.8723810">
        <ele>206.2</ele>
        <time>2018-09-03T14:58:11Z</time>
      </trkpt>
      <trkpt lat="43.2720490" lon="-2.8724070">
        <ele>207.6</ele>
        <time>2018-09-03T14:58:15Z</time>
      </trkpt>
      <trkpt lat="43.2720350" lon="-2.8723800">
        <ele>208.6</ele>
        <time>2018-09-03T14:58:19Z</time>
      </trkpt>
      <trkpt lat="43.2720190" lon="-2.8723170">
        <ele>209.4</ele>
        <time>2018-09-03T14:58:24Z</time>
      </trkpt>
      <trkpt lat="43.2720140" lon="-2.8723040">
        <ele>210.2</ele>
        <time>2018-09-03T14:58:25Z</time>
      </trkpt>
      <trkpt lat="43.2719910" lon="-2.8722520">
        <ele>211.2</ele>
        <time>2018-09-03T14:58:29Z</time>
      </trkpt>
      <trkpt lat="43.2719580" lon="-2.8721940">
        <ele>212.4</ele>
        <time>2018-09-03T14:58:34Z</time>
      </trkpt>
      <trkpt lat="43.2719220" lon="-2.8721290">
        <ele>213.6</ele>
        <time>2018-09-03T14:58:40Z</time>
      </trkpt>
      <trkpt lat="43.2718360" lon="-2.8720680">
        <ele>214.6</ele>
        <time>2018-09-03T14:58:48Z</time>
      </trkpt>
      <trkpt lat="43.2718210" lon="-2.8720570">
        <ele>214.8</ele>
        <time>2018-09-03T14:58:49Z</time>
      </trkpt>
      <trkpt lat="43.2717530" lon="-2.8720270">
        <ele>215.8</ele>
        <time>2018-09-03T14:58:54Z</time>
      </trkpt>
      <trkpt lat="43.2716940" lon="-2.8719850">
        <ele>217.2</ele>
        <time>2018-09-03T14:58:59Z</time>
      </trkpt>
      <trkpt lat="43.2716460" lon="-2.8719560">
        <ele>218.2</ele>
        <time>2018-09-03T14:59:04Z</time>
      </trkpt>
      <trkpt lat="43.2715910" lon="-2.8719380">
        <ele>219.4</ele>
        <time>2018-09-03T14:59:09Z</time>
      </trkpt>
      <trkpt lat="43.2715550" lon="-2.8719210">
        <ele>220.4</ele>
        <time>2018-09-03T14:59:13Z</time>
      </trkpt>
      <trkpt lat="43.2714990" lon="-2.8718750">
        <ele>221.4</ele>
        <time>2018-09-03T14:59:18Z</time>
      </trkpt>
      <trkpt lat="43.2714490" lon="-2.8718580">
        <ele>222.6</ele>
        <time>2018-09-03T14:59:23Z</time>
      </trkpt>
      <trkpt lat="43.2714020" lon="-2.8718520">
        <ele>223.6</ele>
        <time>2018-09-03T14:59:27Z</time>
      </trkpt>
      <trkpt lat="43.2713920" lon="-2.8718510">
        <ele>224.0</ele>
        <time>2018-09-03T14:59:28Z</time>
      </trkpt>
      <trkpt lat="43.2713590" lon="-2.8718560">
        <ele>224.6</ele>
        <time>2018-09-03T14:59:31Z</time>
      </trkpt>
      <trkpt lat="43.2713270" lon="-2.8718610">
        <ele>225.8</ele>
        <time>2018-09-03T14:59:34Z</time>
      </trkpt>
      <trkpt lat="43.2712730" lon="-2.8718640">
        <ele>226.6</ele>
        <time>2018-09-03T14:59:39Z</time>
      </trkpt>
      <trkpt lat="43.2712080" lon="-2.8718930">
        <ele>227.8</ele>
        <time>2018-09-03T14:59:45Z</time>
      </trkpt>
      <trkpt lat="43.2711530" lon="-2.8719240">
        <ele>229.0</ele>
        <time>2018-09-03T14:59:51Z</time>
      </trkpt>
      <trkpt lat="43.2710790" lon="-2.8719490">
        <ele>230.0</ele>
        <time>2018-09-03T14:59:58Z</time>
      </trkpt>
      <trkpt lat="43.2710080" lon="-2.8719660">
        <ele>231.2</ele>
        <time>2018-09-03T15:00:06Z</time>
      </trkpt>
      <trkpt lat="43.2709510" lon="-2.8719620">
        <ele>232.2</ele>
        <time>2018-09-03T15:00:12Z</time>
      </trkpt>
      <trkpt lat="43.2708830" lon="-2.8719420">
        <ele>233.4</ele>
        <time>2018-09-03T15:00:19Z</time>
      </trkpt>
      <trkpt lat="43.2708330" lon="-2.8719440">
        <ele>234.4</ele>
        <time>2018-09-03T15:00:23Z</time>
      </trkpt>
      <trkpt lat="43.2707840" lon="-2.8719580">
        <ele>235.6</ele>
        <time>2018-09-03T15:00:28Z</time>
      </trkpt>
      <trkpt lat="43.2707210" lon="-2.8719690">
        <ele>236.6</ele>
        <time>2018-09-03T15:00:33Z</time>
      </trkpt>
      <trkpt lat="43.2706700" lon="-2.8719820">
        <ele>237.2</ele>
        <time>2018-09-03T15:00:37Z</time>
      </trkpt>
      <trkpt lat="43.2706480" lon="-2.8719920">
        <ele>237.8</ele>
        <time>2018-09-03T15:00:39Z</time>
      </trkpt>
      <trkpt lat="43.2706070" lon="-2.8720220">
        <ele>239.0</ele>
        <time>2018-09-03T15:00:43Z</time>
      </trkpt>
      <trkpt lat="43.2705910" lon="-2.8720340">
        <ele>239.2</ele>
        <time>2018-09-03T15:00:44Z</time>
      </trkpt>
      <trkpt lat="43.2705320" lon="-2.8721260">
        <ele>240.0</ele>
        <time>2018-09-03T15:00:49Z</time>
      </trkpt>
      <trkpt lat="43.2704900" lon="-2.8722320">
        <ele>241.2</ele>
        <time>2018-09-03T15:00:54Z</time>
      </trkpt>
      <trkpt lat="43.2704680" lon="-2.8723710">
        <ele>242.2</ele>
        <time>2018-09-03T15:01:02Z</time>
      </trkpt>
      <trkpt lat="43.2704460" lon="-2.8725110">
        <ele>243.2</ele>
        <time>2018-09-03T15:01:10Z</time>
      </trkpt>
      <trkpt lat="43.2704400" lon="-2.8725250">
        <ele>243.2</ele>
        <time>2018-09-03T15:01:11Z</time>
      </trkpt>
      <trkpt lat="43.2704070" lon="-2.8726780">
        <ele>244.0</ele>
        <time>2018-09-03T15:01:19Z</time>
      </trkpt>
      <trkpt lat="43.2704070" lon="-2.8727210">
        <ele>244.2</ele>
        <time>2018-09-03T15:01:21Z</time>
      </trkpt>
      <trkpt lat="43.2703880" lon="-2.8728620">
        <ele>245.4</ele>
        <time>2018-09-03T15:01:29Z</time>
      </trkpt>
      <trkpt lat="43.2703690" lon="-2.8729780">
        <ele>246.4</ele>
        <time>2018-09-03T15:01:35Z</time>
      </trkpt>
      <trkpt lat="43.2703630" lon="-2.8730880">
        <ele>247.0</ele>
        <time>2018-09-03T15:01:39Z</time>
      </trkpt>
      <trkpt lat="43.2703540" lon="-2.8731440">
        <ele>247.0</ele>
        <time>2018-09-03T15:01:41Z</time>
      </trkpt>
      <trkpt lat="43.2703040" lon="-2.8732450">
        <ele>247.0</ele>
        <time>2018-09-03T15:01:46Z</time>
      </trkpt>
      <trkpt lat="43.2702890" lon="-2.8733520">
        <ele>247.0</ele>
        <time>2018-09-03T15:01:51Z</time>
      </trkpt>
      <trkpt lat="43.2702850" lon="-2.8734490">
        <ele>247.2</ele>
        <time>2018-09-03T15:01:56Z</time>
      </trkpt>
      <trkpt lat="43.2702740" lon="-2.8734700">
        <ele>247.2</ele>
        <time>2018-09-03T15:01:58Z</time>
      </trkpt>
      <trkpt lat="43.2702620" lon="-2.8735020">
        <ele>247.4</ele>
        <time>2018-09-03T15:02:01Z</time>
      </trkpt>
      <trkpt lat="43.2702580" lon="-2.8735280">
        <ele>247.4</ele>
        <time>2018-09-03T15:02:03Z</time>
      </trkpt>
      <trkpt lat="43.2702650" lon="-2.8735570">
        <ele>247.6</ele>
        <time>2018-09-03T15:02:05Z</time>
      </trkpt>
      <trkpt lat="43.2702640" lon="-2.8735830">
        <ele>247.6</ele>
        <time>2018-09-03T15:02:07Z</time>
      </trkpt>
      <trkpt lat="43.2702680" lon="-2.8736740">
        <ele>247.6</ele>
        <time>2018-09-03T15:02:13Z</time>
      </trkpt>
      <trkpt lat="43.2702560" lon="-2.8737540">
        <ele>247.6</ele>
        <time>2018-09-03T15:02:17Z</time>
      </trkpt>
      <trkpt lat="43.2702380" lon="-2.8739140">
        <ele>247.4</ele>
        <time>2018-09-03T15:02:24Z</time>
      </trkpt>
      <trkpt lat="43.2702530" lon="-2.8742250">
        <ele>247.2</ele>
        <time>2018-09-03T15:02:34Z</time>
      </trkpt>
      <trkpt lat="43.2702320" lon="-2.8744730">
        <ele>247.8</ele>
        <time>2018-09-03T15:02:44Z</time>
      </trkpt>
      <trkpt lat="43.2702090" lon="-2.8746360">
        <ele>248.4</ele>
        <time>2018-09-03T15:02:50Z</time>
      </trkpt>
      <trkpt lat="43.2702020" lon="-2.8747310">
        <ele>248.4</ele>
        <time>2018-09-03T15:02:53Z</time>
      </trkpt>
      <trkpt lat="43.2701690" lon="-2.8749680">
        <ele>249.6</ele>
        <time>2018-09-03T15:03:01Z</time>
      </trkpt>
      <trkpt lat="43.2701600" lon="-2.8750490">
        <ele>250.2</ele>
        <time>2018-09-03T15:03:04Z</time>
      </trkpt>
      <trkpt lat="43.2701450" lon="-2.8751270">
        <ele>250.6</ele>
        <time>2018-09-03T15:03:07Z</time>
      </trkpt>
      <trkpt lat="43.2701380" lon="-2.8752530">
        <ele>251.4</ele>
        <time>2018-09-03T15:03:12Z</time>
      </trkpt>
      <trkpt lat="43.2701310" lon="-2.8753030">
        <ele>251.6</ele>
        <time>2018-09-03T15:03:14Z</time>
      </trkpt>
      <trkpt lat="43.2701190" lon="-2.8754820">
        <ele>252.8</ele>
        <time>2018-09-03T15:03:21Z</time>
      </trkpt>
      <trkpt lat="43.2701060" lon="-2.8755880">
        <ele>253.8</ele>
        <time>2018-09-03T15:03:27Z</time>
      </trkpt>
      <trkpt lat="43.2700980" lon="-2.8757060">
        <ele>254.8</ele>
        <time>2018-09-03T15:03:34Z</time>
      </trkpt>
      <trkpt lat="43.2700880" lon="-2.8758010">
        <ele>256.0</ele>
        <time>2018-09-03T15:03:39Z</time>
      </trkpt>
      <trkpt lat="43.2700800" lon="-2.8759450">
        <ele>257.0</ele>
        <time>2018-09-03T15:03:45Z</time>
      </trkpt>
      <trkpt lat="43.2700670" lon="-2.8760830">
        <ele>258.2</ele>
        <time>2018-09-03T15:03:51Z</time>
      </trkpt>
      <trkpt lat="43.2700510" lon="-2.8762590">
        <ele>259.2</ele>
        <time>2018-09-03T15:03:58Z</time>
      </trkpt>
      <trkpt lat="43.2700320" lon="-2.8763880">
        <ele>260.2</ele>
        <time>2018-09-03T15:04:06Z</time>
      </trkpt>
      <trkpt lat="43.2700200" lon="-2.8764820">
        <ele>260.6</ele>
        <time>2018-09-03T15:04:10Z</time>
      </trkpt>
      <trkpt lat="43.2700030" lon="-2.8766020">
        <ele>261.2</ele>
        <time>2018-09-03T15:04:16Z</time>
      </trkpt>
      <trkpt lat="43.2699850" lon="-2.8766910">
        <ele>261.8</ele>
        <time>2018-09-03T15:04:20Z</time>
      </trkpt>
      <trkpt lat="43.2699760" lon="-2.8767700">
        <ele>262.2</ele>
        <time>2018-09-03T15:04:24Z</time>
      </trkpt>
      <trkpt lat="43.2699720" lon="-2.8768810">
        <ele>263.2</ele>
        <time>2018-09-03T15:04:30Z</time>
      </trkpt>
      <trkpt lat="43.2699700" lon="-2.8769030">
        <ele>263.4</ele>
        <time>2018-09-03T15:04:31Z</time>
      </trkpt>
      <trkpt lat="43.2699330" lon="-2.8770160">
        <ele>264.4</ele>
        <time>2018-09-03T15:04:37Z</time>
      </trkpt>
      <trkpt lat="43.2698750" lon="-2.8771640">
        <ele>265.6</ele>
        <time>2018-09-03T15:04:45Z</time>
      </trkpt>
      <trkpt lat="43.2698300" lon="-2.8772490">
        <ele>266.6</ele>
        <time>2018-09-03T15:04:51Z</time>
      </trkpt>
      <trkpt lat="43.2697730" lon="-2.8773670">
        <ele>267.8</ele>
        <time>2018-09-03T15:04:57Z</time>
      </trkpt>
      <trkpt lat="43.2697170" lon="-2.8774740">
        <ele>268.8</ele>
        <time>2018-09-03T15:05:04Z</time>
      </trkpt>
      <trkpt lat="43.2696880" lon="-2.8775260">
        <ele>269.4</ele>
        <time>2018-09-03T15:05:07Z</time>
      </trkpt>
      <trkpt lat="43.2695100" lon="-2.8778320">
        <ele>269.8</ele>
        <time>2018-09-03T15:05:20Z</time>
      </trkpt>
      <trkpt lat="43.2694940" lon="-2.8778820">
        <ele>269.8</ele>
        <time>2018-09-03T15:05:22Z</time>
      </trkpt>
      <trkpt lat="43.2694680" lon="-2.8779740">
        <ele>269.8</ele>
        <time>2018-09-03T15:05:25Z</time>
      </trkpt>
      <trkpt lat="43.2694340" lon="-2.8780870">
        <ele>269.8</ele>
        <time>2018-09-03T15:05:29Z</time>
      </trkpt>
      <trkpt lat="43.2693420" lon="-2.8785270">
        <ele>271.0</ele>
        <time>2018-09-03T15:05:44Z</time>
      </trkpt>
      <trkpt lat="43.2692800" lon="-2.8787760">
        <ele>272.2</ele>
        <time>2018-09-03T15:05:51Z</time>
      </trkpt>
      <trkpt lat="43.2692440" lon="-2.8788820">
        <ele>272.6</ele>
        <time>2018-09-03T15:05:55Z</time>
      </trkpt>
      <trkpt lat="43.2691250" lon="-2.8796260">
        <ele>272.8</ele>
        <time>2018-09-03T15:06:12Z</time>
      </trkpt>
      <trkpt lat="43.2691010" lon="-2.8798410">
        <ele>273.2</ele>
        <time>2018-09-03T15:06:18Z</time>
      </trkpt>
      <trkpt lat="43.2690740" lon="-2.8801230">
        <ele>274.2</ele>
        <time>2018-09-03T15:06:26Z</time>
      </trkpt>
      <trkpt lat="43.2690630" lon="-2.8802000">
        <ele>274.6</ele>
        <time>2018-09-03T15:06:29Z</time>
      </trkpt>
      <trkpt lat="43.2690640" lon="-2.8803110">
        <ele>275.2</ele>
        <time>2018-09-03T15:06:33Z</time>
      </trkpt>
      <trkpt lat="43.2690760" lon="-2.8804680">
        <ele>276.2</ele>
        <time>2018-09-03T15:06:39Z</time>
      </trkpt>
      <trkpt lat="43.2690820" lon="-2.8805870">
        <ele>277.4</ele>
        <time>2018-09-03T15:06:44Z</time>
      </trkpt>
      <trkpt lat="43.2691080" lon="-2.8807290">
        <ele>278.4</ele>
        <time>2018-09-03T15:06:50Z</time>
      </trkpt>
      <trkpt lat="43.2691230" lon="-2.8808570">
        <ele>279.6</ele>
        <time>2018-09-03T15:06:56Z</time>
      </trkpt>
      <trkpt lat="43.2691480" lon="-2.8809450">
        <ele>280.2</ele>
        <time>2018-09-03T15:07:00Z</time>
      </trkpt>
      <trkpt lat="43.2691660" lon="-2.8810110">
        <ele>280.6</ele>
        <time>2018-09-03T15:07:03Z</time>
      </trkpt>
      <trkpt lat="43.2691680" lon="-2.8811860">
        <ele>281.8</ele>
        <time>2018-09-03T15:07:12Z</time>
      </trkpt>
      <trkpt lat="43.2692180" lon="-2.8813500">
        <ele>282.8</ele>
        <time>2018-09-03T15:07:19Z</time>
      </trkpt>
      <trkpt lat="43.2692480" lon="-2.8814950">
        <ele>283.6</ele>
        <time>2018-09-03T15:07:25Z</time>
      </trkpt>
      <trkpt lat="43.2692590" lon="-2.8815370">
        <ele>284.0</ele>
        <time>2018-09-03T15:07:27Z</time>
      </trkpt>
      <trkpt lat="43.2692600" lon="-2.8816440">
        <ele>284.4</ele>
        <time>2018-09-03T15:07:31Z</time>
      </trkpt>
      <trkpt lat="43.2692740" lon="-2.8817460">
        <ele>285.0</ele>
        <time>2018-09-03T15:07:35Z</time>
      </trkpt>
      <trkpt lat="43.2692860" lon="-2.8819100">
        <ele>286.2</ele>
        <time>2018-09-03T15:07:43Z</time>
      </trkpt>
      <trkpt lat="43.2693010" lon="-2.8820490">
        <ele>286.8</ele>
        <time>2018-09-03T15:07:49Z</time>
      </trkpt>
      <trkpt lat="43.2693020" lon="-2.8821000">
        <ele>287.2</ele>
        <time>2018-09-03T15:07:52Z</time>
      </trkpt>
      <trkpt lat="43.2693150" lon="-2.8822360">
        <ele>288.4</ele>
        <time>2018-09-03T15:08:02Z</time>
      </trkpt>
      <trkpt lat="43.2693300" lon="-2.8824270">
        <ele>289.4</ele>
        <time>2018-09-03T15:08:11Z</time>
      </trkpt>
      <trkpt lat="43.2693110" lon="-2.8826230">
        <ele>290.4</ele>
        <time>2018-09-03T15:08:19Z</time>
      </trkpt>
      <trkpt lat="43.2693000" lon="-2.8828170">
        <ele>291.4</ele>
        <time>2018-09-03T15:08:26Z</time>
      </trkpt>
      <trkpt lat="43.2692880" lon="-2.8831080">
        <ele>292.6</ele>
        <time>2018-09-03T15:08:35Z</time>
      </trkpt>
      <trkpt lat="43.2693120" lon="-2.8834590">
        <ele>293.8</ele>
        <time>2018-09-03T15:08:45Z</time>
      </trkpt>
      <trkpt lat="43.2693620" lon="-2.8837270">
        <ele>294.8</ele>
        <time>2018-09-03T15:08:54Z</time>
      </trkpt>
      <trkpt lat="43.2694010" lon="-2.8838930">
        <ele>295.8</ele>
        <time>2018-09-03T15:09:01Z</time>
      </trkpt>
      <trkpt lat="43.2694320" lon="-2.8840370">
        <ele>297.0</ele>
        <time>2018-09-03T15:09:08Z</time>
      </trkpt>
      <trkpt lat="43.2694510" lon="-2.8841360">
        <ele>298.0</ele>
        <time>2018-09-03T15:09:13Z</time>
      </trkpt>
      <trkpt lat="43.2694740" lon="-2.8842310">
        <ele>298.8</ele>
        <time>2018-09-03T15:09:18Z</time>
      </trkpt>
      <trkpt lat="43.2694800" lon="-2.8843100">
        <ele>300.0</ele>
        <time>2018-09-03T15:09:22Z</time>
      </trkpt>
      <trkpt lat="43.2694920" lon="-2.8844480">
        <ele>301.0</ele>
        <time>2018-09-03T15:09:29Z</time>
      </trkpt>
      <trkpt lat="43.2695010" lon="-2.8845120">
        <ele>301.4</ele>
        <time>2018-09-03T15:09:32Z</time>
      </trkpt>
      <trkpt lat="43.2695000" lon="-2.8845660">
        <ele>302.0</ele>
        <time>2018-09-03T15:09:35Z</time>
      </trkpt>
      <trkpt lat="43.2695190" lon="-2.8847160">
        <ele>303.0</ele>
        <time>2018-09-03T15:09:42Z</time>
      </trkpt>
      <trkpt lat="43.2695190" lon="-2.8849760">
        <ele>304.2</ele>
        <time>2018-09-03T15:09:54Z</time>
      </trkpt>
      <trkpt lat="43.2695310" lon="-2.8851550">
        <ele>305.4</ele>
        <time>2018-09-03T15:10:02Z</time>
      </trkpt>
      <trkpt lat="43.2695690" lon="-2.8853800">
        <ele>306.0</ele>
        <time>2018-09-03T15:10:12Z</time>
      </trkpt>
      <trkpt lat="43.2696330" lon="-2.8855270">
        <ele>306.6</ele>
        <time>2018-09-03T15:10:20Z</time>
      </trkpt>
      <trkpt lat="43.2696670" lon="-2.8856400">
        <ele>307.6</ele>
        <time>2018-09-03T15:10:26Z</time>
      </trkpt>
      <trkpt lat="43.2696920" lon="-2.8857300">
        <ele>308.8</ele>
        <time>2018-09-03T15:10:31Z</time>
      </trkpt>
      <trkpt lat="43.2697260" lon="-2.8858440">
        <ele>310.0</ele>
        <time>2018-09-03T15:10:37Z</time>
      </trkpt>
      <trkpt lat="43.2697450" lon="-2.8859420">
        <ele>311.2</ele>
        <time>2018-09-03T15:10:42Z</time>
      </trkpt>
      <trkpt lat="43.2697610" lon="-2.8860360">
        <ele>312.2</ele>
        <time>2018-09-03T15:10:47Z</time>
      </trkpt>
      <trkpt lat="43.2697870" lon="-2.8861700">
        <ele>313.2</ele>
        <time>2018-09-03T15:10:54Z</time>
      </trkpt>
      <trkpt lat="43.2697910" lon="-2.8861880">
        <ele>313.4</ele>
        <time>2018-09-03T15:10:55Z</time>
      </trkpt>
      <trkpt lat="43.2698040" lon="-2.8862640">
        <ele>314.6</ele>
        <time>2018-09-03T15:10:59Z</time>
      </trkpt>
      <trkpt lat="43.2698260" lon="-2.8863510">
        <ele>315.6</ele>
        <time>2018-09-03T15:11:04Z</time>
      </trkpt>
      <trkpt lat="43.2698500" lon="-2.8864380">
        <ele>316.6</ele>
        <time>2018-09-03T15:11:09Z</time>
      </trkpt>
      <trkpt lat="43.2698660" lon="-2.8865390">
        <ele>317.8</ele>
        <time>2018-09-03T15:11:14Z</time>
      </trkpt>
      <trkpt lat="43.2698720" lon="-2.8866390">
        <ele>318.8</ele>
        <time>2018-09-03T15:11:19Z</time>
      </trkpt>
      <trkpt lat="43.2698840" lon="-2.8867330">
        <ele>319.8</ele>
        <time>2018-09-03T15:11:24Z</time>
      </trkpt>
      <trkpt lat="43.2698860" lon="-2.8868330">
        <ele>321.0</ele>
        <time>2018-09-03T15:11:29Z</time>
      </trkpt>
      <trkpt lat="43.2698950" lon="-2.8869110">
        <ele>322.2</ele>
        <time>2018-09-03T15:11:33Z</time>
      </trkpt>
      <trkpt lat="43.2698960" lon="-2.8869890">
        <ele>323.2</ele>
        <time>2018-09-03T15:11:37Z</time>
      </trkpt>
      <trkpt lat="43.2698950" lon="-2.8870740">
        <ele>324.2</ele>
        <time>2018-09-03T15:11:41Z</time>
      </trkpt>
      <trkpt lat="43.2698840" lon="-2.8871940">
        <ele>325.4</ele>
        <time>2018-09-03T15:11:47Z</time>
      </trkpt>
      <trkpt lat="43.2698720" lon="-2.8872420">
        <ele>326.2</ele>
        <time>2018-09-03T15:11:50Z</time>
      </trkpt>
      <trkpt lat="43.2698640" lon="-2.8872730">
        <ele>326.8</ele>
        <time>2018-09-03T15:11:52Z</time>
      </trkpt>
      <trkpt lat="43.2698650" lon="-2.8873330">
        <ele>327.2</ele>
        <time>2018-09-03T15:11:55Z</time>
      </trkpt>
      <trkpt lat="43.2698630" lon="-2.8873500">
        <ele>327.6</ele>
        <time>2018-09-03T15:11:56Z</time>
      </trkpt>
      <trkpt lat="43.2698580" lon="-2.8873680">
        <ele>327.8</ele>
        <time>2018-09-03T15:11:57Z</time>
      </trkpt>
      <trkpt lat="43.2698380" lon="-2.8874400">
        <ele>329.0</ele>
        <time>2018-09-03T15:12:01Z</time>
      </trkpt>
      <trkpt lat="43.2698220" lon="-2.8874740">
        <ele>329.2</ele>
        <time>2018-09-03T15:12:03Z</time>
      </trkpt>
      <trkpt lat="43.2698040" lon="-2.8875040">
        <ele>329.4</ele>
        <time>2018-09-03T15:12:07Z</time>
      </trkpt>
      <trkpt lat="43.2697960" lon="-2.8875010">
        <ele>329.4</ele>
        <time>2018-09-03T15:12:08Z</time>
      </trkpt>
      <trkpt lat="43.2698020" lon="-2.8874600">
        <ele>329.4</ele>
        <time>2018-09-03T15:12:12Z</time>
      </trkpt>
      <trkpt lat="43.2698210" lon="-2.8874290">
        <ele>329.4</ele>
        <time>2018-09-03T15:12:19Z</time>
      </trkpt>
      <trkpt lat="43.2698230" lon="-2.8874170">
        <ele>329.6</ele>
        <time>2018-09-03T15:12:23Z</time>
      </trkpt>
      <trkpt lat="43.2698280" lon="-2.8874160">
        <ele>329.6</ele>
        <time>2018-09-03T15:12:27Z</time>
      </trkpt>
      <trkpt lat="43.2698260" lon="-2.8874170">
        <ele>329.6</ele>
        <time>2018-09-03T15:12:33Z</time>
      </trkpt>
      <trkpt lat="43.2698280" lon="-2.8874170">
        <ele>329.6</ele>
        <time>2018-09-03T15:12:40Z</time>
      </trkpt>
      <trkpt lat="43.2698290" lon="-2.8874190">
        <ele>329.6</ele>
        <time>2018-09-03T15:12:42Z</time>
      </trkpt>
      <trkpt lat="43.2698350" lon="-2.8874080">
        <ele>329.6</ele>
        <time>2018-09-03T15:12:47Z</time>
      </trkpt>
      <trkpt lat="43.2698350" lon="-2.8874080">
        <ele>329.8</ele>
        <time>2018-09-03T15:12:51Z</time>
      </trkpt>
      <trkpt lat="43.2698370" lon="-2.8874080">
        <ele>329.8</ele>
        <time>2018-09-03T15:12:54Z</time>
      </trkpt>
      <trkpt lat="43.2698370" lon="-2.8874090">
        <ele>329.8</ele>
        <time>2018-09-03T15:12:56Z</time>
      </trkpt>
      <trkpt lat="43.2698370" lon="-2.8874080">
        <ele>329.8</ele>
        <time>2018-09-03T15:13:11Z</time>
      </trkpt>
      <trkpt lat="43.2698370" lon="-2.8874080">
        <ele>330.0</ele>
        <time>2018-09-03T15:13:43Z</time>
      </trkpt>
      <trkpt lat="43.2698830" lon="-2.8871090">
        <ele>329.4</ele>
        <time>2018-09-03T15:13:56Z</time>
      </trkpt>
      <trkpt lat="43.2698940" lon="-2.8871160">
        <ele>328.6</ele>
        <time>2018-09-03T15:13:58Z</time>
      </trkpt>
      <trkpt lat="43.2698810" lon="-2.8871520">
        <ele>327.4</ele>
        <time>2018-09-03T15:14:01Z</time>
      </trkpt>
      <trkpt lat="43.2698710" lon="-2.8871570">
        <ele>327.2</ele>
        <time>2018-09-03T15:14:02Z</time>
      </trkpt>
      <trkpt lat="43.2699060" lon="-2.8871170">
        <ele>327.0</ele>
        <time>2018-09-03T15:14:09Z</time>
      </trkpt>
      <trkpt lat="43.2699270" lon="-2.8869030">
        <ele>326.6</ele>
        <time>2018-09-03T15:14:13Z</time>
      </trkpt>
      <trkpt lat="43.2698720" lon="-2.8863830">
        <ele>326.2</ele>
        <time>2018-09-03T15:14:18Z</time>
      </trkpt>
      <trkpt lat="43.2698180" lon="-2.8861340">
        <ele>324.8</ele>
        <time>2018-09-03T15:14:20Z</time>
      </trkpt>
      <trkpt lat="43.2697440" lon="-2.8858900">
        <ele>323.0</ele>
        <time>2018-09-03T15:14:22Z</time>
      </trkpt>
      <trkpt lat="43.2697070" lon="-2.8857660">
        <ele>321.8</ele>
        <time>2018-09-03T15:14:23Z</time>
      </trkpt>
      <trkpt lat="43.2696720" lon="-2.8856410">
        <ele>320.4</ele>
        <time>2018-09-03T15:14:24Z</time>
      </trkpt>
      <trkpt lat="43.2696340" lon="-2.8855100">
        <ele>318.6</ele>
        <time>2018-09-03T15:14:25Z</time>
      </trkpt>
      <trkpt lat="43.2695960" lon="-2.8853800">
        <ele>316.8</ele>
        <time>2018-09-03T15:14:26Z</time>
      </trkpt>
      <trkpt lat="43.2695660" lon="-2.8852490">
        <ele>315.2</ele>
        <time>2018-09-03T15:14:27Z</time>
      </trkpt>
      <trkpt lat="43.2695450" lon="-2.8851220">
        <ele>313.4</ele>
        <time>2018-09-03T15:14:28Z</time>
      </trkpt>
      <trkpt lat="43.2695360" lon="-2.8849970">
        <ele>312.0</ele>
        <time>2018-09-03T15:14:29Z</time>
      </trkpt>
      <trkpt lat="43.2695330" lon="-2.8848810">
        <ele>308.8</ele>
        <time>2018-09-03T15:14:30Z</time>
      </trkpt>
      <trkpt lat="43.2695300" lon="-2.8847730">
        <ele>307.4</ele>
        <time>2018-09-03T15:14:31Z</time>
      </trkpt>
      <trkpt lat="43.2695240" lon="-2.8846680">
        <ele>305.8</ele>
        <time>2018-09-03T15:14:32Z</time>
      </trkpt>
      <trkpt lat="43.2695140" lon="-2.8845610">
        <ele>304.4</ele>
        <time>2018-09-03T15:14:33Z</time>
      </trkpt>
      <trkpt lat="43.2694910" lon="-2.8843440">
        <ele>303.0</ele>
        <time>2018-09-03T15:14:35Z</time>
      </trkpt>
      <trkpt lat="43.2694030" lon="-2.8839000">
        <ele>301.8</ele>
        <time>2018-09-03T15:14:40Z</time>
      </trkpt>
      <trkpt lat="43.2693580" lon="-2.8836990">
        <ele>300.0</ele>
        <time>2018-09-03T15:14:43Z</time>
      </trkpt>
      <trkpt lat="43.2693390" lon="-2.8835600">
        <ele>298.8</ele>
        <time>2018-09-03T15:14:45Z</time>
      </trkpt>
      <trkpt lat="43.2693060" lon="-2.8833430">
        <ele>297.4</ele>
        <time>2018-09-03T15:14:48Z</time>
      </trkpt>
      <trkpt lat="43.2693020" lon="-2.8831960">
        <ele>296.4</ele>
        <time>2018-09-03T15:14:50Z</time>
      </trkpt>
      <trkpt lat="43.2693080" lon="-2.8831270">
        <ele>296.0</ele>
        <time>2018-09-03T15:14:51Z</time>
      </trkpt>
      <trkpt lat="43.2693200" lon="-2.8829850">
        <ele>294.8</ele>
        <time>2018-09-03T15:14:53Z</time>
      </trkpt>
      <trkpt lat="43.2693220" lon="-2.8827970">
        <ele>293.6</ele>
        <time>2018-09-03T15:14:56Z</time>
      </trkpt>
      <trkpt lat="43.2693340" lon="-2.8825460">
        <ele>292.6</ele>
        <time>2018-09-03T15:15:00Z</time>
      </trkpt>
      <trkpt lat="43.2693390" lon="-2.8824800">
        <ele>292.4</ele>
        <time>2018-09-03T15:15:01Z</time>
      </trkpt>
      <trkpt lat="43.2693370" lon="-2.8824160">
        <ele>292.4</ele>
        <time>2018-09-03T15:15:02Z</time>
      </trkpt>
      <trkpt lat="43.2693150" lon="-2.8821630">
        <ele>291.4</ele>
        <time>2018-09-03T15:15:06Z</time>
      </trkpt>
      <trkpt lat="43.2693150" lon="-2.8821000">
        <ele>291.0</ele>
        <time>2018-09-03T15:15:07Z</time>
      </trkpt>
      <trkpt lat="43.2693120" lon="-2.8819400">
        <ele>290.0</ele>
        <time>2018-09-03T15:15:09Z</time>
      </trkpt>
      <trkpt lat="43.2692960" lon="-2.8817790">
        <ele>289.0</ele>
        <time>2018-09-03T15:15:11Z</time>
      </trkpt>
      <trkpt lat="43.2692710" lon="-2.8816250">
        <ele>288.0</ele>
        <time>2018-09-03T15:15:13Z</time>
      </trkpt>
      <trkpt lat="43.2692580" lon="-2.8814850">
        <ele>286.6</ele>
        <time>2018-09-03T15:15:15Z</time>
      </trkpt>
      <trkpt lat="43.2692390" lon="-2.8813540">
        <ele>285.4</ele>
        <time>2018-09-03T15:15:17Z</time>
      </trkpt>
      <trkpt lat="43.2692060" lon="-2.8811590">
        <ele>284.2</ele>
        <time>2018-09-03T15:15:20Z</time>
      </trkpt>
      <trkpt lat="43.2691700" lon="-2.8809080">
        <ele>283.0</ele>
        <time>2018-09-03T15:15:24Z</time>
      </trkpt>
      <trkpt lat="43.2691450" lon="-2.8807260">
        <ele>282.0</ele>
        <time>2018-09-03T15:15:27Z</time>
      </trkpt>
      <trkpt lat="43.2691120" lon="-2.8804590">
        <ele>280.6</ele>
        <time>2018-09-03T15:15:31Z</time>
      </trkpt>
      <trkpt lat="43.2691210" lon="-2.8802580">
        <ele>279.4</ele>
        <time>2018-09-03T15:15:34Z</time>
      </trkpt>
      <trkpt lat="43.2691340" lon="-2.8801960">
        <ele>278.8</ele>
        <time>2018-09-03T15:15:35Z</time>
      </trkpt>
      <trkpt lat="43.2691620" lon="-2.8800860">
        <ele>277.8</ele>
        <time>2018-09-03T15:15:37Z</time>
      </trkpt>
      <trkpt lat="43.2691910" lon="-2.8799870">
        <ele>276.0</ele>
        <time>2018-09-03T15:15:39Z</time>
      </trkpt>
      <trkpt lat="43.2692060" lon="-2.8798440">
        <ele>274.8</ele>
        <time>2018-09-03T15:15:41Z</time>
      </trkpt>
      <trkpt lat="43.2692650" lon="-2.8793240">
        <ele>273.8</ele>
        <time>2018-09-03T15:15:48Z</time>
      </trkpt>
      <trkpt lat="43.2693040" lon="-2.8790280">
        <ele>272.8</ele>
        <time>2018-09-03T15:15:53Z</time>
      </trkpt>
      <trkpt lat="43.2692980" lon="-2.8789890">
        <ele>273.8</ele>
        <time>2018-09-03T15:16:11Z</time>
      </trkpt>
      <trkpt lat="43.2692770" lon="-2.8791290">
        <ele>273.6</ele>
        <time>2018-09-03T15:16:38Z</time>
      </trkpt>
      <trkpt lat="43.2691920" lon="-2.8794190">
        <ele>273.6</ele>
        <time>2018-09-03T15:16:46Z</time>
      </trkpt>
      <trkpt lat="43.2691490" lon="-2.8796760">
        <ele>274.0</ele>
        <time>2018-09-03T15:16:55Z</time>
      </trkpt>
      <trkpt lat="43.2691180" lon="-2.8797900">
        <ele>274.6</ele>
        <time>2018-09-03T15:17:00Z</time>
      </trkpt>
      <trkpt lat="43.2690870" lon="-2.8799060">
        <ele>275.0</ele>
        <time>2018-09-03T15:17:05Z</time>
      </trkpt>
      <trkpt lat="43.2690540" lon="-2.8801510">
        <ele>275.6</ele>
        <time>2018-09-03T15:17:14Z</time>
      </trkpt>
      <trkpt lat="43.2690530" lon="-2.8802500">
        <ele>276.0</ele>
        <time>2018-09-03T15:17:18Z</time>
      </trkpt>
      <trkpt lat="43.2690620" lon="-2.8803940">
        <ele>276.6</ele>
        <time>2018-09-03T15:17:23Z</time>
      </trkpt>
      <trkpt lat="43.2690820" lon="-2.8805500">
        <ele>277.6</ele>
        <time>2018-09-03T15:17:29Z</time>
      </trkpt>
      <trkpt lat="43.2690960" lon="-2.8806760">
        <ele>278.6</ele>
        <time>2018-09-03T15:17:35Z</time>
      </trkpt>
      <trkpt lat="43.2690970" lon="-2.8807060">
        <ele>278.8</ele>
        <time>2018-09-03T15:17:36Z</time>
      </trkpt>
      <trkpt lat="43.2691050" lon="-2.8808030">
        <ele>279.8</ele>
        <time>2018-09-03T15:17:40Z</time>
      </trkpt>
      <trkpt lat="43.2691240" lon="-2.8809260">
        <ele>280.8</ele>
        <time>2018-09-03T15:17:46Z</time>
      </trkpt>
      <trkpt lat="43.2691540" lon="-2.8811230">
        <ele>281.8</ele>
        <time>2018-09-03T15:17:55Z</time>
      </trkpt>
      <trkpt lat="43.2691880" lon="-2.8813350">
        <ele>282.8</ele>
        <time>2018-09-03T15:18:05Z</time>
      </trkpt>
      <trkpt lat="43.2692340" lon="-2.8815260">
        <ele>284.0</ele>
        <time>2018-09-03T15:18:14Z</time>
      </trkpt>
      <trkpt lat="43.2692560" lon="-2.8816330">
        <ele>284.6</ele>
        <time>2018-09-03T15:18:20Z</time>
      </trkpt>
      <trkpt lat="43.2692720" lon="-2.8817800">
        <ele>285.2</ele>
        <time>2018-09-03T15:18:28Z</time>
      </trkpt>
      <trkpt lat="43.2692680" lon="-2.8818530">
        <ele>285.8</ele>
        <time>2018-09-03T15:18:31Z</time>
      </trkpt>
      <trkpt lat="43.2692750" lon="-2.8819050">
        <ele>286.2</ele>
        <time>2018-09-03T15:18:34Z</time>
      </trkpt>
      <trkpt lat="43.2692780" lon="-2.8819270">
        <ele>286.4</ele>
        <time>2018-09-03T15:18:35Z</time>
      </trkpt>
      <trkpt lat="43.2692920" lon="-2.8820130">
        <ele>287.0</ele>
        <time>2018-09-03T15:18:39Z</time>
      </trkpt>
      <trkpt lat="43.2692950" lon="-2.8820900">
        <ele>287.2</ele>
        <time>2018-09-03T15:18:43Z</time>
      </trkpt>
      <trkpt lat="43.2692960" lon="-2.8821060">
        <ele>287.4</ele>
        <time>2018-09-03T15:18:44Z</time>
      </trkpt>
      <trkpt lat="43.2693090" lon="-2.8821740">
        <ele>287.8</ele>
        <time>2018-09-03T15:18:48Z</time>
      </trkpt>
      <trkpt lat="43.2693110" lon="-2.8822340">
        <ele>288.4</ele>
        <time>2018-09-03T15:18:53Z</time>
      </trkpt>
      <trkpt lat="43.2692960" lon="-2.8824180">
        <ele>289.6</ele>
        <time>2018-09-03T15:19:03Z</time>
      </trkpt>
      <trkpt lat="43.2692810" lon="-2.8825870">
        <ele>290.6</ele>
        <time>2018-09-03T15:19:12Z</time>
      </trkpt>
      <trkpt lat="43.2692770" lon="-2.8827380">
        <ele>291.6</ele>
        <time>2018-09-03T15:19:19Z</time>
      </trkpt>
      <trkpt lat="43.2692540" lon="-2.8831890">
        <ele>292.6</ele>
        <time>2018-09-03T15:19:37Z</time>
      </trkpt>
      <trkpt lat="43.2693020" lon="-2.8834770">
        <ele>293.6</ele>
        <time>2018-09-03T15:19:48Z</time>
      </trkpt>
      <trkpt lat="43.2693370" lon="-2.8836260">
        <ele>294.2</ele>
        <time>2018-09-03T15:19:55Z</time>
      </trkpt>
      <trkpt lat="43.2693520" lon="-2.8837140">
        <ele>294.8</ele>
        <time>2018-09-03T15:19:59Z</time>
      </trkpt>
      <trkpt lat="43.2693900" lon="-2.8839200">
        <ele>296.0</ele>
        <time>2018-09-03T15:20:10Z</time>
      </trkpt>
      <trkpt lat="43.2694170" lon="-2.8840090">
        <ele>296.8</ele>
        <time>2018-09-03T15:20:14Z</time>
      </trkpt>
      <trkpt lat="43.2694230" lon="-2.8840330">
        <ele>297.2</ele>
        <time>2018-09-03T15:20:15Z</time>
      </trkpt>
      <trkpt lat="43.2694440" lon="-2.8841270">
        <ele>297.8</ele>
        <time>2018-09-03T15:20:19Z</time>
      </trkpt>
      <trkpt lat="43.2694520" lon="-2.8841720">
        <ele>298.2</ele>
        <time>2018-09-03T15:20:21Z</time>
      </trkpt>
      <trkpt lat="43.2694570" lon="-2.8842780">
        <ele>299.4</ele>
        <time>2018-09-03T15:20:26Z</time>
      </trkpt>
      <trkpt lat="43.2694760" lon="-2.8843890">
        <ele>300.6</ele>
        <time>2018-09-03T15:20:30Z</time>
      </trkpt>
      <trkpt lat="43.2694940" lon="-2.8845380">
        <ele>301.8</ele>
        <time>2018-09-03T15:20:35Z</time>
      </trkpt>
      <trkpt lat="43.2695100" lon="-2.8846850">
        <ele>302.8</ele>
        <time>2018-09-03T15:20:40Z</time>
      </trkpt>
      <trkpt lat="43.2695170" lon="-2.8848240">
        <ele>304.0</ele>
        <time>2018-09-03T15:20:45Z</time>
      </trkpt>
      <trkpt lat="43.2695250" lon="-2.8850300">
        <ele>305.0</ele>
        <time>2018-09-03T15:20:53Z</time>
      </trkpt>
      <trkpt lat="43.2695520" lon="-2.8852450">
        <ele>306.0</ele>
        <time>2018-09-03T15:21:01Z</time>
      </trkpt>
      <trkpt lat="43.2696010" lon="-2.8854280">
        <ele>307.2</ele>
        <time>2018-09-03T15:21:09Z</time>
      </trkpt>
      <trkpt lat="43.2696220" lon="-2.8855060">
        <ele>308.0</ele>
        <time>2018-09-03T15:21:14Z</time>
      </trkpt>
      <trkpt lat="43.2696240" lon="-2.8855230">
        <ele>308.2</ele>
        <time>2018-09-03T15:21:15Z</time>
      </trkpt>
      <trkpt lat="43.2696610" lon="-2.8856600">
        <ele>309.4</ele>
        <time>2018-09-03T15:21:22Z</time>
      </trkpt>
      <trkpt lat="43.2696960" lon="-2.8857970">
        <ele>310.4</ele>
        <time>2018-09-03T15:21:29Z</time>
      </trkpt>
      <trkpt lat="43.2697320" lon="-2.8859330">
        <ele>311.6</ele>
        <time>2018-09-03T15:21:35Z</time>
      </trkpt>
      <trkpt lat="43.2697540" lon="-2.8860290">
        <ele>312.6</ele>
        <time>2018-09-03T15:21:40Z</time>
      </trkpt>
      <trkpt lat="43.2697860" lon="-2.8861640">
        <ele>313.6</ele>
        <time>2018-09-03T15:21:47Z</time>
      </trkpt>
      <trkpt lat="43.2698220" lon="-2.8862850">
        <ele>314.8</ele>
        <time>2018-09-03T15:21:53Z</time>
      </trkpt>
      <trkpt lat="43.2698410" lon="-2.8863730">
        <ele>316.2</ele>
        <time>2018-09-03T15:21:57Z</time>
      </trkpt>
      <trkpt lat="43.2698470" lon="-2.8864820">
        <ele>317.2</ele>
        <time>2018-09-03T15:22:01Z</time>
      </trkpt>
      <trkpt lat="43.2698570" lon="-2.8865780">
        <ele>318.4</ele>
        <time>2018-09-03T15:22:05Z</time>
      </trkpt>
      <trkpt lat="43.2698710" lon="-2.8866480">
        <ele>319.4</ele>
        <time>2018-09-03T15:22:09Z</time>
      </trkpt>
      <trkpt lat="43.2698860" lon="-2.8867280">
        <ele>320.6</ele>
        <time>2018-09-03T15:22:13Z</time>
      </trkpt>
      <trkpt lat="43.2698890" lon="-2.8868180">
        <ele>321.8</ele>
        <time>2018-09-03T15:22:17Z</time>
      </trkpt>
      <trkpt lat="43.2698870" lon="-2.8868960">
        <ele>322.8</ele>
        <time>2018-09-03T15:22:21Z</time>
      </trkpt>
      <trkpt lat="43.2698830" lon="-2.8869970">
        <ele>324.0</ele>
        <time>2018-09-03T15:22:26Z</time>
      </trkpt>
      <trkpt lat="43.2698690" lon="-2.8871060">
        <ele>325.2</ele>
        <time>2018-09-03T15:22:31Z</time>
      </trkpt>
      <trkpt lat="43.2698600" lon="-2.8871930">
        <ele>326.4</ele>
        <time>2018-09-03T15:22:35Z</time>
      </trkpt>
      <trkpt lat="43.2698340" lon="-2.8872920">
        <ele>327.4</ele>
        <time>2018-09-03T15:22:40Z</time>
      </trkpt>
      <trkpt lat="43.2697860" lon="-2.8872800">
        <ele>328.8</ele>
        <time>2018-09-03T15:22:44Z</time>
      </trkpt>
      <trkpt lat="43.2697460" lon="-2.8872170">
        <ele>329.8</ele>
        <time>2018-09-03T15:22:48Z</time>
      </trkpt>
      <trkpt lat="43.2697810" lon="-2.8872210">
        <ele>330.2</ele>
        <time>2018-09-03T15:22:53Z</time>
      </trkpt>
      <trkpt lat="43.2698140" lon="-2.8873090">
        <ele>330.4</ele>
        <time>2018-09-03T15:22:57Z</time>
      </trkpt>
      <trkpt lat="43.2698430" lon="-2.8874060">
        <ele>330.4</ele>
        <time>2018-09-03T15:23:01Z</time>
      </trkpt>
      <trkpt lat="43.2698650" lon="-2.8873850">
        <ele>330.4</ele>
        <time>2018-09-03T15:23:05Z</time>
      </trkpt>
      <trkpt lat="43.2698360" lon="-2.8873590">
        <ele>330.0</ele>
        <time>2018-09-03T15:23:09Z</time>
      </trkpt>
      <trkpt lat="43.2698300" lon="-2.8873650">
        <ele>330.0</ele>
        <time>2018-09-03T15:23:10Z</time>
      </trkpt>
      <trkpt lat="43.2698300" lon="-2.8873750">
        <ele>330.0</ele>
        <time>2018-09-03T15:23:11Z</time>
      </trkpt>
      <trkpt lat="43.2698360" lon="-2.8873840">
        <ele>330.0</ele>
        <time>2018-09-03T15:23:14Z</time>
      </trkpt>
      <trkpt lat="43.2698320" lon="-2.8873780">
        <ele>330.0</ele>
        <time>2018-09-03T15:23:19Z</time>
      </trkpt>
      <trkpt lat="43.2698320" lon="-2.8873780">
        <ele>330.2</ele>
        <time>2018-09-03T15:23:22Z</time>
      </trkpt>
      <trkpt lat="43.2698320" lon="-2.8873760">
        <ele>330.2</ele>
        <time>2018-09-03T15:23:33Z</time>
      </trkpt>
      <trkpt lat="43.2698320" lon="-2.8873760">
        <ele>330.2</ele>
        <time>2018-09-03T15:23:36Z</time>
      </trkpt>
      <trkpt lat="43.2698320" lon="-2.8873770">
        <ele>330.4</ele>
        <time>2018-09-03T15:23:45Z</time>
      </trkpt>
      <trkpt lat="43.2698320" lon="-2.8873770">
        <ele>330.4</ele>
        <time>2018-09-03T15:23:50Z</time>
      </trkpt>
      <trkpt lat="43.2698330" lon="-2.8873770">
        <ele>330.6</ele>
        <time>2018-09-03T15:23:56Z</time>
      </trkpt>
      <trkpt lat="43.2698340" lon="-2.8874080">
        <ele>330.8</ele>
        <time>2018-09-03T15:24:14Z</time>
      </trkpt>
      <trkpt lat="43.2698340" lon="-2.8874080">
        <ele>330.8</ele>
        <time>2018-09-03T15:24:16Z</time>
      </trkpt>
      <trkpt lat="43.2698340" lon="-2.8874080">
        <ele>330.8</ele>
        <time>2018-09-03T15:24:18Z</time>
      </trkpt>
      <trkpt lat="43.2698350" lon="-2.8874060">
        <ele>330.8</ele>
        <time>2018-09-03T15:24:34Z</time>
      </trkpt>
      <trkpt lat="43.2698340" lon="-2.8874080">
        <ele>330.8</ele>
        <time>2018-09-03T15:24:41Z</time>
      </trkpt>
      <trkpt lat="43.2698340" lon="-2.8874080">
        <ele>330.8</ele>
        <time>2018-09-03T15:24:47Z</time>
      </trkpt>
      <trkpt lat="43.2698340" lon="-2.8874090">
        <ele>330.8</ele>
        <time>2018-09-03T15:24:57Z</time>
      </trkpt>
      <trkpt lat="43.2698340" lon="-2.8874090">
        <ele>330.8</ele>
        <time>2018-09-03T15:25:09Z</time>
      </trkpt>
      <trkpt lat="43.2698350" lon="-2.8874090">
        <ele>330.8</ele>
        <time>2018-09-03T15:25:17Z</time>
      </trkpt>
      <trkpt lat="43.2698350" lon="-2.8874090">
        <ele>330.8</ele>
        <time>2018-09-03T15:25:23Z</time>
      </trkpt>
      <trkpt lat="43.2698350" lon="-2.8874100">
        <ele>330.8</ele>
        <time>2018-09-03T15:25:27Z</time>
      </trkpt>
      <trkpt lat="43.2698350" lon="-2.8874100">
        <ele>330.8</ele>
        <time>2018-09-03T15:25:32Z</time>
      </trkpt>
      <trkpt lat="43.2698330" lon="-2.8874290">
        <ele>331.0</ele>
        <time>2018-09-03T15:25:39Z</time>
      </trkpt>
      <trkpt lat="43.2698310" lon="-2.8876040">
        <ele>330.8</ele>
        <time>2018-09-03T15:25:45Z</time>
      </trkpt>
      <trkpt lat="43.2698280" lon="-2.8876940">
        <ele>330.6</ele>
        <time>2018-09-03T15:25:47Z</time>
      </trkpt>
      <trkpt lat="43.2697910" lon="-2.8880170">
        <ele>329.8</ele>
        <time>2018-09-03T15:25:52Z</time>
      </trkpt>
      <trkpt lat="43.2697630" lon="-2.8883540">
        <ele>328.6</ele>
        <time>2018-09-03T15:25:56Z</time>
      </trkpt>
      <trkpt lat="43.2697570" lon="-2.8885440">
        <ele>327.4</ele>
        <time>2018-09-03T15:25:58Z</time>
      </trkpt>
      <trkpt lat="43.2697580" lon="-2.8887430">
        <ele>326.6</ele>
        <time>2018-09-03T15:26:00Z</time>
      </trkpt>
      <trkpt lat="43.2697770" lon="-2.8888440">
        <ele>325.8</ele>
        <time>2018-09-03T15:26:01Z</time>
      </trkpt>
      <trkpt lat="43.2698660" lon="-2.8891230">
        <ele>324.6</ele>
        <time>2018-09-03T15:26:04Z</time>
      </trkpt>
      <trkpt lat="43.2699400" lon="-2.8893090">
        <ele>323.4</ele>
        <time>2018-09-03T15:26:06Z</time>
      </trkpt>
      <trkpt lat="43.2699850" lon="-2.8894000">
        <ele>322.8</ele>
        <time>2018-09-03T15:26:07Z</time>
      </trkpt>
      <trkpt lat="43.2700340" lon="-2.8894870">
        <ele>322.0</ele>
        <time>2018-09-03T15:26:08Z</time>
      </trkpt>
      <trkpt lat="43.2700910" lon="-2.8895690">
        <ele>321.2</ele>
        <time>2018-09-03T15:26:09Z</time>
      </trkpt>
      <trkpt lat="43.2701560" lon="-2.8896450">
        <ele>320.8</ele>
        <time>2018-09-03T15:26:10Z</time>
      </trkpt>
      <trkpt lat="43.2706180" lon="-2.8901770">
        <ele>319.8</ele>
        <time>2018-09-03T15:26:17Z</time>
      </trkpt>
      <trkpt lat="43.2707400" lon="-2.8903470">
        <ele>318.6</ele>
        <time>2018-09-03T15:26:19Z</time>
      </trkpt>
      <trkpt lat="43.2708560" lon="-2.8905460">
        <ele>317.0</ele>
        <time>2018-09-03T15:26:21Z</time>
      </trkpt>
      <trkpt lat="43.2710380" lon="-2.8909530">
        <ele>315.6</ele>
        <time>2018-09-03T15:26:25Z</time>
      </trkpt>
      <trkpt lat="43.2711700" lon="-2.8912920">
        <ele>314.4</ele>
        <time>2018-09-03T15:26:28Z</time>
      </trkpt>
      <trkpt lat="43.2712990" lon="-2.8917470">
        <ele>312.8</ele>
        <time>2018-09-03T15:26:32Z</time>
      </trkpt>
      <trkpt lat="43.2713890" lon="-2.8920010">
        <ele>311.8</ele>
        <time>2018-09-03T15:26:34Z</time>
      </trkpt>
      <trkpt lat="43.2714440" lon="-2.8920970">
        <ele>311.6</ele>
        <time>2018-09-03T15:26:35Z</time>
      </trkpt>
      <trkpt lat="43.2716760" lon="-2.8923940">
        <ele>310.4</ele>
        <time>2018-09-03T15:26:38Z</time>
      </trkpt>
      <trkpt lat="43.2719100" lon="-2.8926190">
        <ele>309.8</ele>
        <time>2018-09-03T15:26:41Z</time>
      </trkpt>
      <trkpt lat="43.2720080" lon="-2.8926660">
        <ele>309.4</ele>
        <time>2018-09-03T15:26:42Z</time>
      </trkpt>
      <trkpt lat="43.2722970" lon="-2.8928000">
        <ele>308.2</ele>
        <time>2018-09-03T15:26:45Z</time>
      </trkpt>
      <trkpt lat="43.2725400" lon="-2.8930180">
        <ele>306.8</ele>
        <time>2018-09-03T15:26:48Z</time>
      </trkpt>
      <trkpt lat="43.2727060" lon="-2.8931890">
        <ele>305.6</ele>
        <time>2018-09-03T15:26:50Z</time>
      </trkpt>
      <trkpt lat="43.2731410" lon="-2.8936830">
        <ele>304.6</ele>
        <time>2018-09-03T15:26:56Z</time>
      </trkpt>
      <trkpt lat="43.2734580" lon="-2.8942070">
        <ele>303.4</ele>
        <time>2018-09-03T15:27:01Z</time>
      </trkpt>
      <trkpt lat="43.2736220" lon="-2.8948370">
        <ele>302.2</ele>
        <time>2018-09-03T15:27:06Z</time>
      </trkpt>
      <trkpt lat="43.2736310" lon="-2.8949580">
        <ele>302.0</ele>
        <time>2018-09-03T15:27:07Z</time>
      </trkpt>
      <trkpt lat="43.2735970" lon="-2.8953340">
        <ele>301.2</ele>
        <time>2018-09-03T15:27:10Z</time>
      </trkpt>
      <trkpt lat="43.2735760" lon="-2.8954580">
        <ele>300.8</ele>
        <time>2018-09-03T15:27:11Z</time>
      </trkpt>
      <trkpt lat="43.2733710" lon="-2.8962260">
        <ele>300.4</ele>
        <time>2018-09-03T15:27:17Z</time>
      </trkpt>
      <trkpt lat="43.2732510" lon="-2.8965520">
        <ele>300.2</ele>
        <time>2018-09-03T15:27:20Z</time>
      </trkpt>
      <trkpt lat="43.2731800" lon="-2.8969850">
        <ele>300.4</ele>
        <time>2018-09-03T15:27:24Z</time>
      </trkpt>
      <trkpt lat="43.2731470" lon="-2.8971780">
        <ele>300.4</ele>
        <time>2018-09-03T15:27:26Z</time>
      </trkpt>
      <trkpt lat="43.2728940" lon="-2.8975580">
        <ele>300.6</ele>
        <time>2018-09-03T15:27:31Z</time>
      </trkpt>
      <trkpt lat="43.2726090" lon="-2.8977700">
        <ele>300.6</ele>
        <time>2018-09-03T15:27:35Z</time>
      </trkpt>
      <trkpt lat="43.2723540" lon="-2.8978400">
        <ele>300.2</ele>
        <time>2018-09-03T15:27:38Z</time>
      </trkpt>
      <trkpt lat="43.2719940" lon="-2.8978980">
        <ele>299.0</ele>
        <time>2018-09-03T15:27:42Z</time>
      </trkpt>
      <trkpt lat="43.2716980" lon="-2.8979620">
        <ele>298.6</ele>
        <time>2018-09-03T15:27:45Z</time>
      </trkpt>
      <trkpt lat="43.2714980" lon="-2.8980340">
        <ele>297.4</ele>
        <time>2018-09-03T15:27:47Z</time>
      </trkpt>
      <trkpt lat="43.2712940" lon="-2.8981170">
        <ele>296.0</ele>
        <time>2018-09-03T15:27:49Z</time>
      </trkpt>
      <trkpt lat="43.2710870" lon="-2.8982050">
        <ele>294.6</ele>
        <time>2018-09-03T15:27:51Z</time>
      </trkpt>
      <trkpt lat="43.2708840" lon="-2.8983010">
        <ele>293.0</ele>
        <time>2018-09-03T15:27:53Z</time>
      </trkpt>
      <trkpt lat="43.2706870" lon="-2.8984020">
        <ele>291.2</ele>
        <time>2018-09-03T15:27:55Z</time>
      </trkpt>
      <trkpt lat="43.2704910" lon="-2.8984970">
        <ele>289.6</ele>
        <time>2018-09-03T15:27:57Z</time>
      </trkpt>
      <trkpt lat="43.2702920" lon="-2.8985790">
        <ele>288.6</ele>
        <time>2018-09-03T15:27:59Z</time>
      </trkpt>
      <trkpt lat="43.2697630" lon="-2.8988290">
        <ele>287.6</ele>
        <time>2018-09-03T15:28:05Z</time>
      </trkpt>
      <trkpt lat="43.2696790" lon="-2.8988880">
        <ele>287.6</ele>
        <time>2018-09-03T15:28:06Z</time>
      </trkpt>
      <trkpt lat="43.2696020" lon="-2.8989530">
        <ele>287.6</ele>
        <time>2018-09-03T15:28:07Z</time>
      </trkpt>
      <trkpt lat="43.2693740" lon="-2.8993220">
        <ele>287.2</ele>
        <time>2018-09-03T15:28:11Z</time>
      </trkpt>
      <trkpt lat="43.2692730" lon="-2.8995200">
        <ele>286.8</ele>
        <time>2018-09-03T15:28:13Z</time>
      </trkpt>
      <trkpt lat="43.2692250" lon="-2.8996170">
        <ele>285.6</ele>
        <time>2018-09-03T15:28:14Z</time>
      </trkpt>
      <trkpt lat="43.2691850" lon="-2.8997220">
        <ele>284.0</ele>
        <time>2018-09-03T15:28:15Z</time>
      </trkpt>
      <trkpt lat="43.2691530" lon="-2.8998250">
        <ele>282.2</ele>
        <time>2018-09-03T15:28:16Z</time>
      </trkpt>
      <trkpt lat="43.2691780" lon="-2.9002880">
        <ele>281.0</ele>
        <time>2018-09-03T15:28:20Z</time>
      </trkpt>
      <trkpt lat="43.2692070" lon="-2.9004010">
        <ele>281.0</ele>
        <time>2018-09-03T15:28:21Z</time>
      </trkpt>
      <trkpt lat="43.2692350" lon="-2.9005180">
        <ele>280.8</ele>
        <time>2018-09-03T15:28:22Z</time>
      </trkpt>
      <trkpt lat="43.2693180" lon="-2.9008650">
        <ele>279.6</ele>
        <time>2018-09-03T15:28:25Z</time>
      </trkpt>
      <trkpt lat="43.2693990" lon="-2.9012070">
        <ele>278.2</ele>
        <time>2018-09-03T15:28:28Z</time>
      </trkpt>
      <trkpt lat="43.2694340" lon="-2.9014450">
        <ele>276.2</ele>
        <time>2018-09-03T15:28:30Z</time>
      </trkpt>
      <trkpt lat="43.2694340" lon="-2.9016950">
        <ele>274.8</ele>
        <time>2018-09-03T15:28:32Z</time>
      </trkpt>
      <trkpt lat="43.2694110" lon="-2.9019490">
        <ele>274.2</ele>
        <time>2018-09-03T15:28:34Z</time>
      </trkpt>
      <trkpt lat="43.2693960" lon="-2.9022240">
        <ele>273.6</ele>
        <time>2018-09-03T15:28:36Z</time>
      </trkpt>
      <trkpt lat="43.2694110" lon="-2.9023650">
        <ele>273.6</ele>
        <time>2018-09-03T15:28:37Z</time>
      </trkpt>
      <trkpt lat="43.2694910" lon="-2.9028860">
        <ele>272.6</ele>
        <time>2018-09-03T15:28:41Z</time>
      </trkpt>
      <trkpt lat="43.2694940" lon="-2.9030260">
        <ele>271.8</ele>
        <time>2018-09-03T15:28:42Z</time>
      </trkpt>
      <trkpt lat="43.2694860" lon="-2.9031620">
        <ele>270.8</ele>
        <time>2018-09-03T15:28:43Z</time>
      </trkpt>
      <trkpt lat="43.2694680" lon="-2.9032950">
        <ele>269.6</ele>
        <time>2018-09-03T15:28:44Z</time>
      </trkpt>
      <trkpt lat="43.2693920" lon="-2.9035500">
        <ele>268.2</ele>
        <time>2018-09-03T15:28:46Z</time>
      </trkpt>
      <trkpt lat="43.2692070" lon="-2.9038850">
        <ele>267.2</ele>
        <time>2018-09-03T15:28:49Z</time>
      </trkpt>
      <trkpt lat="43.2691380" lon="-2.9039920">
        <ele>266.4</ele>
        <time>2018-09-03T15:28:50Z</time>
      </trkpt>
      <trkpt lat="43.2690240" lon="-2.9042210">
        <ele>265.4</ele>
        <time>2018-09-03T15:28:52Z</time>
      </trkpt>
      <trkpt lat="43.2689610" lon="-2.9046070">
        <ele>264.2</ele>
        <time>2018-09-03T15:28:56Z</time>
      </trkpt>
      <trkpt lat="43.2690930" lon="-2.9047680">
        <ele>264.2</ele>
        <time>2018-09-03T15:28:59Z</time>
      </trkpt>
      <trkpt lat="43.2691400" lon="-2.9048260">
        <ele>264.0</ele>
        <time>2018-09-03T15:29:00Z</time>
      </trkpt>
      <trkpt lat="43.2691920" lon="-2.9051160">
        <ele>263.6</ele>
        <time>2018-09-03T15:29:04Z</time>
      </trkpt>
      <trkpt lat="43.2692390" lon="-2.9053130">
        <ele>263.8</ele>
        <time>2018-09-03T15:29:07Z</time>
      </trkpt>
      <trkpt lat="43.2692620" lon="-2.9053700">
        <ele>264.0</ele>
        <time>2018-09-03T15:29:08Z</time>
      </trkpt>
      <trkpt lat="43.2693360" lon="-2.9055400">
        <ele>264.4</ele>
        <time>2018-09-03T15:29:11Z</time>
      </trkpt>
      <trkpt lat="43.2695440" lon="-2.9059030">
        <ele>265.2</ele>
        <time>2018-09-03T15:29:18Z</time>
      </trkpt>
      <trkpt lat="43.2696100" lon="-2.9060070">
        <ele>265.4</ele>
        <time>2018-09-03T15:29:20Z</time>
      </trkpt>
      <trkpt lat="43.2697920" lon="-2.9062640">
        <ele>265.4</ele>
        <time>2018-09-03T15:29:25Z</time>
      </trkpt>
      <trkpt lat="43.2701960" lon="-2.9068780">
        <ele>264.6</ele>
        <time>2018-09-03T15:29:35Z</time>
      </trkpt>
      <trkpt lat="43.2703480" lon="-2.9070970">
        <ele>264.2</ele>
        <time>2018-09-03T15:29:38Z</time>
      </trkpt>
      <trkpt lat="43.2704570" lon="-2.9072630">
        <ele>263.0</ele>
        <time>2018-09-03T15:29:40Z</time>
      </trkpt>
      <trkpt lat="43.2706190" lon="-2.9075420">
        <ele>261.8</ele>
        <time>2018-09-03T15:29:43Z</time>
      </trkpt>
      <trkpt lat="43.2707030" lon="-2.9077590">
        <ele>260.8</ele>
        <time>2018-09-03T15:29:45Z</time>
      </trkpt>
      <trkpt lat="43.2707540" lon="-2.9079950">
        <ele>259.2</ele>
        <time>2018-09-03T15:29:47Z</time>
      </trkpt>
      <trkpt lat="43.2707660" lon="-2.9082420">
        <ele>257.8</ele>
        <time>2018-09-03T15:29:49Z</time>
      </trkpt>
      <trkpt lat="43.2707540" lon="-2.9084950">
        <ele>256.6</ele>
        <time>2018-09-03T15:29:51Z</time>
      </trkpt>
      <trkpt lat="43.2707360" lon="-2.9087600">
        <ele>255.0</ele>
        <time>2018-09-03T15:29:53Z</time>
      </trkpt>
      <trkpt lat="43.2707200" lon="-2.9091580">
        <ele>254.0</ele>
        <time>2018-09-03T15:29:56Z</time>
      </trkpt>
      <trkpt lat="43.2707060" lon="-2.9094240">
        <ele>252.8</ele>
        <time>2018-09-03T15:29:58Z</time>
      </trkpt>
      <trkpt lat="43.2706990" lon="-2.9095570">
        <ele>251.8</ele>
        <time>2018-09-03T15:29:59Z</time>
      </trkpt>
      <trkpt lat="43.2706890" lon="-2.9098150">
        <ele>250.6</ele>
        <time>2018-09-03T15:30:01Z</time>
      </trkpt>
      <trkpt lat="43.2706790" lon="-2.9100770">
        <ele>249.0</ele>
        <time>2018-09-03T15:30:03Z</time>
      </trkpt>
      <trkpt lat="43.2706690" lon="-2.9103310">
        <ele>247.8</ele>
        <time>2018-09-03T15:30:05Z</time>
      </trkpt>
      <trkpt lat="43.2706520" lon="-2.9105820">
        <ele>246.8</ele>
        <time>2018-09-03T15:30:07Z</time>
      </trkpt>
      <trkpt lat="43.2706210" lon="-2.9111170">
        <ele>246.0</ele>
        <time>2018-09-03T15:30:12Z</time>
      </trkpt>
      <trkpt lat="43.2705230" lon="-2.9112810">
        <ele>246.0</ele>
        <time>2018-09-03T15:30:18Z</time>
      </trkpt>
      <trkpt lat="43.2705250" lon="-2.9112830">
        <ele>247.0</ele>
        <time>2018-09-03T15:30:21Z</time>
      </trkpt>
      <trkpt lat="43.2705250" lon="-2.9112830">
        <ele>248.0</ele>
        <time>2018-09-03T15:30:23Z</time>
      </trkpt>
      <trkpt lat="43.2705030" lon="-2.9112770">
        <ele>249.0</ele>
        <time>2018-09-03T15:30:30Z</time>
      </trkpt>
      <trkpt lat="43.2704520" lon="-2.9112610">
        <ele>249.0</ele>
        <time>2018-09-03T15:30:32Z</time>
      </trkpt>
      <trkpt lat="43.2703900" lon="-2.9112080">
        <ele>249.0</ele>
        <time>2018-09-03T15:30:34Z</time>
      </trkpt>
      <trkpt lat="43.2703300" lon="-2.9111480">
        <ele>249.0</ele>
        <time>2018-09-03T15:30:36Z</time>
      </trkpt>
      <trkpt lat="43.2702460" lon="-2.9110640">
        <ele>249.0</ele>
        <time>2018-09-03T15:30:39Z</time>
      </trkpt>
      <trkpt lat="43.2701270" lon="-2.9109490">
        <ele>249.0</ele>
        <time>2018-09-03T15:30:43Z</time>
      </trkpt>
      <trkpt lat="43.2700950" lon="-2.9109210">
        <ele>249.2</ele>
        <time>2018-09-03T15:30:44Z</time>
      </trkpt>
      <trkpt lat="43.2699920" lon="-2.9108260">
        <ele>249.6</ele>
        <time>2018-09-03T15:30:47Z</time>
      </trkpt>
      <trkpt lat="43.2698580" lon="-2.9106890">
        <ele>249.8</ele>
        <time>2018-09-03T15:30:51Z</time>
      </trkpt>
      <trkpt lat="43.2697260" lon="-2.9105520">
        <ele>250.2</ele>
        <time>2018-09-03T15:30:55Z</time>
      </trkpt>
      <trkpt lat="43.2696600" lon="-2.9104860">
        <ele>250.2</ele>
        <time>2018-09-03T15:30:57Z</time>
      </trkpt>
      <trkpt lat="43.2694490" lon="-2.9103190">
        <ele>251.4</ele>
        <time>2018-09-03T15:31:03Z</time>
      </trkpt>
      <trkpt lat="43.2692430" lon="-2.9100710">
        <ele>252.4</ele>
        <time>2018-09-03T15:31:10Z</time>
      </trkpt>
      <trkpt lat="43.2691900" lon="-2.9099840">
        <ele>252.8</ele>
        <time>2018-09-03T15:31:12Z</time>
      </trkpt>
      <trkpt lat="43.2691350" lon="-2.9098480">
        <ele>253.4</ele>
        <time>2018-09-03T15:31:16Z</time>
      </trkpt>
      <trkpt lat="43.2691070" lon="-2.9097250">
        <ele>254.4</ele>
        <time>2018-09-03T15:31:23Z</time>
      </trkpt>
      <trkpt lat="43.2691110" lon="-2.9096630">
        <ele>254.6</ele>
        <time>2018-09-03T15:31:25Z</time>
      </trkpt>
      <trkpt lat="43.2691700" lon="-2.9090620">
        <ele>254.8</ele>
        <time>2018-09-03T15:31:36Z</time>
      </trkpt>
      <trkpt lat="43.2692060" lon="-2.9087350">
        <ele>254.6</ele>
        <time>2018-09-03T15:31:41Z</time>
      </trkpt>
      <trkpt lat="43.2692330" lon="-2.9083980">
        <ele>254.6</ele>
        <time>2018-09-03T15:31:46Z</time>
      </trkpt>
      <trkpt lat="43.2692560" lon="-2.9081280">
        <ele>254.6</ele>
        <time>2018-09-03T15:31:50Z</time>
      </trkpt>
      <trkpt lat="43.2691480" lon="-2.9076550">
        <ele>255.6</ele>
        <time>2018-09-03T15:31:58Z</time>
      </trkpt>
      <trkpt lat="43.2691160" lon="-2.9076010">
        <ele>255.8</ele>
        <time>2018-09-03T15:31:59Z</time>
      </trkpt>
      <trkpt lat="43.2690810" lon="-2.9075500">
        <ele>256.0</ele>
        <time>2018-09-03T15:32:00Z</time>
      </trkpt>
      <trkpt lat="43.2689670" lon="-2.9073840">
        <ele>256.0</ele>
        <time>2018-09-03T15:32:03Z</time>
      </trkpt>
      <trkpt lat="43.2688990" lon="-2.9072660">
        <ele>256.0</ele>
        <time>2018-09-03T15:32:05Z</time>
      </trkpt>
      <trkpt lat="43.2688600" lon="-2.9072100">
        <ele>256.0</ele>
        <time>2018-09-03T15:32:06Z</time>
      </trkpt>
      <trkpt lat="43.2686930" lon="-2.9070900">
        <ele>255.8</ele>
        <time>2018-09-03T15:32:09Z</time>
      </trkpt>
      <trkpt lat="43.2684450" lon="-2.9071090">
        <ele>254.6</ele>
        <time>2018-09-03T15:32:13Z</time>
      </trkpt>
      <trkpt lat="43.2683980" lon="-2.9071420">
        <ele>254.6</ele>
        <time>2018-09-03T15:32:14Z</time>
      </trkpt>
      <trkpt lat="43.2682930" lon="-2.9072160">
        <ele>253.6</ele>
        <time>2018-09-03T15:32:16Z</time>
      </trkpt>
      <trkpt lat="43.2682300" lon="-2.9072500">
        <ele>252.8</ele>
        <time>2018-09-03T15:32:17Z</time>
      </trkpt>
      <trkpt lat="43.2681630" lon="-2.9072890">
        <ele>251.0</ele>
        <time>2018-09-03T15:32:18Z</time>
      </trkpt>
      <trkpt lat="43.2679480" lon="-2.9074210">
        <ele>249.8</ele>
        <time>2018-09-03T15:32:21Z</time>
      </trkpt>
      <trkpt lat="43.2677810" lon="-2.9075040">
        <ele>248.4</ele>
        <time>2018-09-03T15:32:23Z</time>
      </trkpt>
      <trkpt lat="43.2675930" lon="-2.9075660">
        <ele>247.0</ele>
        <time>2018-09-03T15:32:25Z</time>
      </trkpt>
      <trkpt lat="43.2674210" lon="-2.9076050">
        <ele>245.4</ele>
        <time>2018-09-03T15:32:27Z</time>
      </trkpt>
      <trkpt lat="43.2672840" lon="-2.9076200">
        <ele>243.6</ele>
        <time>2018-09-03T15:32:29Z</time>
      </trkpt>
      <trkpt lat="43.2672230" lon="-2.9076160">
        <ele>242.6</ele>
        <time>2018-09-03T15:32:30Z</time>
      </trkpt>
      <trkpt lat="43.2671650" lon="-2.9076100">
        <ele>241.2</ele>
        <time>2018-09-03T15:32:31Z</time>
      </trkpt>
      <trkpt lat="43.2671070" lon="-2.9076010">
        <ele>240.2</ele>
        <time>2018-09-03T15:32:32Z</time>
      </trkpt>
      <trkpt lat="43.2669290" lon="-2.9075510">
        <ele>238.8</ele>
        <time>2018-09-03T15:32:35Z</time>
      </trkpt>
      <trkpt lat="43.2667100" lon="-2.9074470">
        <ele>238.2</ele>
        <time>2018-09-03T15:32:38Z</time>
      </trkpt>
      <trkpt lat="43.2665670" lon="-2.9073810">
        <ele>237.4</ele>
        <time>2018-09-03T15:32:40Z</time>
      </trkpt>
      <trkpt lat="43.2664540" lon="-2.9073980">
        <ele>236.2</ele>
        <time>2018-09-03T15:32:42Z</time>
      </trkpt>
      <trkpt lat="43.2663690" lon="-2.9074630">
        <ele>234.4</ele>
        <time>2018-09-03T15:32:44Z</time>
      </trkpt>
      <trkpt lat="43.2663350" lon="-2.9074980">
        <ele>233.2</ele>
        <time>2018-09-03T15:32:45Z</time>
      </trkpt>
      <trkpt lat="43.2663050" lon="-2.9075280">
        <ele>232.0</ele>
        <time>2018-09-03T15:32:46Z</time>
      </trkpt>
      <trkpt lat="43.2662560" lon="-2.9075930">
        <ele>230.4</ele>
        <time>2018-09-03T15:32:48Z</time>
      </trkpt>
      <trkpt lat="43.2661690" lon="-2.9076940">
        <ele>228.8</ele>
        <time>2018-09-03T15:32:51Z</time>
      </trkpt>
      <trkpt lat="43.2661160" lon="-2.9077640">
        <ele>227.8</ele>
        <time>2018-09-03T15:32:53Z</time>
      </trkpt>
      <trkpt lat="43.2660460" lon="-2.9078790">
        <ele>226.6</ele>
        <time>2018-09-03T15:32:58Z</time>
      </trkpt>
      <trkpt lat="43.2660390" lon="-2.9078990">
        <ele>225.6</ele>
        <time>2018-09-03T15:33:01Z</time>
      </trkpt>
      <trkpt lat="43.2660380" lon="-2.9079020">
        <ele>225.4</ele>
        <time>2018-09-03T15:33:02Z</time>
      </trkpt>
      <trkpt lat="43.2660370" lon="-2.9079030">
        <ele>225.0</ele>
        <time>2018-09-03T15:33:06Z</time>
      </trkpt>
      <trkpt lat="43.2660370" lon="-2.9079030">
        <ele>224.8</ele>
        <time>2018-09-03T15:33:12Z</time>
      </trkpt>
      <trkpt lat="43.2660370" lon="-2.9079030">
        <ele>224.6</ele>
        <time>2018-09-03T15:33:22Z</time>
      </trkpt>
      <trkpt lat="43.2660370" lon="-2.9079030">
        <ele>224.6</ele>
        <time>2018-09-03T15:33:39Z</time>
      </trkpt>
      <trkpt lat="43.2660370" lon="-2.9079030">
        <ele>224.6</ele>
        <time>2018-09-03T15:33:42Z</time>
      </trkpt>
      <trkpt lat="43.2660370" lon="-2.9079030">
        <ele>224.4</ele>
        <time>2018-09-03T15:33:50Z</time>
      </trkpt>
      <trkpt lat="43.2660370" lon="-2.9079030">
        <ele>224.4</ele>
        <time>2018-09-03T15:33:52Z</time>
      </trkpt>
      <trkpt lat="43.2660370" lon="-2.9079030">
        <ele>224.4</ele>
        <time>2018-09-03T15:34:06Z</time>
      </trkpt>
      <trkpt lat="43.2660370" lon="-2.9079030">
        <ele>224.4</ele>
        <time>2018-09-03T15:34:08Z</time>
      </trkpt>
      <trkpt lat="43.2660370" lon="-2.9079030">
        <ele>224.4</ele>
        <time>2018-09-03T15:34:16Z</time>
      </trkpt>
      <trkpt lat="43.2660370" lon="-2.9079030">
        <ele>224.2</ele>
        <time>2018-09-03T15:34:25Z</time>
      </trkpt>
      <trkpt lat="43.2660370" lon="-2.9079030">
        <ele>224.0</ele>
        <time>2018-09-03T15:34:35Z</time>
      </trkpt>
      <trkpt lat="43.2660370" lon="-2.9079030">
        <ele>224.2</ele>
        <time>2018-09-03T15:34:38Z</time>
      </trkpt>
      <trkpt lat="43.2660370" lon="-2.9079030">
        <ele>224.2</ele>
        <time>2018-09-03T15:34:42Z</time>
      </trkpt>
      <trkpt lat="43.2660370" lon="-2.9079030">
        <ele>224.4</ele>
        <time>2018-09-03T15:34:47Z</time>
      </trkpt>
      <trkpt lat="43.2660370" lon="-2.9079030">
        <ele>224.4</ele>
        <time>2018-09-03T15:34:49Z</time>
      </trkpt>
      <trkpt lat="43.2660370" lon="-2.9079030">
        <ele>224.4</ele>
        <time>2018-09-03T15:34:55Z</time>
      </trkpt>
      <trkpt lat="43.2660370" lon="-2.9079030">
        <ele>224.4</ele>
        <time>2018-09-03T15:34:58Z</time>
      </trkpt>
      <trkpt lat="43.2660370" lon="-2.9079030">
        <ele>224.2</ele>
        <time>2018-09-03T15:35:07Z</time>
      </trkpt>
      <trkpt lat="43.2660370" lon="-2.9079030">
        <ele>224.0</ele>
        <time>2018-09-03T15:35:12Z</time>
      </trkpt>
      <trkpt lat="43.2660370" lon="-2.9079030">
        <ele>224.0</ele>
        <time>2018-09-03T15:35:27Z</time>
      </trkpt>
      <trkpt lat="43.2660370" lon="-2.9079030">
        <ele>224.0</ele>
        <time>2018-09-03T15:35:29Z</time>
      </trkpt>
      <trkpt lat="43.2660370" lon="-2.9079030">
        <ele>224.0</ele>
        <time>2018-09-03T15:35:31Z</time>
      </trkpt>
      <trkpt lat="43.2660370" lon="-2.9079030">
        <ele>224.0</ele>
        <time>2018-09-03T15:35:34Z</time>
      </trkpt>
      <trkpt lat="43.2660370" lon="-2.9079030">
        <ele>224.0</ele>
        <time>2018-09-03T15:35:47Z</time>
      </trkpt>
      <trkpt lat="43.2660370" lon="-2.9079030">
        <ele>223.8</ele>
        <time>2018-09-03T15:35:55Z</time>
      </trkpt>
      <trkpt lat="43.2660370" lon="-2.9079030">
        <ele>223.8</ele>
        <time>2018-09-03T15:36:00Z</time>
      </trkpt>
      <trkpt lat="43.2660370" lon="-2.9079030">
        <ele>223.8</ele>
        <time>2018-09-03T15:36:09Z</time>
      </trkpt>
      <trkpt lat="43.2660370" lon="-2.9079030">
        <ele>224.0</ele>
        <time>2018-09-03T15:36:17Z</time>
      </trkpt>
      <trkpt lat="43.2660370" lon="-2.9079030">
        <ele>224.0</ele>
        <time>2018-09-03T15:36:20Z</time>
      </trkpt>
      <trkpt lat="43.2660370" lon="-2.9079030">
        <ele>224.2</ele>
        <time>2018-09-03T15:36:26Z</time>
      </trkpt>
      <trkpt lat="43.2660370" lon="-2.9079030">
        <ele>224.2</ele>
        <time>2018-09-03T15:36:42Z</time>
      </trkpt>
      <trkpt lat="43.2660370" lon="-2.9079030">
        <ele>224.2</ele>
        <time>2018-09-03T15:36:51Z</time>
      </trkpt>
      <trkpt lat="43.2660370" lon="-2.9079030">
        <ele>224.2</ele>
        <time>2018-09-03T15:36:57Z</time>
      </trkpt>
      <trkpt lat="43.2660360" lon="-2.9079030">
        <ele>224.0</ele>
        <time>2018-09-03T15:37:05Z</time>
      </trkpt>
      <trkpt lat="43.2660160" lon="-2.9079150">
        <ele>224.0</ele>
        <time>2018-09-03T15:37:10Z</time>
      </trkpt>
      <trkpt lat="43.2659890" lon="-2.9079540">
        <ele>224.0</ele>
        <time>2018-09-03T15:37:15Z</time>
      </trkpt>
      <trkpt lat="43.2659040" lon="-2.9080440">
        <ele>223.8</ele>
        <time>2018-09-03T15:37:19Z</time>
      </trkpt>
      <trkpt lat="43.2658360" lon="-2.9081080">
        <ele>223.4</ele>
        <time>2018-09-03T15:37:23Z</time>
      </trkpt>
      <trkpt lat="43.2658060" lon="-2.9081420">
        <ele>223.0</ele>
        <time>2018-09-03T15:37:26Z</time>
      </trkpt>
      <trkpt lat="43.2657770" lon="-2.9081760">
        <ele>222.4</ele>
        <time>2018-09-03T15:37:29Z</time>
      </trkpt>
      <trkpt lat="43.2654980" lon="-2.9083090">
        <ele>221.2</ele>
        <time>2018-09-03T15:37:38Z</time>
      </trkpt>
      <trkpt lat="43.2654230" lon="-2.9083060">
        <ele>220.2</ele>
        <time>2018-09-03T15:37:40Z</time>
      </trkpt>
      <trkpt lat="43.2653120" lon="-2.9082870">
        <ele>218.8</ele>
        <time>2018-09-03T15:37:43Z</time>
      </trkpt>
      <trkpt lat="43.2651990" lon="-2.9082480">
        <ele>217.6</ele>
        <time>2018-09-03T15:37:46Z</time>
      </trkpt>
      <trkpt lat="43.2650140" lon="-2.9081520">
        <ele>216.4</ele>
        <time>2018-09-03T15:37:50Z</time>
      </trkpt>
      <trkpt lat="43.2648380" lon="-2.9080600">
        <ele>215.0</ele>
        <time>2018-09-03T15:37:53Z</time>
      </trkpt>
      <trkpt lat="43.2647270" lon="-2.9080060">
        <ele>214.0</ele>
        <time>2018-09-03T15:37:55Z</time>
      </trkpt>
      <trkpt lat="43.2646380" lon="-2.9080090">
        <ele>212.6</ele>
        <time>2018-09-03T15:37:57Z</time>
      </trkpt>
      <trkpt lat="43.2645730" lon="-2.9080580">
        <ele>211.0</ele>
        <time>2018-09-03T15:37:59Z</time>
      </trkpt>
      <trkpt lat="43.2645440" lon="-2.9080890">
        <ele>210.4</ele>
        <time>2018-09-03T15:38:00Z</time>
      </trkpt>
      <trkpt lat="43.2645150" lon="-2.9081230">
        <ele>209.8</ele>
        <time>2018-09-03T15:38:01Z</time>
      </trkpt>
      <trkpt lat="43.2644360" lon="-2.9082360">
        <ele>208.4</ele>
        <time>2018-09-03T15:38:04Z</time>
      </trkpt>
      <trkpt lat="43.2643490" lon="-2.9083550">
        <ele>207.2</ele>
        <time>2018-09-03T15:38:07Z</time>
      </trkpt>
      <trkpt lat="43.2642900" lon="-2.9084450">
        <ele>205.6</ele>
        <time>2018-09-03T15:38:09Z</time>
      </trkpt>
      <trkpt lat="43.2642350" lon="-2.9085450">
        <ele>204.2</ele>
        <time>2018-09-03T15:38:11Z</time>
      </trkpt>
      <trkpt lat="43.2641830" lon="-2.9086520">
        <ele>202.2</ele>
        <time>2018-09-03T15:38:13Z</time>
      </trkpt>
      <trkpt lat="43.2641430" lon="-2.9087640">
        <ele>200.2</ele>
        <time>2018-09-03T15:38:15Z</time>
      </trkpt>
      <trkpt lat="43.2641140" lon="-2.9088800">
        <ele>198.4</ele>
        <time>2018-09-03T15:38:17Z</time>
      </trkpt>
      <trkpt lat="43.2641040" lon="-2.9089420">
        <ele>197.2</ele>
        <time>2018-09-03T15:38:18Z</time>
      </trkpt>
      <trkpt lat="43.2640920" lon="-2.9090050">
        <ele>196.2</ele>
        <time>2018-09-03T15:38:19Z</time>
      </trkpt>
      <trkpt lat="43.2640770" lon="-2.9090730">
        <ele>195.0</ele>
        <time>2018-09-03T15:38:20Z</time>
      </trkpt>
      <trkpt lat="43.2640610" lon="-2.9091430">
        <ele>193.8</ele>
        <time>2018-09-03T15:38:21Z</time>
      </trkpt>
      <trkpt lat="43.2640270" lon="-2.9092820">
        <ele>192.2</ele>
        <time>2018-09-03T15:38:23Z</time>
      </trkpt>
      <trkpt lat="43.2639910" lon="-2.9094370">
        <ele>190.6</ele>
        <time>2018-09-03T15:38:25Z</time>
      </trkpt>
      <trkpt lat="43.2639600" lon="-2.9096120">
        <ele>189.2</ele>
        <time>2018-09-03T15:38:27Z</time>
      </trkpt>
      <trkpt lat="43.2639160" lon="-2.9097820">
        <ele>187.2</ele>
        <time>2018-09-03T15:38:29Z</time>
      </trkpt>
      <trkpt lat="43.2638580" lon="-2.9099460">
        <ele>185.4</ele>
        <time>2018-09-03T15:38:31Z</time>
      </trkpt>
      <trkpt lat="43.2638210" lon="-2.9100410">
        <ele>184.4</ele>
        <time>2018-09-03T15:38:32Z</time>
      </trkpt>
      <trkpt lat="43.2637750" lon="-2.9101430">
        <ele>183.2</ele>
        <time>2018-09-03T15:38:33Z</time>
      </trkpt>
      <trkpt lat="43.2637140" lon="-2.9102340">
        <ele>182.2</ele>
        <time>2018-09-03T15:38:34Z</time>
      </trkpt>
      <trkpt lat="43.2636300" lon="-2.9103080">
        <ele>181.2</ele>
        <time>2018-09-03T15:38:35Z</time>
      </trkpt>
      <trkpt lat="43.2635420" lon="-2.9103660">
        <ele>179.8</ele>
        <time>2018-09-03T15:38:36Z</time>
      </trkpt>
      <trkpt lat="43.2634510" lon="-2.9103770">
        <ele>178.4</ele>
        <time>2018-09-03T15:38:37Z</time>
      </trkpt>
      <trkpt lat="43.2633730" lon="-2.9103870">
        <ele>177.2</ele>
        <time>2018-09-03T15:38:38Z</time>
      </trkpt>
      <trkpt lat="43.2633020" lon="-2.9104130">
        <ele>173.6</ele>
        <time>2018-09-03T15:38:39Z</time>
      </trkpt>
      <trkpt lat="43.2632380" lon="-2.9104690">
        <ele>171.2</ele>
        <time>2018-09-03T15:38:40Z</time>
      </trkpt>
      <trkpt lat="43.2631860" lon="-2.9105350">
        <ele>169.0</ele>
        <time>2018-09-03T15:38:41Z</time>
      </trkpt>
      <trkpt lat="43.2631400" lon="-2.9105960">
        <ele>167.0</ele>
        <time>2018-09-03T15:38:42Z</time>
      </trkpt>
      <trkpt lat="43.2631030" lon="-2.9106530">
        <ele>165.8</ele>
        <time>2018-09-03T15:38:43Z</time>
      </trkpt>
      <trkpt lat="43.2630760" lon="-2.9107070">
        <ele>165.2</ele>
        <time>2018-09-03T15:38:44Z</time>
      </trkpt>
      <trkpt lat="43.2630530" lon="-2.9107510">
        <ele>164.8</ele>
        <time>2018-09-03T15:38:45Z</time>
      </trkpt>
      <trkpt lat="43.2630320" lon="-2.9108020">
        <ele>163.4</ele>
        <time>2018-09-03T15:38:47Z</time>
      </trkpt>
      <trkpt lat="43.2630290" lon="-2.9108290">
        <ele>162.2</ele>
        <time>2018-09-03T15:38:48Z</time>
      </trkpt>
      <trkpt lat="43.2630210" lon="-2.9108770">
        <ele>161.2</ele>
        <time>2018-09-03T15:38:49Z</time>
      </trkpt>
      <trkpt lat="43.2630040" lon="-2.9109330">
        <ele>160.6</ele>
        <time>2018-09-03T15:38:50Z</time>
      </trkpt>
      <trkpt lat="43.2629860" lon="-2.9109860">
        <ele>160.0</ele>
        <time>2018-09-03T15:38:51Z</time>
      </trkpt>
      <trkpt lat="43.2629750" lon="-2.9110850">
        <ele>158.6</ele>
        <time>2018-09-03T15:38:56Z</time>
      </trkpt>
      <trkpt lat="43.2629660" lon="-2.9111370">
        <ele>157.2</ele>
        <time>2018-09-03T15:38:58Z</time>
      </trkpt>
      <trkpt lat="43.2629530" lon="-2.9112820">
        <ele>156.4</ele>
        <time>2018-09-03T15:39:01Z</time>
      </trkpt>
      <trkpt lat="43.2628970" lon="-2.9114760">
        <ele>156.2</ele>
        <time>2018-09-03T15:39:04Z</time>
      </trkpt>
      <trkpt lat="43.2628780" lon="-2.9115330">
        <ele>156.0</ele>
        <time>2018-09-03T15:39:05Z</time>
      </trkpt>
      <trkpt lat="43.2628240" lon="-2.9116590">
        <ele>155.2</ele>
        <time>2018-09-03T15:39:07Z</time>
      </trkpt>
      <trkpt lat="43.2627400" lon="-2.9117880">
        <ele>153.2</ele>
        <time>2018-09-03T15:39:09Z</time>
      </trkpt>
      <trkpt lat="43.2626590" lon="-2.9119070">
        <ele>151.2</ele>
        <time>2018-09-03T15:39:11Z</time>
      </trkpt>
      <trkpt lat="43.2625920" lon="-2.9119990">
        <ele>149.8</ele>
        <time>2018-09-03T15:39:13Z</time>
      </trkpt>
      <trkpt lat="43.2625660" lon="-2.9120480">
        <ele>147.6</ele>
        <time>2018-09-03T15:39:14Z</time>
      </trkpt>
      <trkpt lat="43.2625410" lon="-2.9120890">
        <ele>145.6</ele>
        <time>2018-09-03T15:39:15Z</time>
      </trkpt>
      <trkpt lat="43.2625160" lon="-2.9121190">
        <ele>143.4</ele>
        <time>2018-09-03T15:39:16Z</time>
      </trkpt>
      <trkpt lat="43.2624870" lon="-2.9121390">
        <ele>141.8</ele>
        <time>2018-09-03T15:39:17Z</time>
      </trkpt>
      <trkpt lat="43.2624490" lon="-2.9121320">
        <ele>140.6</ele>
        <time>2018-09-03T15:39:18Z</time>
      </trkpt>
      <trkpt lat="43.2624060" lon="-2.9121040">
        <ele>139.4</ele>
        <time>2018-09-03T15:39:19Z</time>
      </trkpt>
      <trkpt lat="43.2623670" lon="-2.9120690">
        <ele>138.4</ele>
        <time>2018-09-03T15:39:20Z</time>
      </trkpt>
      <trkpt lat="43.2623280" lon="-2.9120320">
        <ele>137.4</ele>
        <time>2018-09-03T15:39:21Z</time>
      </trkpt>
      <trkpt lat="43.2622560" lon="-2.9119850">
        <ele>135.6</ele>
        <time>2018-09-03T15:39:23Z</time>
      </trkpt>
      <trkpt lat="43.2622070" lon="-2.9119740">
        <ele>134.0</ele>
        <time>2018-09-03T15:39:25Z</time>
      </trkpt>
      <trkpt lat="43.2621300" lon="-2.9119080">
        <ele>133.0</ele>
        <time>2018-09-03T15:39:28Z</time>
      </trkpt>
      <trkpt lat="43.2620640" lon="-2.9118890">
        <ele>132.8</ele>
        <time>2018-09-03T15:39:30Z</time>
      </trkpt>
      <trkpt lat="43.2619800" lon="-2.9119170">
        <ele>132.6</ele>
        <time>2018-09-03T15:39:33Z</time>
      </trkpt>
      <trkpt lat="43.2619320" lon="-2.9118860">
        <ele>132.6</ele>
        <time>2018-09-03T15:39:35Z</time>
      </trkpt>
      <trkpt lat="43.2619040" lon="-2.9118610">
        <ele>131.8</ele>
        <time>2018-09-03T15:39:37Z</time>
      </trkpt>
      <trkpt lat="43.2618870" lon="-2.9118220">
        <ele>131.4</ele>
        <time>2018-09-03T15:39:39Z</time>
      </trkpt>
      <trkpt lat="43.2618810" lon="-2.9118000">
        <ele>131.2</ele>
        <time>2018-09-03T15:39:40Z</time>
      </trkpt>
      <trkpt lat="43.2618560" lon="-2.9117390">
        <ele>131.2</ele>
        <time>2018-09-03T15:39:43Z</time>
      </trkpt>
      <trkpt lat="43.2618160" lon="-2.9116540">
        <ele>131.2</ele>
        <time>2018-09-03T15:39:47Z</time>
      </trkpt>
      <trkpt lat="43.2617870" lon="-2.9115900">
        <ele>131.8</ele>
        <time>2018-09-03T15:39:50Z</time>
      </trkpt>
      <trkpt lat="43.2617480" lon="-2.9115270">
        <ele>132.2</ele>
        <time>2018-09-03T15:39:53Z</time>
      </trkpt>
      <trkpt lat="43.2616980" lon="-2.9114510">
        <ele>133.0</ele>
        <time>2018-09-03T15:39:56Z</time>
      </trkpt>
      <trkpt lat="43.2614510" lon="-2.9113630">
        <ele>133.8</ele>
        <time>2018-09-03T15:40:09Z</time>
      </trkpt>
      <trkpt lat="43.2614090" lon="-2.9113670">
        <ele>133.8</ele>
        <time>2018-09-03T15:40:12Z</time>
      </trkpt>
      <trkpt lat="43.2612970" lon="-2.9114080">
        <ele>134.0</ele>
        <time>2018-09-03T15:40:17Z</time>
      </trkpt>
      <trkpt lat="43.2611350" lon="-2.9114710">
        <ele>134.0</ele>
        <time>2018-09-03T15:40:22Z</time>
      </trkpt>
      <trkpt lat="43.2611090" lon="-2.9115030">
        <ele>134.0</ele>
        <time>2018-09-03T15:40:24Z</time>
      </trkpt>
      <trkpt lat="43.2610780" lon="-2.9115310">
        <ele>134.0</ele>
        <time>2018-09-03T15:40:26Z</time>
      </trkpt>
      <trkpt lat="43.2609800" lon="-2.9116060">
        <ele>133.2</ele>
        <time>2018-09-03T15:40:31Z</time>
      </trkpt>
      <trkpt lat="43.2608010" lon="-2.9117200">
        <ele>132.4</ele>
        <time>2018-09-03T15:40:36Z</time>
      </trkpt>
      <trkpt lat="43.2607000" lon="-2.9117680">
        <ele>132.2</ele>
        <time>2018-09-03T15:40:38Z</time>
      </trkpt>
      <trkpt lat="43.2605790" lon="-2.9118310">
        <ele>131.6</ele>
        <time>2018-09-03T15:40:40Z</time>
      </trkpt>
      <trkpt lat="43.2605150" lon="-2.9118670">
        <ele>131.4</ele>
        <time>2018-09-03T15:40:41Z</time>
      </trkpt>
      <trkpt lat="43.2604460" lon="-2.9119060">
        <ele>131.0</ele>
        <time>2018-09-03T15:40:42Z</time>
      </trkpt>
      <trkpt lat="43.2602970" lon="-2.9119850">
        <ele>130.2</ele>
        <time>2018-09-03T15:40:44Z</time>
      </trkpt>
      <trkpt lat="43.2600460" lon="-2.9121150">
        <ele>128.4</ele>
        <time>2018-09-03T15:40:47Z</time>
      </trkpt>
      <trkpt lat="43.2598700" lon="-2.9122130">
        <ele>127.0</ele>
        <time>2018-09-03T15:40:49Z</time>
      </trkpt>
      <trkpt lat="43.2597120" lon="-2.9122910">
        <ele>125.8</ele>
        <time>2018-09-03T15:40:51Z</time>
      </trkpt>
      <trkpt lat="43.2595550" lon="-2.9123310">
        <ele>124.4</ele>
        <time>2018-09-03T15:40:53Z</time>
      </trkpt>
      <trkpt lat="43.2594170" lon="-2.9123550">
        <ele>122.6</ele>
        <time>2018-09-03T15:40:55Z</time>
      </trkpt>
      <trkpt lat="43.2592860" lon="-2.9123680">
        <ele>121.2</ele>
        <time>2018-09-03T15:40:58Z</time>
      </trkpt>
      <trkpt lat="43.2591760" lon="-2.9123800">
        <ele>120.2</ele>
        <time>2018-09-03T15:41:02Z</time>
      </trkpt>
      <trkpt lat="43.2590930" lon="-2.9123680">
        <ele>119.8</ele>
        <time>2018-09-03T15:41:05Z</time>
      </trkpt>
      <trkpt lat="43.2590040" lon="-2.9123470">
        <ele>119.4</ele>
        <time>2018-09-03T15:41:07Z</time>
      </trkpt>
      <trkpt lat="43.2589010" lon="-2.9123000">
        <ele>119.2</ele>
        <time>2018-09-03T15:41:09Z</time>
      </trkpt>
      <trkpt lat="43.2586520" lon="-2.9121880">
        <ele>118.0</ele>
        <time>2018-09-03T15:41:13Z</time>
      </trkpt>
      <trkpt lat="43.2585860" lon="-2.9121450">
        <ele>117.4</ele>
        <time>2018-09-03T15:41:14Z</time>
      </trkpt>
      <trkpt lat="43.2585230" lon="-2.9120880">
        <ele>117.0</ele>
        <time>2018-09-03T15:41:15Z</time>
      </trkpt>
      <trkpt lat="43.2584210" lon="-2.9119300">
        <ele>116.4</ele>
        <time>2018-09-03T15:41:17Z</time>
      </trkpt>
      <trkpt lat="43.2583780" lon="-2.9118440">
        <ele>116.0</ele>
        <time>2018-09-03T15:41:18Z</time>
      </trkpt>
      <trkpt lat="43.2582310" lon="-2.9115660">
        <ele>114.6</ele>
        <time>2018-09-03T15:41:21Z</time>
      </trkpt>
      <trkpt lat="43.2581210" lon="-2.9113710">
        <ele>113.2</ele>
        <time>2018-09-03T15:41:23Z</time>
      </trkpt>
      <trkpt lat="43.2580130" lon="-2.9111740">
        <ele>111.8</ele>
        <time>2018-09-03T15:41:25Z</time>
      </trkpt>
      <trkpt lat="43.2578790" lon="-2.9109370">
        <ele>110.6</ele>
        <time>2018-09-03T15:41:28Z</time>
      </trkpt>
      <trkpt lat="43.2578000" lon="-2.9107970">
        <ele>109.0</ele>
        <time>2018-09-03T15:41:30Z</time>
      </trkpt>
      <trkpt lat="43.2577200" lon="-2.9106420">
        <ele>107.4</ele>
        <time>2018-09-03T15:41:32Z</time>
      </trkpt>
      <trkpt lat="43.2576070" lon="-2.9104670">
        <ele>106.4</ele>
        <time>2018-09-03T15:41:35Z</time>
      </trkpt>
      <trkpt lat="43.2575610" lon="-2.9104330">
        <ele>106.2</ele>
        <time>2018-09-03T15:41:36Z</time>
      </trkpt>
      <trkpt lat="43.2574650" lon="-2.9104280">
        <ele>105.0</ele>
        <time>2018-09-03T15:41:38Z</time>
      </trkpt>
      <trkpt lat="43.2574160" lon="-2.9104400">
        <ele>104.4</ele>
        <time>2018-09-03T15:41:39Z</time>
      </trkpt>
      <trkpt lat="43.2573180" lon="-2.9104660">
        <ele>103.8</ele>
        <time>2018-09-03T15:41:41Z</time>
      </trkpt>
      <trkpt lat="43.2571760" lon="-2.9105060">
        <ele>102.2</ele>
        <time>2018-09-03T15:41:44Z</time>
      </trkpt>
      <trkpt lat="43.2570740" lon="-2.9105290">
        <ele>101.2</ele>
        <time>2018-09-03T15:41:46Z</time>
      </trkpt>
      <trkpt lat="43.2569630" lon="-2.9105650">
        <ele>100.0</ele>
        <time>2018-09-03T15:41:48Z</time>
      </trkpt>
      <trkpt lat="43.2567290" lon="-2.9106340">
        <ele>99.0</ele>
        <time>2018-09-03T15:41:52Z</time>
      </trkpt>
      <trkpt lat="43.2566830" lon="-2.9106510">
        <ele>98.6</ele>
        <time>2018-09-03T15:41:53Z</time>
      </trkpt>
      <trkpt lat="43.2565970" lon="-2.9107160">
        <ele>97.6</ele>
        <time>2018-09-03T15:41:55Z</time>
      </trkpt>
      <trkpt lat="43.2565350" lon="-2.9107900">
        <ele>96.2</ele>
        <time>2018-09-03T15:41:57Z</time>
      </trkpt>
      <trkpt lat="43.2565140" lon="-2.9108290">
        <ele>95.8</ele>
        <time>2018-09-03T15:41:58Z</time>
      </trkpt>
      <trkpt lat="43.2564920" lon="-2.9108770">
        <ele>95.4</ele>
        <time>2018-09-03T15:41:59Z</time>
      </trkpt>
      <trkpt lat="43.2564740" lon="-2.9109350">
        <ele>95.0</ele>
        <time>2018-09-03T15:42:00Z</time>
      </trkpt>
      <trkpt lat="43.2564630" lon="-2.9110820">
        <ele>94.0</ele>
        <time>2018-09-03T15:42:02Z</time>
      </trkpt>
      <trkpt lat="43.2564920" lon="-2.9112510">
        <ele>93.4</ele>
        <time>2018-09-03T15:42:04Z</time>
      </trkpt>
      <trkpt lat="43.2565210" lon="-2.9114020">
        <ele>93.0</ele>
        <time>2018-09-03T15:42:06Z</time>
      </trkpt>
      <trkpt lat="43.2565390" lon="-2.9114600">
        <ele>92.2</ele>
        <time>2018-09-03T15:42:07Z</time>
      </trkpt>
      <trkpt lat="43.2565720" lon="-2.9115310">
        <ele>91.0</ele>
        <time>2018-09-03T15:42:09Z</time>
      </trkpt>
      <trkpt lat="43.2565830" lon="-2.9115470">
        <ele>90.6</ele>
        <time>2018-09-03T15:42:10Z</time>
      </trkpt>
      <trkpt lat="43.2566080" lon="-2.9115690">
        <ele>90.4</ele>
        <time>2018-09-03T15:42:15Z</time>
      </trkpt>
      <trkpt lat="43.2566160" lon="-2.9115810">
        <ele>90.2</ele>
        <time>2018-09-03T15:42:17Z</time>
      </trkpt>
      <trkpt lat="43.2566380" lon="-2.9116130">
        <ele>90.2</ele>
        <time>2018-09-03T15:42:19Z</time>
      </trkpt>
      <trkpt lat="43.2567180" lon="-2.9116970">
        <ele>90.0</ele>
        <time>2018-09-03T15:42:23Z</time>
      </trkpt>
      <trkpt lat="43.2568590" lon="-2.9118380">
        <ele>90.0</ele>
        <time>2018-09-03T15:42:28Z</time>
      </trkpt>
      <trkpt lat="43.2569520" lon="-2.9119280">
        <ele>89.6</ele>
        <time>2018-09-03T15:42:31Z</time>
      </trkpt>
      <trkpt lat="43.2570530" lon="-2.9120300">
        <ele>89.2</ele>
        <time>2018-09-03T15:42:34Z</time>
      </trkpt>
      <trkpt lat="43.2571930" lon="-2.9121680">
        <ele>89.0</ele>
        <time>2018-09-03T15:42:38Z</time>
      </trkpt>
      <trkpt lat="43.2572650" lon="-2.9122370">
        <ele>89.0</ele>
        <time>2018-09-03T15:42:40Z</time>
      </trkpt>
      <trkpt lat="43.2574140" lon="-2.9123660">
        <ele>89.0</ele>
        <time>2018-09-03T15:42:44Z</time>
      </trkpt>
      <trkpt lat="43.2575550" lon="-2.9124530">
        <ele>89.0</ele>
        <time>2018-09-03T15:42:47Z</time>
      </trkpt>
      <trkpt lat="43.2577060" lon="-2.9125240">
        <ele>89.0</ele>
        <time>2018-09-03T15:42:50Z</time>
      </trkpt>
      <trkpt lat="43.2579050" lon="-2.9125950">
        <ele>88.8</ele>
        <time>2018-09-03T15:42:54Z</time>
      </trkpt>
      <trkpt lat="43.2581120" lon="-2.9126630">
        <ele>88.6</ele>
        <time>2018-09-03T15:42:58Z</time>
      </trkpt>
      <trkpt lat="43.2583110" lon="-2.9127480">
        <ele>88.4</ele>
        <time>2018-09-03T15:43:02Z</time>
      </trkpt>
      <trkpt lat="43.2588690" lon="-2.9128640">
        <ele>88.8</ele>
        <time>2018-09-03T15:43:14Z</time>
      </trkpt>
      <trkpt lat="43.2592620" lon="-2.9129350">
        <ele>89.2</ele>
        <time>2018-09-03T15:43:21Z</time>
      </trkpt>
      <trkpt lat="43.2592840" lon="-2.9129880">
        <ele>89.2</ele>
        <time>2018-09-03T15:43:22Z</time>
      </trkpt>
      <trkpt lat="43.2595790" lon="-2.9133350">
        <ele>89.4</ele>
        <time>2018-09-03T15:43:30Z</time>
      </trkpt>
      <trkpt lat="43.2600200" lon="-2.9138100">
        <ele>89.4</ele>
        <time>2018-09-03T15:43:41Z</time>
      </trkpt>
      <trkpt lat="43.2601920" lon="-2.9140040">
        <ele>89.2</ele>
        <time>2018-09-03T15:43:45Z</time>
      </trkpt>
      <trkpt lat="43.2602750" lon="-2.9140920">
        <ele>89.2</ele>
        <time>2018-09-03T15:43:47Z</time>
      </trkpt>
      <trkpt lat="43.2604290" lon="-2.9142630">
        <ele>88.2</ele>
        <time>2018-09-03T15:43:51Z</time>
      </trkpt>
      <trkpt lat="43.2604660" lon="-2.9143030">
        <ele>88.0</ele>
        <time>2018-09-03T15:43:52Z</time>
      </trkpt>
      <trkpt lat="43.2605980" lon="-2.9144380">
        <ele>87.8</ele>
        <time>2018-09-03T15:43:56Z</time>
      </trkpt>
      <trkpt lat="43.2610000" lon="-2.9148570">
        <ele>87.0</ele>
        <time>2018-09-03T15:44:11Z</time>
      </trkpt>
      <trkpt lat="43.2609980" lon="-2.9148700">
        <ele>86.8</ele>
        <time>2018-09-03T15:44:27Z</time>
      </trkpt>
      <trkpt lat="43.2609670" lon="-2.9148770">
        <ele>86.8</ele>
        <time>2018-09-03T15:44:31Z</time>
      </trkpt>
      <trkpt lat="43.2608500" lon="-2.9148610">
        <ele>86.8</ele>
        <time>2018-09-03T15:44:36Z</time>
      </trkpt>
      <trkpt lat="43.2607290" lon="-2.9147740">
        <ele>87.0</ele>
        <time>2018-09-03T15:44:42Z</time>
      </trkpt>
      <trkpt lat="43.2606620" lon="-2.9147090">
        <ele>87.2</ele>
        <time>2018-09-03T15:44:45Z</time>
      </trkpt>
      <trkpt lat="43.2605650" lon="-2.9146490">
        <ele>87.4</ele>
        <time>2018-09-03T15:44:49Z</time>
      </trkpt>
      <trkpt lat="43.2603750" lon="-2.9145760">
        <ele>87.8</ele>
        <time>2018-09-03T15:44:56Z</time>
      </trkpt>
      <trkpt lat="43.2603470" lon="-2.9145640">
        <ele>87.8</ele>
        <time>2018-09-03T15:44:57Z</time>
      </trkpt>
      <trkpt lat="43.2602700" lon="-2.9145110">
        <ele>88.0</ele>
        <time>2018-09-03T15:45:00Z</time>
      </trkpt>
      <trkpt lat="43.2601860" lon="-2.9144330">
        <ele>88.4</ele>
        <time>2018-09-03T15:45:04Z</time>
      </trkpt>
      <trkpt lat="43.2601100" lon="-2.9143580">
        <ele>88.6</ele>
        <time>2018-09-03T15:45:08Z</time>
      </trkpt>
      <trkpt lat="43.2600910" lon="-2.9143380">
        <ele>88.8</ele>
        <time>2018-09-03T15:45:09Z</time>
      </trkpt>
      <trkpt lat="43.2600120" lon="-2.9142570">
        <ele>89.6</ele>
        <time>2018-09-03T15:45:13Z</time>
      </trkpt>
      <trkpt lat="43.2599910" lon="-2.9142390">
        <ele>89.8</ele>
        <time>2018-09-03T15:45:14Z</time>
      </trkpt>
      <trkpt lat="43.2598820" lon="-2.9141610">
        <ele>90.8</ele>
        <time>2018-09-03T15:45:19Z</time>
      </trkpt>
      <trkpt lat="43.2598070" lon="-2.9141330">
        <ele>91.2</ele>
        <time>2018-09-03T15:45:22Z</time>
      </trkpt>
      <trkpt lat="43.2597300" lon="-2.9141210">
        <ele>91.8</ele>
        <time>2018-09-03T15:45:25Z</time>
      </trkpt>
      <trkpt lat="43.2597060" lon="-2.9141200">
        <ele>92.0</ele>
        <time>2018-09-03T15:45:26Z</time>
      </trkpt>
      <trkpt lat="43.2595110" lon="-2.9141360">
        <ele>93.0</ele>
        <time>2018-09-03T15:45:34Z</time>
      </trkpt>
      <trkpt lat="43.2594040" lon="-2.9141530">
        <ele>94.2</ele>
        <time>2018-09-03T15:45:38Z</time>
      </trkpt>
      <trkpt lat="43.2592840" lon="-2.9141550">
        <ele>95.4</ele>
        <time>2018-09-03T15:45:43Z</time>
      </trkpt>
      <trkpt lat="43.2591490" lon="-2.9141910">
        <ele>96.4</ele>
        <time>2018-09-03T15:45:49Z</time>
      </trkpt>
      <trkpt lat="43.2589640" lon="-2.9142280">
        <ele>97.2</ele>
        <time>2018-09-03T15:45:58Z</time>
      </trkpt>
      <trkpt lat="43.2589110" lon="-2.9141670">
        <ele>97.4</ele>
        <time>2018-09-03T15:46:02Z</time>
      </trkpt>
      <trkpt lat="43.2588370" lon="-2.9141260">
        <ele>97.8</ele>
        <time>2018-09-03T15:46:10Z</time>
      </trkpt>
      <trkpt lat="43.2588200" lon="-2.9141400">
        <ele>97.8</ele>
        <time>2018-09-03T15:46:12Z</time>
      </trkpt>
      <trkpt lat="43.2587980" lon="-2.9141560">
        <ele>97.8</ele>
        <time>2018-09-03T15:46:15Z</time>
      </trkpt>
      <trkpt lat="43.2587710" lon="-2.9141590">
        <ele>98.2</ele>
        <time>2018-09-03T15:46:18Z</time>
      </trkpt>
      <trkpt lat="43.2587630" lon="-2.9141620">
        <ele>98.4</ele>
        <time>2018-09-03T15:46:21Z</time>
      </trkpt>
      <trkpt lat="43.2587630" lon="-2.9141620">
        <ele>98.4</ele>
        <time>2018-09-03T15:46:30Z</time>
      </trkpt>
      <trkpt lat="43.2587630" lon="-2.9141620">
        <ele>98.4</ele>
        <time>2018-09-03T15:46:35Z</time>
      </trkpt>
      <trkpt lat="43.2587630" lon="-2.9141620">
        <ele>98.4</ele>
        <time>2018-09-03T15:46:37Z</time>
      </trkpt>
      <trkpt lat="43.2587630" lon="-2.9141620">
        <ele>98.4</ele>
        <time>2018-09-03T15:46:39Z</time>
      </trkpt>
      <trkpt lat="43.2587630" lon="-2.9141620">
        <ele>98.4</ele>
        <time>2018-09-03T15:46:42Z</time>
      </trkpt>
      <trkpt lat="43.2587630" lon="-2.9141620">
        <ele>98.2</ele>
        <time>2018-09-03T15:46:44Z</time>
      </trkpt>
      <trkpt lat="43.2587630" lon="-2.9141620">
        <ele>98.2</ele>
        <time>2018-09-03T15:46:46Z</time>
      </trkpt>
      <trkpt lat="43.2587630" lon="-2.9141620">
        <ele>98.2</ele>
        <time>2018-09-03T15:46:48Z</time>
      </trkpt>
      <trkpt lat="43.2587630" lon="-2.9141620">
        <ele>98.2</ele>
        <time>2018-09-03T15:46:52Z</time>
      </trkpt>
      <trkpt lat="43.2587630" lon="-2.9141620">
        <ele>98.4</ele>
        <time>2018-09-03T15:47:01Z</time>
      </trkpt>
      <trkpt lat="43.2587630" lon="-2.9141620">
        <ele>98.4</ele>
        <time>2018-09-03T15:47:04Z</time>
      </trkpt>
      <trkpt lat="43.2587630" lon="-2.9141620">
        <ele>98.4</ele>
        <time>2018-09-03T15:47:09Z</time>
      </trkpt>
      <trkpt lat="43.2587630" lon="-2.9141620">
        <ele>98.4</ele>
        <time>2018-09-03T15:47:12Z</time>
      </trkpt>
      <trkpt lat="43.2587630" lon="-2.9141620">
        <ele>98.6</ele>
        <time>2018-09-03T15:47:25Z</time>
      </trkpt>
      <trkpt lat="43.2587630" lon="-2.9141620">
        <ele>98.6</ele>
        <time>2018-09-03T15:47:34Z</time>
      </trkpt>
      <trkpt lat="43.2587630" lon="-2.9141620">
        <ele>98.4</ele>
        <time>2018-09-03T15:47:38Z</time>
      </trkpt>
      <trkpt lat="43.2587630" lon="-2.9141620">
        <ele>98.4</ele>
        <time>2018-09-03T15:47:46Z</time>
      </trkpt>
      <trkpt lat="43.2587630" lon="-2.9141620">
        <ele>98.4</ele>
        <time>2018-09-03T15:47:48Z</time>
      </trkpt>
      <trkpt lat="43.2587630" lon="-2.9141620">
        <ele>98.4</ele>
        <time>2018-09-03T15:47:50Z</time>
      </trkpt>
      <trkpt lat="43.2587630" lon="-2.9141620">
        <ele>98.4</ele>
        <time>2018-09-03T15:48:00Z</time>
      </trkpt>
      <trkpt lat="43.2587630" lon="-2.9141620">
        <ele>98.4</ele>
        <time>2018-09-03T15:48:10Z</time>
      </trkpt>
      <trkpt lat="43.2587630" lon="-2.9141620">
        <ele>98.4</ele>
        <time>2018-09-03T15:48:15Z</time>
      </trkpt>
      <trkpt lat="43.2587630" lon="-2.9141620">
        <ele>98.4</ele>
        <time>2018-09-03T15:48:17Z</time>
      </trkpt>
      <trkpt lat="43.2587630" lon="-2.9141620">
        <ele>98.4</ele>
        <time>2018-09-03T15:48:57Z</time>
      </trkpt>
      <trkpt lat="43.2587630" lon="-2.9141620">
        <ele>98.4</ele>
        <time>2018-09-03T15:49:05Z</time>
      </trkpt>
      <trkpt lat="43.2587630" lon="-2.9141620">
        <ele>98.4</ele>
        <time>2018-09-03T15:49:16Z</time>
      </trkpt>
      <trkpt lat="43.2587630" lon="-2.9141620">
        <ele>98.4</ele>
        <time>2018-09-03T15:49:18Z</time>
      </trkpt>
      <trkpt lat="43.2587630" lon="-2.9141620">
        <ele>98.0</ele>
        <time>2018-09-03T15:49:41Z</time>
      </trkpt>
      <trkpt lat="43.2587630" lon="-2.9141620">
        <ele>98.0</ele>
        <time>2018-09-03T15:49:48Z</time>
      </trkpt>
      <trkpt lat="43.2587580" lon="-2.9141610">
        <ele>98.4</ele>
        <time>2018-09-03T15:50:07Z</time>
      </trkpt>
      <trkpt lat="43.2587580" lon="-2.9141590">
        <ele>98.4</ele>
        <time>2018-09-03T15:50:13Z</time>
      </trkpt>
      <trkpt lat="43.2587520" lon="-2.9141480">
        <ele>98.2</ele>
        <time>2018-09-03T15:50:57Z</time>
      </trkpt>
      <trkpt lat="43.2587520" lon="-2.9141460">
        <ele>97.8</ele>
        <time>2018-09-03T15:51:07Z</time>
      </trkpt>
      <trkpt lat="43.2587520" lon="-2.9141490">
        <ele>98.0</ele>
        <time>2018-09-03T15:51:19Z</time>
      </trkpt>
      <trkpt lat="43.2587520" lon="-2.9141520">
        <ele>98.0</ele>
        <time>2018-09-03T15:51:39Z</time>
      </trkpt>
      <trkpt lat="43.2587520" lon="-2.9141530">
        <ele>98.0</ele>
        <time>2018-09-03T15:51:43Z</time>
      </trkpt>
      <trkpt lat="43.2587520" lon="-2.9141540">
        <ele>98.0</ele>
        <time>2018-09-03T15:52:00Z</time>
      </trkpt>
      <trkpt lat="43.2587510" lon="-2.9141530">
        <ele>98.2</ele>
        <time>2018-09-03T15:52:06Z</time>
      </trkpt>
      <trkpt lat="43.2587520" lon="-2.9141500">
        <ele>97.8</ele>
        <time>2018-09-03T15:52:29Z</time>
      </trkpt>
      <trkpt lat="43.2587520" lon="-2.9141500">
        <ele>97.6</ele>
        <time>2018-09-03T15:52:38Z</time>
      </trkpt>
      <trkpt lat="43.2587510" lon="-2.9141490">
        <ele>97.6</ele>
        <time>2018-09-03T15:52:44Z</time>
      </trkpt>
      <trkpt lat="43.2587520" lon="-2.9141490">
        <ele>97.8</ele>
        <time>2018-09-03T15:52:57Z</time>
      </trkpt>
      <trkpt lat="43.2587520" lon="-2.9141490">
        <ele>97.8</ele>
        <time>2018-09-03T15:53:01Z</time>
      </trkpt>
      <trkpt lat="43.2587520" lon="-2.9141490">
        <ele>97.8</ele>
        <time>2018-09-03T15:53:08Z</time>
      </trkpt>
      <trkpt lat="43.2587520" lon="-2.9141490">
        <ele>97.6</ele>
        <time>2018-09-03T15:53:21Z</time>
      </trkpt>
      <trkpt lat="43.2587520" lon="-2.9141470">
        <ele>97.6</ele>
        <time>2018-09-03T15:53:28Z</time>
      </trkpt>
      <trkpt lat="43.2587520" lon="-2.9141460">
        <ele>97.6</ele>
        <time>2018-09-03T15:53:30Z</time>
      </trkpt>
      <trkpt lat="43.2587520" lon="-2.9141460">
        <ele>97.6</ele>
        <time>2018-09-03T15:53:35Z</time>
      </trkpt>
      <trkpt lat="43.2587520" lon="-2.9141400">
        <ele>97.6</ele>
        <time>2018-09-03T15:53:41Z</time>
      </trkpt>
      <trkpt lat="43.2587530" lon="-2.9141380">
        <ele>97.6</ele>
        <time>2018-09-03T15:53:45Z</time>
      </trkpt>
      <trkpt lat="43.2587520" lon="-2.9141380">
        <ele>97.6</ele>
        <time>2018-09-03T15:53:49Z</time>
      </trkpt>
      <trkpt lat="43.2587280" lon="-2.9142510">
        <ele>97.2</ele>
        <time>2018-09-03T15:54:00Z</time>
      </trkpt>
      <trkpt lat="43.2587920" lon="-2.9143020">
        <ele>96.6</ele>
        <time>2018-09-03T15:54:04Z</time>
      </trkpt>
      <trkpt lat="43.2588940" lon="-2.9143970">
        <ele>96.4</ele>
        <time>2018-09-03T15:54:14Z</time>
      </trkpt>
      <trkpt lat="43.2589390" lon="-2.9146220">
        <ele>96.4</ele>
        <time>2018-09-03T15:54:20Z</time>
      </trkpt>
      <trkpt lat="43.2589270" lon="-2.9146890">
        <ele>96.4</ele>
        <time>2018-09-03T15:54:22Z</time>
      </trkpt>
      <trkpt lat="43.2589020" lon="-2.9147240">
        <ele>96.2</ele>
        <time>2018-09-03T15:54:24Z</time>
      </trkpt>
      <trkpt lat="43.2588930" lon="-2.9147580">
        <ele>96.2</ele>
        <time>2018-09-03T15:54:26Z</time>
      </trkpt>
      <trkpt lat="43.2588940" lon="-2.9147790">
        <ele>96.2</ele>
        <time>2018-09-03T15:54:27Z</time>
      </trkpt>
      <trkpt lat="43.2589230" lon="-2.9148910">
        <ele>95.8</ele>
        <time>2018-09-03T15:54:31Z</time>
      </trkpt>
      <trkpt lat="43.2589870" lon="-2.9153030">
        <ele>95.6</ele>
        <time>2018-09-03T15:54:39Z</time>
      </trkpt>
      <trkpt lat="43.2590190" lon="-2.9155290">
        <ele>95.0</ele>
        <time>2018-09-03T15:54:43Z</time>
      </trkpt>
      <trkpt lat="43.2590820" lon="-2.9157710">
        <ele>94.0</ele>
        <time>2018-09-03T15:54:47Z</time>
      </trkpt>
      <trkpt lat="43.2591700" lon="-2.9161050">
        <ele>92.6</ele>
        <time>2018-09-03T15:54:51Z</time>
      </trkpt>
      <trkpt lat="43.2592070" lon="-2.9162420">
        <ele>91.4</ele>
        <time>2018-09-03T15:54:53Z</time>
      </trkpt>
      <trkpt lat="43.2592480" lon="-2.9163350">
        <ele>89.8</ele>
        <time>2018-09-03T15:54:55Z</time>
      </trkpt>
      <trkpt lat="43.2593220" lon="-2.9164060">
        <ele>88.0</ele>
        <time>2018-09-03T15:54:57Z</time>
      </trkpt>
      <trkpt lat="43.2593870" lon="-2.9166170">
        <ele>86.8</ele>
        <time>2018-09-03T15:55:00Z</time>
      </trkpt>
      <trkpt lat="43.2594280" lon="-2.9167870">
        <ele>86.2</ele>
        <time>2018-09-03T15:55:02Z</time>
      </trkpt>
      <trkpt lat="43.2594630" lon="-2.9168510">
        <ele>85.8</ele>
        <time>2018-09-03T15:55:03Z</time>
      </trkpt>
      <trkpt lat="43.2595060" lon="-2.9169470">
        <ele>84.6</ele>
        <time>2018-09-03T15:55:05Z</time>
      </trkpt>
      <trkpt lat="43.2595370" lon="-2.9170540">
        <ele>82.6</ele>
        <time>2018-09-03T15:55:07Z</time>
      </trkpt>
      <trkpt lat="43.2595980" lon="-2.9172440">
        <ele>81.2</ele>
        <time>2018-09-03T15:55:10Z</time>
      </trkpt>
      <trkpt lat="43.2596670" lon="-2.9174590">
        <ele>80.8</ele>
        <time>2018-09-03T15:55:13Z</time>
      </trkpt>
      <trkpt lat="43.2597430" lon="-2.9177180">
        <ele>79.8</ele>
        <time>2018-09-03T15:55:16Z</time>
      </trkpt>
      <trkpt lat="43.2597960" lon="-2.9179070">
        <ele>78.4</ele>
        <time>2018-09-03T15:55:18Z</time>
      </trkpt>
      <trkpt lat="43.2599300" lon="-2.9182880">
        <ele>77.4</ele>
        <time>2018-09-03T15:55:22Z</time>
      </trkpt>
      <trkpt lat="43.2599730" lon="-2.9183760">
        <ele>76.6</ele>
        <time>2018-09-03T15:55:23Z</time>
      </trkpt>
      <trkpt lat="43.2600130" lon="-2.9184640">
        <ele>75.4</ele>
        <time>2018-09-03T15:55:24Z</time>
      </trkpt>
      <trkpt lat="43.2600880" lon="-2.9186200">
        <ele>73.2</ele>
        <time>2018-09-03T15:55:26Z</time>
      </trkpt>
      <trkpt lat="43.2601290" lon="-2.9186740">
        <ele>72.6</ele>
        <time>2018-09-03T15:55:27Z</time>
      </trkpt>
      <trkpt lat="43.2602160" lon="-2.9187870">
        <ele>72.2</ele>
        <time>2018-09-03T15:55:29Z</time>
      </trkpt>
      <trkpt lat="43.2603010" lon="-2.9188690">
        <ele>72.0</ele>
        <time>2018-09-03T15:55:31Z</time>
      </trkpt>
      <trkpt lat="43.2604000" lon="-2.9189900">
        <ele>72.0</ele>
        <time>2018-09-03T15:55:39Z</time>
      </trkpt>
      <trkpt lat="43.2604300" lon="-2.9190040">
        <ele>72.2</ele>
        <time>2018-09-03T15:55:41Z</time>
      </trkpt>
      <trkpt lat="43.2604310" lon="-2.9191050">
        <ele>72.8</ele>
        <time>2018-09-03T15:55:46Z</time>
      </trkpt>
      <trkpt lat="43.2604210" lon="-2.9191480">
        <ele>72.8</ele>
        <time>2018-09-03T15:55:48Z</time>
      </trkpt>
      <trkpt lat="43.2601050" lon="-2.9196850">
        <ele>72.2</ele>
        <time>2018-09-03T15:56:06Z</time>
      </trkpt>
      <trkpt lat="43.2598570" lon="-2.9201200">
        <ele>69.8</ele>
        <time>2018-09-03T15:56:13Z</time>
      </trkpt>
      <trkpt lat="43.2598430" lon="-2.9201510">
        <ele>68.0</ele>
        <time>2018-09-03T15:56:14Z</time>
      </trkpt>
      <trkpt lat="43.2598300" lon="-2.9201760">
        <ele>66.2</ele>
        <time>2018-09-03T15:56:15Z</time>
      </trkpt>
      <trkpt lat="43.2598170" lon="-2.9202010">
        <ele>64.8</ele>
        <time>2018-09-03T15:56:16Z</time>
      </trkpt>
      <trkpt lat="43.2598040" lon="-2.9202240">
        <ele>63.4</ele>
        <time>2018-09-03T15:56:17Z</time>
      </trkpt>
      <trkpt lat="43.2597920" lon="-2.9202460">
        <ele>62.2</ele>
        <time>2018-09-03T15:56:18Z</time>
      </trkpt>
      <trkpt lat="43.2597670" lon="-2.9202970">
        <ele>61.2</ele>
        <time>2018-09-03T15:56:21Z</time>
      </trkpt>
      <trkpt lat="43.2597430" lon="-2.9203280">
        <ele>60.4</ele>
        <time>2018-09-03T15:56:24Z</time>
      </trkpt>
      <trkpt lat="43.2597280" lon="-2.9203420">
        <ele>59.8</ele>
        <time>2018-09-03T15:56:25Z</time>
      </trkpt>
      <trkpt lat="43.2596880" lon="-2.9203970">
        <ele>58.6</ele>
        <time>2018-09-03T15:56:27Z</time>
      </trkpt>
      <trkpt lat="43.2596080" lon="-2.9204850">
        <ele>57.6</ele>
        <time>2018-09-03T15:56:30Z</time>
      </trkpt>
      <trkpt lat="43.2595500" lon="-2.9205430">
        <ele>56.4</ele>
        <time>2018-09-03T15:56:33Z</time>
      </trkpt>
      <trkpt lat="43.2595300" lon="-2.9205490">
        <ele>55.2</ele>
        <time>2018-09-03T15:56:34Z</time>
      </trkpt>
      <trkpt lat="43.2594830" lon="-2.9205800">
        <ele>53.6</ele>
        <time>2018-09-03T15:56:36Z</time>
      </trkpt>
      <trkpt lat="43.2594320" lon="-2.9206300">
        <ele>52.4</ele>
        <time>2018-09-03T15:56:38Z</time>
      </trkpt>
      <trkpt lat="43.2593370" lon="-2.9207330">
        <ele>51.0</ele>
        <time>2018-09-03T15:56:41Z</time>
      </trkpt>
      <trkpt lat="43.2592700" lon="-2.9208230">
        <ele>49.8</ele>
        <time>2018-09-03T15:56:44Z</time>
      </trkpt>
      <trkpt lat="43.2592290" lon="-2.9208530">
        <ele>48.8</ele>
        <time>2018-09-03T15:56:46Z</time>
      </trkpt>
      <trkpt lat="43.2591570" lon="-2.9208940">
        <ele>47.2</ele>
        <time>2018-09-03T15:56:49Z</time>
      </trkpt>
      <trkpt lat="43.2591020" lon="-2.9209630">
        <ele>45.8</ele>
        <time>2018-09-03T15:56:52Z</time>
      </trkpt>
      <trkpt lat="43.2590580" lon="-2.9210420">
        <ele>44.4</ele>
        <time>2018-09-03T15:56:56Z</time>
      </trkpt>
      <trkpt lat="43.2590330" lon="-2.9210910">
        <ele>43.4</ele>
        <time>2018-09-03T15:56:59Z</time>
      </trkpt>
      <trkpt lat="43.2590060" lon="-2.9211590">
        <ele>42.2</ele>
        <time>2018-09-03T15:57:02Z</time>
      </trkpt>
      <trkpt lat="43.2590090" lon="-2.9211950">
        <ele>41.4</ele>
        <time>2018-09-03T15:57:05Z</time>
      </trkpt>
      <trkpt lat="43.2590160" lon="-2.9212070">
        <ele>41.0</ele>
        <time>2018-09-03T15:57:06Z</time>
      </trkpt>
      <trkpt lat="43.2590210" lon="-2.9212090">
        <ele>39.8</ele>
        <time>2018-09-03T15:57:08Z</time>
      </trkpt>
      <trkpt lat="43.2590210" lon="-2.9212090">
        <ele>39.0</ele>
        <time>2018-09-03T15:57:13Z</time>
      </trkpt>
      <trkpt lat="43.2590210" lon="-2.9212090">
        <ele>39.0</ele>
        <time>2018-09-03T15:57:15Z</time>
      </trkpt>
      <trkpt lat="43.2590210" lon="-2.9212090">
        <ele>38.8</ele>
        <time>2018-09-03T15:57:21Z</time>
      </trkpt>
      <trkpt lat="43.2590210" lon="-2.9212090">
        <ele>38.8</ele>
        <time>2018-09-03T15:57:25Z</time>
      </trkpt>
      <trkpt lat="43.2590210" lon="-2.9212090">
        <ele>38.8</ele>
        <time>2018-09-03T15:57:30Z</time>
      </trkpt>
      <trkpt lat="43.2590180" lon="-2.9212150">
        <ele>39.0</ele>
        <time>2018-09-03T15:57:40Z</time>
      </trkpt>
      <trkpt lat="43.2590180" lon="-2.9212150">
        <ele>38.8</ele>
        <time>2018-09-03T15:57:44Z</time>
      </trkpt>
      <trkpt lat="43.2589700" lon="-2.9213560">
        <ele>38.0</ele>
        <time>2018-09-03T15:57:54Z</time>
      </trkpt>
      <trkpt lat="43.2589170" lon="-2.9214580">
        <ele>37.8</ele>
        <time>2018-09-03T15:57:56Z</time>
      </trkpt>
      <trkpt lat="43.2587950" lon="-2.9215860">
        <ele>36.6</ele>
        <time>2018-09-03T15:57:59Z</time>
      </trkpt>
      <trkpt lat="43.2586850" lon="-2.9216180">
        <ele>34.8</ele>
        <time>2018-09-03T15:58:01Z</time>
      </trkpt>
      <trkpt lat="43.2586460" lon="-2.9216330">
        <ele>33.4</ele>
        <time>2018-09-03T15:58:02Z</time>
      </trkpt>
      <trkpt lat="43.2586130" lon="-2.9216550">
        <ele>32.2</ele>
        <time>2018-09-03T15:58:03Z</time>
      </trkpt>
      <trkpt lat="43.2585860" lon="-2.9216790">
        <ele>31.0</ele>
        <time>2018-09-03T15:58:04Z</time>
      </trkpt>
      <trkpt lat="43.2585610" lon="-2.9217050">
        <ele>30.0</ele>
        <time>2018-09-03T15:58:05Z</time>
      </trkpt>
      <trkpt lat="43.2585320" lon="-2.9217300">
        <ele>29.0</ele>
        <time>2018-09-03T15:58:06Z</time>
      </trkpt>
      <trkpt lat="43.2585090" lon="-2.9217590">
        <ele>27.8</ele>
        <time>2018-09-03T15:58:07Z</time>
      </trkpt>
      <trkpt lat="43.2584620" lon="-2.9218140">
        <ele>26.0</ele>
        <time>2018-09-03T15:58:09Z</time>
      </trkpt>
      <trkpt lat="43.2584260" lon="-2.9218710">
        <ele>24.6</ele>
        <time>2018-09-03T15:58:11Z</time>
      </trkpt>
      <trkpt lat="43.2583900" lon="-2.9219200">
        <ele>23.4</ele>
        <time>2018-09-03T15:58:13Z</time>
      </trkpt>
      <trkpt lat="43.2583560" lon="-2.9219630">
        <ele>22.2</ele>
        <time>2018-09-03T15:58:15Z</time>
      </trkpt>
      <trkpt lat="43.2581910" lon="-2.9221680">
        <ele>21.2</ele>
        <time>2018-09-03T15:58:24Z</time>
      </trkpt>
      <trkpt lat="43.2581320" lon="-2.9222200">
        <ele>21.0</ele>
        <time>2018-09-03T15:58:27Z</time>
      </trkpt>
      <trkpt lat="43.2580830" lon="-2.9222750">
        <ele>20.6</ele>
        <time>2018-09-03T15:58:30Z</time>
      </trkpt>
      <trkpt lat="43.2579440" lon="-2.9224340">
        <ele>20.4</ele>
        <time>2018-09-03T15:58:40Z</time>
      </trkpt>
      <trkpt lat="43.2577580" lon="-2.9224960">
        <ele>20.2</ele>
        <time>2018-09-03T15:59:04Z</time>
      </trkpt>
      <trkpt lat="43.2575400" lon="-2.9227330">
        <ele>19.8</ele>
        <time>2018-09-03T15:59:16Z</time>
      </trkpt>
      <trkpt lat="43.2575310" lon="-2.9227450">
        <ele>19.8</ele>
        <time>2018-09-03T15:59:17Z</time>
      </trkpt>
      <trkpt lat="43.2575020" lon="-2.9227890">
        <ele>19.6</ele>
        <time>2018-09-03T15:59:20Z</time>
      </trkpt>
      <trkpt lat="43.2574070" lon="-2.9228850">
        <ele>19.4</ele>
        <time>2018-09-03T15:59:28Z</time>
      </trkpt>
      <trkpt lat="43.2573660" lon="-2.9229370">
        <ele>19.4</ele>
        <time>2018-09-03T15:59:31Z</time>
      </trkpt>
      <trkpt lat="43.2570310" lon="-2.9232820">
        <ele>20.0</ele>
        <time>2018-09-03T16:00:09Z</time>
      </trkpt>
      <trkpt lat="43.2570250" lon="-2.9232810">
        <ele>19.8</ele>
        <time>2018-09-03T16:00:16Z</time>
      </trkpt>
      <trkpt lat="43.2570250" lon="-2.9232810">
        <ele>19.8</ele>
        <time>2018-09-03T16:00:19Z</time>
      </trkpt>
      <trkpt lat="43.2566070" lon="-2.9235490">
        <ele>19.0</ele>
        <time>2018-09-03T16:08:41Z</time>
      </trkpt>
      <trkpt lat="43.2566070" lon="-2.9235480">
        <ele>19.2</ele>
        <time>2018-09-03T16:08:42Z</time>
      </trkpt>
      <trkpt lat="43.2566200" lon="-2.9235630">
        <ele>19.2</ele>
        <time>2018-09-03T16:08:54Z</time>
      </trkpt>
      <trkpt lat="43.2566200" lon="-2.9235620">
        <ele>19.2</ele>
        <time>2018-09-03T16:09:02Z</time>
      </trkpt>
      <trkpt lat="43.2566230" lon="-2.9235650">
        <ele>19.2</ele>
        <time>2018-09-03T16:09:25Z</time>
      </trkpt>
      <trkpt lat="43.2566290" lon="-2.9235700">
        <ele>19.2</ele>
        <time>2018-09-03T16:09:39Z</time>
      </trkpt>
      <trkpt lat="43.2566340" lon="-2.9235820">
        <ele>19.2</ele>
        <time>2018-09-03T16:09:52Z</time>
      </trkpt>
      <trkpt lat="43.2566290" lon="-2.9235850">
        <ele>19.2</ele>
        <time>2018-09-03T16:09:53Z</time>
      </trkpt>
      <trkpt lat="43.2566110" lon="-2.9235910">
        <ele>19.2</ele>
        <time>2018-09-03T16:09:55Z</time>
      </trkpt>
      <trkpt lat="43.2565990" lon="-2.9235950">
        <ele>19.2</ele>
        <time>2018-09-03T16:09:56Z</time>
      </trkpt>
      <trkpt lat="43.2565590" lon="-2.9236150">
        <ele>19.2</ele>
        <time>2018-09-03T16:09:59Z</time>
      </trkpt>
      <trkpt lat="43.2564490" lon="-2.9236610">
        <ele>19.2</ele>
        <time>2018-09-03T16:10:08Z</time>
      </trkpt>
      <trkpt lat="43.2562130" lon="-2.9238190">
        <ele>19.8</ele>
        <time>2018-09-03T16:10:24Z</time>
      </trkpt>
      <trkpt lat="43.2559940" lon="-2.9239660">
        <ele>19.6</ele>
        <time>2018-09-03T16:10:36Z</time>
      </trkpt>
      <trkpt lat="43.2558410" lon="-2.9240820">
        <ele>19.4</ele>
        <time>2018-09-03T16:10:44Z</time>
      </trkpt>
      <trkpt lat="43.2557100" lon="-2.9242350">
        <ele>19.0</ele>
        <time>2018-09-03T16:11:00Z</time>
      </trkpt>
      <trkpt lat="43.2557190" lon="-2.9242700">
        <ele>19.0</ele>
        <time>2018-09-03T16:11:03Z</time>
      </trkpt>
      <trkpt lat="43.2557190" lon="-2.9243120">
        <ele>18.8</ele>
        <time>2018-09-03T16:11:06Z</time>
      </trkpt>
      <trkpt lat="43.2557380" lon="-2.9243670">
        <ele>18.8</ele>
        <time>2018-09-03T16:11:09Z</time>
      </trkpt>
      <trkpt lat="43.2557670" lon="-2.9244560">
        <ele>18.6</ele>
        <time>2018-09-03T16:11:12Z</time>
      </trkpt>
      <trkpt lat="43.2558200" lon="-2.9246180">
        <ele>18.4</ele>
        <time>2018-09-03T16:11:16Z</time>
      </trkpt>
      <trkpt lat="43.2558690" lon="-2.9247310">
        <ele>18.2</ele>
        <time>2018-09-03T16:11:19Z</time>
      </trkpt>
      <trkpt lat="43.2559190" lon="-2.9248580">
        <ele>18.2</ele>
        <time>2018-09-03T16:11:22Z</time>
      </trkpt>
      <trkpt lat="43.2559510" lon="-2.9249510">
        <ele>18.0</ele>
        <time>2018-09-03T16:11:24Z</time>
      </trkpt>
      <trkpt lat="43.2560100" lon="-2.9251230">
        <ele>17.8</ele>
        <time>2018-09-03T16:11:28Z</time>
      </trkpt>
      <trkpt lat="43.2560300" lon="-2.9252810">
        <ele>17.8</ele>
        <time>2018-09-03T16:11:32Z</time>
      </trkpt>
      <trkpt lat="43.2561390" lon="-2.9253920">
        <ele>17.6</ele>
        <time>2018-09-03T16:11:38Z</time>
      </trkpt>
      <trkpt lat="43.2562320" lon="-2.9254540">
        <ele>17.8</ele>
        <time>2018-09-03T16:11:43Z</time>
      </trkpt>
      <trkpt lat="43.2566260" lon="-2.9258500">
        <ele>17.8</ele>
        <time>2018-09-03T16:12:04Z</time>
      </trkpt>
      <trkpt lat="43.2567840" lon="-2.9260170">
        <ele>17.4</ele>
        <time>2018-09-03T16:12:11Z</time>
      </trkpt>
      <trkpt lat="43.2569110" lon="-2.9261260">
        <ele>17.4</ele>
        <time>2018-09-03T16:12:16Z</time>
      </trkpt>
      <trkpt lat="43.2570090" lon="-2.9262040">
        <ele>17.4</ele>
        <time>2018-09-03T16:12:20Z</time>
      </trkpt>
      <trkpt lat="43.2573410" lon="-2.9264130">
        <ele>17.0</ele>
        <time>2018-09-03T16:12:33Z</time>
      </trkpt>
      <trkpt lat="43.2574850" lon="-2.9265080">
        <ele>16.8</ele>
        <time>2018-09-03T16:12:39Z</time>
      </trkpt>
      <trkpt lat="43.2575650" lon="-2.9266520">
        <ele>17.4</ele>
        <time>2018-09-03T16:12:46Z</time>
      </trkpt>
      <trkpt lat="43.2575860" lon="-2.9266720">
        <ele>17.8</ele>
        <time>2018-09-03T16:12:48Z</time>
      </trkpt>
      <trkpt lat="43.2576390" lon="-2.9266820">
        <ele>18.8</ele>
        <time>2018-09-03T16:12:51Z</time>
      </trkpt>
      <trkpt lat="43.2577190" lon="-2.9266180">
        <ele>19.2</ele>
        <time>2018-09-03T16:12:56Z</time>
      </trkpt>
      <trkpt lat="43.2577610" lon="-2.9265890">
        <ele>19.2</ele>
        <time>2018-09-03T16:13:00Z</time>
      </trkpt>
      <trkpt lat="43.2578250" lon="-2.9265610">
        <ele>19.2</ele>
        <time>2018-09-03T16:13:03Z</time>
      </trkpt>
      <trkpt lat="43.2580520" lon="-2.9266500">
        <ele>18.4</ele>
        <time>2018-09-03T16:13:11Z</time>
      </trkpt>
      <trkpt lat="43.2581190" lon="-2.9266660">
        <ele>17.8</ele>
        <time>2018-09-03T16:13:13Z</time>
      </trkpt>
      <trkpt lat="43.2582660" lon="-2.9266820">
        <ele>17.6</ele>
        <time>2018-09-03T16:13:18Z</time>
      </trkpt>
      <trkpt lat="43.2583530" lon="-2.9266810">
        <ele>17.6</ele>
        <time>2018-09-03T16:13:21Z</time>
      </trkpt>
      <trkpt lat="43.2588730" lon="-2.9263640">
        <ele>17.8</ele>
        <time>2018-09-03T16:13:40Z</time>
      </trkpt>
      <trkpt lat="43.2590750" lon="-2.9260420">
        <ele>17.4</ele>
        <time>2018-09-03T16:13:49Z</time>
      </trkpt>
      <trkpt lat="43.2591250" lon="-2.9259710">
        <ele>17.4</ele>
        <time>2018-09-03T16:13:51Z</time>
      </trkpt>
      <trkpt lat="43.2592280" lon="-2.9258090">
        <ele>17.4</ele>
        <time>2018-09-03T16:13:55Z</time>
      </trkpt>
      <trkpt lat="43.2593910" lon="-2.9255800">
        <ele>17.0</ele>
        <time>2018-09-03T16:14:02Z</time>
      </trkpt>
      <trkpt lat="43.2595230" lon="-2.9253950">
        <ele>17.2</ele>
        <time>2018-09-03T16:14:08Z</time>
      </trkpt>
      <trkpt lat="43.2598250" lon="-2.9248700">
        <ele>17.6</ele>
        <time>2018-09-03T16:14:22Z</time>
      </trkpt>
      <trkpt lat="43.2599180" lon="-2.9247310">
        <ele>17.6</ele>
        <time>2018-09-03T16:14:26Z</time>
      </trkpt>
      <trkpt lat="43.2600550" lon="-2.9245600">
        <ele>17.6</ele>
        <time>2018-09-03T16:14:30Z</time>
      </trkpt>
      <trkpt lat="43.2602000" lon="-2.9244620">
        <ele>17.4</ele>
        <time>2018-09-03T16:14:34Z</time>
      </trkpt>
      <trkpt lat="43.2606870" lon="-2.9241230">
        <ele>16.8</ele>
        <time>2018-09-03T16:14:51Z</time>
      </trkpt>
      <trkpt lat="43.2609200" lon="-2.9239560">
        <ele>16.6</ele>
        <time>2018-09-03T16:14:58Z</time>
      </trkpt>
      <trkpt lat="43.2614040" lon="-2.9235890">
        <ele>16.8</ele>
        <time>2018-09-03T16:15:15Z</time>
      </trkpt>
      <trkpt lat="43.2618560" lon="-2.9233640">
        <ele>16.6</ele>
        <time>2018-09-03T16:15:33Z</time>
      </trkpt>
      <trkpt lat="43.2619420" lon="-2.9233420">
        <ele>16.8</ele>
        <time>2018-09-03T16:15:36Z</time>
      </trkpt>
      <trkpt lat="43.2621870" lon="-2.9232830">
        <ele>17.0</ele>
        <time>2018-09-03T16:15:44Z</time>
      </trkpt>
      <trkpt lat="43.2623080" lon="-2.9232170">
        <ele>17.2</ele>
        <time>2018-09-03T16:15:49Z</time>
      </trkpt>
      <trkpt lat="43.2624380" lon="-2.9232590">
        <ele>17.2</ele>
        <time>2018-09-03T16:15:54Z</time>
      </trkpt>
      <trkpt lat="43.2625850" lon="-2.9232660">
        <ele>17.4</ele>
        <time>2018-09-03T16:15:59Z</time>
      </trkpt>
      <trkpt lat="43.2629790" lon="-2.9232960">
        <ele>17.8</ele>
        <time>2018-09-03T16:16:13Z</time>
      </trkpt>
      <trkpt lat="43.2630100" lon="-2.9232840">
        <ele>17.8</ele>
        <time>2018-09-03T16:16:14Z</time>
      </trkpt>
      <trkpt lat="43.2631030" lon="-2.9232440">
        <ele>18.0</ele>
        <time>2018-09-03T16:16:17Z</time>
      </trkpt>
      <trkpt lat="43.2633300" lon="-2.9233450">
        <ele>18.8</ele>
        <time>2018-09-03T16:16:27Z</time>
      </trkpt>
      <trkpt lat="43.2632980" lon="-2.9235400">
        <ele>19.8</ele>
        <time>2018-09-03T16:16:35Z</time>
      </trkpt>
      <trkpt lat="43.2632140" lon="-2.9236780">
        <ele>20.4</ele>
        <time>2018-09-03T16:16:39Z</time>
      </trkpt>
      <trkpt lat="43.2630170" lon="-2.9240120">
        <ele>20.8</ele>
        <time>2018-09-03T16:16:49Z</time>
      </trkpt>
      <trkpt lat="43.2629230" lon="-2.9241450">
        <ele>21.2</ele>
        <time>2018-09-03T16:16:55Z</time>
      </trkpt>
      <trkpt lat="43.2629080" lon="-2.9241650">
        <ele>21.2</ele>
        <time>2018-09-03T16:16:56Z</time>
      </trkpt>
      <trkpt lat="43.2628750" lon="-2.9242580">
        <ele>21.6</ele>
        <time>2018-09-03T16:17:00Z</time>
      </trkpt>
      <trkpt lat="43.2628620" lon="-2.9243010">
        <ele>21.8</ele>
        <time>2018-09-03T16:17:02Z</time>
      </trkpt>
      <trkpt lat="43.2628260" lon="-2.9243340">
        <ele>21.8</ele>
        <time>2018-09-03T16:17:05Z</time>
      </trkpt>
      <trkpt lat="43.2628000" lon="-2.9243610">
        <ele>22.0</ele>
        <time>2018-09-03T16:17:08Z</time>
      </trkpt>
      <trkpt lat="43.2627860" lon="-2.9243740">
        <ele>22.0</ele>
        <time>2018-09-03T16:17:10Z</time>
      </trkpt>
      <trkpt lat="43.2627780" lon="-2.9243880">
        <ele>22.0</ele>
        <time>2018-09-03T16:17:11Z</time>
      </trkpt>
      <trkpt lat="43.2627610" lon="-2.9244920">
        <ele>22.0</ele>
        <time>2018-09-03T16:17:15Z</time>
      </trkpt>
      <trkpt lat="43.2627600" lon="-2.9244970">
        <ele>21.8</ele>
        <time>2018-09-03T16:17:20Z</time>
      </trkpt>
      <trkpt lat="43.2627590" lon="-2.9244960">
        <ele>21.8</ele>
        <time>2018-09-03T16:17:29Z</time>
      </trkpt>
      <trkpt lat="43.2627590" lon="-2.9244960">
        <ele>22.2</ele>
        <time>2018-09-03T16:17:35Z</time>
      </trkpt>
      <trkpt lat="43.2627590" lon="-2.9244960">
        <ele>22.0</ele>
        <time>2018-09-03T16:17:37Z</time>
      </trkpt>
      <trkpt lat="43.2627590" lon="-2.9244960">
        <ele>21.8</ele>
        <time>2018-09-03T16:17:54Z</time>
      </trkpt>
      <trkpt lat="43.2627590" lon="-2.9244960">
        <ele>21.8</ele>
        <time>2018-09-03T16:17:58Z</time>
      </trkpt>
      <trkpt lat="43.2627590" lon="-2.9244960">
        <ele>21.8</ele>
        <time>2018-09-03T16:18:02Z</time>
      </trkpt>
      <trkpt lat="43.2627590" lon="-2.9244960">
        <ele>22.0</ele>
        <time>2018-09-03T16:18:09Z</time>
      </trkpt>
      <trkpt lat="43.2627590" lon="-2.9244960">
        <ele>21.6</ele>
        <time>2018-09-03T16:18:26Z</time>
      </trkpt>
      <trkpt lat="43.2627590" lon="-2.9244960">
        <ele>22.0</ele>
        <time>2018-09-03T16:18:53Z</time>
      </trkpt>
      <trkpt lat="43.2627590" lon="-2.9244960">
        <ele>22.2</ele>
        <time>2018-09-03T16:18:58Z</time>
      </trkpt>
      <trkpt lat="43.2627590" lon="-2.9244960">
        <ele>22.4</ele>
        <time>2018-09-03T16:19:03Z</time>
      </trkpt>
      <trkpt lat="43.2627590" lon="-2.9244960">
        <ele>22.4</ele>
        <time>2018-09-03T16:19:05Z</time>
      </trkpt>
      <trkpt lat="43.2627650" lon="-2.9244910">
        <ele>22.4</ele>
        <time>2018-09-03T16:19:07Z</time>
      </trkpt>
      <trkpt lat="43.2627750" lon="-2.9244900">
        <ele>22.4</ele>
        <time>2018-09-03T16:19:08Z</time>
      </trkpt>
      <trkpt lat="43.2628250" lon="-2.9244820">
        <ele>22.2</ele>
        <time>2018-09-03T16:19:11Z</time>
      </trkpt>
      <trkpt lat="43.2629760" lon="-2.9244800">
        <ele>21.6</ele>
        <time>2018-09-03T16:19:17Z</time>
      </trkpt>
      <trkpt lat="43.2630560" lon="-2.9245030">
        <ele>21.4</ele>
        <time>2018-09-03T16:19:20Z</time>
      </trkpt>
      <trkpt lat="43.2630850" lon="-2.9245130">
        <ele>21.2</ele>
        <time>2018-09-03T16:19:21Z</time>
      </trkpt>
      <trkpt lat="43.2631880" lon="-2.9245670">
        <ele>21.2</ele>
        <time>2018-09-03T16:19:25Z</time>
      </trkpt>
      <trkpt lat="43.2632110" lon="-2.9245740">
        <ele>21.0</ele>
        <time>2018-09-03T16:19:27Z</time>
      </trkpt>
      <trkpt lat="43.2632860" lon="-2.9246230">
        <ele>20.4</ele>
        <time>2018-09-03T16:19:32Z</time>
      </trkpt>
      <trkpt lat="43.2633980" lon="-2.9247250">
        <ele>20.0</ele>
        <time>2018-09-03T16:19:37Z</time>
      </trkpt>
      <trkpt lat="43.2635380" lon="-2.9248510">
        <ele>18.8</ele>
        <time>2018-09-03T16:19:43Z</time>
      </trkpt>
      <trkpt lat="43.2636150" lon="-2.9249120">
        <ele>18.6</ele>
        <time>2018-09-03T16:19:46Z</time>
      </trkpt>
      <trkpt lat="43.2637520" lon="-2.9250940">
        <ele>18.0</ele>
        <time>2018-09-03T16:19:51Z</time>
      </trkpt>
      <trkpt lat="43.2638060" lon="-2.9252040">
        <ele>17.8</ele>
        <time>2018-09-03T16:19:53Z</time>
      </trkpt>
      <trkpt lat="43.2641400" lon="-2.9258440">
        <ele>17.2</ele>
        <time>2018-09-03T16:20:05Z</time>
      </trkpt>
      <trkpt lat="43.2642250" lon="-2.9259960">
        <ele>17.0</ele>
        <time>2018-09-03T16:20:08Z</time>
      </trkpt>
      <trkpt lat="43.2642930" lon="-2.9260990">
        <ele>16.8</ele>
        <time>2018-09-03T16:20:10Z</time>
      </trkpt>
      <trkpt lat="43.2644050" lon="-2.9262740">
        <ele>16.2</ele>
        <time>2018-09-03T16:20:13Z</time>
      </trkpt>
      <trkpt lat="43.2644720" lon="-2.9263860">
        <ele>16.0</ele>
        <time>2018-09-03T16:20:15Z</time>
      </trkpt>
      <trkpt lat="43.2645730" lon="-2.9265430">
        <ele>15.8</ele>
        <time>2018-09-03T16:20:18Z</time>
      </trkpt>
      <trkpt lat="43.2646120" lon="-2.9265920">
        <ele>15.8</ele>
        <time>2018-09-03T16:20:19Z</time>
      </trkpt>
      <trkpt lat="43.2647110" lon="-2.9267470">
        <ele>15.6</ele>
        <time>2018-09-03T16:20:22Z</time>
      </trkpt>
      <trkpt lat="43.2648400" lon="-2.9269630">
        <ele>15.2</ele>
        <time>2018-09-03T16:20:26Z</time>
      </trkpt>
      <trkpt lat="43.2649470" lon="-2.9271260">
        <ele>14.6</ele>
        <time>2018-09-03T16:20:29Z</time>
      </trkpt>
      <trkpt lat="43.2650460" lon="-2.9273000">
        <ele>14.4</ele>
        <time>2018-09-03T16:20:32Z</time>
      </trkpt>
      <trkpt lat="43.2652360" lon="-2.9276090">
        <ele>14.6</ele>
        <time>2018-09-03T16:20:38Z</time>
      </trkpt>
      <trkpt lat="43.2653370" lon="-2.9277380">
        <ele>15.6</ele>
        <time>2018-09-03T16:20:41Z</time>
      </trkpt>
      <trkpt lat="43.2655140" lon="-2.9279250">
        <ele>16.8</ele>
        <time>2018-09-03T16:20:46Z</time>
      </trkpt>
      <trkpt lat="43.2656590" lon="-2.9280810">
        <ele>16.8</ele>
        <time>2018-09-03T16:20:50Z</time>
      </trkpt>
      <trkpt lat="43.2658150" lon="-2.9282880">
        <ele>16.6</ele>
        <time>2018-09-03T16:20:55Z</time>
      </trkpt>
      <trkpt lat="43.2660080" lon="-2.9285350">
        <ele>16.6</ele>
        <time>2018-09-03T16:21:01Z</time>
      </trkpt>
      <trkpt lat="43.2661710" lon="-2.9287020">
        <ele>16.6</ele>
        <time>2018-09-03T16:21:06Z</time>
      </trkpt>
      <trkpt lat="43.2662580" lon="-2.9288270">
        <ele>16.6</ele>
        <time>2018-09-03T16:21:09Z</time>
      </trkpt>
      <trkpt lat="43.2665860" lon="-2.9291740">
        <ele>16.4</ele>
        <time>2018-09-03T16:21:18Z</time>
      </trkpt>
      <trkpt lat="43.2666610" lon="-2.9292520">
        <ele>16.4</ele>
        <time>2018-09-03T16:21:20Z</time>
      </trkpt>
      <trkpt lat="43.2667380" lon="-2.9293310">
        <ele>16.4</ele>
        <time>2018-09-03T16:21:22Z</time>
      </trkpt>
      <trkpt lat="43.2669300" lon="-2.9295360">
        <ele>16.2</ele>
        <time>2018-09-03T16:21:27Z</time>
      </trkpt>
      <trkpt lat="43.2670550" lon="-2.9296510">
        <ele>16.2</ele>
        <time>2018-09-03T16:21:30Z</time>
      </trkpt>
      <trkpt lat="43.2672670" lon="-2.9298190">
        <ele>16.0</ele>
        <time>2018-09-03T16:21:35Z</time>
      </trkpt>
      <trkpt lat="43.2674310" lon="-2.9299660">
        <ele>15.8</ele>
        <time>2018-09-03T16:21:39Z</time>
      </trkpt>
      <trkpt lat="43.2674710" lon="-2.9300040">
        <ele>15.6</ele>
        <time>2018-09-03T16:21:40Z</time>
      </trkpt>
      <trkpt lat="43.2675940" lon="-2.9301240">
        <ele>15.4</ele>
        <time>2018-09-03T16:21:43Z</time>
      </trkpt>
      <trkpt lat="43.2677370" lon="-2.9302980">
        <ele>15.4</ele>
        <time>2018-09-03T16:21:47Z</time>
      </trkpt>
      <trkpt lat="43.2678860" lon="-2.9305330">
        <ele>15.8</ele>
        <time>2018-09-03T16:21:52Z</time>
      </trkpt>
      <trkpt lat="43.2679700" lon="-2.9306910">
        <ele>16.4</ele>
        <time>2018-09-03T16:21:55Z</time>
      </trkpt>
      <trkpt lat="43.2679910" lon="-2.9307450">
        <ele>16.4</ele>
        <time>2018-09-03T16:21:56Z</time>
      </trkpt>
      <trkpt lat="43.2680290" lon="-2.9308550">
        <ele>16.6</ele>
        <time>2018-09-03T16:21:58Z</time>
      </trkpt>
      <trkpt lat="43.2680490" lon="-2.9309820">
        <ele>16.6</ele>
        <time>2018-09-03T16:22:00Z</time>
      </trkpt>
      <trkpt lat="43.2680940" lon="-2.9312200">
        <ele>16.6</ele>
        <time>2018-09-03T16:22:04Z</time>
      </trkpt>
      <trkpt lat="43.2682780" lon="-2.9314030">
        <ele>16.8</ele>
        <time>2018-09-03T16:22:10Z</time>
      </trkpt>
      <trkpt lat="43.2681760" lon="-2.9320010">
        <ele>17.2</ele>
        <time>2018-09-03T16:22:24Z</time>
      </trkpt>
      <trkpt lat="43.2681530" lon="-2.9322350">
        <ele>17.4</ele>
        <time>2018-09-03T16:22:29Z</time>
      </trkpt>
      <trkpt lat="43.2681540" lon="-2.9324310">
        <ele>17.6</ele>
        <time>2018-09-03T16:22:33Z</time>
      </trkpt>
      <trkpt lat="43.2681460" lon="-2.9328600">
        <ele>18.2</ele>
        <time>2018-09-03T16:22:43Z</time>
      </trkpt>
      <trkpt lat="43.2681380" lon="-2.9331030">
        <ele>18.4</ele>
        <time>2018-09-03T16:22:48Z</time>
      </trkpt>
      <trkpt lat="43.2680880" lon="-2.9338800">
        <ele>18.8</ele>
        <time>2018-09-03T16:23:01Z</time>
      </trkpt>
      <trkpt lat="43.2679980" lon="-2.9342640">
        <ele>18.6</ele>
        <time>2018-09-03T16:23:08Z</time>
      </trkpt>
      <trkpt lat="43.2679970" lon="-2.9346520">
        <ele>18.6</ele>
        <time>2018-09-03T16:23:13Z</time>
      </trkpt>
      <trkpt lat="43.2680720" lon="-2.9349460">
        <ele>18.4</ele>
        <time>2018-09-03T16:23:17Z</time>
      </trkpt>
      <trkpt lat="43.2681120" lon="-2.9349650">
        <ele>18.4</ele>
        <time>2018-09-03T16:23:18Z</time>
      </trkpt>
      <trkpt lat="43.2682180" lon="-2.9350300">
        <ele>17.8</ele>
        <time>2018-09-03T16:23:21Z</time>
      </trkpt>
      <trkpt lat="43.2683150" lon="-2.9350760">
        <ele>17.4</ele>
        <time>2018-09-03T16:23:24Z</time>
      </trkpt>
      <trkpt lat="43.2683540" lon="-2.9350870">
        <ele>17.4</ele>
        <time>2018-09-03T16:23:25Z</time>
      </trkpt>
      <trkpt lat="43.2684570" lon="-2.9351140">
        <ele>17.4</ele>
        <time>2018-09-03T16:23:28Z</time>
      </trkpt>
      <trkpt lat="43.2685880" lon="-2.9351180">
        <ele>17.0</ele>
        <time>2018-09-03T16:23:32Z</time>
      </trkpt>
      <trkpt lat="43.2686770" lon="-2.9350740">
        <ele>17.0</ele>
        <time>2018-09-03T16:23:35Z</time>
      </trkpt>
      <trkpt lat="43.2686910" lon="-2.9350070">
        <ele>17.0</ele>
        <time>2018-09-03T16:23:37Z</time>
      </trkpt>
      <trkpt lat="43.2686810" lon="-2.9349170">
        <ele>17.0</ele>
        <time>2018-09-03T16:23:40Z</time>
      </trkpt>
      <trkpt lat="43.2686820" lon="-2.9348970">
        <ele>17.0</ele>
        <time>2018-09-03T16:23:41Z</time>
      </trkpt>
      <trkpt lat="43.2686990" lon="-2.9348770">
        <ele>17.0</ele>
        <time>2018-09-03T16:23:42Z</time>
      </trkpt>
      <trkpt lat="43.2687370" lon="-2.9348740">
        <ele>17.4</ele>
        <time>2018-09-03T16:23:47Z</time>
      </trkpt>
      <trkpt lat="43.2686310" lon="-2.9348110">
        <ele>17.4</ele>
        <time>2018-09-03T16:23:53Z</time>
      </trkpt>
      <trkpt lat="43.2685900" lon="-2.9347920">
        <ele>17.6</ele>
        <time>2018-09-03T16:23:55Z</time>
      </trkpt>
      <trkpt lat="43.2685490" lon="-2.9347770">
        <ele>17.6</ele>
        <time>2018-09-03T16:23:57Z</time>
      </trkpt>
      <trkpt lat="43.2685070" lon="-2.9347690">
        <ele>17.6</ele>
        <time>2018-09-03T16:23:59Z</time>
      </trkpt>
      <trkpt lat="43.2684660" lon="-2.9347630">
        <ele>17.8</ele>
        <time>2018-09-03T16:24:01Z</time>
      </trkpt>
      <trkpt lat="43.2684380" lon="-2.9347500">
        <ele>18.4</ele>
        <time>2018-09-03T16:24:03Z</time>
      </trkpt>
      <trkpt lat="43.2684230" lon="-2.9347360">
        <ele>18.6</ele>
        <time>2018-09-03T16:24:04Z</time>
      </trkpt>
      <trkpt lat="43.2683970" lon="-2.9347050">
        <ele>19.0</ele>
        <time>2018-09-03T16:24:06Z</time>
      </trkpt>
      <trkpt lat="43.2683620" lon="-2.9346820">
        <ele>19.4</ele>
        <time>2018-09-03T16:24:08Z</time>
      </trkpt>
      <trkpt lat="43.2683460" lon="-2.9346660">
        <ele>19.8</ele>
        <time>2018-09-03T16:24:09Z</time>
      </trkpt>
      <trkpt lat="43.2683000" lon="-2.9346360">
        <ele>20.8</ele>
        <time>2018-09-03T16:24:13Z</time>
      </trkpt>
      <trkpt lat="43.2682380" lon="-2.9346130">
        <ele>21.6</ele>
        <time>2018-09-03T16:24:17Z</time>
      </trkpt>
      <trkpt lat="43.2682200" lon="-2.9346090">
        <ele>21.8</ele>
        <time>2018-09-03T16:24:18Z</time>
      </trkpt>
      <trkpt lat="43.2681310" lon="-2.9346000">
        <ele>23.2</ele>
        <time>2018-09-03T16:24:24Z</time>
      </trkpt>
      <trkpt lat="43.2680290" lon="-2.9346180">
        <ele>24.4</ele>
        <time>2018-09-03T16:24:30Z</time>
      </trkpt>
      <trkpt lat="43.2679770" lon="-2.9346250">
        <ele>25.6</ele>
        <time>2018-09-03T16:24:34Z</time>
      </trkpt>
      <trkpt lat="43.2679540" lon="-2.9346110">
        <ele>26.0</ele>
        <time>2018-09-03T16:24:36Z</time>
      </trkpt>
      <trkpt lat="43.2679490" lon="-2.9345800">
        <ele>26.6</ele>
        <time>2018-09-03T16:24:39Z</time>
      </trkpt>
      <trkpt lat="43.2679640" lon="-2.9345690">
        <ele>27.4</ele>
        <time>2018-09-03T16:24:44Z</time>
      </trkpt>
      <trkpt lat="43.2679640" lon="-2.9345690">
        <ele>27.6</ele>
        <time>2018-09-03T16:24:47Z</time>
      </trkpt>
      <trkpt lat="43.2679640" lon="-2.9345690">
        <ele>27.6</ele>
        <time>2018-09-03T16:24:49Z</time>
      </trkpt>
      <trkpt lat="43.2679640" lon="-2.9345690">
        <ele>27.6</ele>
        <time>2018-09-03T16:24:51Z</time>
      </trkpt>
      <trkpt lat="43.2679640" lon="-2.9345690">
        <ele>27.4</ele>
        <time>2018-09-03T16:24:57Z</time>
      </trkpt>
      <trkpt lat="43.2679650" lon="-2.9345690">
        <ele>27.6</ele>
        <time>2018-09-03T16:25:11Z</time>
      </trkpt>
      <trkpt lat="43.2679650" lon="-2.9345690">
        <ele>27.6</ele>
        <time>2018-09-03T16:25:18Z</time>
      </trkpt>
      <trkpt lat="43.2679650" lon="-2.9345690">
        <ele>27.6</ele>
        <time>2018-09-03T16:25:22Z</time>
      </trkpt>
      <trkpt lat="43.2679650" lon="-2.9345690">
        <ele>27.6</ele>
        <time>2018-09-03T16:25:25Z</time>
      </trkpt>
      <trkpt lat="43.2679650" lon="-2.9345690">
        <ele>27.6</ele>
        <time>2018-09-03T16:25:27Z</time>
      </trkpt>
      <trkpt lat="43.2679650" lon="-2.9345690">
        <ele>27.6</ele>
        <time>2018-09-03T16:25:29Z</time>
      </trkpt>
      <trkpt lat="43.2679650" lon="-2.9345690">
        <ele>27.6</ele>
        <time>2018-09-03T16:25:33Z</time>
      </trkpt>
      <trkpt lat="43.2679650" lon="-2.9345690">
        <ele>27.6</ele>
        <time>2018-09-03T16:25:35Z</time>
      </trkpt>
      <trkpt lat="43.2679650" lon="-2.9345690">
        <ele>27.6</ele>
        <time>2018-09-03T16:25:37Z</time>
      </trkpt>
      <trkpt lat="43.2679650" lon="-2.9345690">
        <ele>27.4</ele>
        <time>2018-09-03T16:25:53Z</time>
      </trkpt>
      <trkpt lat="43.2679650" lon="-2.9345690">
        <ele>27.4</ele>
        <time>2018-09-03T16:25:55Z</time>
      </trkpt>
      <trkpt lat="43.2679650" lon="-2.9345690">
        <ele>27.4</ele>
        <time>2018-09-03T16:25:57Z</time>
      </trkpt>
      <trkpt lat="43.2679650" lon="-2.9345690">
        <ele>27.2</ele>
        <time>2018-09-03T16:26:09Z</time>
      </trkpt>
      <trkpt lat="43.2679650" lon="-2.9345690">
        <ele>27.2</ele>
        <time>2018-09-03T16:26:13Z</time>
      </trkpt>
      <trkpt lat="43.2679650" lon="-2.9345690">
        <ele>27.4</ele>
        <time>2018-09-03T16:26:24Z</time>
      </trkpt>
      <trkpt lat="43.2679650" lon="-2.9345690">
        <ele>27.4</ele>
        <time>2018-09-03T16:26:32Z</time>
      </trkpt>
      <trkpt lat="43.2679650" lon="-2.9345690">
        <ele>27.2</ele>
        <time>2018-09-03T16:26:37Z</time>
      </trkpt>
      <trkpt lat="43.2679650" lon="-2.9345690">
        <ele>27.2</ele>
        <time>2018-09-03T16:26:42Z</time>
      </trkpt>
      <trkpt lat="43.2679650" lon="-2.9345690">
        <ele>27.0</ele>
        <time>2018-09-03T16:26:56Z</time>
      </trkpt>
      <trkpt lat="43.2679650" lon="-2.9345690">
        <ele>27.2</ele>
        <time>2018-09-03T16:27:09Z</time>
      </trkpt>
      <trkpt lat="43.2679650" lon="-2.9345690">
        <ele>27.2</ele>
        <time>2018-09-03T16:27:11Z</time>
      </trkpt>
      <trkpt lat="43.2679650" lon="-2.9345690">
        <ele>27.2</ele>
        <time>2018-09-03T16:27:13Z</time>
      </trkpt>
      <trkpt lat="43.2679650" lon="-2.9345690">
        <ele>27.2</ele>
        <time>2018-09-03T16:27:16Z</time>
      </trkpt>
      <trkpt lat="43.2679650" lon="-2.9345690">
        <ele>27.0</ele>
        <time>2018-09-03T16:27:28Z</time>
      </trkpt>
      <trkpt lat="43.2679650" lon="-2.9345690">
        <ele>27.0</ele>
        <time>2018-09-03T16:27:32Z</time>
      </trkpt>
      <trkpt lat="43.2679530" lon="-2.9345710">
        <ele>27.0</ele>
        <time>2018-09-03T16:27:37Z</time>
      </trkpt>
      <trkpt lat="43.2678950" lon="-2.9345820">
        <ele>26.8</ele>
        <time>2018-09-03T16:27:41Z</time>
      </trkpt>
      <trkpt lat="43.2678280" lon="-2.9345810">
        <ele>26.8</ele>
        <time>2018-09-03T16:27:45Z</time>
      </trkpt>
      <trkpt lat="43.2677990" lon="-2.9345810">
        <ele>26.6</ele>
        <time>2018-09-03T16:27:47Z</time>
      </trkpt>
      <trkpt lat="43.2677280" lon="-2.9345800">
        <ele>26.6</ele>
        <time>2018-09-03T16:27:52Z</time>
      </trkpt>
      <trkpt lat="43.2676740" lon="-2.9345690">
        <ele>26.6</ele>
        <time>2018-09-03T16:27:56Z</time>
      </trkpt>
      <trkpt lat="43.2676190" lon="-2.9344810">
        <ele>27.0</ele>
        <time>2018-09-03T16:28:14Z</time>
      </trkpt>
      <trkpt lat="43.2676180" lon="-2.9344770">
        <ele>27.0</ele>
        <time>2018-09-03T16:28:20Z</time>
      </trkpt>
      <trkpt lat="43.2676180" lon="-2.9344750">
        <ele>27.0</ele>
        <time>2018-09-03T16:28:25Z</time>
      </trkpt>
      <trkpt lat="43.2676180" lon="-2.9344750">
        <ele>27.0</ele>
        <time>2018-09-03T16:28:28Z</time>
      </trkpt>
      <trkpt lat="43.2676080" lon="-2.9344860">
        <ele>27.2</ele>
        <time>2018-09-03T16:28:35Z</time>
      </trkpt>
      <trkpt lat="43.2675980" lon="-2.9344940">
        <ele>27.2</ele>
        <time>2018-09-03T16:28:37Z</time>
      </trkpt>
      <trkpt lat="43.2675900" lon="-2.9344980">
        <ele>27.2</ele>
        <time>2018-09-03T16:28:39Z</time>
      </trkpt>
      <trkpt lat="43.2675890" lon="-2.9344990">
        <ele>26.8</ele>
        <time>2018-09-03T16:28:42Z</time>
      </trkpt>
      <trkpt lat="43.2675920" lon="-2.9345010">
        <ele>26.8</ele>
        <time>2018-09-03T16:28:45Z</time>
      </trkpt>
      <trkpt lat="43.2675920" lon="-2.9345010">
        <ele>26.8</ele>
        <time>2018-09-03T16:28:47Z</time>
      </trkpt>
      <trkpt lat="43.2675920" lon="-2.9345010">
        <ele>26.8</ele>
        <time>2018-09-03T16:28:49Z</time>
      </trkpt>
      <trkpt lat="43.2675920" lon="-2.9345010">
        <ele>27.0</ele>
        <time>2018-09-03T16:29:02Z</time>
      </trkpt>
      <trkpt lat="43.2675860" lon="-2.9344920">
        <ele>27.4</ele>
        <time>2018-09-03T16:29:29Z</time>
      </trkpt>
      <trkpt lat="43.2675790" lon="-2.9344840">
        <ele>27.2</ele>
        <time>2018-09-03T16:29:41Z</time>
      </trkpt>
      <trkpt lat="43.2675790" lon="-2.9344840">
        <ele>27.2</ele>
        <time>2018-09-03T16:29:48Z</time>
      </trkpt>
      <trkpt lat="43.2675790" lon="-2.9344840">
        <ele>27.2</ele>
        <time>2018-09-03T16:29:51Z</time>
      </trkpt>
      <trkpt lat="43.2675790" lon="-2.9344840">
        <ele>27.2</ele>
        <time>2018-09-03T16:29:59Z</time>
      </trkpt>
      <trkpt lat="43.2675800" lon="-2.9344850">
        <ele>27.0</ele>
        <time>2018-09-03T16:30:04Z</time>
      </trkpt>
      <trkpt lat="43.2675800" lon="-2.9344850">
        <ele>27.0</ele>
        <time>2018-09-03T16:30:07Z</time>
      </trkpt>
      <trkpt lat="43.2675790" lon="-2.9344850">
        <ele>27.0</ele>
        <time>2018-09-03T16:30:10Z</time>
      </trkpt>
      <trkpt lat="43.2675540" lon="-2.9344600">
        <ele>27.0</ele>
        <time>2018-09-03T16:30:15Z</time>
      </trkpt>
      <trkpt lat="43.2675280" lon="-2.9344760">
        <ele>27.0</ele>
        <time>2018-09-03T16:30:22Z</time>
      </trkpt>
      <trkpt lat="43.2675110" lon="-2.9344830">
        <ele>26.8</ele>
        <time>2018-09-03T16:30:24Z</time>
      </trkpt>
      <trkpt lat="43.2675230" lon="-2.9345220">
        <ele>26.6</ele>
        <time>2018-09-03T16:30:29Z</time>
      </trkpt>
      <trkpt lat="43.2675580" lon="-2.9345310">
        <ele>26.6</ele>
        <time>2018-09-03T16:30:33Z</time>
      </trkpt>
      <trkpt lat="43.2675460" lon="-2.9344780">
        <ele>26.6</ele>
        <time>2018-09-03T16:30:39Z</time>
      </trkpt>
      <trkpt lat="43.2675220" lon="-2.9344740">
        <ele>26.6</ele>
        <time>2018-09-03T16:30:42Z</time>
      </trkpt>
      <trkpt lat="43.2675110" lon="-2.9344880">
        <ele>26.6</ele>
        <time>2018-09-03T16:30:44Z</time>
      </trkpt>
      <trkpt lat="43.2675010" lon="-2.9345640">
        <ele>26.6</ele>
        <time>2018-09-03T16:30:54Z</time>
      </trkpt>
      <trkpt lat="43.2675290" lon="-2.9345220">
        <ele>26.6</ele>
        <time>2018-09-03T16:30:58Z</time>
      </trkpt>
      <trkpt lat="43.2675380" lon="-2.9344590">
        <ele>26.8</ele>
        <time>2018-09-03T16:31:06Z</time>
      </trkpt>
      <trkpt lat="43.2675420" lon="-2.9344940">
        <ele>27.0</ele>
        <time>2018-09-03T16:31:10Z</time>
      </trkpt>
      <trkpt lat="43.2675090" lon="-2.9345370">
        <ele>26.8</ele>
        <time>2018-09-03T16:31:22Z</time>
      </trkpt>
      <trkpt lat="43.2675210" lon="-2.9345700">
        <ele>26.8</ele>
        <time>2018-09-03T16:31:25Z</time>
      </trkpt>
      <trkpt lat="43.2675030" lon="-2.9345280">
        <ele>26.8</ele>
        <time>2018-09-03T16:31:33Z</time>
      </trkpt>
      <trkpt lat="43.2674860" lon="-2.9344520">
        <ele>27.0</ele>
        <time>2018-09-03T16:31:37Z</time>
      </trkpt>
      <trkpt lat="43.2674910" lon="-2.9344260">
        <ele>26.8</ele>
        <time>2018-09-03T16:31:39Z</time>
      </trkpt>
      <trkpt lat="43.2674960" lon="-2.9343560">
        <ele>26.6</ele>
        <time>2018-09-03T16:31:43Z</time>
      </trkpt>
      <trkpt lat="43.2675140" lon="-2.9342490">
        <ele>26.6</ele>
        <time>2018-09-03T16:31:47Z</time>
      </trkpt>
      <trkpt lat="43.2675320" lon="-2.9341870">
        <ele>26.6</ele>
        <time>2018-09-03T16:31:49Z</time>
      </trkpt>
      <trkpt lat="43.2675700" lon="-2.9340420">
        <ele>26.6</ele>
        <time>2018-09-03T16:31:53Z</time>
      </trkpt>
      <trkpt lat="43.2676100" lon="-2.9338770">
        <ele>26.6</ele>
        <time>2018-09-03T16:31:57Z</time>
      </trkpt>
      <trkpt lat="43.2676650" lon="-2.9336660">
        <ele>26.6</ele>
        <time>2018-09-03T16:32:02Z</time>
      </trkpt>
      <trkpt lat="43.2677260" lon="-2.9333890">
        <ele>26.8</ele>
        <time>2018-09-03T16:32:08Z</time>
      </trkpt>
      <trkpt lat="43.2677200" lon="-2.9333060">
        <ele>26.8</ele>
        <time>2018-09-03T16:32:10Z</time>
      </trkpt>
      <trkpt lat="43.2676790" lon="-2.9331460">
        <ele>27.2</ele>
        <time>2018-09-03T16:32:15Z</time>
      </trkpt>
      <trkpt lat="43.2676750" lon="-2.9331170">
        <ele>27.4</ele>
        <time>2018-09-03T16:32:17Z</time>
      </trkpt>
      <trkpt lat="43.2676590" lon="-2.9331010">
        <ele>27.6</ele>
        <time>2018-09-03T16:32:20Z</time>
      </trkpt>
      <trkpt lat="43.2676130" lon="-2.9330990">
        <ele>27.8</ele>
        <time>2018-09-03T16:32:25Z</time>
      </trkpt>
      <trkpt lat="43.2675590" lon="-2.9331220">
        <ele>27.8</ele>
        <time>2018-09-03T16:32:27Z</time>
      </trkpt>
      <trkpt lat="43.2674920" lon="-2.9331520">
        <ele>27.8</ele>
        <time>2018-09-03T16:32:29Z</time>
      </trkpt>
      <trkpt lat="43.2672010" lon="-2.9332360">
        <ele>27.4</ele>
        <time>2018-09-03T16:32:36Z</time>
      </trkpt>
      <trkpt lat="43.2670050" lon="-2.9333050">
        <ele>27.2</ele>
        <time>2018-09-03T16:32:40Z</time>
      </trkpt>
      <trkpt lat="43.2668410" lon="-2.9333520">
        <ele>27.2</ele>
        <time>2018-09-03T16:32:43Z</time>
      </trkpt>
      <trkpt lat="43.2667270" lon="-2.9333910">
        <ele>27.2</ele>
        <time>2018-09-03T16:32:45Z</time>
      </trkpt>
      <trkpt lat="43.2662410" lon="-2.9335910">
        <ele>27.0</ele>
        <time>2018-09-03T16:32:54Z</time>
      </trkpt>
      <trkpt lat="43.2657760" lon="-2.9337890">
        <ele>27.2</ele>
        <time>2018-09-03T16:33:03Z</time>
      </trkpt>
      <trkpt lat="43.2657300" lon="-2.9338150">
        <ele>27.4</ele>
        <time>2018-09-03T16:33:04Z</time>
      </trkpt>
      <trkpt lat="43.2656360" lon="-2.9338570">
        <ele>27.6</ele>
        <time>2018-09-03T16:33:06Z</time>
      </trkpt>
      <trkpt lat="43.2655130" lon="-2.9339210">
        <ele>27.6</ele>
        <time>2018-09-03T16:33:09Z</time>
      </trkpt>
      <trkpt lat="43.2654090" lon="-2.9339740">
        <ele>27.8</ele>
        <time>2018-09-03T16:33:12Z</time>
      </trkpt>
      <trkpt lat="43.2653490" lon="-2.9340000">
        <ele>28.0</ele>
        <time>2018-09-03T16:33:15Z</time>
      </trkpt>
      <trkpt lat="43.2653230" lon="-2.9340100">
        <ele>28.6</ele>
        <time>2018-09-03T16:33:24Z</time>
      </trkpt>
      <trkpt lat="43.2653230" lon="-2.9340100">
        <ele>28.8</ele>
        <time>2018-09-03T16:33:28Z</time>
      </trkpt>
      <trkpt lat="43.2653230" lon="-2.9340100">
        <ele>28.8</ele>
        <time>2018-09-03T16:33:32Z</time>
      </trkpt>
      <trkpt lat="43.2653230" lon="-2.9340100">
        <ele>28.8</ele>
        <time>2018-09-03T16:33:33Z</time>
      </trkpt>
      <trkpt lat="43.2653230" lon="-2.9340100">
        <ele>28.8</ele>
        <time>2018-09-03T16:33:37Z</time>
      </trkpt>
      <trkpt lat="43.2653230" lon="-2.9340100">
        <ele>28.8</ele>
        <time>2018-09-03T16:33:41Z</time>
      </trkpt>
      <trkpt lat="43.2653230" lon="-2.9340100">
        <ele>28.6</ele>
        <time>2018-09-03T16:33:46Z</time>
      </trkpt>
      <trkpt lat="43.2653230" lon="-2.9340100">
        <ele>28.6</ele>
        <time>2018-09-03T16:33:53Z</time>
      </trkpt>
      <trkpt lat="43.2653230" lon="-2.9340100">
        <ele>28.6</ele>
        <time>2018-09-03T16:33:56Z</time>
      </trkpt>
      <trkpt lat="43.2653080" lon="-2.9340200">
        <ele>28.6</ele>
        <time>2018-09-03T16:33:58Z</time>
      </trkpt>
      <trkpt lat="43.2652790" lon="-2.9340360">
        <ele>28.6</ele>
        <time>2018-09-03T16:34:00Z</time>
      </trkpt>
      <trkpt lat="43.2652550" lon="-2.9340440">
        <ele>28.6</ele>
        <time>2018-09-03T16:34:01Z</time>
      </trkpt>
      <trkpt lat="43.2652010" lon="-2.9340440">
        <ele>28.4</ele>
        <time>2018-09-03T16:34:03Z</time>
      </trkpt>
      <trkpt lat="43.2651670" lon="-2.9340370">
        <ele>28.4</ele>
        <time>2018-09-03T16:34:04Z</time>
      </trkpt>
      <trkpt lat="43.2650890" lon="-2.9340470">
        <ele>28.4</ele>
        <time>2018-09-03T16:34:06Z</time>
      </trkpt>
      <trkpt lat="43.2650440" lon="-2.9340620">
        <ele>28.4</ele>
        <time>2018-09-03T16:34:07Z</time>
      </trkpt>
      <trkpt lat="43.2649470" lon="-2.9341100">
        <ele>28.2</ele>
        <time>2018-09-03T16:34:09Z</time>
      </trkpt>
      <trkpt lat="43.2647410" lon="-2.9342140">
        <ele>28.2</ele>
        <time>2018-09-03T16:34:13Z</time>
      </trkpt>
      <trkpt lat="43.2641940" lon="-2.9344410">
        <ele>28.8</ele>
        <time>2018-09-03T16:34:25Z</time>
      </trkpt>
      <trkpt lat="43.2641050" lon="-2.9344770">
        <ele>28.8</ele>
        <time>2018-09-03T16:34:27Z</time>
      </trkpt>
      <trkpt lat="43.2638380" lon="-2.9345580">
        <ele>29.2</ele>
        <time>2018-09-03T16:34:33Z</time>
      </trkpt>
      <trkpt lat="43.2637480" lon="-2.9345820">
        <ele>29.2</ele>
        <time>2018-09-03T16:34:35Z</time>
      </trkpt>
      <trkpt lat="43.2635050" lon="-2.9347630">
        <ele>29.4</ele>
        <time>2018-09-03T16:34:42Z</time>
      </trkpt>
      <trkpt lat="43.2633890" lon="-2.9349200">
        <ele>29.6</ele>
        <time>2018-09-03T16:34:55Z</time>
      </trkpt>
      <trkpt lat="43.2633450" lon="-2.9351070">
        <ele>29.4</ele>
        <time>2018-09-03T16:34:59Z</time>
      </trkpt>
      <trkpt lat="43.2633470" lon="-2.9352450">
        <ele>29.4</ele>
        <time>2018-09-03T16:35:02Z</time>
      </trkpt>
      <trkpt lat="43.2633390" lon="-2.9353170">
        <ele>29.0</ele>
        <time>2018-09-03T16:35:04Z</time>
      </trkpt>
      <trkpt lat="43.2633280" lon="-2.9353590">
        <ele>29.0</ele>
        <time>2018-09-03T16:35:06Z</time>
      </trkpt>
      <trkpt lat="43.2633110" lon="-2.9353800">
        <ele>29.0</ele>
        <time>2018-09-03T16:35:11Z</time>
      </trkpt>
      <trkpt lat="43.2633100" lon="-2.9353750">
        <ele>29.0</ele>
        <time>2018-09-03T16:35:14Z</time>
      </trkpt>
      <trkpt lat="43.2633030" lon="-2.9353920">
        <ele>29.0</ele>
        <time>2018-09-03T16:35:18Z</time>
      </trkpt>
      <trkpt lat="43.2632460" lon="-2.9355050">
        <ele>29.0</ele>
        <time>2018-09-03T16:35:24Z</time>
      </trkpt>
      <trkpt lat="43.2631990" lon="-2.9355620">
        <ele>29.0</ele>
        <time>2018-09-03T16:35:28Z</time>
      </trkpt>
      <trkpt lat="43.2631540" lon="-2.9356060">
        <ele>29.0</ele>
        <time>2018-09-03T16:35:34Z</time>
      </trkpt>
      <trkpt lat="43.2631200" lon="-2.9356320">
        <ele>29.0</ele>
        <time>2018-09-03T16:35:41Z</time>
      </trkpt>
      <trkpt lat="43.2631130" lon="-2.9356370">
        <ele>29.2</ele>
        <time>2018-09-03T16:35:44Z</time>
      </trkpt>
      <trkpt lat="43.2630860" lon="-2.9356360">
        <ele>29.2</ele>
        <time>2018-09-03T16:35:47Z</time>
      </trkpt>
      <trkpt lat="43.2630660" lon="-2.9356560">
        <ele>29.2</ele>
        <time>2018-09-03T16:35:50Z</time>
      </trkpt>
      <trkpt lat="43.2630190" lon="-2.9356810">
        <ele>29.0</ele>
        <time>2018-09-03T16:35:54Z</time>
      </trkpt>
      <trkpt lat="43.2629380" lon="-2.9356400">
        <ele>29.0</ele>
        <time>2018-09-03T16:35:57Z</time>
      </trkpt>
      <trkpt lat="43.2629080" lon="-2.9356180">
        <ele>29.0</ele>
        <time>2018-09-03T16:35:58Z</time>
      </trkpt>
      <trkpt lat="43.2628640" lon="-2.9355850">
        <ele>29.0</ele>
        <time>2018-09-03T16:36:00Z</time>
      </trkpt>
      <trkpt lat="43.2628290" lon="-2.9356020">
        <ele>29.0</ele>
        <time>2018-09-03T16:36:03Z</time>
      </trkpt>
      <trkpt lat="43.2627490" lon="-2.9356770">
        <ele>29.0</ele>
        <time>2018-09-03T16:36:08Z</time>
      </trkpt>
      <trkpt lat="43.2626390" lon="-2.9358460">
        <ele>29.0</ele>
        <time>2018-09-03T16:36:13Z</time>
      </trkpt>
      <trkpt lat="43.2626170" lon="-2.9358820">
        <ele>29.0</ele>
        <time>2018-09-03T16:36:14Z</time>
      </trkpt>
      <trkpt lat="43.2625740" lon="-2.9359540">
        <ele>29.0</ele>
        <time>2018-09-03T16:36:16Z</time>
      </trkpt>
      <trkpt lat="43.2625370" lon="-2.9360340">
        <ele>28.8</ele>
        <time>2018-09-03T16:36:18Z</time>
      </trkpt>
      <trkpt lat="43.2623120" lon="-2.9364290">
        <ele>28.0</ele>
        <time>2018-09-03T16:36:28Z</time>
      </trkpt>
      <trkpt lat="43.2621460" lon="-2.9366970">
        <ele>27.8</ele>
        <time>2018-09-03T16:36:42Z</time>
      </trkpt>
      <trkpt lat="43.2621460" lon="-2.9366970">
        <ele>27.8</ele>
        <time>2018-09-03T16:36:44Z</time>
      </trkpt>
      <trkpt lat="43.2621460" lon="-2.9366970">
        <ele>28.0</ele>
        <time>2018-09-03T16:36:47Z</time>
      </trkpt>
      <trkpt lat="43.2621460" lon="-2.9366970">
        <ele>28.0</ele>
        <time>2018-09-03T16:36:52Z</time>
      </trkpt>
      <trkpt lat="43.2621460" lon="-2.9366970">
        <ele>28.0</ele>
        <time>2018-09-03T16:36:55Z</time>
      </trkpt>
      <trkpt lat="43.2621460" lon="-2.9366970">
        <ele>28.0</ele>
        <time>2018-09-03T16:36:57Z</time>
      </trkpt>
      <trkpt lat="43.2621410" lon="-2.9367040">
        <ele>28.0</ele>
        <time>2018-09-03T16:37:04Z</time>
      </trkpt>
      <trkpt lat="43.2621230" lon="-2.9367660">
        <ele>28.0</ele>
        <time>2018-09-03T16:37:08Z</time>
      </trkpt>
      <trkpt lat="43.2620780" lon="-2.9369600">
        <ele>28.0</ele>
        <time>2018-09-03T16:37:13Z</time>
      </trkpt>
      <trkpt lat="43.2620380" lon="-2.9370090">
        <ele>27.8</ele>
        <time>2018-09-03T16:37:15Z</time>
      </trkpt>
      <trkpt lat="43.2619780" lon="-2.9370760">
        <ele>27.8</ele>
        <time>2018-09-03T16:37:18Z</time>
      </trkpt>
      <trkpt lat="43.2619150" lon="-2.9371300">
        <ele>28.0</ele>
        <time>2018-09-03T16:37:21Z</time>
      </trkpt>
      <trkpt lat="43.2618330" lon="-2.9372690">
        <ele>28.0</ele>
        <time>2018-09-03T16:37:26Z</time>
      </trkpt>
      <trkpt lat="43.2617540" lon="-2.9373980">
        <ele>28.0</ele>
        <time>2018-09-03T16:37:31Z</time>
      </trkpt>
      <trkpt lat="43.2615630" lon="-2.9377190">
        <ele>28.0</ele>
        <time>2018-09-03T16:37:42Z</time>
      </trkpt>
      <trkpt lat="43.2614150" lon="-2.9382060">
        <ele>28.0</ele>
        <time>2018-09-03T16:38:01Z</time>
      </trkpt>
      <trkpt lat="43.2613870" lon="-2.9382540">
        <ele>28.0</ele>
        <time>2018-09-03T16:38:03Z</time>
      </trkpt>
      <trkpt lat="43.2613510" lon="-2.9383250">
        <ele>28.0</ele>
        <time>2018-09-03T16:38:05Z</time>
      </trkpt>
      <trkpt lat="43.2613460" lon="-2.9384370">
        <ele>28.2</ele>
        <time>2018-09-03T16:38:07Z</time>
      </trkpt>
      <trkpt lat="43.2611640" lon="-2.9388430">
        <ele>28.4</ele>
        <time>2018-09-03T16:38:19Z</time>
      </trkpt>
      <trkpt lat="43.2609750" lon="-2.9393620">
        <ele>29.6</ele>
        <time>2018-09-03T16:38:43Z</time>
      </trkpt>
      <trkpt lat="43.2609750" lon="-2.9393620">
        <ele>29.6</ele>
        <time>2018-09-03T16:38:46Z</time>
      </trkpt>
      <trkpt lat="43.2609750" lon="-2.9393620">
        <ele>29.8</ele>
        <time>2018-09-03T16:38:48Z</time>
      </trkpt>
      <trkpt lat="43.2609750" lon="-2.9393620">
        <ele>29.8</ele>
        <time>2018-09-03T16:38:50Z</time>
      </trkpt>
      <trkpt lat="43.2609750" lon="-2.9393620">
        <ele>29.8</ele>
        <time>2018-09-03T16:38:54Z</time>
      </trkpt>
      <trkpt lat="43.2609750" lon="-2.9393620">
        <ele>29.8</ele>
        <time>2018-09-03T16:39:01Z</time>
      </trkpt>
      <trkpt lat="43.2609750" lon="-2.9393620">
        <ele>29.8</ele>
        <time>2018-09-03T16:39:09Z</time>
      </trkpt>
      <trkpt lat="43.2609620" lon="-2.9393850">
        <ele>30.0</ele>
        <time>2018-09-03T16:39:33Z</time>
      </trkpt>
      <trkpt lat="43.2609290" lon="-2.9394360">
        <ele>30.0</ele>
        <time>2018-09-03T16:39:35Z</time>
      </trkpt>
      <trkpt lat="43.2608960" lon="-2.9395100">
        <ele>30.0</ele>
        <time>2018-09-03T16:39:37Z</time>
      </trkpt>
      <trkpt lat="43.2609180" lon="-2.9400220">
        <ele>30.8</ele>
        <time>2018-09-03T16:39:54Z</time>
      </trkpt>
      <trkpt lat="43.2609190" lon="-2.9401590">
        <ele>31.2</ele>
        <time>2018-09-03T16:40:10Z</time>
      </trkpt>
      <trkpt lat="43.2609190" lon="-2.9401590">
        <ele>31.2</ele>
        <time>2018-09-03T16:40:22Z</time>
      </trkpt>
      <trkpt lat="43.2609190" lon="-2.9401590">
        <ele>31.2</ele>
        <time>2018-09-03T16:40:24Z</time>
      </trkpt>
      <trkpt lat="43.2609190" lon="-2.9401590">
        <ele>31.2</ele>
        <time>2018-09-03T16:40:29Z</time>
      </trkpt>
      <trkpt lat="43.2609470" lon="-2.9402040">
        <ele>31.2</ele>
        <time>2018-09-03T16:40:34Z</time>
      </trkpt>
      <trkpt lat="43.2609730" lon="-2.9402810">
        <ele>31.2</ele>
        <time>2018-09-03T16:40:37Z</time>
      </trkpt>
      <trkpt lat="43.2609940" lon="-2.9403660">
        <ele>31.2</ele>
        <time>2018-09-03T16:40:39Z</time>
      </trkpt>
      <trkpt lat="43.2609940" lon="-2.9404100">
        <ele>31.2</ele>
        <time>2018-09-03T16:40:40Z</time>
      </trkpt>
      <trkpt lat="43.2610160" lon="-2.9405060">
        <ele>31.0</ele>
        <time>2018-09-03T16:40:42Z</time>
      </trkpt>
      <trkpt lat="43.2612080" lon="-2.9411900">
        <ele>31.6</ele>
        <time>2018-09-03T16:40:56Z</time>
      </trkpt>
      <trkpt lat="43.2612400" lon="-2.9413080">
        <ele>31.8</ele>
        <time>2018-09-03T16:40:59Z</time>
      </trkpt>
      <trkpt lat="43.2612430" lon="-2.9414930">
        <ele>32.0</ele>
        <time>2018-09-03T16:41:04Z</time>
      </trkpt>
      <trkpt lat="43.2612530" lon="-2.9417020">
        <ele>32.0</ele>
        <time>2018-09-03T16:41:09Z</time>
      </trkpt>
      <trkpt lat="43.2613050" lon="-2.9422100">
        <ele>32.8</ele>
        <time>2018-09-03T16:41:19Z</time>
      </trkpt>
      <trkpt lat="43.2612900" lon="-2.9423490">
        <ele>33.0</ele>
        <time>2018-09-03T16:41:24Z</time>
      </trkpt>
      <trkpt lat="43.2610750" lon="-2.9425210">
        <ele>33.4</ele>
        <time>2018-09-03T16:41:34Z</time>
      </trkpt>
      <trkpt lat="43.2608430" lon="-2.9426050">
        <ele>34.0</ele>
        <time>2018-09-03T16:41:43Z</time>
      </trkpt>
      <trkpt lat="43.2605700" lon="-2.9427350">
        <ele>34.6</ele>
        <time>2018-09-03T16:41:53Z</time>
      </trkpt>
      <trkpt lat="43.2604030" lon="-2.9428030">
        <ele>35.0</ele>
        <time>2018-09-03T16:41:59Z</time>
      </trkpt>
      <trkpt lat="43.2602110" lon="-2.9428710">
        <ele>36.0</ele>
        <time>2018-09-03T16:42:06Z</time>
      </trkpt>
      <trkpt lat="43.2599750" lon="-2.9429450">
        <ele>36.6</ele>
        <time>2018-09-03T16:42:16Z</time>
      </trkpt>
      <trkpt lat="43.2597830" lon="-2.9429810">
        <ele>37.0</ele>
        <time>2018-09-03T16:42:22Z</time>
      </trkpt>
      <trkpt lat="43.2597460" lon="-2.9429960">
        <ele>37.2</ele>
        <time>2018-09-03T16:42:23Z</time>
      </trkpt>
      <trkpt lat="43.2595530" lon="-2.9430480">
        <ele>37.2</ele>
        <time>2018-09-03T16:42:28Z</time>
      </trkpt>
      <trkpt lat="43.2594430" lon="-2.9430890">
        <ele>37.4</ele>
        <time>2018-09-03T16:42:31Z</time>
      </trkpt>
      <trkpt lat="43.2593510" lon="-2.9431240">
        <ele>37.6</ele>
        <time>2018-09-03T16:42:34Z</time>
      </trkpt>
      <trkpt lat="43.2593050" lon="-2.9431400">
        <ele>37.8</ele>
        <time>2018-09-03T16:42:36Z</time>
      </trkpt>
      <trkpt lat="43.2592400" lon="-2.9431800">
        <ele>38.2</ele>
        <time>2018-09-03T16:42:39Z</time>
      </trkpt>
      <trkpt lat="43.2588810" lon="-2.9433430">
        <ele>39.0</ele>
        <time>2018-09-03T16:42:51Z</time>
      </trkpt>
      <trkpt lat="43.2586910" lon="-2.9434010">
        <ele>39.2</ele>
        <time>2018-09-03T16:42:56Z</time>
      </trkpt>
      <trkpt lat="43.2586320" lon="-2.9434230">
        <ele>39.2</ele>
        <time>2018-09-03T16:42:58Z</time>
      </trkpt>
      <trkpt lat="43.2585440" lon="-2.9434560">
        <ele>39.2</ele>
        <time>2018-09-03T16:43:01Z</time>
      </trkpt>
      <trkpt lat="43.2584570" lon="-2.9434930">
        <ele>39.2</ele>
        <time>2018-09-03T16:43:04Z</time>
      </trkpt>
      <trkpt lat="43.2583480" lon="-2.9435240">
        <ele>39.4</ele>
        <time>2018-09-03T16:43:07Z</time>
      </trkpt>
      <trkpt lat="43.2581990" lon="-2.9435750">
        <ele>39.2</ele>
        <time>2018-09-03T16:43:11Z</time>
      </trkpt>
      <trkpt lat="43.2581630" lon="-2.9435910">
        <ele>39.4</ele>
        <time>2018-09-03T16:43:12Z</time>
      </trkpt>
      <trkpt lat="43.2579630" lon="-2.9436540">
        <ele>39.4</ele>
        <time>2018-09-03T16:43:18Z</time>
      </trkpt>
      <trkpt lat="43.2578920" lon="-2.9436920">
        <ele>39.6</ele>
        <time>2018-09-03T16:43:21Z</time>
      </trkpt>
      <trkpt lat="43.2578690" lon="-2.9437160">
        <ele>39.6</ele>
        <time>2018-09-03T16:43:22Z</time>
      </trkpt>
      <trkpt lat="43.2578030" lon="-2.9437520">
        <ele>39.6</ele>
        <time>2018-09-03T16:43:25Z</time>
      </trkpt>
      <trkpt lat="43.2577170" lon="-2.9440970">
        <ele>40.0</ele>
        <time>2018-09-03T16:43:50Z</time>
      </trkpt>
      <trkpt lat="43.2577170" lon="-2.9440970">
        <ele>40.0</ele>
        <time>2018-09-03T16:43:52Z</time>
      </trkpt>
      <trkpt lat="43.2577170" lon="-2.9440970">
        <ele>40.0</ele>
        <time>2018-09-03T16:44:07Z</time>
      </trkpt>
      <trkpt lat="43.2577170" lon="-2.9440970">
        <ele>40.2</ele>
        <time>2018-09-03T16:44:18Z</time>
      </trkpt>
      <trkpt lat="43.2577140" lon="-2.9441030">
        <ele>40.2</ele>
        <time>2018-09-03T16:44:19Z</time>
      </trkpt>
      <trkpt lat="43.2577110" lon="-2.9441240">
        <ele>40.2</ele>
        <time>2018-09-03T16:44:21Z</time>
      </trkpt>
      <trkpt lat="43.2577110" lon="-2.9441490">
        <ele>40.2</ele>
        <time>2018-09-03T16:44:22Z</time>
      </trkpt>
      <trkpt lat="43.2577140" lon="-2.9442160">
        <ele>40.2</ele>
        <time>2018-09-03T16:44:24Z</time>
      </trkpt>
      <trkpt lat="43.2577190" lon="-2.9442940">
        <ele>40.2</ele>
        <time>2018-09-03T16:44:26Z</time>
      </trkpt>
      <trkpt lat="43.2577230" lon="-2.9443800">
        <ele>40.2</ele>
        <time>2018-09-03T16:44:28Z</time>
      </trkpt>
      <trkpt lat="43.2577640" lon="-2.9447440">
        <ele>39.8</ele>
        <time>2018-09-03T16:44:35Z</time>
      </trkpt>
      <trkpt lat="43.2577610" lon="-2.9448560">
        <ele>39.8</ele>
        <time>2018-09-03T16:44:37Z</time>
      </trkpt>
      <trkpt lat="43.2577520" lon="-2.9449780">
        <ele>39.8</ele>
        <time>2018-09-03T16:44:39Z</time>
      </trkpt>
      <trkpt lat="43.2577540" lon="-2.9451850">
        <ele>39.8</ele>
        <time>2018-09-03T16:44:44Z</time>
      </trkpt>
      <trkpt lat="43.2577180" lon="-2.9453360">
        <ele>40.8</ele>
        <time>2018-09-03T16:44:49Z</time>
      </trkpt>
      <trkpt lat="43.2577430" lon="-2.9454750">
        <ele>42.0</ele>
        <time>2018-09-03T16:44:53Z</time>
      </trkpt>
      <trkpt lat="43.2578300" lon="-2.9456110">
        <ele>43.0</ele>
        <time>2018-09-03T16:45:05Z</time>
      </trkpt>
      <trkpt lat="43.2578210" lon="-2.9456540">
        <ele>43.0</ele>
        <time>2018-09-03T16:45:10Z</time>
      </trkpt>
      <trkpt lat="43.2578230" lon="-2.9456750">
        <ele>43.2</ele>
        <time>2018-09-03T16:45:13Z</time>
      </trkpt>
      <trkpt lat="43.2578150" lon="-2.9457000">
        <ele>43.2</ele>
        <time>2018-09-03T16:45:16Z</time>
      </trkpt>
      <trkpt lat="43.2578140" lon="-2.9456990">
        <ele>43.2</ele>
        <time>2018-09-03T16:45:19Z</time>
      </trkpt>
      <trkpt lat="43.2578150" lon="-2.9456990">
        <ele>43.2</ele>
        <time>2018-09-03T16:45:21Z</time>
      </trkpt>
      <trkpt lat="43.2578150" lon="-2.9456980">
        <ele>43.2</ele>
        <time>2018-09-03T16:45:24Z</time>
      </trkpt>
      <trkpt lat="43.2578150" lon="-2.9456970">
        <ele>43.2</ele>
        <time>2018-09-03T16:45:29Z</time>
      </trkpt>
      <trkpt lat="43.2578150" lon="-2.9456970">
        <ele>43.2</ele>
        <time>2018-09-03T16:45:31Z</time>
      </trkpt>
      <trkpt lat="43.2578150" lon="-2.9456980">
        <ele>43.2</ele>
        <time>2018-09-03T16:45:48Z</time>
      </trkpt>
      <trkpt lat="43.2578150" lon="-2.9456990">
        <ele>43.2</ele>
        <time>2018-09-03T16:45:49Z</time>
      </trkpt>
      <trkpt lat="43.2578160" lon="-2.9456990">
        <ele>43.0</ele>
        <time>2018-09-03T16:45:52Z</time>
      </trkpt>
      <trkpt lat="43.2578150" lon="-2.9457220">
        <ele>43.0</ele>
        <time>2018-09-03T16:45:54Z</time>
      </trkpt>
      <trkpt lat="43.2578000" lon="-2.9457710">
        <ele>43.0</ele>
        <time>2018-09-03T16:45:57Z</time>
      </trkpt>
      <trkpt lat="43.2577720" lon="-2.9458150">
        <ele>43.0</ele>
        <time>2018-09-03T16:46:00Z</time>
      </trkpt>
      <trkpt lat="43.2577160" lon="-2.9458940">
        <ele>43.2</ele>
        <time>2018-09-03T16:46:05Z</time>
      </trkpt>
      <trkpt lat="43.2576670" lon="-2.9458740">
        <ele>43.4</ele>
        <time>2018-09-03T16:46:09Z</time>
      </trkpt>
      <trkpt lat="43.2576670" lon="-2.9458620">
        <ele>43.6</ele>
        <time>2018-09-03T16:46:10Z</time>
      </trkpt>
      <trkpt lat="43.2576700" lon="-2.9458440">
        <ele>43.8</ele>
        <time>2018-09-03T16:46:13Z</time>
      </trkpt>
      <trkpt lat="43.2576960" lon="-2.9458230">
        <ele>43.8</ele>
        <time>2018-09-03T16:46:19Z</time>
      </trkpt>
      <trkpt lat="43.2577100" lon="-2.9458290">
        <ele>43.8</ele>
        <time>2018-09-03T16:46:22Z</time>
      </trkpt>
      <trkpt lat="43.2577170" lon="-2.9458370">
        <ele>43.8</ele>
        <time>2018-09-03T16:46:25Z</time>
      </trkpt>
      <trkpt lat="43.2577140" lon="-2.9458370">
        <ele>43.8</ele>
        <time>2018-09-03T16:46:32Z</time>
      </trkpt>
      <trkpt lat="43.2577140" lon="-2.9458390">
        <ele>43.8</ele>
        <time>2018-09-03T16:46:33Z</time>
      </trkpt>
      <trkpt lat="43.2577170" lon="-2.9458480">
        <ele>43.6</ele>
        <time>2018-09-03T16:46:35Z</time>
      </trkpt>
      <trkpt lat="43.2577210" lon="-2.9458630">
        <ele>43.6</ele>
        <time>2018-09-03T16:46:38Z</time>
      </trkpt>
      <trkpt lat="43.2577120" lon="-2.9458810">
        <ele>43.6</ele>
        <time>2018-09-03T16:46:39Z</time>
      </trkpt>
      <trkpt lat="43.2576720" lon="-2.9458810">
        <ele>43.6</ele>
        <time>2018-09-03T16:46:45Z</time>
      </trkpt>
      <trkpt lat="43.2576550" lon="-2.9458780">
        <ele>43.6</ele>
        <time>2018-09-03T16:46:53Z</time>
      </trkpt>
      <trkpt lat="43.2579740" lon="-2.9461260">
        <ele>52.4</ele>
        <time>2018-09-03T17:09:45Z</time>
      </trkpt>
      <trkpt lat="43.2579730" lon="-2.9461680">
        <ele>52.4</ele>
        <time>2018-09-03T17:09:46Z</time>
      </trkpt>
      <trkpt lat="43.2579800" lon="-2.9462840">
        <ele>52.0</ele>
        <time>2018-09-03T17:09:49Z</time>
      </trkpt>
      <trkpt lat="43.2579820" lon="-2.9463230">
        <ele>51.8</ele>
        <time>2018-09-03T17:09:50Z</time>
      </trkpt>
      <trkpt lat="43.2579820" lon="-2.9464070">
        <ele>51.8</ele>
        <time>2018-09-03T17:09:52Z</time>
      </trkpt>
      <trkpt lat="43.2579800" lon="-2.9465380">
        <ele>51.6</ele>
        <time>2018-09-03T17:09:55Z</time>
      </trkpt>
      <trkpt lat="43.2579980" lon="-2.9466900">
        <ele>51.4</ele>
        <time>2018-09-03T17:09:58Z</time>
      </trkpt>
      <trkpt lat="43.2580130" lon="-2.9468530">
        <ele>51.4</ele>
        <time>2018-09-03T17:10:01Z</time>
      </trkpt>
      <trkpt lat="43.2580150" lon="-2.9469060">
        <ele>51.2</ele>
        <time>2018-09-03T17:10:02Z</time>
      </trkpt>
      <trkpt lat="43.2580130" lon="-2.9470710">
        <ele>51.0</ele>
        <time>2018-09-03T17:10:05Z</time>
      </trkpt>
      <trkpt lat="43.2580140" lon="-2.9472220">
        <ele>51.0</ele>
        <time>2018-09-03T17:10:08Z</time>
      </trkpt>
      <trkpt lat="43.2580010" lon="-2.9473250">
        <ele>51.0</ele>
        <time>2018-09-03T17:10:11Z</time>
      </trkpt>
      <trkpt lat="43.2579770" lon="-2.9473710">
        <ele>52.6</ele>
        <time>2018-09-03T17:10:13Z</time>
      </trkpt>
      <trkpt lat="43.2579200" lon="-2.9474320">
        <ele>52.6</ele>
        <time>2018-09-03T17:10:17Z</time>
      </trkpt>
      <trkpt lat="43.2579190" lon="-2.9474380">
        <ele>52.6</ele>
        <time>2018-09-03T17:10:21Z</time>
      </trkpt>
      <trkpt lat="43.2579210" lon="-2.9474520">
        <ele>52.6</ele>
        <time>2018-09-03T17:10:23Z</time>
      </trkpt>
      <trkpt lat="43.2579190" lon="-2.9474580">
        <ele>52.4</ele>
        <time>2018-09-03T17:10:26Z</time>
      </trkpt>
      <trkpt lat="43.2578990" lon="-2.9475240">
        <ele>52.4</ele>
        <time>2018-09-03T17:10:31Z</time>
      </trkpt>
      <trkpt lat="43.2578770" lon="-2.9476440">
        <ele>52.4</ele>
        <time>2018-09-03T17:10:34Z</time>
      </trkpt>
      <trkpt lat="43.2578630" lon="-2.9477360">
        <ele>52.4</ele>
        <time>2018-09-03T17:10:36Z</time>
      </trkpt>
      <trkpt lat="43.2578560" lon="-2.9479060">
        <ele>52.4</ele>
        <time>2018-09-03T17:10:39Z</time>
      </trkpt>
      <trkpt lat="43.2578770" lon="-2.9480330">
        <ele>52.4</ele>
        <time>2018-09-03T17:10:41Z</time>
      </trkpt>
      <trkpt lat="43.2578970" lon="-2.9481930">
        <ele>52.4</ele>
        <time>2018-09-03T17:10:44Z</time>
      </trkpt>
      <trkpt lat="43.2579110" lon="-2.9483960">
        <ele>52.4</ele>
        <time>2018-09-03T17:10:48Z</time>
      </trkpt>
      <trkpt lat="43.2579390" lon="-2.9485870">
        <ele>52.8</ele>
        <time>2018-09-03T17:10:52Z</time>
      </trkpt>
      <trkpt lat="43.2579690" lon="-2.9487780">
        <ele>52.8</ele>
        <time>2018-09-03T17:10:56Z</time>
      </trkpt>
      <trkpt lat="43.2579840" lon="-2.9489820">
        <ele>53.8</ele>
        <time>2018-09-03T17:11:01Z</time>
      </trkpt>
      <trkpt lat="43.2579930" lon="-2.9491660">
        <ele>55.0</ele>
        <time>2018-09-03T17:11:06Z</time>
      </trkpt>
      <trkpt lat="43.2580030" lon="-2.9493150">
        <ele>56.0</ele>
        <time>2018-09-03T17:11:11Z</time>
      </trkpt>
      <trkpt lat="43.2580090" lon="-2.9493540">
        <ele>56.4</ele>
        <time>2018-09-03T17:11:14Z</time>
      </trkpt>
      <trkpt lat="43.2580130" lon="-2.9493650">
        <ele>56.8</ele>
        <time>2018-09-03T17:11:16Z</time>
      </trkpt>
      <trkpt lat="43.2580130" lon="-2.9493720">
        <ele>57.0</ele>
        <time>2018-09-03T17:11:17Z</time>
      </trkpt>
      <trkpt lat="43.2580130" lon="-2.9493790">
        <ele>57.8</ele>
        <time>2018-09-03T17:11:23Z</time>
      </trkpt>
      <trkpt lat="43.2580090" lon="-2.9495210">
        <ele>58.0</ele>
        <time>2018-09-03T17:11:31Z</time>
      </trkpt>
      <trkpt lat="43.2580090" lon="-2.9496970">
        <ele>58.0</ele>
        <time>2018-09-03T17:11:35Z</time>
      </trkpt>
      <trkpt lat="43.2580360" lon="-2.9498400">
        <ele>58.0</ele>
        <time>2018-09-03T17:11:38Z</time>
      </trkpt>
      <trkpt lat="43.2580750" lon="-2.9499870">
        <ele>58.0</ele>
        <time>2018-09-03T17:11:41Z</time>
      </trkpt>
      <trkpt lat="43.2581060" lon="-2.9500760">
        <ele>58.2</ele>
        <time>2018-09-03T17:11:43Z</time>
      </trkpt>
      <trkpt lat="43.2584190" lon="-2.9505560">
        <ele>59.4</ele>
        <time>2018-09-03T17:11:55Z</time>
      </trkpt>
      <trkpt lat="43.2586760" lon="-2.9509780">
        <ele>60.6</ele>
        <time>2018-09-03T17:12:05Z</time>
      </trkpt>
      <trkpt lat="43.2588190" lon="-2.9512540">
        <ele>62.0</ele>
        <time>2018-09-03T17:12:14Z</time>
      </trkpt>
      <trkpt lat="43.2588530" lon="-2.9512880">
        <ele>63.0</ele>
        <time>2018-09-03T17:12:17Z</time>
      </trkpt>
      <trkpt lat="43.2588670" lon="-2.9512890">
        <ele>63.6</ele>
        <time>2018-09-03T17:12:22Z</time>
      </trkpt>
      <trkpt lat="43.2588680" lon="-2.9512900">
        <ele>64.0</ele>
        <time>2018-09-03T17:12:26Z</time>
      </trkpt>
      <trkpt lat="43.2588680" lon="-2.9512900">
        <ele>64.0</ele>
        <time>2018-09-03T17:12:28Z</time>
      </trkpt>
      <trkpt lat="43.2588680" lon="-2.9512900">
        <ele>64.0</ele>
        <time>2018-09-03T17:12:30Z</time>
      </trkpt>
      <trkpt lat="43.2588680" lon="-2.9512900">
        <ele>64.0</ele>
        <time>2018-09-03T17:12:33Z</time>
      </trkpt>
      <trkpt lat="43.2588670" lon="-2.9512900">
        <ele>64.0</ele>
        <time>2018-09-03T17:12:35Z</time>
      </trkpt>
      <trkpt lat="43.2588670" lon="-2.9512900">
        <ele>64.0</ele>
        <time>2018-09-03T17:12:37Z</time>
      </trkpt>
      <trkpt lat="43.2588670" lon="-2.9512930">
        <ele>63.8</ele>
        <time>2018-09-03T17:12:55Z</time>
      </trkpt>
      <trkpt lat="43.2589140" lon="-2.9513890">
        <ele>64.2</ele>
        <time>2018-09-03T17:13:02Z</time>
      </trkpt>
      <trkpt lat="43.2589370" lon="-2.9514450">
        <ele>64.2</ele>
        <time>2018-09-03T17:13:04Z</time>
      </trkpt>
      <trkpt lat="43.2591170" lon="-2.9516900">
        <ele>64.0</ele>
        <time>2018-09-03T17:13:13Z</time>
      </trkpt>
      <trkpt lat="43.2592760" lon="-2.9518670">
        <ele>63.8</ele>
        <time>2018-09-03T17:13:18Z</time>
      </trkpt>
      <trkpt lat="43.2594970" lon="-2.9521680">
        <ele>63.4</ele>
        <time>2018-09-03T17:13:26Z</time>
      </trkpt>
      <trkpt lat="43.2595470" lon="-2.9522500">
        <ele>63.4</ele>
        <time>2018-09-03T17:13:28Z</time>
      </trkpt>
      <trkpt lat="43.2595970" lon="-2.9523340">
        <ele>63.4</ele>
        <time>2018-09-03T17:13:30Z</time>
      </trkpt>
      <trkpt lat="43.2596650" lon="-2.9524670">
        <ele>63.4</ele>
        <time>2018-09-03T17:13:33Z</time>
      </trkpt>
      <trkpt lat="43.2598050" lon="-2.9527220">
        <ele>63.4</ele>
        <time>2018-09-03T17:13:39Z</time>
      </trkpt>
      <trkpt lat="43.2598420" lon="-2.9527860">
        <ele>63.4</ele>
        <time>2018-09-03T17:13:41Z</time>
      </trkpt>
      <trkpt lat="43.2598840" lon="-2.9528410">
        <ele>63.2</ele>
        <time>2018-09-03T17:13:43Z</time>
      </trkpt>
      <trkpt lat="43.2599900" lon="-2.9529600">
        <ele>63.4</ele>
        <time>2018-09-03T17:13:51Z</time>
      </trkpt>
      <trkpt lat="43.2599970" lon="-2.9529700">
        <ele>64.2</ele>
        <time>2018-09-03T17:14:01Z</time>
      </trkpt>
      <trkpt lat="43.2600450" lon="-2.9530480">
        <ele>64.0</ele>
        <time>2018-09-03T17:14:07Z</time>
      </trkpt>
      <trkpt lat="43.2600860" lon="-2.9531230">
        <ele>64.0</ele>
        <time>2018-09-03T17:14:09Z</time>
      </trkpt>
      <trkpt lat="43.2601070" lon="-2.9531710">
        <ele>64.0</ele>
        <time>2018-09-03T17:14:10Z</time>
      </trkpt>
      <trkpt lat="43.2601270" lon="-2.9532260">
        <ele>64.0</ele>
        <time>2018-09-03T17:14:11Z</time>
      </trkpt>
      <trkpt lat="43.2601410" lon="-2.9532910">
        <ele>63.8</ele>
        <time>2018-09-03T17:14:12Z</time>
      </trkpt>
      <trkpt lat="43.2601670" lon="-2.9534390">
        <ele>63.6</ele>
        <time>2018-09-03T17:14:14Z</time>
      </trkpt>
      <trkpt lat="43.2601960" lon="-2.9535970">
        <ele>63.4</ele>
        <time>2018-09-03T17:14:16Z</time>
      </trkpt>
      <trkpt lat="43.2602120" lon="-2.9536760">
        <ele>63.4</ele>
        <time>2018-09-03T17:14:17Z</time>
      </trkpt>
      <trkpt lat="43.2602530" lon="-2.9538280">
        <ele>63.2</ele>
        <time>2018-09-03T17:14:19Z</time>
      </trkpt>
      <trkpt lat="43.2602930" lon="-2.9539780">
        <ele>63.2</ele>
        <time>2018-09-03T17:14:21Z</time>
      </trkpt>
      <trkpt lat="43.2603220" lon="-2.9541250">
        <ele>63.2</ele>
        <time>2018-09-03T17:14:23Z</time>
      </trkpt>
      <trkpt lat="43.2603370" lon="-2.9542580">
        <ele>63.2</ele>
        <time>2018-09-03T17:14:25Z</time>
      </trkpt>
      <trkpt lat="43.2603470" lon="-2.9544390">
        <ele>64.0</ele>
        <time>2018-09-03T17:14:28Z</time>
      </trkpt>
      <trkpt lat="43.2603490" lon="-2.9544980">
        <ele>64.6</ele>
        <time>2018-09-03T17:14:29Z</time>
      </trkpt>
      <trkpt lat="43.2603570" lon="-2.9546140">
        <ele>66.2</ele>
        <time>2018-09-03T17:14:31Z</time>
      </trkpt>
      <trkpt lat="43.2603700" lon="-2.9547290">
        <ele>67.2</ele>
        <time>2018-09-03T17:14:33Z</time>
      </trkpt>
      <trkpt lat="43.2603710" lon="-2.9547870">
        <ele>67.8</ele>
        <time>2018-09-03T17:14:34Z</time>
      </trkpt>
      <trkpt lat="43.2603640" lon="-2.9548950">
        <ele>68.4</ele>
        <time>2018-09-03T17:14:36Z</time>
      </trkpt>
      <trkpt lat="43.2604130" lon="-2.9551680">
        <ele>69.2</ele>
        <time>2018-09-03T17:14:42Z</time>
      </trkpt>
      <trkpt lat="43.2604340" lon="-2.9552060">
        <ele>69.6</ele>
        <time>2018-09-03T17:14:43Z</time>
      </trkpt>
      <trkpt lat="43.2604540" lon="-2.9552440">
        <ele>69.8</ele>
        <time>2018-09-03T17:14:44Z</time>
      </trkpt>
      <trkpt lat="43.2605250" lon="-2.9553840">
        <ele>70.6</ele>
        <time>2018-09-03T17:14:48Z</time>
      </trkpt>
      <trkpt lat="43.2605390" lon="-2.9554150">
        <ele>71.0</ele>
        <time>2018-09-03T17:14:49Z</time>
      </trkpt>
      <trkpt lat="43.2605970" lon="-2.9555150">
        <ele>72.4</ele>
        <time>2018-09-03T17:14:53Z</time>
      </trkpt>
      <trkpt lat="43.2606680" lon="-2.9556140">
        <ele>73.6</ele>
        <time>2018-09-03T17:14:59Z</time>
      </trkpt>
      <trkpt lat="43.2606930" lon="-2.9556470">
        <ele>74.6</ele>
        <time>2018-09-03T17:15:03Z</time>
      </trkpt>
      <trkpt lat="43.2607190" lon="-2.9556620">
        <ele>75.8</ele>
        <time>2018-09-03T17:15:13Z</time>
      </trkpt>
      <trkpt lat="43.2607250" lon="-2.9556690">
        <ele>75.8</ele>
        <time>2018-09-03T17:15:14Z</time>
      </trkpt>
      <trkpt lat="43.2607700" lon="-2.9557490">
        <ele>76.0</ele>
        <time>2018-09-03T17:15:18Z</time>
      </trkpt>
      <trkpt lat="43.2608990" lon="-2.9561460">
        <ele>77.2</ele>
        <time>2018-09-03T17:15:31Z</time>
      </trkpt>
      <trkpt lat="43.2609710" lon="-2.9563370">
        <ele>78.2</ele>
        <time>2018-09-03T17:15:37Z</time>
      </trkpt>
      <trkpt lat="43.2610510" lon="-2.9565410">
        <ele>79.2</ele>
        <time>2018-09-03T17:15:43Z</time>
      </trkpt>
      <trkpt lat="43.2610760" lon="-2.9566220">
        <ele>79.4</ele>
        <time>2018-09-03T17:15:45Z</time>
      </trkpt>
      <trkpt lat="43.2611150" lon="-2.9567590">
        <ele>80.4</ele>
        <time>2018-09-03T17:15:49Z</time>
      </trkpt>
      <trkpt lat="43.2611800" lon="-2.9570710">
        <ele>81.6</ele>
        <time>2018-09-03T17:15:58Z</time>
      </trkpt>
      <trkpt lat="43.2611930" lon="-2.9575270">
        <ele>82.8</ele>
        <time>2018-09-03T17:16:10Z</time>
      </trkpt>
      <trkpt lat="43.2611850" lon="-2.9576900">
        <ele>84.0</ele>
        <time>2018-09-03T17:16:14Z</time>
      </trkpt>
      <trkpt lat="43.2611680" lon="-2.9578650">
        <ele>85.4</ele>
        <time>2018-09-03T17:16:18Z</time>
      </trkpt>
      <trkpt lat="43.2611260" lon="-2.9580800">
        <ele>86.4</ele>
        <time>2018-09-03T17:16:23Z</time>
      </trkpt>
      <trkpt lat="43.2609840" lon="-2.9584630">
        <ele>87.8</ele>
        <time>2018-09-03T17:16:33Z</time>
      </trkpt>
      <trkpt lat="43.2608450" lon="-2.9588300">
        <ele>88.8</ele>
        <time>2018-09-03T17:16:43Z</time>
      </trkpt>
      <trkpt lat="43.2608460" lon="-2.9590500">
        <ele>90.0</ele>
        <time>2018-09-03T17:16:48Z</time>
      </trkpt>
      <trkpt lat="43.2612720" lon="-2.9595370">
        <ele>91.2</ele>
        <time>2018-09-03T17:17:04Z</time>
      </trkpt>
      <trkpt lat="43.2613400" lon="-2.9595800">
        <ele>91.4</ele>
        <time>2018-09-03T17:17:06Z</time>
      </trkpt>
      <trkpt lat="43.2616180" lon="-2.9597620">
        <ele>92.8</ele>
        <time>2018-09-03T17:17:14Z</time>
      </trkpt>
      <trkpt lat="43.2618540" lon="-2.9600730">
        <ele>94.2</ele>
        <time>2018-09-03T17:17:23Z</time>
      </trkpt>
      <trkpt lat="43.2619380" lon="-2.9602670">
        <ele>95.4</ele>
        <time>2018-09-03T17:17:29Z</time>
      </trkpt>
      <trkpt lat="43.2619890" lon="-2.9603280">
        <ele>96.2</ele>
        <time>2018-09-03T17:17:32Z</time>
      </trkpt>
      <trkpt lat="43.2620100" lon="-2.9603480">
        <ele>96.6</ele>
        <time>2018-09-03T17:17:33Z</time>
      </trkpt>
      <trkpt lat="43.2620630" lon="-2.9603840">
        <ele>96.8</ele>
        <time>2018-09-03T17:17:35Z</time>
      </trkpt>
      <trkpt lat="43.2621750" lon="-2.9604660">
        <ele>97.0</ele>
        <time>2018-09-03T17:17:38Z</time>
      </trkpt>
      <trkpt lat="43.2622750" lon="-2.9605540">
        <ele>97.0</ele>
        <time>2018-09-03T17:17:40Z</time>
      </trkpt>
      <trkpt lat="43.2625390" lon="-2.9607600">
        <ele>96.8</ele>
        <time>2018-09-03T17:17:44Z</time>
      </trkpt>
      <trkpt lat="43.2626940" lon="-2.9608690">
        <ele>95.6</ele>
        <time>2018-09-03T17:17:46Z</time>
      </trkpt>
      <trkpt lat="43.2628540" lon="-2.9609360">
        <ele>94.0</ele>
        <time>2018-09-03T17:17:48Z</time>
      </trkpt>
      <trkpt lat="43.2632260" lon="-2.9610320">
        <ele>93.0</ele>
        <time>2018-09-03T17:17:56Z</time>
      </trkpt>
      <trkpt lat="43.2632550" lon="-2.9610420">
        <ele>93.0</ele>
        <time>2018-09-03T17:17:57Z</time>
      </trkpt>
      <trkpt lat="43.2634000" lon="-2.9612370">
        <ele>95.2</ele>
        <time>2018-09-03T17:18:05Z</time>
      </trkpt>
      <trkpt lat="43.2633860" lon="-2.9613430">
        <ele>96.0</ele>
        <time>2018-09-03T17:18:09Z</time>
      </trkpt>
      <trkpt lat="43.2633730" lon="-2.9613590">
        <ele>96.2</ele>
        <time>2018-09-03T17:18:10Z</time>
      </trkpt>
      <trkpt lat="43.2633470" lon="-2.9613840">
        <ele>97.2</ele>
        <time>2018-09-03T17:18:13Z</time>
      </trkpt>
      <trkpt lat="43.2633360" lon="-2.9613990">
        <ele>97.4</ele>
        <time>2018-09-03T17:18:15Z</time>
      </trkpt>
      <trkpt lat="43.2633440" lon="-2.9614110">
        <ele>97.4</ele>
        <time>2018-09-03T17:18:17Z</time>
      </trkpt>
      <trkpt lat="43.2633530" lon="-2.9614150">
        <ele>97.6</ele>
        <time>2018-09-03T17:18:18Z</time>
      </trkpt>
      <trkpt lat="43.2633690" lon="-2.9614280">
        <ele>97.6</ele>
        <time>2018-09-03T17:18:20Z</time>
      </trkpt>
      <trkpt lat="43.2634030" lon="-2.9613980">
        <ele>97.8</ele>
        <time>2018-09-03T17:18:27Z</time>
      </trkpt>
      <trkpt lat="43.2633850" lon="-2.9613740">
        <ele>97.8</ele>
        <time>2018-09-03T17:18:32Z</time>
      </trkpt>
      <trkpt lat="43.2633850" lon="-2.9613560">
        <ele>98.0</ele>
        <time>2018-09-03T17:18:47Z</time>
      </trkpt>
      <trkpt lat="43.2633910" lon="-2.9613500">
        <ele>98.0</ele>
        <time>2018-09-03T17:18:49Z</time>
      </trkpt>
      <trkpt lat="43.2634020" lon="-2.9613440">
        <ele>98.0</ele>
        <time>2018-09-03T17:18:51Z</time>
      </trkpt>
      <trkpt lat="43.2634020" lon="-2.9613350">
        <ele>98.0</ele>
        <time>2018-09-03T17:18:56Z</time>
      </trkpt>
      <trkpt lat="43.2634020" lon="-2.9613300">
        <ele>98.0</ele>
        <time>2018-09-03T17:18:58Z</time>
      </trkpt>
      <trkpt lat="43.2634270" lon="-2.9613130">
        <ele>98.0</ele>
        <time>2018-09-03T17:19:05Z</time>
      </trkpt>
      <trkpt lat="43.2634420" lon="-2.9612990">
        <ele>98.2</ele>
        <time>2018-09-03T17:19:12Z</time>
      </trkpt>
      <trkpt lat="43.2634700" lon="-2.9612820">
        <ele>98.2</ele>
        <time>2018-09-03T17:19:36Z</time>
      </trkpt>
      <trkpt lat="43.2634700" lon="-2.9612810">
        <ele>98.2</ele>
        <time>2018-09-03T17:19:40Z</time>
      </trkpt>
      <trkpt lat="43.2634700" lon="-2.9612810">
        <ele>98.4</ele>
        <time>2018-09-03T17:19:45Z</time>
      </trkpt>
      <trkpt lat="43.2634700" lon="-2.9612800">
        <ele>98.4</ele>
        <time>2018-09-03T17:19:47Z</time>
      </trkpt>
      <trkpt lat="43.2634690" lon="-2.9612790">
        <ele>98.4</ele>
        <time>2018-09-03T17:19:49Z</time>
      </trkpt>
      <trkpt lat="43.2634610" lon="-2.9612790">
        <ele>98.4</ele>
        <time>2018-09-03T17:20:03Z</time>
      </trkpt>
      <trkpt lat="43.2634530" lon="-2.9612800">
        <ele>98.2</ele>
        <time>2018-09-03T17:20:31Z</time>
      </trkpt>
      <trkpt lat="43.2634470" lon="-2.9612850">
        <ele>98.2</ele>
        <time>2018-09-03T17:20:36Z</time>
      </trkpt>
      <trkpt lat="43.2634350" lon="-2.9612890">
        <ele>98.4</ele>
        <time>2018-09-03T17:20:53Z</time>
      </trkpt>
      <trkpt lat="43.2634360" lon="-2.9612890">
        <ele>98.4</ele>
        <time>2018-09-03T17:20:55Z</time>
      </trkpt>
      <trkpt lat="43.2615270" lon="-2.9597820">
        <ele>86.0</ele>
        <time>2018-09-04T06:15:35Z</time>
      </trkpt>
      <trkpt lat="43.2614770" lon="-2.9597520">
        <ele>86.0</ele>
        <time>2018-09-04T06:15:36Z</time>
      </trkpt>
      <trkpt lat="43.2613260" lon="-2.9596610">
        <ele>88.0</ele>
        <time>2018-09-04T06:15:39Z</time>
      </trkpt>
      <trkpt lat="43.2612740" lon="-2.9596310">
        <ele>86.2</ele>
        <time>2018-09-04T06:15:40Z</time>
      </trkpt>
      <trkpt lat="43.2612190" lon="-2.9595920">
        <ele>86.8</ele>
        <time>2018-09-04T06:15:41Z</time>
      </trkpt>
      <trkpt lat="43.2609410" lon="-2.9593640">
        <ele>85.0</ele>
        <time>2018-09-04T06:15:46Z</time>
      </trkpt>
      <trkpt lat="43.2608980" lon="-2.9593150">
        <ele>84.6</ele>
        <time>2018-09-04T06:15:47Z</time>
      </trkpt>
      <trkpt lat="43.2608300" lon="-2.9592290">
        <ele>84.8</ele>
        <time>2018-09-04T06:15:49Z</time>
      </trkpt>
      <trkpt lat="43.2607560" lon="-2.9591590">
        <ele>84.4</ele>
        <time>2018-09-04T06:15:51Z</time>
      </trkpt>
      <trkpt lat="43.2607200" lon="-2.9591330">
        <ele>84.0</ele>
        <time>2018-09-04T06:15:52Z</time>
      </trkpt>
      <trkpt lat="43.2606860" lon="-2.9591050">
        <ele>83.8</ele>
        <time>2018-09-04T06:15:53Z</time>
      </trkpt>
      <trkpt lat="43.2606100" lon="-2.9589840">
        <ele>83.8</ele>
        <time>2018-09-04T06:15:56Z</time>
      </trkpt>
      <trkpt lat="43.2606330" lon="-2.9588080">
        <ele>83.6</ele>
        <time>2018-09-04T06:16:00Z</time>
      </trkpt>
      <trkpt lat="43.2606820" lon="-2.9587640">
        <ele>83.6</ele>
        <time>2018-09-04T06:16:02Z</time>
      </trkpt>
      <trkpt lat="43.2607270" lon="-2.9587140">
        <ele>83.4</ele>
        <time>2018-09-04T06:16:04Z</time>
      </trkpt>
      <trkpt lat="43.2608540" lon="-2.9585250">
        <ele>82.6</ele>
        <time>2018-09-04T06:16:09Z</time>
      </trkpt>
      <trkpt lat="43.2609420" lon="-2.9583380">
        <ele>81.4</ele>
        <time>2018-09-04T06:16:12Z</time>
      </trkpt>
      <trkpt lat="43.2610000" lon="-2.9581890">
        <ele>80.8</ele>
        <time>2018-09-04T06:16:14Z</time>
      </trkpt>
      <trkpt lat="43.2610260" lon="-2.9581060">
        <ele>80.4</ele>
        <time>2018-09-04T06:16:15Z</time>
      </trkpt>
      <trkpt lat="43.2610450" lon="-2.9580190">
        <ele>79.8</ele>
        <time>2018-09-04T06:16:16Z</time>
      </trkpt>
      <trkpt lat="43.2610760" lon="-2.9578490">
        <ele>79.2</ele>
        <time>2018-09-04T06:16:18Z</time>
      </trkpt>
      <trkpt lat="43.2610840" lon="-2.9577600">
        <ele>79.2</ele>
        <time>2018-09-04T06:16:19Z</time>
      </trkpt>
      <trkpt lat="43.2610920" lon="-2.9573680">
        <ele>78.0</ele>
        <time>2018-09-04T06:16:23Z</time>
      </trkpt>
      <trkpt lat="43.2610900" lon="-2.9572670">
        <ele>77.6</ele>
        <time>2018-09-04T06:16:24Z</time>
      </trkpt>
      <trkpt lat="43.2610700" lon="-2.9570680">
        <ele>76.4</ele>
        <time>2018-09-04T06:16:26Z</time>
      </trkpt>
      <trkpt lat="43.2610290" lon="-2.9568750">
        <ele>75.4</ele>
        <time>2018-09-04T06:16:28Z</time>
      </trkpt>
      <trkpt lat="43.2610060" lon="-2.9567920">
        <ele>75.0</ele>
        <time>2018-09-04T06:16:29Z</time>
      </trkpt>
      <trkpt lat="43.2609600" lon="-2.9566350">
        <ele>74.4</ele>
        <time>2018-09-04T06:16:31Z</time>
      </trkpt>
      <trkpt lat="43.2608810" lon="-2.9563910">
        <ele>73.2</ele>
        <time>2018-09-04T06:16:34Z</time>
      </trkpt>
      <trkpt lat="43.2608500" lon="-2.9563150">
        <ele>73.0</ele>
        <time>2018-09-04T06:16:35Z</time>
      </trkpt>
      <trkpt lat="43.2607960" lon="-2.9561710">
        <ele>72.2</ele>
        <time>2018-09-04T06:16:37Z</time>
      </trkpt>
      <trkpt lat="43.2606950" lon="-2.9559370">
        <ele>70.8</ele>
        <time>2018-09-04T06:16:40Z</time>
      </trkpt>
      <trkpt lat="43.2606600" lon="-2.9558520">
        <ele>70.4</ele>
        <time>2018-09-04T06:16:41Z</time>
      </trkpt>
      <trkpt lat="43.2605910" lon="-2.9556860">
        <ele>69.4</ele>
        <time>2018-09-04T06:16:43Z</time>
      </trkpt>
      <trkpt lat="43.2605530" lon="-2.9555960">
        <ele>68.8</ele>
        <time>2018-09-04T06:16:44Z</time>
      </trkpt>
      <trkpt lat="43.2605130" lon="-2.9554990">
        <ele>68.4</ele>
        <time>2018-09-04T06:16:45Z</time>
      </trkpt>
      <trkpt lat="43.2604350" lon="-2.9553090">
        <ele>67.2</ele>
        <time>2018-09-04T06:16:47Z</time>
      </trkpt>
      <trkpt lat="43.2603590" lon="-2.9551390">
        <ele>65.8</ele>
        <time>2018-09-04T06:16:49Z</time>
      </trkpt>
      <trkpt lat="43.2603210" lon="-2.9550620">
        <ele>64.8</ele>
        <time>2018-09-04T06:16:50Z</time>
      </trkpt>
      <trkpt lat="43.2602190" lon="-2.9548470">
        <ele>63.4</ele>
        <time>2018-09-04T06:16:53Z</time>
      </trkpt>
      <trkpt lat="43.2602370" lon="-2.9546060">
        <ele>62.2</ele>
        <time>2018-09-04T06:16:56Z</time>
      </trkpt>
      <trkpt lat="43.2602990" lon="-2.9543810">
        <ele>61.8</ele>
        <time>2018-09-04T06:16:59Z</time>
      </trkpt>
      <trkpt lat="43.2602960" lon="-2.9542420">
        <ele>61.6</ele>
        <time>2018-09-04T06:17:01Z</time>
      </trkpt>
      <trkpt lat="43.2602870" lon="-2.9541780">
        <ele>61.6</ele>
        <time>2018-09-04T06:17:02Z</time>
      </trkpt>
      <trkpt lat="43.2602730" lon="-2.9541100">
        <ele>61.4</ele>
        <time>2018-09-04T06:17:03Z</time>
      </trkpt>
      <trkpt lat="43.2602600" lon="-2.9540330">
        <ele>61.2</ele>
        <time>2018-09-04T06:17:04Z</time>
      </trkpt>
      <trkpt lat="43.2602200" lon="-2.9538580">
        <ele>60.0</ele>
        <time>2018-09-04T06:17:06Z</time>
      </trkpt>
      <trkpt lat="43.2601950" lon="-2.9537580">
        <ele>59.4</ele>
        <time>2018-09-04T06:17:07Z</time>
      </trkpt>
      <trkpt lat="43.2601710" lon="-2.9536540">
        <ele>58.6</ele>
        <time>2018-09-04T06:17:08Z</time>
      </trkpt>
      <trkpt lat="43.2601160" lon="-2.9534310">
        <ele>57.2</ele>
        <time>2018-09-04T06:17:10Z</time>
      </trkpt>
      <trkpt lat="43.2600620" lon="-2.9532140">
        <ele>56.0</ele>
        <time>2018-09-04T06:17:12Z</time>
      </trkpt>
      <trkpt lat="43.2600230" lon="-2.9531210">
        <ele>55.8</ele>
        <time>2018-09-04T06:17:13Z</time>
      </trkpt>
      <trkpt lat="43.2599370" lon="-2.9529610">
        <ele>56.2</ele>
        <time>2018-09-04T06:17:15Z</time>
      </trkpt>
      <trkpt lat="43.2598480" lon="-2.9528330">
        <ele>56.8</ele>
        <time>2018-09-04T06:17:17Z</time>
      </trkpt>
      <trkpt lat="43.2598150" lon="-2.9527870">
        <ele>57.0</ele>
        <time>2018-09-04T06:17:18Z</time>
      </trkpt>
      <trkpt lat="43.2597960" lon="-2.9527490">
        <ele>57.2</ele>
        <time>2018-09-04T06:17:19Z</time>
      </trkpt>
      <trkpt lat="43.2597800" lon="-2.9526950">
        <ele>57.4</ele>
        <time>2018-09-04T06:17:22Z</time>
      </trkpt>
      <trkpt lat="43.2597820" lon="-2.9526980">
        <ele>57.6</ele>
        <time>2018-09-04T06:17:26Z</time>
      </trkpt>
      <trkpt lat="43.2597820" lon="-2.9526980">
        <ele>57.8</ele>
        <time>2018-09-04T06:17:28Z</time>
      </trkpt>
      <trkpt lat="43.2597820" lon="-2.9526980">
        <ele>58.0</ele>
        <time>2018-09-04T06:17:31Z</time>
      </trkpt>
      <trkpt lat="43.2597820" lon="-2.9526980">
        <ele>57.6</ele>
        <time>2018-09-04T06:17:38Z</time>
      </trkpt>
      <trkpt lat="43.2597820" lon="-2.9526980">
        <ele>58.0</ele>
        <time>2018-09-04T06:17:47Z</time>
      </trkpt>
      <trkpt lat="43.2597820" lon="-2.9526980">
        <ele>58.2</ele>
        <time>2018-09-04T06:17:48Z</time>
      </trkpt>
      <trkpt lat="43.2597820" lon="-2.9526980">
        <ele>57.6</ele>
        <time>2018-09-04T06:17:54Z</time>
      </trkpt>
      <trkpt lat="43.2597620" lon="-2.9526780">
        <ele>57.6</ele>
        <time>2018-09-04T06:17:56Z</time>
      </trkpt>
      <trkpt lat="43.2597430" lon="-2.9526510">
        <ele>57.4</ele>
        <time>2018-09-04T06:17:57Z</time>
      </trkpt>
      <trkpt lat="43.2597290" lon="-2.9526260">
        <ele>57.6</ele>
        <time>2018-09-04T06:17:58Z</time>
      </trkpt>
      <trkpt lat="43.2597070" lon="-2.9525940">
        <ele>57.6</ele>
        <time>2018-09-04T06:17:59Z</time>
      </trkpt>
      <trkpt lat="43.2596860" lon="-2.9525550">
        <ele>57.6</ele>
        <time>2018-09-04T06:18:00Z</time>
      </trkpt>
      <trkpt lat="43.2596600" lon="-2.9525180">
        <ele>57.6</ele>
        <time>2018-09-04T06:18:01Z</time>
      </trkpt>
      <trkpt lat="43.2596400" lon="-2.9524750">
        <ele>57.4</ele>
        <time>2018-09-04T06:18:02Z</time>
      </trkpt>
      <trkpt lat="43.2595850" lon="-2.9523910">
        <ele>57.2</ele>
        <time>2018-09-04T06:18:04Z</time>
      </trkpt>
      <trkpt lat="43.2595610" lon="-2.9523330">
        <ele>57.2</ele>
        <time>2018-09-04T06:18:05Z</time>
      </trkpt>
      <trkpt lat="43.2595310" lon="-2.9522710">
        <ele>57.0</ele>
        <time>2018-09-04T06:18:06Z</time>
      </trkpt>
      <trkpt lat="43.2595010" lon="-2.9522190">
        <ele>57.2</ele>
        <time>2018-09-04T06:18:07Z</time>
      </trkpt>
      <trkpt lat="43.2594190" lon="-2.9520780">
        <ele>57.2</ele>
        <time>2018-09-04T06:18:10Z</time>
      </trkpt>
      <trkpt lat="43.2593540" lon="-2.9519630">
        <ele>57.6</ele>
        <time>2018-09-04T06:18:14Z</time>
      </trkpt>
      <trkpt lat="43.2593530" lon="-2.9519550">
        <ele>57.6</ele>
        <time>2018-09-04T06:18:18Z</time>
      </trkpt>
      <trkpt lat="43.2593530" lon="-2.9519550">
        <ele>57.8</ele>
        <time>2018-09-04T06:18:21Z</time>
      </trkpt>
      <trkpt lat="43.2593530" lon="-2.9519550">
        <ele>57.6</ele>
        <time>2018-09-04T06:18:30Z</time>
      </trkpt>
      <trkpt lat="43.2593530" lon="-2.9519550">
        <ele>57.6</ele>
        <time>2018-09-04T06:18:32Z</time>
      </trkpt>
      <trkpt lat="43.2593530" lon="-2.9519550">
        <ele>57.6</ele>
        <time>2018-09-04T06:18:35Z</time>
      </trkpt>
      <trkpt lat="43.2593530" lon="-2.9519550">
        <ele>57.8</ele>
        <time>2018-09-04T06:18:37Z</time>
      </trkpt>
      <trkpt lat="43.2593530" lon="-2.9519550">
        <ele>57.6</ele>
        <time>2018-09-04T06:18:40Z</time>
      </trkpt>
      <trkpt lat="43.2593530" lon="-2.9519550">
        <ele>57.6</ele>
        <time>2018-09-04T06:18:45Z</time>
      </trkpt>
      <trkpt lat="43.2593530" lon="-2.9519550">
        <ele>57.6</ele>
        <time>2018-09-04T06:18:48Z</time>
      </trkpt>
      <trkpt lat="43.2593470" lon="-2.9519520">
        <ele>57.6</ele>
        <time>2018-09-04T06:19:01Z</time>
      </trkpt>
      <trkpt lat="43.2592740" lon="-2.9518680">
        <ele>57.2</ele>
        <time>2018-09-04T06:19:05Z</time>
      </trkpt>
      <trkpt lat="43.2592290" lon="-2.9517890">
        <ele>57.0</ele>
        <time>2018-09-04T06:19:07Z</time>
      </trkpt>
      <trkpt lat="43.2592180" lon="-2.9517270">
        <ele>57.0</ele>
        <time>2018-09-04T06:19:08Z</time>
      </trkpt>
      <trkpt lat="43.2592270" lon="-2.9516790">
        <ele>56.8</ele>
        <time>2018-09-04T06:19:09Z</time>
      </trkpt>
      <trkpt lat="43.2593160" lon="-2.9515650">
        <ele>57.0</ele>
        <time>2018-09-04T06:19:12Z</time>
      </trkpt>
      <trkpt lat="43.2594680" lon="-2.9514970">
        <ele>56.4</ele>
        <time>2018-09-04T06:19:15Z</time>
      </trkpt>
      <trkpt lat="43.2595190" lon="-2.9514780">
        <ele>55.8</ele>
        <time>2018-09-04T06:19:16Z</time>
      </trkpt>
      <trkpt lat="43.2597680" lon="-2.9513780">
        <ele>54.8</ele>
        <time>2018-09-04T06:19:20Z</time>
      </trkpt>
      <trkpt lat="43.2598380" lon="-2.9513570">
        <ele>54.4</ele>
        <time>2018-09-04T06:19:21Z</time>
      </trkpt>
      <trkpt lat="43.2600350" lon="-2.9512880">
        <ele>53.4</ele>
        <time>2018-09-04T06:19:24Z</time>
      </trkpt>
      <trkpt lat="43.2601940" lon="-2.9512340">
        <ele>52.2</ele>
        <time>2018-09-04T06:19:26Z</time>
      </trkpt>
      <trkpt lat="43.2604170" lon="-2.9511360">
        <ele>51.0</ele>
        <time>2018-09-04T06:19:29Z</time>
      </trkpt>
      <trkpt lat="43.2604890" lon="-2.9511190">
        <ele>50.6</ele>
        <time>2018-09-04T06:19:30Z</time>
      </trkpt>
      <trkpt lat="43.2606180" lon="-2.9510720">
        <ele>49.6</ele>
        <time>2018-09-04T06:19:32Z</time>
      </trkpt>
      <trkpt lat="43.2607030" lon="-2.9510300">
        <ele>49.0</ele>
        <time>2018-09-04T06:19:35Z</time>
      </trkpt>
      <trkpt lat="43.2607260" lon="-2.9510210">
        <ele>49.0</ele>
        <time>2018-09-04T06:19:39Z</time>
      </trkpt>
      <trkpt lat="43.2607260" lon="-2.9510210">
        <ele>49.0</ele>
        <time>2018-09-04T06:19:48Z</time>
      </trkpt>
      <trkpt lat="43.2607260" lon="-2.9510210">
        <ele>49.0</ele>
        <time>2018-09-04T06:19:51Z</time>
      </trkpt>
      <trkpt lat="43.2607260" lon="-2.9510210">
        <ele>49.0</ele>
        <time>2018-09-04T06:20:00Z</time>
      </trkpt>
      <trkpt lat="43.2607260" lon="-2.9510210">
        <ele>49.0</ele>
        <time>2018-09-04T06:20:06Z</time>
      </trkpt>
      <trkpt lat="43.2607260" lon="-2.9510210">
        <ele>49.0</ele>
        <time>2018-09-04T06:20:09Z</time>
      </trkpt>
      <trkpt lat="43.2607260" lon="-2.9510210">
        <ele>48.8</ele>
        <time>2018-09-04T06:20:11Z</time>
      </trkpt>
      <trkpt lat="43.2607250" lon="-2.9510180">
        <ele>49.0</ele>
        <time>2018-09-04T06:20:21Z</time>
      </trkpt>
      <trkpt lat="43.2607250" lon="-2.9510180">
        <ele>48.8</ele>
        <time>2018-09-04T06:20:24Z</time>
      </trkpt>
      <trkpt lat="43.2607250" lon="-2.9510180">
        <ele>48.8</ele>
        <time>2018-09-04T06:20:31Z</time>
      </trkpt>
      <trkpt lat="43.2607250" lon="-2.9510180">
        <ele>48.8</ele>
        <time>2018-09-04T06:20:48Z</time>
      </trkpt>
      <trkpt lat="43.2607250" lon="-2.9510180">
        <ele>48.8</ele>
        <time>2018-09-04T06:20:49Z</time>
      </trkpt>
      <trkpt lat="43.2607250" lon="-2.9510180">
        <ele>48.8</ele>
        <time>2018-09-04T06:20:51Z</time>
      </trkpt>
      <trkpt lat="43.2607220" lon="-2.9510230">
        <ele>48.8</ele>
        <time>2018-09-04T06:20:59Z</time>
      </trkpt>
      <trkpt lat="43.2607630" lon="-2.9509920">
        <ele>48.4</ele>
        <time>2018-09-04T06:21:04Z</time>
      </trkpt>
      <trkpt lat="43.2607840" lon="-2.9509750">
        <ele>48.4</ele>
        <time>2018-09-04T06:21:05Z</time>
      </trkpt>
      <trkpt lat="43.2608170" lon="-2.9509050">
        <ele>48.4</ele>
        <time>2018-09-04T06:21:07Z</time>
      </trkpt>
      <trkpt lat="43.2608180" lon="-2.9508490">
        <ele>48.4</ele>
        <time>2018-09-04T06:21:08Z</time>
      </trkpt>
      <trkpt lat="43.2608140" lon="-2.9507910">
        <ele>48.4</ele>
        <time>2018-09-04T06:21:09Z</time>
      </trkpt>
      <trkpt lat="43.2607180" lon="-2.9505890">
        <ele>47.0</ele>
        <time>2018-09-04T06:21:13Z</time>
      </trkpt>
      <trkpt lat="43.2606730" lon="-2.9504490">
        <ele>46.0</ele>
        <time>2018-09-04T06:21:15Z</time>
      </trkpt>
      <trkpt lat="43.2606620" lon="-2.9503650">
        <ele>45.2</ele>
        <time>2018-09-04T06:21:16Z</time>
      </trkpt>
      <trkpt lat="43.2606510" lon="-2.9502790">
        <ele>44.8</ele>
        <time>2018-09-04T06:21:17Z</time>
      </trkpt>
      <trkpt lat="43.2606170" lon="-2.9499520">
        <ele>44.2</ele>
        <time>2018-09-04T06:21:21Z</time>
      </trkpt>
      <trkpt lat="43.2605710" lon="-2.9496930">
        <ele>43.6</ele>
        <time>2018-09-04T06:21:24Z</time>
      </trkpt>
      <trkpt lat="43.2605070" lon="-2.9493730">
        <ele>43.2</ele>
        <time>2018-09-04T06:21:28Z</time>
      </trkpt>
      <trkpt lat="43.2604840" lon="-2.9492620">
        <ele>43.6</ele>
        <time>2018-09-04T06:21:30Z</time>
      </trkpt>
      <trkpt lat="43.2604670" lon="-2.9491860">
        <ele>43.8</ele>
        <time>2018-09-04T06:21:32Z</time>
      </trkpt>
      <trkpt lat="43.2604610" lon="-2.9491510">
        <ele>43.6</ele>
        <time>2018-09-04T06:21:36Z</time>
      </trkpt>
      <trkpt lat="43.2604610" lon="-2.9491510">
        <ele>43.6</ele>
        <time>2018-09-04T06:21:40Z</time>
      </trkpt>
      <trkpt lat="43.2604610" lon="-2.9491510">
        <ele>43.8</ele>
        <time>2018-09-04T06:21:44Z</time>
      </trkpt>
      <trkpt lat="43.2604610" lon="-2.9491510">
        <ele>43.2</ele>
        <time>2018-09-04T06:21:48Z</time>
      </trkpt>
      <trkpt lat="43.2604610" lon="-2.9491510">
        <ele>43.6</ele>
        <time>2018-09-04T06:21:50Z</time>
      </trkpt>
      <trkpt lat="43.2604610" lon="-2.9491510">
        <ele>43.6</ele>
        <time>2018-09-04T06:21:53Z</time>
      </trkpt>
      <trkpt lat="43.2604610" lon="-2.9491510">
        <ele>43.6</ele>
        <time>2018-09-04T06:22:07Z</time>
      </trkpt>
      <trkpt lat="43.2604610" lon="-2.9491450">
        <ele>43.6</ele>
        <time>2018-09-04T06:22:17Z</time>
      </trkpt>
      <trkpt lat="43.2604610" lon="-2.9491450">
        <ele>43.6</ele>
        <time>2018-09-04T06:22:20Z</time>
      </trkpt>
      <trkpt lat="43.2604610" lon="-2.9491300">
        <ele>43.4</ele>
        <time>2018-09-04T06:22:23Z</time>
      </trkpt>
      <trkpt lat="43.2604420" lon="-2.9490400">
        <ele>43.4</ele>
        <time>2018-09-04T06:22:25Z</time>
      </trkpt>
      <trkpt lat="43.2604390" lon="-2.9489950">
        <ele>43.0</ele>
        <time>2018-09-04T06:22:26Z</time>
      </trkpt>
      <trkpt lat="43.2604410" lon="-2.9488970">
        <ele>43.0</ele>
        <time>2018-09-04T06:22:28Z</time>
      </trkpt>
      <trkpt lat="43.2604530" lon="-2.9487550">
        <ele>42.6</ele>
        <time>2018-09-04T06:22:31Z</time>
      </trkpt>
      <trkpt lat="43.2604450" lon="-2.9486390">
        <ele>42.4</ele>
        <time>2018-09-04T06:22:33Z</time>
      </trkpt>
      <trkpt lat="43.2604360" lon="-2.9485810">
        <ele>42.4</ele>
        <time>2018-09-04T06:22:34Z</time>
      </trkpt>
      <trkpt lat="43.2603860" lon="-2.9483550">
        <ele>42.6</ele>
        <time>2018-09-04T06:22:38Z</time>
      </trkpt>
      <trkpt lat="43.2603640" lon="-2.9482280">
        <ele>42.6</ele>
        <time>2018-09-04T06:22:40Z</time>
      </trkpt>
      <trkpt lat="43.2603290" lon="-2.9480380">
        <ele>42.6</ele>
        <time>2018-09-04T06:22:43Z</time>
      </trkpt>
      <trkpt lat="43.2602710" lon="-2.9478000">
        <ele>42.2</ele>
        <time>2018-09-04T06:22:47Z</time>
      </trkpt>
      <trkpt lat="43.2602320" lon="-2.9476720">
        <ele>42.2</ele>
        <time>2018-09-04T06:22:51Z</time>
      </trkpt>
      <trkpt lat="43.2602170" lon="-2.9475870">
        <ele>42.4</ele>
        <time>2018-09-04T06:22:54Z</time>
      </trkpt>
      <trkpt lat="43.2602330" lon="-2.9475760">
        <ele>42.2</ele>
        <time>2018-09-04T06:22:55Z</time>
      </trkpt>
      <trkpt lat="43.2602570" lon="-2.9475200">
        <ele>42.2</ele>
        <time>2018-09-04T06:22:57Z</time>
      </trkpt>
      <trkpt lat="43.2603400" lon="-2.9474700">
        <ele>42.0</ele>
        <time>2018-09-04T06:23:00Z</time>
      </trkpt>
      <trkpt lat="43.2604020" lon="-2.9474310">
        <ele>42.0</ele>
        <time>2018-09-04T06:23:02Z</time>
      </trkpt>
      <trkpt lat="43.2605000" lon="-2.9473800">
        <ele>42.0</ele>
        <time>2018-09-04T06:23:06Z</time>
      </trkpt>
      <trkpt lat="43.2605290" lon="-2.9473770">
        <ele>41.8</ele>
        <time>2018-09-04T06:23:07Z</time>
      </trkpt>
      <trkpt lat="43.2605980" lon="-2.9473700">
        <ele>41.6</ele>
        <time>2018-09-04T06:23:09Z</time>
      </trkpt>
      <trkpt lat="43.2606560" lon="-2.9473590">
        <ele>41.6</ele>
        <time>2018-09-04T06:23:12Z</time>
      </trkpt>
      <trkpt lat="43.2606740" lon="-2.9473540">
        <ele>41.8</ele>
        <time>2018-09-04T06:23:17Z</time>
      </trkpt>
      <trkpt lat="43.2606740" lon="-2.9473540">
        <ele>41.8</ele>
        <time>2018-09-04T06:23:18Z</time>
      </trkpt>
      <trkpt lat="43.2606740" lon="-2.9473540">
        <ele>41.6</ele>
        <time>2018-09-04T06:23:27Z</time>
      </trkpt>
      <trkpt lat="43.2606740" lon="-2.9473540">
        <ele>41.8</ele>
        <time>2018-09-04T06:23:30Z</time>
      </trkpt>
      <trkpt lat="43.2606740" lon="-2.9473540">
        <ele>41.8</ele>
        <time>2018-09-04T06:23:32Z</time>
      </trkpt>
      <trkpt lat="43.2606740" lon="-2.9473540">
        <ele>41.6</ele>
        <time>2018-09-04T06:23:35Z</time>
      </trkpt>
      <trkpt lat="43.2606740" lon="-2.9473540">
        <ele>41.6</ele>
        <time>2018-09-04T06:23:37Z</time>
      </trkpt>
      <trkpt lat="43.2606740" lon="-2.9473540">
        <ele>41.6</ele>
        <time>2018-09-04T06:23:45Z</time>
      </trkpt>
      <trkpt lat="43.2606740" lon="-2.9473540">
        <ele>41.8</ele>
        <time>2018-09-04T06:23:51Z</time>
      </trkpt>
      <trkpt lat="43.2606780" lon="-2.9473660">
        <ele>41.6</ele>
        <time>2018-09-04T06:23:58Z</time>
      </trkpt>
      <trkpt lat="43.2606920" lon="-2.9473580">
        <ele>41.6</ele>
        <time>2018-09-04T06:24:08Z</time>
      </trkpt>
      <trkpt lat="43.2607130" lon="-2.9473500">
        <ele>41.4</ele>
        <time>2018-09-04T06:24:09Z</time>
      </trkpt>
      <trkpt lat="43.2607660" lon="-2.9473410">
        <ele>41.2</ele>
        <time>2018-09-04T06:24:11Z</time>
      </trkpt>
      <trkpt lat="43.2608610" lon="-2.9473240">
        <ele>41.0</ele>
        <time>2018-09-04T06:24:14Z</time>
      </trkpt>
      <trkpt lat="43.2609750" lon="-2.9473030">
        <ele>41.0</ele>
        <time>2018-09-04T06:24:18Z</time>
      </trkpt>
      <trkpt lat="43.2610030" lon="-2.9472710">
        <ele>41.0</ele>
        <time>2018-09-04T06:24:19Z</time>
      </trkpt>
      <trkpt lat="43.2610070" lon="-2.9472090">
        <ele>41.0</ele>
        <time>2018-09-04T06:24:21Z</time>
      </trkpt>
      <trkpt lat="43.2610670" lon="-2.9471580">
        <ele>40.6</ele>
        <time>2018-09-04T06:24:23Z</time>
      </trkpt>
      <trkpt lat="43.2611100" lon="-2.9471500">
        <ele>40.4</ele>
        <time>2018-09-04T06:24:24Z</time>
      </trkpt>
      <trkpt lat="43.2612750" lon="-2.9470810">
        <ele>39.4</ele>
        <time>2018-09-04T06:24:28Z</time>
      </trkpt>
      <trkpt lat="43.2613170" lon="-2.9470800">
        <ele>39.2</ele>
        <time>2018-09-04T06:24:29Z</time>
      </trkpt>
      <trkpt lat="43.2615110" lon="-2.9470360">
        <ele>38.4</ele>
        <time>2018-09-04T06:24:34Z</time>
      </trkpt>
      <trkpt lat="43.2615540" lon="-2.9470330">
        <ele>38.2</ele>
        <time>2018-09-04T06:24:35Z</time>
      </trkpt>
      <trkpt lat="43.2616000" lon="-2.9470290">
        <ele>38.0</ele>
        <time>2018-09-04T06:24:36Z</time>
      </trkpt>
      <trkpt lat="43.2618530" lon="-2.9469460">
        <ele>37.4</ele>
        <time>2018-09-04T06:24:42Z</time>
      </trkpt>
      <trkpt lat="43.2619440" lon="-2.9469290">
        <ele>37.0</ele>
        <time>2018-09-04T06:24:44Z</time>
      </trkpt>
      <trkpt lat="43.2620420" lon="-2.9468870">
        <ele>36.6</ele>
        <time>2018-09-04T06:24:47Z</time>
      </trkpt>
      <trkpt lat="43.2621540" lon="-2.9468380">
        <ele>36.4</ele>
        <time>2018-09-04T06:24:50Z</time>
      </trkpt>
      <trkpt lat="43.2622160" lon="-2.9467950">
        <ele>36.0</ele>
        <time>2018-09-04T06:24:52Z</time>
      </trkpt>
      <trkpt lat="43.2622770" lon="-2.9467330">
        <ele>36.0</ele>
        <time>2018-09-04T06:24:54Z</time>
      </trkpt>
      <trkpt lat="43.2623130" lon="-2.9466980">
        <ele>35.8</ele>
        <time>2018-09-04T06:24:55Z</time>
      </trkpt>
      <trkpt lat="43.2623780" lon="-2.9466510">
        <ele>35.6</ele>
        <time>2018-09-04T06:24:57Z</time>
      </trkpt>
      <trkpt lat="43.2625230" lon="-2.9465760">
        <ele>35.0</ele>
        <time>2018-09-04T06:25:01Z</time>
      </trkpt>
      <trkpt lat="43.2625660" lon="-2.9465600">
        <ele>34.8</ele>
        <time>2018-09-04T06:25:02Z</time>
      </trkpt>
      <trkpt lat="43.2627320" lon="-2.9464920">
        <ele>34.2</ele>
        <time>2018-09-04T06:25:06Z</time>
      </trkpt>
      <trkpt lat="43.2627610" lon="-2.9464730">
        <ele>34.2</ele>
        <time>2018-09-04T06:25:07Z</time>
      </trkpt>
      <trkpt lat="43.2628780" lon="-2.9464180">
        <ele>33.8</ele>
        <time>2018-09-04T06:25:10Z</time>
      </trkpt>
      <trkpt lat="43.2629500" lon="-2.9463750">
        <ele>33.6</ele>
        <time>2018-09-04T06:25:12Z</time>
      </trkpt>
      <trkpt lat="43.2630670" lon="-2.9463080">
        <ele>33.0</ele>
        <time>2018-09-04T06:25:15Z</time>
      </trkpt>
      <trkpt lat="43.2631400" lon="-2.9462820">
        <ele>32.6</ele>
        <time>2018-09-04T06:25:17Z</time>
      </trkpt>
      <trkpt lat="43.2632580" lon="-2.9462210">
        <ele>32.6</ele>
        <time>2018-09-04T06:25:20Z</time>
      </trkpt>
      <trkpt lat="43.2633000" lon="-2.9461850">
        <ele>32.4</ele>
        <time>2018-09-04T06:25:21Z</time>
      </trkpt>
      <trkpt lat="43.2634880" lon="-2.9460870">
        <ele>31.6</ele>
        <time>2018-09-04T06:25:25Z</time>
      </trkpt>
      <trkpt lat="43.2636580" lon="-2.9459950">
        <ele>31.4</ele>
        <time>2018-09-04T06:25:30Z</time>
      </trkpt>
      <trkpt lat="43.2637590" lon="-2.9460100">
        <ele>31.4</ele>
        <time>2018-09-04T06:25:33Z</time>
      </trkpt>
      <trkpt lat="43.2638280" lon="-2.9459760">
        <ele>31.4</ele>
        <time>2018-09-04T06:25:35Z</time>
      </trkpt>
      <trkpt lat="43.2638530" lon="-2.9459740">
        <ele>31.4</ele>
        <time>2018-09-04T06:25:36Z</time>
      </trkpt>
      <trkpt lat="43.2639160" lon="-2.9459600">
        <ele>31.4</ele>
        <time>2018-09-04T06:25:38Z</time>
      </trkpt>
      <trkpt lat="43.2639500" lon="-2.9459550">
        <ele>31.2</ele>
        <time>2018-09-04T06:25:39Z</time>
      </trkpt>
      <trkpt lat="43.2639860" lon="-2.9459350">
        <ele>31.0</ele>
        <time>2018-09-04T06:25:40Z</time>
      </trkpt>
      <trkpt lat="43.2640510" lon="-2.9458950">
        <ele>30.8</ele>
        <time>2018-09-04T06:25:42Z</time>
      </trkpt>
      <trkpt lat="43.2640950" lon="-2.9458770">
        <ele>30.8</ele>
        <time>2018-09-04T06:25:43Z</time>
      </trkpt>
      <trkpt lat="43.2641820" lon="-2.9458520">
        <ele>30.6</ele>
        <time>2018-09-04T06:25:45Z</time>
      </trkpt>
      <trkpt lat="43.2644010" lon="-2.9457810">
        <ele>30.2</ele>
        <time>2018-09-04T06:25:50Z</time>
      </trkpt>
      <trkpt lat="43.2646530" lon="-2.9456630">
        <ele>29.6</ele>
        <time>2018-09-04T06:25:57Z</time>
      </trkpt>
      <trkpt lat="43.2648710" lon="-2.9455770">
        <ele>29.0</ele>
        <time>2018-09-04T06:26:03Z</time>
      </trkpt>
      <trkpt lat="43.2649270" lon="-2.9455820">
        <ele>28.6</ele>
        <time>2018-09-04T06:26:05Z</time>
      </trkpt>
      <trkpt lat="43.2649930" lon="-2.9456130">
        <ele>28.6</ele>
        <time>2018-09-04T06:26:07Z</time>
      </trkpt>
      <trkpt lat="43.2650850" lon="-2.9456440">
        <ele>28.6</ele>
        <time>2018-09-04T06:26:09Z</time>
      </trkpt>
      <trkpt lat="43.2651380" lon="-2.9456270">
        <ele>28.2</ele>
        <time>2018-09-04T06:26:10Z</time>
      </trkpt>
      <trkpt lat="43.2652520" lon="-2.9455940">
        <ele>28.0</ele>
        <time>2018-09-04T06:26:12Z</time>
      </trkpt>
      <trkpt lat="43.2653180" lon="-2.9456130">
        <ele>28.0</ele>
        <time>2018-09-04T06:26:14Z</time>
      </trkpt>
      <trkpt lat="43.2653580" lon="-2.9456170">
        <ele>28.4</ele>
        <time>2018-09-04T06:26:16Z</time>
      </trkpt>
      <trkpt lat="43.2653830" lon="-2.9456240">
        <ele>28.8</ele>
        <time>2018-09-04T06:26:18Z</time>
      </trkpt>
      <trkpt lat="43.2653900" lon="-2.9456340">
        <ele>28.8</ele>
        <time>2018-09-04T06:26:23Z</time>
      </trkpt>
      <trkpt lat="43.2653900" lon="-2.9456340">
        <ele>28.8</ele>
        <time>2018-09-04T06:26:24Z</time>
      </trkpt>
      <trkpt lat="43.2653900" lon="-2.9456340">
        <ele>28.8</ele>
        <time>2018-09-04T06:26:26Z</time>
      </trkpt>
      <trkpt lat="43.2653900" lon="-2.9456340">
        <ele>28.6</ele>
        <time>2018-09-04T06:26:30Z</time>
      </trkpt>
      <trkpt lat="43.2653900" lon="-2.9456340">
        <ele>28.8</ele>
        <time>2018-09-04T06:26:33Z</time>
      </trkpt>
      <trkpt lat="43.2654330" lon="-2.9456130">
        <ele>28.6</ele>
        <time>2018-09-04T06:26:40Z</time>
      </trkpt>
      <trkpt lat="43.2654510" lon="-2.9456040">
        <ele>28.4</ele>
        <time>2018-09-04T06:26:41Z</time>
      </trkpt>
      <trkpt lat="43.2654940" lon="-2.9455640">
        <ele>28.2</ele>
        <time>2018-09-04T06:26:43Z</time>
      </trkpt>
      <trkpt lat="43.2655320" lon="-2.9455170">
        <ele>28.2</ele>
        <time>2018-09-04T06:26:45Z</time>
      </trkpt>
      <trkpt lat="43.2655560" lon="-2.9454970">
        <ele>28.4</ele>
        <time>2018-09-04T06:26:46Z</time>
      </trkpt>
      <trkpt lat="43.2656630" lon="-2.9453720">
        <ele>28.2</ele>
        <time>2018-09-04T06:26:52Z</time>
      </trkpt>
      <trkpt lat="43.2657050" lon="-2.9453120">
        <ele>28.2</ele>
        <time>2018-09-04T06:26:54Z</time>
      </trkpt>
      <trkpt lat="43.2657700" lon="-2.9452090">
        <ele>28.2</ele>
        <time>2018-09-04T06:26:58Z</time>
      </trkpt>
      <trkpt lat="43.2658860" lon="-2.9450660">
        <ele>28.0</ele>
        <time>2018-09-04T06:27:04Z</time>
      </trkpt>
      <trkpt lat="43.2659540" lon="-2.9450100">
        <ele>28.2</ele>
        <time>2018-09-04T06:27:08Z</time>
      </trkpt>
      <trkpt lat="43.2659710" lon="-2.9450200">
        <ele>28.4</ele>
        <time>2018-09-04T06:27:09Z</time>
      </trkpt>
      <trkpt lat="43.2660490" lon="-2.9451050">
        <ele>27.6</ele>
        <time>2018-09-04T06:27:13Z</time>
      </trkpt>
      <trkpt lat="43.2661160" lon="-2.9451750">
        <ele>27.8</ele>
        <time>2018-09-04T06:27:16Z</time>
      </trkpt>
      <trkpt lat="43.2661430" lon="-2.9452130">
        <ele>27.8</ele>
        <time>2018-09-04T06:27:18Z</time>
      </trkpt>
      <trkpt lat="43.2662170" lon="-2.9453520">
        <ele>27.8</ele>
        <time>2018-09-04T06:27:23Z</time>
      </trkpt>
      <trkpt lat="43.2662670" lon="-2.9456410">
        <ele>27.4</ele>
        <time>2018-09-04T06:27:29Z</time>
      </trkpt>
      <trkpt lat="43.2662250" lon="-2.9458780">
        <ele>27.2</ele>
        <time>2018-09-04T06:27:35Z</time>
      </trkpt>
      <trkpt lat="43.2662180" lon="-2.9459040">
        <ele>27.2</ele>
        <time>2018-09-04T06:27:36Z</time>
      </trkpt>
      <trkpt lat="43.2662100" lon="-2.9459260">
        <ele>27.2</ele>
        <time>2018-09-04T06:27:37Z</time>
      </trkpt>
      <trkpt lat="43.2661420" lon="-2.9460250">
        <ele>27.2</ele>
        <time>2018-09-04T06:27:42Z</time>
      </trkpt>
      <trkpt lat="43.2660650" lon="-2.9461070">
        <ele>27.4</ele>
        <time>2018-09-04T06:27:49Z</time>
      </trkpt>
      <trkpt lat="43.2660600" lon="-2.9461120">
        <ele>27.4</ele>
        <time>2018-09-04T06:27:50Z</time>
      </trkpt>
      <trkpt lat="43.2660620" lon="-2.9461120">
        <ele>27.4</ele>
        <time>2018-09-04T06:27:55Z</time>
      </trkpt>
      <trkpt lat="43.2660620" lon="-2.9461120">
        <ele>27.4</ele>
        <time>2018-09-04T06:27:57Z</time>
      </trkpt>
      <trkpt lat="43.2660620" lon="-2.9461120">
        <ele>27.4</ele>
        <time>2018-09-04T06:28:00Z</time>
      </trkpt>
      <trkpt lat="43.2660620" lon="-2.9461120">
        <ele>27.4</ele>
        <time>2018-09-04T06:28:03Z</time>
      </trkpt>
      <trkpt lat="43.2660710" lon="-2.9461310">
        <ele>27.4</ele>
        <time>2018-09-04T06:28:04Z</time>
      </trkpt>
      <trkpt lat="43.2660760" lon="-2.9461940">
        <ele>27.0</ele>
        <time>2018-09-04T06:28:06Z</time>
      </trkpt>
      <trkpt lat="43.2660820" lon="-2.9462350">
        <ele>27.0</ele>
        <time>2018-09-04T06:28:07Z</time>
      </trkpt>
      <trkpt lat="43.2660840" lon="-2.9462740">
        <ele>27.0</ele>
        <time>2018-09-04T06:28:08Z</time>
      </trkpt>
      <trkpt lat="43.2660650" lon="-2.9463910">
        <ele>27.0</ele>
        <time>2018-09-04T06:28:11Z</time>
      </trkpt>
      <trkpt lat="43.2660600" lon="-2.9464270">
        <ele>27.0</ele>
        <time>2018-09-04T06:28:12Z</time>
      </trkpt>
      <trkpt lat="43.2660360" lon="-2.9466840">
        <ele>26.6</ele>
        <time>2018-09-04T06:28:18Z</time>
      </trkpt>
      <trkpt lat="43.2660220" lon="-2.9468370">
        <ele>25.8</ele>
        <time>2018-09-04T06:28:20Z</time>
      </trkpt>
      <trkpt lat="43.2659910" lon="-2.9470560">
        <ele>24.2</ele>
        <time>2018-09-04T06:28:22Z</time>
      </trkpt>
      <trkpt lat="43.2659740" lon="-2.9471780">
        <ele>23.0</ele>
        <time>2018-09-04T06:28:23Z</time>
      </trkpt>
      <trkpt lat="43.2659550" lon="-2.9473100">
        <ele>21.8</ele>
        <time>2018-09-04T06:28:24Z</time>
      </trkpt>
      <trkpt lat="43.2659360" lon="-2.9474540">
        <ele>20.6</ele>
        <time>2018-09-04T06:28:25Z</time>
      </trkpt>
      <trkpt lat="43.2659120" lon="-2.9476030">
        <ele>19.6</ele>
        <time>2018-09-04T06:28:26Z</time>
      </trkpt>
      <trkpt lat="43.2658880" lon="-2.9477550">
        <ele>17.6</ele>
        <time>2018-09-04T06:28:27Z</time>
      </trkpt>
      <trkpt lat="43.2658350" lon="-2.9480510">
        <ele>16.4</ele>
        <time>2018-09-04T06:28:29Z</time>
      </trkpt>
      <trkpt lat="43.2657880" lon="-2.9483320">
        <ele>16.2</ele>
        <time>2018-09-04T06:28:31Z</time>
      </trkpt>
      <trkpt lat="43.2657690" lon="-2.9484660">
        <ele>16.2</ele>
        <time>2018-09-04T06:28:32Z</time>
      </trkpt>
      <trkpt lat="43.2656770" lon="-2.9492030">
        <ele>16.4</ele>
        <time>2018-09-04T06:28:38Z</time>
      </trkpt>
      <trkpt lat="43.2656290" lon="-2.9498510">
        <ele>16.4</ele>
        <time>2018-09-04T06:28:44Z</time>
      </trkpt>
      <trkpt lat="43.2655980" lon="-2.9500480">
        <ele>16.4</ele>
        <time>2018-09-04T06:28:46Z</time>
      </trkpt>
      <trkpt lat="43.2655420" lon="-2.9504390">
        <ele>16.4</ele>
        <time>2018-09-04T06:28:50Z</time>
      </trkpt>
      <trkpt lat="43.2655110" lon="-2.9506460">
        <ele>16.4</ele>
        <time>2018-09-04T06:28:52Z</time>
      </trkpt>
      <trkpt lat="43.2654810" lon="-2.9508570">
        <ele>16.0</ele>
        <time>2018-09-04T06:28:54Z</time>
      </trkpt>
      <trkpt lat="43.2654520" lon="-2.9511600">
        <ele>16.0</ele>
        <time>2018-09-04T06:28:57Z</time>
      </trkpt>
      <trkpt lat="43.2653750" lon="-2.9519330">
        <ele>16.0</ele>
        <time>2018-09-04T06:29:05Z</time>
      </trkpt>
      <trkpt lat="43.2653630" lon="-2.9520180">
        <ele>16.0</ele>
        <time>2018-09-04T06:29:06Z</time>
      </trkpt>
      <trkpt lat="43.2652750" lon="-2.9526930">
        <ele>16.2</ele>
        <time>2018-09-04T06:29:14Z</time>
      </trkpt>
      <trkpt lat="43.2652230" lon="-2.9530060">
        <ele>16.4</ele>
        <time>2018-09-04T06:29:18Z</time>
      </trkpt>
      <trkpt lat="43.2651360" lon="-2.9530900">
        <ele>16.6</ele>
        <time>2018-09-04T06:29:20Z</time>
      </trkpt>
      <trkpt lat="43.2650020" lon="-2.9531050">
        <ele>17.4</ele>
        <time>2018-09-04T06:29:23Z</time>
      </trkpt>
      <trkpt lat="43.2648890" lon="-2.9531510">
        <ele>18.2</ele>
        <time>2018-09-04T06:29:26Z</time>
      </trkpt>
      <trkpt lat="43.2648310" lon="-2.9532050">
        <ele>18.6</ele>
        <time>2018-09-04T06:29:28Z</time>
      </trkpt>
      <trkpt lat="43.2647690" lon="-2.9532840">
        <ele>19.4</ele>
        <time>2018-09-04T06:29:31Z</time>
      </trkpt>
      <trkpt lat="43.2647570" lon="-2.9533200">
        <ele>19.8</ele>
        <time>2018-09-04T06:29:32Z</time>
      </trkpt>
      <trkpt lat="43.2647280" lon="-2.9533780">
        <ele>20.0</ele>
        <time>2018-09-04T06:29:34Z</time>
      </trkpt>
      <trkpt lat="43.2646830" lon="-2.9534760">
        <ele>21.0</ele>
        <time>2018-09-04T06:29:39Z</time>
      </trkpt>
      <trkpt lat="43.2646530" lon="-2.9535280">
        <ele>21.2</ele>
        <time>2018-09-04T06:29:42Z</time>
      </trkpt>
      <trkpt lat="43.2646250" lon="-2.9535750">
        <ele>21.8</ele>
        <time>2018-09-04T06:29:45Z</time>
      </trkpt>
      <trkpt lat="43.2646270" lon="-2.9535900">
        <ele>21.8</ele>
        <time>2018-09-04T06:29:46Z</time>
      </trkpt>
      <trkpt lat="43.2646240" lon="-2.9536250">
        <ele>22.2</ele>
        <time>2018-09-04T06:29:49Z</time>
      </trkpt>
      <trkpt lat="43.2645990" lon="-2.9536680">
        <ele>22.4</ele>
        <time>2018-09-04T06:29:54Z</time>
      </trkpt>
      <trkpt lat="43.2645710" lon="-2.9538360">
        <ele>22.8</ele>
        <time>2018-09-04T06:29:59Z</time>
      </trkpt>
      <trkpt lat="43.2645710" lon="-2.9538680">
        <ele>23.0</ele>
        <time>2018-09-04T06:30:00Z</time>
      </trkpt>
      <trkpt lat="43.2645650" lon="-2.9539060">
        <ele>23.2</ele>
        <time>2018-09-04T06:30:01Z</time>
      </trkpt>
      <trkpt lat="43.2645610" lon="-2.9540400">
        <ele>24.2</ele>
        <time>2018-09-04T06:30:05Z</time>
      </trkpt>
      <trkpt lat="43.2645540" lon="-2.9540710">
        <ele>24.2</ele>
        <time>2018-09-04T06:30:06Z</time>
      </trkpt>
      <trkpt lat="43.2645350" lon="-2.9542350">
        <ele>25.0</ele>
        <time>2018-09-04T06:30:11Z</time>
      </trkpt>
      <trkpt lat="43.2645270" lon="-2.9543010">
        <ele>25.4</ele>
        <time>2018-09-04T06:30:13Z</time>
      </trkpt>
      <trkpt lat="43.2644850" lon="-2.9545890">
        <ele>26.4</ele>
        <time>2018-09-04T06:30:21Z</time>
      </trkpt>
      <trkpt lat="43.2644710" lon="-2.9547140">
        <ele>26.4</ele>
        <time>2018-09-04T06:30:24Z</time>
      </trkpt>
      <trkpt lat="43.2644430" lon="-2.9549390">
        <ele>26.4</ele>
        <time>2018-09-04T06:30:29Z</time>
      </trkpt>
      <trkpt lat="43.2644460" lon="-2.9552920">
        <ele>26.4</ele>
        <time>2018-09-04T06:30:36Z</time>
      </trkpt>
      <trkpt lat="43.2644540" lon="-2.9554000">
        <ele>26.2</ele>
        <time>2018-09-04T06:30:38Z</time>
      </trkpt>
      <trkpt lat="43.2644600" lon="-2.9555130">
        <ele>26.2</ele>
        <time>2018-09-04T06:30:40Z</time>
      </trkpt>
      <trkpt lat="43.2644740" lon="-2.9557140">
        <ele>25.6</ele>
        <time>2018-09-04T06:30:43Z</time>
      </trkpt>
      <trkpt lat="43.2644810" lon="-2.9557770">
        <ele>25.4</ele>
        <time>2018-09-04T06:30:44Z</time>
      </trkpt>
      <trkpt lat="43.2645220" lon="-2.9561590">
        <ele>24.4</ele>
        <time>2018-09-04T06:30:49Z</time>
      </trkpt>
      <trkpt lat="43.2645340" lon="-2.9562360">
        <ele>24.4</ele>
        <time>2018-09-04T06:30:50Z</time>
      </trkpt>
      <trkpt lat="43.2646000" lon="-2.9567230">
        <ele>23.4</ele>
        <time>2018-09-04T06:30:56Z</time>
      </trkpt>
      <trkpt lat="43.2646120" lon="-2.9568060">
        <ele>23.2</ele>
        <time>2018-09-04T06:30:57Z</time>
      </trkpt>
      <trkpt lat="43.2646740" lon="-2.9573100">
        <ele>22.8</ele>
        <time>2018-09-04T06:31:03Z</time>
      </trkpt>
      <trkpt lat="43.2647030" lon="-2.9575530">
        <ele>22.6</ele>
        <time>2018-09-04T06:31:06Z</time>
      </trkpt>
      <trkpt lat="43.2647130" lon="-2.9577060">
        <ele>22.6</ele>
        <time>2018-09-04T06:31:08Z</time>
      </trkpt>
      <trkpt lat="43.2647340" lon="-2.9578560">
        <ele>22.6</ele>
        <time>2018-09-04T06:31:10Z</time>
      </trkpt>
      <trkpt lat="43.2647560" lon="-2.9580020">
        <ele>22.4</ele>
        <time>2018-09-04T06:31:12Z</time>
      </trkpt>
      <trkpt lat="43.2648080" lon="-2.9583550">
        <ele>22.0</ele>
        <time>2018-09-04T06:31:17Z</time>
      </trkpt>
      <trkpt lat="43.2648310" lon="-2.9586010">
        <ele>20.8</ele>
        <time>2018-09-04T06:31:20Z</time>
      </trkpt>
      <trkpt lat="43.2648960" lon="-2.9588120">
        <ele>21.0</ele>
        <time>2018-09-04T06:31:23Z</time>
      </trkpt>
      <trkpt lat="43.2649320" lon="-2.9588600">
        <ele>21.2</ele>
        <time>2018-09-04T06:31:24Z</time>
      </trkpt>
      <trkpt lat="43.2650460" lon="-2.9589820">
        <ele>21.8</ele>
        <time>2018-09-04T06:31:27Z</time>
      </trkpt>
      <trkpt lat="43.2650760" lon="-2.9590270">
        <ele>22.0</ele>
        <time>2018-09-04T06:31:28Z</time>
      </trkpt>
      <trkpt lat="43.2651270" lon="-2.9591190">
        <ele>22.2</ele>
        <time>2018-09-04T06:31:30Z</time>
      </trkpt>
      <trkpt lat="43.2652350" lon="-2.9593600">
        <ele>22.4</ele>
        <time>2018-09-04T06:31:35Z</time>
      </trkpt>
      <trkpt lat="43.2652850" lon="-2.9594570">
        <ele>22.4</ele>
        <time>2018-09-04T06:31:37Z</time>
      </trkpt>
      <trkpt lat="43.2653750" lon="-2.9596650">
        <ele>22.6</ele>
        <time>2018-09-04T06:31:41Z</time>
      </trkpt>
      <trkpt lat="43.2654520" lon="-2.9598290">
        <ele>22.4</ele>
        <time>2018-09-04T06:31:44Z</time>
      </trkpt>
      <trkpt lat="43.2655510" lon="-2.9600050">
        <ele>22.0</ele>
        <time>2018-09-04T06:31:47Z</time>
      </trkpt>
      <trkpt lat="43.2656890" lon="-2.9602300">
        <ele>22.0</ele>
        <time>2018-09-04T06:31:51Z</time>
      </trkpt>
      <trkpt lat="43.2657270" lon="-2.9602710">
        <ele>22.0</ele>
        <time>2018-09-04T06:31:52Z</time>
      </trkpt>
      <trkpt lat="43.2658430" lon="-2.9604140">
        <ele>22.4</ele>
        <time>2018-09-04T06:31:55Z</time>
      </trkpt>
      <trkpt lat="43.2659350" lon="-2.9605480">
        <ele>22.8</ele>
        <time>2018-09-04T06:31:58Z</time>
      </trkpt>
      <trkpt lat="43.2659650" lon="-2.9605930">
        <ele>23.0</ele>
        <time>2018-09-04T06:31:59Z</time>
      </trkpt>
      <trkpt lat="43.2661050" lon="-2.9607780">
        <ele>22.6</ele>
        <time>2018-09-04T06:32:03Z</time>
      </trkpt>
      <trkpt lat="43.2662180" lon="-2.9609210">
        <ele>22.0</ele>
        <time>2018-09-04T06:32:06Z</time>
      </trkpt>
      <trkpt lat="43.2662570" lon="-2.9609650">
        <ele>22.0</ele>
        <time>2018-09-04T06:32:07Z</time>
      </trkpt>
      <trkpt lat="43.2663770" lon="-2.9611120">
        <ele>22.0</ele>
        <time>2018-09-04T06:32:10Z</time>
      </trkpt>
      <trkpt lat="43.2665820" lon="-2.9613530">
        <ele>21.8</ele>
        <time>2018-09-04T06:32:15Z</time>
      </trkpt>
      <trkpt lat="43.2666560" lon="-2.9614580">
        <ele>21.8</ele>
        <time>2018-09-04T06:32:17Z</time>
      </trkpt>
      <trkpt lat="43.2666860" lon="-2.9615190">
        <ele>21.6</ele>
        <time>2018-09-04T06:32:18Z</time>
      </trkpt>
      <trkpt lat="43.2667260" lon="-2.9616730">
        <ele>21.2</ele>
        <time>2018-09-04T06:32:20Z</time>
      </trkpt>
      <trkpt lat="43.2667470" lon="-2.9617490">
        <ele>20.8</ele>
        <time>2018-09-04T06:32:21Z</time>
      </trkpt>
      <trkpt lat="43.2667920" lon="-2.9618910">
        <ele>19.8</ele>
        <time>2018-09-04T06:32:23Z</time>
      </trkpt>
      <trkpt lat="43.2668920" lon="-2.9619340">
        <ele>19.0</ele>
        <time>2018-09-04T06:32:25Z</time>
      </trkpt>
      <trkpt lat="43.2669360" lon="-2.9618760">
        <ele>18.4</ele>
        <time>2018-09-04T06:32:26Z</time>
      </trkpt>
      <trkpt lat="43.2669770" lon="-2.9618240">
        <ele>18.0</ele>
        <time>2018-09-04T06:32:27Z</time>
      </trkpt>
      <trkpt lat="43.2670200" lon="-2.9617790">
        <ele>17.6</ele>
        <time>2018-09-04T06:32:28Z</time>
      </trkpt>
      <trkpt lat="43.2671140" lon="-2.9618200">
        <ele>17.6</ele>
        <time>2018-09-04T06:32:30Z</time>
      </trkpt>
      <trkpt lat="43.2671850" lon="-2.9619880">
        <ele>17.8</ele>
        <time>2018-09-04T06:32:33Z</time>
      </trkpt>
      <trkpt lat="43.2672740" lon="-2.9620980">
        <ele>18.2</ele>
        <time>2018-09-04T06:32:36Z</time>
      </trkpt>
      <trkpt lat="43.2673020" lon="-2.9621340">
        <ele>18.2</ele>
        <time>2018-09-04T06:32:37Z</time>
      </trkpt>
      <trkpt lat="43.2674260" lon="-2.9623270">
        <ele>18.2</ele>
        <time>2018-09-04T06:32:42Z</time>
      </trkpt>
      <trkpt lat="43.2674490" lon="-2.9623710">
        <ele>18.2</ele>
        <time>2018-09-04T06:32:43Z</time>
      </trkpt>
      <trkpt lat="43.2674970" lon="-2.9624640">
        <ele>18.0</ele>
        <time>2018-09-04T06:32:45Z</time>
      </trkpt>
      <trkpt lat="43.2676280" lon="-2.9626380">
        <ele>17.8</ele>
        <time>2018-09-04T06:32:49Z</time>
      </trkpt>
      <trkpt lat="43.2678240" lon="-2.9628520">
        <ele>17.4</ele>
        <time>2018-09-04T06:32:54Z</time>
      </trkpt>
      <trkpt lat="43.2679360" lon="-2.9629720">
        <ele>17.4</ele>
        <time>2018-09-04T06:32:57Z</time>
      </trkpt>
      <trkpt lat="43.2681020" lon="-2.9631630">
        <ele>17.8</ele>
        <time>2018-09-04T06:33:02Z</time>
      </trkpt>
      <trkpt lat="43.2681810" lon="-2.9632420">
        <ele>17.8</ele>
        <time>2018-09-04T06:33:04Z</time>
      </trkpt>
      <trkpt lat="43.2682570" lon="-2.9633230">
        <ele>17.6</ele>
        <time>2018-09-04T06:33:06Z</time>
      </trkpt>
      <trkpt lat="43.2683320" lon="-2.9634040">
        <ele>17.6</ele>
        <time>2018-09-04T06:33:08Z</time>
      </trkpt>
      <trkpt lat="43.2685960" lon="-2.9637080">
        <ele>17.6</ele>
        <time>2018-09-04T06:33:15Z</time>
      </trkpt>
      <trkpt lat="43.2687590" lon="-2.9638800">
        <ele>17.8</ele>
        <time>2018-09-04T06:33:19Z</time>
      </trkpt>
      <trkpt lat="43.2689130" lon="-2.9640430">
        <ele>17.4</ele>
        <time>2018-09-04T06:33:23Z</time>
      </trkpt>
      <trkpt lat="43.2691600" lon="-2.9642930">
        <ele>17.8</ele>
        <time>2018-09-04T06:33:30Z</time>
      </trkpt>
      <trkpt lat="43.2692020" lon="-2.9643300">
        <ele>17.8</ele>
        <time>2018-09-04T06:33:31Z</time>
      </trkpt>
      <trkpt lat="43.2695300" lon="-2.9646560">
        <ele>17.8</ele>
        <time>2018-09-04T06:33:39Z</time>
      </trkpt>
      <trkpt lat="43.2695700" lon="-2.9647000">
        <ele>17.8</ele>
        <time>2018-09-04T06:33:40Z</time>
      </trkpt>
      <trkpt lat="43.2697020" lon="-2.9648360">
        <ele>17.4</ele>
        <time>2018-09-04T06:33:43Z</time>
      </trkpt>
      <trkpt lat="43.2698000" lon="-2.9649310">
        <ele>17.6</ele>
        <time>2018-09-04T06:33:45Z</time>
      </trkpt>
      <trkpt lat="43.2698520" lon="-2.9649780">
        <ele>17.6</ele>
        <time>2018-09-04T06:33:46Z</time>
      </trkpt>
      <trkpt lat="43.2699990" lon="-2.9651180">
        <ele>17.8</ele>
        <time>2018-09-04T06:33:49Z</time>
      </trkpt>
      <trkpt lat="43.2701820" lon="-2.9652680">
        <ele>17.8</ele>
        <time>2018-09-04T06:33:53Z</time>
      </trkpt>
      <trkpt lat="43.2702710" lon="-2.9653200">
        <ele>17.8</ele>
        <time>2018-09-04T06:33:55Z</time>
      </trkpt>
      <trkpt lat="43.2705000" lon="-2.9654410">
        <ele>17.8</ele>
        <time>2018-09-04T06:34:00Z</time>
      </trkpt>
      <trkpt lat="43.2707330" lon="-2.9655770">
        <ele>17.8</ele>
        <time>2018-09-04T06:34:05Z</time>
      </trkpt>
      <trkpt lat="43.2707800" lon="-2.9656040">
        <ele>17.8</ele>
        <time>2018-09-04T06:34:06Z</time>
      </trkpt>
      <trkpt lat="43.2709250" lon="-2.9656840">
        <ele>17.6</ele>
        <time>2018-09-04T06:34:09Z</time>
      </trkpt>
      <trkpt lat="43.2710630" lon="-2.9657630">
        <ele>17.6</ele>
        <time>2018-09-04T06:34:12Z</time>
      </trkpt>
      <trkpt lat="43.2711510" lon="-2.9658140">
        <ele>17.6</ele>
        <time>2018-09-04T06:34:14Z</time>
      </trkpt>
      <trkpt lat="43.2713790" lon="-2.9659220">
        <ele>18.0</ele>
        <time>2018-09-04T06:34:19Z</time>
      </trkpt>
      <trkpt lat="43.2717540" lon="-2.9661320">
        <ele>17.8</ele>
        <time>2018-09-04T06:34:27Z</time>
      </trkpt>
      <trkpt lat="43.2718030" lon="-2.9661580">
        <ele>17.8</ele>
        <time>2018-09-04T06:34:28Z</time>
      </trkpt>
      <trkpt lat="43.2719920" lon="-2.9662630">
        <ele>17.6</ele>
        <time>2018-09-04T06:34:32Z</time>
      </trkpt>
      <trkpt lat="43.2722090" lon="-2.9663920">
        <ele>17.6</ele>
        <time>2018-09-04T06:34:37Z</time>
      </trkpt>
      <trkpt lat="43.2722520" lon="-2.9664240">
        <ele>17.6</ele>
        <time>2018-09-04T06:34:38Z</time>
      </trkpt>
      <trkpt lat="43.2723450" lon="-2.9665000">
        <ele>17.8</ele>
        <time>2018-09-04T06:34:40Z</time>
      </trkpt>
      <trkpt lat="43.2724370" lon="-2.9665980">
        <ele>17.8</ele>
        <time>2018-09-04T06:34:42Z</time>
      </trkpt>
      <trkpt lat="43.2728230" lon="-2.9669730">
        <ele>17.4</ele>
        <time>2018-09-04T06:34:50Z</time>
      </trkpt>
      <trkpt lat="43.2728760" lon="-2.9670170">
        <ele>17.2</ele>
        <time>2018-09-04T06:34:51Z</time>
      </trkpt>
      <trkpt lat="43.2729830" lon="-2.9670940">
        <ele>16.8</ele>
        <time>2018-09-04T06:34:53Z</time>
      </trkpt>
      <trkpt lat="43.2730360" lon="-2.9671410">
        <ele>16.6</ele>
        <time>2018-09-04T06:34:54Z</time>
      </trkpt>
      <trkpt lat="43.2731370" lon="-2.9672480">
        <ele>16.4</ele>
        <time>2018-09-04T06:34:56Z</time>
      </trkpt>
      <trkpt lat="43.2731850" lon="-2.9673080">
        <ele>16.4</ele>
        <time>2018-09-04T06:34:57Z</time>
      </trkpt>
      <trkpt lat="43.2733270" lon="-2.9674970">
        <ele>16.4</ele>
        <time>2018-09-04T06:35:00Z</time>
      </trkpt>
      <trkpt lat="43.2734230" lon="-2.9676140">
        <ele>16.2</ele>
        <time>2018-09-04T06:35:02Z</time>
      </trkpt>
      <trkpt lat="43.2734700" lon="-2.9676740">
        <ele>16.0</ele>
        <time>2018-09-04T06:35:03Z</time>
      </trkpt>
      <trkpt lat="43.2736100" lon="-2.9678620">
        <ele>16.0</ele>
        <time>2018-09-04T06:35:06Z</time>
      </trkpt>
      <trkpt lat="43.2738550" lon="-2.9681740">
        <ele>16.2</ele>
        <time>2018-09-04T06:35:11Z</time>
      </trkpt>
      <trkpt lat="43.2739000" lon="-2.9682400">
        <ele>16.2</ele>
        <time>2018-09-04T06:35:12Z</time>
      </trkpt>
      <trkpt lat="43.2740280" lon="-2.9684410">
        <ele>16.4</ele>
        <time>2018-09-04T06:35:15Z</time>
      </trkpt>
      <trkpt lat="43.2741100" lon="-2.9685720">
        <ele>17.4</ele>
        <time>2018-09-04T06:35:17Z</time>
      </trkpt>
      <trkpt lat="43.2741870" lon="-2.9686840">
        <ele>18.6</ele>
        <time>2018-09-04T06:35:19Z</time>
      </trkpt>
      <trkpt lat="43.2742690" lon="-2.9687790">
        <ele>19.4</ele>
        <time>2018-09-04T06:35:21Z</time>
      </trkpt>
      <trkpt lat="43.2743120" lon="-2.9688260">
        <ele>19.6</ele>
        <time>2018-09-04T06:35:22Z</time>
      </trkpt>
      <trkpt lat="43.2743940" lon="-2.9689180">
        <ele>20.2</ele>
        <time>2018-09-04T06:35:24Z</time>
      </trkpt>
      <trkpt lat="43.2744780" lon="-2.9690060">
        <ele>21.0</ele>
        <time>2018-09-04T06:35:26Z</time>
      </trkpt>
      <trkpt lat="43.2745200" lon="-2.9690470">
        <ele>21.2</ele>
        <time>2018-09-04T06:35:27Z</time>
      </trkpt>
      <trkpt lat="43.2746090" lon="-2.9691200">
        <ele>21.6</ele>
        <time>2018-09-04T06:35:29Z</time>
      </trkpt>
      <trkpt lat="43.2747950" lon="-2.9692480">
        <ele>22.0</ele>
        <time>2018-09-04T06:35:33Z</time>
      </trkpt>
      <trkpt lat="43.2749860" lon="-2.9693480">
        <ele>22.2</ele>
        <time>2018-09-04T06:35:38Z</time>
      </trkpt>
      <trkpt lat="43.2750230" lon="-2.9693610">
        <ele>22.4</ele>
        <time>2018-09-04T06:35:39Z</time>
      </trkpt>
      <trkpt lat="43.2750960" lon="-2.9693860">
        <ele>22.6</ele>
        <time>2018-09-04T06:35:41Z</time>
      </trkpt>
      <trkpt lat="43.2752460" lon="-2.9694590">
        <ele>22.8</ele>
        <time>2018-09-04T06:35:45Z</time>
      </trkpt>
      <trkpt lat="43.2754030" lon="-2.9695410">
        <ele>22.6</ele>
        <time>2018-09-04T06:35:50Z</time>
      </trkpt>
      <trkpt lat="43.2755380" lon="-2.9695920">
        <ele>21.6</ele>
        <time>2018-09-04T06:35:55Z</time>
      </trkpt>
      <trkpt lat="43.2755510" lon="-2.9695960">
        <ele>21.6</ele>
        <time>2018-09-04T06:35:56Z</time>
      </trkpt>
      <trkpt lat="43.2755810" lon="-2.9696080">
        <ele>21.2</ele>
        <time>2018-09-04T06:35:59Z</time>
      </trkpt>
      <trkpt lat="43.2755800" lon="-2.9696080">
        <ele>21.0</ele>
        <time>2018-09-04T06:36:00Z</time>
      </trkpt>
      <trkpt lat="43.2755840" lon="-2.9696100">
        <ele>21.0</ele>
        <time>2018-09-04T06:36:11Z</time>
      </trkpt>
      <trkpt lat="43.2755920" lon="-2.9696200">
        <ele>20.8</ele>
        <time>2018-09-04T06:36:14Z</time>
      </trkpt>
      <trkpt lat="43.2755980" lon="-2.9696270">
        <ele>20.8</ele>
        <time>2018-09-04T06:36:16Z</time>
      </trkpt>
      <trkpt lat="43.2755510" lon="-2.9696200">
        <ele>20.6</ele>
        <time>2018-09-04T06:36:19Z</time>
      </trkpt>
      <trkpt lat="43.2755330" lon="-2.9696140">
        <ele>20.6</ele>
        <time>2018-09-04T06:36:20Z</time>
      </trkpt>
      <trkpt lat="43.2754560" lon="-2.9695660">
        <ele>21.4</ele>
        <time>2018-09-04T06:36:24Z</time>
      </trkpt>
      <trkpt lat="43.2754040" lon="-2.9695120">
        <ele>22.0</ele>
        <time>2018-09-04T06:36:27Z</time>
      </trkpt>
      <trkpt lat="43.2753890" lon="-2.9694930">
        <ele>22.2</ele>
        <time>2018-09-04T06:36:28Z</time>
      </trkpt>
      <trkpt lat="43.2753280" lon="-2.9693600">
        <ele>22.4</ele>
        <time>2018-09-04T06:36:33Z</time>
      </trkpt>
      <trkpt lat="43.2752810" lon="-2.9692630">
        <ele>23.0</ele>
        <time>2018-09-04T06:36:36Z</time>
      </trkpt>
      <trkpt lat="43.2752620" lon="-2.9692340">
        <ele>23.2</ele>
        <time>2018-09-04T06:36:37Z</time>
      </trkpt>
      <trkpt lat="43.2752190" lon="-2.9691890">
        <ele>23.4</ele>
        <time>2018-09-04T06:36:39Z</time>
      </trkpt>
      <trkpt lat="43.2751520" lon="-2.9691700">
        <ele>24.4</ele>
        <time>2018-09-04T06:36:42Z</time>
      </trkpt>
      <trkpt lat="43.2751320" lon="-2.9691780">
        <ele>24.8</ele>
        <time>2018-09-04T06:36:43Z</time>
      </trkpt>
      <trkpt lat="43.2751160" lon="-2.9691940">
        <ele>25.2</ele>
        <time>2018-09-04T06:36:44Z</time>
      </trkpt>
      <trkpt lat="43.2750960" lon="-2.9692320">
        <ele>25.4</ele>
        <time>2018-09-04T06:36:46Z</time>
      </trkpt>
      <trkpt lat="43.2751020" lon="-2.9693010">
        <ele>25.4</ele>
        <time>2018-09-04T06:36:49Z</time>
      </trkpt>
      <trkpt lat="43.2751230" lon="-2.9693340">
        <ele>25.6</ele>
        <time>2018-09-04T06:36:51Z</time>
      </trkpt>
      <trkpt lat="43.2751940" lon="-2.9693870">
        <ele>26.0</ele>
        <time>2018-09-04T06:36:55Z</time>
      </trkpt>
      <trkpt lat="43.2752690" lon="-2.9693980">
        <ele>26.4</ele>
        <time>2018-09-04T06:36:59Z</time>
      </trkpt>
      <trkpt lat="43.2752730" lon="-2.9694110">
        <ele>26.6</ele>
        <time>2018-09-04T06:37:00Z</time>
      </trkpt>
      <trkpt lat="43.2752580" lon="-2.9694120">
        <ele>26.8</ele>
        <time>2018-09-04T06:37:02Z</time>
      </trkpt>
      <trkpt lat="43.2752240" lon="-2.9693850">
        <ele>26.6</ele>
        <time>2018-09-04T06:37:04Z</time>
      </trkpt>
      <trkpt lat="43.2751500" lon="-2.9693320">
        <ele>26.4</ele>
        <time>2018-09-04T06:37:07Z</time>
      </trkpt>
      <trkpt lat="43.2751100" lon="-2.9692550">
        <ele>25.8</ele>
        <time>2018-09-04T06:37:09Z</time>
      </trkpt>
      <trkpt lat="43.2751130" lon="-2.9692100">
        <ele>25.4</ele>
        <time>2018-09-04T06:37:10Z</time>
      </trkpt>
      <trkpt lat="43.2751820" lon="-2.9691720">
        <ele>24.4</ele>
        <time>2018-09-04T06:37:12Z</time>
      </trkpt>
      <trkpt lat="43.2752600" lon="-2.9692310">
        <ele>24.6</ele>
        <time>2018-09-04T06:37:14Z</time>
      </trkpt>
      <trkpt lat="43.2752910" lon="-2.9692740">
        <ele>24.2</ele>
        <time>2018-09-04T06:37:15Z</time>
      </trkpt>
      <trkpt lat="43.2753700" lon="-2.9694730">
        <ele>23.0</ele>
        <time>2018-09-04T06:37:19Z</time>
      </trkpt>
      <trkpt lat="43.2753950" lon="-2.9695140">
        <ele>22.8</ele>
        <time>2018-09-04T06:37:20Z</time>
      </trkpt>
      <trkpt lat="43.2754270" lon="-2.9695370">
        <ele>22.4</ele>
        <time>2018-09-04T06:37:21Z</time>
      </trkpt>
      <trkpt lat="43.2754980" lon="-2.9695550">
        <ele>22.0</ele>
        <time>2018-09-04T06:37:23Z</time>
      </trkpt>
      <trkpt lat="43.2755190" lon="-2.9695470">
        <ele>21.6</ele>
        <time>2018-09-04T06:37:24Z</time>
      </trkpt>
      <trkpt lat="43.2755460" lon="-2.9695550">
        <ele>21.8</ele>
        <time>2018-09-04T06:37:26Z</time>
      </trkpt>
      <trkpt lat="43.2755640" lon="-2.9695830">
        <ele>21.8</ele>
        <time>2018-09-04T06:37:28Z</time>
      </trkpt>
      <trkpt lat="43.2755870" lon="-2.9696260">
        <ele>21.6</ele>
        <time>2018-09-04T06:37:30Z</time>
      </trkpt>
      <trkpt lat="43.2756060" lon="-2.9696510">
        <ele>21.4</ele>
        <time>2018-09-04T06:37:31Z</time>
      </trkpt>
      <trkpt lat="43.2756760" lon="-2.9697040">
        <ele>20.8</ele>
        <time>2018-09-04T06:37:34Z</time>
      </trkpt>
      <trkpt lat="43.2757380" lon="-2.9697380">
        <ele>20.4</ele>
        <time>2018-09-04T06:37:36Z</time>
      </trkpt>
      <trkpt lat="43.2758700" lon="-2.9697980">
        <ele>19.2</ele>
        <time>2018-09-04T06:37:39Z</time>
      </trkpt>
      <trkpt lat="43.2759780" lon="-2.9698370">
        <ele>18.6</ele>
        <time>2018-09-04T06:37:41Z</time>
      </trkpt>
      <trkpt lat="43.2760370" lon="-2.9698600">
        <ele>18.2</ele>
        <time>2018-09-04T06:37:42Z</time>
      </trkpt>
      <trkpt lat="43.2762240" lon="-2.9699220">
        <ele>17.0</ele>
        <time>2018-09-04T06:37:45Z</time>
      </trkpt>
      <trkpt lat="43.2763490" lon="-2.9699500">
        <ele>16.8</ele>
        <time>2018-09-04T06:37:47Z</time>
      </trkpt>
      <trkpt lat="43.2766950" lon="-2.9699810">
        <ele>16.6</ele>
        <time>2018-09-04T06:37:53Z</time>
      </trkpt>
      <trkpt lat="43.2771220" lon="-2.9700430">
        <ele>16.6</ele>
        <time>2018-09-04T06:38:01Z</time>
      </trkpt>
      <trkpt lat="43.2771770" lon="-2.9700640">
        <ele>16.6</ele>
        <time>2018-09-04T06:38:02Z</time>
      </trkpt>
      <trkpt lat="43.2772280" lon="-2.9700920">
        <ele>16.8</ele>
        <time>2018-09-04T06:38:03Z</time>
      </trkpt>
      <trkpt lat="43.2773720" lon="-2.9701770">
        <ele>17.2</ele>
        <time>2018-09-04T06:38:06Z</time>
      </trkpt>
      <trkpt lat="43.2774190" lon="-2.9702050">
        <ele>17.2</ele>
        <time>2018-09-04T06:38:07Z</time>
      </trkpt>
      <trkpt lat="43.2774850" lon="-2.9702960">
        <ele>17.4</ele>
        <time>2018-09-04T06:38:09Z</time>
      </trkpt>
      <trkpt lat="43.2775200" lon="-2.9703930">
        <ele>18.2</ele>
        <time>2018-09-04T06:38:11Z</time>
      </trkpt>
      <trkpt lat="43.2775340" lon="-2.9704370">
        <ele>18.8</ele>
        <time>2018-09-04T06:38:12Z</time>
      </trkpt>
      <trkpt lat="43.2775490" lon="-2.9704840">
        <ele>19.2</ele>
        <time>2018-09-04T06:38:13Z</time>
      </trkpt>
      <trkpt lat="43.2775650" lon="-2.9705340">
        <ele>19.4</ele>
        <time>2018-09-04T06:38:14Z</time>
      </trkpt>
      <trkpt lat="43.2775940" lon="-2.9706360">
        <ele>19.6</ele>
        <time>2018-09-04T06:38:16Z</time>
      </trkpt>
      <trkpt lat="43.2776240" lon="-2.9707390">
        <ele>19.8</ele>
        <time>2018-09-04T06:38:18Z</time>
      </trkpt>
      <trkpt lat="43.2776770" lon="-2.9708920">
        <ele>20.0</ele>
        <time>2018-09-04T06:38:21Z</time>
      </trkpt>
      <trkpt lat="43.2776980" lon="-2.9709420">
        <ele>20.0</ele>
        <time>2018-09-04T06:38:22Z</time>
      </trkpt>
      <trkpt lat="43.2777780" lon="-2.9710640">
        <ele>20.4</ele>
        <time>2018-09-04T06:38:25Z</time>
      </trkpt>
      <trkpt lat="43.2778280" lon="-2.9711390">
        <ele>19.2</ele>
        <time>2018-09-04T06:38:27Z</time>
      </trkpt>
      <trkpt lat="43.2778520" lon="-2.9711770">
        <ele>20.0</ele>
        <time>2018-09-04T06:38:28Z</time>
      </trkpt>
      <trkpt lat="43.2778940" lon="-2.9712410">
        <ele>20.2</ele>
        <time>2018-09-04T06:38:30Z</time>
      </trkpt>
      <trkpt lat="43.2779400" lon="-2.9713040">
        <ele>20.2</ele>
        <time>2018-09-04T06:38:32Z</time>
      </trkpt>
      <trkpt lat="43.2780090" lon="-2.9713970">
        <ele>20.0</ele>
        <time>2018-09-04T06:38:35Z</time>
      </trkpt>
      <trkpt lat="43.2780790" lon="-2.9715940">
        <ele>19.4</ele>
        <time>2018-09-04T06:38:40Z</time>
      </trkpt>
      <trkpt lat="43.2780860" lon="-2.9716910">
        <ele>19.2</ele>
        <time>2018-09-04T06:38:42Z</time>
      </trkpt>
      <trkpt lat="43.2781210" lon="-2.9719020">
        <ele>19.2</ele>
        <time>2018-09-04T06:38:46Z</time>
      </trkpt>
      <trkpt lat="43.2781350" lon="-2.9719990">
        <ele>19.4</ele>
        <time>2018-09-04T06:38:48Z</time>
      </trkpt>
      <trkpt lat="43.2781530" lon="-2.9720690">
        <ele>19.2</ele>
        <time>2018-09-04T06:38:50Z</time>
      </trkpt>
      <trkpt lat="43.2781710" lon="-2.9720820">
        <ele>19.4</ele>
        <time>2018-09-04T06:38:51Z</time>
      </trkpt>
      <trkpt lat="43.2783300" lon="-2.9721040">
        <ele>19.2</ele>
        <time>2018-09-04T06:38:56Z</time>
      </trkpt>
      <trkpt lat="43.2784050" lon="-2.9720800">
        <ele>19.0</ele>
        <time>2018-09-04T06:38:58Z</time>
      </trkpt>
      <trkpt lat="43.2785150" lon="-2.9720270">
        <ele>19.2</ele>
        <time>2018-09-04T06:39:01Z</time>
      </trkpt>
      <trkpt lat="43.2787240" lon="-2.9718970">
        <ele>19.2</ele>
        <time>2018-09-04T06:39:07Z</time>
      </trkpt>
      <trkpt lat="43.2787600" lon="-2.9718700">
        <ele>19.2</ele>
        <time>2018-09-04T06:39:08Z</time>
      </trkpt>
      <trkpt lat="43.2789030" lon="-2.9717550">
        <ele>19.0</ele>
        <time>2018-09-04T06:39:12Z</time>
      </trkpt>
      <trkpt lat="43.2789800" lon="-2.9717170">
        <ele>18.8</ele>
        <time>2018-09-04T06:39:15Z</time>
      </trkpt>
      <trkpt lat="43.2789990" lon="-2.9717270">
        <ele>18.8</ele>
        <time>2018-09-04T06:39:16Z</time>
      </trkpt>
      <trkpt lat="43.2790230" lon="-2.9717660">
        <ele>18.2</ele>
        <time>2018-09-04T06:39:18Z</time>
      </trkpt>
      <trkpt lat="43.2790330" lon="-2.9718030">
        <ele>18.0</ele>
        <time>2018-09-04T06:39:19Z</time>
      </trkpt>
      <trkpt lat="43.2790430" lon="-2.9718520">
        <ele>17.8</ele>
        <time>2018-09-04T06:39:20Z</time>
      </trkpt>
      <trkpt lat="43.2790540" lon="-2.9719610">
        <ele>17.6</ele>
        <time>2018-09-04T06:39:22Z</time>
      </trkpt>
      <trkpt lat="43.2790770" lon="-2.9722200">
        <ele>17.2</ele>
        <time>2018-09-04T06:39:26Z</time>
      </trkpt>
      <trkpt lat="43.2790940" lon="-2.9723550">
        <ele>16.6</ele>
        <time>2018-09-04T06:39:28Z</time>
      </trkpt>
      <trkpt lat="43.2791130" lon="-2.9725140">
        <ele>15.4</ele>
        <time>2018-09-04T06:39:31Z</time>
      </trkpt>
      <trkpt lat="43.2791140" lon="-2.9725460">
        <ele>14.8</ele>
        <time>2018-09-04T06:39:32Z</time>
      </trkpt>
      <trkpt lat="43.2791180" lon="-2.9725700">
        <ele>14.2</ele>
        <time>2018-09-04T06:39:34Z</time>
      </trkpt>
      <trkpt lat="43.2791310" lon="-2.9725740">
        <ele>14.0</ele>
        <time>2018-09-04T06:39:36Z</time>
      </trkpt>
      <trkpt lat="43.2791480" lon="-2.9725810">
        <ele>13.8</ele>
        <time>2018-09-04T06:39:38Z</time>
      </trkpt>
      <trkpt lat="43.2791500" lon="-2.9725960">
        <ele>14.0</ele>
        <time>2018-09-04T06:39:39Z</time>
      </trkpt>
      <trkpt lat="43.2791370" lon="-2.9726170">
        <ele>14.0</ele>
        <time>2018-09-04T06:39:40Z</time>
      </trkpt>
      <trkpt lat="43.2790520" lon="-2.9726740">
        <ele>13.6</ele>
        <time>2018-09-04T06:39:43Z</time>
      </trkpt>
      <trkpt lat="43.2790150" lon="-2.9726930">
        <ele>13.6</ele>
        <time>2018-09-04T06:39:44Z</time>
      </trkpt>
      <trkpt lat="43.2788900" lon="-2.9727590">
        <ele>13.2</ele>
        <time>2018-09-04T06:39:47Z</time>
      </trkpt>
      <trkpt lat="43.2788460" lon="-2.9727820">
        <ele>13.2</ele>
        <time>2018-09-04T06:39:48Z</time>
      </trkpt>
      <trkpt lat="43.2786720" lon="-2.9728790">
        <ele>13.2</ele>
        <time>2018-09-04T06:39:52Z</time>
      </trkpt>
      <trkpt lat="43.2786720" lon="-2.9728790">
        <ele>13.0</ele>
        <time>2018-09-04T06:39:59Z</time>
      </trkpt>
      <trkpt lat="43.2785830" lon="-2.9729370">
        <ele>13.0</ele>
        <time>2018-09-04T06:40:01Z</time>
      </trkpt>
      <trkpt lat="43.2784940" lon="-2.9729960">
        <ele>13.0</ele>
        <time>2018-09-04T06:40:02Z</time>
      </trkpt>
      <trkpt lat="43.2784050" lon="-2.9730540">
        <ele>13.0</ele>
        <time>2018-09-04T06:40:03Z</time>
      </trkpt>
      <trkpt lat="43.2781370" lon="-2.9732290">
        <ele>13.0</ele>
        <time>2018-09-04T06:40:04Z</time>
      </trkpt>
      <trkpt lat="43.2779500" lon="-2.9733260">
        <ele>13.0</ele>
        <time>2018-09-04T06:40:08Z</time>
      </trkpt>
      <trkpt lat="43.2778560" lon="-2.9733720">
        <ele>13.4</ele>
        <time>2018-09-04T06:40:10Z</time>
      </trkpt>
      <trkpt lat="43.2777370" lon="-2.9734450">
        <ele>14.0</ele>
        <time>2018-09-04T06:40:13Z</time>
      </trkpt>
      <trkpt lat="43.2777000" lon="-2.9734700">
        <ele>14.2</ele>
        <time>2018-09-04T06:40:14Z</time>
      </trkpt>
      <trkpt lat="43.2776030" lon="-2.9735220">
        <ele>14.8</ele>
        <time>2018-09-04T06:40:17Z</time>
      </trkpt>
      <trkpt lat="43.2775510" lon="-2.9735450">
        <ele>15.2</ele>
        <time>2018-09-04T06:40:19Z</time>
      </trkpt>
      <trkpt lat="43.2774460" lon="-2.9736410">
        <ele>15.8</ele>
        <time>2018-09-04T06:40:24Z</time>
      </trkpt>
      <trkpt lat="43.2773280" lon="-2.9737540">
        <ele>16.2</ele>
        <time>2018-09-04T06:40:29Z</time>
      </trkpt>
      <trkpt lat="43.2773190" lon="-2.9737930">
        <ele>16.4</ele>
        <time>2018-09-04T06:40:30Z</time>
      </trkpt>
      <trkpt lat="43.2773360" lon="-2.9738660">
        <ele>16.8</ele>
        <time>2018-09-04T06:40:32Z</time>
      </trkpt>
      <trkpt lat="43.2773630" lon="-2.9739590">
        <ele>16.8</ele>
        <time>2018-09-04T06:40:35Z</time>
      </trkpt>
      <trkpt lat="43.2774030" lon="-2.9741190">
        <ele>16.4</ele>
        <time>2018-09-04T06:40:38Z</time>
      </trkpt>
      <trkpt lat="43.2775170" lon="-2.9745000">
        <ele>16.4</ele>
        <time>2018-09-04T06:40:44Z</time>
      </trkpt>
      <trkpt lat="43.2775900" lon="-2.9747740">
        <ele>15.8</ele>
        <time>2018-09-04T06:40:48Z</time>
      </trkpt>
      <trkpt lat="43.2776480" lon="-2.9749680">
        <ele>16.2</ele>
        <time>2018-09-04T06:40:51Z</time>
      </trkpt>
      <trkpt lat="43.2777050" lon="-2.9751500">
        <ele>16.0</ele>
        <time>2018-09-04T06:40:54Z</time>
      </trkpt>
      <trkpt lat="43.2777580" lon="-2.9753050">
        <ele>16.2</ele>
        <time>2018-09-04T06:40:57Z</time>
      </trkpt>
      <trkpt lat="43.2778210" lon="-2.9753650">
        <ele>16.2</ele>
        <time>2018-09-04T06:40:59Z</time>
      </trkpt>
      <trkpt lat="43.2778560" lon="-2.9753770">
        <ele>16.4</ele>
        <time>2018-09-04T06:41:00Z</time>
      </trkpt>
      <trkpt lat="43.2779210" lon="-2.9754210">
        <ele>16.6</ele>
        <time>2018-09-04T06:41:02Z</time>
      </trkpt>
      <trkpt lat="43.2779770" lon="-2.9755130">
        <ele>16.2</ele>
        <time>2018-09-04T06:41:04Z</time>
      </trkpt>
      <trkpt lat="43.2780050" lon="-2.9757060">
        <ele>16.2</ele>
        <time>2018-09-04T06:41:07Z</time>
      </trkpt>
      <trkpt lat="43.2779460" lon="-2.9758870">
        <ele>16.4</ele>
        <time>2018-09-04T06:41:10Z</time>
      </trkpt>
      <trkpt lat="43.2779270" lon="-2.9759390">
        <ele>16.6</ele>
        <time>2018-09-04T06:41:11Z</time>
      </trkpt>
      <trkpt lat="43.2779480" lon="-2.9760790">
        <ele>17.4</ele>
        <time>2018-09-04T06:41:14Z</time>
      </trkpt>
      <trkpt lat="43.2779780" lon="-2.9761800">
        <ele>17.8</ele>
        <time>2018-09-04T06:41:16Z</time>
      </trkpt>
      <trkpt lat="43.2780350" lon="-2.9763740">
        <ele>18.4</ele>
        <time>2018-09-04T06:41:20Z</time>
      </trkpt>
      <trkpt lat="43.2780450" lon="-2.9764110">
        <ele>18.6</ele>
        <time>2018-09-04T06:41:21Z</time>
      </trkpt>
      <trkpt lat="43.2781230" lon="-2.9766380">
        <ele>19.4</ele>
        <time>2018-09-04T06:41:26Z</time>
      </trkpt>
      <trkpt lat="43.2782080" lon="-2.9768830">
        <ele>20.2</ele>
        <time>2018-09-04T06:41:31Z</time>
      </trkpt>
      <trkpt lat="43.2782420" lon="-2.9769870">
        <ele>20.4</ele>
        <time>2018-09-04T06:41:33Z</time>
      </trkpt>
      <trkpt lat="43.2782580" lon="-2.9770390">
        <ele>20.4</ele>
        <time>2018-09-04T06:41:34Z</time>
      </trkpt>
      <trkpt lat="43.2783230" lon="-2.9772310">
        <ele>20.4</ele>
        <time>2018-09-04T06:41:38Z</time>
      </trkpt>
      <trkpt lat="43.2783480" lon="-2.9773180">
        <ele>20.2</ele>
        <time>2018-09-04T06:41:40Z</time>
      </trkpt>
      <trkpt lat="43.2784170" lon="-2.9775600">
        <ele>20.8</ele>
        <time>2018-09-04T06:41:45Z</time>
      </trkpt>
      <trkpt lat="43.2784980" lon="-2.9776710">
        <ele>20.2</ele>
        <time>2018-09-04T06:41:49Z</time>
      </trkpt>
      <trkpt lat="43.2785510" lon="-2.9777000">
        <ele>20.0</ele>
        <time>2018-09-04T06:41:51Z</time>
      </trkpt>
      <trkpt lat="43.2785570" lon="-2.9777610">
        <ele>19.8</ele>
        <time>2018-09-04T06:41:53Z</time>
      </trkpt>
      <trkpt lat="43.2785240" lon="-2.9778450">
        <ele>20.4</ele>
        <time>2018-09-04T06:41:57Z</time>
      </trkpt>
      <trkpt lat="43.2785610" lon="-2.9779480">
        <ele>20.8</ele>
        <time>2018-09-04T06:42:00Z</time>
      </trkpt>
      <trkpt lat="43.2785740" lon="-2.9779880">
        <ele>20.8</ele>
        <time>2018-09-04T06:42:01Z</time>
      </trkpt>
      <trkpt lat="43.2785880" lon="-2.9780260">
        <ele>21.0</ele>
        <time>2018-09-04T06:42:02Z</time>
      </trkpt>
      <trkpt lat="43.2786480" lon="-2.9782290">
        <ele>21.6</ele>
        <time>2018-09-04T06:42:07Z</time>
      </trkpt>
      <trkpt lat="43.2787000" lon="-2.9783350">
        <ele>22.4</ele>
        <time>2018-09-04T06:42:10Z</time>
      </trkpt>
      <trkpt lat="43.2787430" lon="-2.9784050">
        <ele>22.6</ele>
        <time>2018-09-04T06:42:12Z</time>
      </trkpt>
      <trkpt lat="43.2788150" lon="-2.9784890">
        <ele>23.2</ele>
        <time>2018-09-04T06:42:15Z</time>
      </trkpt>
      <trkpt lat="43.2788660" lon="-2.9785310">
        <ele>23.4</ele>
        <time>2018-09-04T06:42:17Z</time>
      </trkpt>
      <trkpt lat="43.2789220" lon="-2.9785600">
        <ele>23.6</ele>
        <time>2018-09-04T06:42:19Z</time>
      </trkpt>
      <trkpt lat="43.2790380" lon="-2.9785900">
        <ele>24.2</ele>
        <time>2018-09-04T06:42:23Z</time>
      </trkpt>
      <trkpt lat="43.2791370" lon="-2.9785890">
        <ele>24.4</ele>
        <time>2018-09-04T06:42:28Z</time>
      </trkpt>
      <trkpt lat="43.2791550" lon="-2.9785880">
        <ele>24.4</ele>
        <time>2018-09-04T06:42:29Z</time>
      </trkpt>
      <trkpt lat="43.2791910" lon="-2.9785890">
        <ele>24.4</ele>
        <time>2018-09-04T06:42:32Z</time>
      </trkpt>
      <trkpt lat="43.2792140" lon="-2.9785870">
        <ele>24.4</ele>
        <time>2018-09-04T06:42:34Z</time>
      </trkpt>
      <trkpt lat="43.2792250" lon="-2.9785280">
        <ele>24.0</ele>
        <time>2018-09-04T06:42:36Z</time>
      </trkpt>
      <trkpt lat="43.2792210" lon="-2.9784750">
        <ele>24.0</ele>
        <time>2018-09-04T06:42:37Z</time>
      </trkpt>
      <trkpt lat="43.2792440" lon="-2.9783430">
        <ele>23.2</ele>
        <time>2018-09-04T06:42:40Z</time>
      </trkpt>
      <trkpt lat="43.2792530" lon="-2.9783010">
        <ele>23.0</ele>
        <time>2018-09-04T06:42:41Z</time>
      </trkpt>
      <trkpt lat="43.2792710" lon="-2.9782580">
        <ele>23.0</ele>
        <time>2018-09-04T06:42:42Z</time>
      </trkpt>
      <trkpt lat="43.2793420" lon="-2.9781880">
        <ele>22.8</ele>
        <time>2018-09-04T06:42:44Z</time>
      </trkpt>
      <trkpt lat="43.2793870" lon="-2.9781610">
        <ele>22.6</ele>
        <time>2018-09-04T06:42:45Z</time>
      </trkpt>
      <trkpt lat="43.2794320" lon="-2.9781360">
        <ele>22.4</ele>
        <time>2018-09-04T06:42:46Z</time>
      </trkpt>
      <trkpt lat="43.2794800" lon="-2.9781020">
        <ele>22.2</ele>
        <time>2018-09-04T06:42:47Z</time>
      </trkpt>
      <trkpt lat="43.2795550" lon="-2.9781110">
        <ele>22.2</ele>
        <time>2018-09-04T06:42:49Z</time>
      </trkpt>
      <trkpt lat="43.2796000" lon="-2.9782510">
        <ele>21.8</ele>
        <time>2018-09-04T06:42:52Z</time>
      </trkpt>
      <trkpt lat="43.2796090" lon="-2.9783160">
        <ele>22.2</ele>
        <time>2018-09-04T06:42:53Z</time>
      </trkpt>
      <trkpt lat="43.2796130" lon="-2.9783750">
        <ele>22.6</ele>
        <time>2018-09-04T06:42:54Z</time>
      </trkpt>
      <trkpt lat="43.2796230" lon="-2.9784660">
        <ele>23.8</ele>
        <time>2018-09-04T06:42:56Z</time>
      </trkpt>
      <trkpt lat="43.2796400" lon="-2.9784820">
        <ele>24.2</ele>
        <time>2018-09-04T06:42:57Z</time>
      </trkpt>
      <trkpt lat="43.2797360" lon="-2.9784730">
        <ele>24.6</ele>
        <time>2018-09-04T06:43:00Z</time>
      </trkpt>
      <trkpt lat="43.2800250" lon="-2.9783800">
        <ele>24.4</ele>
        <time>2018-09-04T06:43:06Z</time>
      </trkpt>
      <trkpt lat="43.2801800" lon="-2.9783220">
        <ele>23.8</ele>
        <time>2018-09-04T06:43:09Z</time>
      </trkpt>
      <trkpt lat="43.2803350" lon="-2.9782690">
        <ele>23.0</ele>
        <time>2018-09-04T06:43:12Z</time>
      </trkpt>
      <trkpt lat="43.2803870" lon="-2.9782530">
        <ele>22.8</ele>
        <time>2018-09-04T06:43:13Z</time>
      </trkpt>
      <trkpt lat="43.2804440" lon="-2.9782390">
        <ele>22.6</ele>
        <time>2018-09-04T06:43:14Z</time>
      </trkpt>
      <trkpt lat="43.2806020" lon="-2.9781750">
        <ele>22.4</ele>
        <time>2018-09-04T06:43:17Z</time>
      </trkpt>
      <trkpt lat="43.2806540" lon="-2.9781530">
        <ele>22.2</ele>
        <time>2018-09-04T06:43:18Z</time>
      </trkpt>
      <trkpt lat="43.2808160" lon="-2.9780960">
        <ele>21.8</ele>
        <time>2018-09-04T06:43:21Z</time>
      </trkpt>
      <trkpt lat="43.2810600" lon="-2.9780100">
        <ele>22.2</ele>
        <time>2018-09-04T06:43:25Z</time>
      </trkpt>
      <trkpt lat="43.2812530" lon="-2.9779430">
        <ele>21.4</ele>
        <time>2018-09-04T06:43:28Z</time>
      </trkpt>
      <trkpt lat="43.2813840" lon="-2.9779010">
        <ele>21.2</ele>
        <time>2018-09-04T06:43:30Z</time>
      </trkpt>
      <trkpt lat="43.2814490" lon="-2.9778820">
        <ele>20.8</ele>
        <time>2018-09-04T06:43:31Z</time>
      </trkpt>
      <trkpt lat="43.2815130" lon="-2.9778620">
        <ele>20.2</ele>
        <time>2018-09-04T06:43:32Z</time>
      </trkpt>
      <trkpt lat="43.2815780" lon="-2.9778420">
        <ele>19.4</ele>
        <time>2018-09-04T06:43:33Z</time>
      </trkpt>
      <trkpt lat="43.2817690" lon="-2.9777620">
        <ele>19.4</ele>
        <time>2018-09-04T06:43:36Z</time>
      </trkpt>
      <trkpt lat="43.2820770" lon="-2.9776160">
        <ele>19.4</ele>
        <time>2018-09-04T06:43:41Z</time>
      </trkpt>
      <trkpt lat="43.2821360" lon="-2.9775860">
        <ele>18.8</ele>
        <time>2018-09-04T06:43:42Z</time>
      </trkpt>
      <trkpt lat="43.2824900" lon="-2.9774030">
        <ele>19.0</ele>
        <time>2018-09-04T06:43:48Z</time>
      </trkpt>
      <trkpt lat="43.2829220" lon="-2.9771740">
        <ele>18.8</ele>
        <time>2018-09-04T06:43:55Z</time>
      </trkpt>
      <trkpt lat="43.2833650" lon="-2.9769680">
        <ele>18.8</ele>
        <time>2018-09-04T06:44:02Z</time>
      </trkpt>
      <trkpt lat="43.2835600" lon="-2.9768720">
        <ele>18.4</ele>
        <time>2018-09-04T06:44:05Z</time>
      </trkpt>
      <trkpt lat="43.2838210" lon="-2.9767250">
        <ele>18.6</ele>
        <time>2018-09-04T06:44:09Z</time>
      </trkpt>
      <trkpt lat="43.2838840" lon="-2.9766920">
        <ele>18.4</ele>
        <time>2018-09-04T06:44:10Z</time>
      </trkpt>
      <trkpt lat="43.2843250" lon="-2.9764550">
        <ele>18.4</ele>
        <time>2018-09-04T06:44:17Z</time>
      </trkpt>
      <trkpt lat="43.2848380" lon="-2.9762200">
        <ele>18.2</ele>
        <time>2018-09-04T06:44:25Z</time>
      </trkpt>
      <trkpt lat="43.2849700" lon="-2.9761650">
        <ele>18.2</ele>
        <time>2018-09-04T06:44:27Z</time>
      </trkpt>
      <trkpt lat="43.2852480" lon="-2.9760930">
        <ele>17.8</ele>
        <time>2018-09-04T06:44:31Z</time>
      </trkpt>
      <trkpt lat="43.2853920" lon="-2.9760580">
        <ele>17.8</ele>
        <time>2018-09-04T06:44:33Z</time>
      </trkpt>
      <trkpt lat="43.2857440" lon="-2.9759680">
        <ele>17.8</ele>
        <time>2018-09-04T06:44:38Z</time>
      </trkpt>
      <trkpt lat="43.2859440" lon="-2.9759250">
        <ele>18.0</ele>
        <time>2018-09-04T06:44:41Z</time>
      </trkpt>
      <trkpt lat="43.2864880" lon="-2.9758070">
        <ele>17.6</ele>
        <time>2018-09-04T06:44:49Z</time>
      </trkpt>
      <trkpt lat="43.2867570" lon="-2.9757610">
        <ele>17.2</ele>
        <time>2018-09-04T06:44:53Z</time>
      </trkpt>
      <trkpt lat="43.2872850" lon="-2.9756620">
        <ele>17.4</ele>
        <time>2018-09-04T06:45:01Z</time>
      </trkpt>
      <trkpt lat="43.2878490" lon="-2.9755840">
        <ele>17.4</ele>
        <time>2018-09-04T06:45:10Z</time>
      </trkpt>
      <trkpt lat="43.2879090" lon="-2.9755770">
        <ele>17.4</ele>
        <time>2018-09-04T06:45:11Z</time>
      </trkpt>
      <trkpt lat="43.2883220" lon="-2.9755510">
        <ele>17.4</ele>
        <time>2018-09-04T06:45:18Z</time>
      </trkpt>
      <trkpt lat="43.2886310" lon="-2.9755580">
        <ele>16.8</ele>
        <time>2018-09-04T06:45:23Z</time>
      </trkpt>
      <trkpt lat="43.2888140" lon="-2.9755750">
        <ele>16.6</ele>
        <time>2018-09-04T06:45:26Z</time>
      </trkpt>
      <trkpt lat="43.2891720" lon="-2.9756020">
        <ele>16.8</ele>
        <time>2018-09-04T06:45:32Z</time>
      </trkpt>
      <trkpt lat="43.2896130" lon="-2.9756370">
        <ele>16.6</ele>
        <time>2018-09-04T06:45:40Z</time>
      </trkpt>
      <trkpt lat="43.2897120" lon="-2.9756330">
        <ele>16.4</ele>
        <time>2018-09-04T06:45:42Z</time>
      </trkpt>
      <trkpt lat="43.2897970" lon="-2.9755830">
        <ele>16.4</ele>
        <time>2018-09-04T06:45:44Z</time>
      </trkpt>
      <trkpt lat="43.2898540" lon="-2.9755280">
        <ele>16.6</ele>
        <time>2018-09-04T06:45:46Z</time>
      </trkpt>
      <trkpt lat="43.2899230" lon="-2.9754940">
        <ele>16.6</ele>
        <time>2018-09-04T06:45:48Z</time>
      </trkpt>
      <trkpt lat="43.2900700" lon="-2.9754730">
        <ele>16.4</ele>
        <time>2018-09-04T06:45:52Z</time>
      </trkpt>
      <trkpt lat="43.2901440" lon="-2.9754070">
        <ele>16.6</ele>
        <time>2018-09-04T06:45:54Z</time>
      </trkpt>
      <trkpt lat="43.2902100" lon="-2.9753430">
        <ele>16.8</ele>
        <time>2018-09-04T06:45:56Z</time>
      </trkpt>
      <trkpt lat="43.2904730" lon="-2.9751040">
        <ele>16.8</ele>
        <time>2018-09-04T06:46:03Z</time>
      </trkpt>
      <trkpt lat="43.2905900" lon="-2.9750200">
        <ele>17.2</ele>
        <time>2018-09-04T06:46:06Z</time>
      </trkpt>
      <trkpt lat="43.2907120" lon="-2.9749720">
        <ele>17.8</ele>
        <time>2018-09-04T06:46:09Z</time>
      </trkpt>
      <trkpt lat="43.2909730" lon="-2.9748600">
        <ele>17.6</ele>
        <time>2018-09-04T06:46:16Z</time>
      </trkpt>
      <trkpt lat="43.2912250" lon="-2.9747670">
        <ele>17.8</ele>
        <time>2018-09-04T06:46:23Z</time>
      </trkpt>
      <trkpt lat="43.2912480" lon="-2.9747950">
        <ele>17.8</ele>
        <time>2018-09-04T06:46:24Z</time>
      </trkpt>
      <trkpt lat="43.2912520" lon="-2.9748300">
        <ele>17.8</ele>
        <time>2018-09-04T06:46:25Z</time>
      </trkpt>
      <trkpt lat="43.2911570" lon="-2.9749020">
        <ele>17.6</ele>
        <time>2018-09-04T06:46:28Z</time>
      </trkpt>
      <trkpt lat="43.2910670" lon="-2.9749490">
        <ele>17.4</ele>
        <time>2018-09-04T06:46:30Z</time>
      </trkpt>
      <trkpt lat="43.2909210" lon="-2.9750260">
        <ele>17.8</ele>
        <time>2018-09-04T06:46:33Z</time>
      </trkpt>
      <trkpt lat="43.2905570" lon="-2.9751850">
        <ele>17.2</ele>
        <time>2018-09-04T06:46:40Z</time>
      </trkpt>
      <trkpt lat="43.2902790" lon="-2.9754260">
        <ele>16.6</ele>
        <time>2018-09-04T06:46:46Z</time>
      </trkpt>
      <trkpt lat="43.2901510" lon="-2.9755440">
        <ele>16.2</ele>
        <time>2018-09-04T06:46:49Z</time>
      </trkpt>
      <trkpt lat="43.2900650" lon="-2.9757040">
        <ele>16.6</ele>
        <time>2018-09-04T06:46:52Z</time>
      </trkpt>
      <trkpt lat="43.2900240" lon="-2.9760210">
        <ele>16.6</ele>
        <time>2018-09-04T06:46:57Z</time>
      </trkpt>
      <trkpt lat="43.2900010" lon="-2.9760830">
        <ele>16.6</ele>
        <time>2018-09-04T06:46:59Z</time>
      </trkpt>
      <trkpt lat="43.2899760" lon="-2.9760820">
        <ele>16.6</ele>
        <time>2018-09-04T06:47:00Z</time>
      </trkpt>
      <trkpt lat="43.2899260" lon="-2.9760180">
        <ele>16.0</ele>
        <time>2018-09-04T06:47:02Z</time>
      </trkpt>
      <trkpt lat="43.2899070" lon="-2.9759730">
        <ele>15.8</ele>
        <time>2018-09-04T06:47:03Z</time>
      </trkpt>
      <trkpt lat="43.2898680" lon="-2.9758730">
        <ele>15.8</ele>
        <time>2018-09-04T06:47:05Z</time>
      </trkpt>
      <trkpt lat="43.2898200" lon="-2.9757800">
        <ele>15.8</ele>
        <time>2018-09-04T06:47:07Z</time>
      </trkpt>
      <trkpt lat="43.2897870" lon="-2.9757490">
        <ele>16.0</ele>
        <time>2018-09-04T06:47:08Z</time>
      </trkpt>
      <trkpt lat="43.2897490" lon="-2.9757360">
        <ele>16.0</ele>
        <time>2018-09-04T06:47:09Z</time>
      </trkpt>
      <trkpt lat="43.2896170" lon="-2.9757190">
        <ele>16.0</ele>
        <time>2018-09-04T06:47:12Z</time>
      </trkpt>
      <trkpt lat="43.2894730" lon="-2.9757040">
        <ele>16.0</ele>
        <time>2018-09-04T06:47:15Z</time>
      </trkpt>
      <trkpt lat="43.2893430" lon="-2.9756950">
        <ele>15.6</ele>
        <time>2018-09-04T06:47:18Z</time>
      </trkpt>
      <trkpt lat="43.2892980" lon="-2.9756940">
        <ele>15.6</ele>
        <time>2018-09-04T06:47:19Z</time>
      </trkpt>
      <trkpt lat="43.2891670" lon="-2.9757580">
        <ele>16.4</ele>
        <time>2018-09-04T06:47:23Z</time>
      </trkpt>
      <trkpt lat="43.2891540" lon="-2.9757950">
        <ele>16.8</ele>
        <time>2018-09-04T06:47:24Z</time>
      </trkpt>
      <trkpt lat="43.2891510" lon="-2.9759160">
        <ele>17.4</ele>
        <time>2018-09-04T06:47:27Z</time>
      </trkpt>
      <trkpt lat="43.2891570" lon="-2.9760440">
        <ele>17.8</ele>
        <time>2018-09-04T06:47:30Z</time>
      </trkpt>
      <trkpt lat="43.2891550" lon="-2.9760870">
        <ele>18.0</ele>
        <time>2018-09-04T06:47:31Z</time>
      </trkpt>
      <trkpt lat="43.2891520" lon="-2.9761670">
        <ele>18.4</ele>
        <time>2018-09-04T06:47:33Z</time>
      </trkpt>
      <trkpt lat="43.2891420" lon="-2.9763320">
        <ele>18.8</ele>
        <time>2018-09-04T06:47:37Z</time>
      </trkpt>
      <trkpt lat="43.2891320" lon="-2.9764960">
        <ele>19.8</ele>
        <time>2018-09-04T06:47:41Z</time>
      </trkpt>
      <trkpt lat="43.2891300" lon="-2.9765380">
        <ele>20.0</ele>
        <time>2018-09-04T06:47:42Z</time>
      </trkpt>
      <trkpt lat="43.2891240" lon="-2.9766650">
        <ele>20.4</ele>
        <time>2018-09-04T06:47:45Z</time>
      </trkpt>
      <trkpt lat="43.2891210" lon="-2.9767950">
        <ele>20.8</ele>
        <time>2018-09-04T06:47:48Z</time>
      </trkpt>
      <trkpt lat="43.2891280" lon="-2.9768830">
        <ele>21.0</ele>
        <time>2018-09-04T06:47:50Z</time>
      </trkpt>
      <trkpt lat="43.2891470" lon="-2.9769540">
        <ele>21.4</ele>
        <time>2018-09-04T06:47:52Z</time>
      </trkpt>
      <trkpt lat="43.2892240" lon="-2.9769510">
        <ele>21.8</ele>
        <time>2018-09-04T06:47:56Z</time>
      </trkpt>
      <trkpt lat="43.2892280" lon="-2.9768080">
        <ele>21.6</ele>
        <time>2018-09-04T06:47:59Z</time>
      </trkpt>
      <trkpt lat="43.2892290" lon="-2.9767560">
        <ele>21.4</ele>
        <time>2018-09-04T06:48:00Z</time>
      </trkpt>
      <trkpt lat="43.2892660" lon="-2.9762760">
        <ele>21.6</ele>
        <time>2018-09-04T06:48:09Z</time>
      </trkpt>
      <trkpt lat="43.2892860" lon="-2.9761210">
        <ele>21.8</ele>
        <time>2018-09-04T06:48:12Z</time>
      </trkpt>
      <trkpt lat="43.2892860" lon="-2.9760660">
        <ele>22.2</ele>
        <time>2018-09-04T06:48:13Z</time>
      </trkpt>
      <trkpt lat="43.2892850" lon="-2.9760100">
        <ele>22.2</ele>
        <time>2018-09-04T06:48:14Z</time>
      </trkpt>
      <trkpt lat="43.2892960" lon="-2.9755730">
        <ele>23.0</ele>
        <time>2018-09-04T06:48:22Z</time>
      </trkpt>
      <trkpt lat="43.2893660" lon="-2.9751840">
        <ele>23.0</ele>
        <time>2018-09-04T06:48:29Z</time>
      </trkpt>
      <trkpt lat="43.2895160" lon="-2.9747740">
        <ele>22.6</ele>
        <time>2018-09-04T06:48:36Z</time>
      </trkpt>
      <trkpt lat="43.2896140" lon="-2.9746150">
        <ele>22.4</ele>
        <time>2018-09-04T06:48:39Z</time>
      </trkpt>
      <trkpt lat="43.2897020" lon="-2.9745110">
        <ele>21.8</ele>
        <time>2018-09-04T06:48:41Z</time>
      </trkpt>
      <trkpt lat="43.2898430" lon="-2.9743720">
        <ele>21.4</ele>
        <time>2018-09-04T06:48:44Z</time>
      </trkpt>
      <trkpt lat="43.2900480" lon="-2.9742400">
        <ele>20.8</ele>
        <time>2018-09-04T06:48:48Z</time>
      </trkpt>
      <trkpt lat="43.2904740" lon="-2.9741010">
        <ele>20.4</ele>
        <time>2018-09-04T06:48:55Z</time>
      </trkpt>
      <trkpt lat="43.2908020" lon="-2.9739870">
        <ele>19.8</ele>
        <time>2018-09-04T06:49:00Z</time>
      </trkpt>
      <trkpt lat="43.2909960" lon="-2.9739260">
        <ele>19.2</ele>
        <time>2018-09-04T06:49:03Z</time>
      </trkpt>
      <trkpt lat="43.2911250" lon="-2.9738890">
        <ele>18.6</ele>
        <time>2018-09-04T06:49:05Z</time>
      </trkpt>
      <trkpt lat="43.2913830" lon="-2.9738010">
        <ele>18.6</ele>
        <time>2018-09-04T06:49:09Z</time>
      </trkpt>
      <trkpt lat="43.2916440" lon="-2.9737130">
        <ele>17.8</ele>
        <time>2018-09-04T06:49:13Z</time>
      </trkpt>
      <trkpt lat="43.2917730" lon="-2.9736710">
        <ele>17.6</ele>
        <time>2018-09-04T06:49:15Z</time>
      </trkpt>
      <trkpt lat="43.2919720" lon="-2.9736240">
        <ele>16.4</ele>
        <time>2018-09-04T06:49:18Z</time>
      </trkpt>
      <trkpt lat="43.2920430" lon="-2.9736170">
        <ele>16.2</ele>
        <time>2018-09-04T06:49:19Z</time>
      </trkpt>
      <trkpt lat="43.2921100" lon="-2.9736210">
        <ele>15.8</ele>
        <time>2018-09-04T06:49:20Z</time>
      </trkpt>
      <trkpt lat="43.2924860" lon="-2.9737160">
        <ele>16.0</ele>
        <time>2018-09-04T06:49:26Z</time>
      </trkpt>
      <trkpt lat="43.2928140" lon="-2.9738960">
        <ele>16.2</ele>
        <time>2018-09-04T06:49:32Z</time>
      </trkpt>
      <trkpt lat="43.2931640" lon="-2.9740730">
        <ele>15.8</ele>
        <time>2018-09-04T06:49:38Z</time>
      </trkpt>
      <trkpt lat="43.2932800" lon="-2.9741440">
        <ele>15.8</ele>
        <time>2018-09-04T06:49:40Z</time>
      </trkpt>
      <trkpt lat="43.2936210" lon="-2.9743380">
        <ele>15.8</ele>
        <time>2018-09-04T06:49:46Z</time>
      </trkpt>
      <trkpt lat="43.2936740" lon="-2.9743780">
        <ele>15.8</ele>
        <time>2018-09-04T06:49:47Z</time>
      </trkpt>
      <trkpt lat="43.2938840" lon="-2.9745630">
        <ele>15.8</ele>
        <time>2018-09-04T06:49:51Z</time>
      </trkpt>
      <trkpt lat="43.2939360" lon="-2.9746100">
        <ele>15.8</ele>
        <time>2018-09-04T06:49:52Z</time>
      </trkpt>
      <trkpt lat="43.2940420" lon="-2.9747080">
        <ele>15.4</ele>
        <time>2018-09-04T06:49:54Z</time>
      </trkpt>
      <trkpt lat="43.2944790" lon="-2.9750880">
        <ele>15.6</ele>
        <time>2018-09-04T06:50:02Z</time>
      </trkpt>
      <trkpt lat="43.2946480" lon="-2.9751960">
        <ele>15.8</ele>
        <time>2018-09-04T06:50:05Z</time>
      </trkpt>
      <trkpt lat="43.2948210" lon="-2.9752880">
        <ele>15.4</ele>
        <time>2018-09-04T06:50:08Z</time>
      </trkpt>
      <trkpt lat="43.2950330" lon="-2.9754040">
        <ele>16.0</ele>
        <time>2018-09-04T06:50:12Z</time>
      </trkpt>
      <trkpt lat="43.2951190" lon="-2.9754770">
        <ele>16.4</ele>
        <time>2018-09-04T06:50:14Z</time>
      </trkpt>
      <trkpt lat="43.2951590" lon="-2.9755150">
        <ele>16.6</ele>
        <time>2018-09-04T06:50:15Z</time>
      </trkpt>
      <trkpt lat="43.2953520" lon="-2.9757350">
        <ele>16.8</ele>
        <time>2018-09-04T06:50:20Z</time>
      </trkpt>
      <trkpt lat="43.2955260" lon="-2.9759120">
        <ele>16.6</ele>
        <time>2018-09-04T06:50:24Z</time>
      </trkpt>
      <trkpt lat="43.2956090" lon="-2.9760010">
        <ele>16.8</ele>
        <time>2018-09-04T06:50:27Z</time>
      </trkpt>
      <trkpt lat="43.2955590" lon="-2.9760130">
        <ele>16.6</ele>
        <time>2018-09-04T06:50:30Z</time>
      </trkpt>
      <trkpt lat="43.2955190" lon="-2.9759430">
        <ele>16.6</ele>
        <time>2018-09-04T06:50:32Z</time>
      </trkpt>
      <trkpt lat="43.2954650" lon="-2.9758720">
        <ele>16.8</ele>
        <time>2018-09-04T06:50:34Z</time>
      </trkpt>
      <trkpt lat="43.2953860" lon="-2.9757820">
        <ele>16.4</ele>
        <time>2018-09-04T06:50:37Z</time>
      </trkpt>
      <trkpt lat="43.2953250" lon="-2.9757040">
        <ele>15.8</ele>
        <time>2018-09-04T06:50:39Z</time>
      </trkpt>
      <trkpt lat="43.2952180" lon="-2.9755880">
        <ele>16.0</ele>
        <time>2018-09-04T06:50:42Z</time>
      </trkpt>
      <trkpt lat="43.2951020" lon="-2.9754900">
        <ele>16.8</ele>
        <time>2018-09-04T06:50:45Z</time>
      </trkpt>
      <trkpt lat="43.2949980" lon="-2.9753410">
        <ele>16.4</ele>
        <time>2018-09-04T06:50:49Z</time>
      </trkpt>
      <trkpt lat="43.2950190" lon="-2.9751900">
        <ele>15.4</ele>
        <time>2018-09-04T06:50:52Z</time>
      </trkpt>
      <trkpt lat="43.2950310" lon="-2.9751410">
        <ele>15.4</ele>
        <time>2018-09-04T06:50:53Z</time>
      </trkpt>
      <trkpt lat="43.2950810" lon="-2.9749820">
        <ele>15.8</ele>
        <time>2018-09-04T06:50:57Z</time>
      </trkpt>
      <trkpt lat="43.2951190" lon="-2.9749920">
        <ele>15.8</ele>
        <time>2018-09-04T06:50:58Z</time>
      </trkpt>
      <trkpt lat="43.2952280" lon="-2.9750980">
        <ele>15.8</ele>
        <time>2018-09-04T06:51:01Z</time>
      </trkpt>
      <trkpt lat="43.2953220" lon="-2.9751520">
        <ele>15.8</ele>
        <time>2018-09-04T06:51:03Z</time>
      </trkpt>
      <trkpt lat="43.2954500" lon="-2.9752120">
        <ele>16.0</ele>
        <time>2018-09-04T06:51:06Z</time>
      </trkpt>
      <trkpt lat="43.2957460" lon="-2.9754190">
        <ele>15.6</ele>
        <time>2018-09-04T06:51:13Z</time>
      </trkpt>
      <trkpt lat="43.2958230" lon="-2.9754840">
        <ele>15.6</ele>
        <time>2018-09-04T06:51:15Z</time>
      </trkpt>
      <trkpt lat="43.2958590" lon="-2.9755190">
        <ele>15.6</ele>
        <time>2018-09-04T06:51:16Z</time>
      </trkpt>
      <trkpt lat="43.2959790" lon="-2.9756170">
        <ele>15.4</ele>
        <time>2018-09-04T06:51:19Z</time>
      </trkpt>
      <trkpt lat="43.2961520" lon="-2.9757440">
        <ele>15.2</ele>
        <time>2018-09-04T06:51:23Z</time>
      </trkpt>
      <trkpt lat="43.2963270" lon="-2.9758760">
        <ele>15.2</ele>
        <time>2018-09-04T06:51:27Z</time>
      </trkpt>
      <trkpt lat="43.2964360" lon="-2.9759960">
        <ele>15.4</ele>
        <time>2018-09-04T06:51:30Z</time>
      </trkpt>
      <trkpt lat="43.2964530" lon="-2.9760520">
        <ele>15.4</ele>
        <time>2018-09-04T06:51:31Z</time>
      </trkpt>
      <trkpt lat="43.2964310" lon="-2.9762310">
        <ele>15.6</ele>
        <time>2018-09-04T06:51:34Z</time>
      </trkpt>
      <trkpt lat="43.2965150" lon="-2.9763540">
        <ele>15.8</ele>
        <time>2018-09-04T06:51:37Z</time>
      </trkpt>
      <trkpt lat="43.2966070" lon="-2.9763900">
        <ele>15.6</ele>
        <time>2018-09-04T06:51:39Z</time>
      </trkpt>
      <trkpt lat="43.2966960" lon="-2.9763590">
        <ele>15.6</ele>
        <time>2018-09-04T06:51:41Z</time>
      </trkpt>
      <trkpt lat="43.2967900" lon="-2.9762490">
        <ele>15.4</ele>
        <time>2018-09-04T06:51:44Z</time>
      </trkpt>
      <trkpt lat="43.2969230" lon="-2.9763170">
        <ele>15.4</ele>
        <time>2018-09-04T06:51:47Z</time>
      </trkpt>
      <trkpt lat="43.2970520" lon="-2.9764230">
        <ele>15.4</ele>
        <time>2018-09-04T06:51:50Z</time>
      </trkpt>
      <trkpt lat="43.2973310" lon="-2.9766190">
        <ele>15.6</ele>
        <time>2018-09-04T06:51:56Z</time>
      </trkpt>
      <trkpt lat="43.2975730" lon="-2.9767860">
        <ele>15.6</ele>
        <time>2018-09-04T06:52:01Z</time>
      </trkpt>
      <trkpt lat="43.2977750" lon="-2.9769140">
        <ele>15.6</ele>
        <time>2018-09-04T06:52:05Z</time>
      </trkpt>
      <trkpt lat="43.2981180" lon="-2.9771240">
        <ele>15.4</ele>
        <time>2018-09-04T06:52:12Z</time>
      </trkpt>
      <trkpt lat="43.2984150" lon="-2.9772920">
        <ele>15.4</ele>
        <time>2018-09-04T06:52:18Z</time>
      </trkpt>
      <trkpt lat="43.2987680" lon="-2.9774890">
        <ele>15.6</ele>
        <time>2018-09-04T06:52:25Z</time>
      </trkpt>
      <trkpt lat="43.2988610" lon="-2.9775500">
        <ele>15.6</ele>
        <time>2018-09-04T06:52:27Z</time>
      </trkpt>
      <trkpt lat="43.2989310" lon="-2.9776360">
        <ele>16.0</ele>
        <time>2018-09-04T06:52:29Z</time>
      </trkpt>
      <trkpt lat="43.2989420" lon="-2.9776940">
        <ele>16.0</ele>
        <time>2018-09-04T06:52:30Z</time>
      </trkpt>
      <trkpt lat="43.2989030" lon="-2.9778750">
        <ele>16.0</ele>
        <time>2018-09-04T06:52:33Z</time>
      </trkpt>
      <trkpt lat="43.2988500" lon="-2.9780660">
        <ele>16.0</ele>
        <time>2018-09-04T06:52:36Z</time>
      </trkpt>
      <trkpt lat="43.2987550" lon="-2.9783720">
        <ele>16.0</ele>
        <time>2018-09-04T06:52:41Z</time>
      </trkpt>
      <trkpt lat="43.2987380" lon="-2.9784330">
        <ele>16.0</ele>
        <time>2018-09-04T06:52:42Z</time>
      </trkpt>
      <trkpt lat="43.2986370" lon="-2.9787990">
        <ele>15.8</ele>
        <time>2018-09-04T06:52:48Z</time>
      </trkpt>
      <trkpt lat="43.2985810" lon="-2.9790370">
        <ele>15.6</ele>
        <time>2018-09-04T06:52:52Z</time>
      </trkpt>
      <trkpt lat="43.2985900" lon="-2.9791600">
        <ele>15.6</ele>
        <time>2018-09-04T06:52:54Z</time>
      </trkpt>
      <trkpt lat="43.2987040" lon="-2.9793390">
        <ele>15.4</ele>
        <time>2018-09-04T06:52:58Z</time>
      </trkpt>
      <trkpt lat="43.2987940" lon="-2.9793760">
        <ele>15.2</ele>
        <time>2018-09-04T06:53:00Z</time>
      </trkpt>
      <trkpt lat="43.2990240" lon="-2.9794920">
        <ele>15.0</ele>
        <time>2018-09-04T06:53:05Z</time>
      </trkpt>
      <trkpt lat="43.2994430" lon="-2.9797200">
        <ele>14.8</ele>
        <time>2018-09-04T06:53:14Z</time>
      </trkpt>
      <trkpt lat="43.2997870" lon="-2.9799140">
        <ele>14.4</ele>
        <time>2018-09-04T06:53:21Z</time>
      </trkpt>
      <trkpt lat="43.2999360" lon="-2.9799970">
        <ele>14.0</ele>
        <time>2018-09-04T06:53:24Z</time>
      </trkpt>
      <trkpt lat="43.3001330" lon="-2.9801080">
        <ele>14.2</ele>
        <time>2018-09-04T06:53:28Z</time>
      </trkpt>
      <trkpt lat="43.3002790" lon="-2.9801900">
        <ele>14.6</ele>
        <time>2018-09-04T06:53:31Z</time>
      </trkpt>
      <trkpt lat="43.3007170" lon="-2.9804570">
        <ele>14.6</ele>
        <time>2018-09-04T06:53:40Z</time>
      </trkpt>
      <trkpt lat="43.3010170" lon="-2.9805970">
        <ele>14.4</ele>
        <time>2018-09-04T06:53:46Z</time>
      </trkpt>
      <trkpt lat="43.3010600" lon="-2.9805830">
        <ele>14.4</ele>
        <time>2018-09-04T06:53:47Z</time>
      </trkpt>
      <trkpt lat="43.3011610" lon="-2.9804460">
        <ele>14.2</ele>
        <time>2018-09-04T06:53:50Z</time>
      </trkpt>
      <trkpt lat="43.3011860" lon="-2.9803880">
        <ele>13.8</ele>
        <time>2018-09-04T06:53:51Z</time>
      </trkpt>
      <trkpt lat="43.3012420" lon="-2.9802710">
        <ele>13.4</ele>
        <time>2018-09-04T06:53:53Z</time>
      </trkpt>
      <trkpt lat="43.3012920" lon="-2.9801610">
        <ele>13.4</ele>
        <time>2018-09-04T06:53:55Z</time>
      </trkpt>
      <trkpt lat="43.3013150" lon="-2.9801090">
        <ele>13.4</ele>
        <time>2018-09-04T06:53:56Z</time>
      </trkpt>
      <trkpt lat="43.3013640" lon="-2.9799930">
        <ele>13.6</ele>
        <time>2018-09-04T06:53:58Z</time>
      </trkpt>
      <trkpt lat="43.3014290" lon="-2.9798820">
        <ele>13.8</ele>
        <time>2018-09-04T06:54:00Z</time>
      </trkpt>
      <trkpt lat="43.3014720" lon="-2.9798500">
        <ele>13.8</ele>
        <time>2018-09-04T06:54:01Z</time>
      </trkpt>
      <trkpt lat="43.3016130" lon="-2.9798680">
        <ele>14.4</ele>
        <time>2018-09-04T06:54:04Z</time>
      </trkpt>
      <trkpt lat="43.3016650" lon="-2.9798940">
        <ele>14.6</ele>
        <time>2018-09-04T06:54:05Z</time>
      </trkpt>
      <trkpt lat="43.3017180" lon="-2.9799190">
        <ele>14.6</ele>
        <time>2018-09-04T06:54:06Z</time>
      </trkpt>
      <trkpt lat="43.3018850" lon="-2.9800050">
        <ele>14.6</ele>
        <time>2018-09-04T06:54:09Z</time>
      </trkpt>
      <trkpt lat="43.3020570" lon="-2.9800880">
        <ele>14.2</ele>
        <time>2018-09-04T06:54:12Z</time>
      </trkpt>
      <trkpt lat="43.3023900" lon="-2.9802570">
        <ele>14.4</ele>
        <time>2018-09-04T06:54:18Z</time>
      </trkpt>
      <trkpt lat="43.3024710" lon="-2.9803230">
        <ele>14.4</ele>
        <time>2018-09-04T06:54:20Z</time>
      </trkpt>
      <trkpt lat="43.3025370" lon="-2.9804140">
        <ele>14.6</ele>
        <time>2018-09-04T06:54:22Z</time>
      </trkpt>
      <trkpt lat="43.3026240" lon="-2.9805910">
        <ele>14.8</ele>
        <time>2018-09-04T06:54:25Z</time>
      </trkpt>
      <trkpt lat="43.3026690" lon="-2.9807210">
        <ele>14.8</ele>
        <time>2018-09-04T06:54:27Z</time>
      </trkpt>
      <trkpt lat="43.3027520" lon="-2.9810700">
        <ele>14.8</ele>
        <time>2018-09-04T06:54:32Z</time>
      </trkpt>
      <trkpt lat="43.3029090" lon="-2.9816030">
        <ele>15.0</ele>
        <time>2018-09-04T06:54:40Z</time>
      </trkpt>
      <trkpt lat="43.3029250" lon="-2.9816700">
        <ele>14.8</ele>
        <time>2018-09-04T06:54:41Z</time>
      </trkpt>
      <trkpt lat="43.3029530" lon="-2.9818020">
        <ele>15.0</ele>
        <time>2018-09-04T06:54:43Z</time>
      </trkpt>
      <trkpt lat="43.3029770" lon="-2.9819170">
        <ele>15.8</ele>
        <time>2018-09-04T06:54:45Z</time>
      </trkpt>
      <trkpt lat="43.3029860" lon="-2.9819780">
        <ele>16.0</ele>
        <time>2018-09-04T06:54:46Z</time>
      </trkpt>
      <trkpt lat="43.3029980" lon="-2.9822230">
        <ele>16.4</ele>
        <time>2018-09-04T06:54:50Z</time>
      </trkpt>
      <trkpt lat="43.3029940" lon="-2.9822630">
        <ele>16.4</ele>
        <time>2018-09-04T06:54:51Z</time>
      </trkpt>
      <trkpt lat="43.3029880" lon="-2.9823070">
        <ele>17.4</ele>
        <time>2018-09-04T06:54:53Z</time>
      </trkpt>
      <trkpt lat="43.3029940" lon="-2.9823280">
        <ele>17.6</ele>
        <time>2018-09-04T06:54:54Z</time>
      </trkpt>
      <trkpt lat="43.3030550" lon="-2.9823910">
        <ele>17.8</ele>
        <time>2018-09-04T06:54:57Z</time>
      </trkpt>
      <trkpt lat="43.3030810" lon="-2.9824080">
        <ele>17.6</ele>
        <time>2018-09-04T06:54:58Z</time>
      </trkpt>
      <trkpt lat="43.3032140" lon="-2.9825620">
        <ele>17.2</ele>
        <time>2018-09-04T06:55:03Z</time>
      </trkpt>
      <trkpt lat="43.3032760" lon="-2.9826450">
        <ele>16.8</ele>
        <time>2018-09-04T06:55:05Z</time>
      </trkpt>
      <trkpt lat="43.3033100" lon="-2.9827540">
        <ele>16.4</ele>
        <time>2018-09-04T06:55:07Z</time>
      </trkpt>
      <trkpt lat="43.3033200" lon="-2.9828720">
        <ele>16.8</ele>
        <time>2018-09-04T06:55:09Z</time>
      </trkpt>
      <trkpt lat="43.3033270" lon="-2.9829930">
        <ele>16.8</ele>
        <time>2018-09-04T06:55:11Z</time>
      </trkpt>
      <trkpt lat="43.3034330" lon="-2.9831410">
        <ele>16.6</ele>
        <time>2018-09-04T06:55:14Z</time>
      </trkpt>
      <trkpt lat="43.3035110" lon="-2.9832600">
        <ele>16.4</ele>
        <time>2018-09-04T06:55:16Z</time>
      </trkpt>
      <trkpt lat="43.3035450" lon="-2.9833280">
        <ele>16.0</ele>
        <time>2018-09-04T06:55:17Z</time>
      </trkpt>
      <trkpt lat="43.3036020" lon="-2.9834500">
        <ele>15.6</ele>
        <time>2018-09-04T06:55:19Z</time>
      </trkpt>
      <trkpt lat="43.3036430" lon="-2.9835630">
        <ele>15.6</ele>
        <time>2018-09-04T06:55:21Z</time>
      </trkpt>
      <trkpt lat="43.3036810" lon="-2.9836850">
        <ele>15.4</ele>
        <time>2018-09-04T06:55:23Z</time>
      </trkpt>
      <trkpt lat="43.3037210" lon="-2.9838140">
        <ele>15.2</ele>
        <time>2018-09-04T06:55:25Z</time>
      </trkpt>
      <trkpt lat="43.3037840" lon="-2.9840120">
        <ele>15.4</ele>
        <time>2018-09-04T06:55:28Z</time>
      </trkpt>
      <trkpt lat="43.3038500" lon="-2.9842060">
        <ele>15.2</ele>
        <time>2018-09-04T06:55:31Z</time>
      </trkpt>
      <trkpt lat="43.3039130" lon="-2.9844090">
        <ele>15.0</ele>
        <time>2018-09-04T06:55:34Z</time>
      </trkpt>
      <trkpt lat="43.3039510" lon="-2.9845430">
        <ele>15.0</ele>
        <time>2018-09-04T06:55:36Z</time>
      </trkpt>
      <trkpt lat="43.3040280" lon="-2.9848070">
        <ele>15.4</ele>
        <time>2018-09-04T06:55:40Z</time>
      </trkpt>
      <trkpt lat="43.3042210" lon="-2.9854660">
        <ele>15.2</ele>
        <time>2018-09-04T06:55:50Z</time>
      </trkpt>
      <trkpt lat="43.3043790" lon="-2.9860110">
        <ele>15.2</ele>
        <time>2018-09-04T06:55:58Z</time>
      </trkpt>
      <trkpt lat="43.3044580" lon="-2.9862880">
        <ele>15.0</ele>
        <time>2018-09-04T06:56:02Z</time>
      </trkpt>
      <trkpt lat="43.3045540" lon="-2.9866280">
        <ele>15.0</ele>
        <time>2018-09-04T06:56:07Z</time>
      </trkpt>
      <trkpt lat="43.3046780" lon="-2.9870540">
        <ele>15.0</ele>
        <time>2018-09-04T06:56:13Z</time>
      </trkpt>
      <trkpt lat="43.3046990" lon="-2.9871260">
        <ele>15.0</ele>
        <time>2018-09-04T06:56:14Z</time>
      </trkpt>
      <trkpt lat="43.3048920" lon="-2.9877800">
        <ele>15.2</ele>
        <time>2018-09-04T06:56:23Z</time>
      </trkpt>
      <trkpt lat="43.3049800" lon="-2.9883160">
        <ele>14.8</ele>
        <time>2018-09-04T06:56:30Z</time>
      </trkpt>
      <trkpt lat="43.3049800" lon="-2.9885230">
        <ele>15.0</ele>
        <time>2018-09-04T06:56:33Z</time>
      </trkpt>
      <trkpt lat="43.3049730" lon="-2.9886560">
        <ele>15.0</ele>
        <time>2018-09-04T06:56:35Z</time>
      </trkpt>
      <trkpt lat="43.3049680" lon="-2.9887250">
        <ele>15.0</ele>
        <time>2018-09-04T06:56:36Z</time>
      </trkpt>
      <trkpt lat="43.3049410" lon="-2.9890240">
        <ele>14.8</ele>
        <time>2018-09-04T06:56:40Z</time>
      </trkpt>
      <trkpt lat="43.3049180" lon="-2.9891800">
        <ele>14.6</ele>
        <time>2018-09-04T06:56:42Z</time>
      </trkpt>
      <trkpt lat="43.3047960" lon="-2.9895420">
        <ele>14.4</ele>
        <time>2018-09-04T06:56:47Z</time>
      </trkpt>
      <trkpt lat="43.3045870" lon="-2.9899210">
        <ele>14.2</ele>
        <time>2018-09-04T06:56:53Z</time>
      </trkpt>
      <trkpt lat="43.3045440" lon="-2.9899750">
        <ele>14.2</ele>
        <time>2018-09-04T06:56:54Z</time>
      </trkpt>
      <trkpt lat="43.3041490" lon="-2.9904600">
        <ele>14.0</ele>
        <time>2018-09-04T06:57:03Z</time>
      </trkpt>
      <trkpt lat="43.3041050" lon="-2.9905090">
        <ele>14.0</ele>
        <time>2018-09-04T06:57:04Z</time>
      </trkpt>
      <trkpt lat="43.3039740" lon="-2.9906170">
        <ele>14.0</ele>
        <time>2018-09-04T06:57:07Z</time>
      </trkpt>
      <trkpt lat="43.3039240" lon="-2.9905960">
        <ele>14.0</ele>
        <time>2018-09-04T06:57:08Z</time>
      </trkpt>
      <trkpt lat="43.3038270" lon="-2.9905720">
        <ele>14.2</ele>
        <time>2018-09-04T06:57:10Z</time>
      </trkpt>
      <trkpt lat="43.3036870" lon="-2.9906170">
        <ele>14.4</ele>
        <time>2018-09-04T06:57:13Z</time>
      </trkpt>
      <trkpt lat="43.3036460" lon="-2.9906540">
        <ele>14.6</ele>
        <time>2018-09-04T06:57:14Z</time>
      </trkpt>
      <trkpt lat="43.3036050" lon="-2.9906930">
        <ele>15.0</ele>
        <time>2018-09-04T06:57:15Z</time>
      </trkpt>
      <trkpt lat="43.3035650" lon="-2.9907370">
        <ele>15.2</ele>
        <time>2018-09-04T06:57:16Z</time>
      </trkpt>
      <trkpt lat="43.3035250" lon="-2.9907830">
        <ele>15.2</ele>
        <time>2018-09-04T06:57:17Z</time>
      </trkpt>
      <trkpt lat="43.3034830" lon="-2.9908280">
        <ele>15.4</ele>
        <time>2018-09-04T06:57:18Z</time>
      </trkpt>
      <trkpt lat="43.3034430" lon="-2.9908710">
        <ele>15.4</ele>
        <time>2018-09-04T06:57:19Z</time>
      </trkpt>
      <trkpt lat="43.3033580" lon="-2.9909550">
        <ele>15.2</ele>
        <time>2018-09-04T06:57:21Z</time>
      </trkpt>
      <trkpt lat="43.3031630" lon="-2.9912000">
        <ele>15.2</ele>
        <time>2018-09-04T06:57:26Z</time>
      </trkpt>
      <trkpt lat="43.3029270" lon="-2.9916080">
        <ele>15.2</ele>
        <time>2018-09-04T06:57:33Z</time>
      </trkpt>
      <trkpt lat="43.3028020" lon="-2.9919040">
        <ele>15.2</ele>
        <time>2018-09-04T06:57:38Z</time>
      </trkpt>
      <trkpt lat="43.3027680" lon="-2.9919520">
        <ele>15.2</ele>
        <time>2018-09-04T06:57:39Z</time>
      </trkpt>
      <trkpt lat="43.3027170" lon="-2.9920600">
        <ele>15.2</ele>
        <time>2018-09-04T06:57:41Z</time>
      </trkpt>
      <trkpt lat="43.3027060" lon="-2.9921880">
        <ele>14.8</ele>
        <time>2018-09-04T06:57:43Z</time>
      </trkpt>
      <trkpt lat="43.3027090" lon="-2.9925620">
        <ele>14.8</ele>
        <time>2018-09-04T06:57:48Z</time>
      </trkpt>
      <trkpt lat="43.3027120" lon="-2.9927150">
        <ele>14.8</ele>
        <time>2018-09-04T06:57:50Z</time>
      </trkpt>
      <trkpt lat="43.3027280" lon="-2.9930190">
        <ele>14.6</ele>
        <time>2018-09-04T06:57:54Z</time>
      </trkpt>
      <trkpt lat="43.3027390" lon="-2.9933020">
        <ele>14.8</ele>
        <time>2018-09-04T06:57:58Z</time>
      </trkpt>
      <trkpt lat="43.3027520" lon="-2.9934370">
        <ele>14.8</ele>
        <time>2018-09-04T06:58:00Z</time>
      </trkpt>
      <trkpt lat="43.3027740" lon="-2.9936650">
        <ele>14.4</ele>
        <time>2018-09-04T06:58:03Z</time>
      </trkpt>
      <trkpt lat="43.3027780" lon="-2.9938990">
        <ele>14.4</ele>
        <time>2018-09-04T06:58:06Z</time>
      </trkpt>
      <trkpt lat="43.3027880" lon="-2.9941260">
        <ele>14.4</ele>
        <time>2018-09-04T06:58:09Z</time>
      </trkpt>
      <trkpt lat="43.3027910" lon="-2.9942780">
        <ele>14.2</ele>
        <time>2018-09-04T06:58:11Z</time>
      </trkpt>
      <trkpt lat="43.3027870" lon="-2.9948890">
        <ele>14.2</ele>
        <time>2018-09-04T06:58:19Z</time>
      </trkpt>
      <trkpt lat="43.3027850" lon="-2.9949630">
        <ele>14.2</ele>
        <time>2018-09-04T06:58:20Z</time>
      </trkpt>
      <trkpt lat="43.3027870" lon="-2.9953460">
        <ele>14.4</ele>
        <time>2018-09-04T06:58:25Z</time>
      </trkpt>
      <trkpt lat="43.3027750" lon="-2.9957210">
        <ele>14.6</ele>
        <time>2018-09-04T06:58:30Z</time>
      </trkpt>
      <trkpt lat="43.3027610" lon="-2.9959400">
        <ele>14.6</ele>
        <time>2018-09-04T06:58:33Z</time>
      </trkpt>
      <trkpt lat="43.3027580" lon="-2.9962220">
        <ele>14.0</ele>
        <time>2018-09-04T06:58:37Z</time>
      </trkpt>
      <trkpt lat="43.3027490" lon="-2.9964400">
        <ele>14.2</ele>
        <time>2018-09-04T06:58:40Z</time>
      </trkpt>
      <trkpt lat="43.3027290" lon="-2.9969820">
        <ele>14.2</ele>
        <time>2018-09-04T06:58:47Z</time>
      </trkpt>
      <trkpt lat="43.3027080" lon="-2.9974540">
        <ele>15.0</ele>
        <time>2018-09-04T06:58:53Z</time>
      </trkpt>
      <trkpt lat="43.3027070" lon="-2.9975260">
        <ele>15.4</ele>
        <time>2018-09-04T06:58:54Z</time>
      </trkpt>
      <trkpt lat="43.3027060" lon="-2.9976720">
        <ele>15.6</ele>
        <time>2018-09-04T06:58:56Z</time>
      </trkpt>
      <trkpt lat="43.3027070" lon="-2.9978170">
        <ele>16.0</ele>
        <time>2018-09-04T06:58:58Z</time>
      </trkpt>
      <trkpt lat="43.3027020" lon="-2.9979560">
        <ele>16.2</ele>
        <time>2018-09-04T06:59:00Z</time>
      </trkpt>
      <trkpt lat="43.3026990" lon="-2.9980380">
        <ele>16.2</ele>
        <time>2018-09-04T06:59:01Z</time>
      </trkpt>
      <trkpt lat="43.3027010" lon="-2.9981090">
        <ele>16.4</ele>
        <time>2018-09-04T06:59:02Z</time>
      </trkpt>
      <trkpt lat="43.3026780" lon="-2.9983080">
        <ele>16.8</ele>
        <time>2018-09-04T06:59:05Z</time>
      </trkpt>
      <trkpt lat="43.3026670" lon="-2.9983730">
        <ele>16.8</ele>
        <time>2018-09-04T06:59:06Z</time>
      </trkpt>
      <trkpt lat="43.3026570" lon="-2.9984970">
        <ele>17.2</ele>
        <time>2018-09-04T06:59:08Z</time>
      </trkpt>
      <trkpt lat="43.3026590" lon="-2.9986240">
        <ele>17.2</ele>
        <time>2018-09-04T06:59:10Z</time>
      </trkpt>
      <trkpt lat="43.3025800" lon="-2.9989260">
        <ele>17.8</ele>
        <time>2018-09-04T06:59:15Z</time>
      </trkpt>
      <trkpt lat="43.3025590" lon="-2.9989740">
        <ele>18.0</ele>
        <time>2018-09-04T06:59:16Z</time>
      </trkpt>
      <trkpt lat="43.3025450" lon="-2.9990290">
        <ele>18.2</ele>
        <time>2018-09-04T06:59:17Z</time>
      </trkpt>
      <trkpt lat="43.3025540" lon="-2.9990830">
        <ele>18.4</ele>
        <time>2018-09-04T06:59:18Z</time>
      </trkpt>
      <trkpt lat="43.3025800" lon="-2.9991300">
        <ele>18.6</ele>
        <time>2018-09-04T06:59:19Z</time>
      </trkpt>
      <trkpt lat="43.3026440" lon="-2.9992030">
        <ele>19.0</ele>
        <time>2018-09-04T06:59:21Z</time>
      </trkpt>
      <trkpt lat="43.3027380" lon="-2.9993110">
        <ele>19.6</ele>
        <time>2018-09-04T06:59:24Z</time>
      </trkpt>
      <trkpt lat="43.3028540" lon="-2.9994050">
        <ele>20.0</ele>
        <time>2018-09-04T06:59:27Z</time>
      </trkpt>
      <trkpt lat="43.3029330" lon="-2.9994820">
        <ele>20.0</ele>
        <time>2018-09-04T06:59:29Z</time>
      </trkpt>
      <trkpt lat="43.3031800" lon="-2.9997090">
        <ele>18.2</ele>
        <time>2018-09-04T06:59:34Z</time>
      </trkpt>
      <trkpt lat="43.3033840" lon="-2.9997600">
        <ele>17.6</ele>
        <time>2018-09-04T06:59:37Z</time>
      </trkpt>
      <trkpt lat="43.3035260" lon="-2.9997450">
        <ele>17.0</ele>
        <time>2018-09-04T06:59:39Z</time>
      </trkpt>
      <trkpt lat="43.3036610" lon="-2.9997200">
        <ele>16.6</ele>
        <time>2018-09-04T06:59:41Z</time>
      </trkpt>
      <trkpt lat="43.3037260" lon="-2.9997110">
        <ele>16.8</ele>
        <time>2018-09-04T06:59:42Z</time>
      </trkpt>
      <trkpt lat="43.3039120" lon="-2.9996920">
        <ele>16.8</ele>
        <time>2018-09-04T06:59:45Z</time>
      </trkpt>
      <trkpt lat="43.3042220" lon="-2.9996980">
        <ele>17.2</ele>
        <time>2018-09-04T06:59:50Z</time>
      </trkpt>
      <trkpt lat="43.3047220" lon="-2.9998020">
        <ele>17.8</ele>
        <time>2018-09-04T06:59:59Z</time>
      </trkpt>
      <trkpt lat="43.3048770" lon="-2.9998460">
        <ele>18.2</ele>
        <time>2018-09-04T07:00:02Z</time>
      </trkpt>
      <trkpt lat="43.3051600" lon="-2.9999380">
        <ele>19.4</ele>
        <time>2018-09-04T07:00:08Z</time>
      </trkpt>
      <trkpt lat="43.3052050" lon="-2.9999550">
        <ele>19.6</ele>
        <time>2018-09-04T07:00:09Z</time>
      </trkpt>
      <trkpt lat="43.3052450" lon="-2.9999770">
        <ele>19.8</ele>
        <time>2018-09-04T07:00:10Z</time>
      </trkpt>
      <trkpt lat="43.3053650" lon="-3.0000440">
        <ele>20.4</ele>
        <time>2018-09-04T07:00:13Z</time>
      </trkpt>
      <trkpt lat="43.3054790" lon="-3.0001180">
        <ele>20.8</ele>
        <time>2018-09-04T07:00:16Z</time>
      </trkpt>
      <trkpt lat="43.3055160" lon="-3.0001390">
        <ele>21.0</ele>
        <time>2018-09-04T07:00:17Z</time>
      </trkpt>
      <trkpt lat="43.3055940" lon="-3.0001810">
        <ele>21.6</ele>
        <time>2018-09-04T07:00:19Z</time>
      </trkpt>
      <trkpt lat="43.3057400" lon="-3.0002770">
        <ele>22.0</ele>
        <time>2018-09-04T07:00:23Z</time>
      </trkpt>
      <trkpt lat="43.3059120" lon="-3.0003820">
        <ele>22.6</ele>
        <time>2018-09-04T07:00:28Z</time>
      </trkpt>
      <trkpt lat="43.3060000" lon="-3.0004370">
        <ele>24.0</ele>
        <time>2018-09-04T07:00:31Z</time>
      </trkpt>
      <trkpt lat="43.3060970" lon="-3.0005040">
        <ele>25.2</ele>
        <time>2018-09-04T07:00:35Z</time>
      </trkpt>
      <trkpt lat="43.3061570" lon="-3.0005410">
        <ele>24.4</ele>
        <time>2018-09-04T07:00:38Z</time>
      </trkpt>
      <trkpt lat="43.3061810" lon="-3.0005510">
        <ele>24.0</ele>
        <time>2018-09-04T07:00:39Z</time>
      </trkpt>
      <trkpt lat="43.3062320" lon="-3.0005670">
        <ele>24.4</ele>
        <time>2018-09-04T07:00:41Z</time>
      </trkpt>
      <trkpt lat="43.3062860" lon="-3.0005660">
        <ele>23.8</ele>
        <time>2018-09-04T07:00:43Z</time>
      </trkpt>
      <trkpt lat="43.3063060" lon="-3.0005500">
        <ele>23.4</ele>
        <time>2018-09-04T07:00:44Z</time>
      </trkpt>
      <trkpt lat="43.3064480" lon="-3.0004670">
        <ele>23.4</ele>
        <time>2018-09-04T07:00:49Z</time>
      </trkpt>
      <trkpt lat="43.3065050" lon="-3.0004010">
        <ele>23.6</ele>
        <time>2018-09-04T07:00:51Z</time>
      </trkpt>
      <trkpt lat="43.3065390" lon="-3.0003170">
        <ele>23.4</ele>
        <time>2018-09-04T07:00:53Z</time>
      </trkpt>
      <trkpt lat="43.3065650" lon="-3.0001600">
        <ele>24.0</ele>
        <time>2018-09-04T07:00:57Z</time>
      </trkpt>
      <trkpt lat="43.3065630" lon="-3.0001240">
        <ele>24.0</ele>
        <time>2018-09-04T07:00:58Z</time>
      </trkpt>
      <trkpt lat="43.3065140" lon="-3.0000290">
        <ele>23.8</ele>
        <time>2018-09-04T07:01:01Z</time>
      </trkpt>
      <trkpt lat="43.3064810" lon="-3.0000040">
        <ele>23.8</ele>
        <time>2018-09-04T07:01:02Z</time>
      </trkpt>
      <trkpt lat="43.3063910" lon="-2.9999990">
        <ele>23.6</ele>
        <time>2018-09-04T07:01:04Z</time>
      </trkpt>
      <trkpt lat="43.3063430" lon="-3.0000280">
        <ele>23.2</ele>
        <time>2018-09-04T07:01:05Z</time>
      </trkpt>
      <trkpt lat="43.3062970" lon="-3.0000800">
        <ele>22.8</ele>
        <time>2018-09-04T07:01:06Z</time>
      </trkpt>
      <trkpt lat="43.3062270" lon="-3.0002250">
        <ele>21.8</ele>
        <time>2018-09-04T07:01:08Z</time>
      </trkpt>
      <trkpt lat="43.3061900" lon="-3.0003110">
        <ele>21.2</ele>
        <time>2018-09-04T07:01:09Z</time>
      </trkpt>
      <trkpt lat="43.3061230" lon="-3.0005070">
        <ele>20.2</ele>
        <time>2018-09-04T07:01:11Z</time>
      </trkpt>
      <trkpt lat="43.3060890" lon="-3.0006110">
        <ele>19.6</ele>
        <time>2018-09-04T07:01:12Z</time>
      </trkpt>
      <trkpt lat="43.3060540" lon="-3.0007270">
        <ele>19.2</ele>
        <time>2018-09-04T07:01:13Z</time>
      </trkpt>
      <trkpt lat="43.3059410" lon="-3.0010180">
        <ele>18.6</ele>
        <time>2018-09-04T07:01:16Z</time>
      </trkpt>
      <trkpt lat="43.3057510" lon="-3.0015750">
        <ele>19.2</ele>
        <time>2018-09-04T07:01:22Z</time>
      </trkpt>
      <trkpt lat="43.3056030" lon="-3.0020190">
        <ele>20.0</ele>
        <time>2018-09-04T07:01:28Z</time>
      </trkpt>
      <trkpt lat="43.3055780" lon="-3.0020860">
        <ele>20.2</ele>
        <time>2018-09-04T07:01:29Z</time>
      </trkpt>
      <trkpt lat="43.3054300" lon="-3.0025330">
        <ele>21.2</ele>
        <time>2018-09-04T07:01:36Z</time>
      </trkpt>
      <trkpt lat="43.3054070" lon="-3.0025920">
        <ele>21.4</ele>
        <time>2018-09-04T07:01:37Z</time>
      </trkpt>
      <trkpt lat="43.3053620" lon="-3.0027120">
        <ele>22.0</ele>
        <time>2018-09-04T07:01:39Z</time>
      </trkpt>
      <trkpt lat="43.3053220" lon="-3.0028320">
        <ele>23.0</ele>
        <time>2018-09-04T07:01:41Z</time>
      </trkpt>
      <trkpt lat="43.3053030" lon="-3.0028860">
        <ele>23.2</ele>
        <time>2018-09-04T07:01:42Z</time>
      </trkpt>
      <trkpt lat="43.3052700" lon="-3.0029940">
        <ele>24.0</ele>
        <time>2018-09-04T07:01:44Z</time>
      </trkpt>
      <trkpt lat="43.3052540" lon="-3.0030450">
        <ele>24.2</ele>
        <time>2018-09-04T07:01:45Z</time>
      </trkpt>
      <trkpt lat="43.3052190" lon="-3.0031470">
        <ele>24.8</ele>
        <time>2018-09-04T07:01:47Z</time>
      </trkpt>
      <trkpt lat="43.3051920" lon="-3.0032410">
        <ele>25.4</ele>
        <time>2018-09-04T07:01:49Z</time>
      </trkpt>
      <trkpt lat="43.3051310" lon="-3.0034320">
        <ele>26.4</ele>
        <time>2018-09-04T07:01:53Z</time>
      </trkpt>
      <trkpt lat="43.3051180" lon="-3.0034800">
        <ele>26.6</ele>
        <time>2018-09-04T07:01:54Z</time>
      </trkpt>
      <trkpt lat="43.3050720" lon="-3.0036250">
        <ele>27.4</ele>
        <time>2018-09-04T07:01:57Z</time>
      </trkpt>
      <trkpt lat="43.3050180" lon="-3.0037700">
        <ele>28.0</ele>
        <time>2018-09-04T07:02:00Z</time>
      </trkpt>
      <trkpt lat="43.3049850" lon="-3.0038610">
        <ele>28.4</ele>
        <time>2018-09-04T07:02:02Z</time>
      </trkpt>
      <trkpt lat="43.3049400" lon="-3.0039830">
        <ele>29.6</ele>
        <time>2018-09-04T07:02:05Z</time>
      </trkpt>
      <trkpt lat="43.3049030" lon="-3.0041070">
        <ele>30.2</ele>
        <time>2018-09-04T07:02:08Z</time>
      </trkpt>
      <trkpt lat="43.3049050" lon="-3.0041590">
        <ele>30.2</ele>
        <time>2018-09-04T07:02:09Z</time>
      </trkpt>
      <trkpt lat="43.3049530" lon="-3.0042510">
        <ele>30.0</ele>
        <time>2018-09-04T07:02:11Z</time>
      </trkpt>
      <trkpt lat="43.3051420" lon="-3.0046370">
        <ele>28.6</ele>
        <time>2018-09-04T07:02:18Z</time>
      </trkpt>
      <trkpt lat="43.3051550" lon="-3.0047080">
        <ele>28.4</ele>
        <time>2018-09-04T07:02:19Z</time>
      </trkpt>
      <trkpt lat="43.3051420" lon="-3.0048640">
        <ele>28.2</ele>
        <time>2018-09-04T07:02:21Z</time>
      </trkpt>
      <trkpt lat="43.3051060" lon="-3.0050180">
        <ele>27.8</ele>
        <time>2018-09-04T07:02:23Z</time>
      </trkpt>
      <trkpt lat="43.3050850" lon="-3.0051000">
        <ele>27.4</ele>
        <time>2018-09-04T07:02:24Z</time>
      </trkpt>
      <trkpt lat="43.3050190" lon="-3.0053590">
        <ele>26.2</ele>
        <time>2018-09-04T07:02:27Z</time>
      </trkpt>
      <trkpt lat="43.3049700" lon="-3.0055500">
        <ele>25.0</ele>
        <time>2018-09-04T07:02:29Z</time>
      </trkpt>
      <trkpt lat="43.3049480" lon="-3.0056500">
        <ele>24.4</ele>
        <time>2018-09-04T07:02:30Z</time>
      </trkpt>
      <trkpt lat="43.3049240" lon="-3.0057530">
        <ele>24.2</ele>
        <time>2018-09-04T07:02:31Z</time>
      </trkpt>
      <trkpt lat="43.3049000" lon="-3.0058560">
        <ele>24.0</ele>
        <time>2018-09-04T07:02:32Z</time>
      </trkpt>
      <trkpt lat="43.3048760" lon="-3.0059610">
        <ele>23.6</ele>
        <time>2018-09-04T07:02:33Z</time>
      </trkpt>
      <trkpt lat="43.3048470" lon="-3.0060630">
        <ele>23.4</ele>
        <time>2018-09-04T07:02:34Z</time>
      </trkpt>
      <trkpt lat="43.3046950" lon="-3.0066640">
        <ele>23.4</ele>
        <time>2018-09-04T07:02:40Z</time>
      </trkpt>
      <trkpt lat="43.3046330" lon="-3.0069370">
        <ele>23.8</ele>
        <time>2018-09-04T07:02:43Z</time>
      </trkpt>
      <trkpt lat="43.3045720" lon="-3.0074360">
        <ele>24.2</ele>
        <time>2018-09-04T07:02:49Z</time>
      </trkpt>
      <trkpt lat="43.3046030" lon="-3.0077620">
        <ele>24.8</ele>
        <time>2018-09-04T07:02:53Z</time>
      </trkpt>
      <trkpt lat="43.3046340" lon="-3.0079180">
        <ele>25.2</ele>
        <time>2018-09-04T07:02:55Z</time>
      </trkpt>
      <trkpt lat="43.3047920" lon="-3.0083550">
        <ele>25.2</ele>
        <time>2018-09-04T07:03:01Z</time>
      </trkpt>
      <trkpt lat="43.3050830" lon="-3.0087880">
        <ele>25.2</ele>
        <time>2018-09-04T07:03:08Z</time>
      </trkpt>
      <trkpt lat="43.3051730" lon="-3.0088600">
        <ele>25.6</ele>
        <time>2018-09-04T07:03:10Z</time>
      </trkpt>
      <trkpt lat="43.3052630" lon="-3.0088880">
        <ele>26.0</ele>
        <time>2018-09-04T07:03:12Z</time>
      </trkpt>
      <trkpt lat="43.3053850" lon="-3.0089590">
        <ele>27.0</ele>
        <time>2018-09-04T07:03:16Z</time>
      </trkpt>
      <trkpt lat="43.3054070" lon="-3.0089950">
        <ele>27.4</ele>
        <time>2018-09-04T07:03:20Z</time>
      </trkpt>
      <trkpt lat="43.3054390" lon="-3.0090650">
        <ele>27.8</ele>
        <time>2018-09-04T07:03:37Z</time>
      </trkpt>
      <trkpt lat="43.3054470" lon="-3.0090930">
        <ele>27.8</ele>
        <time>2018-09-04T07:03:38Z</time>
      </trkpt>
      <trkpt lat="43.3054590" lon="-3.0091300">
        <ele>27.8</ele>
        <time>2018-09-04T07:03:39Z</time>
      </trkpt>
      <trkpt lat="43.3054650" lon="-3.0092170">
        <ele>27.8</ele>
        <time>2018-09-04T07:03:41Z</time>
      </trkpt>
      <trkpt lat="43.3054110" lon="-3.0092990">
        <ele>27.6</ele>
        <time>2018-09-04T07:03:43Z</time>
      </trkpt>
      <trkpt lat="43.3053240" lon="-3.0093810">
        <ele>26.8</ele>
        <time>2018-09-04T07:03:45Z</time>
      </trkpt>
      <trkpt lat="43.3052310" lon="-3.0094770">
        <ele>26.0</ele>
        <time>2018-09-04T07:03:47Z</time>
      </trkpt>
      <trkpt lat="43.3051340" lon="-3.0095910">
        <ele>24.8</ele>
        <time>2018-09-04T07:03:49Z</time>
      </trkpt>
      <trkpt lat="43.3050250" lon="-3.0097130">
        <ele>23.4</ele>
        <time>2018-09-04T07:03:51Z</time>
      </trkpt>
      <trkpt lat="43.3049810" lon="-3.0097760">
        <ele>22.6</ele>
        <time>2018-09-04T07:03:52Z</time>
      </trkpt>
      <trkpt lat="43.3049550" lon="-3.0098480">
        <ele>22.0</ele>
        <time>2018-09-04T07:03:53Z</time>
      </trkpt>
      <trkpt lat="43.3049970" lon="-3.0100170">
        <ele>20.4</ele>
        <time>2018-09-04T07:03:55Z</time>
      </trkpt>
      <trkpt lat="43.3051150" lon="-3.0101490">
        <ele>19.0</ele>
        <time>2018-09-04T07:03:57Z</time>
      </trkpt>
      <trkpt lat="43.3051760" lon="-3.0102220">
        <ele>18.4</ele>
        <time>2018-09-04T07:03:58Z</time>
      </trkpt>
      <trkpt lat="43.3052370" lon="-3.0103020">
        <ele>18.0</ele>
        <time>2018-09-04T07:03:59Z</time>
      </trkpt>
      <trkpt lat="43.3052890" lon="-3.0103880">
        <ele>17.6</ele>
        <time>2018-09-04T07:04:00Z</time>
      </trkpt>
      <trkpt lat="43.3054570" lon="-3.0106130">
        <ele>17.6</ele>
        <time>2018-09-04T07:04:03Z</time>
      </trkpt>
      <trkpt lat="43.3057300" lon="-3.0109040">
        <ele>17.6</ele>
        <time>2018-09-04T07:04:08Z</time>
      </trkpt>
      <trkpt lat="43.3058800" lon="-3.0112410">
        <ele>18.2</ele>
        <time>2018-09-04T07:04:13Z</time>
      </trkpt>
      <trkpt lat="43.3060180" lon="-3.0116960">
        <ele>18.8</ele>
        <time>2018-09-04T07:04:19Z</time>
      </trkpt>
      <trkpt lat="43.3060670" lon="-3.0118410">
        <ele>18.8</ele>
        <time>2018-09-04T07:04:21Z</time>
      </trkpt>
      <trkpt lat="43.3062710" lon="-3.0124790">
        <ele>19.0</ele>
        <time>2018-09-04T07:04:30Z</time>
      </trkpt>
      <trkpt lat="43.3064450" lon="-3.0130090">
        <ele>19.4</ele>
        <time>2018-09-04T07:04:38Z</time>
      </trkpt>
      <trkpt lat="43.3065700" lon="-3.0134030">
        <ele>19.4</ele>
        <time>2018-09-04T07:04:44Z</time>
      </trkpt>
      <trkpt lat="43.3067380" lon="-3.0139390">
        <ele>20.0</ele>
        <time>2018-09-04T07:04:52Z</time>
      </trkpt>
      <trkpt lat="43.3067590" lon="-3.0140000">
        <ele>20.2</ele>
        <time>2018-09-04T07:04:53Z</time>
      </trkpt>
      <trkpt lat="43.3069060" lon="-3.0144300">
        <ele>21.0</ele>
        <time>2018-09-04T07:05:00Z</time>
      </trkpt>
      <trkpt lat="43.3069570" lon="-3.0145420">
        <ele>21.2</ele>
        <time>2018-09-04T07:05:02Z</time>
      </trkpt>
      <trkpt lat="43.3070530" lon="-3.0146770">
        <ele>21.2</ele>
        <time>2018-09-04T07:05:05Z</time>
      </trkpt>
      <trkpt lat="43.3071230" lon="-3.0147490">
        <ele>21.2</ele>
        <time>2018-09-04T07:05:07Z</time>
      </trkpt>
      <trkpt lat="43.3072520" lon="-3.0148340">
        <ele>21.2</ele>
        <time>2018-09-04T07:05:10Z</time>
      </trkpt>
      <trkpt lat="43.3073240" lon="-3.0149020">
        <ele>21.4</ele>
        <time>2018-09-04T07:05:12Z</time>
      </trkpt>
      <trkpt lat="43.3073830" lon="-3.0149870">
        <ele>21.6</ele>
        <time>2018-09-04T07:05:14Z</time>
      </trkpt>
      <trkpt lat="43.3073990" lon="-3.0150460">
        <ele>21.6</ele>
        <time>2018-09-04T07:05:15Z</time>
      </trkpt>
      <trkpt lat="43.3073850" lon="-3.0151850">
        <ele>22.2</ele>
        <time>2018-09-04T07:05:17Z</time>
      </trkpt>
      <trkpt lat="43.3073600" lon="-3.0152550">
        <ele>22.4</ele>
        <time>2018-09-04T07:05:18Z</time>
      </trkpt>
      <trkpt lat="43.3072350" lon="-3.0154490">
        <ele>23.4</ele>
        <time>2018-09-04T07:05:22Z</time>
      </trkpt>
      <trkpt lat="43.3071630" lon="-3.0154850">
        <ele>23.8</ele>
        <time>2018-09-04T07:05:24Z</time>
      </trkpt>
      <trkpt lat="43.3070870" lon="-3.0155110">
        <ele>24.4</ele>
        <time>2018-09-04T07:05:26Z</time>
      </trkpt>
      <trkpt lat="43.3070500" lon="-3.0155200">
        <ele>24.8</ele>
        <time>2018-09-04T07:05:27Z</time>
      </trkpt>
      <trkpt lat="43.3069230" lon="-3.0156040">
        <ele>25.4</ele>
        <time>2018-09-04T07:05:31Z</time>
      </trkpt>
      <trkpt lat="43.3069000" lon="-3.0156420">
        <ele>25.6</ele>
        <time>2018-09-04T07:05:32Z</time>
      </trkpt>
      <trkpt lat="43.3068820" lon="-3.0156860">
        <ele>26.0</ele>
        <time>2018-09-04T07:05:33Z</time>
      </trkpt>
      <trkpt lat="43.3068730" lon="-3.0158350">
        <ele>26.6</ele>
        <time>2018-09-04T07:05:36Z</time>
      </trkpt>
      <trkpt lat="43.3068900" lon="-3.0159380">
        <ele>27.0</ele>
        <time>2018-09-04T07:05:38Z</time>
      </trkpt>
      <trkpt lat="43.3069590" lon="-3.0160690">
        <ele>27.6</ele>
        <time>2018-09-04T07:05:41Z</time>
      </trkpt>
      <trkpt lat="43.3070080" lon="-3.0161430">
        <ele>28.2</ele>
        <time>2018-09-04T07:05:43Z</time>
      </trkpt>
      <trkpt lat="43.3071520" lon="-3.0163660">
        <ele>29.0</ele>
        <time>2018-09-04T07:05:49Z</time>
      </trkpt>
      <trkpt lat="43.3071950" lon="-3.0164450">
        <ele>29.2</ele>
        <time>2018-09-04T07:05:51Z</time>
      </trkpt>
      <trkpt lat="43.3073010" lon="-3.0166420">
        <ele>29.8</ele>
        <time>2018-09-04T07:05:56Z</time>
      </trkpt>
      <trkpt lat="43.3074310" lon="-3.0169460">
        <ele>30.2</ele>
        <time>2018-09-04T07:06:03Z</time>
      </trkpt>
      <trkpt lat="43.3075570" lon="-3.0172640">
        <ele>31.2</ele>
        <time>2018-09-04T07:06:10Z</time>
      </trkpt>
      <trkpt lat="43.3075700" lon="-3.0173120">
        <ele>31.4</ele>
        <time>2018-09-04T07:06:11Z</time>
      </trkpt>
      <trkpt lat="43.3075840" lon="-3.0173600">
        <ele>31.6</ele>
        <time>2018-09-04T07:06:12Z</time>
      </trkpt>
      <trkpt lat="43.3076760" lon="-3.0177040">
        <ele>32.4</ele>
        <time>2018-09-04T07:06:19Z</time>
      </trkpt>
      <trkpt lat="43.3076880" lon="-3.0177510">
        <ele>32.6</ele>
        <time>2018-09-04T07:06:20Z</time>
      </trkpt>
      <trkpt lat="43.3077440" lon="-3.0180440">
        <ele>33.6</ele>
        <time>2018-09-04T07:06:26Z</time>
      </trkpt>
      <trkpt lat="43.3077580" lon="-3.0180930">
        <ele>33.8</ele>
        <time>2018-09-04T07:06:27Z</time>
      </trkpt>
      <trkpt lat="43.3078270" lon="-3.0183320">
        <ele>34.6</ele>
        <time>2018-09-04T07:06:32Z</time>
      </trkpt>
      <trkpt lat="43.3078490" lon="-3.0184270">
        <ele>35.0</ele>
        <time>2018-09-04T07:06:34Z</time>
      </trkpt>
      <trkpt lat="43.3079040" lon="-3.0186160">
        <ele>35.8</ele>
        <time>2018-09-04T07:06:38Z</time>
      </trkpt>
      <trkpt lat="43.3079260" lon="-3.0187790">
        <ele>36.0</ele>
        <time>2018-09-04T07:06:41Z</time>
      </trkpt>
      <trkpt lat="43.3079670" lon="-3.0191550">
        <ele>36.2</ele>
        <time>2018-09-04T07:06:48Z</time>
      </trkpt>
      <trkpt lat="43.3080020" lon="-3.0193740">
        <ele>36.6</ele>
        <time>2018-09-04T07:06:52Z</time>
      </trkpt>
      <trkpt lat="43.3080250" lon="-3.0194890">
        <ele>36.8</ele>
        <time>2018-09-04T07:06:54Z</time>
      </trkpt>
      <trkpt lat="43.3080530" lon="-3.0196640">
        <ele>37.0</ele>
        <time>2018-09-04T07:06:57Z</time>
      </trkpt>
      <trkpt lat="43.3080930" lon="-3.0198490">
        <ele>37.0</ele>
        <time>2018-09-04T07:07:00Z</time>
      </trkpt>
      <trkpt lat="43.3081270" lon="-3.0200290">
        <ele>36.8</ele>
        <time>2018-09-04T07:07:03Z</time>
      </trkpt>
      <trkpt lat="43.3081400" lon="-3.0200830">
        <ele>36.8</ele>
        <time>2018-09-04T07:07:04Z</time>
      </trkpt>
      <trkpt lat="43.3081650" lon="-3.0201880">
        <ele>37.0</ele>
        <time>2018-09-04T07:07:06Z</time>
      </trkpt>
      <trkpt lat="43.3082230" lon="-3.0204380">
        <ele>37.0</ele>
        <time>2018-09-04T07:07:10Z</time>
      </trkpt>
      <trkpt lat="43.3082980" lon="-3.0208010">
        <ele>37.8</ele>
        <time>2018-09-04T07:07:16Z</time>
      </trkpt>
      <trkpt lat="43.3083060" lon="-3.0208580">
        <ele>38.0</ele>
        <time>2018-09-04T07:07:17Z</time>
      </trkpt>
      <trkpt lat="43.3083470" lon="-3.0210220">
        <ele>38.0</ele>
        <time>2018-09-04T07:07:20Z</time>
      </trkpt>
      <trkpt lat="43.3083770" lon="-3.0211360">
        <ele>38.0</ele>
        <time>2018-09-04T07:07:22Z</time>
      </trkpt>
      <trkpt lat="43.3084200" lon="-3.0213110">
        <ele>38.4</ele>
        <time>2018-09-04T07:07:25Z</time>
      </trkpt>
      <trkpt lat="43.3085410" lon="-3.0217330">
        <ele>38.6</ele>
        <time>2018-09-04T07:07:32Z</time>
      </trkpt>
      <trkpt lat="43.3086830" lon="-3.0221390">
        <ele>39.0</ele>
        <time>2018-09-04T07:07:39Z</time>
      </trkpt>
      <trkpt lat="43.3087490" lon="-3.0223160">
        <ele>39.4</ele>
        <time>2018-09-04T07:07:42Z</time>
      </trkpt>
      <trkpt lat="43.3089460" lon="-3.0227750">
        <ele>39.6</ele>
        <time>2018-09-04T07:07:50Z</time>
      </trkpt>
      <trkpt lat="43.3089710" lon="-3.0228330">
        <ele>39.6</ele>
        <time>2018-09-04T07:07:51Z</time>
      </trkpt>
      <trkpt lat="43.3091960" lon="-3.0232740">
        <ele>40.0</ele>
        <time>2018-09-04T07:07:59Z</time>
      </trkpt>
      <trkpt lat="43.3092260" lon="-3.0233270">
        <ele>40.2</ele>
        <time>2018-09-04T07:08:00Z</time>
      </trkpt>
      <trkpt lat="43.3094920" lon="-3.0238200">
        <ele>40.8</ele>
        <time>2018-09-04T07:08:09Z</time>
      </trkpt>
      <trkpt lat="43.3096260" lon="-3.0240400">
        <ele>41.2</ele>
        <time>2018-09-04T07:08:13Z</time>
      </trkpt>
      <trkpt lat="43.3097590" lon="-3.0242570">
        <ele>41.2</ele>
        <time>2018-09-04T07:08:17Z</time>
      </trkpt>
      <trkpt lat="43.3100760" lon="-3.0247220">
        <ele>42.2</ele>
        <time>2018-09-04T07:08:26Z</time>
      </trkpt>
      <trkpt lat="43.3101480" lon="-3.0248260">
        <ele>42.4</ele>
        <time>2018-09-04T07:08:28Z</time>
      </trkpt>
      <trkpt lat="43.3104420" lon="-3.0251990">
        <ele>42.8</ele>
        <time>2018-09-04T07:08:36Z</time>
      </trkpt>
      <trkpt lat="43.3104990" lon="-3.0252660">
        <ele>43.2</ele>
        <time>2018-09-04T07:08:38Z</time>
      </trkpt>
      <trkpt lat="43.3105330" lon="-3.0252950">
        <ele>43.4</ele>
        <time>2018-09-04T07:08:39Z</time>
      </trkpt>
      <trkpt lat="43.3106100" lon="-3.0253420">
        <ele>43.4</ele>
        <time>2018-09-04T07:08:41Z</time>
      </trkpt>
      <trkpt lat="43.3107720" lon="-3.0254480">
        <ele>43.8</ele>
        <time>2018-09-04T07:08:45Z</time>
      </trkpt>
      <trkpt lat="43.3108570" lon="-3.0254810">
        <ele>44.2</ele>
        <time>2018-09-04T07:08:47Z</time>
      </trkpt>
      <trkpt lat="43.3108940" lon="-3.0255050">
        <ele>44.4</ele>
        <time>2018-09-04T07:08:48Z</time>
      </trkpt>
      <trkpt lat="43.3110230" lon="-3.0256180">
        <ele>45.0</ele>
        <time>2018-09-04T07:08:52Z</time>
      </trkpt>
      <trkpt lat="43.3111270" lon="-3.0256890">
        <ele>45.4</ele>
        <time>2018-09-04T07:08:55Z</time>
      </trkpt>
      <trkpt lat="43.3112010" lon="-3.0257200">
        <ele>45.8</ele>
        <time>2018-09-04T07:08:57Z</time>
      </trkpt>
      <trkpt lat="43.3113040" lon="-3.0257780">
        <ele>46.0</ele>
        <time>2018-09-04T07:09:00Z</time>
      </trkpt>
      <trkpt lat="43.3114140" lon="-3.0258460">
        <ele>46.2</ele>
        <time>2018-09-04T07:09:03Z</time>
      </trkpt>
      <trkpt lat="43.3115220" lon="-3.0259240">
        <ele>46.6</ele>
        <time>2018-09-04T07:09:06Z</time>
      </trkpt>
      <trkpt lat="43.3116650" lon="-3.0260340">
        <ele>47.4</ele>
        <time>2018-09-04T07:09:10Z</time>
      </trkpt>
      <trkpt lat="43.3116980" lon="-3.0260680">
        <ele>47.6</ele>
        <time>2018-09-04T07:09:11Z</time>
      </trkpt>
      <trkpt lat="43.3117280" lon="-3.0261050">
        <ele>47.8</ele>
        <time>2018-09-04T07:09:12Z</time>
      </trkpt>
      <trkpt lat="43.3118450" lon="-3.0262710">
        <ele>48.6</ele>
        <time>2018-09-04T07:09:16Z</time>
      </trkpt>
      <trkpt lat="43.3118710" lon="-3.0263190">
        <ele>48.8</ele>
        <time>2018-09-04T07:09:17Z</time>
      </trkpt>
      <trkpt lat="43.3119280" lon="-3.0264150">
        <ele>49.2</ele>
        <time>2018-09-04T07:09:19Z</time>
      </trkpt>
      <trkpt lat="43.3120310" lon="-3.0265890">
        <ele>49.8</ele>
        <time>2018-09-04T07:09:23Z</time>
      </trkpt>
      <trkpt lat="43.3121380" lon="-3.0267320">
        <ele>50.0</ele>
        <time>2018-09-04T07:09:27Z</time>
      </trkpt>
      <trkpt lat="43.3122040" lon="-3.0268000">
        <ele>50.0</ele>
        <time>2018-09-04T07:09:29Z</time>
      </trkpt>
      <trkpt lat="43.3122660" lon="-3.0268740">
        <ele>50.0</ele>
        <time>2018-09-04T07:09:31Z</time>
      </trkpt>
      <trkpt lat="43.3123270" lon="-3.0269600">
        <ele>50.2</ele>
        <time>2018-09-04T07:09:33Z</time>
      </trkpt>
      <trkpt lat="43.3124030" lon="-3.0270510">
        <ele>49.4</ele>
        <time>2018-09-04T07:09:35Z</time>
      </trkpt>
      <trkpt lat="43.3125760" lon="-3.0272570">
        <ele>48.6</ele>
        <time>2018-09-04T07:09:39Z</time>
      </trkpt>
      <trkpt lat="43.3127290" lon="-3.0274770">
        <ele>47.6</ele>
        <time>2018-09-04T07:09:43Z</time>
      </trkpt>
      <trkpt lat="43.3127700" lon="-3.0275230">
        <ele>47.4</ele>
        <time>2018-09-04T07:09:44Z</time>
      </trkpt>
      <trkpt lat="43.3128060" lon="-3.0275710">
        <ele>47.2</ele>
        <time>2018-09-04T07:09:45Z</time>
      </trkpt>
      <trkpt lat="43.3129200" lon="-3.0277260">
        <ele>47.0</ele>
        <time>2018-09-04T07:09:48Z</time>
      </trkpt>
      <trkpt lat="43.3130290" lon="-3.0278880">
        <ele>46.4</ele>
        <time>2018-09-04T07:09:51Z</time>
      </trkpt>
      <trkpt lat="43.3131160" lon="-3.0280060">
        <ele>46.4</ele>
        <time>2018-09-04T07:09:53Z</time>
      </trkpt>
      <trkpt lat="43.3132910" lon="-3.0282530">
        <ele>46.0</ele>
        <time>2018-09-04T07:09:57Z</time>
      </trkpt>
      <trkpt lat="43.3134210" lon="-3.0284290">
        <ele>45.6</ele>
        <time>2018-09-04T07:10:00Z</time>
      </trkpt>
      <trkpt lat="43.3134810" lon="-3.0285360">
        <ele>45.4</ele>
        <time>2018-09-04T07:10:02Z</time>
      </trkpt>
      <trkpt lat="43.3134770" lon="-3.0286040">
        <ele>45.2</ele>
        <time>2018-09-04T07:10:03Z</time>
      </trkpt>
      <trkpt lat="43.3134040" lon="-3.0287000">
        <ele>45.0</ele>
        <time>2018-09-04T07:10:05Z</time>
      </trkpt>
      <trkpt lat="43.3133620" lon="-3.0287440">
        <ele>45.0</ele>
        <time>2018-09-04T07:10:06Z</time>
      </trkpt>
      <trkpt lat="43.3131190" lon="-3.0290360">
        <ele>45.4</ele>
        <time>2018-09-04T07:10:12Z</time>
      </trkpt>
      <trkpt lat="43.3130070" lon="-3.0291740">
        <ele>45.8</ele>
        <time>2018-09-04T07:10:15Z</time>
      </trkpt>
      <trkpt lat="43.3128180" lon="-3.0293850">
        <ele>45.8</ele>
        <time>2018-09-04T07:10:20Z</time>
      </trkpt>
      <trkpt lat="43.3125970" lon="-3.0296420">
        <ele>46.0</ele>
        <time>2018-09-04T07:10:26Z</time>
      </trkpt>
      <trkpt lat="43.3125320" lon="-3.0297360">
        <ele>46.4</ele>
        <time>2018-09-04T07:10:28Z</time>
      </trkpt>
      <trkpt lat="43.3123570" lon="-3.0300450">
        <ele>46.6</ele>
        <time>2018-09-04T07:10:34Z</time>
      </trkpt>
      <trkpt lat="43.3123060" lon="-3.0301510">
        <ele>47.0</ele>
        <time>2018-09-04T07:10:36Z</time>
      </trkpt>
      <trkpt lat="43.3121600" lon="-3.0304950">
        <ele>47.2</ele>
        <time>2018-09-04T07:10:42Z</time>
      </trkpt>
      <trkpt lat="43.3120860" lon="-3.0306710">
        <ele>47.4</ele>
        <time>2018-09-04T07:10:45Z</time>
      </trkpt>
      <trkpt lat="43.3119040" lon="-3.0310770">
        <ele>47.4</ele>
        <time>2018-09-04T07:10:52Z</time>
      </trkpt>
      <trkpt lat="43.3116640" lon="-3.0315290">
        <ele>46.4</ele>
        <time>2018-09-04T07:10:59Z</time>
      </trkpt>
      <trkpt lat="43.3116240" lon="-3.0315930">
        <ele>46.4</ele>
        <time>2018-09-04T07:11:00Z</time>
      </trkpt>
      <trkpt lat="43.3114650" lon="-3.0317980">
        <ele>47.4</ele>
        <time>2018-09-04T07:11:04Z</time>
      </trkpt>
      <trkpt lat="43.3114260" lon="-3.0318480">
        <ele>47.8</ele>
        <time>2018-09-04T07:11:05Z</time>
      </trkpt>
      <trkpt lat="43.3113460" lon="-3.0319360">
        <ele>48.2</ele>
        <time>2018-09-04T07:11:07Z</time>
      </trkpt>
      <trkpt lat="43.3113070" lon="-3.0319740">
        <ele>48.4</ele>
        <time>2018-09-04T07:11:08Z</time>
      </trkpt>
      <trkpt lat="43.3111950" lon="-3.0320800">
        <ele>48.8</ele>
        <time>2018-09-04T07:11:11Z</time>
      </trkpt>
      <trkpt lat="43.3111600" lon="-3.0321110">
        <ele>49.0</ele>
        <time>2018-09-04T07:11:12Z</time>
      </trkpt>
      <trkpt lat="43.3110490" lon="-3.0322020">
        <ele>49.4</ele>
        <time>2018-09-04T07:11:15Z</time>
      </trkpt>
      <trkpt lat="43.3109140" lon="-3.0323260">
        <ele>50.4</ele>
        <time>2018-09-04T07:11:19Z</time>
      </trkpt>
      <trkpt lat="43.3108540" lon="-3.0323920">
        <ele>51.0</ele>
        <time>2018-09-04T07:11:21Z</time>
      </trkpt>
      <trkpt lat="43.3107970" lon="-3.0324580">
        <ele>51.6</ele>
        <time>2018-09-04T07:11:23Z</time>
      </trkpt>
      <trkpt lat="43.3107140" lon="-3.0326310">
        <ele>52.0</ele>
        <time>2018-09-04T07:11:27Z</time>
      </trkpt>
      <trkpt lat="43.3107000" lon="-3.0327860">
        <ele>52.6</ele>
        <time>2018-09-04T07:11:30Z</time>
      </trkpt>
      <trkpt lat="43.3107060" lon="-3.0328760">
        <ele>53.0</ele>
        <time>2018-09-04T07:11:32Z</time>
      </trkpt>
      <trkpt lat="43.3107760" lon="-3.0331000">
        <ele>53.8</ele>
        <time>2018-09-04T07:11:37Z</time>
      </trkpt>
      <trkpt lat="43.3108980" lon="-3.0332640">
        <ele>55.0</ele>
        <time>2018-09-04T07:11:42Z</time>
      </trkpt>
      <trkpt lat="43.3109530" lon="-3.0333160">
        <ele>55.2</ele>
        <time>2018-09-04T07:11:44Z</time>
      </trkpt>
      <trkpt lat="43.3111150" lon="-3.0334680">
        <ele>56.2</ele>
        <time>2018-09-04T07:11:50Z</time>
      </trkpt>
      <trkpt lat="43.3111760" lon="-3.0335140">
        <ele>56.6</ele>
        <time>2018-09-04T07:11:52Z</time>
      </trkpt>
      <trkpt lat="43.3112360" lon="-3.0335680">
        <ele>57.0</ele>
        <time>2018-09-04T07:11:54Z</time>
      </trkpt>
      <trkpt lat="43.3112930" lon="-3.0336300">
        <ele>57.2</ele>
        <time>2018-09-04T07:11:56Z</time>
      </trkpt>
      <trkpt lat="43.3113670" lon="-3.0337280">
        <ele>57.8</ele>
        <time>2018-09-04T07:11:59Z</time>
      </trkpt>
      <trkpt lat="43.3114140" lon="-3.0338040">
        <ele>58.2</ele>
        <time>2018-09-04T07:12:01Z</time>
      </trkpt>
      <trkpt lat="43.3115260" lon="-3.0340720">
        <ele>59.4</ele>
        <time>2018-09-04T07:12:07Z</time>
      </trkpt>
      <trkpt lat="43.3115550" lon="-3.0344510">
        <ele>59.6</ele>
        <time>2018-09-04T07:12:14Z</time>
      </trkpt>
      <trkpt lat="43.3115150" lon="-3.0347670">
        <ele>59.6</ele>
        <time>2018-09-04T07:12:19Z</time>
      </trkpt>
      <trkpt lat="43.3114870" lon="-3.0349820">
        <ele>59.4</ele>
        <time>2018-09-04T07:12:22Z</time>
      </trkpt>
      <trkpt lat="43.3114720" lon="-3.0352080">
        <ele>59.4</ele>
        <time>2018-09-04T07:12:25Z</time>
      </trkpt>
      <trkpt lat="43.3114840" lon="-3.0353580">
        <ele>59.2</ele>
        <time>2018-09-04T07:12:27Z</time>
      </trkpt>
      <trkpt lat="43.3115010" lon="-3.0354290">
        <ele>59.2</ele>
        <time>2018-09-04T07:12:28Z</time>
      </trkpt>
      <trkpt lat="43.3115780" lon="-3.0356370">
        <ele>58.6</ele>
        <time>2018-09-04T07:12:31Z</time>
      </trkpt>
      <trkpt lat="43.3116120" lon="-3.0357090">
        <ele>58.4</ele>
        <time>2018-09-04T07:12:32Z</time>
      </trkpt>
      <trkpt lat="43.3116520" lon="-3.0357810">
        <ele>58.0</ele>
        <time>2018-09-04T07:12:33Z</time>
      </trkpt>
      <trkpt lat="43.3117330" lon="-3.0359380">
        <ele>57.0</ele>
        <time>2018-09-04T07:12:35Z</time>
      </trkpt>
      <trkpt lat="43.3118250" lon="-3.0362060">
        <ele>55.8</ele>
        <time>2018-09-04T07:12:38Z</time>
      </trkpt>
      <trkpt lat="43.3119160" lon="-3.0367790">
        <ele>55.6</ele>
        <time>2018-09-04T07:12:44Z</time>
      </trkpt>
      <trkpt lat="43.3119360" lon="-3.0368760">
        <ele>55.4</ele>
        <time>2018-09-04T07:12:45Z</time>
      </trkpt>
      <trkpt lat="43.3119760" lon="-3.0370840">
        <ele>54.8</ele>
        <time>2018-09-04T07:12:47Z</time>
      </trkpt>
      <trkpt lat="43.3119990" lon="-3.0371930">
        <ele>54.2</ele>
        <time>2018-09-04T07:12:48Z</time>
      </trkpt>
      <trkpt lat="43.3120240" lon="-3.0373040">
        <ele>53.6</ele>
        <time>2018-09-04T07:12:49Z</time>
      </trkpt>
      <trkpt lat="43.3120470" lon="-3.0374180">
        <ele>53.2</ele>
        <time>2018-09-04T07:12:50Z</time>
      </trkpt>
      <trkpt lat="43.3120930" lon="-3.0376590">
        <ele>52.2</ele>
        <time>2018-09-04T07:12:52Z</time>
      </trkpt>
      <trkpt lat="43.3122080" lon="-3.0381900">
        <ele>52.4</ele>
        <time>2018-09-04T07:12:57Z</time>
      </trkpt>
      <trkpt lat="43.3122760" lon="-3.0385400">
        <ele>53.0</ele>
        <time>2018-09-04T07:13:01Z</time>
      </trkpt>
      <trkpt lat="43.3123100" lon="-3.0386990">
        <ele>53.4</ele>
        <time>2018-09-04T07:13:03Z</time>
      </trkpt>
      <trkpt lat="43.3123360" lon="-3.0388500">
        <ele>53.8</ele>
        <time>2018-09-04T07:13:05Z</time>
      </trkpt>
      <trkpt lat="43.3123880" lon="-3.0391350">
        <ele>54.4</ele>
        <time>2018-09-04T07:13:09Z</time>
      </trkpt>
      <trkpt lat="43.3123980" lon="-3.0392070">
        <ele>54.6</ele>
        <time>2018-09-04T07:13:10Z</time>
      </trkpt>
      <trkpt lat="43.3124470" lon="-3.0394820">
        <ele>55.2</ele>
        <time>2018-09-04T07:13:14Z</time>
      </trkpt>
      <trkpt lat="43.3124790" lon="-3.0396140">
        <ele>55.6</ele>
        <time>2018-09-04T07:13:16Z</time>
      </trkpt>
      <trkpt lat="43.3125130" lon="-3.0397470">
        <ele>56.0</ele>
        <time>2018-09-04T07:13:18Z</time>
      </trkpt>
      <trkpt lat="43.3126550" lon="-3.0402700">
        <ele>56.8</ele>
        <time>2018-09-04T07:13:26Z</time>
      </trkpt>
      <trkpt lat="43.3126740" lon="-3.0403320">
        <ele>56.2</ele>
        <time>2018-09-04T07:13:27Z</time>
      </trkpt>
      <trkpt lat="43.3127110" lon="-3.0404550">
        <ele>55.4</ele>
        <time>2018-09-04T07:13:29Z</time>
      </trkpt>
      <trkpt lat="43.3127880" lon="-3.0406970">
        <ele>56.8</ele>
        <time>2018-09-04T07:13:33Z</time>
      </trkpt>
      <trkpt lat="43.3128490" lon="-3.0408720">
        <ele>57.8</ele>
        <time>2018-09-04T07:13:36Z</time>
      </trkpt>
      <trkpt lat="43.3128660" lon="-3.0409270">
        <ele>58.2</ele>
        <time>2018-09-04T07:13:37Z</time>
      </trkpt>
      <trkpt lat="43.3129180" lon="-3.0410840">
        <ele>58.8</ele>
        <time>2018-09-04T07:13:40Z</time>
      </trkpt>
      <trkpt lat="43.3129980" lon="-3.0413300">
        <ele>60.0</ele>
        <time>2018-09-04T07:13:45Z</time>
      </trkpt>
      <trkpt lat="43.3130130" lon="-3.0413790">
        <ele>60.2</ele>
        <time>2018-09-04T07:13:46Z</time>
      </trkpt>
      <trkpt lat="43.3130750" lon="-3.0415830">
        <ele>61.0</ele>
        <time>2018-09-04T07:13:50Z</time>
      </trkpt>
      <trkpt lat="43.3131360" lon="-3.0417900">
        <ele>61.8</ele>
        <time>2018-09-04T07:13:54Z</time>
      </trkpt>
      <trkpt lat="43.3131520" lon="-3.0418420">
        <ele>62.0</ele>
        <time>2018-09-04T07:13:55Z</time>
      </trkpt>
      <trkpt lat="43.3131680" lon="-3.0418940">
        <ele>62.2</ele>
        <time>2018-09-04T07:13:56Z</time>
      </trkpt>
      <trkpt lat="43.3132530" lon="-3.0421460">
        <ele>63.4</ele>
        <time>2018-09-04T07:14:01Z</time>
      </trkpt>
      <trkpt lat="43.3133030" lon="-3.0423040">
        <ele>64.0</ele>
        <time>2018-09-04T07:14:04Z</time>
      </trkpt>
      <trkpt lat="43.3133350" lon="-3.0424100">
        <ele>64.6</ele>
        <time>2018-09-04T07:14:06Z</time>
      </trkpt>
      <trkpt lat="43.3134270" lon="-3.0426750">
        <ele>65.2</ele>
        <time>2018-09-04T07:14:11Z</time>
      </trkpt>
      <trkpt lat="43.3134620" lon="-3.0427860">
        <ele>65.2</ele>
        <time>2018-09-04T07:14:13Z</time>
      </trkpt>
      <trkpt lat="43.3135810" lon="-3.0432820">
        <ele>65.4</ele>
        <time>2018-09-04T07:14:21Z</time>
      </trkpt>
      <trkpt lat="43.3136250" lon="-3.0436210">
        <ele>65.4</ele>
        <time>2018-09-04T07:14:26Z</time>
      </trkpt>
      <trkpt lat="43.3136390" lon="-3.0438390">
        <ele>65.4</ele>
        <time>2018-09-04T07:14:29Z</time>
      </trkpt>
      <trkpt lat="43.3136390" lon="-3.0441290">
        <ele>65.6</ele>
        <time>2018-09-04T07:14:33Z</time>
      </trkpt>
      <trkpt lat="43.3136190" lon="-3.0443500">
        <ele>65.6</ele>
        <time>2018-09-04T07:14:36Z</time>
      </trkpt>
      <trkpt lat="43.3136030" lon="-3.0445640">
        <ele>65.6</ele>
        <time>2018-09-04T07:14:39Z</time>
      </trkpt>
      <trkpt lat="43.3135800" lon="-3.0447840">
        <ele>65.2</ele>
        <time>2018-09-04T07:14:42Z</time>
      </trkpt>
      <trkpt lat="43.3135560" lon="-3.0453030">
        <ele>66.0</ele>
        <time>2018-09-04T07:14:49Z</time>
      </trkpt>
      <trkpt lat="43.3135700" lon="-3.0455300">
        <ele>66.2</ele>
        <time>2018-09-04T07:14:52Z</time>
      </trkpt>
      <trkpt lat="43.3136200" lon="-3.0458250">
        <ele>66.6</ele>
        <time>2018-09-04T07:14:56Z</time>
      </trkpt>
      <trkpt lat="43.3136380" lon="-3.0458930">
        <ele>66.8</ele>
        <time>2018-09-04T07:14:57Z</time>
      </trkpt>
      <trkpt lat="43.3137640" lon="-3.0462070">
        <ele>67.4</ele>
        <time>2018-09-04T07:15:02Z</time>
      </trkpt>
      <trkpt lat="43.3138750" lon="-3.0464430">
        <ele>67.8</ele>
        <time>2018-09-04T07:15:06Z</time>
      </trkpt>
      <trkpt lat="43.3140130" lon="-3.0467410">
        <ele>68.2</ele>
        <time>2018-09-04T07:15:11Z</time>
      </trkpt>
      <trkpt lat="43.3141200" lon="-3.0470640">
        <ele>69.0</ele>
        <time>2018-09-04T07:15:16Z</time>
      </trkpt>
      <trkpt lat="43.3141710" lon="-3.0472590">
        <ele>69.2</ele>
        <time>2018-09-04T07:15:19Z</time>
      </trkpt>
      <trkpt lat="43.3142230" lon="-3.0475860">
        <ele>70.0</ele>
        <time>2018-09-04T07:15:24Z</time>
      </trkpt>
      <trkpt lat="43.3142290" lon="-3.0476530">
        <ele>70.0</ele>
        <time>2018-09-04T07:15:25Z</time>
      </trkpt>
      <trkpt lat="43.3142300" lon="-3.0477230">
        <ele>70.2</ele>
        <time>2018-09-04T07:15:26Z</time>
      </trkpt>
      <trkpt lat="43.3142200" lon="-3.0481360">
        <ele>70.6</ele>
        <time>2018-09-04T07:15:32Z</time>
      </trkpt>
      <trkpt lat="43.3141690" lon="-3.0484970">
        <ele>71.2</ele>
        <time>2018-09-04T07:15:37Z</time>
      </trkpt>
      <trkpt lat="43.3141330" lon="-3.0487070">
        <ele>71.4</ele>
        <time>2018-09-04T07:15:40Z</time>
      </trkpt>
      <trkpt lat="43.3140970" lon="-3.0491310">
        <ele>72.0</ele>
        <time>2018-09-04T07:15:46Z</time>
      </trkpt>
      <trkpt lat="43.3141040" lon="-3.0492030">
        <ele>72.2</ele>
        <time>2018-09-04T07:15:47Z</time>
      </trkpt>
      <trkpt lat="43.3141650" lon="-3.0496850">
        <ele>73.0</ele>
        <time>2018-09-04T07:15:54Z</time>
      </trkpt>
      <trkpt lat="43.3141830" lon="-3.0497510">
        <ele>73.2</ele>
        <time>2018-09-04T07:15:55Z</time>
      </trkpt>
      <trkpt lat="43.3142390" lon="-3.0499440">
        <ele>73.4</ele>
        <time>2018-09-04T07:15:58Z</time>
      </trkpt>
      <trkpt lat="43.3143190" lon="-3.0501300">
        <ele>73.6</ele>
        <time>2018-09-04T07:16:01Z</time>
      </trkpt>
      <trkpt lat="43.3143540" lon="-3.0501840">
        <ele>73.6</ele>
        <time>2018-09-04T07:16:02Z</time>
      </trkpt>
      <trkpt lat="43.3145490" lon="-3.0505260">
        <ele>74.4</ele>
        <time>2018-09-04T07:16:08Z</time>
      </trkpt>
      <trkpt lat="43.3147640" lon="-3.0508150">
        <ele>75.2</ele>
        <time>2018-09-04T07:16:14Z</time>
      </trkpt>
      <trkpt lat="43.3148650" lon="-3.0509720">
        <ele>75.4</ele>
        <time>2018-09-04T07:16:17Z</time>
      </trkpt>
      <trkpt lat="43.3149470" lon="-3.0511490">
        <ele>75.8</ele>
        <time>2018-09-04T07:16:20Z</time>
      </trkpt>
      <trkpt lat="43.3149660" lon="-3.0512120">
        <ele>75.8</ele>
        <time>2018-09-04T07:16:21Z</time>
      </trkpt>
      <trkpt lat="43.3150640" lon="-3.0515230">
        <ele>76.4</ele>
        <time>2018-09-04T07:16:26Z</time>
      </trkpt>
      <trkpt lat="43.3150760" lon="-3.0515920">
        <ele>76.4</ele>
        <time>2018-09-04T07:16:27Z</time>
      </trkpt>
      <trkpt lat="43.3150980" lon="-3.0516610">
        <ele>76.6</ele>
        <time>2018-09-04T07:16:28Z</time>
      </trkpt>
      <trkpt lat="43.3151240" lon="-3.0518040">
        <ele>76.8</ele>
        <time>2018-09-04T07:16:30Z</time>
      </trkpt>
      <trkpt lat="43.3151320" lon="-3.0520210">
        <ele>77.0</ele>
        <time>2018-09-04T07:16:33Z</time>
      </trkpt>
      <trkpt lat="43.3151340" lon="-3.0520930">
        <ele>77.2</ele>
        <time>2018-09-04T07:16:34Z</time>
      </trkpt>
      <trkpt lat="43.3151170" lon="-3.0523020">
        <ele>77.6</ele>
        <time>2018-09-04T07:16:37Z</time>
      </trkpt>
      <trkpt lat="43.3151040" lon="-3.0524480">
        <ele>77.8</ele>
        <time>2018-09-04T07:16:39Z</time>
      </trkpt>
      <trkpt lat="43.3150900" lon="-3.0525170">
        <ele>77.8</ele>
        <time>2018-09-04T07:16:40Z</time>
      </trkpt>
      <trkpt lat="43.3149850" lon="-3.0528400">
        <ele>78.0</ele>
        <time>2018-09-04T07:16:45Z</time>
      </trkpt>
      <trkpt lat="43.3148870" lon="-3.0530800">
        <ele>78.4</ele>
        <time>2018-09-04T07:16:49Z</time>
      </trkpt>
      <trkpt lat="43.3148670" lon="-3.0531510">
        <ele>78.6</ele>
        <time>2018-09-04T07:16:50Z</time>
      </trkpt>
      <trkpt lat="43.3148440" lon="-3.0532160">
        <ele>78.6</ele>
        <time>2018-09-04T07:16:51Z</time>
      </trkpt>
      <trkpt lat="43.3146720" lon="-3.0537090">
        <ele>79.6</ele>
        <time>2018-09-04T07:16:59Z</time>
      </trkpt>
      <trkpt lat="43.3146510" lon="-3.0539000">
        <ele>79.6</ele>
        <time>2018-09-04T07:17:02Z</time>
      </trkpt>
      <trkpt lat="43.3146510" lon="-3.0540290">
        <ele>80.0</ele>
        <time>2018-09-04T07:17:04Z</time>
      </trkpt>
      <trkpt lat="43.3146600" lon="-3.0540900">
        <ele>80.0</ele>
        <time>2018-09-04T07:17:05Z</time>
      </trkpt>
      <trkpt lat="43.3147000" lon="-3.0543520">
        <ele>80.6</ele>
        <time>2018-09-04T07:17:09Z</time>
      </trkpt>
      <trkpt lat="43.3147160" lon="-3.0544130">
        <ele>80.6</ele>
        <time>2018-09-04T07:17:10Z</time>
      </trkpt>
      <trkpt lat="43.3148240" lon="-3.0547070">
        <ele>81.2</ele>
        <time>2018-09-04T07:17:15Z</time>
      </trkpt>
      <trkpt lat="43.3148790" lon="-3.0548120">
        <ele>81.2</ele>
        <time>2018-09-04T07:17:17Z</time>
      </trkpt>
      <trkpt lat="43.3149410" lon="-3.0549100">
        <ele>81.6</ele>
        <time>2018-09-04T07:17:19Z</time>
      </trkpt>
      <trkpt lat="43.3149840" lon="-3.0549470">
        <ele>81.6</ele>
        <time>2018-09-04T07:17:20Z</time>
      </trkpt>
      <trkpt lat="43.3150230" lon="-3.0549800">
        <ele>81.8</ele>
        <time>2018-09-04T07:17:21Z</time>
      </trkpt>
      <trkpt lat="43.3151070" lon="-3.0550440">
        <ele>82.0</ele>
        <time>2018-09-04T07:17:23Z</time>
      </trkpt>
      <trkpt lat="43.3153320" lon="-3.0551620">
        <ele>82.6</ele>
        <time>2018-09-04T07:17:28Z</time>
      </trkpt>
      <trkpt lat="43.3153800" lon="-3.0551770">
        <ele>82.8</ele>
        <time>2018-09-04T07:17:29Z</time>
      </trkpt>
      <trkpt lat="43.3156610" lon="-3.0552750">
        <ele>83.2</ele>
        <time>2018-09-04T07:17:35Z</time>
      </trkpt>
      <trkpt lat="43.3158870" lon="-3.0553740">
        <ele>83.4</ele>
        <time>2018-09-04T07:17:40Z</time>
      </trkpt>
      <trkpt lat="43.3159660" lon="-3.0554290">
        <ele>84.0</ele>
        <time>2018-09-04T07:17:42Z</time>
      </trkpt>
      <trkpt lat="43.3162350" lon="-3.0556970">
        <ele>84.6</ele>
        <time>2018-09-04T07:17:49Z</time>
      </trkpt>
      <trkpt lat="43.3163880" lon="-3.0559350">
        <ele>85.0</ele>
        <time>2018-09-04T07:17:54Z</time>
      </trkpt>
      <trkpt lat="43.3164170" lon="-3.0559860">
        <ele>85.0</ele>
        <time>2018-09-04T07:17:55Z</time>
      </trkpt>
      <trkpt lat="43.3165430" lon="-3.0563450">
        <ele>85.4</ele>
        <time>2018-09-04T07:18:01Z</time>
      </trkpt>
      <trkpt lat="43.3166410" lon="-3.0566340">
        <ele>86.0</ele>
        <time>2018-09-04T07:18:06Z</time>
      </trkpt>
      <trkpt lat="43.3167160" lon="-3.0568660">
        <ele>87.4</ele>
        <time>2018-09-04T07:18:10Z</time>
      </trkpt>
      <trkpt lat="43.3167730" lon="-3.0570140">
        <ele>87.4</ele>
        <time>2018-09-04T07:18:13Z</time>
      </trkpt>
      <trkpt lat="43.3168450" lon="-3.0572360">
        <ele>88.4</ele>
        <time>2018-09-04T07:18:18Z</time>
      </trkpt>
      <trkpt lat="43.3168970" lon="-3.0573690">
        <ele>89.2</ele>
        <time>2018-09-04T07:18:21Z</time>
      </trkpt>
      <trkpt lat="43.3169310" lon="-3.0574540">
        <ele>89.6</ele>
        <time>2018-09-04T07:18:23Z</time>
      </trkpt>
      <trkpt lat="43.3170080" lon="-3.0576690">
        <ele>91.0</ele>
        <time>2018-09-04T07:18:28Z</time>
      </trkpt>
      <trkpt lat="43.3170710" lon="-3.0578420">
        <ele>92.0</ele>
        <time>2018-09-04T07:18:32Z</time>
      </trkpt>
      <trkpt lat="43.3170850" lon="-3.0579360">
        <ele>92.4</ele>
        <time>2018-09-04T07:18:34Z</time>
      </trkpt>
      <trkpt lat="43.3170890" lon="-3.0580810">
        <ele>93.2</ele>
        <time>2018-09-04T07:18:37Z</time>
      </trkpt>
      <trkpt lat="43.3170780" lon="-3.0582760">
        <ele>94.2</ele>
        <time>2018-09-04T07:18:41Z</time>
      </trkpt>
      <trkpt lat="43.3170510" lon="-3.0585000">
        <ele>95.4</ele>
        <time>2018-09-04T07:18:46Z</time>
      </trkpt>
      <trkpt lat="43.3170280" lon="-3.0586780">
        <ele>96.2</ele>
        <time>2018-09-04T07:18:50Z</time>
      </trkpt>
      <trkpt lat="43.3170240" lon="-3.0587230">
        <ele>96.6</ele>
        <time>2018-09-04T07:18:51Z</time>
      </trkpt>
      <trkpt lat="43.3170110" lon="-3.0589010">
        <ele>97.6</ele>
        <time>2018-09-04T07:18:55Z</time>
      </trkpt>
      <trkpt lat="43.3169990" lon="-3.0590310">
        <ele>98.2</ele>
        <time>2018-09-04T07:18:58Z</time>
      </trkpt>
      <trkpt lat="43.3169840" lon="-3.0591170">
        <ele>98.8</ele>
        <time>2018-09-04T07:19:00Z</time>
      </trkpt>
      <trkpt lat="43.3170020" lon="-3.0592910">
        <ele>99.2</ele>
        <time>2018-09-04T07:19:04Z</time>
      </trkpt>
      <trkpt lat="43.3170320" lon="-3.0593230">
        <ele>99.0</ele>
        <time>2018-09-04T07:19:05Z</time>
      </trkpt>
      <trkpt lat="43.3171030" lon="-3.0593830">
        <ele>98.8</ele>
        <time>2018-09-04T07:19:07Z</time>
      </trkpt>
      <trkpt lat="43.3171800" lon="-3.0594380">
        <ele>98.6</ele>
        <time>2018-09-04T07:19:09Z</time>
      </trkpt>
      <trkpt lat="43.3173880" lon="-3.0596040">
        <ele>98.4</ele>
        <time>2018-09-04T07:19:14Z</time>
      </trkpt>
      <trkpt lat="43.3174720" lon="-3.0596690">
        <ele>98.0</ele>
        <time>2018-09-04T07:19:16Z</time>
      </trkpt>
      <trkpt lat="43.3175510" lon="-3.0597370">
        <ele>96.6</ele>
        <time>2018-09-04T07:19:18Z</time>
      </trkpt>
      <trkpt lat="43.3176240" lon="-3.0598230">
        <ele>98.4</ele>
        <time>2018-09-04T07:19:20Z</time>
      </trkpt>
      <trkpt lat="43.3176460" lon="-3.0598830">
        <ele>97.6</ele>
        <time>2018-09-04T07:19:21Z</time>
      </trkpt>
      <trkpt lat="43.3176060" lon="-3.0601050">
        <ele>97.2</ele>
        <time>2018-09-04T07:19:24Z</time>
      </trkpt>
      <trkpt lat="43.3175340" lon="-3.0602530">
        <ele>96.2</ele>
        <time>2018-09-04T07:19:26Z</time>
      </trkpt>
      <trkpt lat="43.3175050" lon="-3.0603330">
        <ele>95.8</ele>
        <time>2018-09-04T07:19:27Z</time>
      </trkpt>
      <trkpt lat="43.3174740" lon="-3.0604210">
        <ele>95.4</ele>
        <time>2018-09-04T07:19:28Z</time>
      </trkpt>
      <trkpt lat="43.3174260" lon="-3.0606110">
        <ele>94.8</ele>
        <time>2018-09-04T07:19:30Z</time>
      </trkpt>
      <trkpt lat="43.3174110" lon="-3.0607090">
        <ele>94.4</ele>
        <time>2018-09-04T07:19:31Z</time>
      </trkpt>
      <trkpt lat="43.3173760" lon="-3.0608980">
        <ele>94.0</ele>
        <time>2018-09-04T07:19:33Z</time>
      </trkpt>
      <trkpt lat="43.3173490" lon="-3.0610670">
        <ele>94.4</ele>
        <time>2018-09-04T07:19:35Z</time>
      </trkpt>
      <trkpt lat="43.3173140" lon="-3.0613040">
        <ele>94.6</ele>
        <time>2018-09-04T07:19:38Z</time>
      </trkpt>
      <trkpt lat="43.3172740" lon="-3.0615920">
        <ele>95.2</ele>
        <time>2018-09-04T07:19:42Z</time>
      </trkpt>
      <trkpt lat="43.3172670" lon="-3.0616610">
        <ele>95.6</ele>
        <time>2018-09-04T07:19:43Z</time>
      </trkpt>
      <trkpt lat="43.3172600" lon="-3.0617290">
        <ele>95.8</ele>
        <time>2018-09-04T07:19:44Z</time>
      </trkpt>
      <trkpt lat="43.3172430" lon="-3.0619300">
        <ele>96.4</ele>
        <time>2018-09-04T07:19:47Z</time>
      </trkpt>
      <trkpt lat="43.3172390" lon="-3.0619970">
        <ele>96.8</ele>
        <time>2018-09-04T07:19:48Z</time>
      </trkpt>
      <trkpt lat="43.3172360" lon="-3.0621340">
        <ele>97.2</ele>
        <time>2018-09-04T07:19:50Z</time>
      </trkpt>
      <trkpt lat="43.3172430" lon="-3.0624010">
        <ele>97.6</ele>
        <time>2018-09-04T07:19:54Z</time>
      </trkpt>
      <trkpt lat="43.3172460" lon="-3.0624680">
        <ele>97.8</ele>
        <time>2018-09-04T07:19:55Z</time>
      </trkpt>
      <trkpt lat="43.3173250" lon="-3.0629370">
        <ele>98.0</ele>
        <time>2018-09-04T07:20:02Z</time>
      </trkpt>
      <trkpt lat="43.3173950" lon="-3.0631350">
        <ele>97.8</ele>
        <time>2018-09-04T07:20:05Z</time>
      </trkpt>
      <trkpt lat="43.3175120" lon="-3.0632940">
        <ele>97.6</ele>
        <time>2018-09-04T07:20:08Z</time>
      </trkpt>
      <trkpt lat="43.3176020" lon="-3.0633840">
        <ele>97.6</ele>
        <time>2018-09-04T07:20:10Z</time>
      </trkpt>
      <trkpt lat="43.3176790" lon="-3.0634780">
        <ele>97.8</ele>
        <time>2018-09-04T07:20:12Z</time>
      </trkpt>
      <trkpt lat="43.3177660" lon="-3.0635690">
        <ele>98.2</ele>
        <time>2018-09-04T07:20:14Z</time>
      </trkpt>
      <trkpt lat="43.3180630" lon="-3.0638600">
        <ele>98.8</ele>
        <time>2018-09-04T07:20:21Z</time>
      </trkpt>
      <trkpt lat="43.3181430" lon="-3.0639450">
        <ele>99.0</ele>
        <time>2018-09-04T07:20:23Z</time>
      </trkpt>
      <trkpt lat="43.3183890" lon="-3.0641900">
        <ele>100.0</ele>
        <time>2018-09-04T07:20:29Z</time>
      </trkpt>
      <trkpt lat="43.3185530" lon="-3.0643680">
        <ele>100.4</ele>
        <time>2018-09-04T07:20:33Z</time>
      </trkpt>
      <trkpt lat="43.3187880" lon="-3.0646600">
        <ele>101.0</ele>
        <time>2018-09-04T07:20:39Z</time>
      </trkpt>
      <trkpt lat="43.3188560" lon="-3.0647710">
        <ele>101.4</ele>
        <time>2018-09-04T07:20:41Z</time>
      </trkpt>
      <trkpt lat="43.3190000" lon="-3.0651650">
        <ele>102.0</ele>
        <time>2018-09-04T07:20:47Z</time>
      </trkpt>
      <trkpt lat="43.3191260" lon="-3.0657080">
        <ele>103.2</ele>
        <time>2018-09-04T07:20:55Z</time>
      </trkpt>
      <trkpt lat="43.3191430" lon="-3.0657750">
        <ele>103.4</ele>
        <time>2018-09-04T07:20:56Z</time>
      </trkpt>
      <trkpt lat="43.3192510" lon="-3.0660990">
        <ele>104.0</ele>
        <time>2018-09-04T07:21:01Z</time>
      </trkpt>
      <trkpt lat="43.3193110" lon="-3.0662160">
        <ele>104.2</ele>
        <time>2018-09-04T07:21:03Z</time>
      </trkpt>
      <trkpt lat="43.3193430" lon="-3.0662720">
        <ele>104.2</ele>
        <time>2018-09-04T07:21:04Z</time>
      </trkpt>
      <trkpt lat="43.3194900" lon="-3.0664620">
        <ele>104.8</ele>
        <time>2018-09-04T07:21:08Z</time>
      </trkpt>
      <trkpt lat="43.3196150" lon="-3.0665740">
        <ele>105.2</ele>
        <time>2018-09-04T07:21:11Z</time>
      </trkpt>
      <trkpt lat="43.3196560" lon="-3.0666060">
        <ele>105.4</ele>
        <time>2018-09-04T07:21:12Z</time>
      </trkpt>
      <trkpt lat="43.3197450" lon="-3.0666670">
        <ele>105.4</ele>
        <time>2018-09-04T07:21:14Z</time>
      </trkpt>
      <trkpt lat="43.3198930" lon="-3.0667350">
        <ele>106.0</ele>
        <time>2018-09-04T07:21:17Z</time>
      </trkpt>
      <trkpt lat="43.3200330" lon="-3.0667930">
        <ele>106.4</ele>
        <time>2018-09-04T07:21:20Z</time>
      </trkpt>
      <trkpt lat="43.3203110" lon="-3.0669310">
        <ele>107.0</ele>
        <time>2018-09-04T07:21:26Z</time>
      </trkpt>
      <trkpt lat="43.3204450" lon="-3.0670200">
        <ele>107.4</ele>
        <time>2018-09-04T07:21:29Z</time>
      </trkpt>
      <trkpt lat="43.3205270" lon="-3.0670940">
        <ele>107.6</ele>
        <time>2018-09-04T07:21:31Z</time>
      </trkpt>
      <trkpt lat="43.3206020" lon="-3.0671740">
        <ele>107.8</ele>
        <time>2018-09-04T07:21:33Z</time>
      </trkpt>
      <trkpt lat="43.3206950" lon="-3.0673190">
        <ele>108.0</ele>
        <time>2018-09-04T07:21:36Z</time>
      </trkpt>
      <trkpt lat="43.3207450" lon="-3.0674330">
        <ele>108.4</ele>
        <time>2018-09-04T07:21:38Z</time>
      </trkpt>
      <trkpt lat="43.3207640" lon="-3.0674920">
        <ele>108.4</ele>
        <time>2018-09-04T07:21:39Z</time>
      </trkpt>
      <trkpt lat="43.3208680" lon="-3.0679270">
        <ele>109.6</ele>
        <time>2018-09-04T07:21:46Z</time>
      </trkpt>
      <trkpt lat="43.3208750" lon="-3.0679870">
        <ele>109.6</ele>
        <time>2018-09-04T07:21:47Z</time>
      </trkpt>
      <trkpt lat="43.3209710" lon="-3.0684550">
        <ele>110.4</ele>
        <time>2018-09-04T07:21:54Z</time>
      </trkpt>
      <trkpt lat="43.3209870" lon="-3.0685230">
        <ele>110.6</ele>
        <time>2018-09-04T07:21:55Z</time>
      </trkpt>
      <trkpt lat="43.3210790" lon="-3.0689220">
        <ele>111.2</ele>
        <time>2018-09-04T07:22:01Z</time>
      </trkpt>
      <trkpt lat="43.3211110" lon="-3.0690530">
        <ele>111.6</ele>
        <time>2018-09-04T07:22:03Z</time>
      </trkpt>
      <trkpt lat="43.3212150" lon="-3.0695030">
        <ele>112.6</ele>
        <time>2018-09-04T07:22:10Z</time>
      </trkpt>
      <trkpt lat="43.3212390" lon="-3.0699890">
        <ele>113.2</ele>
        <time>2018-09-04T07:22:17Z</time>
      </trkpt>
      <trkpt lat="43.3212320" lon="-3.0700550">
        <ele>113.4</ele>
        <time>2018-09-04T07:22:18Z</time>
      </trkpt>
      <trkpt lat="43.3211990" lon="-3.0702410">
        <ele>113.8</ele>
        <time>2018-09-04T07:22:21Z</time>
      </trkpt>
      <trkpt lat="43.3211500" lon="-3.0704880">
        <ele>114.0</ele>
        <time>2018-09-04T07:22:25Z</time>
      </trkpt>
      <trkpt lat="43.3211350" lon="-3.0705430">
        <ele>114.2</ele>
        <time>2018-09-04T07:22:26Z</time>
      </trkpt>
      <trkpt lat="43.3210900" lon="-3.0707140">
        <ele>114.8</ele>
        <time>2018-09-04T07:22:29Z</time>
      </trkpt>
      <trkpt lat="43.3210710" lon="-3.0707720">
        <ele>115.0</ele>
        <time>2018-09-04T07:22:30Z</time>
      </trkpt>
      <trkpt lat="43.3210270" lon="-3.0708820">
        <ele>115.2</ele>
        <time>2018-09-04T07:22:32Z</time>
      </trkpt>
      <trkpt lat="43.3208980" lon="-3.0711400">
        <ele>116.0</ele>
        <time>2018-09-04T07:22:37Z</time>
      </trkpt>
      <trkpt lat="43.3208460" lon="-3.0712330">
        <ele>116.2</ele>
        <time>2018-09-04T07:22:39Z</time>
      </trkpt>
      <trkpt lat="43.3207560" lon="-3.0714120">
        <ele>117.0</ele>
        <time>2018-09-04T07:22:43Z</time>
      </trkpt>
      <trkpt lat="43.3207310" lon="-3.0715080">
        <ele>117.8</ele>
        <time>2018-09-04T07:22:45Z</time>
      </trkpt>
      <trkpt lat="43.3207410" lon="-3.0716060">
        <ele>118.2</ele>
        <time>2018-09-04T07:22:47Z</time>
      </trkpt>
      <trkpt lat="43.3208000" lon="-3.0716760">
        <ele>118.8</ele>
        <time>2018-09-04T07:22:49Z</time>
      </trkpt>
      <trkpt lat="43.3208890" lon="-3.0716920">
        <ele>119.4</ele>
        <time>2018-09-04T07:22:51Z</time>
      </trkpt>
      <trkpt lat="43.3209330" lon="-3.0716900">
        <ele>119.6</ele>
        <time>2018-09-04T07:22:52Z</time>
      </trkpt>
      <trkpt lat="43.3210200" lon="-3.0716730">
        <ele>120.0</ele>
        <time>2018-09-04T07:22:54Z</time>
      </trkpt>
      <trkpt lat="43.3211530" lon="-3.0716390">
        <ele>120.4</ele>
        <time>2018-09-04T07:22:57Z</time>
      </trkpt>
      <trkpt lat="43.3212440" lon="-3.0716110">
        <ele>120.6</ele>
        <time>2018-09-04T07:22:59Z</time>
      </trkpt>
      <trkpt lat="43.3213380" lon="-3.0715600">
        <ele>120.6</ele>
        <time>2018-09-04T07:23:01Z</time>
      </trkpt>
      <trkpt lat="43.3214650" lon="-3.0714430">
        <ele>120.2</ele>
        <time>2018-09-04T07:23:04Z</time>
      </trkpt>
      <trkpt lat="43.3216480" lon="-3.0711690">
        <ele>120.2</ele>
        <time>2018-09-04T07:23:09Z</time>
      </trkpt>
      <trkpt lat="43.3216760" lon="-3.0711000">
        <ele>120.0</ele>
        <time>2018-09-04T07:23:10Z</time>
      </trkpt>
      <trkpt lat="43.3217470" lon="-3.0707870">
        <ele>119.4</ele>
        <time>2018-09-04T07:23:14Z</time>
      </trkpt>
      <trkpt lat="43.3217730" lon="-3.0705280">
        <ele>118.6</ele>
        <time>2018-09-04T07:23:17Z</time>
      </trkpt>
      <trkpt lat="43.3218390" lon="-3.0704080">
        <ele>119.4</ele>
        <time>2018-09-04T07:23:19Z</time>
      </trkpt>
      <trkpt lat="43.3219880" lon="-3.0703690">
        <ele>120.4</ele>
        <time>2018-09-04T07:23:22Z</time>
      </trkpt>
      <trkpt lat="43.3220270" lon="-3.0703870">
        <ele>121.2</ele>
        <time>2018-09-04T07:23:23Z</time>
      </trkpt>
      <trkpt lat="43.3220720" lon="-3.0704510">
        <ele>122.4</ele>
        <time>2018-09-04T07:23:25Z</time>
      </trkpt>
      <trkpt lat="43.3220870" lon="-3.0704860">
        <ele>122.8</ele>
        <time>2018-09-04T07:23:26Z</time>
      </trkpt>
      <trkpt lat="43.3221170" lon="-3.0705550">
        <ele>123.4</ele>
        <time>2018-09-04T07:23:28Z</time>
      </trkpt>
      <trkpt lat="43.3221810" lon="-3.0706900">
        <ele>124.8</ele>
        <time>2018-09-04T07:23:32Z</time>
      </trkpt>
      <trkpt lat="43.3222180" lon="-3.0708200">
        <ele>125.8</ele>
        <time>2018-09-04T07:23:36Z</time>
      </trkpt>
      <trkpt lat="43.3222300" lon="-3.0708900">
        <ele>126.2</ele>
        <time>2018-09-04T07:23:38Z</time>
      </trkpt>
      <trkpt lat="43.3222500" lon="-3.0710000">
        <ele>126.8</ele>
        <time>2018-09-04T07:23:41Z</time>
      </trkpt>
      <trkpt lat="43.3222560" lon="-3.0711010">
        <ele>128.0</ele>
        <time>2018-09-04T07:23:44Z</time>
      </trkpt>
      <trkpt lat="43.3222230" lon="-3.0714430">
        <ele>128.6</ele>
        <time>2018-09-04T07:23:53Z</time>
      </trkpt>
      <trkpt lat="43.3221960" lon="-3.0715630">
        <ele>129.0</ele>
        <time>2018-09-04T07:23:56Z</time>
      </trkpt>
      <trkpt lat="43.3221280" lon="-3.0717840">
        <ele>129.4</ele>
        <time>2018-09-04T07:24:01Z</time>
      </trkpt>
      <trkpt lat="43.3220790" lon="-3.0719080">
        <ele>130.2</ele>
        <time>2018-09-04T07:24:04Z</time>
      </trkpt>
      <trkpt lat="43.3219750" lon="-3.0720490">
        <ele>130.0</ele>
        <time>2018-09-04T07:24:08Z</time>
      </trkpt>
      <trkpt lat="43.3218580" lon="-3.0721760">
        <ele>129.2</ele>
        <time>2018-09-04T07:24:11Z</time>
      </trkpt>
      <trkpt lat="43.3218290" lon="-3.0722460">
        <ele>128.6</ele>
        <time>2018-09-04T07:24:12Z</time>
      </trkpt>
      <trkpt lat="43.3218090" lon="-3.0723220">
        <ele>128.0</ele>
        <time>2018-09-04T07:24:13Z</time>
      </trkpt>
      <trkpt lat="43.3218060" lon="-3.0724890">
        <ele>126.6</ele>
        <time>2018-09-04T07:24:15Z</time>
      </trkpt>
      <trkpt lat="43.3218080" lon="-3.0725750">
        <ele>126.0</ele>
        <time>2018-09-04T07:24:16Z</time>
      </trkpt>
      <trkpt lat="43.3218080" lon="-3.0725750">
        <ele>125.8</ele>
        <time>2018-09-04T07:24:20Z</time>
      </trkpt>
      <trkpt lat="43.3219280" lon="-3.0732810">
        <ele>126.0</ele>
        <time>2018-09-04T07:24:23Z</time>
      </trkpt>
      <trkpt lat="43.3219750" lon="-3.0733640">
        <ele>126.2</ele>
        <time>2018-09-04T07:24:24Z</time>
      </trkpt>
      <trkpt lat="43.3220590" lon="-3.0735150">
        <ele>126.8</ele>
        <time>2018-09-04T07:24:26Z</time>
      </trkpt>
      <trkpt lat="43.3221590" lon="-3.0736330">
        <ele>127.6</ele>
        <time>2018-09-04T07:24:28Z</time>
      </trkpt>
      <trkpt lat="43.3223190" lon="-3.0738080">
        <ele>128.0</ele>
        <time>2018-09-04T07:24:31Z</time>
      </trkpt>
      <trkpt lat="43.3224280" lon="-3.0739310">
        <ele>128.2</ele>
        <time>2018-09-04T07:24:33Z</time>
      </trkpt>
      <trkpt lat="43.3225430" lon="-3.0740400">
        <ele>128.6</ele>
        <time>2018-09-04T07:24:35Z</time>
      </trkpt>
      <trkpt lat="43.3228500" lon="-3.0743470">
        <ele>129.6</ele>
        <time>2018-09-04T07:24:41Z</time>
      </trkpt>
      <trkpt lat="43.3228990" lon="-3.0743950">
        <ele>129.8</ele>
        <time>2018-09-04T07:24:42Z</time>
      </trkpt>
      <trkpt lat="43.3232670" lon="-3.0747830">
        <ele>130.6</ele>
        <time>2018-09-04T07:24:50Z</time>
      </trkpt>
      <trkpt lat="43.3233090" lon="-3.0748370">
        <ele>130.8</ele>
        <time>2018-09-04T07:24:51Z</time>
      </trkpt>
      <trkpt lat="43.3234960" lon="-3.0751000">
        <ele>131.4</ele>
        <time>2018-09-04T07:24:56Z</time>
      </trkpt>
      <trkpt lat="43.3236440" lon="-3.0753230">
        <ele>131.8</ele>
        <time>2018-09-04T07:25:00Z</time>
      </trkpt>
      <trkpt lat="43.3238300" lon="-3.0756350">
        <ele>131.4</ele>
        <time>2018-09-04T07:25:05Z</time>
      </trkpt>
      <trkpt lat="43.3239490" lon="-3.0758500">
        <ele>130.8</ele>
        <time>2018-09-04T07:25:08Z</time>
      </trkpt>
      <trkpt lat="43.3240680" lon="-3.0760920">
        <ele>129.8</ele>
        <time>2018-09-04T07:25:11Z</time>
      </trkpt>
      <trkpt lat="43.3241070" lon="-3.0761770">
        <ele>129.4</ele>
        <time>2018-09-04T07:25:12Z</time>
      </trkpt>
      <trkpt lat="43.3241930" lon="-3.0763500">
        <ele>128.8</ele>
        <time>2018-09-04T07:25:14Z</time>
      </trkpt>
      <trkpt lat="43.3242390" lon="-3.0764370">
        <ele>128.4</ele>
        <time>2018-09-04T07:25:15Z</time>
      </trkpt>
      <trkpt lat="43.3243320" lon="-3.0766120">
        <ele>127.4</ele>
        <time>2018-09-04T07:25:17Z</time>
      </trkpt>
      <trkpt lat="43.3243820" lon="-3.0766990">
        <ele>127.2</ele>
        <time>2018-09-04T07:25:18Z</time>
      </trkpt>
      <trkpt lat="43.3245490" lon="-3.0769380">
        <ele>125.6</ele>
        <time>2018-09-04T07:25:21Z</time>
      </trkpt>
      <trkpt lat="43.3246270" lon="-3.0769600">
        <ele>125.2</ele>
        <time>2018-09-04T07:25:22Z</time>
      </trkpt>
      <trkpt lat="43.3247760" lon="-3.0768810">
        <ele>124.8</ele>
        <time>2018-09-04T07:25:24Z</time>
      </trkpt>
      <trkpt lat="43.3248500" lon="-3.0766940">
        <ele>124.8</ele>
        <time>2018-09-04T07:25:26Z</time>
      </trkpt>
      <trkpt lat="43.3248790" lon="-3.0764820">
        <ele>124.6</ele>
        <time>2018-09-04T07:25:28Z</time>
      </trkpt>
      <trkpt lat="43.3249060" lon="-3.0762770">
        <ele>124.6</ele>
        <time>2018-09-04T07:25:30Z</time>
      </trkpt>
      <trkpt lat="43.3249210" lon="-3.0761800">
        <ele>124.8</ele>
        <time>2018-09-04T07:25:31Z</time>
      </trkpt>
      <trkpt lat="43.3250280" lon="-3.0756910">
        <ele>125.8</ele>
        <time>2018-09-04T07:25:37Z</time>
      </trkpt>
      <trkpt lat="43.3251270" lon="-3.0753920">
        <ele>126.8</ele>
        <time>2018-09-04T07:25:42Z</time>
      </trkpt>
      <trkpt lat="43.3251710" lon="-3.0752710">
        <ele>127.2</ele>
        <time>2018-09-04T07:25:44Z</time>
      </trkpt>
      <trkpt lat="43.3252210" lon="-3.0751510">
        <ele>127.6</ele>
        <time>2018-09-04T07:25:46Z</time>
      </trkpt>
      <trkpt lat="43.3252510" lon="-3.0750960">
        <ele>127.8</ele>
        <time>2018-09-04T07:25:47Z</time>
      </trkpt>
      <trkpt lat="43.3252870" lon="-3.0750450">
        <ele>128.0</ele>
        <time>2018-09-04T07:25:48Z</time>
      </trkpt>
      <trkpt lat="43.3254230" lon="-3.0749680">
        <ele>128.4</ele>
        <time>2018-09-04T07:25:51Z</time>
      </trkpt>
      <trkpt lat="43.3255570" lon="-3.0750010">
        <ele>129.0</ele>
        <time>2018-09-04T07:25:54Z</time>
      </trkpt>
      <trkpt lat="43.3255950" lon="-3.0750290">
        <ele>129.2</ele>
        <time>2018-09-04T07:25:55Z</time>
      </trkpt>
      <trkpt lat="43.3256810" lon="-3.0752230">
        <ele>129.8</ele>
        <time>2018-09-04T07:25:59Z</time>
      </trkpt>
      <trkpt lat="43.3256930" lon="-3.0752780">
        <ele>130.0</ele>
        <time>2018-09-04T07:26:00Z</time>
      </trkpt>
      <trkpt lat="43.3257760" lon="-3.0756470">
        <ele>131.2</ele>
        <time>2018-09-04T07:26:07Z</time>
      </trkpt>
      <trkpt lat="43.3258690" lon="-3.0760490">
        <ele>132.2</ele>
        <time>2018-09-04T07:26:15Z</time>
      </trkpt>
      <trkpt lat="43.3259380" lon="-3.0764110">
        <ele>133.0</ele>
        <time>2018-09-04T07:26:22Z</time>
      </trkpt>
      <trkpt lat="43.3259600" lon="-3.0765170">
        <ele>133.2</ele>
        <time>2018-09-04T07:26:24Z</time>
      </trkpt>
      <trkpt lat="43.3259730" lon="-3.0765710">
        <ele>133.4</ele>
        <time>2018-09-04T07:26:25Z</time>
      </trkpt>
      <trkpt lat="43.3260180" lon="-3.0767350">
        <ele>133.4</ele>
        <time>2018-09-04T07:26:28Z</time>
      </trkpt>
      <trkpt lat="43.3261450" lon="-3.0771590">
        <ele>134.4</ele>
        <time>2018-09-04T07:26:36Z</time>
      </trkpt>
      <trkpt lat="43.3263040" lon="-3.0774230">
        <ele>135.0</ele>
        <time>2018-09-04T07:26:42Z</time>
      </trkpt>
      <trkpt lat="43.3263380" lon="-3.0774620">
        <ele>135.0</ele>
        <time>2018-09-04T07:26:43Z</time>
      </trkpt>
      <trkpt lat="43.3264590" lon="-3.0775720">
        <ele>134.8</ele>
        <time>2018-09-04T07:26:46Z</time>
      </trkpt>
      <trkpt lat="43.3265070" lon="-3.0776080">
        <ele>134.8</ele>
        <time>2018-09-04T07:26:47Z</time>
      </trkpt>
      <trkpt lat="43.3268070" lon="-3.0778230">
        <ele>134.2</ele>
        <time>2018-09-04T07:26:53Z</time>
      </trkpt>
      <trkpt lat="43.3269090" lon="-3.0778880">
        <ele>134.0</ele>
        <time>2018-09-04T07:26:55Z</time>
      </trkpt>
      <trkpt lat="43.3270660" lon="-3.0779920">
        <ele>133.6</ele>
        <time>2018-09-04T07:26:58Z</time>
      </trkpt>
      <trkpt lat="43.3271710" lon="-3.0780730">
        <ele>133.4</ele>
        <time>2018-09-04T07:27:00Z</time>
      </trkpt>
      <trkpt lat="43.3272250" lon="-3.0781170">
        <ele>133.4</ele>
        <time>2018-09-04T07:27:01Z</time>
      </trkpt>
      <trkpt lat="43.3274490" lon="-3.0782900">
        <ele>132.8</ele>
        <time>2018-09-04T07:27:05Z</time>
      </trkpt>
      <trkpt lat="43.3276940" lon="-3.0784550">
        <ele>132.4</ele>
        <time>2018-09-04T07:27:09Z</time>
      </trkpt>
      <trkpt lat="43.3277580" lon="-3.0784980">
        <ele>132.4</ele>
        <time>2018-09-04T07:27:10Z</time>
      </trkpt>
      <trkpt lat="43.3280880" lon="-3.0786960">
        <ele>131.4</ele>
        <time>2018-09-04T07:27:15Z</time>
      </trkpt>
      <trkpt lat="43.3281520" lon="-3.0787280">
        <ele>131.2</ele>
        <time>2018-09-04T07:27:16Z</time>
      </trkpt>
      <trkpt lat="43.3282190" lon="-3.0787560">
        <ele>131.2</ele>
        <time>2018-09-04T07:27:17Z</time>
      </trkpt>
      <trkpt lat="43.3287120" lon="-3.0789350">
        <ele>130.2</ele>
        <time>2018-09-04T07:27:24Z</time>
      </trkpt>
      <trkpt lat="43.3288480" lon="-3.0789980">
        <ele>129.8</ele>
        <time>2018-09-04T07:27:26Z</time>
      </trkpt>
      <trkpt lat="43.3291460" lon="-3.0792330">
        <ele>130.0</ele>
        <time>2018-09-04T07:27:31Z</time>
      </trkpt>
      <trkpt lat="43.3292590" lon="-3.0793170">
        <ele>130.0</ele>
        <time>2018-09-04T07:27:33Z</time>
      </trkpt>
      <trkpt lat="43.3293780" lon="-3.0793200">
        <ele>130.4</ele>
        <time>2018-09-04T07:27:35Z</time>
      </trkpt>
      <trkpt lat="43.3295130" lon="-3.0791520">
        <ele>130.8</ele>
        <time>2018-09-04T07:27:38Z</time>
      </trkpt>
      <trkpt lat="43.3295900" lon="-3.0790180">
        <ele>131.0</ele>
        <time>2018-09-04T07:27:40Z</time>
      </trkpt>
      <trkpt lat="43.3296240" lon="-3.0789460">
        <ele>131.2</ele>
        <time>2018-09-04T07:27:41Z</time>
      </trkpt>
      <trkpt lat="43.3296820" lon="-3.0788000">
        <ele>131.8</ele>
        <time>2018-09-04T07:27:43Z</time>
      </trkpt>
      <trkpt lat="43.3297060" lon="-3.0787290">
        <ele>132.0</ele>
        <time>2018-09-04T07:27:44Z</time>
      </trkpt>
      <trkpt lat="43.3297650" lon="-3.0784170">
        <ele>132.0</ele>
        <time>2018-09-04T07:27:48Z</time>
      </trkpt>
      <trkpt lat="43.3298420" lon="-3.0778750">
        <ele>130.4</ele>
        <time>2018-09-04T07:27:54Z</time>
      </trkpt>
      <trkpt lat="43.3298640" lon="-3.0777750">
        <ele>130.2</ele>
        <time>2018-09-04T07:27:55Z</time>
      </trkpt>
      <trkpt lat="43.3298920" lon="-3.0775680">
        <ele>129.2</ele>
        <time>2018-09-04T07:27:57Z</time>
      </trkpt>
      <trkpt lat="43.3298740" lon="-3.0774610">
        <ele>128.8</ele>
        <time>2018-09-04T07:27:58Z</time>
      </trkpt>
      <trkpt lat="43.3297730" lon="-3.0771480">
        <ele>127.6</ele>
        <time>2018-09-04T07:28:01Z</time>
      </trkpt>
      <trkpt lat="43.3296930" lon="-3.0769410">
        <ele>126.6</ele>
        <time>2018-09-04T07:28:03Z</time>
      </trkpt>
      <trkpt lat="43.3295550" lon="-3.0766410">
        <ele>125.4</ele>
        <time>2018-09-04T07:28:06Z</time>
      </trkpt>
      <trkpt lat="43.3295210" lon="-3.0765290">
        <ele>124.4</ele>
        <time>2018-09-04T07:28:07Z</time>
      </trkpt>
      <trkpt lat="43.3295060" lon="-3.0764110">
        <ele>124.0</ele>
        <time>2018-09-04T07:28:08Z</time>
      </trkpt>
      <trkpt lat="43.3295170" lon="-3.0762950">
        <ele>123.6</ele>
        <time>2018-09-04T07:28:09Z</time>
      </trkpt>
      <trkpt lat="43.3296110" lon="-3.0761120">
        <ele>123.2</ele>
        <time>2018-09-04T07:28:11Z</time>
      </trkpt>
      <trkpt lat="43.3296870" lon="-3.0760690">
        <ele>123.0</ele>
        <time>2018-09-04T07:28:12Z</time>
      </trkpt>
      <trkpt lat="43.3297740" lon="-3.0760540">
        <ele>122.8</ele>
        <time>2018-09-04T07:28:13Z</time>
      </trkpt>
      <trkpt lat="43.3300310" lon="-3.0760750">
        <ele>122.2</ele>
        <time>2018-09-04T07:28:16Z</time>
      </trkpt>
      <trkpt lat="43.3301130" lon="-3.0760510">
        <ele>121.8</ele>
        <time>2018-09-04T07:28:17Z</time>
      </trkpt>
      <trkpt lat="43.3301820" lon="-3.0759900">
        <ele>121.4</ele>
        <time>2018-09-04T07:28:18Z</time>
      </trkpt>
      <trkpt lat="43.3302300" lon="-3.0757890">
        <ele>121.0</ele>
        <time>2018-09-04T07:28:20Z</time>
      </trkpt>
      <trkpt lat="43.3302150" lon="-3.0756780">
        <ele>120.8</ele>
        <time>2018-09-04T07:28:21Z</time>
      </trkpt>
      <trkpt lat="43.3301960" lon="-3.0755650">
        <ele>120.4</ele>
        <time>2018-09-04T07:28:22Z</time>
      </trkpt>
      <trkpt lat="43.3301550" lon="-3.0753400">
        <ele>120.0</ele>
        <time>2018-09-04T07:28:24Z</time>
      </trkpt>
      <trkpt lat="43.3301350" lon="-3.0752290">
        <ele>119.8</ele>
        <time>2018-09-04T07:28:25Z</time>
      </trkpt>
      <trkpt lat="43.3300810" lon="-3.0748970">
        <ele>118.6</ele>
        <time>2018-09-04T07:28:28Z</time>
      </trkpt>
      <trkpt lat="43.3300040" lon="-3.0744770">
        <ele>117.8</ele>
        <time>2018-09-04T07:28:32Z</time>
      </trkpt>
      <trkpt lat="43.3299810" lon="-3.0743850">
        <ele>117.6</ele>
        <time>2018-09-04T07:28:33Z</time>
      </trkpt>
      <trkpt lat="43.3299640" lon="-3.0743030">
        <ele>117.6</ele>
        <time>2018-09-04T07:28:34Z</time>
      </trkpt>
      <trkpt lat="43.3299840" lon="-3.0741600">
        <ele>117.0</ele>
        <time>2018-09-04T07:28:36Z</time>
      </trkpt>
      <trkpt lat="43.3300320" lon="-3.0741140">
        <ele>116.6</ele>
        <time>2018-09-04T07:28:37Z</time>
      </trkpt>
      <trkpt lat="43.3300820" lon="-3.0740700">
        <ele>116.2</ele>
        <time>2018-09-04T07:28:38Z</time>
      </trkpt>
      <trkpt lat="43.3301800" lon="-3.0739790">
        <ele>115.2</ele>
        <time>2018-09-04T07:28:40Z</time>
      </trkpt>
      <trkpt lat="43.3304510" lon="-3.0739690">
        <ele>114.2</ele>
        <time>2018-09-04T07:28:44Z</time>
      </trkpt>
      <trkpt lat="43.3305260" lon="-3.0740530">
        <ele>113.6</ele>
        <time>2018-09-04T07:28:45Z</time>
      </trkpt>
      <trkpt lat="43.3306060" lon="-3.0741520">
        <ele>113.2</ele>
        <time>2018-09-04T07:28:46Z</time>
      </trkpt>
      <trkpt lat="43.3307230" lon="-3.0743980">
        <ele>113.4</ele>
        <time>2018-09-04T07:28:48Z</time>
      </trkpt>
      <trkpt lat="43.3308310" lon="-3.0746560">
        <ele>112.8</ele>
        <time>2018-09-04T07:28:50Z</time>
      </trkpt>
      <trkpt lat="43.3309380" lon="-3.0749170">
        <ele>111.8</ele>
        <time>2018-09-04T07:28:52Z</time>
      </trkpt>
      <trkpt lat="43.3310450" lon="-3.0751820">
        <ele>110.6</ele>
        <time>2018-09-04T07:28:54Z</time>
      </trkpt>
      <trkpt lat="43.3311500" lon="-3.0754450">
        <ele>109.0</ele>
        <time>2018-09-04T07:28:56Z</time>
      </trkpt>
      <trkpt lat="43.3312450" lon="-3.0757060">
        <ele>107.8</ele>
        <time>2018-09-04T07:28:58Z</time>
      </trkpt>
      <trkpt lat="43.3312860" lon="-3.0758420">
        <ele>107.0</ele>
        <time>2018-09-04T07:28:59Z</time>
      </trkpt>
      <trkpt lat="43.3313160" lon="-3.0759860">
        <ele>106.2</ele>
        <time>2018-09-04T07:29:00Z</time>
      </trkpt>
      <trkpt lat="43.3313330" lon="-3.0762870">
        <ele>104.8</ele>
        <time>2018-09-04T07:29:02Z</time>
      </trkpt>
      <trkpt lat="43.3313160" lon="-3.0764420">
        <ele>104.0</ele>
        <time>2018-09-04T07:29:03Z</time>
      </trkpt>
      <trkpt lat="43.3312820" lon="-3.0765920">
        <ele>103.2</ele>
        <time>2018-09-04T07:29:04Z</time>
      </trkpt>
      <trkpt lat="43.3311810" lon="-3.0768620">
        <ele>102.0</ele>
        <time>2018-09-04T07:29:06Z</time>
      </trkpt>
      <trkpt lat="43.3310800" lon="-3.0771150">
        <ele>101.4</ele>
        <time>2018-09-04T07:29:08Z</time>
      </trkpt>
      <trkpt lat="43.3310520" lon="-3.0773820">
        <ele>101.0</ele>
        <time>2018-09-04T07:29:10Z</time>
      </trkpt>
      <trkpt lat="43.3310690" lon="-3.0775180">
        <ele>100.8</ele>
        <time>2018-09-04T07:29:11Z</time>
      </trkpt>
      <trkpt lat="43.3311490" lon="-3.0777540">
        <ele>100.8</ele>
        <time>2018-09-04T07:29:13Z</time>
      </trkpt>
      <trkpt lat="43.3311980" lon="-3.0778540">
        <ele>100.6</ele>
        <time>2018-09-04T07:29:14Z</time>
      </trkpt>
      <trkpt lat="43.3313000" lon="-3.0780160">
        <ele>100.2</ele>
        <time>2018-09-04T07:29:16Z</time>
      </trkpt>
      <trkpt lat="43.3313970" lon="-3.0780310">
        <ele>100.2</ele>
        <time>2018-09-04T07:29:17Z</time>
      </trkpt>
      <trkpt lat="43.3316820" lon="-3.0780580">
        <ele>99.8</ele>
        <time>2018-09-04T07:29:20Z</time>
      </trkpt>
      <trkpt lat="43.3318670" lon="-3.0781300">
        <ele>99.6</ele>
        <time>2018-09-04T07:29:22Z</time>
      </trkpt>
      <trkpt lat="43.3320020" lon="-3.0782620">
        <ele>99.4</ele>
        <time>2018-09-04T07:29:24Z</time>
      </trkpt>
      <trkpt lat="43.3321870" lon="-3.0784990">
        <ele>99.2</ele>
        <time>2018-09-04T07:29:27Z</time>
      </trkpt>
      <trkpt lat="43.3321870" lon="-3.0784990">
        <ele>99.2</ele>
        <time>2018-09-04T07:29:29Z</time>
      </trkpt>
      <trkpt lat="43.3321870" lon="-3.0784990">
        <ele>99.2</ele>
        <time>2018-09-04T07:29:30Z</time>
      </trkpt>
      <trkpt lat="43.3321870" lon="-3.0784990">
        <ele>99.2</ele>
        <time>2018-09-04T07:29:31Z</time>
      </trkpt>
      <trkpt lat="43.3322110" lon="-3.0793570">
        <ele>99.0</ele>
        <time>2018-09-04T07:29:35Z</time>
      </trkpt>
      <trkpt lat="43.3321040" lon="-3.0794810">
        <ele>98.8</ele>
        <time>2018-09-04T07:29:36Z</time>
      </trkpt>
      <trkpt lat="43.3319270" lon="-3.0796640">
        <ele>98.4</ele>
        <time>2018-09-04T07:29:38Z</time>
      </trkpt>
      <trkpt lat="43.3318380" lon="-3.0797280">
        <ele>98.0</ele>
        <time>2018-09-04T07:29:39Z</time>
      </trkpt>
      <trkpt lat="43.3317500" lon="-3.0798000">
        <ele>97.4</ele>
        <time>2018-09-04T07:29:40Z</time>
      </trkpt>
      <trkpt lat="43.3316640" lon="-3.0798820">
        <ele>96.6</ele>
        <time>2018-09-04T07:29:41Z</time>
      </trkpt>
      <trkpt lat="43.3315920" lon="-3.0799790">
        <ele>96.0</ele>
        <time>2018-09-04T07:29:42Z</time>
      </trkpt>
      <trkpt lat="43.3315390" lon="-3.0800920">
        <ele>94.8</ele>
        <time>2018-09-04T07:29:43Z</time>
      </trkpt>
      <trkpt lat="43.3314860" lon="-3.0803530">
        <ele>94.0</ele>
        <time>2018-09-04T07:29:45Z</time>
      </trkpt>
      <trkpt lat="43.3314780" lon="-3.0804900">
        <ele>93.6</ele>
        <time>2018-09-04T07:29:46Z</time>
      </trkpt>
      <trkpt lat="43.3314750" lon="-3.0807570">
        <ele>92.6</ele>
        <time>2018-09-04T07:29:48Z</time>
      </trkpt>
      <trkpt lat="43.3314790" lon="-3.0808770">
        <ele>92.2</ele>
        <time>2018-09-04T07:29:49Z</time>
      </trkpt>
      <trkpt lat="43.3314920" lon="-3.0809830">
        <ele>91.6</ele>
        <time>2018-09-04T07:29:50Z</time>
      </trkpt>
      <trkpt lat="43.3315790" lon="-3.0811190">
        <ele>91.0</ele>
        <time>2018-09-04T07:29:52Z</time>
      </trkpt>
      <trkpt lat="43.3317170" lon="-3.0811130">
        <ele>90.6</ele>
        <time>2018-09-04T07:29:54Z</time>
      </trkpt>
      <trkpt lat="43.3320040" lon="-3.0809860">
        <ele>89.8</ele>
        <time>2018-09-04T07:29:58Z</time>
      </trkpt>
      <trkpt lat="43.3322370" lon="-3.0809990">
        <ele>89.0</ele>
        <time>2018-09-04T07:30:01Z</time>
      </trkpt>
      <trkpt lat="43.3323100" lon="-3.0810380">
        <ele>88.6</ele>
        <time>2018-09-04T07:30:02Z</time>
      </trkpt>
      <trkpt lat="43.3325160" lon="-3.0812210">
        <ele>88.0</ele>
        <time>2018-09-04T07:30:05Z</time>
      </trkpt>
      <trkpt lat="43.3326090" lon="-3.0813980">
        <ele>87.4</ele>
        <time>2018-09-04T07:30:07Z</time>
      </trkpt>
      <trkpt lat="43.3326450" lon="-3.0814970">
        <ele>87.2</ele>
        <time>2018-09-04T07:30:08Z</time>
      </trkpt>
      <trkpt lat="43.3328120" lon="-3.0818750">
        <ele>86.6</ele>
        <time>2018-09-04T07:30:12Z</time>
      </trkpt>
      <trkpt lat="43.3329470" lon="-3.0819910">
        <ele>86.4</ele>
        <time>2018-09-04T07:30:14Z</time>
      </trkpt>
      <trkpt lat="43.3330190" lon="-3.0820220">
        <ele>86.2</ele>
        <time>2018-09-04T07:30:15Z</time>
      </trkpt>
      <trkpt lat="43.3332740" lon="-3.0820010">
        <ele>85.8</ele>
        <time>2018-09-04T07:30:18Z</time>
      </trkpt>
      <trkpt lat="43.3333620" lon="-3.0819950">
        <ele>85.6</ele>
        <time>2018-09-04T07:30:19Z</time>
      </trkpt>
      <trkpt lat="43.3335210" lon="-3.0820660">
        <ele>85.2</ele>
        <time>2018-09-04T07:30:21Z</time>
      </trkpt>
      <trkpt lat="43.3336560" lon="-3.0822010">
        <ele>84.8</ele>
        <time>2018-09-04T07:30:23Z</time>
      </trkpt>
      <trkpt lat="43.3338720" lon="-3.0824000">
        <ele>84.2</ele>
        <time>2018-09-04T07:30:26Z</time>
      </trkpt>
      <trkpt lat="43.3339480" lon="-3.0824620">
        <ele>84.0</ele>
        <time>2018-09-04T07:30:27Z</time>
      </trkpt>
      <trkpt lat="43.3342470" lon="-3.0827090">
        <ele>83.0</ele>
        <time>2018-09-04T07:30:31Z</time>
      </trkpt>
      <trkpt lat="43.3344800" lon="-3.0828840">
        <ele>82.2</ele>
        <time>2018-09-04T07:30:34Z</time>
      </trkpt>
      <trkpt lat="43.3345580" lon="-3.0829450">
        <ele>82.0</ele>
        <time>2018-09-04T07:30:35Z</time>
      </trkpt>
      <trkpt lat="43.3349550" lon="-3.0832510">
        <ele>80.8</ele>
        <time>2018-09-04T07:30:40Z</time>
      </trkpt>
      <trkpt lat="43.3350340" lon="-3.0833150">
        <ele>80.6</ele>
        <time>2018-09-04T07:30:41Z</time>
      </trkpt>
      <trkpt lat="43.3351880" lon="-3.0834470">
        <ele>79.6</ele>
        <time>2018-09-04T07:30:43Z</time>
      </trkpt>
      <trkpt lat="43.3353460" lon="-3.0835750">
        <ele>78.6</ele>
        <time>2018-09-04T07:30:45Z</time>
      </trkpt>
      <trkpt lat="43.3355020" lon="-3.0837100">
        <ele>78.2</ele>
        <time>2018-09-04T07:30:47Z</time>
      </trkpt>
      <trkpt lat="43.3356540" lon="-3.0838520">
        <ele>77.4</ele>
        <time>2018-09-04T07:30:49Z</time>
      </trkpt>
      <trkpt lat="43.3358740" lon="-3.0840790">
        <ele>76.2</ele>
        <time>2018-09-04T07:30:52Z</time>
      </trkpt>
      <trkpt lat="43.3360200" lon="-3.0842220">
        <ele>75.4</ele>
        <time>2018-09-04T07:30:54Z</time>
      </trkpt>
      <trkpt lat="43.3360930" lon="-3.0842890">
        <ele>74.8</ele>
        <time>2018-09-04T07:30:55Z</time>
      </trkpt>
      <trkpt lat="43.3363060" lon="-3.0844660">
        <ele>74.2</ele>
        <time>2018-09-04T07:30:58Z</time>
      </trkpt>
      <trkpt lat="43.3363640" lon="-3.0845250">
        <ele>74.2</ele>
        <time>2018-09-04T07:30:59Z</time>
      </trkpt>
      <trkpt lat="43.3364370" lon="-3.0846730">
        <ele>74.0</ele>
        <time>2018-09-04T07:31:01Z</time>
      </trkpt>
      <trkpt lat="43.3364360" lon="-3.0847650">
        <ele>73.8</ele>
        <time>2018-09-04T07:31:02Z</time>
      </trkpt>
      <trkpt lat="43.3364060" lon="-3.0848530">
        <ele>73.6</ele>
        <time>2018-09-04T07:31:03Z</time>
      </trkpt>
      <trkpt lat="43.3363520" lon="-3.0849140">
        <ele>73.4</ele>
        <time>2018-09-04T07:31:04Z</time>
      </trkpt>
      <trkpt lat="43.3362100" lon="-3.0849160">
        <ele>72.8</ele>
        <time>2018-09-04T07:31:06Z</time>
      </trkpt>
      <trkpt lat="43.3361400" lon="-3.0848820">
        <ele>72.6</ele>
        <time>2018-09-04T07:31:07Z</time>
      </trkpt>
      <trkpt lat="43.3360700" lon="-3.0848430">
        <ele>72.4</ele>
        <time>2018-09-04T07:31:08Z</time>
      </trkpt>
      <trkpt lat="43.3358480" lon="-3.0847200">
        <ele>72.0</ele>
        <time>2018-09-04T07:31:11Z</time>
      </trkpt>
      <trkpt lat="43.3356950" lon="-3.0846450">
        <ele>71.6</ele>
        <time>2018-09-04T07:31:13Z</time>
      </trkpt>
      <trkpt lat="43.3355320" lon="-3.0846010">
        <ele>71.0</ele>
        <time>2018-09-04T07:31:15Z</time>
      </trkpt>
      <trkpt lat="43.3354480" lon="-3.0845880">
        <ele>70.6</ele>
        <time>2018-09-04T07:31:16Z</time>
      </trkpt>
      <trkpt lat="43.3353650" lon="-3.0845740">
        <ele>70.2</ele>
        <time>2018-09-04T07:31:17Z</time>
      </trkpt>
      <trkpt lat="43.3351060" lon="-3.0845670">
        <ele>69.2</ele>
        <time>2018-09-04T07:31:20Z</time>
      </trkpt>
      <trkpt lat="43.3350190" lon="-3.0845830">
        <ele>68.8</ele>
        <time>2018-09-04T07:31:21Z</time>
      </trkpt>
      <trkpt lat="43.3347640" lon="-3.0846780">
        <ele>68.0</ele>
        <time>2018-09-04T07:31:24Z</time>
      </trkpt>
      <trkpt lat="43.3346160" lon="-3.0847810">
        <ele>67.4</ele>
        <time>2018-09-04T07:31:26Z</time>
      </trkpt>
      <trkpt lat="43.3345410" lon="-3.0849590">
        <ele>66.8</ele>
        <time>2018-09-04T07:31:28Z</time>
      </trkpt>
      <trkpt lat="43.3345730" lon="-3.0851610">
        <ele>66.4</ele>
        <time>2018-09-04T07:31:30Z</time>
      </trkpt>
      <trkpt lat="43.3346630" lon="-3.0852990">
        <ele>66.0</ele>
        <time>2018-09-04T07:31:32Z</time>
      </trkpt>
      <trkpt lat="43.3347020" lon="-3.0853450">
        <ele>65.8</ele>
        <time>2018-09-04T07:31:33Z</time>
      </trkpt>
      <trkpt lat="43.3347770" lon="-3.0854240">
        <ele>65.2</ele>
        <time>2018-09-04T07:31:35Z</time>
      </trkpt>
      <trkpt lat="43.3348240" lon="-3.0854720">
        <ele>64.8</ele>
        <time>2018-09-04T07:31:36Z</time>
      </trkpt>
      <trkpt lat="43.3350770" lon="-3.0854260">
        <ele>64.2</ele>
        <time>2018-09-04T07:31:38Z</time>
      </trkpt>
      <trkpt lat="43.3352780" lon="-3.0854980">
        <ele>63.6</ele>
        <time>2018-09-04T07:31:40Z</time>
      </trkpt>
      <trkpt lat="43.3354330" lon="-3.0856240">
        <ele>62.8</ele>
        <time>2018-09-04T07:31:42Z</time>
      </trkpt>
      <trkpt lat="43.3354980" lon="-3.0857000">
        <ele>62.2</ele>
        <time>2018-09-04T07:31:43Z</time>
      </trkpt>
      <trkpt lat="43.3357860" lon="-3.0859750">
        <ele>61.4</ele>
        <time>2018-09-04T07:31:47Z</time>
      </trkpt>
      <trkpt lat="43.3358610" lon="-3.0860410">
        <ele>61.0</ele>
        <time>2018-09-04T07:31:48Z</time>
      </trkpt>
      <trkpt lat="43.3361720" lon="-3.0862740">
        <ele>60.2</ele>
        <time>2018-09-04T07:31:52Z</time>
      </trkpt>
      <trkpt lat="43.3362470" lon="-3.0863390">
        <ele>60.0</ele>
        <time>2018-09-04T07:31:53Z</time>
      </trkpt>
      <trkpt lat="43.3364010" lon="-3.0864640">
        <ele>59.4</ele>
        <time>2018-09-04T07:31:55Z</time>
      </trkpt>
      <trkpt lat="43.3365480" lon="-3.0865510">
        <ele>59.0</ele>
        <time>2018-09-04T07:31:57Z</time>
      </trkpt>
      <trkpt lat="43.3366910" lon="-3.0865980">
        <ele>58.8</ele>
        <time>2018-09-04T07:31:59Z</time>
      </trkpt>
      <trkpt lat="43.3369800" lon="-3.0866040">
        <ele>58.2</ele>
        <time>2018-09-04T07:32:02Z</time>
      </trkpt>
      <trkpt lat="43.3371520" lon="-3.0866630">
        <ele>57.8</ele>
        <time>2018-09-04T07:32:04Z</time>
      </trkpt>
      <trkpt lat="43.3373180" lon="-3.0867500">
        <ele>57.6</ele>
        <time>2018-09-04T07:32:06Z</time>
      </trkpt>
      <trkpt lat="43.3373910" lon="-3.0868170">
        <ele>57.2</ele>
        <time>2018-09-04T07:32:07Z</time>
      </trkpt>
      <trkpt lat="43.3375170" lon="-3.0869870">
        <ele>56.8</ele>
        <time>2018-09-04T07:32:09Z</time>
      </trkpt>
      <trkpt lat="43.3375680" lon="-3.0870890">
        <ele>56.6</ele>
        <time>2018-09-04T07:32:10Z</time>
      </trkpt>
      <trkpt lat="43.3376710" lon="-3.0874280">
        <ele>55.8</ele>
        <time>2018-09-04T07:32:13Z</time>
      </trkpt>
      <trkpt lat="43.3376950" lon="-3.0875460">
        <ele>55.4</ele>
        <time>2018-09-04T07:32:14Z</time>
      </trkpt>
      <trkpt lat="43.3377240" lon="-3.0880330">
        <ele>54.2</ele>
        <time>2018-09-04T07:32:18Z</time>
      </trkpt>
      <trkpt lat="43.3377480" lon="-3.0885160">
        <ele>53.0</ele>
        <time>2018-09-04T07:32:22Z</time>
      </trkpt>
      <trkpt lat="43.3377970" lon="-3.0888650">
        <ele>52.2</ele>
        <time>2018-09-04T07:32:25Z</time>
      </trkpt>
      <trkpt lat="43.3378330" lon="-3.0889750">
        <ele>52.0</ele>
        <time>2018-09-04T07:32:26Z</time>
      </trkpt>
      <trkpt lat="43.3379430" lon="-3.0891710">
        <ele>51.4</ele>
        <time>2018-09-04T07:32:28Z</time>
      </trkpt>
      <trkpt lat="43.3380130" lon="-3.0892570">
        <ele>51.0</ele>
        <time>2018-09-04T07:32:29Z</time>
      </trkpt>
      <trkpt lat="43.3382070" lon="-3.0895260">
        <ele>50.0</ele>
        <time>2018-09-04T07:32:32Z</time>
      </trkpt>
      <trkpt lat="43.3382430" lon="-3.0896430">
        <ele>49.6</ele>
        <time>2018-09-04T07:32:33Z</time>
      </trkpt>
      <trkpt lat="43.3382630" lon="-3.0898950">
        <ele>49.0</ele>
        <time>2018-09-04T07:32:35Z</time>
      </trkpt>
      <trkpt lat="43.3381960" lon="-3.0902660">
        <ele>48.4</ele>
        <time>2018-09-04T07:32:38Z</time>
      </trkpt>
      <trkpt lat="43.3381580" lon="-3.0905200">
        <ele>47.8</ele>
        <time>2018-09-04T07:32:40Z</time>
      </trkpt>
      <trkpt lat="43.3381520" lon="-3.0906530">
        <ele>47.4</ele>
        <time>2018-09-04T07:32:41Z</time>
      </trkpt>
      <trkpt lat="43.3381580" lon="-3.0907840">
        <ele>47.2</ele>
        <time>2018-09-04T07:32:42Z</time>
      </trkpt>
      <trkpt lat="43.3382290" lon="-3.0911620">
        <ele>46.4</ele>
        <time>2018-09-04T07:32:45Z</time>
      </trkpt>
      <trkpt lat="43.3382670" lon="-3.0912810">
        <ele>46.4</ele>
        <time>2018-09-04T07:32:46Z</time>
      </trkpt>
      <trkpt lat="43.3384150" lon="-3.0917620">
        <ele>45.6</ele>
        <time>2018-09-04T07:32:50Z</time>
      </trkpt>
      <trkpt lat="43.3384550" lon="-3.0920190">
        <ele>45.4</ele>
        <time>2018-09-04T07:32:52Z</time>
      </trkpt>
      <trkpt lat="43.3384670" lon="-3.0921500">
        <ele>45.0</ele>
        <time>2018-09-04T07:32:53Z</time>
      </trkpt>
      <trkpt lat="43.3385050" lon="-3.0926650">
        <ele>44.2</ele>
        <time>2018-09-04T07:32:57Z</time>
      </trkpt>
      <trkpt lat="43.3386270" lon="-3.0929900">
        <ele>43.8</ele>
        <time>2018-09-04T07:33:00Z</time>
      </trkpt>
      <trkpt lat="43.3389000" lon="-3.0933080">
        <ele>43.0</ele>
        <time>2018-09-04T07:33:04Z</time>
      </trkpt>
      <trkpt lat="43.3389800" lon="-3.0933670">
        <ele>42.8</ele>
        <time>2018-09-04T07:33:05Z</time>
      </trkpt>
      <trkpt lat="43.3390550" lon="-3.0934340">
        <ele>42.6</ele>
        <time>2018-09-04T07:33:06Z</time>
      </trkpt>
      <trkpt lat="43.3391900" lon="-3.0936010">
        <ele>41.8</ele>
        <time>2018-09-04T07:33:08Z</time>
      </trkpt>
      <trkpt lat="43.3393320" lon="-3.0939230">
        <ele>41.0</ele>
        <time>2018-09-04T07:33:11Z</time>
      </trkpt>
      <trkpt lat="43.3393730" lon="-3.0940380">
        <ele>40.6</ele>
        <time>2018-09-04T07:33:12Z</time>
      </trkpt>
      <trkpt lat="43.3394200" lon="-3.0941430">
        <ele>40.4</ele>
        <time>2018-09-04T07:33:13Z</time>
      </trkpt>
      <trkpt lat="43.3395390" lon="-3.0943290">
        <ele>39.8</ele>
        <time>2018-09-04T07:33:15Z</time>
      </trkpt>
      <trkpt lat="43.3396020" lon="-3.0944140">
        <ele>39.4</ele>
        <time>2018-09-04T07:33:16Z</time>
      </trkpt>
      <trkpt lat="43.3397410" lon="-3.0945660">
        <ele>38.8</ele>
        <time>2018-09-04T07:33:18Z</time>
      </trkpt>
      <trkpt lat="43.3398140" lon="-3.0946330">
        <ele>38.2</ele>
        <time>2018-09-04T07:33:19Z</time>
      </trkpt>
      <trkpt lat="43.3398860" lon="-3.0947030">
        <ele>38.0</ele>
        <time>2018-09-04T07:33:20Z</time>
      </trkpt>
      <trkpt lat="43.3400230" lon="-3.0948490">
        <ele>37.0</ele>
        <time>2018-09-04T07:33:22Z</time>
      </trkpt>
      <trkpt lat="43.3400870" lon="-3.0949260">
        <ele>36.6</ele>
        <time>2018-09-04T07:33:23Z</time>
      </trkpt>
      <trkpt lat="43.3401460" lon="-3.0950100">
        <ele>36.8</ele>
        <time>2018-09-04T07:33:24Z</time>
      </trkpt>
      <trkpt lat="43.3402540" lon="-3.0951970">
        <ele>36.8</ele>
        <time>2018-09-04T07:33:26Z</time>
      </trkpt>
      <trkpt lat="43.3402980" lon="-3.0952990">
        <ele>36.4</ele>
        <time>2018-09-04T07:33:27Z</time>
      </trkpt>
      <trkpt lat="43.3403610" lon="-3.0955170">
        <ele>35.8</ele>
        <time>2018-09-04T07:33:29Z</time>
      </trkpt>
      <trkpt lat="43.3403870" lon="-3.0956310">
        <ele>35.4</ele>
        <time>2018-09-04T07:33:30Z</time>
      </trkpt>
      <trkpt lat="43.3404500" lon="-3.0958500">
        <ele>34.6</ele>
        <time>2018-09-04T07:33:32Z</time>
      </trkpt>
      <trkpt lat="43.3405820" lon="-3.0961580">
        <ele>33.8</ele>
        <time>2018-09-04T07:33:35Z</time>
      </trkpt>
      <trkpt lat="43.3406830" lon="-3.0963530">
        <ele>33.2</ele>
        <time>2018-09-04T07:33:37Z</time>
      </trkpt>
      <trkpt lat="43.3407640" lon="-3.0965660">
        <ele>32.2</ele>
        <time>2018-09-04T07:33:39Z</time>
      </trkpt>
      <trkpt lat="43.3407930" lon="-3.0966800">
        <ele>31.8</ele>
        <time>2018-09-04T07:33:40Z</time>
      </trkpt>
      <trkpt lat="43.3408110" lon="-3.0970390">
        <ele>31.4</ele>
        <time>2018-09-04T07:33:43Z</time>
      </trkpt>
      <trkpt lat="43.3407980" lon="-3.0971600">
        <ele>31.0</ele>
        <time>2018-09-04T07:33:44Z</time>
      </trkpt>
      <trkpt lat="43.3407830" lon="-3.0972820">
        <ele>30.4</ele>
        <time>2018-09-04T07:33:45Z</time>
      </trkpt>
      <trkpt lat="43.3407660" lon="-3.0975280">
        <ele>30.0</ele>
        <time>2018-09-04T07:33:47Z</time>
      </trkpt>
      <trkpt lat="43.3407670" lon="-3.0976490">
        <ele>29.8</ele>
        <time>2018-09-04T07:33:48Z</time>
      </trkpt>
      <trkpt lat="43.3407860" lon="-3.0978850">
        <ele>29.4</ele>
        <time>2018-09-04T07:33:50Z</time>
      </trkpt>
      <trkpt lat="43.3408110" lon="-3.0979970">
        <ele>29.2</ele>
        <time>2018-09-04T07:33:51Z</time>
      </trkpt>
      <trkpt lat="43.3408400" lon="-3.0981080">
        <ele>29.0</ele>
        <time>2018-09-04T07:33:52Z</time>
      </trkpt>
      <trkpt lat="43.3409010" lon="-3.0983290">
        <ele>28.6</ele>
        <time>2018-09-04T07:33:54Z</time>
      </trkpt>
      <trkpt lat="43.3409760" lon="-3.0986670">
        <ele>27.6</ele>
        <time>2018-09-04T07:33:57Z</time>
      </trkpt>
      <trkpt lat="43.3410050" lon="-3.0989010">
        <ele>27.0</ele>
        <time>2018-09-04T07:33:59Z</time>
      </trkpt>
      <trkpt lat="43.3410410" lon="-3.0994720">
        <ele>26.6</ele>
        <time>2018-09-04T07:34:04Z</time>
      </trkpt>
      <trkpt lat="43.3410560" lon="-3.0995830">
        <ele>26.4</ele>
        <time>2018-09-04T07:34:05Z</time>
      </trkpt>
      <trkpt lat="43.3411570" lon="-3.1001210">
        <ele>25.6</ele>
        <time>2018-09-04T07:34:10Z</time>
      </trkpt>
      <trkpt lat="43.3412150" lon="-3.1003240">
        <ele>25.4</ele>
        <time>2018-09-04T07:34:12Z</time>
      </trkpt>
      <trkpt lat="43.3413010" lon="-3.1006200">
        <ele>25.0</ele>
        <time>2018-09-04T07:34:15Z</time>
      </trkpt>
      <trkpt lat="43.3414250" lon="-3.1011190">
        <ele>25.0</ele>
        <time>2018-09-04T07:34:20Z</time>
      </trkpt>
      <trkpt lat="43.3415470" lon="-3.1017070">
        <ele>25.2</ele>
        <time>2018-09-04T07:34:26Z</time>
      </trkpt>
      <trkpt lat="43.3415770" lon="-3.1017960">
        <ele>25.2</ele>
        <time>2018-09-04T07:34:27Z</time>
      </trkpt>
      <trkpt lat="43.3417480" lon="-3.1021210">
        <ele>25.0</ele>
        <time>2018-09-04T07:34:31Z</time>
      </trkpt>
      <trkpt lat="43.3419080" lon="-3.1023300">
        <ele>24.8</ele>
        <time>2018-09-04T07:34:34Z</time>
      </trkpt>
      <trkpt lat="43.3420920" lon="-3.1025070">
        <ele>24.6</ele>
        <time>2018-09-04T07:34:37Z</time>
      </trkpt>
      <trkpt lat="43.3421550" lon="-3.1025610">
        <ele>24.4</ele>
        <time>2018-09-04T07:34:38Z</time>
      </trkpt>
      <trkpt lat="43.3426770" lon="-3.1029920">
        <ele>24.0</ele>
        <time>2018-09-04T07:34:46Z</time>
      </trkpt>
      <trkpt lat="43.3427430" lon="-3.1030420">
        <ele>24.0</ele>
        <time>2018-09-04T07:34:47Z</time>
      </trkpt>
      <trkpt lat="43.3432120" lon="-3.1034330">
        <ele>23.2</ele>
        <time>2018-09-04T07:34:54Z</time>
      </trkpt>
      <trkpt lat="43.3436170" lon="-3.1037880">
        <ele>22.0</ele>
        <time>2018-09-04T07:35:00Z</time>
      </trkpt>
      <trkpt lat="43.3438040" lon="-3.1039930">
        <ele>21.0</ele>
        <time>2018-09-04T07:35:03Z</time>
      </trkpt>
      <trkpt lat="43.3439210" lon="-3.1041420">
        <ele>21.0</ele>
        <time>2018-09-04T07:35:05Z</time>
      </trkpt>
      <trkpt lat="43.3441430" lon="-3.1044450">
        <ele>20.0</ele>
        <time>2018-09-04T07:35:09Z</time>
      </trkpt>
      <trkpt lat="43.3443020" lon="-3.1046760">
        <ele>20.0</ele>
        <time>2018-09-04T07:35:12Z</time>
      </trkpt>
      <trkpt lat="43.3444860" lon="-3.1050270">
        <ele>19.6</ele>
        <time>2018-09-04T07:35:16Z</time>
      </trkpt>
      <trkpt lat="43.3446440" lon="-3.1055380">
        <ele>19.0</ele>
        <time>2018-09-04T07:35:21Z</time>
      </trkpt>
      <trkpt lat="43.3446730" lon="-3.1056440">
        <ele>18.8</ele>
        <time>2018-09-04T07:35:22Z</time>
      </trkpt>
      <trkpt lat="43.3448480" lon="-3.1062750">
        <ele>19.4</ele>
        <time>2018-09-04T07:35:28Z</time>
      </trkpt>
      <trkpt lat="43.3450410" lon="-3.1069960">
        <ele>18.6</ele>
        <time>2018-09-04T07:35:35Z</time>
      </trkpt>
      <trkpt lat="43.3450680" lon="-3.1070980">
        <ele>18.4</ele>
        <time>2018-09-04T07:35:36Z</time>
      </trkpt>
      <trkpt lat="43.3451230" lon="-3.1073050">
        <ele>17.8</ele>
        <time>2018-09-04T07:35:38Z</time>
      </trkpt>
      <trkpt lat="43.3452670" lon="-3.1079580">
        <ele>16.6</ele>
        <time>2018-09-04T07:35:44Z</time>
      </trkpt>
      <trkpt lat="43.3452680" lon="-3.1083030">
        <ele>16.0</ele>
        <time>2018-09-04T07:35:47Z</time>
      </trkpt>
      <trkpt lat="43.3452580" lon="-3.1084190">
        <ele>15.8</ele>
        <time>2018-09-04T07:35:48Z</time>
      </trkpt>
      <trkpt lat="43.3452520" lon="-3.1085360">
        <ele>15.4</ele>
        <time>2018-09-04T07:35:49Z</time>
      </trkpt>
      <trkpt lat="43.3452650" lon="-3.1088800">
        <ele>15.0</ele>
        <time>2018-09-04T07:35:52Z</time>
      </trkpt>
      <trkpt lat="43.3453560" lon="-3.1094110">
        <ele>15.0</ele>
        <time>2018-09-04T07:35:57Z</time>
      </trkpt>
      <trkpt lat="43.3455530" lon="-3.1099610">
        <ele>16.0</ele>
        <time>2018-09-04T07:36:03Z</time>
      </trkpt>
      <trkpt lat="43.3457070" lon="-3.1103820">
        <ele>16.4</ele>
        <time>2018-09-04T07:36:08Z</time>
      </trkpt>
      <trkpt lat="43.3457850" lon="-3.1106240">
        <ele>16.8</ele>
        <time>2018-09-04T07:36:11Z</time>
      </trkpt>
      <trkpt lat="43.3458780" lon="-3.1109410">
        <ele>16.6</ele>
        <time>2018-09-04T07:36:15Z</time>
      </trkpt>
      <trkpt lat="43.3459650" lon="-3.1111690">
        <ele>17.2</ele>
        <time>2018-09-04T07:36:18Z</time>
      </trkpt>
      <trkpt lat="43.3460040" lon="-3.1112370">
        <ele>17.0</ele>
        <time>2018-09-04T07:36:19Z</time>
      </trkpt>
      <trkpt lat="43.3461690" lon="-3.1113560">
        <ele>16.8</ele>
        <time>2018-09-04T07:36:22Z</time>
      </trkpt>
      <trkpt lat="43.3463610" lon="-3.1113820">
        <ele>16.6</ele>
        <time>2018-09-04T07:36:25Z</time>
      </trkpt>
      <trkpt lat="43.3464270" lon="-3.1113840">
        <ele>16.6</ele>
        <time>2018-09-04T07:36:26Z</time>
      </trkpt>
      <trkpt lat="43.3469640" lon="-3.1114050">
        <ele>16.4</ele>
        <time>2018-09-04T07:36:34Z</time>
      </trkpt>
      <trkpt lat="43.3470340" lon="-3.1113960">
        <ele>16.2</ele>
        <time>2018-09-04T07:36:35Z</time>
      </trkpt>
      <trkpt lat="43.3472250" lon="-3.1113390">
        <ele>15.8</ele>
        <time>2018-09-04T07:36:38Z</time>
      </trkpt>
      <trkpt lat="43.3473130" lon="-3.1113050">
        <ele>15.8</ele>
        <time>2018-09-04T07:36:40Z</time>
      </trkpt>
      <trkpt lat="43.3473900" lon="-3.1112790">
        <ele>15.6</ele>
        <time>2018-09-04T07:36:42Z</time>
      </trkpt>
      <trkpt lat="43.3474700" lon="-3.1113020">
        <ele>15.4</ele>
        <time>2018-09-04T07:36:44Z</time>
      </trkpt>
      <trkpt lat="43.3475140" lon="-3.1113240">
        <ele>15.4</ele>
        <time>2018-09-04T07:36:45Z</time>
      </trkpt>
      <trkpt lat="43.3475600" lon="-3.1113470">
        <ele>15.2</ele>
        <time>2018-09-04T07:36:46Z</time>
      </trkpt>
      <trkpt lat="43.3477010" lon="-3.1114260">
        <ele>15.2</ele>
        <time>2018-09-04T07:36:49Z</time>
      </trkpt>
      <trkpt lat="43.3479170" lon="-3.1115700">
        <ele>15.8</ele>
        <time>2018-09-04T07:36:54Z</time>
      </trkpt>
      <trkpt lat="43.3481520" lon="-3.1117700">
        <ele>16.4</ele>
        <time>2018-09-04T07:37:00Z</time>
      </trkpt>
      <trkpt lat="43.3481900" lon="-3.1117960">
        <ele>16.4</ele>
        <time>2018-09-04T07:37:01Z</time>
      </trkpt>
      <trkpt lat="43.3482640" lon="-3.1118520">
        <ele>16.6</ele>
        <time>2018-09-04T07:37:03Z</time>
      </trkpt>
      <trkpt lat="43.3484380" lon="-3.1119910">
        <ele>17.0</ele>
        <time>2018-09-04T07:37:08Z</time>
      </trkpt>
      <trkpt lat="43.3484770" lon="-3.1120080">
        <ele>17.4</ele>
        <time>2018-09-04T07:37:09Z</time>
      </trkpt>
      <trkpt lat="43.3485180" lon="-3.1120200">
        <ele>17.8</ele>
        <time>2018-09-04T07:37:10Z</time>
      </trkpt>
      <trkpt lat="43.3486350" lon="-3.1120820">
        <ele>18.4</ele>
        <time>2018-09-04T07:37:13Z</time>
      </trkpt>
      <trkpt lat="43.3487810" lon="-3.1121510">
        <ele>19.2</ele>
        <time>2018-09-04T07:37:17Z</time>
      </trkpt>
      <trkpt lat="43.3488410" lon="-3.1121750">
        <ele>19.4</ele>
        <time>2018-09-04T07:37:19Z</time>
      </trkpt>
      <trkpt lat="43.3488660" lon="-3.1121890">
        <ele>19.6</ele>
        <time>2018-09-04T07:37:20Z</time>
      </trkpt>
      <trkpt lat="43.3490030" lon="-3.1122860">
        <ele>20.2</ele>
        <time>2018-09-04T07:37:26Z</time>
      </trkpt>
      <trkpt lat="43.3490210" lon="-3.1123060">
        <ele>20.2</ele>
        <time>2018-09-04T07:37:27Z</time>
      </trkpt>
      <trkpt lat="43.3490950" lon="-3.1123710">
        <ele>20.0</ele>
        <time>2018-09-04T07:37:31Z</time>
      </trkpt>
      <trkpt lat="43.3491170" lon="-3.1123950">
        <ele>20.2</ele>
        <time>2018-09-04T07:37:32Z</time>
      </trkpt>
      <trkpt lat="43.3492020" lon="-3.1125630">
        <ele>20.4</ele>
        <time>2018-09-04T07:37:37Z</time>
      </trkpt>
      <trkpt lat="43.3491910" lon="-3.1126410">
        <ele>20.4</ele>
        <time>2018-09-04T07:37:39Z</time>
      </trkpt>
      <trkpt lat="43.3491710" lon="-3.1126750">
        <ele>20.2</ele>
        <time>2018-09-04T07:37:40Z</time>
      </trkpt>
      <trkpt lat="43.3491460" lon="-3.1127000">
        <ele>20.2</ele>
        <time>2018-09-04T07:37:41Z</time>
      </trkpt>
      <trkpt lat="43.3490990" lon="-3.1127350">
        <ele>20.6</ele>
        <time>2018-09-04T07:37:43Z</time>
      </trkpt>
      <trkpt lat="43.3490790" lon="-3.1127570">
        <ele>20.8</ele>
        <time>2018-09-04T07:37:44Z</time>
      </trkpt>
      <trkpt lat="43.3490580" lon="-3.1127830">
        <ele>20.8</ele>
        <time>2018-09-04T07:37:45Z</time>
      </trkpt>
      <trkpt lat="43.3489410" lon="-3.1128930">
        <ele>20.8</ele>
        <time>2018-09-04T07:37:50Z</time>
      </trkpt>
      <trkpt lat="43.3487770" lon="-3.1130570">
        <ele>20.4</ele>
        <time>2018-09-04T07:37:56Z</time>
      </trkpt>
      <trkpt lat="43.3487430" lon="-3.1130880">
        <ele>20.2</ele>
        <time>2018-09-04T07:37:57Z</time>
      </trkpt>
      <trkpt lat="43.3486390" lon="-3.1131760">
        <ele>20.0</ele>
        <time>2018-09-04T07:38:00Z</time>
      </trkpt>
      <trkpt lat="43.3485670" lon="-3.1132370">
        <ele>19.8</ele>
        <time>2018-09-04T07:38:02Z</time>
      </trkpt>
      <trkpt lat="43.3484280" lon="-3.1133900">
        <ele>19.4</ele>
        <time>2018-09-04T07:38:06Z</time>
      </trkpt>
      <trkpt lat="43.3483930" lon="-3.1134280">
        <ele>19.4</ele>
        <time>2018-09-04T07:38:07Z</time>
      </trkpt>
      <trkpt lat="43.3482540" lon="-3.1135820">
        <ele>19.0</ele>
        <time>2018-09-04T07:38:11Z</time>
      </trkpt>
      <trkpt lat="43.3481490" lon="-3.1136850">
        <ele>18.8</ele>
        <time>2018-09-04T07:38:14Z</time>
      </trkpt>
      <trkpt lat="43.3479770" lon="-3.1138480">
        <ele>18.4</ele>
        <time>2018-09-04T07:38:19Z</time>
      </trkpt>
      <trkpt lat="43.3479200" lon="-3.1139090">
        <ele>18.6</ele>
        <time>2018-09-04T07:38:21Z</time>
      </trkpt>
      <trkpt lat="43.3477850" lon="-3.1140070">
        <ele>18.4</ele>
        <time>2018-09-04T07:38:26Z</time>
      </trkpt>
      <trkpt lat="43.3476970" lon="-3.1140970">
        <ele>18.4</ele>
        <time>2018-09-04T07:38:30Z</time>
      </trkpt>
      <trkpt lat="43.3476180" lon="-3.1141760">
        <ele>18.2</ele>
        <time>2018-09-04T07:38:33Z</time>
      </trkpt>
      <trkpt lat="43.3474080" lon="-3.1143260">
        <ele>18.2</ele>
        <time>2018-09-04T07:38:39Z</time>
      </trkpt>
      <trkpt lat="43.3472620" lon="-3.1144110">
        <ele>17.8</ele>
        <time>2018-09-04T07:38:43Z</time>
      </trkpt>
      <trkpt lat="43.3472260" lon="-3.1144320">
        <ele>17.8</ele>
        <time>2018-09-04T07:38:44Z</time>
      </trkpt>
      <trkpt lat="43.3471690" lon="-3.1145500">
        <ele>18.0</ele>
        <time>2018-09-04T07:38:47Z</time>
      </trkpt>
      <trkpt lat="43.3472280" lon="-3.1146570">
        <ele>18.0</ele>
        <time>2018-09-04T07:38:50Z</time>
      </trkpt>
      <trkpt lat="43.3472650" lon="-3.1146740">
        <ele>18.2</ele>
        <time>2018-09-04T07:38:51Z</time>
      </trkpt>
      <trkpt lat="43.3473380" lon="-3.1147100">
        <ele>18.2</ele>
        <time>2018-09-04T07:38:53Z</time>
      </trkpt>
      <trkpt lat="43.3473720" lon="-3.1147340">
        <ele>18.4</ele>
        <time>2018-09-04T07:38:54Z</time>
      </trkpt>
      <trkpt lat="43.3474310" lon="-3.1148010">
        <ele>18.8</ele>
        <time>2018-09-04T07:38:56Z</time>
      </trkpt>
      <trkpt lat="43.3474940" lon="-3.1149950">
        <ele>19.0</ele>
        <time>2018-09-04T07:39:00Z</time>
      </trkpt>
      <trkpt lat="43.3474920" lon="-3.1150500">
        <ele>19.0</ele>
        <time>2018-09-04T07:39:01Z</time>
      </trkpt>
      <trkpt lat="43.3474540" lon="-3.1152130">
        <ele>19.0</ele>
        <time>2018-09-04T07:39:04Z</time>
      </trkpt>
      <trkpt lat="43.3474340" lon="-3.1152650">
        <ele>19.2</ele>
        <time>2018-09-04T07:39:05Z</time>
      </trkpt>
      <trkpt lat="43.3473760" lon="-3.1154900">
        <ele>19.4</ele>
        <time>2018-09-04T07:39:09Z</time>
      </trkpt>
      <trkpt lat="43.3473680" lon="-3.1155510">
        <ele>19.4</ele>
        <time>2018-09-04T07:39:10Z</time>
      </trkpt>
      <trkpt lat="43.3473610" lon="-3.1156710">
        <ele>19.4</ele>
        <time>2018-09-04T07:39:12Z</time>
      </trkpt>
      <trkpt lat="43.3473720" lon="-3.1158410">
        <ele>19.4</ele>
        <time>2018-09-04T07:39:15Z</time>
      </trkpt>
      <trkpt lat="43.3473760" lon="-3.1158940">
        <ele>19.4</ele>
        <time>2018-09-04T07:39:16Z</time>
      </trkpt>
      <trkpt lat="43.3473850" lon="-3.1160480">
        <ele>19.8</ele>
        <time>2018-09-04T07:39:19Z</time>
      </trkpt>
      <trkpt lat="43.3473870" lon="-3.1161380">
        <ele>20.0</ele>
        <time>2018-09-04T07:39:21Z</time>
      </trkpt>
      <trkpt lat="43.3473700" lon="-3.1162660">
        <ele>20.0</ele>
        <time>2018-09-04T07:39:24Z</time>
      </trkpt>
      <trkpt lat="43.3473150" lon="-3.1164620">
        <ele>20.2</ele>
        <time>2018-09-04T07:39:29Z</time>
      </trkpt>
      <trkpt lat="43.3472770" lon="-3.1165430">
        <ele>20.6</ele>
        <time>2018-09-04T07:39:31Z</time>
      </trkpt>
      <trkpt lat="43.3471040" lon="-3.1168300">
        <ele>20.2</ele>
        <time>2018-09-04T07:39:38Z</time>
      </trkpt>
      <trkpt lat="43.3469600" lon="-3.1170610">
        <ele>20.4</ele>
        <time>2018-09-04T07:39:44Z</time>
      </trkpt>
      <trkpt lat="43.3468570" lon="-3.1173390">
        <ele>20.6</ele>
        <time>2018-09-04T07:39:51Z</time>
      </trkpt>
      <trkpt lat="43.3468410" lon="-3.1174340">
        <ele>20.6</ele>
        <time>2018-09-04T07:39:53Z</time>
      </trkpt>
      <trkpt lat="43.3468350" lon="-3.1176830">
        <ele>20.6</ele>
        <time>2018-09-04T07:39:58Z</time>
      </trkpt>
      <trkpt lat="43.3468450" lon="-3.1177640">
        <ele>20.6</ele>
        <time>2018-09-04T07:40:00Z</time>
      </trkpt>
      <trkpt lat="43.3468550" lon="-3.1178200">
        <ele>20.6</ele>
        <time>2018-09-04T07:40:02Z</time>
      </trkpt>
      <trkpt lat="43.3468930" lon="-3.1180610">
        <ele>20.2</ele>
        <time>2018-09-04T07:40:09Z</time>
      </trkpt>
      <trkpt lat="43.3469210" lon="-3.1182740">
        <ele>19.2</ele>
        <time>2018-09-04T07:40:13Z</time>
      </trkpt>
      <trkpt lat="43.3469260" lon="-3.1183360">
        <ele>19.0</ele>
        <time>2018-09-04T07:40:14Z</time>
      </trkpt>
      <trkpt lat="43.3469290" lon="-3.1184350">
        <ele>18.2</ele>
        <time>2018-09-04T07:40:17Z</time>
      </trkpt>
      <trkpt lat="43.3468960" lon="-3.1185010">
        <ele>16.8</ele>
        <time>2018-09-04T07:40:20Z</time>
      </trkpt>
      <trkpt lat="43.3468930" lon="-3.1185400">
        <ele>16.6</ele>
        <time>2018-09-04T07:40:21Z</time>
      </trkpt>
      <trkpt lat="43.3468850" lon="-3.1186330">
        <ele>16.8</ele>
        <time>2018-09-04T07:40:23Z</time>
      </trkpt>
      <trkpt lat="43.3468810" lon="-3.1187140">
        <ele>17.0</ele>
        <time>2018-09-04T07:40:25Z</time>
      </trkpt>
      <trkpt lat="43.3468780" lon="-3.1187550">
        <ele>17.0</ele>
        <time>2018-09-04T07:40:26Z</time>
      </trkpt>
      <trkpt lat="43.3468700" lon="-3.1188350">
        <ele>16.8</ele>
        <time>2018-09-04T07:40:28Z</time>
      </trkpt>
      <trkpt lat="43.3468480" lon="-3.1190480">
        <ele>16.6</ele>
        <time>2018-09-04T07:40:34Z</time>
      </trkpt>
      <trkpt lat="43.3468280" lon="-3.1192540">
        <ele>16.2</ele>
        <time>2018-09-04T07:40:39Z</time>
      </trkpt>
      <trkpt lat="43.3467980" lon="-3.1194730">
        <ele>15.8</ele>
        <time>2018-09-04T07:40:44Z</time>
      </trkpt>
      <trkpt lat="43.3467880" lon="-3.1195980">
        <ele>15.8</ele>
        <time>2018-09-04T07:40:47Z</time>
      </trkpt>
      <trkpt lat="43.3467810" lon="-3.1196370">
        <ele>15.6</ele>
        <time>2018-09-04T07:40:48Z</time>
      </trkpt>
      <trkpt lat="43.3467720" lon="-3.1197110">
        <ele>16.0</ele>
        <time>2018-09-04T07:40:50Z</time>
      </trkpt>
      <trkpt lat="43.3467410" lon="-3.1199230">
        <ele>15.6</ele>
        <time>2018-09-04T07:40:56Z</time>
      </trkpt>
      <trkpt lat="43.3467370" lon="-3.1199590">
        <ele>15.6</ele>
        <time>2018-09-04T07:40:57Z</time>
      </trkpt>
      <trkpt lat="43.3467340" lon="-3.1199900">
        <ele>15.8</ele>
        <time>2018-09-04T07:40:58Z</time>
      </trkpt>
      <trkpt lat="43.3467420" lon="-3.1200190">
        <ele>15.8</ele>
        <time>2018-09-04T07:40:59Z</time>
      </trkpt>
      <trkpt lat="43.3467570" lon="-3.1200400">
        <ele>15.8</ele>
        <time>2018-09-04T07:41:00Z</time>
      </trkpt>
      <trkpt lat="43.3468090" lon="-3.1200850">
        <ele>16.2</ele>
        <time>2018-09-04T07:41:04Z</time>
      </trkpt>
      <trkpt lat="43.3468140" lon="-3.1201070">
        <ele>16.4</ele>
        <time>2018-09-04T07:41:05Z</time>
      </trkpt>
      <trkpt lat="43.3468070" lon="-3.1202450">
        <ele>16.6</ele>
        <time>2018-09-04T07:41:10Z</time>
      </trkpt>
      <trkpt lat="43.3468010" lon="-3.1204050">
        <ele>16.8</ele>
        <time>2018-09-04T07:41:16Z</time>
      </trkpt>
      <trkpt lat="43.3467990" lon="-3.1204370">
        <ele>17.0</ele>
        <time>2018-09-04T07:41:17Z</time>
      </trkpt>
      <trkpt lat="43.3467860" lon="-3.1206410">
        <ele>17.2</ele>
        <time>2018-09-04T07:41:23Z</time>
      </trkpt>
      <trkpt lat="43.3467740" lon="-3.1208620">
        <ele>17.6</ele>
        <time>2018-09-04T07:41:30Z</time>
      </trkpt>
      <trkpt lat="43.3467630" lon="-3.1209860">
        <ele>17.8</ele>
        <time>2018-09-04T07:41:36Z</time>
      </trkpt>
      <trkpt lat="43.3467600" lon="-3.1210090">
        <ele>18.0</ele>
        <time>2018-09-04T07:41:37Z</time>
      </trkpt>
      <trkpt lat="43.3467610" lon="-3.1211120">
        <ele>18.2</ele>
        <time>2018-09-04T07:41:42Z</time>
      </trkpt>
      <trkpt lat="43.3467540" lon="-3.1212710">
        <ele>18.2</ele>
        <time>2018-09-04T07:43:19Z</time>
      </trkpt>
      <trkpt lat="43.3467530" lon="-3.1212950">
        <ele>18.2</ele>
        <time>2018-09-04T07:43:20Z</time>
      </trkpt>
      <trkpt lat="43.3467560" lon="-3.1213490">
        <ele>18.2</ele>
        <time>2018-09-04T07:43:23Z</time>
      </trkpt>
      <trkpt lat="43.3467650" lon="-3.1213790">
        <ele>18.2</ele>
        <time>2018-09-04T07:43:25Z</time>
      </trkpt>
      <trkpt lat="43.3467740" lon="-3.1214500">
        <ele>18.0</ele>
        <time>2018-09-04T07:43:30Z</time>
      </trkpt>
      <trkpt lat="43.3467830" lon="-3.1214680">
        <ele>18.0</ele>
        <time>2018-09-04T07:43:32Z</time>
      </trkpt>
      <trkpt lat="43.3467780" lon="-3.1215220">
        <ele>18.0</ele>
        <time>2018-09-04T07:44:04Z</time>
      </trkpt>
      <trkpt lat="43.3467770" lon="-3.1215530">
        <ele>17.8</ele>
        <time>2018-09-04T07:44:05Z</time>
      </trkpt>
      <trkpt lat="43.3467450" lon="-3.1218070">
        <ele>17.4</ele>
        <time>2018-09-04T07:44:13Z</time>
      </trkpt>
      <trkpt lat="43.3467340" lon="-3.1219160">
        <ele>16.8</ele>
        <time>2018-09-04T07:44:16Z</time>
      </trkpt>
      <trkpt lat="43.3467110" lon="-3.1219750">
        <ele>16.2</ele>
        <time>2018-09-04T07:44:17Z</time>
      </trkpt>
      <trkpt lat="43.3466810" lon="-3.1220370">
        <ele>15.8</ele>
        <time>2018-09-04T07:44:18Z</time>
      </trkpt>
      <trkpt lat="43.3466400" lon="-3.1222580">
        <ele>15.4</ele>
        <time>2018-09-04T07:44:22Z</time>
      </trkpt>
      <trkpt lat="43.3466400" lon="-3.1223160">
        <ele>15.4</ele>
        <time>2018-09-04T07:44:23Z</time>
      </trkpt>
      <trkpt lat="43.3465890" lon="-3.1224460">
        <ele>15.4</ele>
        <time>2018-09-04T07:44:26Z</time>
      </trkpt>
      <trkpt lat="43.3464950" lon="-3.1226940">
        <ele>15.0</ele>
        <time>2018-09-04T07:44:31Z</time>
      </trkpt>
      <trkpt lat="43.3464920" lon="-3.1227510">
        <ele>15.0</ele>
        <time>2018-09-04T07:44:32Z</time>
      </trkpt>
      <trkpt lat="43.3465270" lon="-3.1229840">
        <ele>15.0</ele>
        <time>2018-09-04T07:44:36Z</time>
      </trkpt>
      <trkpt lat="43.3465210" lon="-3.1231520">
        <ele>14.8</ele>
        <time>2018-09-04T07:44:40Z</time>
      </trkpt>
      <trkpt lat="43.3465170" lon="-3.1231890">
        <ele>14.8</ele>
        <time>2018-09-04T07:44:41Z</time>
      </trkpt>
      <trkpt lat="43.3465310" lon="-3.1232340">
        <ele>15.0</ele>
        <time>2018-09-04T07:44:43Z</time>
      </trkpt>
      <trkpt lat="43.3465550" lon="-3.1232230">
        <ele>15.0</ele>
        <time>2018-09-04T07:44:44Z</time>
      </trkpt>
      <trkpt lat="43.3465520" lon="-3.1231150">
        <ele>15.2</ele>
        <time>2018-09-04T07:44:47Z</time>
      </trkpt>
      <trkpt lat="43.3465330" lon="-3.1230270">
        <ele>15.2</ele>
        <time>2018-09-04T07:44:49Z</time>
      </trkpt>
      <trkpt lat="43.3465060" lon="-3.1227700">
        <ele>15.0</ele>
        <time>2018-09-04T07:44:54Z</time>
      </trkpt>
      <trkpt lat="43.3465180" lon="-3.1226650">
        <ele>15.2</ele>
        <time>2018-09-04T07:44:56Z</time>
      </trkpt>
      <trkpt lat="43.3465480" lon="-3.1225730">
        <ele>15.2</ele>
        <time>2018-09-04T07:44:58Z</time>
      </trkpt>
      <trkpt lat="43.3465690" lon="-3.1225350">
        <ele>15.4</ele>
        <time>2018-09-04T07:44:59Z</time>
      </trkpt>
      <trkpt lat="43.3466790" lon="-3.1224650">
        <ele>15.6</ele>
        <time>2018-09-04T07:45:03Z</time>
      </trkpt>
      <trkpt lat="43.3467910" lon="-3.1225640">
        <ele>15.4</ele>
        <time>2018-09-04T07:45:07Z</time>
      </trkpt>
      <trkpt lat="43.3469150" lon="-3.1225950">
        <ele>15.4</ele>
        <time>2018-09-04T07:45:12Z</time>
      </trkpt>
      <trkpt lat="43.3469950" lon="-3.1226280">
        <ele>15.4</ele>
        <time>2018-09-04T07:45:15Z</time>
      </trkpt>
      <trkpt lat="43.3470400" lon="-3.1226550">
        <ele>15.8</ele>
        <time>2018-09-04T07:45:17Z</time>
      </trkpt>
      <trkpt lat="43.3471200" lon="-3.1226720">
        <ele>16.6</ele>
        <time>2018-09-04T07:45:21Z</time>
      </trkpt>
      <trkpt lat="43.3471440" lon="-3.1226770">
        <ele>16.8</ele>
        <time>2018-09-04T07:45:23Z</time>
      </trkpt>
      <trkpt lat="43.3471600" lon="-3.1226780">
        <ele>16.8</ele>
        <time>2018-09-04T07:45:24Z</time>
      </trkpt>
      <trkpt lat="43.3471910" lon="-3.1226750">
        <ele>17.6</ele>
        <time>2018-09-04T07:45:28Z</time>
      </trkpt>
      <trkpt lat="43.3478940" lon="-3.1225560">
        <ele>44.8</ele>
        <time>2018-09-04T07:51:45Z</time>
      </trkpt>
      <trkpt lat="43.3478890" lon="-3.1225140">
        <ele>44.6</ele>
        <time>2018-09-04T07:51:47Z</time>
      </trkpt>
      <trkpt lat="43.3478790" lon="-3.1224190">
        <ele>44.4</ele>
        <time>2018-09-04T07:51:50Z</time>
      </trkpt>
      <trkpt lat="43.3478950" lon="-3.1223100">
        <ele>44.6</ele>
        <time>2018-09-04T07:51:53Z</time>
      </trkpt>
      <trkpt lat="43.3479840" lon="-3.1222130">
        <ele>44.8</ele>
        <time>2018-09-04T07:51:57Z</time>
      </trkpt>
      <trkpt lat="43.3480360" lon="-3.1221760">
        <ele>45.0</ele>
        <time>2018-09-04T07:52:01Z</time>
      </trkpt>
      <trkpt lat="43.3480490" lon="-3.1221520">
        <ele>45.0</ele>
        <time>2018-09-04T07:52:03Z</time>
      </trkpt>
      <trkpt lat="43.3482870" lon="-3.1220000">
        <ele>44.6</ele>
        <time>2018-09-04T07:52:24Z</time>
      </trkpt>
      <trkpt lat="43.3483550" lon="-3.1219880">
        <ele>44.2</ele>
        <time>2018-09-04T07:52:26Z</time>
      </trkpt>
      <trkpt lat="43.3485530" lon="-3.1220430">
        <ele>44.4</ele>
        <time>2018-09-04T07:52:33Z</time>
      </trkpt>
      <trkpt lat="43.3486170" lon="-3.1220730">
        <ele>44.4</ele>
        <time>2018-09-04T07:53:43Z</time>
      </trkpt>
      <trkpt lat="43.3486410" lon="-3.1220820">
        <ele>44.6</ele>
        <time>2018-09-04T07:53:44Z</time>
      </trkpt>
      <trkpt lat="43.3488050" lon="-3.1222400">
        <ele>44.4</ele>
        <time>2018-09-04T07:53:51Z</time>
      </trkpt>
      <trkpt lat="43.3489570" lon="-3.1224330">
        <ele>44.4</ele>
        <time>2018-09-04T07:53:57Z</time>
      </trkpt>
      <trkpt lat="43.3490190" lon="-3.1224850">
        <ele>44.4</ele>
        <time>2018-09-04T07:53:59Z</time>
      </trkpt>
      <trkpt lat="43.3492640" lon="-3.1226910">
        <ele>44.4</ele>
        <time>2018-09-04T07:54:07Z</time>
      </trkpt>
      <trkpt lat="43.3493290" lon="-3.1227470">
        <ele>44.4</ele>
        <time>2018-09-04T07:54:09Z</time>
      </trkpt>
      <trkpt lat="43.3494250" lon="-3.1228360">
        <ele>44.6</ele>
        <time>2018-09-04T07:54:12Z</time>
      </trkpt>
      <trkpt lat="43.3495540" lon="-3.1229740">
        <ele>44.4</ele>
        <time>2018-09-04T07:54:16Z</time>
      </trkpt>
      <trkpt lat="43.3496490" lon="-3.1230750">
        <ele>44.4</ele>
        <time>2018-09-04T07:54:19Z</time>
      </trkpt>
      <trkpt lat="43.3497310" lon="-3.1231790">
        <ele>44.6</ele>
        <time>2018-09-04T07:54:22Z</time>
      </trkpt>
      <trkpt lat="43.3498050" lon="-3.1232350">
        <ele>44.6</ele>
        <time>2018-09-04T07:54:24Z</time>
      </trkpt>
      <trkpt lat="43.3498370" lon="-3.1232740">
        <ele>44.6</ele>
        <time>2018-09-04T07:54:25Z</time>
      </trkpt>
      <trkpt lat="43.3501030" lon="-3.1235890">
        <ele>44.6</ele>
        <time>2018-09-04T07:54:33Z</time>
      </trkpt>
      <trkpt lat="43.3503210" lon="-3.1238730">
        <ele>44.6</ele>
        <time>2018-09-04T07:54:40Z</time>
      </trkpt>
      <trkpt lat="43.3505830" lon="-3.1241640">
        <ele>45.0</ele>
        <time>2018-09-04T07:54:48Z</time>
      </trkpt>
      <trkpt lat="43.3508470" lon="-3.1245300">
        <ele>44.8</ele>
        <time>2018-09-04T07:54:57Z</time>
      </trkpt>
      <trkpt lat="43.3509090" lon="-3.1246630">
        <ele>46.0</ele>
        <time>2018-09-04T07:55:01Z</time>
      </trkpt>
      <trkpt lat="43.3509250" lon="-3.1246930">
        <ele>46.8</ele>
        <time>2018-09-04T07:55:03Z</time>
      </trkpt>
      <trkpt lat="43.3509370" lon="-3.1247090">
        <ele>47.0</ele>
        <time>2018-09-04T07:55:04Z</time>
      </trkpt>
      <trkpt lat="43.3509710" lon="-3.1247570">
        <ele>47.8</ele>
        <time>2018-09-04T07:55:07Z</time>
      </trkpt>
      <trkpt lat="43.3509840" lon="-3.1247720">
        <ele>48.0</ele>
        <time>2018-09-04T07:55:08Z</time>
      </trkpt>
      <trkpt lat="43.3509950" lon="-3.1247920">
        <ele>48.2</ele>
        <time>2018-09-04T07:55:09Z</time>
      </trkpt>
      <trkpt lat="43.3510050" lon="-3.1248090">
        <ele>48.4</ele>
        <time>2018-09-04T07:55:10Z</time>
      </trkpt>
      <trkpt lat="43.3510290" lon="-3.1248400">
        <ele>48.8</ele>
        <time>2018-09-04T07:55:12Z</time>
      </trkpt>
      <trkpt lat="43.3510450" lon="-3.1248770">
        <ele>49.2</ele>
        <time>2018-09-04T07:55:14Z</time>
      </trkpt>
      <trkpt lat="43.3510550" lon="-3.1248950">
        <ele>49.4</ele>
        <time>2018-09-04T07:55:15Z</time>
      </trkpt>
      <trkpt lat="43.3511050" lon="-3.1249600">
        <ele>50.2</ele>
        <time>2018-09-04T07:55:19Z</time>
      </trkpt>
      <trkpt lat="43.3511300" lon="-3.1249920">
        <ele>50.4</ele>
        <time>2018-09-04T07:55:21Z</time>
      </trkpt>
      <trkpt lat="43.3511500" lon="-3.1250230">
        <ele>51.0</ele>
        <time>2018-09-04T07:55:23Z</time>
      </trkpt>
      <trkpt lat="43.3511750" lon="-3.1250440">
        <ele>51.4</ele>
        <time>2018-09-04T07:55:25Z</time>
      </trkpt>
      <trkpt lat="43.3511880" lon="-3.1250540">
        <ele>51.6</ele>
        <time>2018-09-04T07:55:26Z</time>
      </trkpt>
      <trkpt lat="43.3512340" lon="-3.1250980">
        <ele>52.4</ele>
        <time>2018-09-04T07:55:30Z</time>
      </trkpt>
      <trkpt lat="43.3512510" lon="-3.1251350">
        <ele>52.8</ele>
        <time>2018-09-04T07:55:32Z</time>
      </trkpt>
      <trkpt lat="43.3513050" lon="-3.1252250">
        <ele>54.0</ele>
        <time>2018-09-04T07:55:38Z</time>
      </trkpt>
      <trkpt lat="43.3513640" lon="-3.1253230">
        <ele>55.0</ele>
        <time>2018-09-04T07:55:45Z</time>
      </trkpt>
      <trkpt lat="43.3513720" lon="-3.1253350">
        <ele>55.4</ele>
        <time>2018-09-04T07:55:46Z</time>
      </trkpt>
      <trkpt lat="43.3513960" lon="-3.1253700">
        <ele>56.2</ele>
        <time>2018-09-04T07:55:49Z</time>
      </trkpt>
      <trkpt lat="43.3514380" lon="-3.1254080">
        <ele>57.0</ele>
        <time>2018-09-04T07:55:53Z</time>
      </trkpt>
      <trkpt lat="43.3514520" lon="-3.1254180">
        <ele>57.2</ele>
        <time>2018-09-04T07:55:54Z</time>
      </trkpt>
      <trkpt lat="43.3514850" lon="-3.1254510">
        <ele>58.0</ele>
        <time>2018-09-04T07:55:57Z</time>
      </trkpt>
      <trkpt lat="43.3515050" lon="-3.1254760">
        <ele>58.4</ele>
        <time>2018-09-04T07:55:59Z</time>
      </trkpt>
      <trkpt lat="43.3515150" lon="-3.1254880">
        <ele>58.6</ele>
        <time>2018-09-04T07:56:00Z</time>
      </trkpt>
      <trkpt lat="43.3515710" lon="-3.1255340">
        <ele>59.4</ele>
        <time>2018-09-04T07:56:04Z</time>
      </trkpt>
      <trkpt lat="43.3516190" lon="-3.1255920">
        <ele>60.2</ele>
        <time>2018-09-04T07:56:08Z</time>
      </trkpt>
      <trkpt lat="43.3516450" lon="-3.1256130">
        <ele>60.4</ele>
        <time>2018-09-04T07:56:10Z</time>
      </trkpt>
      <trkpt lat="43.3517250" lon="-3.1256960">
        <ele>61.2</ele>
        <time>2018-09-04T07:56:16Z</time>
      </trkpt>
      <trkpt lat="43.3517680" lon="-3.1257520">
        <ele>61.6</ele>
        <time>2018-09-04T07:56:19Z</time>
      </trkpt>
      <trkpt lat="43.3518560" lon="-3.1258630">
        <ele>61.6</ele>
        <time>2018-09-04T07:56:24Z</time>
      </trkpt>
      <trkpt lat="43.3519140" lon="-3.1259310">
        <ele>61.4</ele>
        <time>2018-09-04T07:56:27Z</time>
      </trkpt>
      <trkpt lat="43.3519390" lon="-3.1259810">
        <ele>61.4</ele>
        <time>2018-09-04T07:56:29Z</time>
      </trkpt>
      <trkpt lat="43.3519510" lon="-3.1260210">
        <ele>61.6</ele>
        <time>2018-09-04T07:56:31Z</time>
      </trkpt>
      <trkpt lat="43.3519830" lon="-3.1260660">
        <ele>61.6</ele>
        <time>2018-09-04T07:56:34Z</time>
      </trkpt>
      <trkpt lat="43.3520060" lon="-3.1261190">
        <ele>61.4</ele>
        <time>2018-09-04T07:56:36Z</time>
      </trkpt>
      <trkpt lat="43.3520580" lon="-3.1261940">
        <ele>60.8</ele>
        <time>2018-09-04T07:56:38Z</time>
      </trkpt>
      <trkpt lat="43.3520870" lon="-3.1262440">
        <ele>60.6</ele>
        <time>2018-09-04T07:56:39Z</time>
      </trkpt>
      <trkpt lat="43.3521210" lon="-3.1263010">
        <ele>60.0</ele>
        <time>2018-09-04T07:56:40Z</time>
      </trkpt>
      <trkpt lat="43.3521820" lon="-3.1264400">
        <ele>59.2</ele>
        <time>2018-09-04T07:56:42Z</time>
      </trkpt>
      <trkpt lat="43.3522830" lon="-3.1265560">
        <ele>58.2</ele>
        <time>2018-09-04T07:56:44Z</time>
      </trkpt>
      <trkpt lat="43.3523560" lon="-3.1265970">
        <ele>57.2</ele>
        <time>2018-09-04T07:56:45Z</time>
      </trkpt>
      <trkpt lat="43.3524280" lon="-3.1266370">
        <ele>56.0</ele>
        <time>2018-09-04T07:56:46Z</time>
      </trkpt>
      <trkpt lat="43.3525000" lon="-3.1266750">
        <ele>54.8</ele>
        <time>2018-09-04T07:56:47Z</time>
      </trkpt>
      <trkpt lat="43.3525700" lon="-3.1267330">
        <ele>53.6</ele>
        <time>2018-09-04T07:56:48Z</time>
      </trkpt>
      <trkpt lat="43.3526760" lon="-3.1268950">
        <ele>52.0</ele>
        <time>2018-09-04T07:56:50Z</time>
      </trkpt>
      <trkpt lat="43.3526830" lon="-3.1270140">
        <ele>51.6</ele>
        <time>2018-09-04T07:56:51Z</time>
      </trkpt>
      <trkpt lat="43.3526970" lon="-3.1272360">
        <ele>51.0</ele>
        <time>2018-09-04T07:56:53Z</time>
      </trkpt>
      <trkpt lat="43.3527030" lon="-3.1275510">
        <ele>51.0</ele>
        <time>2018-09-04T07:56:56Z</time>
      </trkpt>
      <trkpt lat="43.3527240" lon="-3.1281410">
        <ele>49.8</ele>
        <time>2018-09-04T07:57:02Z</time>
      </trkpt>
      <trkpt lat="43.3527460" lon="-3.1283240">
        <ele>49.6</ele>
        <time>2018-09-04T07:57:04Z</time>
      </trkpt>
      <trkpt lat="43.3528010" lon="-3.1289430">
        <ele>49.0</ele>
        <time>2018-09-04T07:57:11Z</time>
      </trkpt>
      <trkpt lat="43.3528070" lon="-3.1290320">
        <ele>48.6</ele>
        <time>2018-09-04T07:57:12Z</time>
      </trkpt>
      <trkpt lat="43.3528070" lon="-3.1291170">
        <ele>48.4</ele>
        <time>2018-09-04T07:57:13Z</time>
      </trkpt>
      <trkpt lat="43.3528240" lon="-3.1296090">
        <ele>48.0</ele>
        <time>2018-09-04T07:57:19Z</time>
      </trkpt>
      <trkpt lat="43.3528100" lon="-3.1298980">
        <ele>48.2</ele>
        <time>2018-09-04T07:57:23Z</time>
      </trkpt>
      <trkpt lat="43.3527880" lon="-3.1300320">
        <ele>48.2</ele>
        <time>2018-09-04T07:57:25Z</time>
      </trkpt>
      <trkpt lat="43.3527530" lon="-3.1301560">
        <ele>48.4</ele>
        <time>2018-09-04T07:57:27Z</time>
      </trkpt>
      <trkpt lat="43.3526650" lon="-3.1303030">
        <ele>48.6</ele>
        <time>2018-09-04T07:57:30Z</time>
      </trkpt>
      <trkpt lat="43.3524980" lon="-3.1305110">
        <ele>48.4</ele>
        <time>2018-09-04T07:57:35Z</time>
      </trkpt>
      <trkpt lat="43.3524690" lon="-3.1305490">
        <ele>48.4</ele>
        <time>2018-09-04T07:57:36Z</time>
      </trkpt>
      <trkpt lat="43.3524220" lon="-3.1306240">
        <ele>48.8</ele>
        <time>2018-09-04T07:57:38Z</time>
      </trkpt>
      <trkpt lat="43.3523560" lon="-3.1307870">
        <ele>49.0</ele>
        <time>2018-09-04T07:57:42Z</time>
      </trkpt>
      <trkpt lat="43.3522740" lon="-3.1311040">
        <ele>49.2</ele>
        <time>2018-09-04T07:57:48Z</time>
      </trkpt>
      <trkpt lat="43.3522300" lon="-3.1312670">
        <ele>49.0</ele>
        <time>2018-09-04T07:57:51Z</time>
      </trkpt>
      <trkpt lat="43.3521930" lon="-3.1314290">
        <ele>49.4</ele>
        <time>2018-09-04T07:57:54Z</time>
      </trkpt>
      <trkpt lat="43.3521960" lon="-3.1315460">
        <ele>49.4</ele>
        <time>2018-09-04T07:57:56Z</time>
      </trkpt>
      <trkpt lat="43.3522290" lon="-3.1317190">
        <ele>49.4</ele>
        <time>2018-09-04T07:57:59Z</time>
      </trkpt>
      <trkpt lat="43.3522470" lon="-3.1318290">
        <ele>49.2</ele>
        <time>2018-09-04T07:58:01Z</time>
      </trkpt>
      <trkpt lat="43.3522500" lon="-3.1318820">
        <ele>49.2</ele>
        <time>2018-09-04T07:58:02Z</time>
      </trkpt>
      <trkpt lat="43.3522310" lon="-3.1320730">
        <ele>49.6</ele>
        <time>2018-09-04T07:58:06Z</time>
      </trkpt>
      <trkpt lat="43.3522320" lon="-3.1321170">
        <ele>49.6</ele>
        <time>2018-09-04T07:58:07Z</time>
      </trkpt>
      <trkpt lat="43.3522260" lon="-3.1322170">
        <ele>49.8</ele>
        <time>2018-09-04T07:58:10Z</time>
      </trkpt>
      <trkpt lat="43.3522270" lon="-3.1322160">
        <ele>49.8</ele>
        <time>2018-09-04T07:58:12Z</time>
      </trkpt>
      <trkpt lat="43.3522120" lon="-3.1322840">
        <ele>49.8</ele>
        <time>2018-09-04T08:00:12Z</time>
      </trkpt>
      <trkpt lat="43.3521980" lon="-3.1323410">
        <ele>49.8</ele>
        <time>2018-09-04T08:00:14Z</time>
      </trkpt>
      <trkpt lat="43.3521150" lon="-3.1325190">
        <ele>49.4</ele>
        <time>2018-09-04T08:00:19Z</time>
      </trkpt>
      <trkpt lat="43.3520660" lon="-3.1326010">
        <ele>49.4</ele>
        <time>2018-09-04T08:00:21Z</time>
      </trkpt>
      <trkpt lat="43.3520230" lon="-3.1326860">
        <ele>49.4</ele>
        <time>2018-09-04T08:00:23Z</time>
      </trkpt>
      <trkpt lat="43.3519840" lon="-3.1327730">
        <ele>49.4</ele>
        <time>2018-09-04T08:00:25Z</time>
      </trkpt>
      <trkpt lat="43.3519370" lon="-3.1330660">
        <ele>50.2</ele>
        <time>2018-09-04T08:00:31Z</time>
      </trkpt>
      <trkpt lat="43.3519290" lon="-3.1332190">
        <ele>50.0</ele>
        <time>2018-09-04T08:00:34Z</time>
      </trkpt>
      <trkpt lat="43.3519320" lon="-3.1333220">
        <ele>50.4</ele>
        <time>2018-09-04T08:00:36Z</time>
      </trkpt>
      <trkpt lat="43.3519350" lon="-3.1333740">
        <ele>50.4</ele>
        <time>2018-09-04T08:00:37Z</time>
      </trkpt>
      <trkpt lat="43.3519240" lon="-3.1338090">
        <ele>50.6</ele>
        <time>2018-09-04T08:00:45Z</time>
      </trkpt>
      <trkpt lat="43.3519190" lon="-3.1338690">
        <ele>50.8</ele>
        <time>2018-09-04T08:00:46Z</time>
      </trkpt>
      <trkpt lat="43.3518990" lon="-3.1341150">
        <ele>50.8</ele>
        <time>2018-09-04T08:00:50Z</time>
      </trkpt>
      <trkpt lat="43.3518710" lon="-3.1342880">
        <ele>50.6</ele>
        <time>2018-09-04T08:00:53Z</time>
      </trkpt>
      <trkpt lat="43.3518180" lon="-3.1347370">
        <ele>51.2</ele>
        <time>2018-09-04T08:01:01Z</time>
      </trkpt>
      <trkpt lat="43.3518050" lon="-3.1349110">
        <ele>51.2</ele>
        <time>2018-09-04T08:01:04Z</time>
      </trkpt>
      <trkpt lat="43.3517750" lon="-3.1351410">
        <ele>51.6</ele>
        <time>2018-09-04T08:01:08Z</time>
      </trkpt>
      <trkpt lat="43.3517600" lon="-3.1352560">
        <ele>51.8</ele>
        <time>2018-09-04T08:01:10Z</time>
      </trkpt>
      <trkpt lat="43.3517480" lon="-3.1353700">
        <ele>51.8</ele>
        <time>2018-09-04T08:01:12Z</time>
      </trkpt>
      <trkpt lat="43.3517090" lon="-3.1357260">
        <ele>52.0</ele>
        <time>2018-09-04T08:01:18Z</time>
      </trkpt>
      <trkpt lat="43.3517000" lon="-3.1359080">
        <ele>52.0</ele>
        <time>2018-09-04T08:01:21Z</time>
      </trkpt>
      <trkpt lat="43.3517100" lon="-3.1360310">
        <ele>52.2</ele>
        <time>2018-09-04T08:01:23Z</time>
      </trkpt>
      <trkpt lat="43.3517290" lon="-3.1362110">
        <ele>52.6</ele>
        <time>2018-09-04T08:01:26Z</time>
      </trkpt>
      <trkpt lat="43.3517600" lon="-3.1366890">
        <ele>52.6</ele>
        <time>2018-09-04T08:01:34Z</time>
      </trkpt>
      <trkpt lat="43.3517790" lon="-3.1368750">
        <ele>52.8</ele>
        <time>2018-09-04T08:01:37Z</time>
      </trkpt>
      <trkpt lat="43.3518020" lon="-3.1373070">
        <ele>53.2</ele>
        <time>2018-09-04T08:01:44Z</time>
      </trkpt>
      <trkpt lat="43.3518010" lon="-3.1375530">
        <ele>53.2</ele>
        <time>2018-09-04T08:01:48Z</time>
      </trkpt>
      <trkpt lat="43.3517810" lon="-3.1377970">
        <ele>53.6</ele>
        <time>2018-09-04T08:01:52Z</time>
      </trkpt>
      <trkpt lat="43.3517490" lon="-3.1380960">
        <ele>54.0</ele>
        <time>2018-09-04T08:01:57Z</time>
      </trkpt>
      <trkpt lat="43.3517080" lon="-3.1384550">
        <ele>54.2</ele>
        <time>2018-09-04T08:02:03Z</time>
      </trkpt>
      <trkpt lat="43.3516590" lon="-3.1389950">
        <ele>54.6</ele>
        <time>2018-09-04T08:02:12Z</time>
      </trkpt>
      <trkpt lat="43.3516220" lon="-3.1391690">
        <ele>54.6</ele>
        <time>2018-09-04T08:02:15Z</time>
      </trkpt>
      <trkpt lat="43.3515630" lon="-3.1393320">
        <ele>54.8</ele>
        <time>2018-09-04T08:02:18Z</time>
      </trkpt>
      <trkpt lat="43.3515370" lon="-3.1393830">
        <ele>54.6</ele>
        <time>2018-09-04T08:02:19Z</time>
      </trkpt>
      <trkpt lat="43.3514440" lon="-3.1395120">
        <ele>55.0</ele>
        <time>2018-09-04T08:02:22Z</time>
      </trkpt>
      <trkpt lat="43.3514120" lon="-3.1395540">
        <ele>55.0</ele>
        <time>2018-09-04T08:02:23Z</time>
      </trkpt>
      <trkpt lat="43.3511630" lon="-3.1399570">
        <ele>55.0</ele>
        <time>2018-09-04T08:02:32Z</time>
      </trkpt>
      <trkpt lat="43.3511090" lon="-3.1402230">
        <ele>55.8</ele>
        <time>2018-09-04T08:02:37Z</time>
      </trkpt>
      <trkpt lat="43.3511050" lon="-3.1402810">
        <ele>56.0</ele>
        <time>2018-09-04T08:02:38Z</time>
      </trkpt>
      <trkpt lat="43.3510970" lon="-3.1403380">
        <ele>56.0</ele>
        <time>2018-09-04T08:02:39Z</time>
      </trkpt>
      <trkpt lat="43.3510750" lon="-3.1407460">
        <ele>56.2</ele>
        <time>2018-09-04T08:02:46Z</time>
      </trkpt>
      <trkpt lat="43.3511110" lon="-3.1411670">
        <ele>56.6</ele>
        <time>2018-09-04T08:02:53Z</time>
      </trkpt>
      <trkpt lat="43.3511580" lon="-3.1417130">
        <ele>57.2</ele>
        <time>2018-09-04T08:03:02Z</time>
      </trkpt>
      <trkpt lat="43.3511870" lon="-3.1419920">
        <ele>57.2</ele>
        <time>2018-09-04T08:03:07Z</time>
      </trkpt>
      <trkpt lat="43.3511690" lon="-3.1421490">
        <ele>57.4</ele>
        <time>2018-09-04T08:03:10Z</time>
      </trkpt>
      <trkpt lat="43.3510590" lon="-3.1423640">
        <ele>58.0</ele>
        <time>2018-09-04T08:03:15Z</time>
      </trkpt>
      <trkpt lat="43.3509180" lon="-3.1425440">
        <ele>58.2</ele>
        <time>2018-09-04T08:03:21Z</time>
      </trkpt>
      <trkpt lat="43.3509300" lon="-3.1425930">
        <ele>58.8</ele>
        <time>2018-09-04T08:03:23Z</time>
      </trkpt>
      <trkpt lat="43.3509080" lon="-3.1426220">
        <ele>58.8</ele>
        <time>2018-09-04T08:03:25Z</time>
      </trkpt>
      <trkpt lat="43.3508600" lon="-3.1426120">
        <ele>58.6</ele>
        <time>2018-09-04T08:03:27Z</time>
      </trkpt>
      <trkpt lat="43.3508390" lon="-3.1426200">
        <ele>58.4</ele>
        <time>2018-09-04T08:03:28Z</time>
      </trkpt>
      <trkpt lat="43.3507660" lon="-3.1426850">
        <ele>58.4</ele>
        <time>2018-09-04T08:03:31Z</time>
      </trkpt>
      <trkpt lat="43.3507500" lon="-3.1427140">
        <ele>58.4</ele>
        <time>2018-09-04T08:03:32Z</time>
      </trkpt>
      <trkpt lat="43.3506350" lon="-3.1427910">
        <ele>58.6</ele>
        <time>2018-09-04T08:03:37Z</time>
      </trkpt>
      <trkpt lat="43.3505890" lon="-3.1428430">
        <ele>58.6</ele>
        <time>2018-09-04T08:03:39Z</time>
      </trkpt>
      <trkpt lat="43.3504660" lon="-3.1429580">
        <ele>58.4</ele>
        <time>2018-09-04T08:03:44Z</time>
      </trkpt>
      <trkpt lat="43.3503040" lon="-3.1431210">
        <ele>59.0</ele>
        <time>2018-09-04T08:03:51Z</time>
      </trkpt>
      <trkpt lat="43.3502340" lon="-3.1432420">
        <ele>59.6</ele>
        <time>2018-09-04T08:03:55Z</time>
      </trkpt>
      <trkpt lat="43.3501720" lon="-3.1433480">
        <ele>59.8</ele>
        <time>2018-09-04T08:03:58Z</time>
      </trkpt>
      <trkpt lat="43.3500120" lon="-3.1436510">
        <ele>60.0</ele>
        <time>2018-09-04T08:04:06Z</time>
      </trkpt>
      <trkpt lat="43.3499440" lon="-3.1438050">
        <ele>60.6</ele>
        <time>2018-09-04T08:04:10Z</time>
      </trkpt>
      <trkpt lat="43.3498910" lon="-3.1439680">
        <ele>60.6</ele>
        <time>2018-09-04T08:04:14Z</time>
      </trkpt>
      <trkpt lat="43.3497090" lon="-3.1442020">
        <ele>61.0</ele>
        <time>2018-09-04T08:04:21Z</time>
      </trkpt>
      <trkpt lat="43.3495820" lon="-3.1443010">
        <ele>61.4</ele>
        <time>2018-09-04T08:04:25Z</time>
      </trkpt>
      <trkpt lat="43.3495170" lon="-3.1443250">
        <ele>61.4</ele>
        <time>2018-09-04T08:04:27Z</time>
      </trkpt>
      <trkpt lat="43.3492650" lon="-3.1443290">
        <ele>61.4</ele>
        <time>2018-09-04T08:04:33Z</time>
      </trkpt>
      <trkpt lat="43.3491350" lon="-3.1442900">
        <ele>61.8</ele>
        <time>2018-09-04T08:04:36Z</time>
      </trkpt>
      <trkpt lat="43.3489600" lon="-3.1442620">
        <ele>61.6</ele>
        <time>2018-09-04T08:04:40Z</time>
      </trkpt>
      <trkpt lat="43.3486590" lon="-3.1441740">
        <ele>62.0</ele>
        <time>2018-09-04T08:04:47Z</time>
      </trkpt>
      <trkpt lat="43.3483100" lon="-3.1440070">
        <ele>62.8</ele>
        <time>2018-09-04T08:04:56Z</time>
      </trkpt>
      <trkpt lat="43.3480420" lon="-3.1438830">
        <ele>63.4</ele>
        <time>2018-09-04T08:05:03Z</time>
      </trkpt>
      <trkpt lat="43.3480010" lon="-3.1438870">
        <ele>63.4</ele>
        <time>2018-09-04T08:05:04Z</time>
      </trkpt>
      <trkpt lat="43.3478690" lon="-3.1439920">
        <ele>63.8</ele>
        <time>2018-09-04T08:05:08Z</time>
      </trkpt>
      <trkpt lat="43.3477660" lon="-3.1441960">
        <ele>64.4</ele>
        <time>2018-09-04T08:05:13Z</time>
      </trkpt>
      <trkpt lat="43.3477040" lon="-3.1442990">
        <ele>64.8</ele>
        <time>2018-09-04T08:05:16Z</time>
      </trkpt>
      <trkpt lat="43.3476670" lon="-3.1443720">
        <ele>65.2</ele>
        <time>2018-09-04T08:05:18Z</time>
      </trkpt>
      <trkpt lat="43.3476460" lon="-3.1444030">
        <ele>65.4</ele>
        <time>2018-09-04T08:05:19Z</time>
      </trkpt>
      <trkpt lat="43.3476350" lon="-3.1445210">
        <ele>66.0</ele>
        <time>2018-09-04T08:05:22Z</time>
      </trkpt>
      <trkpt lat="43.3476580" lon="-3.1445550">
        <ele>66.6</ele>
        <time>2018-09-04T08:05:23Z</time>
      </trkpt>
      <trkpt lat="43.3477750" lon="-3.1446830">
        <ele>66.6</ele>
        <time>2018-09-04T08:05:27Z</time>
      </trkpt>
      <trkpt lat="43.3478060" lon="-3.1447160">
        <ele>66.6</ele>
        <time>2018-09-04T08:05:28Z</time>
      </trkpt>
      <trkpt lat="43.3480230" lon="-3.1449980">
        <ele>66.6</ele>
        <time>2018-09-04T08:05:35Z</time>
      </trkpt>
      <trkpt lat="43.3481220" lon="-3.1451490">
        <ele>66.4</ele>
        <time>2018-09-04T08:05:38Z</time>
      </trkpt>
      <trkpt lat="43.3481850" lon="-3.1452680">
        <ele>65.8</ele>
        <time>2018-09-04T08:05:40Z</time>
      </trkpt>
      <trkpt lat="43.3482080" lon="-3.1453380">
        <ele>65.8</ele>
        <time>2018-09-04T08:05:41Z</time>
      </trkpt>
      <trkpt lat="43.3482700" lon="-3.1455590">
        <ele>65.2</ele>
        <time>2018-09-04T08:05:44Z</time>
      </trkpt>
      <trkpt lat="43.3482950" lon="-3.1456350">
        <ele>65.0</ele>
        <time>2018-09-04T08:05:45Z</time>
      </trkpt>
      <trkpt lat="43.3483670" lon="-3.1457710">
        <ele>64.2</ele>
        <time>2018-09-04T08:05:47Z</time>
      </trkpt>
      <trkpt lat="43.3484280" lon="-3.1458040">
        <ele>64.0</ele>
        <time>2018-09-04T08:05:48Z</time>
      </trkpt>
      <trkpt lat="43.3485560" lon="-3.1458380">
        <ele>63.4</ele>
        <time>2018-09-04T08:05:50Z</time>
      </trkpt>
      <trkpt lat="43.3486850" lon="-3.1459100">
        <ele>62.8</ele>
        <time>2018-09-04T08:05:52Z</time>
      </trkpt>
      <trkpt lat="43.3488180" lon="-3.1459690">
        <ele>62.6</ele>
        <time>2018-09-04T08:05:54Z</time>
      </trkpt>
      <trkpt lat="43.3489370" lon="-3.1460710">
        <ele>62.0</ele>
        <time>2018-09-04T08:05:56Z</time>
      </trkpt>
      <trkpt lat="43.3489780" lon="-3.1461580">
        <ele>61.6</ele>
        <time>2018-09-04T08:05:57Z</time>
      </trkpt>
      <trkpt lat="43.3490400" lon="-3.1464720">
        <ele>60.0</ele>
        <time>2018-09-04T08:06:00Z</time>
      </trkpt>
      <trkpt lat="43.3490620" lon="-3.1466990">
        <ele>58.8</ele>
        <time>2018-09-04T08:06:02Z</time>
      </trkpt>
      <trkpt lat="43.3490880" lon="-3.1468060">
        <ele>58.4</ele>
        <time>2018-09-04T08:06:03Z</time>
      </trkpt>
      <trkpt lat="43.3491290" lon="-3.1469000">
        <ele>58.2</ele>
        <time>2018-09-04T08:06:04Z</time>
      </trkpt>
      <trkpt lat="43.3493170" lon="-3.1470900">
        <ele>58.6</ele>
        <time>2018-09-04T08:06:07Z</time>
      </trkpt>
      <trkpt lat="43.3495160" lon="-3.1472090">
        <ele>58.2</ele>
        <time>2018-09-04T08:06:10Z</time>
      </trkpt>
      <trkpt lat="43.3496360" lon="-3.1472970">
        <ele>57.8</ele>
        <time>2018-09-04T08:06:12Z</time>
      </trkpt>
      <trkpt lat="43.3498620" lon="-3.1474910">
        <ele>57.4</ele>
        <time>2018-09-04T08:06:16Z</time>
      </trkpt>
      <trkpt lat="43.3498950" lon="-3.1475740">
        <ele>57.4</ele>
        <time>2018-09-04T08:06:17Z</time>
      </trkpt>
      <trkpt lat="43.3499710" lon="-3.1479230">
        <ele>57.4</ele>
        <time>2018-09-04T08:06:21Z</time>
      </trkpt>
      <trkpt lat="43.3499970" lon="-3.1480050">
        <ele>57.4</ele>
        <time>2018-09-04T08:06:22Z</time>
      </trkpt>
      <trkpt lat="43.3501090" lon="-3.1482040">
        <ele>57.2</ele>
        <time>2018-09-04T08:06:25Z</time>
      </trkpt>
      <trkpt lat="43.3501490" lon="-3.1482660">
        <ele>57.2</ele>
        <time>2018-09-04T08:06:26Z</time>
      </trkpt>
      <trkpt lat="43.3503360" lon="-3.1485640">
        <ele>57.2</ele>
        <time>2018-09-04T08:06:31Z</time>
      </trkpt>
      <trkpt lat="43.3503800" lon="-3.1486180">
        <ele>57.2</ele>
        <time>2018-09-04T08:06:32Z</time>
      </trkpt>
      <trkpt lat="43.3504210" lon="-3.1486730">
        <ele>57.2</ele>
        <time>2018-09-04T08:06:33Z</time>
      </trkpt>
      <trkpt lat="43.3504990" lon="-3.1487820">
        <ele>57.2</ele>
        <time>2018-09-04T08:06:35Z</time>
      </trkpt>
      <trkpt lat="43.3506910" lon="-3.1490490">
        <ele>57.0</ele>
        <time>2018-09-04T08:06:40Z</time>
      </trkpt>
      <trkpt lat="43.3508450" lon="-3.1492790">
        <ele>56.8</ele>
        <time>2018-09-04T08:06:44Z</time>
      </trkpt>
      <trkpt lat="43.3509650" lon="-3.1494460">
        <ele>57.2</ele>
        <time>2018-09-04T08:06:47Z</time>
      </trkpt>
      <trkpt lat="43.3510050" lon="-3.1495100">
        <ele>56.8</ele>
        <time>2018-09-04T08:06:48Z</time>
      </trkpt>
      <trkpt lat="43.3510420" lon="-3.1495730">
        <ele>56.6</ele>
        <time>2018-09-04T08:06:49Z</time>
      </trkpt>
      <trkpt lat="43.3511880" lon="-3.1498900">
        <ele>56.4</ele>
        <time>2018-09-04T08:06:54Z</time>
      </trkpt>
      <trkpt lat="43.3512200" lon="-3.1499420">
        <ele>56.4</ele>
        <time>2018-09-04T08:06:55Z</time>
      </trkpt>
      <trkpt lat="43.3513990" lon="-3.1502990">
        <ele>56.2</ele>
        <time>2018-09-04T08:07:02Z</time>
      </trkpt>
      <trkpt lat="43.3515440" lon="-3.1506510">
        <ele>56.2</ele>
        <time>2018-09-04T08:07:08Z</time>
      </trkpt>
      <trkpt lat="43.3515590" lon="-3.1508890">
        <ele>55.6</ele>
        <time>2018-09-04T08:07:12Z</time>
      </trkpt>
      <trkpt lat="43.3515530" lon="-3.1509510">
        <ele>55.6</ele>
        <time>2018-09-04T08:07:13Z</time>
      </trkpt>
      <trkpt lat="43.3515300" lon="-3.1510740">
        <ele>55.4</ele>
        <time>2018-09-04T08:07:15Z</time>
      </trkpt>
      <trkpt lat="43.3514980" lon="-3.1511840">
        <ele>55.6</ele>
        <time>2018-09-04T08:07:17Z</time>
      </trkpt>
      <trkpt lat="43.3514620" lon="-3.1512920">
        <ele>56.0</ele>
        <time>2018-09-04T08:07:19Z</time>
      </trkpt>
      <trkpt lat="43.3514340" lon="-3.1513410">
        <ele>56.2</ele>
        <time>2018-09-04T08:07:20Z</time>
      </trkpt>
      <trkpt lat="43.3512860" lon="-3.1515150">
        <ele>56.0</ele>
        <time>2018-09-04T08:07:24Z</time>
      </trkpt>
      <trkpt lat="43.3512420" lon="-3.1515490">
        <ele>55.8</ele>
        <time>2018-09-04T08:07:25Z</time>
      </trkpt>
      <trkpt lat="43.3510450" lon="-3.1517310">
        <ele>56.0</ele>
        <time>2018-09-04T08:07:30Z</time>
      </trkpt>
      <trkpt lat="43.3510050" lon="-3.1517720">
        <ele>56.6</ele>
        <time>2018-09-04T08:07:31Z</time>
      </trkpt>
      <trkpt lat="43.3508790" lon="-3.1518790">
        <ele>55.6</ele>
        <time>2018-09-04T08:07:34Z</time>
      </trkpt>
      <trkpt lat="43.3508030" lon="-3.1519710">
        <ele>55.0</ele>
        <time>2018-09-04T08:07:36Z</time>
      </trkpt>
      <trkpt lat="43.3507350" lon="-3.1520710">
        <ele>55.0</ele>
        <time>2018-09-04T08:07:38Z</time>
      </trkpt>
      <trkpt lat="43.3506780" lon="-3.1521800">
        <ele>56.0</ele>
        <time>2018-09-04T08:07:40Z</time>
      </trkpt>
      <trkpt lat="43.3506560" lon="-3.1522400">
        <ele>55.4</ele>
        <time>2018-09-04T08:07:41Z</time>
      </trkpt>
      <trkpt lat="43.3506400" lon="-3.1523000">
        <ele>55.4</ele>
        <time>2018-09-04T08:07:42Z</time>
      </trkpt>
      <trkpt lat="43.3506110" lon="-3.1525070">
        <ele>56.0</ele>
        <time>2018-09-04T08:07:45Z</time>
      </trkpt>
      <trkpt lat="43.3506100" lon="-3.1525780">
        <ele>56.2</ele>
        <time>2018-09-04T08:07:46Z</time>
      </trkpt>
      <trkpt lat="43.3506130" lon="-3.1526510">
        <ele>56.0</ele>
        <time>2018-09-04T08:07:47Z</time>
      </trkpt>
      <trkpt lat="43.3506610" lon="-3.1532100">
        <ele>55.6</ele>
        <time>2018-09-04T08:07:55Z</time>
      </trkpt>
      <trkpt lat="43.3506830" lon="-3.1535560">
        <ele>55.6</ele>
        <time>2018-09-04T08:08:00Z</time>
      </trkpt>
      <trkpt lat="43.3507000" lon="-3.1538850">
        <ele>55.8</ele>
        <time>2018-09-04T08:08:05Z</time>
      </trkpt>
      <trkpt lat="43.3506440" lon="-3.1543140">
        <ele>56.2</ele>
        <time>2018-09-04T08:08:12Z</time>
      </trkpt>
      <trkpt lat="43.3505940" lon="-3.1546170">
        <ele>56.4</ele>
        <time>2018-09-04T08:08:17Z</time>
      </trkpt>
      <trkpt lat="43.3505830" lon="-3.1548020">
        <ele>56.4</ele>
        <time>2018-09-04T08:08:20Z</time>
      </trkpt>
      <trkpt lat="43.3506180" lon="-3.1549780">
        <ele>56.6</ele>
        <time>2018-09-04T08:08:23Z</time>
      </trkpt>
      <trkpt lat="43.3506550" lon="-3.1550950">
        <ele>56.6</ele>
        <time>2018-09-04T08:08:25Z</time>
      </trkpt>
      <trkpt lat="43.3507890" lon="-3.1552840">
        <ele>56.6</ele>
        <time>2018-09-04T08:08:29Z</time>
      </trkpt>
      <trkpt lat="43.3508280" lon="-3.1553260">
        <ele>56.8</ele>
        <time>2018-09-04T08:08:30Z</time>
      </trkpt>
      <trkpt lat="43.3509140" lon="-3.1554060">
        <ele>56.8</ele>
        <time>2018-09-04T08:08:32Z</time>
      </trkpt>
      <trkpt lat="43.3510940" lon="-3.1555520">
        <ele>56.8</ele>
        <time>2018-09-04T08:08:36Z</time>
      </trkpt>
      <trkpt lat="43.3513360" lon="-3.1556890">
        <ele>56.6</ele>
        <time>2018-09-04T08:08:41Z</time>
      </trkpt>
      <trkpt lat="43.3515380" lon="-3.1558160">
        <ele>56.6</ele>
        <time>2018-09-04T08:08:45Z</time>
      </trkpt>
      <trkpt lat="43.3517310" lon="-3.1559670">
        <ele>56.4</ele>
        <time>2018-09-04T08:08:49Z</time>
      </trkpt>
      <trkpt lat="43.3519520" lon="-3.1562090">
        <ele>56.0</ele>
        <time>2018-09-04T08:08:54Z</time>
      </trkpt>
      <trkpt lat="43.3519860" lon="-3.1562740">
        <ele>56.0</ele>
        <time>2018-09-04T08:08:55Z</time>
      </trkpt>
      <trkpt lat="43.3520660" lon="-3.1564790">
        <ele>56.4</ele>
        <time>2018-09-04T08:08:58Z</time>
      </trkpt>
      <trkpt lat="43.3521020" lon="-3.1566180">
        <ele>56.6</ele>
        <time>2018-09-04T08:09:00Z</time>
      </trkpt>
      <trkpt lat="43.3522040" lon="-3.1569790">
        <ele>56.8</ele>
        <time>2018-09-04T08:09:06Z</time>
      </trkpt>
      <trkpt lat="43.3522470" lon="-3.1572370">
        <ele>56.4</ele>
        <time>2018-09-04T08:09:10Z</time>
      </trkpt>
      <trkpt lat="43.3522410" lon="-3.1573570">
        <ele>56.6</ele>
        <time>2018-09-04T08:09:12Z</time>
      </trkpt>
      <trkpt lat="43.3522170" lon="-3.1574640">
        <ele>56.6</ele>
        <time>2018-09-04T08:09:14Z</time>
      </trkpt>
      <trkpt lat="43.3521830" lon="-3.1576260">
        <ele>56.2</ele>
        <time>2018-09-04T08:09:17Z</time>
      </trkpt>
      <trkpt lat="43.3521830" lon="-3.1576260">
        <ele>55.8</ele>
        <time>2018-09-04T08:09:21Z</time>
      </trkpt>
      <trkpt lat="43.3521630" lon="-3.1577250">
        <ele>55.8</ele>
        <time>2018-09-04T08:09:22Z</time>
      </trkpt>
      <trkpt lat="43.3521440" lon="-3.1578240">
        <ele>55.8</ele>
        <time>2018-09-04T08:09:23Z</time>
      </trkpt>
      <trkpt lat="43.3521240" lon="-3.1579230">
        <ele>55.6</ele>
        <time>2018-09-04T08:09:24Z</time>
      </trkpt>
      <trkpt lat="43.3521050" lon="-3.1580220">
        <ele>55.4</ele>
        <time>2018-09-04T08:09:25Z</time>
      </trkpt>
      <trkpt lat="43.3520850" lon="-3.1581200">
        <ele>55.2</ele>
        <time>2018-09-04T08:09:26Z</time>
      </trkpt>
      <trkpt lat="43.3520660" lon="-3.1582190">
        <ele>55.2</ele>
        <time>2018-09-04T08:09:27Z</time>
      </trkpt>
      <trkpt lat="43.3520460" lon="-3.1583180">
        <ele>55.2</ele>
        <time>2018-09-04T08:09:28Z</time>
      </trkpt>
      <trkpt lat="43.3520270" lon="-3.1584170">
        <ele>55.2</ele>
        <time>2018-09-04T08:09:29Z</time>
      </trkpt>
      <trkpt lat="43.3520070" lon="-3.1585160">
        <ele>55.2</ele>
        <time>2018-09-04T08:09:32Z</time>
      </trkpt>
      <trkpt lat="43.3519270" lon="-3.1587290">
        <ele>54.8</ele>
        <time>2018-09-04T08:09:35Z</time>
      </trkpt>
      <trkpt lat="43.3519070" lon="-3.1587950">
        <ele>54.8</ele>
        <time>2018-09-04T08:09:36Z</time>
      </trkpt>
      <trkpt lat="43.3518050" lon="-3.1590020">
        <ele>55.2</ele>
        <time>2018-09-04T08:09:40Z</time>
      </trkpt>
      <trkpt lat="43.3517060" lon="-3.1593040">
        <ele>55.4</ele>
        <time>2018-09-04T08:09:46Z</time>
      </trkpt>
      <trkpt lat="43.3517060" lon="-3.1594260">
        <ele>56.0</ele>
        <time>2018-09-04T08:09:48Z</time>
      </trkpt>
      <trkpt lat="43.3516940" lon="-3.1595510">
        <ele>56.0</ele>
        <time>2018-09-04T08:09:50Z</time>
      </trkpt>
      <trkpt lat="43.3516750" lon="-3.1596120">
        <ele>56.0</ele>
        <time>2018-09-04T08:09:51Z</time>
      </trkpt>
      <trkpt lat="43.3516280" lon="-3.1597260">
        <ele>55.8</ele>
        <time>2018-09-04T08:09:53Z</time>
      </trkpt>
      <trkpt lat="43.3515120" lon="-3.1598390">
        <ele>56.0</ele>
        <time>2018-09-04T08:09:56Z</time>
      </trkpt>
      <trkpt lat="43.3513100" lon="-3.1598590">
        <ele>55.4</ele>
        <time>2018-09-04T08:10:00Z</time>
      </trkpt>
      <trkpt lat="43.3512600" lon="-3.1598520">
        <ele>55.4</ele>
        <time>2018-09-04T08:10:01Z</time>
      </trkpt>
      <trkpt lat="43.3511610" lon="-3.1598590">
        <ele>55.0</ele>
        <time>2018-09-04T08:10:03Z</time>
      </trkpt>
      <trkpt lat="43.3510720" lon="-3.1599040">
        <ele>54.8</ele>
        <time>2018-09-04T08:10:05Z</time>
      </trkpt>
      <trkpt lat="43.3509610" lon="-3.1600340">
        <ele>54.6</ele>
        <time>2018-09-04T08:10:08Z</time>
      </trkpt>
      <trkpt lat="43.3509320" lon="-3.1601000">
        <ele>54.4</ele>
        <time>2018-09-04T08:10:09Z</time>
      </trkpt>
      <trkpt lat="43.3508170" lon="-3.1604230">
        <ele>54.2</ele>
        <time>2018-09-04T08:10:14Z</time>
      </trkpt>
      <trkpt lat="43.3507640" lon="-3.1605440">
        <ele>54.0</ele>
        <time>2018-09-04T08:10:16Z</time>
      </trkpt>
      <trkpt lat="43.3506350" lon="-3.1608080">
        <ele>53.8</ele>
        <time>2018-09-04T08:10:20Z</time>
      </trkpt>
      <trkpt lat="43.3505220" lon="-3.1610950">
        <ele>53.4</ele>
        <time>2018-09-04T08:10:24Z</time>
      </trkpt>
      <trkpt lat="43.3505040" lon="-3.1611730">
        <ele>53.0</ele>
        <time>2018-09-04T08:10:25Z</time>
      </trkpt>
      <trkpt lat="43.3504720" lon="-3.1613330">
        <ele>52.6</ele>
        <time>2018-09-04T08:10:27Z</time>
      </trkpt>
      <trkpt lat="43.3504520" lon="-3.1618150">
        <ele>53.0</ele>
        <time>2018-09-04T08:10:33Z</time>
      </trkpt>
      <trkpt lat="43.3504620" lon="-3.1618940">
        <ele>53.0</ele>
        <time>2018-09-04T08:10:34Z</time>
      </trkpt>
      <trkpt lat="43.3505040" lon="-3.1621330">
        <ele>52.6</ele>
        <time>2018-09-04T08:10:37Z</time>
      </trkpt>
      <trkpt lat="43.3505670" lon="-3.1624330">
        <ele>52.2</ele>
        <time>2018-09-04T08:10:41Z</time>
      </trkpt>
      <trkpt lat="43.3505970" lon="-3.1625030">
        <ele>52.0</ele>
        <time>2018-09-04T08:10:42Z</time>
      </trkpt>
      <trkpt lat="43.3506610" lon="-3.1626270">
        <ele>51.8</ele>
        <time>2018-09-04T08:10:44Z</time>
      </trkpt>
      <trkpt lat="43.3506950" lon="-3.1626920">
        <ele>51.8</ele>
        <time>2018-09-04T08:10:45Z</time>
      </trkpt>
      <trkpt lat="43.3507940" lon="-3.1629080">
        <ele>51.6</ele>
        <time>2018-09-04T08:10:48Z</time>
      </trkpt>
      <trkpt lat="43.3508570" lon="-3.1630690">
        <ele>51.4</ele>
        <time>2018-09-04T08:10:50Z</time>
      </trkpt>
      <trkpt lat="43.3508870" lon="-3.1631530">
        <ele>51.2</ele>
        <time>2018-09-04T08:10:51Z</time>
      </trkpt>
      <trkpt lat="43.3510990" lon="-3.1638210">
        <ele>51.0</ele>
        <time>2018-09-04T08:10:59Z</time>
      </trkpt>
      <trkpt lat="43.3511660" lon="-3.1639720">
        <ele>51.2</ele>
        <time>2018-09-04T08:11:01Z</time>
      </trkpt>
      <trkpt lat="43.3512530" lon="-3.1640940">
        <ele>51.0</ele>
        <time>2018-09-04T08:11:03Z</time>
      </trkpt>
      <trkpt lat="43.3513470" lon="-3.1641920">
        <ele>51.2</ele>
        <time>2018-09-04T08:11:05Z</time>
      </trkpt>
      <trkpt lat="43.3514410" lon="-3.1642810">
        <ele>51.2</ele>
        <time>2018-09-04T08:11:07Z</time>
      </trkpt>
      <trkpt lat="43.3517210" lon="-3.1645300">
        <ele>51.2</ele>
        <time>2018-09-04T08:11:13Z</time>
      </trkpt>
      <trkpt lat="43.3517690" lon="-3.1645700">
        <ele>51.2</ele>
        <time>2018-09-04T08:11:14Z</time>
      </trkpt>
      <trkpt lat="43.3519150" lon="-3.1646790">
        <ele>51.4</ele>
        <time>2018-09-04T08:11:17Z</time>
      </trkpt>
      <trkpt lat="43.3520500" lon="-3.1648140">
        <ele>51.4</ele>
        <time>2018-09-04T08:11:20Z</time>
      </trkpt>
      <trkpt lat="43.3524180" lon="-3.1651520">
        <ele>51.4</ele>
        <time>2018-09-04T08:11:28Z</time>
      </trkpt>
      <trkpt lat="43.3525420" lon="-3.1653090">
        <ele>51.4</ele>
        <time>2018-09-04T08:11:31Z</time>
      </trkpt>
      <trkpt lat="43.3526330" lon="-3.1655090">
        <ele>51.4</ele>
        <time>2018-09-04T08:11:34Z</time>
      </trkpt>
      <trkpt lat="43.3526620" lon="-3.1657340">
        <ele>51.6</ele>
        <time>2018-09-04T08:11:37Z</time>
      </trkpt>
      <trkpt lat="43.3526650" lon="-3.1658110">
        <ele>51.6</ele>
        <time>2018-09-04T08:11:38Z</time>
      </trkpt>
      <trkpt lat="43.3526790" lon="-3.1659670">
        <ele>51.4</ele>
        <time>2018-09-04T08:11:40Z</time>
      </trkpt>
      <trkpt lat="43.3527520" lon="-3.1661770">
        <ele>51.2</ele>
        <time>2018-09-04T08:11:43Z</time>
      </trkpt>
      <trkpt lat="43.3529590" lon="-3.1664450">
        <ele>51.2</ele>
        <time>2018-09-04T08:11:48Z</time>
      </trkpt>
      <trkpt lat="43.3531950" lon="-3.1667320">
        <ele>51.4</ele>
        <time>2018-09-04T08:11:54Z</time>
      </trkpt>
      <trkpt lat="43.3532180" lon="-3.1667870">
        <ele>51.6</ele>
        <time>2018-09-04T08:11:55Z</time>
      </trkpt>
      <trkpt lat="43.3532290" lon="-3.1668440">
        <ele>51.6</ele>
        <time>2018-09-04T08:11:56Z</time>
      </trkpt>
      <trkpt lat="43.3532120" lon="-3.1669560">
        <ele>51.6</ele>
        <time>2018-09-04T08:11:58Z</time>
      </trkpt>
      <trkpt lat="43.3530870" lon="-3.1671740">
        <ele>51.6</ele>
        <time>2018-09-04T08:12:02Z</time>
      </trkpt>
      <trkpt lat="43.3530140" lon="-3.1672810">
        <ele>51.2</ele>
        <time>2018-09-04T08:12:04Z</time>
      </trkpt>
      <trkpt lat="43.3529390" lon="-3.1674080">
        <ele>50.0</ele>
        <time>2018-09-04T08:12:06Z</time>
      </trkpt>
      <trkpt lat="43.3529000" lon="-3.1674800">
        <ele>49.6</ele>
        <time>2018-09-04T08:12:07Z</time>
      </trkpt>
      <trkpt lat="43.3528220" lon="-3.1676320">
        <ele>49.2</ele>
        <time>2018-09-04T08:12:09Z</time>
      </trkpt>
      <trkpt lat="43.3527880" lon="-3.1677120">
        <ele>48.6</ele>
        <time>2018-09-04T08:12:10Z</time>
      </trkpt>
      <trkpt lat="43.3527900" lon="-3.1678100">
        <ele>47.8</ele>
        <time>2018-09-04T08:12:11Z</time>
      </trkpt>
      <trkpt lat="43.3528050" lon="-3.1678970">
        <ele>47.8</ele>
        <time>2018-09-04T08:12:12Z</time>
      </trkpt>
      <trkpt lat="43.3528860" lon="-3.1680310">
        <ele>47.6</ele>
        <time>2018-09-04T08:12:14Z</time>
      </trkpt>
      <trkpt lat="43.3529330" lon="-3.1680980">
        <ele>47.4</ele>
        <time>2018-09-04T08:12:15Z</time>
      </trkpt>
      <trkpt lat="43.3529810" lon="-3.1682810">
        <ele>46.0</ele>
        <time>2018-09-04T08:12:17Z</time>
      </trkpt>
      <trkpt lat="43.3529660" lon="-3.1683730">
        <ele>45.4</ele>
        <time>2018-09-04T08:12:18Z</time>
      </trkpt>
      <trkpt lat="43.3529390" lon="-3.1684600">
        <ele>45.0</ele>
        <time>2018-09-04T08:12:19Z</time>
      </trkpt>
      <trkpt lat="43.3529080" lon="-3.1685400">
        <ele>45.0</ele>
        <time>2018-09-04T08:12:20Z</time>
      </trkpt>
      <trkpt lat="43.3528490" lon="-3.1686370">
        <ele>45.4</ele>
        <time>2018-09-04T08:12:22Z</time>
      </trkpt>
      <trkpt lat="43.3528070" lon="-3.1686780">
        <ele>44.6</ele>
        <time>2018-09-04T08:12:24Z</time>
      </trkpt>
      <trkpt lat="43.3527660" lon="-3.1686680">
        <ele>44.0</ele>
        <time>2018-09-04T08:12:26Z</time>
      </trkpt>
      <trkpt lat="43.3527010" lon="-3.1686680">
        <ele>44.2</ele>
        <time>2018-09-04T08:12:30Z</time>
      </trkpt>
      <trkpt lat="43.3526900" lon="-3.1686680">
        <ele>44.2</ele>
        <time>2018-09-04T08:12:31Z</time>
      </trkpt>
      <trkpt lat="43.3526720" lon="-3.1686740">
        <ele>44.4</ele>
        <time>2018-09-04T08:12:33Z</time>
      </trkpt>
      <trkpt lat="43.3526950" lon="-3.1686870">
        <ele>44.6</ele>
        <time>2018-09-04T08:12:35Z</time>
      </trkpt>
      <trkpt lat="43.3527660" lon="-3.1687040">
        <ele>44.0</ele>
        <time>2018-09-04T08:12:58Z</time>
      </trkpt>
      <trkpt lat="43.3527900" lon="-3.1687230">
        <ele>43.2</ele>
        <time>2018-09-04T08:12:59Z</time>
      </trkpt>
      <trkpt lat="43.3528680" lon="-3.1688090">
        <ele>42.0</ele>
        <time>2018-09-04T08:13:02Z</time>
      </trkpt>
      <trkpt lat="43.3529290" lon="-3.1688580">
        <ele>40.4</ele>
        <time>2018-09-04T08:13:04Z</time>
      </trkpt>
      <trkpt lat="43.3529870" lon="-3.1688740">
        <ele>39.0</ele>
        <time>2018-09-04T08:13:06Z</time>
      </trkpt>
      <trkpt lat="43.3530340" lon="-3.1688840">
        <ele>38.0</ele>
        <time>2018-09-04T08:13:08Z</time>
      </trkpt>
      <trkpt lat="43.3530530" lon="-3.1688910">
        <ele>37.6</ele>
        <time>2018-09-04T08:13:09Z</time>
      </trkpt>
      <trkpt lat="43.3530910" lon="-3.1689300">
        <ele>37.0</ele>
        <time>2018-09-04T08:13:12Z</time>
      </trkpt>
      <trkpt lat="43.3530880" lon="-3.1689430">
        <ele>36.8</ele>
        <time>2018-09-04T08:13:13Z</time>
      </trkpt>
      <trkpt lat="43.3530290" lon="-3.1690030">
        <ele>35.2</ele>
        <time>2018-09-04T08:13:16Z</time>
      </trkpt>
      <trkpt lat="43.3530030" lon="-3.1690210">
        <ele>34.4</ele>
        <time>2018-09-04T08:13:17Z</time>
      </trkpt>
      <trkpt lat="43.3529780" lon="-3.1690310">
        <ele>33.8</ele>
        <time>2018-09-04T08:13:18Z</time>
      </trkpt>
      <trkpt lat="43.3529320" lon="-3.1690320">
        <ele>32.4</ele>
        <time>2018-09-04T08:13:20Z</time>
      </trkpt>
      <trkpt lat="43.3529120" lon="-3.1690230">
        <ele>31.8</ele>
        <time>2018-09-04T08:13:21Z</time>
      </trkpt>
      <trkpt lat="43.3528920" lon="-3.1690110">
        <ele>31.2</ele>
        <time>2018-09-04T08:13:22Z</time>
      </trkpt>
      <trkpt lat="43.3528720" lon="-3.1690060">
        <ele>30.4</ele>
        <time>2018-09-04T08:13:23Z</time>
      </trkpt>
      <trkpt lat="43.3528500" lon="-3.1690130">
        <ele>30.0</ele>
        <time>2018-09-04T08:13:24Z</time>
      </trkpt>
      <trkpt lat="43.3528430" lon="-3.1690410">
        <ele>29.8</ele>
        <time>2018-09-04T08:13:25Z</time>
      </trkpt>
      <trkpt lat="43.3528730" lon="-3.1691070">
        <ele>29.0</ele>
        <time>2018-09-04T08:13:27Z</time>
      </trkpt>
      <trkpt lat="43.3529050" lon="-3.1691730">
        <ele>27.8</ele>
        <time>2018-09-04T08:13:29Z</time>
      </trkpt>
      <trkpt lat="43.3529390" lon="-3.1692470">
        <ele>26.2</ele>
        <time>2018-09-04T08:13:31Z</time>
      </trkpt>
      <trkpt lat="43.3529730" lon="-3.1693010">
        <ele>25.0</ele>
        <time>2018-09-04T08:13:33Z</time>
      </trkpt>
      <trkpt lat="43.3529950" lon="-3.1693460">
        <ele>24.2</ele>
        <time>2018-09-04T08:13:34Z</time>
      </trkpt>
      <trkpt lat="43.3530130" lon="-3.1694050">
        <ele>23.4</ele>
        <time>2018-09-04T08:13:35Z</time>
      </trkpt>
      <trkpt lat="43.3530310" lon="-3.1694680">
        <ele>22.2</ele>
        <time>2018-09-04T08:13:36Z</time>
      </trkpt>
      <trkpt lat="43.3530510" lon="-3.1695310">
        <ele>21.0</ele>
        <time>2018-09-04T08:13:37Z</time>
      </trkpt>
      <trkpt lat="43.3530780" lon="-3.1695940">
        <ele>20.0</ele>
        <time>2018-09-04T08:13:38Z</time>
      </trkpt>
      <trkpt lat="43.3531630" lon="-3.1696930">
        <ele>18.0</ele>
        <time>2018-09-04T08:13:40Z</time>
      </trkpt>
      <trkpt lat="43.3532080" lon="-3.1697230">
        <ele>17.4</ele>
        <time>2018-09-04T08:13:41Z</time>
      </trkpt>
      <trkpt lat="43.3532490" lon="-3.1697500">
        <ele>16.8</ele>
        <time>2018-09-04T08:13:42Z</time>
      </trkpt>
      <trkpt lat="43.3532840" lon="-3.1697760">
        <ele>16.8</ele>
        <time>2018-09-04T08:13:43Z</time>
      </trkpt>
      <trkpt lat="43.3533450" lon="-3.1697950">
        <ele>16.6</ele>
        <time>2018-09-04T08:13:45Z</time>
      </trkpt>
      <trkpt lat="43.3534100" lon="-3.1698020">
        <ele>16.6</ele>
        <time>2018-09-04T08:13:48Z</time>
      </trkpt>
      <trkpt lat="43.3533920" lon="-3.1698340">
        <ele>16.4</ele>
        <time>2018-09-04T08:13:50Z</time>
      </trkpt>
      <trkpt lat="43.3533710" lon="-3.1698240">
        <ele>16.6</ele>
        <time>2018-09-04T08:13:51Z</time>
      </trkpt>
      <trkpt lat="43.3532780" lon="-3.1698100">
        <ele>16.4</ele>
        <time>2018-09-04T08:13:55Z</time>
      </trkpt>
      <trkpt lat="43.3532050" lon="-3.1698930">
        <ele>16.6</ele>
        <time>2018-09-04T08:13:58Z</time>
      </trkpt>
      <trkpt lat="43.3531210" lon="-3.1699780">
        <ele>16.4</ele>
        <time>2018-09-04T08:14:01Z</time>
      </trkpt>
      <trkpt lat="43.3529920" lon="-3.1701230">
        <ele>16.6</ele>
        <time>2018-09-04T08:14:06Z</time>
      </trkpt>
      <trkpt lat="43.3529430" lon="-3.1701880">
        <ele>16.6</ele>
        <time>2018-09-04T08:14:08Z</time>
      </trkpt>
      <trkpt lat="43.3528730" lon="-3.1703140">
        <ele>16.8</ele>
        <time>2018-09-04T08:14:11Z</time>
      </trkpt>
      <trkpt lat="43.3528020" lon="-3.1704340">
        <ele>16.6</ele>
        <time>2018-09-04T08:14:14Z</time>
      </trkpt>
      <trkpt lat="43.3527800" lon="-3.1704770">
        <ele>16.8</ele>
        <time>2018-09-04T08:14:15Z</time>
      </trkpt>
      <trkpt lat="43.3526940" lon="-3.1706610">
        <ele>17.0</ele>
        <time>2018-09-04T08:14:19Z</time>
      </trkpt>
      <trkpt lat="43.3526510" lon="-3.1707550">
        <ele>17.0</ele>
        <time>2018-09-04T08:14:21Z</time>
      </trkpt>
      <trkpt lat="43.3525870" lon="-3.1708980">
        <ele>17.2</ele>
        <time>2018-09-04T08:14:24Z</time>
      </trkpt>
      <trkpt lat="43.3525130" lon="-3.1710990">
        <ele>17.0</ele>
        <time>2018-09-04T08:14:28Z</time>
      </trkpt>
      <trkpt lat="43.3524300" lon="-3.1713440">
        <ele>17.4</ele>
        <time>2018-09-04T08:14:33Z</time>
      </trkpt>
      <trkpt lat="43.3523190" lon="-3.1716020">
        <ele>17.2</ele>
        <time>2018-09-04T08:14:39Z</time>
      </trkpt>
      <trkpt lat="43.3522730" lon="-3.1716760">
        <ele>17.6</ele>
        <time>2018-09-04T08:14:41Z</time>
      </trkpt>
      <trkpt lat="43.3521380" lon="-3.1718450">
        <ele>18.0</ele>
        <time>2018-09-04T08:14:46Z</time>
      </trkpt>
      <trkpt lat="43.3520520" lon="-3.1719270">
        <ele>18.2</ele>
        <time>2018-09-04T08:14:49Z</time>
      </trkpt>
      <trkpt lat="43.3518150" lon="-3.1721510">
        <ele>18.6</ele>
        <time>2018-09-04T08:14:57Z</time>
      </trkpt>
      <trkpt lat="43.3517280" lon="-3.1722150">
        <ele>19.0</ele>
        <time>2018-09-04T08:15:00Z</time>
      </trkpt>
      <trkpt lat="43.3516700" lon="-3.1722520">
        <ele>19.0</ele>
        <time>2018-09-04T08:15:02Z</time>
      </trkpt>
      <trkpt lat="43.3516140" lon="-3.1723070">
        <ele>18.8</ele>
        <time>2018-09-04T08:15:04Z</time>
      </trkpt>
      <trkpt lat="43.3514530" lon="-3.1725030">
        <ele>20.0</ele>
        <time>2018-09-04T08:15:11Z</time>
      </trkpt>
      <trkpt lat="43.3514300" lon="-3.1725220">
        <ele>20.2</ele>
        <time>2018-09-04T08:15:12Z</time>
      </trkpt>
      <trkpt lat="43.3512760" lon="-3.1725760">
        <ele>20.6</ele>
        <time>2018-09-04T08:15:18Z</time>
      </trkpt>
      <trkpt lat="43.3511750" lon="-3.1725560">
        <ele>21.2</ele>
        <time>2018-09-04T08:15:22Z</time>
      </trkpt>
      <trkpt lat="43.3511480" lon="-3.1725530">
        <ele>21.4</ele>
        <time>2018-09-04T08:15:23Z</time>
      </trkpt>
      <trkpt lat="43.3510340" lon="-3.1725600">
        <ele>21.8</ele>
        <time>2018-09-04T08:15:27Z</time>
      </trkpt>
      <trkpt lat="43.3510170" lon="-3.1725690">
        <ele>22.2</ele>
        <time>2018-09-04T08:15:28Z</time>
      </trkpt>
      <trkpt lat="43.3510120" lon="-3.1726350">
        <ele>22.4</ele>
        <time>2018-09-04T08:15:31Z</time>
      </trkpt>
      <trkpt lat="43.3510180" lon="-3.1726670">
        <ele>22.6</ele>
        <time>2018-09-04T08:15:32Z</time>
      </trkpt>
      <trkpt lat="43.3510290" lon="-3.1727920">
        <ele>23.4</ele>
        <time>2018-09-04T08:15:37Z</time>
      </trkpt>
      <trkpt lat="43.3510340" lon="-3.1728110">
        <ele>23.6</ele>
        <time>2018-09-04T08:15:38Z</time>
      </trkpt>
      <trkpt lat="43.3510340" lon="-3.1728110">
        <ele>3.2</ele>
        <time>2018-09-04T08:16:40Z</time>
      </trkpt>
      <trkpt lat="43.3510340" lon="-3.1728110">
        <ele>4.0</ele>
        <time>2018-09-04T08:16:41Z</time>
      </trkpt>
      <trkpt lat="43.3510340" lon="-3.1728110">
        <ele>4.0</ele>
        <time>2018-09-04T08:16:42Z</time>
      </trkpt>
      <trkpt lat="43.3510340" lon="-3.1728110">
        <ele>4.4</ele>
        <time>2018-09-04T08:16:43Z</time>
      </trkpt>
      <trkpt lat="43.3510340" lon="-3.1728110">
        <ele>3.4</ele>
        <time>2018-09-04T08:16:44Z</time>
      </trkpt>
      <trkpt lat="43.3510340" lon="-3.1728110">
        <ele>3.4</ele>
        <time>2018-09-04T08:16:45Z</time>
      </trkpt>
      <trkpt lat="43.3510340" lon="-3.1728110">
        <ele>3.8</ele>
        <time>2018-09-04T08:16:46Z</time>
      </trkpt>
      <trkpt lat="43.3510340" lon="-3.1728110">
        <ele>4.0</ele>
        <time>2018-09-04T08:16:47Z</time>
      </trkpt>
      <trkpt lat="43.3510340" lon="-3.1728110">
        <ele>4.2</ele>
        <time>2018-09-04T08:16:50Z</time>
      </trkpt>
      <trkpt lat="43.3510340" lon="-3.1728110">
        <ele>4.4</ele>
        <time>2018-09-04T08:16:51Z</time>
      </trkpt>
      <trkpt lat="43.3510340" lon="-3.1728110">
        <ele>4.4</ele>
        <time>2018-09-04T08:16:52Z</time>
      </trkpt>
      <trkpt lat="43.3510340" lon="-3.1728110">
        <ele>4.4</ele>
        <time>2018-09-04T08:16:53Z</time>
      </trkpt>
      <trkpt lat="43.3510340" lon="-3.1728110">
        <ele>4.8</ele>
        <time>2018-09-04T08:16:55Z</time>
      </trkpt>
      <trkpt lat="43.3510340" lon="-3.1728110">
        <ele>5.2</ele>
        <time>2018-09-04T08:16:59Z</time>
      </trkpt>
      <trkpt lat="43.3510340" lon="-3.1728110">
        <ele>5.4</ele>
        <time>2018-09-04T08:17:01Z</time>
      </trkpt>
      <trkpt lat="43.3510340" lon="-3.1728110">
        <ele>5.8</ele>
        <time>2018-09-04T08:17:03Z</time>
      </trkpt>
      <trkpt lat="43.3510340" lon="-3.1728110">
        <ele>6.6</ele>
        <time>2018-09-04T08:17:07Z</time>
      </trkpt>
      <trkpt lat="43.3510340" lon="-3.1728110">
        <ele>6.8</ele>
        <time>2018-09-04T08:17:10Z</time>
      </trkpt>
      <trkpt lat="43.3510340" lon="-3.1728110">
        <ele>7.0</ele>
        <time>2018-09-04T08:17:11Z</time>
      </trkpt>
      <trkpt lat="43.3510340" lon="-3.1728110">
        <ele>7.4</ele>
        <time>2018-09-04T08:17:15Z</time>
      </trkpt>
      <trkpt lat="43.3510340" lon="-3.1728110">
        <ele>7.6</ele>
        <time>2018-09-04T08:17:16Z</time>
      </trkpt>
      <trkpt lat="43.3510340" lon="-3.1728110">
        <ele>7.8</ele>
        <time>2018-09-04T08:17:17Z</time>
      </trkpt>
      <trkpt lat="43.3510340" lon="-3.1728110">
        <ele>8.0</ele>
        <time>2018-09-04T08:17:19Z</time>
      </trkpt>
      <trkpt lat="43.3510340" lon="-3.1728110">
        <ele>8.2</ele>
        <time>2018-09-04T08:17:20Z</time>
      </trkpt>
      <trkpt lat="43.3510340" lon="-3.1728110">
        <ele>8.6</ele>
        <time>2018-09-04T08:17:23Z</time>
      </trkpt>
      <trkpt lat="43.3510340" lon="-3.1728110">
        <ele>9.6</ele>
        <time>2018-09-04T08:17:31Z</time>
      </trkpt>
      <trkpt lat="43.3510340" lon="-3.1728110">
        <ele>9.8</ele>
        <time>2018-09-04T08:17:32Z</time>
      </trkpt>
      <trkpt lat="43.3510340" lon="-3.1728110">
        <ele>10.0</ele>
        <time>2018-09-04T08:17:33Z</time>
      </trkpt>
      <trkpt lat="43.3510340" lon="-3.1728110">
        <ele>10.8</ele>
        <time>2018-09-04T08:17:37Z</time>
      </trkpt>
      <trkpt lat="43.3510340" lon="-3.1728110">
        <ele>11.0</ele>
        <time>2018-09-04T08:17:38Z</time>
      </trkpt>
      <trkpt lat="43.3510340" lon="-3.1728110">
        <ele>11.4</ele>
        <time>2018-09-04T08:17:40Z</time>
      </trkpt>
      <trkpt lat="43.3510340" lon="-3.1728110">
        <ele>12.0</ele>
        <time>2018-09-04T08:17:43Z</time>
      </trkpt>
      <trkpt lat="43.3510340" lon="-3.1728110">
        <ele>12.4</ele>
        <time>2018-09-04T08:17:46Z</time>
      </trkpt>
      <trkpt lat="43.3510340" lon="-3.1728110">
        <ele>13.0</ele>
        <time>2018-09-04T08:17:49Z</time>
      </trkpt>
      <trkpt lat="43.3510340" lon="-3.1728110">
        <ele>13.2</ele>
        <time>2018-09-04T08:17:50Z</time>
      </trkpt>
      <trkpt lat="43.3510340" lon="-3.1728110">
        <ele>13.8</ele>
        <time>2018-09-04T08:17:55Z</time>
      </trkpt>
      <trkpt lat="43.3518070" lon="-3.1743470">
        <ele>14.2</ele>
        <time>2018-09-04T08:17:58Z</time>
      </trkpt>
      <trkpt lat="43.3518660" lon="-3.1745260">
        <ele>15.4</ele>
        <time>2018-09-04T08:18:05Z</time>
      </trkpt>
      <trkpt lat="43.3518780" lon="-3.1745850">
        <ele>16.0</ele>
        <time>2018-09-04T08:18:07Z</time>
      </trkpt>
      <trkpt lat="43.3519010" lon="-3.1747120">
        <ele>16.6</ele>
        <time>2018-09-04T08:18:11Z</time>
      </trkpt>
      <trkpt lat="43.3519200" lon="-3.1747910">
        <ele>17.2</ele>
        <time>2018-09-04T08:18:14Z</time>
      </trkpt>
      <trkpt lat="43.3519430" lon="-3.1748750">
        <ele>17.8</ele>
        <time>2018-09-04T08:18:17Z</time>
      </trkpt>
      <trkpt lat="43.3519800" lon="-3.1750330">
        <ele>18.4</ele>
        <time>2018-09-04T08:18:22Z</time>
      </trkpt>
      <trkpt lat="43.3520010" lon="-3.1750850">
        <ele>18.8</ele>
        <time>2018-09-04T08:18:24Z</time>
      </trkpt>
      <trkpt lat="43.3520430" lon="-3.1752230">
        <ele>19.6</ele>
        <time>2018-09-04T08:18:29Z</time>
      </trkpt>
      <trkpt lat="43.3520490" lon="-3.1752500">
        <ele>19.8</ele>
        <time>2018-09-04T08:18:30Z</time>
      </trkpt>
      <trkpt lat="43.3520980" lon="-3.1753720">
        <ele>20.8</ele>
        <time>2018-09-04T08:18:34Z</time>
      </trkpt>
      <trkpt lat="43.3521360" lon="-3.1754320">
        <ele>21.4</ele>
        <time>2018-09-04T08:18:37Z</time>
      </trkpt>
      <trkpt lat="43.3521810" lon="-3.1754840">
        <ele>21.8</ele>
        <time>2018-09-04T08:18:40Z</time>
      </trkpt>
      <trkpt lat="43.3522360" lon="-3.1755310">
        <ele>22.2</ele>
        <time>2018-09-04T08:18:43Z</time>
      </trkpt>
      <trkpt lat="43.3522720" lon="-3.1755610">
        <ele>22.6</ele>
        <time>2018-09-04T08:18:45Z</time>
      </trkpt>
      <trkpt lat="43.3523100" lon="-3.1755800">
        <ele>23.0</ele>
        <time>2018-09-04T08:18:47Z</time>
      </trkpt>
      <trkpt lat="43.3523860" lon="-3.1756010">
        <ele>23.8</ele>
        <time>2018-09-04T08:18:51Z</time>
      </trkpt>
      <trkpt lat="43.3524080" lon="-3.1756040">
        <ele>24.0</ele>
        <time>2018-09-04T08:18:52Z</time>
      </trkpt>
      <trkpt lat="43.3524290" lon="-3.1756070">
        <ele>24.0</ele>
        <time>2018-09-04T08:18:53Z</time>
      </trkpt>
      <trkpt lat="43.3525470" lon="-3.1756160">
        <ele>25.2</ele>
        <time>2018-09-04T08:18:59Z</time>
      </trkpt>
      <trkpt lat="43.3525840" lon="-3.1756140">
        <ele>25.2</ele>
        <time>2018-09-04T08:19:01Z</time>
      </trkpt>
      <trkpt lat="43.3527230" lon="-3.1756190">
        <ele>26.0</ele>
        <time>2018-09-04T08:19:07Z</time>
      </trkpt>
      <trkpt lat="43.3527440" lon="-3.1756170">
        <ele>26.2</ele>
        <time>2018-09-04T08:19:08Z</time>
      </trkpt>
      <trkpt lat="43.3528930" lon="-3.1756170">
        <ele>27.2</ele>
        <time>2018-09-04T08:19:15Z</time>
      </trkpt>
      <trkpt lat="43.3529180" lon="-3.1756170">
        <ele>27.4</ele>
        <time>2018-09-04T08:19:16Z</time>
      </trkpt>
      <trkpt lat="43.3530510" lon="-3.1755900">
        <ele>28.2</ele>
        <time>2018-09-04T08:19:22Z</time>
      </trkpt>
      <trkpt lat="43.3531150" lon="-3.1755640">
        <ele>28.8</ele>
        <time>2018-09-04T08:19:25Z</time>
      </trkpt>
      <trkpt lat="43.3532110" lon="-3.1754830">
        <ele>29.6</ele>
        <time>2018-09-04T08:19:30Z</time>
      </trkpt>
      <trkpt lat="43.3532270" lon="-3.1754630">
        <ele>29.4</ele>
        <time>2018-09-04T08:19:31Z</time>
      </trkpt>
      <trkpt lat="43.3533050" lon="-3.1753040">
        <ele>30.6</ele>
        <time>2018-09-04T08:19:38Z</time>
      </trkpt>
      <trkpt lat="43.3533420" lon="-3.1751720">
        <ele>31.6</ele>
        <time>2018-09-04T08:19:43Z</time>
      </trkpt>
      <trkpt lat="43.3533610" lon="-3.1750880">
        <ele>32.0</ele>
        <time>2018-09-04T08:19:46Z</time>
      </trkpt>
      <trkpt lat="43.3533850" lon="-3.1750100">
        <ele>32.6</ele>
        <time>2018-09-04T08:19:49Z</time>
      </trkpt>
      <trkpt lat="43.3534350" lon="-3.1748990">
        <ele>33.6</ele>
        <time>2018-09-04T08:19:54Z</time>
      </trkpt>
      <trkpt lat="43.3534840" lon="-3.1748410">
        <ele>34.2</ele>
        <time>2018-09-04T08:19:57Z</time>
      </trkpt>
      <trkpt lat="43.3535480" lon="-3.1748040">
        <ele>34.6</ele>
        <time>2018-09-04T08:20:00Z</time>
      </trkpt>
      <trkpt lat="43.3535690" lon="-3.1747940">
        <ele>34.8</ele>
        <time>2018-09-04T08:20:01Z</time>
      </trkpt>
      <trkpt lat="43.3536840" lon="-3.1747840">
        <ele>36.0</ele>
        <time>2018-09-04T08:20:07Z</time>
      </trkpt>
      <trkpt lat="43.3537810" lon="-3.1747910">
        <ele>37.0</ele>
        <time>2018-09-04T08:20:12Z</time>
      </trkpt>
      <trkpt lat="43.3538120" lon="-3.1747930">
        <ele>37.6</ele>
        <time>2018-09-04T08:20:14Z</time>
      </trkpt>
      <trkpt lat="43.3538560" lon="-3.1747940">
        <ele>38.2</ele>
        <time>2018-09-04T08:20:17Z</time>
      </trkpt>
      <trkpt lat="43.3539470" lon="-3.1747780">
        <ele>39.2</ele>
        <time>2018-09-04T08:20:22Z</time>
      </trkpt>
      <trkpt lat="43.3539810" lon="-3.1747870">
        <ele>39.4</ele>
        <time>2018-09-04T08:20:23Z</time>
      </trkpt>
      <trkpt lat="43.3540790" lon="-3.1748050">
        <ele>40.4</ele>
        <time>2018-09-04T08:20:27Z</time>
      </trkpt>
      <trkpt lat="43.3541300" lon="-3.1747950">
        <ele>41.0</ele>
        <time>2018-09-04T08:20:29Z</time>
      </trkpt>
      <trkpt lat="43.3541810" lon="-3.1747810">
        <ele>41.8</ele>
        <time>2018-09-04T08:20:31Z</time>
      </trkpt>
      <trkpt lat="43.3542610" lon="-3.1747180">
        <ele>42.8</ele>
        <time>2018-09-04T08:20:36Z</time>
      </trkpt>
      <trkpt lat="43.3542710" lon="-3.1747090">
        <ele>43.0</ele>
        <time>2018-09-04T08:20:37Z</time>
      </trkpt>
      <trkpt lat="43.3543620" lon="-3.1746620">
        <ele>44.0</ele>
        <time>2018-09-04T08:20:42Z</time>
      </trkpt>
      <trkpt lat="43.3544040" lon="-3.1746490">
        <ele>44.4</ele>
        <time>2018-09-04T08:20:44Z</time>
      </trkpt>
      <trkpt lat="43.3544740" lon="-3.1746420">
        <ele>45.2</ele>
        <time>2018-09-04T08:20:48Z</time>
      </trkpt>
      <trkpt lat="43.3545330" lon="-3.1746500">
        <ele>45.6</ele>
        <time>2018-09-04T08:20:51Z</time>
      </trkpt>
      <trkpt lat="43.3545970" lon="-3.1746610">
        <ele>46.2</ele>
        <time>2018-09-04T08:20:54Z</time>
      </trkpt>
      <trkpt lat="43.3546670" lon="-3.1747090">
        <ele>47.6</ele>
        <time>2018-09-04T08:20:58Z</time>
      </trkpt>
      <trkpt lat="43.3546800" lon="-3.1747320">
        <ele>47.6</ele>
        <time>2018-09-04T08:20:59Z</time>
      </trkpt>
      <trkpt lat="43.3547160" lon="-3.1748000">
        <ele>48.0</ele>
        <time>2018-09-04T08:21:02Z</time>
      </trkpt>
      <trkpt lat="43.3547590" lon="-3.1749000">
        <ele>48.4</ele>
        <time>2018-09-04T08:21:06Z</time>
      </trkpt>
      <trkpt lat="43.3547710" lon="-3.1749250">
        <ele>48.8</ele>
        <time>2018-09-04T08:21:07Z</time>
      </trkpt>
      <trkpt lat="43.3548270" lon="-3.1750760">
        <ele>50.0</ele>
        <time>2018-09-04T08:21:13Z</time>
      </trkpt>
      <trkpt lat="43.3548580" lon="-3.1751230">
        <ele>50.2</ele>
        <time>2018-09-04T08:21:15Z</time>
      </trkpt>
      <trkpt lat="43.3548970" lon="-3.1751930">
        <ele>51.0</ele>
        <time>2018-09-04T08:21:18Z</time>
      </trkpt>
      <trkpt lat="43.3549420" lon="-3.1752870">
        <ele>52.0</ele>
        <time>2018-09-04T08:21:22Z</time>
      </trkpt>
      <trkpt lat="43.3549940" lon="-3.1753750">
        <ele>53.0</ele>
        <time>2018-09-04T08:21:26Z</time>
      </trkpt>
      <trkpt lat="43.3550370" lon="-3.1754430">
        <ele>53.6</ele>
        <time>2018-09-04T08:21:29Z</time>
      </trkpt>
      <trkpt lat="43.3550750" lon="-3.1755370">
        <ele>54.2</ele>
        <time>2018-09-04T08:21:33Z</time>
      </trkpt>
      <trkpt lat="43.3551250" lon="-3.1756410">
        <ele>55.0</ele>
        <time>2018-09-04T08:21:37Z</time>
      </trkpt>
      <trkpt lat="43.3551670" lon="-3.1757200">
        <ele>55.4</ele>
        <time>2018-09-04T08:21:40Z</time>
      </trkpt>
      <trkpt lat="43.3552130" lon="-3.1758250">
        <ele>55.8</ele>
        <time>2018-09-04T08:21:44Z</time>
      </trkpt>
      <trkpt lat="43.3552760" lon="-3.1759620">
        <ele>56.4</ele>
        <time>2018-09-04T08:21:49Z</time>
      </trkpt>
      <trkpt lat="43.3553260" lon="-3.1760710">
        <ele>57.0</ele>
        <time>2018-09-04T08:21:53Z</time>
      </trkpt>
      <trkpt lat="43.3553580" lon="-3.1761150">
        <ele>57.0</ele>
        <time>2018-09-04T08:21:55Z</time>
      </trkpt>
      <trkpt lat="43.3553960" lon="-3.1761920">
        <ele>57.4</ele>
        <time>2018-09-04T08:21:58Z</time>
      </trkpt>
      <trkpt lat="43.3554080" lon="-3.1762220">
        <ele>57.6</ele>
        <time>2018-09-04T08:21:59Z</time>
      </trkpt>
      <trkpt lat="43.3554160" lon="-3.1763960">
        <ele>58.0</ele>
        <time>2018-09-04T08:22:04Z</time>
      </trkpt>
      <trkpt lat="43.3553880" lon="-3.1764990">
        <ele>58.4</ele>
        <time>2018-09-04T08:22:07Z</time>
      </trkpt>
      <trkpt lat="43.3553380" lon="-3.1765960">
        <ele>58.6</ele>
        <time>2018-09-04T08:22:10Z</time>
      </trkpt>
      <trkpt lat="43.3552720" lon="-3.1768040">
        <ele>59.2</ele>
        <time>2018-09-04T08:22:16Z</time>
      </trkpt>
      <trkpt lat="43.3552600" lon="-3.1768710">
        <ele>59.6</ele>
        <time>2018-09-04T08:22:18Z</time>
      </trkpt>
      <trkpt lat="43.3552320" lon="-3.1770080">
        <ele>60.6</ele>
        <time>2018-09-04T08:22:22Z</time>
      </trkpt>
      <trkpt lat="43.3552200" lon="-3.1770430">
        <ele>61.0</ele>
        <time>2018-09-04T08:22:23Z</time>
      </trkpt>
      <trkpt lat="43.3551980" lon="-3.1771080">
        <ele>61.4</ele>
        <time>2018-09-04T08:22:25Z</time>
      </trkpt>
      <trkpt lat="43.3551030" lon="-3.1772370">
        <ele>62.0</ele>
        <time>2018-09-04T08:22:30Z</time>
      </trkpt>
      <trkpt lat="43.3550830" lon="-3.1772620">
        <ele>62.2</ele>
        <time>2018-09-04T08:22:31Z</time>
      </trkpt>
      <trkpt lat="43.3550180" lon="-3.1773300">
        <ele>62.6</ele>
        <time>2018-09-04T08:22:34Z</time>
      </trkpt>
      <trkpt lat="43.3549600" lon="-3.1773940">
        <ele>63.0</ele>
        <time>2018-09-04T08:22:37Z</time>
      </trkpt>
      <trkpt lat="43.3549240" lon="-3.1774320">
        <ele>63.4</ele>
        <time>2018-09-04T08:22:39Z</time>
      </trkpt>
      <trkpt lat="43.3548690" lon="-3.1774970">
        <ele>64.0</ele>
        <time>2018-09-04T08:22:42Z</time>
      </trkpt>
      <trkpt lat="43.3547460" lon="-3.1776430">
        <ele>65.0</ele>
        <time>2018-09-04T08:22:49Z</time>
      </trkpt>
      <trkpt lat="43.3547290" lon="-3.1776630">
        <ele>65.2</ele>
        <time>2018-09-04T08:22:50Z</time>
      </trkpt>
      <trkpt lat="43.3546530" lon="-3.1777460">
        <ele>65.4</ele>
        <time>2018-09-04T08:22:54Z</time>
      </trkpt>
      <trkpt lat="43.3546200" lon="-3.1777920">
        <ele>66.2</ele>
        <time>2018-09-04T08:22:56Z</time>
      </trkpt>
      <trkpt lat="43.3546020" lon="-3.1778160">
        <ele>66.4</ele>
        <time>2018-09-04T08:22:57Z</time>
      </trkpt>
      <trkpt lat="43.3544630" lon="-3.1779610">
        <ele>67.2</ele>
        <time>2018-09-04T08:23:04Z</time>
      </trkpt>
      <trkpt lat="43.3544220" lon="-3.1780050">
        <ele>67.8</ele>
        <time>2018-09-04T08:23:06Z</time>
      </trkpt>
      <trkpt lat="43.3543440" lon="-3.1780960">
        <ele>68.4</ele>
        <time>2018-09-04T08:23:10Z</time>
      </trkpt>
      <trkpt lat="43.3542690" lon="-3.1781880">
        <ele>69.0</ele>
        <time>2018-09-04T08:23:14Z</time>
      </trkpt>
      <trkpt lat="43.3542150" lon="-3.1782520">
        <ele>69.4</ele>
        <time>2018-09-04T08:23:17Z</time>
      </trkpt>
      <trkpt lat="43.3540900" lon="-3.1784290">
        <ele>70.6</ele>
        <time>2018-09-04T08:23:24Z</time>
      </trkpt>
      <trkpt lat="43.3540570" lon="-3.1786140">
        <ele>71.8</ele>
        <time>2018-09-04T08:23:30Z</time>
      </trkpt>
      <trkpt lat="43.3540670" lon="-3.1787760">
        <ele>72.8</ele>
        <time>2018-09-04T08:23:35Z</time>
      </trkpt>
      <trkpt lat="43.3540910" lon="-3.1788670">
        <ele>73.4</ele>
        <time>2018-09-04T08:23:38Z</time>
      </trkpt>
      <trkpt lat="43.3541150" lon="-3.1789630">
        <ele>73.8</ele>
        <time>2018-09-04T08:23:41Z</time>
      </trkpt>
      <trkpt lat="43.3541850" lon="-3.1791430">
        <ele>74.8</ele>
        <time>2018-09-04T08:23:47Z</time>
      </trkpt>
      <trkpt lat="43.3541980" lon="-3.1791780">
        <ele>75.0</ele>
        <time>2018-09-04T08:23:48Z</time>
      </trkpt>
      <trkpt lat="43.3542520" lon="-3.1792990">
        <ele>75.6</ele>
        <time>2018-09-04T08:23:52Z</time>
      </trkpt>
      <trkpt lat="43.3543200" lon="-3.1794460">
        <ele>75.8</ele>
        <time>2018-09-04T08:23:57Z</time>
      </trkpt>
      <trkpt lat="43.3543340" lon="-3.1794750">
        <ele>76.0</ele>
        <time>2018-09-04T08:23:58Z</time>
      </trkpt>
      <trkpt lat="43.3544070" lon="-3.1796660">
        <ele>77.2</ele>
        <time>2018-09-04T08:24:04Z</time>
      </trkpt>
      <trkpt lat="43.3544280" lon="-3.1797280">
        <ele>77.4</ele>
        <time>2018-09-04T08:24:06Z</time>
      </trkpt>
      <trkpt lat="43.3544570" lon="-3.1798620">
        <ele>77.8</ele>
        <time>2018-09-04T08:24:10Z</time>
      </trkpt>
      <trkpt lat="43.3544490" lon="-3.1799670">
        <ele>77.8</ele>
        <time>2018-09-04T08:24:13Z</time>
      </trkpt>
      <trkpt lat="43.3544490" lon="-3.1800810">
        <ele>78.2</ele>
        <time>2018-09-04T08:24:16Z</time>
      </trkpt>
      <trkpt lat="43.3544180" lon="-3.1802250">
        <ele>79.0</ele>
        <time>2018-09-04T08:24:20Z</time>
      </trkpt>
      <trkpt lat="43.3543950" lon="-3.1802910">
        <ele>79.4</ele>
        <time>2018-09-04T08:24:22Z</time>
      </trkpt>
      <trkpt lat="43.3543230" lon="-3.1805040">
        <ele>79.8</ele>
        <time>2018-09-04T08:24:28Z</time>
      </trkpt>
      <trkpt lat="43.3542770" lon="-3.1806400">
        <ele>80.6</ele>
        <time>2018-09-04T08:24:32Z</time>
      </trkpt>
      <trkpt lat="43.3542160" lon="-3.1808080">
        <ele>80.6</ele>
        <time>2018-09-04T08:24:37Z</time>
      </trkpt>
      <trkpt lat="43.3541690" lon="-3.1809420">
        <ele>81.6</ele>
        <time>2018-09-04T08:24:41Z</time>
      </trkpt>
      <trkpt lat="43.3541170" lon="-3.1810790">
        <ele>82.2</ele>
        <time>2018-09-04T08:24:45Z</time>
      </trkpt>
      <trkpt lat="43.3540920" lon="-3.1811600">
        <ele>82.6</ele>
        <time>2018-09-04T08:24:47Z</time>
      </trkpt>
      <trkpt lat="43.3540250" lon="-3.1813640">
        <ele>82.4</ele>
        <time>2018-09-04T08:24:51Z</time>
      </trkpt>
      <trkpt lat="43.3539680" lon="-3.1815470">
        <ele>81.6</ele>
        <time>2018-09-04T08:24:54Z</time>
      </trkpt>
      <trkpt lat="43.3538650" lon="-3.1818460">
        <ele>81.8</ele>
        <time>2018-09-04T08:24:59Z</time>
      </trkpt>
      <trkpt lat="43.3538030" lon="-3.1821040">
        <ele>82.8</ele>
        <time>2018-09-04T08:25:04Z</time>
      </trkpt>
      <trkpt lat="43.3537930" lon="-3.1821960">
        <ele>83.0</ele>
        <time>2018-09-04T08:25:06Z</time>
      </trkpt>
      <trkpt lat="43.3537900" lon="-3.1823180">
        <ele>83.8</ele>
        <time>2018-09-04T08:25:09Z</time>
      </trkpt>
      <trkpt lat="43.3537990" lon="-3.1823530">
        <ele>84.0</ele>
        <time>2018-09-04T08:25:10Z</time>
      </trkpt>
      <trkpt lat="43.3538170" lon="-3.1824180">
        <ele>84.4</ele>
        <time>2018-09-04T08:25:12Z</time>
      </trkpt>
      <trkpt lat="43.3538300" lon="-3.1824460">
        <ele>84.8</ele>
        <time>2018-09-04T08:25:13Z</time>
      </trkpt>
      <trkpt lat="43.3538480" lon="-3.1825010">
        <ele>85.2</ele>
        <time>2018-09-04T08:25:15Z</time>
      </trkpt>
      <trkpt lat="43.3538640" lon="-3.1825220">
        <ele>85.4</ele>
        <time>2018-09-04T08:25:16Z</time>
      </trkpt>
      <trkpt lat="43.3538910" lon="-3.1825640">
        <ele>85.8</ele>
        <time>2018-09-04T08:25:18Z</time>
      </trkpt>
      <trkpt lat="43.3539370" lon="-3.1826150">
        <ele>86.8</ele>
        <time>2018-09-04T08:25:21Z</time>
      </trkpt>
      <trkpt lat="43.3539810" lon="-3.1826370">
        <ele>87.2</ele>
        <time>2018-09-04T08:25:23Z</time>
      </trkpt>
      <trkpt lat="43.3540010" lon="-3.1826440">
        <ele>87.4</ele>
        <time>2018-09-04T08:25:24Z</time>
      </trkpt>
      <trkpt lat="43.3540380" lon="-3.1826640">
        <ele>88.0</ele>
        <time>2018-09-04T08:25:26Z</time>
      </trkpt>
      <trkpt lat="43.3540780" lon="-3.1826840">
        <ele>88.4</ele>
        <time>2018-09-04T08:25:28Z</time>
      </trkpt>
      <trkpt lat="43.3541460" lon="-3.1826860">
        <ele>89.0</ele>
        <time>2018-09-04T08:25:31Z</time>
      </trkpt>
      <trkpt lat="43.3542490" lon="-3.1827220">
        <ele>90.0</ele>
        <time>2018-09-04T08:25:36Z</time>
      </trkpt>
      <trkpt lat="43.3542870" lon="-3.1827290">
        <ele>90.4</ele>
        <time>2018-09-04T08:25:38Z</time>
      </trkpt>
      <trkpt lat="43.3543630" lon="-3.1827420">
        <ele>91.0</ele>
        <time>2018-09-04T08:25:42Z</time>
      </trkpt>
      <trkpt lat="43.3544480" lon="-3.1827620">
        <ele>92.2</ele>
        <time>2018-09-04T08:25:46Z</time>
      </trkpt>
      <trkpt lat="43.3544670" lon="-3.1827700">
        <ele>92.4</ele>
        <time>2018-09-04T08:25:47Z</time>
      </trkpt>
      <trkpt lat="43.3545650" lon="-3.1827870">
        <ele>93.2</ele>
        <time>2018-09-04T08:25:52Z</time>
      </trkpt>
      <trkpt lat="43.3546470" lon="-3.1828000">
        <ele>94.2</ele>
        <time>2018-09-04T08:25:56Z</time>
      </trkpt>
      <trkpt lat="43.3546640" lon="-3.1828060">
        <ele>94.4</ele>
        <time>2018-09-04T08:25:57Z</time>
      </trkpt>
      <trkpt lat="43.3547570" lon="-3.1828290">
        <ele>95.4</ele>
        <time>2018-09-04T08:26:02Z</time>
      </trkpt>
      <trkpt lat="43.3547900" lon="-3.1828350">
        <ele>95.6</ele>
        <time>2018-09-04T08:26:04Z</time>
      </trkpt>
      <trkpt lat="43.3548650" lon="-3.1828530">
        <ele>96.8</ele>
        <time>2018-09-04T08:26:08Z</time>
      </trkpt>
      <trkpt lat="43.3549410" lon="-3.1828670">
        <ele>97.4</ele>
        <time>2018-09-04T08:26:12Z</time>
      </trkpt>
      <trkpt lat="43.3549760" lon="-3.1828720">
        <ele>97.8</ele>
        <time>2018-09-04T08:26:14Z</time>
      </trkpt>
      <trkpt lat="43.3550890" lon="-3.1829030">
        <ele>99.0</ele>
        <time>2018-09-04T08:26:20Z</time>
      </trkpt>
      <trkpt lat="43.3551070" lon="-3.1829050">
        <ele>99.2</ele>
        <time>2018-09-04T08:26:21Z</time>
      </trkpt>
      <trkpt lat="43.3551840" lon="-3.1829220">
        <ele>100.0</ele>
        <time>2018-09-04T08:26:25Z</time>
      </trkpt>
      <trkpt lat="43.3552680" lon="-3.1829690">
        <ele>100.8</ele>
        <time>2018-09-04T08:26:30Z</time>
      </trkpt>
      <trkpt lat="43.3552880" lon="-3.1829680">
        <ele>101.0</ele>
        <time>2018-09-04T08:26:31Z</time>
      </trkpt>
      <trkpt lat="43.3553540" lon="-3.1829980">
        <ele>102.0</ele>
        <time>2018-09-04T08:26:35Z</time>
      </trkpt>
      <trkpt lat="43.3553740" lon="-3.1830020">
        <ele>102.2</ele>
        <time>2018-09-04T08:26:36Z</time>
      </trkpt>
      <trkpt lat="43.3554480" lon="-3.1830060">
        <ele>103.0</ele>
        <time>2018-09-04T08:26:40Z</time>
      </trkpt>
      <trkpt lat="43.3555220" lon="-3.1830300">
        <ele>103.8</ele>
        <time>2018-09-04T08:26:44Z</time>
      </trkpt>
      <trkpt lat="43.3555590" lon="-3.1830380">
        <ele>104.2</ele>
        <time>2018-09-04T08:26:46Z</time>
      </trkpt>
      <trkpt lat="43.3556460" lon="-3.1830600">
        <ele>105.2</ele>
        <time>2018-09-04T08:26:51Z</time>
      </trkpt>
      <trkpt lat="43.3557230" lon="-3.1830750">
        <ele>106.2</ele>
        <time>2018-09-04T08:26:56Z</time>
      </trkpt>
      <trkpt lat="43.3557380" lon="-3.1830780">
        <ele>106.6</ele>
        <time>2018-09-04T08:26:57Z</time>
      </trkpt>
      <trkpt lat="43.3558300" lon="-3.1831030">
        <ele>107.4</ele>
        <time>2018-09-04T08:27:02Z</time>
      </trkpt>
      <trkpt lat="43.3558740" lon="-3.1831230">
        <ele>108.0</ele>
        <time>2018-09-04T08:27:05Z</time>
      </trkpt>
      <trkpt lat="43.3559210" lon="-3.1831440">
        <ele>108.4</ele>
        <time>2018-09-04T08:27:08Z</time>
      </trkpt>
      <trkpt lat="43.3559650" lon="-3.1831800">
        <ele>109.2</ele>
        <time>2018-09-04T08:27:12Z</time>
      </trkpt>
      <trkpt lat="43.3560050" lon="-3.1832070">
        <ele>109.4</ele>
        <time>2018-09-04T08:27:15Z</time>
      </trkpt>
      <trkpt lat="43.3560430" lon="-3.1832340">
        <ele>110.0</ele>
        <time>2018-09-04T08:27:18Z</time>
      </trkpt>
      <trkpt lat="43.3560540" lon="-3.1832400">
        <ele>110.2</ele>
        <time>2018-09-04T08:27:19Z</time>
      </trkpt>
      <trkpt lat="43.3560670" lon="-3.1832500">
        <ele>110.6</ele>
        <time>2018-09-04T08:27:20Z</time>
      </trkpt>
      <trkpt lat="43.3560960" lon="-3.1832680">
        <ele>110.8</ele>
        <time>2018-09-04T08:27:22Z</time>
      </trkpt>
      <trkpt lat="43.3561340" lon="-3.1832870">
        <ele>111.2</ele>
        <time>2018-09-04T08:27:25Z</time>
      </trkpt>
      <trkpt lat="43.3561700" lon="-3.1833040">
        <ele>111.8</ele>
        <time>2018-09-04T08:27:28Z</time>
      </trkpt>
      <trkpt lat="43.3562200" lon="-3.1833270">
        <ele>112.2</ele>
        <time>2018-09-04T08:27:32Z</time>
      </trkpt>
      <trkpt lat="43.3562780" lon="-3.1833660">
        <ele>112.8</ele>
        <time>2018-09-04T08:27:37Z</time>
      </trkpt>
      <trkpt lat="43.3563140" lon="-3.1833960">
        <ele>113.2</ele>
        <time>2018-09-04T08:27:40Z</time>
      </trkpt>
      <trkpt lat="43.3563620" lon="-3.1834260">
        <ele>114.0</ele>
        <time>2018-09-04T08:27:44Z</time>
      </trkpt>
      <trkpt lat="43.3564000" lon="-3.1834630">
        <ele>114.4</ele>
        <time>2018-09-04T08:27:47Z</time>
      </trkpt>
      <trkpt lat="43.3564460" lon="-3.1834960">
        <ele>114.8</ele>
        <time>2018-09-04T08:27:51Z</time>
      </trkpt>
      <trkpt lat="43.3564590" lon="-3.1835040">
        <ele>115.0</ele>
        <time>2018-09-04T08:27:52Z</time>
      </trkpt>
      <trkpt lat="43.3564830" lon="-3.1835400">
        <ele>115.6</ele>
        <time>2018-09-04T08:27:55Z</time>
      </trkpt>
      <trkpt lat="43.3564950" lon="-3.1835530">
        <ele>115.6</ele>
        <time>2018-09-04T08:27:56Z</time>
      </trkpt>
      <trkpt lat="43.3565360" lon="-3.1836000">
        <ele>116.2</ele>
        <time>2018-09-04T08:28:00Z</time>
      </trkpt>
      <trkpt lat="43.3565840" lon="-3.1836390">
        <ele>116.6</ele>
        <time>2018-09-04T08:28:04Z</time>
      </trkpt>
      <trkpt lat="43.3566300" lon="-3.1836870">
        <ele>117.4</ele>
        <time>2018-09-04T08:28:08Z</time>
      </trkpt>
      <trkpt lat="43.3566600" lon="-3.1837040">
        <ele>117.6</ele>
        <time>2018-09-04T08:28:10Z</time>
      </trkpt>
      <trkpt lat="43.3567170" lon="-3.1837540">
        <ele>118.6</ele>
        <time>2018-09-04T08:28:15Z</time>
      </trkpt>
      <trkpt lat="43.3567280" lon="-3.1837680">
        <ele>118.8</ele>
        <time>2018-09-04T08:28:16Z</time>
      </trkpt>
      <trkpt lat="43.3567960" lon="-3.1838520">
        <ele>119.6</ele>
        <time>2018-09-04T08:28:22Z</time>
      </trkpt>
      <trkpt lat="43.3568050" lon="-3.1838650">
        <ele>119.8</ele>
        <time>2018-09-04T08:28:23Z</time>
      </trkpt>
      <trkpt lat="43.3568710" lon="-3.1839290">
        <ele>120.8</ele>
        <time>2018-09-04T08:28:28Z</time>
      </trkpt>
      <trkpt lat="43.3568880" lon="-3.1839450">
        <ele>120.8</ele>
        <time>2018-09-04T08:28:29Z</time>
      </trkpt>
      <trkpt lat="43.3569540" lon="-3.1840090">
        <ele>121.8</ele>
        <time>2018-09-04T08:28:34Z</time>
      </trkpt>
      <trkpt lat="43.3569780" lon="-3.1840370">
        <ele>122.2</ele>
        <time>2018-09-04T08:28:36Z</time>
      </trkpt>
      <trkpt lat="43.3570260" lon="-3.1841160">
        <ele>123.0</ele>
        <time>2018-09-04T08:28:41Z</time>
      </trkpt>
      <trkpt lat="43.3570570" lon="-3.1841630">
        <ele>123.4</ele>
        <time>2018-09-04T08:28:44Z</time>
      </trkpt>
      <trkpt lat="43.3570950" lon="-3.1841980">
        <ele>124.2</ele>
        <time>2018-09-04T08:28:47Z</time>
      </trkpt>
      <trkpt lat="43.3571100" lon="-3.1842000">
        <ele>124.2</ele>
        <time>2018-09-04T08:28:48Z</time>
      </trkpt>
      <trkpt lat="43.3571390" lon="-3.1842160">
        <ele>124.4</ele>
        <time>2018-09-04T08:28:50Z</time>
      </trkpt>
      <trkpt lat="43.3571590" lon="-3.1842720">
        <ele>125.2</ele>
        <time>2018-09-04T08:28:53Z</time>
      </trkpt>
      <trkpt lat="43.3572020" lon="-3.1843260">
        <ele>125.8</ele>
        <time>2018-09-04T08:28:57Z</time>
      </trkpt>
      <trkpt lat="43.3572330" lon="-3.1843660">
        <ele>126.2</ele>
        <time>2018-09-04T08:29:00Z</time>
      </trkpt>
      <trkpt lat="43.3572760" lon="-3.1843820">
        <ele>126.6</ele>
        <time>2018-09-04T08:29:03Z</time>
      </trkpt>
      <trkpt lat="43.3573070" lon="-3.1844190">
        <ele>127.0</ele>
        <time>2018-09-04T08:29:06Z</time>
      </trkpt>
      <trkpt lat="43.3573290" lon="-3.1844470">
        <ele>127.4</ele>
        <time>2018-09-04T08:29:08Z</time>
      </trkpt>
      <trkpt lat="43.3573540" lon="-3.1844670">
        <ele>127.4</ele>
        <time>2018-09-04T08:29:10Z</time>
      </trkpt>
      <trkpt lat="43.3573970" lon="-3.1845160">
        <ele>128.2</ele>
        <time>2018-09-04T08:29:14Z</time>
      </trkpt>
      <trkpt lat="43.3574220" lon="-3.1845300">
        <ele>128.4</ele>
        <time>2018-09-04T08:29:16Z</time>
      </trkpt>
      <trkpt lat="43.3574940" lon="-3.1845620">
        <ele>129.0</ele>
        <time>2018-09-04T08:29:21Z</time>
      </trkpt>
      <trkpt lat="43.3575380" lon="-3.1845870">
        <ele>129.4</ele>
        <time>2018-09-04T08:29:24Z</time>
      </trkpt>
      <trkpt lat="43.3575990" lon="-3.1846310">
        <ele>130.4</ele>
        <time>2018-09-04T08:29:29Z</time>
      </trkpt>
      <trkpt lat="43.3576140" lon="-3.1846390">
        <ele>130.6</ele>
        <time>2018-09-04T08:29:30Z</time>
      </trkpt>
      <trkpt lat="43.3576760" lon="-3.1847080">
        <ele>131.4</ele>
        <time>2018-09-04T08:29:36Z</time>
      </trkpt>
      <trkpt lat="43.3577090" lon="-3.1847230">
        <ele>131.6</ele>
        <time>2018-09-04T08:29:38Z</time>
      </trkpt>
      <trkpt lat="43.3577730" lon="-3.1847820">
        <ele>132.8</ele>
        <time>2018-09-04T08:29:43Z</time>
      </trkpt>
      <trkpt lat="43.3578400" lon="-3.1848300">
        <ele>133.8</ele>
        <time>2018-09-04T08:29:48Z</time>
      </trkpt>
      <trkpt lat="43.3578850" lon="-3.1848410">
        <ele>134.2</ele>
        <time>2018-09-04T08:29:51Z</time>
      </trkpt>
      <trkpt lat="43.3579360" lon="-3.1848780">
        <ele>134.8</ele>
        <time>2018-09-04T08:29:55Z</time>
      </trkpt>
      <trkpt lat="43.3579720" lon="-3.1849050">
        <ele>135.2</ele>
        <time>2018-09-04T08:29:58Z</time>
      </trkpt>
      <trkpt lat="43.3580190" lon="-3.1849100">
        <ele>135.8</ele>
        <time>2018-09-04T08:30:01Z</time>
      </trkpt>
      <trkpt lat="43.3580330" lon="-3.1849210">
        <ele>135.8</ele>
        <time>2018-09-04T08:30:02Z</time>
      </trkpt>
      <trkpt lat="43.3580630" lon="-3.1849460">
        <ele>136.2</ele>
        <time>2018-09-04T08:30:04Z</time>
      </trkpt>
      <trkpt lat="43.3581240" lon="-3.1849790">
        <ele>136.8</ele>
        <time>2018-09-04T08:30:08Z</time>
      </trkpt>
      <trkpt lat="43.3582000" lon="-3.1850280">
        <ele>137.8</ele>
        <time>2018-09-04T08:30:13Z</time>
      </trkpt>
      <trkpt lat="43.3582080" lon="-3.1850440">
        <ele>138.0</ele>
        <time>2018-09-04T08:30:14Z</time>
      </trkpt>
      <trkpt lat="43.3582560" lon="-3.1850660">
        <ele>138.6</ele>
        <time>2018-09-04T08:30:17Z</time>
      </trkpt>
      <trkpt lat="43.3582750" lon="-3.1850580">
        <ele>138.8</ele>
        <time>2018-09-04T08:30:18Z</time>
      </trkpt>
      <trkpt lat="43.3583140" lon="-3.1850870">
        <ele>139.2</ele>
        <time>2018-09-04T08:30:21Z</time>
      </trkpt>
      <trkpt lat="43.3583520" lon="-3.1851270">
        <ele>139.6</ele>
        <time>2018-09-04T08:30:24Z</time>
      </trkpt>
      <trkpt lat="43.3584440" lon="-3.1851860">
        <ele>140.4</ele>
        <time>2018-09-04T08:30:30Z</time>
      </trkpt>
      <trkpt lat="43.3584860" lon="-3.1852220">
        <ele>141.2</ele>
        <time>2018-09-04T08:30:33Z</time>
      </trkpt>
      <trkpt lat="43.3585380" lon="-3.1852670">
        <ele>141.6</ele>
        <time>2018-09-04T08:30:36Z</time>
      </trkpt>
      <trkpt lat="43.3586220" lon="-3.1853430">
        <ele>142.6</ele>
        <time>2018-09-04T08:30:41Z</time>
      </trkpt>
      <trkpt lat="43.3586870" lon="-3.1854200">
        <ele>143.4</ele>
        <time>2018-09-04T08:30:46Z</time>
      </trkpt>
      <trkpt lat="43.3587440" lon="-3.1854680">
        <ele>144.0</ele>
        <time>2018-09-04T08:30:50Z</time>
      </trkpt>
      <trkpt lat="43.3587740" lon="-3.1855020">
        <ele>144.4</ele>
        <time>2018-09-04T08:30:52Z</time>
      </trkpt>
      <trkpt lat="43.3588660" lon="-3.1855960">
        <ele>145.2</ele>
        <time>2018-09-04T08:30:58Z</time>
      </trkpt>
      <trkpt lat="43.3589520" lon="-3.1857140">
        <ele>145.8</ele>
        <time>2018-09-04T08:31:04Z</time>
      </trkpt>
      <trkpt lat="43.3590260" lon="-3.1858050">
        <ele>145.8</ele>
        <time>2018-09-04T08:31:08Z</time>
      </trkpt>
      <trkpt lat="43.3590660" lon="-3.1858600">
        <ele>145.8</ele>
        <time>2018-09-04T08:31:10Z</time>
      </trkpt>
      <trkpt lat="43.3591410" lon="-3.1859300">
        <ele>145.6</ele>
        <time>2018-09-04T08:31:13Z</time>
      </trkpt>
      <trkpt lat="43.3592270" lon="-3.1860280">
        <ele>145.8</ele>
        <time>2018-09-04T08:31:16Z</time>
      </trkpt>
      <trkpt lat="43.3594730" lon="-3.1862910">
        <ele>144.4</ele>
        <time>2018-09-04T08:31:23Z</time>
      </trkpt>
      <trkpt lat="43.3595170" lon="-3.1863350">
        <ele>144.0</ele>
        <time>2018-09-04T08:31:24Z</time>
      </trkpt>
      <trkpt lat="43.3596670" lon="-3.1865050">
        <ele>143.2</ele>
        <time>2018-09-04T08:31:27Z</time>
      </trkpt>
      <trkpt lat="43.3597210" lon="-3.1865810">
        <ele>142.6</ele>
        <time>2018-09-04T08:31:28Z</time>
      </trkpt>
      <trkpt lat="43.3597730" lon="-3.1866690">
        <ele>141.4</ele>
        <time>2018-09-04T08:31:29Z</time>
      </trkpt>
      <trkpt lat="43.3598180" lon="-3.1867680">
        <ele>140.4</ele>
        <time>2018-09-04T08:31:30Z</time>
      </trkpt>
      <trkpt lat="43.3599000" lon="-3.1869990">
        <ele>138.4</ele>
        <time>2018-09-04T08:31:32Z</time>
      </trkpt>
      <trkpt lat="43.3599330" lon="-3.1871200">
        <ele>137.4</ele>
        <time>2018-09-04T08:31:33Z</time>
      </trkpt>
      <trkpt lat="43.3599590" lon="-3.1872510">
        <ele>136.6</ele>
        <time>2018-09-04T08:31:34Z</time>
      </trkpt>
      <trkpt lat="43.3599820" lon="-3.1873880">
        <ele>136.0</ele>
        <time>2018-09-04T08:31:35Z</time>
      </trkpt>
      <trkpt lat="43.3600010" lon="-3.1875190">
        <ele>135.4</ele>
        <time>2018-09-04T08:31:36Z</time>
      </trkpt>
      <trkpt lat="43.3600110" lon="-3.1876420">
        <ele>134.4</ele>
        <time>2018-09-04T08:31:37Z</time>
      </trkpt>
      <trkpt lat="43.3600100" lon="-3.1877640">
        <ele>133.0</ele>
        <time>2018-09-04T08:31:38Z</time>
      </trkpt>
      <trkpt lat="43.3600130" lon="-3.1878790">
        <ele>131.6</ele>
        <time>2018-09-04T08:31:39Z</time>
      </trkpt>
      <trkpt lat="43.3600230" lon="-3.1879940">
        <ele>130.4</ele>
        <time>2018-09-04T08:31:40Z</time>
      </trkpt>
      <trkpt lat="43.3600570" lon="-3.1881100">
        <ele>129.4</ele>
        <time>2018-09-04T08:31:41Z</time>
      </trkpt>
      <trkpt lat="43.3601100" lon="-3.1882230">
        <ele>128.2</ele>
        <time>2018-09-04T08:31:42Z</time>
      </trkpt>
      <trkpt lat="43.3601910" lon="-3.1883070">
        <ele>127.2</ele>
        <time>2018-09-04T08:31:43Z</time>
      </trkpt>
      <trkpt lat="43.3602750" lon="-3.1883770">
        <ele>125.0</ele>
        <time>2018-09-04T08:31:44Z</time>
      </trkpt>
      <trkpt lat="43.3604980" lon="-3.1885060">
        <ele>123.4</ele>
        <time>2018-09-04T08:31:46Z</time>
      </trkpt>
      <trkpt lat="43.3606770" lon="-3.1887320">
        <ele>121.6</ele>
        <time>2018-09-04T08:31:48Z</time>
      </trkpt>
      <trkpt lat="43.3607570" lon="-3.1888430">
        <ele>120.4</ele>
        <time>2018-09-04T08:31:49Z</time>
      </trkpt>
      <trkpt lat="43.3608320" lon="-3.1889430">
        <ele>119.4</ele>
        <time>2018-09-04T08:31:50Z</time>
      </trkpt>
      <trkpt lat="43.3609050" lon="-3.1890220">
        <ele>118.4</ele>
        <time>2018-09-04T08:31:51Z</time>
      </trkpt>
      <trkpt lat="43.3609660" lon="-3.1890820">
        <ele>117.0</ele>
        <time>2018-09-04T08:31:52Z</time>
      </trkpt>
      <trkpt lat="43.3610350" lon="-3.1891140">
        <ele>115.4</ele>
        <time>2018-09-04T08:31:53Z</time>
      </trkpt>
      <trkpt lat="43.3611100" lon="-3.1891020">
        <ele>114.0</ele>
        <time>2018-09-04T08:31:54Z</time>
      </trkpt>
      <trkpt lat="43.3611800" lon="-3.1890480">
        <ele>113.4</ele>
        <time>2018-09-04T08:31:55Z</time>
      </trkpt>
      <trkpt lat="43.3612600" lon="-3.1888280">
        <ele>113.0</ele>
        <time>2018-09-04T08:31:57Z</time>
      </trkpt>
      <trkpt lat="43.3611950" lon="-3.1885990">
        <ele>111.2</ele>
        <time>2018-09-04T08:31:59Z</time>
      </trkpt>
      <trkpt lat="43.3610380" lon="-3.1884540">
        <ele>109.2</ele>
        <time>2018-09-04T08:32:01Z</time>
      </trkpt>
      <trkpt lat="43.3609680" lon="-3.1883780">
        <ele>108.2</ele>
        <time>2018-09-04T08:32:02Z</time>
      </trkpt>
      <trkpt lat="43.3609130" lon="-3.1882890">
        <ele>107.0</ele>
        <time>2018-09-04T08:32:03Z</time>
      </trkpt>
      <trkpt lat="43.3608690" lon="-3.1880760">
        <ele>105.6</ele>
        <time>2018-09-04T08:32:05Z</time>
      </trkpt>
      <trkpt lat="43.3609200" lon="-3.1878560">
        <ele>104.0</ele>
        <time>2018-09-04T08:32:07Z</time>
      </trkpt>
      <trkpt lat="43.3609790" lon="-3.1877710">
        <ele>101.4</ele>
        <time>2018-09-04T08:32:08Z</time>
      </trkpt>
      <trkpt lat="43.3610430" lon="-3.1876820">
        <ele>100.4</ele>
        <time>2018-09-04T08:32:09Z</time>
      </trkpt>
      <trkpt lat="43.3611110" lon="-3.1875980">
        <ele>99.8</ele>
        <time>2018-09-04T08:32:10Z</time>
      </trkpt>
      <trkpt lat="43.3611770" lon="-3.1875050">
        <ele>99.4</ele>
        <time>2018-09-04T08:32:11Z</time>
      </trkpt>
      <trkpt lat="43.3612430" lon="-3.1874120">
        <ele>98.2</ele>
        <time>2018-09-04T08:32:12Z</time>
      </trkpt>
      <trkpt lat="43.3613760" lon="-3.1872310">
        <ele>97.0</ele>
        <time>2018-09-04T08:32:14Z</time>
      </trkpt>
      <trkpt lat="43.3615820" lon="-3.1869870">
        <ele>95.8</ele>
        <time>2018-09-04T08:32:17Z</time>
      </trkpt>
      <trkpt lat="43.3617170" lon="-3.1868190">
        <ele>94.2</ele>
        <time>2018-09-04T08:32:19Z</time>
      </trkpt>
      <trkpt lat="43.3618530" lon="-3.1866400">
        <ele>92.8</ele>
        <time>2018-09-04T08:32:21Z</time>
      </trkpt>
      <trkpt lat="43.3620590" lon="-3.1863640">
        <ele>91.6</ele>
        <time>2018-09-04T08:32:24Z</time>
      </trkpt>
      <trkpt lat="43.3622470" lon="-3.1860730">
        <ele>90.4</ele>
        <time>2018-09-04T08:32:27Z</time>
      </trkpt>
      <trkpt lat="43.3623160" lon="-3.1859860">
        <ele>90.4</ele>
        <time>2018-09-04T08:32:28Z</time>
      </trkpt>
      <trkpt lat="43.3623920" lon="-3.1859530">
        <ele>90.4</ele>
        <time>2018-09-04T08:32:29Z</time>
      </trkpt>
      <trkpt lat="43.3625390" lon="-3.1860090">
        <ele>90.6</ele>
        <time>2018-09-04T08:32:31Z</time>
      </trkpt>
      <trkpt lat="43.3626100" lon="-3.1861660">
        <ele>90.0</ele>
        <time>2018-09-04T08:32:33Z</time>
      </trkpt>
      <trkpt lat="43.3625860" lon="-3.1862500">
        <ele>89.0</ele>
        <time>2018-09-04T08:32:34Z</time>
      </trkpt>
      <trkpt lat="43.3625330" lon="-3.1863220">
        <ele>87.6</ele>
        <time>2018-09-04T08:32:35Z</time>
      </trkpt>
      <trkpt lat="43.3624760" lon="-3.1863930">
        <ele>86.6</ele>
        <time>2018-09-04T08:32:36Z</time>
      </trkpt>
      <trkpt lat="43.3624170" lon="-3.1864600">
        <ele>86.0</ele>
        <time>2018-09-04T08:32:37Z</time>
      </trkpt>
      <trkpt lat="43.3623560" lon="-3.1865290">
        <ele>85.6</ele>
        <time>2018-09-04T08:32:38Z</time>
      </trkpt>
      <trkpt lat="43.3622930" lon="-3.1866000">
        <ele>85.4</ele>
        <time>2018-09-04T08:32:39Z</time>
      </trkpt>
      <trkpt lat="43.3621750" lon="-3.1867550">
        <ele>84.2</ele>
        <time>2018-09-04T08:32:41Z</time>
      </trkpt>
      <trkpt lat="43.3621180" lon="-3.1868420">
        <ele>83.4</ele>
        <time>2018-09-04T08:32:42Z</time>
      </trkpt>
      <trkpt lat="43.3620630" lon="-3.1869360">
        <ele>82.8</ele>
        <time>2018-09-04T08:32:43Z</time>
      </trkpt>
      <trkpt lat="43.3620080" lon="-3.1870320">
        <ele>82.2</ele>
        <time>2018-09-04T08:32:44Z</time>
      </trkpt>
      <trkpt lat="43.3619030" lon="-3.1872230">
        <ele>81.6</ele>
        <time>2018-09-04T08:32:46Z</time>
      </trkpt>
      <trkpt lat="43.3617960" lon="-3.1874260">
        <ele>80.8</ele>
        <time>2018-09-04T08:32:48Z</time>
      </trkpt>
      <trkpt lat="43.3617430" lon="-3.1875350">
        <ele>80.4</ele>
        <time>2018-09-04T08:32:49Z</time>
      </trkpt>
      <trkpt lat="43.3616990" lon="-3.1876560">
        <ele>80.0</ele>
        <time>2018-09-04T08:32:50Z</time>
      </trkpt>
      <trkpt lat="43.3616810" lon="-3.1878010">
        <ele>79.8</ele>
        <time>2018-09-04T08:32:51Z</time>
      </trkpt>
      <trkpt lat="43.3616950" lon="-3.1879480">
        <ele>79.6</ele>
        <time>2018-09-04T08:32:52Z</time>
      </trkpt>
      <trkpt lat="43.3617420" lon="-3.1880770">
        <ele>79.4</ele>
        <time>2018-09-04T08:32:53Z</time>
      </trkpt>
      <trkpt lat="43.3618010" lon="-3.1882000">
        <ele>79.0</ele>
        <time>2018-09-04T08:32:54Z</time>
      </trkpt>
      <trkpt lat="43.3619210" lon="-3.1884400">
        <ele>77.6</ele>
        <time>2018-09-04T08:32:56Z</time>
      </trkpt>
      <trkpt lat="43.3620450" lon="-3.1886790">
        <ele>76.4</ele>
        <time>2018-09-04T08:32:58Z</time>
      </trkpt>
      <trkpt lat="43.3621140" lon="-3.1887910">
        <ele>75.8</ele>
        <time>2018-09-04T08:32:59Z</time>
      </trkpt>
      <trkpt lat="43.3621870" lon="-3.1888950">
        <ele>75.2</ele>
        <time>2018-09-04T08:33:00Z</time>
      </trkpt>
      <trkpt lat="43.3623510" lon="-3.1890850">
        <ele>73.6</ele>
        <time>2018-09-04T08:33:02Z</time>
      </trkpt>
      <trkpt lat="43.3624410" lon="-3.1891720">
        <ele>72.8</ele>
        <time>2018-09-04T08:33:03Z</time>
      </trkpt>
      <trkpt lat="43.3625340" lon="-3.1892590">
        <ele>72.4</ele>
        <time>2018-09-04T08:33:04Z</time>
      </trkpt>
      <trkpt lat="43.3627050" lon="-3.1894490">
        <ele>71.4</ele>
        <time>2018-09-04T08:33:06Z</time>
      </trkpt>
      <trkpt lat="43.3628770" lon="-3.1896340">
        <ele>70.0</ele>
        <time>2018-09-04T08:33:08Z</time>
      </trkpt>
      <trkpt lat="43.3629620" lon="-3.1897270">
        <ele>69.4</ele>
        <time>2018-09-04T08:33:09Z</time>
      </trkpt>
      <trkpt lat="43.3630400" lon="-3.1898220">
        <ele>68.8</ele>
        <time>2018-09-04T08:33:10Z</time>
      </trkpt>
      <trkpt lat="43.3632020" lon="-3.1900040">
        <ele>67.8</ele>
        <time>2018-09-04T08:33:12Z</time>
      </trkpt>
      <trkpt lat="43.3634590" lon="-3.1902680">
        <ele>66.4</ele>
        <time>2018-09-04T08:33:15Z</time>
      </trkpt>
      <trkpt lat="43.3635400" lon="-3.1903410">
        <ele>65.4</ele>
        <time>2018-09-04T08:33:16Z</time>
      </trkpt>
      <trkpt lat="43.3636070" lon="-3.1904090">
        <ele>65.2</ele>
        <time>2018-09-04T08:33:17Z</time>
      </trkpt>
      <trkpt lat="43.3636500" lon="-3.1905050">
        <ele>65.2</ele>
        <time>2018-09-04T08:33:18Z</time>
      </trkpt>
      <trkpt lat="43.3636660" lon="-3.1906190">
        <ele>65.4</ele>
        <time>2018-09-04T08:33:19Z</time>
      </trkpt>
      <trkpt lat="43.3636410" lon="-3.1907300">
        <ele>63.4</ele>
        <time>2018-09-04T08:33:20Z</time>
      </trkpt>
      <trkpt lat="43.3635890" lon="-3.1908340">
        <ele>62.0</ele>
        <time>2018-09-04T08:33:21Z</time>
      </trkpt>
      <trkpt lat="43.3635320" lon="-3.1909160">
        <ele>61.0</ele>
        <time>2018-09-04T08:33:22Z</time>
      </trkpt>
      <trkpt lat="43.3633910" lon="-3.1910820">
        <ele>59.0</ele>
        <time>2018-09-04T08:33:24Z</time>
      </trkpt>
      <trkpt lat="43.3632530" lon="-3.1912730">
        <ele>57.8</ele>
        <time>2018-09-04T08:33:26Z</time>
      </trkpt>
      <trkpt lat="43.3631210" lon="-3.1914760">
        <ele>56.6</ele>
        <time>2018-09-04T08:33:28Z</time>
      </trkpt>
      <trkpt lat="43.3630520" lon="-3.1915710">
        <ele>55.6</ele>
        <time>2018-09-04T08:33:29Z</time>
      </trkpt>
      <trkpt lat="43.3628960" lon="-3.1917320">
        <ele>55.8</ele>
        <time>2018-09-04T08:33:31Z</time>
      </trkpt>
      <trkpt lat="43.3627290" lon="-3.1918710">
        <ele>54.4</ele>
        <time>2018-09-04T08:33:33Z</time>
      </trkpt>
      <trkpt lat="43.3624800" lon="-3.1920990">
        <ele>52.8</ele>
        <time>2018-09-04T08:33:36Z</time>
      </trkpt>
      <trkpt lat="43.3623240" lon="-3.1922670">
        <ele>51.2</ele>
        <time>2018-09-04T08:33:38Z</time>
      </trkpt>
      <trkpt lat="43.3622490" lon="-3.1923620">
        <ele>50.8</ele>
        <time>2018-09-04T08:33:39Z</time>
      </trkpt>
      <trkpt lat="43.3621730" lon="-3.1924590">
        <ele>50.2</ele>
        <time>2018-09-04T08:33:40Z</time>
      </trkpt>
      <trkpt lat="43.3620320" lon="-3.1926670">
        <ele>48.8</ele>
        <time>2018-09-04T08:33:42Z</time>
      </trkpt>
      <trkpt lat="43.3619020" lon="-3.1928900">
        <ele>48.0</ele>
        <time>2018-09-04T08:33:44Z</time>
      </trkpt>
      <trkpt lat="43.3618410" lon="-3.1930090">
        <ele>47.6</ele>
        <time>2018-09-04T08:33:45Z</time>
      </trkpt>
      <trkpt lat="43.3617150" lon="-3.1932400">
        <ele>46.0</ele>
        <time>2018-09-04T08:33:47Z</time>
      </trkpt>
      <trkpt lat="43.3615940" lon="-3.1934830">
        <ele>44.6</ele>
        <time>2018-09-04T08:33:49Z</time>
      </trkpt>
      <trkpt lat="43.3614680" lon="-3.1937350">
        <ele>42.8</ele>
        <time>2018-09-04T08:33:51Z</time>
      </trkpt>
      <trkpt lat="43.3613450" lon="-3.1939960">
        <ele>41.0</ele>
        <time>2018-09-04T08:33:53Z</time>
      </trkpt>
      <trkpt lat="43.3612500" lon="-3.1942800">
        <ele>40.0</ele>
        <time>2018-09-04T08:33:55Z</time>
      </trkpt>
      <trkpt lat="43.3611950" lon="-3.1944150">
        <ele>39.6</ele>
        <time>2018-09-04T08:33:56Z</time>
      </trkpt>
      <trkpt lat="43.3611300" lon="-3.1945390">
        <ele>39.2</ele>
        <time>2018-09-04T08:33:57Z</time>
      </trkpt>
      <trkpt lat="43.3610460" lon="-3.1946560">
        <ele>38.2</ele>
        <time>2018-09-04T08:33:58Z</time>
      </trkpt>
      <trkpt lat="43.3609610" lon="-3.1947650">
        <ele>37.6</ele>
        <time>2018-09-04T08:33:59Z</time>
      </trkpt>
      <trkpt lat="43.3608740" lon="-3.1948740">
        <ele>36.8</ele>
        <time>2018-09-04T08:34:00Z</time>
      </trkpt>
      <trkpt lat="43.3607030" lon="-3.1950870">
        <ele>35.0</ele>
        <time>2018-09-04T08:34:02Z</time>
      </trkpt>
      <trkpt lat="43.3605240" lon="-3.1952870">
        <ele>33.8</ele>
        <time>2018-09-04T08:34:04Z</time>
      </trkpt>
      <trkpt lat="43.3604300" lon="-3.1953800">
        <ele>33.6</ele>
        <time>2018-09-04T08:34:05Z</time>
      </trkpt>
      <trkpt lat="43.3601390" lon="-3.1956250">
        <ele>31.2</ele>
        <time>2018-09-04T08:34:08Z</time>
      </trkpt>
      <trkpt lat="43.3599480" lon="-3.1958050">
        <ele>29.4</ele>
        <time>2018-09-04T08:34:10Z</time>
      </trkpt>
      <trkpt lat="43.3596870" lon="-3.1961170">
        <ele>28.0</ele>
        <time>2018-09-04T08:34:13Z</time>
      </trkpt>
      <trkpt lat="43.3595050" lon="-3.1963020">
        <ele>26.6</ele>
        <time>2018-09-04T08:34:15Z</time>
      </trkpt>
      <trkpt lat="43.3594060" lon="-3.1963720">
        <ele>25.8</ele>
        <time>2018-09-04T08:34:16Z</time>
      </trkpt>
      <trkpt lat="43.3593190" lon="-3.1964380">
        <ele>25.2</ele>
        <time>2018-09-04T08:34:17Z</time>
      </trkpt>
      <trkpt lat="43.3592600" lon="-3.1965330">
        <ele>24.8</ele>
        <time>2018-09-04T08:34:18Z</time>
      </trkpt>
      <trkpt lat="43.3592320" lon="-3.1967770">
        <ele>24.2</ele>
        <time>2018-09-04T08:34:20Z</time>
      </trkpt>
      <trkpt lat="43.3592720" lon="-3.1971160">
        <ele>22.8</ele>
        <time>2018-09-04T08:34:23Z</time>
      </trkpt>
      <trkpt lat="43.3593430" lon="-3.1972020">
        <ele>21.6</ele>
        <time>2018-09-04T08:34:25Z</time>
      </trkpt>
      <trkpt lat="43.3594220" lon="-3.1972180">
        <ele>21.4</ele>
        <time>2018-09-04T08:34:26Z</time>
      </trkpt>
      <trkpt lat="43.3597830" lon="-3.1971980">
        <ele>20.2</ele>
        <time>2018-09-04T08:34:29Z</time>
      </trkpt>
      <trkpt lat="43.3599060" lon="-3.1971930">
        <ele>19.6</ele>
        <time>2018-09-04T08:34:30Z</time>
      </trkpt>
      <trkpt lat="43.3600230" lon="-3.1971980">
        <ele>18.8</ele>
        <time>2018-09-04T08:34:31Z</time>
      </trkpt>
      <trkpt lat="43.3601290" lon="-3.1972150">
        <ele>17.0</ele>
        <time>2018-09-04T08:34:32Z</time>
      </trkpt>
      <trkpt lat="43.3604310" lon="-3.1973570">
        <ele>16.2</ele>
        <time>2018-09-04T08:34:35Z</time>
      </trkpt>
      <trkpt lat="43.3605280" lon="-3.1974080">
        <ele>15.8</ele>
        <time>2018-09-04T08:34:36Z</time>
      </trkpt>
      <trkpt lat="43.3606060" lon="-3.1974670">
        <ele>15.4</ele>
        <time>2018-09-04T08:34:37Z</time>
      </trkpt>
      <trkpt lat="43.3606590" lon="-3.1975380">
        <ele>14.4</ele>
        <time>2018-09-04T08:34:38Z</time>
      </trkpt>
      <trkpt lat="43.3606990" lon="-3.1976160">
        <ele>13.4</ele>
        <time>2018-09-04T08:34:39Z</time>
      </trkpt>
      <trkpt lat="43.3607420" lon="-3.1977000">
        <ele>12.6</ele>
        <time>2018-09-04T08:34:40Z</time>
      </trkpt>
      <trkpt lat="43.3608460" lon="-3.1980740">
        <ele>11.0</ele>
        <time>2018-09-04T08:34:43Z</time>
      </trkpt>
      <trkpt lat="43.3608860" lon="-3.1983960">
        <ele>9.8</ele>
        <time>2018-09-04T08:34:45Z</time>
      </trkpt>
      <trkpt lat="43.3609310" lon="-3.1987190">
        <ele>8.4</ele>
        <time>2018-09-04T08:34:47Z</time>
      </trkpt>
      <trkpt lat="43.3609340" lon="-3.1988920">
        <ele>8.2</ele>
        <time>2018-09-04T08:34:48Z</time>
      </trkpt>
      <trkpt lat="43.3607810" lon="-3.1993790">
        <ele>6.6</ele>
        <time>2018-09-04T08:34:51Z</time>
      </trkpt>
      <trkpt lat="43.3605840" lon="-3.1996150">
        <ele>5.2</ele>
        <time>2018-09-04T08:34:53Z</time>
      </trkpt>
      <trkpt lat="43.3604850" lon="-3.1997100">
        <ele>4.6</ele>
        <time>2018-09-04T08:34:54Z</time>
      </trkpt>
      <trkpt lat="43.3603770" lon="-3.1997920">
        <ele>3.8</ele>
        <time>2018-09-04T08:34:55Z</time>
      </trkpt>
      <trkpt lat="43.3601530" lon="-3.1999310">
        <ele>2.2</ele>
        <time>2018-09-04T08:34:57Z</time>
      </trkpt>
      <trkpt lat="43.3600290" lon="-3.1999660">
        <ele>1.6</ele>
        <time>2018-09-04T08:34:58Z</time>
      </trkpt>
      <trkpt lat="43.3599130" lon="-3.2000080">
        <ele>0.8</ele>
        <time>2018-09-04T08:34:59Z</time>
      </trkpt>
      <trkpt lat="43.3597180" lon="-3.2001330">
        <ele>-0.2</ele>
        <time>2018-09-04T08:35:01Z</time>
      </trkpt>
      <trkpt lat="43.3596300" lon="-3.2001990">
        <ele>-0.8</ele>
        <time>2018-09-04T08:35:02Z</time>
      </trkpt>
      <trkpt lat="43.3595410" lon="-3.2002750">
        <ele>-1.2</ele>
        <time>2018-09-04T08:35:03Z</time>
      </trkpt>
      <trkpt lat="43.3593580" lon="-3.2004240">
        <ele>-2.8</ele>
        <time>2018-09-04T08:35:05Z</time>
      </trkpt>
      <trkpt lat="43.3591600" lon="-3.2005470">
        <ele>-4.2</ele>
        <time>2018-09-04T08:35:07Z</time>
      </trkpt>
      <trkpt lat="43.3590640" lon="-3.2006040">
        <ele>-4.6</ele>
        <time>2018-09-04T08:35:08Z</time>
      </trkpt>
      <trkpt lat="43.3588860" lon="-3.2007280">
        <ele>-5.2</ele>
        <time>2018-09-04T08:35:10Z</time>
      </trkpt>
      <trkpt lat="43.3588260" lon="-3.2008300">
        <ele>-5.6</ele>
        <time>2018-09-04T08:35:11Z</time>
      </trkpt>
      <trkpt lat="43.3587880" lon="-3.2009590">
        <ele>-6.0</ele>
        <time>2018-09-04T08:35:12Z</time>
      </trkpt>
      <trkpt lat="43.3587680" lon="-3.2012090">
        <ele>-6.6</ele>
        <time>2018-09-04T08:35:14Z</time>
      </trkpt>
      <trkpt lat="43.3587790" lon="-3.2013290">
        <ele>-6.8</ele>
        <time>2018-09-04T08:35:15Z</time>
      </trkpt>
      <trkpt lat="43.3587910" lon="-3.2014530">
        <ele>-7.2</ele>
        <time>2018-09-04T08:35:16Z</time>
      </trkpt>
      <trkpt lat="43.3588010" lon="-3.2015730">
        <ele>-7.2</ele>
        <time>2018-09-04T08:35:17Z</time>
      </trkpt>
      <trkpt lat="43.3588470" lon="-3.2018060">
        <ele>-7.8</ele>
        <time>2018-09-04T08:35:19Z</time>
      </trkpt>
      <trkpt lat="43.3588810" lon="-3.2019150">
        <ele>-8.4</ele>
        <time>2018-09-04T08:35:20Z</time>
      </trkpt>
      <trkpt lat="43.3589120" lon="-3.2020110">
        <ele>-8.6</ele>
        <time>2018-09-04T08:35:21Z</time>
      </trkpt>
      <trkpt lat="43.3591340" lon="-3.2025240">
        <ele>-9.0</ele>
        <time>2018-09-04T08:35:27Z</time>
      </trkpt>
      <trkpt lat="43.3592480" lon="-3.2026290">
        <ele>-9.4</ele>
        <time>2018-09-04T08:35:29Z</time>
      </trkpt>
      <trkpt lat="43.3593160" lon="-3.2026510">
        <ele>-9.2</ele>
        <time>2018-09-04T08:35:30Z</time>
      </trkpt>
      <trkpt lat="43.3595150" lon="-3.2026500">
        <ele>-8.2</ele>
        <time>2018-09-04T08:35:33Z</time>
      </trkpt>
      <trkpt lat="43.3595730" lon="-3.2026470">
        <ele>-8.0</ele>
        <time>2018-09-04T08:35:34Z</time>
      </trkpt>
      <trkpt lat="43.3596320" lon="-3.2026370">
        <ele>-7.8</ele>
        <time>2018-09-04T08:35:35Z</time>
      </trkpt>
      <trkpt lat="43.3598260" lon="-3.2026040">
        <ele>-7.6</ele>
        <time>2018-09-04T08:35:39Z</time>
      </trkpt>
      <trkpt lat="43.3598730" lon="-3.2025990">
        <ele>-7.4</ele>
        <time>2018-09-04T08:35:40Z</time>
      </trkpt>
      <trkpt lat="43.3599630" lon="-3.2025930">
        <ele>-7.0</ele>
        <time>2018-09-04T08:35:42Z</time>
      </trkpt>
      <trkpt lat="43.3600560" lon="-3.2025960">
        <ele>-6.8</ele>
        <time>2018-09-04T08:35:44Z</time>
      </trkpt>
      <trkpt lat="43.3601000" lon="-3.2026000">
        <ele>-6.6</ele>
        <time>2018-09-04T08:35:45Z</time>
      </trkpt>
      <trkpt lat="43.3601440" lon="-3.2026030">
        <ele>-6.4</ele>
        <time>2018-09-04T08:35:46Z</time>
      </trkpt>
      <trkpt lat="43.3601890" lon="-3.2026040">
        <ele>-6.0</ele>
        <time>2018-09-04T08:35:47Z</time>
      </trkpt>
      <trkpt lat="43.3602290" lon="-3.2026070">
        <ele>-5.6</ele>
        <time>2018-09-04T08:35:48Z</time>
      </trkpt>
      <trkpt lat="43.3602690" lon="-3.2026040">
        <ele>-5.2</ele>
        <time>2018-09-04T08:35:49Z</time>
      </trkpt>
      <trkpt lat="43.3603860" lon="-3.2025900">
        <ele>-4.6</ele>
        <time>2018-09-04T08:35:52Z</time>
      </trkpt>
      <trkpt lat="43.3604890" lon="-3.2025710">
        <ele>-4.2</ele>
        <time>2018-09-04T08:35:55Z</time>
      </trkpt>
      <trkpt lat="43.3606040" lon="-3.2025270">
        <ele>-3.2</ele>
        <time>2018-09-04T08:35:59Z</time>
      </trkpt>
      <trkpt lat="43.3607400" lon="-3.2024460">
        <ele>-2.2</ele>
        <time>2018-09-04T08:36:05Z</time>
      </trkpt>
      <trkpt lat="43.3607630" lon="-3.2024360">
        <ele>-2.2</ele>
        <time>2018-09-04T08:36:06Z</time>
      </trkpt>
      <trkpt lat="43.3608210" lon="-3.2023650">
        <ele>-1.4</ele>
        <time>2018-09-04T08:36:10Z</time>
      </trkpt>
      <trkpt lat="43.3608370" lon="-3.2023400">
        <ele>-1.2</ele>
        <time>2018-09-04T08:36:11Z</time>
      </trkpt>
      <trkpt lat="43.3608680" lon="-3.2022960">
        <ele>-1.0</ele>
        <time>2018-09-04T08:36:13Z</time>
      </trkpt>
      <trkpt lat="43.3609620" lon="-3.2021370">
        <ele>-0.4</ele>
        <time>2018-09-04T08:36:19Z</time>
      </trkpt>
      <trkpt lat="43.3609980" lon="-3.2020440">
        <ele>0.0</ele>
        <time>2018-09-04T08:36:22Z</time>
      </trkpt>
      <trkpt lat="43.3610670" lon="-3.2019170">
        <ele>0.6</ele>
        <time>2018-09-04T08:36:27Z</time>
      </trkpt>
      <trkpt lat="43.3610910" lon="-3.2018680">
        <ele>0.8</ele>
        <time>2018-09-04T08:36:29Z</time>
      </trkpt>
      <trkpt lat="43.3611250" lon="-3.2017900">
        <ele>1.2</ele>
        <time>2018-09-04T08:36:32Z</time>
      </trkpt>
      <trkpt lat="43.3611660" lon="-3.2017020">
        <ele>1.6</ele>
        <time>2018-09-04T08:36:36Z</time>
      </trkpt>
      <trkpt lat="43.3612310" lon="-3.2015510">
        <ele>2.2</ele>
        <time>2018-09-04T08:36:41Z</time>
      </trkpt>
      <trkpt lat="43.3612560" lon="-3.2014540">
        <ele>2.6</ele>
        <time>2018-09-04T08:36:44Z</time>
      </trkpt>
      <trkpt lat="43.3613030" lon="-3.2013300">
        <ele>3.0</ele>
        <time>2018-09-04T08:36:48Z</time>
      </trkpt>
      <trkpt lat="43.3613070" lon="-3.2012890">
        <ele>3.2</ele>
        <time>2018-09-04T08:36:49Z</time>
      </trkpt>
      <trkpt lat="43.3613170" lon="-3.2012520">
        <ele>3.4</ele>
        <time>2018-09-04T08:36:50Z</time>
      </trkpt>
      <trkpt lat="43.3613350" lon="-3.2011810">
        <ele>3.6</ele>
        <time>2018-09-04T08:36:52Z</time>
      </trkpt>
      <trkpt lat="43.3613490" lon="-3.2010930">
        <ele>4.4</ele>
        <time>2018-09-04T08:36:55Z</time>
      </trkpt>
      <trkpt lat="43.3613650" lon="-3.2010020">
        <ele>4.8</ele>
        <time>2018-09-04T08:36:58Z</time>
      </trkpt>
      <trkpt lat="43.3613910" lon="-3.2009170">
        <ele>5.0</ele>
        <time>2018-09-04T08:37:01Z</time>
      </trkpt>
      <trkpt lat="43.3614080" lon="-3.2008630">
        <ele>5.4</ele>
        <time>2018-09-04T08:37:03Z</time>
      </trkpt>
      <trkpt lat="43.3614430" lon="-3.2007280">
        <ele>6.0</ele>
        <time>2018-09-04T08:37:08Z</time>
      </trkpt>
      <trkpt lat="43.3614610" lon="-3.2006430">
        <ele>6.4</ele>
        <time>2018-09-04T08:37:11Z</time>
      </trkpt>
      <trkpt lat="43.3614650" lon="-3.2006180">
        <ele>6.6</ele>
        <time>2018-09-04T08:37:12Z</time>
      </trkpt>
      <trkpt lat="43.3614910" lon="-3.2004100">
        <ele>7.6</ele>
        <time>2018-09-04T08:37:19Z</time>
      </trkpt>
      <trkpt lat="43.3615360" lon="-3.2002620">
        <ele>8.8</ele>
        <time>2018-09-04T08:37:24Z</time>
      </trkpt>
      <trkpt lat="43.3615440" lon="-3.2002080">
        <ele>9.0</ele>
        <time>2018-09-04T08:37:26Z</time>
      </trkpt>
      <trkpt lat="43.3616140" lon="-3.1999490">
        <ele>9.8</ele>
        <time>2018-09-04T08:37:34Z</time>
      </trkpt>
      <trkpt lat="43.3616200" lon="-3.1999160">
        <ele>10.0</ele>
        <time>2018-09-04T08:37:35Z</time>
      </trkpt>
      <trkpt lat="43.3617080" lon="-3.1996280">
        <ele>11.0</ele>
        <time>2018-09-04T08:37:44Z</time>
      </trkpt>
      <trkpt lat="43.3617810" lon="-3.1994640">
        <ele>12.0</ele>
        <time>2018-09-04T08:37:50Z</time>
      </trkpt>
      <trkpt lat="43.3618430" lon="-3.1993630">
        <ele>12.4</ele>
        <time>2018-09-04T08:37:54Z</time>
      </trkpt>
      <trkpt lat="43.3619450" lon="-3.1992540">
        <ele>13.0</ele>
        <time>2018-09-04T08:38:00Z</time>
      </trkpt>
      <trkpt lat="43.3619870" lon="-3.1992350">
        <ele>13.4</ele>
        <time>2018-09-04T08:38:02Z</time>
      </trkpt>
      <trkpt lat="43.3621190" lon="-3.1991860">
        <ele>14.0</ele>
        <time>2018-09-04T08:38:08Z</time>
      </trkpt>
      <trkpt lat="43.3621640" lon="-3.1991740">
        <ele>14.4</ele>
        <time>2018-09-04T08:38:10Z</time>
      </trkpt>
      <trkpt lat="43.3622500" lon="-3.1991850">
        <ele>14.8</ele>
        <time>2018-09-04T08:38:14Z</time>
      </trkpt>
      <trkpt lat="43.3622710" lon="-3.1991850">
        <ele>14.8</ele>
        <time>2018-09-04T08:38:15Z</time>
      </trkpt>
      <trkpt lat="43.3622920" lon="-3.1991600">
        <ele>15.0</ele>
        <time>2018-09-04T08:38:16Z</time>
      </trkpt>
      <trkpt lat="43.3623410" lon="-3.1991510">
        <ele>15.2</ele>
        <time>2018-09-04T08:38:18Z</time>
      </trkpt>
      <trkpt lat="43.3623660" lon="-3.1991450">
        <ele>15.2</ele>
        <time>2018-09-04T08:38:19Z</time>
      </trkpt>
      <trkpt lat="43.3623910" lon="-3.1991400">
        <ele>15.2</ele>
        <time>2018-09-04T08:38:20Z</time>
      </trkpt>
      <trkpt lat="43.3625620" lon="-3.1990420">
        <ele>16.2</ele>
        <time>2018-09-04T08:38:27Z</time>
      </trkpt>
      <trkpt lat="43.3626490" lon="-3.1989640">
        <ele>17.2</ele>
        <time>2018-09-04T08:38:32Z</time>
      </trkpt>
      <trkpt lat="43.3626650" lon="-3.1989440">
        <ele>17.8</ele>
        <time>2018-09-04T08:38:33Z</time>
      </trkpt>
      <trkpt lat="43.3627490" lon="-3.1988940">
        <ele>18.4</ele>
        <time>2018-09-04T08:38:37Z</time>
      </trkpt>
      <trkpt lat="43.3628080" lon="-3.1988610">
        <ele>18.6</ele>
        <time>2018-09-04T08:38:40Z</time>
      </trkpt>
      <trkpt lat="43.3629310" lon="-3.1988290">
        <ele>19.4</ele>
        <time>2018-09-04T08:38:45Z</time>
      </trkpt>
      <trkpt lat="43.3630030" lon="-3.1988180">
        <ele>19.8</ele>
        <time>2018-09-04T08:38:48Z</time>
      </trkpt>
      <trkpt lat="43.3631730" lon="-3.1988000">
        <ele>20.4</ele>
        <time>2018-09-04T08:38:55Z</time>
      </trkpt>
      <trkpt lat="43.3632250" lon="-3.1988030">
        <ele>20.8</ele>
        <time>2018-09-04T08:38:57Z</time>
      </trkpt>
      <trkpt lat="43.3633740" lon="-3.1988300">
        <ele>22.2</ele>
        <time>2018-09-04T08:39:04Z</time>
      </trkpt>
      <trkpt lat="43.3634750" lon="-3.1988540">
        <ele>22.4</ele>
        <time>2018-09-04T08:39:08Z</time>
      </trkpt>
      <trkpt lat="43.3635610" lon="-3.1988830">
        <ele>22.8</ele>
        <time>2018-09-04T08:39:12Z</time>
      </trkpt>
      <trkpt lat="43.3636270" lon="-3.1989070">
        <ele>23.2</ele>
        <time>2018-09-04T08:39:15Z</time>
      </trkpt>
      <trkpt lat="43.3637350" lon="-3.1989420">
        <ele>24.0</ele>
        <time>2018-09-04T08:39:20Z</time>
      </trkpt>
      <trkpt lat="43.3637980" lon="-3.1989610">
        <ele>24.4</ele>
        <time>2018-09-04T08:39:23Z</time>
      </trkpt>
      <trkpt lat="43.3639420" lon="-3.1990140">
        <ele>25.0</ele>
        <time>2018-09-04T08:39:29Z</time>
      </trkpt>
      <trkpt lat="43.3639880" lon="-3.1990340">
        <ele>25.4</ele>
        <time>2018-09-04T08:39:31Z</time>
      </trkpt>
      <trkpt lat="43.3641160" lon="-3.1990890">
        <ele>26.0</ele>
        <time>2018-09-04T08:39:37Z</time>
      </trkpt>
      <trkpt lat="43.3641550" lon="-3.1991110">
        <ele>26.6</ele>
        <time>2018-09-04T08:39:39Z</time>
      </trkpt>
      <trkpt lat="43.3642560" lon="-3.1991640">
        <ele>27.0</ele>
        <time>2018-09-04T08:39:43Z</time>
      </trkpt>
      <trkpt lat="43.3643530" lon="-3.1991990">
        <ele>27.6</ele>
        <time>2018-09-04T08:39:47Z</time>
      </trkpt>
      <trkpt lat="43.3644650" lon="-3.1992540">
        <ele>28.4</ele>
        <time>2018-09-04T08:39:52Z</time>
      </trkpt>
      <trkpt lat="43.3645530" lon="-3.1992890">
        <ele>28.6</ele>
        <time>2018-09-04T08:39:56Z</time>
      </trkpt>
      <trkpt lat="43.3646170" lon="-3.1993080">
        <ele>29.0</ele>
        <time>2018-09-04T08:39:59Z</time>
      </trkpt>
      <trkpt lat="43.3647030" lon="-3.1993500">
        <ele>29.8</ele>
        <time>2018-09-04T08:40:03Z</time>
      </trkpt>
      <trkpt lat="43.3647920" lon="-3.1993840">
        <ele>30.4</ele>
        <time>2018-09-04T08:40:07Z</time>
      </trkpt>
      <trkpt lat="43.3648150" lon="-3.1993930">
        <ele>30.4</ele>
        <time>2018-09-04T08:40:08Z</time>
      </trkpt>
      <trkpt lat="43.3648360" lon="-3.1994040">
        <ele>30.8</ele>
        <time>2018-09-04T08:40:09Z</time>
      </trkpt>
      <trkpt lat="43.3649610" lon="-3.1994520">
        <ele>31.4</ele>
        <time>2018-09-04T08:40:15Z</time>
      </trkpt>
      <trkpt lat="43.3650590" lon="-3.1994810">
        <ele>32.0</ele>
        <time>2018-09-04T08:40:19Z</time>
      </trkpt>
      <trkpt lat="43.3651560" lon="-3.1995100">
        <ele>32.6</ele>
        <time>2018-09-04T08:40:23Z</time>
      </trkpt>
      <trkpt lat="43.3652340" lon="-3.1995420">
        <ele>33.0</ele>
        <time>2018-09-04T08:40:26Z</time>
      </trkpt>
      <trkpt lat="43.3653860" lon="-3.1995840">
        <ele>34.0</ele>
        <time>2018-09-04T08:40:32Z</time>
      </trkpt>
      <trkpt lat="43.3654100" lon="-3.1995900">
        <ele>34.2</ele>
        <time>2018-09-04T08:40:33Z</time>
      </trkpt>
      <trkpt lat="43.3655310" lon="-3.1996110">
        <ele>35.0</ele>
        <time>2018-09-04T08:40:38Z</time>
      </trkpt>
      <trkpt lat="43.3655840" lon="-3.1996200">
        <ele>35.2</ele>
        <time>2018-09-04T08:40:40Z</time>
      </trkpt>
      <trkpt lat="43.3657060" lon="-3.1996430">
        <ele>36.2</ele>
        <time>2018-09-04T08:40:45Z</time>
      </trkpt>
      <trkpt lat="43.3657990" lon="-3.1996630">
        <ele>36.6</ele>
        <time>2018-09-04T08:40:49Z</time>
      </trkpt>
      <trkpt lat="43.3658750" lon="-3.1996800">
        <ele>37.2</ele>
        <time>2018-09-04T08:40:52Z</time>
      </trkpt>
      <trkpt lat="43.3659560" lon="-3.1997020">
        <ele>37.6</ele>
        <time>2018-09-04T08:40:55Z</time>
      </trkpt>
      <trkpt lat="43.3660410" lon="-3.1997360">
        <ele>38.4</ele>
        <time>2018-09-04T08:40:58Z</time>
      </trkpt>
      <trkpt lat="43.3661370" lon="-3.1997880">
        <ele>38.8</ele>
        <time>2018-09-04T08:41:02Z</time>
      </trkpt>
      <trkpt lat="43.3662000" lon="-3.1998370">
        <ele>39.0</ele>
        <time>2018-09-04T08:41:05Z</time>
      </trkpt>
      <trkpt lat="43.3662720" lon="-3.1998830">
        <ele>39.2</ele>
        <time>2018-09-04T08:41:08Z</time>
      </trkpt>
      <trkpt lat="43.3663130" lon="-3.1999100">
        <ele>39.4</ele>
        <time>2018-09-04T08:41:10Z</time>
      </trkpt>
      <trkpt lat="43.3663690" lon="-3.1999460">
        <ele>39.4</ele>
        <time>2018-09-04T08:41:13Z</time>
      </trkpt>
      <trkpt lat="43.3664090" lon="-3.1999700">
        <ele>39.4</ele>
        <time>2018-09-04T08:41:15Z</time>
      </trkpt>
      <trkpt lat="43.3664430" lon="-3.2000050">
        <ele>39.6</ele>
        <time>2018-09-04T08:41:17Z</time>
      </trkpt>
      <trkpt lat="43.3665310" lon="-3.2000830">
        <ele>39.2</ele>
        <time>2018-09-04T08:41:21Z</time>
      </trkpt>
      <trkpt lat="43.3666260" lon="-3.2001600">
        <ele>38.8</ele>
        <time>2018-09-04T08:41:24Z</time>
      </trkpt>
      <trkpt lat="43.3666620" lon="-3.2001910">
        <ele>38.4</ele>
        <time>2018-09-04T08:41:25Z</time>
      </trkpt>
      <trkpt lat="43.3667010" lon="-3.2002230">
        <ele>38.4</ele>
        <time>2018-09-04T08:41:26Z</time>
      </trkpt>
      <trkpt lat="43.3668720" lon="-3.2003800">
        <ele>37.2</ele>
        <time>2018-09-04T08:41:30Z</time>
      </trkpt>
      <trkpt lat="43.3669710" lon="-3.2004670">
        <ele>36.4</ele>
        <time>2018-09-04T08:41:32Z</time>
      </trkpt>
      <trkpt lat="43.3670240" lon="-3.2005120">
        <ele>35.8</ele>
        <time>2018-09-04T08:41:33Z</time>
      </trkpt>
      <trkpt lat="43.3670770" lon="-3.2005560">
        <ele>35.4</ele>
        <time>2018-09-04T08:41:34Z</time>
      </trkpt>
      <trkpt lat="43.3672110" lon="-3.2006570">
        <ele>35.2</ele>
        <time>2018-09-04T08:41:37Z</time>
      </trkpt>
      <trkpt lat="43.3673000" lon="-3.2007230">
        <ele>34.6</ele>
        <time>2018-09-04T08:41:39Z</time>
      </trkpt>
      <trkpt lat="43.3675000" lon="-3.2009000">
        <ele>33.6</ele>
        <time>2018-09-04T08:41:43Z</time>
      </trkpt>
      <trkpt lat="43.3677270" lon="-3.2011420">
        <ele>32.2</ele>
        <time>2018-09-04T08:41:47Z</time>
      </trkpt>
      <trkpt lat="43.3677930" lon="-3.2012000">
        <ele>32.0</ele>
        <time>2018-09-04T08:41:48Z</time>
      </trkpt>
      <trkpt lat="43.3679320" lon="-3.2013090">
        <ele>31.2</ele>
        <time>2018-09-04T08:41:50Z</time>
      </trkpt>
      <trkpt lat="43.3680730" lon="-3.2014200">
        <ele>30.0</ele>
        <time>2018-09-04T08:41:52Z</time>
      </trkpt>
      <trkpt lat="43.3682280" lon="-3.2015170">
        <ele>29.6</ele>
        <time>2018-09-04T08:41:54Z</time>
      </trkpt>
      <trkpt lat="43.3683800" lon="-3.2016230">
        <ele>28.8</ele>
        <time>2018-09-04T08:41:56Z</time>
      </trkpt>
      <trkpt lat="43.3685310" lon="-3.2017420">
        <ele>27.8</ele>
        <time>2018-09-04T08:41:58Z</time>
      </trkpt>
      <trkpt lat="43.3686070" lon="-3.2018060">
        <ele>27.4</ele>
        <time>2018-09-04T08:41:59Z</time>
      </trkpt>
      <trkpt lat="43.3687620" lon="-3.2019330">
        <ele>26.4</ele>
        <time>2018-09-04T08:42:01Z</time>
      </trkpt>
      <trkpt lat="43.3690020" lon="-3.2021180">
        <ele>25.2</ele>
        <time>2018-09-04T08:42:04Z</time>
      </trkpt>
      <trkpt lat="43.3691650" lon="-3.2022480">
        <ele>24.0</ele>
        <time>2018-09-04T08:42:06Z</time>
      </trkpt>
      <trkpt lat="43.3692450" lon="-3.2023150">
        <ele>23.4</ele>
        <time>2018-09-04T08:42:07Z</time>
      </trkpt>
      <trkpt lat="43.3693250" lon="-3.2023810">
        <ele>23.0</ele>
        <time>2018-09-04T08:42:08Z</time>
      </trkpt>
      <trkpt lat="43.3694050" lon="-3.2024430">
        <ele>21.8</ele>
        <time>2018-09-04T08:42:09Z</time>
      </trkpt>
      <trkpt lat="43.3695500" lon="-3.2025820">
        <ele>21.2</ele>
        <time>2018-09-04T08:42:11Z</time>
      </trkpt>
      <trkpt lat="43.3696130" lon="-3.2026710">
        <ele>20.8</ele>
        <time>2018-09-04T08:42:12Z</time>
      </trkpt>
      <trkpt lat="43.3697690" lon="-3.2029860">
        <ele>19.6</ele>
        <time>2018-09-04T08:42:15Z</time>
      </trkpt>
      <trkpt lat="43.3698080" lon="-3.2031050">
        <ele>19.0</ele>
        <time>2018-09-04T08:42:16Z</time>
      </trkpt>
      <trkpt lat="43.3698330" lon="-3.2032320">
        <ele>18.4</ele>
        <time>2018-09-04T08:42:17Z</time>
      </trkpt>
      <trkpt lat="43.3698210" lon="-3.2034870">
        <ele>17.4</ele>
        <time>2018-09-04T08:42:19Z</time>
      </trkpt>
      <trkpt lat="43.3697910" lon="-3.2036130">
        <ele>16.8</ele>
        <time>2018-09-04T08:42:20Z</time>
      </trkpt>
      <trkpt lat="43.3697560" lon="-3.2037440">
        <ele>16.0</ele>
        <time>2018-09-04T08:42:21Z</time>
      </trkpt>
      <trkpt lat="43.3697150" lon="-3.2038750">
        <ele>15.2</ele>
        <time>2018-09-04T08:42:22Z</time>
      </trkpt>
      <trkpt lat="43.3696670" lon="-3.2040020">
        <ele>14.6</ele>
        <time>2018-09-04T08:42:23Z</time>
      </trkpt>
      <trkpt lat="43.3696160" lon="-3.2041260">
        <ele>13.8</ele>
        <time>2018-09-04T08:42:24Z</time>
      </trkpt>
      <trkpt lat="43.3695090" lon="-3.2043670">
        <ele>12.4</ele>
        <time>2018-09-04T08:42:26Z</time>
      </trkpt>
      <trkpt lat="43.3693920" lon="-3.2046000">
        <ele>11.0</ele>
        <time>2018-09-04T08:42:28Z</time>
      </trkpt>
      <trkpt lat="43.3693310" lon="-3.2047180">
        <ele>10.6</ele>
        <time>2018-09-04T08:42:29Z</time>
      </trkpt>
      <trkpt lat="43.3692680" lon="-3.2048320">
        <ele>10.0</ele>
        <time>2018-09-04T08:42:30Z</time>
      </trkpt>
      <trkpt lat="43.3691440" lon="-3.2050570">
        <ele>8.4</ele>
        <time>2018-09-04T08:42:32Z</time>
      </trkpt>
      <trkpt lat="43.3690850" lon="-3.2051710">
        <ele>7.4</ele>
        <time>2018-09-04T08:42:33Z</time>
      </trkpt>
      <trkpt lat="43.3689810" lon="-3.2054090">
        <ele>6.4</ele>
        <time>2018-09-04T08:42:35Z</time>
      </trkpt>
      <trkpt lat="43.3689530" lon="-3.2055430">
        <ele>5.8</ele>
        <time>2018-09-04T08:42:36Z</time>
      </trkpt>
      <trkpt lat="43.3689480" lon="-3.2056840">
        <ele>5.2</ele>
        <time>2018-09-04T08:42:37Z</time>
      </trkpt>
      <trkpt lat="43.3689920" lon="-3.2059660">
        <ele>4.0</ele>
        <time>2018-09-04T08:42:39Z</time>
      </trkpt>
      <trkpt lat="43.3690770" lon="-3.2062340">
        <ele>3.0</ele>
        <time>2018-09-04T08:42:41Z</time>
      </trkpt>
      <trkpt lat="43.3692080" lon="-3.2066340">
        <ele>1.4</ele>
        <time>2018-09-04T08:42:44Z</time>
      </trkpt>
      <trkpt lat="43.3692910" lon="-3.2069010">
        <ele>0.0</ele>
        <time>2018-09-04T08:42:46Z</time>
      </trkpt>
      <trkpt lat="43.3693710" lon="-3.2071630">
        <ele>-1.6</ele>
        <time>2018-09-04T08:42:48Z</time>
      </trkpt>
      <trkpt lat="43.3694050" lon="-3.2072970">
        <ele>-2.0</ele>
        <time>2018-09-04T08:42:49Z</time>
      </trkpt>
      <trkpt lat="43.3694500" lon="-3.2075690">
        <ele>-2.8</ele>
        <time>2018-09-04T08:42:51Z</time>
      </trkpt>
      <trkpt lat="43.3694800" lon="-3.2078370">
        <ele>-3.6</ele>
        <time>2018-09-04T08:42:53Z</time>
      </trkpt>
      <trkpt lat="43.3694930" lon="-3.2079680">
        <ele>-4.0</ele>
        <time>2018-09-04T08:42:54Z</time>
      </trkpt>
      <trkpt lat="43.3695370" lon="-3.2083590">
        <ele>-5.8</ele>
        <time>2018-09-04T08:42:57Z</time>
      </trkpt>
      <trkpt lat="43.3695670" lon="-3.2086200">
        <ele>-7.4</ele>
        <time>2018-09-04T08:42:59Z</time>
      </trkpt>
      <trkpt lat="43.3695860" lon="-3.2088840">
        <ele>-8.8</ele>
        <time>2018-09-04T08:43:01Z</time>
      </trkpt>
      <trkpt lat="43.3696030" lon="-3.2091440">
        <ele>-9.0</ele>
        <time>2018-09-04T08:43:03Z</time>
      </trkpt>
      <trkpt lat="43.3695990" lon="-3.2093970">
        <ele>-9.4</ele>
        <time>2018-09-04T08:43:05Z</time>
      </trkpt>
      <trkpt lat="43.3695850" lon="-3.2095200">
        <ele>-10.0</ele>
        <time>2018-09-04T08:43:06Z</time>
      </trkpt>
      <trkpt lat="43.3695640" lon="-3.2096430">
        <ele>-10.2</ele>
        <time>2018-09-04T08:43:07Z</time>
      </trkpt>
      <trkpt lat="43.3695190" lon="-3.2098830">
        <ele>-11.0</ele>
        <time>2018-09-04T08:43:09Z</time>
      </trkpt>
      <trkpt lat="43.3694550" lon="-3.2102330">
        <ele>-12.0</ele>
        <time>2018-09-04T08:43:12Z</time>
      </trkpt>
      <trkpt lat="43.3694310" lon="-3.2103510">
        <ele>-12.6</ele>
        <time>2018-09-04T08:43:13Z</time>
      </trkpt>
      <trkpt lat="43.3693890" lon="-3.2105830">
        <ele>-13.6</ele>
        <time>2018-09-04T08:43:15Z</time>
      </trkpt>
      <trkpt lat="43.3693040" lon="-3.2110480">
        <ele>-14.8</ele>
        <time>2018-09-04T08:43:19Z</time>
      </trkpt>
      <trkpt lat="43.3692820" lon="-3.2111500">
        <ele>-15.4</ele>
        <time>2018-09-04T08:43:20Z</time>
      </trkpt>
      <trkpt lat="43.3692610" lon="-3.2112470">
        <ele>-16.2</ele>
        <time>2018-09-04T08:43:21Z</time>
      </trkpt>
      <trkpt lat="43.3692450" lon="-3.2113410">
        <ele>-16.6</ele>
        <time>2018-09-04T08:43:22Z</time>
      </trkpt>
      <trkpt lat="43.3692610" lon="-3.2115240">
        <ele>-16.4</ele>
        <time>2018-09-04T08:43:24Z</time>
      </trkpt>
      <trkpt lat="43.3693460" lon="-3.2116150">
        <ele>-16.2</ele>
        <time>2018-09-04T08:43:26Z</time>
      </trkpt>
      <trkpt lat="43.3694820" lon="-3.2115240">
        <ele>-17.2</ele>
        <time>2018-09-04T08:43:29Z</time>
      </trkpt>
      <trkpt lat="43.3695270" lon="-3.2114740">
        <ele>-17.4</ele>
        <time>2018-09-04T08:43:30Z</time>
      </trkpt>
      <trkpt lat="43.3696750" lon="-3.2113270">
        <ele>-17.6</ele>
        <time>2018-09-04T08:43:33Z</time>
      </trkpt>
      <trkpt lat="43.3697830" lon="-3.2112450">
        <ele>-17.8</ele>
        <time>2018-09-04T08:43:35Z</time>
      </trkpt>
      <trkpt lat="43.3700090" lon="-3.2111450">
        <ele>-17.8</ele>
        <time>2018-09-04T08:43:39Z</time>
      </trkpt>
      <trkpt lat="43.3700670" lon="-3.2111370">
        <ele>-17.6</ele>
        <time>2018-09-04T08:43:40Z</time>
      </trkpt>
      <trkpt lat="43.3702400" lon="-3.2111630">
        <ele>-17.8</ele>
        <time>2018-09-04T08:43:43Z</time>
      </trkpt>
      <trkpt lat="43.3703510" lon="-3.2111800">
        <ele>-18.2</ele>
        <time>2018-09-04T08:43:45Z</time>
      </trkpt>
      <trkpt lat="43.3704640" lon="-3.2111810">
        <ele>-18.4</ele>
        <time>2018-09-04T08:43:47Z</time>
      </trkpt>
      <trkpt lat="43.3705730" lon="-3.2111680">
        <ele>-18.2</ele>
        <time>2018-09-04T08:43:49Z</time>
      </trkpt>
      <trkpt lat="43.3706790" lon="-3.2111340">
        <ele>-18.0</ele>
        <time>2018-09-04T08:43:51Z</time>
      </trkpt>
      <trkpt lat="43.3707290" lon="-3.2111090">
        <ele>-18.2</ele>
        <time>2018-09-04T08:43:52Z</time>
      </trkpt>
      <trkpt lat="43.3708670" lon="-3.2109990">
        <ele>-18.4</ele>
        <time>2018-09-04T08:43:55Z</time>
      </trkpt>
      <trkpt lat="43.3711380" lon="-3.2107710">
        <ele>-18.0</ele>
        <time>2018-09-04T08:44:01Z</time>
      </trkpt>
      <trkpt lat="43.3712310" lon="-3.2106990">
        <ele>-18.0</ele>
        <time>2018-09-04T08:44:03Z</time>
      </trkpt>
      <trkpt lat="43.3713260" lon="-3.2106320">
        <ele>-18.0</ele>
        <time>2018-09-04T08:44:05Z</time>
      </trkpt>
      <trkpt lat="43.3714200" lon="-3.2105550">
        <ele>-18.4</ele>
        <time>2018-09-04T08:44:07Z</time>
      </trkpt>
      <trkpt lat="43.3716220" lon="-3.2104160">
        <ele>-18.0</ele>
        <time>2018-09-04T08:44:11Z</time>
      </trkpt>
      <trkpt lat="43.3719020" lon="-3.2101980">
        <ele>-17.4</ele>
        <time>2018-09-04T08:44:17Z</time>
      </trkpt>
      <trkpt lat="43.3719460" lon="-3.2101610">
        <ele>-17.2</ele>
        <time>2018-09-04T08:44:18Z</time>
      </trkpt>
      <trkpt lat="43.3722420" lon="-3.2099310">
        <ele>-16.6</ele>
        <time>2018-09-04T08:44:25Z</time>
      </trkpt>
      <trkpt lat="43.3724020" lon="-3.2098070">
        <ele>-16.4</ele>
        <time>2018-09-04T08:44:29Z</time>
      </trkpt>
      <trkpt lat="43.3724420" lon="-3.2097730">
        <ele>-16.2</ele>
        <time>2018-09-04T08:44:30Z</time>
      </trkpt>
      <trkpt lat="43.3725610" lon="-3.2096810">
        <ele>-16.0</ele>
        <time>2018-09-04T08:44:33Z</time>
      </trkpt>
      <trkpt lat="43.3726000" lon="-3.2096490">
        <ele>-16.0</ele>
        <time>2018-09-04T08:44:34Z</time>
      </trkpt>
      <trkpt lat="43.3727690" lon="-3.2094670">
        <ele>-15.6</ele>
        <time>2018-09-04T08:44:39Z</time>
      </trkpt>
      <trkpt lat="43.3728790" lon="-3.2093530">
        <ele>-15.0</ele>
        <time>2018-09-04T08:44:42Z</time>
      </trkpt>
      <trkpt lat="43.3730910" lon="-3.2091360">
        <ele>-15.0</ele>
        <time>2018-09-04T08:44:48Z</time>
      </trkpt>
      <trkpt lat="43.3732080" lon="-3.2090160">
        <ele>-14.8</ele>
        <time>2018-09-04T08:44:52Z</time>
      </trkpt>
      <trkpt lat="43.3732480" lon="-3.2089570">
        <ele>-14.6</ele>
        <time>2018-09-04T08:44:54Z</time>
      </trkpt>
      <trkpt lat="43.3733190" lon="-3.2088070">
        <ele>-14.6</ele>
        <time>2018-09-04T08:44:58Z</time>
      </trkpt>
      <trkpt lat="43.3734000" lon="-3.2088150">
        <ele>-14.6</ele>
        <time>2018-09-04T08:45:01Z</time>
      </trkpt>
      <trkpt lat="43.3734460" lon="-3.2089430">
        <ele>-14.6</ele>
        <time>2018-09-04T08:45:05Z</time>
      </trkpt>
      <trkpt lat="43.3734010" lon="-3.2090220">
        <ele>-15.0</ele>
        <time>2018-09-04T08:45:08Z</time>
      </trkpt>
      <trkpt lat="43.3733090" lon="-3.2089830">
        <ele>-15.2</ele>
        <time>2018-09-04T08:45:11Z</time>
      </trkpt>
      <trkpt lat="43.3733000" lon="-3.2088460">
        <ele>-14.6</ele>
        <time>2018-09-04T08:45:14Z</time>
      </trkpt>
      <trkpt lat="43.3733910" lon="-3.2087670">
        <ele>-14.4</ele>
        <time>2018-09-04T08:45:17Z</time>
      </trkpt>
      <trkpt lat="43.3734260" lon="-3.2087550">
        <ele>-14.4</ele>
        <time>2018-09-04T08:45:18Z</time>
      </trkpt>
      <trkpt lat="43.3735420" lon="-3.2086390">
        <ele>-14.2</ele>
        <time>2018-09-04T08:45:22Z</time>
      </trkpt>
      <trkpt lat="43.3736900" lon="-3.2083990">
        <ele>-14.0</ele>
        <time>2018-09-04T08:45:28Z</time>
      </trkpt>
      <trkpt lat="43.3737150" lon="-3.2083620">
        <ele>-13.8</ele>
        <time>2018-09-04T08:45:29Z</time>
      </trkpt>
      <trkpt lat="43.3738440" lon="-3.2081670">
        <ele>-14.0</ele>
        <time>2018-09-04T08:45:34Z</time>
      </trkpt>
      <trkpt lat="43.3739410" lon="-3.2080520">
        <ele>-14.0</ele>
        <time>2018-09-04T08:45:37Z</time>
      </trkpt>
      <trkpt lat="43.3740250" lon="-3.2080230">
        <ele>-14.0</ele>
        <time>2018-09-04T08:45:39Z</time>
      </trkpt>
      <trkpt lat="43.3741290" lon="-3.2079930">
        <ele>-13.6</ele>
        <time>2018-09-04T08:45:42Z</time>
      </trkpt>
      <trkpt lat="43.3741890" lon="-3.2079440">
        <ele>-13.2</ele>
        <time>2018-09-04T08:45:44Z</time>
      </trkpt>
      <trkpt lat="43.3742870" lon="-3.2078760">
        <ele>-13.0</ele>
        <time>2018-09-04T08:45:47Z</time>
      </trkpt>
      <trkpt lat="43.3743860" lon="-3.2078420">
        <ele>-12.4</ele>
        <time>2018-09-04T08:45:50Z</time>
      </trkpt>
      <trkpt lat="43.3744720" lon="-3.2078800">
        <ele>-12.0</ele>
        <time>2018-09-04T08:45:54Z</time>
      </trkpt>
      <trkpt lat="43.3744830" lon="-3.2078930">
        <ele>-12.0</ele>
        <time>2018-09-04T08:45:55Z</time>
      </trkpt>
      <trkpt lat="43.3744910" lon="-3.2079010">
        <ele>-11.8</ele>
        <time>2018-09-04T08:45:56Z</time>
      </trkpt>
      <trkpt lat="43.3744820" lon="-3.2077950">
        <ele>-11.4</ele>
        <time>2018-09-04T09:30:28Z</time>
      </trkpt>
      <trkpt lat="43.3744450" lon="-3.2078180">
        <ele>-11.4</ele>
        <time>2018-09-04T09:30:30Z</time>
      </trkpt>
      <trkpt lat="43.3744030" lon="-3.2078490">
        <ele>-11.8</ele>
        <time>2018-09-04T09:30:32Z</time>
      </trkpt>
      <trkpt lat="43.3743310" lon="-3.2079020">
        <ele>-12.0</ele>
        <time>2018-09-04T09:30:35Z</time>
      </trkpt>
      <trkpt lat="43.3742800" lon="-3.2079350">
        <ele>-12.2</ele>
        <time>2018-09-04T09:30:39Z</time>
      </trkpt>
      <trkpt lat="43.3742160" lon="-3.2079610">
        <ele>-12.4</ele>
        <time>2018-09-04T09:31:42Z</time>
      </trkpt>
      <trkpt lat="43.3741970" lon="-3.2079670">
        <ele>-12.6</ele>
        <time>2018-09-04T09:31:43Z</time>
      </trkpt>
      <trkpt lat="43.3741760" lon="-3.2079760">
        <ele>-12.6</ele>
        <time>2018-09-04T09:31:44Z</time>
      </trkpt>
      <trkpt lat="43.3741340" lon="-3.2080040">
        <ele>-12.8</ele>
        <time>2018-09-04T09:31:46Z</time>
      </trkpt>
      <trkpt lat="43.3741080" lon="-3.2080120">
        <ele>-12.8</ele>
        <time>2018-09-04T09:31:47Z</time>
      </trkpt>
      <trkpt lat="43.3740780" lon="-3.2080190">
        <ele>-13.0</ele>
        <time>2018-09-04T09:31:48Z</time>
      </trkpt>
      <trkpt lat="43.3740460" lon="-3.2080300">
        <ele>-13.2</ele>
        <time>2018-09-04T09:31:49Z</time>
      </trkpt>
      <trkpt lat="43.3739180" lon="-3.2081010">
        <ele>-13.8</ele>
        <time>2018-09-04T09:31:53Z</time>
      </trkpt>
      <trkpt lat="43.3738020" lon="-3.2082780">
        <ele>-13.8</ele>
        <time>2018-09-04T09:31:58Z</time>
      </trkpt>
      <trkpt lat="43.3735960" lon="-3.2085870">
        <ele>-13.6</ele>
        <time>2018-09-04T09:32:06Z</time>
      </trkpt>
      <trkpt lat="43.3735150" lon="-3.2086970">
        <ele>-13.6</ele>
        <time>2018-09-04T09:32:10Z</time>
      </trkpt>
      <trkpt lat="43.3735000" lon="-3.2087390">
        <ele>-13.4</ele>
        <time>2018-09-04T09:32:11Z</time>
      </trkpt>
      <trkpt lat="43.3734750" lon="-3.2088530">
        <ele>-14.4</ele>
        <time>2018-09-04T09:32:13Z</time>
      </trkpt>
      <trkpt lat="43.3734540" lon="-3.2089710">
        <ele>-14.6</ele>
        <time>2018-09-04T09:32:15Z</time>
      </trkpt>
      <trkpt lat="43.3734420" lon="-3.2090250">
        <ele>-14.6</ele>
        <time>2018-09-04T09:32:16Z</time>
      </trkpt>
      <trkpt lat="43.3734230" lon="-3.2092040">
        <ele>-14.6</ele>
        <time>2018-09-04T09:32:19Z</time>
      </trkpt>
      <trkpt lat="43.3734470" lon="-3.2093330">
        <ele>-15.2</ele>
        <time>2018-09-04T09:32:21Z</time>
      </trkpt>
      <trkpt lat="43.3735390" lon="-3.2096260">
        <ele>-15.6</ele>
        <time>2018-09-04T09:32:26Z</time>
      </trkpt>
      <trkpt lat="43.3735680" lon="-3.2097500">
        <ele>-15.8</ele>
        <time>2018-09-04T09:32:28Z</time>
      </trkpt>
      <trkpt lat="43.3735500" lon="-3.2100260">
        <ele>-16.6</ele>
        <time>2018-09-04T09:32:32Z</time>
      </trkpt>
      <trkpt lat="43.3735440" lon="-3.2100940">
        <ele>-16.4</ele>
        <time>2018-09-04T09:32:33Z</time>
      </trkpt>
      <trkpt lat="43.3735300" lon="-3.2104360">
        <ele>-16.6</ele>
        <time>2018-09-04T09:32:38Z</time>
      </trkpt>
      <trkpt lat="43.3735300" lon="-3.2106930">
        <ele>-16.2</ele>
        <time>2018-09-04T09:32:42Z</time>
      </trkpt>
      <trkpt lat="43.3735420" lon="-3.2109240">
        <ele>-16.2</ele>
        <time>2018-09-04T09:32:46Z</time>
      </trkpt>
      <trkpt lat="43.3735490" lon="-3.2109810">
        <ele>-16.0</ele>
        <time>2018-09-04T09:32:47Z</time>
      </trkpt>
      <trkpt lat="43.3735650" lon="-3.2111020">
        <ele>-16.0</ele>
        <time>2018-09-04T09:32:49Z</time>
      </trkpt>
      <trkpt lat="43.3735800" lon="-3.2112240">
        <ele>-16.2</ele>
        <time>2018-09-04T09:32:51Z</time>
      </trkpt>
      <trkpt lat="43.3735940" lon="-3.2113430">
        <ele>-16.2</ele>
        <time>2018-09-04T09:32:53Z</time>
      </trkpt>
      <trkpt lat="43.3736150" lon="-3.2114880">
        <ele>-16.0</ele>
        <time>2018-09-04T09:32:56Z</time>
      </trkpt>
      <trkpt lat="43.3736550" lon="-3.2117060">
        <ele>-16.0</ele>
        <time>2018-09-04T09:33:02Z</time>
      </trkpt>
      <trkpt lat="43.3737170" lon="-3.2119310">
        <ele>-16.0</ele>
        <time>2018-09-04T09:33:07Z</time>
      </trkpt>
      <trkpt lat="43.3738150" lon="-3.2122350">
        <ele>-16.6</ele>
        <time>2018-09-04T09:33:13Z</time>
      </trkpt>
      <trkpt lat="43.3738340" lon="-3.2122840">
        <ele>-16.4</ele>
        <time>2018-09-04T09:33:14Z</time>
      </trkpt>
      <trkpt lat="43.3739330" lon="-3.2125230">
        <ele>-16.2</ele>
        <time>2018-09-04T09:33:19Z</time>
      </trkpt>
      <trkpt lat="43.3739550" lon="-3.2125720">
        <ele>-16.2</ele>
        <time>2018-09-04T09:33:20Z</time>
      </trkpt>
      <trkpt lat="43.3740010" lon="-3.2126700">
        <ele>-16.2</ele>
        <time>2018-09-04T09:33:22Z</time>
      </trkpt>
      <trkpt lat="43.3741680" lon="-3.2130160">
        <ele>-16.4</ele>
        <time>2018-09-04T09:33:29Z</time>
      </trkpt>
      <trkpt lat="43.3741980" lon="-3.2130630">
        <ele>-16.2</ele>
        <time>2018-09-04T09:33:30Z</time>
      </trkpt>
      <trkpt lat="43.3744560" lon="-3.2134370">
        <ele>-16.0</ele>
        <time>2018-09-04T09:33:38Z</time>
      </trkpt>
      <trkpt lat="43.3744990" lon="-3.2134700">
        <ele>-16.2</ele>
        <time>2018-09-04T09:33:39Z</time>
      </trkpt>
      <trkpt lat="43.3746270" lon="-3.2134610">
        <ele>-16.6</ele>
        <time>2018-09-04T09:33:42Z</time>
      </trkpt>
      <trkpt lat="43.3747890" lon="-3.2134100">
        <ele>-16.6</ele>
        <time>2018-09-04T09:33:46Z</time>
      </trkpt>
      <trkpt lat="43.3748730" lon="-3.2133810">
        <ele>-16.8</ele>
        <time>2018-09-04T09:33:48Z</time>
      </trkpt>
      <trkpt lat="43.3751430" lon="-3.2132960">
        <ele>-16.4</ele>
        <time>2018-09-04T09:33:55Z</time>
      </trkpt>
      <trkpt lat="43.3753870" lon="-3.2132280">
        <ele>-15.8</ele>
        <time>2018-09-04T09:34:01Z</time>
      </trkpt>
      <trkpt lat="43.3755920" lon="-3.2131690">
        <ele>-15.8</ele>
        <time>2018-09-04T09:34:06Z</time>
      </trkpt>
      <trkpt lat="43.3756370" lon="-3.2131640">
        <ele>-15.6</ele>
        <time>2018-09-04T09:34:07Z</time>
      </trkpt>
      <trkpt lat="43.3756810" lon="-3.2131640">
        <ele>-15.4</ele>
        <time>2018-09-04T09:34:08Z</time>
      </trkpt>
      <trkpt lat="43.3757670" lon="-3.2131710">
        <ele>-15.2</ele>
        <time>2018-09-04T09:34:10Z</time>
      </trkpt>
      <trkpt lat="43.3759230" lon="-3.2132050">
        <ele>-15.2</ele>
        <time>2018-09-04T09:34:14Z</time>
      </trkpt>
      <trkpt lat="43.3762160" lon="-3.2133390">
        <ele>-15.4</ele>
        <time>2018-09-04T09:34:21Z</time>
      </trkpt>
      <trkpt lat="43.3765670" lon="-3.2135230">
        <ele>-15.4</ele>
        <time>2018-09-04T09:34:29Z</time>
      </trkpt>
      <trkpt lat="43.3766050" lon="-3.2135580">
        <ele>-15.4</ele>
        <time>2018-09-04T09:34:30Z</time>
      </trkpt>
      <trkpt lat="43.3769260" lon="-3.2138450">
        <ele>-15.4</ele>
        <time>2018-09-04T09:34:38Z</time>
      </trkpt>
      <trkpt lat="43.3771940" lon="-3.2140850">
        <ele>-15.6</ele>
        <time>2018-09-04T09:34:44Z</time>
      </trkpt>
      <trkpt lat="43.3775630" lon="-3.2144120">
        <ele>-15.8</ele>
        <time>2018-09-04T09:34:52Z</time>
      </trkpt>
      <trkpt lat="43.3776090" lon="-3.2144510">
        <ele>-15.8</ele>
        <time>2018-09-04T09:34:53Z</time>
      </trkpt>
      <trkpt lat="43.3780180" lon="-3.2148120">
        <ele>-15.4</ele>
        <time>2018-09-04T09:35:02Z</time>
      </trkpt>
      <trkpt lat="43.3783900" lon="-3.2151270">
        <ele>-15.6</ele>
        <time>2018-09-04T09:35:10Z</time>
      </trkpt>
      <trkpt lat="43.3784800" lon="-3.2152070">
        <ele>-16.0</ele>
        <time>2018-09-04T09:35:12Z</time>
      </trkpt>
      <trkpt lat="43.3787870" lon="-3.2154730">
        <ele>-15.6</ele>
        <time>2018-09-04T09:35:19Z</time>
      </trkpt>
      <trkpt lat="43.3792170" lon="-3.2158500">
        <ele>-15.6</ele>
        <time>2018-09-04T09:35:29Z</time>
      </trkpt>
      <trkpt lat="43.3796020" lon="-3.2161870">
        <ele>-16.0</ele>
        <time>2018-09-04T09:35:38Z</time>
      </trkpt>
      <trkpt lat="43.3797320" lon="-3.2163010">
        <ele>-15.6</ele>
        <time>2018-09-04T09:35:41Z</time>
      </trkpt>
      <trkpt lat="43.3799040" lon="-3.2164450">
        <ele>-15.6</ele>
        <time>2018-09-04T09:35:45Z</time>
      </trkpt>
      <trkpt lat="43.3799440" lon="-3.2164780">
        <ele>-15.6</ele>
        <time>2018-09-04T09:35:46Z</time>
      </trkpt>
      <trkpt lat="43.3800440" lon="-3.2165600">
        <ele>-15.4</ele>
        <time>2018-09-04T09:35:49Z</time>
      </trkpt>
      <trkpt lat="43.3800980" lon="-3.2166070">
        <ele>-15.4</ele>
        <time>2018-09-04T09:35:51Z</time>
      </trkpt>
      <trkpt lat="43.3801610" lon="-3.2166080">
        <ele>-15.4</ele>
        <time>2018-09-04T09:35:53Z</time>
      </trkpt>
      <trkpt lat="43.3801940" lon="-3.2165780">
        <ele>-15.6</ele>
        <time>2018-09-04T09:35:54Z</time>
      </trkpt>
      <trkpt lat="43.3803450" lon="-3.2164500">
        <ele>-15.6</ele>
        <time>2018-09-04T09:35:58Z</time>
      </trkpt>
      <trkpt lat="43.3803920" lon="-3.2164440">
        <ele>-15.8</ele>
        <time>2018-09-04T09:35:59Z</time>
      </trkpt>
      <trkpt lat="43.3804790" lon="-3.2164780">
        <ele>-16.4</ele>
        <time>2018-09-04T09:36:01Z</time>
      </trkpt>
      <trkpt lat="43.3805630" lon="-3.2165100">
        <ele>-17.0</ele>
        <time>2018-09-04T09:36:03Z</time>
      </trkpt>
      <trkpt lat="43.3807050" lon="-3.2165530">
        <ele>-16.6</ele>
        <time>2018-09-04T09:36:07Z</time>
      </trkpt>
      <trkpt lat="43.3807290" lon="-3.2165770">
        <ele>-16.6</ele>
        <time>2018-09-04T09:36:08Z</time>
      </trkpt>
      <trkpt lat="43.3807730" lon="-3.2166090">
        <ele>-16.6</ele>
        <time>2018-09-04T09:36:10Z</time>
      </trkpt>
      <trkpt lat="43.3808300" lon="-3.2166200">
        <ele>-16.4</ele>
        <time>2018-09-04T09:36:13Z</time>
      </trkpt>
      <trkpt lat="43.3808540" lon="-3.2166280">
        <ele>-16.6</ele>
        <time>2018-09-04T09:36:15Z</time>
      </trkpt>
      <trkpt lat="43.3808830" lon="-3.2166220">
        <ele>-16.4</ele>
        <time>2018-09-04T09:36:17Z</time>
      </trkpt>
      <trkpt lat="43.3808830" lon="-3.2165790">
        <ele>-15.8</ele>
        <time>2018-09-04T09:36:20Z</time>
      </trkpt>
      <trkpt lat="43.3808690" lon="-3.2165710">
        <ele>-15.8</ele>
        <time>2018-09-04T09:36:21Z</time>
      </trkpt>
      <trkpt lat="43.3808450" lon="-3.2165570">
        <ele>-16.0</ele>
        <time>2018-09-04T09:36:23Z</time>
      </trkpt>
      <trkpt lat="43.3808260" lon="-3.2166180">
        <ele>-16.2</ele>
        <time>2018-09-04T09:38:11Z</time>
      </trkpt>
      <trkpt lat="43.3808840" lon="-3.2166730">
        <ele>-17.0</ele>
        <time>2018-09-04T09:38:14Z</time>
      </trkpt>
      <trkpt lat="43.3809480" lon="-3.2166890">
        <ele>-17.0</ele>
        <time>2018-09-04T09:38:16Z</time>
      </trkpt>
      <trkpt lat="43.3810490" lon="-3.2167140">
        <ele>-16.8</ele>
        <time>2018-09-04T09:38:19Z</time>
      </trkpt>
      <trkpt lat="43.3811170" lon="-3.2167370">
        <ele>-17.0</ele>
        <time>2018-09-04T09:38:21Z</time>
      </trkpt>
      <trkpt lat="43.3812250" lon="-3.2167760">
        <ele>-16.8</ele>
        <time>2018-09-04T09:38:24Z</time>
      </trkpt>
      <trkpt lat="43.3814360" lon="-3.2168630">
        <ele>-16.8</ele>
        <time>2018-09-04T09:38:30Z</time>
      </trkpt>
      <trkpt lat="43.3817160" lon="-3.2169690">
        <ele>-16.6</ele>
        <time>2018-09-04T09:38:39Z</time>
      </trkpt>
      <trkpt lat="43.3818240" lon="-3.2170080">
        <ele>-16.6</ele>
        <time>2018-09-04T09:38:43Z</time>
      </trkpt>
      <trkpt lat="43.3818880" lon="-3.2170360">
        <ele>-16.8</ele>
        <time>2018-09-04T09:38:45Z</time>
      </trkpt>
      <trkpt lat="43.3819900" lon="-3.2170820">
        <ele>-17.0</ele>
        <time>2018-09-04T09:38:48Z</time>
      </trkpt>
      <trkpt lat="43.3821260" lon="-3.2171320">
        <ele>-16.6</ele>
        <time>2018-09-04T09:38:52Z</time>
      </trkpt>
      <trkpt lat="43.3822430" lon="-3.2171730">
        <ele>-16.6</ele>
        <time>2018-09-04T09:38:56Z</time>
      </trkpt>
      <trkpt lat="43.3823040" lon="-3.2171990">
        <ele>-16.6</ele>
        <time>2018-09-04T09:38:58Z</time>
      </trkpt>
      <trkpt lat="43.3823390" lon="-3.2172120">
        <ele>-16.6</ele>
        <time>2018-09-04T09:38:59Z</time>
      </trkpt>
      <trkpt lat="43.3824850" lon="-3.2172640">
        <ele>-16.6</ele>
        <time>2018-09-04T09:39:03Z</time>
      </trkpt>
      <trkpt lat="43.3826240" lon="-3.2173310">
        <ele>-16.6</ele>
        <time>2018-09-04T09:39:07Z</time>
      </trkpt>
      <trkpt lat="43.3826540" lon="-3.2173610">
        <ele>-16.6</ele>
        <time>2018-09-04T09:39:08Z</time>
      </trkpt>
      <trkpt lat="43.3826910" lon="-3.2174860">
        <ele>-16.8</ele>
        <time>2018-09-04T09:39:11Z</time>
      </trkpt>
      <trkpt lat="43.3826430" lon="-3.2177070">
        <ele>-16.4</ele>
        <time>2018-09-04T09:39:16Z</time>
      </trkpt>
      <trkpt lat="43.3826280" lon="-3.2179580">
        <ele>-15.8</ele>
        <time>2018-09-04T09:39:22Z</time>
      </trkpt>
      <trkpt lat="43.3826730" lon="-3.2180090">
        <ele>-15.8</ele>
        <time>2018-09-04T09:39:25Z</time>
      </trkpt>
      <trkpt lat="43.3826870" lon="-3.2180170">
        <ele>-15.8</ele>
        <time>2018-09-04T09:39:26Z</time>
      </trkpt>
      <trkpt lat="43.3827030" lon="-3.2180110">
        <ele>-15.8</ele>
        <time>2018-09-04T09:39:27Z</time>
      </trkpt>
      <trkpt lat="43.3827150" lon="-3.2179650">
        <ele>-15.8</ele>
        <time>2018-09-04T09:39:29Z</time>
      </trkpt>
      <trkpt lat="43.3827670" lon="-3.2179530">
        <ele>-16.0</ele>
        <time>2018-09-04T09:39:32Z</time>
      </trkpt>
      <trkpt lat="43.3827800" lon="-3.2179600">
        <ele>-16.0</ele>
        <time>2018-09-04T09:39:33Z</time>
      </trkpt>
      <trkpt lat="43.3828240" lon="-3.2180000">
        <ele>-16.0</ele>
        <time>2018-09-04T09:40:56Z</time>
      </trkpt>
      <trkpt lat="43.3828420" lon="-3.2180130">
        <ele>-16.2</ele>
        <time>2018-09-04T09:40:57Z</time>
      </trkpt>
      <trkpt lat="43.3829660" lon="-3.2180420">
        <ele>-15.6</ele>
        <time>2018-09-04T09:41:03Z</time>
      </trkpt>
      <trkpt lat="43.3830580" lon="-3.2179940">
        <ele>-15.8</ele>
        <time>2018-09-04T09:41:07Z</time>
      </trkpt>
      <trkpt lat="43.3830850" lon="-3.2179720">
        <ele>-15.8</ele>
        <time>2018-09-04T09:41:08Z</time>
      </trkpt>
      <trkpt lat="43.3832870" lon="-3.2178470">
        <ele>-16.4</ele>
        <time>2018-09-04T09:41:15Z</time>
      </trkpt>
      <trkpt lat="43.3834390" lon="-3.2177560">
        <ele>-16.4</ele>
        <time>2018-09-04T09:41:21Z</time>
      </trkpt>
      <trkpt lat="43.3835180" lon="-3.2177120">
        <ele>-16.2</ele>
        <time>2018-09-04T09:41:25Z</time>
      </trkpt>
      <trkpt lat="43.3835730" lon="-3.2176810">
        <ele>-16.2</ele>
        <time>2018-09-04T09:41:27Z</time>
      </trkpt>
      <trkpt lat="43.3836460" lon="-3.2176300">
        <ele>-16.2</ele>
        <time>2018-09-04T09:41:30Z</time>
      </trkpt>
      <trkpt lat="43.3837230" lon="-3.2175920">
        <ele>-16.2</ele>
        <time>2018-09-04T09:41:33Z</time>
      </trkpt>
      <trkpt lat="43.3837690" lon="-3.2176020">
        <ele>-16.4</ele>
        <time>2018-09-04T09:41:35Z</time>
      </trkpt>
      <trkpt lat="43.3838050" lon="-3.2176130">
        <ele>-16.4</ele>
        <time>2018-09-04T09:41:37Z</time>
      </trkpt>
      <trkpt lat="43.3838670" lon="-3.2176660">
        <ele>-16.2</ele>
        <time>2018-09-04T09:41:41Z</time>
      </trkpt>
      <trkpt lat="43.3838780" lon="-3.2176890">
        <ele>-16.2</ele>
        <time>2018-09-04T09:41:42Z</time>
      </trkpt>
      <trkpt lat="43.3838880" lon="-3.2177830">
        <ele>-15.8</ele>
        <time>2018-09-04T09:41:46Z</time>
      </trkpt>
      <trkpt lat="43.3838120" lon="-3.2178560">
        <ele>-15.8</ele>
        <time>2018-09-04T09:41:51Z</time>
      </trkpt>
      <trkpt lat="43.3837540" lon="-3.2179390">
        <ele>-15.4</ele>
        <time>2018-09-04T09:41:58Z</time>
      </trkpt>
      <trkpt lat="43.3837450" lon="-3.2179430">
        <ele>-15.4</ele>
        <time>2018-09-04T09:41:59Z</time>
      </trkpt>
      <trkpt lat="43.3837130" lon="-3.2179440">
        <ele>-15.2</ele>
        <time>2018-09-04T09:42:01Z</time>
      </trkpt>
      <trkpt lat="43.3836730" lon="-3.2179580">
        <ele>-15.4</ele>
        <time>2018-09-04T09:42:03Z</time>
      </trkpt>
      <trkpt lat="43.3836350" lon="-3.2179780">
        <ele>-15.0</ele>
        <time>2018-09-04T09:42:05Z</time>
      </trkpt>
      <trkpt lat="43.3835230" lon="-3.2180770">
        <ele>-14.8</ele>
        <time>2018-09-04T09:42:21Z</time>
      </trkpt>
      <trkpt lat="43.3834070" lon="-3.2181430">
        <ele>-14.8</ele>
        <time>2018-09-04T09:42:24Z</time>
      </trkpt>
      <trkpt lat="43.3833240" lon="-3.2181700">
        <ele>-15.0</ele>
        <time>2018-09-04T09:42:27Z</time>
      </trkpt>
      <trkpt lat="43.3832930" lon="-3.2181800">
        <ele>-15.0</ele>
        <time>2018-09-04T09:42:28Z</time>
      </trkpt>
      <trkpt lat="43.3832340" lon="-3.2182040">
        <ele>-15.0</ele>
        <time>2018-09-04T09:42:30Z</time>
      </trkpt>
      <trkpt lat="43.3831640" lon="-3.2182500">
        <ele>-15.0</ele>
        <time>2018-09-04T09:42:33Z</time>
      </trkpt>
      <trkpt lat="43.3830340" lon="-3.2183000">
        <ele>-16.0</ele>
        <time>2018-09-04T09:42:39Z</time>
      </trkpt>
      <trkpt lat="43.3828970" lon="-3.2183120">
        <ele>-15.2</ele>
        <time>2018-09-04T09:42:45Z</time>
      </trkpt>
      <trkpt lat="43.3828190" lon="-3.2183300">
        <ele>-15.2</ele>
        <time>2018-09-04T09:42:48Z</time>
      </trkpt>
      <trkpt lat="43.3827730" lon="-3.2183420">
        <ele>-15.2</ele>
        <time>2018-09-04T09:42:50Z</time>
      </trkpt>
      <trkpt lat="43.3827130" lon="-3.2183530">
        <ele>-15.2</ele>
        <time>2018-09-04T09:42:53Z</time>
      </trkpt>
      <trkpt lat="43.3826690" lon="-3.2183590">
        <ele>-15.2</ele>
        <time>2018-09-04T09:42:56Z</time>
      </trkpt>
      <trkpt lat="43.3825950" lon="-3.2183620">
        <ele>-15.4</ele>
        <time>2018-09-04T09:43:02Z</time>
      </trkpt>
      <trkpt lat="43.3825410" lon="-3.2183680">
        <ele>-15.0</ele>
        <time>2018-09-04T09:43:05Z</time>
      </trkpt>
      <trkpt lat="43.3825260" lon="-3.2183990">
        <ele>-15.0</ele>
        <time>2018-09-04T09:43:06Z</time>
      </trkpt>
      <trkpt lat="43.3825100" lon="-3.2184610">
        <ele>-15.2</ele>
        <time>2018-09-04T09:43:08Z</time>
      </trkpt>
      <trkpt lat="43.3825070" lon="-3.2184960">
        <ele>-15.2</ele>
        <time>2018-09-04T09:43:09Z</time>
      </trkpt>
      <trkpt lat="43.3824960" lon="-3.2185720">
        <ele>-15.0</ele>
        <time>2018-09-04T09:43:11Z</time>
      </trkpt>
      <trkpt lat="43.3824910" lon="-3.2186090">
        <ele>-15.0</ele>
        <time>2018-09-04T09:43:12Z</time>
      </trkpt>
      <trkpt lat="43.3824640" lon="-3.2187500">
        <ele>-14.8</ele>
        <time>2018-09-04T09:43:16Z</time>
      </trkpt>
      <trkpt lat="43.3824250" lon="-3.2188530">
        <ele>-14.8</ele>
        <time>2018-09-04T09:43:20Z</time>
      </trkpt>
      <trkpt lat="43.3824290" lon="-3.2188770">
        <ele>-15.0</ele>
        <time>2018-09-04T09:43:21Z</time>
      </trkpt>
      <trkpt lat="43.3824310" lon="-3.2188990">
        <ele>-15.0</ele>
        <time>2018-09-04T09:43:23Z</time>
      </trkpt>
      <trkpt lat="43.3824270" lon="-3.2189040">
        <ele>-15.0</ele>
        <time>2018-09-04T09:43:25Z</time>
      </trkpt>
      <trkpt lat="43.3823850" lon="-3.2189690">
        <ele>-14.8</ele>
        <time>2018-09-04T09:43:37Z</time>
      </trkpt>
      <trkpt lat="43.3823790" lon="-3.2189990">
        <ele>-14.8</ele>
        <time>2018-09-04T09:43:38Z</time>
      </trkpt>
      <trkpt lat="43.3823370" lon="-3.2191770">
        <ele>-14.4</ele>
        <time>2018-09-04T09:43:44Z</time>
      </trkpt>
      <trkpt lat="43.3823340" lon="-3.2192090">
        <ele>-14.4</ele>
        <time>2018-09-04T09:43:45Z</time>
      </trkpt>
      <trkpt lat="43.3822820" lon="-3.2193890">
        <ele>-14.0</ele>
        <time>2018-09-04T09:43:51Z</time>
      </trkpt>
      <trkpt lat="43.3822130" lon="-3.2196360">
        <ele>-13.4</ele>
        <time>2018-09-04T09:43:58Z</time>
      </trkpt>
      <trkpt lat="43.3821650" lon="-3.2197960">
        <ele>-13.2</ele>
        <time>2018-09-04T09:44:02Z</time>
      </trkpt>
      <trkpt lat="43.3821450" lon="-3.2198860">
        <ele>-12.8</ele>
        <time>2018-09-04T09:44:04Z</time>
      </trkpt>
      <trkpt lat="43.3821010" lon="-3.2200740">
        <ele>-12.8</ele>
        <time>2018-09-04T09:44:08Z</time>
      </trkpt>
      <trkpt lat="43.3820640" lon="-3.2201970">
        <ele>-12.4</ele>
        <time>2018-09-04T09:44:11Z</time>
      </trkpt>
      <trkpt lat="43.3820150" lon="-3.2203220">
        <ele>-12.2</ele>
        <time>2018-09-04T09:44:15Z</time>
      </trkpt>
      <trkpt lat="43.3820130" lon="-3.2203360">
        <ele>-12.0</ele>
        <time>2018-09-04T09:44:17Z</time>
      </trkpt>
      <trkpt lat="43.3820150" lon="-3.2204330">
        <ele>-12.0</ele>
        <time>2018-09-04T09:44:43Z</time>
      </trkpt>
      <trkpt lat="43.3820270" lon="-3.2204570">
        <ele>-12.0</ele>
        <time>2018-09-04T09:44:44Z</time>
      </trkpt>
      <trkpt lat="43.3820480" lon="-3.2204780">
        <ele>-12.0</ele>
        <time>2018-09-04T09:44:45Z</time>
      </trkpt>
      <trkpt lat="43.3821290" lon="-3.2205220">
        <ele>-12.2</ele>
        <time>2018-09-04T09:44:48Z</time>
      </trkpt>
      <trkpt lat="43.3821700" lon="-3.2205520">
        <ele>-12.0</ele>
        <time>2018-09-04T09:44:50Z</time>
      </trkpt>
      <trkpt lat="43.3821820" lon="-3.2205650">
        <ele>-12.2</ele>
        <time>2018-09-04T09:44:51Z</time>
      </trkpt>
      <trkpt lat="43.3822270" lon="-3.2206030">
        <ele>-12.2</ele>
        <time>2018-09-04T09:44:54Z</time>
      </trkpt>
      <trkpt lat="43.3822470" lon="-3.2206140">
        <ele>-12.2</ele>
        <time>2018-09-04T09:44:55Z</time>
      </trkpt>
      <trkpt lat="43.3823980" lon="-3.2207260">
        <ele>-13.0</ele>
        <time>2018-09-04T09:45:02Z</time>
      </trkpt>
      <trkpt lat="43.3824810" lon="-3.2207720">
        <ele>-13.4</ele>
        <time>2018-09-04T09:45:05Z</time>
      </trkpt>
      <trkpt lat="43.3825810" lon="-3.2208340">
        <ele>-13.4</ele>
        <time>2018-09-04T09:45:08Z</time>
      </trkpt>
      <trkpt lat="43.3826510" lon="-3.2208610">
        <ele>-13.6</ele>
        <time>2018-09-04T09:45:10Z</time>
      </trkpt>
      <trkpt lat="43.3827030" lon="-3.2208980">
        <ele>-13.4</ele>
        <time>2018-09-04T09:45:13Z</time>
      </trkpt>
      <trkpt lat="43.3827520" lon="-3.2209630">
        <ele>-13.6</ele>
        <time>2018-09-04T09:45:18Z</time>
      </trkpt>
      <trkpt lat="43.3828310" lon="-3.2210070">
        <ele>-14.2</ele>
        <time>2018-09-04T09:45:22Z</time>
      </trkpt>
      <trkpt lat="43.3829820" lon="-3.2209850">
        <ele>-14.4</ele>
        <time>2018-09-04T09:45:27Z</time>
      </trkpt>
      <trkpt lat="43.3831470" lon="-3.2209440">
        <ele>-14.6</ele>
        <time>2018-09-04T09:45:32Z</time>
      </trkpt>
      <trkpt lat="43.3832740" lon="-3.2209150">
        <ele>-14.8</ele>
        <time>2018-09-04T09:45:36Z</time>
      </trkpt>
      <trkpt lat="43.3834590" lon="-3.2208960">
        <ele>-15.2</ele>
        <time>2018-09-04T09:45:41Z</time>
      </trkpt>
      <trkpt lat="43.3835540" lon="-3.2208960">
        <ele>-15.2</ele>
        <time>2018-09-04T09:45:45Z</time>
      </trkpt>
      <trkpt lat="43.3836600" lon="-3.2209130">
        <ele>-15.0</ele>
        <time>2018-09-04T09:45:50Z</time>
      </trkpt>
      <trkpt lat="43.3836970" lon="-3.2209380">
        <ele>-15.4</ele>
        <time>2018-09-04T09:45:51Z</time>
      </trkpt>
      <trkpt lat="43.3837250" lon="-3.2209780">
        <ele>-15.6</ele>
        <time>2018-09-04T09:45:52Z</time>
      </trkpt>
      <trkpt lat="43.3837370" lon="-3.2210280">
        <ele>-15.4</ele>
        <time>2018-09-04T09:45:53Z</time>
      </trkpt>
      <trkpt lat="43.3837540" lon="-3.2211360">
        <ele>-15.0</ele>
        <time>2018-09-04T09:45:55Z</time>
      </trkpt>
      <trkpt lat="43.3837810" lon="-3.2212430">
        <ele>-14.8</ele>
        <time>2018-09-04T09:45:57Z</time>
      </trkpt>
      <trkpt lat="43.3837960" lon="-3.2213550">
        <ele>-15.0</ele>
        <time>2018-09-04T09:45:59Z</time>
      </trkpt>
      <trkpt lat="43.3838110" lon="-3.2215820">
        <ele>-15.4</ele>
        <time>2018-09-04T09:46:03Z</time>
      </trkpt>
      <trkpt lat="43.3838240" lon="-3.2217360">
        <ele>-15.0</ele>
        <time>2018-09-04T09:46:06Z</time>
      </trkpt>
      <trkpt lat="43.3838270" lon="-3.2218010">
        <ele>-15.2</ele>
        <time>2018-09-04T09:46:07Z</time>
      </trkpt>
      <trkpt lat="43.3838440" lon="-3.2219440">
        <ele>-15.2</ele>
        <time>2018-09-04T09:46:09Z</time>
      </trkpt>
      <trkpt lat="43.3838610" lon="-3.2220880">
        <ele>-15.2</ele>
        <time>2018-09-04T09:46:11Z</time>
      </trkpt>
      <trkpt lat="43.3838860" lon="-3.2222730">
        <ele>-15.2</ele>
        <time>2018-09-04T09:46:14Z</time>
      </trkpt>
      <trkpt lat="43.3838940" lon="-3.2223340">
        <ele>-15.0</ele>
        <time>2018-09-04T09:46:15Z</time>
      </trkpt>
      <trkpt lat="43.3839190" lon="-3.2225240">
        <ele>-14.4</ele>
        <time>2018-09-04T09:46:18Z</time>
      </trkpt>
      <trkpt lat="43.3839300" lon="-3.2227070">
        <ele>-14.4</ele>
        <time>2018-09-04T09:46:21Z</time>
      </trkpt>
      <trkpt lat="43.3839380" lon="-3.2228310">
        <ele>-14.6</ele>
        <time>2018-09-04T09:46:23Z</time>
      </trkpt>
      <trkpt lat="43.3839590" lon="-3.2230210">
        <ele>-14.8</ele>
        <time>2018-09-04T09:46:26Z</time>
      </trkpt>
      <trkpt lat="43.3839790" lon="-3.2232140">
        <ele>-14.6</ele>
        <time>2018-09-04T09:46:29Z</time>
      </trkpt>
      <trkpt lat="43.3840530" lon="-3.2238540">
        <ele>-14.4</ele>
        <time>2018-09-04T09:46:39Z</time>
      </trkpt>
      <trkpt lat="43.3840690" lon="-3.2239760">
        <ele>-14.2</ele>
        <time>2018-09-04T09:46:41Z</time>
      </trkpt>
      <trkpt lat="43.3841160" lon="-3.2241580">
        <ele>-14.4</ele>
        <time>2018-09-04T09:46:44Z</time>
      </trkpt>
      <trkpt lat="43.3841680" lon="-3.2242600">
        <ele>-14.2</ele>
        <time>2018-09-04T09:46:46Z</time>
      </trkpt>
      <trkpt lat="43.3842320" lon="-3.2243530">
        <ele>-13.8</ele>
        <time>2018-09-04T09:46:48Z</time>
      </trkpt>
      <trkpt lat="43.3844670" lon="-3.2246460">
        <ele>-13.8</ele>
        <time>2018-09-04T09:46:55Z</time>
      </trkpt>
      <trkpt lat="43.3847960" lon="-3.2250580">
        <ele>-13.6</ele>
        <time>2018-09-04T09:47:05Z</time>
      </trkpt>
      <trkpt lat="43.3848840" lon="-3.2251730">
        <ele>-14.0</ele>
        <time>2018-09-04T09:47:08Z</time>
      </trkpt>
      <trkpt lat="43.3849140" lon="-3.2251980">
        <ele>-14.0</ele>
        <time>2018-09-04T09:47:09Z</time>
      </trkpt>
      <trkpt lat="43.3849450" lon="-3.2252010">
        <ele>-13.8</ele>
        <time>2018-09-04T09:47:10Z</time>
      </trkpt>
      <trkpt lat="43.3850290" lon="-3.2251130">
        <ele>-13.6</ele>
        <time>2018-09-04T09:47:13Z</time>
      </trkpt>
      <trkpt lat="43.3851350" lon="-3.2251290">
        <ele>-14.0</ele>
        <time>2018-09-04T09:47:16Z</time>
      </trkpt>
      <trkpt lat="43.3851740" lon="-3.2251390">
        <ele>-13.8</ele>
        <time>2018-09-04T09:47:17Z</time>
      </trkpt>
      <trkpt lat="43.3854320" lon="-3.2252030">
        <ele>-13.6</ele>
        <time>2018-09-04T09:47:24Z</time>
      </trkpt>
      <trkpt lat="43.3855620" lon="-3.2252170">
        <ele>-13.8</ele>
        <time>2018-09-04T09:47:29Z</time>
      </trkpt>
      <trkpt lat="43.3856410" lon="-3.2251670">
        <ele>-13.6</ele>
        <time>2018-09-04T09:47:32Z</time>
      </trkpt>
      <trkpt lat="43.3857100" lon="-3.2252130">
        <ele>-14.0</ele>
        <time>2018-09-04T09:47:35Z</time>
      </trkpt>
      <trkpt lat="43.3857630" lon="-3.2252630">
        <ele>-14.0</ele>
        <time>2018-09-04T09:47:37Z</time>
      </trkpt>
      <trkpt lat="43.3859960" lon="-3.2254690">
        <ele>-14.0</ele>
        <time>2018-09-04T09:47:45Z</time>
      </trkpt>
      <trkpt lat="43.3860910" lon="-3.2255410">
        <ele>-13.8</ele>
        <time>2018-09-04T09:47:49Z</time>
      </trkpt>
      <trkpt lat="43.3861350" lon="-3.2255900">
        <ele>-13.8</ele>
        <time>2018-09-04T09:47:51Z</time>
      </trkpt>
      <trkpt lat="43.3862150" lon="-3.2256430">
        <ele>-13.8</ele>
        <time>2018-09-04T09:47:54Z</time>
      </trkpt>
      <trkpt lat="43.3862630" lon="-3.2257120">
        <ele>-14.4</ele>
        <time>2018-09-04T09:47:56Z</time>
      </trkpt>
      <trkpt lat="43.3864330" lon="-3.2259030">
        <ele>-14.2</ele>
        <time>2018-09-04T09:48:03Z</time>
      </trkpt>
      <trkpt lat="43.3864670" lon="-3.2259420">
        <ele>-14.0</ele>
        <time>2018-09-04T09:48:05Z</time>
      </trkpt>
      <trkpt lat="43.3865210" lon="-3.2260240">
        <ele>-14.2</ele>
        <time>2018-09-04T09:48:08Z</time>
      </trkpt>
      <trkpt lat="43.3865700" lon="-3.2261100">
        <ele>-14.4</ele>
        <time>2018-09-04T09:48:12Z</time>
      </trkpt>
      <trkpt lat="43.3866260" lon="-3.2262210">
        <ele>-14.4</ele>
        <time>2018-09-04T09:48:15Z</time>
      </trkpt>
      <trkpt lat="43.3866770" lon="-3.2263240">
        <ele>-13.8</ele>
        <time>2018-09-04T09:48:18Z</time>
      </trkpt>
      <trkpt lat="43.3867400" lon="-3.2263680">
        <ele>-14.0</ele>
        <time>2018-09-04T09:48:21Z</time>
      </trkpt>
      <trkpt lat="43.3867660" lon="-3.2263660">
        <ele>-13.8</ele>
        <time>2018-09-04T09:48:22Z</time>
      </trkpt>
      <trkpt lat="43.3869640" lon="-3.2263760">
        <ele>-14.0</ele>
        <time>2018-09-04T09:48:28Z</time>
      </trkpt>
      <trkpt lat="43.3871390" lon="-3.2264700">
        <ele>-14.6</ele>
        <time>2018-09-04T09:48:34Z</time>
      </trkpt>
      <trkpt lat="43.3871960" lon="-3.2265080">
        <ele>-14.6</ele>
        <time>2018-09-04T09:48:36Z</time>
      </trkpt>
      <trkpt lat="43.3873180" lon="-3.2266020">
        <ele>-14.6</ele>
        <time>2018-09-04T09:48:40Z</time>
      </trkpt>
      <trkpt lat="43.3875000" lon="-3.2268210">
        <ele>-14.4</ele>
        <time>2018-09-04T09:48:47Z</time>
      </trkpt>
      <trkpt lat="43.3875230" lon="-3.2268600">
        <ele>-14.6</ele>
        <time>2018-09-04T09:48:48Z</time>
      </trkpt>
      <trkpt lat="43.3877230" lon="-3.2272110">
        <ele>-14.4</ele>
        <time>2018-09-04T09:48:57Z</time>
      </trkpt>
      <trkpt lat="43.3878790" lon="-3.2273450">
        <ele>-14.4</ele>
        <time>2018-09-04T09:49:03Z</time>
      </trkpt>
      <trkpt lat="43.3880940" lon="-3.2273630">
        <ele>-14.6</ele>
        <time>2018-09-04T09:49:09Z</time>
      </trkpt>
      <trkpt lat="43.3883700" lon="-3.2273550">
        <ele>-14.8</ele>
        <time>2018-09-04T09:49:16Z</time>
      </trkpt>
      <trkpt lat="43.3885120" lon="-3.2273320">
        <ele>-14.8</ele>
        <time>2018-09-04T09:49:20Z</time>
      </trkpt>
      <trkpt lat="43.3886120" lon="-3.2273700">
        <ele>-14.6</ele>
        <time>2018-09-04T09:49:23Z</time>
      </trkpt>
      <trkpt lat="43.3886880" lon="-3.2274720">
        <ele>-14.4</ele>
        <time>2018-09-04T09:49:26Z</time>
      </trkpt>
      <trkpt lat="43.3887040" lon="-3.2275160">
        <ele>-14.4</ele>
        <time>2018-09-04T09:49:27Z</time>
      </trkpt>
      <trkpt lat="43.3888670" lon="-3.2278370">
        <ele>-14.6</ele>
        <time>2018-09-04T09:49:35Z</time>
      </trkpt>
      <trkpt lat="43.3889820" lon="-3.2279610">
        <ele>-14.4</ele>
        <time>2018-09-04T09:49:40Z</time>
      </trkpt>
      <trkpt lat="43.3891160" lon="-3.2279040">
        <ele>-14.0</ele>
        <time>2018-09-04T09:49:44Z</time>
      </trkpt>
      <trkpt lat="43.3892200" lon="-3.2278300">
        <ele>-14.2</ele>
        <time>2018-09-04T09:49:47Z</time>
      </trkpt>
      <trkpt lat="43.3892580" lon="-3.2277960">
        <ele>-14.2</ele>
        <time>2018-09-04T09:49:48Z</time>
      </trkpt>
      <trkpt lat="43.3893810" lon="-3.2276880">
        <ele>-14.8</ele>
        <time>2018-09-04T09:49:51Z</time>
      </trkpt>
      <trkpt lat="43.3894220" lon="-3.2276500">
        <ele>-15.6</ele>
        <time>2018-09-04T09:49:52Z</time>
      </trkpt>
      <trkpt lat="43.3895610" lon="-3.2275110">
        <ele>-16.2</ele>
        <time>2018-09-04T09:49:56Z</time>
      </trkpt>
      <trkpt lat="43.3895980" lon="-3.2274930">
        <ele>-16.2</ele>
        <time>2018-09-04T09:49:57Z</time>
      </trkpt>
      <trkpt lat="43.3897060" lon="-3.2275080">
        <ele>-14.6</ele>
        <time>2018-09-04T09:50:01Z</time>
      </trkpt>
      <trkpt lat="43.3897230" lon="-3.2275380">
        <ele>-14.2</ele>
        <time>2018-09-04T09:50:02Z</time>
      </trkpt>
      <trkpt lat="43.3897430" lon="-3.2276550">
        <ele>-14.4</ele>
        <time>2018-09-04T09:50:06Z</time>
      </trkpt>
      <trkpt lat="43.3897280" lon="-3.2277430">
        <ele>-14.2</ele>
        <time>2018-09-04T09:50:08Z</time>
      </trkpt>
      <trkpt lat="43.3896900" lon="-3.2278890">
        <ele>-14.2</ele>
        <time>2018-09-04T09:50:11Z</time>
      </trkpt>
      <trkpt lat="43.3896120" lon="-3.2281210">
        <ele>-13.6</ele>
        <time>2018-09-04T09:50:16Z</time>
      </trkpt>
      <trkpt lat="43.3895780" lon="-3.2282080">
        <ele>-13.2</ele>
        <time>2018-09-04T09:50:18Z</time>
      </trkpt>
      <trkpt lat="43.3895610" lon="-3.2282490">
        <ele>-13.0</ele>
        <time>2018-09-04T09:50:19Z</time>
      </trkpt>
      <trkpt lat="43.3895240" lon="-3.2283240">
        <ele>-12.6</ele>
        <time>2018-09-04T09:50:21Z</time>
      </trkpt>
      <trkpt lat="43.3894870" lon="-3.2283950">
        <ele>-12.0</ele>
        <time>2018-09-04T09:50:23Z</time>
      </trkpt>
      <trkpt lat="43.3894450" lon="-3.2284610">
        <ele>-11.6</ele>
        <time>2018-09-04T09:50:25Z</time>
      </trkpt>
      <trkpt lat="43.3894260" lon="-3.2284960">
        <ele>-11.4</ele>
        <time>2018-09-04T09:50:26Z</time>
      </trkpt>
      <trkpt lat="43.3894080" lon="-3.2285320">
        <ele>-11.0</ele>
        <time>2018-09-04T09:50:27Z</time>
      </trkpt>
      <trkpt lat="43.3893690" lon="-3.2285960">
        <ele>-10.6</ele>
        <time>2018-09-04T09:50:29Z</time>
      </trkpt>
      <trkpt lat="43.3893320" lon="-3.2286570">
        <ele>-10.0</ele>
        <time>2018-09-04T09:50:31Z</time>
      </trkpt>
      <trkpt lat="43.3892960" lon="-3.2287180">
        <ele>-9.4</ele>
        <time>2018-09-04T09:50:33Z</time>
      </trkpt>
      <trkpt lat="43.3892590" lon="-3.2287750">
        <ele>-9.0</ele>
        <time>2018-09-04T09:50:35Z</time>
      </trkpt>
      <trkpt lat="43.3892460" lon="-3.2288080">
        <ele>-8.8</ele>
        <time>2018-09-04T09:50:36Z</time>
      </trkpt>
      <trkpt lat="43.3891920" lon="-3.2289800">
        <ele>-8.6</ele>
        <time>2018-09-04T09:50:41Z</time>
      </trkpt>
      <trkpt lat="43.3891210" lon="-3.2290740">
        <ele>-7.6</ele>
        <time>2018-09-04T09:50:45Z</time>
      </trkpt>
      <trkpt lat="43.3890840" lon="-3.2291230">
        <ele>-7.4</ele>
        <time>2018-09-04T09:50:47Z</time>
      </trkpt>
      <trkpt lat="43.3889660" lon="-3.2292750">
        <ele>-6.6</ele>
        <time>2018-09-04T09:50:53Z</time>
      </trkpt>
      <trkpt lat="43.3889300" lon="-3.2293190">
        <ele>-6.4</ele>
        <time>2018-09-04T09:50:55Z</time>
      </trkpt>
      <trkpt lat="43.3888660" lon="-3.2294300">
        <ele>-6.0</ele>
        <time>2018-09-04T09:51:00Z</time>
      </trkpt>
      <trkpt lat="43.3888370" lon="-3.2294780">
        <ele>-5.4</ele>
        <time>2018-09-04T09:51:02Z</time>
      </trkpt>
      <trkpt lat="43.3887480" lon="-3.2295810">
        <ele>-4.2</ele>
        <time>2018-09-04T09:51:07Z</time>
      </trkpt>
      <trkpt lat="43.3887070" lon="-3.2296480">
        <ele>-3.6</ele>
        <time>2018-09-04T09:51:10Z</time>
      </trkpt>
      <trkpt lat="43.3887180" lon="-3.2297030">
        <ele>-3.2</ele>
        <time>2018-09-04T09:51:12Z</time>
      </trkpt>
      <trkpt lat="43.3887510" lon="-3.2297500">
        <ele>-2.8</ele>
        <time>2018-09-04T09:51:14Z</time>
      </trkpt>
      <trkpt lat="43.3888360" lon="-3.2298430">
        <ele>-2.8</ele>
        <time>2018-09-04T09:51:18Z</time>
      </trkpt>
      <trkpt lat="43.3890260" lon="-3.2300120">
        <ele>-2.2</ele>
        <time>2018-09-04T09:51:26Z</time>
      </trkpt>
      <trkpt lat="43.3890510" lon="-3.2300310">
        <ele>-2.0</ele>
        <time>2018-09-04T09:51:27Z</time>
      </trkpt>
      <trkpt lat="43.3891280" lon="-3.2300900">
        <ele>-1.6</ele>
        <time>2018-09-04T09:51:30Z</time>
      </trkpt>
      <trkpt lat="43.3891820" lon="-3.2301300">
        <ele>-1.4</ele>
        <time>2018-09-04T09:51:32Z</time>
      </trkpt>
      <trkpt lat="43.3892660" lon="-3.2301920">
        <ele>-1.0</ele>
        <time>2018-09-04T09:51:35Z</time>
      </trkpt>
      <trkpt lat="43.3892930" lon="-3.2302110">
        <ele>-1.0</ele>
        <time>2018-09-04T09:51:36Z</time>
      </trkpt>
      <trkpt lat="43.3894480" lon="-3.2303240">
        <ele>0.2</ele>
        <time>2018-09-04T09:51:42Z</time>
      </trkpt>
      <trkpt lat="43.3895110" lon="-3.2303790">
        <ele>0.4</ele>
        <time>2018-09-04T09:51:45Z</time>
      </trkpt>
      <trkpt lat="43.3896210" lon="-3.2304740">
        <ele>1.2</ele>
        <time>2018-09-04T09:51:50Z</time>
      </trkpt>
      <trkpt lat="43.3897390" lon="-3.2305470">
        <ele>2.2</ele>
        <time>2018-09-04T09:51:55Z</time>
      </trkpt>
      <trkpt lat="43.3897590" lon="-3.2305630">
        <ele>2.4</ele>
        <time>2018-09-04T09:51:56Z</time>
      </trkpt>
      <trkpt lat="43.3898650" lon="-3.2306450">
        <ele>3.0</ele>
        <time>2018-09-04T09:52:01Z</time>
      </trkpt>
      <trkpt lat="43.3899280" lon="-3.2307030">
        <ele>3.6</ele>
        <time>2018-09-04T09:52:04Z</time>
      </trkpt>
      <trkpt lat="43.3900360" lon="-3.2307840">
        <ele>3.8</ele>
        <time>2018-09-04T09:52:09Z</time>
      </trkpt>
      <trkpt lat="43.3901480" lon="-3.2308600">
        <ele>4.6</ele>
        <time>2018-09-04T09:52:14Z</time>
      </trkpt>
      <trkpt lat="43.3902140" lon="-3.2309130">
        <ele>4.6</ele>
        <time>2018-09-04T09:52:17Z</time>
      </trkpt>
      <trkpt lat="43.3902980" lon="-3.2309960">
        <ele>5.8</ele>
        <time>2018-09-04T09:52:21Z</time>
      </trkpt>
      <trkpt lat="43.3903900" lon="-3.2310630">
        <ele>6.4</ele>
        <time>2018-09-04T09:52:25Z</time>
      </trkpt>
      <trkpt lat="43.3904770" lon="-3.2311290">
        <ele>6.8</ele>
        <time>2018-09-04T09:52:29Z</time>
      </trkpt>
      <trkpt lat="43.3905910" lon="-3.2312080">
        <ele>7.0</ele>
        <time>2018-09-04T09:52:34Z</time>
      </trkpt>
      <trkpt lat="43.3906560" lon="-3.2312500">
        <ele>7.8</ele>
        <time>2018-09-04T09:52:37Z</time>
      </trkpt>
      <trkpt lat="43.3908160" lon="-3.2313390">
        <ele>8.8</ele>
        <time>2018-09-04T09:52:44Z</time>
      </trkpt>
      <trkpt lat="43.3909820" lon="-3.2314140">
        <ele>10.0</ele>
        <time>2018-09-04T09:52:51Z</time>
      </trkpt>
      <trkpt lat="43.3910030" lon="-3.2314230">
        <ele>10.0</ele>
        <time>2018-09-04T09:52:52Z</time>
      </trkpt>
      <trkpt lat="43.3911810" lon="-3.2314790">
        <ele>11.0</ele>
        <time>2018-09-04T09:53:00Z</time>
      </trkpt>
      <trkpt lat="43.3912020" lon="-3.2314790">
        <ele>11.4</ele>
        <time>2018-09-04T09:53:01Z</time>
      </trkpt>
      <trkpt lat="43.3912750" lon="-3.2314840">
        <ele>12.2</ele>
        <time>2018-09-04T09:53:04Z</time>
      </trkpt>
      <trkpt lat="43.3913950" lon="-3.2314550">
        <ele>12.4</ele>
        <time>2018-09-04T09:53:09Z</time>
      </trkpt>
      <trkpt lat="43.3914740" lon="-3.2314960">
        <ele>13.2</ele>
        <time>2018-09-04T09:53:13Z</time>
      </trkpt>
      <trkpt lat="43.3915110" lon="-3.2315080">
        <ele>13.6</ele>
        <time>2018-09-04T09:53:15Z</time>
      </trkpt>
      <trkpt lat="43.3916430" lon="-3.2315020">
        <ele>14.2</ele>
        <time>2018-09-04T09:53:21Z</time>
      </trkpt>
      <trkpt lat="43.3916670" lon="-3.2314990">
        <ele>14.2</ele>
        <time>2018-09-04T09:53:22Z</time>
      </trkpt>
      <trkpt lat="43.3917570" lon="-3.2314940">
        <ele>14.8</ele>
        <time>2018-09-04T09:53:26Z</time>
      </trkpt>
      <trkpt lat="43.3917740" lon="-3.2314760">
        <ele>15.0</ele>
        <time>2018-09-04T09:53:27Z</time>
      </trkpt>
      <trkpt lat="43.3917560" lon="-3.2314470">
        <ele>15.2</ele>
        <time>2018-09-04T09:53:30Z</time>
      </trkpt>
      <trkpt lat="43.3917340" lon="-3.2314460">
        <ele>15.2</ele>
        <time>2018-09-04T09:53:32Z</time>
      </trkpt>
      <trkpt lat="43.3916830" lon="-3.2314620">
        <ele>15.0</ele>
        <time>2018-09-04T09:54:24Z</time>
      </trkpt>
      <trkpt lat="43.3916750" lon="-3.2314830">
        <ele>14.8</ele>
        <time>2018-09-04T09:54:25Z</time>
      </trkpt>
      <trkpt lat="43.3916780" lon="-3.2315030">
        <ele>14.8</ele>
        <time>2018-09-04T09:54:26Z</time>
      </trkpt>
      <trkpt lat="43.3917210" lon="-3.2314970">
        <ele>14.4</ele>
        <time>2018-09-04T09:54:29Z</time>
      </trkpt>
      <trkpt lat="43.3917690" lon="-3.2314790">
        <ele>14.6</ele>
        <time>2018-09-04T09:54:33Z</time>
      </trkpt>
      <trkpt lat="43.3917740" lon="-3.2314680">
        <ele>14.6</ele>
        <time>2018-09-04T09:54:34Z</time>
      </trkpt>
      <trkpt lat="43.3917970" lon="-3.2314510">
        <ele>15.2</ele>
        <time>2018-09-04T09:54:36Z</time>
      </trkpt>
      <trkpt lat="43.3918560" lon="-3.2314570">
        <ele>15.4</ele>
        <time>2018-09-04T09:54:39Z</time>
      </trkpt>
      <trkpt lat="43.3920180" lon="-3.2314980">
        <ele>16.4</ele>
        <time>2018-09-04T09:54:47Z</time>
      </trkpt>
      <trkpt lat="43.3921190" lon="-3.2315010">
        <ele>16.8</ele>
        <time>2018-09-04T09:54:52Z</time>
      </trkpt>
      <trkpt lat="43.3921830" lon="-3.2314980">
        <ele>17.0</ele>
        <time>2018-09-04T09:54:55Z</time>
      </trkpt>
      <trkpt lat="43.3922410" lon="-3.2315030">
        <ele>17.6</ele>
        <time>2018-09-04T09:54:58Z</time>
      </trkpt>
      <trkpt lat="43.3923120" lon="-3.2315270">
        <ele>18.0</ele>
        <time>2018-09-04T09:55:02Z</time>
      </trkpt>
      <trkpt lat="43.3923530" lon="-3.2315360">
        <ele>17.4</ele>
        <time>2018-09-04T09:55:04Z</time>
      </trkpt>
      <trkpt lat="43.3924080" lon="-3.2315380">
        <ele>18.6</ele>
        <time>2018-09-04T09:55:07Z</time>
      </trkpt>
      <trkpt lat="43.3924950" lon="-3.2315650">
        <ele>19.2</ele>
        <time>2018-09-04T09:55:12Z</time>
      </trkpt>
      <trkpt lat="43.3925340" lon="-3.2315730">
        <ele>19.4</ele>
        <time>2018-09-04T09:55:14Z</time>
      </trkpt>
      <trkpt lat="43.3925900" lon="-3.2315930">
        <ele>19.6</ele>
        <time>2018-09-04T09:55:17Z</time>
      </trkpt>
      <trkpt lat="43.3926450" lon="-3.2316190">
        <ele>20.0</ele>
        <time>2018-09-04T09:55:20Z</time>
      </trkpt>
      <trkpt lat="43.3927700" lon="-3.2316830">
        <ele>20.8</ele>
        <time>2018-09-04T09:55:26Z</time>
      </trkpt>
      <trkpt lat="43.3927930" lon="-3.2316910">
        <ele>21.0</ele>
        <time>2018-09-04T09:55:27Z</time>
      </trkpt>
      <trkpt lat="43.3929190" lon="-3.2317740">
        <ele>21.8</ele>
        <time>2018-09-04T09:55:33Z</time>
      </trkpt>
      <trkpt lat="43.3929410" lon="-3.2317920">
        <ele>21.8</ele>
        <time>2018-09-04T09:55:34Z</time>
      </trkpt>
      <trkpt lat="43.3931090" lon="-3.2319420">
        <ele>22.6</ele>
        <time>2018-09-04T09:55:42Z</time>
      </trkpt>
      <trkpt lat="43.3932310" lon="-3.2320560">
        <ele>23.0</ele>
        <time>2018-09-04T09:55:47Z</time>
      </trkpt>
      <trkpt lat="43.3932560" lon="-3.2320810">
        <ele>23.2</ele>
        <time>2018-09-04T09:55:48Z</time>
      </trkpt>
      <trkpt lat="43.3934000" lon="-3.2322530">
        <ele>23.6</ele>
        <time>2018-09-04T09:55:55Z</time>
      </trkpt>
      <trkpt lat="43.3935330" lon="-3.2324370">
        <ele>23.8</ele>
        <time>2018-09-04T09:56:00Z</time>
      </trkpt>
      <trkpt lat="43.3936410" lon="-3.2325830">
        <ele>23.8</ele>
        <time>2018-09-04T09:56:04Z</time>
      </trkpt>
      <trkpt lat="43.3936660" lon="-3.2326200">
        <ele>24.6</ele>
        <time>2018-09-04T09:56:05Z</time>
      </trkpt>
      <trkpt lat="43.3937700" lon="-3.2327600">
        <ele>24.8</ele>
        <time>2018-09-04T09:56:09Z</time>
      </trkpt>
      <trkpt lat="43.3938950" lon="-3.2329290">
        <ele>25.6</ele>
        <time>2018-09-04T09:56:14Z</time>
      </trkpt>
      <trkpt lat="43.3940180" lon="-3.2331020">
        <ele>26.2</ele>
        <time>2018-09-04T09:56:19Z</time>
      </trkpt>
      <trkpt lat="43.3941020" lon="-3.2332090">
        <ele>26.6</ele>
        <time>2018-09-04T09:56:22Z</time>
      </trkpt>
      <trkpt lat="43.3941890" lon="-3.2333170">
        <ele>26.8</ele>
        <time>2018-09-04T09:56:25Z</time>
      </trkpt>
      <trkpt lat="43.3942880" lon="-3.2334600">
        <ele>27.2</ele>
        <time>2018-09-04T09:56:29Z</time>
      </trkpt>
      <trkpt lat="43.3943580" lon="-3.2335890">
        <ele>27.4</ele>
        <time>2018-09-04T09:56:32Z</time>
      </trkpt>
      <trkpt lat="43.3944530" lon="-3.2337630">
        <ele>27.8</ele>
        <time>2018-09-04T09:56:36Z</time>
      </trkpt>
      <trkpt lat="43.3944790" lon="-3.2338080">
        <ele>27.8</ele>
        <time>2018-09-04T09:56:37Z</time>
      </trkpt>
      <trkpt lat="43.3945560" lon="-3.2339470">
        <ele>27.4</ele>
        <time>2018-09-04T09:56:40Z</time>
      </trkpt>
      <trkpt lat="43.3946570" lon="-3.2341410">
        <ele>27.4</ele>
        <time>2018-09-04T09:56:44Z</time>
      </trkpt>
      <trkpt lat="43.3947240" lon="-3.2342780">
        <ele>27.4</ele>
        <time>2018-09-04T09:56:47Z</time>
      </trkpt>
      <trkpt lat="43.3947790" lon="-3.2344130">
        <ele>27.4</ele>
        <time>2018-09-04T09:56:50Z</time>
      </trkpt>
      <trkpt lat="43.3948720" lon="-3.2346160">
        <ele>26.8</ele>
        <time>2018-09-04T09:56:54Z</time>
      </trkpt>
      <trkpt lat="43.3950350" lon="-3.2349780">
        <ele>26.0</ele>
        <time>2018-09-04T09:56:59Z</time>
      </trkpt>
      <trkpt lat="43.3952030" lon="-3.2353690">
        <ele>25.6</ele>
        <time>2018-09-04T09:57:04Z</time>
      </trkpt>
      <trkpt lat="43.3953020" lon="-3.2356160">
        <ele>24.2</ele>
        <time>2018-09-04T09:57:07Z</time>
      </trkpt>
      <trkpt lat="43.3953680" lon="-3.2357790">
        <ele>23.6</ele>
        <time>2018-09-04T09:57:09Z</time>
      </trkpt>
      <trkpt lat="43.3955200" lon="-3.2361050">
        <ele>23.2</ele>
        <time>2018-09-04T09:57:13Z</time>
      </trkpt>
      <trkpt lat="43.3956950" lon="-3.2364210">
        <ele>23.8</ele>
        <time>2018-09-04T09:57:17Z</time>
      </trkpt>
      <trkpt lat="43.3957870" lon="-3.2365690">
        <ele>23.0</ele>
        <time>2018-09-04T09:57:19Z</time>
      </trkpt>
      <trkpt lat="43.3961050" lon="-3.2370690">
        <ele>22.6</ele>
        <time>2018-09-04T09:57:26Z</time>
      </trkpt>
      <trkpt lat="43.3961850" lon="-3.2372290">
        <ele>22.0</ele>
        <time>2018-09-04T09:57:28Z</time>
      </trkpt>
      <trkpt lat="43.3963570" lon="-3.2376370">
        <ele>21.4</ele>
        <time>2018-09-04T09:57:33Z</time>
      </trkpt>
      <trkpt lat="43.3963890" lon="-3.2377190">
        <ele>20.8</ele>
        <time>2018-09-04T09:57:34Z</time>
      </trkpt>
      <trkpt lat="43.3965300" lon="-3.2381590">
        <ele>19.6</ele>
        <time>2018-09-04T09:57:39Z</time>
      </trkpt>
      <trkpt lat="43.3965830" lon="-3.2383380">
        <ele>19.4</ele>
        <time>2018-09-04T09:57:41Z</time>
      </trkpt>
      <trkpt lat="43.3966920" lon="-3.2386940">
        <ele>18.6</ele>
        <time>2018-09-04T09:57:45Z</time>
      </trkpt>
      <trkpt lat="43.3968270" lon="-3.2391510">
        <ele>17.4</ele>
        <time>2018-09-04T09:57:50Z</time>
      </trkpt>
      <trkpt lat="43.3968730" lon="-3.2393350">
        <ele>17.2</ele>
        <time>2018-09-04T09:57:52Z</time>
      </trkpt>
      <trkpt lat="43.3969540" lon="-3.2396000">
        <ele>16.4</ele>
        <time>2018-09-04T09:57:55Z</time>
      </trkpt>
      <trkpt lat="43.3970300" lon="-3.2398470">
        <ele>16.2</ele>
        <time>2018-09-04T09:57:58Z</time>
      </trkpt>
      <trkpt lat="43.3971710" lon="-3.2403070">
        <ele>15.2</ele>
        <time>2018-09-04T09:58:04Z</time>
      </trkpt>
      <trkpt lat="43.3972160" lon="-3.2404490">
        <ele>15.2</ele>
        <time>2018-09-04T09:58:06Z</time>
      </trkpt>
      <trkpt lat="43.3973450" lon="-3.2408820">
        <ele>15.4</ele>
        <time>2018-09-04T09:58:13Z</time>
      </trkpt>
      <trkpt lat="43.3973900" lon="-3.2410460">
        <ele>15.4</ele>
        <time>2018-09-04T09:58:16Z</time>
      </trkpt>
      <trkpt lat="43.3974160" lon="-3.2411510">
        <ele>15.2</ele>
        <time>2018-09-04T09:58:18Z</time>
      </trkpt>
      <trkpt lat="43.3974430" lon="-3.2412510">
        <ele>15.2</ele>
        <time>2018-09-04T09:58:20Z</time>
      </trkpt>
      <trkpt lat="43.3975530" lon="-3.2417480">
        <ele>15.8</ele>
        <time>2018-09-04T09:58:29Z</time>
      </trkpt>
      <trkpt lat="43.3975670" lon="-3.2418000">
        <ele>15.6</ele>
        <time>2018-09-04T09:58:30Z</time>
      </trkpt>
      <trkpt lat="43.3975900" lon="-3.2419030">
        <ele>15.6</ele>
        <time>2018-09-04T09:58:32Z</time>
      </trkpt>
      <trkpt lat="43.3976280" lon="-3.2421080">
        <ele>15.8</ele>
        <time>2018-09-04T09:58:36Z</time>
      </trkpt>
      <trkpt lat="43.3976500" lon="-3.2422630">
        <ele>16.4</ele>
        <time>2018-09-04T09:58:39Z</time>
      </trkpt>
      <trkpt lat="43.3976690" lon="-3.2423540">
        <ele>16.2</ele>
        <time>2018-09-04T09:58:41Z</time>
      </trkpt>
      <trkpt lat="43.3977020" lon="-3.2425330">
        <ele>16.4</ele>
        <time>2018-09-04T09:58:45Z</time>
      </trkpt>
      <trkpt lat="43.3977190" lon="-3.2428540">
        <ele>16.6</ele>
        <time>2018-09-04T09:58:52Z</time>
      </trkpt>
      <trkpt lat="43.3977500" lon="-3.2430120">
        <ele>16.8</ele>
        <time>2018-09-04T09:58:56Z</time>
      </trkpt>
      <trkpt lat="43.3977560" lon="-3.2430560">
        <ele>16.8</ele>
        <time>2018-09-04T09:58:57Z</time>
      </trkpt>
      <trkpt lat="43.3977650" lon="-3.2431970">
        <ele>16.6</ele>
        <time>2018-09-04T09:59:00Z</time>
      </trkpt>
      <trkpt lat="43.3977670" lon="-3.2433440">
        <ele>16.0</ele>
        <time>2018-09-04T09:59:03Z</time>
      </trkpt>
      <trkpt lat="43.3977680" lon="-3.2435400">
        <ele>16.0</ele>
        <time>2018-09-04T09:59:08Z</time>
      </trkpt>
      <trkpt lat="43.3977240" lon="-3.2434740">
        <ele>15.6</ele>
        <time>2018-09-04T09:59:10Z</time>
      </trkpt>
      <trkpt lat="43.3977110" lon="-3.2433250">
        <ele>16.2</ele>
        <time>2018-09-04T09:59:13Z</time>
      </trkpt>
      <trkpt lat="43.3977070" lon="-3.2432780">
        <ele>16.0</ele>
        <time>2018-09-04T09:59:14Z</time>
      </trkpt>
      <trkpt lat="43.3977000" lon="-3.2431130">
        <ele>16.4</ele>
        <time>2018-09-04T09:59:19Z</time>
      </trkpt>
      <trkpt lat="43.3977050" lon="-3.2430840">
        <ele>16.4</ele>
        <time>2018-09-04T09:59:20Z</time>
      </trkpt>
      <trkpt lat="43.3977550" lon="-3.2430810">
        <ele>16.4</ele>
        <time>2018-09-04T09:59:22Z</time>
      </trkpt>
      <trkpt lat="43.3977760" lon="-3.2431980">
        <ele>16.2</ele>
        <time>2018-09-04T09:59:24Z</time>
      </trkpt>
      <trkpt lat="43.3977800" lon="-3.2432740">
        <ele>15.6</ele>
        <time>2018-09-04T09:59:25Z</time>
      </trkpt>
      <trkpt lat="43.3977860" lon="-3.2433530">
        <ele>15.2</ele>
        <time>2018-09-04T09:59:26Z</time>
      </trkpt>
      <trkpt lat="43.3977930" lon="-3.2434380">
        <ele>15.0</ele>
        <time>2018-09-04T09:59:27Z</time>
      </trkpt>
      <trkpt lat="43.3978020" lon="-3.2435210">
        <ele>15.2</ele>
        <time>2018-09-04T09:59:28Z</time>
      </trkpt>
      <trkpt lat="43.3978080" lon="-3.2436060">
        <ele>16.0</ele>
        <time>2018-09-04T09:59:29Z</time>
      </trkpt>
      <trkpt lat="43.3978110" lon="-3.2436950">
        <ele>16.0</ele>
        <time>2018-09-04T09:59:30Z</time>
      </trkpt>
      <trkpt lat="43.3978190" lon="-3.2438760">
        <ele>15.8</ele>
        <time>2018-09-04T09:59:32Z</time>
      </trkpt>
      <trkpt lat="43.3978320" lon="-3.2440630">
        <ele>15.8</ele>
        <time>2018-09-04T09:59:34Z</time>
      </trkpt>
      <trkpt lat="43.3978350" lon="-3.2441590">
        <ele>16.0</ele>
        <time>2018-09-04T09:59:35Z</time>
      </trkpt>
      <trkpt lat="43.3978820" lon="-3.2449260">
        <ele>15.0</ele>
        <time>2018-09-04T09:59:43Z</time>
      </trkpt>
      <trkpt lat="43.3979050" lon="-3.2453080">
        <ele>14.4</ele>
        <time>2018-09-04T09:59:47Z</time>
      </trkpt>
      <trkpt lat="43.3979220" lon="-3.2455900">
        <ele>14.6</ele>
        <time>2018-09-04T09:59:50Z</time>
      </trkpt>
      <trkpt lat="43.3979340" lon="-3.2458740">
        <ele>13.6</ele>
        <time>2018-09-04T09:59:53Z</time>
      </trkpt>
      <trkpt lat="43.3979940" lon="-3.2466180">
        <ele>12.8</ele>
        <time>2018-09-04T10:00:01Z</time>
      </trkpt>
      <trkpt lat="43.3980040" lon="-3.2467100">
        <ele>13.0</ele>
        <time>2018-09-04T10:00:02Z</time>
      </trkpt>
      <trkpt lat="43.3981010" lon="-3.2473130">
        <ele>13.2</ele>
        <time>2018-09-04T10:00:09Z</time>
      </trkpt>
      <trkpt lat="43.3981870" lon="-3.2477690">
        <ele>14.6</ele>
        <time>2018-09-04T10:00:15Z</time>
      </trkpt>
      <trkpt lat="43.3982130" lon="-3.2479090">
        <ele>15.4</ele>
        <time>2018-09-04T10:00:17Z</time>
      </trkpt>
      <trkpt lat="43.3982710" lon="-3.2482170">
        <ele>16.0</ele>
        <time>2018-09-04T10:00:22Z</time>
      </trkpt>
      <trkpt lat="43.3982950" lon="-3.2483280">
        <ele>16.2</ele>
        <time>2018-09-04T10:00:24Z</time>
      </trkpt>
      <trkpt lat="43.3983150" lon="-3.2484350">
        <ele>16.6</ele>
        <time>2018-09-04T10:00:26Z</time>
      </trkpt>
      <trkpt lat="43.3983350" lon="-3.2485370">
        <ele>17.2</ele>
        <time>2018-09-04T10:00:28Z</time>
      </trkpt>
      <trkpt lat="43.3983630" lon="-3.2486760">
        <ele>17.8</ele>
        <time>2018-09-04T10:00:31Z</time>
      </trkpt>
      <trkpt lat="43.3983720" lon="-3.2487230">
        <ele>18.4</ele>
        <time>2018-09-04T10:00:32Z</time>
      </trkpt>
      <trkpt lat="43.3984220" lon="-3.2489880">
        <ele>19.4</ele>
        <time>2018-09-04T10:00:38Z</time>
      </trkpt>
      <trkpt lat="43.3984310" lon="-3.2490300">
        <ele>19.6</ele>
        <time>2018-09-04T10:00:39Z</time>
      </trkpt>
      <trkpt lat="43.3984530" lon="-3.2491550">
        <ele>20.4</ele>
        <time>2018-09-04T10:00:42Z</time>
      </trkpt>
      <trkpt lat="43.3984610" lon="-3.2491980">
        <ele>20.4</ele>
        <time>2018-09-04T10:00:43Z</time>
      </trkpt>
      <trkpt lat="43.3985010" lon="-3.2493700">
        <ele>21.2</ele>
        <time>2018-09-04T10:00:47Z</time>
      </trkpt>
      <trkpt lat="43.3985150" lon="-3.2494130">
        <ele>21.6</ele>
        <time>2018-09-04T10:00:48Z</time>
      </trkpt>
      <trkpt lat="43.3985590" lon="-3.2495970">
        <ele>22.6</ele>
        <time>2018-09-04T10:00:52Z</time>
      </trkpt>
      <trkpt lat="43.3985950" lon="-3.2497250">
        <ele>23.2</ele>
        <time>2018-09-04T10:00:55Z</time>
      </trkpt>
      <trkpt lat="43.3986290" lon="-3.2498500">
        <ele>23.8</ele>
        <time>2018-09-04T10:00:58Z</time>
      </trkpt>
      <trkpt lat="43.3986760" lon="-3.2499830">
        <ele>24.2</ele>
        <time>2018-09-04T10:01:01Z</time>
      </trkpt>
      <trkpt lat="43.3987090" lon="-3.2500680">
        <ele>24.8</ele>
        <time>2018-09-04T10:01:03Z</time>
      </trkpt>
      <trkpt lat="43.3987720" lon="-3.2502430">
        <ele>25.8</ele>
        <time>2018-09-04T10:01:07Z</time>
      </trkpt>
      <trkpt lat="43.3987870" lon="-3.2502860">
        <ele>25.8</ele>
        <time>2018-09-04T10:01:08Z</time>
      </trkpt>
      <trkpt lat="43.3988910" lon="-3.2505440">
        <ele>26.6</ele>
        <time>2018-09-04T10:01:14Z</time>
      </trkpt>
      <trkpt lat="43.3989210" lon="-3.2506300">
        <ele>26.8</ele>
        <time>2018-09-04T10:01:16Z</time>
      </trkpt>
      <trkpt lat="43.3989360" lon="-3.2506690">
        <ele>27.0</ele>
        <time>2018-09-04T10:01:17Z</time>
      </trkpt>
      <trkpt lat="43.3990400" lon="-3.2508640">
        <ele>27.6</ele>
        <time>2018-09-04T10:01:22Z</time>
      </trkpt>
      <trkpt lat="43.3990580" lon="-3.2509050">
        <ele>28.0</ele>
        <time>2018-09-04T10:01:23Z</time>
      </trkpt>
      <trkpt lat="43.3991480" lon="-3.2511220">
        <ele>28.4</ele>
        <time>2018-09-04T10:01:28Z</time>
      </trkpt>
      <trkpt lat="43.3992080" lon="-3.2512680">
        <ele>29.2</ele>
        <time>2018-09-04T10:01:31Z</time>
      </trkpt>
      <trkpt lat="43.3992790" lon="-3.2514620">
        <ele>30.2</ele>
        <time>2018-09-04T10:01:35Z</time>
      </trkpt>
      <trkpt lat="43.3992940" lon="-3.2515130">
        <ele>30.4</ele>
        <time>2018-09-04T10:01:36Z</time>
      </trkpt>
      <trkpt lat="43.3994540" lon="-3.2520090">
        <ele>30.2</ele>
        <time>2018-09-04T10:01:45Z</time>
      </trkpt>
      <trkpt lat="43.3995600" lon="-3.2523610">
        <ele>31.4</ele>
        <time>2018-09-04T10:01:52Z</time>
      </trkpt>
      <trkpt lat="43.3995750" lon="-3.2524060">
        <ele>31.2</ele>
        <time>2018-09-04T10:01:53Z</time>
      </trkpt>
      <trkpt lat="43.3995970" lon="-3.2524940">
        <ele>31.2</ele>
        <time>2018-09-04T10:01:55Z</time>
      </trkpt>
      <trkpt lat="43.3996270" lon="-3.2526130">
        <ele>31.0</ele>
        <time>2018-09-04T10:01:58Z</time>
      </trkpt>
      <trkpt lat="43.3996590" lon="-3.2527030">
        <ele>31.2</ele>
        <time>2018-09-04T10:02:01Z</time>
      </trkpt>
      <trkpt lat="43.3996810" lon="-3.2527740">
        <ele>31.4</ele>
        <time>2018-09-04T10:02:04Z</time>
      </trkpt>
      <trkpt lat="43.3996900" lon="-3.2528170">
        <ele>31.6</ele>
        <time>2018-09-04T10:02:06Z</time>
      </trkpt>
      <trkpt lat="43.3996790" lon="-3.2528530">
        <ele>31.4</ele>
        <time>2018-09-04T10:02:07Z</time>
      </trkpt>
      <trkpt lat="43.3996450" lon="-3.2528590">
        <ele>31.4</ele>
        <time>2018-09-04T10:02:08Z</time>
      </trkpt>
      <trkpt lat="43.3995990" lon="-3.2527670">
        <ele>31.4</ele>
        <time>2018-09-04T10:02:10Z</time>
      </trkpt>
      <trkpt lat="43.3995620" lon="-3.2526550">
        <ele>31.4</ele>
        <time>2018-09-04T10:02:12Z</time>
      </trkpt>
      <trkpt lat="43.3994850" lon="-3.2524110">
        <ele>31.6</ele>
        <time>2018-09-04T10:02:16Z</time>
      </trkpt>
      <trkpt lat="43.3994480" lon="-3.2522910">
        <ele>31.0</ele>
        <time>2018-09-04T10:02:18Z</time>
      </trkpt>
      <trkpt lat="43.3994440" lon="-3.2522280">
        <ele>30.8</ele>
        <time>2018-09-04T10:02:19Z</time>
      </trkpt>
      <trkpt lat="43.3994590" lon="-3.2521230">
        <ele>30.8</ele>
        <time>2018-09-04T10:02:21Z</time>
      </trkpt>
      <trkpt lat="43.3995600" lon="-3.2521180">
        <ele>30.8</ele>
        <time>2018-09-04T10:02:24Z</time>
      </trkpt>
      <trkpt lat="43.3995940" lon="-3.2521570">
        <ele>30.6</ele>
        <time>2018-09-04T10:02:25Z</time>
      </trkpt>
      <trkpt lat="43.3996220" lon="-3.2522110">
        <ele>30.2</ele>
        <time>2018-09-04T10:02:26Z</time>
      </trkpt>
      <trkpt lat="43.3996510" lon="-3.2522560">
        <ele>30.2</ele>
        <time>2018-09-04T10:02:27Z</time>
      </trkpt>
      <trkpt lat="43.3997500" lon="-3.2524130">
        <ele>30.2</ele>
        <time>2018-09-04T10:02:30Z</time>
      </trkpt>
      <trkpt lat="43.3998050" lon="-3.2525430">
        <ele>29.8</ele>
        <time>2018-09-04T10:02:32Z</time>
      </trkpt>
      <trkpt lat="43.3998490" lon="-3.2526820">
        <ele>29.4</ele>
        <time>2018-09-04T10:02:34Z</time>
      </trkpt>
      <trkpt lat="43.3998720" lon="-3.2527510">
        <ele>29.2</ele>
        <time>2018-09-04T10:02:35Z</time>
      </trkpt>
      <trkpt lat="43.3999260" lon="-3.2529770">
        <ele>28.8</ele>
        <time>2018-09-04T10:02:38Z</time>
      </trkpt>
      <trkpt lat="43.3999670" lon="-3.2531240">
        <ele>28.2</ele>
        <time>2018-09-04T10:02:40Z</time>
      </trkpt>
      <trkpt lat="43.3999890" lon="-3.2531960">
        <ele>28.2</ele>
        <time>2018-09-04T10:02:41Z</time>
      </trkpt>
      <trkpt lat="43.4000930" lon="-3.2535200">
        <ele>29.2</ele>
        <time>2018-09-04T10:02:46Z</time>
      </trkpt>
      <trkpt lat="43.4001440" lon="-3.2537100">
        <ele>28.2</ele>
        <time>2018-09-04T10:02:49Z</time>
      </trkpt>
      <trkpt lat="43.4001640" lon="-3.2538290">
        <ele>28.2</ele>
        <time>2018-09-04T10:02:51Z</time>
      </trkpt>
      <trkpt lat="43.4001860" lon="-3.2539340">
        <ele>28.6</ele>
        <time>2018-09-04T10:02:53Z</time>
      </trkpt>
      <trkpt lat="43.4002120" lon="-3.2540430">
        <ele>28.4</ele>
        <time>2018-09-04T10:02:55Z</time>
      </trkpt>
      <trkpt lat="43.4002920" lon="-3.2542890">
        <ele>29.2</ele>
        <time>2018-09-04T10:03:00Z</time>
      </trkpt>
      <trkpt lat="43.4003500" lon="-3.2545580">
        <ele>28.8</ele>
        <time>2018-09-04T10:03:04Z</time>
      </trkpt>
      <trkpt lat="43.4003730" lon="-3.2547810">
        <ele>28.0</ele>
        <time>2018-09-04T10:03:07Z</time>
      </trkpt>
      <trkpt lat="43.4003740" lon="-3.2549850">
        <ele>27.4</ele>
        <time>2018-09-04T10:03:10Z</time>
      </trkpt>
      <trkpt lat="43.4003660" lon="-3.2552690">
        <ele>27.2</ele>
        <time>2018-09-04T10:03:15Z</time>
      </trkpt>
      <trkpt lat="43.4003670" lon="-3.2553290">
        <ele>26.8</ele>
        <time>2018-09-04T10:03:16Z</time>
      </trkpt>
      <trkpt lat="43.4003630" lon="-3.2553820">
        <ele>26.4</ele>
        <time>2018-09-04T10:03:17Z</time>
      </trkpt>
      <trkpt lat="43.4003510" lon="-3.2555150">
        <ele>26.4</ele>
        <time>2018-09-04T10:03:20Z</time>
      </trkpt>
      <trkpt lat="43.4003600" lon="-3.2557580">
        <ele>25.4</ele>
        <time>2018-09-04T10:03:25Z</time>
      </trkpt>
      <trkpt lat="43.4003610" lon="-3.2558040">
        <ele>25.4</ele>
        <time>2018-09-04T10:03:26Z</time>
      </trkpt>
      <trkpt lat="43.4003820" lon="-3.2560450">
        <ele>24.4</ele>
        <time>2018-09-04T10:03:31Z</time>
      </trkpt>
      <trkpt lat="43.4003940" lon="-3.2561300">
        <ele>24.0</ele>
        <time>2018-09-04T10:03:33Z</time>
      </trkpt>
      <trkpt lat="43.4004050" lon="-3.2563360">
        <ele>23.2</ele>
        <time>2018-09-04T10:03:37Z</time>
      </trkpt>
      <trkpt lat="43.4004010" lon="-3.2563940">
        <ele>23.2</ele>
        <time>2018-09-04T10:03:38Z</time>
      </trkpt>
      <trkpt lat="43.4003970" lon="-3.2565710">
        <ele>22.6</ele>
        <time>2018-09-04T10:03:41Z</time>
      </trkpt>
      <trkpt lat="43.4004190" lon="-3.2568480">
        <ele>22.8</ele>
        <time>2018-09-04T10:03:46Z</time>
      </trkpt>
      <trkpt lat="43.4004430" lon="-3.2571270">
        <ele>23.0</ele>
        <time>2018-09-04T10:03:52Z</time>
      </trkpt>
      <trkpt lat="43.4004800" lon="-3.2574170">
        <ele>23.6</ele>
        <time>2018-09-04T10:03:59Z</time>
      </trkpt>
      <trkpt lat="43.4005020" lon="-3.2575780">
        <ele>23.6</ele>
        <time>2018-09-04T10:04:02Z</time>
      </trkpt>
      <trkpt lat="43.4005110" lon="-3.2577120">
        <ele>24.0</ele>
        <time>2018-09-04T10:04:05Z</time>
      </trkpt>
      <trkpt lat="43.4005130" lon="-3.2577670">
        <ele>24.4</ele>
        <time>2018-09-04T10:04:07Z</time>
      </trkpt>
      <trkpt lat="43.4005120" lon="-3.2577640">
        <ele>24.6</ele>
        <time>2018-09-04T10:04:09Z</time>
      </trkpt>
      <trkpt lat="43.4005110" lon="-3.2578330">
        <ele>25.0</ele>
        <time>2018-09-04T10:05:17Z</time>
      </trkpt>
      <trkpt lat="43.4005130" lon="-3.2578660">
        <ele>25.0</ele>
        <time>2018-09-04T10:05:18Z</time>
      </trkpt>
      <trkpt lat="43.4005190" lon="-3.2579030">
        <ele>25.0</ele>
        <time>2018-09-04T10:05:19Z</time>
      </trkpt>
      <trkpt lat="43.4005130" lon="-3.2580440">
        <ele>25.2</ele>
        <time>2018-09-04T10:05:22Z</time>
      </trkpt>
      <trkpt lat="43.4005090" lon="-3.2580980">
        <ele>25.4</ele>
        <time>2018-09-04T10:05:23Z</time>
      </trkpt>
      <trkpt lat="43.4005050" lon="-3.2581550">
        <ele>25.6</ele>
        <time>2018-09-04T10:05:24Z</time>
      </trkpt>
      <trkpt lat="43.4004950" lon="-3.2582490">
        <ele>26.4</ele>
        <time>2018-09-04T10:05:26Z</time>
      </trkpt>
      <trkpt lat="43.4004990" lon="-3.2583360">
        <ele>27.0</ele>
        <time>2018-09-04T10:05:28Z</time>
      </trkpt>
      <trkpt lat="43.4005020" lon="-3.2583820">
        <ele>27.2</ele>
        <time>2018-09-04T10:05:29Z</time>
      </trkpt>
      <trkpt lat="43.4005100" lon="-3.2584280">
        <ele>27.4</ele>
        <time>2018-09-04T10:05:30Z</time>
      </trkpt>
      <trkpt lat="43.4005310" lon="-3.2586590">
        <ele>27.8</ele>
        <time>2018-09-04T10:05:35Z</time>
      </trkpt>
      <trkpt lat="43.4005370" lon="-3.2586970">
        <ele>28.0</ele>
        <time>2018-09-04T10:05:36Z</time>
      </trkpt>
      <trkpt lat="43.4005440" lon="-3.2589300">
        <ele>28.2</ele>
        <time>2018-09-04T10:05:41Z</time>
      </trkpt>
      <trkpt lat="43.4005560" lon="-3.2590920">
        <ele>27.6</ele>
        <time>2018-09-04T10:05:44Z</time>
      </trkpt>
      <trkpt lat="43.4005780" lon="-3.2592070">
        <ele>27.8</ele>
        <time>2018-09-04T10:05:46Z</time>
      </trkpt>
      <trkpt lat="43.4005940" lon="-3.2592670">
        <ele>27.6</ele>
        <time>2018-09-04T10:05:47Z</time>
      </trkpt>
      <trkpt lat="43.4006190" lon="-3.2593650">
        <ele>27.4</ele>
        <time>2018-09-04T10:05:49Z</time>
      </trkpt>
      <trkpt lat="43.4006460" lon="-3.2594110">
        <ele>27.8</ele>
        <time>2018-09-04T10:05:51Z</time>
      </trkpt>
      <trkpt lat="43.4007000" lon="-3.2593990">
        <ele>28.0</ele>
        <time>2018-09-04T10:05:54Z</time>
      </trkpt>
      <trkpt lat="43.4007380" lon="-3.2594150">
        <ele>28.2</ele>
        <time>2018-09-04T10:05:56Z</time>
      </trkpt>
      <trkpt lat="43.4007500" lon="-3.2594520">
        <ele>28.4</ele>
        <time>2018-09-04T10:05:59Z</time>
      </trkpt>
      <trkpt lat="43.4007530" lon="-3.2594660">
        <ele>28.6</ele>
        <time>2018-09-04T10:06:00Z</time>
      </trkpt>
      <trkpt lat="43.4007730" lon="-3.2594960">
        <ele>29.2</ele>
        <time>2018-09-04T10:06:03Z</time>
      </trkpt>
      <trkpt lat="43.4007920" lon="-3.2595460">
        <ele>29.4</ele>
        <time>2018-09-04T10:06:07Z</time>
      </trkpt>
      <trkpt lat="43.4007900" lon="-3.2595560">
        <ele>29.6</ele>
        <time>2018-09-04T10:06:08Z</time>
      </trkpt>
      <trkpt lat="43.4007920" lon="-3.2596720">
        <ele>30.6</ele>
        <time>2018-09-04T10:06:30Z</time>
      </trkpt>
      <trkpt lat="43.4007950" lon="-3.2596850">
        <ele>30.6</ele>
        <time>2018-09-04T10:06:31Z</time>
      </trkpt>
      <trkpt lat="43.4008000" lon="-3.2597010">
        <ele>30.6</ele>
        <time>2018-09-04T10:06:32Z</time>
      </trkpt>
      <trkpt lat="43.4007960" lon="-3.2597260">
        <ele>30.6</ele>
        <time>2018-09-04T10:06:34Z</time>
      </trkpt>
      <trkpt lat="43.4008060" lon="-3.2597720">
        <ele>30.8</ele>
        <time>2018-09-04T10:06:37Z</time>
      </trkpt>
      <trkpt lat="43.4008100" lon="-3.2598080">
        <ele>31.2</ele>
        <time>2018-09-04T10:06:40Z</time>
      </trkpt>
      <trkpt lat="43.4008080" lon="-3.2598110">
        <ele>31.8</ele>
        <time>2018-09-04T10:06:42Z</time>
      </trkpt>
      <trkpt lat="43.4008890" lon="-3.2599830">
        <ele>33.4</ele>
        <time>2018-09-04T10:07:43Z</time>
      </trkpt>
      <trkpt lat="43.4008940" lon="-3.2600020">
        <ele>33.4</ele>
        <time>2018-09-04T10:07:44Z</time>
      </trkpt>
      <trkpt lat="43.4008970" lon="-3.2600240">
        <ele>33.4</ele>
        <time>2018-09-04T10:07:46Z</time>
      </trkpt>
      <trkpt lat="43.4009180" lon="-3.2600490">
        <ele>33.4</ele>
        <time>2018-09-04T10:07:48Z</time>
      </trkpt>
      <trkpt lat="43.4009510" lon="-3.2600780">
        <ele>33.4</ele>
        <time>2018-09-04T10:07:50Z</time>
      </trkpt>
      <trkpt lat="43.4009730" lon="-3.2600950">
        <ele>33.4</ele>
        <time>2018-09-04T10:07:51Z</time>
      </trkpt>
      <trkpt lat="43.4010730" lon="-3.2601460">
        <ele>33.6</ele>
        <time>2018-09-04T10:07:56Z</time>
      </trkpt>
      <trkpt lat="43.4011190" lon="-3.2600750">
        <ele>34.4</ele>
        <time>2018-09-04T10:08:00Z</time>
      </trkpt>
      <trkpt lat="43.4011240" lon="-3.2600550">
        <ele>34.6</ele>
        <time>2018-09-04T10:08:01Z</time>
      </trkpt>
      <trkpt lat="43.4011440" lon="-3.2599640">
        <ele>35.2</ele>
        <time>2018-09-04T10:08:05Z</time>
      </trkpt>
      <trkpt lat="43.4012120" lon="-3.2599490">
        <ele>34.8</ele>
        <time>2018-09-04T10:08:10Z</time>
      </trkpt>
      <trkpt lat="43.4012270" lon="-3.2599560">
        <ele>35.4</ele>
        <time>2018-09-04T10:08:13Z</time>
      </trkpt>
      <trkpt lat="43.4013200" lon="-3.2599370">
        <ele>34.4</ele>
        <time>2018-09-04T10:08:18Z</time>
      </trkpt>
      <trkpt lat="43.4013490" lon="-3.2599370">
        <ele>34.2</ele>
        <time>2018-09-04T10:08:19Z</time>
      </trkpt>
      <trkpt lat="43.4014140" lon="-3.2600010">
        <ele>33.4</ele>
        <time>2018-09-04T10:08:21Z</time>
      </trkpt>
      <trkpt lat="43.4014300" lon="-3.2600420">
        <ele>33.4</ele>
        <time>2018-09-04T10:08:22Z</time>
      </trkpt>
      <trkpt lat="43.4014440" lon="-3.2601530">
        <ele>33.8</ele>
        <time>2018-09-04T10:08:25Z</time>
      </trkpt>
      <trkpt lat="43.4014520" lon="-3.2601790">
        <ele>34.0</ele>
        <time>2018-09-04T10:08:26Z</time>
      </trkpt>
      <trkpt lat="43.4015250" lon="-3.2603150">
        <ele>33.6</ele>
        <time>2018-09-04T10:08:32Z</time>
      </trkpt>
      <trkpt lat="43.4015620" lon="-3.2604760">
        <ele>32.8</ele>
        <time>2018-09-04T10:08:36Z</time>
      </trkpt>
      <trkpt lat="43.4015810" lon="-3.2606410">
        <ele>32.8</ele>
        <time>2018-09-04T10:08:40Z</time>
      </trkpt>
      <trkpt lat="43.4015770" lon="-3.2606880">
        <ele>32.6</ele>
        <time>2018-09-04T10:08:42Z</time>
      </trkpt>
      <trkpt lat="43.4014980" lon="-3.2608010">
        <ele>33.4</ele>
        <time>2018-09-04T10:09:50Z</time>
      </trkpt>
      <trkpt lat="43.4014800" lon="-3.2608210">
        <ele>33.4</ele>
        <time>2018-09-04T10:09:51Z</time>
      </trkpt>
      <trkpt lat="43.4014400" lon="-3.2608780">
        <ele>33.8</ele>
        <time>2018-09-04T10:09:54Z</time>
      </trkpt>
      <trkpt lat="43.4014210" lon="-3.2609000">
        <ele>34.4</ele>
        <time>2018-09-04T10:09:56Z</time>
      </trkpt>
      <trkpt lat="43.4014140" lon="-3.2609110">
        <ele>34.4</ele>
        <time>2018-09-04T10:09:57Z</time>
      </trkpt>
      <trkpt lat="43.4014000" lon="-3.2609480">
        <ele>34.6</ele>
        <time>2018-09-04T10:09:59Z</time>
      </trkpt>
      <trkpt lat="43.4014460" lon="-3.2610280">
        <ele>34.4</ele>
        <time>2018-09-04T10:10:02Z</time>
      </trkpt>
      <trkpt lat="43.4015080" lon="-3.2611400">
        <ele>33.4</ele>
        <time>2018-09-04T10:10:05Z</time>
      </trkpt>
      <trkpt lat="43.4015180" lon="-3.2611690">
        <ele>33.0</ele>
        <time>2018-09-04T10:10:06Z</time>
      </trkpt>
      <trkpt lat="43.4015380" lon="-3.2612940">
        <ele>32.6</ele>
        <time>2018-09-04T10:10:11Z</time>
      </trkpt>
      <trkpt lat="43.4015140" lon="-3.2612850">
        <ele>33.0</ele>
        <time>2018-09-04T10:10:20Z</time>
      </trkpt>
      <trkpt lat="43.4014350" lon="-3.2612850">
        <ele>33.6</ele>
        <time>2018-09-04T10:10:26Z</time>
      </trkpt>
      <trkpt lat="43.4013960" lon="-3.2613060">
        <ele>34.2</ele>
        <time>2018-09-04T10:10:30Z</time>
      </trkpt>
      <trkpt lat="43.4013770" lon="-3.2613390">
        <ele>33.8</ele>
        <time>2018-09-04T10:10:34Z</time>
      </trkpt>
      <trkpt lat="43.4013800" lon="-3.2613530">
        <ele>33.8</ele>
        <time>2018-09-04T10:10:35Z</time>
      </trkpt>
      <trkpt lat="43.4014410" lon="-3.2612110">
        <ele>34.0</ele>
        <time>2018-09-04T10:11:07Z</time>
      </trkpt>
      <trkpt lat="43.4014500" lon="-3.2611990">
        <ele>34.0</ele>
        <time>2018-09-04T10:11:08Z</time>
      </trkpt>
      <trkpt lat="43.4014690" lon="-3.2611840">
        <ele>33.8</ele>
        <time>2018-09-04T10:11:10Z</time>
      </trkpt>
      <trkpt lat="43.4015170" lon="-3.2611660">
        <ele>33.4</ele>
        <time>2018-09-04T10:11:14Z</time>
      </trkpt>
      <trkpt lat="43.4015510" lon="-3.2611690">
        <ele>33.2</ele>
        <time>2018-09-04T10:11:17Z</time>
      </trkpt>
      <trkpt lat="43.4015720" lon="-3.2611510">
        <ele>33.2</ele>
        <time>2018-09-04T10:11:19Z</time>
      </trkpt>
      <trkpt lat="43.4016020" lon="-3.2611640">
        <ele>33.2</ele>
        <time>2018-09-04T10:11:22Z</time>
      </trkpt>
      <trkpt lat="43.4016370" lon="-3.2611230">
        <ele>32.6</ele>
        <time>2018-09-04T10:11:26Z</time>
      </trkpt>
      <trkpt lat="43.4016390" lon="-3.2611060">
        <ele>32.6</ele>
        <time>2018-09-04T10:11:27Z</time>
      </trkpt>
      <trkpt lat="43.4016320" lon="-3.2610380">
        <ele>32.6</ele>
        <time>2018-09-04T10:11:31Z</time>
      </trkpt>
      <trkpt lat="43.4016290" lon="-3.2609900">
        <ele>32.6</ele>
        <time>2018-09-04T10:11:34Z</time>
      </trkpt>
      <trkpt lat="43.4016130" lon="-3.2609000">
        <ele>32.6</ele>
        <time>2018-09-04T10:11:40Z</time>
      </trkpt>
      <trkpt lat="43.4015910" lon="-3.2608990">
        <ele>32.6</ele>
        <time>2018-09-04T10:11:42Z</time>
      </trkpt>
      <trkpt lat="43.4015650" lon="-3.2608840">
        <ele>32.8</ele>
        <time>2018-09-04T10:11:45Z</time>
      </trkpt>
      <trkpt lat="43.4015380" lon="-3.2608380">
        <ele>33.2</ele>
        <time>2018-09-04T10:11:49Z</time>
      </trkpt>
      <trkpt lat="43.4015190" lon="-3.2608250">
        <ele>33.2</ele>
        <time>2018-09-04T10:11:51Z</time>
      </trkpt>
      <trkpt lat="43.4014670" lon="-3.2608340">
        <ele>34.0</ele>
        <time>2018-09-04T10:11:56Z</time>
      </trkpt>
      <trkpt lat="43.4014430" lon="-3.2608190">
        <ele>34.4</ele>
        <time>2018-09-04T10:11:58Z</time>
      </trkpt>
      <trkpt lat="43.4014320" lon="-3.2608070">
        <ele>34.8</ele>
        <time>2018-09-04T10:11:59Z</time>
      </trkpt>
      <trkpt lat="43.4014150" lon="-3.2607900">
        <ele>35.2</ele>
        <time>2018-09-04T10:12:01Z</time>
      </trkpt>
      <trkpt lat="43.4014050" lon="-3.2607850">
        <ele>35.2</ele>
        <time>2018-09-04T10:12:02Z</time>
      </trkpt>
      <trkpt lat="43.4013940" lon="-3.2607840">
        <ele>35.4</ele>
        <time>2018-09-04T10:12:04Z</time>
      </trkpt>
      <trkpt lat="43.4013850" lon="-3.2607910">
        <ele>35.6</ele>
        <time>2018-09-04T10:12:05Z</time>
      </trkpt>
      <trkpt lat="43.4013630" lon="-3.2607890">
        <ele>35.8</ele>
        <time>2018-09-04T10:12:07Z</time>
      </trkpt>
      <trkpt lat="43.4013520" lon="-3.2607830">
        <ele>36.0</ele>
        <time>2018-09-04T10:12:08Z</time>
      </trkpt>
      <trkpt lat="43.4013150" lon="-3.2607790">
        <ele>36.2</ele>
        <time>2018-09-04T10:12:11Z</time>
      </trkpt>
      <trkpt lat="43.4012840" lon="-3.2607830">
        <ele>36.4</ele>
        <time>2018-09-04T10:12:15Z</time>
      </trkpt>
      <trkpt lat="43.4012720" lon="-3.2607980">
        <ele>36.2</ele>
        <time>2018-09-04T10:12:17Z</time>
      </trkpt>
      <trkpt lat="43.4013640" lon="-3.2607920">
        <ele>35.8</ele>
        <time>2018-09-04T10:12:35Z</time>
      </trkpt>
      <trkpt lat="43.4013950" lon="-3.2607910">
        <ele>36.0</ele>
        <time>2018-09-04T10:12:38Z</time>
      </trkpt>
      <trkpt lat="43.4014290" lon="-3.2607690">
        <ele>35.6</ele>
        <time>2018-09-04T10:12:41Z</time>
      </trkpt>
      <trkpt lat="43.4014440" lon="-3.2607660">
        <ele>35.4</ele>
        <time>2018-09-04T10:12:42Z</time>
      </trkpt>
      <trkpt lat="43.4014700" lon="-3.2607680">
        <ele>34.6</ele>
        <time>2018-09-04T10:12:43Z</time>
      </trkpt>
      <trkpt lat="43.4015010" lon="-3.2607660">
        <ele>34.0</ele>
        <time>2018-09-04T10:12:44Z</time>
      </trkpt>
      <trkpt lat="43.4015560" lon="-3.2607570">
        <ele>33.6</ele>
        <time>2018-09-04T10:12:49Z</time>
      </trkpt>
      <trkpt lat="43.4015840" lon="-3.2606550">
        <ele>32.8</ele>
        <time>2018-09-04T10:14:02Z</time>
      </trkpt>
      <trkpt lat="43.4015830" lon="-3.2606230">
        <ele>32.8</ele>
        <time>2018-09-04T10:14:03Z</time>
      </trkpt>
      <trkpt lat="43.4015850" lon="-3.2605960">
        <ele>32.8</ele>
        <time>2018-09-04T10:14:04Z</time>
      </trkpt>
      <trkpt lat="43.4015870" lon="-3.2604610">
        <ele>33.0</ele>
        <time>2018-09-04T10:14:41Z</time>
      </trkpt>
      <trkpt lat="43.4015690" lon="-3.2603930">
        <ele>32.8</ele>
        <time>2018-09-04T10:14:44Z</time>
      </trkpt>
      <trkpt lat="43.4015580" lon="-3.2603500">
        <ele>33.0</ele>
        <time>2018-09-04T10:14:46Z</time>
      </trkpt>
      <trkpt lat="43.4015130" lon="-3.2603220">
        <ele>33.2</ele>
        <time>2018-09-04T10:14:49Z</time>
      </trkpt>
      <trkpt lat="43.4015050" lon="-3.2603200">
        <ele>33.4</ele>
        <time>2018-09-04T10:14:50Z</time>
      </trkpt>
      <trkpt lat="43.4014920" lon="-3.2603060">
        <ele>33.8</ele>
        <time>2018-09-04T10:14:52Z</time>
      </trkpt>
      <trkpt lat="43.4014910" lon="-3.2602810">
        <ele>34.0</ele>
        <time>2018-09-04T10:14:54Z</time>
      </trkpt>
      <trkpt lat="43.4014920" lon="-3.2602430">
        <ele>34.2</ele>
        <time>2018-09-04T10:14:56Z</time>
      </trkpt>
      <trkpt lat="43.4014890" lon="-3.2602190">
        <ele>34.2</ele>
        <time>2018-09-04T10:14:57Z</time>
      </trkpt>
      <trkpt lat="43.4014890" lon="-3.2601450">
        <ele>34.0</ele>
        <time>2018-09-04T10:14:59Z</time>
      </trkpt>
      <trkpt lat="43.4014250" lon="-3.2599670">
        <ele>33.8</ele>
        <time>2018-09-04T10:15:05Z</time>
      </trkpt>
      <trkpt lat="43.4013430" lon="-3.2599830">
        <ele>34.8</ele>
        <time>2018-09-04T10:15:10Z</time>
      </trkpt>
      <trkpt lat="43.4013330" lon="-3.2599900">
        <ele>34.8</ele>
        <time>2018-09-04T10:15:11Z</time>
      </trkpt>
      <trkpt lat="43.4012190" lon="-3.2600080">
        <ele>35.0</ele>
        <time>2018-09-04T10:15:23Z</time>
      </trkpt>
      <trkpt lat="43.4011940" lon="-3.2600100">
        <ele>35.4</ele>
        <time>2018-09-04T10:15:26Z</time>
      </trkpt>
      <trkpt lat="43.4011790" lon="-3.2600360">
        <ele>35.2</ele>
        <time>2018-09-04T10:15:28Z</time>
      </trkpt>
      <trkpt lat="43.4011710" lon="-3.2600600">
        <ele>35.2</ele>
        <time>2018-09-04T10:15:29Z</time>
      </trkpt>
      <trkpt lat="43.4010880" lon="-3.2601680">
        <ele>34.2</ele>
        <time>2018-09-04T10:15:34Z</time>
      </trkpt>
      <trkpt lat="43.4010550" lon="-3.2601580">
        <ele>34.0</ele>
        <time>2018-09-04T10:15:35Z</time>
      </trkpt>
      <trkpt lat="43.4010280" lon="-3.2601410">
        <ele>33.8</ele>
        <time>2018-09-04T10:15:36Z</time>
      </trkpt>
      <trkpt lat="43.4009630" lon="-3.2600580">
        <ele>33.6</ele>
        <time>2018-09-04T10:15:39Z</time>
      </trkpt>
      <trkpt lat="43.4009180" lon="-3.2600210">
        <ele>33.8</ele>
        <time>2018-09-04T10:15:43Z</time>
      </trkpt>
      <trkpt lat="43.4009180" lon="-3.2600230">
        <ele>33.6</ele>
        <time>2018-09-04T10:15:44Z</time>
      </trkpt>
      <trkpt lat="43.4009110" lon="-3.2599290">
        <ele>33.6</ele>
        <time>2018-09-04T10:16:03Z</time>
      </trkpt>
      <trkpt lat="43.4009090" lon="-3.2598930">
        <ele>33.6</ele>
        <time>2018-09-04T10:16:05Z</time>
      </trkpt>
      <trkpt lat="43.4008830" lon="-3.2598460">
        <ele>33.4</ele>
        <time>2018-09-04T10:16:09Z</time>
      </trkpt>
      <trkpt lat="43.4008690" lon="-3.2598470">
        <ele>33.4</ele>
        <time>2018-09-04T10:16:10Z</time>
      </trkpt>
      <trkpt lat="43.4008430" lon="-3.2598400">
        <ele>33.2</ele>
        <time>2018-09-04T10:16:12Z</time>
      </trkpt>
      <trkpt lat="43.4008320" lon="-3.2598390">
        <ele>33.2</ele>
        <time>2018-09-04T10:16:13Z</time>
      </trkpt>
      <trkpt lat="43.4008100" lon="-3.2598600">
        <ele>33.4</ele>
        <time>2018-09-04T10:16:15Z</time>
      </trkpt>
      <trkpt lat="43.4007880" lon="-3.2598790">
        <ele>33.6</ele>
        <time>2018-09-04T10:16:17Z</time>
      </trkpt>
      <trkpt lat="43.4006980" lon="-3.2599970">
        <ele>34.0</ele>
        <time>2018-09-04T10:17:12Z</time>
      </trkpt>
      <trkpt lat="43.4007090" lon="-3.2599750">
        <ele>34.0</ele>
        <time>2018-09-04T10:17:13Z</time>
      </trkpt>
      <trkpt lat="43.4007360" lon="-3.2599330">
        <ele>34.2</ele>
        <time>2018-09-04T10:17:15Z</time>
      </trkpt>
      <trkpt lat="43.4008090" lon="-3.2598440">
        <ele>33.6</ele>
        <time>2018-09-04T10:17:20Z</time>
      </trkpt>
      <trkpt lat="43.4008230" lon="-3.2598520">
        <ele>33.4</ele>
        <time>2018-09-04T10:17:21Z</time>
      </trkpt>
      <trkpt lat="43.4008060" lon="-3.2596540">
        <ele>31.2</ele>
        <time>2018-09-04T10:18:25Z</time>
      </trkpt>
      <trkpt lat="43.4008170" lon="-3.2595960">
        <ele>30.6</ele>
        <time>2018-09-04T10:18:29Z</time>
      </trkpt>
      <trkpt lat="43.4008160" lon="-3.2595850">
        <ele>30.6</ele>
        <time>2018-09-04T10:18:30Z</time>
      </trkpt>
      <trkpt lat="43.4008150" lon="-3.2595450">
        <ele>30.2</ele>
        <time>2018-09-04T10:18:49Z</time>
      </trkpt>
      <trkpt lat="43.4008180" lon="-3.2595200">
        <ele>30.2</ele>
        <time>2018-09-04T10:18:50Z</time>
      </trkpt>
      <trkpt lat="43.4007880" lon="-3.2594100">
        <ele>29.0</ele>
        <time>2018-09-04T10:18:54Z</time>
      </trkpt>
      <trkpt lat="43.4006970" lon="-3.2593990">
        <ele>28.6</ele>
        <time>2018-09-04T10:18:58Z</time>
      </trkpt>
      <trkpt lat="43.4006300" lon="-3.2593310">
        <ele>28.2</ele>
        <time>2018-09-04T10:19:02Z</time>
      </trkpt>
      <trkpt lat="43.4006210" lon="-3.2593010">
        <ele>28.2</ele>
        <time>2018-09-04T10:19:03Z</time>
      </trkpt>
      <trkpt lat="43.4005710" lon="-3.2591460">
        <ele>28.0</ele>
        <time>2018-09-04T10:19:07Z</time>
      </trkpt>
      <trkpt lat="43.4005360" lon="-3.2589170">
        <ele>28.8</ele>
        <time>2018-09-04T10:19:13Z</time>
      </trkpt>
      <trkpt lat="43.4005250" lon="-3.2586910">
        <ele>29.0</ele>
        <time>2018-09-04T10:19:18Z</time>
      </trkpt>
      <trkpt lat="43.4005160" lon="-3.2585960">
        <ele>28.8</ele>
        <time>2018-09-04T10:19:20Z</time>
      </trkpt>
      <trkpt lat="43.4004780" lon="-3.2583280">
        <ele>28.6</ele>
        <time>2018-09-04T10:19:25Z</time>
      </trkpt>
      <trkpt lat="43.4004750" lon="-3.2582610">
        <ele>28.4</ele>
        <time>2018-09-04T10:19:26Z</time>
      </trkpt>
      <trkpt lat="43.4004940" lon="-3.2579400">
        <ele>26.6</ele>
        <time>2018-09-04T10:19:30Z</time>
      </trkpt>
      <trkpt lat="43.4004970" lon="-3.2578500">
        <ele>26.2</ele>
        <time>2018-09-04T10:19:31Z</time>
      </trkpt>
      <trkpt lat="43.4004970" lon="-3.2577580">
        <ele>25.6</ele>
        <time>2018-09-04T10:19:32Z</time>
      </trkpt>
      <trkpt lat="43.4004760" lon="-3.2574780">
        <ele>25.0</ele>
        <time>2018-09-04T10:19:35Z</time>
      </trkpt>
      <trkpt lat="43.4004590" lon="-3.2573930">
        <ele>24.8</ele>
        <time>2018-09-04T10:19:36Z</time>
      </trkpt>
      <trkpt lat="43.4003610" lon="-3.2571360">
        <ele>25.2</ele>
        <time>2018-09-04T10:19:40Z</time>
      </trkpt>
      <trkpt lat="43.4003360" lon="-3.2570660">
        <ele>26.8</ele>
        <time>2018-09-04T10:19:42Z</time>
      </trkpt>
      <trkpt lat="43.4003230" lon="-3.2570510">
        <ele>27.4</ele>
        <time>2018-09-04T10:19:43Z</time>
      </trkpt>
      <trkpt lat="43.4003120" lon="-3.2570500">
        <ele>27.8</ele>
        <time>2018-09-04T10:19:44Z</time>
      </trkpt>
      <trkpt lat="43.4002950" lon="-3.2570940">
        <ele>28.4</ele>
        <time>2018-09-04T10:20:13Z</time>
      </trkpt>
      <trkpt lat="43.4002960" lon="-3.2571210">
        <ele>28.2</ele>
        <time>2018-09-04T10:20:14Z</time>
      </trkpt>
      <trkpt lat="43.4003190" lon="-3.2572860">
        <ele>28.0</ele>
        <time>2018-09-04T10:20:19Z</time>
      </trkpt>
      <trkpt lat="43.4003270" lon="-3.2573700">
        <ele>27.6</ele>
        <time>2018-09-04T10:20:21Z</time>
      </trkpt>
      <trkpt lat="43.4003390" lon="-3.2576070">
        <ele>27.4</ele>
        <time>2018-09-04T10:20:26Z</time>
      </trkpt>
      <trkpt lat="43.4003490" lon="-3.2577790">
        <ele>27.0</ele>
        <time>2018-09-04T10:20:29Z</time>
      </trkpt>
      <trkpt lat="43.4003550" lon="-3.2578470">
        <ele>26.8</ele>
        <time>2018-09-04T10:20:30Z</time>
      </trkpt>
      <trkpt lat="43.4003640" lon="-3.2579970">
        <ele>26.2</ele>
        <time>2018-09-04T10:20:32Z</time>
      </trkpt>
      <trkpt lat="43.4003720" lon="-3.2581590">
        <ele>25.6</ele>
        <time>2018-09-04T10:20:34Z</time>
      </trkpt>
      <trkpt lat="43.4003830" lon="-3.2583250">
        <ele>25.2</ele>
        <time>2018-09-04T10:20:36Z</time>
      </trkpt>
      <trkpt lat="43.4004030" lon="-3.2585890">
        <ele>25.4</ele>
        <time>2018-09-04T10:20:39Z</time>
      </trkpt>
      <trkpt lat="43.4004160" lon="-3.2587740">
        <ele>24.4</ele>
        <time>2018-09-04T10:20:41Z</time>
      </trkpt>
      <trkpt lat="43.4004250" lon="-3.2589680">
        <ele>23.4</ele>
        <time>2018-09-04T10:20:43Z</time>
      </trkpt>
      <trkpt lat="43.4004300" lon="-3.2590680">
        <ele>22.2</ele>
        <time>2018-09-04T10:20:44Z</time>
      </trkpt>
      <trkpt lat="43.4004390" lon="-3.2592740">
        <ele>21.2</ele>
        <time>2018-09-04T10:20:46Z</time>
      </trkpt>
      <trkpt lat="43.4004450" lon="-3.2593780">
        <ele>20.8</ele>
        <time>2018-09-04T10:20:47Z</time>
      </trkpt>
      <trkpt lat="43.4004690" lon="-3.2597010">
        <ele>19.8</ele>
        <time>2018-09-04T10:20:50Z</time>
      </trkpt>
      <trkpt lat="43.4004820" lon="-3.2599250">
        <ele>18.8</ele>
        <time>2018-09-04T10:20:52Z</time>
      </trkpt>
      <trkpt lat="43.4004990" lon="-3.2602650">
        <ele>18.0</ele>
        <time>2018-09-04T10:20:55Z</time>
      </trkpt>
      <trkpt lat="43.4005050" lon="-3.2603790">
        <ele>17.4</ele>
        <time>2018-09-04T10:20:56Z</time>
      </trkpt>
      <trkpt lat="43.4005210" lon="-3.2606100">
        <ele>16.4</ele>
        <time>2018-09-04T10:20:58Z</time>
      </trkpt>
      <trkpt lat="43.4005400" lon="-3.2608380">
        <ele>16.0</ele>
        <time>2018-09-04T10:21:00Z</time>
      </trkpt>
      <trkpt lat="43.4005650" lon="-3.2611860">
        <ele>14.8</ele>
        <time>2018-09-04T10:21:03Z</time>
      </trkpt>
      <trkpt lat="43.4005690" lon="-3.2613060">
        <ele>14.0</ele>
        <time>2018-09-04T10:21:04Z</time>
      </trkpt>
      <trkpt lat="43.4005760" lon="-3.2614260">
        <ele>13.4</ele>
        <time>2018-09-04T10:21:05Z</time>
      </trkpt>
      <trkpt lat="43.4005980" lon="-3.2617870">
        <ele>12.2</ele>
        <time>2018-09-04T10:21:08Z</time>
      </trkpt>
      <trkpt lat="43.4006240" lon="-3.2621520">
        <ele>11.2</ele>
        <time>2018-09-04T10:21:11Z</time>
      </trkpt>
      <trkpt lat="43.4006410" lon="-3.2624010">
        <ele>9.8</ele>
        <time>2018-09-04T10:21:13Z</time>
      </trkpt>
      <trkpt lat="43.4006590" lon="-3.2626540">
        <ele>8.4</ele>
        <time>2018-09-04T10:21:15Z</time>
      </trkpt>
      <trkpt lat="43.4007160" lon="-3.2635050">
        <ele>7.6</ele>
        <time>2018-09-04T10:21:22Z</time>
      </trkpt>
      <trkpt lat="43.4007320" lon="-3.2637260">
        <ele>7.4</ele>
        <time>2018-09-04T10:21:24Z</time>
      </trkpt>
      <trkpt lat="43.4007550" lon="-3.2640190">
        <ele>7.8</ele>
        <time>2018-09-04T10:21:27Z</time>
      </trkpt>
      <trkpt lat="43.4007840" lon="-3.2644280">
        <ele>8.8</ele>
        <time>2018-09-04T10:21:32Z</time>
      </trkpt>
      <trkpt lat="43.4007890" lon="-3.2645000">
        <ele>9.2</ele>
        <time>2018-09-04T10:21:33Z</time>
      </trkpt>
      <trkpt lat="43.4008030" lon="-3.2647020">
        <ele>9.8</ele>
        <time>2018-09-04T10:21:36Z</time>
      </trkpt>
      <trkpt lat="43.4008060" lon="-3.2647680">
        <ele>10.0</ele>
        <time>2018-09-04T10:21:37Z</time>
      </trkpt>
      <trkpt lat="43.4008140" lon="-3.2648930">
        <ele>10.6</ele>
        <time>2018-09-04T10:21:39Z</time>
      </trkpt>
      <trkpt lat="43.4008180" lon="-3.2649530">
        <ele>11.0</ele>
        <time>2018-09-04T10:21:40Z</time>
      </trkpt>
      <trkpt lat="43.4008200" lon="-3.2650120">
        <ele>11.2</ele>
        <time>2018-09-04T10:21:41Z</time>
      </trkpt>
      <trkpt lat="43.4008280" lon="-3.2652370">
        <ele>11.8</ele>
        <time>2018-09-04T10:21:45Z</time>
      </trkpt>
      <trkpt lat="43.4008320" lon="-3.2652900">
        <ele>12.0</ele>
        <time>2018-09-04T10:21:46Z</time>
      </trkpt>
      <trkpt lat="43.4008320" lon="-3.2653910">
        <ele>12.4</ele>
        <time>2018-09-04T10:21:48Z</time>
      </trkpt>
      <trkpt lat="43.4008310" lon="-3.2655920">
        <ele>13.0</ele>
        <time>2018-09-04T10:21:52Z</time>
      </trkpt>
      <trkpt lat="43.4008300" lon="-3.2656410">
        <ele>13.2</ele>
        <time>2018-09-04T10:21:53Z</time>
      </trkpt>
      <trkpt lat="43.4008260" lon="-3.2657870">
        <ele>13.8</ele>
        <time>2018-09-04T10:21:56Z</time>
      </trkpt>
      <trkpt lat="43.4008230" lon="-3.2658800">
        <ele>14.2</ele>
        <time>2018-09-04T10:21:58Z</time>
      </trkpt>
      <trkpt lat="43.4008180" lon="-3.2659250">
        <ele>14.2</ele>
        <time>2018-09-04T10:21:59Z</time>
      </trkpt>
      <trkpt lat="43.4008070" lon="-3.2660170">
        <ele>14.6</ele>
        <time>2018-09-04T10:22:01Z</time>
      </trkpt>
      <trkpt lat="43.4007860" lon="-3.2661940">
        <ele>15.4</ele>
        <time>2018-09-04T10:22:05Z</time>
      </trkpt>
      <trkpt lat="43.4007560" lon="-3.2663550">
        <ele>15.8</ele>
        <time>2018-09-04T10:22:09Z</time>
      </trkpt>
      <trkpt lat="43.4007270" lon="-3.2665220">
        <ele>16.4</ele>
        <time>2018-09-04T10:22:13Z</time>
      </trkpt>
      <trkpt lat="43.4006890" lon="-3.2666880">
        <ele>16.6</ele>
        <time>2018-09-04T10:22:17Z</time>
      </trkpt>
      <trkpt lat="43.4006440" lon="-3.2668500">
        <ele>17.4</ele>
        <time>2018-09-04T10:22:21Z</time>
      </trkpt>
      <trkpt lat="43.4005850" lon="-3.2670570">
        <ele>18.4</ele>
        <time>2018-09-04T10:22:26Z</time>
      </trkpt>
      <trkpt lat="43.4005690" lon="-3.2670970">
        <ele>18.6</ele>
        <time>2018-09-04T10:22:27Z</time>
      </trkpt>
      <trkpt lat="43.4004300" lon="-3.2674350">
        <ele>19.6</ele>
        <time>2018-09-04T10:22:36Z</time>
      </trkpt>
      <trkpt lat="43.4004140" lon="-3.2674730">
        <ele>20.0</ele>
        <time>2018-09-04T10:22:37Z</time>
      </trkpt>
      <trkpt lat="43.4003680" lon="-3.2675800">
        <ele>20.8</ele>
        <time>2018-09-04T10:22:40Z</time>
      </trkpt>
      <trkpt lat="43.4003010" lon="-3.2677250">
        <ele>21.4</ele>
        <time>2018-09-04T10:22:44Z</time>
      </trkpt>
      <trkpt lat="43.4002640" lon="-3.2677980">
        <ele>21.8</ele>
        <time>2018-09-04T10:22:46Z</time>
      </trkpt>
      <trkpt lat="43.4001140" lon="-3.2681250">
        <ele>23.0</ele>
        <time>2018-09-04T10:22:55Z</time>
      </trkpt>
      <trkpt lat="43.4000810" lon="-3.2681980">
        <ele>23.2</ele>
        <time>2018-09-04T10:22:57Z</time>
      </trkpt>
      <trkpt lat="43.4000100" lon="-3.2683410">
        <ele>24.0</ele>
        <time>2018-09-04T10:23:01Z</time>
      </trkpt>
      <trkpt lat="43.3999380" lon="-3.2684850">
        <ele>24.6</ele>
        <time>2018-09-04T10:23:05Z</time>
      </trkpt>
      <trkpt lat="43.3998880" lon="-3.2685940">
        <ele>25.2</ele>
        <time>2018-09-04T10:23:08Z</time>
      </trkpt>
      <trkpt lat="43.3997850" lon="-3.2688060">
        <ele>26.0</ele>
        <time>2018-09-04T10:23:14Z</time>
      </trkpt>
      <trkpt lat="43.3997680" lon="-3.2688420">
        <ele>26.2</ele>
        <time>2018-09-04T10:23:15Z</time>
      </trkpt>
      <trkpt lat="43.3996790" lon="-3.2690280">
        <ele>27.2</ele>
        <time>2018-09-04T10:23:20Z</time>
      </trkpt>
      <trkpt lat="43.3996080" lon="-3.2691680">
        <ele>28.2</ele>
        <time>2018-09-04T10:23:24Z</time>
      </trkpt>
      <trkpt lat="43.3995180" lon="-3.2693530">
        <ele>28.4</ele>
        <time>2018-09-04T10:23:29Z</time>
      </trkpt>
      <trkpt lat="43.3994460" lon="-3.2695020">
        <ele>29.4</ele>
        <time>2018-09-04T10:23:33Z</time>
      </trkpt>
      <trkpt lat="43.3994290" lon="-3.2695370">
        <ele>29.4</ele>
        <time>2018-09-04T10:23:34Z</time>
      </trkpt>
      <trkpt lat="43.3993240" lon="-3.2697570">
        <ele>30.4</ele>
        <time>2018-09-04T10:23:40Z</time>
      </trkpt>
      <trkpt lat="43.3992930" lon="-3.2698260">
        <ele>30.8</ele>
        <time>2018-09-04T10:23:42Z</time>
      </trkpt>
      <trkpt lat="43.3992750" lon="-3.2700110">
        <ele>31.4</ele>
        <time>2018-09-04T10:23:47Z</time>
      </trkpt>
      <trkpt lat="43.3992890" lon="-3.2701470">
        <ele>30.8</ele>
        <time>2018-09-04T10:23:49Z</time>
      </trkpt>
      <trkpt lat="43.3993050" lon="-3.2702300">
        <ele>30.2</ele>
        <time>2018-09-04T10:23:50Z</time>
      </trkpt>
      <trkpt lat="43.3993270" lon="-3.2704320">
        <ele>28.4</ele>
        <time>2018-09-04T10:23:52Z</time>
      </trkpt>
      <trkpt lat="43.3993220" lon="-3.2705440">
        <ele>27.4</ele>
        <time>2018-09-04T10:23:53Z</time>
      </trkpt>
      <trkpt lat="43.3993110" lon="-3.2706590">
        <ele>26.4</ele>
        <time>2018-09-04T10:23:54Z</time>
      </trkpt>
      <trkpt lat="43.3993020" lon="-3.2707790">
        <ele>25.2</ele>
        <time>2018-09-04T10:23:55Z</time>
      </trkpt>
      <trkpt lat="43.3992840" lon="-3.2710100">
        <ele>23.2</ele>
        <time>2018-09-04T10:23:57Z</time>
      </trkpt>
      <trkpt lat="43.3992740" lon="-3.2711240">
        <ele>23.0</ele>
        <time>2018-09-04T10:23:58Z</time>
      </trkpt>
      <trkpt lat="43.3992360" lon="-3.2714720">
        <ele>22.2</ele>
        <time>2018-09-04T10:24:01Z</time>
      </trkpt>
      <trkpt lat="43.3992360" lon="-3.2717090">
        <ele>21.8</ele>
        <time>2018-09-04T10:24:03Z</time>
      </trkpt>
      <trkpt lat="43.3992410" lon="-3.2718270">
        <ele>21.4</ele>
        <time>2018-09-04T10:24:04Z</time>
      </trkpt>
      <trkpt lat="43.3992400" lon="-3.2719460">
        <ele>21.0</ele>
        <time>2018-09-04T10:24:05Z</time>
      </trkpt>
      <trkpt lat="43.3992380" lon="-3.2720630">
        <ele>20.4</ele>
        <time>2018-09-04T10:24:06Z</time>
      </trkpt>
      <trkpt lat="43.3992410" lon="-3.2721780">
        <ele>20.2</ele>
        <time>2018-09-04T10:24:07Z</time>
      </trkpt>
      <trkpt lat="43.3992470" lon="-3.2722860">
        <ele>20.2</ele>
        <time>2018-09-04T10:24:08Z</time>
      </trkpt>
      <trkpt lat="43.3992440" lon="-3.2723890">
        <ele>20.2</ele>
        <time>2018-09-04T10:24:09Z</time>
      </trkpt>
      <trkpt lat="43.3992200" lon="-3.2725760">
        <ele>19.6</ele>
        <time>2018-09-04T10:24:11Z</time>
      </trkpt>
      <trkpt lat="43.3992020" lon="-3.2726690">
        <ele>19.0</ele>
        <time>2018-09-04T10:24:12Z</time>
      </trkpt>
      <trkpt lat="43.3991590" lon="-3.2728570">
        <ele>18.8</ele>
        <time>2018-09-04T10:24:14Z</time>
      </trkpt>
      <trkpt lat="43.3991160" lon="-3.2730320">
        <ele>18.8</ele>
        <time>2018-09-04T10:24:16Z</time>
      </trkpt>
      <trkpt lat="43.3990830" lon="-3.2731040">
        <ele>19.0</ele>
        <time>2018-09-04T10:24:17Z</time>
      </trkpt>
      <trkpt lat="43.3989330" lon="-3.2733090">
        <ele>21.4</ele>
        <time>2018-09-04T10:24:21Z</time>
      </trkpt>
      <trkpt lat="43.3989040" lon="-3.2733580">
        <ele>21.8</ele>
        <time>2018-09-04T10:24:22Z</time>
      </trkpt>
      <trkpt lat="43.3988020" lon="-3.2735530">
        <ele>22.4</ele>
        <time>2018-09-04T10:24:26Z</time>
      </trkpt>
      <trkpt lat="43.3987590" lon="-3.2736400">
        <ele>22.6</ele>
        <time>2018-09-04T10:24:28Z</time>
      </trkpt>
      <trkpt lat="43.3987360" lon="-3.2738430">
        <ele>23.6</ele>
        <time>2018-09-04T10:24:32Z</time>
      </trkpt>
      <trkpt lat="43.3987470" lon="-3.2738850">
        <ele>23.8</ele>
        <time>2018-09-04T10:24:33Z</time>
      </trkpt>
      <trkpt lat="43.3987810" lon="-3.2739670">
        <ele>24.4</ele>
        <time>2018-09-04T10:24:35Z</time>
      </trkpt>
      <trkpt lat="43.3988250" lon="-3.2740630">
        <ele>24.4</ele>
        <time>2018-09-04T10:24:37Z</time>
      </trkpt>
      <trkpt lat="43.3988450" lon="-3.2743170">
        <ele>23.6</ele>
        <time>2018-09-04T10:24:41Z</time>
      </trkpt>
      <trkpt lat="43.3988510" lon="-3.2743800">
        <ele>23.4</ele>
        <time>2018-09-04T10:24:42Z</time>
      </trkpt>
      <trkpt lat="43.3988750" lon="-3.2745530">
        <ele>23.8</ele>
        <time>2018-09-04T10:24:45Z</time>
      </trkpt>
      <trkpt lat="43.3988970" lon="-3.2746480">
        <ele>24.0</ele>
        <time>2018-09-04T10:24:47Z</time>
      </trkpt>
      <trkpt lat="43.3989560" lon="-3.2746770">
        <ele>24.0</ele>
        <time>2018-09-04T10:24:49Z</time>
      </trkpt>
      <trkpt lat="43.3990300" lon="-3.2746560">
        <ele>24.0</ele>
        <time>2018-09-04T10:24:51Z</time>
      </trkpt>
      <trkpt lat="43.3990710" lon="-3.2746490">
        <ele>24.0</ele>
        <time>2018-09-04T10:24:52Z</time>
      </trkpt>
      <trkpt lat="43.3991150" lon="-3.2746500">
        <ele>23.8</ele>
        <time>2018-09-04T10:24:53Z</time>
      </trkpt>
      <trkpt lat="43.3992030" lon="-3.2746700">
        <ele>23.6</ele>
        <time>2018-09-04T10:24:55Z</time>
      </trkpt>
      <trkpt lat="43.3993200" lon="-3.2747200">
        <ele>23.2</ele>
        <time>2018-09-04T10:24:58Z</time>
      </trkpt>
      <trkpt lat="43.3994390" lon="-3.2747640">
        <ele>23.2</ele>
        <time>2018-09-04T10:25:01Z</time>
      </trkpt>
      <trkpt lat="43.3995190" lon="-3.2747850">
        <ele>23.8</ele>
        <time>2018-09-04T10:25:03Z</time>
      </trkpt>
      <trkpt lat="43.3996360" lon="-3.2747730">
        <ele>24.8</ele>
        <time>2018-09-04T10:25:07Z</time>
      </trkpt>
      <trkpt lat="43.3996590" lon="-3.2747690">
        <ele>25.0</ele>
        <time>2018-09-04T10:25:08Z</time>
      </trkpt>
      <trkpt lat="43.3997520" lon="-3.2747280">
        <ele>24.8</ele>
        <time>2018-09-04T10:25:12Z</time>
      </trkpt>
      <trkpt lat="43.3999000" lon="-3.2746700">
        <ele>25.2</ele>
        <time>2018-09-04T10:25:18Z</time>
      </trkpt>
      <trkpt lat="43.4000070" lon="-3.2746430">
        <ele>26.0</ele>
        <time>2018-09-04T10:25:24Z</time>
      </trkpt>
      <trkpt lat="43.4003480" lon="-3.2744110">
        <ele>28.6</ele>
        <time>2018-09-04T10:26:19Z</time>
      </trkpt>
      <trkpt lat="43.4003550" lon="-3.2743860">
        <ele>28.0</ele>
        <time>2018-09-04T10:26:20Z</time>
      </trkpt>
      <trkpt lat="43.4003860" lon="-3.2743600">
        <ele>27.0</ele>
        <time>2018-09-04T10:26:21Z</time>
      </trkpt>
      <trkpt lat="43.4004460" lon="-3.2743260">
        <ele>27.0</ele>
        <time>2018-09-04T10:26:23Z</time>
      </trkpt>
      <trkpt lat="43.4004930" lon="-3.2742840">
        <ele>26.8</ele>
        <time>2018-09-04T10:26:26Z</time>
      </trkpt>
      <trkpt lat="43.4005520" lon="-3.2742390">
        <ele>25.8</ele>
        <time>2018-09-04T10:26:31Z</time>
      </trkpt>
      <trkpt lat="43.4005940" lon="-3.2741760">
        <ele>24.8</ele>
        <time>2018-09-04T10:26:34Z</time>
      </trkpt>
      <trkpt lat="43.4006320" lon="-3.2741210">
        <ele>24.2</ele>
        <time>2018-09-04T10:26:36Z</time>
      </trkpt>
      <trkpt lat="43.4006480" lon="-3.2740980">
        <ele>23.8</ele>
        <time>2018-09-04T10:26:37Z</time>
      </trkpt>
      <trkpt lat="43.4006740" lon="-3.2740770">
        <ele>23.6</ele>
        <time>2018-09-04T10:26:38Z</time>
      </trkpt>
      <trkpt lat="43.4007450" lon="-3.2740330">
        <ele>22.8</ele>
        <time>2018-09-04T10:26:40Z</time>
      </trkpt>
      <trkpt lat="43.4007770" lon="-3.2740170">
        <ele>22.2</ele>
        <time>2018-09-04T10:26:41Z</time>
      </trkpt>
      <trkpt lat="43.4008040" lon="-3.2740110">
        <ele>22.0</ele>
        <time>2018-09-04T10:26:42Z</time>
      </trkpt>
      <trkpt lat="43.4008450" lon="-3.2740040">
        <ele>21.6</ele>
        <time>2018-09-04T10:26:44Z</time>
      </trkpt>
      <trkpt lat="43.4008620" lon="-3.2739880">
        <ele>21.4</ele>
        <time>2018-09-04T10:26:45Z</time>
      </trkpt>
      <trkpt lat="43.4009060" lon="-3.2739670">
        <ele>21.0</ele>
        <time>2018-09-04T10:26:47Z</time>
      </trkpt>
      <trkpt lat="43.4009370" lon="-3.2739570">
        <ele>20.8</ele>
        <time>2018-09-04T10:26:48Z</time>
      </trkpt>
      <trkpt lat="43.4009680" lon="-3.2739420">
        <ele>20.4</ele>
        <time>2018-09-04T10:26:49Z</time>
      </trkpt>
      <trkpt lat="43.4010180" lon="-3.2739330">
        <ele>20.0</ele>
        <time>2018-09-04T10:26:51Z</time>
      </trkpt>
      <trkpt lat="43.4010390" lon="-3.2739300">
        <ele>19.8</ele>
        <time>2018-09-04T10:26:52Z</time>
      </trkpt>
      <trkpt lat="43.4011360" lon="-3.2739140">
        <ele>19.6</ele>
        <time>2018-09-04T10:26:56Z</time>
      </trkpt>
      <trkpt lat="43.4011880" lon="-3.2739300">
        <ele>19.2</ele>
        <time>2018-09-04T10:26:58Z</time>
      </trkpt>
      <trkpt lat="43.4012400" lon="-3.2739420">
        <ele>19.0</ele>
        <time>2018-09-04T10:27:00Z</time>
      </trkpt>
      <trkpt lat="43.4012740" lon="-3.2739760">
        <ele>18.6</ele>
        <time>2018-09-04T10:27:02Z</time>
      </trkpt>
      <trkpt lat="43.4012920" lon="-3.2739940">
        <ele>18.4</ele>
        <time>2018-09-04T10:27:03Z</time>
      </trkpt>
      <trkpt lat="43.4013250" lon="-3.2740040">
        <ele>18.0</ele>
        <time>2018-09-04T10:27:05Z</time>
      </trkpt>
      <trkpt lat="43.4013440" lon="-3.2739980">
        <ele>17.8</ele>
        <time>2018-09-04T10:27:06Z</time>
      </trkpt>
      <trkpt lat="43.4013690" lon="-3.2739950">
        <ele>17.4</ele>
        <time>2018-09-04T10:27:07Z</time>
      </trkpt>
      <trkpt lat="43.4014920" lon="-3.2740380">
        <ele>16.6</ele>
        <time>2018-09-04T10:27:12Z</time>
      </trkpt>
      <trkpt lat="43.4015160" lon="-3.2740540">
        <ele>16.4</ele>
        <time>2018-09-04T10:27:13Z</time>
      </trkpt>
      <trkpt lat="43.4015500" lon="-3.2740800">
        <ele>16.2</ele>
        <time>2018-09-04T10:27:15Z</time>
      </trkpt>
      <trkpt lat="43.4015770" lon="-3.2741400">
        <ele>16.0</ele>
        <time>2018-09-04T10:27:18Z</time>
      </trkpt>
      <trkpt lat="43.4015690" lon="-3.2741720">
        <ele>16.0</ele>
        <time>2018-09-04T10:27:20Z</time>
      </trkpt>
      <trkpt lat="43.4015530" lon="-3.2742110">
        <ele>16.0</ele>
        <time>2018-09-04T10:27:22Z</time>
      </trkpt>
      <trkpt lat="43.4015460" lon="-3.2742370">
        <ele>16.0</ele>
        <time>2018-09-04T10:27:23Z</time>
      </trkpt>
      <trkpt lat="43.4015260" lon="-3.2742900">
        <ele>15.6</ele>
        <time>2018-09-04T10:27:25Z</time>
      </trkpt>
      <trkpt lat="43.4015030" lon="-3.2743860">
        <ele>15.2</ele>
        <time>2018-09-04T10:27:28Z</time>
      </trkpt>
      <trkpt lat="43.4015500" lon="-3.2744810">
        <ele>15.2</ele>
        <time>2018-09-04T10:27:32Z</time>
      </trkpt>
      <trkpt lat="43.4015720" lon="-3.2745160">
        <ele>16.2</ele>
        <time>2018-09-04T10:27:34Z</time>
      </trkpt>
      <trkpt lat="43.4015870" lon="-3.2745460">
        <ele>16.6</ele>
        <time>2018-09-04T10:27:36Z</time>
      </trkpt>
      <trkpt lat="43.4015950" lon="-3.2745730">
        <ele>17.0</ele>
        <time>2018-09-04T10:27:38Z</time>
      </trkpt>
      <trkpt lat="43.4016020" lon="-3.2745950">
        <ele>17.2</ele>
        <time>2018-09-04T10:27:39Z</time>
      </trkpt>
      <trkpt lat="43.4016250" lon="-3.2746420">
        <ele>17.4</ele>
        <time>2018-09-04T10:27:41Z</time>
      </trkpt>
      <trkpt lat="43.4016490" lon="-3.2746940">
        <ele>17.8</ele>
        <time>2018-09-04T10:27:43Z</time>
      </trkpt>
      <trkpt lat="43.4016830" lon="-3.2747670">
        <ele>18.2</ele>
        <time>2018-09-04T10:27:46Z</time>
      </trkpt>
      <trkpt lat="43.4016930" lon="-3.2747920">
        <ele>18.4</ele>
        <time>2018-09-04T10:27:47Z</time>
      </trkpt>
      <trkpt lat="43.4017440" lon="-3.2749040">
        <ele>18.0</ele>
        <time>2018-09-04T10:27:51Z</time>
      </trkpt>
      <trkpt lat="43.4017770" lon="-3.2749380">
        <ele>17.6</ele>
        <time>2018-09-04T10:27:52Z</time>
      </trkpt>
      <trkpt lat="43.4018460" lon="-3.2750780">
        <ele>16.8</ele>
        <time>2018-09-04T10:27:55Z</time>
      </trkpt>
      <trkpt lat="43.4018580" lon="-3.2751260">
        <ele>16.6</ele>
        <time>2018-09-04T10:27:56Z</time>
      </trkpt>
      <trkpt lat="43.4019100" lon="-3.2752420">
        <ele>18.0</ele>
        <time>2018-09-04T10:28:00Z</time>
      </trkpt>
      <trkpt lat="43.4019280" lon="-3.2752980">
        <ele>19.0</ele>
        <time>2018-09-04T10:28:03Z</time>
      </trkpt>
      <trkpt lat="43.4019480" lon="-3.2753520">
        <ele>19.6</ele>
        <time>2018-09-04T10:28:06Z</time>
      </trkpt>
      <trkpt lat="43.4019660" lon="-3.2753770">
        <ele>20.2</ele>
        <time>2018-09-04T10:28:08Z</time>
      </trkpt>
      <trkpt lat="43.4019640" lon="-3.2754640">
        <ele>21.2</ele>
        <time>2018-09-04T10:28:13Z</time>
      </trkpt>
      <trkpt lat="43.4019670" lon="-3.2754840">
        <ele>21.4</ele>
        <time>2018-09-04T10:28:14Z</time>
      </trkpt>
      <trkpt lat="43.4019940" lon="-3.2755760">
        <ele>22.6</ele>
        <time>2018-09-04T10:28:19Z</time>
      </trkpt>
      <trkpt lat="43.4020110" lon="-3.2756240">
        <ele>23.6</ele>
        <time>2018-09-04T10:28:22Z</time>
      </trkpt>
      <trkpt lat="43.4020160" lon="-3.2756380">
        <ele>24.0</ele>
        <time>2018-09-04T10:28:23Z</time>
      </trkpt>
      <trkpt lat="43.4020240" lon="-3.2756480">
        <ele>24.2</ele>
        <time>2018-09-04T10:28:24Z</time>
      </trkpt>
      <trkpt lat="43.4020330" lon="-3.2756580">
        <ele>24.4</ele>
        <time>2018-09-04T10:28:25Z</time>
      </trkpt>
      <trkpt lat="43.4020450" lon="-3.2756680">
        <ele>24.6</ele>
        <time>2018-09-04T10:28:26Z</time>
      </trkpt>
      <trkpt lat="43.4021110" lon="-3.2757310">
        <ele>25.0</ele>
        <time>2018-09-04T10:28:32Z</time>
      </trkpt>
      <trkpt lat="43.4021270" lon="-3.2757810">
        <ele>25.2</ele>
        <time>2018-09-04T10:28:35Z</time>
      </trkpt>
      <trkpt lat="43.4021400" lon="-3.2758380">
        <ele>25.8</ele>
        <time>2018-09-04T10:28:38Z</time>
      </trkpt>
      <trkpt lat="43.4021420" lon="-3.2758560">
        <ele>25.8</ele>
        <time>2018-09-04T10:28:39Z</time>
      </trkpt>
      <trkpt lat="43.4021220" lon="-3.2759310">
        <ele>26.8</ele>
        <time>2018-09-04T10:28:44Z</time>
      </trkpt>
      <trkpt lat="43.4021120" lon="-3.2759460">
        <ele>27.2</ele>
        <time>2018-09-04T10:28:45Z</time>
      </trkpt>
      <trkpt lat="43.4021040" lon="-3.2759640">
        <ele>27.4</ele>
        <time>2018-09-04T10:28:46Z</time>
      </trkpt>
      <trkpt lat="43.4020880" lon="-3.2760140">
        <ele>27.8</ele>
        <time>2018-09-04T10:28:49Z</time>
      </trkpt>
      <trkpt lat="43.4020850" lon="-3.2760480">
        <ele>28.2</ele>
        <time>2018-09-04T10:28:51Z</time>
      </trkpt>
      <trkpt lat="43.4020850" lon="-3.2760800">
        <ele>28.6</ele>
        <time>2018-09-04T10:28:53Z</time>
      </trkpt>
      <trkpt lat="43.4020940" lon="-3.2761590">
        <ele>29.0</ele>
        <time>2018-09-04T10:28:57Z</time>
      </trkpt>
      <trkpt lat="43.4020920" lon="-3.2763260">
        <ele>29.4</ele>
        <time>2018-09-04T10:29:04Z</time>
      </trkpt>
      <trkpt lat="43.4020480" lon="-3.2765080">
        <ele>29.0</ele>
        <time>2018-09-04T10:29:10Z</time>
      </trkpt>
      <trkpt lat="43.4020180" lon="-3.2765980">
        <ele>28.4</ele>
        <time>2018-09-04T10:29:13Z</time>
      </trkpt>
      <trkpt lat="43.4020060" lon="-3.2766730">
        <ele>27.8</ele>
        <time>2018-09-04T10:29:16Z</time>
      </trkpt>
      <trkpt lat="43.4020050" lon="-3.2766830">
        <ele>27.6</ele>
        <time>2018-09-04T10:29:18Z</time>
      </trkpt>
      <trkpt lat="43.4020180" lon="-3.2767550">
        <ele>27.6</ele>
        <time>2018-09-04T10:30:02Z</time>
      </trkpt>
      <trkpt lat="43.4020390" lon="-3.2768520">
        <ele>27.2</ele>
        <time>2018-09-04T10:30:05Z</time>
      </trkpt>
      <trkpt lat="43.4020630" lon="-3.2769240">
        <ele>27.0</ele>
        <time>2018-09-04T10:30:07Z</time>
      </trkpt>
      <trkpt lat="43.4020830" lon="-3.2769670">
        <ele>26.8</ele>
        <time>2018-09-04T10:30:08Z</time>
      </trkpt>
      <trkpt lat="43.4021670" lon="-3.2771190">
        <ele>26.0</ele>
        <time>2018-09-04T10:30:11Z</time>
      </trkpt>
      <trkpt lat="43.4022160" lon="-3.2772270">
        <ele>26.0</ele>
        <time>2018-09-04T10:30:13Z</time>
      </trkpt>
      <trkpt lat="43.4022590" lon="-3.2773470">
        <ele>26.2</ele>
        <time>2018-09-04T10:30:16Z</time>
      </trkpt>
      <trkpt lat="43.4022700" lon="-3.2773930">
        <ele>27.8</ele>
        <time>2018-09-04T10:30:19Z</time>
      </trkpt>
      <trkpt lat="43.4022690" lon="-3.2773910">
        <ele>28.2</ele>
        <time>2018-09-04T10:30:20Z</time>
      </trkpt>
      <trkpt lat="43.4022780" lon="-3.2775480">
        <ele>30.2</ele>
        <time>2018-09-04T10:30:42Z</time>
      </trkpt>
      <trkpt lat="43.4022870" lon="-3.2775930">
        <ele>30.4</ele>
        <time>2018-09-04T10:30:44Z</time>
      </trkpt>
      <trkpt lat="43.4023060" lon="-3.2776840">
        <ele>31.0</ele>
        <time>2018-09-04T10:30:48Z</time>
      </trkpt>
      <trkpt lat="43.4023190" lon="-3.2777280">
        <ele>31.4</ele>
        <time>2018-09-04T10:30:50Z</time>
      </trkpt>
      <trkpt lat="43.4023460" lon="-3.2778020">
        <ele>32.0</ele>
        <time>2018-09-04T10:30:54Z</time>
      </trkpt>
      <trkpt lat="43.4023560" lon="-3.2778140">
        <ele>32.4</ele>
        <time>2018-09-04T10:30:55Z</time>
      </trkpt>
      <trkpt lat="43.4023830" lon="-3.2778550">
        <ele>33.2</ele>
        <time>2018-09-04T10:30:58Z</time>
      </trkpt>
      <trkpt lat="43.4024090" lon="-3.2779090">
        <ele>33.4</ele>
        <time>2018-09-04T10:31:01Z</time>
      </trkpt>
      <trkpt lat="43.4024310" lon="-3.2779950">
        <ele>34.0</ele>
        <time>2018-09-04T10:31:06Z</time>
      </trkpt>
      <trkpt lat="43.4024410" lon="-3.2780570">
        <ele>34.4</ele>
        <time>2018-09-04T10:31:10Z</time>
      </trkpt>
      <trkpt lat="43.4024470" lon="-3.2780670">
        <ele>34.6</ele>
        <time>2018-09-04T10:31:11Z</time>
      </trkpt>
      <trkpt lat="43.4024530" lon="-3.2780810">
        <ele>34.6</ele>
        <time>2018-09-04T10:31:12Z</time>
      </trkpt>
      <trkpt lat="43.4024630" lon="-3.2781360">
        <ele>34.6</ele>
        <time>2018-09-04T10:31:16Z</time>
      </trkpt>
      <trkpt lat="43.4024670" lon="-3.2781500">
        <ele>34.4</ele>
        <time>2018-09-04T10:33:38Z</time>
      </trkpt>
      <trkpt lat="43.4024680" lon="-3.2781740">
        <ele>34.2</ele>
        <time>2018-09-04T10:33:39Z</time>
      </trkpt>
      <trkpt lat="43.4024810" lon="-3.2783220">
        <ele>33.6</ele>
        <time>2018-09-04T10:33:43Z</time>
      </trkpt>
      <trkpt lat="43.4024780" lon="-3.2785450">
        <ele>33.8</ele>
        <time>2018-09-04T10:33:49Z</time>
      </trkpt>
      <trkpt lat="43.4024390" lon="-3.2788070">
        <ele>34.0</ele>
        <time>2018-09-04T10:33:57Z</time>
      </trkpt>
      <trkpt lat="43.4024110" lon="-3.2789190">
        <ele>34.6</ele>
        <time>2018-09-04T10:34:01Z</time>
      </trkpt>
      <trkpt lat="43.4024050" lon="-3.2789470">
        <ele>34.6</ele>
        <time>2018-09-04T10:34:02Z</time>
      </trkpt>
      <trkpt lat="43.4023580" lon="-3.2791470">
        <ele>34.8</ele>
        <time>2018-09-04T10:34:09Z</time>
      </trkpt>
      <trkpt lat="43.4023580" lon="-3.2792640">
        <ele>35.0</ele>
        <time>2018-09-04T10:34:13Z</time>
      </trkpt>
      <trkpt lat="43.4023550" lon="-3.2792930">
        <ele>35.2</ele>
        <time>2018-09-04T10:34:14Z</time>
      </trkpt>
      <trkpt lat="43.4023340" lon="-3.2794970">
        <ele>35.0</ele>
        <time>2018-09-04T10:34:19Z</time>
      </trkpt>
      <trkpt lat="43.4023190" lon="-3.2797380">
        <ele>35.2</ele>
        <time>2018-09-04T10:34:25Z</time>
      </trkpt>
      <trkpt lat="43.4023180" lon="-3.2797800">
        <ele>35.2</ele>
        <time>2018-09-04T10:34:26Z</time>
      </trkpt>
      <trkpt lat="43.4023150" lon="-3.2798640">
        <ele>35.6</ele>
        <time>2018-09-04T10:34:28Z</time>
      </trkpt>
      <trkpt lat="43.4023020" lon="-3.2801520">
        <ele>35.0</ele>
        <time>2018-09-04T10:34:34Z</time>
      </trkpt>
      <trkpt lat="43.4023050" lon="-3.2803820">
        <ele>34.8</ele>
        <time>2018-09-04T10:34:38Z</time>
      </trkpt>
      <trkpt lat="43.4023030" lon="-3.2804410">
        <ele>34.6</ele>
        <time>2018-09-04T10:34:39Z</time>
      </trkpt>
      <trkpt lat="43.4023000" lon="-3.2805000">
        <ele>34.4</ele>
        <time>2018-09-04T10:34:40Z</time>
      </trkpt>
      <trkpt lat="43.4022890" lon="-3.2807640">
        <ele>34.2</ele>
        <time>2018-09-04T10:34:45Z</time>
      </trkpt>
      <trkpt lat="43.4022900" lon="-3.2808130">
        <ele>34.2</ele>
        <time>2018-09-04T10:34:46Z</time>
      </trkpt>
      <trkpt lat="43.4022900" lon="-3.2808600">
        <ele>34.0</ele>
        <time>2018-09-04T10:34:47Z</time>
      </trkpt>
      <trkpt lat="43.4022910" lon="-3.2809670">
        <ele>33.6</ele>
        <time>2018-09-04T10:34:49Z</time>
      </trkpt>
      <trkpt lat="43.4022900" lon="-3.2810270">
        <ele>33.4</ele>
        <time>2018-09-04T10:34:50Z</time>
      </trkpt>
      <trkpt lat="43.4022960" lon="-3.2811600">
        <ele>32.8</ele>
        <time>2018-09-04T10:34:52Z</time>
      </trkpt>
      <trkpt lat="43.4023090" lon="-3.2813890">
        <ele>32.0</ele>
        <time>2018-09-04T10:34:55Z</time>
      </trkpt>
      <trkpt lat="43.4023000" lon="-3.2815420">
        <ele>30.8</ele>
        <time>2018-09-04T10:34:57Z</time>
      </trkpt>
      <trkpt lat="43.4022890" lon="-3.2817850">
        <ele>29.8</ele>
        <time>2018-09-04T10:35:00Z</time>
      </trkpt>
      <trkpt lat="43.4022960" lon="-3.2818660">
        <ele>29.2</ele>
        <time>2018-09-04T10:35:01Z</time>
      </trkpt>
      <trkpt lat="43.4023080" lon="-3.2819460">
        <ele>28.8</ele>
        <time>2018-09-04T10:35:02Z</time>
      </trkpt>
      <trkpt lat="43.4023420" lon="-3.2821010">
        <ele>27.8</ele>
        <time>2018-09-04T10:35:04Z</time>
      </trkpt>
      <trkpt lat="43.4023450" lon="-3.2821700">
        <ele>27.8</ele>
        <time>2018-09-04T10:35:05Z</time>
      </trkpt>
      <trkpt lat="43.4023290" lon="-3.2823700">
        <ele>28.8</ele>
        <time>2018-09-04T10:35:09Z</time>
      </trkpt>
      <trkpt lat="43.4023240" lon="-3.2824110">
        <ele>29.4</ele>
        <time>2018-09-04T10:35:10Z</time>
      </trkpt>
      <trkpt lat="43.4023230" lon="-3.2824880">
        <ele>29.8</ele>
        <time>2018-09-04T10:35:12Z</time>
      </trkpt>
      <trkpt lat="43.4023300" lon="-3.2825700">
        <ele>29.6</ele>
        <time>2018-09-04T10:35:14Z</time>
      </trkpt>
      <trkpt lat="43.4023440" lon="-3.2827320">
        <ele>29.4</ele>
        <time>2018-09-04T10:35:18Z</time>
      </trkpt>
      <trkpt lat="43.4023630" lon="-3.2828460">
        <ele>29.4</ele>
        <time>2018-09-04T10:35:21Z</time>
      </trkpt>
      <trkpt lat="43.4023840" lon="-3.2829890">
        <ele>29.4</ele>
        <time>2018-09-04T10:35:25Z</time>
      </trkpt>
      <trkpt lat="43.4024090" lon="-3.2831000">
        <ele>29.0</ele>
        <time>2018-09-04T10:35:29Z</time>
      </trkpt>
      <trkpt lat="43.4024410" lon="-3.2831790">
        <ele>28.4</ele>
        <time>2018-09-04T10:35:32Z</time>
      </trkpt>
      <trkpt lat="43.4024660" lon="-3.2832410">
        <ele>27.8</ele>
        <time>2018-09-04T10:35:35Z</time>
      </trkpt>
      <trkpt lat="43.4024810" lon="-3.2832970">
        <ele>27.4</ele>
        <time>2018-09-04T10:35:39Z</time>
      </trkpt>
      <trkpt lat="43.4024760" lon="-3.2833510">
        <ele>27.4</ele>
        <time>2018-09-04T10:35:42Z</time>
      </trkpt>
      <trkpt lat="43.4024730" lon="-3.2834000">
        <ele>27.8</ele>
        <time>2018-09-04T10:35:44Z</time>
      </trkpt>
      <trkpt lat="43.4024830" lon="-3.2834930">
        <ele>28.0</ele>
        <time>2018-09-04T10:35:47Z</time>
      </trkpt>
      <trkpt lat="43.4024810" lon="-3.2835570">
        <ele>28.4</ele>
        <time>2018-09-04T10:35:49Z</time>
      </trkpt>
      <trkpt lat="43.4024840" lon="-3.2836650">
        <ele>29.0</ele>
        <time>2018-09-04T10:35:52Z</time>
      </trkpt>
      <trkpt lat="43.4024970" lon="-3.2837490">
        <ele>29.0</ele>
        <time>2018-09-04T10:35:54Z</time>
      </trkpt>
      <trkpt lat="43.4025240" lon="-3.2839280">
        <ele>29.6</ele>
        <time>2018-09-04T10:35:58Z</time>
      </trkpt>
      <trkpt lat="43.4025580" lon="-3.2841520">
        <ele>29.8</ele>
        <time>2018-09-04T10:36:03Z</time>
      </trkpt>
      <trkpt lat="43.4025780" lon="-3.2842930">
        <ele>29.4</ele>
        <time>2018-09-04T10:36:06Z</time>
      </trkpt>
      <trkpt lat="43.4026020" lon="-3.2844520">
        <ele>29.4</ele>
        <time>2018-09-04T10:36:09Z</time>
      </trkpt>
      <trkpt lat="43.4026210" lon="-3.2845680">
        <ele>29.2</ele>
        <time>2018-09-04T10:36:11Z</time>
      </trkpt>
      <trkpt lat="43.4026500" lon="-3.2847530">
        <ele>28.4</ele>
        <time>2018-09-04T10:36:14Z</time>
      </trkpt>
      <trkpt lat="43.4026730" lon="-3.2849570">
        <ele>27.8</ele>
        <time>2018-09-04T10:36:17Z</time>
      </trkpt>
      <trkpt lat="43.4026800" lon="-3.2850260">
        <ele>27.8</ele>
        <time>2018-09-04T10:36:18Z</time>
      </trkpt>
      <trkpt lat="43.4026970" lon="-3.2851670">
        <ele>27.0</ele>
        <time>2018-09-04T10:36:20Z</time>
      </trkpt>
      <trkpt lat="43.4027190" lon="-3.2853160">
        <ele>26.2</ele>
        <time>2018-09-04T10:36:22Z</time>
      </trkpt>
      <trkpt lat="43.4027320" lon="-3.2853930">
        <ele>26.0</ele>
        <time>2018-09-04T10:36:23Z</time>
      </trkpt>
      <trkpt lat="43.4027550" lon="-3.2855540">
        <ele>25.6</ele>
        <time>2018-09-04T10:36:25Z</time>
      </trkpt>
      <trkpt lat="43.4027740" lon="-3.2857180">
        <ele>24.6</ele>
        <time>2018-09-04T10:36:27Z</time>
      </trkpt>
      <trkpt lat="43.4027920" lon="-3.2858800">
        <ele>24.0</ele>
        <time>2018-09-04T10:36:29Z</time>
      </trkpt>
      <trkpt lat="43.4028010" lon="-3.2859590">
        <ele>23.6</ele>
        <time>2018-09-04T10:36:30Z</time>
      </trkpt>
      <trkpt lat="43.4028230" lon="-3.2861070">
        <ele>23.2</ele>
        <time>2018-09-04T10:36:32Z</time>
      </trkpt>
      <trkpt lat="43.4028940" lon="-3.2865120">
        <ele>23.0</ele>
        <time>2018-09-04T10:36:38Z</time>
      </trkpt>
      <trkpt lat="43.4029230" lon="-3.2866990">
        <ele>22.0</ele>
        <time>2018-09-04T10:36:41Z</time>
      </trkpt>
      <trkpt lat="43.4029510" lon="-3.2868640">
        <ele>20.6</ele>
        <time>2018-09-04T10:36:43Z</time>
      </trkpt>
      <trkpt lat="43.4030520" lon="-3.2873030">
        <ele>20.8</ele>
        <time>2018-09-04T10:36:49Z</time>
      </trkpt>
      <trkpt lat="43.4030810" lon="-3.2874250">
        <ele>20.8</ele>
        <time>2018-09-04T10:36:51Z</time>
      </trkpt>
      <trkpt lat="43.4031210" lon="-3.2876050">
        <ele>21.6</ele>
        <time>2018-09-04T10:36:54Z</time>
      </trkpt>
      <trkpt lat="43.4031580" lon="-3.2877680">
        <ele>22.6</ele>
        <time>2018-09-04T10:36:57Z</time>
      </trkpt>
      <trkpt lat="43.4031840" lon="-3.2878720">
        <ele>22.8</ele>
        <time>2018-09-04T10:36:59Z</time>
      </trkpt>
      <trkpt lat="43.4032070" lon="-3.2879730">
        <ele>23.0</ele>
        <time>2018-09-04T10:37:01Z</time>
      </trkpt>
      <trkpt lat="43.4032180" lon="-3.2880230">
        <ele>23.4</ele>
        <time>2018-09-04T10:37:02Z</time>
      </trkpt>
      <trkpt lat="43.4032360" lon="-3.2881200">
        <ele>24.0</ele>
        <time>2018-09-04T10:37:04Z</time>
      </trkpt>
      <trkpt lat="43.4032560" lon="-3.2882200">
        <ele>24.6</ele>
        <time>2018-09-04T10:37:06Z</time>
      </trkpt>
      <trkpt lat="43.4032870" lon="-3.2883810">
        <ele>25.4</ele>
        <time>2018-09-04T10:37:09Z</time>
      </trkpt>
      <trkpt lat="43.4033110" lon="-3.2884680">
        <ele>25.8</ele>
        <time>2018-09-04T10:37:11Z</time>
      </trkpt>
      <trkpt lat="43.4033180" lon="-3.2885040">
        <ele>26.0</ele>
        <time>2018-09-04T10:37:12Z</time>
      </trkpt>
      <trkpt lat="43.4033430" lon="-3.2886010">
        <ele>26.0</ele>
        <time>2018-09-04T10:37:14Z</time>
      </trkpt>
      <trkpt lat="43.4033630" lon="-3.2887070">
        <ele>26.2</ele>
        <time>2018-09-04T10:37:16Z</time>
      </trkpt>
      <trkpt lat="43.4033760" lon="-3.2887560">
        <ele>26.6</ele>
        <time>2018-09-04T10:37:17Z</time>
      </trkpt>
      <trkpt lat="43.4034020" lon="-3.2888610">
        <ele>26.8</ele>
        <time>2018-09-04T10:37:19Z</time>
      </trkpt>
      <trkpt lat="43.4034310" lon="-3.2889730">
        <ele>26.6</ele>
        <time>2018-09-04T10:37:21Z</time>
      </trkpt>
      <trkpt lat="43.4034570" lon="-3.2890910">
        <ele>26.6</ele>
        <time>2018-09-04T10:37:23Z</time>
      </trkpt>
      <trkpt lat="43.4035040" lon="-3.2893440">
        <ele>25.8</ele>
        <time>2018-09-04T10:37:27Z</time>
      </trkpt>
      <trkpt lat="43.4035420" lon="-3.2895270">
        <ele>26.0</ele>
        <time>2018-09-04T10:37:30Z</time>
      </trkpt>
      <trkpt lat="43.4035970" lon="-3.2898410">
        <ele>26.2</ele>
        <time>2018-09-04T10:37:35Z</time>
      </trkpt>
      <trkpt lat="43.4036410" lon="-3.2900930">
        <ele>26.2</ele>
        <time>2018-09-04T10:37:39Z</time>
      </trkpt>
      <trkpt lat="43.4037000" lon="-3.2903780">
        <ele>26.8</ele>
        <time>2018-09-04T10:37:44Z</time>
      </trkpt>
      <trkpt lat="43.4037300" lon="-3.2905590">
        <ele>26.4</ele>
        <time>2018-09-04T10:37:47Z</time>
      </trkpt>
      <trkpt lat="43.4037610" lon="-3.2907800">
        <ele>25.0</ele>
        <time>2018-09-04T10:37:50Z</time>
      </trkpt>
      <trkpt lat="43.4037910" lon="-3.2909500">
        <ele>24.2</ele>
        <time>2018-09-04T10:37:52Z</time>
      </trkpt>
      <trkpt lat="43.4038070" lon="-3.2910380">
        <ele>23.8</ele>
        <time>2018-09-04T10:37:53Z</time>
      </trkpt>
      <trkpt lat="43.4038680" lon="-3.2913650">
        <ele>23.2</ele>
        <time>2018-09-04T10:37:57Z</time>
      </trkpt>
      <trkpt lat="43.4038950" lon="-3.2915210">
        <ele>23.0</ele>
        <time>2018-09-04T10:37:59Z</time>
      </trkpt>
      <trkpt lat="43.4039090" lon="-3.2916010">
        <ele>22.6</ele>
        <time>2018-09-04T10:38:00Z</time>
      </trkpt>
      <trkpt lat="43.4039230" lon="-3.2916820">
        <ele>22.8</ele>
        <time>2018-09-04T10:38:01Z</time>
      </trkpt>
      <trkpt lat="43.4039670" lon="-3.2919330">
        <ele>22.4</ele>
        <time>2018-09-04T10:38:04Z</time>
      </trkpt>
      <trkpt lat="43.4040130" lon="-3.2921870">
        <ele>22.0</ele>
        <time>2018-09-04T10:38:07Z</time>
      </trkpt>
      <trkpt lat="43.4040290" lon="-3.2922730">
        <ele>21.6</ele>
        <time>2018-09-04T10:38:08Z</time>
      </trkpt>
      <trkpt lat="43.4040870" lon="-3.2926220">
        <ele>21.4</ele>
        <time>2018-09-04T10:38:12Z</time>
      </trkpt>
      <trkpt lat="43.4041130" lon="-3.2928060">
        <ele>20.8</ele>
        <time>2018-09-04T10:38:14Z</time>
      </trkpt>
      <trkpt lat="43.4041270" lon="-3.2928960">
        <ele>20.2</ele>
        <time>2018-09-04T10:38:15Z</time>
      </trkpt>
      <trkpt lat="43.4041660" lon="-3.2934570">
        <ele>19.2</ele>
        <time>2018-09-04T10:38:21Z</time>
      </trkpt>
      <trkpt lat="43.4041770" lon="-3.2936610">
        <ele>17.6</ele>
        <time>2018-09-04T10:38:23Z</time>
      </trkpt>
      <trkpt lat="43.4042040" lon="-3.2939940">
        <ele>15.8</ele>
        <time>2018-09-04T10:38:26Z</time>
      </trkpt>
      <trkpt lat="43.4042120" lon="-3.2941100">
        <ele>15.4</ele>
        <time>2018-09-04T10:38:27Z</time>
      </trkpt>
      <trkpt lat="43.4042240" lon="-3.2943490">
        <ele>14.4</ele>
        <time>2018-09-04T10:38:29Z</time>
      </trkpt>
      <trkpt lat="43.4042390" lon="-3.2945920">
        <ele>13.2</ele>
        <time>2018-09-04T10:38:31Z</time>
      </trkpt>
      <trkpt lat="43.4042510" lon="-3.2948320">
        <ele>12.4</ele>
        <time>2018-09-04T10:38:33Z</time>
      </trkpt>
      <trkpt lat="43.4042630" lon="-3.2949500">
        <ele>12.2</ele>
        <time>2018-09-04T10:38:34Z</time>
      </trkpt>
      <trkpt lat="43.4043450" lon="-3.2955230">
        <ele>12.0</ele>
        <time>2018-09-04T10:38:39Z</time>
      </trkpt>
      <trkpt lat="43.4043810" lon="-3.2957450">
        <ele>11.6</ele>
        <time>2018-09-04T10:38:41Z</time>
      </trkpt>
      <trkpt lat="43.4044120" lon="-3.2959700">
        <ele>11.0</ele>
        <time>2018-09-04T10:38:43Z</time>
      </trkpt>
      <trkpt lat="43.4044680" lon="-3.2963860">
        <ele>10.4</ele>
        <time>2018-09-04T10:38:47Z</time>
      </trkpt>
      <trkpt lat="43.4045290" lon="-3.2967740">
        <ele>10.2</ele>
        <time>2018-09-04T10:38:51Z</time>
      </trkpt>
      <trkpt lat="43.4045420" lon="-3.2968660">
        <ele>10.2</ele>
        <time>2018-09-04T10:38:52Z</time>
      </trkpt>
      <trkpt lat="43.4045520" lon="-3.2969580">
        <ele>10.0</ele>
        <time>2018-09-04T10:38:53Z</time>
      </trkpt>
      <trkpt lat="43.4045740" lon="-3.2971340">
        <ele>10.0</ele>
        <time>2018-09-04T10:38:55Z</time>
      </trkpt>
      <trkpt lat="43.4046100" lon="-3.2973910">
        <ele>9.0</ele>
        <time>2018-09-04T10:38:58Z</time>
      </trkpt>
      <trkpt lat="43.4046370" lon="-3.2975640">
        <ele>8.0</ele>
        <time>2018-09-04T10:39:00Z</time>
      </trkpt>
      <trkpt lat="43.4046490" lon="-3.2976520">
        <ele>8.0</ele>
        <time>2018-09-04T10:39:01Z</time>
      </trkpt>
      <trkpt lat="43.4046730" lon="-3.2978250">
        <ele>8.2</ele>
        <time>2018-09-04T10:39:03Z</time>
      </trkpt>
      <trkpt lat="43.4047750" lon="-3.2985170">
        <ele>7.6</ele>
        <time>2018-09-04T10:39:11Z</time>
      </trkpt>
      <trkpt lat="43.4047870" lon="-3.2986020">
        <ele>7.4</ele>
        <time>2018-09-04T10:39:12Z</time>
      </trkpt>
      <trkpt lat="43.4048540" lon="-3.2989920">
        <ele>7.6</ele>
        <time>2018-09-04T10:39:17Z</time>
      </trkpt>
      <trkpt lat="43.4048870" lon="-3.2990570">
        <ele>7.6</ele>
        <time>2018-09-04T10:39:18Z</time>
      </trkpt>
      <trkpt lat="43.4050380" lon="-3.2991410">
        <ele>7.8</ele>
        <time>2018-09-04T10:39:21Z</time>
      </trkpt>
      <trkpt lat="43.4051840" lon="-3.2991850">
        <ele>7.4</ele>
        <time>2018-09-04T10:39:24Z</time>
      </trkpt>
      <trkpt lat="43.4052030" lon="-3.2993050">
        <ele>7.0</ele>
        <time>2018-09-04T10:39:26Z</time>
      </trkpt>
      <trkpt lat="43.4051950" lon="-3.2993590">
        <ele>6.8</ele>
        <time>2018-09-04T10:39:27Z</time>
      </trkpt>
      <trkpt lat="43.4051900" lon="-3.2994630">
        <ele>7.2</ele>
        <time>2018-09-04T10:39:29Z</time>
      </trkpt>
      <trkpt lat="43.4051880" lon="-3.2995150">
        <ele>7.2</ele>
        <time>2018-09-04T10:39:30Z</time>
      </trkpt>
      <trkpt lat="43.4051740" lon="-3.2996570">
        <ele>6.8</ele>
        <time>2018-09-04T10:39:33Z</time>
      </trkpt>
      <trkpt lat="43.4050770" lon="-3.2998660">
        <ele>6.6</ele>
        <time>2018-09-04T10:39:38Z</time>
      </trkpt>
      <trkpt lat="43.4049870" lon="-3.2999900">
        <ele>6.4</ele>
        <time>2018-09-04T10:39:42Z</time>
      </trkpt>
      <trkpt lat="43.4049910" lon="-3.3000270">
        <ele>6.4</ele>
        <time>2018-09-04T10:39:43Z</time>
      </trkpt>
      <trkpt lat="43.4050440" lon="-3.3001170">
        <ele>6.0</ele>
        <time>2018-09-04T10:39:46Z</time>
      </trkpt>
      <trkpt lat="43.4050580" lon="-3.3001600">
        <ele>6.0</ele>
        <time>2018-09-04T10:39:47Z</time>
      </trkpt>
      <trkpt lat="43.4050570" lon="-3.3002110">
        <ele>5.8</ele>
        <time>2018-09-04T10:39:48Z</time>
      </trkpt>
      <trkpt lat="43.4050380" lon="-3.3003210">
        <ele>5.4</ele>
        <time>2018-09-04T10:39:50Z</time>
      </trkpt>
      <trkpt lat="43.4049690" lon="-3.3006780">
        <ele>4.6</ele>
        <time>2018-09-04T10:39:56Z</time>
      </trkpt>
      <trkpt lat="43.4049420" lon="-3.3008090">
        <ele>4.2</ele>
        <time>2018-09-04T10:39:58Z</time>
      </trkpt>
      <trkpt lat="43.4048690" lon="-3.3010790">
        <ele>3.8</ele>
        <time>2018-09-04T10:40:02Z</time>
      </trkpt>
      <trkpt lat="43.4048590" lon="-3.3011550">
        <ele>3.4</ele>
        <time>2018-09-04T10:40:03Z</time>
      </trkpt>
      <trkpt lat="43.4048530" lon="-3.3012340">
        <ele>3.0</ele>
        <time>2018-09-04T10:40:05Z</time>
      </trkpt>
      <trkpt lat="43.4048430" lon="-3.3013160">
        <ele>2.4</ele>
        <time>2018-09-04T10:40:06Z</time>
      </trkpt>
      <trkpt lat="43.4048290" lon="-3.3014030">
        <ele>2.0</ele>
        <time>2018-09-04T10:40:07Z</time>
      </trkpt>
      <trkpt lat="43.4047830" lon="-3.3016780">
        <ele>1.2</ele>
        <time>2018-09-04T10:40:10Z</time>
      </trkpt>
      <trkpt lat="43.4047670" lon="-3.3017770">
        <ele>1.0</ele>
        <time>2018-09-04T10:40:11Z</time>
      </trkpt>
      <trkpt lat="43.4047190" lon="-3.3020830">
        <ele>0.0</ele>
        <time>2018-09-04T10:40:14Z</time>
      </trkpt>
      <trkpt lat="43.4046640" lon="-3.3023950">
        <ele>-1.0</ele>
        <time>2018-09-04T10:40:17Z</time>
      </trkpt>
      <trkpt lat="43.4046470" lon="-3.3025020">
        <ele>-1.4</ele>
        <time>2018-09-04T10:40:18Z</time>
      </trkpt>
      <trkpt lat="43.4045700" lon="-3.3029280">
        <ele>-2.8</ele>
        <time>2018-09-04T10:40:22Z</time>
      </trkpt>
      <trkpt lat="43.4045490" lon="-3.3030340">
        <ele>-4.0</ele>
        <time>2018-09-04T10:40:23Z</time>
      </trkpt>
      <trkpt lat="43.4045300" lon="-3.3031420">
        <ele>-4.0</ele>
        <time>2018-09-04T10:40:24Z</time>
      </trkpt>
      <trkpt lat="43.4044960" lon="-3.3033600">
        <ele>-3.8</ele>
        <time>2018-09-04T10:40:26Z</time>
      </trkpt>
      <trkpt lat="43.4044430" lon="-3.3036880">
        <ele>-5.0</ele>
        <time>2018-09-04T10:40:29Z</time>
      </trkpt>
      <trkpt lat="43.4044250" lon="-3.3037950">
        <ele>-5.2</ele>
        <time>2018-09-04T10:40:30Z</time>
      </trkpt>
      <trkpt lat="43.4043430" lon="-3.3043080">
        <ele>-6.6</ele>
        <time>2018-09-04T10:40:35Z</time>
      </trkpt>
      <trkpt lat="43.4043350" lon="-3.3044090">
        <ele>-7.0</ele>
        <time>2018-09-04T10:40:36Z</time>
      </trkpt>
      <trkpt lat="43.4043320" lon="-3.3045130">
        <ele>-7.0</ele>
        <time>2018-09-04T10:40:37Z</time>
      </trkpt>
      <trkpt lat="43.4043430" lon="-3.3048180">
        <ele>-7.6</ele>
        <time>2018-09-04T10:40:40Z</time>
      </trkpt>
      <trkpt lat="43.4043470" lon="-3.3049190">
        <ele>-7.6</ele>
        <time>2018-09-04T10:40:41Z</time>
      </trkpt>
      <trkpt lat="43.4043460" lon="-3.3052700">
        <ele>-8.6</ele>
        <time>2018-09-04T10:40:45Z</time>
      </trkpt>
      <trkpt lat="43.4043260" lon="-3.3053140">
        <ele>-8.6</ele>
        <time>2018-09-04T10:40:46Z</time>
      </trkpt>
      <trkpt lat="43.4042050" lon="-3.3053390">
        <ele>-8.8</ele>
        <time>2018-09-04T10:40:49Z</time>
      </trkpt>
      <trkpt lat="43.4041600" lon="-3.3053360">
        <ele>-8.8</ele>
        <time>2018-09-04T10:40:50Z</time>
      </trkpt>
      <trkpt lat="43.4040780" lon="-3.3053350">
        <ele>-8.6</ele>
        <time>2018-09-04T10:40:52Z</time>
      </trkpt>
      <trkpt lat="43.4040080" lon="-3.3053370">
        <ele>-8.2</ele>
        <time>2018-09-04T10:40:54Z</time>
      </trkpt>
      <trkpt lat="43.4039790" lon="-3.3053270">
        <ele>-8.2</ele>
        <time>2018-09-04T10:40:55Z</time>
      </trkpt>
      <trkpt lat="43.4039540" lon="-3.3053330">
        <ele>-8.0</ele>
        <time>2018-09-04T10:40:56Z</time>
      </trkpt>
      <trkpt lat="43.4039270" lon="-3.3054240">
        <ele>-8.2</ele>
        <time>2018-09-04T10:40:58Z</time>
      </trkpt>
      <trkpt lat="43.4039220" lon="-3.3055580">
        <ele>-8.6</ele>
        <time>2018-09-04T10:41:00Z</time>
      </trkpt>
      <trkpt lat="43.4039160" lon="-3.3057150">
        <ele>-9.6</ele>
        <time>2018-09-04T10:41:02Z</time>
      </trkpt>
      <trkpt lat="43.4039040" lon="-3.3063020">
        <ele>-10.4</ele>
        <time>2018-09-04T10:41:09Z</time>
      </trkpt>
      <trkpt lat="43.4038990" lon="-3.3063840">
        <ele>-10.8</ele>
        <time>2018-09-04T10:41:10Z</time>
      </trkpt>
      <trkpt lat="43.4038960" lon="-3.3064640">
        <ele>-10.6</ele>
        <time>2018-09-04T10:41:11Z</time>
      </trkpt>
      <trkpt lat="43.4038890" lon="-3.3067010">
        <ele>-11.0</ele>
        <time>2018-09-04T10:41:14Z</time>
      </trkpt>
      <trkpt lat="43.4038950" lon="-3.3071530">
        <ele>-10.2</ele>
        <time>2018-09-04T10:41:20Z</time>
      </trkpt>
      <trkpt lat="43.4038560" lon="-3.3076100">
        <ele>-11.4</ele>
        <time>2018-09-04T10:41:26Z</time>
      </trkpt>
      <trkpt lat="43.4038470" lon="-3.3076850">
        <ele>-11.4</ele>
        <time>2018-09-04T10:41:27Z</time>
      </trkpt>
      <trkpt lat="43.4038290" lon="-3.3079180">
        <ele>-11.6</ele>
        <time>2018-09-04T10:41:30Z</time>
      </trkpt>
      <trkpt lat="43.4038210" lon="-3.3079960">
        <ele>-11.8</ele>
        <time>2018-09-04T10:41:31Z</time>
      </trkpt>
      <trkpt lat="43.4038080" lon="-3.3080770">
        <ele>-12.0</ele>
        <time>2018-09-04T10:41:32Z</time>
      </trkpt>
      <trkpt lat="43.4037940" lon="-3.3081600">
        <ele>-12.2</ele>
        <time>2018-09-04T10:41:33Z</time>
      </trkpt>
      <trkpt lat="43.4037680" lon="-3.3083150">
        <ele>-12.8</ele>
        <time>2018-09-04T10:41:35Z</time>
      </trkpt>
      <trkpt lat="43.4037580" lon="-3.3083960">
        <ele>-13.0</ele>
        <time>2018-09-04T10:41:36Z</time>
      </trkpt>
      <trkpt lat="43.4037090" lon="-3.3087180">
        <ele>-14.0</ele>
        <time>2018-09-04T10:41:40Z</time>
      </trkpt>
      <trkpt lat="43.4037000" lon="-3.3087940">
        <ele>-14.2</ele>
        <time>2018-09-04T10:41:41Z</time>
      </trkpt>
      <trkpt lat="43.4036690" lon="-3.3091500">
        <ele>-13.8</ele>
        <time>2018-09-04T10:41:46Z</time>
      </trkpt>
      <trkpt lat="43.4036230" lon="-3.3094320">
        <ele>-13.0</ele>
        <time>2018-09-04T10:41:51Z</time>
      </trkpt>
      <trkpt lat="43.4036080" lon="-3.3094890">
        <ele>-13.0</ele>
        <time>2018-09-04T10:41:52Z</time>
      </trkpt>
      <trkpt lat="43.4035690" lon="-3.3098770">
        <ele>-13.4</ele>
        <time>2018-09-04T10:41:58Z</time>
      </trkpt>
      <trkpt lat="43.4035580" lon="-3.3100670">
        <ele>-12.8</ele>
        <time>2018-09-04T10:42:01Z</time>
      </trkpt>
      <trkpt lat="43.4035580" lon="-3.3101310">
        <ele>-13.2</ele>
        <time>2018-09-04T10:42:02Z</time>
      </trkpt>
      <trkpt lat="43.4035590" lon="-3.3102570">
        <ele>-13.2</ele>
        <time>2018-09-04T10:42:04Z</time>
      </trkpt>
      <trkpt lat="43.4035620" lon="-3.3103200">
        <ele>-12.8</ele>
        <time>2018-09-04T10:42:05Z</time>
      </trkpt>
      <trkpt lat="43.4035760" lon="-3.3106140">
        <ele>-12.4</ele>
        <time>2018-09-04T10:42:10Z</time>
      </trkpt>
      <trkpt lat="43.4035710" lon="-3.3107070">
        <ele>-12.0</ele>
        <time>2018-09-04T10:42:12Z</time>
      </trkpt>
      <trkpt lat="43.4035710" lon="-3.3107440">
        <ele>-11.8</ele>
        <time>2018-09-04T10:42:13Z</time>
      </trkpt>
      <trkpt lat="43.4035750" lon="-3.3108080">
        <ele>-11.2</ele>
        <time>2018-09-04T10:42:15Z</time>
      </trkpt>
      <trkpt lat="43.4035780" lon="-3.3108390">
        <ele>-10.8</ele>
        <time>2018-09-04T10:42:16Z</time>
      </trkpt>
      <trkpt lat="43.4035810" lon="-3.3108720">
        <ele>-10.4</ele>
        <time>2018-09-04T10:42:17Z</time>
      </trkpt>
      <trkpt lat="43.4035800" lon="-3.3109310">
        <ele>-9.6</ele>
        <time>2018-09-04T10:42:19Z</time>
      </trkpt>
      <trkpt lat="43.4035770" lon="-3.3109800">
        <ele>-9.0</ele>
        <time>2018-09-04T10:42:21Z</time>
      </trkpt>
      <trkpt lat="43.4035650" lon="-3.3110260">
        <ele>-8.2</ele>
        <time>2018-09-04T10:42:23Z</time>
      </trkpt>
      <trkpt lat="43.4035570" lon="-3.3110670">
        <ele>-7.6</ele>
        <time>2018-09-04T10:42:26Z</time>
      </trkpt>
      <trkpt lat="43.4035450" lon="-3.3111040">
        <ele>-7.4</ele>
        <time>2018-09-04T10:42:28Z</time>
      </trkpt>
      <trkpt lat="43.4035310" lon="-3.3111450">
        <ele>-7.0</ele>
        <time>2018-09-04T10:42:30Z</time>
      </trkpt>
      <trkpt lat="43.4035300" lon="-3.3112590">
        <ele>-6.0</ele>
        <time>2018-09-04T10:42:35Z</time>
      </trkpt>
      <trkpt lat="43.4035250" lon="-3.3112820">
        <ele>-5.8</ele>
        <time>2018-09-04T10:42:36Z</time>
      </trkpt>
      <trkpt lat="43.4035240" lon="-3.3113560">
        <ele>-5.6</ele>
        <time>2018-09-04T10:42:39Z</time>
      </trkpt>
      <trkpt lat="43.4035290" lon="-3.3114510">
        <ele>-5.0</ele>
        <time>2018-09-04T10:42:43Z</time>
      </trkpt>
      <trkpt lat="43.4035310" lon="-3.3114990">
        <ele>-4.4</ele>
        <time>2018-09-04T10:42:45Z</time>
      </trkpt>
      <trkpt lat="43.4035310" lon="-3.3115240">
        <ele>-4.4</ele>
        <time>2018-09-04T10:42:46Z</time>
      </trkpt>
      <trkpt lat="43.4035330" lon="-3.3115760">
        <ele>-4.0</ele>
        <time>2018-09-04T10:42:48Z</time>
      </trkpt>
      <trkpt lat="43.4035350" lon="-3.3116910">
        <ele>-3.0</ele>
        <time>2018-09-04T10:42:52Z</time>
      </trkpt>
      <trkpt lat="43.4035310" lon="-3.3117180">
        <ele>-2.6</ele>
        <time>2018-09-04T10:42:53Z</time>
      </trkpt>
      <trkpt lat="43.4035100" lon="-3.3118220">
        <ele>-1.8</ele>
        <time>2018-09-04T10:42:57Z</time>
      </trkpt>
      <trkpt lat="43.4034740" lon="-3.3119350">
        <ele>-1.0</ele>
        <time>2018-09-04T10:43:01Z</time>
      </trkpt>
      <trkpt lat="43.4034570" lon="-3.3119800">
        <ele>-0.8</ele>
        <time>2018-09-04T10:43:03Z</time>
      </trkpt>
      <trkpt lat="43.4034250" lon="-3.3120710">
        <ele>-0.4</ele>
        <time>2018-09-04T10:43:07Z</time>
      </trkpt>
      <trkpt lat="43.4034100" lon="-3.3121600">
        <ele>-0.6</ele>
        <time>2018-09-04T10:43:10Z</time>
      </trkpt>
      <trkpt lat="43.4034050" lon="-3.3121910">
        <ele>-0.4</ele>
        <time>2018-09-04T10:43:11Z</time>
      </trkpt>
      <trkpt lat="43.4033820" lon="-3.3122870">
        <ele>-0.6</ele>
        <time>2018-09-04T10:43:14Z</time>
      </trkpt>
      <trkpt lat="43.4033580" lon="-3.3123790">
        <ele>-0.6</ele>
        <time>2018-09-04T10:43:17Z</time>
      </trkpt>
      <trkpt lat="43.4033450" lon="-3.3124350">
        <ele>-0.4</ele>
        <time>2018-09-04T10:43:19Z</time>
      </trkpt>
      <trkpt lat="43.4033300" lon="-3.3125050">
        <ele>-0.4</ele>
        <time>2018-09-04T10:43:21Z</time>
      </trkpt>
      <trkpt lat="43.4033030" lon="-3.3126210">
        <ele>-0.6</ele>
        <time>2018-09-04T10:43:24Z</time>
      </trkpt>
      <trkpt lat="43.4032780" lon="-3.3127010">
        <ele>-0.6</ele>
        <time>2018-09-04T10:43:26Z</time>
      </trkpt>
      <trkpt lat="43.4032610" lon="-3.3127400">
        <ele>-0.6</ele>
        <time>2018-09-04T10:43:27Z</time>
      </trkpt>
      <trkpt lat="43.4032180" lon="-3.3128250">
        <ele>-0.6</ele>
        <time>2018-09-04T10:43:29Z</time>
      </trkpt>
      <trkpt lat="43.4031580" lon="-3.3129700">
        <ele>-0.6</ele>
        <time>2018-09-04T10:43:32Z</time>
      </trkpt>
      <trkpt lat="43.4031210" lon="-3.3130660">
        <ele>-0.6</ele>
        <time>2018-09-04T10:43:34Z</time>
      </trkpt>
      <trkpt lat="43.4030480" lon="-3.3132080">
        <ele>-0.6</ele>
        <time>2018-09-04T10:43:37Z</time>
      </trkpt>
      <trkpt lat="43.4029910" lon="-3.3133070">
        <ele>-0.6</ele>
        <time>2018-09-04T10:43:39Z</time>
      </trkpt>
      <trkpt lat="43.4029310" lon="-3.3134100">
        <ele>-0.8</ele>
        <time>2018-09-04T10:43:41Z</time>
      </trkpt>
      <trkpt lat="43.4026240" lon="-3.3139420">
        <ele>-0.8</ele>
        <time>2018-09-04T10:43:51Z</time>
      </trkpt>
      <trkpt lat="43.4024640" lon="-3.3143920">
        <ele>-0.4</ele>
        <time>2018-09-04T10:43:58Z</time>
      </trkpt>
      <trkpt lat="43.4022450" lon="-3.3150310">
        <ele>-0.4</ele>
        <time>2018-09-04T10:44:08Z</time>
      </trkpt>
      <trkpt lat="43.4020360" lon="-3.3155430">
        <ele>-0.6</ele>
        <time>2018-09-04T10:44:16Z</time>
      </trkpt>
      <trkpt lat="43.4020040" lon="-3.3156020">
        <ele>-0.4</ele>
        <time>2018-09-04T10:44:17Z</time>
      </trkpt>
      <trkpt lat="43.4018600" lon="-3.3158190">
        <ele>-1.2</ele>
        <time>2018-09-04T10:44:21Z</time>
      </trkpt>
      <trkpt lat="43.4017710" lon="-3.3159030">
        <ele>-1.2</ele>
        <time>2018-09-04T10:44:23Z</time>
      </trkpt>
      <trkpt lat="43.4015200" lon="-3.3160720">
        <ele>-1.8</ele>
        <time>2018-09-04T10:44:28Z</time>
      </trkpt>
      <trkpt lat="43.4014680" lon="-3.3161030">
        <ele>-1.8</ele>
        <time>2018-09-04T10:44:29Z</time>
      </trkpt>
      <trkpt lat="43.4010810" lon="-3.3162960">
        <ele>-2.8</ele>
        <time>2018-09-04T10:44:36Z</time>
      </trkpt>
      <trkpt lat="43.4010270" lon="-3.3163240">
        <ele>-3.0</ele>
        <time>2018-09-04T10:44:37Z</time>
      </trkpt>
      <trkpt lat="43.4007460" lon="-3.3164390">
        <ele>-3.4</ele>
        <time>2018-09-04T10:44:42Z</time>
      </trkpt>
      <trkpt lat="43.4004370" lon="-3.3165360">
        <ele>-4.0</ele>
        <time>2018-09-04T10:44:47Z</time>
      </trkpt>
      <trkpt lat="43.4003070" lon="-3.3165740">
        <ele>-4.2</ele>
        <time>2018-09-04T10:44:49Z</time>
      </trkpt>
      <trkpt lat="43.3998980" lon="-3.3166010">
        <ele>-5.0</ele>
        <time>2018-09-04T10:44:55Z</time>
      </trkpt>
      <trkpt lat="43.3994590" lon="-3.3165790">
        <ele>-6.0</ele>
        <time>2018-09-04T10:45:01Z</time>
      </trkpt>
      <trkpt lat="43.3993840" lon="-3.3165700">
        <ele>-6.2</ele>
        <time>2018-09-04T10:45:02Z</time>
      </trkpt>
      <trkpt lat="43.3989460" lon="-3.3164460">
        <ele>-6.8</ele>
        <time>2018-09-04T10:45:08Z</time>
      </trkpt>
      <trkpt lat="43.3988750" lon="-3.3164130">
        <ele>-7.2</ele>
        <time>2018-09-04T10:45:09Z</time>
      </trkpt>
      <trkpt lat="43.3987360" lon="-3.3163410">
        <ele>-7.6</ele>
        <time>2018-09-04T10:45:11Z</time>
      </trkpt>
      <trkpt lat="43.3985240" lon="-3.3162140">
        <ele>-8.2</ele>
        <time>2018-09-04T10:45:14Z</time>
      </trkpt>
      <trkpt lat="43.3980170" lon="-3.3159160">
        <ele>-9.4</ele>
        <time>2018-09-04T10:45:21Z</time>
      </trkpt>
      <trkpt lat="43.3978700" lon="-3.3158370">
        <ele>-10.2</ele>
        <time>2018-09-04T10:45:23Z</time>
      </trkpt>
      <trkpt lat="43.3977920" lon="-3.3158040">
        <ele>-10.4</ele>
        <time>2018-09-04T10:45:24Z</time>
      </trkpt>
      <trkpt lat="43.3974870" lon="-3.3156670">
        <ele>-10.6</ele>
        <time>2018-09-04T10:45:28Z</time>
      </trkpt>
      <trkpt lat="43.3973410" lon="-3.3155990">
        <ele>-10.8</ele>
        <time>2018-09-04T10:45:30Z</time>
      </trkpt>
      <trkpt lat="43.3971930" lon="-3.3155420">
        <ele>-11.2</ele>
        <time>2018-09-04T10:45:32Z</time>
      </trkpt>
      <trkpt lat="43.3969720" lon="-3.3154580">
        <ele>-11.0</ele>
        <time>2018-09-04T10:45:35Z</time>
      </trkpt>
      <trkpt lat="43.3966010" lon="-3.3153370">
        <ele>-11.8</ele>
        <time>2018-09-04T10:45:40Z</time>
      </trkpt>
      <trkpt lat="43.3964510" lon="-3.3152840">
        <ele>-12.0</ele>
        <time>2018-09-04T10:45:42Z</time>
      </trkpt>
      <trkpt lat="43.3962260" lon="-3.3151980">
        <ele>-12.8</ele>
        <time>2018-09-04T10:45:45Z</time>
      </trkpt>
      <trkpt lat="43.3958500" lon="-3.3150270">
        <ele>-13.4</ele>
        <time>2018-09-04T10:45:50Z</time>
      </trkpt>
      <trkpt lat="43.3957030" lon="-3.3149500">
        <ele>-13.4</ele>
        <time>2018-09-04T10:45:52Z</time>
      </trkpt>
      <trkpt lat="43.3955550" lon="-3.3148660">
        <ele>-13.2</ele>
        <time>2018-09-04T10:45:54Z</time>
      </trkpt>
      <trkpt lat="43.3950620" lon="-3.3146130">
        <ele>-13.2</ele>
        <time>2018-09-04T10:46:01Z</time>
      </trkpt>
      <trkpt lat="43.3946420" lon="-3.3145430">
        <ele>-13.4</ele>
        <time>2018-09-04T10:46:07Z</time>
      </trkpt>
      <trkpt lat="43.3942220" lon="-3.3146010">
        <ele>-13.6</ele>
        <time>2018-09-04T10:46:13Z</time>
      </trkpt>
      <trkpt lat="43.3940080" lon="-3.3146470">
        <ele>-13.8</ele>
        <time>2018-09-04T10:46:16Z</time>
      </trkpt>
      <trkpt lat="43.3935900" lon="-3.3147340">
        <ele>-14.8</ele>
        <time>2018-09-04T10:46:22Z</time>
      </trkpt>
      <trkpt lat="43.3931180" lon="-3.3147590">
        <ele>-14.2</ele>
        <time>2018-09-04T10:46:29Z</time>
      </trkpt>
      <trkpt lat="43.3928140" lon="-3.3147170">
        <ele>-13.8</ele>
        <time>2018-09-04T10:46:34Z</time>
      </trkpt>
      <trkpt lat="43.3926930" lon="-3.3147070">
        <ele>-13.4</ele>
        <time>2018-09-04T10:46:36Z</time>
      </trkpt>
      <trkpt lat="43.3923550" lon="-3.3146790">
        <ele>-13.2</ele>
        <time>2018-09-04T10:46:42Z</time>
      </trkpt>
      <trkpt lat="43.3921480" lon="-3.3146590">
        <ele>-12.6</ele>
        <time>2018-09-04T10:46:46Z</time>
      </trkpt>
      <trkpt lat="43.3918390" lon="-3.3146660">
        <ele>-12.0</ele>
        <time>2018-09-04T10:46:52Z</time>
      </trkpt>
      <trkpt lat="43.3915830" lon="-3.3147610">
        <ele>-12.0</ele>
        <time>2018-09-04T10:46:57Z</time>
      </trkpt>
      <trkpt lat="43.3915360" lon="-3.3147940">
        <ele>-12.2</ele>
        <time>2018-09-04T10:46:58Z</time>
      </trkpt>
      <trkpt lat="43.3913270" lon="-3.3150230">
        <ele>-12.4</ele>
        <time>2018-09-04T10:47:03Z</time>
      </trkpt>
      <trkpt lat="43.3910480" lon="-3.3153600">
        <ele>-12.2</ele>
        <time>2018-09-04T10:47:10Z</time>
      </trkpt>
      <trkpt lat="43.3908390" lon="-3.3156020">
        <ele>-11.8</ele>
        <time>2018-09-04T10:47:15Z</time>
      </trkpt>
      <trkpt lat="43.3907530" lon="-3.3157020">
        <ele>-11.6</ele>
        <time>2018-09-04T10:47:17Z</time>
      </trkpt>
      <trkpt lat="43.3903930" lon="-3.3160610">
        <ele>-11.2</ele>
        <time>2018-09-04T10:47:25Z</time>
      </trkpt>
      <trkpt lat="43.3900650" lon="-3.3162510">
        <ele>-11.0</ele>
        <time>2018-09-04T10:47:31Z</time>
      </trkpt>
      <trkpt lat="43.3896660" lon="-3.3164610">
        <ele>-11.6</ele>
        <time>2018-09-04T10:47:38Z</time>
      </trkpt>
      <trkpt lat="43.3895630" lon="-3.3165570">
        <ele>-12.0</ele>
        <time>2018-09-04T10:47:40Z</time>
      </trkpt>
      <trkpt lat="43.3894380" lon="-3.3167300">
        <ele>-11.6</ele>
        <time>2018-09-04T10:47:43Z</time>
      </trkpt>
      <trkpt lat="43.3894060" lon="-3.3167930">
        <ele>-11.6</ele>
        <time>2018-09-04T10:47:44Z</time>
      </trkpt>
      <trkpt lat="43.3893740" lon="-3.3168560">
        <ele>-11.6</ele>
        <time>2018-09-04T10:47:45Z</time>
      </trkpt>
      <trkpt lat="43.3892450" lon="-3.3171930">
        <ele>-11.2</ele>
        <time>2018-09-04T10:47:50Z</time>
      </trkpt>
      <trkpt lat="43.3892310" lon="-3.3172680">
        <ele>-11.2</ele>
        <time>2018-09-04T10:47:51Z</time>
      </trkpt>
      <trkpt lat="43.3891620" lon="-3.3176240">
        <ele>-11.0</ele>
        <time>2018-09-04T10:47:56Z</time>
      </trkpt>
      <trkpt lat="43.3890870" lon="-3.3178190">
        <ele>-10.6</ele>
        <time>2018-09-04T10:47:59Z</time>
      </trkpt>
      <trkpt lat="43.3890520" lon="-3.3178780">
        <ele>-10.6</ele>
        <time>2018-09-04T10:48:00Z</time>
      </trkpt>
      <trkpt lat="43.3890160" lon="-3.3179330">
        <ele>-10.6</ele>
        <time>2018-09-04T10:48:01Z</time>
      </trkpt>
      <trkpt lat="43.3889360" lon="-3.3180410">
        <ele>-10.8</ele>
        <time>2018-09-04T10:48:03Z</time>
      </trkpt>
      <trkpt lat="43.3887190" lon="-3.3182940">
        <ele>-11.0</ele>
        <time>2018-09-04T10:48:08Z</time>
      </trkpt>
      <trkpt lat="43.3882780" lon="-3.3186400">
        <ele>-10.4</ele>
        <time>2018-09-04T10:48:17Z</time>
      </trkpt>
      <trkpt lat="43.3882220" lon="-3.3186580">
        <ele>-10.4</ele>
        <time>2018-09-04T10:48:18Z</time>
      </trkpt>
      <trkpt lat="43.3879870" lon="-3.3186960">
        <ele>-10.8</ele>
        <time>2018-09-04T10:48:22Z</time>
      </trkpt>
      <trkpt lat="43.3875710" lon="-3.3187290">
        <ele>-10.8</ele>
        <time>2018-09-04T10:48:29Z</time>
      </trkpt>
      <trkpt lat="43.3875130" lon="-3.3187330">
        <ele>-10.6</ele>
        <time>2018-09-04T10:48:30Z</time>
      </trkpt>
      <trkpt lat="43.3872860" lon="-3.3187390">
        <ele>-10.4</ele>
        <time>2018-09-04T10:48:34Z</time>
      </trkpt>
      <trkpt lat="43.3871740" lon="-3.3187160">
        <ele>-10.4</ele>
        <time>2018-09-04T10:48:36Z</time>
      </trkpt>
      <trkpt lat="43.3868980" lon="-3.3186250">
        <ele>-10.2</ele>
        <time>2018-09-04T10:48:41Z</time>
      </trkpt>
      <trkpt lat="43.3867380" lon="-3.3185690">
        <ele>-10.2</ele>
        <time>2018-09-04T10:48:44Z</time>
      </trkpt>
      <trkpt lat="43.3864150" lon="-3.3184590">
        <ele>-10.2</ele>
        <time>2018-09-04T10:48:51Z</time>
      </trkpt>
      <trkpt lat="43.3860660" lon="-3.3183260">
        <ele>-9.8</ele>
        <time>2018-09-04T10:48:59Z</time>
      </trkpt>
      <trkpt lat="43.3858010" lon="-3.3182360">
        <ele>-10.0</ele>
        <time>2018-09-04T10:49:05Z</time>
      </trkpt>
      <trkpt lat="43.3856740" lon="-3.3182090">
        <ele>-10.0</ele>
        <time>2018-09-04T10:49:08Z</time>
      </trkpt>
      <trkpt lat="43.3854260" lon="-3.3181710">
        <ele>-9.6</ele>
        <time>2018-09-04T10:49:14Z</time>
      </trkpt>
      <trkpt lat="43.3852540" lon="-3.3181440">
        <ele>-10.2</ele>
        <time>2018-09-04T10:49:18Z</time>
      </trkpt>
      <trkpt lat="43.3850080" lon="-3.3181080">
        <ele>-10.0</ele>
        <time>2018-09-04T10:49:23Z</time>
      </trkpt>
      <trkpt lat="43.3847050" lon="-3.3180870">
        <ele>-10.2</ele>
        <time>2018-09-04T10:49:29Z</time>
      </trkpt>
      <trkpt lat="43.3842860" lon="-3.3181060">
        <ele>-10.8</ele>
        <time>2018-09-04T10:49:37Z</time>
      </trkpt>
      <trkpt lat="43.3842290" lon="-3.3181250">
        <ele>-10.8</ele>
        <time>2018-09-04T10:49:38Z</time>
      </trkpt>
      <trkpt lat="43.3841240" lon="-3.3181750">
        <ele>-11.0</ele>
        <time>2018-09-04T10:49:40Z</time>
      </trkpt>
      <trkpt lat="43.3840280" lon="-3.3182540">
        <ele>-10.8</ele>
        <time>2018-09-04T10:49:42Z</time>
      </trkpt>
      <trkpt lat="43.3836930" lon="-3.3185350">
        <ele>-11.0</ele>
        <time>2018-09-04T10:49:49Z</time>
      </trkpt>
      <trkpt lat="43.3833230" lon="-3.3188640">
        <ele>-10.2</ele>
        <time>2018-09-04T10:49:57Z</time>
      </trkpt>
      <trkpt lat="43.3831680" lon="-3.3189840">
        <ele>-10.2</ele>
        <time>2018-09-04T10:50:01Z</time>
      </trkpt>
      <trkpt lat="43.3830850" lon="-3.3190410">
        <ele>-10.2</ele>
        <time>2018-09-04T10:50:03Z</time>
      </trkpt>
      <trkpt lat="43.3828580" lon="-3.3191930">
        <ele>-10.0</ele>
        <time>2018-09-04T10:50:08Z</time>
      </trkpt>
      <trkpt lat="43.3827630" lon="-3.3192540">
        <ele>-10.2</ele>
        <time>2018-09-04T10:50:10Z</time>
      </trkpt>
      <trkpt lat="43.3823400" lon="-3.3194860">
        <ele>-10.4</ele>
        <time>2018-09-04T10:50:18Z</time>
      </trkpt>
      <trkpt lat="43.3818880" lon="-3.3196810">
        <ele>-10.4</ele>
        <time>2018-09-04T10:50:26Z</time>
      </trkpt>
      <trkpt lat="43.3816650" lon="-3.3197770">
        <ele>-10.8</ele>
        <time>2018-09-04T10:50:30Z</time>
      </trkpt>
      <trkpt lat="43.3813770" lon="-3.3199030">
        <ele>-11.0</ele>
        <time>2018-09-04T10:50:35Z</time>
      </trkpt>
      <trkpt lat="43.3808320" lon="-3.3201340">
        <ele>-11.2</ele>
        <time>2018-09-04T10:50:44Z</time>
      </trkpt>
      <trkpt lat="43.3803300" lon="-3.3203610">
        <ele>-11.6</ele>
        <time>2018-09-04T10:50:52Z</time>
      </trkpt>
      <trkpt lat="43.3802680" lon="-3.3203920">
        <ele>-11.6</ele>
        <time>2018-09-04T10:50:53Z</time>
      </trkpt>
      <trkpt lat="43.3798420" lon="-3.3205940">
        <ele>-11.4</ele>
        <time>2018-09-04T10:51:00Z</time>
      </trkpt>
      <trkpt lat="43.3796670" lon="-3.3206980">
        <ele>-12.0</ele>
        <time>2018-09-04T10:51:03Z</time>
      </trkpt>
      <trkpt lat="43.3794890" lon="-3.3208120">
        <ele>-12.0</ele>
        <time>2018-09-04T10:51:06Z</time>
      </trkpt>
      <trkpt lat="43.3794370" lon="-3.3208650">
        <ele>-12.2</ele>
        <time>2018-09-04T10:51:07Z</time>
      </trkpt>
      <trkpt lat="43.3793500" lon="-3.3210010">
        <ele>-12.6</ele>
        <time>2018-09-04T10:51:09Z</time>
      </trkpt>
      <trkpt lat="43.3793100" lon="-3.3210760">
        <ele>-12.6</ele>
        <time>2018-09-04T10:51:10Z</time>
      </trkpt>
      <trkpt lat="43.3792700" lon="-3.3211540">
        <ele>-12.6</ele>
        <time>2018-09-04T10:51:11Z</time>
      </trkpt>
      <trkpt lat="43.3792050" lon="-3.3213140">
        <ele>-13.6</ele>
        <time>2018-09-04T10:51:13Z</time>
      </trkpt>
      <trkpt lat="43.3791610" lon="-3.3214840">
        <ele>-13.4</ele>
        <time>2018-09-04T10:51:15Z</time>
      </trkpt>
      <trkpt lat="43.3791340" lon="-3.3218470">
        <ele>-13.6</ele>
        <time>2018-09-04T10:51:19Z</time>
      </trkpt>
      <trkpt lat="43.3791390" lon="-3.3219360">
        <ele>-13.8</ele>
        <time>2018-09-04T10:51:20Z</time>
      </trkpt>
      <trkpt lat="43.3791640" lon="-3.3221130">
        <ele>-13.8</ele>
        <time>2018-09-04T10:51:22Z</time>
      </trkpt>
      <trkpt lat="43.3792350" lon="-3.3223630">
        <ele>-14.0</ele>
        <time>2018-09-04T10:51:25Z</time>
      </trkpt>
      <trkpt lat="43.3794260" lon="-3.3226930">
        <ele>-13.6</ele>
        <time>2018-09-04T10:51:30Z</time>
      </trkpt>
      <trkpt lat="43.3795970" lon="-3.3228640">
        <ele>-12.2</ele>
        <time>2018-09-04T10:51:34Z</time>
      </trkpt>
      <trkpt lat="43.3796850" lon="-3.3229210">
        <ele>-12.0</ele>
        <time>2018-09-04T10:51:36Z</time>
      </trkpt>
      <trkpt lat="43.3797680" lon="-3.3229560">
        <ele>-11.6</ele>
        <time>2018-09-04T10:51:38Z</time>
      </trkpt>
      <trkpt lat="43.3798420" lon="-3.3229760">
        <ele>-11.2</ele>
        <time>2018-09-04T10:51:40Z</time>
      </trkpt>
      <trkpt lat="43.3798790" lon="-3.3229850">
        <ele>-10.8</ele>
        <time>2018-09-04T10:51:41Z</time>
      </trkpt>
      <trkpt lat="43.3799410" lon="-3.3229840">
        <ele>-10.0</ele>
        <time>2018-09-04T10:51:43Z</time>
      </trkpt>
      <trkpt lat="43.3800280" lon="-3.3229840">
        <ele>-9.4</ele>
        <time>2018-09-04T10:51:46Z</time>
      </trkpt>
      <trkpt lat="43.3800820" lon="-3.3229880">
        <ele>-9.0</ele>
        <time>2018-09-04T10:51:48Z</time>
      </trkpt>
      <trkpt lat="43.3801780" lon="-3.3229900">
        <ele>-8.8</ele>
        <time>2018-09-04T10:51:52Z</time>
      </trkpt>
      <trkpt lat="43.3802230" lon="-3.3229930">
        <ele>-8.2</ele>
        <time>2018-09-04T10:51:54Z</time>
      </trkpt>
      <trkpt lat="43.3802450" lon="-3.3229930">
        <ele>-7.2</ele>
        <time>2018-09-04T10:51:55Z</time>
      </trkpt>
      <trkpt lat="43.3803070" lon="-3.3230020">
        <ele>-7.2</ele>
        <time>2018-09-04T10:51:58Z</time>
      </trkpt>
      <trkpt lat="43.3803580" lon="-3.3229940">
        <ele>-7.0</ele>
        <time>2018-09-04T10:52:00Z</time>
      </trkpt>
      <trkpt lat="43.3804380" lon="-3.3229840">
        <ele>-6.6</ele>
        <time>2018-09-04T10:52:03Z</time>
      </trkpt>
      <trkpt lat="43.3804870" lon="-3.3229730">
        <ele>-6.2</ele>
        <time>2018-09-04T10:52:05Z</time>
      </trkpt>
      <trkpt lat="43.3805650" lon="-3.3229680">
        <ele>-5.6</ele>
        <time>2018-09-04T10:52:08Z</time>
      </trkpt>
      <trkpt lat="43.3806710" lon="-3.3229640">
        <ele>-5.0</ele>
        <time>2018-09-04T10:52:12Z</time>
      </trkpt>
      <trkpt lat="43.3807600" lon="-3.3229560">
        <ele>-4.4</ele>
        <time>2018-09-04T10:52:16Z</time>
      </trkpt>
      <trkpt lat="43.3808330" lon="-3.3229410">
        <ele>-3.8</ele>
        <time>2018-09-04T10:52:19Z</time>
      </trkpt>
      <trkpt lat="43.3809680" lon="-3.3229250">
        <ele>-3.2</ele>
        <time>2018-09-04T10:52:24Z</time>
      </trkpt>
      <trkpt lat="43.3810210" lon="-3.3229100">
        <ele>-2.8</ele>
        <time>2018-09-04T10:52:26Z</time>
      </trkpt>
      <trkpt lat="43.3811870" lon="-3.3228820">
        <ele>-1.8</ele>
        <time>2018-09-04T10:52:32Z</time>
      </trkpt>
      <trkpt lat="43.3813520" lon="-3.3228490">
        <ele>-0.6</ele>
        <time>2018-09-04T10:52:38Z</time>
      </trkpt>
      <trkpt lat="43.3813810" lon="-3.3228440">
        <ele>-0.6</ele>
        <time>2018-09-04T10:52:39Z</time>
      </trkpt>
      <trkpt lat="43.3815780" lon="-3.3228160">
        <ele>0.4</ele>
        <time>2018-09-04T10:52:45Z</time>
      </trkpt>
      <trkpt lat="43.3816120" lon="-3.3228110">
        <ele>0.6</ele>
        <time>2018-09-04T10:52:46Z</time>
      </trkpt>
      <trkpt lat="43.3816950" lon="-3.3227960">
        <ele>1.4</ele>
        <time>2018-09-04T10:52:49Z</time>
      </trkpt>
      <trkpt lat="43.3817690" lon="-3.3227880">
        <ele>2.0</ele>
        <time>2018-09-04T10:52:52Z</time>
      </trkpt>
      <trkpt lat="43.3818820" lon="-3.3227680">
        <ele>2.6</ele>
        <time>2018-09-04T10:52:56Z</time>
      </trkpt>
      <trkpt lat="43.3819430" lon="-3.3227530">
        <ele>3.0</ele>
        <time>2018-09-04T10:52:58Z</time>
      </trkpt>
      <trkpt lat="43.3820640" lon="-3.3227180">
        <ele>3.6</ele>
        <time>2018-09-04T10:53:02Z</time>
      </trkpt>
      <trkpt lat="43.3820890" lon="-3.3227090">
        <ele>3.8</ele>
        <time>2018-09-04T10:53:03Z</time>
      </trkpt>
      <trkpt lat="43.3822220" lon="-3.3226870">
        <ele>4.8</ele>
        <time>2018-09-04T10:53:08Z</time>
      </trkpt>
      <trkpt lat="43.3822490" lon="-3.3226800">
        <ele>4.8</ele>
        <time>2018-09-04T10:53:09Z</time>
      </trkpt>
      <trkpt lat="43.3823850" lon="-3.3226510">
        <ele>6.0</ele>
        <time>2018-09-04T10:53:14Z</time>
      </trkpt>
      <trkpt lat="43.3824160" lon="-3.3226420">
        <ele>6.2</ele>
        <time>2018-09-04T10:53:15Z</time>
      </trkpt>
      <trkpt lat="43.3825640" lon="-3.3225990">
        <ele>7.0</ele>
        <time>2018-09-04T10:53:20Z</time>
      </trkpt>
      <trkpt lat="43.3826210" lon="-3.3225810">
        <ele>7.4</ele>
        <time>2018-09-04T10:53:22Z</time>
      </trkpt>
      <trkpt lat="43.3827320" lon="-3.3225390">
        <ele>8.0</ele>
        <time>2018-09-04T10:53:26Z</time>
      </trkpt>
      <trkpt lat="43.3828100" lon="-3.3225260">
        <ele>8.8</ele>
        <time>2018-09-04T10:53:29Z</time>
      </trkpt>
      <trkpt lat="43.3828690" lon="-3.3225240">
        <ele>9.2</ele>
        <time>2018-09-04T10:53:31Z</time>
      </trkpt>
      <trkpt lat="43.3830090" lon="-3.3225210">
        <ele>10.4</ele>
        <time>2018-09-04T10:53:36Z</time>
      </trkpt>
      <trkpt lat="43.3831990" lon="-3.3225660">
        <ele>11.4</ele>
        <time>2018-09-04T10:53:43Z</time>
      </trkpt>
      <trkpt lat="43.3832280" lon="-3.3225710">
        <ele>11.6</ele>
        <time>2018-09-04T10:53:44Z</time>
      </trkpt>
      <trkpt lat="43.3833220" lon="-3.3226050">
        <ele>12.2</ele>
        <time>2018-09-04T10:53:48Z</time>
      </trkpt>
      <trkpt lat="43.3833470" lon="-3.3226110">
        <ele>12.4</ele>
        <time>2018-09-04T10:53:49Z</time>
      </trkpt>
      <trkpt lat="43.3834050" lon="-3.3226300">
        <ele>12.6</ele>
        <time>2018-09-04T10:53:51Z</time>
      </trkpt>
      <trkpt lat="43.3835160" lon="-3.3226590">
        <ele>13.4</ele>
        <time>2018-09-04T10:53:55Z</time>
      </trkpt>
      <trkpt lat="43.3836370" lon="-3.3227010">
        <ele>14.6</ele>
        <time>2018-09-04T10:54:00Z</time>
      </trkpt>
      <trkpt lat="43.3837770" lon="-3.3227340">
        <ele>15.6</ele>
        <time>2018-09-04T10:54:06Z</time>
      </trkpt>
      <trkpt lat="43.3837990" lon="-3.3227390">
        <ele>15.6</ele>
        <time>2018-09-04T10:54:07Z</time>
      </trkpt>
      <trkpt lat="43.3839190" lon="-3.3227800">
        <ele>16.4</ele>
        <time>2018-09-04T10:54:12Z</time>
      </trkpt>
      <trkpt lat="43.3839680" lon="-3.3227940">
        <ele>16.6</ele>
        <time>2018-09-04T10:54:14Z</time>
      </trkpt>
      <trkpt lat="43.3839900" lon="-3.3228030">
        <ele>16.8</ele>
        <time>2018-09-04T10:54:15Z</time>
      </trkpt>
      <trkpt lat="43.3840920" lon="-3.3228360">
        <ele>17.8</ele>
        <time>2018-09-04T10:54:19Z</time>
      </trkpt>
      <trkpt lat="43.3841610" lon="-3.3228560">
        <ele>18.2</ele>
        <time>2018-09-04T10:54:22Z</time>
      </trkpt>
      <trkpt lat="43.3842280" lon="-3.3228980">
        <ele>18.8</ele>
        <time>2018-09-04T10:54:25Z</time>
      </trkpt>
      <trkpt lat="43.3843100" lon="-3.3229650">
        <ele>19.4</ele>
        <time>2018-09-04T10:54:29Z</time>
      </trkpt>
      <trkpt lat="43.3843680" lon="-3.3230250">
        <ele>19.8</ele>
        <time>2018-09-04T10:54:32Z</time>
      </trkpt>
      <trkpt lat="43.3844330" lon="-3.3231290">
        <ele>20.4</ele>
        <time>2018-09-04T10:54:36Z</time>
      </trkpt>
      <trkpt lat="43.3845000" lon="-3.3232700">
        <ele>21.0</ele>
        <time>2018-09-04T10:54:41Z</time>
      </trkpt>
      <trkpt lat="43.3845380" lon="-3.3233510">
        <ele>21.4</ele>
        <time>2018-09-04T10:54:44Z</time>
      </trkpt>
      <trkpt lat="43.3845780" lon="-3.3234630">
        <ele>22.2</ele>
        <time>2018-09-04T10:54:48Z</time>
      </trkpt>
      <trkpt lat="43.3846120" lon="-3.3235750">
        <ele>23.0</ele>
        <time>2018-09-04T10:54:52Z</time>
      </trkpt>
      <trkpt lat="43.3846310" lon="-3.3236320">
        <ele>23.4</ele>
        <time>2018-09-04T10:54:54Z</time>
      </trkpt>
      <trkpt lat="43.3846690" lon="-3.3238130">
        <ele>24.2</ele>
        <time>2018-09-04T10:55:00Z</time>
      </trkpt>
      <trkpt lat="43.3846710" lon="-3.3238450">
        <ele>24.4</ele>
        <time>2018-09-04T10:55:01Z</time>
      </trkpt>
      <trkpt lat="43.3846970" lon="-3.3240350">
        <ele>25.6</ele>
        <time>2018-09-04T10:55:07Z</time>
      </trkpt>
      <trkpt lat="43.3846810" lon="-3.3242740">
        <ele>26.8</ele>
        <time>2018-09-04T10:55:14Z</time>
      </trkpt>
      <trkpt lat="43.3846490" lon="-3.3244660">
        <ele>28.0</ele>
        <time>2018-09-04T10:55:20Z</time>
      </trkpt>
      <trkpt lat="43.3846430" lon="-3.3245300">
        <ele>28.4</ele>
        <time>2018-09-04T10:55:22Z</time>
      </trkpt>
      <trkpt lat="43.3846410" lon="-3.3246580">
        <ele>29.0</ele>
        <time>2018-09-04T10:55:26Z</time>
      </trkpt>
      <trkpt lat="43.3846640" lon="-3.3248070">
        <ele>30.0</ele>
        <time>2018-09-04T10:55:31Z</time>
      </trkpt>
      <trkpt lat="43.3846750" lon="-3.3248350">
        <ele>30.2</ele>
        <time>2018-09-04T10:55:32Z</time>
      </trkpt>
      <trkpt lat="43.3847640" lon="-3.3249910">
        <ele>31.0</ele>
        <time>2018-09-04T10:55:38Z</time>
      </trkpt>
      <trkpt lat="43.3847950" lon="-3.3250380">
        <ele>31.2</ele>
        <time>2018-09-04T10:55:40Z</time>
      </trkpt>
      <trkpt lat="43.3848960" lon="-3.3251740">
        <ele>32.4</ele>
        <time>2018-09-04T10:55:46Z</time>
      </trkpt>
      <trkpt lat="43.3849950" lon="-3.3253210">
        <ele>33.2</ele>
        <time>2018-09-04T10:55:52Z</time>
      </trkpt>
      <trkpt lat="43.3850110" lon="-3.3253470">
        <ele>33.4</ele>
        <time>2018-09-04T10:55:53Z</time>
      </trkpt>
      <trkpt lat="43.3851290" lon="-3.3255150">
        <ele>34.4</ele>
        <time>2018-09-04T10:56:00Z</time>
      </trkpt>
      <trkpt lat="43.3852320" lon="-3.3256840">
        <ele>35.6</ele>
        <time>2018-09-04T10:56:07Z</time>
      </trkpt>
      <trkpt lat="43.3852940" lon="-3.3258610">
        <ele>36.6</ele>
        <time>2018-09-04T10:56:13Z</time>
      </trkpt>
      <trkpt lat="43.3853030" lon="-3.3258920">
        <ele>36.8</ele>
        <time>2018-09-04T10:56:14Z</time>
      </trkpt>
      <trkpt lat="43.3853550" lon="-3.3261150">
        <ele>37.8</ele>
        <time>2018-09-04T10:56:21Z</time>
      </trkpt>
      <trkpt lat="43.3853880" lon="-3.3262900">
        <ele>38.8</ele>
        <time>2018-09-04T10:56:27Z</time>
      </trkpt>
      <trkpt lat="43.3854090" lon="-3.3264470">
        <ele>39.8</ele>
        <time>2018-09-04T10:56:32Z</time>
      </trkpt>
      <trkpt lat="43.3854100" lon="-3.3264800">
        <ele>40.0</ele>
        <time>2018-09-04T10:56:33Z</time>
      </trkpt>
      <trkpt lat="43.3854060" lon="-3.3265460">
        <ele>40.4</ele>
        <time>2018-09-04T10:56:35Z</time>
      </trkpt>
      <trkpt lat="43.3853980" lon="-3.3267110">
        <ele>41.0</ele>
        <time>2018-09-04T10:56:40Z</time>
      </trkpt>
      <trkpt lat="43.3853910" lon="-3.3268130">
        <ele>41.6</ele>
        <time>2018-09-04T10:56:43Z</time>
      </trkpt>
      <trkpt lat="43.3853930" lon="-3.3269460">
        <ele>42.2</ele>
        <time>2018-09-04T10:56:47Z</time>
      </trkpt>
      <trkpt lat="43.3853880" lon="-3.3270100">
        <ele>42.6</ele>
        <time>2018-09-04T10:56:49Z</time>
      </trkpt>
      <trkpt lat="43.3853820" lon="-3.3271060">
        <ele>43.2</ele>
        <time>2018-09-04T10:56:52Z</time>
      </trkpt>
      <trkpt lat="43.3853940" lon="-3.3272400">
        <ele>43.8</ele>
        <time>2018-09-04T10:56:56Z</time>
      </trkpt>
      <trkpt lat="43.3854100" lon="-3.3273630">
        <ele>44.4</ele>
        <time>2018-09-04T10:57:00Z</time>
      </trkpt>
      <trkpt lat="43.3854390" lon="-3.3274510">
        <ele>45.0</ele>
        <time>2018-09-04T10:57:03Z</time>
      </trkpt>
      <trkpt lat="43.3854890" lon="-3.3275130">
        <ele>45.4</ele>
        <time>2018-09-04T10:57:06Z</time>
      </trkpt>
      <trkpt lat="43.3855550" lon="-3.3275390">
        <ele>46.0</ele>
        <time>2018-09-04T10:57:09Z</time>
      </trkpt>
      <trkpt lat="43.3856240" lon="-3.3275510">
        <ele>46.4</ele>
        <time>2018-09-04T10:57:12Z</time>
      </trkpt>
      <trkpt lat="43.3857450" lon="-3.3275540">
        <ele>47.4</ele>
        <time>2018-09-04T10:57:17Z</time>
      </trkpt>
      <trkpt lat="43.3857680" lon="-3.3275500">
        <ele>47.6</ele>
        <time>2018-09-04T10:57:18Z</time>
      </trkpt>
      <trkpt lat="43.3858990" lon="-3.3275280">
        <ele>48.6</ele>
        <time>2018-09-04T10:57:24Z</time>
      </trkpt>
      <trkpt lat="43.3859400" lon="-3.3275180">
        <ele>49.0</ele>
        <time>2018-09-04T10:57:26Z</time>
      </trkpt>
      <trkpt lat="43.3860040" lon="-3.3275040">
        <ele>49.6</ele>
        <time>2018-09-04T10:57:29Z</time>
      </trkpt>
      <trkpt lat="43.3860750" lon="-3.3275010">
        <ele>50.6</ele>
        <time>2018-09-04T10:57:33Z</time>
      </trkpt>
      <trkpt lat="43.3860930" lon="-3.3275020">
        <ele>50.8</ele>
        <time>2018-09-04T10:57:34Z</time>
      </trkpt>
      <trkpt lat="43.3862100" lon="-3.3275580">
        <ele>51.4</ele>
        <time>2018-09-04T10:57:40Z</time>
      </trkpt>
      <trkpt lat="43.3862260" lon="-3.3275780">
        <ele>52.0</ele>
        <time>2018-09-04T10:57:41Z</time>
      </trkpt>
      <trkpt lat="43.3862940" lon="-3.3277120">
        <ele>52.6</ele>
        <time>2018-09-04T10:57:46Z</time>
      </trkpt>
      <trkpt lat="43.3863120" lon="-3.3278150">
        <ele>53.0</ele>
        <time>2018-09-04T10:57:49Z</time>
      </trkpt>
      <trkpt lat="43.3862990" lon="-3.3279290">
        <ele>53.6</ele>
        <time>2018-09-04T10:57:52Z</time>
      </trkpt>
      <trkpt lat="43.3862540" lon="-3.3281160">
        <ele>54.2</ele>
        <time>2018-09-04T10:57:57Z</time>
      </trkpt>
      <trkpt lat="43.3862190" lon="-3.3282240">
        <ele>54.6</ele>
        <time>2018-09-04T10:58:00Z</time>
      </trkpt>
      <trkpt lat="43.3861680" lon="-3.3283700">
        <ele>55.2</ele>
        <time>2018-09-04T10:58:04Z</time>
      </trkpt>
      <trkpt lat="43.3861340" lon="-3.3284880">
        <ele>55.6</ele>
        <time>2018-09-04T10:58:07Z</time>
      </trkpt>
      <trkpt lat="43.3860860" lon="-3.3286670">
        <ele>56.4</ele>
        <time>2018-09-04T10:58:12Z</time>
      </trkpt>
      <trkpt lat="43.3860790" lon="-3.3287290">
        <ele>56.8</ele>
        <time>2018-09-04T10:58:14Z</time>
      </trkpt>
      <trkpt lat="43.3860710" lon="-3.3288430">
        <ele>57.4</ele>
        <time>2018-09-04T10:58:18Z</time>
      </trkpt>
      <trkpt lat="43.3860840" lon="-3.3289350">
        <ele>58.0</ele>
        <time>2018-09-04T10:58:21Z</time>
      </trkpt>
      <trkpt lat="43.3861070" lon="-3.3289870">
        <ele>58.6</ele>
        <time>2018-09-04T10:58:23Z</time>
      </trkpt>
      <trkpt lat="43.3861560" lon="-3.3290450">
        <ele>59.4</ele>
        <time>2018-09-04T10:58:26Z</time>
      </trkpt>
      <trkpt lat="43.3861930" lon="-3.3290740">
        <ele>59.8</ele>
        <time>2018-09-04T10:58:28Z</time>
      </trkpt>
      <trkpt lat="43.3862590" lon="-3.3291030">
        <ele>60.2</ele>
        <time>2018-09-04T10:58:31Z</time>
      </trkpt>
      <trkpt lat="43.3863890" lon="-3.3291120">
        <ele>60.8</ele>
        <time>2018-09-04T10:58:36Z</time>
      </trkpt>
      <trkpt lat="43.3864410" lon="-3.3291280">
        <ele>61.2</ele>
        <time>2018-09-04T10:58:38Z</time>
      </trkpt>
      <trkpt lat="43.3866100" lon="-3.3291380">
        <ele>62.0</ele>
        <time>2018-09-04T10:58:44Z</time>
      </trkpt>
      <trkpt lat="43.3866350" lon="-3.3291370">
        <ele>62.2</ele>
        <time>2018-09-04T10:58:45Z</time>
      </trkpt>
      <trkpt lat="43.3867770" lon="-3.3291460">
        <ele>63.2</ele>
        <time>2018-09-04T10:58:50Z</time>
      </trkpt>
      <trkpt lat="43.3868010" lon="-3.3291470">
        <ele>63.4</ele>
        <time>2018-09-04T10:58:51Z</time>
      </trkpt>
      <trkpt lat="43.3869350" lon="-3.3291490">
        <ele>64.4</ele>
        <time>2018-09-04T10:58:56Z</time>
      </trkpt>
      <trkpt lat="43.3870890" lon="-3.3291600">
        <ele>65.4</ele>
        <time>2018-09-04T10:59:02Z</time>
      </trkpt>
      <trkpt lat="43.3871850" lon="-3.3291650">
        <ele>66.4</ele>
        <time>2018-09-04T10:59:06Z</time>
      </trkpt>
      <trkpt lat="43.3872420" lon="-3.3291630">
        <ele>67.0</ele>
        <time>2018-09-04T10:59:08Z</time>
      </trkpt>
      <trkpt lat="43.3873220" lon="-3.3291800">
        <ele>67.6</ele>
        <time>2018-09-04T10:59:11Z</time>
      </trkpt>
      <trkpt lat="43.3873900" lon="-3.3291990">
        <ele>68.6</ele>
        <time>2018-09-04T10:59:14Z</time>
      </trkpt>
      <trkpt lat="43.3874130" lon="-3.3292050">
        <ele>68.8</ele>
        <time>2018-09-04T10:59:15Z</time>
      </trkpt>
      <trkpt lat="43.3875520" lon="-3.3293200">
        <ele>69.6</ele>
        <time>2018-09-04T10:59:21Z</time>
      </trkpt>
      <trkpt lat="43.3875860" lon="-3.3293780">
        <ele>70.0</ele>
        <time>2018-09-04T10:59:23Z</time>
      </trkpt>
      <trkpt lat="43.3877520" lon="-3.3296310">
        <ele>71.0</ele>
        <time>2018-09-04T10:59:32Z</time>
      </trkpt>
      <trkpt lat="43.3878660" lon="-3.3297140">
        <ele>72.2</ele>
        <time>2018-09-04T10:59:37Z</time>
      </trkpt>
      <trkpt lat="43.3879200" lon="-3.3297180">
        <ele>72.6</ele>
        <time>2018-09-04T10:59:39Z</time>
      </trkpt>
      <trkpt lat="43.3880360" lon="-3.3297150">
        <ele>73.2</ele>
        <time>2018-09-04T10:59:43Z</time>
      </trkpt>
      <trkpt lat="43.3880900" lon="-3.3297100">
        <ele>73.6</ele>
        <time>2018-09-04T10:59:45Z</time>
      </trkpt>
      <trkpt lat="43.3882200" lon="-3.3296530">
        <ele>74.2</ele>
        <time>2018-09-04T10:59:50Z</time>
      </trkpt>
      <trkpt lat="43.3882730" lon="-3.3296340">
        <ele>74.8</ele>
        <time>2018-09-04T10:59:52Z</time>
      </trkpt>
      <trkpt lat="43.3883470" lon="-3.3296180">
        <ele>75.4</ele>
        <time>2018-09-04T10:59:55Z</time>
      </trkpt>
      <trkpt lat="43.3884430" lon="-3.3296280">
        <ele>76.2</ele>
        <time>2018-09-04T10:59:59Z</time>
      </trkpt>
      <trkpt lat="43.3884660" lon="-3.3296420">
        <ele>76.4</ele>
        <time>2018-09-04T11:00:00Z</time>
      </trkpt>
      <trkpt lat="43.3885710" lon="-3.3297230">
        <ele>77.2</ele>
        <time>2018-09-04T11:00:05Z</time>
      </trkpt>
      <trkpt lat="43.3886090" lon="-3.3297650">
        <ele>77.8</ele>
        <time>2018-09-04T11:00:07Z</time>
      </trkpt>
      <trkpt lat="43.3886840" lon="-3.3298980">
        <ele>78.8</ele>
        <time>2018-09-04T11:00:12Z</time>
      </trkpt>
      <trkpt lat="43.3887730" lon="-3.3300940">
        <ele>79.8</ele>
        <time>2018-09-04T11:00:18Z</time>
      </trkpt>
      <trkpt lat="43.3887850" lon="-3.3301280">
        <ele>80.0</ele>
        <time>2018-09-04T11:00:19Z</time>
      </trkpt>
      <trkpt lat="43.3887950" lon="-3.3301630">
        <ele>80.2</ele>
        <time>2018-09-04T11:00:20Z</time>
      </trkpt>
      <trkpt lat="43.3888480" lon="-3.3303210">
        <ele>81.2</ele>
        <time>2018-09-04T11:00:25Z</time>
      </trkpt>
      <trkpt lat="43.3888840" lon="-3.3304190">
        <ele>81.6</ele>
        <time>2018-09-04T11:00:28Z</time>
      </trkpt>
      <trkpt lat="43.3889200" lon="-3.3305180">
        <ele>82.0</ele>
        <time>2018-09-04T11:00:31Z</time>
      </trkpt>
      <trkpt lat="43.3889270" lon="-3.3305490">
        <ele>82.2</ele>
        <time>2018-09-04T11:00:32Z</time>
      </trkpt>
      <trkpt lat="43.3889750" lon="-3.3307050">
        <ele>83.0</ele>
        <time>2018-09-04T11:00:37Z</time>
      </trkpt>
      <trkpt lat="43.3889970" lon="-3.3307680">
        <ele>83.2</ele>
        <time>2018-09-04T11:00:39Z</time>
      </trkpt>
      <trkpt lat="43.3890740" lon="-3.3309520">
        <ele>84.4</ele>
        <time>2018-09-04T11:00:45Z</time>
      </trkpt>
      <trkpt lat="43.3890840" lon="-3.3309820">
        <ele>84.6</ele>
        <time>2018-09-04T11:00:46Z</time>
      </trkpt>
      <trkpt lat="43.3891300" lon="-3.3310950">
        <ele>85.8</ele>
        <time>2018-09-04T11:00:50Z</time>
      </trkpt>
      <trkpt lat="43.3891870" lon="-3.3312230">
        <ele>86.4</ele>
        <time>2018-09-04T11:00:55Z</time>
      </trkpt>
      <trkpt lat="43.3892400" lon="-3.3313610">
        <ele>86.8</ele>
        <time>2018-09-04T11:01:00Z</time>
      </trkpt>
      <trkpt lat="43.3892750" lon="-3.3314430">
        <ele>87.2</ele>
        <time>2018-09-04T11:01:03Z</time>
      </trkpt>
      <trkpt lat="43.3893220" lon="-3.3315460">
        <ele>87.8</ele>
        <time>2018-09-04T11:01:07Z</time>
      </trkpt>
      <trkpt lat="43.3893550" lon="-3.3316260">
        <ele>88.2</ele>
        <time>2018-09-04T11:01:10Z</time>
      </trkpt>
      <trkpt lat="43.3893850" lon="-3.3317070">
        <ele>89.0</ele>
        <time>2018-09-04T11:01:13Z</time>
      </trkpt>
      <trkpt lat="43.3894290" lon="-3.3318070">
        <ele>89.6</ele>
        <time>2018-09-04T11:01:17Z</time>
      </trkpt>
      <trkpt lat="43.3895030" lon="-3.3319760">
        <ele>90.0</ele>
        <time>2018-09-04T11:01:23Z</time>
      </trkpt>
      <trkpt lat="43.3895300" lon="-3.3320350">
        <ele>90.4</ele>
        <time>2018-09-04T11:01:25Z</time>
      </trkpt>
      <trkpt lat="43.3896070" lon="-3.3321870">
        <ele>91.2</ele>
        <time>2018-09-04T11:01:30Z</time>
      </trkpt>
      <trkpt lat="43.3896690" lon="-3.3322950">
        <ele>92.0</ele>
        <time>2018-09-04T11:01:34Z</time>
      </trkpt>
      <trkpt lat="43.3896840" lon="-3.3323250">
        <ele>92.2</ele>
        <time>2018-09-04T11:01:35Z</time>
      </trkpt>
      <trkpt lat="43.3897940" lon="-3.3324730">
        <ele>93.2</ele>
        <time>2018-09-04T11:01:41Z</time>
      </trkpt>
      <trkpt lat="43.3898160" lon="-3.3324930">
        <ele>93.4</ele>
        <time>2018-09-04T11:01:42Z</time>
      </trkpt>
      <trkpt lat="43.3899140" lon="-3.3326080">
        <ele>94.4</ele>
        <time>2018-09-04T11:01:47Z</time>
      </trkpt>
      <trkpt lat="43.3900150" lon="-3.3327460">
        <ele>95.0</ele>
        <time>2018-09-04T11:01:52Z</time>
      </trkpt>
      <trkpt lat="43.3900460" lon="-3.3328000">
        <ele>95.4</ele>
        <time>2018-09-04T11:01:54Z</time>
      </trkpt>
      <trkpt lat="43.3901390" lon="-3.3329640">
        <ele>96.6</ele>
        <time>2018-09-04T11:02:00Z</time>
      </trkpt>
      <trkpt lat="43.3902030" lon="-3.3330860">
        <ele>97.4</ele>
        <time>2018-09-04T11:02:04Z</time>
      </trkpt>
      <trkpt lat="43.3902150" lon="-3.3331160">
        <ele>97.6</ele>
        <time>2018-09-04T11:02:05Z</time>
      </trkpt>
      <trkpt lat="43.3902960" lon="-3.3332520">
        <ele>98.4</ele>
        <time>2018-09-04T11:02:11Z</time>
      </trkpt>
      <trkpt lat="43.3903210" lon="-3.3333130">
        <ele>98.8</ele>
        <time>2018-09-04T11:02:13Z</time>
      </trkpt>
      <trkpt lat="43.3903600" lon="-3.3334120">
        <ele>99.0</ele>
        <time>2018-09-04T11:02:16Z</time>
      </trkpt>
      <trkpt lat="43.3904410" lon="-3.3335990">
        <ele>99.8</ele>
        <time>2018-09-04T11:02:22Z</time>
      </trkpt>
      <trkpt lat="43.3904540" lon="-3.3336360">
        <ele>100.0</ele>
        <time>2018-09-04T11:02:23Z</time>
      </trkpt>
      <trkpt lat="43.3904990" lon="-3.3337920">
        <ele>101.0</ele>
        <time>2018-09-04T11:02:27Z</time>
      </trkpt>
      <trkpt lat="43.3905390" lon="-3.3339590">
        <ele>101.2</ele>
        <time>2018-09-04T11:02:31Z</time>
      </trkpt>
      <trkpt lat="43.3905720" lon="-3.3342320">
        <ele>102.2</ele>
        <time>2018-09-04T11:02:37Z</time>
      </trkpt>
      <trkpt lat="43.3905850" lon="-3.3343270">
        <ele>102.6</ele>
        <time>2018-09-04T11:02:39Z</time>
      </trkpt>
      <trkpt lat="43.3906140" lon="-3.3346560">
        <ele>102.8</ele>
        <time>2018-09-04T11:02:46Z</time>
      </trkpt>
      <trkpt lat="43.3906280" lon="-3.3350020">
        <ele>103.4</ele>
        <time>2018-09-04T11:02:52Z</time>
      </trkpt>
      <trkpt lat="43.3906530" lon="-3.3352870">
        <ele>104.0</ele>
        <time>2018-09-04T11:02:57Z</time>
      </trkpt>
      <trkpt lat="43.3906660" lon="-3.3355080">
        <ele>104.0</ele>
        <time>2018-09-04T11:03:01Z</time>
      </trkpt>
      <trkpt lat="43.3906740" lon="-3.3356220">
        <ele>104.2</ele>
        <time>2018-09-04T11:03:03Z</time>
      </trkpt>
      <trkpt lat="43.3906760" lon="-3.3356780">
        <ele>104.4</ele>
        <time>2018-09-04T11:03:04Z</time>
      </trkpt>
      <trkpt lat="43.3907100" lon="-3.3360140">
        <ele>105.2</ele>
        <time>2018-09-04T11:03:10Z</time>
      </trkpt>
      <trkpt lat="43.3907460" lon="-3.3361800">
        <ele>105.4</ele>
        <time>2018-09-04T11:03:13Z</time>
      </trkpt>
      <trkpt lat="43.3907610" lon="-3.3362340">
        <ele>105.6</ele>
        <time>2018-09-04T11:03:14Z</time>
      </trkpt>
      <trkpt lat="43.3908220" lon="-3.3363910">
        <ele>106.2</ele>
        <time>2018-09-04T11:03:17Z</time>
      </trkpt>
      <trkpt lat="43.3909870" lon="-3.3367080">
        <ele>106.8</ele>
        <time>2018-09-04T11:03:24Z</time>
      </trkpt>
      <trkpt lat="43.3910570" lon="-3.3368200">
        <ele>108.0</ele>
        <time>2018-09-04T11:03:27Z</time>
      </trkpt>
      <trkpt lat="43.3912040" lon="-3.3370510">
        <ele>108.8</ele>
        <time>2018-09-04T11:03:33Z</time>
      </trkpt>
      <trkpt lat="43.3912980" lon="-3.3372090">
        <ele>109.2</ele>
        <time>2018-09-04T11:03:37Z</time>
      </trkpt>
      <trkpt lat="43.3913380" lon="-3.3372910">
        <ele>109.4</ele>
        <time>2018-09-04T11:03:39Z</time>
      </trkpt>
      <trkpt lat="43.3914420" lon="-3.3375680">
        <ele>110.4</ele>
        <time>2018-09-04T11:03:45Z</time>
      </trkpt>
      <trkpt lat="43.3914700" lon="-3.3376760">
        <ele>111.6</ele>
        <time>2018-09-04T11:03:47Z</time>
      </trkpt>
      <trkpt lat="43.3915140" lon="-3.3380250">
        <ele>111.0</ele>
        <time>2018-09-04T11:03:53Z</time>
      </trkpt>
      <trkpt lat="43.3915090" lon="-3.3380850">
        <ele>111.0</ele>
        <time>2018-09-04T11:03:54Z</time>
      </trkpt>
      <trkpt lat="43.3914750" lon="-3.3383350">
        <ele>111.0</ele>
        <time>2018-09-04T11:03:58Z</time>
      </trkpt>
      <trkpt lat="43.3914610" lon="-3.3383970">
        <ele>111.0</ele>
        <time>2018-09-04T11:03:59Z</time>
      </trkpt>
      <trkpt lat="43.3913820" lon="-3.3387240">
        <ele>110.8</ele>
        <time>2018-09-04T11:04:04Z</time>
      </trkpt>
      <trkpt lat="43.3913400" lon="-3.3388520">
        <ele>111.2</ele>
        <time>2018-09-04T11:04:06Z</time>
      </trkpt>
      <trkpt lat="43.3912200" lon="-3.3391830">
        <ele>111.2</ele>
        <time>2018-09-04T11:04:11Z</time>
      </trkpt>
      <trkpt lat="43.3911760" lon="-3.3393210">
        <ele>110.6</ele>
        <time>2018-09-04T11:04:13Z</time>
      </trkpt>
      <trkpt lat="43.3911530" lon="-3.3393830">
        <ele>110.4</ele>
        <time>2018-09-04T11:04:14Z</time>
      </trkpt>
      <trkpt lat="43.3910360" lon="-3.3397800">
        <ele>110.4</ele>
        <time>2018-09-04T11:04:20Z</time>
      </trkpt>
      <trkpt lat="43.3909520" lon="-3.3403460">
        <ele>110.0</ele>
        <time>2018-09-04T11:04:28Z</time>
      </trkpt>
      <trkpt lat="43.3909890" lon="-3.3407790">
        <ele>110.8</ele>
        <time>2018-09-04T11:04:34Z</time>
      </trkpt>
      <trkpt lat="43.3911120" lon="-3.3412810">
        <ele>111.0</ele>
        <time>2018-09-04T11:04:41Z</time>
      </trkpt>
      <trkpt lat="43.3912250" lon="-3.3416230">
        <ele>111.4</ele>
        <time>2018-09-04T11:04:46Z</time>
      </trkpt>
      <trkpt lat="43.3912950" lon="-3.3418440">
        <ele>111.8</ele>
        <time>2018-09-04T11:04:49Z</time>
      </trkpt>
      <trkpt lat="43.3915060" lon="-3.3423260">
        <ele>111.4</ele>
        <time>2018-09-04T11:04:56Z</time>
      </trkpt>
      <trkpt lat="43.3916590" lon="-3.3425510">
        <ele>111.8</ele>
        <time>2018-09-04T11:05:00Z</time>
      </trkpt>
      <trkpt lat="43.3917900" lon="-3.3426960">
        <ele>111.4</ele>
        <time>2018-09-04T11:05:03Z</time>
      </trkpt>
      <trkpt lat="43.3920780" lon="-3.3429240">
        <ele>111.8</ele>
        <time>2018-09-04T11:05:09Z</time>
      </trkpt>
      <trkpt lat="43.3923790" lon="-3.3431340">
        <ele>112.2</ele>
        <time>2018-09-04T11:05:15Z</time>
      </trkpt>
      <trkpt lat="43.3925220" lon="-3.3432350">
        <ele>112.6</ele>
        <time>2018-09-04T11:05:18Z</time>
      </trkpt>
      <trkpt lat="43.3927320" lon="-3.3433690">
        <ele>112.6</ele>
        <time>2018-09-04T11:05:22Z</time>
      </trkpt>
      <trkpt lat="43.3928160" lon="-3.3434460">
        <ele>113.0</ele>
        <time>2018-09-04T11:05:24Z</time>
      </trkpt>
      <trkpt lat="43.3929420" lon="-3.3435710">
        <ele>113.2</ele>
        <time>2018-09-04T11:05:27Z</time>
      </trkpt>
      <trkpt lat="43.3932050" lon="-3.3438800">
        <ele>113.4</ele>
        <time>2018-09-04T11:05:33Z</time>
      </trkpt>
      <trkpt lat="43.3932570" lon="-3.3439340">
        <ele>113.4</ele>
        <time>2018-09-04T11:05:34Z</time>
      </trkpt>
      <trkpt lat="43.3933930" lon="-3.3441010">
        <ele>113.8</ele>
        <time>2018-09-04T11:05:37Z</time>
      </trkpt>
      <trkpt lat="43.3934760" lon="-3.3442120">
        <ele>113.8</ele>
        <time>2018-09-04T11:05:39Z</time>
      </trkpt>
      <trkpt lat="43.3937090" lon="-3.3446770">
        <ele>114.0</ele>
        <time>2018-09-04T11:05:46Z</time>
      </trkpt>
      <trkpt lat="43.3937440" lon="-3.3448330">
        <ele>113.8</ele>
        <time>2018-09-04T11:05:48Z</time>
      </trkpt>
      <trkpt lat="43.3937620" lon="-3.3450800">
        <ele>114.0</ele>
        <time>2018-09-04T11:05:51Z</time>
      </trkpt>
      <trkpt lat="43.3937540" lon="-3.3452440">
        <ele>114.2</ele>
        <time>2018-09-04T11:05:53Z</time>
      </trkpt>
      <trkpt lat="43.3937400" lon="-3.3453260">
        <ele>114.4</ele>
        <time>2018-09-04T11:05:54Z</time>
      </trkpt>
      <trkpt lat="43.3937220" lon="-3.3454060">
        <ele>114.6</ele>
        <time>2018-09-04T11:05:55Z</time>
      </trkpt>
      <trkpt lat="43.3936700" lon="-3.3455620">
        <ele>114.8</ele>
        <time>2018-09-04T11:05:57Z</time>
      </trkpt>
      <trkpt lat="43.3936420" lon="-3.3456420">
        <ele>114.8</ele>
        <time>2018-09-04T11:05:58Z</time>
      </trkpt>
      <trkpt lat="43.3935880" lon="-3.3457970">
        <ele>115.0</ele>
        <time>2018-09-04T11:06:00Z</time>
      </trkpt>
      <trkpt lat="43.3935510" lon="-3.3458690">
        <ele>115.0</ele>
        <time>2018-09-04T11:06:01Z</time>
      </trkpt>
      <trkpt lat="43.3934480" lon="-3.3460880">
        <ele>115.0</ele>
        <time>2018-09-04T11:06:04Z</time>
      </trkpt>
      <trkpt lat="43.3931530" lon="-3.3467400">
        <ele>115.0</ele>
        <time>2018-09-04T11:06:13Z</time>
      </trkpt>
      <trkpt lat="43.3929560" lon="-3.3471810">
        <ele>115.2</ele>
        <time>2018-09-04T11:06:19Z</time>
      </trkpt>
      <trkpt lat="43.3927130" lon="-3.3476700">
        <ele>115.6</ele>
        <time>2018-09-04T11:06:26Z</time>
      </trkpt>
      <trkpt lat="43.3924890" lon="-3.3481040">
        <ele>115.6</ele>
        <time>2018-09-04T11:06:33Z</time>
      </trkpt>
      <trkpt lat="43.3924570" lon="-3.3481600">
        <ele>115.8</ele>
        <time>2018-09-04T11:06:34Z</time>
      </trkpt>
      <trkpt lat="43.3924170" lon="-3.3482140">
        <ele>116.0</ele>
        <time>2018-09-04T11:06:35Z</time>
      </trkpt>
      <trkpt lat="43.3922550" lon="-3.3484640">
        <ele>116.2</ele>
        <time>2018-09-04T11:06:39Z</time>
      </trkpt>
      <trkpt lat="43.3919500" lon="-3.3488020">
        <ele>115.8</ele>
        <time>2018-09-04T11:06:45Z</time>
      </trkpt>
      <trkpt lat="43.3918370" lon="-3.3489220">
        <ele>114.4</ele>
        <time>2018-09-04T11:06:47Z</time>
      </trkpt>
      <trkpt lat="43.3917190" lon="-3.3490410">
        <ele>114.4</ele>
        <time>2018-09-04T11:06:49Z</time>
      </trkpt>
      <trkpt lat="43.3915590" lon="-3.3492270">
        <ele>115.6</ele>
        <time>2018-09-04T11:06:52Z</time>
      </trkpt>
      <trkpt lat="43.3911880" lon="-3.3497440">
        <ele>115.8</ele>
        <time>2018-09-04T11:07:00Z</time>
      </trkpt>
      <trkpt lat="43.3911490" lon="-3.3498110">
        <ele>115.8</ele>
        <time>2018-09-04T11:07:01Z</time>
      </trkpt>
      <trkpt lat="43.3910210" lon="-3.3500730">
        <ele>116.4</ele>
        <time>2018-09-04T11:07:05Z</time>
      </trkpt>
      <trkpt lat="43.3910010" lon="-3.3501490">
        <ele>116.2</ele>
        <time>2018-09-04T11:07:06Z</time>
      </trkpt>
      <trkpt lat="43.3909610" lon="-3.3504800">
        <ele>115.4</ele>
        <time>2018-09-04T11:07:10Z</time>
      </trkpt>
      <trkpt lat="43.3909670" lon="-3.3509970">
        <ele>115.8</ele>
        <time>2018-09-04T11:07:16Z</time>
      </trkpt>
      <trkpt lat="43.3909720" lon="-3.3510830">
        <ele>115.6</ele>
        <time>2018-09-04T11:07:17Z</time>
      </trkpt>
      <trkpt lat="43.3909960" lon="-3.3516620">
        <ele>116.6</ele>
        <time>2018-09-04T11:07:24Z</time>
      </trkpt>
      <trkpt lat="43.3909980" lon="-3.3517450">
        <ele>116.6</ele>
        <time>2018-09-04T11:07:25Z</time>
      </trkpt>
      <trkpt lat="43.3910010" lon="-3.3518300">
        <ele>116.6</ele>
        <time>2018-09-04T11:07:26Z</time>
      </trkpt>
      <trkpt lat="43.3910190" lon="-3.3520880">
        <ele>115.8</ele>
        <time>2018-09-04T11:07:29Z</time>
      </trkpt>
      <trkpt lat="43.3910290" lon="-3.3521710">
        <ele>115.4</ele>
        <time>2018-09-04T11:07:30Z</time>
      </trkpt>
      <trkpt lat="43.3910780" lon="-3.3524310">
        <ele>114.8</ele>
        <time>2018-09-04T11:07:33Z</time>
      </trkpt>
      <trkpt lat="43.3911650" lon="-3.3526900">
        <ele>115.6</ele>
        <time>2018-09-04T11:07:36Z</time>
      </trkpt>
      <trkpt lat="43.3912590" lon="-3.3528660">
        <ele>115.0</ele>
        <time>2018-09-04T11:07:38Z</time>
      </trkpt>
      <trkpt lat="43.3913100" lon="-3.3529530">
        <ele>114.2</ele>
        <time>2018-09-04T11:07:39Z</time>
      </trkpt>
      <trkpt lat="43.3913650" lon="-3.3530380">
        <ele>113.2</ele>
        <time>2018-09-04T11:07:40Z</time>
      </trkpt>
      <trkpt lat="43.3914830" lon="-3.3532090">
        <ele>111.6</ele>
        <time>2018-09-04T11:07:42Z</time>
      </trkpt>
      <trkpt lat="43.3915460" lon="-3.3532930">
        <ele>110.2</ele>
        <time>2018-09-04T11:07:43Z</time>
      </trkpt>
      <trkpt lat="43.3916740" lon="-3.3534670">
        <ele>108.4</ele>
        <time>2018-09-04T11:07:45Z</time>
      </trkpt>
      <trkpt lat="43.3918070" lon="-3.3536430">
        <ele>106.0</ele>
        <time>2018-09-04T11:07:47Z</time>
      </trkpt>
      <trkpt lat="43.3920250" lon="-3.3539060">
        <ele>107.6</ele>
        <time>2018-09-04T11:07:50Z</time>
      </trkpt>
      <trkpt lat="43.3921000" lon="-3.3540000">
        <ele>107.4</ele>
        <time>2018-09-04T11:07:51Z</time>
      </trkpt>
      <trkpt lat="43.3921720" lon="-3.3541000">
        <ele>105.4</ele>
        <time>2018-09-04T11:07:52Z</time>
      </trkpt>
      <trkpt lat="43.3922470" lon="-3.3541970">
        <ele>104.2</ele>
        <time>2018-09-04T11:07:53Z</time>
      </trkpt>
      <trkpt lat="43.3923230" lon="-3.3542910">
        <ele>102.6</ele>
        <time>2018-09-04T11:07:54Z</time>
      </trkpt>
      <trkpt lat="43.3924830" lon="-3.3544780">
        <ele>101.0</ele>
        <time>2018-09-04T11:07:56Z</time>
      </trkpt>
      <trkpt lat="43.3925660" lon="-3.3545660">
        <ele>100.8</ele>
        <time>2018-09-04T11:07:57Z</time>
      </trkpt>
      <trkpt lat="43.3927410" lon="-3.3547380">
        <ele>99.8</ele>
        <time>2018-09-04T11:07:59Z</time>
      </trkpt>
      <trkpt lat="43.3928340" lon="-3.3548190">
        <ele>98.8</ele>
        <time>2018-09-04T11:08:00Z</time>
      </trkpt>
      <trkpt lat="43.3929310" lon="-3.3548970">
        <ele>96.8</ele>
        <time>2018-09-04T11:08:01Z</time>
      </trkpt>
      <trkpt lat="43.3930320" lon="-3.3549690">
        <ele>96.0</ele>
        <time>2018-09-04T11:08:02Z</time>
      </trkpt>
      <trkpt lat="43.3931380" lon="-3.3550340">
        <ele>95.2</ele>
        <time>2018-09-04T11:08:03Z</time>
      </trkpt>
      <trkpt lat="43.3933570" lon="-3.3551450">
        <ele>93.2</ele>
        <time>2018-09-04T11:08:05Z</time>
      </trkpt>
      <trkpt lat="43.3934700" lon="-3.3551900">
        <ele>92.4</ele>
        <time>2018-09-04T11:08:06Z</time>
      </trkpt>
      <trkpt lat="43.3935850" lon="-3.3552320">
        <ele>92.0</ele>
        <time>2018-09-04T11:08:07Z</time>
      </trkpt>
      <trkpt lat="43.3938170" lon="-3.3552960">
        <ele>91.0</ele>
        <time>2018-09-04T11:08:09Z</time>
      </trkpt>
      <trkpt lat="43.3939370" lon="-3.3553260">
        <ele>89.0</ele>
        <time>2018-09-04T11:08:10Z</time>
      </trkpt>
      <trkpt lat="43.3940580" lon="-3.3553580">
        <ele>86.8</ele>
        <time>2018-09-04T11:08:11Z</time>
      </trkpt>
      <trkpt lat="43.3941810" lon="-3.3553910">
        <ele>85.6</ele>
        <time>2018-09-04T11:08:12Z</time>
      </trkpt>
      <trkpt lat="43.3944350" lon="-3.3554640">
        <ele>84.6</ele>
        <time>2018-09-04T11:08:14Z</time>
      </trkpt>
      <trkpt lat="43.3945660" lon="-3.3555060">
        <ele>83.6</ele>
        <time>2018-09-04T11:08:15Z</time>
      </trkpt>
      <trkpt lat="43.3948350" lon="-3.3556050">
        <ele>81.8</ele>
        <time>2018-09-04T11:08:17Z</time>
      </trkpt>
      <trkpt lat="43.3949720" lon="-3.3556700">
        <ele>80.6</ele>
        <time>2018-09-04T11:08:18Z</time>
      </trkpt>
      <trkpt lat="43.3951040" lon="-3.3557440">
        <ele>79.2</ele>
        <time>2018-09-04T11:08:19Z</time>
      </trkpt>
      <trkpt lat="43.3952330" lon="-3.3558260">
        <ele>78.0</ele>
        <time>2018-09-04T11:08:20Z</time>
      </trkpt>
      <trkpt lat="43.3953620" lon="-3.3559190">
        <ele>76.8</ele>
        <time>2018-09-04T11:08:21Z</time>
      </trkpt>
      <trkpt lat="43.3954840" lon="-3.3560140">
        <ele>75.2</ele>
        <time>2018-09-04T11:08:22Z</time>
      </trkpt>
      <trkpt lat="43.3956030" lon="-3.3561130">
        <ele>73.6</ele>
        <time>2018-09-04T11:08:23Z</time>
      </trkpt>
      <trkpt lat="43.3958330" lon="-3.3563260">
        <ele>71.8</ele>
        <time>2018-09-04T11:08:25Z</time>
      </trkpt>
      <trkpt lat="43.3959460" lon="-3.3564370">
        <ele>70.4</ele>
        <time>2018-09-04T11:08:26Z</time>
      </trkpt>
      <trkpt lat="43.3960670" lon="-3.3565500">
        <ele>69.2</ele>
        <time>2018-09-04T11:08:27Z</time>
      </trkpt>
      <trkpt lat="43.3963070" lon="-3.3567750">
        <ele>68.0</ele>
        <time>2018-09-04T11:08:29Z</time>
      </trkpt>
      <trkpt lat="43.3965270" lon="-3.3570340">
        <ele>67.0</ele>
        <time>2018-09-04T11:08:31Z</time>
      </trkpt>
      <trkpt lat="43.3966260" lon="-3.3571790">
        <ele>66.2</ele>
        <time>2018-09-04T11:08:32Z</time>
      </trkpt>
      <trkpt lat="43.3967090" lon="-3.3573360">
        <ele>65.2</ele>
        <time>2018-09-04T11:08:33Z</time>
      </trkpt>
      <trkpt lat="43.3967650" lon="-3.3575060">
        <ele>64.0</ele>
        <time>2018-09-04T11:08:34Z</time>
      </trkpt>
      <trkpt lat="43.3968190" lon="-3.3578620">
        <ele>62.4</ele>
        <time>2018-09-04T11:08:36Z</time>
      </trkpt>
      <trkpt lat="43.3968090" lon="-3.3580410">
        <ele>61.6</ele>
        <time>2018-09-04T11:08:37Z</time>
      </trkpt>
      <trkpt lat="43.3967720" lon="-3.3582130">
        <ele>60.8</ele>
        <time>2018-09-04T11:08:38Z</time>
      </trkpt>
      <trkpt lat="43.3967160" lon="-3.3583760">
        <ele>59.8</ele>
        <time>2018-09-04T11:08:39Z</time>
      </trkpt>
      <trkpt lat="43.3965270" lon="-3.3586400">
        <ele>58.2</ele>
        <time>2018-09-04T11:08:41Z</time>
      </trkpt>
      <trkpt lat="43.3964150" lon="-3.3587320">
        <ele>57.0</ele>
        <time>2018-09-04T11:08:42Z</time>
      </trkpt>
      <trkpt lat="43.3962870" lon="-3.3587870">
        <ele>55.6</ele>
        <time>2018-09-04T11:08:43Z</time>
      </trkpt>
      <trkpt lat="43.3961590" lon="-3.3588240">
        <ele>54.2</ele>
        <time>2018-09-04T11:08:44Z</time>
      </trkpt>
      <trkpt lat="43.3959040" lon="-3.3588030">
        <ele>52.6</ele>
        <time>2018-09-04T11:08:46Z</time>
      </trkpt>
      <trkpt lat="43.3956650" lon="-3.3586560">
        <ele>50.8</ele>
        <time>2018-09-04T11:08:48Z</time>
      </trkpt>
      <trkpt lat="43.3955520" lon="-3.3585540">
        <ele>48.6</ele>
        <time>2018-09-04T11:08:49Z</time>
      </trkpt>
      <trkpt lat="43.3954410" lon="-3.3584420">
        <ele>47.4</ele>
        <time>2018-09-04T11:08:50Z</time>
      </trkpt>
      <trkpt lat="43.3953310" lon="-3.3583240">
        <ele>46.6</ele>
        <time>2018-09-04T11:08:51Z</time>
      </trkpt>
      <trkpt lat="43.3952200" lon="-3.3581970">
        <ele>45.2</ele>
        <time>2018-09-04T11:08:52Z</time>
      </trkpt>
      <trkpt lat="43.3951130" lon="-3.3580650">
        <ele>44.0</ele>
        <time>2018-09-04T11:08:53Z</time>
      </trkpt>
      <trkpt lat="43.3950090" lon="-3.3579310">
        <ele>43.0</ele>
        <time>2018-09-04T11:08:54Z</time>
      </trkpt>
      <trkpt lat="43.3947970" lon="-3.3576800">
        <ele>41.2</ele>
        <time>2018-09-04T11:08:56Z</time>
      </trkpt>
      <trkpt lat="43.3946760" lon="-3.3575690">
        <ele>40.6</ele>
        <time>2018-09-04T11:08:57Z</time>
      </trkpt>
      <trkpt lat="43.3945460" lon="-3.3574810">
        <ele>40.2</ele>
        <time>2018-09-04T11:08:58Z</time>
      </trkpt>
      <trkpt lat="43.3942900" lon="-3.3573960">
        <ele>38.8</ele>
        <time>2018-09-04T11:09:00Z</time>
      </trkpt>
      <trkpt lat="43.3941570" lon="-3.3574030">
        <ele>37.4</ele>
        <time>2018-09-04T11:09:01Z</time>
      </trkpt>
      <trkpt lat="43.3940270" lon="-3.3574520">
        <ele>36.2</ele>
        <time>2018-09-04T11:09:02Z</time>
      </trkpt>
      <trkpt lat="43.3939070" lon="-3.3575360">
        <ele>35.2</ele>
        <time>2018-09-04T11:09:03Z</time>
      </trkpt>
      <trkpt lat="43.3937960" lon="-3.3576530">
        <ele>34.0</ele>
        <time>2018-09-04T11:09:04Z</time>
      </trkpt>
      <trkpt lat="43.3936230" lon="-3.3579540">
        <ele>31.6</ele>
        <time>2018-09-04T11:09:06Z</time>
      </trkpt>
      <trkpt lat="43.3935750" lon="-3.3581340">
        <ele>30.2</ele>
        <time>2018-09-04T11:09:07Z</time>
      </trkpt>
      <trkpt lat="43.3935500" lon="-3.3583250">
        <ele>29.2</ele>
        <time>2018-09-04T11:09:08Z</time>
      </trkpt>
      <trkpt lat="43.3935760" lon="-3.3587130">
        <ele>27.4</ele>
        <time>2018-09-04T11:09:10Z</time>
      </trkpt>
      <trkpt lat="43.3936230" lon="-3.3588960">
        <ele>26.0</ele>
        <time>2018-09-04T11:09:11Z</time>
      </trkpt>
      <trkpt lat="43.3936940" lon="-3.3590680">
        <ele>24.0</ele>
        <time>2018-09-04T11:09:12Z</time>
      </trkpt>
      <trkpt lat="43.3937840" lon="-3.3592270">
        <ele>20.0</ele>
        <time>2018-09-04T11:09:13Z</time>
      </trkpt>
      <trkpt lat="43.3938790" lon="-3.3593710">
        <ele>18.8</ele>
        <time>2018-09-04T11:09:14Z</time>
      </trkpt>
      <trkpt lat="43.3940930" lon="-3.3596230">
        <ele>17.6</ele>
        <time>2018-09-04T11:09:16Z</time>
      </trkpt>
      <trkpt lat="43.3942190" lon="-3.3597290">
        <ele>17.4</ele>
        <time>2018-09-04T11:09:17Z</time>
      </trkpt>
      <trkpt lat="43.3946890" lon="-3.3601730">
        <ele>15.4</ele>
        <time>2018-09-04T11:09:21Z</time>
      </trkpt>
      <trkpt lat="43.3948030" lon="-3.3602860">
        <ele>14.0</ele>
        <time>2018-09-04T11:09:22Z</time>
      </trkpt>
      <trkpt lat="43.3949200" lon="-3.3603960">
        <ele>12.6</ele>
        <time>2018-09-04T11:09:23Z</time>
      </trkpt>
      <trkpt lat="43.3951680" lon="-3.3606030">
        <ele>10.6</ele>
        <time>2018-09-04T11:09:25Z</time>
      </trkpt>
      <trkpt lat="43.3954230" lon="-3.3608010">
        <ele>9.4</ele>
        <time>2018-09-04T11:09:27Z</time>
      </trkpt>
      <trkpt lat="43.3956830" lon="-3.3609910">
        <ele>8.0</ele>
        <time>2018-09-04T11:09:29Z</time>
      </trkpt>
      <trkpt lat="43.3958130" lon="-3.3610840">
        <ele>6.8</ele>
        <time>2018-09-04T11:09:30Z</time>
      </trkpt>
      <trkpt lat="43.3960750" lon="-3.3612720">
        <ele>5.0</ele>
        <time>2018-09-04T11:09:32Z</time>
      </trkpt>
      <trkpt lat="43.3963330" lon="-3.3614850">
        <ele>3.6</ele>
        <time>2018-09-04T11:09:34Z</time>
      </trkpt>
      <trkpt lat="43.3964470" lon="-3.3616140">
        <ele>3.2</ele>
        <time>2018-09-04T11:09:35Z</time>
      </trkpt>
      <trkpt lat="43.3966320" lon="-3.3619060">
        <ele>1.8</ele>
        <time>2018-09-04T11:09:37Z</time>
      </trkpt>
      <trkpt lat="43.3967890" lon="-3.3621880">
        <ele>0.4</ele>
        <time>2018-09-04T11:09:39Z</time>
      </trkpt>
      <trkpt lat="43.3969300" lon="-3.3624430">
        <ele>-0.6</ele>
        <time>2018-09-04T11:09:41Z</time>
      </trkpt>
      <trkpt lat="43.3971210" lon="-3.3627910">
        <ele>0.0</ele>
        <time>2018-09-04T11:09:44Z</time>
      </trkpt>
      <trkpt lat="43.3972410" lon="-3.3630080">
        <ele>0.2</ele>
        <time>2018-09-04T11:09:46Z</time>
      </trkpt>
      <trkpt lat="43.3973580" lon="-3.3632090">
        <ele>0.4</ele>
        <time>2018-09-04T11:09:48Z</time>
      </trkpt>
      <trkpt lat="43.3975710" lon="-3.3635830">
        <ele>0.0</ele>
        <time>2018-09-04T11:09:52Z</time>
      </trkpt>
      <trkpt lat="43.3978620" lon="-3.3641060">
        <ele>1.4</ele>
        <time>2018-09-04T11:09:58Z</time>
      </trkpt>
      <trkpt lat="43.3979950" lon="-3.3643560">
        <ele>1.2</ele>
        <time>2018-09-04T11:10:01Z</time>
      </trkpt>
      <trkpt lat="43.3982530" lon="-3.3648090">
        <ele>1.4</ele>
        <time>2018-09-04T11:10:07Z</time>
      </trkpt>
      <trkpt lat="43.3984910" lon="-3.3652210">
        <ele>1.8</ele>
        <time>2018-09-04T11:10:13Z</time>
      </trkpt>
      <trkpt lat="43.3986890" lon="-3.3655850">
        <ele>0.4</ele>
        <time>2018-09-04T11:10:19Z</time>
      </trkpt>
      <trkpt lat="43.3987250" lon="-3.3656440">
        <ele>0.4</ele>
        <time>2018-09-04T11:10:20Z</time>
      </trkpt>
      <trkpt lat="43.3988620" lon="-3.3658980">
        <ele>0.8</ele>
        <time>2018-09-04T11:10:24Z</time>
      </trkpt>
      <trkpt lat="43.3989930" lon="-3.3661500">
        <ele>0.6</ele>
        <time>2018-09-04T11:10:28Z</time>
      </trkpt>
      <trkpt lat="43.3990280" lon="-3.3662110">
        <ele>0.8</ele>
        <time>2018-09-04T11:10:29Z</time>
      </trkpt>
      <trkpt lat="43.3991950" lon="-3.3664990">
        <ele>1.6</ele>
        <time>2018-09-04T11:10:34Z</time>
      </trkpt>
      <trkpt lat="43.3992700" lon="-3.3666000">
        <ele>1.2</ele>
        <time>2018-09-04T11:10:36Z</time>
      </trkpt>
      <trkpt lat="43.3993040" lon="-3.3666560">
        <ele>1.4</ele>
        <time>2018-09-04T11:10:37Z</time>
      </trkpt>
      <trkpt lat="43.3993820" lon="-3.3668430">
        <ele>1.0</ele>
        <time>2018-09-04T11:10:40Z</time>
      </trkpt>
      <trkpt lat="43.3994370" lon="-3.3669630">
        <ele>1.2</ele>
        <time>2018-09-04T11:10:42Z</time>
      </trkpt>
      <trkpt lat="43.3995820" lon="-3.3672420">
        <ele>2.6</ele>
        <time>2018-09-04T11:10:47Z</time>
      </trkpt>
      <trkpt lat="43.3996140" lon="-3.3672980">
        <ele>2.0</ele>
        <time>2018-09-04T11:10:48Z</time>
      </trkpt>
      <trkpt lat="43.3998610" lon="-3.3677410">
        <ele>2.6</ele>
        <time>2018-09-04T11:10:56Z</time>
      </trkpt>
      <trkpt lat="43.3999230" lon="-3.3678520">
        <ele>2.6</ele>
        <time>2018-09-04T11:10:58Z</time>
      </trkpt>
      <trkpt lat="43.4000750" lon="-3.3681170">
        <ele>3.2</ele>
        <time>2018-09-04T11:11:03Z</time>
      </trkpt>
      <trkpt lat="43.4001690" lon="-3.3682800">
        <ele>3.4</ele>
        <time>2018-09-04T11:11:06Z</time>
      </trkpt>
      <trkpt lat="43.4002300" lon="-3.3683950">
        <ele>3.4</ele>
        <time>2018-09-04T11:11:08Z</time>
      </trkpt>
      <trkpt lat="43.4004150" lon="-3.3687250">
        <ele>3.8</ele>
        <time>2018-09-04T11:11:14Z</time>
      </trkpt>
      <trkpt lat="43.4004730" lon="-3.3688350">
        <ele>3.8</ele>
        <time>2018-09-04T11:11:16Z</time>
      </trkpt>
      <trkpt lat="43.4006960" lon="-3.3692390">
        <ele>4.2</ele>
        <time>2018-09-04T11:11:24Z</time>
      </trkpt>
      <trkpt lat="43.4008190" lon="-3.3694520">
        <ele>4.8</ele>
        <time>2018-09-04T11:11:29Z</time>
      </trkpt>
      <trkpt lat="43.4008470" lon="-3.3694730">
        <ele>4.8</ele>
        <time>2018-09-04T11:11:30Z</time>
      </trkpt>
      <trkpt lat="43.4008780" lon="-3.3694710">
        <ele>5.0</ele>
        <time>2018-09-04T11:11:31Z</time>
      </trkpt>
      <trkpt lat="43.4009350" lon="-3.3693900">
        <ele>5.0</ele>
        <time>2018-09-04T11:11:33Z</time>
      </trkpt>
      <trkpt lat="43.4009670" lon="-3.3692660">
        <ele>4.4</ele>
        <time>2018-09-04T11:11:35Z</time>
      </trkpt>
      <trkpt lat="43.4010260" lon="-3.3690820">
        <ele>4.2</ele>
        <time>2018-09-04T11:11:38Z</time>
      </trkpt>
      <trkpt lat="43.4011080" lon="-3.3689080">
        <ele>4.2</ele>
        <time>2018-09-04T11:11:41Z</time>
      </trkpt>
      <trkpt lat="43.4011560" lon="-3.3687900">
        <ele>3.8</ele>
        <time>2018-09-04T11:11:43Z</time>
      </trkpt>
      <trkpt lat="43.4012040" lon="-3.3686750">
        <ele>3.8</ele>
        <time>2018-09-04T11:11:45Z</time>
      </trkpt>
      <trkpt lat="43.4012260" lon="-3.3686220">
        <ele>3.8</ele>
        <time>2018-09-04T11:11:46Z</time>
      </trkpt>
      <trkpt lat="43.4012720" lon="-3.3685200">
        <ele>3.8</ele>
        <time>2018-09-04T11:11:48Z</time>
      </trkpt>
      <trkpt lat="43.4013400" lon="-3.3683480">
        <ele>4.0</ele>
        <time>2018-09-04T11:11:51Z</time>
      </trkpt>
      <trkpt lat="43.4014080" lon="-3.3681640">
        <ele>3.8</ele>
        <time>2018-09-04T11:11:54Z</time>
      </trkpt>
      <trkpt lat="43.4014290" lon="-3.3680990">
        <ele>3.4</ele>
        <time>2018-09-04T11:11:55Z</time>
      </trkpt>
      <trkpt lat="43.4014470" lon="-3.3680350">
        <ele>3.6</ele>
        <time>2018-09-04T11:11:56Z</time>
      </trkpt>
      <trkpt lat="43.4014780" lon="-3.3679110">
        <ele>4.0</ele>
        <time>2018-09-04T11:11:58Z</time>
      </trkpt>
      <trkpt lat="43.4016090" lon="-3.3675600">
        <ele>3.4</ele>
        <time>2018-09-04T11:12:04Z</time>
      </trkpt>
      <trkpt lat="43.4018270" lon="-3.3670870">
        <ele>3.0</ele>
        <time>2018-09-04T11:12:12Z</time>
      </trkpt>
      <trkpt lat="43.4019880" lon="-3.3667770">
        <ele>2.6</ele>
        <time>2018-09-04T11:12:17Z</time>
      </trkpt>
      <trkpt lat="43.4020130" lon="-3.3667000">
        <ele>2.4</ele>
        <time>2018-09-04T11:12:18Z</time>
      </trkpt>
      <trkpt lat="43.4020870" lon="-3.3663040">
        <ele>2.2</ele>
        <time>2018-09-04T11:12:23Z</time>
      </trkpt>
      <trkpt lat="43.4021650" lon="-3.3658340">
        <ele>1.6</ele>
        <time>2018-09-04T11:12:29Z</time>
      </trkpt>
      <trkpt lat="43.4021960" lon="-3.3656840">
        <ele>1.6</ele>
        <time>2018-09-04T11:12:31Z</time>
      </trkpt>
      <trkpt lat="43.4022300" lon="-3.3654560">
        <ele>1.4</ele>
        <time>2018-09-04T11:12:34Z</time>
      </trkpt>
      <trkpt lat="43.4022830" lon="-3.3652330">
        <ele>1.2</ele>
        <time>2018-09-04T11:12:37Z</time>
      </trkpt>
      <trkpt lat="43.4024440" lon="-3.3646520">
        <ele>0.4</ele>
        <time>2018-09-04T11:12:45Z</time>
      </trkpt>
      <trkpt lat="43.4025250" lon="-3.3643870">
        <ele>0.8</ele>
        <time>2018-09-04T11:12:49Z</time>
      </trkpt>
      <trkpt lat="43.4025810" lon="-3.3642740">
        <ele>1.0</ele>
        <time>2018-09-04T11:12:51Z</time>
      </trkpt>
      <trkpt lat="43.4026670" lon="-3.3642070">
        <ele>0.8</ele>
        <time>2018-09-04T11:12:53Z</time>
      </trkpt>
      <trkpt lat="43.4027150" lon="-3.3641870">
        <ele>1.2</ele>
        <time>2018-09-04T11:12:54Z</time>
      </trkpt>
      <trkpt lat="43.4027620" lon="-3.3641740">
        <ele>1.4</ele>
        <time>2018-09-04T11:12:55Z</time>
      </trkpt>
      <trkpt lat="43.4028600" lon="-3.3641640">
        <ele>1.6</ele>
        <time>2018-09-04T11:12:57Z</time>
      </trkpt>
      <trkpt lat="43.4029560" lon="-3.3641670">
        <ele>1.4</ele>
        <time>2018-09-04T11:12:59Z</time>
      </trkpt>
      <trkpt lat="43.4030510" lon="-3.3641730">
        <ele>1.4</ele>
        <time>2018-09-04T11:13:01Z</time>
      </trkpt>
      <trkpt lat="43.4031980" lon="-3.3641730">
        <ele>2.4</ele>
        <time>2018-09-04T11:13:04Z</time>
      </trkpt>
      <trkpt lat="43.4032470" lon="-3.3641680">
        <ele>2.4</ele>
        <time>2018-09-04T11:13:05Z</time>
      </trkpt>
      <trkpt lat="43.4033460" lon="-3.3641480">
        <ele>2.0</ele>
        <time>2018-09-04T11:13:07Z</time>
      </trkpt>
      <trkpt lat="43.4035350" lon="-3.3640930">
        <ele>2.6</ele>
        <time>2018-09-04T11:13:11Z</time>
      </trkpt>
      <trkpt lat="43.4036810" lon="-3.3640570">
        <ele>2.4</ele>
        <time>2018-09-04T11:13:14Z</time>
      </trkpt>
      <trkpt lat="43.4037720" lon="-3.3640210">
        <ele>2.2</ele>
        <time>2018-09-04T11:13:16Z</time>
      </trkpt>
      <trkpt lat="43.4038770" lon="-3.3639010">
        <ele>2.4</ele>
        <time>2018-09-04T11:13:19Z</time>
      </trkpt>
      <trkpt lat="43.4039070" lon="-3.3637120">
        <ele>2.8</ele>
        <time>2018-09-04T11:13:22Z</time>
      </trkpt>
      <trkpt lat="43.4039080" lon="-3.3636440">
        <ele>2.6</ele>
        <time>2018-09-04T11:13:23Z</time>
      </trkpt>
      <trkpt lat="43.4039140" lon="-3.3635770">
        <ele>2.6</ele>
        <time>2018-09-04T11:13:24Z</time>
      </trkpt>
      <trkpt lat="43.4039780" lon="-3.3633060">
        <ele>2.4</ele>
        <time>2018-09-04T11:13:28Z</time>
      </trkpt>
      <trkpt lat="43.4041650" lon="-3.3630650">
        <ele>2.4</ele>
        <time>2018-09-04T11:13:33Z</time>
      </trkpt>
      <trkpt lat="43.4043220" lon="-3.3630630">
        <ele>2.2</ele>
        <time>2018-09-04T11:13:36Z</time>
      </trkpt>
      <trkpt lat="43.4043730" lon="-3.3630710">
        <ele>2.0</ele>
        <time>2018-09-04T11:13:37Z</time>
      </trkpt>
      <trkpt lat="43.4046330" lon="-3.3631070">
        <ele>2.0</ele>
        <time>2018-09-04T11:13:42Z</time>
      </trkpt>
      <trkpt lat="43.4047380" lon="-3.3631300">
        <ele>2.4</ele>
        <time>2018-09-04T11:13:44Z</time>
      </trkpt>
      <trkpt lat="43.4047890" lon="-3.3631400">
        <ele>2.4</ele>
        <time>2018-09-04T11:13:45Z</time>
      </trkpt>
      <trkpt lat="43.4051160" lon="-3.3631550">
        <ele>1.8</ele>
        <time>2018-09-04T11:13:51Z</time>
      </trkpt>
      <trkpt lat="43.4053090" lon="-3.3630380">
        <ele>1.8</ele>
        <time>2018-09-04T11:13:55Z</time>
      </trkpt>
      <trkpt lat="43.4053500" lon="-3.3629920">
        <ele>1.8</ele>
        <time>2018-09-04T11:13:56Z</time>
      </trkpt>
      <trkpt lat="43.4054370" lon="-3.3629090">
        <ele>1.8</ele>
        <time>2018-09-04T11:13:58Z</time>
      </trkpt>
      <trkpt lat="43.4055340" lon="-3.3628590">
        <ele>1.8</ele>
        <time>2018-09-04T11:14:00Z</time>
      </trkpt>
      <trkpt lat="43.4057310" lon="-3.3628260">
        <ele>1.6</ele>
        <time>2018-09-04T11:14:04Z</time>
      </trkpt>
      <trkpt lat="43.4057790" lon="-3.3628190">
        <ele>1.6</ele>
        <time>2018-09-04T11:14:05Z</time>
      </trkpt>
      <trkpt lat="43.4058220" lon="-3.3628010">
        <ele>1.6</ele>
        <time>2018-09-04T11:14:06Z</time>
      </trkpt>
      <trkpt lat="43.4058990" lon="-3.3626640">
        <ele>1.6</ele>
        <time>2018-09-04T11:14:09Z</time>
      </trkpt>
      <trkpt lat="43.4059960" lon="-3.3625970">
        <ele>2.0</ele>
        <time>2018-09-04T11:14:12Z</time>
      </trkpt>
      <trkpt lat="43.4061080" lon="-3.3625400">
        <ele>2.4</ele>
        <time>2018-09-04T11:14:16Z</time>
      </trkpt>
      <trkpt lat="43.4061240" lon="-3.3625370">
        <ele>2.8</ele>
        <time>2018-09-04T11:14:17Z</time>
      </trkpt>
      <trkpt lat="43.4061640" lon="-3.3625360">
        <ele>3.4</ele>
        <time>2018-09-04T11:14:20Z</time>
      </trkpt>
      <trkpt lat="43.4061880" lon="-3.3625430">
        <ele>4.2</ele>
        <time>2018-09-04T11:14:23Z</time>
      </trkpt>
      <trkpt lat="43.4061890" lon="-3.3625430">
        <ele>4.6</ele>
        <time>2018-09-04T11:14:25Z</time>
      </trkpt>
      <trkpt lat="43.4062240" lon="-3.3625570">
        <ele>5.2</ele>
        <time>2018-09-04T11:14:28Z</time>
      </trkpt>
      <trkpt lat="43.4064820" lon="-3.3627970">
        <ele>9.6</ele>
        <time>2018-09-04T11:15:25Z</time>
      </trkpt>
      <trkpt lat="43.4064950" lon="-3.3628120">
        <ele>9.8</ele>
        <time>2018-09-04T11:15:26Z</time>
      </trkpt>
      <trkpt lat="43.4065260" lon="-3.3628560">
        <ele>10.4</ele>
        <time>2018-09-04T11:15:29Z</time>
      </trkpt>
      <trkpt lat="43.4066000" lon="-3.3629820">
        <ele>10.8</ele>
        <time>2018-09-04T11:15:35Z</time>
      </trkpt>
      <trkpt lat="43.4066910" lon="-3.3631740">
        <ele>11.4</ele>
        <time>2018-09-04T11:15:42Z</time>
      </trkpt>
      <trkpt lat="43.4067650" lon="-3.3633230">
        <ele>12.0</ele>
        <time>2018-09-04T11:15:47Z</time>
      </trkpt>
      <trkpt lat="43.4067960" lon="-3.3633770">
        <ele>12.0</ele>
        <time>2018-09-04T11:15:49Z</time>
      </trkpt>
      <trkpt lat="43.4068900" lon="-3.3635330">
        <ele>13.2</ele>
        <time>2018-09-04T11:15:56Z</time>
      </trkpt>
      <trkpt lat="43.4069020" lon="-3.3635590">
        <ele>14.2</ele>
        <time>2018-09-04T11:15:58Z</time>
      </trkpt>
      <trkpt lat="43.4069320" lon="-3.3636050">
        <ele>14.2</ele>
        <time>2018-09-04T11:16:02Z</time>
      </trkpt>
      <trkpt lat="43.4069390" lon="-3.3636130">
        <ele>14.4</ele>
        <time>2018-09-04T11:16:03Z</time>
      </trkpt>
      <trkpt lat="43.4070040" lon="-3.3638270">
        <ele>17.2</ele>
        <time>2018-09-04T11:16:34Z</time>
      </trkpt>
      <trkpt lat="43.4069950" lon="-3.3638440">
        <ele>17.4</ele>
        <time>2018-09-04T11:16:35Z</time>
      </trkpt>
      <trkpt lat="43.4069970" lon="-3.3638400">
        <ele>17.4</ele>
        <time>2018-09-04T11:16:36Z</time>
      </trkpt>
      <trkpt lat="43.4071700" lon="-3.3639620">
        <ele>19.6</ele>
        <time>2018-09-04T11:16:55Z</time>
      </trkpt>
      <trkpt lat="43.4071850" lon="-3.3639800">
        <ele>19.6</ele>
        <time>2018-09-04T11:16:56Z</time>
      </trkpt>
      <trkpt lat="43.4071980" lon="-3.3640000">
        <ele>19.8</ele>
        <time>2018-09-04T11:16:57Z</time>
      </trkpt>
      <trkpt lat="43.4072390" lon="-3.3640530">
        <ele>20.2</ele>
        <time>2018-09-04T11:17:00Z</time>
      </trkpt>
      <trkpt lat="43.4073180" lon="-3.3641370">
        <ele>20.6</ele>
        <time>2018-09-04T11:17:05Z</time>
      </trkpt>
      <trkpt lat="43.4073280" lon="-3.3641440">
        <ele>20.8</ele>
        <time>2018-09-04T11:17:06Z</time>
      </trkpt>
      <trkpt lat="43.4073400" lon="-3.3641540">
        <ele>21.0</ele>
        <time>2018-09-04T11:17:07Z</time>
      </trkpt>
      <trkpt lat="43.4073920" lon="-3.3642120">
        <ele>21.6</ele>
        <time>2018-09-04T11:17:12Z</time>
      </trkpt>
      <trkpt lat="43.4074170" lon="-3.3642470">
        <ele>22.0</ele>
        <time>2018-09-04T11:17:13Z</time>
      </trkpt>
      <trkpt lat="43.4074620" lon="-3.3643240">
        <ele>23.0</ele>
        <time>2018-09-04T11:17:17Z</time>
      </trkpt>
      <trkpt lat="43.4075190" lon="-3.3643990">
        <ele>23.8</ele>
        <time>2018-09-04T11:17:21Z</time>
      </trkpt>
      <trkpt lat="43.4075450" lon="-3.3644180">
        <ele>24.2</ele>
        <time>2018-09-04T11:17:23Z</time>
      </trkpt>
      <trkpt lat="43.4075850" lon="-3.3644740">
        <ele>24.8</ele>
        <time>2018-09-04T11:17:27Z</time>
      </trkpt>
      <trkpt lat="43.4076030" lon="-3.3644970">
        <ele>25.2</ele>
        <time>2018-09-04T11:17:29Z</time>
      </trkpt>
      <trkpt lat="43.4077080" lon="-3.3646270">
        <ele>27.0</ele>
        <time>2018-09-04T11:17:39Z</time>
      </trkpt>
      <trkpt lat="43.4077320" lon="-3.3646720">
        <ele>27.6</ele>
        <time>2018-09-04T11:17:42Z</time>
      </trkpt>
      <trkpt lat="43.4077510" lon="-3.3646900">
        <ele>28.2</ele>
        <time>2018-09-04T11:17:44Z</time>
      </trkpt>
      <trkpt lat="43.4077880" lon="-3.3647400">
        <ele>28.8</ele>
        <time>2018-09-04T11:17:48Z</time>
      </trkpt>
      <trkpt lat="43.4078100" lon="-3.3647620">
        <ele>29.4</ele>
        <time>2018-09-04T11:17:50Z</time>
      </trkpt>
      <trkpt lat="43.4083350" lon="-3.3652590">
        <ele>39.2</ele>
        <time>2018-09-04T11:19:17Z</time>
      </trkpt>
      <trkpt lat="43.4083470" lon="-3.3652790">
        <ele>39.0</ele>
        <time>2018-09-04T11:19:18Z</time>
      </trkpt>
      <trkpt lat="43.4083570" lon="-3.3652960">
        <ele>39.2</ele>
        <time>2018-09-04T11:19:19Z</time>
      </trkpt>
      <trkpt lat="43.4083770" lon="-3.3653270">
        <ele>39.2</ele>
        <time>2018-09-04T11:19:21Z</time>
      </trkpt>
      <trkpt lat="43.4084080" lon="-3.3653570">
        <ele>39.8</ele>
        <time>2018-09-04T11:19:24Z</time>
      </trkpt>
      <trkpt lat="43.4084440" lon="-3.3653920">
        <ele>40.0</ele>
        <time>2018-09-04T11:19:27Z</time>
      </trkpt>
      <trkpt lat="43.4084660" lon="-3.3654160">
        <ele>40.2</ele>
        <time>2018-09-04T11:19:29Z</time>
      </trkpt>
      <trkpt lat="43.4084770" lon="-3.3654260">
        <ele>40.4</ele>
        <time>2018-09-04T11:19:30Z</time>
      </trkpt>
      <trkpt lat="43.4085370" lon="-3.3654870">
        <ele>40.6</ele>
        <time>2018-09-04T11:19:36Z</time>
      </trkpt>
      <trkpt lat="43.4085540" lon="-3.3654950">
        <ele>40.6</ele>
        <time>2018-09-04T11:19:37Z</time>
      </trkpt>
      <trkpt lat="43.4085810" lon="-3.3655170">
        <ele>41.2</ele>
        <time>2018-09-04T11:19:39Z</time>
      </trkpt>
      <trkpt lat="43.4086030" lon="-3.3655400">
        <ele>41.6</ele>
        <time>2018-09-04T11:19:41Z</time>
      </trkpt>
      <trkpt lat="43.4086370" lon="-3.3655740">
        <ele>42.2</ele>
        <time>2018-09-04T11:19:45Z</time>
      </trkpt>
      <trkpt lat="43.4086460" lon="-3.3655900">
        <ele>42.2</ele>
        <time>2018-09-04T11:19:46Z</time>
      </trkpt>
      <trkpt lat="43.4086950" lon="-3.3656550">
        <ele>42.8</ele>
        <time>2018-09-04T11:19:51Z</time>
      </trkpt>
      <trkpt lat="43.4087040" lon="-3.3656620">
        <ele>43.0</ele>
        <time>2018-09-04T11:19:52Z</time>
      </trkpt>
      <trkpt lat="43.4087400" lon="-3.3656970">
        <ele>43.4</ele>
        <time>2018-09-04T11:19:55Z</time>
      </trkpt>
      <trkpt lat="43.4087800" lon="-3.3657160">
        <ele>43.8</ele>
        <time>2018-09-04T11:19:58Z</time>
      </trkpt>
      <trkpt lat="43.4088500" lon="-3.3657530">
        <ele>44.6</ele>
        <time>2018-09-04T11:20:03Z</time>
      </trkpt>
      <trkpt lat="43.4088760" lon="-3.3657730">
        <ele>45.2</ele>
        <time>2018-09-04T11:20:05Z</time>
      </trkpt>
      <trkpt lat="43.4089230" lon="-3.3657830">
        <ele>45.8</ele>
        <time>2018-09-04T11:20:08Z</time>
      </trkpt>
      <trkpt lat="43.4089710" lon="-3.3657930">
        <ele>46.2</ele>
        <time>2018-09-04T11:20:11Z</time>
      </trkpt>
      <trkpt lat="43.4090340" lon="-3.3658490">
        <ele>46.8</ele>
        <time>2018-09-04T11:20:16Z</time>
      </trkpt>
      <trkpt lat="43.4090470" lon="-3.3658670">
        <ele>47.0</ele>
        <time>2018-09-04T11:20:17Z</time>
      </trkpt>
      <trkpt lat="43.4090940" lon="-3.3659770">
        <ele>47.0</ele>
        <time>2018-09-04T11:20:22Z</time>
      </trkpt>
      <trkpt lat="43.4091020" lon="-3.3660530">
        <ele>46.8</ele>
        <time>2018-09-04T11:20:24Z</time>
      </trkpt>
      <trkpt lat="43.4091220" lon="-3.3661920">
        <ele>45.8</ele>
        <time>2018-09-04T11:20:27Z</time>
      </trkpt>
      <trkpt lat="43.4091480" lon="-3.3663090">
        <ele>46.2</ele>
        <time>2018-09-04T11:20:30Z</time>
      </trkpt>
      <trkpt lat="43.4091590" lon="-3.3663330">
        <ele>46.4</ele>
        <time>2018-09-04T11:20:31Z</time>
      </trkpt>
      <trkpt lat="43.4092100" lon="-3.3664730">
        <ele>46.8</ele>
        <time>2018-09-04T11:20:36Z</time>
      </trkpt>
      <trkpt lat="43.4092150" lon="-3.3664970">
        <ele>46.8</ele>
        <time>2018-09-04T11:20:37Z</time>
      </trkpt>
      <trkpt lat="43.4092250" lon="-3.3665460">
        <ele>47.0</ele>
        <time>2018-09-04T11:20:39Z</time>
      </trkpt>
      <trkpt lat="43.4092560" lon="-3.3666050">
        <ele>47.4</ele>
        <time>2018-09-04T11:20:42Z</time>
      </trkpt>
      <trkpt lat="43.4092870" lon="-3.3666220">
        <ele>47.6</ele>
        <time>2018-09-04T11:20:44Z</time>
      </trkpt>
      <trkpt lat="43.4093130" lon="-3.3666350">
        <ele>48.0</ele>
        <time>2018-09-04T11:20:46Z</time>
      </trkpt>
      <trkpt lat="43.4093250" lon="-3.3666430">
        <ele>48.2</ele>
        <time>2018-09-04T11:20:47Z</time>
      </trkpt>
      <trkpt lat="43.4093530" lon="-3.3666730">
        <ele>48.4</ele>
        <time>2018-09-04T11:20:49Z</time>
      </trkpt>
      <trkpt lat="43.4094360" lon="-3.3667300">
        <ele>48.8</ele>
        <time>2018-09-04T11:20:55Z</time>
      </trkpt>
      <trkpt lat="43.4094440" lon="-3.3667360">
        <ele>49.0</ele>
        <time>2018-09-04T11:20:56Z</time>
      </trkpt>
      <trkpt lat="43.4095040" lon="-3.3667880">
        <ele>49.8</ele>
        <time>2018-09-04T11:21:01Z</time>
      </trkpt>
      <trkpt lat="43.4095310" lon="-3.3668160">
        <ele>49.8</ele>
        <time>2018-09-04T11:21:03Z</time>
      </trkpt>
      <trkpt lat="43.4095660" lon="-3.3668960">
        <ele>50.0</ele>
        <time>2018-09-04T11:21:07Z</time>
      </trkpt>
      <trkpt lat="43.4095800" lon="-3.3669210">
        <ele>50.0</ele>
        <time>2018-09-04T11:21:08Z</time>
      </trkpt>
      <trkpt lat="43.4096750" lon="-3.3671080">
        <ele>50.2</ele>
        <time>2018-09-04T11:21:15Z</time>
      </trkpt>
      <trkpt lat="43.4097190" lon="-3.3671910">
        <ele>50.6</ele>
        <time>2018-09-04T11:21:18Z</time>
      </trkpt>
      <trkpt lat="43.4097470" lon="-3.3672480">
        <ele>50.8</ele>
        <time>2018-09-04T11:21:20Z</time>
      </trkpt>
      <trkpt lat="43.4097690" lon="-3.3673010">
        <ele>51.2</ele>
        <time>2018-09-04T11:21:22Z</time>
      </trkpt>
      <trkpt lat="43.4097920" lon="-3.3674100">
        <ele>52.2</ele>
        <time>2018-09-04T11:21:26Z</time>
      </trkpt>
      <trkpt lat="43.4097980" lon="-3.3674340">
        <ele>52.2</ele>
        <time>2018-09-04T11:21:27Z</time>
      </trkpt>
      <trkpt lat="43.4098040" lon="-3.3675690">
        <ele>52.6</ele>
        <time>2018-09-04T11:21:32Z</time>
      </trkpt>
      <trkpt lat="43.4098080" lon="-3.3676820">
        <ele>53.4</ele>
        <time>2018-09-04T11:21:36Z</time>
      </trkpt>
      <trkpt lat="43.4098120" lon="-3.3677590">
        <ele>54.4</ele>
        <time>2018-09-04T11:21:39Z</time>
      </trkpt>
      <trkpt lat="43.4098120" lon="-3.3677850">
        <ele>54.6</ele>
        <time>2018-09-04T11:21:40Z</time>
      </trkpt>
      <trkpt lat="43.4098080" lon="-3.3678590">
        <ele>55.4</ele>
        <time>2018-09-04T11:21:43Z</time>
      </trkpt>
      <trkpt lat="43.4098060" lon="-3.3679460">
        <ele>56.4</ele>
        <time>2018-09-04T11:21:46Z</time>
      </trkpt>
      <trkpt lat="43.4098060" lon="-3.3679770">
        <ele>56.6</ele>
        <time>2018-09-04T11:21:47Z</time>
      </trkpt>
      <trkpt lat="43.4098050" lon="-3.3680080">
        <ele>56.8</ele>
        <time>2018-09-04T11:21:48Z</time>
      </trkpt>
      <trkpt lat="43.4098000" lon="-3.3680990">
        <ele>57.6</ele>
        <time>2018-09-04T11:21:51Z</time>
      </trkpt>
      <trkpt lat="43.4098070" lon="-3.3681880">
        <ele>58.4</ele>
        <time>2018-09-04T11:21:54Z</time>
      </trkpt>
      <trkpt lat="43.4098110" lon="-3.3682170">
        <ele>58.6</ele>
        <time>2018-09-04T11:21:55Z</time>
      </trkpt>
      <trkpt lat="43.4098160" lon="-3.3682490">
        <ele>58.8</ele>
        <time>2018-09-04T11:21:56Z</time>
      </trkpt>
      <trkpt lat="43.4098610" lon="-3.3684540">
        <ele>59.6</ele>
        <time>2018-09-04T11:22:02Z</time>
      </trkpt>
      <trkpt lat="43.4098830" lon="-3.3685200">
        <ele>59.8</ele>
        <time>2018-09-04T11:22:04Z</time>
      </trkpt>
      <trkpt lat="43.4099340" lon="-3.3686940">
        <ele>60.4</ele>
        <time>2018-09-04T11:22:09Z</time>
      </trkpt>
      <trkpt lat="43.4100160" lon="-3.3689530">
        <ele>60.8</ele>
        <time>2018-09-04T11:22:16Z</time>
      </trkpt>
      <trkpt lat="43.4100310" lon="-3.3689880">
        <ele>61.2</ele>
        <time>2018-09-04T11:22:17Z</time>
      </trkpt>
      <trkpt lat="43.4101340" lon="-3.3692260">
        <ele>62.2</ele>
        <time>2018-09-04T11:22:24Z</time>
      </trkpt>
      <trkpt lat="43.4101630" lon="-3.3692970">
        <ele>62.6</ele>
        <time>2018-09-04T11:22:26Z</time>
      </trkpt>
      <trkpt lat="43.4101740" lon="-3.3693290">
        <ele>63.2</ele>
        <time>2018-09-04T11:22:27Z</time>
      </trkpt>
      <trkpt lat="43.4102360" lon="-3.3695130">
        <ele>63.6</ele>
        <time>2018-09-04T11:22:32Z</time>
      </trkpt>
      <trkpt lat="43.4102520" lon="-3.3695530">
        <ele>63.8</ele>
        <time>2018-09-04T11:22:33Z</time>
      </trkpt>
      <trkpt lat="43.4102650" lon="-3.3695930">
        <ele>64.4</ele>
        <time>2018-09-04T11:22:34Z</time>
      </trkpt>
      <trkpt lat="43.4103630" lon="-3.3698640">
        <ele>65.6</ele>
        <time>2018-09-04T11:22:41Z</time>
      </trkpt>
      <trkpt lat="43.4104280" lon="-3.3700230">
        <ele>66.6</ele>
        <time>2018-09-04T11:22:45Z</time>
      </trkpt>
      <trkpt lat="43.4105050" lon="-3.3701840">
        <ele>66.8</ele>
        <time>2018-09-04T11:22:49Z</time>
      </trkpt>
      <trkpt lat="43.4106390" lon="-3.3704690">
        <ele>66.8</ele>
        <time>2018-09-04T11:22:56Z</time>
      </trkpt>
      <trkpt lat="43.4106890" lon="-3.3705640">
        <ele>66.8</ele>
        <time>2018-09-04T11:22:58Z</time>
      </trkpt>
      <trkpt lat="43.4107580" lon="-3.3707650">
        <ele>66.8</ele>
        <time>2018-09-04T11:23:02Z</time>
      </trkpt>
      <trkpt lat="43.4107860" lon="-3.3709160">
        <ele>67.0</ele>
        <time>2018-09-04T11:23:05Z</time>
      </trkpt>
      <trkpt lat="43.4108130" lon="-3.3711360">
        <ele>66.6</ele>
        <time>2018-09-04T11:23:09Z</time>
      </trkpt>
      <trkpt lat="43.4108190" lon="-3.3712030">
        <ele>66.4</ele>
        <time>2018-09-04T11:23:10Z</time>
      </trkpt>
      <trkpt lat="43.4108340" lon="-3.3714250">
        <ele>65.0</ele>
        <time>2018-09-04T11:23:13Z</time>
      </trkpt>
      <trkpt lat="43.4108410" lon="-3.3715040">
        <ele>64.8</ele>
        <time>2018-09-04T11:23:14Z</time>
      </trkpt>
      <trkpt lat="43.4108510" lon="-3.3715870">
        <ele>64.0</ele>
        <time>2018-09-04T11:23:15Z</time>
      </trkpt>
      <trkpt lat="43.4108640" lon="-3.3716740">
        <ele>63.6</ele>
        <time>2018-09-04T11:23:16Z</time>
      </trkpt>
      <trkpt lat="43.4108820" lon="-3.3717640">
        <ele>63.4</ele>
        <time>2018-09-04T11:23:17Z</time>
      </trkpt>
      <trkpt lat="43.4109570" lon="-3.3720380">
        <ele>62.8</ele>
        <time>2018-09-04T11:23:20Z</time>
      </trkpt>
      <trkpt lat="43.4109790" lon="-3.3721310">
        <ele>62.6</ele>
        <time>2018-09-04T11:23:21Z</time>
      </trkpt>
      <trkpt lat="43.4110380" lon="-3.3723100">
        <ele>62.2</ele>
        <time>2018-09-04T11:23:23Z</time>
      </trkpt>
      <trkpt lat="43.4110760" lon="-3.3723820">
        <ele>61.8</ele>
        <time>2018-09-04T11:23:24Z</time>
      </trkpt>
      <trkpt lat="43.4111150" lon="-3.3724450">
        <ele>61.4</ele>
        <time>2018-09-04T11:23:25Z</time>
      </trkpt>
      <trkpt lat="43.4111960" lon="-3.3725520">
        <ele>62.4</ele>
        <time>2018-09-04T11:23:27Z</time>
      </trkpt>
      <trkpt lat="43.4112320" lon="-3.3725980">
        <ele>63.2</ele>
        <time>2018-09-04T11:23:28Z</time>
      </trkpt>
      <trkpt lat="43.4112900" lon="-3.3726770">
        <ele>64.2</ele>
        <time>2018-09-04T11:23:30Z</time>
      </trkpt>
      <trkpt lat="43.4113600" lon="-3.3727570">
        <ele>65.4</ele>
        <time>2018-09-04T11:23:33Z</time>
      </trkpt>
      <trkpt lat="43.4114150" lon="-3.3728530">
        <ele>66.2</ele>
        <time>2018-09-04T11:23:36Z</time>
      </trkpt>
      <trkpt lat="43.4114560" lon="-3.3729220">
        <ele>66.4</ele>
        <time>2018-09-04T11:23:38Z</time>
      </trkpt>
      <trkpt lat="43.4115290" lon="-3.3730270">
        <ele>66.6</ele>
        <time>2018-09-04T11:23:41Z</time>
      </trkpt>
      <trkpt lat="43.4115740" lon="-3.3730870">
        <ele>67.2</ele>
        <time>2018-09-04T11:23:43Z</time>
      </trkpt>
      <trkpt lat="43.4115870" lon="-3.3731130">
        <ele>67.6</ele>
        <time>2018-09-04T11:23:44Z</time>
      </trkpt>
      <trkpt lat="43.4116270" lon="-3.3731890">
        <ele>68.2</ele>
        <time>2018-09-04T11:23:47Z</time>
      </trkpt>
      <trkpt lat="43.4116480" lon="-3.3732130">
        <ele>68.4</ele>
        <time>2018-09-04T11:23:48Z</time>
      </trkpt>
      <trkpt lat="43.4117340" lon="-3.3733270">
        <ele>68.6</ele>
        <time>2018-09-04T11:23:52Z</time>
      </trkpt>
      <trkpt lat="43.4118000" lon="-3.3734280">
        <ele>68.8</ele>
        <time>2018-09-04T11:23:55Z</time>
      </trkpt>
      <trkpt lat="43.4119610" lon="-3.3737490">
        <ele>69.2</ele>
        <time>2018-09-04T11:24:03Z</time>
      </trkpt>
      <trkpt lat="43.4120890" lon="-3.3740120">
        <ele>69.2</ele>
        <time>2018-09-04T11:24:09Z</time>
      </trkpt>
      <trkpt lat="43.4121090" lon="-3.3740590">
        <ele>69.4</ele>
        <time>2018-09-04T11:24:10Z</time>
      </trkpt>
      <trkpt lat="43.4122350" lon="-3.3744040">
        <ele>69.4</ele>
        <time>2018-09-04T11:24:17Z</time>
      </trkpt>
      <trkpt lat="43.4122620" lon="-3.3745030">
        <ele>69.6</ele>
        <time>2018-09-04T11:24:19Z</time>
      </trkpt>
      <trkpt lat="43.4123360" lon="-3.3747840">
        <ele>70.6</ele>
        <time>2018-09-04T11:24:26Z</time>
      </trkpt>
      <trkpt lat="43.4123630" lon="-3.3749120">
        <ele>71.4</ele>
        <time>2018-09-04T11:24:30Z</time>
      </trkpt>
      <trkpt lat="43.4123790" lon="-3.3749790">
        <ele>71.8</ele>
        <time>2018-09-04T11:24:32Z</time>
      </trkpt>
      <trkpt lat="43.4124110" lon="-3.3750800">
        <ele>72.6</ele>
        <time>2018-09-04T11:24:35Z</time>
      </trkpt>
      <trkpt lat="43.4124240" lon="-3.3751100">
        <ele>73.0</ele>
        <time>2018-09-04T11:24:36Z</time>
      </trkpt>
      <trkpt lat="43.4124460" lon="-3.3751720">
        <ele>73.4</ele>
        <time>2018-09-04T11:24:38Z</time>
      </trkpt>
      <trkpt lat="43.4124730" lon="-3.3752310">
        <ele>74.2</ele>
        <time>2018-09-04T11:24:40Z</time>
      </trkpt>
      <trkpt lat="43.4125050" lon="-3.3753180">
        <ele>75.0</ele>
        <time>2018-09-04T11:24:43Z</time>
      </trkpt>
      <trkpt lat="43.4125150" lon="-3.3753460">
        <ele>75.2</ele>
        <time>2018-09-04T11:24:44Z</time>
      </trkpt>
      <trkpt lat="43.4125530" lon="-3.3754230">
        <ele>76.0</ele>
        <time>2018-09-04T11:24:47Z</time>
      </trkpt>
      <trkpt lat="43.4125800" lon="-3.3754730">
        <ele>76.4</ele>
        <time>2018-09-04T11:24:49Z</time>
      </trkpt>
      <trkpt lat="43.4126200" lon="-3.3755400">
        <ele>77.4</ele>
        <time>2018-09-04T11:24:52Z</time>
      </trkpt>
      <trkpt lat="43.4126330" lon="-3.3755580">
        <ele>77.6</ele>
        <time>2018-09-04T11:24:53Z</time>
      </trkpt>
      <trkpt lat="43.4127090" lon="-3.3756640">
        <ele>78.6</ele>
        <time>2018-09-04T11:24:59Z</time>
      </trkpt>
      <trkpt lat="43.4127240" lon="-3.3756840">
        <ele>78.8</ele>
        <time>2018-09-04T11:25:00Z</time>
      </trkpt>
      <trkpt lat="43.4127380" lon="-3.3757040">
        <ele>79.0</ele>
        <time>2018-09-04T11:25:01Z</time>
      </trkpt>
      <trkpt lat="43.4127940" lon="-3.3758250">
        <ele>80.2</ele>
        <time>2018-09-04T11:25:06Z</time>
      </trkpt>
      <trkpt lat="43.4128060" lon="-3.3758450">
        <ele>80.4</ele>
        <time>2018-09-04T11:25:07Z</time>
      </trkpt>
      <trkpt lat="43.4128410" lon="-3.3759140">
        <ele>81.2</ele>
        <time>2018-09-04T11:25:11Z</time>
      </trkpt>
      <trkpt lat="43.4128690" lon="-3.3759760">
        <ele>81.8</ele>
        <time>2018-09-04T11:25:14Z</time>
      </trkpt>
      <trkpt lat="43.4128820" lon="-3.3759950">
        <ele>82.4</ele>
        <time>2018-09-04T11:25:15Z</time>
      </trkpt>
      <trkpt lat="43.4129540" lon="-3.3760960">
        <ele>83.2</ele>
        <time>2018-09-04T11:25:20Z</time>
      </trkpt>
      <trkpt lat="43.4129700" lon="-3.3761120">
        <ele>83.4</ele>
        <time>2018-09-04T11:25:21Z</time>
      </trkpt>
      <trkpt lat="43.4130520" lon="-3.3762240">
        <ele>84.6</ele>
        <time>2018-09-04T11:25:27Z</time>
      </trkpt>
      <trkpt lat="43.4131430" lon="-3.3764020">
        <ele>85.2</ele>
        <time>2018-09-04T11:25:33Z</time>
      </trkpt>
      <trkpt lat="43.4132110" lon="-3.3765930">
        <ele>85.6</ele>
        <time>2018-09-04T11:25:39Z</time>
      </trkpt>
      <trkpt lat="43.4132320" lon="-3.3766570">
        <ele>85.8</ele>
        <time>2018-09-04T11:25:41Z</time>
      </trkpt>
      <trkpt lat="43.4132950" lon="-3.3768520">
        <ele>86.8</ele>
        <time>2018-09-04T11:25:47Z</time>
      </trkpt>
      <trkpt lat="43.4133230" lon="-3.3769130">
        <ele>87.2</ele>
        <time>2018-09-04T11:25:49Z</time>
      </trkpt>
      <trkpt lat="43.4133520" lon="-3.3770080">
        <ele>87.8</ele>
        <time>2018-09-04T11:25:52Z</time>
      </trkpt>
      <trkpt lat="43.4133750" lon="-3.3771030">
        <ele>88.4</ele>
        <time>2018-09-04T11:25:55Z</time>
      </trkpt>
      <trkpt lat="43.4133870" lon="-3.3772010">
        <ele>89.0</ele>
        <time>2018-09-04T11:25:58Z</time>
      </trkpt>
      <trkpt lat="43.4133900" lon="-3.3773600">
        <ele>90.4</ele>
        <time>2018-09-04T11:26:03Z</time>
      </trkpt>
      <trkpt lat="43.4133890" lon="-3.3773900">
        <ele>90.6</ele>
        <time>2018-09-04T11:26:04Z</time>
      </trkpt>
      <trkpt lat="43.4133840" lon="-3.3775340">
        <ele>91.6</ele>
        <time>2018-09-04T11:26:09Z</time>
      </trkpt>
      <trkpt lat="43.4133730" lon="-3.3776360">
        <ele>92.2</ele>
        <time>2018-09-04T11:26:13Z</time>
      </trkpt>
      <trkpt lat="43.4133750" lon="-3.3777150">
        <ele>92.8</ele>
        <time>2018-09-04T11:26:16Z</time>
      </trkpt>
      <trkpt lat="43.4133770" lon="-3.3778230">
        <ele>93.6</ele>
        <time>2018-09-04T11:26:20Z</time>
      </trkpt>
      <trkpt lat="43.4133820" lon="-3.3778740">
        <ele>93.8</ele>
        <time>2018-09-04T11:26:22Z</time>
      </trkpt>
      <trkpt lat="43.4134080" lon="-3.3780050">
        <ele>94.8</ele>
        <time>2018-09-04T11:26:27Z</time>
      </trkpt>
      <trkpt lat="43.4134230" lon="-3.3780550">
        <ele>95.2</ele>
        <time>2018-09-04T11:26:29Z</time>
      </trkpt>
      <trkpt lat="43.4134380" lon="-3.3781010">
        <ele>95.8</ele>
        <time>2018-09-04T11:26:32Z</time>
      </trkpt>
      <trkpt lat="43.4134450" lon="-3.3781310">
        <ele>96.0</ele>
        <time>2018-09-04T11:26:34Z</time>
      </trkpt>
      <trkpt lat="43.4134560" lon="-3.3782210">
        <ele>96.6</ele>
        <time>2018-09-04T11:26:39Z</time>
      </trkpt>
      <trkpt lat="43.4134630" lon="-3.3782370">
        <ele>96.8</ele>
        <time>2018-09-04T11:26:40Z</time>
      </trkpt>
      <trkpt lat="43.4134720" lon="-3.3782510">
        <ele>97.0</ele>
        <time>2018-09-04T11:26:41Z</time>
      </trkpt>
      <trkpt lat="43.4134790" lon="-3.3782640">
        <ele>97.0</ele>
        <time>2018-09-04T11:26:42Z</time>
      </trkpt>
      <trkpt lat="43.4134710" lon="-3.3783150">
        <ele>97.4</ele>
        <time>2018-09-04T11:26:46Z</time>
      </trkpt>
      <trkpt lat="43.4134290" lon="-3.3783520">
        <ele>97.4</ele>
        <time>2018-09-04T11:26:49Z</time>
      </trkpt>
      <trkpt lat="43.4133820" lon="-3.3783980">
        <ele>97.8</ele>
        <time>2018-09-04T11:26:53Z</time>
      </trkpt>
      <trkpt lat="43.4133210" lon="-3.3784420">
        <ele>98.6</ele>
        <time>2018-09-04T11:26:58Z</time>
      </trkpt>
      <trkpt lat="43.4133090" lon="-3.3784510">
        <ele>98.8</ele>
        <time>2018-09-04T11:26:59Z</time>
      </trkpt>
      <trkpt lat="43.4132850" lon="-3.3784680">
        <ele>99.2</ele>
        <time>2018-09-04T11:27:01Z</time>
      </trkpt>
      <trkpt lat="43.4132560" lon="-3.3785090">
        <ele>100.0</ele>
        <time>2018-09-04T11:27:05Z</time>
      </trkpt>
      <trkpt lat="43.4132360" lon="-3.3785280">
        <ele>100.6</ele>
        <time>2018-09-04T11:27:07Z</time>
      </trkpt>
      <trkpt lat="43.4132060" lon="-3.3785460">
        <ele>101.2</ele>
        <time>2018-09-04T11:27:10Z</time>
      </trkpt>
      <trkpt lat="43.4131770" lon="-3.3785810">
        <ele>101.8</ele>
        <time>2018-09-04T11:27:13Z</time>
      </trkpt>
      <trkpt lat="43.4131570" lon="-3.3786020">
        <ele>102.4</ele>
        <time>2018-09-04T11:27:15Z</time>
      </trkpt>
      <trkpt lat="43.4131450" lon="-3.3786290">
        <ele>102.8</ele>
        <time>2018-09-04T11:27:17Z</time>
      </trkpt>
      <trkpt lat="43.4131320" lon="-3.3786560">
        <ele>103.0</ele>
        <time>2018-09-04T11:27:19Z</time>
      </trkpt>
      <trkpt lat="43.4131260" lon="-3.3786720">
        <ele>103.4</ele>
        <time>2018-09-04T11:27:20Z</time>
      </trkpt>
      <trkpt lat="43.4130780" lon="-3.3787470">
        <ele>104.4</ele>
        <time>2018-09-04T11:27:26Z</time>
      </trkpt>
      <trkpt lat="43.4130590" lon="-3.3787630">
        <ele>104.8</ele>
        <time>2018-09-04T11:27:28Z</time>
      </trkpt>
      <trkpt lat="43.4130240" lon="-3.3787880">
        <ele>105.6</ele>
        <time>2018-09-04T11:27:31Z</time>
      </trkpt>
      <trkpt lat="43.4129620" lon="-3.3788330">
        <ele>106.4</ele>
        <time>2018-09-04T11:27:37Z</time>
      </trkpt>
      <trkpt lat="43.4129510" lon="-3.3788400">
        <ele>106.6</ele>
        <time>2018-09-04T11:27:38Z</time>
      </trkpt>
      <trkpt lat="43.4129320" lon="-3.3788540">
        <ele>107.4</ele>
        <time>2018-09-04T11:27:40Z</time>
      </trkpt>
      <trkpt lat="43.4129220" lon="-3.3788590">
        <ele>107.6</ele>
        <time>2018-09-04T11:27:41Z</time>
      </trkpt>
      <trkpt lat="43.4128970" lon="-3.3788880">
        <ele>108.2</ele>
        <time>2018-09-04T11:27:44Z</time>
      </trkpt>
      <trkpt lat="43.4128770" lon="-3.3789060">
        <ele>108.8</ele>
        <time>2018-09-04T11:27:46Z</time>
      </trkpt>
      <trkpt lat="43.4128440" lon="-3.3789560">
        <ele>109.6</ele>
        <time>2018-09-04T11:27:50Z</time>
      </trkpt>
      <trkpt lat="43.4128390" lon="-3.3789710">
        <ele>109.8</ele>
        <time>2018-09-04T11:27:51Z</time>
      </trkpt>
      <trkpt lat="43.4130240" lon="-3.3807990">
        <ele>141.2</ele>
        <time>2018-09-04T11:31:53Z</time>
      </trkpt>
      <trkpt lat="43.4130340" lon="-3.3808470">
        <ele>141.4</ele>
        <time>2018-09-04T11:31:55Z</time>
      </trkpt>
      <trkpt lat="43.4130580" lon="-3.3809080">
        <ele>142.0</ele>
        <time>2018-09-04T11:31:58Z</time>
      </trkpt>
      <trkpt lat="43.4130750" lon="-3.3809990">
        <ele>142.4</ele>
        <time>2018-09-04T11:32:02Z</time>
      </trkpt>
      <trkpt lat="43.4131040" lon="-3.3811350">
        <ele>143.0</ele>
        <time>2018-09-04T11:32:08Z</time>
      </trkpt>
      <trkpt lat="43.4131180" lon="-3.3811940">
        <ele>142.8</ele>
        <time>2018-09-04T11:32:10Z</time>
      </trkpt>
      <trkpt lat="43.4131880" lon="-3.3813430">
        <ele>143.4</ele>
        <time>2018-09-04T11:32:16Z</time>
      </trkpt>
      <trkpt lat="43.4132020" lon="-3.3813830">
        <ele>143.6</ele>
        <time>2018-09-04T11:32:18Z</time>
      </trkpt>
      <trkpt lat="43.4132110" lon="-3.3814760">
        <ele>144.6</ele>
        <time>2018-09-04T11:32:23Z</time>
      </trkpt>
      <trkpt lat="43.4132140" lon="-3.3814950">
        <ele>144.8</ele>
        <time>2018-09-04T11:32:24Z</time>
      </trkpt>
      <trkpt lat="43.4132170" lon="-3.3815780">
        <ele>145.6</ele>
        <time>2018-09-04T11:32:28Z</time>
      </trkpt>
      <trkpt lat="43.4132140" lon="-3.3816000">
        <ele>146.2</ele>
        <time>2018-09-04T11:32:29Z</time>
      </trkpt>
      <trkpt lat="43.4132110" lon="-3.3816180">
        <ele>146.6</ele>
        <time>2018-09-04T11:32:30Z</time>
      </trkpt>
      <trkpt lat="43.4132070" lon="-3.3816830">
        <ele>147.4</ele>
        <time>2018-09-04T11:32:33Z</time>
      </trkpt>
      <trkpt lat="43.4132040" lon="-3.3817220">
        <ele>148.2</ele>
        <time>2018-09-04T11:32:35Z</time>
      </trkpt>
      <trkpt lat="43.4132010" lon="-3.3817270">
        <ele>148.6</ele>
        <time>2018-09-04T11:32:36Z</time>
      </trkpt>
      <trkpt lat="43.4132030" lon="-3.3817230">
        <ele>148.8</ele>
        <time>2018-09-04T11:32:37Z</time>
      </trkpt>
      <trkpt lat="43.4131890" lon="-3.3817760">
        <ele>149.2</ele>
        <time>2018-09-04T11:32:46Z</time>
      </trkpt>
      <trkpt lat="43.4131880" lon="-3.3817940">
        <ele>149.4</ele>
        <time>2018-09-04T11:32:47Z</time>
      </trkpt>
      <trkpt lat="43.4131820" lon="-3.3818120">
        <ele>149.8</ele>
        <time>2018-09-04T11:32:48Z</time>
      </trkpt>
      <trkpt lat="43.4131810" lon="-3.3818320">
        <ele>150.2</ele>
        <time>2018-09-04T11:32:49Z</time>
      </trkpt>
      <trkpt lat="43.4131640" lon="-3.3818970">
        <ele>151.2</ele>
        <time>2018-09-04T11:32:53Z</time>
      </trkpt>
      <trkpt lat="43.4131600" lon="-3.3819450">
        <ele>151.8</ele>
        <time>2018-09-04T11:32:56Z</time>
      </trkpt>
      <trkpt lat="43.4131650" lon="-3.3819630">
        <ele>152.0</ele>
        <time>2018-09-04T11:32:57Z</time>
      </trkpt>
      <trkpt lat="43.4131730" lon="-3.3819930">
        <ele>152.2</ele>
        <time>2018-09-04T11:33:00Z</time>
      </trkpt>
      <trkpt lat="43.4131720" lon="-3.3819900">
        <ele>152.4</ele>
        <time>2018-09-04T11:33:01Z</time>
      </trkpt>
      <trkpt lat="43.4132320" lon="-3.3820630">
        <ele>152.2</ele>
        <time>2018-09-04T11:33:46Z</time>
      </trkpt>
      <trkpt lat="43.4132320" lon="-3.3820900">
        <ele>151.8</ele>
        <time>2018-09-04T11:33:47Z</time>
      </trkpt>
      <trkpt lat="43.4132400" lon="-3.3821150">
        <ele>151.6</ele>
        <time>2018-09-04T11:33:48Z</time>
      </trkpt>
      <trkpt lat="43.4132540" lon="-3.3822520">
        <ele>151.6</ele>
        <time>2018-09-04T11:33:53Z</time>
      </trkpt>
      <trkpt lat="43.4132470" lon="-3.3822750">
        <ele>152.0</ele>
        <time>2018-09-04T11:33:54Z</time>
      </trkpt>
      <trkpt lat="43.4132480" lon="-3.3823240">
        <ele>152.4</ele>
        <time>2018-09-04T11:33:56Z</time>
      </trkpt>
      <trkpt lat="43.4132380" lon="-3.3823600">
        <ele>152.6</ele>
        <time>2018-09-04T11:33:58Z</time>
      </trkpt>
      <trkpt lat="43.4132300" lon="-3.3823810">
        <ele>152.8</ele>
        <time>2018-09-04T11:33:59Z</time>
      </trkpt>
      <trkpt lat="43.4132050" lon="-3.3824160">
        <ele>153.4</ele>
        <time>2018-09-04T11:34:01Z</time>
      </trkpt>
      <trkpt lat="43.4131890" lon="-3.3824540">
        <ele>153.6</ele>
        <time>2018-09-04T11:34:03Z</time>
      </trkpt>
      <trkpt lat="43.4131840" lon="-3.3824720">
        <ele>154.0</ele>
        <time>2018-09-04T11:34:04Z</time>
      </trkpt>
      <trkpt lat="43.4131850" lon="-3.3824930">
        <ele>154.4</ele>
        <time>2018-09-04T11:34:05Z</time>
      </trkpt>
      <trkpt lat="43.4131820" lon="-3.3825150">
        <ele>154.4</ele>
        <time>2018-09-04T11:34:06Z</time>
      </trkpt>
      <trkpt lat="43.4131740" lon="-3.3825540">
        <ele>154.6</ele>
        <time>2018-09-04T11:34:08Z</time>
      </trkpt>
      <trkpt lat="43.4131660" lon="-3.3825890">
        <ele>155.0</ele>
        <time>2018-09-04T11:34:10Z</time>
      </trkpt>
      <trkpt lat="43.4131670" lon="-3.3825950">
        <ele>155.2</ele>
        <time>2018-09-04T11:34:11Z</time>
      </trkpt>
      <trkpt lat="43.4131680" lon="-3.3825900">
        <ele>155.6</ele>
        <time>2018-09-04T11:34:12Z</time>
      </trkpt>
      <trkpt lat="43.4131100" lon="-3.3827990">
        <ele>158.6</ele>
        <time>2018-09-04T11:34:45Z</time>
      </trkpt>
      <trkpt lat="43.4131110" lon="-3.3828230">
        <ele>158.6</ele>
        <time>2018-09-04T11:34:46Z</time>
      </trkpt>
      <trkpt lat="43.4131050" lon="-3.3828900">
        <ele>158.8</ele>
        <time>2018-09-04T11:34:49Z</time>
      </trkpt>
      <trkpt lat="43.4131030" lon="-3.3829530">
        <ele>159.0</ele>
        <time>2018-09-04T11:34:52Z</time>
      </trkpt>
      <trkpt lat="43.4130920" lon="-3.3829920">
        <ele>159.6</ele>
        <time>2018-09-04T11:34:54Z</time>
      </trkpt>
      <trkpt lat="43.4130800" lon="-3.3830380">
        <ele>160.2</ele>
        <time>2018-09-04T11:34:57Z</time>
      </trkpt>
      <trkpt lat="43.4130710" lon="-3.3830450">
        <ele>160.2</ele>
        <time>2018-09-04T11:34:58Z</time>
      </trkpt>
      <trkpt lat="43.4130230" lon="-3.3831780">
        <ele>161.4</ele>
        <time>2018-09-04T11:35:43Z</time>
      </trkpt>
      <trkpt lat="43.4129770" lon="-3.3832960">
        <ele>162.4</ele>
        <time>2018-09-04T11:35:49Z</time>
      </trkpt>
      <trkpt lat="43.4129750" lon="-3.3833250">
        <ele>162.4</ele>
        <time>2018-09-04T11:35:50Z</time>
      </trkpt>
      <trkpt lat="43.4129600" lon="-3.3833980">
        <ele>162.4</ele>
        <time>2018-09-04T11:35:53Z</time>
      </trkpt>
      <trkpt lat="43.4129480" lon="-3.3834440">
        <ele>162.6</ele>
        <time>2018-09-04T11:35:55Z</time>
      </trkpt>
      <trkpt lat="43.4129180" lon="-3.3835750">
        <ele>163.4</ele>
        <time>2018-09-04T11:36:01Z</time>
      </trkpt>
      <trkpt lat="43.4129120" lon="-3.3835970">
        <ele>163.4</ele>
        <time>2018-09-04T11:36:02Z</time>
      </trkpt>
      <trkpt lat="43.4128950" lon="-3.3837240">
        <ele>164.0</ele>
        <time>2018-09-04T11:36:07Z</time>
      </trkpt>
      <trkpt lat="43.4128830" lon="-3.3837450">
        <ele>164.0</ele>
        <time>2018-09-04T11:36:08Z</time>
      </trkpt>
      <trkpt lat="43.4127800" lon="-3.3839210">
        <ele>164.4</ele>
        <time>2018-09-04T11:36:15Z</time>
      </trkpt>
      <trkpt lat="43.4127150" lon="-3.3840280">
        <ele>164.0</ele>
        <time>2018-09-04T11:36:19Z</time>
      </trkpt>
      <trkpt lat="43.4126840" lon="-3.3840460">
        <ele>163.8</ele>
        <time>2018-09-04T11:36:20Z</time>
      </trkpt>
      <trkpt lat="43.4125970" lon="-3.3841190">
        <ele>163.4</ele>
        <time>2018-09-04T11:36:24Z</time>
      </trkpt>
      <trkpt lat="43.4125900" lon="-3.3841300">
        <ele>163.2</ele>
        <time>2018-09-04T11:36:25Z</time>
      </trkpt>
      <trkpt lat="43.4125720" lon="-3.3841530">
        <ele>163.0</ele>
        <time>2018-09-04T11:36:27Z</time>
      </trkpt>
      <trkpt lat="43.4125260" lon="-3.3842050">
        <ele>162.4</ele>
        <time>2018-09-04T11:36:30Z</time>
      </trkpt>
      <trkpt lat="43.4124510" lon="-3.3842700">
        <ele>161.8</ele>
        <time>2018-09-04T11:36:35Z</time>
      </trkpt>
      <trkpt lat="43.4124430" lon="-3.3843020">
        <ele>161.8</ele>
        <time>2018-09-04T11:36:36Z</time>
      </trkpt>
      <trkpt lat="43.4124250" lon="-3.3843210">
        <ele>161.6</ele>
        <time>2018-09-04T11:36:37Z</time>
      </trkpt>
      <trkpt lat="43.4124080" lon="-3.3843460">
        <ele>161.6</ele>
        <time>2018-09-04T11:36:38Z</time>
      </trkpt>
      <trkpt lat="43.4123610" lon="-3.3843700">
        <ele>161.2</ele>
        <time>2018-09-04T11:36:40Z</time>
      </trkpt>
      <trkpt lat="43.4123120" lon="-3.3844120">
        <ele>161.2</ele>
        <time>2018-09-04T11:36:42Z</time>
      </trkpt>
      <trkpt lat="43.4122540" lon="-3.3845430">
        <ele>160.2</ele>
        <time>2018-09-04T11:36:45Z</time>
      </trkpt>
      <trkpt lat="43.4122640" lon="-3.3846020">
        <ele>160.2</ele>
        <time>2018-09-04T11:36:46Z</time>
      </trkpt>
      <trkpt lat="43.4122930" lon="-3.3847040">
        <ele>159.2</ele>
        <time>2018-09-04T11:36:49Z</time>
      </trkpt>
      <trkpt lat="43.4122990" lon="-3.3847130">
        <ele>159.0</ele>
        <time>2018-09-04T11:36:50Z</time>
      </trkpt>
      <trkpt lat="43.4123020" lon="-3.3847250">
        <ele>159.0</ele>
        <time>2018-09-04T11:36:51Z</time>
      </trkpt>
      <trkpt lat="43.4123080" lon="-3.3847780">
        <ele>159.2</ele>
        <time>2018-09-04T11:36:54Z</time>
      </trkpt>
      <trkpt lat="43.4123100" lon="-3.3847970">
        <ele>159.0</ele>
        <time>2018-09-04T11:36:55Z</time>
      </trkpt>
      <trkpt lat="43.4123060" lon="-3.3848110">
        <ele>158.8</ele>
        <time>2018-09-04T11:36:56Z</time>
      </trkpt>
      <trkpt lat="43.4123010" lon="-3.3848320">
        <ele>158.8</ele>
        <time>2018-09-04T11:36:57Z</time>
      </trkpt>
      <trkpt lat="43.4122930" lon="-3.3848660">
        <ele>158.6</ele>
        <time>2018-09-04T11:36:59Z</time>
      </trkpt>
      <trkpt lat="43.4122930" lon="-3.3848890">
        <ele>158.2</ele>
        <time>2018-09-04T11:37:00Z</time>
      </trkpt>
      <trkpt lat="43.4122960" lon="-3.3849100">
        <ele>157.8</ele>
        <time>2018-09-04T11:37:01Z</time>
      </trkpt>
      <trkpt lat="43.4122970" lon="-3.3850020">
        <ele>157.6</ele>
        <time>2018-09-04T11:37:05Z</time>
      </trkpt>
      <trkpt lat="43.4123030" lon="-3.3850250">
        <ele>157.6</ele>
        <time>2018-09-04T11:37:06Z</time>
      </trkpt>
      <trkpt lat="43.4123050" lon="-3.3851620">
        <ele>157.4</ele>
        <time>2018-09-04T11:37:11Z</time>
      </trkpt>
      <trkpt lat="43.4123070" lon="-3.3852590">
        <ele>158.2</ele>
        <time>2018-09-04T11:37:15Z</time>
      </trkpt>
      <trkpt lat="43.4122900" lon="-3.3853200">
        <ele>159.0</ele>
        <time>2018-09-04T11:37:18Z</time>
      </trkpt>
      <trkpt lat="43.4122810" lon="-3.3853300">
        <ele>159.2</ele>
        <time>2018-09-04T11:37:19Z</time>
      </trkpt>
      <trkpt lat="43.4122640" lon="-3.3853420">
        <ele>159.6</ele>
        <time>2018-09-04T11:37:21Z</time>
      </trkpt>
      <trkpt lat="43.4122510" lon="-3.3853500">
        <ele>159.8</ele>
        <time>2018-09-04T11:37:22Z</time>
      </trkpt>
      <trkpt lat="43.4122380" lon="-3.3853620">
        <ele>159.8</ele>
        <time>2018-09-04T11:37:23Z</time>
      </trkpt>
      <trkpt lat="43.4122070" lon="-3.3853880">
        <ele>159.8</ele>
        <time>2018-09-04T11:37:25Z</time>
      </trkpt>
      <trkpt lat="43.4121900" lon="-3.3854040">
        <ele>160.2</ele>
        <time>2018-09-04T11:37:26Z</time>
      </trkpt>
      <trkpt lat="43.4121460" lon="-3.3854480">
        <ele>160.8</ele>
        <time>2018-09-04T11:37:29Z</time>
      </trkpt>
      <trkpt lat="43.4121180" lon="-3.3854800">
        <ele>161.0</ele>
        <time>2018-09-04T11:37:31Z</time>
      </trkpt>
      <trkpt lat="43.4120930" lon="-3.3855070">
        <ele>161.2</ele>
        <time>2018-09-04T11:37:33Z</time>
      </trkpt>
      <trkpt lat="43.4120890" lon="-3.3855240">
        <ele>161.4</ele>
        <time>2018-09-04T11:37:34Z</time>
      </trkpt>
      <trkpt lat="43.4120590" lon="-3.3855690">
        <ele>161.8</ele>
        <time>2018-09-04T11:37:37Z</time>
      </trkpt>
      <trkpt lat="43.4120300" lon="-3.3856630">
        <ele>162.2</ele>
        <time>2018-09-04T11:37:42Z</time>
      </trkpt>
      <trkpt lat="43.4120290" lon="-3.3856830">
        <ele>162.4</ele>
        <time>2018-09-04T11:37:43Z</time>
      </trkpt>
      <trkpt lat="43.4120280" lon="-3.3856990">
        <ele>162.6</ele>
        <time>2018-09-04T11:37:44Z</time>
      </trkpt>
      <trkpt lat="43.4121240" lon="-3.3862660">
        <ele>170.6</ele>
        <time>2018-09-04T11:38:50Z</time>
      </trkpt>
      <trkpt lat="43.4121290" lon="-3.3862790">
        <ele>170.6</ele>
        <time>2018-09-04T11:38:51Z</time>
      </trkpt>
      <trkpt lat="43.4121480" lon="-3.3864520">
        <ele>170.8</ele>
        <time>2018-09-04T11:38:59Z</time>
      </trkpt>
      <trkpt lat="43.4121540" lon="-3.3864870">
        <ele>171.2</ele>
        <time>2018-09-04T11:39:01Z</time>
      </trkpt>
      <trkpt lat="43.4121770" lon="-3.3865380">
        <ele>171.4</ele>
        <time>2018-09-04T11:39:05Z</time>
      </trkpt>
      <trkpt lat="43.4122040" lon="-3.3866500">
        <ele>171.4</ele>
        <time>2018-09-04T11:39:11Z</time>
      </trkpt>
      <trkpt lat="43.4122100" lon="-3.3866640">
        <ele>171.6</ele>
        <time>2018-09-04T11:39:12Z</time>
      </trkpt>
      <trkpt lat="43.4122150" lon="-3.3866660">
        <ele>171.8</ele>
        <time>2018-09-04T11:39:13Z</time>
      </trkpt>
      <trkpt lat="43.4122340" lon="-3.3866970">
        <ele>172.4</ele>
        <time>2018-09-04T11:39:16Z</time>
      </trkpt>
      <trkpt lat="43.4122560" lon="-3.3867300">
        <ele>172.8</ele>
        <time>2018-09-04T11:39:20Z</time>
      </trkpt>
      <trkpt lat="43.4122520" lon="-3.3867260">
        <ele>173.0</ele>
        <time>2018-09-04T11:39:21Z</time>
      </trkpt>
      <trkpt lat="43.4122590" lon="-3.3867430">
        <ele>173.0</ele>
        <time>2018-09-04T11:39:23Z</time>
      </trkpt>
      <trkpt lat="43.4122790" lon="-3.3867740">
        <ele>173.2</ele>
        <time>2018-09-04T11:39:26Z</time>
      </trkpt>
      <trkpt lat="43.4122820" lon="-3.3867880">
        <ele>173.0</ele>
        <time>2018-09-04T11:39:27Z</time>
      </trkpt>
      <trkpt lat="43.4123170" lon="-3.3868660">
        <ele>172.4</ele>
        <time>2018-09-04T11:39:31Z</time>
      </trkpt>
      <trkpt lat="43.4123650" lon="-3.3869690">
        <ele>173.0</ele>
        <time>2018-09-04T11:39:38Z</time>
      </trkpt>
      <trkpt lat="43.4123910" lon="-3.3870340">
        <ele>173.4</ele>
        <time>2018-09-04T11:39:43Z</time>
      </trkpt>
      <trkpt lat="43.4123930" lon="-3.3870600">
        <ele>173.6</ele>
        <time>2018-09-04T11:39:45Z</time>
      </trkpt>
      <trkpt lat="43.4124120" lon="-3.3871320">
        <ele>173.6</ele>
        <time>2018-09-04T11:39:52Z</time>
      </trkpt>
      <trkpt lat="43.4124290" lon="-3.3871460">
        <ele>173.4</ele>
        <time>2018-09-04T11:39:53Z</time>
      </trkpt>
      <trkpt lat="43.4124470" lon="-3.3871530">
        <ele>173.6</ele>
        <time>2018-09-04T11:39:54Z</time>
      </trkpt>
      <trkpt lat="43.4124880" lon="-3.3872120">
        <ele>173.4</ele>
        <time>2018-09-04T11:39:57Z</time>
      </trkpt>
      <trkpt lat="43.4125080" lon="-3.3872490">
        <ele>173.8</ele>
        <time>2018-09-04T11:39:59Z</time>
      </trkpt>
      <trkpt lat="43.4125250" lon="-3.3872620">
        <ele>174.0</ele>
        <time>2018-09-04T11:40:00Z</time>
      </trkpt>
      <trkpt lat="43.4125480" lon="-3.3872990">
        <ele>174.2</ele>
        <time>2018-09-04T11:40:02Z</time>
      </trkpt>
      <trkpt lat="43.4125440" lon="-3.3873420">
        <ele>173.8</ele>
        <time>2018-09-04T11:40:04Z</time>
      </trkpt>
      <trkpt lat="43.4125190" lon="-3.3874120">
        <ele>172.8</ele>
        <time>2018-09-04T11:40:08Z</time>
      </trkpt>
      <trkpt lat="43.4125080" lon="-3.3874490">
        <ele>172.4</ele>
        <time>2018-09-04T11:40:09Z</time>
      </trkpt>
      <trkpt lat="43.4124450" lon="-3.3875550">
        <ele>172.0</ele>
        <time>2018-09-04T11:40:13Z</time>
      </trkpt>
      <trkpt lat="43.4124290" lon="-3.3875520">
        <ele>171.8</ele>
        <time>2018-09-04T11:40:14Z</time>
      </trkpt>
      <trkpt lat="43.4124180" lon="-3.3875540">
        <ele>171.6</ele>
        <time>2018-09-04T11:40:15Z</time>
      </trkpt>
      <trkpt lat="43.4123900" lon="-3.3875560">
        <ele>171.6</ele>
        <time>2018-09-04T11:40:18Z</time>
      </trkpt>
      <trkpt lat="43.4123390" lon="-3.3876400">
        <ele>171.2</ele>
        <time>2018-09-04T11:40:23Z</time>
      </trkpt>
      <trkpt lat="43.4123170" lon="-3.3876990">
        <ele>171.0</ele>
        <time>2018-09-04T11:40:26Z</time>
      </trkpt>
      <trkpt lat="43.4123030" lon="-3.3877170">
        <ele>170.8</ele>
        <time>2018-09-04T11:40:27Z</time>
      </trkpt>
      <trkpt lat="43.4122740" lon="-3.3877330">
        <ele>170.8</ele>
        <time>2018-09-04T11:40:29Z</time>
      </trkpt>
      <trkpt lat="43.4122510" lon="-3.3877740">
        <ele>170.6</ele>
        <time>2018-09-04T11:40:32Z</time>
      </trkpt>
      <trkpt lat="43.4122400" lon="-3.3877900">
        <ele>170.8</ele>
        <time>2018-09-04T11:40:34Z</time>
      </trkpt>
      <trkpt lat="43.4122180" lon="-3.3878450">
        <ele>170.2</ele>
        <time>2018-09-04T11:40:37Z</time>
      </trkpt>
      <trkpt lat="43.4121590" lon="-3.3879460">
        <ele>170.0</ele>
        <time>2018-09-04T11:40:42Z</time>
      </trkpt>
      <trkpt lat="43.4121320" lon="-3.3879730">
        <ele>170.2</ele>
        <time>2018-09-04T11:40:47Z</time>
      </trkpt>
      <trkpt lat="43.4120860" lon="-3.3880240">
        <ele>170.4</ele>
        <time>2018-09-04T11:40:54Z</time>
      </trkpt>
      <trkpt lat="43.4120340" lon="-3.3880480">
        <ele>170.2</ele>
        <time>2018-09-04T11:40:59Z</time>
      </trkpt>
      <trkpt lat="43.4120250" lon="-3.3880610">
        <ele>170.2</ele>
        <time>2018-09-04T11:41:00Z</time>
      </trkpt>
      <trkpt lat="43.4119590" lon="-3.3880890">
        <ele>169.8</ele>
        <time>2018-09-04T11:41:05Z</time>
      </trkpt>
      <trkpt lat="43.4119050" lon="-3.3881340">
        <ele>170.0</ele>
        <time>2018-09-04T11:41:10Z</time>
      </trkpt>
      <trkpt lat="43.4118390" lon="-3.3881990">
        <ele>170.2</ele>
        <time>2018-09-04T11:41:17Z</time>
      </trkpt>
      <trkpt lat="43.4117240" lon="-3.3882790">
        <ele>168.6</ele>
        <time>2018-09-04T11:41:38Z</time>
      </trkpt>
      <trkpt lat="43.4117210" lon="-3.3883010">
        <ele>168.4</ele>
        <time>2018-09-04T11:41:39Z</time>
      </trkpt>
      <trkpt lat="43.4117210" lon="-3.3884310">
        <ele>169.6</ele>
        <time>2018-09-04T11:41:46Z</time>
      </trkpt>
      <trkpt lat="43.4117190" lon="-3.3884480">
        <ele>169.6</ele>
        <time>2018-09-04T11:41:47Z</time>
      </trkpt>
      <trkpt lat="43.4117170" lon="-3.3885490">
        <ele>170.6</ele>
        <time>2018-09-04T11:41:53Z</time>
      </trkpt>
      <trkpt lat="43.4117170" lon="-3.3885800">
        <ele>170.8</ele>
        <time>2018-09-04T11:41:55Z</time>
      </trkpt>
      <trkpt lat="43.4117090" lon="-3.3886510">
        <ele>171.2</ele>
        <time>2018-09-04T11:42:04Z</time>
      </trkpt>
      <trkpt lat="43.4117120" lon="-3.3887060">
        <ele>171.2</ele>
        <time>2018-09-04T11:42:06Z</time>
      </trkpt>
      <trkpt lat="43.4117230" lon="-3.3889160">
        <ele>171.2</ele>
        <time>2018-09-04T11:42:13Z</time>
      </trkpt>
      <trkpt lat="43.4116960" lon="-3.3890290">
        <ele>171.4</ele>
        <time>2018-09-04T11:42:17Z</time>
      </trkpt>
      <trkpt lat="43.4116700" lon="-3.3890780">
        <ele>171.2</ele>
        <time>2018-09-04T11:42:19Z</time>
      </trkpt>
      <trkpt lat="43.4116100" lon="-3.3891660">
        <ele>171.4</ele>
        <time>2018-09-04T11:42:23Z</time>
      </trkpt>
      <trkpt lat="43.4115820" lon="-3.3891970">
        <ele>171.6</ele>
        <time>2018-09-04T11:42:25Z</time>
      </trkpt>
      <trkpt lat="43.4115540" lon="-3.3892320">
        <ele>172.0</ele>
        <time>2018-09-04T11:42:27Z</time>
      </trkpt>
      <trkpt lat="43.4115170" lon="-3.3892720">
        <ele>173.0</ele>
        <time>2018-09-04T11:42:30Z</time>
      </trkpt>
      <trkpt lat="43.4114970" lon="-3.3892960">
        <ele>174.2</ele>
        <time>2018-09-04T11:42:34Z</time>
      </trkpt>
      <trkpt lat="43.4113360" lon="-3.3895890">
        <ele>177.2</ele>
        <time>2018-09-04T11:43:28Z</time>
      </trkpt>
      <trkpt lat="43.4112380" lon="-3.3895300">
        <ele>176.4</ele>
        <time>2018-09-04T11:43:32Z</time>
      </trkpt>
      <trkpt lat="43.4112180" lon="-3.3894970">
        <ele>176.2</ele>
        <time>2018-09-04T11:43:33Z</time>
      </trkpt>
      <trkpt lat="43.4111930" lon="-3.3894650">
        <ele>176.0</ele>
        <time>2018-09-04T11:43:34Z</time>
      </trkpt>
      <trkpt lat="43.4111300" lon="-3.3894250">
        <ele>175.6</ele>
        <time>2018-09-04T11:43:36Z</time>
      </trkpt>
      <trkpt lat="43.4110810" lon="-3.3894370">
        <ele>175.2</ele>
        <time>2018-09-04T11:43:37Z</time>
      </trkpt>
      <trkpt lat="43.4110420" lon="-3.3894780">
        <ele>174.6</ele>
        <time>2018-09-04T11:43:38Z</time>
      </trkpt>
      <trkpt lat="43.4110300" lon="-3.3895240">
        <ele>174.2</ele>
        <time>2018-09-04T11:43:39Z</time>
      </trkpt>
      <trkpt lat="43.4110380" lon="-3.3895760">
        <ele>174.4</ele>
        <time>2018-09-04T11:43:40Z</time>
      </trkpt>
      <trkpt lat="43.4110800" lon="-3.3897100">
        <ele>173.6</ele>
        <time>2018-09-04T11:43:42Z</time>
      </trkpt>
      <trkpt lat="43.4111030" lon="-3.3897890">
        <ele>172.2</ele>
        <time>2018-09-04T11:43:43Z</time>
      </trkpt>
      <trkpt lat="43.4111250" lon="-3.3898740">
        <ele>170.8</ele>
        <time>2018-09-04T11:43:44Z</time>
      </trkpt>
      <trkpt lat="43.4111470" lon="-3.3899620">
        <ele>169.6</ele>
        <time>2018-09-04T11:43:45Z</time>
      </trkpt>
      <trkpt lat="43.4111650" lon="-3.3900480">
        <ele>168.4</ele>
        <time>2018-09-04T11:43:46Z</time>
      </trkpt>
      <trkpt lat="43.4112260" lon="-3.3902200">
        <ele>167.0</ele>
        <time>2018-09-04T11:43:48Z</time>
      </trkpt>
      <trkpt lat="43.4113090" lon="-3.3903850">
        <ele>165.0</ele>
        <time>2018-09-04T11:43:50Z</time>
      </trkpt>
      <trkpt lat="43.4113540" lon="-3.3904520">
        <ele>163.6</ele>
        <time>2018-09-04T11:43:51Z</time>
      </trkpt>
      <trkpt lat="43.4113890" lon="-3.3905190">
        <ele>162.4</ele>
        <time>2018-09-04T11:43:52Z</time>
      </trkpt>
      <trkpt lat="43.4114220" lon="-3.3906760">
        <ele>160.4</ele>
        <time>2018-09-04T11:43:54Z</time>
      </trkpt>
      <trkpt lat="43.4114140" lon="-3.3907620">
        <ele>159.8</ele>
        <time>2018-09-04T11:43:55Z</time>
      </trkpt>
      <trkpt lat="43.4113860" lon="-3.3908460">
        <ele>159.0</ele>
        <time>2018-09-04T11:43:56Z</time>
      </trkpt>
      <trkpt lat="43.4113100" lon="-3.3910100">
        <ele>158.2</ele>
        <time>2018-09-04T11:43:58Z</time>
      </trkpt>
      <trkpt lat="43.4112730" lon="-3.3910880">
        <ele>158.0</ele>
        <time>2018-09-04T11:43:59Z</time>
      </trkpt>
      <trkpt lat="43.4112080" lon="-3.3912940">
        <ele>157.6</ele>
        <time>2018-09-04T11:44:02Z</time>
      </trkpt>
      <trkpt lat="43.4112210" lon="-3.3913330">
        <ele>158.2</ele>
        <time>2018-09-04T11:44:03Z</time>
      </trkpt>
      <trkpt lat="43.4112690" lon="-3.3913800">
        <ele>159.0</ele>
        <time>2018-09-04T11:44:05Z</time>
      </trkpt>
      <trkpt lat="43.4112860" lon="-3.3914070">
        <ele>158.6</ele>
        <time>2018-09-04T11:44:06Z</time>
      </trkpt>
      <trkpt lat="43.4113760" lon="-3.3915120">
        <ele>157.6</ele>
        <time>2018-09-04T11:44:09Z</time>
      </trkpt>
      <trkpt lat="43.4114110" lon="-3.3915560">
        <ele>157.0</ele>
        <time>2018-09-04T11:44:10Z</time>
      </trkpt>
      <trkpt lat="43.4114400" lon="-3.3916030">
        <ele>156.2</ele>
        <time>2018-09-04T11:44:11Z</time>
      </trkpt>
      <trkpt lat="43.4114890" lon="-3.3916960">
        <ele>154.4</ele>
        <time>2018-09-04T11:44:13Z</time>
      </trkpt>
      <trkpt lat="43.4115530" lon="-3.3917830">
        <ele>153.2</ele>
        <time>2018-09-04T11:44:15Z</time>
      </trkpt>
      <trkpt lat="43.4116230" lon="-3.3918730">
        <ele>151.4</ele>
        <time>2018-09-04T11:44:17Z</time>
      </trkpt>
      <trkpt lat="43.4116630" lon="-3.3919030">
        <ele>150.2</ele>
        <time>2018-09-04T11:44:18Z</time>
      </trkpt>
      <trkpt lat="43.4117450" lon="-3.3919380">
        <ele>148.4</ele>
        <time>2018-09-04T11:44:20Z</time>
      </trkpt>
      <trkpt lat="43.4118170" lon="-3.3919790">
        <ele>146.6</ele>
        <time>2018-09-04T11:44:22Z</time>
      </trkpt>
      <trkpt lat="43.4119130" lon="-3.3920140">
        <ele>144.4</ele>
        <time>2018-09-04T11:44:24Z</time>
      </trkpt>
      <trkpt lat="43.4119630" lon="-3.3920210">
        <ele>143.4</ele>
        <time>2018-09-04T11:44:25Z</time>
      </trkpt>
      <trkpt lat="43.4120500" lon="-3.3920370">
        <ele>141.8</ele>
        <time>2018-09-04T11:44:27Z</time>
      </trkpt>
      <trkpt lat="43.4121350" lon="-3.3920620">
        <ele>140.0</ele>
        <time>2018-09-04T11:44:29Z</time>
      </trkpt>
      <trkpt lat="43.4121830" lon="-3.3920860">
        <ele>138.0</ele>
        <time>2018-09-04T11:44:30Z</time>
      </trkpt>
      <trkpt lat="43.4122230" lon="-3.3921000">
        <ele>136.8</ele>
        <time>2018-09-04T11:44:31Z</time>
      </trkpt>
      <trkpt lat="43.4122650" lon="-3.3921090">
        <ele>135.8</ele>
        <time>2018-09-04T11:44:33Z</time>
      </trkpt>
      <trkpt lat="43.4122830" lon="-3.3921240">
        <ele>135.4</ele>
        <time>2018-09-04T11:44:34Z</time>
      </trkpt>
      <trkpt lat="43.4122850" lon="-3.3921850">
        <ele>134.6</ele>
        <time>2018-09-04T11:44:36Z</time>
      </trkpt>
      <trkpt lat="43.4122720" lon="-3.3922110">
        <ele>134.0</ele>
        <time>2018-09-04T11:44:37Z</time>
      </trkpt>
      <trkpt lat="43.4122460" lon="-3.3922320">
        <ele>133.4</ele>
        <time>2018-09-04T11:44:38Z</time>
      </trkpt>
      <trkpt lat="43.4121890" lon="-3.3922540">
        <ele>132.4</ele>
        <time>2018-09-04T11:44:40Z</time>
      </trkpt>
      <trkpt lat="43.4121820" lon="-3.3922730">
        <ele>132.0</ele>
        <time>2018-09-04T11:44:41Z</time>
      </trkpt>
      <trkpt lat="43.4121510" lon="-3.3923030">
        <ele>131.2</ele>
        <time>2018-09-04T11:44:43Z</time>
      </trkpt>
      <trkpt lat="43.4121480" lon="-3.3923230">
        <ele>130.8</ele>
        <time>2018-09-04T11:44:44Z</time>
      </trkpt>
      <trkpt lat="43.4121330" lon="-3.3924390">
        <ele>129.4</ele>
        <time>2018-09-04T11:44:47Z</time>
      </trkpt>
      <trkpt lat="43.4121240" lon="-3.3924960">
        <ele>128.8</ele>
        <time>2018-09-04T11:44:48Z</time>
      </trkpt>
      <trkpt lat="43.4121110" lon="-3.3925700">
        <ele>127.6</ele>
        <time>2018-09-04T11:44:49Z</time>
      </trkpt>
      <trkpt lat="43.4120950" lon="-3.3926470">
        <ele>126.6</ele>
        <time>2018-09-04T11:44:50Z</time>
      </trkpt>
      <trkpt lat="43.4120810" lon="-3.3928080">
        <ele>125.0</ele>
        <time>2018-09-04T11:44:52Z</time>
      </trkpt>
      <trkpt lat="43.4120630" lon="-3.3928830">
        <ele>123.8</ele>
        <time>2018-09-04T11:44:53Z</time>
      </trkpt>
      <trkpt lat="43.4120560" lon="-3.3929600">
        <ele>121.6</ele>
        <time>2018-09-04T11:44:54Z</time>
      </trkpt>
      <trkpt lat="43.4120600" lon="-3.3931150">
        <ele>121.0</ele>
        <time>2018-09-04T11:44:56Z</time>
      </trkpt>
      <trkpt lat="43.4120650" lon="-3.3931800">
        <ele>120.6</ele>
        <time>2018-09-04T11:44:57Z</time>
      </trkpt>
      <trkpt lat="43.4120870" lon="-3.3933200">
        <ele>119.4</ele>
        <time>2018-09-04T11:45:00Z</time>
      </trkpt>
      <trkpt lat="43.4121200" lon="-3.3933740">
        <ele>118.8</ele>
        <time>2018-09-04T11:45:02Z</time>
      </trkpt>
      <trkpt lat="43.4121570" lon="-3.3934280">
        <ele>118.4</ele>
        <time>2018-09-04T11:45:04Z</time>
      </trkpt>
      <trkpt lat="43.4121950" lon="-3.3934770">
        <ele>118.0</ele>
        <time>2018-09-04T11:45:07Z</time>
      </trkpt>
      <trkpt lat="43.4122140" lon="-3.3935310">
        <ele>117.2</ele>
        <time>2018-09-04T11:45:09Z</time>
      </trkpt>
      <trkpt lat="43.4122830" lon="-3.3936360">
        <ele>116.0</ele>
        <time>2018-09-04T11:45:12Z</time>
      </trkpt>
      <trkpt lat="43.4123040" lon="-3.3936690">
        <ele>115.6</ele>
        <time>2018-09-04T11:45:13Z</time>
      </trkpt>
      <trkpt lat="43.4123270" lon="-3.3936970">
        <ele>115.0</ele>
        <time>2018-09-04T11:45:14Z</time>
      </trkpt>
      <trkpt lat="43.4123890" lon="-3.3938130">
        <ele>113.6</ele>
        <time>2018-09-04T11:45:17Z</time>
      </trkpt>
      <trkpt lat="43.4124360" lon="-3.3939230">
        <ele>112.2</ele>
        <time>2018-09-04T11:45:19Z</time>
      </trkpt>
      <trkpt lat="43.4124810" lon="-3.3940270">
        <ele>111.0</ele>
        <time>2018-09-04T11:45:21Z</time>
      </trkpt>
      <trkpt lat="43.4125160" lon="-3.3941140">
        <ele>109.6</ele>
        <time>2018-09-04T11:45:23Z</time>
      </trkpt>
      <trkpt lat="43.4125260" lon="-3.3941520">
        <ele>109.0</ele>
        <time>2018-09-04T11:45:24Z</time>
      </trkpt>
      <trkpt lat="43.4125470" lon="-3.3942010">
        <ele>108.6</ele>
        <time>2018-09-04T11:45:25Z</time>
      </trkpt>
      <trkpt lat="43.4125770" lon="-3.3943100">
        <ele>107.0</ele>
        <time>2018-09-04T11:45:27Z</time>
      </trkpt>
      <trkpt lat="43.4125940" lon="-3.3943530">
        <ele>106.2</ele>
        <time>2018-09-04T11:45:28Z</time>
      </trkpt>
      <trkpt lat="43.4126100" lon="-3.3944000">
        <ele>105.6</ele>
        <time>2018-09-04T11:45:29Z</time>
      </trkpt>
      <trkpt lat="43.4126470" lon="-3.3944760">
        <ele>104.0</ele>
        <time>2018-09-04T11:45:31Z</time>
      </trkpt>
      <trkpt lat="43.4126870" lon="-3.3945150">
        <ele>103.0</ele>
        <time>2018-09-04T11:45:33Z</time>
      </trkpt>
      <trkpt lat="43.4126970" lon="-3.3945270">
        <ele>102.6</ele>
        <time>2018-09-04T11:45:34Z</time>
      </trkpt>
      <trkpt lat="43.4127150" lon="-3.3945710">
        <ele>101.8</ele>
        <time>2018-09-04T11:45:37Z</time>
      </trkpt>
      <trkpt lat="43.4127270" lon="-3.3946290">
        <ele>100.6</ele>
        <time>2018-09-04T11:45:40Z</time>
      </trkpt>
      <trkpt lat="43.4127360" lon="-3.3946820">
        <ele>99.6</ele>
        <time>2018-09-04T11:45:42Z</time>
      </trkpt>
      <trkpt lat="43.4127480" lon="-3.3947880">
        <ele>98.6</ele>
        <time>2018-09-04T11:45:44Z</time>
      </trkpt>
      <trkpt lat="43.4127450" lon="-3.3948540">
        <ele>98.0</ele>
        <time>2018-09-04T11:45:45Z</time>
      </trkpt>
      <trkpt lat="43.4127550" lon="-3.3949970">
        <ele>97.0</ele>
        <time>2018-09-04T11:45:47Z</time>
      </trkpt>
      <trkpt lat="43.4127620" lon="-3.3950590">
        <ele>96.6</ele>
        <time>2018-09-04T11:45:48Z</time>
      </trkpt>
      <trkpt lat="43.4127760" lon="-3.3951260">
        <ele>95.8</ele>
        <time>2018-09-04T11:45:49Z</time>
      </trkpt>
      <trkpt lat="43.4127910" lon="-3.3951870">
        <ele>94.8</ele>
        <time>2018-09-04T11:45:50Z</time>
      </trkpt>
      <trkpt lat="43.4128030" lon="-3.3952520">
        <ele>94.0</ele>
        <time>2018-09-04T11:45:51Z</time>
      </trkpt>
      <trkpt lat="43.4128210" lon="-3.3953040">
        <ele>93.0</ele>
        <time>2018-09-04T11:45:52Z</time>
      </trkpt>
      <trkpt lat="43.4128450" lon="-3.3954320">
        <ele>91.2</ele>
        <time>2018-09-04T11:45:54Z</time>
      </trkpt>
      <trkpt lat="43.4128580" lon="-3.3954980">
        <ele>90.4</ele>
        <time>2018-09-04T11:45:55Z</time>
      </trkpt>
      <trkpt lat="43.4128690" lon="-3.3955640">
        <ele>89.6</ele>
        <time>2018-09-04T11:45:56Z</time>
      </trkpt>
      <trkpt lat="43.4128840" lon="-3.3956910">
        <ele>88.0</ele>
        <time>2018-09-04T11:45:58Z</time>
      </trkpt>
      <trkpt lat="43.4128990" lon="-3.3957930">
        <ele>86.0</ele>
        <time>2018-09-04T11:46:00Z</time>
      </trkpt>
      <trkpt lat="43.4129070" lon="-3.3958620">
        <ele>85.2</ele>
        <time>2018-09-04T11:46:01Z</time>
      </trkpt>
      <trkpt lat="43.4129160" lon="-3.3959340">
        <ele>84.2</ele>
        <time>2018-09-04T11:46:02Z</time>
      </trkpt>
      <trkpt lat="43.4129350" lon="-3.3960800">
        <ele>83.2</ele>
        <time>2018-09-04T11:46:04Z</time>
      </trkpt>
      <trkpt lat="43.4129380" lon="-3.3962300">
        <ele>81.6</ele>
        <time>2018-09-04T11:46:06Z</time>
      </trkpt>
      <trkpt lat="43.4129310" lon="-3.3963050">
        <ele>80.8</ele>
        <time>2018-09-04T11:46:07Z</time>
      </trkpt>
      <trkpt lat="43.4129330" lon="-3.3963870">
        <ele>80.4</ele>
        <time>2018-09-04T11:46:08Z</time>
      </trkpt>
      <trkpt lat="43.4129520" lon="-3.3967580">
        <ele>79.4</ele>
        <time>2018-09-04T11:46:12Z</time>
      </trkpt>
      <trkpt lat="43.4129630" lon="-3.3969690">
        <ele>78.2</ele>
        <time>2018-09-04T11:46:14Z</time>
      </trkpt>
      <trkpt lat="43.4129380" lon="-3.3972890">
        <ele>77.4</ele>
        <time>2018-09-04T11:46:17Z</time>
      </trkpt>
      <trkpt lat="43.4129230" lon="-3.3974940">
        <ele>77.0</ele>
        <time>2018-09-04T11:46:19Z</time>
      </trkpt>
      <trkpt lat="43.4129270" lon="-3.3977040">
        <ele>75.6</ele>
        <time>2018-09-04T11:46:21Z</time>
      </trkpt>
      <trkpt lat="43.4129490" lon="-3.3978800">
        <ele>75.2</ele>
        <time>2018-09-04T11:46:23Z</time>
      </trkpt>
      <trkpt lat="43.4129810" lon="-3.3980400">
        <ele>74.6</ele>
        <time>2018-09-04T11:46:25Z</time>
      </trkpt>
      <trkpt lat="43.4130250" lon="-3.3982160">
        <ele>73.6</ele>
        <time>2018-09-04T11:46:27Z</time>
      </trkpt>
      <trkpt lat="43.4130470" lon="-3.3983080">
        <ele>73.4</ele>
        <time>2018-09-04T11:46:28Z</time>
      </trkpt>
      <trkpt lat="43.4130790" lon="-3.3983960">
        <ele>72.8</ele>
        <time>2018-09-04T11:46:29Z</time>
      </trkpt>
      <trkpt lat="43.4131170" lon="-3.3984860">
        <ele>71.6</ele>
        <time>2018-09-04T11:46:30Z</time>
      </trkpt>
      <trkpt lat="43.4132160" lon="-3.3986630">
        <ele>69.8</ele>
        <time>2018-09-04T11:46:32Z</time>
      </trkpt>
      <trkpt lat="43.4132690" lon="-3.3987440">
        <ele>68.8</ele>
        <time>2018-09-04T11:46:33Z</time>
      </trkpt>
      <trkpt lat="43.4133150" lon="-3.3988130">
        <ele>68.6</ele>
        <time>2018-09-04T11:46:34Z</time>
      </trkpt>
      <trkpt lat="43.4134230" lon="-3.3990160">
        <ele>67.8</ele>
        <time>2018-09-04T11:46:37Z</time>
      </trkpt>
      <trkpt lat="43.4134520" lon="-3.3990780">
        <ele>67.0</ele>
        <time>2018-09-04T11:46:38Z</time>
      </trkpt>
      <trkpt lat="43.4135150" lon="-3.3992070">
        <ele>65.6</ele>
        <time>2018-09-04T11:46:40Z</time>
      </trkpt>
      <trkpt lat="43.4135450" lon="-3.3992750">
        <ele>64.6</ele>
        <time>2018-09-04T11:46:41Z</time>
      </trkpt>
      <trkpt lat="43.4135840" lon="-3.3993380">
        <ele>63.2</ele>
        <time>2018-09-04T11:46:42Z</time>
      </trkpt>
      <trkpt lat="43.4136280" lon="-3.3994020">
        <ele>61.6</ele>
        <time>2018-09-04T11:46:43Z</time>
      </trkpt>
      <trkpt lat="43.4136760" lon="-3.3994740">
        <ele>60.2</ele>
        <time>2018-09-04T11:46:44Z</time>
      </trkpt>
      <trkpt lat="43.4137220" lon="-3.3995520">
        <ele>58.8</ele>
        <time>2018-09-04T11:46:45Z</time>
      </trkpt>
      <trkpt lat="43.4137600" lon="-3.3996350">
        <ele>57.8</ele>
        <time>2018-09-04T11:46:46Z</time>
      </trkpt>
      <trkpt lat="43.4137940" lon="-3.3997150">
        <ele>56.4</ele>
        <time>2018-09-04T11:46:47Z</time>
      </trkpt>
      <trkpt lat="43.4138260" lon="-3.3997920">
        <ele>55.2</ele>
        <time>2018-09-04T11:46:48Z</time>
      </trkpt>
      <trkpt lat="43.4138580" lon="-3.3998740">
        <ele>53.8</ele>
        <time>2018-09-04T11:46:49Z</time>
      </trkpt>
      <trkpt lat="43.4138870" lon="-3.3999520">
        <ele>52.4</ele>
        <time>2018-09-04T11:46:50Z</time>
      </trkpt>
      <trkpt lat="43.4139100" lon="-3.4000310">
        <ele>51.2</ele>
        <time>2018-09-04T11:46:51Z</time>
      </trkpt>
      <trkpt lat="43.4139540" lon="-3.4001760">
        <ele>49.4</ele>
        <time>2018-09-04T11:46:53Z</time>
      </trkpt>
      <trkpt lat="43.4139710" lon="-3.4002520">
        <ele>47.4</ele>
        <time>2018-09-04T11:46:54Z</time>
      </trkpt>
      <trkpt lat="43.4139870" lon="-3.4003270">
        <ele>46.0</ele>
        <time>2018-09-04T11:46:55Z</time>
      </trkpt>
      <trkpt lat="43.4140040" lon="-3.4004040">
        <ele>44.8</ele>
        <time>2018-09-04T11:46:56Z</time>
      </trkpt>
      <trkpt lat="43.4140410" lon="-3.4005640">
        <ele>42.8</ele>
        <time>2018-09-04T11:46:58Z</time>
      </trkpt>
      <trkpt lat="43.4140820" lon="-3.4007210">
        <ele>40.8</ele>
        <time>2018-09-04T11:47:00Z</time>
      </trkpt>
      <trkpt lat="43.4141030" lon="-3.4007900">
        <ele>39.8</ele>
        <time>2018-09-04T11:47:01Z</time>
      </trkpt>
      <trkpt lat="43.4141210" lon="-3.4008670">
        <ele>38.8</ele>
        <time>2018-09-04T11:47:02Z</time>
      </trkpt>
      <trkpt lat="43.4141320" lon="-3.4009520">
        <ele>38.2</ele>
        <time>2018-09-04T11:47:03Z</time>
      </trkpt>
      <trkpt lat="43.4141460" lon="-3.4010350">
        <ele>37.0</ele>
        <time>2018-09-04T11:47:04Z</time>
      </trkpt>
      <trkpt lat="43.4141610" lon="-3.4011230">
        <ele>35.4</ele>
        <time>2018-09-04T11:47:05Z</time>
      </trkpt>
      <trkpt lat="43.4141690" lon="-3.4012100">
        <ele>33.6</ele>
        <time>2018-09-04T11:47:06Z</time>
      </trkpt>
      <trkpt lat="43.4141760" lon="-3.4012900">
        <ele>31.8</ele>
        <time>2018-09-04T11:47:07Z</time>
      </trkpt>
      <trkpt lat="43.4141780" lon="-3.4013710">
        <ele>30.2</ele>
        <time>2018-09-04T11:47:08Z</time>
      </trkpt>
      <trkpt lat="43.4141710" lon="-3.4014470">
        <ele>28.8</ele>
        <time>2018-09-04T11:47:09Z</time>
      </trkpt>
      <trkpt lat="43.4141630" lon="-3.4015210">
        <ele>27.2</ele>
        <time>2018-09-04T11:47:10Z</time>
      </trkpt>
      <trkpt lat="43.4141550" lon="-3.4015940">
        <ele>26.0</ele>
        <time>2018-09-04T11:47:11Z</time>
      </trkpt>
      <trkpt lat="43.4141450" lon="-3.4016650">
        <ele>24.6</ele>
        <time>2018-09-04T11:47:12Z</time>
      </trkpt>
      <trkpt lat="43.4141340" lon="-3.4017340">
        <ele>23.6</ele>
        <time>2018-09-04T11:47:13Z</time>
      </trkpt>
      <trkpt lat="43.4141310" lon="-3.4018050">
        <ele>22.4</ele>
        <time>2018-09-04T11:47:14Z</time>
      </trkpt>
      <trkpt lat="43.4141360" lon="-3.4018630">
        <ele>21.4</ele>
        <time>2018-09-04T11:47:15Z</time>
      </trkpt>
      <trkpt lat="43.4141490" lon="-3.4019170">
        <ele>20.6</ele>
        <time>2018-09-04T11:47:16Z</time>
      </trkpt>
      <trkpt lat="43.4141660" lon="-3.4019650">
        <ele>20.0</ele>
        <time>2018-09-04T11:47:17Z</time>
      </trkpt>
      <trkpt lat="43.4141820" lon="-3.4020240">
        <ele>19.4</ele>
        <time>2018-09-04T11:47:18Z</time>
      </trkpt>
      <trkpt lat="43.4141790" lon="-3.4020960">
        <ele>19.0</ele>
        <time>2018-09-04T11:47:19Z</time>
      </trkpt>
      <trkpt lat="43.4141710" lon="-3.4021590">
        <ele>18.6</ele>
        <time>2018-09-04T11:47:20Z</time>
      </trkpt>
      <trkpt lat="43.4141350" lon="-3.4024210">
        <ele>17.2</ele>
        <time>2018-09-04T11:47:23Z</time>
      </trkpt>
      <trkpt lat="43.4141250" lon="-3.4025180">
        <ele>16.4</ele>
        <time>2018-09-04T11:47:24Z</time>
      </trkpt>
      <trkpt lat="43.4141130" lon="-3.4026180">
        <ele>15.8</ele>
        <time>2018-09-04T11:47:25Z</time>
      </trkpt>
      <trkpt lat="43.4140810" lon="-3.4029240">
        <ele>14.6</ele>
        <time>2018-09-04T11:47:28Z</time>
      </trkpt>
      <trkpt lat="43.4140710" lon="-3.4030220">
        <ele>14.6</ele>
        <time>2018-09-04T11:47:29Z</time>
      </trkpt>
      <trkpt lat="43.4140540" lon="-3.4032100">
        <ele>14.4</ele>
        <time>2018-09-04T11:47:31Z</time>
      </trkpt>
      <trkpt lat="43.4140190" lon="-3.4036780">
        <ele>15.0</ele>
        <time>2018-09-04T11:47:37Z</time>
      </trkpt>
      <trkpt lat="43.4140050" lon="-3.4038210">
        <ele>15.0</ele>
        <time>2018-09-04T11:47:39Z</time>
      </trkpt>
      <trkpt lat="43.4139660" lon="-3.4040780">
        <ele>13.4</ele>
        <time>2018-09-04T11:47:42Z</time>
      </trkpt>
      <trkpt lat="43.4139000" lon="-3.4043610">
        <ele>12.4</ele>
        <time>2018-09-04T11:47:45Z</time>
      </trkpt>
      <trkpt lat="43.4138560" lon="-3.4045340">
        <ele>12.0</ele>
        <time>2018-09-04T11:47:47Z</time>
      </trkpt>
      <trkpt lat="43.4137730" lon="-3.4048020">
        <ele>11.4</ele>
        <time>2018-09-04T11:47:51Z</time>
      </trkpt>
      <trkpt lat="43.4137500" lon="-3.4048710">
        <ele>11.2</ele>
        <time>2018-09-04T11:47:52Z</time>
      </trkpt>
      <trkpt lat="43.4137340" lon="-3.4049400">
        <ele>11.2</ele>
        <time>2018-09-04T11:47:53Z</time>
      </trkpt>
      <trkpt lat="43.4137200" lon="-3.4051500">
        <ele>11.4</ele>
        <time>2018-09-04T11:47:56Z</time>
      </trkpt>
      <trkpt lat="43.4137330" lon="-3.4052900">
        <ele>11.2</ele>
        <time>2018-09-04T11:47:58Z</time>
      </trkpt>
      <trkpt lat="43.4137620" lon="-3.4054300">
        <ele>11.2</ele>
        <time>2018-09-04T11:48:00Z</time>
      </trkpt>
      <trkpt lat="43.4137770" lon="-3.4055050">
        <ele>11.4</ele>
        <time>2018-09-04T11:48:01Z</time>
      </trkpt>
      <trkpt lat="43.4138560" lon="-3.4059360">
        <ele>9.8</ele>
        <time>2018-09-04T11:48:06Z</time>
      </trkpt>
      <trkpt lat="43.4138750" lon="-3.4060270">
        <ele>9.6</ele>
        <time>2018-09-04T11:48:07Z</time>
      </trkpt>
      <trkpt lat="43.4139740" lon="-3.4063590">
        <ele>9.4</ele>
        <time>2018-09-04T11:48:11Z</time>
      </trkpt>
      <trkpt lat="43.4140120" lon="-3.4065110">
        <ele>9.6</ele>
        <time>2018-09-04T11:48:13Z</time>
      </trkpt>
      <trkpt lat="43.4141240" lon="-3.4068830">
        <ele>10.8</ele>
        <time>2018-09-04T11:48:19Z</time>
      </trkpt>
      <trkpt lat="43.4141480" lon="-3.4071180">
        <ele>12.2</ele>
        <time>2018-09-04T11:48:24Z</time>
      </trkpt>
      <trkpt lat="43.4141290" lon="-3.4071800">
        <ele>12.8</ele>
        <time>2018-09-04T11:48:26Z</time>
      </trkpt>
      <trkpt lat="43.4141070" lon="-3.4072310">
        <ele>13.6</ele>
        <time>2018-09-04T11:48:28Z</time>
      </trkpt>
      <trkpt lat="43.4140940" lon="-3.4072560">
        <ele>13.8</ele>
        <time>2018-09-04T11:48:29Z</time>
      </trkpt>
      <trkpt lat="43.4140500" lon="-3.4073190">
        <ele>14.6</ele>
        <time>2018-09-04T11:48:32Z</time>
      </trkpt>
      <trkpt lat="43.4139940" lon="-3.4073830">
        <ele>15.0</ele>
        <time>2018-09-04T11:48:35Z</time>
      </trkpt>
      <trkpt lat="43.4139230" lon="-3.4074990">
        <ele>15.0</ele>
        <time>2018-09-04T11:48:39Z</time>
      </trkpt>
      <trkpt lat="43.4139030" lon="-3.4075290">
        <ele>15.2</ele>
        <time>2018-09-04T11:48:40Z</time>
      </trkpt>
      <trkpt lat="43.4138440" lon="-3.4076180">
        <ele>15.4</ele>
        <time>2018-09-04T11:48:43Z</time>
      </trkpt>
      <trkpt lat="43.4138240" lon="-3.4076480">
        <ele>15.6</ele>
        <time>2018-09-04T11:48:44Z</time>
      </trkpt>
      <trkpt lat="43.4136670" lon="-3.4079180">
        <ele>16.0</ele>
        <time>2018-09-04T11:48:52Z</time>
      </trkpt>
      <trkpt lat="43.4135510" lon="-3.4081080">
        <ele>14.6</ele>
        <time>2018-09-04T11:48:56Z</time>
      </trkpt>
      <trkpt lat="43.4135170" lon="-3.4081670">
        <ele>14.2</ele>
        <time>2018-09-04T11:48:57Z</time>
      </trkpt>
      <trkpt lat="43.4134810" lon="-3.4082300">
        <ele>13.8</ele>
        <time>2018-09-04T11:48:58Z</time>
      </trkpt>
      <trkpt lat="43.4134470" lon="-3.4082910">
        <ele>13.2</ele>
        <time>2018-09-04T11:48:59Z</time>
      </trkpt>
      <trkpt lat="43.4133540" lon="-3.4084600">
        <ele>12.0</ele>
        <time>2018-09-04T11:49:02Z</time>
      </trkpt>
      <trkpt lat="43.4133250" lon="-3.4085290">
        <ele>11.6</ele>
        <time>2018-09-04T11:49:03Z</time>
      </trkpt>
      <trkpt lat="43.4132990" lon="-3.4085890">
        <ele>11.2</ele>
        <time>2018-09-04T11:49:04Z</time>
      </trkpt>
      <trkpt lat="43.4132800" lon="-3.4086490">
        <ele>10.8</ele>
        <time>2018-09-04T11:49:05Z</time>
      </trkpt>
      <trkpt lat="43.4132460" lon="-3.4087640">
        <ele>9.8</ele>
        <time>2018-09-04T11:49:07Z</time>
      </trkpt>
      <trkpt lat="43.4132360" lon="-3.4088190">
        <ele>9.4</ele>
        <time>2018-09-04T11:49:08Z</time>
      </trkpt>
      <trkpt lat="43.4132320" lon="-3.4088780">
        <ele>9.2</ele>
        <time>2018-09-04T11:49:09Z</time>
      </trkpt>
      <trkpt lat="43.4131940" lon="-3.4090300">
        <ele>8.2</ele>
        <time>2018-09-04T11:49:11Z</time>
      </trkpt>
      <trkpt lat="43.4131530" lon="-3.4091970">
        <ele>6.4</ele>
        <time>2018-09-04T11:49:13Z</time>
      </trkpt>
      <trkpt lat="43.4130990" lon="-3.4093660">
        <ele>4.8</ele>
        <time>2018-09-04T11:49:15Z</time>
      </trkpt>
      <trkpt lat="43.4130590" lon="-3.4095440">
        <ele>3.4</ele>
        <time>2018-09-04T11:49:17Z</time>
      </trkpt>
      <trkpt lat="43.4130360" lon="-3.4096270">
        <ele>1.6</ele>
        <time>2018-09-04T11:49:18Z</time>
      </trkpt>
      <trkpt lat="43.4129980" lon="-3.4097710">
        <ele>0.0</ele>
        <time>2018-09-04T11:49:20Z</time>
      </trkpt>
      <trkpt lat="43.4129900" lon="-3.4098390">
        <ele>-0.4</ele>
        <time>2018-09-04T11:49:21Z</time>
      </trkpt>
      <trkpt lat="43.4129700" lon="-3.4099070">
        <ele>-0.8</ele>
        <time>2018-09-04T11:49:22Z</time>
      </trkpt>
      <trkpt lat="43.4129040" lon="-3.4103040">
        <ele>-0.8</ele>
        <time>2018-09-04T11:49:28Z</time>
      </trkpt>
      <trkpt lat="43.4128590" lon="-3.4105010">
        <ele>0.0</ele>
        <time>2018-09-04T11:49:32Z</time>
      </trkpt>
      <trkpt lat="43.4128510" lon="-3.4105730">
        <ele>0.6</ele>
        <time>2018-09-04T11:49:34Z</time>
      </trkpt>
      <trkpt lat="43.4128460" lon="-3.4106300">
        <ele>1.2</ele>
        <time>2018-09-04T11:49:36Z</time>
      </trkpt>
      <trkpt lat="43.4128370" lon="-3.4106880">
        <ele>2.2</ele>
        <time>2018-09-04T11:49:38Z</time>
      </trkpt>
      <trkpt lat="43.4128320" lon="-3.4107140">
        <ele>2.4</ele>
        <time>2018-09-04T11:49:39Z</time>
      </trkpt>
      <trkpt lat="43.4128280" lon="-3.4107290">
        <ele>2.6</ele>
        <time>2018-09-04T11:49:40Z</time>
      </trkpt>
      <trkpt lat="43.4128090" lon="-3.4108140">
        <ele>3.0</ele>
        <time>2018-09-04T11:49:44Z</time>
      </trkpt>
      <trkpt lat="43.4127610" lon="-3.4109240">
        <ele>2.6</ele>
        <time>2018-09-04T11:49:48Z</time>
      </trkpt>
      <trkpt lat="43.4127590" lon="-3.4109160">
        <ele>2.6</ele>
        <time>2018-09-04T11:49:49Z</time>
      </trkpt>
      <trkpt lat="43.4129310" lon="-3.4111660">
        <ele>6.2</ele>
        <time>2018-09-04T11:50:12Z</time>
      </trkpt>
      <trkpt lat="43.4129320" lon="-3.4112160">
        <ele>6.2</ele>
        <time>2018-09-04T11:50:14Z</time>
      </trkpt>
      <trkpt lat="43.4129150" lon="-3.4113020">
        <ele>6.2</ele>
        <time>2018-09-04T11:50:18Z</time>
      </trkpt>
      <trkpt lat="43.4129140" lon="-3.4113010">
        <ele>6.2</ele>
        <time>2018-09-04T11:50:20Z</time>
      </trkpt>
      <trkpt lat="43.4129260" lon="-3.4112510">
        <ele>6.2</ele>
        <time>2018-09-04T11:50:37Z</time>
      </trkpt>
      <trkpt lat="43.4129270" lon="-3.4111960">
        <ele>6.2</ele>
        <time>2018-09-04T11:50:39Z</time>
      </trkpt>
      <trkpt lat="43.4129420" lon="-3.4110820">
        <ele>6.4</ele>
        <time>2018-09-04T11:50:43Z</time>
      </trkpt>
      <trkpt lat="43.4129400" lon="-3.4110870">
        <ele>5.8</ele>
        <time>2018-09-04T11:50:45Z</time>
      </trkpt>
      <trkpt lat="43.4129050" lon="-3.4110700">
        <ele>5.4</ele>
        <time>2018-09-04T11:50:47Z</time>
      </trkpt>
      <trkpt lat="43.4128940" lon="-3.4110770">
        <ele>5.2</ele>
        <time>2018-09-04T11:50:48Z</time>
      </trkpt>
      <trkpt lat="43.4128790" lon="-3.4110830">
        <ele>4.8</ele>
        <time>2018-09-04T11:50:49Z</time>
      </trkpt>
      <trkpt lat="43.4128610" lon="-3.4110850">
        <ele>4.4</ele>
        <time>2018-09-04T11:50:50Z</time>
      </trkpt>
      <trkpt lat="43.4128390" lon="-3.4110850">
        <ele>4.0</ele>
        <time>2018-09-04T11:50:51Z</time>
      </trkpt>
      <trkpt lat="43.4127870" lon="-3.4110910">
        <ele>3.0</ele>
        <time>2018-09-04T11:50:53Z</time>
      </trkpt>
      <trkpt lat="43.4127410" lon="-3.4110930">
        <ele>1.8</ele>
        <time>2018-09-04T11:50:55Z</time>
      </trkpt>
      <trkpt lat="43.4127260" lon="-3.4110910">
        <ele>1.6</ele>
        <time>2018-09-04T11:50:56Z</time>
      </trkpt>
      <trkpt lat="43.4126370" lon="-3.4110550">
        <ele>0.0</ele>
        <time>2018-09-04T11:51:02Z</time>
      </trkpt>
      <trkpt lat="43.4125790" lon="-3.4110370">
        <ele>-1.0</ele>
        <time>2018-09-04T11:51:04Z</time>
      </trkpt>
      <trkpt lat="43.4124560" lon="-3.4110770">
        <ele>-2.2</ele>
        <time>2018-09-04T11:51:06Z</time>
      </trkpt>
      <trkpt lat="43.4123560" lon="-3.4110960">
        <ele>-3.6</ele>
        <time>2018-09-04T11:51:08Z</time>
      </trkpt>
      <trkpt lat="43.4122380" lon="-3.4110830">
        <ele>-5.0</ele>
        <time>2018-09-04T11:51:11Z</time>
      </trkpt>
      <trkpt lat="43.4121950" lon="-3.4110380">
        <ele>-5.6</ele>
        <time>2018-09-04T11:51:13Z</time>
      </trkpt>
      <trkpt lat="43.4121690" lon="-3.4109670">
        <ele>-6.4</ele>
        <time>2018-09-04T11:51:15Z</time>
      </trkpt>
      <trkpt lat="43.4121370" lon="-3.4109070">
        <ele>-6.8</ele>
        <time>2018-09-04T11:51:17Z</time>
      </trkpt>
      <trkpt lat="43.4121080" lon="-3.4108470">
        <ele>-7.8</ele>
        <time>2018-09-04T11:51:19Z</time>
      </trkpt>
      <trkpt lat="43.4120660" lon="-3.4107780">
        <ele>-8.4</ele>
        <time>2018-09-04T11:51:22Z</time>
      </trkpt>
      <trkpt lat="43.4120210" lon="-3.4107240">
        <ele>-8.8</ele>
        <time>2018-09-04T11:51:24Z</time>
      </trkpt>
      <trkpt lat="43.4119170" lon="-3.4107290">
        <ele>-9.2</ele>
        <time>2018-09-04T11:51:28Z</time>
      </trkpt>
      <trkpt lat="43.4118780" lon="-3.4107790">
        <ele>-9.8</ele>
        <time>2018-09-04T11:52:18Z</time>
      </trkpt>
      <trkpt lat="43.4118380" lon="-3.4108280">
        <ele>-9.8</ele>
        <time>2018-09-04T11:52:19Z</time>
      </trkpt>
      <trkpt lat="43.4118340" lon="-3.4108770">
        <ele>-9.8</ele>
        <time>2018-09-04T11:52:20Z</time>
      </trkpt>
      <trkpt lat="43.4118490" lon="-3.4109580">
        <ele>-9.8</ele>
        <time>2018-09-04T11:52:22Z</time>
      </trkpt>
      <trkpt lat="43.4117930" lon="-3.4111210">
        <ele>-10.6</ele>
        <time>2018-09-04T11:52:26Z</time>
      </trkpt>
      <trkpt lat="43.4117680" lon="-3.4112530">
        <ele>-11.0</ele>
        <time>2018-09-04T11:52:29Z</time>
      </trkpt>
      <trkpt lat="43.4117180" lon="-3.4114260">
        <ele>-11.6</ele>
        <time>2018-09-04T11:52:32Z</time>
      </trkpt>
      <trkpt lat="43.4115100" lon="-3.4117260">
        <ele>-12.2</ele>
        <time>2018-09-04T11:52:37Z</time>
      </trkpt>
      <trkpt lat="43.4113060" lon="-3.4121580">
        <ele>-12.6</ele>
        <time>2018-09-04T11:52:42Z</time>
      </trkpt>
      <trkpt lat="43.4112830" lon="-3.4122250">
        <ele>-13.0</ele>
        <time>2018-09-04T11:52:43Z</time>
      </trkpt>
      <trkpt lat="43.4111380" lon="-3.4124510">
        <ele>-12.8</ele>
        <time>2018-09-04T11:52:47Z</time>
      </trkpt>
      <trkpt lat="43.4110610" lon="-3.4125460">
        <ele>-13.2</ele>
        <time>2018-09-04T11:52:49Z</time>
      </trkpt>
      <trkpt lat="43.4110310" lon="-3.4125910">
        <ele>-13.2</ele>
        <time>2018-09-04T11:52:50Z</time>
      </trkpt>
      <trkpt lat="43.4110090" lon="-3.4126420">
        <ele>-13.2</ele>
        <time>2018-09-04T11:52:51Z</time>
      </trkpt>
      <trkpt lat="43.4109790" lon="-3.4127530">
        <ele>-13.4</ele>
        <time>2018-09-04T11:52:53Z</time>
      </trkpt>
      <trkpt lat="43.4109740" lon="-3.4129180">
        <ele>-13.2</ele>
        <time>2018-09-04T11:52:56Z</time>
      </trkpt>
      <trkpt lat="43.4109880" lon="-3.4130240">
        <ele>-13.2</ele>
        <time>2018-09-04T11:52:58Z</time>
      </trkpt>
      <trkpt lat="43.4109890" lon="-3.4131300">
        <ele>-13.0</ele>
        <time>2018-09-04T11:53:00Z</time>
      </trkpt>
      <trkpt lat="43.4109970" lon="-3.4132900">
        <ele>-13.0</ele>
        <time>2018-09-04T11:53:03Z</time>
      </trkpt>
      <trkpt lat="43.4109970" lon="-3.4133450">
        <ele>-13.0</ele>
        <time>2018-09-04T11:53:04Z</time>
      </trkpt>
      <trkpt lat="43.4109890" lon="-3.4134400">
        <ele>-13.0</ele>
        <time>2018-09-04T11:53:08Z</time>
      </trkpt>
      <trkpt lat="43.4109910" lon="-3.4135680">
        <ele>-13.0</ele>
        <time>2018-09-04T11:53:12Z</time>
      </trkpt>
      <trkpt lat="43.4109940" lon="-3.4136050">
        <ele>-13.0</ele>
        <time>2018-09-04T11:53:13Z</time>
      </trkpt>
      <trkpt lat="43.4110020" lon="-3.4136410">
        <ele>-13.2</ele>
        <time>2018-09-04T11:53:14Z</time>
      </trkpt>
      <trkpt lat="43.4110180" lon="-3.4139340">
        <ele>-14.0</ele>
        <time>2018-09-04T11:53:21Z</time>
      </trkpt>
      <trkpt lat="43.4110100" lon="-3.4142980">
        <ele>-13.2</ele>
        <time>2018-09-04T11:53:29Z</time>
      </trkpt>
      <trkpt lat="43.4110060" lon="-3.4147380">
        <ele>-13.2</ele>
        <time>2018-09-04T11:53:37Z</time>
      </trkpt>
      <trkpt lat="43.4110310" lon="-3.4151580">
        <ele>-14.2</ele>
        <time>2018-09-04T11:53:44Z</time>
      </trkpt>
      <trkpt lat="43.4110320" lon="-3.4152830">
        <ele>-13.8</ele>
        <time>2018-09-04T11:53:46Z</time>
      </trkpt>
      <trkpt lat="43.4110290" lon="-3.4155140">
        <ele>-13.6</ele>
        <time>2018-09-04T11:53:50Z</time>
      </trkpt>
      <trkpt lat="43.4110330" lon="-3.4155710">
        <ele>-13.6</ele>
        <time>2018-09-04T11:53:51Z</time>
      </trkpt>
      <trkpt lat="43.4110340" lon="-3.4160070">
        <ele>-14.0</ele>
        <time>2018-09-04T11:54:00Z</time>
      </trkpt>
      <trkpt lat="43.4110290" lon="-3.4163280">
        <ele>-13.6</ele>
        <time>2018-09-04T11:54:06Z</time>
      </trkpt>
      <trkpt lat="43.4110280" lon="-3.4166210">
        <ele>-13.6</ele>
        <time>2018-09-04T11:54:11Z</time>
      </trkpt>
      <trkpt lat="43.4110330" lon="-3.4167440">
        <ele>-13.6</ele>
        <time>2018-09-04T11:54:13Z</time>
      </trkpt>
      <trkpt lat="43.4110420" lon="-3.4168680">
        <ele>-13.4</ele>
        <time>2018-09-04T11:54:15Z</time>
      </trkpt>
      <trkpt lat="43.4110430" lon="-3.4171760">
        <ele>-13.6</ele>
        <time>2018-09-04T11:54:20Z</time>
      </trkpt>
      <trkpt lat="43.4110210" lon="-3.4175890">
        <ele>-13.4</ele>
        <time>2018-09-04T11:54:27Z</time>
      </trkpt>
      <trkpt lat="43.4110030" lon="-3.4179750">
        <ele>-13.4</ele>
        <time>2018-09-04T11:54:34Z</time>
      </trkpt>
      <trkpt lat="43.4110010" lon="-3.4180290">
        <ele>-13.4</ele>
        <time>2018-09-04T11:54:35Z</time>
      </trkpt>
      <trkpt lat="43.4109490" lon="-3.4182890">
        <ele>-13.4</ele>
        <time>2018-09-04T11:54:41Z</time>
      </trkpt>
      <trkpt lat="43.4109350" lon="-3.4184450">
        <ele>-13.4</ele>
        <time>2018-09-04T11:54:45Z</time>
      </trkpt>
      <trkpt lat="43.4109250" lon="-3.4184640">
        <ele>-13.6</ele>
        <time>2018-09-04T11:54:46Z</time>
      </trkpt>
      <trkpt lat="43.4109110" lon="-3.4185290">
        <ele>-13.4</ele>
        <time>2018-09-04T11:54:50Z</time>
      </trkpt>
      <trkpt lat="43.4109010" lon="-3.4185580">
        <ele>-13.4</ele>
        <time>2018-09-04T11:54:52Z</time>
      </trkpt>
      <trkpt lat="43.4108750" lon="-3.4187270">
        <ele>-13.8</ele>
        <time>2018-09-04T11:54:57Z</time>
      </trkpt>
      <trkpt lat="43.4108630" lon="-3.4188000">
        <ele>-13.6</ele>
        <time>2018-09-04T11:55:02Z</time>
      </trkpt>
      <trkpt lat="43.4108520" lon="-3.4188560">
        <ele>-13.4</ele>
        <time>2018-09-04T11:55:18Z</time>
      </trkpt>
      <trkpt lat="43.4108360" lon="-3.4189100">
        <ele>-13.6</ele>
        <time>2018-09-04T11:55:20Z</time>
      </trkpt>
      <trkpt lat="43.4108090" lon="-3.4190390">
        <ele>-14.0</ele>
        <time>2018-09-04T11:55:23Z</time>
      </trkpt>
      <trkpt lat="43.4107810" lon="-3.4191110">
        <ele>-13.8</ele>
        <time>2018-09-04T11:55:25Z</time>
      </trkpt>
      <trkpt lat="43.4107730" lon="-3.4192470">
        <ele>-13.8</ele>
        <time>2018-09-04T11:55:29Z</time>
      </trkpt>
      <trkpt lat="43.4107730" lon="-3.4192700">
        <ele>-13.6</ele>
        <time>2018-09-04T11:55:30Z</time>
      </trkpt>
      <trkpt lat="43.4108040" lon="-3.4192940">
        <ele>-13.0</ele>
        <time>2018-09-04T11:55:46Z</time>
      </trkpt>
      <trkpt lat="43.4108230" lon="-3.4192950">
        <ele>-13.2</ele>
        <time>2018-09-04T11:55:47Z</time>
      </trkpt>
      <trkpt lat="43.4108760" lon="-3.4193250">
        <ele>-13.2</ele>
        <time>2018-09-04T11:55:50Z</time>
      </trkpt>
      <trkpt lat="43.4108940" lon="-3.4193360">
        <ele>-13.2</ele>
        <time>2018-09-04T11:55:51Z</time>
      </trkpt>
      <trkpt lat="43.4109070" lon="-3.4193510">
        <ele>-13.0</ele>
        <time>2018-09-04T11:55:52Z</time>
      </trkpt>
      <trkpt lat="43.4109400" lon="-3.4193730">
        <ele>-12.8</ele>
        <time>2018-09-04T11:55:55Z</time>
      </trkpt>
      <trkpt lat="43.4109560" lon="-3.4193790">
        <ele>-12.6</ele>
        <time>2018-09-04T11:55:57Z</time>
      </trkpt>
      <trkpt lat="43.4109670" lon="-3.4193760">
        <ele>-12.6</ele>
        <time>2018-09-04T11:55:58Z</time>
      </trkpt>
      <trkpt lat="43.4109640" lon="-3.4193190">
        <ele>-12.4</ele>
        <time>2018-09-04T11:56:01Z</time>
      </trkpt>
      <trkpt lat="43.4109090" lon="-3.4193350">
        <ele>-12.6</ele>
        <time>2018-09-04T11:56:05Z</time>
      </trkpt>
      <trkpt lat="43.4108590" lon="-3.4193180">
        <ele>-12.6</ele>
        <time>2018-09-04T11:56:08Z</time>
      </trkpt>
      <trkpt lat="43.4108590" lon="-3.4192870">
        <ele>-12.6</ele>
        <time>2018-09-04T11:56:09Z</time>
      </trkpt>
      <trkpt lat="43.4108980" lon="-3.4191620">
        <ele>-12.8</ele>
        <time>2018-09-04T11:56:13Z</time>
      </trkpt>
      <trkpt lat="43.4109090" lon="-3.4190420">
        <ele>-13.0</ele>
        <time>2018-09-04T11:56:16Z</time>
      </trkpt>
      <trkpt lat="43.4108940" lon="-3.4189540">
        <ele>-13.0</ele>
        <time>2018-09-04T11:56:18Z</time>
      </trkpt>
      <trkpt lat="43.4108780" lon="-3.4188740">
        <ele>-13.2</ele>
        <time>2018-09-04T11:56:20Z</time>
      </trkpt>
      <trkpt lat="43.4108770" lon="-3.4188420">
        <ele>-13.0</ele>
        <time>2018-09-04T11:56:21Z</time>
      </trkpt>
      <trkpt lat="43.4108850" lon="-3.4187970">
        <ele>-13.2</ele>
        <time>2018-09-04T11:56:23Z</time>
      </trkpt>
      <trkpt lat="43.4109030" lon="-3.4187380">
        <ele>-12.8</ele>
        <time>2018-09-04T12:16:52Z</time>
      </trkpt>
      <trkpt lat="43.4109060" lon="-3.4187100">
        <ele>-12.8</ele>
        <time>2018-09-04T12:16:53Z</time>
      </trkpt>
      <trkpt lat="43.4109460" lon="-3.4184820">
        <ele>-12.8</ele>
        <time>2018-09-04T12:17:01Z</time>
      </trkpt>
      <trkpt lat="43.4109600" lon="-3.4184670">
        <ele>-12.8</ele>
        <time>2018-09-04T12:17:02Z</time>
      </trkpt>
      <trkpt lat="43.4110180" lon="-3.4184290">
        <ele>-12.8</ele>
        <time>2018-09-04T12:17:06Z</time>
      </trkpt>
      <trkpt lat="43.4111030" lon="-3.4184190">
        <ele>-12.8</ele>
        <time>2018-09-04T12:17:11Z</time>
      </trkpt>
      <trkpt lat="43.4111190" lon="-3.4184140">
        <ele>-12.8</ele>
        <time>2018-09-04T12:17:12Z</time>
      </trkpt>
      <trkpt lat="43.4111500" lon="-3.4183810">
        <ele>-12.4</ele>
        <time>2018-09-04T12:17:15Z</time>
      </trkpt>
      <trkpt lat="43.4111430" lon="-3.4183440">
        <ele>-12.6</ele>
        <time>2018-09-04T12:17:17Z</time>
      </trkpt>
      <trkpt lat="43.4111300" lon="-3.4182190">
        <ele>-12.6</ele>
        <time>2018-09-04T12:17:25Z</time>
      </trkpt>
      <trkpt lat="43.4110700" lon="-3.4181640">
        <ele>-15.2</ele>
        <time>2018-09-04T13:22:20Z</time>
      </trkpt>
      <trkpt lat="43.4110750" lon="-3.4182130">
        <ele>-15.2</ele>
        <time>2018-09-04T13:22:21Z</time>
      </trkpt>
      <trkpt lat="43.4110970" lon="-3.4183590">
        <ele>-15.4</ele>
        <time>2018-09-04T13:22:24Z</time>
      </trkpt>
      <trkpt lat="43.4110250" lon="-3.4184270">
        <ele>-15.8</ele>
        <time>2018-09-04T13:22:27Z</time>
      </trkpt>
      <trkpt lat="43.4109010" lon="-3.4184230">
        <ele>-15.6</ele>
        <time>2018-09-04T13:22:31Z</time>
      </trkpt>
      <trkpt lat="43.4108820" lon="-3.4184690">
        <ele>-15.6</ele>
        <time>2018-09-04T13:22:34Z</time>
      </trkpt>
      <trkpt lat="43.4108750" lon="-3.4184780">
        <ele>-15.6</ele>
        <time>2018-09-04T13:22:35Z</time>
      </trkpt>
      <trkpt lat="43.4108390" lon="-3.4185320">
        <ele>-15.4</ele>
        <time>2018-09-04T13:22:39Z</time>
      </trkpt>
      <trkpt lat="43.4108290" lon="-3.4185570">
        <ele>-15.4</ele>
        <time>2018-09-04T13:22:40Z</time>
      </trkpt>
      <trkpt lat="43.4107940" lon="-3.4186730">
        <ele>-15.4</ele>
        <time>2018-09-04T13:22:45Z</time>
      </trkpt>
      <trkpt lat="43.4107710" lon="-3.4188320">
        <ele>-15.6</ele>
        <time>2018-09-04T13:22:51Z</time>
      </trkpt>
      <trkpt lat="43.4107830" lon="-3.4188460">
        <ele>-15.6</ele>
        <time>2018-09-04T13:22:52Z</time>
      </trkpt>
      <trkpt lat="43.4108200" lon="-3.4188330">
        <ele>-15.6</ele>
        <time>2018-09-04T13:22:54Z</time>
      </trkpt>
      <trkpt lat="43.4108430" lon="-3.4187110">
        <ele>-15.4</ele>
        <time>2018-09-04T13:22:57Z</time>
      </trkpt>
      <trkpt lat="43.4108750" lon="-3.4185630">
        <ele>-15.4</ele>
        <time>2018-09-04T13:23:00Z</time>
      </trkpt>
      <trkpt lat="43.4109350" lon="-3.4184110">
        <ele>-15.2</ele>
        <time>2018-09-04T13:23:04Z</time>
      </trkpt>
      <trkpt lat="43.4110050" lon="-3.4184400">
        <ele>-15.4</ele>
        <time>2018-09-04T13:23:06Z</time>
      </trkpt>
      <trkpt lat="43.4110350" lon="-3.4184600">
        <ele>-15.4</ele>
        <time>2018-09-04T13:23:07Z</time>
      </trkpt>
      <trkpt lat="43.4110750" lon="-3.4184740">
        <ele>-15.2</ele>
        <time>2018-09-04T13:23:09Z</time>
      </trkpt>
      <trkpt lat="43.4110700" lon="-3.4185010">
        <ele>-15.4</ele>
        <time>2018-09-04T13:23:10Z</time>
      </trkpt>
      <trkpt lat="43.4110160" lon="-3.4184590">
        <ele>-15.6</ele>
        <time>2018-09-04T13:23:13Z</time>
      </trkpt>
      <trkpt lat="43.4109190" lon="-3.4184140">
        <ele>-15.6</ele>
        <time>2018-09-04T13:23:17Z</time>
      </trkpt>
      <trkpt lat="43.4108690" lon="-3.4184040">
        <ele>-15.6</ele>
        <time>2018-09-04T13:23:19Z</time>
      </trkpt>
      <trkpt lat="43.4108400" lon="-3.4184790">
        <ele>-15.8</ele>
        <time>2018-09-04T13:23:21Z</time>
      </trkpt>
      <trkpt lat="43.4108160" lon="-3.4185760">
        <ele>-15.8</ele>
        <time>2018-09-04T13:23:23Z</time>
      </trkpt>
      <trkpt lat="43.4107760" lon="-3.4187800">
        <ele>-15.8</ele>
        <time>2018-09-04T13:23:27Z</time>
      </trkpt>
      <trkpt lat="43.4107250" lon="-3.4190520">
        <ele>-15.6</ele>
        <time>2018-09-04T13:23:32Z</time>
      </trkpt>
      <trkpt lat="43.4106920" lon="-3.4192200">
        <ele>-15.6</ele>
        <time>2018-09-04T13:23:35Z</time>
      </trkpt>
      <trkpt lat="43.4106520" lon="-3.4194280">
        <ele>-15.8</ele>
        <time>2018-09-04T13:23:39Z</time>
      </trkpt>
      <trkpt lat="43.4106190" lon="-3.4195890">
        <ele>-15.8</ele>
        <time>2018-09-04T13:23:42Z</time>
      </trkpt>
      <trkpt lat="43.4105310" lon="-3.4200090">
        <ele>-15.6</ele>
        <time>2018-09-04T13:23:50Z</time>
      </trkpt>
      <trkpt lat="43.4105230" lon="-3.4200610">
        <ele>-15.6</ele>
        <time>2018-09-04T13:23:51Z</time>
      </trkpt>
      <trkpt lat="43.4105010" lon="-3.4201540">
        <ele>-15.6</ele>
        <time>2018-09-04T13:23:53Z</time>
      </trkpt>
      <trkpt lat="43.4104560" lon="-3.4204150">
        <ele>-15.6</ele>
        <time>2018-09-04T13:23:59Z</time>
      </trkpt>
      <trkpt lat="43.4103940" lon="-3.4207590">
        <ele>-15.8</ele>
        <time>2018-09-04T13:24:07Z</time>
      </trkpt>
      <trkpt lat="43.4103630" lon="-3.4209450">
        <ele>-15.6</ele>
        <time>2018-09-04T13:24:10Z</time>
      </trkpt>
      <trkpt lat="43.4103190" lon="-3.4211850">
        <ele>-16.0</ele>
        <time>2018-09-04T13:24:14Z</time>
      </trkpt>
      <trkpt lat="43.4102000" lon="-3.4218850">
        <ele>-15.6</ele>
        <time>2018-09-04T13:24:25Z</time>
      </trkpt>
      <trkpt lat="43.4101310" lon="-3.4222450">
        <ele>-15.8</ele>
        <time>2018-09-04T13:24:31Z</time>
      </trkpt>
      <trkpt lat="43.4101040" lon="-3.4224640">
        <ele>-16.0</ele>
        <time>2018-09-04T13:24:35Z</time>
      </trkpt>
      <trkpt lat="43.4101290" lon="-3.4224840">
        <ele>-16.0</ele>
        <time>2018-09-04T13:24:36Z</time>
      </trkpt>
      <trkpt lat="43.4102290" lon="-3.4224780">
        <ele>-15.2</ele>
        <time>2018-09-04T13:24:39Z</time>
      </trkpt>
      <trkpt lat="43.4102660" lon="-3.4224710">
        <ele>-15.2</ele>
        <time>2018-09-04T13:24:40Z</time>
      </trkpt>
      <trkpt lat="43.4103580" lon="-3.4225120">
        <ele>-15.0</ele>
        <time>2018-09-04T13:24:43Z</time>
      </trkpt>
      <trkpt lat="43.4103730" lon="-3.4225520">
        <ele>-15.2</ele>
        <time>2018-09-04T13:24:44Z</time>
      </trkpt>
      <trkpt lat="43.4103870" lon="-3.4226870">
        <ele>-15.6</ele>
        <time>2018-09-04T13:24:47Z</time>
      </trkpt>
      <trkpt lat="43.4103960" lon="-3.4227380">
        <ele>-15.4</ele>
        <time>2018-09-04T13:24:48Z</time>
      </trkpt>
      <trkpt lat="43.4104050" lon="-3.4230690">
        <ele>-15.2</ele>
        <time>2018-09-04T13:24:54Z</time>
      </trkpt>
      <trkpt lat="43.4104220" lon="-3.4236140">
        <ele>-15.2</ele>
        <time>2018-09-04T13:25:03Z</time>
      </trkpt>
      <trkpt lat="43.4104290" lon="-3.4239730">
        <ele>-15.6</ele>
        <time>2018-09-04T13:25:09Z</time>
      </trkpt>
      <trkpt lat="43.4104400" lon="-3.4240930">
        <ele>-15.4</ele>
        <time>2018-09-04T13:25:11Z</time>
      </trkpt>
      <trkpt lat="43.4104470" lon="-3.4242760">
        <ele>-15.4</ele>
        <time>2018-09-04T13:25:14Z</time>
      </trkpt>
      <trkpt lat="43.4104490" lon="-3.4244000">
        <ele>-15.2</ele>
        <time>2018-09-04T13:25:16Z</time>
      </trkpt>
      <trkpt lat="43.4104680" lon="-3.4248380">
        <ele>-15.2</ele>
        <time>2018-09-04T13:25:23Z</time>
      </trkpt>
      <trkpt lat="43.4104900" lon="-3.4248960">
        <ele>-15.2</ele>
        <time>2018-09-04T13:25:24Z</time>
      </trkpt>
      <trkpt lat="43.4106080" lon="-3.4250900">
        <ele>-15.2</ele>
        <time>2018-09-04T13:25:28Z</time>
      </trkpt>
      <trkpt lat="43.4106400" lon="-3.4251400">
        <ele>-15.4</ele>
        <time>2018-09-04T13:25:29Z</time>
      </trkpt>
      <trkpt lat="43.4107020" lon="-3.4252370">
        <ele>-15.8</ele>
        <time>2018-09-04T13:25:31Z</time>
      </trkpt>
      <trkpt lat="43.4107760" lon="-3.4254660">
        <ele>-15.6</ele>
        <time>2018-09-04T13:25:35Z</time>
      </trkpt>
      <trkpt lat="43.4107860" lon="-3.4256580">
        <ele>-15.4</ele>
        <time>2018-09-04T13:25:38Z</time>
      </trkpt>
      <trkpt lat="43.4108000" lon="-3.4258660">
        <ele>-15.2</ele>
        <time>2018-09-04T13:25:41Z</time>
      </trkpt>
      <trkpt lat="43.4108180" lon="-3.4264560">
        <ele>-15.4</ele>
        <time>2018-09-04T13:25:50Z</time>
      </trkpt>
      <trkpt lat="43.4108510" lon="-3.4270400">
        <ele>-15.4</ele>
        <time>2018-09-04T13:25:59Z</time>
      </trkpt>
      <trkpt lat="43.4108750" lon="-3.4276350">
        <ele>-15.2</ele>
        <time>2018-09-04T13:26:08Z</time>
      </trkpt>
      <trkpt lat="43.4108740" lon="-3.4277470">
        <ele>-15.4</ele>
        <time>2018-09-04T13:26:10Z</time>
      </trkpt>
      <trkpt lat="43.4108860" lon="-3.4279310">
        <ele>-15.4</ele>
        <time>2018-09-04T13:26:13Z</time>
      </trkpt>
      <trkpt lat="43.4108840" lon="-3.4280510">
        <ele>-15.2</ele>
        <time>2018-09-04T13:26:15Z</time>
      </trkpt>
      <trkpt lat="43.4108900" lon="-3.4281650">
        <ele>-15.2</ele>
        <time>2018-09-04T13:26:17Z</time>
      </trkpt>
      <trkpt lat="43.4108710" lon="-3.4282180">
        <ele>-15.2</ele>
        <time>2018-09-04T13:26:18Z</time>
      </trkpt>
      <trkpt lat="43.4107820" lon="-3.4283200">
        <ele>-15.0</ele>
        <time>2018-09-04T13:26:21Z</time>
      </trkpt>
      <trkpt lat="43.4107300" lon="-3.4283920">
        <ele>-15.0</ele>
        <time>2018-09-04T13:26:23Z</time>
      </trkpt>
      <trkpt lat="43.4106700" lon="-3.4285970">
        <ele>-15.0</ele>
        <time>2018-09-04T13:26:28Z</time>
      </trkpt>
      <trkpt lat="43.4107340" lon="-3.4287800">
        <ele>-15.2</ele>
        <time>2018-09-04T13:26:32Z</time>
      </trkpt>
      <trkpt lat="43.4107710" lon="-3.4288100">
        <ele>-15.2</ele>
        <time>2018-09-04T13:26:33Z</time>
      </trkpt>
      <trkpt lat="43.4108300" lon="-3.4288870">
        <ele>-15.6</ele>
        <time>2018-09-04T13:26:35Z</time>
      </trkpt>
      <trkpt lat="43.4108790" lon="-3.4290500">
        <ele>-15.2</ele>
        <time>2018-09-04T13:26:38Z</time>
      </trkpt>
      <trkpt lat="43.4108960" lon="-3.4291070">
        <ele>-15.0</ele>
        <time>2018-09-04T13:26:39Z</time>
      </trkpt>
      <trkpt lat="43.4109310" lon="-3.4292240">
        <ele>-15.0</ele>
        <time>2018-09-04T13:26:41Z</time>
      </trkpt>
      <trkpt lat="43.4109860" lon="-3.4294000">
        <ele>-15.0</ele>
        <time>2018-09-04T13:26:44Z</time>
      </trkpt>
      <trkpt lat="43.4110040" lon="-3.4294600">
        <ele>-15.0</ele>
        <time>2018-09-04T13:26:45Z</time>
      </trkpt>
      <trkpt lat="43.4110530" lon="-3.4296410">
        <ele>-15.2</ele>
        <time>2018-09-04T13:26:48Z</time>
      </trkpt>
      <trkpt lat="43.4110760" lon="-3.4296930">
        <ele>-15.0</ele>
        <time>2018-09-04T13:26:49Z</time>
      </trkpt>
      <trkpt lat="43.4111160" lon="-3.4298060">
        <ele>-15.0</ele>
        <time>2018-09-04T13:26:51Z</time>
      </trkpt>
      <trkpt lat="43.4111380" lon="-3.4298610">
        <ele>-15.2</ele>
        <time>2018-09-04T13:26:52Z</time>
      </trkpt>
      <trkpt lat="43.4112070" lon="-3.4300280">
        <ele>-15.2</ele>
        <time>2018-09-04T13:26:55Z</time>
      </trkpt>
      <trkpt lat="43.4112650" lon="-3.4302000">
        <ele>-15.0</ele>
        <time>2018-09-04T13:26:58Z</time>
      </trkpt>
      <trkpt lat="43.4113030" lon="-3.4303140">
        <ele>-15.0</ele>
        <time>2018-09-04T13:27:00Z</time>
      </trkpt>
      <trkpt lat="43.4114560" lon="-3.4307160">
        <ele>-15.2</ele>
        <time>2018-09-04T13:27:07Z</time>
      </trkpt>
      <trkpt lat="43.4114770" lon="-3.4307740">
        <ele>-15.0</ele>
        <time>2018-09-04T13:27:08Z</time>
      </trkpt>
      <trkpt lat="43.4116140" lon="-3.4311220">
        <ele>-15.2</ele>
        <time>2018-09-04T13:27:14Z</time>
      </trkpt>
      <trkpt lat="43.4116440" lon="-3.4311720">
        <ele>-15.0</ele>
        <time>2018-09-04T13:27:15Z</time>
      </trkpt>
      <trkpt lat="43.4116680" lon="-3.4312290">
        <ele>-15.2</ele>
        <time>2018-09-04T13:27:16Z</time>
      </trkpt>
      <trkpt lat="43.4117890" lon="-3.4314940">
        <ele>-15.2</ele>
        <time>2018-09-04T13:27:21Z</time>
      </trkpt>
      <trkpt lat="43.4118410" lon="-3.4316020">
        <ele>-15.2</ele>
        <time>2018-09-04T13:27:23Z</time>
      </trkpt>
      <trkpt lat="43.4120070" lon="-3.4319360">
        <ele>-14.8</ele>
        <time>2018-09-04T13:27:29Z</time>
      </trkpt>
      <trkpt lat="43.4120360" lon="-3.4319900">
        <ele>-14.8</ele>
        <time>2018-09-04T13:27:30Z</time>
      </trkpt>
      <trkpt lat="43.4121780" lon="-3.4322710">
        <ele>-15.4</ele>
        <time>2018-09-04T13:27:35Z</time>
      </trkpt>
      <trkpt lat="43.4122970" lon="-3.4324870">
        <ele>-15.2</ele>
        <time>2018-09-04T13:27:39Z</time>
      </trkpt>
      <trkpt lat="43.4123540" lon="-3.4325910">
        <ele>-15.2</ele>
        <time>2018-09-04T13:27:41Z</time>
      </trkpt>
      <trkpt lat="43.4126170" lon="-3.4329950">
        <ele>-15.2</ele>
        <time>2018-09-04T13:27:49Z</time>
      </trkpt>
      <trkpt lat="43.4129610" lon="-3.4334650">
        <ele>-15.8</ele>
        <time>2018-09-04T13:27:59Z</time>
      </trkpt>
      <trkpt lat="43.4132430" lon="-3.4338160">
        <ele>-15.2</ele>
        <time>2018-09-04T13:28:07Z</time>
      </trkpt>
      <trkpt lat="43.4135650" lon="-3.4342450">
        <ele>-15.0</ele>
        <time>2018-09-04T13:28:16Z</time>
      </trkpt>
      <trkpt lat="43.4137500" lon="-3.4344780">
        <ele>-14.8</ele>
        <time>2018-09-04T13:28:21Z</time>
      </trkpt>
      <trkpt lat="43.4138970" lon="-3.4346770">
        <ele>-15.2</ele>
        <time>2018-09-04T13:28:25Z</time>
      </trkpt>
      <trkpt lat="43.4140500" lon="-3.4348720">
        <ele>-15.2</ele>
        <time>2018-09-04T13:28:29Z</time>
      </trkpt>
      <trkpt lat="43.4142720" lon="-3.4351720">
        <ele>-15.2</ele>
        <time>2018-09-04T13:28:35Z</time>
      </trkpt>
      <trkpt lat="43.4146390" lon="-3.4356670">
        <ele>-15.0</ele>
        <time>2018-09-04T13:28:45Z</time>
      </trkpt>
      <trkpt lat="43.4147930" lon="-3.4358610">
        <ele>-14.8</ele>
        <time>2018-09-04T13:28:49Z</time>
      </trkpt>
      <trkpt lat="43.4148660" lon="-3.4359580">
        <ele>-15.0</ele>
        <time>2018-09-04T13:28:51Z</time>
      </trkpt>
      <trkpt lat="43.4150510" lon="-3.4361960">
        <ele>-15.4</ele>
        <time>2018-09-04T13:28:56Z</time>
      </trkpt>
      <trkpt lat="43.4151630" lon="-3.4363420">
        <ele>-15.4</ele>
        <time>2018-09-04T13:28:59Z</time>
      </trkpt>
      <trkpt lat="43.4154200" lon="-3.4366670">
        <ele>-15.2</ele>
        <time>2018-09-04T13:29:06Z</time>
      </trkpt>
      <trkpt lat="43.4157300" lon="-3.4371150">
        <ele>-15.6</ele>
        <time>2018-09-04T13:29:15Z</time>
      </trkpt>
      <trkpt lat="43.4158300" lon="-3.4372570">
        <ele>-15.4</ele>
        <time>2018-09-04T13:29:18Z</time>
      </trkpt>
      <trkpt lat="43.4159680" lon="-3.4374380">
        <ele>-15.8</ele>
        <time>2018-09-04T13:29:22Z</time>
      </trkpt>
      <trkpt lat="43.4160010" lon="-3.4374850">
        <ele>-15.6</ele>
        <time>2018-09-04T13:29:23Z</time>
      </trkpt>
      <trkpt lat="43.4161820" lon="-3.4377090">
        <ele>-15.2</ele>
        <time>2018-09-04T13:29:28Z</time>
      </trkpt>
      <trkpt lat="43.4162870" lon="-3.4378440">
        <ele>-15.4</ele>
        <time>2018-09-04T13:29:31Z</time>
      </trkpt>
      <trkpt lat="43.4163580" lon="-3.4379350">
        <ele>-15.2</ele>
        <time>2018-09-04T13:29:33Z</time>
      </trkpt>
      <trkpt lat="43.4166860" lon="-3.4383190">
        <ele>-15.0</ele>
        <time>2018-09-04T13:29:42Z</time>
      </trkpt>
      <trkpt lat="43.4169590" lon="-3.4385940">
        <ele>-14.6</ele>
        <time>2018-09-04T13:29:49Z</time>
      </trkpt>
      <trkpt lat="43.4170400" lon="-3.4386740">
        <ele>-15.2</ele>
        <time>2018-09-04T13:29:51Z</time>
      </trkpt>
      <trkpt lat="43.4171350" lon="-3.4387970">
        <ele>-14.6</ele>
        <time>2018-09-04T13:29:54Z</time>
      </trkpt>
      <trkpt lat="43.4171700" lon="-3.4388340">
        <ele>-14.2</ele>
        <time>2018-09-04T13:29:55Z</time>
      </trkpt>
      <trkpt lat="43.4174140" lon="-3.4390650">
        <ele>-13.8</ele>
        <time>2018-09-04T13:30:02Z</time>
      </trkpt>
      <trkpt lat="43.4176390" lon="-3.4392630">
        <ele>-14.4</ele>
        <time>2018-09-04T13:30:08Z</time>
      </trkpt>
      <trkpt lat="43.4176750" lon="-3.4393150">
        <ele>-14.8</ele>
        <time>2018-09-04T13:30:09Z</time>
      </trkpt>
      <trkpt lat="43.4177130" lon="-3.4393570">
        <ele>-15.2</ele>
        <time>2018-09-04T13:30:10Z</time>
      </trkpt>
      <trkpt lat="43.4178200" lon="-3.4394790">
        <ele>-15.2</ele>
        <time>2018-09-04T13:30:13Z</time>
      </trkpt>
      <trkpt lat="43.4178910" lon="-3.4395510">
        <ele>-15.0</ele>
        <time>2018-09-04T13:30:15Z</time>
      </trkpt>
      <trkpt lat="43.4182670" lon="-3.4399360">
        <ele>-15.0</ele>
        <time>2018-09-04T13:30:25Z</time>
      </trkpt>
      <trkpt lat="43.4186190" lon="-3.4403010">
        <ele>-15.4</ele>
        <time>2018-09-04T13:30:34Z</time>
      </trkpt>
      <trkpt lat="43.4190290" lon="-3.4407070">
        <ele>-15.6</ele>
        <time>2018-09-04T13:30:44Z</time>
      </trkpt>
      <trkpt lat="43.4190710" lon="-3.4407480">
        <ele>-15.6</ele>
        <time>2018-09-04T13:30:45Z</time>
      </trkpt>
      <trkpt lat="43.4191930" lon="-3.4408710">
        <ele>-15.2</ele>
        <time>2018-09-04T13:30:48Z</time>
      </trkpt>
      <trkpt lat="43.4193960" lon="-3.4410790">
        <ele>-15.4</ele>
        <time>2018-09-04T13:30:53Z</time>
      </trkpt>
      <trkpt lat="43.4197340" lon="-3.4414220">
        <ele>-15.8</ele>
        <time>2018-09-04T13:31:01Z</time>
      </trkpt>
      <trkpt lat="43.4200360" lon="-3.4417060">
        <ele>-15.6</ele>
        <time>2018-09-04T13:31:08Z</time>
      </trkpt>
      <trkpt lat="43.4204700" lon="-3.4421340">
        <ele>-15.8</ele>
        <time>2018-09-04T13:31:18Z</time>
      </trkpt>
      <trkpt lat="43.4208930" lon="-3.4425670">
        <ele>-15.2</ele>
        <time>2018-09-04T13:31:28Z</time>
      </trkpt>
      <trkpt lat="43.4212860" lon="-3.4429490">
        <ele>-15.2</ele>
        <time>2018-09-04T13:31:37Z</time>
      </trkpt>
      <trkpt lat="43.4217190" lon="-3.4433750">
        <ele>-15.2</ele>
        <time>2018-09-04T13:31:47Z</time>
      </trkpt>
      <trkpt lat="43.4219350" lon="-3.4435810">
        <ele>-15.4</ele>
        <time>2018-09-04T13:31:52Z</time>
      </trkpt>
      <trkpt lat="43.4220610" lon="-3.4437140">
        <ele>-15.8</ele>
        <time>2018-09-04T13:31:55Z</time>
      </trkpt>
      <trkpt lat="43.4224360" lon="-3.4441200">
        <ele>-14.8</ele>
        <time>2018-09-04T13:32:04Z</time>
      </trkpt>
      <trkpt lat="43.4224690" lon="-3.4441810">
        <ele>-14.8</ele>
        <time>2018-09-04T13:32:05Z</time>
      </trkpt>
      <trkpt lat="43.4225710" lon="-3.4444330">
        <ele>-15.0</ele>
        <time>2018-09-04T13:32:09Z</time>
      </trkpt>
      <trkpt lat="43.4226250" lon="-3.4445600">
        <ele>-15.0</ele>
        <time>2018-09-04T13:32:11Z</time>
      </trkpt>
      <trkpt lat="43.4227250" lon="-3.4446290">
        <ele>-15.0</ele>
        <time>2018-09-04T13:32:13Z</time>
      </trkpt>
      <trkpt lat="43.4228340" lon="-3.4446620">
        <ele>-14.2</ele>
        <time>2018-09-04T13:32:15Z</time>
      </trkpt>
      <trkpt lat="43.4228840" lon="-3.4446940">
        <ele>-14.2</ele>
        <time>2018-09-04T13:32:16Z</time>
      </trkpt>
      <trkpt lat="43.4229380" lon="-3.4447100">
        <ele>-14.4</ele>
        <time>2018-09-04T13:32:17Z</time>
      </trkpt>
      <trkpt lat="43.4230820" lon="-3.4447550">
        <ele>-14.2</ele>
        <time>2018-09-04T13:32:20Z</time>
      </trkpt>
      <trkpt lat="43.4232360" lon="-3.4448290">
        <ele>-14.6</ele>
        <time>2018-09-04T13:32:23Z</time>
      </trkpt>
      <trkpt lat="43.4234440" lon="-3.4449200">
        <ele>-14.8</ele>
        <time>2018-09-04T13:32:27Z</time>
      </trkpt>
      <trkpt lat="43.4236950" lon="-3.4450310">
        <ele>-15.2</ele>
        <time>2018-09-04T13:32:32Z</time>
      </trkpt>
      <trkpt lat="43.4237930" lon="-3.4450760">
        <ele>-15.0</ele>
        <time>2018-09-04T13:32:34Z</time>
      </trkpt>
      <trkpt lat="43.4242810" lon="-3.4453030">
        <ele>-15.0</ele>
        <time>2018-09-04T13:32:44Z</time>
      </trkpt>
      <trkpt lat="43.4246640" lon="-3.4454690">
        <ele>-14.0</ele>
        <time>2018-09-04T13:32:52Z</time>
      </trkpt>
      <trkpt lat="43.4247100" lon="-3.4454870">
        <ele>-13.8</ele>
        <time>2018-09-04T13:32:53Z</time>
      </trkpt>
      <trkpt lat="43.4250070" lon="-3.4456080">
        <ele>-14.0</ele>
        <time>2018-09-04T13:32:59Z</time>
      </trkpt>
      <trkpt lat="43.4254610" lon="-3.4458180">
        <ele>-14.6</ele>
        <time>2018-09-04T13:33:08Z</time>
      </trkpt>
      <trkpt lat="43.4255600" lon="-3.4458650">
        <ele>-14.8</ele>
        <time>2018-09-04T13:33:10Z</time>
      </trkpt>
      <trkpt lat="43.4258100" lon="-3.4459670">
        <ele>-14.2</ele>
        <time>2018-09-04T13:33:15Z</time>
      </trkpt>
      <trkpt lat="43.4260010" lon="-3.4460570">
        <ele>-14.6</ele>
        <time>2018-09-04T13:33:19Z</time>
      </trkpt>
      <trkpt lat="43.4262480" lon="-3.4461630">
        <ele>-14.6</ele>
        <time>2018-09-04T13:33:24Z</time>
      </trkpt>
      <trkpt lat="43.4263950" lon="-3.4462340">
        <ele>-14.8</ele>
        <time>2018-09-04T13:33:27Z</time>
      </trkpt>
      <trkpt lat="43.4265920" lon="-3.4463230">
        <ele>-13.8</ele>
        <time>2018-09-04T13:33:31Z</time>
      </trkpt>
      <trkpt lat="43.4269000" lon="-3.4464520">
        <ele>-14.0</ele>
        <time>2018-09-04T13:33:37Z</time>
      </trkpt>
      <trkpt lat="43.4273520" lon="-3.4466550">
        <ele>-14.2</ele>
        <time>2018-09-04T13:33:46Z</time>
      </trkpt>
      <trkpt lat="43.4278430" lon="-3.4468790">
        <ele>-14.4</ele>
        <time>2018-09-04T13:33:56Z</time>
      </trkpt>
      <trkpt lat="43.4281850" lon="-3.4470310">
        <ele>-14.0</ele>
        <time>2018-09-04T13:34:03Z</time>
      </trkpt>
      <trkpt lat="43.4282770" lon="-3.4470740">
        <ele>-14.2</ele>
        <time>2018-09-04T13:34:05Z</time>
      </trkpt>
      <trkpt lat="43.4284230" lon="-3.4471190">
        <ele>-13.8</ele>
        <time>2018-09-04T13:34:08Z</time>
      </trkpt>
      <trkpt lat="43.4285130" lon="-3.4471530">
        <ele>-13.6</ele>
        <time>2018-09-04T13:34:10Z</time>
      </trkpt>
      <trkpt lat="43.4288030" lon="-3.4472940">
        <ele>-13.6</ele>
        <time>2018-09-04T13:34:16Z</time>
      </trkpt>
      <trkpt lat="43.4288500" lon="-3.4473170">
        <ele>-13.4</ele>
        <time>2018-09-04T13:34:17Z</time>
      </trkpt>
      <trkpt lat="43.4289380" lon="-3.4473630">
        <ele>-13.0</ele>
        <time>2018-09-04T13:34:19Z</time>
      </trkpt>
      <trkpt lat="43.4290190" lon="-3.4474230">
        <ele>-13.2</ele>
        <time>2018-09-04T13:34:21Z</time>
      </trkpt>
      <trkpt lat="43.4290420" lon="-3.4475400">
        <ele>-13.6</ele>
        <time>2018-09-04T13:34:23Z</time>
      </trkpt>
      <trkpt lat="43.4290310" lon="-3.4475980">
        <ele>-14.0</ele>
        <time>2018-09-04T13:34:24Z</time>
      </trkpt>
      <trkpt lat="43.4290170" lon="-3.4476570">
        <ele>-14.6</ele>
        <time>2018-09-04T13:34:25Z</time>
      </trkpt>
      <trkpt lat="43.4289550" lon="-3.4479000">
        <ele>-14.6</ele>
        <time>2018-09-04T13:34:29Z</time>
      </trkpt>
      <trkpt lat="43.4288530" lon="-3.4483430">
        <ele>-14.8</ele>
        <time>2018-09-04T13:34:36Z</time>
      </trkpt>
      <trkpt lat="43.4288420" lon="-3.4484680">
        <ele>-14.8</ele>
        <time>2018-09-04T13:34:38Z</time>
      </trkpt>
      <trkpt lat="43.4288910" lon="-3.4485800">
        <ele>-15.4</ele>
        <time>2018-09-04T13:34:40Z</time>
      </trkpt>
      <trkpt lat="43.4289270" lon="-3.4486180">
        <ele>-15.4</ele>
        <time>2018-09-04T13:34:41Z</time>
      </trkpt>
      <trkpt lat="43.4290590" lon="-3.4486820">
        <ele>-14.4</ele>
        <time>2018-09-04T13:34:44Z</time>
      </trkpt>
      <trkpt lat="43.4291050" lon="-3.4487000">
        <ele>-14.2</ele>
        <time>2018-09-04T13:34:45Z</time>
      </trkpt>
      <trkpt lat="43.4291510" lon="-3.4487200">
        <ele>-14.4</ele>
        <time>2018-09-04T13:34:46Z</time>
      </trkpt>
      <trkpt lat="43.4296270" lon="-3.4489230">
        <ele>-14.0</ele>
        <time>2018-09-04T13:34:56Z</time>
      </trkpt>
      <trkpt lat="43.4298780" lon="-3.4490270">
        <ele>-13.6</ele>
        <time>2018-09-04T13:35:01Z</time>
      </trkpt>
      <trkpt lat="43.4300320" lon="-3.4491000">
        <ele>-13.6</ele>
        <time>2018-09-04T13:35:04Z</time>
      </trkpt>
      <trkpt lat="43.4304880" lon="-3.4493090">
        <ele>-13.6</ele>
        <time>2018-09-04T13:35:13Z</time>
      </trkpt>
      <trkpt lat="43.4309040" lon="-3.4495010">
        <ele>-13.8</ele>
        <time>2018-09-04T13:35:21Z</time>
      </trkpt>
      <trkpt lat="43.4313720" lon="-3.4497250">
        <ele>-14.4</ele>
        <time>2018-09-04T13:35:30Z</time>
      </trkpt>
      <trkpt lat="43.4318340" lon="-3.4499330">
        <ele>-14.4</ele>
        <time>2018-09-04T13:35:39Z</time>
      </trkpt>
      <trkpt lat="43.4319370" lon="-3.4499750">
        <ele>-14.6</ele>
        <time>2018-09-04T13:35:41Z</time>
      </trkpt>
      <trkpt lat="43.4322960" lon="-3.4501390">
        <ele>-14.6</ele>
        <time>2018-09-04T13:35:48Z</time>
      </trkpt>
      <trkpt lat="43.4326480" lon="-3.4503260">
        <ele>-14.8</ele>
        <time>2018-09-04T13:35:56Z</time>
      </trkpt>
      <trkpt lat="43.4327580" lon="-3.4503480">
        <ele>-14.4</ele>
        <time>2018-09-04T13:35:59Z</time>
      </trkpt>
      <trkpt lat="43.4328320" lon="-3.4503550">
        <ele>-14.4</ele>
        <time>2018-09-04T13:36:01Z</time>
      </trkpt>
      <trkpt lat="43.4328730" lon="-3.4503490">
        <ele>-14.2</ele>
        <time>2018-09-04T13:36:02Z</time>
      </trkpt>
      <trkpt lat="43.4330060" lon="-3.4503340">
        <ele>-14.4</ele>
        <time>2018-09-04T13:36:06Z</time>
      </trkpt>
      <trkpt lat="43.4331440" lon="-3.4504500">
        <ele>-15.2</ele>
        <time>2018-09-04T13:36:11Z</time>
      </trkpt>
      <trkpt lat="43.4331660" lon="-3.4504790">
        <ele>-15.4</ele>
        <time>2018-09-04T13:36:12Z</time>
      </trkpt>
      <trkpt lat="43.4331850" lon="-3.4505050">
        <ele>-15.4</ele>
        <time>2018-09-04T13:36:13Z</time>
      </trkpt>
      <trkpt lat="43.4332150" lon="-3.4505530">
        <ele>-15.2</ele>
        <time>2018-09-04T13:36:15Z</time>
      </trkpt>
      <trkpt lat="43.4332180" lon="-3.4505680">
        <ele>-14.8</ele>
        <time>2018-09-04T13:36:16Z</time>
      </trkpt>
      <trkpt lat="43.4333520" lon="-3.4506470">
        <ele>-14.2</ele>
        <time>2018-09-04T13:36:41Z</time>
      </trkpt>
      <trkpt lat="43.4333730" lon="-3.4506600">
        <ele>-14.2</ele>
        <time>2018-09-04T13:36:42Z</time>
      </trkpt>
      <trkpt lat="43.4335470" lon="-3.4508220">
        <ele>-14.0</ele>
        <time>2018-09-04T13:36:49Z</time>
      </trkpt>
      <trkpt lat="43.4336550" lon="-3.4510180">
        <ele>-13.6</ele>
        <time>2018-09-04T13:36:55Z</time>
      </trkpt>
      <trkpt lat="43.4337070" lon="-3.4512850">
        <ele>-13.6</ele>
        <time>2018-09-04T13:37:02Z</time>
      </trkpt>
      <trkpt lat="43.4337130" lon="-3.4513640">
        <ele>-13.4</ele>
        <time>2018-09-04T13:37:05Z</time>
      </trkpt>
      <trkpt lat="43.4337300" lon="-3.4514700">
        <ele>-14.8</ele>
        <time>2018-09-04T13:37:08Z</time>
      </trkpt>
      <trkpt lat="43.4337370" lon="-3.4515150">
        <ele>-15.6</ele>
        <time>2018-09-04T13:37:09Z</time>
      </trkpt>
      <trkpt lat="43.4337540" lon="-3.4516100">
        <ele>-16.6</ele>
        <time>2018-09-04T13:37:11Z</time>
      </trkpt>
      <trkpt lat="43.4337730" lon="-3.4516730">
        <ele>-16.6</ele>
        <time>2018-09-04T13:37:13Z</time>
      </trkpt>
      <trkpt lat="43.4337800" lon="-3.4516930">
        <ele>-16.4</ele>
        <time>2018-09-04T13:37:14Z</time>
      </trkpt>
      <trkpt lat="43.4337820" lon="-3.4517210">
        <ele>-15.8</ele>
        <time>2018-09-04T13:37:18Z</time>
      </trkpt>
      <trkpt lat="43.4338030" lon="-3.4517770">
        <ele>-15.6</ele>
        <time>2018-09-04T13:37:23Z</time>
      </trkpt>
      <trkpt lat="43.4338160" lon="-3.4518230">
        <ele>-16.0</ele>
        <time>2018-09-04T13:37:25Z</time>
      </trkpt>
      <trkpt lat="43.4338640" lon="-3.4519680">
        <ele>-16.4</ele>
        <time>2018-09-04T13:37:30Z</time>
      </trkpt>
      <trkpt lat="43.4338890" lon="-3.4520340">
        <ele>-16.6</ele>
        <time>2018-09-04T13:37:32Z</time>
      </trkpt>
      <trkpt lat="43.4339110" lon="-3.4521000">
        <ele>-17.0</ele>
        <time>2018-09-04T13:37:34Z</time>
      </trkpt>
      <trkpt lat="43.4339490" lon="-3.4522320">
        <ele>-16.2</ele>
        <time>2018-09-04T13:37:38Z</time>
      </trkpt>
      <trkpt lat="43.4339950" lon="-3.4524320">
        <ele>-16.2</ele>
        <time>2018-09-04T13:37:46Z</time>
      </trkpt>
      <trkpt lat="43.4340060" lon="-3.4525010">
        <ele>-15.6</ele>
        <time>2018-09-04T13:37:51Z</time>
      </trkpt>
      <trkpt lat="43.4342000" lon="-3.4532940">
        <ele>-16.0</ele>
        <time>2018-09-04T13:55:32Z</time>
      </trkpt>
      <trkpt lat="43.4342080" lon="-3.4533060">
        <ele>-16.2</ele>
        <time>2018-09-04T13:55:33Z</time>
      </trkpt>
      <trkpt lat="43.4342540" lon="-3.4533840">
        <ele>-16.4</ele>
        <time>2018-09-04T13:55:39Z</time>
      </trkpt>
      <trkpt lat="43.4342990" lon="-3.4534350">
        <ele>-16.4</ele>
        <time>2018-09-04T13:55:43Z</time>
      </trkpt>
      <trkpt lat="43.4343330" lon="-3.4534690">
        <ele>-16.4</ele>
        <time>2018-09-04T13:55:46Z</time>
      </trkpt>
      <trkpt lat="43.4344150" lon="-3.4535350">
        <ele>-16.6</ele>
        <time>2018-09-04T13:55:53Z</time>
      </trkpt>
      <trkpt lat="43.4344830" lon="-3.4535620">
        <ele>-16.6</ele>
        <time>2018-09-04T13:55:59Z</time>
      </trkpt>
      <trkpt lat="43.4345400" lon="-3.4535820">
        <ele>-16.4</ele>
        <time>2018-09-04T13:56:05Z</time>
      </trkpt>
      <trkpt lat="43.4345580" lon="-3.4538380">
        <ele>-16.6</ele>
        <time>2018-09-04T13:56:37Z</time>
      </trkpt>
      <trkpt lat="43.4345770" lon="-3.4538650">
        <ele>-16.6</ele>
        <time>2018-09-04T13:56:39Z</time>
      </trkpt>
      <trkpt lat="43.4346250" lon="-3.4539090">
        <ele>-16.2</ele>
        <time>2018-09-04T13:56:43Z</time>
      </trkpt>
      <trkpt lat="43.4346560" lon="-3.4539250">
        <ele>-16.2</ele>
        <time>2018-09-04T13:56:45Z</time>
      </trkpt>
      <trkpt lat="43.4347020" lon="-3.4539430">
        <ele>-16.2</ele>
        <time>2018-09-04T13:56:48Z</time>
      </trkpt>
      <trkpt lat="43.4347170" lon="-3.4539470">
        <ele>-16.2</ele>
        <time>2018-09-04T13:56:49Z</time>
      </trkpt>
      <trkpt lat="43.4347530" lon="-3.4539570">
        <ele>-16.2</ele>
        <time>2018-09-04T13:56:51Z</time>
      </trkpt>
      <trkpt lat="43.4348760" lon="-3.4539720">
        <ele>-16.0</ele>
        <time>2018-09-04T13:56:57Z</time>
      </trkpt>
      <trkpt lat="43.4349640" lon="-3.4539740">
        <ele>-16.0</ele>
        <time>2018-09-04T13:57:01Z</time>
      </trkpt>
      <trkpt lat="43.4351880" lon="-3.4539470">
        <ele>-15.8</ele>
        <time>2018-09-04T13:57:11Z</time>
      </trkpt>
      <trkpt lat="43.4352110" lon="-3.4539420">
        <ele>-15.8</ele>
        <time>2018-09-04T13:57:12Z</time>
      </trkpt>
      <trkpt lat="43.4352550" lon="-3.4539320">
        <ele>-15.6</ele>
        <time>2018-09-04T13:57:14Z</time>
      </trkpt>
      <trkpt lat="43.4355010" lon="-3.4537790">
        <ele>-16.0</ele>
        <time>2018-09-04T13:57:26Z</time>
      </trkpt>
      <trkpt lat="43.4358070" lon="-3.4536380">
        <ele>-15.8</ele>
        <time>2018-09-04T13:57:40Z</time>
      </trkpt>
      <trkpt lat="43.4358510" lon="-3.4536190">
        <ele>-15.8</ele>
        <time>2018-09-04T13:57:42Z</time>
      </trkpt>
      <trkpt lat="43.4360540" lon="-3.4535530">
        <ele>-16.0</ele>
        <time>2018-09-04T13:57:51Z</time>
      </trkpt>
      <trkpt lat="43.4360970" lon="-3.4535420">
        <ele>-15.8</ele>
        <time>2018-09-04T13:57:53Z</time>
      </trkpt>
      <trkpt lat="43.4362130" lon="-3.4535210">
        <ele>-15.8</ele>
        <time>2018-09-04T13:57:58Z</time>
      </trkpt>
      <trkpt lat="43.4365080" lon="-3.4534990">
        <ele>-16.0</ele>
        <time>2018-09-04T13:58:11Z</time>
      </trkpt>
      <trkpt lat="43.4365510" lon="-3.4534980">
        <ele>-15.8</ele>
        <time>2018-09-04T13:58:13Z</time>
      </trkpt>
      <trkpt lat="43.4366160" lon="-3.4534980">
        <ele>-15.8</ele>
        <time>2018-09-04T13:58:16Z</time>
      </trkpt>
      <trkpt lat="43.4367960" lon="-3.4534960">
        <ele>-15.6</ele>
        <time>2018-09-04T13:58:24Z</time>
      </trkpt>
      <trkpt lat="43.4368420" lon="-3.4534990">
        <ele>-15.6</ele>
        <time>2018-09-04T13:58:26Z</time>
      </trkpt>
      <trkpt lat="43.4369110" lon="-3.4535010">
        <ele>-15.8</ele>
        <time>2018-09-04T13:58:29Z</time>
      </trkpt>
      <trkpt lat="43.4369550" lon="-3.4535030">
        <ele>-15.8</ele>
        <time>2018-09-04T13:58:31Z</time>
      </trkpt>
      <trkpt lat="43.4371320" lon="-3.4535250">
        <ele>-15.6</ele>
        <time>2018-09-04T13:58:39Z</time>
      </trkpt>
      <trkpt lat="43.4372440" lon="-3.4535470">
        <ele>-15.8</ele>
        <time>2018-09-04T13:58:44Z</time>
      </trkpt>
      <trkpt lat="43.4373980" lon="-3.4535840">
        <ele>-15.8</ele>
        <time>2018-09-04T13:58:51Z</time>
      </trkpt>
      <trkpt lat="43.4374840" lon="-3.4535950">
        <ele>-15.6</ele>
        <time>2018-09-04T13:58:55Z</time>
      </trkpt>
      <trkpt lat="43.4376380" lon="-3.4536330">
        <ele>-15.8</ele>
        <time>2018-09-04T13:59:02Z</time>
      </trkpt>
      <trkpt lat="43.4378930" lon="-3.4537220">
        <ele>-16.2</ele>
        <time>2018-09-04T13:59:14Z</time>
      </trkpt>
      <trkpt lat="43.4381640" lon="-3.4538290">
        <ele>-15.8</ele>
        <time>2018-09-04T13:59:27Z</time>
      </trkpt>
      <trkpt lat="43.4383690" lon="-3.4539340">
        <ele>-16.2</ele>
        <time>2018-09-04T13:59:37Z</time>
      </trkpt>
      <trkpt lat="43.4384280" lon="-3.4539750">
        <ele>-16.4</ele>
        <time>2018-09-04T13:59:40Z</time>
      </trkpt>
      <trkpt lat="43.4384830" lon="-3.4540180">
        <ele>-16.6</ele>
        <time>2018-09-04T13:59:43Z</time>
      </trkpt>
      <trkpt lat="43.4386730" lon="-3.4541780">
        <ele>-16.2</ele>
        <time>2018-09-04T13:59:54Z</time>
      </trkpt>
      <trkpt lat="43.4387490" lon="-3.4542530">
        <ele>-16.4</ele>
        <time>2018-09-04T13:59:59Z</time>
      </trkpt>
      <trkpt lat="43.4387760" lon="-3.4542820">
        <ele>-16.6</ele>
        <time>2018-09-04T14:00:01Z</time>
      </trkpt>
      <trkpt lat="43.4388370" lon="-3.4543710">
        <ele>-16.6</ele>
        <time>2018-09-04T14:00:06Z</time>
      </trkpt>
      <trkpt lat="43.4388660" lon="-3.4544240">
        <ele>-16.6</ele>
        <time>2018-09-04T14:00:09Z</time>
      </trkpt>
      <trkpt lat="43.4389490" lon="-3.4545920">
        <ele>-16.6</ele>
        <time>2018-09-04T14:00:19Z</time>
      </trkpt>
      <trkpt lat="43.4390040" lon="-3.4546730">
        <ele>-16.6</ele>
        <time>2018-09-04T14:00:25Z</time>
      </trkpt>
      <trkpt lat="43.4390670" lon="-3.4547700">
        <ele>-16.6</ele>
        <time>2018-09-04T14:00:32Z</time>
      </trkpt>
      <trkpt lat="43.4390870" lon="-3.4547960">
        <ele>-16.6</ele>
        <time>2018-09-04T14:00:34Z</time>
      </trkpt>
      <trkpt lat="43.4391550" lon="-3.4548970">
        <ele>-16.8</ele>
        <time>2018-09-04T14:00:42Z</time>
      </trkpt>
      <trkpt lat="43.4391670" lon="-3.4549100">
        <ele>-16.6</ele>
        <time>2018-09-04T14:00:44Z</time>
      </trkpt>
      <trkpt lat="43.4391690" lon="-3.4549160">
        <ele>-16.6</ele>
        <time>2018-09-04T14:00:45Z</time>
      </trkpt>
      <trkpt lat="43.4391700" lon="-3.4549250">
        <ele>-16.6</ele>
        <time>2018-09-04T14:00:47Z</time>
      </trkpt>
      <trkpt lat="43.4394540" lon="-3.4550310">
        <ele>-14.6</ele>
        <time>2018-09-04T14:03:01Z</time>
      </trkpt>
      <trkpt lat="43.4394570" lon="-3.4550590">
        <ele>-14.6</ele>
        <time>2018-09-04T14:03:02Z</time>
      </trkpt>
      <trkpt lat="43.4394650" lon="-3.4551520">
        <ele>-15.0</ele>
        <time>2018-09-04T14:03:05Z</time>
      </trkpt>
      <trkpt lat="43.4394980" lon="-3.4552470">
        <ele>-14.8</ele>
        <time>2018-09-04T14:03:08Z</time>
      </trkpt>
      <trkpt lat="43.4395230" lon="-3.4552660">
        <ele>-14.8</ele>
        <time>2018-09-04T14:03:09Z</time>
      </trkpt>
      <trkpt lat="43.4395820" lon="-3.4552560">
        <ele>-14.2</ele>
        <time>2018-09-04T14:03:11Z</time>
      </trkpt>
      <trkpt lat="43.4396940" lon="-3.4552610">
        <ele>-14.8</ele>
        <time>2018-09-04T14:03:15Z</time>
      </trkpt>
      <trkpt lat="43.4397180" lon="-3.4552830">
        <ele>-14.8</ele>
        <time>2018-09-04T14:03:16Z</time>
      </trkpt>
      <trkpt lat="43.4398120" lon="-3.4553750">
        <ele>-14.2</ele>
        <time>2018-09-04T14:03:20Z</time>
      </trkpt>
      <trkpt lat="43.4398900" lon="-3.4554070">
        <ele>-14.0</ele>
        <time>2018-09-04T14:03:23Z</time>
      </trkpt>
      <trkpt lat="43.4399420" lon="-3.4554070">
        <ele>-13.4</ele>
        <time>2018-09-04T14:03:25Z</time>
      </trkpt>
      <trkpt lat="43.4400560" lon="-3.4554280">
        <ele>-14.0</ele>
        <time>2018-09-04T14:03:30Z</time>
      </trkpt>
      <trkpt lat="43.4400960" lon="-3.4554680">
        <ele>-14.0</ele>
        <time>2018-09-04T14:03:32Z</time>
      </trkpt>
      <trkpt lat="43.4401300" lon="-3.4555120">
        <ele>-13.6</ele>
        <time>2018-09-04T14:03:34Z</time>
      </trkpt>
      <trkpt lat="43.4401970" lon="-3.4555350">
        <ele>-14.0</ele>
        <time>2018-09-04T14:03:37Z</time>
      </trkpt>
      <trkpt lat="43.44487943686544895172119140625" lon="-3.46227242611348628997802734375">
        <ele>0</ele>
        <time>2018-09-05T05:41:50.000Z</time>
      </trkpt>
      <trkpt lat="43.444855213165283203125" lon="-3.46230830065906047821044921875">
        <ele>-0.60000002384185791015625</ele>
        <time>2018-09-05T05:41:59.000Z</time>
      </trkpt>
      <trkpt lat="43.4448456577956676483154296875" lon="-3.46233059652149677276611328125">
        <ele>-0.60000002384185791015625</ele>
        <time>2018-09-05T05:42:00.000Z</time>
      </trkpt>
      <trkpt lat="43.44483551569283008575439453125" lon="-3.46236370503902435302734375">
        <ele>-0.800000011920928955078125</ele>
        <time>2018-09-05T05:42:01.000Z</time>
      </trkpt>
      <trkpt lat="43.4448230266571044921875" lon="-3.46255187876522541046142578125">
        <ele>-0.800000011920928955078125</ele>
        <time>2018-09-05T05:42:05.000Z</time>
      </trkpt>
      <trkpt lat="43.4448248706758022308349609375" lon="-3.4625992365181446075439453125">
        <ele>-0.800000011920928955078125</ele>
        <time>2018-09-05T05:42:06.000Z</time>
      </trkpt>
      <trkpt lat="43.444820344448089599609375" lon="-3.462738208472728729248046875">
        <ele>-1.39999997615814208984375</ele>
        <time>2018-09-05T05:42:09.000Z</time>
      </trkpt>
      <trkpt lat="43.44481162726879119873046875" lon="-3.46289168111979961395263671875">
        <ele>-0.4000000059604644775390625</ele>
        <time>2018-09-05T05:42:12.000Z</time>
      </trkpt>
      <trkpt lat="43.4447883255779743194580078125" lon="-3.46322243101894855499267578125">
        <ele>-0.60000002384185791015625</ele>
        <time>2018-09-05T05:42:18.000Z</time>
      </trkpt>
      <trkpt lat="43.4447787702083587646484375" lon="-3.46336592920124530792236328125">
        <ele>-0.4000000059604644775390625</ele>
        <time>2018-09-05T05:42:21.000Z</time>
      </trkpt>
      <trkpt lat="43.4447641856968402862548828125" lon="-3.4635297954082489013671875">
        <ele>-0.4000000059604644775390625</ele>
        <time>2018-09-05T05:42:25.000Z</time>
      </trkpt>
      <trkpt lat="43.44475739635527133941650390625" lon="-3.463686369359493255615234375">
        <ele>-0.20000000298023223876953125</ele>
        <time>2018-09-05T05:42:29.000Z</time>
      </trkpt>
      <trkpt lat="43.44474649988114833831787109375" lon="-3.464104793965816497802734375">
        <ele>-0.4000000059604644775390625</ele>
        <time>2018-09-05T05:42:38.000Z</time>
      </trkpt>
      <trkpt lat="43.444722779095172882080078125" lon="-3.46459270454943180084228515625">
        <ele>-0.20000000298023223876953125</ele>
        <time>2018-09-05T05:42:48.000Z</time>
      </trkpt>
      <trkpt lat="43.44470811076462268829345703125" lon="-3.464777357876300811767578125">
        <ele>-0.20000000298023223876953125</ele>
        <time>2018-09-05T05:42:53.000Z</time>
      </trkpt>
      <trkpt lat="43.4446983039379119873046875" lon="-3.464842736721038818359375">
        <ele>-0.4000000059604644775390625</ele>
        <time>2018-09-05T05:42:55.000Z</time>
      </trkpt>
      <trkpt lat="43.4446947835385799407958984375" lon="-3.46493183635175228118896484375">
        <ele>-0.4000000059604644775390625</ele>
        <time>2018-09-05T05:42:57.000Z</time>
      </trkpt>
      <trkpt lat="43.444682545959949493408203125" lon="-3.46511975862085819244384765625">
        <ele>-0.60000002384185791015625</ele>
        <time>2018-09-05T05:43:01.000Z</time>
      </trkpt>
      <trkpt lat="43.4446599148213863372802734375" lon="-3.46543223597109317779541015625">
        <ele>-0.800000011920928955078125</ele>
        <time>2018-09-05T05:43:06.000Z</time>
      </trkpt>
      <trkpt lat="43.44460115768015384674072265625" lon="-3.46599449403584003448486328125">
        <ele>-1.2000000476837158203125</ele>
        <time>2018-09-05T05:43:14.000Z</time>
      </trkpt>
      <trkpt lat="43.444595374166965484619140625" lon="-3.466057442128658294677734375">
        <ele>-1.39999997615814208984375</ele>
        <time>2018-09-05T05:43:15.000Z</time>
      </trkpt>
      <trkpt lat="43.44457366503775119781494140625" lon="-3.466239161789417266845703125">
        <ele>-1.39999997615814208984375</ele>
        <time>2018-09-05T05:43:18.000Z</time>
      </trkpt>
      <trkpt lat="43.44455053098499774932861328125" lon="-3.466467820107936859130859375">
        <ele>-2.2000000476837158203125</ele>
        <time>2018-09-05T05:43:22.000Z</time>
      </trkpt>
      <trkpt lat="43.4445190988481044769287109375" lon="-3.46674802713096141815185546875">
        <ele>-1.39999997615814208984375</ele>
        <time>2018-09-05T05:43:27.000Z</time>
      </trkpt>
      <trkpt lat="43.44449068419635295867919921875" lon="-3.46699730493128299713134765625">
        <ele>-1.39999997615814208984375</ele>
        <time>2018-09-05T05:43:31.000Z</time>
      </trkpt>
      <trkpt lat="43.4444292448461055755615234375" lon="-3.46752955578267574310302734375">
        <ele>-1.60000002384185791015625</ele>
        <time>2018-09-05T05:43:39.000Z</time>
      </trkpt>
      <trkpt lat="43.44439496286213397979736328125" lon="-3.46784857101738452911376953125">
        <ele>-1.2000000476837158203125</ele>
        <time>2018-09-05T05:43:44.000Z</time>
      </trkpt>
      <trkpt lat="43.44437451101839542388916015625" lon="-3.46803397871553897857666015625">
        <ele>-1.2000000476837158203125</ele>
        <time>2018-09-05T05:43:47.000Z</time>
      </trkpt>
      <trkpt lat="43.4443685598671436309814453125" lon="-3.46809667535126209259033203125">
        <ele>-1.2000000476837158203125</ele>
        <time>2018-09-05T05:43:48.000Z</time>
      </trkpt>
      <trkpt lat="43.4443061985075473785400390625" lon="-3.4686796367168426513671875">
        <ele>-1.39999997615814208984375</ele>
        <time>2018-09-05T05:43:57.000Z</time>
      </trkpt>
      <trkpt lat="43.444249369204044342041015625" lon="-3.4691900946199893951416015625">
        <ele>-1.39999997615814208984375</ele>
        <time>2018-09-05T05:44:05.000Z</time>
      </trkpt>
      <trkpt lat="43.44416177831590175628662109375" lon="-3.4699724614620208740234375">
        <ele>-1.60000002384185791015625</ele>
        <time>2018-09-05T05:44:17.000Z</time>
      </trkpt>
      <trkpt lat="43.44409354962408542633056640625" lon="-3.47054083831608295440673828125">
        <ele>-1.60000002384185791015625</ele>
        <time>2018-09-05T05:44:26.000Z</time>
      </trkpt>
      <trkpt lat="43.44405080191791057586669921875" lon="-3.47093076445162296295166015625">
        <ele>-1.39999997615814208984375</ele>
        <time>2018-09-05T05:44:32.000Z</time>
      </trkpt>
      <trkpt lat="43.44402682967483997344970703125" lon="-3.4711316786706447601318359375">
        <ele>-1.60000002384185791015625</ele>
        <time>2018-09-05T05:44:35.000Z</time>
      </trkpt>
      <trkpt lat="43.44400419853627681732177734375" lon="-3.47132898867130279541015625">
        <ele>-1.39999997615814208984375</ele>
        <time>2018-09-05T05:44:38.000Z</time>
      </trkpt>
      <trkpt lat="43.44397502951323986053466796875" lon="-3.4715869836509227752685546875">
        <ele>-1.39999997615814208984375</ele>
        <time>2018-09-05T05:44:42.000Z</time>
      </trkpt>
      <trkpt lat="43.44393747858703136444091796875" lon="-3.4719088487327098846435546875">
        <ele>-1</ele>
        <time>2018-09-05T05:44:47.000Z</time>
      </trkpt>
      <trkpt lat="43.44391786493360996246337890625" lon="-3.47210682928562164306640625">
        <ele>-3</ele>
        <time>2018-09-05T05:44:50.000Z</time>
      </trkpt>
      <trkpt lat="43.44391166232526302337646484375" lon="-3.472173549234867095947265625">
        <ele>-2</ele>
        <time>2018-09-05T05:44:51.000Z</time>
      </trkpt>
      <trkpt lat="43.44389908947050571441650390625" lon="-3.472304306924343109130859375">
        <ele>-0.4000000059604644775390625</ele>
        <time>2018-09-05T05:44:53.000Z</time>
      </trkpt>
      <trkpt lat="43.44389162957668304443359375" lon="-3.4723695181310176849365234375">
        <ele>-1.60000002384185791015625</ele>
        <time>2018-09-05T05:44:54.000Z</time>
      </trkpt>
      <trkpt lat="43.44385801814496517181396484375" lon="-3.47263564355671405792236328125">
        <ele>-2.2000000476837158203125</ele>
        <time>2018-09-05T05:44:58.000Z</time>
      </trkpt>
      <trkpt lat="43.44382993876934051513671875" lon="-3.47289942204952239990234375">
        <ele>-1</ele>
        <time>2018-09-05T05:45:02.000Z</time>
      </trkpt>
      <trkpt lat="43.44378459267318248748779296875" lon="-3.4732818044722080230712890625">
        <ele>-2</ele>
        <time>2018-09-05T05:45:08.000Z</time>
      </trkpt>
      <trkpt lat="43.4436943195760250091552734375" lon="-3.474056459963321685791015625">
        <ele>-1.39999997615814208984375</ele>
        <time>2018-09-05T05:45:20.000Z</time>
      </trkpt>
      <trkpt lat="43.4436866082251071929931640625" lon="-3.47412242554128170013427734375">
        <ele>-1.39999997615814208984375</ele>
        <time>2018-09-05T05:45:21.000Z</time>
      </trkpt>
      <trkpt lat="43.44364696182310581207275390625" lon="-3.474310599267482757568359375">
        <ele>-1</ele>
        <time>2018-09-05T05:45:23.000Z</time>
      </trkpt>
      <trkpt lat="43.44358543865382671356201171875" lon="-3.4744887985289096832275390625">
        <ele>-1.2000000476837158203125</ele>
        <time>2018-09-05T05:45:27.000Z</time>
      </trkpt>
      <trkpt lat="43.44335921108722686767578125" lon="-3.4748730249702930450439453125">
        <ele>-1.39999997615814208984375</ele>
        <time>2018-09-05T05:45:34.000Z</time>
      </trkpt>
      <trkpt lat="43.4431702829897403717041015625" lon="-3.4751469455659389495849609375">
        <ele>-1.60000002384185791015625</ele>
        <time>2018-09-05T05:45:39.000Z</time>
      </trkpt>
      <trkpt lat="43.44309409148991107940673828125" lon="-3.47525381483137607574462890625">
        <ele>-1.39999997615814208984375</ele>
        <time>2018-09-05T05:45:41.000Z</time>
      </trkpt>
      <trkpt lat="43.443023264408111572265625" lon="-3.47535364329814910888671875">
        <ele>-1.39999997615814208984375</ele>
        <time>2018-09-05T05:45:43.000Z</time>
      </trkpt>
      <trkpt lat="43.4428557939827442169189453125" lon="-3.4755985625088214874267578125">
        <ele>-1</ele>
        <time>2018-09-05T05:45:48.000Z</time>
      </trkpt>
      <trkpt lat="43.44264079816639423370361328125" lon="-3.4759162366390228271484375">
        <ele>-0.60000002384185791015625</ele>
        <time>2018-09-05T05:45:55.000Z</time>
      </trkpt>
      <trkpt lat="43.44257592223584651947021484375" lon="-3.4760079346597194671630859375">
        <ele>-0.60000002384185791015625</ele>
        <time>2018-09-05T05:45:57.000Z</time>
      </trkpt>
      <trkpt lat="43.44254574738442897796630859375" lon="-3.47605504095554351806640625">
        <ele>-0.60000002384185791015625</ele>
        <time>2018-09-05T05:45:58.000Z</time>
      </trkpt>
      <trkpt lat="43.4422630257904529571533203125" lon="-3.4764796681702136993408203125">
        <ele>-0.20000000298023223876953125</ele>
        <time>2018-09-05T05:46:07.000Z</time>
      </trkpt>
      <trkpt lat="43.442087508738040924072265625" lon="-3.476736657321453094482421875">
        <ele>-0.4000000059604644775390625</ele>
        <time>2018-09-05T05:46:12.000Z</time>
      </trkpt>
      <trkpt lat="43.44201408326625823974609375" lon="-3.4768404252827167510986328125">
        <ele>-0.60000002384185791015625</ele>
        <time>2018-09-05T05:46:14.000Z</time>
      </trkpt>
      <trkpt lat="43.44187402166426181793212890625" lon="-3.47703807055950164794921875">
        <ele>-0.800000011920928955078125</ele>
        <time>2018-09-05T05:46:18.000Z</time>
      </trkpt>
      <trkpt lat="43.44180042855441570281982421875" lon="-3.4771451912820339202880859375">
        <ele>-1</ele>
        <time>2018-09-05T05:46:20.000Z</time>
      </trkpt>
      <trkpt lat="43.44168542884290218353271484375" lon="-3.47731207497417926788330078125">
        <ele>-1</ele>
        <time>2018-09-05T05:46:23.000Z</time>
      </trkpt>
      <trkpt lat="43.4415743686258792877197265625" lon="-3.47748055122792720794677734375">
        <ele>-1.2000000476837158203125</ele>
        <time>2018-09-05T05:46:26.000Z</time>
      </trkpt>
      <trkpt lat="43.44142374582588672637939453125" lon="-3.47770753316581249237060546875">
        <ele>-1.60000002384185791015625</ele>
        <time>2018-09-05T05:46:30.000Z</time>
      </trkpt>
      <trkpt lat="43.44131268560886383056640625" lon="-3.477870561182498931884765625">
        <ele>-1.60000002384185791015625</ele>
        <time>2018-09-05T05:46:33.000Z</time>
      </trkpt>
      <trkpt lat="43.44113490544259548187255859375" lon="-3.47813132219016551971435546875">
        <ele>-1.39999997615814208984375</ele>
        <time>2018-09-05T05:46:38.000Z</time>
      </trkpt>
      <trkpt lat="43.440984785556793212890625" lon="-3.4783381037414073944091796875">
        <ele>-1.39999997615814208984375</ele>
        <time>2018-09-05T05:46:42.000Z</time>
      </trkpt>
      <trkpt lat="43.44070726074278354644775390625" lon="-3.47866206429898738861083984375">
        <ele>-1.60000002384185791015625</ele>
        <time>2018-09-05T05:46:49.000Z</time>
      </trkpt>
      <trkpt lat="43.440364189445972442626953125" lon="-3.47887513227760791778564453125">
        <ele>-1.60000002384185791015625</ele>
        <time>2018-09-05T05:46:56.000Z</time>
      </trkpt>
      <trkpt lat="43.43998189084231853485107421875" lon="-3.47897403873503208160400390625">
        <ele>-1.7999999523162841796875</ele>
        <time>2018-09-05T05:47:03.000Z</time>
      </trkpt>
      <trkpt lat="43.43970042653381824493408203125" lon="-3.4790431894361972808837890625">
        <ele>-1.7999999523162841796875</ele>
        <time>2018-09-05T05:47:08.000Z</time>
      </trkpt>
      <trkpt lat="43.439538069069385528564453125" lon="-3.47909876145422458648681640625">
        <ele>-1.7999999523162841796875</ele>
        <time>2018-09-05T05:47:11.000Z</time>
      </trkpt>
      <trkpt lat="43.43919231556355953216552734375" lon="-3.47932306118309497833251953125">
        <ele>-2.7999999523162841796875</ele>
        <time>2018-09-05T05:47:18.000Z</time>
      </trkpt>
      <trkpt lat="43.438969440758228302001953125" lon="-3.4795658849179744720458984375">
        <ele>-2.7999999523162841796875</ele>
        <time>2018-09-05T05:47:24.000Z</time>
      </trkpt>
      <trkpt lat="43.438940607011318206787109375" lon="-3.47960988990962505340576171875">
        <ele>-2.2000000476837158203125</ele>
        <time>2018-09-05T05:47:25.000Z</time>
      </trkpt>
      <trkpt lat="43.4388591349124908447265625" lon="-3.47972556017339229583740234375">
        <ele>-2.2000000476837158203125</ele>
        <time>2018-09-05T05:47:28.000Z</time>
      </trkpt>
      <trkpt lat="43.4388354979455471038818359375" lon="-3.47976227290928363800048828125">
        <ele>-1.60000002384185791015625</ele>
        <time>2018-09-05T05:47:29.000Z</time>
      </trkpt>
      <trkpt lat="43.43874983489513397216796875" lon="-3.47989789210259914398193359375">
        <ele>-1.7999999523162841796875</ele>
        <time>2018-09-05T05:47:32.000Z</time>
      </trkpt>
      <trkpt lat="43.43866911716759204864501953125" lon="-3.4800074435770511627197265625">
        <ele>-2.2000000476837158203125</ele>
        <time>2018-09-05T05:47:34.000Z</time>
      </trkpt>
      <trkpt lat="43.43863173387944698333740234375" lon="-3.48007374443113803863525390625">
        <ele>-2.2000000476837158203125</ele>
        <time>2018-09-05T05:47:35.000Z</time>
      </trkpt>
      <trkpt lat="43.43858756124973297119140625" lon="-3.48013845272362232208251953125">
        <ele>-2.2000000476837158203125</ele>
        <time>2018-09-05T05:47:36.000Z</time>
      </trkpt>
      <trkpt lat="43.4385424666106700897216796875" lon="-3.4802086092531681060791015625">
        <ele>-2.2000000476837158203125</ele>
        <time>2018-09-05T05:47:37.000Z</time>
      </trkpt>
      <trkpt lat="43.4385012276470661163330078125" lon="-3.4802773408591747283935546875">
        <ele>-2</ele>
        <time>2018-09-05T05:47:38.000Z</time>
      </trkpt>
      <trkpt lat="43.43842721544206142425537109375" lon="-3.480413965880870819091796875">
        <ele>-1.2000000476837158203125</ele>
        <time>2018-09-05T05:47:40.000Z</time>
      </trkpt>
      <trkpt lat="43.438372649252414703369140625" lon="-3.480525948107242584228515625">
        <ele>-1</ele>
        <time>2018-09-05T05:47:42.000Z</time>
      </trkpt>
      <trkpt lat="43.438331075012683868408203125" lon="-3.4806337393820285797119140625">
        <ele>-0.60000002384185791015625</ele>
        <time>2018-09-05T05:47:44.000Z</time>
      </trkpt>
      <trkpt lat="43.4383148141205310821533203125" lon="-3.48068579100072383880615234375">
        <ele>-0.60000002384185791015625</ele>
        <time>2018-09-05T05:47:45.000Z</time>
      </trkpt>
      <trkpt lat="43.43827064149081707000732421875" lon="-3.480846472084522247314453125">
        <ele>-0.4000000059604644775390625</ele>
        <time>2018-09-05T05:47:48.000Z</time>
      </trkpt>
      <trkpt lat="43.43823845498263835906982421875" lon="-3.48094747401773929595947265625">
        <ele>-0.4000000059604644775390625</ele>
        <time>2018-09-05T05:47:50.000Z</time>
      </trkpt>
      <trkpt lat="43.4382112137973308563232421875" lon="-3.4810421057045459747314453125">
        <ele>-0.4000000059604644775390625</ele>
        <time>2018-09-05T05:47:52.000Z</time>
      </trkpt>
      <trkpt lat="43.43815145082771778106689453125" lon="-3.4812275134027004241943359375">
        <ele>-0.60000002384185791015625</ele>
        <time>2018-09-05T05:47:56.000Z</time>
      </trkpt>
      <trkpt lat="43.43812278471887111663818359375" lon="-3.481321893632411956787109375">
        <ele>-0.60000002384185791015625</ele>
        <time>2018-09-05T05:47:58.000Z</time>
      </trkpt>
      <trkpt lat="43.43807919882237911224365234375" lon="-3.4814635477960109710693359375">
        <ele>-0.800000011920928955078125</ele>
        <time>2018-09-05T05:48:01.000Z</time>
      </trkpt>
      <trkpt lat="43.43804441392421722412109375" lon="-3.48156941123306751251220703125">
        <ele>-0.800000011920928955078125</ele>
        <time>2018-09-05T05:48:03.000Z</time>
      </trkpt>
      <trkpt lat="43.4380261413753032684326171875" lon="-3.48162054084241390228271484375">
        <ele>-0.800000011920928955078125</ele>
        <time>2018-09-05T05:48:04.000Z</time>
      </trkpt>
      <trkpt lat="43.43797467648983001708984375" lon="-3.481783568859100341796875">
        <ele>-1.39999997615814208984375</ele>
        <time>2018-09-05T05:48:07.000Z</time>
      </trkpt>
      <trkpt lat="43.4379064477980136871337890625" lon="-3.481998145580291748046875">
        <ele>-1.60000002384185791015625</ele>
        <time>2018-09-05T05:48:11.000Z</time>
      </trkpt>
      <trkpt lat="43.4378886781632900238037109375" lon="-3.482056818902492523193359375">
        <ele>-1.7999999523162841796875</ele>
        <time>2018-09-05T05:48:12.000Z</time>
      </trkpt>
      <trkpt lat="43.437815420329570770263671875" lon="-3.4822819568216800689697265625">
        <ele>-1.7999999523162841796875</ele>
        <time>2018-09-05T05:48:16.000Z</time>
      </trkpt>
      <trkpt lat="43.43774023465812206268310546875" lon="-3.48250634036958217620849609375">
        <ele>-1.7999999523162841796875</ele>
        <time>2018-09-05T05:48:20.000Z</time>
      </trkpt>
      <trkpt lat="43.4375443495810031890869140625" lon="-3.48298578523099422454833984375">
        <ele>-1.7999999523162841796875</ele>
        <time>2018-09-05T05:48:29.000Z</time>
      </trkpt>
      <trkpt lat="43.43748659826815128326416015625" lon="-3.48309047520160675048828125">
        <ele>-1.7999999523162841796875</ele>
        <time>2018-09-05T05:48:31.000Z</time>
      </trkpt>
      <trkpt lat="43.437312506139278411865234375" lon="-3.4833806566894054412841796875">
        <ele>-1.7999999523162841796875</ele>
        <time>2018-09-05T05:48:37.000Z</time>
      </trkpt>
      <trkpt lat="43.4371088258922100067138671875" lon="-3.48372423090040683746337890625">
        <ele>-1.7999999523162841796875</ele>
        <time>2018-09-05T05:48:44.000Z</time>
      </trkpt>
      <trkpt lat="43.43704973347485065460205078125" lon="-3.483817689120769500732421875">
        <ele>-2</ele>
        <time>2018-09-05T05:48:46.000Z</time>
      </trkpt>
      <trkpt lat="43.43673172406852245330810546875" lon="-3.48429520614445209503173828125">
        <ele>-1.7999999523162841796875</ele>
        <time>2018-09-05T05:48:56.000Z</time>
      </trkpt>
      <trkpt lat="43.43661974184215068817138671875" lon="-3.4844347648322582244873046875">
        <ele>-2</ele>
        <time>2018-09-05T05:48:59.000Z</time>
      </trkpt>
      <trkpt lat="43.43646652065217494964599609375" lon="-3.4846307337284088134765625">
        <ele>-2</ele>
        <time>2018-09-05T05:49:03.000Z</time>
      </trkpt>
      <trkpt lat="43.43634699471294879913330078125" lon="-3.48478018306195735931396484375">
        <ele>-2</ele>
        <time>2018-09-05T05:49:06.000Z</time>
      </trkpt>
      <trkpt lat="43.4361512772738933563232421875" lon="-3.4850278683006763458251953125">
        <ele>-2.2000000476837158203125</ele>
        <time>2018-09-05T05:49:11.000Z</time>
      </trkpt>
      <trkpt lat="43.43595740385353565216064453125" lon="-3.48527220077812671661376953125">
        <ele>-2.2000000476837158203125</ele>
        <time>2018-09-05T05:49:16.000Z</time>
      </trkpt>
      <trkpt lat="43.43558457680046558380126953125" lon="-3.48573354072868824005126953125">
        <ele>-2.2000000476837158203125</ele>
        <time>2018-09-05T05:49:26.000Z</time>
      </trkpt>
      <trkpt lat="43.43529121018946170806884765625" lon="-3.48610636778175830841064453125">
        <ele>-1.60000002384185791015625</ele>
        <time>2018-09-05T05:49:35.000Z</time>
      </trkpt>
      <trkpt lat="43.43515961430966854095458984375" lon="-3.48627333529293537139892578125">
        <ele>-1.2000000476837158203125</ele>
        <time>2018-09-05T05:49:40.000Z</time>
      </trkpt>
      <trkpt lat="43.4351223148405551910400390625" lon="-3.48632379435002803802490234375">
        <ele>-1.2000000476837158203125</ele>
        <time>2018-09-05T05:49:42.000Z</time>
      </trkpt>
      <trkpt lat="43.43506808392703533172607421875" lon="-3.48639789037406444549560546875">
        <ele>-0.800000011920928955078125</ele>
        <time>2018-09-05T05:49:46.000Z</time>
      </trkpt>
      <trkpt lat="43.435060121119022369384765625" lon="-3.48641130141913890838623046875">
        <ele>-0.60000002384185791015625</ele>
        <time>2018-09-05T05:49:47.000Z</time>
      </trkpt>
      <trkpt lat="43.43504914082586765289306640625" lon="-3.48642454482614994049072265625">
        <ele>-0.60000002384185791015625</ele>
        <time>2018-09-05T05:49:49.000Z</time>
      </trkpt>
      <trkpt lat="43.435002453625202178955078125" lon="-3.48648556508123874664306640625">
        <ele>-0.60000002384185791015625</ele>
        <time>2018-09-05T05:49:55.000Z</time>
      </trkpt>
      <trkpt lat="43.43493841588497161865234375" lon="-3.4865691326558589935302734375">
        <ele>-0.800000011920928955078125</ele>
        <time>2018-09-05T05:51:43.000Z</time>
      </trkpt>
      <trkpt lat="43.4349214844405651092529296875" lon="-3.48658799193799495697021484375">
        <ele>-1</ele>
        <time>2018-09-05T05:51:44.000Z</time>
      </trkpt>
      <trkpt lat="43.434903211891651153564453125" lon="-3.4866034984588623046875">
        <ele>-1</ele>
        <time>2018-09-05T05:51:45.000Z</time>
      </trkpt>
      <trkpt lat="43.43488468788564205169677734375" lon="-3.4866261295974254608154296875">
        <ele>-1</ele>
        <time>2018-09-05T05:51:46.000Z</time>
      </trkpt>
      <trkpt lat="43.4348001144826412200927734375" lon="-3.4867434762418270111083984375">
        <ele>-1.2000000476837158203125</ele>
        <time>2018-09-05T05:51:50.000Z</time>
      </trkpt>
      <trkpt lat="43.43459106981754302978515625" lon="-3.4869842045009136199951171875">
        <ele>-1.60000002384185791015625</ele>
        <time>2018-09-05T05:51:57.000Z</time>
      </trkpt>
      <trkpt lat="43.43455561436712741851806640625" lon="-3.48703223280608654022216796875">
        <ele>-1.7999999523162841796875</ele>
        <time>2018-09-05T05:51:58.000Z</time>
      </trkpt>
      <trkpt lat="43.4343163110315799713134765625" lon="-3.48732962273061275482177734375">
        <ele>-2.599999904632568359375</ele>
        <time>2018-09-05T05:52:04.000Z</time>
      </trkpt>
      <trkpt lat="43.43418966047465801239013671875" lon="-3.487487621605396270751953125">
        <ele>-3</ele>
        <time>2018-09-05T05:52:07.000Z</time>
      </trkpt>
      <trkpt lat="43.4339372813701629638671875" lon="-3.487812168896198272705078125">
        <ele>-3</ele>
        <time>2018-09-05T05:52:13.000Z</time>
      </trkpt>
      <trkpt lat="43.4338556416332721710205078125" lon="-3.48790713585913181304931640625">
        <ele>-3</ele>
        <time>2018-09-05T05:52:15.000Z</time>
      </trkpt>
      <trkpt lat="43.433572836220264434814453125" lon="-3.48823268897831439971923828125">
        <ele>-3</ele>
        <time>2018-09-05T05:52:22.000Z</time>
      </trkpt>
      <trkpt lat="43.4331753663718700408935546875" lon="-3.4886701405048370361328125">
        <ele>-3</ele>
        <time>2018-09-05T05:52:32.000Z</time>
      </trkpt>
      <trkpt lat="43.43274394981563091278076171875" lon="-3.48914296366274356842041015625">
        <ele>-3.2000000476837158203125</ele>
        <time>2018-09-05T05:52:43.000Z</time>
      </trkpt>
      <trkpt lat="43.43270505778491497039794921875" lon="-3.48918755538761615753173828125">
        <ele>-3</ele>
        <time>2018-09-05T05:52:44.000Z</time>
      </trkpt>
      <trkpt lat="43.43234798870980739593505859375" lon="-3.489579744637012481689453125">
        <ele>-3.2000000476837158203125</ele>
        <time>2018-09-05T05:52:53.000Z</time>
      </trkpt>
      <trkpt lat="43.4319153986871242523193359375" lon="-3.49005726166069507598876953125">
        <ele>-3</ele>
        <time>2018-09-05T05:53:04.000Z</time>
      </trkpt>
      <trkpt lat="43.43158892355859279632568359375" lon="-3.4904055297374725341796875">
        <ele>-3</ele>
        <time>2018-09-05T05:53:12.000Z</time>
      </trkpt>
      <trkpt lat="43.4314346127212047576904296875" lon="-3.49058113060891628265380859375">
        <ele>-2.7999999523162841796875</ele>
        <time>2018-09-05T05:53:16.000Z</time>
      </trkpt>
      <trkpt lat="43.43131341040134429931640625" lon="-3.490713648498058319091796875">
        <ele>-2.7999999523162841796875</ele>
        <time>2018-09-05T05:53:19.000Z</time>
      </trkpt>
      <trkpt lat="43.4310768730938434600830078125" lon="-3.49097943864762783050537109375">
        <ele>-2.599999904632568359375</ele>
        <time>2018-09-05T05:53:25.000Z</time>
      </trkpt>
      <trkpt lat="43.4309575147926807403564453125" lon="-3.491120003163814544677734375">
        <ele>-2.2000000476837158203125</ele>
        <time>2018-09-05T05:53:28.000Z</time>
      </trkpt>
      <trkpt lat="43.43063103966414928436279296875" lon="-3.4915401041507720947265625">
        <ele>-2</ele>
        <time>2018-09-05T05:53:37.000Z</time>
      </trkpt>
      <trkpt lat="43.43035896308720111846923828125" lon="-3.49191351793706417083740234375">
        <ele>-1</ele>
        <time>2018-09-05T05:53:46.000Z</time>
      </trkpt>
      <trkpt lat="43.43033130280673503875732421875" lon="-3.49195517599582672119140625">
        <ele>-0.800000011920928955078125</ele>
        <time>2018-09-05T05:53:47.000Z</time>
      </trkpt>
      <trkpt lat="43.43016986735165119171142578125" lon="-3.49217955954372882843017578125">
        <ele>-0.20000000298023223876953125</ele>
        <time>2018-09-05T05:53:53.000Z</time>
      </trkpt>
      <trkpt lat="43.430083952844142913818359375" lon="-3.49228584207594394683837890625">
        <ele>0</ele>
        <time>2018-09-05T05:53:56.000Z</time>
      </trkpt>
      <trkpt lat="43.42992947436869144439697265625" lon="-3.4924314357340335845947265625">
        <ele>0.20000000298023223876953125</ele>
        <time>2018-09-05T05:54:01.000Z</time>
      </trkpt>
      <trkpt lat="43.42981430701911449432373046875" lon="-3.49250796250998973846435546875">
        <ele>0</ele>
        <time>2018-09-05T05:54:04.000Z</time>
      </trkpt>
      <trkpt lat="43.429485149681568145751953125" lon="-3.49264022894203662872314453125">
        <ele>-0.60000002384185791015625</ele>
        <time>2018-09-05T05:54:11.000Z</time>
      </trkpt>
      <trkpt lat="43.4293756820261478424072265625" lon="-3.49265917204320430755615234375">
        <ele>-1</ele>
        <time>2018-09-05T05:54:13.000Z</time>
      </trkpt>
      <trkpt lat="43.429093547165393829345703125" lon="-3.4926543943583965301513671875">
        <ele>-2</ele>
        <time>2018-09-05T05:54:18.000Z</time>
      </trkpt>
      <trkpt lat="43.428979218006134033203125" lon="-3.49263670854270458221435546875">
        <ele>-2.2000000476837158203125</ele>
        <time>2018-09-05T05:54:20.000Z</time>
      </trkpt>
      <trkpt lat="43.4288062155246734619140625" lon="-3.49260251037776470184326171875">
        <ele>-2.400000095367431640625</ele>
        <time>2018-09-05T05:54:23.000Z</time>
      </trkpt>
      <trkpt lat="43.42874921858310699462890625" lon="-3.492588512599468231201171875">
        <ele>-2.599999904632568359375</ele>
        <time>2018-09-05T05:54:24.000Z</time>
      </trkpt>
      <trkpt lat="43.42863027937710285186767578125" lon="-3.49256378598511219024658203125">
        <ele>-2.599999904632568359375</ele>
        <time>2018-09-05T05:54:26.000Z</time>
      </trkpt>
      <trkpt lat="43.428222499787807464599609375" lon="-3.4924815595149993896484375">
        <ele>-3</ele>
        <time>2018-09-05T05:54:33.000Z</time>
      </trkpt>
      <trkpt lat="43.42810674570500850677490234375" lon="-3.49245985038578510284423828125">
        <ele>-3.2000000476837158203125</ele>
        <time>2018-09-05T05:54:35.000Z</time>
      </trkpt>
      <trkpt lat="43.42775587923824787139892578125" lon="-3.49238969385623931884765625">
        <ele>-3.2000000476837158203125</ele>
        <time>2018-09-05T05:54:41.000Z</time>
      </trkpt>
      <trkpt lat="43.427468128502368927001953125" lon="-3.492330349981784820556640625">
        <ele>-3.2000000476837158203125</ele>
        <time>2018-09-05T05:54:46.000Z</time>
      </trkpt>
      <trkpt lat="43.42706252820789813995361328125" lon="-3.4922493807971477508544921875">
        <ele>-3</ele>
        <time>2018-09-05T05:54:53.000Z</time>
      </trkpt>
      <trkpt lat="43.42700217850506305694580078125" lon="-3.4922359697520732879638671875">
        <ele>-3</ele>
        <time>2018-09-05T05:54:54.000Z</time>
      </trkpt>
      <trkpt lat="43.4265370666980743408203125" lon="-3.49214033223688602447509765625">
        <ele>-3</ele>
        <time>2018-09-05T05:55:02.000Z</time>
      </trkpt>
      <trkpt lat="43.426050245761871337890625" lon="-3.49204502999782562255859375">
        <ele>-2.7999999523162841796875</ele>
        <time>2018-09-05T05:55:11.000Z</time>
      </trkpt>
      <trkpt lat="43.42551648616790771484375" lon="-3.49195383489131927490234375">
        <ele>-2.599999904632568359375</ele>
        <time>2018-09-05T05:55:21.000Z</time>
      </trkpt>
      <trkpt lat="43.4250402264297008514404296875" lon="-3.49189977161586284637451171875">
        <ele>-2.2000000476837158203125</ele>
        <time>2018-09-05T05:55:30.000Z</time>
      </trkpt>
      <trkpt lat="43.42493587173521518707275390625" lon="-3.49188719876110553741455078125">
        <ele>-2</ele>
        <time>2018-09-05T05:55:32.000Z</time>
      </trkpt>
      <trkpt lat="43.42472498305141925811767578125" lon="-3.4918628074228763580322265625">
        <ele>-1.7999999523162841796875</ele>
        <time>2018-09-05T05:55:36.000Z</time>
      </trkpt>
      <trkpt lat="43.4246218018233776092529296875" lon="-3.4918497316539287567138671875">
        <ele>-1.7999999523162841796875</ele>
        <time>2018-09-05T05:55:38.000Z</time>
      </trkpt>
      <trkpt lat="43.424128107726573944091796875" lon="-3.4918011166155338287353515625">
        <ele>-1.39999997615814208984375</ele>
        <time>2018-09-05T05:55:48.000Z</time>
      </trkpt>
      <trkpt lat="43.42365193180739879608154296875" lon="-3.4917493164539337158203125">
        <ele>-1.60000002384185791015625</ele>
        <time>2018-09-05T05:55:57.000Z</time>
      </trkpt>
      <trkpt lat="43.42354564927518367767333984375" lon="-3.49173565395176410675048828125">
        <ele>-1.60000002384185791015625</ele>
        <time>2018-09-05T05:55:59.000Z</time>
      </trkpt>
      <trkpt lat="43.4231556393206119537353515625" lon="-3.49169290624558925628662109375">
        <ele>-2</ele>
        <time>2018-09-05T05:56:06.000Z</time>
      </trkpt>
      <trkpt lat="43.422984816133975982666015625" lon="-3.49166943691670894622802734375">
        <ele>-2.2000000476837158203125</ele>
        <time>2018-09-05T05:56:09.000Z</time>
      </trkpt>
      <trkpt lat="43.4225068800151348114013671875" lon="-3.49162685684859752655029296875">
        <ele>-2.599999904632568359375</ele>
        <time>2018-09-05T05:56:17.000Z</time>
      </trkpt>
      <trkpt lat="43.42239347286522388458251953125" lon="-3.4916113503277301788330078125">
        <ele>-2.599999904632568359375</ele>
        <time>2018-09-05T05:56:19.000Z</time>
      </trkpt>
      <trkpt lat="43.42210463248193264007568359375" lon="-3.49158712662756443023681640625">
        <ele>-2.7999999523162841796875</ele>
        <time>2018-09-05T05:56:24.000Z</time>
      </trkpt>
      <trkpt lat="43.42183222062885761260986328125" lon="-3.4915593825280666351318359375">
        <ele>-3</ele>
        <time>2018-09-05T05:56:29.000Z</time>
      </trkpt>
      <trkpt lat="43.4217223338782787322998046875" lon="-3.491551838815212249755859375">
        <ele>-3</ele>
        <time>2018-09-05T05:56:31.000Z</time>
      </trkpt>
      <trkpt lat="43.4216090105473995208740234375" lon="-3.49154069088399410247802734375">
        <ele>-3</ele>
        <time>2018-09-05T05:56:33.000Z</time>
      </trkpt>
      <trkpt lat="43.42128873802721500396728515625" lon="-3.491508923470973968505859375">
        <ele>-2.7999999523162841796875</ele>
        <time>2018-09-05T05:56:39.000Z</time>
      </trkpt>
      <trkpt lat="43.4211553819477558135986328125" lon="-3.491501547396183013916015625">
        <ele>-2.599999904632568359375</ele>
        <time>2018-09-05T05:56:43.000Z</time>
      </trkpt>
      <trkpt lat="43.42107784934341907501220703125" lon="-3.491514623165130615234375">
        <ele>-3</ele>
        <time>2018-09-05T05:56:47.000Z</time>
      </trkpt>
      <trkpt lat="43.4210618399083614349365234375" lon="-3.4915161319077014923095703125">
        <ele>-3</ele>
        <time>2018-09-05T05:56:48.000Z</time>
      </trkpt>
      <trkpt lat="43.42095497064292430877685546875" lon="-3.49148570559918880462646484375">
        <ele>-3</ele>
        <time>2018-09-05T05:56:51.000Z</time>
      </trkpt>
      <trkpt lat="43.4209066070616245269775390625" lon="-3.49148042500019073486328125">
        <ele>-3.2000000476837158203125</ele>
        <time>2018-09-05T05:56:52.000Z</time>
      </trkpt>
      <trkpt lat="43.420803844928741455078125" lon="-3.49147447384893894195556640625">
        <ele>-3</ele>
        <time>2018-09-05T05:56:54.000Z</time>
      </trkpt>
      <trkpt lat="43.42070183716714382171630859375" lon="-3.49146290682256221771240234375">
        <ele>-3</ele>
        <time>2018-09-05T05:56:56.000Z</time>
      </trkpt>
      <trkpt lat="43.420603014528751373291015625" lon="-3.491453938186168670654296875">
        <ele>-2.7999999523162841796875</ele>
        <time>2018-09-05T05:56:58.000Z</time>
      </trkpt>
      <trkpt lat="43.42050704173743724822998046875" lon="-3.491440527141094207763671875">
        <ele>-3</ele>
        <time>2018-09-05T05:57:00.000Z</time>
      </trkpt>
      <trkpt lat="43.42036999762058258056640625" lon="-3.49142921157181262969970703125">
        <ele>-2.7999999523162841796875</ele>
        <time>2018-09-05T05:57:03.000Z</time>
      </trkpt>
      <trkpt lat="43.42023429460823535919189453125" lon="-3.49142066203057765960693359375">
        <ele>-2.7999999523162841796875</ele>
        <time>2018-09-05T05:57:06.000Z</time>
      </trkpt>
      <trkpt lat="43.42015014030039310455322265625" lon="-3.49141345359385013580322265625">
        <ele>-2.7999999523162841796875</ele>
        <time>2018-09-05T05:57:08.000Z</time>
      </trkpt>
      <trkpt lat="43.419795669615268707275390625" lon="-3.49138059653341770172119140625">
        <ele>-2.7999999523162841796875</ele>
        <time>2018-09-05T05:57:16.000Z</time>
      </trkpt>
      <trkpt lat="43.41961386613547801971435546875" lon="-3.49136374890804290771484375">
        <ele>-3</ele>
        <time>2018-09-05T05:57:20.000Z</time>
      </trkpt>
      <trkpt lat="43.4193344973027706146240234375" lon="-3.49133826792240142822265625">
        <ele>-2.7999999523162841796875</ele>
        <time>2018-09-05T05:57:26.000Z</time>
      </trkpt>
      <trkpt lat="43.419239111244678497314453125" lon="-3.4913273714482784271240234375">
        <ele>-3</ele>
        <time>2018-09-05T05:57:28.000Z</time>
      </trkpt>
      <trkpt lat="43.41894616372883319854736328125" lon="-3.49129669368267059326171875">
        <ele>-3</ele>
        <time>2018-09-05T05:57:34.000Z</time>
      </trkpt>
      <trkpt lat="43.41864055953919887542724609375" lon="-3.49127330817282199859619140625">
        <ele>-2</ele>
        <time>2018-09-05T05:57:41.000Z</time>
      </trkpt>
      <trkpt lat="43.418600074946880340576171875" lon="-3.491268865764141082763671875">
        <ele>-1.7999999523162841796875</ele>
        <time>2018-09-05T05:57:42.000Z</time>
      </trkpt>
      <trkpt lat="43.418480046093463897705078125" lon="-3.4912650100886821746826171875">
        <ele>-1.2000000476837158203125</ele>
        <time>2018-09-05T05:57:45.000Z</time>
      </trkpt>
      <trkpt lat="43.418438136577606201171875" lon="-3.49126157350838184356689453125">
        <ele>-0.800000011920928955078125</ele>
        <time>2018-09-05T05:57:46.000Z</time>
      </trkpt>
      <trkpt lat="43.4183142520487308502197265625" lon="-3.49125369451940059661865234375">
        <ele>-0.20000000298023223876953125</ele>
        <time>2018-09-05T05:57:49.000Z</time>
      </trkpt>
      <trkpt lat="43.41827460564672946929931640625" lon="-3.491250090301036834716796875">
        <ele>0</ele>
        <time>2018-09-05T05:57:50.000Z</time>
      </trkpt>
      <trkpt lat="43.41823370195925235748291015625" lon="-3.49124732427299022674560546875">
        <ele>0.20000000298023223876953125</ele>
        <time>2018-09-05T05:57:51.000Z</time>
      </trkpt>
      <trkpt lat="43.41811585240066051483154296875" lon="-3.4912475757300853729248046875">
        <ele>0.800000011920928955078125</ele>
        <time>2018-09-05T05:57:54.000Z</time>
      </trkpt>
      <trkpt lat="43.41803823597729206085205078125" lon="-3.491245396435260772705078125">
        <ele>1.2000000476837158203125</ele>
        <time>2018-09-05T05:57:56.000Z</time>
      </trkpt>
      <trkpt lat="43.41792223043739795684814453125" lon="-3.49126257933676242828369140625">
        <ele>1.7999999523162841796875</ele>
        <time>2018-09-05T05:57:59.000Z</time>
      </trkpt>
      <trkpt lat="43.4178522415459156036376953125" lon="-3.4912987053394317626953125">
        <ele>2.2000000476837158203125</ele>
        <time>2018-09-05T05:58:01.000Z</time>
      </trkpt>
      <trkpt lat="43.4177627228200435638427734375" lon="-3.4913773275911808013916015625">
        <ele>2.599999904632568359375</ele>
        <time>2018-09-05T05:58:04.000Z</time>
      </trkpt>
      <trkpt lat="43.417655937373638153076171875" lon="-3.49162937141954898834228515625">
        <ele>3.2000000476837158203125</ele>
        <time>2018-09-05T05:58:10.000Z</time>
      </trkpt>
      <trkpt lat="43.4176509082317352294921875" lon="-3.49168536253273487091064453125">
        <ele>3</ele>
        <time>2018-09-05T05:58:11.000Z</time>
      </trkpt>
      <trkpt lat="43.41768183745443820953369140625" lon="-3.4918239153921604156494140625">
        <ele>3.2000000476837158203125</ele>
        <time>2018-09-05T05:58:14.000Z</time>
      </trkpt>
      <trkpt lat="43.417694829404354095458984375" lon="-3.49186741746962070465087890625">
        <ele>3.400000095367431640625</ele>
        <time>2018-09-05T05:58:15.000Z</time>
      </trkpt>
      <trkpt lat="43.41778300702571868896484375" lon="-3.49210001528263092041015625">
        <ele>3.599999904632568359375</ele>
        <time>2018-09-05T05:58:20.000Z</time>
      </trkpt>
      <trkpt lat="43.41780253686010837554931640625" lon="-3.4921462833881378173828125">
        <ele>3.599999904632568359375</ele>
        <time>2018-09-05T05:58:21.000Z</time>
      </trkpt>
      <trkpt lat="43.417942263185977935791015625" lon="-3.4925816394388675689697265625">
        <ele>3.400000095367431640625</ele>
        <time>2018-09-05T05:58:29.000Z</time>
      </trkpt>
      <trkpt lat="43.4179783053696155548095703125" lon="-3.492775261402130126953125">
        <ele>3</ele>
        <time>2018-09-05T05:58:32.000Z</time>
      </trkpt>
      <trkpt lat="43.41802306473255157470703125" lon="-3.4931559674441814422607421875">
        <ele>2.2000000476837158203125</ele>
        <time>2018-09-05T05:58:37.000Z</time>
      </trkpt>
      <trkpt lat="43.41802951879799365997314453125" lon="-3.493669442832469940185546875">
        <ele>1.39999997615814208984375</ele>
        <time>2018-09-05T05:58:43.000Z</time>
      </trkpt>
      <trkpt lat="43.4180316142737865447998046875" lon="-3.49375837482511997222900390625">
        <ele>1.2000000476837158203125</ele>
        <time>2018-09-05T05:58:44.000Z</time>
      </trkpt>
      <trkpt lat="43.4180430136620998382568359375" lon="-3.4940870292484760284423828125">
        <ele>1</ele>
        <time>2018-09-05T05:58:48.000Z</time>
      </trkpt>
      <trkpt lat="43.4180510602891445159912109375" lon="-3.49417009390890598297119140625">
        <ele>1</ele>
        <time>2018-09-05T05:58:49.000Z</time>
      </trkpt>
      <trkpt lat="43.41808903031051158905029296875" lon="-3.49453185684978961944580078125">
        <ele>0.4000000059604644775390625</ele>
        <time>2018-09-05T05:58:53.000Z</time>
      </trkpt>
      <trkpt lat="43.418113254010677337646484375" lon="-3.4946251474320888519287109375">
        <ele>0.20000000298023223876953125</ele>
        <time>2018-09-05T05:58:54.000Z</time>
      </trkpt>
      <trkpt lat="43.41816413216292858123779296875" lon="-3.494808040559291839599609375">
        <ele>-0.20000000298023223876953125</ele>
        <time>2018-09-05T05:58:56.000Z</time>
      </trkpt>
      <trkpt lat="43.418315090239048004150390625" lon="-3.49523275159299373626708984375">
        <ele>0.20000000298023223876953125</ele>
        <time>2018-09-05T05:59:01.000Z</time>
      </trkpt>
      <trkpt lat="43.41859839856624603271484375" lon="-3.4959458000957965850830078125">
        <ele>0.20000000298023223876953125</ele>
        <time>2018-09-05T05:59:10.000Z</time>
      </trkpt>
      <trkpt lat="43.41875924728810787200927734375" lon="-3.496344275772571563720703125">
        <ele>0</ele>
        <time>2018-09-05T05:59:15.000Z</time>
      </trkpt>
      <trkpt lat="43.41888329945504665374755859375" lon="-3.4966631233692169189453125">
        <ele>0.20000000298023223876953125</ele>
        <time>2018-09-05T05:59:19.000Z</time>
      </trkpt>
      <trkpt lat="43.4189383685588836669921875" lon="-3.49681307561695575714111328125">
        <ele>0.4000000059604644775390625</ele>
        <time>2018-09-05T05:59:21.000Z</time>
      </trkpt>
      <trkpt lat="43.41905697248876094818115234375" lon="-3.49736762233078479766845703125">
        <ele>0</ele>
        <time>2018-09-05T05:59:28.000Z</time>
      </trkpt>
      <trkpt lat="43.4191353432834148406982421875" lon="-3.49784136749804019927978515625">
        <ele>-0.20000000298023223876953125</ele>
        <time>2018-09-05T05:59:34.000Z</time>
      </trkpt>
      <trkpt lat="43.4192077629268169403076171875" lon="-3.4983609616756439208984375">
        <ele>-0.60000002384185791015625</ele>
        <time>2018-09-05T05:59:40.000Z</time>
      </trkpt>
      <trkpt lat="43.419280014932155609130859375" lon="-3.4988747723400592803955078125">
        <ele>-0.60000002384185791015625</ele>
        <time>2018-09-05T05:59:46.000Z</time>
      </trkpt>
      <trkpt lat="43.41935285367071628570556640625" lon="-3.49947516806423664093017578125">
        <ele>-0.4000000059604644775390625</ele>
        <time>2018-09-05T05:59:53.000Z</time>
      </trkpt>
      <trkpt lat="43.4193623252213001251220703125" lon="-3.4995610825717449188232421875">
        <ele>-0.4000000059604644775390625</ele>
        <time>2018-09-05T05:59:54.000Z</time>
      </trkpt>
      <trkpt lat="43.41944103129208087921142578125" lon="-3.50021529011428356170654296875">
        <ele>-0.800000011920928955078125</ele>
        <time>2018-09-05T06:00:02.000Z</time>
      </trkpt>
      <trkpt lat="43.41949517838656902313232421875" lon="-3.50062499754130840301513671875">
        <ele>-1.2000000476837158203125</ele>
        <time>2018-09-05T06:00:07.000Z</time>
      </trkpt>
      <trkpt lat="43.41954597271978855133056640625" lon="-3.501040823757648468017578125">
        <ele>-0.60000002384185791015625</ele>
        <time>2018-09-05T06:00:12.000Z</time>
      </trkpt>
      <trkpt lat="43.4196399338543415069580078125" lon="-3.50180768407881259918212890625">
        <ele>-0.4000000059604644775390625</ele>
        <time>2018-09-05T06:00:21.000Z</time>
      </trkpt>
      <trkpt lat="43.419660888612270355224609375" lon="-3.5019837878644466400146484375">
        <ele>-0.4000000059604644775390625</ele>
        <time>2018-09-05T06:00:23.000Z</time>
      </trkpt>
      <trkpt lat="43.41975769959390163421630859375" lon="-3.50277998484671115875244140625">
        <ele>-0.800000011920928955078125</ele>
        <time>2018-09-05T06:00:32.000Z</time>
      </trkpt>
      <trkpt lat="43.41980145312845706939697265625" lon="-3.503130264580249786376953125">
        <ele>-1.39999997615814208984375</ele>
        <time>2018-09-05T06:00:36.000Z</time>
      </trkpt>
      <trkpt lat="43.41990438289940357208251953125" lon="-3.50393794476985931396484375">
        <ele>-1.60000002384185791015625</ele>
        <time>2018-09-05T06:00:45.000Z</time>
      </trkpt>
      <trkpt lat="43.4200000204145908355712890625" lon="-3.504719473421573638916015625">
        <ele>-1.2000000476837158203125</ele>
        <time>2018-09-05T06:00:54.000Z</time>
      </trkpt>
      <trkpt lat="43.42006514780223369598388671875" lon="-3.5051940567791461944580078125">
        <ele>-0.20000000298023223876953125</ele>
        <time>2018-09-05T06:01:00.000Z</time>
      </trkpt>
      <trkpt lat="43.42007386498153209686279296875" lon="-3.50527209229767322540283203125">
        <ele>-0.20000000298023223876953125</ele>
        <time>2018-09-05T06:01:01.000Z</time>
      </trkpt>
      <trkpt lat="43.4200892038643360137939453125" lon="-3.5054227150976657867431640625">
        <ele>0.20000000298023223876953125</ele>
        <time>2018-09-05T06:01:03.000Z</time>
      </trkpt>
      <trkpt lat="43.42011728323996067047119140625" lon="-3.50562949664890766143798828125">
        <ele>0.800000011920928955078125</ele>
        <time>2018-09-05T06:01:06.000Z</time>
      </trkpt>
      <trkpt lat="43.42012214474380016326904296875" lon="-3.50569537840783596038818359375">
        <ele>1.2000000476837158203125</ele>
        <time>2018-09-05T06:01:07.000Z</time>
      </trkpt>
      <trkpt lat="43.42015131376683712005615234375" lon="-3.5058924369513988494873046875">
        <ele>2</ele>
        <time>2018-09-05T06:01:10.000Z</time>
      </trkpt>
      <trkpt lat="43.420159108936786651611328125" lon="-3.505958653986454010009765625">
        <ele>2.2000000476837158203125</ele>
        <time>2018-09-05T06:01:11.000Z</time>
      </trkpt>
      <trkpt lat="43.4202045388519763946533203125" lon="-3.50628244690597057342529296875">
        <ele>3.2000000476837158203125</ele>
        <time>2018-09-05T06:01:16.000Z</time>
      </trkpt>
      <trkpt lat="43.42024016194045543670654296875" lon="-3.50652837194502353668212890625">
        <ele>4.400000095367431640625</ele>
        <time>2018-09-05T06:01:20.000Z</time>
      </trkpt>
      <trkpt lat="43.42025826685130596160888671875" lon="-3.50664588622748851776123046875">
        <ele>5</ele>
        <time>2018-09-05T06:01:22.000Z</time>
      </trkpt>
      <trkpt lat="43.42029481194913387298583984375" lon="-3.5068100877106189727783203125">
        <ele>5.599999904632568359375</ele>
        <time>2018-09-05T06:01:25.000Z</time>
      </trkpt>
      <trkpt lat="43.42035868205130100250244140625" lon="-3.50707076489925384521484375">
        <ele>6.599999904632568359375</ele>
        <time>2018-09-05T06:01:30.000Z</time>
      </trkpt>
      <trkpt lat="43.42047871090471744537353515625" lon="-3.507486172020435333251953125">
        <ele>7.599999904632568359375</ele>
        <time>2018-09-05T06:01:38.000Z</time>
      </trkpt>
      <trkpt lat="43.42055364511907100677490234375" lon="-3.50775464437901973724365234375">
        <ele>7.80000019073486328125</ele>
        <time>2018-09-05T06:01:43.000Z</time>
      </trkpt>
      <trkpt lat="43.4205810539424419403076171875" lon="-3.50785723887383937835693359375">
        <ele>7.599999904632568359375</ele>
        <time>2018-09-05T06:01:45.000Z</time>
      </trkpt>
      <trkpt lat="43.42063243500888347625732421875" lon="-3.50802051834762096405029296875">
        <ele>7.400000095367431640625</ele>
        <time>2018-09-05T06:01:48.000Z</time>
      </trkpt>
      <trkpt lat="43.420690186321735382080078125" lon="-3.5082169063389301300048828125">
        <ele>6.80000019073486328125</ele>
        <time>2018-09-05T06:01:51.000Z</time>
      </trkpt>
      <trkpt lat="43.42070921324193477630615234375" lon="-3.5082893259823322296142578125">
        <ele>6.80000019073486328125</ele>
        <time>2018-09-05T06:01:52.000Z</time>
      </trkpt>
      <trkpt lat="43.4208154119551181793212890625" lon="-3.5086755640804767608642578125">
        <ele>5.599999904632568359375</ele>
        <time>2018-09-05T06:01:57.000Z</time>
      </trkpt>
      <trkpt lat="43.42086025513708591461181640625" lon="-3.50882853381335735321044921875">
        <ele>5.400000095367431640625</ele>
        <time>2018-09-05T06:01:59.000Z</time>
      </trkpt>
      <trkpt lat="43.420906104147434234619140625" lon="-3.50898711942136287689208984375">
        <ele>5.19999980926513671875</ele>
        <time>2018-09-05T06:02:01.000Z</time>
      </trkpt>
      <trkpt lat="43.4209488518536090850830078125" lon="-3.50914536975324153900146484375">
        <ele>4.80000019073486328125</ele>
        <time>2018-09-05T06:02:03.000Z</time>
      </trkpt>
      <trkpt lat="43.42099227011203765869140625" lon="-3.50930563174188137054443359375">
        <ele>4.599999904632568359375</ele>
        <time>2018-09-05T06:02:05.000Z</time>
      </trkpt>
      <trkpt lat="43.42101247049868106842041015625" lon="-3.5093853436410427093505859375">
        <ele>4.400000095367431640625</ele>
        <time>2018-09-05T06:02:06.000Z</time>
      </trkpt>
      <trkpt lat="43.42103577218949794769287109375" lon="-3.5094631277024745941162109375">
        <ele>4.19999980926513671875</ele>
        <time>2018-09-05T06:02:07.000Z</time>
      </trkpt>
      <trkpt lat="43.42106024734675884246826171875" lon="-3.509542085230350494384765625">
        <ele>4</ele>
        <time>2018-09-05T06:02:08.000Z</time>
      </trkpt>
      <trkpt lat="43.4211029112339019775390625" lon="-3.5096994973719120025634765625">
        <ele>3.7999999523162841796875</ele>
        <time>2018-09-05T06:02:10.000Z</time>
      </trkpt>
      <trkpt lat="43.42112646438181400299072265625" lon="-3.5097799636423587799072265625">
        <ele>3.599999904632568359375</ele>
        <time>2018-09-05T06:02:11.000Z</time>
      </trkpt>
      <trkpt lat="43.42119452543556690216064453125" lon="-3.51003955118358135223388671875">
        <ele>3</ele>
        <time>2018-09-05T06:02:14.000Z</time>
      </trkpt>
      <trkpt lat="43.4212915040552616119384765625" lon="-3.510389663279056549072265625">
        <ele>2.2000000476837158203125</ele>
        <time>2018-09-05T06:02:18.000Z</time>
      </trkpt>
      <trkpt lat="43.4213699586689472198486328125" lon="-3.51065645925700664520263671875">
        <ele>1.7999999523162841796875</ele>
        <time>2018-09-05T06:02:21.000Z</time>
      </trkpt>
      <trkpt lat="43.42144480906426906585693359375" lon="-3.510938845574855804443359375">
        <ele>1</ele>
        <time>2018-09-05T06:02:24.000Z</time>
      </trkpt>
      <trkpt lat="43.42152209021151065826416015625" lon="-3.511236570775508880615234375">
        <ele>0.800000011920928955078125</ele>
        <time>2018-09-05T06:02:27.000Z</time>
      </trkpt>
      <trkpt lat="43.4215728007256984710693359375" lon="-3.51143564097583293914794921875">
        <ele>0.4000000059604644775390625</ele>
        <time>2018-09-05T06:02:29.000Z</time>
      </trkpt>
      <trkpt lat="43.4215999580919742584228515625" lon="-3.5115344636142253875732421875">
        <ele>0</ele>
        <time>2018-09-05T06:02:30.000Z</time>
      </trkpt>
      <trkpt lat="43.42173331417143344879150390625" lon="-3.51203620433807373046875">
        <ele>-1</ele>
        <time>2018-09-05T06:02:35.000Z</time>
      </trkpt>
      <trkpt lat="43.42181227169930934906005859375" lon="-3.51234289817512035369873046875">
        <ele>-1.39999997615814208984375</ele>
        <time>2018-09-05T06:02:38.000Z</time>
      </trkpt>
      <trkpt lat="43.42188402079045772552490234375" lon="-3.5126502625644207000732421875">
        <ele>-2</ele>
        <time>2018-09-05T06:02:41.000Z</time>
      </trkpt>
      <trkpt lat="43.42190765775740146636962890625" lon="-3.51275176741182804107666015625">
        <ele>-2.2000000476837158203125</ele>
        <time>2018-09-05T06:02:42.000Z</time>
      </trkpt>
      <trkpt lat="43.422021567821502685546875" lon="-3.51325401104986667633056640625">
        <ele>-2.2000000476837158203125</ele>
        <time>2018-09-05T06:02:47.000Z</time>
      </trkpt>
      <trkpt lat="43.42217688448727130889892578125" lon="-3.51399756968021392822265625">
        <ele>-2.2000000476837158203125</ele>
        <time>2018-09-05T06:02:55.000Z</time>
      </trkpt>
      <trkpt lat="43.4222138486802577972412109375" lon="-3.5141831450164318084716796875">
        <ele>-2.2000000476837158203125</ele>
        <time>2018-09-05T06:02:57.000Z</time>
      </trkpt>
      <trkpt lat="43.4222691692411899566650390625" lon="-3.51446804590523242950439453125">
        <ele>-2.2000000476837158203125</ele>
        <time>2018-09-05T06:03:00.000Z</time>
      </trkpt>
      <trkpt lat="43.42233873903751373291015625" lon="-3.51483768783509731292724609375">
        <ele>-2.7999999523162841796875</ele>
        <time>2018-09-05T06:03:04.000Z</time>
      </trkpt>
      <trkpt lat="43.4223922155797481536865234375" lon="-3.515111692249774932861328125">
        <ele>-2.599999904632568359375</ele>
        <time>2018-09-05T06:03:07.000Z</time>
      </trkpt>
      <trkpt lat="43.422539569437503814697265625" lon="-3.51590872742235660552978515625">
        <ele>-2.7999999523162841796875</ele>
        <time>2018-09-05T06:03:16.000Z</time>
      </trkpt>
      <trkpt lat="43.42255440540611743927001953125" lon="-3.5159939713776111602783203125">
        <ele>-3</ele>
        <time>2018-09-05T06:03:17.000Z</time>
      </trkpt>
      <trkpt lat="43.42267611064016819000244140625" lon="-3.5166159085929393768310546875">
        <ele>-2.400000095367431640625</ele>
        <time>2018-09-05T06:03:25.000Z</time>
      </trkpt>
      <trkpt lat="43.422701172530651092529296875" lon="-3.5167496837675571441650390625">
        <ele>-2.400000095367431640625</ele>
        <time>2018-09-05T06:03:27.000Z</time>
      </trkpt>
      <trkpt lat="43.42277166433632373809814453125" lon="-3.51709644310176372528076171875">
        <ele>-2.2000000476837158203125</ele>
        <time>2018-09-05T06:03:32.000Z</time>
      </trkpt>
      <trkpt lat="43.422797732055187225341796875" lon="-3.51716366596519947052001953125">
        <ele>-2.400000095367431640625</ele>
        <time>2018-09-05T06:03:33.000Z</time>
      </trkpt>
      <trkpt lat="43.4228488616645336151123046875" lon="-3.5173823498189449310302734375">
        <ele>-2.400000095367431640625</ele>
        <time>2018-09-05T06:03:36.000Z</time>
      </trkpt>
      <trkpt lat="43.42288230545818805694580078125" lon="-3.51751956157386302947998046875">
        <ele>-2.599999904632568359375</ele>
        <time>2018-09-05T06:03:38.000Z</time>
      </trkpt>
      <trkpt lat="43.4228934533894062042236328125" lon="-3.5175975970923900604248046875">
        <ele>-2.599999904632568359375</ele>
        <time>2018-09-05T06:03:39.000Z</time>
      </trkpt>
      <trkpt lat="43.4229804575443267822265625" lon="-3.517971932888031005859375">
        <ele>-2.599999904632568359375</ele>
        <time>2018-09-05T06:03:44.000Z</time>
      </trkpt>
      <trkpt lat="43.42304692603647708892822265625" lon="-3.5182862542569637298583984375">
        <ele>-2.400000095367431640625</ele>
        <time>2018-09-05T06:03:48.000Z</time>
      </trkpt>
      <trkpt lat="43.4231811203062534332275390625" lon="-3.519008941948413848876953125">
        <ele>-2.7999999523162841796875</ele>
        <time>2018-09-05T06:03:57.000Z</time>
      </trkpt>
      <trkpt lat="43.42321003787219524383544921875" lon="-3.519168533384799957275390625">
        <ele>-2.599999904632568359375</ele>
        <time>2018-09-05T06:03:59.000Z</time>
      </trkpt>
      <trkpt lat="43.42336476780474185943603515625" lon="-3.51995383389294147491455078125">
        <ele>-2.400000095367431640625</ele>
        <time>2018-09-05T06:04:09.000Z</time>
      </trkpt>
      <trkpt lat="43.42341153882443904876708984375" lon="-3.5201842524111270904541015625">
        <ele>-2.599999904632568359375</ele>
        <time>2018-09-05T06:04:12.000Z</time>
      </trkpt>
      <trkpt lat="43.42350189574062824249267578125" lon="-3.52065070532262325286865234375">
        <ele>-2.400000095367431640625</ele>
        <time>2018-09-05T06:04:18.000Z</time>
      </trkpt>
      <trkpt lat="43.42365930788218975067138671875" lon="-3.521368615329265594482421875">
        <ele>-3</ele>
        <time>2018-09-05T06:04:27.000Z</time>
      </trkpt>
      <trkpt lat="43.42367825098335742950439453125" lon="-3.52144815959036350250244140625">
        <ele>-3.2000000476837158203125</ele>
        <time>2018-09-05T06:04:28.000Z</time>
      </trkpt>
      <trkpt lat="43.4237195737659931182861328125" lon="-3.5216011293232440948486328125">
        <ele>-3</ele>
        <time>2018-09-05T06:04:30.000Z</time>
      </trkpt>
      <trkpt lat="43.42381722293794155120849609375" lon="-3.52198007516562938690185546875">
        <ele>-2.599999904632568359375</ele>
        <time>2018-09-05T06:04:35.000Z</time>
      </trkpt>
      <trkpt lat="43.42388830147683620452880859375" lon="-3.522181324660778045654296875">
        <ele>-2.7999999523162841796875</ele>
        <time>2018-09-05T06:04:38.000Z</time>
      </trkpt>
      <trkpt lat="43.4239675104618072509765625" lon="-3.5222653113305568695068359375">
        <ele>-2.599999904632568359375</ele>
        <time>2018-09-05T06:04:40.000Z</time>
      </trkpt>
      <trkpt lat="43.4240920655429363250732421875" lon="-3.52231509983539581298828125">
        <ele>-2.2000000476837158203125</ele>
        <time>2018-09-05T06:04:43.000Z</time>
      </trkpt>
      <trkpt lat="43.4241960011422634124755859375" lon="-3.52231954224407672882080078125">
        <ele>-2.400000095367431640625</ele>
        <time>2018-09-05T06:04:45.000Z</time>
      </trkpt>
      <trkpt lat="43.42425174079835414886474609375" lon="-3.5223179496824741363525390625">
        <ele>-2.599999904632568359375</ele>
        <time>2018-09-05T06:04:46.000Z</time>
      </trkpt>
      <trkpt lat="43.42430957593023777008056640625" lon="-3.52231333963572978973388671875">
        <ele>-2.599999904632568359375</ele>
        <time>2018-09-05T06:04:47.000Z</time>
      </trkpt>
      <trkpt lat="43.42452851124107837677001953125" lon="-3.52229305543005466461181640625">
        <ele>-2.2000000476837158203125</ele>
        <time>2018-09-05T06:04:51.000Z</time>
      </trkpt>
      <trkpt lat="43.42463982291519641876220703125" lon="-3.5222941450774669647216796875">
        <ele>-2</ele>
        <time>2018-09-05T06:04:53.000Z</time>
      </trkpt>
      <trkpt lat="43.4246888570487499237060546875" lon="-3.522293977439403533935546875">
        <ele>-2</ele>
        <time>2018-09-05T06:04:54.000Z</time>
      </trkpt>
      <trkpt lat="43.4249030984938144683837890625" lon="-3.522281907498836517333984375">
        <ele>-1.60000002384185791015625</ele>
        <time>2018-09-05T06:04:58.000Z</time>
      </trkpt>
      <trkpt lat="43.42511004768311977386474609375" lon="-3.522276543080806732177734375">
        <ele>-1.60000002384185791015625</ele>
        <time>2018-09-05T06:05:02.000Z</time>
      </trkpt>
      <trkpt lat="43.42567146755754947662353515625" lon="-3.5222659818828105926513671875">
        <ele>-1.7999999523162841796875</ele>
        <time>2018-09-05T06:05:12.000Z</time>
      </trkpt>
      <trkpt lat="43.4257295541465282440185546875" lon="-3.52226279675960540771484375">
        <ele>-2</ele>
        <time>2018-09-05T06:05:13.000Z</time>
      </trkpt>
      <trkpt lat="43.4261680953204631805419921875" lon="-3.52223622612655162811279296875">
        <ele>-3.2000000476837158203125</ele>
        <time>2018-09-05T06:05:20.000Z</time>
      </trkpt>
      <trkpt lat="43.4262955002486705780029296875" lon="-3.5222177021205425262451171875">
        <ele>-3.400000095367431640625</ele>
        <time>2018-09-05T06:05:22.000Z</time>
      </trkpt>
      <trkpt lat="43.42687762342393398284912109375" lon="-3.522117622196674346923828125">
        <ele>-4</ele>
        <time>2018-09-05T06:05:31.000Z</time>
      </trkpt>
      <trkpt lat="43.427207283675670623779296875" lon="-3.5220356471836566925048828125">
        <ele>-4.19999980926513671875</ele>
        <time>2018-09-05T06:05:36.000Z</time>
      </trkpt>
      <trkpt lat="43.42753057368099689483642578125" lon="-3.5219471342861652374267578125">
        <ele>-4.400000095367431640625</ele>
        <time>2018-09-05T06:05:41.000Z</time>
      </trkpt>
      <trkpt lat="43.4281023032963275909423828125" lon="-3.52175183594226837158203125">
        <ele>-4.80000019073486328125</ele>
        <time>2018-09-05T06:05:50.000Z</time>
      </trkpt>
      <trkpt lat="43.42852986417710781097412109375" lon="-3.5215280391275882720947265625">
        <ele>-5.400000095367431640625</ele>
        <time>2018-09-05T06:05:57.000Z</time>
      </trkpt>
      <trkpt lat="43.42858317308127880096435546875" lon="-3.5214837826788425445556640625">
        <ele>-5.400000095367431640625</ele>
        <time>2018-09-05T06:05:58.000Z</time>
      </trkpt>
      <trkpt lat="43.428825326263904571533203125" lon="-3.5212053358554840087890625">
        <ele>-5</ele>
        <time>2018-09-05T06:06:03.000Z</time>
      </trkpt>
      <trkpt lat="43.42894225381314754486083984375" lon="-3.52100626565515995025634765625">
        <ele>-5.19999980926513671875</ele>
        <time>2018-09-05T06:06:06.000Z</time>
      </trkpt>
      <trkpt lat="43.42903462238609790802001953125" lon="-3.52079520933330059051513671875">
        <ele>-5</ele>
        <time>2018-09-05T06:06:09.000Z</time>
      </trkpt>
      <trkpt lat="43.429133109748363494873046875" lon="-3.52060158737003803253173828125">
        <ele>-4.599999904632568359375</ele>
        <time>2018-09-05T06:06:12.000Z</time>
      </trkpt>
      <trkpt lat="43.4292244724929332733154296875" lon="-3.520491532981395721435546875">
        <ele>-4.400000095367431640625</ele>
        <time>2018-09-05T06:06:14.000Z</time>
      </trkpt>
      <trkpt lat="43.42929010279476642608642578125" lon="-3.520264215767383575439453125">
        <ele>-4.19999980926513671875</ele>
        <time>2018-09-05T06:06:17.000Z</time>
      </trkpt>
      <trkpt lat="43.42930703423917293548583984375" lon="-3.52018953301012516021728515625">
        <ele>-4.19999980926513671875</ele>
        <time>2018-09-05T06:06:18.000Z</time>
      </trkpt>
      <trkpt lat="43.429386578500270843505859375" lon="-3.5198912210762500762939453125">
        <ele>-4</ele>
        <time>2018-09-05T06:06:22.000Z</time>
      </trkpt>
      <trkpt lat="43.429456986486911773681640625" lon="-3.51959575898945331573486328125">
        <ele>-4</ele>
        <time>2018-09-05T06:06:26.000Z</time>
      </trkpt>
      <trkpt lat="43.4296402148902416229248046875" lon="-3.51886334829032421112060546875">
        <ele>-3.599999904632568359375</ele>
        <time>2018-09-05T06:06:36.000Z</time>
      </trkpt>
      <trkpt lat="43.4298028238117694854736328125" lon="-3.5182334482669830322265625">
        <ele>-3.400000095367431640625</ele>
        <time>2018-09-05T06:06:45.000Z</time>
      </trkpt>
      <trkpt lat="43.429859988391399383544921875" lon="-3.51803136058151721954345703125">
        <ele>-3.2000000476837158203125</ele>
        <time>2018-09-05T06:06:48.000Z</time>
      </trkpt>
      <trkpt lat="43.42996568419039249420166015625" lon="-3.51769767701625823974609375">
        <ele>-3.2000000476837158203125</ele>
        <time>2018-09-05T06:06:53.000Z</time>
      </trkpt>
      <trkpt lat="43.430210016667842864990234375" lon="-3.51721546612679958343505859375">
        <ele>-3.400000095367431640625</ele>
        <time>2018-09-05T06:07:01.000Z</time>
      </trkpt>
      <trkpt lat="43.430506400763988494873046875" lon="-3.51687901653349399566650390625">
        <ele>-3.2000000476837158203125</ele>
        <time>2018-09-05T06:07:08.000Z</time>
      </trkpt>
      <trkpt lat="43.43085936270654201507568359375" lon="-3.51665572263300418853759765625">
        <ele>-3.2000000476837158203125</ele>
        <time>2018-09-05T06:07:15.000Z</time>
      </trkpt>
      <trkpt lat="43.4312813915312290191650390625" lon="-3.51652496494352817535400390625">
        <ele>-3</ele>
        <time>2018-09-05T06:07:23.000Z</time>
      </trkpt>
      <trkpt lat="43.4318245388567447662353515625" lon="-3.516401834785938262939453125">
        <ele>-2.7999999523162841796875</ele>
        <time>2018-09-05T06:07:33.000Z</time>
      </trkpt>
      <trkpt lat="43.4320870600640773773193359375" lon="-3.51633469574153423309326171875">
        <ele>-3</ele>
        <time>2018-09-05T06:07:38.000Z</time>
      </trkpt>
      <trkpt lat="43.432227037847042083740234375" lon="-3.516290523111820220947265625">
        <ele>-3</ele>
        <time>2018-09-05T06:07:41.000Z</time>
      </trkpt>
      <trkpt lat="43.43235653825104236602783203125" lon="-3.5162432491779327392578125">
        <ele>-3</ele>
        <time>2018-09-05T06:07:44.000Z</time>
      </trkpt>
      <trkpt lat="43.43243951909244060516357421875" lon="-3.5162150859832763671875">
        <ele>-3</ele>
        <time>2018-09-05T06:07:46.000Z</time>
      </trkpt>
      <trkpt lat="43.43251864425837993621826171875" lon="-3.51619899272918701171875">
        <ele>-3</ele>
        <time>2018-09-05T06:07:48.000Z</time>
      </trkpt>
      <trkpt lat="43.4325628168880939483642578125" lon="-3.5161976516246795654296875">
        <ele>-3</ele>
        <time>2018-09-05T06:07:49.000Z</time>
      </trkpt>
      <trkpt lat="43.43270069919526576995849609375" lon="-3.51624065078794956207275390625">
        <ele>-3</ele>
        <time>2018-09-05T06:07:52.000Z</time>
      </trkpt>
      <trkpt lat="43.4328722767531871795654296875" lon="-3.51627836935222148895263671875">
        <ele>-3</ele>
        <time>2018-09-05T06:07:56.000Z</time>
      </trkpt>
      <trkpt lat="43.43291427008807659149169921875" lon="-3.51628675125539302825927734375">
        <ele>-2.7999999523162841796875</ele>
        <time>2018-09-05T06:07:57.000Z</time>
      </trkpt>
      <trkpt lat="43.4329892881214618682861328125" lon="-3.51632111705839633941650390625">
        <ele>-2.7999999523162841796875</ele>
        <time>2018-09-05T06:07:59.000Z</time>
      </trkpt>
      <trkpt lat="43.43302734196186065673828125" lon="-3.516305275261402130126953125">
        <ele>-2.7999999523162841796875</ele>
        <time>2018-09-05T06:08:00.000Z</time>
      </trkpt>
      <trkpt lat="43.43306128866970539093017578125" lon="-3.516228497028350830078125">
        <ele>-2.400000095367431640625</ele>
        <time>2018-09-05T06:08:02.000Z</time>
      </trkpt>
      <trkpt lat="43.43303496949374675750732421875" lon="-3.51610503159463405609130859375">
        <ele>-2.599999904632568359375</ele>
        <time>2018-09-05T06:08:05.000Z</time>
      </trkpt>
      <trkpt lat="43.43303245492279529571533203125" lon="-3.5159413330256938934326171875">
        <ele>-3</ele>
        <time>2018-09-05T06:08:08.000Z</time>
      </trkpt>
      <trkpt lat="43.433046452701091766357421875" lon="-3.515888191759586334228515625">
        <ele>-3</ele>
        <time>2018-09-05T06:08:09.000Z</time>
      </trkpt>
      <trkpt lat="43.43314812518656253814697265625" lon="-3.51578584872186183929443359375">
        <ele>-3.400000095367431640625</ele>
        <time>2018-09-05T06:08:12.000Z</time>
      </trkpt>
      <trkpt lat="43.433260023593902587890625" lon="-3.5157012753188610076904296875">
        <ele>-3.400000095367431640625</ele>
        <time>2018-09-05T06:08:15.000Z</time>
      </trkpt>
      <trkpt lat="43.4334596805274486541748046875" lon="-3.5155564360320568084716796875">
        <ele>-4</ele>
        <time>2018-09-05T06:08:20.000Z</time>
      </trkpt>
      <trkpt lat="43.4334942139685153961181640625" lon="-3.5155245848000049591064453125">
        <ele>-4.400000095367431640625</ele>
        <time>2018-09-05T06:08:21.000Z</time>
      </trkpt>
      <trkpt lat="43.4336212836205959320068359375" lon="-3.51543255150318145751953125">
        <ele>-4.19999980926513671875</ele>
        <time>2018-09-05T06:08:25.000Z</time>
      </trkpt>
      <trkpt lat="43.4337905980646610260009765625" lon="-3.51528310216963291168212890625">
        <ele>-4.19999980926513671875</ele>
        <time>2018-09-05T06:08:31.000Z</time>
      </trkpt>
      <trkpt lat="43.4340511076152324676513671875" lon="-3.51506433449685573577880859375">
        <ele>-4.400000095367431640625</ele>
        <time>2018-09-05T06:08:38.000Z</time>
      </trkpt>
      <trkpt lat="43.434205166995525360107421875" lon="-3.5149505920708179473876953125">
        <ele>-4.80000019073486328125</ele>
        <time>2018-09-05T06:08:41.000Z</time>
      </trkpt>
      <trkpt lat="43.43425688333809375762939453125" lon="-3.5149101912975311279296875">
        <ele>-4.80000019073486328125</ele>
        <time>2018-09-05T06:08:42.000Z</time>
      </trkpt>
      <trkpt lat="43.4343498386442661285400390625" lon="-3.5148275457322597503662109375">
        <ele>-4.400000095367431640625</ele>
        <time>2018-09-05T06:08:44.000Z</time>
      </trkpt>
      <trkpt lat="43.434484787285327911376953125" lon="-3.51471799425780773162841796875">
        <ele>-4.400000095367431640625</ele>
        <time>2018-09-05T06:08:47.000Z</time>
      </trkpt>
      <trkpt lat="43.43460045754909515380859375" lon="-3.51460550911724567413330078125">
        <ele>-4.400000095367431640625</ele>
        <time>2018-09-05T06:08:50.000Z</time>
      </trkpt>
      <trkpt lat="43.43467824161052703857421875" lon="-3.5145278088748455047607421875">
        <ele>-4.400000095367431640625</ele>
        <time>2018-09-05T06:08:52.000Z</time>
      </trkpt>
      <trkpt lat="43.43488887883722782135009765625" lon="-3.51434181444346904754638671875">
        <ele>-4.599999904632568359375</ele>
        <time>2018-09-05T06:08:57.000Z</time>
      </trkpt>
      <trkpt lat="43.43496314249932765960693359375" lon="-3.51426319219172000885009765625">
        <ele>-4.400000095367431640625</ele>
        <time>2018-09-05T06:08:59.000Z</time>
      </trkpt>
      <trkpt lat="43.4350378252565860748291015625" lon="-3.51419496349990367889404296875">
        <ele>-4.400000095367431640625</ele>
        <time>2018-09-05T06:09:01.000Z</time>
      </trkpt>
      <trkpt lat="43.43514217995107173919677734375" lon="-3.51409538649022579193115234375">
        <ele>-4.19999980926513671875</ele>
        <time>2018-09-05T06:09:04.000Z</time>
      </trkpt>
      <trkpt lat="43.43536647967994213104248046875" lon="-3.51382733322679996490478515625">
        <ele>-4.599999904632568359375</ele>
        <time>2018-09-05T06:09:11.000Z</time>
      </trkpt>
      <trkpt lat="43.43539665453135967254638671875" lon="-3.51378324441611766815185546875">
        <ele>-4.400000095367431640625</ele>
        <time>2018-09-05T06:09:12.000Z</time>
      </trkpt>
      <trkpt lat="43.4354689903557300567626953125" lon="-3.51371166296303272247314453125">
        <ele>-4.400000095367431640625</ele>
        <time>2018-09-05T06:09:14.000Z</time>
      </trkpt>
      <trkpt lat="43.43552355654537677764892578125" lon="-3.51360068656504154205322265625">
        <ele>-4.599999904632568359375</ele>
        <time>2018-09-05T06:09:16.000Z</time>
      </trkpt>
      <trkpt lat="43.43557669781148433685302734375" lon="-3.51348753087222576141357421875">
        <ele>-4.599999904632568359375</ele>
        <time>2018-09-05T06:09:18.000Z</time>
      </trkpt>
      <trkpt lat="43.4357006661593914031982421875" lon="-3.5132929868996143341064453125">
        <ele>-4.400000095367431640625</ele>
        <time>2018-09-05T06:09:22.000Z</time>
      </trkpt>
      <trkpt lat="43.4358186833560466766357421875" lon="-3.51310129277408123016357421875">
        <ele>-4</ele>
        <time>2018-09-05T06:09:26.000Z</time>
      </trkpt>
      <trkpt lat="43.43592949211597442626953125" lon="-3.512904904782772064208984375">
        <ele>-4.19999980926513671875</ele>
        <time>2018-09-05T06:09:30.000Z</time>
      </trkpt>
      <trkpt lat="43.4361501038074493408203125" lon="-3.51240023039281368255615234375">
        <ele>-4.400000095367431640625</ele>
        <time>2018-09-05T06:09:39.000Z</time>
      </trkpt>
      <trkpt lat="43.43622344546020030975341796875" lon="-3.51222823373973369598388671875">
        <ele>-4.599999904632568359375</ele>
        <time>2018-09-05T06:09:42.000Z</time>
      </trkpt>
      <trkpt lat="43.436323441565036773681640625" lon="-3.51210636086761951446533203125">
        <ele>-4.80000019073486328125</ele>
        <time>2018-09-05T06:09:45.000Z</time>
      </trkpt>
      <trkpt lat="43.43642679043114185333251953125" lon="-3.51191818714141845703125">
        <ele>-4.19999980926513671875</ele>
        <time>2018-09-05T06:09:49.000Z</time>
      </trkpt>
      <trkpt lat="43.4365066699683666229248046875" lon="-3.51173269562423229217529296875">
        <ele>-4</ele>
        <time>2018-09-05T06:09:52.000Z</time>
      </trkpt>
      <trkpt lat="43.4365616552531719207763671875" lon="-3.51160512305796146392822265625">
        <ele>-4</ele>
        <time>2018-09-05T06:09:54.000Z</time>
      </trkpt>
      <trkpt lat="43.43659040518105030059814453125" lon="-3.511539995670318603515625">
        <ele>-4</ele>
        <time>2018-09-05T06:09:55.000Z</time>
      </trkpt>
      <trkpt lat="43.436647988855838775634765625" lon="-3.51141569204628467559814453125">
        <ele>-4.19999980926513671875</ele>
        <time>2018-09-05T06:09:57.000Z</time>
      </trkpt>
      <trkpt lat="43.43678771518170833587646484375" lon="-3.5111814178526401519775390625">
        <ele>-4.400000095367431640625</ele>
        <time>2018-09-05T06:10:01.000Z</time>
      </trkpt>
      <trkpt lat="43.436930961906909942626953125" lon="-3.51097262464463710784912109375">
        <ele>-4.400000095367431640625</ele>
        <time>2018-09-05T06:10:05.000Z</time>
      </trkpt>
      <trkpt lat="43.43708015978336334228515625" lon="-3.51078604348003864288330078125">
        <ele>-4</ele>
        <time>2018-09-05T06:10:09.000Z</time>
      </trkpt>
      <trkpt lat="43.4374960698187351226806640625" lon="-3.51030341349542140960693359375">
        <ele>-3.7999999523162841796875</ele>
        <time>2018-09-05T06:10:20.000Z</time>
      </trkpt>
      <trkpt lat="43.4377176873385906219482421875" lon="-3.5100448317825794219970703125">
        <ele>-3.7999999523162841796875</ele>
        <time>2018-09-05T06:10:26.000Z</time>
      </trkpt>
      <trkpt lat="43.4377934597432613372802734375" lon="-3.50996646098792552947998046875">
        <ele>-3.599999904632568359375</ele>
        <time>2018-09-05T06:10:28.000Z</time>
      </trkpt>
      <trkpt lat="43.43798163346946239471435546875" lon="-3.50974836386740207672119140625">
        <ele>-3.400000095367431640625</ele>
        <time>2018-09-05T06:10:33.000Z</time>
      </trkpt>
      <trkpt lat="43.438169471919536590576171875" lon="-3.509532697498798370361328125">
        <ele>-3.2000000476837158203125</ele>
        <time>2018-09-05T06:10:38.000Z</time>
      </trkpt>
      <trkpt lat="43.43828991986811161041259765625" lon="-3.5094031132757663726806640625">
        <ele>-3.2000000476837158203125</ele>
        <time>2018-09-05T06:10:41.000Z</time>
      </trkpt>
      <trkpt lat="43.43859535641968250274658203125" lon="-3.5090537555515766143798828125">
        <ele>-3</ele>
        <time>2018-09-05T06:10:49.000Z</time>
      </trkpt>
      <trkpt lat="43.4389384277164936065673828125" lon="-3.50865662097930908203125">
        <ele>-2.7999999523162841796875</ele>
        <time>2018-09-05T06:10:58.000Z</time>
      </trkpt>
      <trkpt lat="43.4392909705638885498046875" lon="-3.50825085304677486419677734375">
        <ele>-2.7999999523162841796875</ele>
        <time>2018-09-05T06:11:07.000Z</time>
      </trkpt>
      <trkpt lat="43.4396009333431720733642578125" lon="-3.50789713673293590545654296875">
        <ele>-2.400000095367431640625</ele>
        <time>2018-09-05T06:11:15.000Z</time>
      </trkpt>
      <trkpt lat="43.43963764607906341552734375" lon="-3.5078527964651584625244140625">
        <ele>-2.400000095367431640625</ele>
        <time>2018-09-05T06:11:16.000Z</time>
      </trkpt>
      <trkpt lat="43.4400250576436519622802734375" lon="-3.507407046854496002197265625">
        <ele>-2</ele>
        <time>2018-09-05T06:11:26.000Z</time>
      </trkpt>
      <trkpt lat="43.44031817279756069183349609375" lon="-3.50706313736736774444580078125">
        <ele>-1.7999999523162841796875</ele>
        <time>2018-09-05T06:11:34.000Z</time>
      </trkpt>
      <trkpt lat="43.4404659457504749298095703125" lon="-3.50689549930393695831298828125">
        <ele>-1.2000000476837158203125</ele>
        <time>2018-09-05T06:11:38.000Z</time>
      </trkpt>
      <trkpt lat="43.4406818635761737823486328125" lon="-3.5066463053226470947265625">
        <ele>-0.60000002384185791015625</ele>
        <time>2018-09-05T06:11:44.000Z</time>
      </trkpt>
      <trkpt lat="43.4407928399741649627685546875" lon="-3.50652283988893032073974609375">
        <ele>-0.20000000298023223876953125</ele>
        <time>2018-09-05T06:11:47.000Z</time>
      </trkpt>
      <trkpt lat="43.4409041516482830047607421875" lon="-3.5063976980745792388916015625">
        <ele>0.20000000298023223876953125</ele>
        <time>2018-09-05T06:11:50.000Z</time>
      </trkpt>
      <trkpt lat="43.44097665511071681976318359375" lon="-3.50631169974803924560546875">
        <ele>0.4000000059604644775390625</ele>
        <time>2018-09-05T06:11:52.000Z</time>
      </trkpt>
      <trkpt lat="43.4412323869764804840087890625" lon="-3.50601908750832080841064453125">
        <ele>0.800000011920928955078125</ele>
        <time>2018-09-05T06:11:59.000Z</time>
      </trkpt>
      <trkpt lat="43.4413457103073596954345703125" lon="-3.505892269313335418701171875">
        <ele>1.2000000476837158203125</ele>
        <time>2018-09-05T06:12:02.000Z</time>
      </trkpt>
      <trkpt lat="43.44160529784858226776123046875" lon="-3.5056024231016635894775390625">
        <ele>2.2000000476837158203125</ele>
        <time>2018-09-05T06:12:09.000Z</time>
      </trkpt>
      <trkpt lat="43.4416779689490795135498046875" lon="-3.5055212862789630889892578125">
        <ele>2.2000000476837158203125</ele>
        <time>2018-09-05T06:12:11.000Z</time>
      </trkpt>
      <trkpt lat="43.4420011751353740692138671875" lon="-3.505140580236911773681640625">
        <ele>2.400000095367431640625</ele>
        <time>2018-09-05T06:12:20.000Z</time>
      </trkpt>
      <trkpt lat="43.44238079153001308441162109375" lon="-3.5046955011785030364990234375">
        <ele>2.400000095367431640625</ele>
        <time>2018-09-05T06:12:30.000Z</time>
      </trkpt>
      <trkpt lat="43.44257139600813388824462890625" lon="-3.5044899769127368927001953125">
        <ele>3</ele>
        <time>2018-09-05T06:12:35.000Z</time>
      </trkpt>
      <trkpt lat="43.44272713176906108856201171875" lon="-3.50431487895548343658447265625">
        <ele>3</ele>
        <time>2018-09-05T06:12:39.000Z</time>
      </trkpt>
      <trkpt lat="43.442764766514301300048828125" lon="-3.5042710416018962860107421875">
        <ele>3.2000000476837158203125</ele>
        <time>2018-09-05T06:12:40.000Z</time>
      </trkpt>
      <trkpt lat="43.44287934713065624237060546875" lon="-3.50414137355983257293701171875">
        <ele>3.2000000476837158203125</ele>
        <time>2018-09-05T06:12:43.000Z</time>
      </trkpt>
      <trkpt lat="43.4431062452495098114013671875" lon="-3.5038750804960727691650390625">
        <ele>3.2000000476837158203125</ele>
        <time>2018-09-05T06:12:49.000Z</time>
      </trkpt>
      <trkpt lat="43.4434162080287933349609375" lon="-3.503515161573886871337890625">
        <ele>3.599999904632568359375</ele>
        <time>2018-09-05T06:12:57.000Z</time>
      </trkpt>
      <trkpt lat="43.443727008998394012451171875" lon="-3.50316538475453853607177734375">
        <ele>3.7999999523162841796875</ele>
        <time>2018-09-05T06:13:05.000Z</time>
      </trkpt>
      <trkpt lat="43.44380353577435016632080078125" lon="-3.5030787996947765350341796875">
        <ele>4.19999980926513671875</ele>
        <time>2018-09-05T06:13:07.000Z</time>
      </trkpt>
      <trkpt lat="43.44407075084745883941650390625" lon="-3.50277663208544254302978515625">
        <ele>4.599999904632568359375</ele>
        <time>2018-09-05T06:13:14.000Z</time>
      </trkpt>
      <trkpt lat="43.444294966757297515869140625" lon="-3.50252282805740833282470703125">
        <ele>5.19999980926513671875</ele>
        <time>2018-09-05T06:13:20.000Z</time>
      </trkpt>
      <trkpt lat="43.44443737529218196868896484375" lon="-3.5023586265742778778076171875">
        <ele>5.599999904632568359375</ele>
        <time>2018-09-05T06:13:24.000Z</time>
      </trkpt>
      <trkpt lat="43.4446431510150432586669921875" lon="-3.50212234072387218475341796875">
        <ele>6.400000095367431640625</ele>
        <time>2018-09-05T06:13:30.000Z</time>
      </trkpt>
      <trkpt lat="43.44473996199667453765869140625" lon="-3.50201471708714962005615234375">
        <ele>6.80000019073486328125</ele>
        <time>2018-09-05T06:13:33.000Z</time>
      </trkpt>
      <trkpt lat="43.44489754177629947662353515625" lon="-3.50183375179767608642578125">
        <ele>7.19999980926513671875</ele>
        <time>2018-09-05T06:13:38.000Z</time>
      </trkpt>
      <trkpt lat="43.444959819316864013671875" lon="-3.5017593204975128173828125">
        <ele>7.400000095367431640625</ele>
        <time>2018-09-05T06:13:40.000Z</time>
      </trkpt>
      <trkpt lat="43.4451113641262054443359375" lon="-3.50158028304576873779296875">
        <ele>7.80000019073486328125</ele>
        <time>2018-09-05T06:13:45.000Z</time>
      </trkpt>
      <trkpt lat="43.4452687762677669525146484375" lon="-3.5013930313289165496826171875">
        <ele>8.6000003814697265625</ele>
        <time>2018-09-05T06:13:50.000Z</time>
      </trkpt>
      <trkpt lat="43.44536592252552509307861328125" lon="-3.50127744488418102264404296875">
        <ele>9.19999980926513671875</ele>
        <time>2018-09-05T06:13:53.000Z</time>
      </trkpt>
      <trkpt lat="43.445467092096805572509765625" lon="-3.501166217029094696044921875">
        <ele>9.80000019073486328125</ele>
        <time>2018-09-05T06:13:56.000Z</time>
      </trkpt>
      <trkpt lat="43.44559960998594760894775390625" lon="-3.5010212101042270660400390625">
        <ele>10.3999996185302734375</ele>
        <time>2018-09-05T06:14:00.000Z</time>
      </trkpt>
      <trkpt lat="43.4456654079258441925048828125" lon="-3.5009454376995563507080078125">
        <ele>10.80000019073486328125</ele>
        <time>2018-09-05T06:14:02.000Z</time>
      </trkpt>
      <trkpt lat="43.44569801352918148040771484375" lon="-3.50090503692626953125">
        <ele>11</ele>
        <time>2018-09-05T06:14:03.000Z</time>
      </trkpt>
      <trkpt lat="43.4458645619451999664306640625" lon="-3.50071736611425876617431640625">
        <ele>11.80000019073486328125</ele>
        <time>2018-09-05T06:14:08.000Z</time>
      </trkpt>
      <trkpt lat="43.4459001012146472930908203125" lon="-3.50068040192127227783203125">
        <ele>12</ele>
        <time>2018-09-05T06:14:09.000Z</time>
      </trkpt>
      <trkpt lat="43.44599984586238861083984375" lon="-3.50056045688688755035400390625">
        <ele>12.80000019073486328125</ele>
        <time>2018-09-05T06:14:12.000Z</time>
      </trkpt>
      <trkpt lat="43.44606715254485607147216796875" lon="-3.50048099644482135772705078125">
        <ele>13</ele>
        <time>2018-09-05T06:14:14.000Z</time>
      </trkpt>
      <trkpt lat="43.44609883613884449005126953125" lon="-3.5004421882331371307373046875">
        <ele>13.19999980926513671875</ele>
        <time>2018-09-05T06:14:15.000Z</time>
      </trkpt>
      <trkpt lat="43.44627167098224163055419921875" lon="-3.50025334395468235015869140625">
        <ele>13.6000003814697265625</ele>
        <time>2018-09-05T06:14:20.000Z</time>
      </trkpt>
      <trkpt lat="43.44640578143298625946044921875" lon="-3.50009165704250335693359375">
        <ele>13.80000019073486328125</ele>
        <time>2018-09-05T06:14:24.000Z</time>
      </trkpt>
      <trkpt lat="43.4466992318630218505859375" lon="-3.4997637569904327392578125">
        <ele>14.19999980926513671875</ele>
        <time>2018-09-05T06:14:32.000Z</time>
      </trkpt>
      <trkpt lat="43.4467366151511669158935546875" lon="-3.49972059018909931182861328125">
        <ele>14.3999996185302734375</ele>
        <time>2018-09-05T06:14:33.000Z</time>
      </trkpt>
      <trkpt lat="43.447077088057994842529296875" lon="-3.4993196837604045867919921875">
        <ele>14.3999996185302734375</ele>
        <time>2018-09-05T06:14:42.000Z</time>
      </trkpt>
      <trkpt lat="43.4472341649234294891357421875" lon="-3.4991386346518993377685546875">
        <ele>14.3999996185302734375</ele>
        <time>2018-09-05T06:14:46.000Z</time>
      </trkpt>
      <trkpt lat="43.44750967808067798614501953125" lon="-3.49882573820650577545166015625">
        <ele>14.80000019073486328125</ele>
        <time>2018-09-05T06:14:53.000Z</time>
      </trkpt>
      <trkpt lat="43.4475895576179027557373046875" lon="-3.49873445928096771240234375">
        <ele>15.19999980926513671875</ele>
        <time>2018-09-05T06:14:55.000Z</time>
      </trkpt>
      <trkpt lat="43.44785635359585285186767578125" lon="-3.49842868745326995849609375">
        <ele>15.80000019073486328125</ele>
        <time>2018-09-05T06:15:02.000Z</time>
      </trkpt>
      <trkpt lat="43.4481529891490936279296875" lon="-3.4980833530426025390625">
        <ele>16.3999996185302734375</ele>
        <time>2018-09-05T06:15:10.000Z</time>
      </trkpt>
      <trkpt lat="43.44819079153239727020263671875" lon="-3.4980389289557933807373046875">
        <ele>16.6000003814697265625</ele>
        <time>2018-09-05T06:15:11.000Z</time>
      </trkpt>
      <trkpt lat="43.44837871380150318145751953125" lon="-3.497823514044284820556640625">
        <ele>17</ele>
        <time>2018-09-05T06:15:16.000Z</time>
      </trkpt>
      <trkpt lat="43.44864525832235813140869140625" lon="-3.49750709719955921173095703125">
        <ele>17</ele>
        <time>2018-09-05T06:15:23.000Z</time>
      </trkpt>
      <trkpt lat="43.44875573180615901947021484375" lon="-3.49736963398754596710205078125">
        <ele>16.799999237060546875</ele>
        <time>2018-09-05T06:15:26.000Z</time>
      </trkpt>
      <trkpt lat="43.448831252753734588623046875" lon="-3.49728011526167392730712890625">
        <ele>16.799999237060546875</ele>
        <time>2018-09-05T06:15:28.000Z</time>
      </trkpt>
      <trkpt lat="43.44891398213803768157958984375" lon="-3.49719612859189510345458984375">
        <ele>16.6000003814697265625</ele>
        <time>2018-09-05T06:15:30.000Z</time>
      </trkpt>
      <trkpt lat="43.44899629242718219757080078125" lon="-3.49710778333246707916259765625">
        <ele>16.6000003814697265625</ele>
        <time>2018-09-05T06:15:32.000Z</time>
      </trkpt>
      <trkpt lat="43.44919444061815738677978515625" lon="-3.4968708269298076629638671875">
        <ele>16.6000003814697265625</ele>
        <time>2018-09-05T06:15:37.000Z</time>
      </trkpt>
      <trkpt lat="43.44936459325253963470458984375" lon="-3.4966845810413360595703125">
        <ele>16.6000003814697265625</ele>
        <time>2018-09-05T06:15:41.000Z</time>
      </trkpt>
      <trkpt lat="43.44955637119710445404052734375" lon="-3.496459610760211944580078125">
        <ele>16.799999237060546875</ele>
        <time>2018-09-05T06:15:46.000Z</time>
      </trkpt>
      <trkpt lat="43.4495945088565349578857421875" lon="-3.49643320776522159576416015625">
        <ele>16.799999237060546875</ele>
        <time>2018-09-05T06:15:47.000Z</time>
      </trkpt>
      <trkpt lat="43.4496350772678852081298828125" lon="-3.49643337540328502655029296875">
        <ele>16.799999237060546875</ele>
        <time>2018-09-05T06:15:48.000Z</time>
      </trkpt>
      <trkpt lat="43.44971244223415851593017578125" lon="-3.49653731100261211395263671875">
        <ele>16.6000003814697265625</ele>
        <time>2018-09-05T06:15:51.000Z</time>
      </trkpt>
      <trkpt lat="43.44969551078975200653076171875" lon="-3.49662247113883495330810546875">
        <ele>17</ele>
        <time>2018-09-05T06:15:54.000Z</time>
      </trkpt>
      <trkpt lat="43.44967489130795001983642578125" lon="-3.49652239121496677398681640625">
        <ele>17</ele>
        <time>2018-09-05T06:15:57.000Z</time>
      </trkpt>
      <trkpt lat="43.449680842459201812744140625" lon="-3.49635140039026737213134765625">
        <ele>16.6000003814697265625</ele>
        <time>2018-09-05T06:16:01.000Z</time>
      </trkpt>
      <trkpt lat="43.44969282858073711395263671875" lon="-3.4963238239288330078125">
        <ele>16.3999996185302734375</ele>
        <time>2018-09-05T06:16:02.000Z</time>
      </trkpt>
      <trkpt lat="43.44970439560711383819580078125" lon="-3.4963035397231578826904296875">
        <ele>16.3999996185302734375</ele>
        <time>2018-09-05T06:16:03.000Z</time>
      </trkpt>
      <trkpt lat="43.4497296251356601715087890625" lon="-3.49624914117157459259033203125">
        <ele>16.3999996185302734375</ele>
        <time>2018-09-05T06:16:06.000Z</time>
      </trkpt>
      <trkpt lat="43.44972836785018444061279296875" lon="-3.49625115282833576202392578125">
        <ele>16.6000003814697265625</ele>
        <time>2018-09-05T06:16:07.000Z</time>
      </trkpt>
      <trkpt lat="43.4497859515249729156494140625" lon="-3.496195413172245025634765625">
        <ele>16.200000762939453125</ele>
        <time>2018-09-05T06:16:53.000Z</time>
      </trkpt>
      <trkpt lat="43.44980346970260143280029296875" lon="-3.4961801581084728240966796875">
        <ele>16.200000762939453125</ele>
        <time>2018-09-05T06:16:54.000Z</time>
      </trkpt>
      <trkpt lat="43.449820317327976226806640625" lon="-3.49616029299795627593994140625">
        <ele>16.200000762939453125</ele>
        <time>2018-09-05T06:16:55.000Z</time>
      </trkpt>
      <trkpt lat="43.44995501451194286346435546875" lon="-3.4960111789405345916748046875">
        <ele>15.6000003814697265625</ele>
        <time>2018-09-05T06:17:01.000Z</time>
      </trkpt>
      <trkpt lat="43.450011424720287322998046875" lon="-3.49595309235155582427978515625">
        <ele>15.3999996185302734375</ele>
        <time>2018-09-05T06:17:03.000Z</time>
      </trkpt>
      <trkpt lat="43.45010153017938137054443359375" lon="-3.49585452117025852203369140625">
        <ele>14.80000019073486328125</ele>
        <time>2018-09-05T06:17:06.000Z</time>
      </trkpt>
      <trkpt lat="43.450136482715606689453125" lon="-3.49581847898662090301513671875">
        <ele>14.6000003814697265625</ele>
        <time>2018-09-05T06:17:07.000Z</time>
      </trkpt>
      <trkpt lat="43.45020999200642108917236328125" lon="-3.49573231302201747894287109375">
        <ele>14.3999996185302734375</ele>
        <time>2018-09-05T06:17:09.000Z</time>
      </trkpt>
      <trkpt lat="43.450248800218105316162109375" lon="-3.4956841170787811279296875">
        <ele>14</ele>
        <time>2018-09-05T06:17:10.000Z</time>
      </trkpt>
      <trkpt lat="43.45038047991693019866943359375" lon="-3.4955243580043315887451171875">
        <ele>12.6000003814697265625</ele>
        <time>2018-09-05T06:17:13.000Z</time>
      </trkpt>
      <trkpt lat="43.45053085125982761383056640625" lon="-3.49534490145742893218994140625">
        <ele>11.3999996185302734375</ele>
        <time>2018-09-05T06:17:16.000Z</time>
      </trkpt>
      <trkpt lat="43.450638391077518463134765625" lon="-3.495210371911525726318359375">
        <ele>10.19999980926513671875</ele>
        <time>2018-09-05T06:17:18.000Z</time>
      </trkpt>
      <trkpt lat="43.4506957232952117919921875" lon="-3.49514256231486797332763671875">
        <ele>9.6000003814697265625</ele>
        <time>2018-09-05T06:17:19.000Z</time>
      </trkpt>
      <trkpt lat="43.45075406134128570556640625" lon="-3.4950757585465908050537109375">
        <ele>9.19999980926513671875</ele>
        <time>2018-09-05T06:17:20.000Z</time>
      </trkpt>
      <trkpt lat="43.45081147737801074981689453125" lon="-3.49501012824475765228271484375">
        <ele>8.19999980926513671875</ele>
        <time>2018-09-05T06:17:21.000Z</time>
      </trkpt>
      <trkpt lat="43.45100484788417816162109375" lon="-3.4947947971522808074951171875">
        <ele>7.19999980926513671875</ele>
        <time>2018-09-05T06:17:25.000Z</time>
      </trkpt>
      <trkpt lat="43.4510509483516216278076171875" lon="-3.49474257789552211761474609375">
        <ele>7</ele>
        <time>2018-09-05T06:17:26.000Z</time>
      </trkpt>
      <trkpt lat="43.4511974640190601348876953125" lon="-3.4945701621472835540771484375">
        <ele>5.80000019073486328125</ele>
        <time>2018-09-05T06:17:29.000Z</time>
      </trkpt>
      <trkpt lat="43.45130248926579952239990234375" lon="-3.49444468505680561065673828125">
        <ele>5</ele>
        <time>2018-09-05T06:17:31.000Z</time>
      </trkpt>
      <trkpt lat="43.4513577260076999664306640625" lon="-3.4943814016878604888916015625">
        <ele>4.599999904632568359375</ele>
        <time>2018-09-05T06:17:32.000Z</time>
      </trkpt>
      <trkpt lat="43.451531566679477691650390625" lon="-3.49418736062943935394287109375">
        <ele>3.400000095367431640625</ele>
        <time>2018-09-05T06:17:35.000Z</time>
      </trkpt>
      <trkpt lat="43.45168688334524631500244140625" lon="-3.49401108920574188232421875">
        <ele>2.7999999523162841796875</ele>
        <time>2018-09-05T06:17:38.000Z</time>
      </trkpt>
      <trkpt lat="43.4517245180904865264892578125" lon="-3.4939613007009029388427734375">
        <ele>2.7999999523162841796875</ele>
        <time>2018-09-05T06:17:39.000Z</time>
      </trkpt>
      <trkpt lat="43.45188603736460208892822265625" lon="-3.4937698580324649810791015625">
        <ele>2.599999904632568359375</ele>
        <time>2018-09-05T06:17:43.000Z</time>
      </trkpt>
      <trkpt lat="43.4519749693572521209716796875" lon="-3.49367422051727771759033203125">
        <ele>2.2000000476837158203125</ele>
        <time>2018-09-05T06:17:45.000Z</time>
      </trkpt>
      <trkpt lat="43.452061973512172698974609375" lon="-3.49357388913631439208984375">
        <ele>2.2000000476837158203125</ele>
        <time>2018-09-05T06:17:47.000Z</time>
      </trkpt>
      <trkpt lat="43.4521912224590778350830078125" lon="-3.49342561326920986175537109375">
        <ele>1.7999999523162841796875</ele>
        <time>2018-09-05T06:17:50.000Z</time>
      </trkpt>
      <trkpt lat="43.4523169510066509246826171875" lon="-3.4932770021259784698486328125">
        <ele>2</ele>
        <time>2018-09-05T06:17:53.000Z</time>
      </trkpt>
      <trkpt lat="43.45244259573519229888916015625" lon="-3.49312989972531795501708984375">
        <ele>2.400000095367431640625</ele>
        <time>2018-09-05T06:17:56.000Z</time>
      </trkpt>
      <trkpt lat="43.4525657258927822113037109375" lon="-3.49298740737140178680419921875">
        <ele>2.599999904632568359375</ele>
        <time>2018-09-05T06:17:59.000Z</time>
      </trkpt>
      <trkpt lat="43.45263973809778690338134765625" lon="-3.49288950674235820770263671875">
        <ele>2.7999999523162841796875</ele>
        <time>2018-09-05T06:18:01.000Z</time>
      </trkpt>
      <trkpt lat="43.4527491219341754913330078125" lon="-3.4927425719797611236572265625">
        <ele>3</ele>
        <time>2018-09-05T06:18:04.000Z</time>
      </trkpt>
      <trkpt lat="43.452821709215641021728515625" lon="-3.49264408461749553680419921875">
        <ele>3.2000000476837158203125</ele>
        <time>2018-09-05T06:18:06.000Z</time>
      </trkpt>
      <trkpt lat="43.4528969787061214447021484375" lon="-3.49254869855940341949462890625">
        <ele>3.400000095367431640625</ele>
        <time>2018-09-05T06:18:08.000Z</time>
      </trkpt>
      <trkpt lat="43.45304064452648162841796875" lon="-3.49235373549163341522216796875">
        <ele>3.7999999523162841796875</ele>
        <time>2018-09-05T06:18:12.000Z</time>
      </trkpt>
      <trkpt lat="43.4531765989959239959716796875" lon="-3.49215106107294559478759765625">
        <ele>3.7999999523162841796875</ele>
        <time>2018-09-05T06:18:16.000Z</time>
      </trkpt>
      <trkpt lat="43.4532845579087734222412109375" lon="-3.4920046292245388031005859375">
        <ele>4.19999980926513671875</ele>
        <time>2018-09-05T06:18:19.000Z</time>
      </trkpt>
      <trkpt lat="43.45346309244632720947265625" lon="-3.4917551837861537933349609375">
        <ele>4</ele>
        <time>2018-09-05T06:18:24.000Z</time>
      </trkpt>
      <trkpt lat="43.4535651840269565582275390625" lon="-3.49158897064626216888427734375">
        <ele>4</ele>
        <time>2018-09-05T06:18:27.000Z</time>
      </trkpt>
      <trkpt lat="43.45367155037820339202880859375" lon="-3.49143155850470066070556640625">
        <ele>3.7999999523162841796875</ele>
        <time>2018-09-05T06:18:30.000Z</time>
      </trkpt>
      <trkpt lat="43.453776575624942779541015625" lon="-3.491272889077663421630859375">
        <ele>3.599999904632568359375</ele>
        <time>2018-09-05T06:18:33.000Z</time>
      </trkpt>
      <trkpt lat="43.45395184122025966644287109375" lon="-3.49098899401724338531494140625">
        <ele>3</ele>
        <time>2018-09-05T06:18:38.000Z</time>
      </trkpt>
      <trkpt lat="43.45417412929236888885498046875" lon="-3.4906430728733539581298828125">
        <ele>2.7999999523162841796875</ele>
        <time>2018-09-05T06:18:45.000Z</time>
      </trkpt>
      <trkpt lat="43.45420748926699161529541015625" lon="-3.490625806152820587158203125">
        <ele>2.599999904632568359375</ele>
        <time>2018-09-05T06:18:46.000Z</time>
      </trkpt>
      <trkpt lat="43.45428108237683773040771484375" lon="-3.49060057662427425384521484375">
        <ele>2.7999999523162841796875</ele>
        <time>2018-09-05T06:18:48.000Z</time>
      </trkpt>
      <trkpt lat="43.454390801489353179931640625" lon="-3.49056839011609554290771484375">
        <ele>3.7999999523162841796875</ele>
        <time>2018-09-05T06:18:51.000Z</time>
      </trkpt>
      <trkpt lat="43.4544764645397663116455078125" lon="-3.4905381314456462860107421875">
        <ele>3.7999999523162841796875</ele>
        <time>2018-09-05T06:18:53.000Z</time>
      </trkpt>
      <trkpt lat="43.45452181063592433929443359375" lon="-3.49052581004798412322998046875">
        <ele>3.7999999523162841796875</ele>
        <time>2018-09-05T06:18:54.000Z</time>
      </trkpt>
      <trkpt lat="43.4547564201056957244873046875" lon="-3.4904512949287891387939453125">
        <ele>3.599999904632568359375</ele>
        <time>2018-09-05T06:18:59.000Z</time>
      </trkpt>
      <trkpt lat="43.45485339872539043426513671875" lon="-3.49040888249874114990234375">
        <ele>3.400000095367431640625</ele>
        <time>2018-09-05T06:19:01.000Z</time>
      </trkpt>
      <trkpt lat="43.45500561408698558807373046875" lon="-3.4903456829488277435302734375">
        <ele>3</ele>
        <time>2018-09-05T06:19:04.000Z</time>
      </trkpt>
      <trkpt lat="43.45511055551469326019287109375" lon="-3.49031173624098300933837890625">
        <ele>2.599999904632568359375</ele>
        <time>2018-09-05T06:19:06.000Z</time>
      </trkpt>
      <trkpt lat="43.45516470260918140411376953125" lon="-3.49029983393847942352294921875">
        <ele>2.400000095367431640625</ele>
        <time>2018-09-05T06:19:07.000Z</time>
      </trkpt>
      <trkpt lat="43.45527852885425090789794921875" lon="-3.49029061384499073028564453125">
        <ele>2.2000000476837158203125</ele>
        <time>2018-09-05T06:19:09.000Z</time>
      </trkpt>
      <trkpt lat="43.45550685189664363861083984375" lon="-3.4903047792613506317138671875">
        <ele>1.60000002384185791015625</ele>
        <time>2018-09-05T06:19:13.000Z</time>
      </trkpt>
      <trkpt lat="43.45556217245757579803466796875" lon="-3.4903222136199474334716796875">
        <ele>1.39999997615814208984375</ele>
        <time>2018-09-05T06:19:14.000Z</time>
      </trkpt>
      <trkpt lat="43.45566141419112682342529296875" lon="-3.49038817919790744781494140625">
        <ele>1.39999997615814208984375</ele>
        <time>2018-09-05T06:19:16.000Z</time>
      </trkpt>
      <trkpt lat="43.45570701174437999725341796875" lon="-3.49042975343763828277587890625">
        <ele>1.39999997615814208984375</ele>
        <time>2018-09-05T06:19:17.000Z</time>
      </trkpt>
      <trkpt lat="43.45579736866056919097900390625" lon="-3.4905133210122585296630859375">
        <ele>1.2000000476837158203125</ele>
        <time>2018-09-05T06:19:19.000Z</time>
      </trkpt>
      <trkpt lat="43.45584631897509098052978515625" lon="-3.490550704300403594970703125">
        <ele>1.2000000476837158203125</ele>
        <time>2018-09-05T06:19:20.000Z</time>
      </trkpt>
      <trkpt lat="43.45589677803218364715576171875" lon="-3.4905847348272800445556640625">
        <ele>1</ele>
        <time>2018-09-05T06:19:21.000Z</time>
      </trkpt>
      <trkpt lat="43.45599819906055927276611328125" lon="-3.49065355025231838226318359375">
        <ele>1</ele>
        <time>2018-09-05T06:19:23.000Z</time>
      </trkpt>
      <trkpt lat="43.45619148574769496917724609375" lon="-3.49078238010406494140625">
        <ele>0.60000002384185791015625</ele>
        <time>2018-09-05T06:19:27.000Z</time>
      </trkpt>
      <trkpt lat="43.456281758844852447509765625" lon="-3.49083074368536472320556640625">
        <ele>0.60000002384185791015625</ele>
        <time>2018-09-05T06:19:29.000Z</time>
      </trkpt>
      <trkpt lat="43.45644294284284114837646484375" lon="-3.49092378281056880950927734375">
        <ele>0.800000011920928955078125</ele>
        <time>2018-09-05T06:19:33.000Z</time>
      </trkpt>
      <trkpt lat="43.4565067291259765625" lon="-3.49096921272575855255126953125">
        <ele>1</ele>
        <time>2018-09-05T06:19:35.000Z</time>
      </trkpt>
      <trkpt lat="43.45663203857839107513427734375" lon="-3.4911592304706573486328125">
        <ele>1.2000000476837158203125</ele>
        <time>2018-09-05T06:19:40.000Z</time>
      </trkpt>
      <trkpt lat="43.45665802247822284698486328125" lon="-3.4911982901394367218017578125">
        <ele>1.39999997615814208984375</ele>
        <time>2018-09-05T06:19:41.000Z</time>
      </trkpt>
      <trkpt lat="43.45672155730426311492919921875" lon="-3.49125134758651256561279296875">
        <ele>1.60000002384185791015625</ele>
        <time>2018-09-05T06:19:43.000Z</time>
      </trkpt>
      <trkpt lat="43.45678576268255710601806640625" lon="-3.4912878088653087615966796875">
        <ele>1.39999997615814208984375</ele>
        <time>2018-09-05T06:19:45.000Z</time>
      </trkpt>
      <trkpt lat="43.45684125088155269622802734375" lon="-3.491331897675991058349609375">
        <ele>0.800000011920928955078125</ele>
        <time>2018-09-05T06:19:47.000Z</time>
      </trkpt>
      <trkpt lat="43.45685876905918121337890625" lon="-3.49142351187765598297119140625">
        <ele>0.20000000298023223876953125</ele>
        <time>2018-09-05T06:19:49.000Z</time>
      </trkpt>
      <trkpt lat="43.4568379819393157958984375" lon="-3.49153029732406139373779296875">
        <ele>0.20000000298023223876953125</ele>
        <time>2018-09-05T06:19:51.000Z</time>
      </trkpt>
      <trkpt lat="43.45682348124682903289794921875" lon="-3.49164529703557491302490234375">
        <ele>0.60000002384185791015625</ele>
        <time>2018-09-05T06:19:53.000Z</time>
      </trkpt>
      <trkpt lat="43.45681828446686267852783203125" lon="-3.4917001985013484954833984375">
        <ele>0.60000002384185791015625</ele>
        <time>2018-09-05T06:19:54.000Z</time>
      </trkpt>
      <trkpt lat="43.456802107393741607666015625" lon="-3.49195240996778011322021484375">
        <ele>1.39999997615814208984375</ele>
        <time>2018-09-05T06:20:00.000Z</time>
      </trkpt>
      <trkpt lat="43.456816188991069793701171875" lon="-3.492111749947071075439453125">
        <ele>1.60000002384185791015625</ele>
        <time>2018-09-05T06:20:06.000Z</time>
      </trkpt>
      <trkpt lat="43.45682012848556041717529296875" lon="-3.492178805172443389892578125">
        <ele>1.39999997615814208984375</ele>
        <time>2018-09-05T06:20:09.000Z</time>
      </trkpt>
      <trkpt lat="43.45682348124682903289794921875" lon="-3.4922591038048267364501953125">
        <ele>1.7999999523162841796875</ele>
        <time>2018-09-05T06:20:12.000Z</time>
      </trkpt>
      <trkpt lat="43.456837646663188934326171875" lon="-3.49247409962117671966552734375">
        <ele>2.2000000476837158203125</ele>
        <time>2018-09-05T06:20:18.000Z</time>
      </trkpt>
      <trkpt lat="43.456838987767696380615234375" lon="-3.492515087127685546875">
        <ele>2.2000000476837158203125</ele>
        <time>2018-09-05T06:20:19.000Z</time>
      </trkpt>
      <trkpt lat="43.45684074796736240386962890625" lon="-3.49260318093001842498779296875">
        <ele>2.400000095367431640625</ele>
        <time>2018-09-05T06:20:21.000Z</time>
      </trkpt>
      <trkpt lat="43.45684141851961612701416015625" lon="-3.49269856698811054229736328125">
        <ele>2.599999904632568359375</ele>
        <time>2018-09-05T06:20:23.000Z</time>
      </trkpt>
      <trkpt lat="43.45683655701577663421630859375" lon="-3.49279529415071010589599609375">
        <ele>2.599999904632568359375</ele>
        <time>2018-09-05T06:20:25.000Z</time>
      </trkpt>
      <trkpt lat="43.45683152787387371063232421875" lon="-3.4928428195416927337646484375">
        <ele>2.7999999523162841796875</ele>
        <time>2018-09-05T06:20:26.000Z</time>
      </trkpt>
      <trkpt lat="43.45679699443280696868896484375" lon="-3.493075333535671234130859375">
        <ele>3.2000000476837158203125</ele>
        <time>2018-09-05T06:20:31.000Z</time>
      </trkpt>
      <trkpt lat="43.45678777433931827545166015625" lon="-3.493122942745685577392578125">
        <ele>3.400000095367431640625</ele>
        <time>2018-09-05T06:20:32.000Z</time>
      </trkpt>
      <trkpt lat="43.45676195807754993438720703125" lon="-3.4933282993733882904052734375">
        <ele>3.7999999523162841796875</ele>
        <time>2018-09-05T06:20:36.000Z</time>
      </trkpt>
      <trkpt lat="43.45675885677337646484375" lon="-3.49348730407655239105224609375">
        <ele>4.19999980926513671875</ele>
        <time>2018-09-05T06:20:39.000Z</time>
      </trkpt>
      <trkpt lat="43.45676581375300884246826171875" lon="-3.4935931675136089324951171875">
        <ele>4.400000095367431640625</ele>
        <time>2018-09-05T06:20:41.000Z</time>
      </trkpt>
      <trkpt lat="43.45680168829858303070068359375" lon="-3.49380246363580226898193359375">
        <ele>4.599999904632568359375</ele>
        <time>2018-09-05T06:20:45.000Z</time>
      </trkpt>
      <trkpt lat="43.45694853924214839935302734375" lon="-3.49418316967785358428955078125">
        <ele>5.400000095367431640625</ele>
        <time>2018-09-05T06:20:53.000Z</time>
      </trkpt>
      <trkpt lat="43.4570141695439815521240234375" lon="-3.49431275390088558197021484375">
        <ele>6</ele>
        <time>2018-09-05T06:20:56.000Z</time>
      </trkpt>
      <trkpt lat="43.45710092224180698394775390625" lon="-3.4945081360638141632080078125">
        <ele>6.400000095367431640625</ele>
        <time>2018-09-05T06:21:00.000Z</time>
      </trkpt>
      <trkpt lat="43.45711919479072093963623046875" lon="-3.49455951713025569915771484375">
        <ele>6.400000095367431640625</ele>
        <time>2018-09-05T06:21:01.000Z</time>
      </trkpt>
      <trkpt lat="43.4571657143533229827880859375" lon="-3.4948189370334148406982421875">
        <ele>7</ele>
        <time>2018-09-05T06:21:06.000Z</time>
      </trkpt>
      <trkpt lat="43.4571576677262783050537109375" lon="-3.49487216211855411529541015625">
        <ele>7</ele>
        <time>2018-09-05T06:21:07.000Z</time>
      </trkpt>
      <trkpt lat="43.45709773711860179901123046875" lon="-3.49510677158832550048828125">
        <ele>7.19999980926513671875</ele>
        <time>2018-09-05T06:21:11.000Z</time>
      </trkpt>
      <trkpt lat="43.45700738020241260528564453125" lon="-3.49541849456727504730224609375">
        <ele>7.599999904632568359375</ele>
        <time>2018-09-05T06:21:16.000Z</time>
      </trkpt>
      <trkpt lat="43.45696077682077884674072265625" lon="-3.49561312235891819000244140625">
        <ele>7.599999904632568359375</ele>
        <time>2018-09-05T06:21:19.000Z</time>
      </trkpt>
      <trkpt lat="43.45688483677804470062255859375" lon="-3.49606432020664215087890625">
        <ele>8.6000003814697265625</ele>
        <time>2018-09-05T06:21:26.000Z</time>
      </trkpt>
      <trkpt lat="43.456867150962352752685546875" lon="-3.4965751133859157562255859375">
        <ele>9.3999996185302734375</ele>
        <time>2018-09-05T06:21:34.000Z</time>
      </trkpt>
      <trkpt lat="43.45686220563948154449462890625" lon="-3.49670176394283771514892578125">
        <ele>9.80000019073486328125</ele>
        <time>2018-09-05T06:21:36.000Z</time>
      </trkpt>
      <trkpt lat="43.4568565897643566131591796875" lon="-3.49711842834949493408203125">
        <ele>10.6000003814697265625</ele>
        <time>2018-09-05T06:21:43.000Z</time>
      </trkpt>
      <trkpt lat="43.4568569250404834747314453125" lon="-3.4971772693097591400146484375">
        <ele>10.80000019073486328125</ele>
        <time>2018-09-05T06:21:44.000Z</time>
      </trkpt>
      <trkpt lat="43.4568951465189456939697265625" lon="-3.49759276024997234344482421875">
        <ele>11.6000003814697265625</ele>
        <time>2018-09-05T06:21:51.000Z</time>
      </trkpt>
      <trkpt lat="43.45692448318004608154296875" lon="-3.497702814638614654541015625">
        <ele>11.80000019073486328125</ele>
        <time>2018-09-05T06:21:53.000Z</time>
      </trkpt>
      <trkpt lat="43.45699145458638668060302734375" lon="-3.4979742206633090972900390625">
        <ele>12.6000003814697265625</ele>
        <time>2018-09-05T06:21:58.000Z</time>
      </trkpt>
      <trkpt lat="43.45700955949723720550537109375" lon="-3.4980898909270763397216796875">
        <ele>12.80000019073486328125</ele>
        <time>2018-09-05T06:22:00.000Z</time>
      </trkpt>
      <trkpt lat="43.45701307989656925201416015625" lon="-3.4981472231447696685791015625">
        <ele>13</ele>
        <time>2018-09-05T06:22:01.000Z</time>
      </trkpt>
      <trkpt lat="43.45700603909790515899658203125" lon="-3.49832005798816680908203125">
        <ele>13.19999980926513671875</ele>
        <time>2018-09-05T06:22:04.000Z</time>
      </trkpt>
      <trkpt lat="43.4569819830358028411865234375" lon="-3.4985693357884883880615234375">
        <ele>13.3999996185302734375</ele>
        <time>2018-09-05T06:22:08.000Z</time>
      </trkpt>
      <trkpt lat="43.45699547789990901947021484375" lon="-3.4987611137330532073974609375">
        <ele>13.6000003814697265625</ele>
        <time>2018-09-05T06:22:11.000Z</time>
      </trkpt>
      <trkpt lat="43.45703177154064178466796875" lon="-3.49893989972770214080810546875">
        <ele>14</ele>
        <time>2018-09-05T06:22:14.000Z</time>
      </trkpt>
      <trkpt lat="43.45709321089088916778564453125" lon="-3.499239720404148101806640625">
        <ele>14.3999996185302734375</ele>
        <time>2018-09-05T06:22:19.000Z</time>
      </trkpt>
      <trkpt lat="43.457177616655826568603515625" lon="-3.4996153973042964935302734375">
        <ele>15.19999980926513671875</ele>
        <time>2018-09-05T06:22:25.000Z</time>
      </trkpt>
      <trkpt lat="43.457229919731616973876953125" lon="-3.4998718835413455963134765625">
        <ele>15.3999996185302734375</ele>
        <time>2018-09-05T06:22:29.000Z</time>
      </trkpt>
      <trkpt lat="43.45732170157134532928466796875" lon="-3.5002517513930797576904296875">
        <ele>16.200000762939453125</ele>
        <time>2018-09-05T06:22:35.000Z</time>
      </trkpt>
      <trkpt lat="43.4573752619326114654541015625" lon="-3.50051016546785831451416015625">
        <ele>16.6000003814697265625</ele>
        <time>2018-09-05T06:22:39.000Z</time>
      </trkpt>
      <trkpt lat="43.45747022889554500579833984375" lon="-3.50096412934362888336181640625">
        <ele>17.200000762939453125</ele>
        <time>2018-09-05T06:22:46.000Z</time>
      </trkpt>
      <trkpt lat="43.4574825502932071685791015625" lon="-3.50102984346449375152587890625">
        <ele>17.200000762939453125</ele>
        <time>2018-09-05T06:22:47.000Z</time>
      </trkpt>
      <trkpt lat="43.45759612508118152618408203125" lon="-3.501632921397686004638671875">
        <ele>18.200000762939453125</ele>
        <time>2018-09-05T06:22:56.000Z</time>
      </trkpt>
      <trkpt lat="43.4576076082885265350341796875" lon="-3.50169964134693145751953125">
        <ele>18.200000762939453125</ele>
        <time>2018-09-05T06:22:57.000Z</time>
      </trkpt>
      <trkpt lat="43.45771363936364650726318359375" lon="-3.5022885538637638092041015625">
        <ele>19.200000762939453125</ele>
        <time>2018-09-05T06:23:06.000Z</time>
      </trkpt>
      <trkpt lat="43.45783618278801441192626953125" lon="-3.503021635115146636962890625">
        <ele>20</ele>
        <time>2018-09-05T06:23:17.000Z</time>
      </trkpt>
      <trkpt lat="43.45787071622908115386962890625" lon="-3.5032202862203121185302734375">
        <ele>20.200000762939453125</ele>
        <time>2018-09-05T06:23:20.000Z</time>
      </trkpt>
      <trkpt lat="43.45793944783508777618408203125" lon="-3.50362018682062625885009765625">
        <ele>21.200000762939453125</ele>
        <time>2018-09-05T06:23:26.000Z</time>
      </trkpt>
      <trkpt lat="43.45798772759735584259033203125" lon="-3.50390031002461910247802734375">
        <ele>21.3999996185302734375</ele>
        <time>2018-09-05T06:23:30.000Z</time>
      </trkpt>
      <trkpt lat="43.4580729715526103973388671875" lon="-3.50438855588436126708984375">
        <ele>21.6000003814697265625</ele>
        <time>2018-09-05T06:23:37.000Z</time>
      </trkpt>
      <trkpt lat="43.45817816443741321563720703125" lon="-3.50489071570336818695068359375">
        <ele>22</ele>
        <time>2018-09-05T06:23:44.000Z</time>
      </trkpt>
      <trkpt lat="43.458199203014373779296875" lon="-3.5049607045948505401611328125">
        <ele>22</ele>
        <time>2018-09-05T06:23:45.000Z</time>
      </trkpt>
      <trkpt lat="43.45830657519400119781494140625" lon="-3.50512607954442501068115234375">
        <ele>22</ele>
        <time>2018-09-05T06:23:48.000Z</time>
      </trkpt>
      <trkpt lat="43.45839475281536579132080078125" lon="-3.50531433708965778350830078125">
        <ele>22</ele>
        <time>2018-09-05T06:23:51.000Z</time>
      </trkpt>
      <trkpt lat="43.4583911485970020294189453125" lon="-3.50555305369198322296142578125">
        <ele>22.6000003814697265625</ele>
        <time>2018-09-05T06:23:54.000Z</time>
      </trkpt>
      <trkpt lat="43.45838704146444797515869140625" lon="-3.5056324303150177001953125">
        <ele>22.6000003814697265625</ele>
        <time>2018-09-05T06:23:55.000Z</time>
      </trkpt>
      <trkpt lat="43.45838938839733600616455078125" lon="-3.50571113638579845428466796875">
        <ele>22.6000003814697265625</ele>
        <time>2018-09-05T06:23:56.000Z</time>
      </trkpt>
      <trkpt lat="43.45844135619699954986572265625" lon="-3.505939207971096038818359375">
        <ele>22.3999996185302734375</ele>
        <time>2018-09-05T06:23:59.000Z</time>
      </trkpt>
      <trkpt lat="43.45855954103171825408935546875" lon="-3.50638814270496368408203125">
        <ele>22.200000762939453125</ele>
        <time>2018-09-05T06:24:05.000Z</time>
      </trkpt>
      <trkpt lat="43.45874109305441379547119140625" lon="-3.50703229196369647979736328125">
        <ele>22</ele>
        <time>2018-09-05T06:24:13.000Z</time>
      </trkpt>
      <trkpt lat="43.458837233483791351318359375" lon="-3.507384918630123138427734375">
        <ele>21.6000003814697265625</ele>
        <time>2018-09-05T06:24:17.000Z</time>
      </trkpt>
      <trkpt lat="43.45898316241800785064697265625" lon="-3.50793535821139812469482421875">
        <ele>21</ele>
        <time>2018-09-05T06:24:23.000Z</time>
      </trkpt>
      <trkpt lat="43.45916085876524448394775390625" lon="-3.5085863806307315826416015625">
        <ele>20.3999996185302734375</ele>
        <time>2018-09-05T06:24:30.000Z</time>
      </trkpt>
      <trkpt lat="43.45918734557926654815673828125" lon="-3.50868386216461658477783203125">
        <ele>20.200000762939453125</ele>
        <time>2018-09-05T06:24:31.000Z</time>
      </trkpt>
      <trkpt lat="43.45937761478126049041748046875" lon="-3.50947679020464420318603515625">
        <ele>19.6000003814697265625</ele>
        <time>2018-09-05T06:24:39.000Z</time>
      </trkpt>
      <trkpt lat="43.4593969769775867462158203125" lon="-3.509576283395290374755859375">
        <ele>19.3999996185302734375</ele>
        <time>2018-09-05T06:24:40.000Z</time>
      </trkpt>
      <trkpt lat="43.459449112415313720703125" lon="-3.5098835639655590057373046875">
        <ele>19.200000762939453125</ele>
        <time>2018-09-05T06:24:43.000Z</time>
      </trkpt>
      <trkpt lat="43.4595210291445255279541015625" lon="-3.51041019894182682037353515625">
        <ele>18.200000762939453125</ele>
        <time>2018-09-05T06:24:48.000Z</time>
      </trkpt>
      <trkpt lat="43.4595361165702342987060546875" lon="-3.51051882840692996978759765625">
        <ele>18</ele>
        <time>2018-09-05T06:24:49.000Z</time>
      </trkpt>
      <trkpt lat="43.4596413932740688323974609375" lon="-3.51130035705864429473876953125">
        <ele>17.3999996185302734375</ele>
        <time>2018-09-05T06:24:56.000Z</time>
      </trkpt>
      <trkpt lat="43.459682799875736236572265625" lon="-3.51164049468934535980224609375">
        <ele>16.799999237060546875</ele>
        <time>2018-09-05T06:24:59.000Z</time>
      </trkpt>
      <trkpt lat="43.459790758788585662841796875" lon="-3.5124323330819606781005859375">
        <ele>16</ele>
        <time>2018-09-05T06:25:06.000Z</time>
      </trkpt>
      <trkpt lat="43.45980643294751644134521484375" lon="-3.51254389621317386627197265625">
        <ele>15.80000019073486328125</ele>
        <time>2018-09-05T06:25:07.000Z</time>
      </trkpt>
      <trkpt lat="43.4598214365541934967041015625" lon="-3.5126579739153385162353515625">
        <ele>15.80000019073486328125</ele>
        <time>2018-09-05T06:25:08.000Z</time>
      </trkpt>
      <trkpt lat="43.4599022381007671356201171875" lon="-3.5132324695587158203125">
        <ele>14.6000003814697265625</ele>
        <time>2018-09-05T06:25:13.000Z</time>
      </trkpt>
      <trkpt lat="43.45995412208139896392822265625" lon="-3.513590879738330841064453125">
        <ele>13.80000019073486328125</ele>
        <time>2018-09-05T06:25:16.000Z</time>
      </trkpt>
      <trkpt lat="43.45997281372547149658203125" lon="-3.51371183060109615325927734375">
        <ele>13.6000003814697265625</ele>
        <time>2018-09-05T06:25:17.000Z</time>
      </trkpt>
      <trkpt lat="43.46003207378089427947998046875" lon="-3.514087758958339691162109375">
        <ele>12.19999980926513671875</ele>
        <time>2018-09-05T06:25:20.000Z</time>
      </trkpt>
      <trkpt lat="43.46007465384900569915771484375" lon="-3.51434466429054737091064453125">
        <ele>11</ele>
        <time>2018-09-05T06:25:22.000Z</time>
      </trkpt>
      <trkpt lat="43.460123352706432342529296875" lon="-3.514592014253139495849609375">
        <ele>11</ele>
        <time>2018-09-05T06:25:24.000Z</time>
      </trkpt>
      <trkpt lat="43.460264839231967926025390625" lon="-3.51520129479467868804931640625">
        <ele>10</ele>
        <time>2018-09-05T06:25:29.000Z</time>
      </trkpt>
      <trkpt lat="43.46043021418154239654541015625" lon="-3.515921048820018768310546875">
        <ele>9</ele>
        <time>2018-09-05T06:25:35.000Z</time>
      </trkpt>
      <trkpt lat="43.4605660848319530487060546875" lon="-3.516513817012310028076171875">
        <ele>8</ele>
        <time>2018-09-05T06:25:40.000Z</time>
      </trkpt>
      <trkpt lat="43.46066926605999469757080078125" lon="-3.5169800184667110443115234375">
        <ele>7.400000095367431640625</ele>
        <time>2018-09-05T06:25:44.000Z</time>
      </trkpt>
      <trkpt lat="43.4607367403805255889892578125" lon="-3.5173163004219532012939453125">
        <ele>7</ele>
        <time>2018-09-05T06:25:47.000Z</time>
      </trkpt>
      <trkpt lat="43.46078543923795223236083984375" lon="-3.5175298713147640228271484375">
        <ele>6.400000095367431640625</ele>
        <time>2018-09-05T06:25:49.000Z</time>
      </trkpt>
      <trkpt lat="43.460809998214244842529296875" lon="-3.51763489656150341033935546875">
        <ele>6</ele>
        <time>2018-09-05T06:25:50.000Z</time>
      </trkpt>
      <trkpt lat="43.4608624689280986785888671875" lon="-3.51784025318920612335205078125">
        <ele>5.80000019073486328125</ele>
        <time>2018-09-05T06:25:52.000Z</time>
      </trkpt>
      <trkpt lat="43.4609265066683292388916015625" lon="-3.5180364735424518585205078125">
        <ele>5.599999904632568359375</ele>
        <time>2018-09-05T06:25:54.000Z</time>
      </trkpt>
      <trkpt lat="43.4610197134315967559814453125" lon="-3.5182084701955318450927734375">
        <ele>4.80000019073486328125</ele>
        <time>2018-09-05T06:25:56.000Z</time>
      </trkpt>
      <trkpt lat="43.46114083193242549896240234375" lon="-3.5183516331017017364501953125">
        <ele>3.7999999523162841796875</ele>
        <time>2018-09-05T06:25:58.000Z</time>
      </trkpt>
      <trkpt lat="43.461294807493686676025390625" lon="-3.5184622742235660552978515625">
        <ele>2.7999999523162841796875</ele>
        <time>2018-09-05T06:26:00.000Z</time>
      </trkpt>
      <trkpt lat="43.46137720160186290740966796875" lon="-3.5185108892619609832763671875">
        <ele>2.400000095367431640625</ele>
        <time>2018-09-05T06:26:01.000Z</time>
      </trkpt>
      <trkpt lat="43.4616275690495967864990234375" lon="-3.51863636635243892669677734375">
        <ele>1.2000000476837158203125</ele>
        <time>2018-09-05T06:26:04.000Z</time>
      </trkpt>
      <trkpt lat="43.46170543693006038665771484375" lon="-3.51868716068565845489501953125">
        <ele>1</ele>
        <time>2018-09-05T06:26:05.000Z</time>
      </trkpt>
      <trkpt lat="43.46193074248731136322021484375" lon="-3.5188518650829792022705078125">
        <ele>0.60000002384185791015625</ele>
        <time>2018-09-05T06:26:08.000Z</time>
      </trkpt>
      <trkpt lat="43.4620128013193607330322265625" lon="-3.518886901438236236572265625">
        <ele>0.4000000059604644775390625</ele>
        <time>2018-09-05T06:26:09.000Z</time>
      </trkpt>
      <trkpt lat="43.46209553070366382598876953125" lon="-3.51892369799315929412841796875">
        <ele>0</ele>
        <time>2018-09-05T06:26:10.000Z</time>
      </trkpt>
      <trkpt lat="43.462419323623180389404296875" lon="-3.519059233367443084716796875">
        <ele>-0.20000000298023223876953125</ele>
        <time>2018-09-05T06:26:14.000Z</time>
      </trkpt>
      <trkpt lat="43.46257380209863185882568359375" lon="-3.51912721060216426849365234375">
        <ele>0</ele>
        <time>2018-09-05T06:26:16.000Z</time>
      </trkpt>
      <trkpt lat="43.46310705877840518951416015625" lon="-3.5193500854074954986572265625">
        <ele>-0.20000000298023223876953125</ele>
        <time>2018-09-05T06:26:23.000Z</time>
      </trkpt>
      <trkpt lat="43.46353587694466114044189453125" lon="-3.51953440345823764801025390625">
        <ele>0</ele>
        <time>2018-09-05T06:26:29.000Z</time>
      </trkpt>
      <trkpt lat="43.463744334876537322998046875" lon="-3.5196042247116565704345703125">
        <ele>0.20000000298023223876953125</ele>
        <time>2018-09-05T06:26:32.000Z</time>
      </trkpt>
      <trkpt lat="43.46394826658070087432861328125" lon="-3.51964906789362430572509765625">
        <ele>0.60000002384185791015625</ele>
        <time>2018-09-05T06:26:35.000Z</time>
      </trkpt>
      <trkpt lat="43.464084304869174957275390625" lon="-3.5196793265640735626220703125">
        <ele>0.800000011920928955078125</ele>
        <time>2018-09-05T06:26:37.000Z</time>
      </trkpt>
      <trkpt lat="43.46415211446583271026611328125" lon="-3.51969567127525806427001953125">
        <ele>1</ele>
        <time>2018-09-05T06:26:38.000Z</time>
      </trkpt>
      <trkpt lat="43.46421900205314159393310546875" lon="-3.5197126865386962890625">
        <ele>1</ele>
        <time>2018-09-05T06:26:39.000Z</time>
      </trkpt>
      <trkpt lat="43.4644797630608081817626953125" lon="-3.5197755508124828338623046875">
        <ele>1.39999997615814208984375</ele>
        <time>2018-09-05T06:26:43.000Z</time>
      </trkpt>
      <trkpt lat="43.46460574306547641754150390625" lon="-3.51978317834436893463134765625">
        <ele>1.60000002384185791015625</ele>
        <time>2018-09-05T06:26:45.000Z</time>
      </trkpt>
      <trkpt lat="43.464667014777660369873046875" lon="-3.51978175342082977294921875">
        <ele>1.7999999523162841796875</ele>
        <time>2018-09-05T06:26:46.000Z</time>
      </trkpt>
      <trkpt lat="43.464787043631076812744140625" lon="-3.5197574459016323089599609375">
        <ele>1.7999999523162841796875</ele>
        <time>2018-09-05T06:26:48.000Z</time>
      </trkpt>
      <trkpt lat="43.46490765921771526336669921875" lon="-3.51969835348427295684814453125">
        <ele>1.60000002384185791015625</ele>
        <time>2018-09-05T06:26:50.000Z</time>
      </trkpt>
      <trkpt lat="43.4651892073452472686767578125" lon="-3.5195150412619113922119140625">
        <ele>1.39999997615814208984375</ele>
        <time>2018-09-05T06:26:55.000Z</time>
      </trkpt>
      <trkpt lat="43.46528249792754650115966796875" lon="-3.5194597207009792327880859375">
        <ele>1.39999997615814208984375</ele>
        <time>2018-09-05T06:26:57.000Z</time>
      </trkpt>
      <trkpt lat="43.46545600332319736480712890625" lon="-3.51936391554772853851318359375">
        <ele>1.39999997615814208984375</ele>
        <time>2018-09-05T06:27:02.000Z</time>
      </trkpt>
      <trkpt lat="43.46552892588078975677490234375" lon="-3.51934396661818027496337890625">
        <ele>1</ele>
        <time>2018-09-05T06:27:05.000Z</time>
      </trkpt>
      <trkpt lat="43.46559346653521060943603515625" lon="-3.51933407597243785858154296875">
        <ele>0.60000002384185791015625</ele>
        <time>2018-09-05T06:27:07.000Z</time>
      </trkpt>
      <trkpt lat="43.4656783752143383026123046875" lon="-3.51930004544556140899658203125">
        <ele>0.20000000298023223876953125</ele>
        <time>2018-09-05T06:27:09.000Z</time>
      </trkpt>
      <trkpt lat="43.46574652008712291717529296875" lon="-3.51922175846993923187255859375">
        <ele>0.20000000298023223876953125</ele>
        <time>2018-09-05T06:27:11.000Z</time>
      </trkpt>
      <trkpt lat="43.465802259743213653564453125" lon="-3.51912871934473514556884765625">
        <ele>0.60000002384185791015625</ele>
        <time>2018-09-05T06:27:13.000Z</time>
      </trkpt>
      <trkpt lat="43.4658356197178363800048828125" lon="-3.51908781565725803375244140625">
        <ele>0.800000011920928955078125</ele>
        <time>2018-09-05T06:27:14.000Z</time>
      </trkpt>
      <trkpt lat="43.4659440815448760986328125" lon="-3.51896099746227264404296875">
        <ele>1.2000000476837158203125</ele>
        <time>2018-09-05T06:27:17.000Z</time>
      </trkpt>
      <trkpt lat="43.46630861051380634307861328125" lon="-3.518581800162792205810546875">
        <ele>0.800000011920928955078125</ele>
        <time>2018-09-05T06:27:26.000Z</time>
      </trkpt>
      <trkpt lat="43.4665180742740631103515625" lon="-3.518375940620899200439453125">
        <ele>1.60000002384185791015625</ele>
        <time>2018-09-05T06:27:31.000Z</time>
      </trkpt>
      <trkpt lat="43.46665310673415660858154296875" lon="-3.5182708315551280975341796875">
        <ele>1.7999999523162841796875</ele>
        <time>2018-09-05T06:27:34.000Z</time>
      </trkpt>
      <trkpt lat="43.46695728600025177001953125" lon="-3.51800587959587574005126953125">
        <ele>1.60000002384185791015625</ele>
        <time>2018-09-05T06:27:41.000Z</time>
      </trkpt>
      <trkpt lat="43.4671354852616786956787109375" lon="-3.51783237420022487640380859375">
        <ele>1.39999997615814208984375</ele>
        <time>2018-09-05T06:27:45.000Z</time>
      </trkpt>
      <trkpt lat="43.467280827462673187255859375" lon="-3.5177300311625003814697265625">
        <ele>1</ele>
        <time>2018-09-05T06:27:48.000Z</time>
      </trkpt>
      <trkpt lat="43.4674675762653350830078125" lon="-3.5176190547645092010498046875">
        <ele>1.2000000476837158203125</ele>
        <time>2018-09-05T06:27:52.000Z</time>
      </trkpt>
      <trkpt lat="43.46765021793544292449951171875" lon="-3.51749123074114322662353515625">
        <ele>1</ele>
        <time>2018-09-05T06:27:56.000Z</time>
      </trkpt>
      <trkpt lat="43.467771671712398529052734375" lon="-3.517388217151165008544921875">
        <ele>0.800000011920928955078125</ele>
        <time>2018-09-05T06:27:59.000Z</time>
      </trkpt>
      <trkpt lat="43.4678618609905242919921875" lon="-3.5173129476606845855712890625">
        <ele>0.60000002384185791015625</ele>
        <time>2018-09-05T06:28:01.000Z</time>
      </trkpt>
      <trkpt lat="43.4679552353918552398681640625" lon="-3.51723658852279186248779296875">
        <ele>1</ele>
        <time>2018-09-05T06:28:03.000Z</time>
      </trkpt>
      <trkpt lat="43.46804819069802761077880859375" lon="-3.5171644203364849090576171875">
        <ele>1</ele>
        <time>2018-09-05T06:28:05.000Z</time>
      </trkpt>
      <trkpt lat="43.46814005635678768157958984375" lon="-3.51709728129208087921142578125">
        <ele>0.60000002384185791015625</ele>
        <time>2018-09-05T06:28:07.000Z</time>
      </trkpt>
      <trkpt lat="43.46818766556680202484130859375" lon="-3.51706895045936107635498046875">
        <ele>0.4000000059604644775390625</ele>
        <time>2018-09-05T06:28:08.000Z</time>
      </trkpt>
      <trkpt lat="43.46823661588132381439208984375" lon="-3.517046235501766204833984375">
        <ele>0.4000000059604644775390625</ele>
        <time>2018-09-05T06:28:09.000Z</time>
      </trkpt>
      <trkpt lat="43.46839436329901218414306640625" lon="-3.516994602978229522705078125">
        <ele>0</ele>
        <time>2018-09-05T06:28:12.000Z</time>
      </trkpt>
      <trkpt lat="43.4685040824115276336669921875" lon="-3.51694204844534397125244140625">
        <ele>-0.4000000059604644775390625</ele>
        <time>2018-09-05T06:28:14.000Z</time>
      </trkpt>
      <trkpt lat="43.46860541962087154388427734375" lon="-3.51685387082397937774658203125">
        <ele>-1</ele>
        <time>2018-09-05T06:28:16.000Z</time>
      </trkpt>
      <trkpt lat="43.46865235827863216400146484375" lon="-3.516801483929157257080078125">
        <ele>-1.2000000476837158203125</ele>
        <time>2018-09-05T06:28:17.000Z</time>
      </trkpt>
      <trkpt lat="43.46869938075542449951171875" lon="-3.5167470015585422515869140625">
        <ele>-1.2000000476837158203125</ele>
        <time>2018-09-05T06:28:18.000Z</time>
      </trkpt>
      <trkpt lat="43.4688400290906429290771484375" lon="-3.51658883504569530487060546875">
        <ele>-1.2000000476837158203125</ele>
        <time>2018-09-05T06:28:21.000Z</time>
      </trkpt>
      <trkpt lat="43.46900993026793003082275390625" lon="-3.51639856584370136260986328125">
        <ele>-1.2000000476837158203125</ele>
        <time>2018-09-05T06:28:25.000Z</time>
      </trkpt>
      <trkpt lat="43.46904647536575794219970703125" lon="-3.5163553990423679351806640625">
        <ele>-1</ele>
        <time>2018-09-05T06:28:26.000Z</time>
      </trkpt>
      <trkpt lat="43.4691454656422138214111328125" lon="-3.51621751673519611358642578125">
        <ele>-1</ele>
        <time>2018-09-05T06:28:29.000Z</time>
      </trkpt>
      <trkpt lat="43.46920941956341266632080078125" lon="-3.51603697054088115692138671875">
        <ele>-1.39999997615814208984375</ele>
        <time>2018-09-05T06:28:32.000Z</time>
      </trkpt>
      <trkpt lat="43.46922853030264377593994140625" lon="-3.5158994235098361968994140625">
        <ele>-1.2000000476837158203125</ele>
        <time>2018-09-05T06:28:34.000Z</time>
      </trkpt>
      <trkpt lat="43.46925501711666584014892578125" lon="-3.5156878642737865447998046875">
        <ele>-1.60000002384185791015625</ele>
        <time>2018-09-05T06:28:37.000Z</time>
      </trkpt>
      <trkpt lat="43.4693194739520549774169921875" lon="-3.515507318079471588134765625">
        <ele>-1.39999997615814208984375</ele>
        <time>2018-09-05T06:28:40.000Z</time>
      </trkpt>
      <trkpt lat="43.4693456254899501800537109375" lon="-3.51544789038598537445068359375">
        <ele>-1.2000000476837158203125</ele>
        <time>2018-09-05T06:28:41.000Z</time>
      </trkpt>
      <trkpt lat="43.46937152557075023651123046875" lon="-3.5153891332447528839111328125">
        <ele>-1.2000000476837158203125</ele>
        <time>2018-09-05T06:28:42.000Z</time>
      </trkpt>
      <trkpt lat="43.46950630657374858856201171875" lon="-3.51510222069919109344482421875">
        <ele>-1.2000000476837158203125</ele>
        <time>2018-09-05T06:28:47.000Z</time>
      </trkpt>
      <trkpt lat="43.4695846773684024810791015625" lon="-3.5149318166077136993408203125">
        <ele>-1.2000000476837158203125</ele>
        <time>2018-09-05T06:28:50.000Z</time>
      </trkpt>
      <trkpt lat="43.46960839815437793731689453125" lon="-3.51487590931355953216552734375">
        <ele>-1.39999997615814208984375</ele>
        <time>2018-09-05T06:28:51.000Z</time>
      </trkpt>
      <trkpt lat="43.46965164877474308013916015625" lon="-3.5147641785442829132080078125">
        <ele>-1.39999997615814208984375</ele>
        <time>2018-09-05T06:28:53.000Z</time>
      </trkpt>
      <trkpt lat="43.46971266902983188629150390625" lon="-3.51453141309320926666259765625">
        <ele>-1.39999997615814208984375</ele>
        <time>2018-09-05T06:28:57.000Z</time>
      </trkpt>
      <trkpt lat="43.46974535845220088958740234375" lon="-3.51434550248086452484130859375">
        <ele>-1.2000000476837158203125</ele>
        <time>2018-09-05T06:29:00.000Z</time>
      </trkpt>
      <trkpt lat="43.46977435983717441558837890625" lon="-3.51411164738237857818603515625">
        <ele>-0.60000002384185791015625</ele>
        <time>2018-09-05T06:29:04.000Z</time>
      </trkpt>
      <trkpt lat="43.46978475339710712432861328125" lon="-3.51405180059373378753662109375">
        <ele>-0.60000002384185791015625</ele>
        <time>2018-09-05T06:29:05.000Z</time>
      </trkpt>
      <trkpt lat="43.46981308422982692718505859375" lon="-3.51387226022779941558837890625">
        <ele>-0.60000002384185791015625</ele>
        <time>2018-09-05T06:29:08.000Z</time>
      </trkpt>
      <trkpt lat="43.4698438458144664764404296875" lon="-3.51368643343448638916015625">
        <ele>0</ele>
        <time>2018-09-05T06:29:11.000Z</time>
      </trkpt>
      <trkpt lat="43.46989405341446399688720703125" lon="-3.5134555958211421966552734375">
        <ele>0.20000000298023223876953125</ele>
        <time>2018-09-05T06:29:15.000Z</time>
      </trkpt>
      <trkpt lat="43.46998558379709720611572265625" lon="-3.5130522586405277252197265625">
        <ele>-0.20000000298023223876953125</ele>
        <time>2018-09-05T06:29:22.000Z</time>
      </trkpt>
      <trkpt lat="43.4700198657810688018798828125" lon="-3.51293197833001613616943359375">
        <ele>-0.20000000298023223876953125</ele>
        <time>2018-09-05T06:29:24.000Z</time>
      </trkpt>
      <trkpt lat="43.470060937106609344482421875" lon="-3.5127682797610759735107421875">
        <ele>0</ele>
        <time>2018-09-05T06:29:27.000Z</time>
      </trkpt>
      <trkpt lat="43.47007309086620807647705078125" lon="-3.51271589286625385284423828125">
        <ele>-0.20000000298023223876953125</ele>
        <time>2018-09-05T06:29:28.000Z</time>
      </trkpt>
      <trkpt lat="43.4701720811426639556884765625" lon="-3.51232429035007953643798828125">
        <ele>-0.20000000298023223876953125</ele>
        <time>2018-09-05T06:29:35.000Z</time>
      </trkpt>
      <trkpt lat="43.47019228152930736541748046875" lon="-3.5122117213904857635498046875">
        <ele>-0.20000000298023223876953125</ele>
        <time>2018-09-05T06:29:37.000Z</time>
      </trkpt>
      <trkpt lat="43.47020921297371387481689453125" lon="-3.51198901422321796417236328125">
        <ele>-0.20000000298023223876953125</ele>
        <time>2018-09-05T06:29:41.000Z</time>
      </trkpt>
      <trkpt lat="43.47020166926085948944091796875" lon="-3.51155047304928302764892578125">
        <ele>0.4000000059604644775390625</ele>
        <time>2018-09-05T06:29:49.000Z</time>
      </trkpt>
      <trkpt lat="43.47024089656770229339599609375" lon="-3.51124973036348819732666015625">
        <ele>0.4000000059604644775390625</ele>
        <time>2018-09-05T06:29:54.000Z</time>
      </trkpt>
      <trkpt lat="43.4702703170478343963623046875" lon="-3.511138670146465301513671875">
        <ele>0.4000000059604644775390625</ele>
        <time>2018-09-05T06:29:56.000Z</time>
      </trkpt>
      <trkpt lat="43.47030811943113803863525390625" lon="-3.510971367359161376953125">
        <ele>0.4000000059604644775390625</ele>
        <time>2018-09-05T06:29:59.000Z</time>
      </trkpt>
      <trkpt lat="43.4703440777957439422607421875" lon="-3.51081538014113903045654296875">
        <ele>0.20000000298023223876953125</ele>
        <time>2018-09-05T06:30:02.000Z</time>
      </trkpt>
      <trkpt lat="43.4703393839299678802490234375" lon="-3.510774560272693634033203125">
        <ele>0</ele>
        <time>2018-09-05T06:30:03.000Z</time>
      </trkpt>
      <trkpt lat="43.47033779136836528778076171875" lon="-3.51061999797821044921875">
        <ele>-0.20000000298023223876953125</ele>
        <time>2018-09-05T06:30:06.000Z</time>
      </trkpt>
      <trkpt lat="43.47040258347988128662109375" lon="-3.5102305747568607330322265625">
        <ele>-0.4000000059604644775390625</ele>
        <time>2018-09-05T06:30:13.000Z</time>
      </trkpt>
      <trkpt lat="43.470454551279544830322265625" lon="-3.5100022517144680023193359375">
        <ele>-0.60000002384185791015625</ele>
        <time>2018-09-05T06:30:17.000Z</time>
      </trkpt>
      <trkpt lat="43.47047366201877593994140625" lon="-3.5098778642714023590087890625">
        <ele>-0.800000011920928955078125</ele>
        <time>2018-09-05T06:30:19.000Z</time>
      </trkpt>
      <trkpt lat="43.47048497758805751800537109375" lon="-3.509813658893108367919921875">
        <ele>-0.800000011920928955078125</ele>
        <time>2018-09-05T06:30:20.000Z</time>
      </trkpt>
      <trkpt lat="43.47055756486952304840087890625" lon="-3.50927889347076416015625">
        <ele>-1</ele>
        <time>2018-09-05T06:30:28.000Z</time>
      </trkpt>
      <trkpt lat="43.470597378909587860107421875" lon="-3.508857451379299163818359375">
        <ele>-0.60000002384185791015625</ele>
        <time>2018-09-05T06:30:34.000Z</time>
      </trkpt>
      <trkpt lat="43.4706250391900539398193359375" lon="-3.5086507536470890045166015625">
        <ele>-0.4000000059604644775390625</ele>
        <time>2018-09-05T06:30:37.000Z</time>
      </trkpt>
      <trkpt lat="43.47068245522677898406982421875" lon="-3.50838529877364635467529296875">
        <ele>-0.4000000059604644775390625</ele>
        <time>2018-09-05T06:30:41.000Z</time>
      </trkpt>
      <trkpt lat="43.47074481658637523651123046875" lon="-3.5081907548010349273681640625">
        <ele>-0.800000011920928955078125</ele>
        <time>2018-09-05T06:30:44.000Z</time>
      </trkpt>
      <trkpt lat="43.47076711244881153106689453125" lon="-3.508122526109218597412109375">
        <ele>-1</ele>
        <time>2018-09-05T06:30:45.000Z</time>
      </trkpt>
      <trkpt lat="43.4707910008728504180908203125" lon="-3.5080556385219097137451171875">
        <ele>-2.2000000476837158203125</ele>
        <time>2018-09-05T06:30:46.000Z</time>
      </trkpt>
      <trkpt lat="43.47083969973027706146240234375" lon="-3.5079258866608142852783203125">
        <ele>-2.400000095367431640625</ele>
        <time>2018-09-05T06:30:48.000Z</time>
      </trkpt>
      <trkpt lat="43.4709220938384532928466796875" lon="-3.50773788057267665863037109375">
        <ele>-1.60000002384185791015625</ele>
        <time>2018-09-05T06:30:51.000Z</time>
      </trkpt>
      <trkpt lat="43.4709609858691692352294921875" lon="-3.50768842734396457672119140625">
        <ele>-1.7999999523162841796875</ele>
        <time>2018-09-05T06:30:52.000Z</time>
      </trkpt>
      <trkpt lat="43.471003733575344085693359375" lon="-3.50764299742877483367919921875">
        <ele>-2</ele>
        <time>2018-09-05T06:30:53.000Z</time>
      </trkpt>
      <trkpt lat="43.47109970636665821075439453125" lon="-3.5075537301599979400634765625">
        <ele>-2.400000095367431640625</ele>
        <time>2018-09-05T06:30:55.000Z</time>
      </trkpt>
      <trkpt lat="43.471200875937938690185546875" lon="-3.5074682347476482391357421875">
        <ele>-2.7999999523162841796875</ele>
        <time>2018-09-05T06:30:57.000Z</time>
      </trkpt>
      <trkpt lat="43.47129249013960361480712890625" lon="-3.5073673166334629058837890625">
        <ele>-3</ele>
        <time>2018-09-05T06:30:59.000Z</time>
      </trkpt>
      <trkpt lat="43.4713326394557952880859375" lon="-3.50730772130191326141357421875">
        <ele>-3.2000000476837158203125</ele>
        <time>2018-09-05T06:31:00.000Z</time>
      </trkpt>
      <trkpt lat="43.47144722007215023040771484375" lon="-3.50712172687053680419921875">
        <ele>-4.80000019073486328125</ele>
        <time>2018-09-05T06:31:03.000Z</time>
      </trkpt>
      <trkpt lat="43.47155685536563396453857421875" lon="-3.50693422369658946990966796875">
        <ele>-3.2000000476837158203125</ele>
        <time>2018-09-05T06:31:06.000Z</time>
      </trkpt>
      <trkpt lat="43.471585102379322052001953125" lon="-3.506863228976726531982421875">
        <ele>-3.599999904632568359375</ele>
        <time>2018-09-05T06:31:07.000Z</time>
      </trkpt>
      <trkpt lat="43.47162189893424510955810546875" lon="-3.50664119236171245574951171875">
        <ele>-3.7999999523162841796875</ele>
        <time>2018-09-05T06:31:10.000Z</time>
      </trkpt>
      <trkpt lat="43.4716332145035266876220703125" lon="-3.506578244268894195556640625">
        <ele>-3.7999999523162841796875</ele>
        <time>2018-09-05T06:31:11.000Z</time>
      </trkpt>
      <trkpt lat="43.47166514955461025238037109375" lon="-3.506438769400119781494140625">
        <ele>-3.400000095367431640625</ele>
        <time>2018-09-05T06:31:14.000Z</time>
      </trkpt>
      <trkpt lat="43.4717458672821521759033203125" lon="-3.50622452795505523681640625">
        <ele>-3.400000095367431640625</ele>
        <time>2018-09-05T06:31:19.000Z</time>
      </trkpt>
      <trkpt lat="43.47181384451687335968017578125" lon="-3.5061613284051418304443359375">
        <ele>-3.400000095367431640625</ele>
        <time>2018-09-05T06:31:21.000Z</time>
      </trkpt>
      <trkpt lat="43.4718923829495906829833984375" lon="-3.50610676221549510955810546875">
        <ele>-3.599999904632568359375</ele>
        <time>2018-09-05T06:31:23.000Z</time>
      </trkpt>
      <trkpt lat="43.47193186171352863311767578125" lon="-3.5060788504779338836669921875">
        <ele>-3.7999999523162841796875</ele>
        <time>2018-09-05T06:31:24.000Z</time>
      </trkpt>
      <trkpt lat="43.47218625247478485107421875" lon="-3.5058538801968097686767578125">
        <ele>-3.7999999523162841796875</ele>
        <time>2018-09-05T06:31:32.000Z</time>
      </trkpt>
      <trkpt lat="43.47238666377961635589599609375" lon="-3.50563117302954196929931640625">
        <ele>-3.599999904632568359375</ele>
        <time>2018-09-05T06:31:38.000Z</time>
      </trkpt>
      <trkpt lat="43.47249336540699005126953125" lon="-3.50567123852670192718505859375">
        <ele>-3.400000095367431640625</ele>
        <time>2018-09-05T06:31:41.000Z</time>
      </trkpt>
      <trkpt lat="43.47250853665173053741455078125" lon="-3.5058066062629222869873046875">
        <ele>-3.599999904632568359375</ele>
        <time>2018-09-05T06:31:44.000Z</time>
      </trkpt>
      <trkpt lat="43.472532592713832855224609375" lon="-3.50587315857410430908203125">
        <ele>-3.599999904632568359375</ele>
        <time>2018-09-05T06:31:46.000Z</time>
      </trkpt>
      <trkpt lat="43.47256268374621868133544921875" lon="-3.505917750298976898193359375">
        <ele>-3.400000095367431640625</ele>
        <time>2018-09-05T06:31:48.000Z</time>
      </trkpt>
      <trkpt lat="43.47259554080665111541748046875" lon="-3.50609335117042064666748046875">
        <ele>-3.7999999523162841796875</ele>
        <time>2018-09-05T06:31:53.000Z</time>
      </trkpt>
      <trkpt lat="43.4725994803011417388916015625" lon="-3.50614280439913272857666015625">
        <ele>-4</ele>
        <time>2018-09-05T06:31:54.000Z</time>
      </trkpt>
      <trkpt lat="43.472609706223011016845703125" lon="-3.50619544275104999542236328125">
        <ele>-4</ele>
        <time>2018-09-05T06:31:55.000Z</time>
      </trkpt>
      <trkpt lat="43.4726266376674175262451171875" lon="-3.50630071945488452911376953125">
        <ele>-3.7999999523162841796875</ele>
        <time>2018-09-05T06:31:57.000Z</time>
      </trkpt>
      <trkpt lat="43.472635857760906219482421875" lon="-3.50634883157908916473388671875">
        <ele>-3.599999904632568359375</ele>
        <time>2018-09-05T06:31:58.000Z</time>
      </trkpt>
      <trkpt lat="43.4726655296981334686279296875" lon="-3.5065593011677265167236328125">
        <ele>-3.7999999523162841796875</ele>
        <time>2018-09-05T06:32:02.000Z</time>
      </trkpt>
      <trkpt lat="43.472666032612323760986328125" lon="-3.50661671720445156097412109375">
        <ele>-4</ele>
        <time>2018-09-05T06:32:03.000Z</time>
      </trkpt>
      <trkpt lat="43.472662679851055145263671875" lon="-3.50692399777472019195556640625">
        <ele>-3.599999904632568359375</ele>
        <time>2018-09-05T06:32:09.000Z</time>
      </trkpt>
      <trkpt lat="43.47263996489346027374267578125" lon="-3.5072519816458225250244140625">
        <ele>-3.2000000476837158203125</ele>
        <time>2018-09-05T06:32:15.000Z</time>
      </trkpt>
      <trkpt lat="43.472618758678436279296875" lon="-3.5075443424284458160400390625">
        <ele>-3.2000000476837158203125</ele>
        <time>2018-09-05T06:32:20.000Z</time>
      </trkpt>
      <trkpt lat="43.4726058505475521087646484375" lon="-3.50766646675765514373779296875">
        <ele>-3.2000000476837158203125</ele>
        <time>2018-09-05T06:32:22.000Z</time>
      </trkpt>
      <trkpt lat="43.47253938205540180206298828125" lon="-3.5081156529486179351806640625">
        <ele>-4</ele>
        <time>2018-09-05T06:32:29.000Z</time>
      </trkpt>
      <trkpt lat="43.4725289046764373779296875" lon="-3.50818119943141937255859375">
        <ele>-4.400000095367431640625</ele>
        <time>2018-09-05T06:32:30.000Z</time>
      </trkpt>
      <trkpt lat="43.47245992161333560943603515625" lon="-3.508589565753936767578125">
        <ele>-4</ele>
        <time>2018-09-05T06:32:36.000Z</time>
      </trkpt>
      <trkpt lat="43.47234425134956836700439453125" lon="-3.509145788848400115966796875">
        <ele>-4.400000095367431640625</ele>
        <time>2018-09-05T06:32:44.000Z</time>
      </trkpt>
      <trkpt lat="43.47225037403404712677001953125" lon="-3.50964895449578762054443359375">
        <ele>-4.400000095367431640625</ele>
        <time>2018-09-05T06:32:51.000Z</time>
      </trkpt>
      <trkpt lat="43.47220628522336483001708984375" lon="-3.509865291416645050048828125">
        <ele>-4</ele>
        <time>2018-09-05T06:32:54.000Z</time>
      </trkpt>
      <trkpt lat="43.47210042178630828857421875" lon="-3.51041321642696857452392578125">
        <ele>-4.80000019073486328125</ele>
        <time>2018-09-05T06:33:02.000Z</time>
      </trkpt>
      <trkpt lat="43.471970669925212860107421875" lon="-3.51110673509538173675537109375">
        <ele>-4.599999904632568359375</ele>
        <time>2018-09-05T06:33:12.000Z</time>
      </trkpt>
      <trkpt lat="43.47195365466177463531494140625" lon="-3.51146514527499675750732421875">
        <ele>-4.19999980926513671875</ele>
        <time>2018-09-05T06:33:17.000Z</time>
      </trkpt>
      <trkpt lat="43.47196086309850215911865234375" lon="-3.51153823547065258026123046875">
        <ele>-4.19999980926513671875</ele>
        <time>2018-09-05T06:33:18.000Z</time>
      </trkpt>
      <trkpt lat="43.47204300574958324432373046875" lon="-3.51187870837748050689697265625">
        <ele>-4</ele>
        <time>2018-09-05T06:33:23.000Z</time>
      </trkpt>
      <trkpt lat="43.47206966020166873931884765625" lon="-3.51193964481353759765625">
        <ele>-4</ele>
        <time>2018-09-05T06:33:24.000Z</time>
      </trkpt>
      <trkpt lat="43.4722823090851306915283203125" lon="-3.51232579909265041351318359375">
        <ele>-3.7999999523162841796875</ele>
        <time>2018-09-05T06:33:31.000Z</time>
      </trkpt>
      <trkpt lat="43.4723590873181819915771484375" lon="-3.5124774277210235595703125">
        <ele>-3.400000095367431640625</ele>
        <time>2018-09-05T06:33:34.000Z</time>
      </trkpt>
      <trkpt lat="43.47243276424705982208251953125" lon="-3.5126194171607494354248046875">
        <ele>-3.2000000476837158203125</ele>
        <time>2018-09-05T06:33:37.000Z</time>
      </trkpt>
      <trkpt lat="43.472482301294803619384765625" lon="-3.51273667998611927032470703125">
        <ele>-3.400000095367431640625</ele>
        <time>2018-09-05T06:33:39.000Z</time>
      </trkpt>
      <trkpt lat="43.47260191105306148529052734375" lon="-3.512976653873920440673828125">
        <ele>-4.400000095367431640625</ele>
        <time>2018-09-05T06:33:43.000Z</time>
      </trkpt>
      <trkpt lat="43.4726630151271820068359375" lon="-3.5130847804248332977294921875">
        <ele>-4.400000095367431640625</ele>
        <time>2018-09-05T06:33:45.000Z</time>
      </trkpt>
      <trkpt lat="43.4727369435131549835205078125" lon="-3.51316600106656551361083984375">
        <ele>-4.19999980926513671875</ele>
        <time>2018-09-05T06:33:47.000Z</time>
      </trkpt>
      <trkpt lat="43.47277072258293628692626953125" lon="-3.51320908404886722564697265625">
        <ele>-4.19999980926513671875</ele>
        <time>2018-09-05T06:33:48.000Z</time>
      </trkpt>
      <trkpt lat="43.47280693240463733673095703125" lon="-3.51324856281280517578125">
        <ele>-4.19999980926513671875</ele>
        <time>2018-09-05T06:33:49.000Z</time>
      </trkpt>
      <trkpt lat="43.47301513887941837310791015625" lon="-3.51342801935970783233642578125">
        <ele>-4.19999980926513671875</ele>
        <time>2018-09-05T06:33:54.000Z</time>
      </trkpt>
      <trkpt lat="43.47314422018826007843017578125" lon="-3.51351921446621417999267578125">
        <ele>-4.400000095367431640625</ele>
        <time>2018-09-05T06:33:57.000Z</time>
      </trkpt>
      <trkpt lat="43.47332593984901905059814453125" lon="-3.51363941095769405364990234375">
        <ele>-4.400000095367431640625</ele>
        <time>2018-09-05T06:34:01.000Z</time>
      </trkpt>
      <trkpt lat="43.47361427731812000274658203125" lon="-3.5138076357543468475341796875">
        <ele>-4.400000095367431640625</ele>
        <time>2018-09-05T06:34:07.000Z</time>
      </trkpt>
      <trkpt lat="43.4739960730075836181640625" lon="-3.51405699737370014190673828125">
        <ele>-4.19999980926513671875</ele>
        <time>2018-09-05T06:34:15.000Z</time>
      </trkpt>
      <trkpt lat="43.47409640438854694366455078125" lon="-3.51411852054297924041748046875">
        <ele>-4.400000095367431640625</ele>
        <time>2018-09-05T06:34:17.000Z</time>
      </trkpt>
      <trkpt lat="43.4744626097381114959716796875" lon="-3.51442730985581874847412109375">
        <ele>-4.599999904632568359375</ele>
        <time>2018-09-05T06:34:25.000Z</time>
      </trkpt>
      <trkpt lat="43.474872149527072906494140625" lon="-3.5148456506431102752685546875">
        <ele>-4.400000095367431640625</ele>
        <time>2018-09-05T06:34:34.000Z</time>
      </trkpt>
      <trkpt lat="43.4752645902335643768310546875" lon="-3.51527656428515911102294921875">
        <ele>-4.400000095367431640625</ele>
        <time>2018-09-05T06:34:43.000Z</time>
      </trkpt>
      <trkpt lat="43.475653342902660369873046875" lon="-3.51570479571819305419921875">
        <ele>-4.400000095367431640625</ele>
        <time>2018-09-05T06:34:52.000Z</time>
      </trkpt>
      <trkpt lat="43.47600638866424560546875" lon="-3.51608927361667156219482421875">
        <ele>-4.599999904632568359375</ele>
        <time>2018-09-05T06:35:00.000Z</time>
      </trkpt>
      <trkpt lat="43.47644819878041744232177734375" lon="-3.51658397354185581207275390625">
        <ele>-4.599999904632568359375</ele>
        <time>2018-09-05T06:35:10.000Z</time>
      </trkpt>
      <trkpt lat="43.4768306650221347808837890625" lon="-3.5170293040573596954345703125">
        <ele>-4.599999904632568359375</ele>
        <time>2018-09-05T06:35:19.000Z</time>
      </trkpt>
      <trkpt lat="43.47695899195969104766845703125" lon="-3.5171771608293056488037109375">
        <ele>-4.599999904632568359375</ele>
        <time>2018-09-05T06:35:22.000Z</time>
      </trkpt>
      <trkpt lat="43.47717658616602420806884765625" lon="-3.517416380345821380615234375">
        <ele>-4.599999904632568359375</ele>
        <time>2018-09-05T06:35:27.000Z</time>
      </trkpt>
      <trkpt lat="43.47737657837569713592529296875" lon="-3.5175503231585025787353515625">
        <ele>-4.80000019073486328125</ele>
        <time>2018-09-05T06:35:31.000Z</time>
      </trkpt>
      <trkpt lat="43.4774841181933879852294921875" lon="-3.51759650744497776031494140625">
        <ele>-4.80000019073486328125</ele>
        <time>2018-09-05T06:35:33.000Z</time>
      </trkpt>
      <trkpt lat="43.47781545482575893402099609375" lon="-3.5177239961922168731689453125">
        <ele>-4.19999980926513671875</ele>
        <time>2018-09-05T06:35:39.000Z</time>
      </trkpt>
      <trkpt lat="43.47797580063343048095703125" lon="-3.51778459735214710235595703125">
        <ele>-4.19999980926513671875</ele>
        <time>2018-09-05T06:35:42.000Z</time>
      </trkpt>
      <trkpt lat="43.4781360626220703125" lon="-3.5178373195230960845947265625">
        <ele>-4.400000095367431640625</ele>
        <time>2018-09-05T06:35:45.000Z</time>
      </trkpt>
      <trkpt lat="43.478292636573314666748046875" lon="-3.5178458690643310546875">
        <ele>-4</ele>
        <time>2018-09-05T06:35:48.000Z</time>
      </trkpt>
      <trkpt lat="43.47834066487848758697509765625" lon="-3.51783187128603458404541015625">
        <ele>-3.7999999523162841796875</ele>
        <time>2018-09-05T06:35:49.000Z</time>
      </trkpt>
      <trkpt lat="43.47848248668015003204345703125" lon="-3.5177989304065704345703125">
        <ele>-3.400000095367431640625</ele>
        <time>2018-09-05T06:35:52.000Z</time>
      </trkpt>
      <trkpt lat="43.478619866073131561279296875" lon="-3.51777370087802410125732421875">
        <ele>-3</ele>
        <time>2018-09-05T06:35:55.000Z</time>
      </trkpt>
      <trkpt lat="43.47870980389416217803955078125" lon="-3.51777018047869205474853515625">
        <ele>-3</ele>
        <time>2018-09-05T06:35:57.000Z</time>
      </trkpt>
      <trkpt lat="43.4790579043328762054443359375" lon="-3.517761044204235076904296875">
        <ele>-3.400000095367431640625</ele>
        <time>2018-09-05T06:36:04.000Z</time>
      </trkpt>
      <trkpt lat="43.47937448881566524505615234375" lon="-3.51780689321458339691162109375">
        <ele>-3</ele>
        <time>2018-09-05T06:36:11.000Z</time>
      </trkpt>
      <trkpt lat="43.47952486015856266021728515625" lon="-3.5178188793361186981201171875">
        <ele>-2.2000000476837158203125</ele>
        <time>2018-09-05T06:36:15.000Z</time>
      </trkpt>
      <trkpt lat="43.47961404360830783843994140625" lon="-3.51782734505832195281982421875">
        <ele>-1.60000002384185791015625</ele>
        <time>2018-09-05T06:36:18.000Z</time>
      </trkpt>
      <trkpt lat="43.4796684421598911285400390625" lon="-3.51783790625631809234619140625">
        <ele>-0.800000011920928955078125</ele>
        <time>2018-09-05T06:36:20.000Z</time>
      </trkpt>
      <trkpt lat="43.479769863188266754150390625" lon="-3.51784796454012393951416015625">
        <ele>0.20000000298023223876953125</ele>
        <time>2018-09-05T06:36:24.000Z</time>
      </trkpt>
      <trkpt lat="43.47981319762766361236572265625" lon="-3.51786129176616668701171875">
        <ele>0.4000000059604644775390625</ele>
        <time>2018-09-05T06:36:26.000Z</time>
      </trkpt>
      <trkpt lat="43.47985208965837955474853515625" lon="-3.5178681649267673492431640625">
        <ele>0.800000011920928955078125</ele>
        <time>2018-09-05T06:36:28.000Z</time>
      </trkpt>
      <trkpt lat="43.4798934124410152435302734375" lon="-3.5178644768893718719482421875">
        <ele>1.2000000476837158203125</ele>
        <time>2018-09-05T06:36:31.000Z</time>
      </trkpt>
      <trkpt lat="43.47990388981997966766357421875" lon="-3.517868332564830780029296875">
        <ele>1.39999997615814208984375</ele>
        <time>2018-09-05T06:36:32.000Z</time>
      </trkpt>
      <trkpt lat="43.47991294227540493011474609375" lon="-3.51798593066632747650146484375">
        <ele>2.2000000476837158203125</ele>
        <time>2018-09-05T06:41:39.000Z</time>
      </trkpt>
      <trkpt lat="43.47990858368575572967529296875" lon="-3.51800143718719482421875">
        <ele>2.2000000476837158203125</ele>
        <time>2018-09-05T06:41:40.000Z</time>
      </trkpt>
      <trkpt lat="43.47989550791680812835693359375" lon="-3.518037982285022735595703125">
        <ele>2.2000000476837158203125</ele>
        <time>2018-09-05T06:41:42.000Z</time>
      </trkpt>
      <trkpt lat="43.479873798787593841552734375" lon="-3.5180860944092273712158203125">
        <ele>2.2000000476837158203125</ele>
        <time>2018-09-05T06:41:45.000Z</time>
      </trkpt>
      <trkpt lat="43.47986566834151744842529296875" lon="-3.51809556595981121063232421875">
        <ele>2.2000000476837158203125</ele>
        <time>2018-09-05T06:41:46.000Z</time>
      </trkpt>
      <trkpt lat="43.47985871136188507080078125" lon="-3.5181047022342681884765625">
        <ele>2.2000000476837158203125</ele>
        <time>2018-09-05T06:41:47.000Z</time>
      </trkpt>
      <trkpt lat="43.47983867861330509185791015625" lon="-3.51812439970672130584716796875">
        <ele>2.599999904632568359375</ele>
        <time>2018-09-05T06:41:50.000Z</time>
      </trkpt>
      <trkpt lat="43.4798313863575458526611328125" lon="-3.5181259922683238983154296875">
        <ele>2.599999904632568359375</ele>
        <time>2018-09-05T06:41:53.000Z</time>
      </trkpt>
      <trkpt lat="43.47984203137457370758056640625" lon="-3.51805709302425384521484375">
        <ele>0.20000000298023223876953125</ele>
        <time>2018-09-05T07:15:14.000Z</time>
      </trkpt>
      <trkpt lat="43.47986181266605854034423828125" lon="-3.51803437806665897369384765625">
        <ele>0</ele>
        <time>2018-09-05T07:15:15.000Z</time>
      </trkpt>
      <trkpt lat="43.4798783250153064727783203125" lon="-3.518004454672336578369140625">
        <ele>0</ele>
        <time>2018-09-05T07:15:16.000Z</time>
      </trkpt>
      <trkpt lat="43.47989760339260101318359375" lon="-3.5178876109421253204345703125">
        <ele>-0.4000000059604644775390625</ele>
        <time>2018-09-05T07:15:19.000Z</time>
      </trkpt>
      <trkpt lat="43.47989349626004695892333984375" lon="-3.517826087772846221923828125">
        <ele>-0.60000002384185791015625</ele>
        <time>2018-09-05T07:15:21.000Z</time>
      </trkpt>
      <trkpt lat="43.479902632534503936767578125" lon="-3.51787981577217578887939453125">
        <ele>-0.800000011920928955078125</ele>
        <time>2018-09-05T07:16:33.000Z</time>
      </trkpt>
      <trkpt lat="43.479887880384922027587890625" lon="-3.51790160872042179107666015625">
        <ele>-0.800000011920928955078125</ele>
        <time>2018-09-05T07:16:34.000Z</time>
      </trkpt>
      <trkpt lat="43.4798781573772430419921875" lon="-3.517925329506397247314453125">
        <ele>-0.60000002384185791015625</ele>
        <time>2018-09-05T07:16:35.000Z</time>
      </trkpt>
      <trkpt lat="43.47987187094986438751220703125" lon="-3.5179513134062290191650390625">
        <ele>-0.60000002384185791015625</ele>
        <time>2018-09-05T07:16:36.000Z</time>
      </trkpt>
      <trkpt lat="43.479864411056041717529296875" lon="-3.517976962029933929443359375">
        <ele>-0.60000002384185791015625</ele>
        <time>2018-09-05T07:16:37.000Z</time>
      </trkpt>
      <trkpt lat="43.4798566997051239013671875" lon="-3.51805885322391986846923828125">
        <ele>-0.20000000298023223876953125</ele>
        <time>2018-09-05T07:16:41.000Z</time>
      </trkpt>
      <trkpt lat="43.47989299334585666656494140625" lon="-3.518115095794200897216796875">
        <ele>0</ele>
        <time>2018-09-05T07:16:47.000Z</time>
      </trkpt>
      <trkpt lat="43.47992786206305027008056640625" lon="-3.518135547637939453125">
        <ele>0.20000000298023223876953125</ele>
        <time>2018-09-05T07:17:25.000Z</time>
      </trkpt>
      <trkpt lat="43.4799344837665557861328125" lon="-3.5181394033133983612060546875">
        <ele>0.4000000059604644775390625</ele>
        <time>2018-09-05T07:17:26.000Z</time>
      </trkpt>
      <trkpt lat="43.47996826283633708953857421875" lon="-3.5181679017841815948486328125">
        <ele>0.4000000059604644775390625</ele>
        <time>2018-09-05T07:17:28.000Z</time>
      </trkpt>
      <trkpt lat="43.4799799136817455291748046875" lon="-3.518191874027252197265625">
        <ele>0.4000000059604644775390625</ele>
        <time>2018-09-05T07:17:29.000Z</time>
      </trkpt>
      <trkpt lat="43.480004556477069854736328125" lon="-3.51824644021689891815185546875">
        <ele>0.800000011920928955078125</ele>
        <time>2018-09-05T07:17:31.000Z</time>
      </trkpt>
      <trkpt lat="43.480017296969890594482421875" lon="-3.5182735137641429901123046875">
        <ele>1.2000000476837158203125</ele>
        <time>2018-09-05T07:17:32.000Z</time>
      </trkpt>
      <trkpt lat="43.48002894781529903411865234375" lon="-3.5182983241975307464599609375">
        <ele>1.2000000476837158203125</ele>
        <time>2018-09-05T07:17:33.000Z</time>
      </trkpt>
      <trkpt lat="43.48006431944668292999267578125" lon="-3.51837803609669208526611328125">
        <ele>1.7999999523162841796875</ele>
        <time>2018-09-05T07:17:36.000Z</time>
      </trkpt>
      <trkpt lat="43.48007454536855220794677734375" lon="-3.51840603165328502655029296875">
        <ele>2</ele>
        <time>2018-09-05T07:17:37.000Z</time>
      </trkpt>
      <trkpt lat="43.48010572604835033416748046875" lon="-3.518493957817554473876953125">
        <ele>2.400000095367431640625</ele>
        <time>2018-09-05T07:17:40.000Z</time>
      </trkpt>
      <trkpt lat="43.4801475517451763153076171875" lon="-3.51859948597848415374755859375">
        <ele>3.2000000476837158203125</ele>
        <time>2018-09-05T07:17:44.000Z</time>
      </trkpt>
      <trkpt lat="43.4801589511334896087646484375" lon="-3.51862262003123760223388671875">
        <ele>3.400000095367431640625</ele>
        <time>2018-09-05T07:17:45.000Z</time>
      </trkpt>
      <trkpt lat="43.4801753796637058258056640625" lon="-3.518670313060283660888671875">
        <ele>3</ele>
        <time>2018-09-05T07:17:47.000Z</time>
      </trkpt>
      <trkpt lat="43.4801946580410003662109375" lon="-3.51871700026094913482666015625">
        <ele>4.80000019073486328125</ele>
        <time>2018-09-05T07:17:49.000Z</time>
      </trkpt>
      <trkpt lat="43.48021888174116611480712890625" lon="-3.5187827982008457183837890625">
        <ele>4.80000019073486328125</ele>
        <time>2018-09-05T07:17:52.000Z</time>
      </trkpt>
      <trkpt lat="43.48023178987205028533935546875" lon="-3.51883250288665294647216796875">
        <ele>5.19999980926513671875</ele>
        <time>2018-09-05T07:17:54.000Z</time>
      </trkpt>
      <trkpt lat="43.48026229999959468841552734375" lon="-3.51892068050801753997802734375">
        <ele>5.80000019073486328125</ele>
        <time>2018-09-05T07:17:58.000Z</time>
      </trkpt>
      <trkpt lat="43.4802840091288089752197265625" lon="-3.51899192668497562408447265625">
        <ele>6.19999980926513671875</ele>
        <time>2018-09-05T07:18:01.000Z</time>
      </trkpt>
      <trkpt lat="43.480327762663364410400390625" lon="-3.51911782287061214447021484375">
        <ele>6.80000019073486328125</ele>
        <time>2018-09-05T07:18:06.000Z</time>
      </trkpt>
      <trkpt lat="43.4803448617458343505859375" lon="-3.519173562526702880859375">
        <ele>7.400000095367431640625</ele>
        <time>2018-09-05T07:18:08.000Z</time>
      </trkpt>
      <trkpt lat="43.48037126474082469940185546875" lon="-3.5192572139203548431396484375">
        <ele>7.80000019073486328125</ele>
        <time>2018-09-05T07:18:11.000Z</time>
      </trkpt>
      <trkpt lat="43.48040848039090633392333984375" lon="-3.51936944760382175445556640625">
        <ele>8.6000003814697265625</ele>
        <time>2018-09-05T07:18:15.000Z</time>
      </trkpt>
      <trkpt lat="43.48041200079023838043212890625" lon="-3.51940331049263477325439453125">
        <ele>8.80000019073486328125</ele>
        <time>2018-09-05T07:18:16.000Z</time>
      </trkpt>
      <trkpt lat="43.48041585646569728851318359375" lon="-3.51943315006792545318603515625">
        <ele>9</ele>
        <time>2018-09-05T07:18:17.000Z</time>
      </trkpt>
      <trkpt lat="43.48043647594749927520751953125" lon="-3.519553430378437042236328125">
        <ele>10</ele>
        <time>2018-09-05T07:18:21.000Z</time>
      </trkpt>
      <trkpt lat="43.4804606996476650238037109375" lon="-3.51966063492000102996826171875">
        <ele>10.19999980926513671875</ele>
        <time>2018-09-05T07:18:25.000Z</time>
      </trkpt>
      <trkpt lat="43.480482995510101318359375" lon="-3.5199120081961154937744140625">
        <ele>10.80000019073486328125</ele>
        <time>2018-09-05T07:18:32.000Z</time>
      </trkpt>
      <trkpt lat="43.4805012680590152740478515625" lon="-3.5200249962508678436279296875">
        <ele>11.19999980926513671875</ele>
        <time>2018-09-05T07:18:35.000Z</time>
      </trkpt>
      <trkpt lat="43.48052113316953182220458984375" lon="-3.52014075033366680145263671875">
        <ele>12</ele>
        <time>2018-09-05T07:18:38.000Z</time>
      </trkpt>
      <trkpt lat="43.48052901215851306915283203125" lon="-3.52018048055469989776611328125">
        <ele>12.19999980926513671875</ele>
        <time>2018-09-05T07:18:39.000Z</time>
      </trkpt>
      <trkpt lat="43.48050252534449100494384765625" lon="-3.52034007199108600616455078125">
        <ele>12.3999996185302734375</ele>
        <time>2018-09-05T07:18:43.000Z</time>
      </trkpt>
      <trkpt lat="43.480450473725795745849609375" lon="-3.52037762291729450225830078125">
        <ele>12.6000003814697265625</ele>
        <time>2018-09-05T07:18:45.000Z</time>
      </trkpt>
      <trkpt lat="43.48042138852179050445556640625" lon="-3.5203792154788970947265625">
        <ele>12.6000003814697265625</ele>
        <time>2018-09-05T07:18:46.000Z</time>
      </trkpt>
      <trkpt lat="43.4802712686359882354736328125" lon="-3.5203217156231403350830078125">
        <ele>12.3999996185302734375</ele>
        <time>2018-09-05T07:18:51.000Z</time>
      </trkpt>
      <trkpt lat="43.48017546348273754119873046875" lon="-3.5203193686902523040771484375">
        <ele>12.3999996185302734375</ele>
        <time>2018-09-05T07:18:54.000Z</time>
      </trkpt>
      <trkpt lat="43.48014428280293941497802734375" lon="-3.52033236064016819000244140625">
        <ele>12.3999996185302734375</ele>
        <time>2018-09-05T07:18:55.000Z</time>
      </trkpt>
      <trkpt lat="43.480054847896099090576171875" lon="-3.52038516663014888763427734375">
        <ele>12.3999996185302734375</ele>
        <time>2018-09-05T07:18:58.000Z</time>
      </trkpt>
      <trkpt lat="43.47994043491780757904052734375" lon="-3.52041483856737613677978515625">
        <ele>12.3999996185302734375</ele>
        <time>2018-09-05T07:19:01.000Z</time>
      </trkpt>
      <trkpt lat="43.47989919595420360565185546875" lon="-3.52041835896670818328857421875">
        <ele>12.19999980926513671875</ele>
        <time>2018-09-05T07:19:02.000Z</time>
      </trkpt>
      <trkpt lat="43.47981512546539306640625" lon="-3.52043009363114833831787109375">
        <ele>11.80000019073486328125</ele>
        <time>2018-09-05T07:19:04.000Z</time>
      </trkpt>
      <trkpt lat="43.4797737188637256622314453125" lon="-3.52044451050460338592529296875">
        <ele>11.6000003814697265625</ele>
        <time>2018-09-05T07:19:05.000Z</time>
      </trkpt>
      <trkpt lat="43.47966349683701992034912109375" lon="-3.52052832953631877899169921875">
        <ele>11.80000019073486328125</ele>
        <time>2018-09-05T07:19:08.000Z</time>
      </trkpt>
      <trkpt lat="43.47962913103401660919189453125" lon="-3.52055800147354602813720703125">
        <ele>12</ele>
        <time>2018-09-05T07:19:09.000Z</time>
      </trkpt>
      <trkpt lat="43.4794961102306842803955078125" lon="-3.52075363509356975555419921875">
        <ele>12.19999980926513671875</ele>
        <time>2018-09-05T07:19:14.000Z</time>
      </trkpt>
      <trkpt lat="43.479359149932861328125" lon="-3.52104951627552509307861328125">
        <ele>11.6000003814697265625</ele>
        <time>2018-09-05T07:19:21.000Z</time>
      </trkpt>
      <trkpt lat="43.479355461895465850830078125" lon="-3.52107030339539051055908203125">
        <ele>10.6000003814697265625</ele>
        <time>2018-09-05T07:19:22.000Z</time>
      </trkpt>
      <trkpt lat="43.479339368641376495361328125" lon="-3.52115144021809101104736328125">
        <ele>11.19999980926513671875</ele>
        <time>2018-09-05T07:19:25.000Z</time>
      </trkpt>
      <trkpt lat="43.479224033653736114501953125" lon="-3.52142058312892913818359375">
        <ele>10.80000019073486328125</ele>
        <time>2018-09-05T07:19:30.000Z</time>
      </trkpt>
      <trkpt lat="43.479124121367931365966796875" lon="-3.521772958338260650634765625">
        <ele>11.3999996185302734375</ele>
        <time>2018-09-05T07:19:36.000Z</time>
      </trkpt>
      <trkpt lat="43.479095958173274993896484375" lon="-3.52182559669017791748046875">
        <ele>11.6000003814697265625</ele>
        <time>2018-09-05T07:19:37.000Z</time>
      </trkpt>
      <trkpt lat="43.4789908491075038909912109375" lon="-3.5219253413379192352294921875">
        <ele>11.3999996185302734375</ele>
        <time>2018-09-05T07:19:40.000Z</time>
      </trkpt>
      <trkpt lat="43.478953801095485687255859375" lon="-3.5219695977866649627685546875">
        <ele>11.19999980926513671875</ele>
        <time>2018-09-05T07:19:41.000Z</time>
      </trkpt>
      <trkpt lat="43.47889990545809268951416015625" lon="-3.52208551950752735137939453125">
        <ele>10.6000003814697265625</ele>
        <time>2018-09-05T07:19:43.000Z</time>
      </trkpt>
      <trkpt lat="43.4788803756237030029296875" lon="-3.52214385755360126495361328125">
        <ele>10.3999996185302734375</ele>
        <time>2018-09-05T07:19:44.000Z</time>
      </trkpt>
      <trkpt lat="43.47875791601836681365966796875" lon="-3.52251760661602020263671875">
        <ele>9.6000003814697265625</ele>
        <time>2018-09-05T07:19:50.000Z</time>
      </trkpt>
      <trkpt lat="43.47874500788748264312744140625" lon="-3.52258256636559963226318359375">
        <ele>9.19999980926513671875</ele>
        <time>2018-09-05T07:19:51.000Z</time>
      </trkpt>
      <trkpt lat="43.47873981110751628875732421875" lon="-3.52264710702002048492431640625">
        <ele>9</ele>
        <time>2018-09-05T07:19:52.000Z</time>
      </trkpt>
      <trkpt lat="43.47873142920434474945068359375" lon="-3.52284349501132965087890625">
        <ele>9.3999996185302734375</ele>
        <time>2018-09-05T07:19:55.000Z</time>
      </trkpt>
      <trkpt lat="43.47873025573790073394775390625" lon="-3.5229757614433765411376953125">
        <ele>9.3999996185302734375</ele>
        <time>2018-09-05T07:19:57.000Z</time>
      </trkpt>
      <trkpt lat="43.47876763902604579925537109375" lon="-3.52323903702199459075927734375">
        <ele>9.19999980926513671875</ele>
        <time>2018-09-05T07:20:01.000Z</time>
      </trkpt>
      <trkpt lat="43.47877912223339080810546875" lon="-3.5233086906373500823974609375">
        <ele>9.19999980926513671875</ele>
        <time>2018-09-05T07:20:02.000Z</time>
      </trkpt>
      <trkpt lat="43.4788513742387294769287109375" lon="-3.523727618157863616943359375">
        <ele>9</ele>
        <time>2018-09-05T07:20:08.000Z</time>
      </trkpt>
      <trkpt lat="43.4788510389626026153564453125" lon="-3.5237990319728851318359375">
        <ele>8.80000019073486328125</ele>
        <time>2018-09-05T07:20:09.000Z</time>
      </trkpt>
      <trkpt lat="43.47884123213589191436767578125" lon="-3.52386801503598690032958984375">
        <ele>8.80000019073486328125</ele>
        <time>2018-09-05T07:20:10.000Z</time>
      </trkpt>
      <trkpt lat="43.4787330217659473419189453125" lon="-3.5241281054913997650146484375">
        <ele>8.3999996185302734375</ele>
        <time>2018-09-05T07:20:15.000Z</time>
      </trkpt>
      <trkpt lat="43.47869471646845340728759765625" lon="-3.52419373579323291778564453125">
        <ele>7.599999904632568359375</ele>
        <time>2018-09-05T07:20:16.000Z</time>
      </trkpt>
      <trkpt lat="43.47849740646779537200927734375" lon="-3.524553738534450531005859375">
        <ele>7.19999980926513671875</ele>
        <time>2018-09-05T07:20:21.000Z</time>
      </trkpt>
      <trkpt lat="43.47846639342606067657470703125" lon="-3.52463386952877044677734375">
        <ele>7.19999980926513671875</ele>
        <time>2018-09-05T07:20:22.000Z</time>
      </trkpt>
      <trkpt lat="43.47841970622539520263671875" lon="-3.52478415705263614654541015625">
        <ele>7.19999980926513671875</ele>
        <time>2018-09-05T07:20:24.000Z</time>
      </trkpt>
      <trkpt lat="43.47840101458132266998291015625" lon="-3.52485892362892627716064453125">
        <ele>7.19999980926513671875</ele>
        <time>2018-09-05T07:20:25.000Z</time>
      </trkpt>
      <trkpt lat="43.478391878306865692138671875" lon="-3.52493503130972385406494140625">
        <ele>7</ele>
        <time>2018-09-05T07:20:26.000Z</time>
      </trkpt>
      <trkpt lat="43.47843269817531108856201171875" lon="-3.5250581614673137664794921875">
        <ele>7.19999980926513671875</ele>
        <time>2018-09-05T07:20:28.000Z</time>
      </trkpt>
      <trkpt lat="43.47854442894458770751953125" lon="-3.52518263272941112518310546875">
        <ele>8</ele>
        <time>2018-09-05T07:20:31.000Z</time>
      </trkpt>
      <trkpt lat="43.47858374007046222686767578125" lon="-3.52522085420787334442138671875">
        <ele>8.19999980926513671875</ele>
        <time>2018-09-05T07:20:32.000Z</time>
      </trkpt>
      <trkpt lat="43.478657416999340057373046875" lon="-3.52530048228800296783447265625">
        <ele>8.19999980926513671875</ele>
        <time>2018-09-05T07:20:34.000Z</time>
      </trkpt>
      <trkpt lat="43.4787967242300510406494140625" lon="-3.52545998990535736083984375">
        <ele>8.80000019073486328125</ele>
        <time>2018-09-05T07:20:38.000Z</time>
      </trkpt>
      <trkpt lat="43.47883201204240322113037109375" lon="-3.5254950262606143951416015625">
        <ele>9</ele>
        <time>2018-09-05T07:20:39.000Z</time>
      </trkpt>
      <trkpt lat="43.4788993187248706817626953125" lon="-3.525566272437572479248046875">
        <ele>9.80000019073486328125</ele>
        <time>2018-09-05T07:20:41.000Z</time>
      </trkpt>
      <trkpt lat="43.47896285355091094970703125" lon="-3.52563969790935516357421875">
        <ele>10.19999980926513671875</ele>
        <time>2018-09-05T07:20:43.000Z</time>
      </trkpt>
      <trkpt lat="43.4789874963462352752685546875" lon="-3.52568504400551319122314453125">
        <ele>10.6000003814697265625</ele>
        <time>2018-09-05T07:20:44.000Z</time>
      </trkpt>
      <trkpt lat="43.4790119715034961700439453125" lon="-3.5257950983941555023193359375">
        <ele>10.80000019073486328125</ele>
        <time>2018-09-05T07:20:46.000Z</time>
      </trkpt>
      <trkpt lat="43.479018509387969970703125" lon="-3.52585335262119770050048828125">
        <ele>11</ele>
        <time>2018-09-05T07:20:47.000Z</time>
      </trkpt>
      <trkpt lat="43.47902345471084117889404296875" lon="-3.525914289057254791259765625">
        <ele>10.80000019073486328125</ele>
        <time>2018-09-05T07:20:48.000Z</time>
      </trkpt>
      <trkpt lat="43.47903887741267681121826171875" lon="-3.526130206882953643798828125">
        <ele>11.3999996185302734375</ele>
        <time>2018-09-05T07:20:52.000Z</time>
      </trkpt>
      <trkpt lat="43.47903753630816936492919921875" lon="-3.52623908780515193939208984375">
        <ele>12</ele>
        <time>2018-09-05T07:20:54.000Z</time>
      </trkpt>
      <trkpt lat="43.4790766797959804534912109375" lon="-3.5264817439019680023193359375">
        <ele>12.80000019073486328125</ele>
        <time>2018-09-05T07:20:59.000Z</time>
      </trkpt>
      <trkpt lat="43.47914884798228740692138671875" lon="-3.52660353295505046844482421875">
        <ele>13</ele>
        <time>2018-09-05T07:21:02.000Z</time>
      </trkpt>
      <trkpt lat="43.4792208485305309295654296875" lon="-3.5267295129597187042236328125">
        <ele>13.3999996185302734375</ele>
        <time>2018-09-05T07:21:05.000Z</time>
      </trkpt>
      <trkpt lat="43.47926326096057891845703125" lon="-3.52686169557273387908935546875">
        <ele>13.80000019073486328125</ele>
        <time>2018-09-05T07:21:08.000Z</time>
      </trkpt>
      <trkpt lat="43.4792724810540676116943359375" lon="-3.5269130766391754150390625">
        <ele>13.6000003814697265625</ele>
        <time>2018-09-05T07:21:09.000Z</time>
      </trkpt>
      <trkpt lat="43.479307182133197784423828125" lon="-3.52733409963548183441162109375">
        <ele>13.80000019073486328125</ele>
        <time>2018-09-05T07:21:16.000Z</time>
      </trkpt>
      <trkpt lat="43.47934372723102569580078125" lon="-3.5275192558765411376953125">
        <ele>13.6000003814697265625</ele>
        <time>2018-09-05T07:21:19.000Z</time>
      </trkpt>
      <trkpt lat="43.47939074970781803131103515625" lon="-3.52770625613629817962646484375">
        <ele>13</ele>
        <time>2018-09-05T07:21:22.000Z</time>
      </trkpt>
      <trkpt lat="43.479488901793956756591796875" lon="-3.5280769877135753631591796875">
        <ele>14.19999980926513671875</ele>
        <time>2018-09-05T07:21:28.000Z</time>
      </trkpt>
      <trkpt lat="43.479529805481433868408203125" lon="-3.52817463688552379608154296875">
        <ele>14.19999980926513671875</ele>
        <time>2018-09-05T07:21:30.000Z</time>
      </trkpt>
      <trkpt lat="43.47953843884170055389404296875" lon="-3.528196178376674652099609375">
        <ele>14.19999980926513671875</ele>
        <time>2018-09-05T07:21:31.000Z</time>
      </trkpt>
      <trkpt lat="43.4795750677585601806640625" lon="-3.52827471680939197540283203125">
        <ele>14.3999996185302734375</ele>
        <time>2018-09-05T07:21:34.000Z</time>
      </trkpt>
      <trkpt lat="43.47960180602967739105224609375" lon="-3.52830204181373119354248046875">
        <ele>14.19999980926513671875</ele>
        <time>2018-09-05T07:21:35.000Z</time>
      </trkpt>
      <trkpt lat="43.479658551514148712158203125" lon="-3.52846716530621051788330078125">
        <ele>14.3999996185302734375</ele>
        <time>2018-09-05T07:21:39.000Z</time>
      </trkpt>
      <trkpt lat="43.4796206653118133544921875" lon="-3.5286077298223972320556640625">
        <ele>14.3999996185302734375</ele>
        <time>2018-09-05T07:21:42.000Z</time>
      </trkpt>
      <trkpt lat="43.479612283408641815185546875" lon="-3.528654836118221282958984375">
        <ele>14.3999996185302734375</ele>
        <time>2018-09-05T07:21:43.000Z</time>
      </trkpt>
      <trkpt lat="43.479557298123836517333984375" lon="-3.5289577580988407135009765625">
        <ele>14.3999996185302734375</ele>
        <time>2018-09-05T07:21:49.000Z</time>
      </trkpt>
      <trkpt lat="43.47954665310680866241455078125" lon="-3.52901995182037353515625">
        <ele>14.3999996185302734375</ele>
        <time>2018-09-05T07:21:50.000Z</time>
      </trkpt>
      <trkpt lat="43.47953106276690959930419921875" lon="-3.52908097207546234130859375">
        <ele>14.3999996185302734375</ele>
        <time>2018-09-05T07:21:51.000Z</time>
      </trkpt>
      <trkpt lat="43.47947557456791400909423828125" lon="-3.52926864288747310638427734375">
        <ele>14.3999996185302734375</ele>
        <time>2018-09-05T07:21:54.000Z</time>
      </trkpt>
      <trkpt lat="43.479449339210987091064453125" lon="-3.5293302498757839202880859375">
        <ele>14.3999996185302734375</ele>
        <time>2018-09-05T07:21:55.000Z</time>
      </trkpt>
      <trkpt lat="43.47930726595222949981689453125" lon="-3.5296420566737651824951171875">
        <ele>14.19999980926513671875</ele>
        <time>2018-09-05T07:22:00.000Z</time>
      </trkpt>
      <trkpt lat="43.47927239723503589630126953125" lon="-3.52969762869179248809814453125">
        <ele>14</ele>
        <time>2018-09-05T07:22:01.000Z</time>
      </trkpt>
      <trkpt lat="43.4791217744350433349609375" lon="-3.5299126245081424713134765625">
        <ele>14</ele>
        <time>2018-09-05T07:22:05.000Z</time>
      </trkpt>
      <trkpt lat="43.47904424183070659637451171875" lon="-3.53001479990780353546142578125">
        <ele>13.80000019073486328125</ele>
        <time>2018-09-05T07:22:07.000Z</time>
      </trkpt>
      <trkpt lat="43.4789677150547504425048828125" lon="-3.5301131196320056915283203125">
        <ele>13.80000019073486328125</ele>
        <time>2018-09-05T07:22:09.000Z</time>
      </trkpt>
      <trkpt lat="43.47882580943405628204345703125" lon="-3.5302945040166378021240234375">
        <ele>13.3999996185302734375</ele>
        <time>2018-09-05T07:22:13.000Z</time>
      </trkpt>
      <trkpt lat="43.47874886356294155120849609375" lon="-3.53037513792514801025390625">
        <ele>13.19999980926513671875</ele>
        <time>2018-09-05T07:22:15.000Z</time>
      </trkpt>
      <trkpt lat="43.47867292352020740509033203125" lon="-3.530462644994258880615234375">
        <ele>13.6000003814697265625</ele>
        <time>2018-09-05T07:22:17.000Z</time>
      </trkpt>
      <trkpt lat="43.47852372564375400543212890625" lon="-3.53064897470176219940185546875">
        <ele>13.3999996185302734375</ele>
        <time>2018-09-05T07:22:21.000Z</time>
      </trkpt>
      <trkpt lat="43.47823119722306728363037109375" lon="-3.531022556126117706298828125">
        <ele>14</ele>
        <time>2018-09-05T07:22:29.000Z</time>
      </trkpt>
      <trkpt lat="43.478111587464809417724609375" lon="-3.5311524756252765655517578125">
        <ele>14.3999996185302734375</ele>
        <time>2018-09-05T07:22:34.000Z</time>
      </trkpt>
      <trkpt lat="43.47809993661940097808837890625" lon="-3.53113059885799884796142578125">
        <ele>14.3999996185302734375</ele>
        <time>2018-09-05T07:22:35.000Z</time>
      </trkpt>
      <trkpt lat="43.47810865379869937896728515625" lon="-3.531077541410923004150390625">
        <ele>14.3999996185302734375</ele>
        <time>2018-09-05T07:22:37.000Z</time>
      </trkpt>
      <trkpt lat="43.47808786667883396148681640625" lon="-3.5309761203825473785400390625">
        <ele>13.80000019073486328125</ele>
        <time>2018-09-05T07:22:40.000Z</time>
      </trkpt>
      <trkpt lat="43.4779437817633152008056640625" lon="-3.53099565021693706512451171875">
        <ele>13.19999980926513671875</ele>
        <time>2018-09-05T07:22:43.000Z</time>
      </trkpt>
      <trkpt lat="43.477892987430095672607421875" lon="-3.53100679814815521240234375">
        <ele>13</ele>
        <time>2018-09-05T07:22:44.000Z</time>
      </trkpt>
      <trkpt lat="43.477683104574680328369140625" lon="-3.53101140819489955902099609375">
        <ele>12.6000003814697265625</ele>
        <time>2018-09-05T07:22:48.000Z</time>
      </trkpt>
      <trkpt lat="43.4775957651436328887939453125" lon="-3.530989028513431549072265625">
        <ele>12.3999996185302734375</ele>
        <time>2018-09-05T07:22:50.000Z</time>
      </trkpt>
      <trkpt lat="43.477554023265838623046875" lon="-3.53097251616418361663818359375">
        <ele>12.6000003814697265625</ele>
        <time>2018-09-05T07:22:51.000Z</time>
      </trkpt>
      <trkpt lat="43.47746173851191997528076171875" lon="-3.5309337079524993896484375">
        <ele>12.80000019073486328125</ele>
        <time>2018-09-05T07:22:53.000Z</time>
      </trkpt>
      <trkpt lat="43.4773832000792026519775390625" lon="-3.5308720171451568603515625">
        <ele>13</ele>
        <time>2018-09-05T07:22:55.000Z</time>
      </trkpt>
      <trkpt lat="43.4772254526615142822265625" lon="-3.53081258945167064666748046875">
        <ele>14</ele>
        <time>2018-09-05T07:22:59.000Z</time>
      </trkpt>
      <trkpt lat="43.4769962914288043975830078125" lon="-3.5307575203478336334228515625">
        <ele>14.19999980926513671875</ele>
        <time>2018-09-05T07:23:04.000Z</time>
      </trkpt>
      <trkpt lat="43.47685991786420345306396484375" lon="-3.5307082347571849822998046875">
        <ele>14.19999980926513671875</ele>
        <time>2018-09-05T07:23:07.000Z</time>
      </trkpt>
      <trkpt lat="43.4768088720738887786865234375" lon="-3.530701361596584320068359375">
        <ele>14.19999980926513671875</ele>
        <time>2018-09-05T07:23:08.000Z</time>
      </trkpt>
      <trkpt lat="43.4765817224979400634765625" lon="-3.53069172240793704986572265625">
        <ele>13.80000019073486328125</ele>
        <time>2018-09-05T07:23:12.000Z</time>
      </trkpt>
      <trkpt lat="43.47630855627357959747314453125" lon="-3.53064729832112789154052734375">
        <ele>13</ele>
        <time>2018-09-05T07:23:17.000Z</time>
      </trkpt>
      <trkpt lat="43.47619674168527126312255859375" lon="-3.53062097914516925811767578125">
        <ele>12.6000003814697265625</ele>
        <time>2018-09-05T07:23:19.000Z</time>
      </trkpt>
      <trkpt lat="43.4761379845440387725830078125" lon="-3.5306203924119472503662109375">
        <ele>12.3999996185302734375</ele>
        <time>2018-09-05T07:23:20.000Z</time>
      </trkpt>
      <trkpt lat="43.4760300256311893463134765625" lon="-3.530612848699092864990234375">
        <ele>12</ele>
        <time>2018-09-05T07:23:22.000Z</time>
      </trkpt>
      <trkpt lat="43.475969173014163970947265625" lon="-3.530616201460361480712890625">
        <ele>11.80000019073486328125</ele>
        <time>2018-09-05T07:23:23.000Z</time>
      </trkpt>
      <trkpt lat="43.47590873949229717254638671875" lon="-3.5306167043745517730712890625">
        <ele>11.3999996185302734375</ele>
        <time>2018-09-05T07:23:24.000Z</time>
      </trkpt>
      <trkpt lat="43.475851826369762420654296875" lon="-3.53060471825301647186279296875">
        <ele>11.19999980926513671875</ele>
        <time>2018-09-05T07:23:25.000Z</time>
      </trkpt>
      <trkpt lat="43.47574629820883274078369140625" lon="-3.5305608808994293212890625">
        <ele>10.6000003814697265625</ele>
        <time>2018-09-05T07:23:27.000Z</time>
      </trkpt>
      <trkpt lat="43.47557296045124530792236328125" lon="-3.53056230582296848297119140625">
        <ele>10</ele>
        <time>2018-09-05T07:23:30.000Z</time>
      </trkpt>
      <trkpt lat="43.47544848918914794921875" lon="-3.53055560030043125152587890625">
        <ele>8.6000003814697265625</ele>
        <time>2018-09-05T07:23:32.000Z</time>
      </trkpt>
      <trkpt lat="43.47525729797780513763427734375" lon="-3.5305211506783962249755859375">
        <ele>9.6000003814697265625</ele>
        <time>2018-09-05T07:23:35.000Z</time>
      </trkpt>
      <trkpt lat="43.47519124858081340789794921875" lon="-3.53050866164267063140869140625">
        <ele>9.19999980926513671875</ele>
        <time>2018-09-05T07:23:36.000Z</time>
      </trkpt>
      <trkpt lat="43.47506023943424224853515625" lon="-3.53049986064434051513671875">
        <ele>9.19999980926513671875</ele>
        <time>2018-09-05T07:23:38.000Z</time>
      </trkpt>
      <trkpt lat="43.4748599119484424591064453125" lon="-3.5304966755211353302001953125">
        <ele>9.19999980926513671875</ele>
        <time>2018-09-05T07:23:41.000Z</time>
      </trkpt>
      <trkpt lat="43.4747955389320850372314453125" lon="-3.53050413541495800018310546875">
        <ele>9</ele>
        <time>2018-09-05T07:23:42.000Z</time>
      </trkpt>
      <trkpt lat="43.4746201895177364349365234375" lon="-3.530561216175556182861328125">
        <ele>9.3999996185302734375</ele>
        <time>2018-09-05T07:23:45.000Z</time>
      </trkpt>
      <trkpt lat="43.47456478513777256011962890625" lon="-3.53058225475251674652099609375">
        <ele>10</ele>
        <time>2018-09-05T07:23:46.000Z</time>
      </trkpt>
      <trkpt lat="43.47441223450005054473876953125" lon="-3.53064964525401592254638671875">
        <ele>10.19999980926513671875</ele>
        <time>2018-09-05T07:23:49.000Z</time>
      </trkpt>
      <trkpt lat="43.47431031055748462677001953125" lon="-3.53069054894149303436279296875">
        <ele>10.6000003814697265625</ele>
        <time>2018-09-05T07:23:51.000Z</time>
      </trkpt>
      <trkpt lat="43.47426186315715312957763671875" lon="-3.53070882149040699005126953125">
        <ele>11.3999996185302734375</ele>
        <time>2018-09-05T07:23:52.000Z</time>
      </trkpt>
      <trkpt lat="43.47418072633445262908935546875" lon="-3.5307447798550128936767578125">
        <ele>11.80000019073486328125</ele>
        <time>2018-09-05T07:23:54.000Z</time>
      </trkpt>
      <trkpt lat="43.47408617846667766571044921875" lon="-3.5308237373828887939453125">
        <ele>12.3999996185302734375</ele>
        <time>2018-09-05T07:23:58.000Z</time>
      </trkpt>
      <trkpt lat="43.473990373313426971435546875" lon="-3.53097721002995967864990234375">
        <ele>12.19999980926513671875</ele>
        <time>2018-09-05T07:24:02.000Z</time>
      </trkpt>
      <trkpt lat="43.47380203194916248321533203125" lon="-3.53103068657219409942626953125">
        <ele>11.19999980926513671875</ele>
        <time>2018-09-05T07:24:06.000Z</time>
      </trkpt>
      <trkpt lat="43.4737494774162769317626953125" lon="-3.53104812093079090118408203125">
        <ele>10.80000019073486328125</ele>
        <time>2018-09-05T07:24:07.000Z</time>
      </trkpt>
      <trkpt lat="43.47369608469307422637939453125" lon="-3.53107427246868610382080078125">
        <ele>10.80000019073486328125</ele>
        <time>2018-09-05T07:24:08.000Z</time>
      </trkpt>
      <trkpt lat="43.47354319877922534942626953125" lon="-3.53118860162794589996337890625">
        <ele>10.3999996185302734375</ele>
        <time>2018-09-05T07:24:11.000Z</time>
      </trkpt>
      <trkpt lat="43.4734886325895786285400390625" lon="-3.53122095577418804168701171875">
        <ele>10.19999980926513671875</ele>
        <time>2018-09-05T07:24:12.000Z</time>
      </trkpt>
      <trkpt lat="43.47331956960260868072509765625" lon="-3.531259931623935699462890625">
        <ele>9.6000003814697265625</ele>
        <time>2018-09-05T07:24:15.000Z</time>
      </trkpt>
      <trkpt lat="43.4731463156640529632568359375" lon="-3.53128164075314998626708984375">
        <ele>9.19999980926513671875</ele>
        <time>2018-09-05T07:24:18.000Z</time>
      </trkpt>
      <trkpt lat="43.47285571508109569549560546875" lon="-3.531310893595218658447265625">
        <ele>9</ele>
        <time>2018-09-05T07:24:23.000Z</time>
      </trkpt>
      <trkpt lat="43.4726152382791042327880859375" lon="-3.5313194431364536285400390625">
        <ele>8.80000019073486328125</ele>
        <time>2018-09-05T07:24:27.000Z</time>
      </trkpt>
      <trkpt lat="43.4725106321275234222412109375" lon="-3.5313375480473041534423828125">
        <ele>8.80000019073486328125</ele>
        <time>2018-09-05T07:24:29.000Z</time>
      </trkpt>
      <trkpt lat="43.47243008203804492950439453125" lon="-3.5313824750483036041259765625">
        <ele>9</ele>
        <time>2018-09-05T07:24:31.000Z</time>
      </trkpt>
      <trkpt lat="43.47239823080599308013916015625" lon="-3.5314200259745121002197265625">
        <ele>9.19999980926513671875</ele>
        <time>2018-09-05T07:24:32.000Z</time>
      </trkpt>
      <trkpt lat="43.4723755158483982086181640625" lon="-3.53152488358318805694580078125">
        <ele>9.19999980926513671875</ele>
        <time>2018-09-05T07:24:34.000Z</time>
      </trkpt>
      <trkpt lat="43.4723694808781147003173828125" lon="-3.53160015307366847991943359375">
        <ele>9.19999980926513671875</ele>
        <time>2018-09-05T07:24:36.000Z</time>
      </trkpt>
      <trkpt lat="43.47236487083137035369873046875" lon="-3.5316647775471210479736328125">
        <ele>9.3999996185302734375</ele>
        <time>2018-09-05T07:24:38.000Z</time>
      </trkpt>
      <trkpt lat="43.472338132560253143310546875" lon="-3.53177097626030445098876953125">
        <ele>10.19999980926513671875</ele>
        <time>2018-09-05T07:24:42.000Z</time>
      </trkpt>
      <trkpt lat="43.47231491468846797943115234375" lon="-3.5318334214389324188232421875">
        <ele>10.3999996185302734375</ele>
        <time>2018-09-05T07:24:44.000Z</time>
      </trkpt>
      <trkpt lat="43.472283147275447845458984375" lon="-3.53195286355912685394287109375">
        <ele>10.3999996185302734375</ele>
        <time>2018-09-05T07:24:47.000Z</time>
      </trkpt>
      <trkpt lat="43.4722296707332134246826171875" lon="-3.5321415401995182037353515625">
        <ele>11</ele>
        <time>2018-09-05T07:24:52.000Z</time>
      </trkpt>
      <trkpt lat="43.47215381450951099395751953125" lon="-3.53231127373874187469482421875">
        <ele>11.3999996185302734375</ele>
        <time>2018-09-05T07:24:57.000Z</time>
      </trkpt>
      <trkpt lat="43.47211659885942935943603515625" lon="-3.532374389469623565673828125">
        <ele>11.80000019073486328125</ele>
        <time>2018-09-05T07:24:59.000Z</time>
      </trkpt>
      <trkpt lat="43.4720767848193645477294921875" lon="-3.53247798979282379150390625">
        <ele>11.6000003814697265625</ele>
        <time>2018-09-05T07:25:02.000Z</time>
      </trkpt>
      <trkpt lat="43.47206111066043376922607421875" lon="-3.5325079970061779022216796875">
        <ele>11.6000003814697265625</ele>
        <time>2018-09-05T07:25:03.000Z</time>
      </trkpt>
      <trkpt lat="43.471966646611690521240234375" lon="-3.53267756290733814239501953125">
        <ele>12.19999980926513671875</ele>
        <time>2018-09-05T07:25:08.000Z</time>
      </trkpt>
      <trkpt lat="43.4719101525843143463134765625" lon="-3.53272165171802043914794921875">
        <ele>12.6000003814697265625</ele>
        <time>2018-09-05T07:25:10.000Z</time>
      </trkpt>
      <trkpt lat="43.47179708071053028106689453125" lon="-3.53281435556709766387939453125">
        <ele>13</ele>
        <time>2018-09-05T07:25:14.000Z</time>
      </trkpt>
      <trkpt lat="43.47161267884075641632080078125" lon="-3.53296657092869281768798828125">
        <ele>13</ele>
        <time>2018-09-05T07:25:20.000Z</time>
      </trkpt>
      <trkpt lat="43.471572697162628173828125" lon="-3.53300102055072784423828125">
        <ele>12.6000003814697265625</ele>
        <time>2018-09-05T07:25:21.000Z</time>
      </trkpt>
      <trkpt lat="43.47149851731956005096435546875" lon="-3.53305659256875514984130859375">
        <ele>11.6000003814697265625</ele>
        <time>2018-09-05T07:25:23.000Z</time>
      </trkpt>
      <trkpt lat="43.4714531712234020233154296875" lon="-3.53308157064020633697509765625">
        <ele>11.19999980926513671875</ele>
        <time>2018-09-05T07:25:24.000Z</time>
      </trkpt>
      <trkpt lat="43.4714058972895145416259765625" lon="-3.5331061296164989471435546875">
        <ele>11</ele>
        <time>2018-09-05T07:25:25.000Z</time>
      </trkpt>
      <trkpt lat="43.471234403550624847412109375" lon="-3.53317092172801494598388671875">
        <ele>10</ele>
        <time>2018-09-05T07:25:28.000Z</time>
      </trkpt>
      <trkpt lat="43.47110557369887828826904296875" lon="-3.533212244510650634765625">
        <ele>9.80000019073486328125</ele>
        <time>2018-09-05T07:25:30.000Z</time>
      </trkpt>
      <trkpt lat="43.47104086540639400482177734375" lon="-3.5332323610782623291015625">
        <ele>9.6000003814697265625</ele>
        <time>2018-09-05T07:25:31.000Z</time>
      </trkpt>
      <trkpt lat="43.4709033183753490447998046875" lon="-3.533271588385105133056640625">
        <ele>9</ele>
        <time>2018-09-05T07:25:33.000Z</time>
      </trkpt>
      <trkpt lat="43.4707705490291118621826171875" lon="-3.5333101451396942138671875">
        <ele>8.80000019073486328125</ele>
        <time>2018-09-05T07:25:35.000Z</time>
      </trkpt>
      <trkpt lat="43.4705972112715244293212890625" lon="-3.53336772881448268890380859375">
        <ele>8.3999996185302734375</ele>
        <time>2018-09-05T07:25:38.000Z</time>
      </trkpt>
      <trkpt lat="43.4705439023673534393310546875" lon="-3.533389605581760406494140625">
        <ele>8.3999996185302734375</ele>
        <time>2018-09-05T07:25:39.000Z</time>
      </trkpt>
      <trkpt lat="43.470349274575710296630859375" lon="-3.53348775766789913177490234375">
        <ele>8</ele>
        <time>2018-09-05T07:25:43.000Z</time>
      </trkpt>
      <trkpt lat="43.4702731668949127197265625" lon="-3.5335423238575458526611328125">
        <ele>7.599999904632568359375</ele>
        <time>2018-09-05T07:25:45.000Z</time>
      </trkpt>
      <trkpt lat="43.4701900184154510498046875" lon="-3.53360342793166637420654296875">
        <ele>7</ele>
        <time>2018-09-05T07:25:47.000Z</time>
      </trkpt>
      <trkpt lat="43.47010460682213306427001953125" lon="-3.53369730524718761444091796875">
        <ele>6</ele>
        <time>2018-09-05T07:25:49.000Z</time>
      </trkpt>
      <trkpt lat="43.47006705589592456817626953125" lon="-3.53374801576137542724609375">
        <ele>5.400000095367431640625</ele>
        <time>2018-09-05T07:25:50.000Z</time>
      </trkpt>
      <trkpt lat="43.47003369592130184173583984375" lon="-3.5338092036545276641845703125">
        <ele>5</ele>
        <time>2018-09-05T07:25:51.000Z</time>
      </trkpt>
      <trkpt lat="43.46993185579776763916015625" lon="-3.5339738242328166961669921875">
        <ele>5</ele>
        <time>2018-09-05T07:25:54.000Z</time>
      </trkpt>
      <trkpt lat="43.4698847495019435882568359375" lon="-3.53402285836637020111083984375">
        <ele>4.599999904632568359375</ele>
        <time>2018-09-05T07:25:55.000Z</time>
      </trkpt>
      <trkpt lat="43.469835631549358367919921875" lon="-3.534065186977386474609375">
        <ele>4.19999980926513671875</ele>
        <time>2018-09-05T07:25:56.000Z</time>
      </trkpt>
      <trkpt lat="43.46959314309060573577880859375" lon="-3.5342400334775447845458984375">
        <ele>3.7999999523162841796875</ele>
        <time>2018-09-05T07:26:01.000Z</time>
      </trkpt>
      <trkpt lat="43.46949641592800617218017578125" lon="-3.5342782549560070037841796875">
        <ele>3.599999904632568359375</ele>
        <time>2018-09-05T07:26:03.000Z</time>
      </trkpt>
      <trkpt lat="43.46933984197676181793212890625" lon="-3.53429828770458698272705078125">
        <ele>3.2000000476837158203125</ele>
        <time>2018-09-05T07:26:06.000Z</time>
      </trkpt>
      <trkpt lat="43.4691412746906280517578125" lon="-3.53430147282779216766357421875">
        <ele>3</ele>
        <time>2018-09-05T07:26:10.000Z</time>
      </trkpt>
      <trkpt lat="43.46909944899380207061767578125" lon="-3.53426878340542316436767578125">
        <ele>3</ele>
        <time>2018-09-05T07:26:11.000Z</time>
      </trkpt>
      <trkpt lat="43.4689843654632568359375" lon="-3.534173481166362762451171875">
        <ele>3.400000095367431640625</ele>
        <time>2018-09-05T07:26:14.000Z</time>
      </trkpt>
      <trkpt lat="43.46891672350466251373291015625" lon="-3.53413760662078857421875">
        <ele>4.400000095367431640625</ele>
        <time>2018-09-05T07:26:16.000Z</time>
      </trkpt>
      <trkpt lat="43.46888235770165920257568359375" lon="-3.53413567878305912017822265625">
        <ele>4.599999904632568359375</ele>
        <time>2018-09-05T07:26:17.000Z</time>
      </trkpt>
      <trkpt lat="43.4688185714185237884521484375" lon="-3.53415210731327533721923828125">
        <ele>5</ele>
        <time>2018-09-05T07:26:19.000Z</time>
      </trkpt>
      <trkpt lat="43.46875964663922786712646484375" lon="-3.5341739840805530548095703125">
        <ele>5.599999904632568359375</ele>
        <time>2018-09-05T07:26:21.000Z</time>
      </trkpt>
      <trkpt lat="43.4687303937971591949462890625" lon="-3.53418127633631229400634765625">
        <ele>5.80000019073486328125</ele>
        <time>2018-09-05T07:26:22.000Z</time>
      </trkpt>
      <trkpt lat="43.46858681179583072662353515625" lon="-3.5342407040297985076904296875">
        <ele>6.599999904632568359375</ele>
        <time>2018-09-05T07:26:27.000Z</time>
      </trkpt>
      <trkpt lat="43.46855814568698406219482421875" lon="-3.53424732573330402374267578125">
        <ele>6.599999904632568359375</ele>
        <time>2018-09-05T07:26:28.000Z</time>
      </trkpt>
      <trkpt lat="43.46852931194007396697998046875" lon="-3.5342557914555072784423828125">
        <ele>6.80000019073486328125</ele>
        <time>2018-09-05T07:26:29.000Z</time>
      </trkpt>
      <trkpt lat="43.4684450738131999969482421875" lon="-3.534249253571033477783203125">
        <ele>7.19999980926513671875</ele>
        <time>2018-09-05T07:26:32.000Z</time>
      </trkpt>
      <trkpt lat="43.46839570440351963043212890625" lon="-3.53424489498138427734375">
        <ele>7.80000019073486328125</ele>
        <time>2018-09-05T07:26:34.000Z</time>
      </trkpt>
      <trkpt lat="43.46837173216044902801513671875" lon="-3.53424011729657649993896484375">
        <ele>8.19999980926513671875</ele>
        <time>2018-09-05T07:26:35.000Z</time>
      </trkpt>
      <trkpt lat="43.46832311712205410003662109375" lon="-3.53424154222011566162109375">
        <ele>8.6000003814697265625</ele>
        <time>2018-09-05T07:26:37.000Z</time>
      </trkpt>
      <trkpt lat="43.46830266527831554412841796875" lon="-3.53426568210124969482421875">
        <ele>8.6000003814697265625</ele>
        <time>2018-09-05T07:26:38.000Z</time>
      </trkpt>
      <trkpt lat="43.46828573383390903472900390625" lon="-3.53432829491794109344482421875">
        <ele>9</ele>
        <time>2018-09-05T07:26:40.000Z</time>
      </trkpt>
      <trkpt lat="43.4682824648916721343994140625" lon="-3.53438847698271274566650390625">
        <ele>9.19999980926513671875</ele>
        <time>2018-09-05T07:26:42.000Z</time>
      </trkpt>
      <trkpt lat="43.4682536311447620391845703125" lon="-3.5344938375055789947509765625">
        <ele>9.6000003814697265625</ele>
        <time>2018-09-05T07:26:46.000Z</time>
      </trkpt>
      <trkpt lat="43.46823871135711669921875" lon="-3.5345922410488128662109375">
        <ele>10</ele>
        <time>2018-09-05T07:26:49.000Z</time>
      </trkpt>
      <trkpt lat="43.46822722814977169036865234375" lon="-3.53467010892927646636962890625">
        <ele>10.19999980926513671875</ele>
        <time>2018-09-05T07:26:51.000Z</time>
      </trkpt>
      <trkpt lat="43.4681795351207256317138671875" lon="-3.53483942337334156036376953125">
        <ele>10.19999980926513671875</ele>
        <time>2018-09-05T07:26:55.000Z</time>
      </trkpt>
      <trkpt lat="43.4681567363440990447998046875" lon="-3.534931205213069915771484375">
        <ele>10.19999980926513671875</ele>
        <time>2018-09-05T07:26:57.000Z</time>
      </trkpt>
      <trkpt lat="43.46814156509935855865478515625" lon="-3.53497487492859363555908203125">
        <ele>10.3999996185302734375</ele>
        <time>2018-09-05T07:26:58.000Z</time>
      </trkpt>
      <trkpt lat="43.46806797198951244354248046875" lon="-3.5351345501840114593505859375">
        <ele>11.19999980926513671875</ele>
        <time>2018-09-05T07:27:02.000Z</time>
      </trkpt>
      <trkpt lat="43.4680159203708171844482421875" lon="-3.53524267673492431640625">
        <ele>11.80000019073486328125</ele>
        <time>2018-09-05T07:27:05.000Z</time>
      </trkpt>
      <trkpt lat="43.46798482351005077362060546875" lon="-3.5353124141693115234375">
        <ele>12.19999980926513671875</ele>
        <time>2018-09-05T07:27:07.000Z</time>
      </trkpt>
      <trkpt lat="43.46791676245629787445068359375" lon="-3.535465635359287261962890625">
        <ele>12.19999980926513671875</ele>
        <time>2018-09-05T07:27:11.000Z</time>
      </trkpt>
      <trkpt lat="43.4677758626639842987060546875" lon="-3.53572639636695384979248046875">
        <ele>12</ele>
        <time>2018-09-05T07:27:16.000Z</time>
      </trkpt>
      <trkpt lat="43.467654995620250701904296875" lon="-3.535963185131549835205078125">
        <ele>11.19999980926513671875</ele>
        <time>2018-09-05T07:27:20.000Z</time>
      </trkpt>
      <trkpt lat="43.46758333034813404083251953125" lon="-3.5361559689044952392578125">
        <ele>11</ele>
        <time>2018-09-05T07:27:23.000Z</time>
      </trkpt>
      <trkpt lat="43.46756639890372753143310546875" lon="-3.5362245328724384307861328125">
        <ele>11</ele>
        <time>2018-09-05T07:27:24.000Z</time>
      </trkpt>
      <trkpt lat="43.4675187058746814727783203125" lon="-3.53635805658996105194091796875">
        <ele>11.19999980926513671875</ele>
        <time>2018-09-05T07:27:26.000Z</time>
      </trkpt>
      <trkpt lat="43.467399179935455322265625" lon="-3.536620326340198516845703125">
        <ele>10.80000019073486328125</ele>
        <time>2018-09-05T07:27:30.000Z</time>
      </trkpt>
      <trkpt lat="43.4672494791448116302490234375" lon="-3.53692869655787944793701171875">
        <ele>10.3999996185302734375</ele>
        <time>2018-09-05T07:27:35.000Z</time>
      </trkpt>
      <trkpt lat="43.4672261774539947509765625" lon="-3.5369899682700634002685546875">
        <ele>10.3999996185302734375</ele>
        <time>2018-09-05T07:27:36.000Z</time>
      </trkpt>
      <trkpt lat="43.4672072343528270721435546875" lon="-3.53704587556421756744384765625">
        <ele>10.6000003814697265625</ele>
        <time>2018-09-05T07:27:37.000Z</time>
      </trkpt>
      <trkpt lat="43.46719172783195972442626953125" lon="-3.53710119612514972686767578125">
        <ele>10.6000003814697265625</ele>
        <time>2018-09-05T07:27:38.000Z</time>
      </trkpt>
      <trkpt lat="43.467099778354167938232421875" lon="-3.53722105734050273895263671875">
        <ele>10.3999996185302734375</ele>
        <time>2018-09-05T07:27:42.000Z</time>
      </trkpt>
      <trkpt lat="43.4670607186853885650634765625" lon="-3.537227846682071685791015625">
        <ele>10.19999980926513671875</ele>
        <time>2018-09-05T07:27:43.000Z</time>
      </trkpt>
      <trkpt lat="43.46701520495116710662841796875" lon="-3.53723044507205486297607421875">
        <ele>10</ele>
        <time>2018-09-05T07:27:44.000Z</time>
      </trkpt>
      <trkpt lat="43.466907329857349395751953125" lon="-3.53722625412046909332275390625">
        <ele>9.19999980926513671875</ele>
        <time>2018-09-05T07:27:46.000Z</time>
      </trkpt>
      <trkpt lat="43.46685293130576610565185546875" lon="-3.5372186265885829925537109375">
        <ele>9</ele>
        <time>2018-09-05T07:27:47.000Z</time>
      </trkpt>
      <trkpt lat="43.4665770828723907470703125" lon="-3.53716976009309291839599609375">
        <ele>8.19999980926513671875</ele>
        <time>2018-09-05T07:27:52.000Z</time>
      </trkpt>
      <trkpt lat="43.4665207564830780029296875" lon="-3.53715240955352783203125">
        <ele>8</ele>
        <time>2018-09-05T07:27:53.000Z</time>
      </trkpt>
      <trkpt lat="43.4662808664143085479736328125" lon="-3.53711142204701900482177734375">
        <ele>7</ele>
        <time>2018-09-05T07:27:57.000Z</time>
      </trkpt>
      <trkpt lat="43.46621959470212459564208984375" lon="-3.53709868155419826507568359375">
        <ele>6.599999904632568359375</ele>
        <time>2018-09-05T07:27:58.000Z</time>
      </trkpt>
      <trkpt lat="43.46596964634954929351806640625" lon="-3.53705459274351596832275390625">
        <ele>6</ele>
        <time>2018-09-05T07:28:02.000Z</time>
      </trkpt>
      <trkpt lat="43.4658034332096576690673828125" lon="-3.53702274151146411895751953125">
        <ele>5.400000095367431640625</ele>
        <time>2018-09-05T07:28:05.000Z</time>
      </trkpt>
      <trkpt lat="43.46570695750415325164794921875" lon="-3.53706188499927520751953125">
        <ele>5.19999980926513671875</ele>
        <time>2018-09-05T07:28:08.000Z</time>
      </trkpt>
      <trkpt lat="43.46571031026542186737060546875" lon="-3.5371921397745609283447265625">
        <ele>5.400000095367431640625</ele>
        <time>2018-09-05T07:28:11.000Z</time>
      </trkpt>
      <trkpt lat="43.465729840099811553955078125" lon="-3.53729917667806148529052734375">
        <ele>5.400000095367431640625</ele>
        <time>2018-09-05T07:28:13.000Z</time>
      </trkpt>
      <trkpt lat="43.46577770076692104339599609375" lon="-3.53748877532780170440673828125">
        <ele>5.80000019073486328125</ele>
        <time>2018-09-05T07:28:17.000Z</time>
      </trkpt>
      <trkpt lat="43.465805612504482269287109375" lon="-3.53767342865467071533203125">
        <ele>6.19999980926513671875</ele>
        <time>2018-09-05T07:28:21.000Z</time>
      </trkpt>
      <trkpt lat="43.4657913632690906524658203125" lon="-3.53772447444498538970947265625">
        <ele>6.19999980926513671875</ele>
        <time>2018-09-05T07:28:22.000Z</time>
      </trkpt>
      <trkpt lat="43.46568952314555644989013671875" lon="-3.5378150828182697296142578125">
        <ele>6.19999980926513671875</ele>
        <time>2018-09-05T07:28:25.000Z</time>
      </trkpt>
      <trkpt lat="43.46561014652252197265625" lon="-3.53785171173512935638427734375">
        <ele>6.400000095367431640625</ele>
        <time>2018-09-05T07:28:27.000Z</time>
      </trkpt>
      <trkpt lat="43.465530686080455780029296875" lon="-3.53789160959422588348388671875">
        <ele>6.80000019073486328125</ele>
        <time>2018-09-05T07:28:29.000Z</time>
      </trkpt>
      <trkpt lat="43.465491794049739837646484375" lon="-3.53791306726634502410888671875">
        <ele>7</ele>
        <time>2018-09-05T07:28:30.000Z</time>
      </trkpt>
      <trkpt lat="43.4654560871422290802001953125" lon="-3.5379421524703502655029296875">
        <ele>7.19999980926513671875</ele>
        <time>2018-09-05T07:28:31.000Z</time>
      </trkpt>
      <trkpt lat="43.46542197279632091522216796875" lon="-3.53796972893178462982177734375">
        <ele>7.400000095367431640625</ele>
        <time>2018-09-05T07:28:32.000Z</time>
      </trkpt>
      <trkpt lat="43.46529674716293811798095703125" lon="-3.53807483799755573272705078125">
        <ele>8.19999980926513671875</ele>
        <time>2018-09-05T07:28:36.000Z</time>
      </trkpt>
      <trkpt lat="43.4651992656290531158447265625" lon="-3.53813418187201023101806640625">
        <ele>8.6000003814697265625</ele>
        <time>2018-09-05T07:28:39.000Z</time>
      </trkpt>
      <trkpt lat="43.46510119736194610595703125" lon="-3.5381664521992206573486328125">
        <ele>9.19999980926513671875</ele>
        <time>2018-09-05T07:28:42.000Z</time>
      </trkpt>
      <trkpt lat="43.46504763700067996978759765625" lon="-3.538202829658985137939453125">
        <ele>9.80000019073486328125</ele>
        <time>2018-09-05T07:28:44.000Z</time>
      </trkpt>
      <trkpt lat="43.46499851904809474945068359375" lon="-3.53824515827000141143798828125">
        <ele>10</ele>
        <time>2018-09-05T07:28:46.000Z</time>
      </trkpt>
      <trkpt lat="43.46495392732322216033935546875" lon="-3.5382817871868610382080078125">
        <ele>10.3999996185302734375</ele>
        <time>2018-09-05T07:28:48.000Z</time>
      </trkpt>
      <trkpt lat="43.464897014200687408447265625" lon="-3.53836543858051300048828125">
        <ele>10.80000019073486328125</ele>
        <time>2018-09-05T07:28:51.000Z</time>
      </trkpt>
      <trkpt lat="43.4648250974714756011962890625" lon="-3.53847867809236049652099609375">
        <ele>11</ele>
        <time>2018-09-05T07:28:55.000Z</time>
      </trkpt>
      <trkpt lat="43.4647771529853343963623046875" lon="-3.53854439221322536468505859375">
        <ele>11.19999980926513671875</ele>
        <time>2018-09-05T07:28:57.000Z</time>
      </trkpt>
      <trkpt lat="43.46467732451856136322021484375" lon="-3.53867548517882823944091796875">
        <ele>11.19999980926513671875</ele>
        <time>2018-09-05T07:29:02.000Z</time>
      </trkpt>
      <trkpt lat="43.46466860733926296234130859375" lon="-3.5387183167040348052978515625">
        <ele>11.3999996185302734375</ele>
        <time>2018-09-05T07:29:05.000Z</time>
      </trkpt>
      <trkpt lat="43.46468352712690830230712890625" lon="-3.5387038998305797576904296875">
        <ele>11.19999980926513671875</ele>
        <time>2018-09-05T07:29:06.000Z</time>
      </trkpt>
      <trkpt lat="43.464722335338592529296875" lon="-3.53871655650436878204345703125">
        <ele>11.3999996185302734375</ele>
        <time>2018-09-05T07:29:09.000Z</time>
      </trkpt>
      <trkpt lat="43.46472292207181453704833984375" lon="-3.53872326202690601348876953125">
        <ele>11.3999996185302734375</ele>
        <time>2018-09-05T07:29:10.000Z</time>
      </trkpt>
      <trkpt lat="43.46471604891121387481689453125" lon="-3.53873617015779018402099609375">
        <ele>11.3999996185302734375</ele>
        <time>2018-09-05T07:29:11.000Z</time>
      </trkpt>
      <trkpt lat="43.46467874944210052490234375" lon="-3.538764081895351409912109375">
        <ele>11.3999996185302734375</ele>
        <time>2018-09-05T07:29:14.000Z</time>
      </trkpt>
      <trkpt lat="43.46463390626013278961181640625" lon="-3.5387845337390899658203125">
        <ele>11.3999996185302734375</ele>
        <time>2018-09-05T07:29:16.000Z</time>
      </trkpt>
      <trkpt lat="43.4645421244204044342041015625" lon="-3.53884312324225902557373046875">
        <ele>11.19999980926513671875</ele>
        <time>2018-09-05T07:29:19.000Z</time>
      </trkpt>
      <trkpt lat="43.46445101313292980194091796875" lon="-3.53893733583390712738037109375">
        <ele>10.80000019073486328125</ele>
        <time>2018-09-05T07:29:22.000Z</time>
      </trkpt>
      <trkpt lat="43.464363254606723785400390625" lon="-3.53904269635677337646484375">
        <ele>10.3999996185302734375</ele>
        <time>2018-09-05T07:29:25.000Z</time>
      </trkpt>
      <trkpt lat="43.464336432516574859619140625" lon="-3.5390847735106945037841796875">
        <ele>10.19999980926513671875</ele>
        <time>2018-09-05T07:29:26.000Z</time>
      </trkpt>
      <trkpt lat="43.4641766734421253204345703125" lon="-3.539317287504673004150390625">
        <ele>9.6000003814697265625</ele>
        <time>2018-09-05T07:29:31.000Z</time>
      </trkpt>
      <trkpt lat="43.46412076614797115325927734375" lon="-3.53943119756877422332763671875">
        <ele>9.19999980926513671875</ele>
        <time>2018-09-05T07:29:33.000Z</time>
      </trkpt>
      <trkpt lat="43.4640569798648357391357421875" lon="-3.5396051220595836639404296875">
        <ele>9</ele>
        <time>2018-09-05T07:29:36.000Z</time>
      </trkpt>
      <trkpt lat="43.46404314972460269927978515625" lon="-3.5396681539714336395263671875">
        <ele>8.80000019073486328125</ele>
        <time>2018-09-05T07:29:37.000Z</time>
      </trkpt>
      <trkpt lat="43.4639983065426349639892578125" lon="-3.5398783721029758453369140625">
        <ele>8</ele>
        <time>2018-09-05T07:29:40.000Z</time>
      </trkpt>
      <trkpt lat="43.46397936344146728515625" lon="-3.53995355777442455291748046875">
        <ele>7.599999904632568359375</ele>
        <time>2018-09-05T07:29:41.000Z</time>
      </trkpt>
      <trkpt lat="43.46394541673362255096435546875" lon="-3.5401053540408611297607421875">
        <ele>7.400000095367431640625</ele>
        <time>2018-09-05T07:29:43.000Z</time>
      </trkpt>
      <trkpt lat="43.463881127536296844482421875" lon="-3.54038287885487079620361328125">
        <ele>8</ele>
        <time>2018-09-05T07:29:47.000Z</time>
      </trkpt>
      <trkpt lat="43.46378297545015811920166015625" lon="-3.54053090326488018035888671875">
        <ele>8</ele>
        <time>2018-09-05T07:29:50.000Z</time>
      </trkpt>
      <trkpt lat="43.46375665627419948577880859375" lon="-3.54058119468390941619873046875">
        <ele>8.19999980926513671875</ele>
        <time>2018-09-05T07:29:51.000Z</time>
      </trkpt>
      <trkpt lat="43.4636097215116024017333984375" lon="-3.540891744196414947509765625">
        <ele>8.6000003814697265625</ele>
        <time>2018-09-05T07:29:57.000Z</time>
      </trkpt>
      <trkpt lat="43.4634095616638660430908203125" lon="-3.54104739613831043243408203125">
        <ele>8.6000003814697265625</ele>
        <time>2018-09-05T07:30:02.000Z</time>
      </trkpt>
      <trkpt lat="43.4633187018334865570068359375" lon="-3.5411085002124309539794921875">
        <ele>8.3999996185302734375</ele>
        <time>2018-09-05T07:30:04.000Z</time>
      </trkpt>
      <trkpt lat="43.46319858916103839874267578125" lon="-3.54122995398938655853271484375">
        <ele>8.3999996185302734375</ele>
        <time>2018-09-05T07:30:07.000Z</time>
      </trkpt>
      <trkpt lat="43.46312935464084148406982421875" lon="-3.54132416658103466033935546875">
        <ele>8.3999996185302734375</ele>
        <time>2018-09-05T07:30:09.000Z</time>
      </trkpt>
      <trkpt lat="43.46309934742748737335205078125" lon="-3.54137982241809368133544921875">
        <ele>8.3999996185302734375</ele>
        <time>2018-09-05T07:30:10.000Z</time>
      </trkpt>
      <trkpt lat="43.46306766383349895477294921875" lon="-3.54159121401607990264892578125">
        <ele>8.19999980926513671875</ele>
        <time>2018-09-05T07:30:13.000Z</time>
      </trkpt>
      <trkpt lat="43.46308819949626922607421875" lon="-3.5417948104441165924072265625">
        <ele>8.80000019073486328125</ele>
        <time>2018-09-05T07:30:16.000Z</time>
      </trkpt>
      <trkpt lat="43.46309088170528411865234375" lon="-3.541855998337268829345703125">
        <ele>9</ele>
        <time>2018-09-05T07:30:17.000Z</time>
      </trkpt>
      <trkpt lat="43.4630903787910938262939453125" lon="-3.5419171862304210662841796875">
        <ele>9.3999996185302734375</ele>
        <time>2018-09-05T07:30:18.000Z</time>
      </trkpt>
      <trkpt lat="43.46307571046054363250732421875" lon="-3.54203646071255207061767578125">
        <ele>9.6000003814697265625</ele>
        <time>2018-09-05T07:30:20.000Z</time>
      </trkpt>
      <trkpt lat="43.46301469020545482635498046875" lon="-3.5421936213970184326171875">
        <ele>10</ele>
        <time>2018-09-05T07:30:23.000Z</time>
      </trkpt>
      <trkpt lat="43.462987281382083892822265625" lon="-3.54224257171154022216796875">
        <ele>10</ele>
        <time>2018-09-05T07:30:24.000Z</time>
      </trkpt>
      <trkpt lat="43.4629239141941070556640625" lon="-3.54233217425644397735595703125">
        <ele>10</ele>
        <time>2018-09-05T07:30:26.000Z</time>
      </trkpt>
      <trkpt lat="43.4628141112625598907470703125" lon="-3.54244633577764034271240234375">
        <ele>9.6000003814697265625</ele>
        <time>2018-09-05T07:30:29.000Z</time>
      </trkpt>
      <trkpt lat="43.4627120196819305419921875" lon="-3.542579524219036102294921875">
        <ele>10.19999980926513671875</ele>
        <time>2018-09-05T07:30:32.000Z</time>
      </trkpt>
      <trkpt lat="43.46263649873435497283935546875" lon="-3.5427396185696125030517578125">
        <ele>10.3999996185302734375</ele>
        <time>2018-09-05T07:30:35.000Z</time>
      </trkpt>
      <trkpt lat="43.46261671744287014007568359375" lon="-3.542802147567272186279296875">
        <ele>10.19999980926513671875</ele>
        <time>2018-09-05T07:30:36.000Z</time>
      </trkpt>
      <trkpt lat="43.46258754841983318328857421875" lon="-3.54299417696893215179443359375">
        <ele>10.19999980926513671875</ele>
        <time>2018-09-05T07:30:39.000Z</time>
      </trkpt>
      <trkpt lat="43.46257380209863185882568359375" lon="-3.543051593005657196044921875">
        <ele>10.19999980926513671875</ele>
        <time>2018-09-05T07:30:40.000Z</time>
      </trkpt>
      <trkpt lat="43.4624811820685863494873046875" lon="-3.54321160353720188140869140625">
        <ele>9.80000019073486328125</ele>
        <time>2018-09-05T07:30:43.000Z</time>
      </trkpt>
      <trkpt lat="43.462316729128360748291015625" lon="-3.54324244894087314605712890625">
        <ele>9.3999996185302734375</ele>
        <time>2018-09-05T07:30:46.000Z</time>
      </trkpt>
      <trkpt lat="43.4622032381594181060791015625" lon="-3.5432230867445468902587890625">
        <ele>9.19999980926513671875</ele>
        <time>2018-09-05T07:30:48.000Z</time>
      </trkpt>
      <trkpt lat="43.46209167502820491790771484375" lon="-3.54317924939095973968505859375">
        <ele>9.19999980926513671875</ele>
        <time>2018-09-05T07:30:50.000Z</time>
      </trkpt>
      <trkpt lat="43.46203568391501903533935546875" lon="-3.5431556962430477142333984375">
        <ele>9</ele>
        <time>2018-09-05T07:30:51.000Z</time>
      </trkpt>
      <trkpt lat="43.46180417574942111968994140625" lon="-3.54310615919530391693115234375">
        <ele>9.19999980926513671875</ele>
        <time>2018-09-05T07:30:55.000Z</time>
      </trkpt>
      <trkpt lat="43.461693786084651947021484375" lon="-3.54314052499830722808837890625">
        <ele>9.19999980926513671875</ele>
        <time>2018-09-05T07:30:57.000Z</time>
      </trkpt>
      <trkpt lat="43.46155657432973384857177734375" lon="-3.54325510561466217041015625">
        <ele>9.6000003814697265625</ele>
        <time>2018-09-05T07:31:00.000Z</time>
      </trkpt>
      <trkpt lat="43.4615159220993518829345703125" lon="-3.5432946681976318359375">
        <ele>9.80000019073486328125</ele>
        <time>2018-09-05T07:31:01.000Z</time>
      </trkpt>
      <trkpt lat="43.46144408918917179107666015625" lon="-3.54339164681732654571533203125">
        <ele>10.19999980926513671875</ele>
        <time>2018-09-05T07:31:03.000Z</time>
      </trkpt>
      <trkpt lat="43.46136412583291530609130859375" lon="-3.543567918241024017333984375">
        <ele>10.3999996185302734375</ele>
        <time>2018-09-05T07:31:06.000Z</time>
      </trkpt>
      <trkpt lat="43.46132087521255016326904296875" lon="-3.54368585161864757537841796875">
        <ele>10.6000003814697265625</ele>
        <time>2018-09-05T07:31:08.000Z</time>
      </trkpt>
      <trkpt lat="43.46133830957114696502685546875" lon="-3.543879725039005279541015625">
        <ele>11.19999980926513671875</ele>
        <time>2018-09-05T07:31:11.000Z</time>
      </trkpt>
      <trkpt lat="43.46140150912106037139892578125" lon="-3.5439744405448436737060546875">
        <ele>11.19999980926513671875</ele>
        <time>2018-09-05T07:31:13.000Z</time>
      </trkpt>
      <trkpt lat="43.46146202646195888519287109375" lon="-3.54407586157321929931640625">
        <ele>11.19999980926513671875</ele>
        <time>2018-09-05T07:31:15.000Z</time>
      </trkpt>
      <trkpt lat="43.46151215024292469024658203125" lon="-3.54418625123798847198486328125">
        <ele>11.3999996185302734375</ele>
        <time>2018-09-05T07:31:17.000Z</time>
      </trkpt>
      <trkpt lat="43.46155397593975067138671875" lon="-3.544380962848663330078125">
        <ele>11.80000019073486328125</ele>
        <time>2018-09-05T07:31:20.000Z</time>
      </trkpt>
      <trkpt lat="43.46154383383691310882568359375" lon="-3.54458908550441265106201171875">
        <ele>12.19999980926513671875</ele>
        <time>2018-09-05T07:31:23.000Z</time>
      </trkpt>
      <trkpt lat="43.46153629012405872344970703125" lon="-3.54471464641392230987548828125">
        <ele>12.6000003814697265625</ele>
        <time>2018-09-05T07:31:25.000Z</time>
      </trkpt>
      <trkpt lat="43.461523465812206268310546875" lon="-3.5448954440653324127197265625">
        <ele>13.3999996185302734375</ele>
        <time>2018-09-05T07:31:28.000Z</time>
      </trkpt>
      <trkpt lat="43.461520113050937652587890625" lon="-3.5451194085180759429931640625">
        <ele>14.3999996185302734375</ele>
        <time>2018-09-05T07:31:32.000Z</time>
      </trkpt>
      <trkpt lat="43.4615139104425907135009765625" lon="-3.5452313907444477081298828125">
        <ele>15</ele>
        <time>2018-09-05T07:31:34.000Z</time>
      </trkpt>
      <trkpt lat="43.4615058638155460357666015625" lon="-3.5454573668539524078369140625">
        <ele>15.6000003814697265625</ele>
        <time>2018-09-05T07:31:38.000Z</time>
      </trkpt>
      <trkpt lat="43.46151919104158878326416015625" lon="-3.54572416283190250396728515625">
        <ele>16.200000762939453125</ele>
        <time>2018-09-05T07:31:43.000Z</time>
      </trkpt>
      <trkpt lat="43.461502008140087127685546875" lon="-3.54587604291737079620361328125">
        <ele>16.799999237060546875</ele>
        <time>2018-09-05T07:31:46.000Z</time>
      </trkpt>
      <trkpt lat="43.46148918382823467254638671875" lon="-3.546019457280635833740234375">
        <ele>17.3999996185302734375</ele>
        <time>2018-09-05T07:31:49.000Z</time>
      </trkpt>
      <trkpt lat="43.461476862430572509765625" lon="-3.54610855691134929656982421875">
        <ele>17.799999237060546875</ele>
        <time>2018-09-05T07:31:51.000Z</time>
      </trkpt>
      <trkpt lat="43.4613999165594577789306640625" lon="-3.5462519712746143341064453125">
        <ele>18.3999996185302734375</ele>
        <time>2018-09-05T07:31:55.000Z</time>
      </trkpt>
      <trkpt lat="43.46135406754910945892333984375" lon="-3.54630854912102222442626953125">
        <ele>18.799999237060546875</ele>
        <time>2018-09-05T07:31:57.000Z</time>
      </trkpt>
      <trkpt lat="43.46128952689468860626220703125" lon="-3.5464528016746044158935546875">
        <ele>19.799999237060546875</ele>
        <time>2018-09-05T07:32:01.000Z</time>
      </trkpt>
      <trkpt lat="43.46128131262958049774169921875" lon="-3.546493537724018096923828125">
        <ele>20</ele>
        <time>2018-09-05T07:32:02.000Z</time>
      </trkpt>
      <trkpt lat="43.46121844835579395294189453125" lon="-3.54669176973402500152587890625">
        <ele>19.799999237060546875</ele>
        <time>2018-09-05T07:32:06.000Z</time>
      </trkpt>
      <trkpt lat="43.461152650415897369384765625" lon="-3.54684633202850818634033203125">
        <ele>19.3999996185302734375</ele>
        <time>2018-09-05T07:32:09.000Z</time>
      </trkpt>
      <trkpt lat="43.46108232624828815460205078125" lon="-3.5469332523643970489501953125">
        <ele>19.3999996185302734375</ele>
        <time>2018-09-05T07:32:11.000Z</time>
      </trkpt>
      <trkpt lat="43.46102155745029449462890625" lon="-3.54717917740345001220703125">
        <ele>19.200000762939453125</ele>
        <time>2018-09-05T07:32:15.000Z</time>
      </trkpt>
      <trkpt lat="43.4610163606703281402587890625" lon="-3.5472447238862514495849609375">
        <ele>19.6000003814697265625</ele>
        <time>2018-09-05T07:32:16.000Z</time>
      </trkpt>
      <trkpt lat="43.461039327085018157958984375" lon="-3.54754622094333171844482421875">
        <ele>20.799999237060546875</ele>
        <time>2018-09-05T07:32:21.000Z</time>
      </trkpt>
      <trkpt lat="43.46104963682591915130615234375" lon="-3.54760430753231048583984375">
        <ele>21</ele>
        <time>2018-09-05T07:32:22.000Z</time>
      </trkpt>
      <trkpt lat="43.46111115999519824981689453125" lon="-3.547990880906581878662109375">
        <ele>22</ele>
        <time>2018-09-05T07:32:29.000Z</time>
      </trkpt>
      <trkpt lat="43.46114351414144039154052734375" lon="-3.54809020645916461944580078125">
        <ele>22.3999996185302734375</ele>
        <time>2018-09-05T07:32:31.000Z</time>
      </trkpt>
      <trkpt lat="43.4612507186830043792724609375" lon="-3.54837418533861637115478515625">
        <ele>23.200000762939453125</ele>
        <time>2018-09-05T07:32:37.000Z</time>
      </trkpt>
      <trkpt lat="43.4612671472132205963134765625" lon="-3.5484202019870281219482421875">
        <ele>23.3999996185302734375</ele>
        <time>2018-09-05T07:32:38.000Z</time>
      </trkpt>
      <trkpt lat="43.46131349913775920867919921875" lon="-3.5485643707215785980224609375">
        <ele>24.200000762939453125</ele>
        <time>2018-09-05T07:32:41.000Z</time>
      </trkpt>
      <trkpt lat="43.4613362140953540802001953125" lon="-3.5487588308751583099365234375">
        <ele>24.799999237060546875</ele>
        <time>2018-09-05T07:32:45.000Z</time>
      </trkpt>
      <trkpt lat="43.46134082414209842681884765625" lon="-3.5488550551235675811767578125">
        <ele>25.200000762939453125</ele>
        <time>2018-09-05T07:32:47.000Z</time>
      </trkpt>
      <trkpt lat="43.46135641448199748992919921875" lon="-3.54910911060869693756103515625">
        <ele>25.6000003814697265625</ele>
        <time>2018-09-05T07:32:52.000Z</time>
      </trkpt>
      <trkpt lat="43.46128332428634166717529296875" lon="-3.54932804591953754425048828125">
        <ele>25.6000003814697265625</ele>
        <time>2018-09-05T07:32:57.000Z</time>
      </trkpt>
      <trkpt lat="43.46115625463426113128662109375" lon="-3.54947607032954692840576171875">
        <ele>26.3999996185302734375</ele>
        <time>2018-09-05T07:33:01.000Z</time>
      </trkpt>
      <trkpt lat="43.461122475564479827880859375" lon="-3.5495048202574253082275390625">
        <ele>26.3999996185302734375</ele>
        <time>2018-09-05T07:33:02.000Z</time>
      </trkpt>
      <trkpt lat="43.46083589829504489898681640625" lon="-3.549739681184291839599609375">
        <ele>26.799999237060546875</ele>
        <time>2018-09-05T07:33:10.000Z</time>
      </trkpt>
      <trkpt lat="43.460629619657993316650390625" lon="-3.54998334310948848724365234375">
        <ele>26.799999237060546875</ele>
        <time>2018-09-05T07:33:16.000Z</time>
      </trkpt>
      <trkpt lat="43.46060606651008129119873046875" lon="-3.5500379092991352081298828125">
        <ele>26.799999237060546875</ele>
        <time>2018-09-05T07:33:17.000Z</time>
      </trkpt>
      <trkpt lat="43.460423089563846588134765625" lon="-3.5504144243896007537841796875">
        <ele>27.200000762939453125</ele>
        <time>2018-09-05T07:33:24.000Z</time>
      </trkpt>
      <trkpt lat="43.46034186892211437225341796875" lon="-3.550579547882080078125">
        <ele>27.200000762939453125</ele>
        <time>2018-09-05T07:33:27.000Z</time>
      </trkpt>
      <trkpt lat="43.46026844345033168792724609375" lon="-3.55075548402965068817138671875">
        <ele>27</ele>
        <time>2018-09-05T07:33:30.000Z</time>
      </trkpt>
      <trkpt lat="43.46022653393447399139404296875" lon="-3.5508720763027667999267578125">
        <ele>27</ele>
        <time>2018-09-05T07:33:32.000Z</time>
      </trkpt>
      <trkpt lat="43.46017003990709781646728515625" lon="-3.55105069465935230255126953125">
        <ele>27</ele>
        <time>2018-09-05T07:33:35.000Z</time>
      </trkpt>
      <trkpt lat="43.46009275875985622406005859375" lon="-3.55122671462595462799072265625">
        <ele>26.799999237060546875</ele>
        <time>2018-09-05T07:33:38.000Z</time>
      </trkpt>
      <trkpt lat="43.45999921672046184539794921875" lon="-3.55162619613111019134521484375">
        <ele>26.6000003814697265625</ele>
        <time>2018-09-05T07:33:44.000Z</time>
      </trkpt>
      <trkpt lat="43.45987700857222080230712890625" lon="-3.5521665774285793304443359375">
        <ele>26.6000003814697265625</ele>
        <time>2018-09-05T07:33:52.000Z</time>
      </trkpt>
      <trkpt lat="43.459850437939167022705078125" lon="-3.552228771150112152099609375">
        <ele>26.6000003814697265625</ele>
        <time>2018-09-05T07:33:53.000Z</time>
      </trkpt>
      <trkpt lat="43.45979084260761737823486328125" lon="-3.55234050191938877105712890625">
        <ele>26.799999237060546875</ele>
        <time>2018-09-05T07:33:55.000Z</time>
      </trkpt>
      <trkpt lat="43.459693528711795806884765625" lon="-3.55247159488499164581298828125">
        <ele>27.6000003814697265625</ele>
        <time>2018-09-05T07:33:58.000Z</time>
      </trkpt>
      <trkpt lat="43.45960937440395355224609375" lon="-3.5525549948215484619140625">
        <ele>28.799999237060546875</ele>
        <time>2018-09-05T07:34:01.000Z</time>
      </trkpt>
      <trkpt lat="43.45955966971814632415771484375" lon="-3.5525890253484249114990234375">
        <ele>29.3999996185302734375</ele>
        <time>2018-09-05T07:34:03.000Z</time>
      </trkpt>
      <trkpt lat="43.4595076180994510650634765625" lon="-3.5526078008115291595458984375">
        <ele>30.200000762939453125</ele>
        <time>2018-09-05T07:34:05.000Z</time>
      </trkpt>
      <trkpt lat="43.4594596736133098602294921875" lon="-3.55262313969433307647705078125">
        <ele>30.799999237060546875</ele>
        <time>2018-09-05T07:34:07.000Z</time>
      </trkpt>
      <trkpt lat="43.4594080410897731781005859375" lon="-3.5526354610919952392578125">
        <ele>31.3999996185302734375</ele>
        <time>2018-09-05T07:34:09.000Z</time>
      </trkpt>
      <trkpt lat="43.45935850404202938079833984375" lon="-3.55264845304191112518310546875">
        <ele>31.799999237060546875</ele>
        <time>2018-09-05T07:34:11.000Z</time>
      </trkpt>
      <trkpt lat="43.45927946269512176513671875" lon="-3.55268030427396297454833984375">
        <ele>32.59999847412109375</ele>
        <time>2018-09-05T07:34:14.000Z</time>
      </trkpt>
      <trkpt lat="43.45922657288610935211181640625" lon="-3.5526971518993377685546875">
        <ele>33</ele>
        <time>2018-09-05T07:34:16.000Z</time>
      </trkpt>
      <trkpt lat="43.45917510800063610076904296875" lon="-3.55272355489432811737060546875">
        <ele>33.59999847412109375</ele>
        <time>2018-09-05T07:34:18.000Z</time>
      </trkpt>
      <trkpt lat="43.45907385461032390594482421875" lon="-3.552788011729717254638671875">
        <ele>34.59999847412109375</ele>
        <time>2018-09-05T07:34:22.000Z</time>
      </trkpt>
      <trkpt lat="43.45904468558728694915771484375" lon="-3.552806787192821502685546875">
        <ele>34.59999847412109375</ele>
        <time>2018-09-05T07:34:23.000Z</time>
      </trkpt>
      <trkpt lat="43.459016941487789154052734375" lon="-3.55283117853105068206787109375">
        <ele>34.799999237060546875</ele>
        <time>2018-09-05T07:34:24.000Z</time>
      </trkpt>
      <trkpt lat="43.4589274227619171142578125" lon="-3.55294802226126194000244140625">
        <ele>35.59999847412109375</ele>
        <time>2018-09-05T07:34:28.000Z</time>
      </trkpt>
      <trkpt lat="43.45890638418495655059814453125" lon="-3.55297635309398174285888671875">
        <ele>35.59999847412109375</ele>
        <time>2018-09-05T07:34:29.000Z</time>
      </trkpt>
      <trkpt lat="43.45886665396392345428466796875" lon="-3.5530419833958148956298828125">
        <ele>36</ele>
        <time>2018-09-05T07:34:31.000Z</time>
      </trkpt>
      <trkpt lat="43.4587897919118404388427734375" lon="-3.55317265726625919342041015625">
        <ele>36.59999847412109375</ele>
        <time>2018-09-05T07:34:35.000Z</time>
      </trkpt>
      <trkpt lat="43.4587099961936473846435546875" lon="-3.55330123566091060638427734375">
        <ele>37.200000762939453125</ele>
        <time>2018-09-05T07:34:39.000Z</time>
      </trkpt>
      <trkpt lat="43.458675630390644073486328125" lon="-3.55336007662117481231689453125">
        <ele>38</ele>
        <time>2018-09-05T07:34:41.000Z</time>
      </trkpt>
      <trkpt lat="43.45856993459165096282958984375" lon="-3.553559146821498870849609375">
        <ele>38.59999847412109375</ele>
        <time>2018-09-05T07:34:47.000Z</time>
      </trkpt>
      <trkpt lat="43.458538837730884552001953125" lon="-3.55361840687692165374755859375">
        <ele>39</ele>
        <time>2018-09-05T07:34:49.000Z</time>
      </trkpt>
      <trkpt lat="43.45847018994390964508056640625" lon="-3.5537727177143096923828125">
        <ele>39.799999237060546875</ele>
        <time>2018-09-05T07:34:54.000Z</time>
      </trkpt>
      <trkpt lat="43.4584528394043445587158203125" lon="-3.5538322292268276214599609375">
        <ele>40.200000762939453125</ele>
        <time>2018-09-05T07:34:56.000Z</time>
      </trkpt>
      <trkpt lat="43.4584655798971652984619140625" lon="-3.55386215262115001678466796875">
        <ele>40.200000762939453125</ele>
        <time>2018-09-05T07:34:57.000Z</time>
      </trkpt>
      <trkpt lat="43.4585034660995006561279296875" lon="-3.5539053194224834442138671875">
        <ele>40.40000152587890625</ele>
        <time>2018-09-05T07:34:59.000Z</time>
      </trkpt>
      <trkpt lat="43.45854277722537517547607421875" lon="-3.55394144542515277862548828125">
        <ele>40.799999237060546875</ele>
        <time>2018-09-05T07:35:01.000Z</time>
      </trkpt>
      <trkpt lat="43.4586573578417301177978515625" lon="-3.5539643280208110809326171875">
        <ele>41.200000762939453125</ele>
        <time>2018-09-05T07:35:05.000Z</time>
      </trkpt>
      <trkpt lat="43.458831198513507843017578125" lon="-3.55399257503449916839599609375">
        <ele>41.200000762939453125</ele>
        <time>2018-09-05T07:35:10.000Z</time>
      </trkpt>
      <trkpt lat="43.45890135504305362701416015625" lon="-3.55400464497506618499755859375">
        <ele>41.200000762939453125</ele>
        <time>2018-09-05T07:35:12.000Z</time>
      </trkpt>
      <trkpt lat="43.45900311134755611419677734375" lon="-3.55405359528958797454833984375">
        <ele>41.40000152587890625</ele>
        <time>2018-09-05T07:35:15.000Z</time>
      </trkpt>
      <trkpt lat="43.45910587348043918609619140625" lon="-3.55410472489893436431884765625">
        <ele>41.59999847412109375</ele>
        <time>2018-09-05T07:35:18.000Z</time>
      </trkpt>
      <trkpt lat="43.45914811827242374420166015625" lon="-3.55424419976770877838134765625">
        <ele>41.59999847412109375</ele>
        <time>2018-09-05T07:35:21.000Z</time>
      </trkpt>
      <trkpt lat="43.4591458551585674285888671875" lon="-3.5545054636895656585693359375">
        <ele>42.200000762939453125</ele>
        <time>2018-09-05T07:35:26.000Z</time>
      </trkpt>
      <trkpt lat="43.45914292149245738983154296875" lon="-3.5545530728995800018310546875">
        <ele>42.40000152587890625</ele>
        <time>2018-09-05T07:35:27.000Z</time>
      </trkpt>
      <trkpt lat="43.45913353376090526580810546875" lon="-3.55484769679605960845947265625">
        <ele>43.59999847412109375</ele>
        <time>2018-09-05T07:35:33.000Z</time>
      </trkpt>
      <trkpt lat="43.4591875970363616943359375" lon="-3.5551991499960422515869140625">
        <ele>44.40000152587890625</ele>
        <time>2018-09-05T07:35:40.000Z</time>
      </trkpt>
      <trkpt lat="43.45921576023101806640625" lon="-3.5553538799285888671875">
        <ele>44.59999847412109375</ele>
        <time>2018-09-05T07:35:43.000Z</time>
      </trkpt>
      <trkpt lat="43.45921014435589313507080078125" lon="-3.55554574169218540191650390625">
        <ele>45</ele>
        <time>2018-09-05T07:35:47.000Z</time>
      </trkpt>
      <trkpt lat="43.45917141996324062347412109375" lon="-3.55581010691821575164794921875">
        <ele>45.40000152587890625</ele>
        <time>2018-09-05T07:35:52.000Z</time>
      </trkpt>
      <trkpt lat="43.459163121879100799560546875" lon="-3.55587062425911426544189453125">
        <ele>45.59999847412109375</ele>
        <time>2018-09-05T07:35:53.000Z</time>
      </trkpt>
      <trkpt lat="43.459053151309490203857421875" lon="-3.5562703572213649749755859375">
        <ele>46.40000152587890625</ele>
        <time>2018-09-05T07:36:00.000Z</time>
      </trkpt>
      <trkpt lat="43.45888911746442317962646484375" lon="-3.5566703416407108306884765625">
        <ele>46.59999847412109375</ele>
        <time>2018-09-05T07:36:07.000Z</time>
      </trkpt>
      <trkpt lat="43.45884301699697971343994140625" lon="-3.556792549788951873779296875">
        <ele>46.40000152587890625</ele>
        <time>2018-09-05T07:36:09.000Z</time>
      </trkpt>
      <trkpt lat="43.45879205502569675445556640625" lon="-3.55700603686273097991943359375">
        <ele>46</ele>
        <time>2018-09-05T07:36:12.000Z</time>
      </trkpt>
      <trkpt lat="43.4587545879185199737548828125" lon="-3.5572113096714019775390625">
        <ele>46.59999847412109375</ele>
        <time>2018-09-05T07:36:15.000Z</time>
      </trkpt>
      <trkpt lat="43.45870220102369785308837890625" lon="-3.55745966546237468719482421875">
        <ele>47.40000152587890625</ele>
        <time>2018-09-05T07:36:19.000Z</time>
      </trkpt>
      <trkpt lat="43.4586261771619319915771484375" lon="-3.55777197517454624176025390625">
        <ele>47.799999237060546875</ele>
        <time>2018-09-05T07:36:24.000Z</time>
      </trkpt>
      <trkpt lat="43.45854043029248714447021484375" lon="-3.5580905713140964508056640625">
        <ele>48.40000152587890625</ele>
        <time>2018-09-05T07:36:29.000Z</time>
      </trkpt>
      <trkpt lat="43.4585091657936573028564453125" lon="-3.55822443030774593353271484375">
        <ele>48.799999237060546875</ele>
        <time>2018-09-05T07:36:31.000Z</time>
      </trkpt>
      <trkpt lat="43.4584229998290538787841796875" lon="-3.5586028732359409332275390625">
        <ele>49.40000152587890625</ele>
        <time>2018-09-05T07:36:37.000Z</time>
      </trkpt>
      <trkpt lat="43.45836055465042591094970703125" lon="-3.55885609053075313568115234375">
        <ele>49.799999237060546875</ele>
        <time>2018-09-05T07:36:41.000Z</time>
      </trkpt>
      <trkpt lat="43.45830908976495265960693359375" lon="-3.559038229286670684814453125">
        <ele>50.200000762939453125</ele>
        <time>2018-09-05T07:36:44.000Z</time>
      </trkpt>
      <trkpt lat="43.4582385979592800140380859375" lon="-3.559320531785488128662109375">
        <ele>50</ele>
        <time>2018-09-05T07:36:48.000Z</time>
      </trkpt>
      <trkpt lat="43.45823180861771106719970703125" lon="-3.55940309353172779083251953125">
        <ele>50</ele>
        <time>2018-09-05T07:36:49.000Z</time>
      </trkpt>
      <trkpt lat="43.45816827379167079925537109375" lon="-3.55988203547894954681396484375">
        <ele>49.40000152587890625</ele>
        <time>2018-09-05T07:36:55.000Z</time>
      </trkpt>
      <trkpt lat="43.45808730460703372955322265625" lon="-3.56041965074837207794189453125">
        <ele>50</ele>
        <time>2018-09-05T07:37:02.000Z</time>
      </trkpt>
      <trkpt lat="43.45806333236396312713623046875" lon="-3.5606443695724010467529296875">
        <ele>49.799999237060546875</ele>
        <time>2018-09-05T07:37:05.000Z</time>
      </trkpt>
      <trkpt lat="43.458016477525234222412109375" lon="-3.560949973762035369873046875">
        <ele>49.40000152587890625</ele>
        <time>2018-09-05T07:37:09.000Z</time>
      </trkpt>
      <trkpt lat="43.45795847475528717041015625" lon="-3.56141843833029270172119140625">
        <ele>49.40000152587890625</ele>
        <time>2018-09-05T07:37:15.000Z</time>
      </trkpt>
      <trkpt lat="43.45794497989118099212646484375" lon="-3.561491109430789947509765625">
        <ele>49.59999847412109375</ele>
        <time>2018-09-05T07:37:16.000Z</time>
      </trkpt>
      <trkpt lat="43.457901813089847564697265625" lon="-3.56190911494195461273193359375">
        <ele>50.799999237060546875</ele>
        <time>2018-09-05T07:37:22.000Z</time>
      </trkpt>
      <trkpt lat="43.457898795604705810546875" lon="-3.56197449378669261932373046875">
        <ele>51</ele>
        <time>2018-09-05T07:37:23.000Z</time>
      </trkpt>
      <trkpt lat="43.45787088386714458465576171875" lon="-3.56211363337934017181396484375">
        <ele>50.799999237060546875</ele>
        <time>2018-09-05T07:37:25.000Z</time>
      </trkpt>
      <trkpt lat="43.45784624107182025909423828125" lon="-3.5622610710561275482177734375">
        <ele>50.40000152587890625</ele>
        <time>2018-09-05T07:37:27.000Z</time>
      </trkpt>
      <trkpt lat="43.4578235261142253875732421875" lon="-3.56257245875895023345947265625">
        <ele>49.799999237060546875</ele>
        <time>2018-09-05T07:37:31.000Z</time>
      </trkpt>
      <trkpt lat="43.4578062593936920166015625" lon="-3.56281871907413005828857421875">
        <ele>50</ele>
        <time>2018-09-05T07:37:34.000Z</time>
      </trkpt>
      <trkpt lat="43.45778144896030426025390625" lon="-3.56319330632686614990234375">
        <ele>48.59999847412109375</ele>
        <time>2018-09-05T07:37:38.000Z</time>
      </trkpt>
      <trkpt lat="43.4577712230384349822998046875" lon="-3.56339178979396820068359375">
        <ele>48.200000762939453125</ele>
        <time>2018-09-05T07:37:40.000Z</time>
      </trkpt>
      <trkpt lat="43.45775789581239223480224609375" lon="-3.5636900179088115692138671875">
        <ele>48.200000762939453125</ele>
        <time>2018-09-05T07:37:43.000Z</time>
      </trkpt>
      <trkpt lat="43.4577514417469501495361328125" lon="-3.56387416832149028778076171875">
        <ele>47.799999237060546875</ele>
        <time>2018-09-05T07:37:45.000Z</time>
      </trkpt>
      <trkpt lat="43.45774616114795207977294921875" lon="-3.5639602504670619964599609375">
        <ele>47.59999847412109375</ele>
        <time>2018-09-05T07:37:46.000Z</time>
      </trkpt>
      <trkpt lat="43.4577537886798381805419921875" lon="-3.564121685922145843505859375">
        <ele>47.59999847412109375</ele>
        <time>2018-09-05T07:37:48.000Z</time>
      </trkpt>
      <trkpt lat="43.4577477537095546722412109375" lon="-3.56435042805969715118408203125">
        <ele>48.59999847412109375</ele>
        <time>2018-09-05T07:37:51.000Z</time>
      </trkpt>
      <trkpt lat="43.45773316919803619384765625" lon="-3.5645003803074359893798828125">
        <ele>48.59999847412109375</ele>
        <time>2018-09-05T07:37:53.000Z</time>
      </trkpt>
      <trkpt lat="43.4577236138284206390380859375" lon="-3.56457305140793323516845703125">
        <ele>48.59999847412109375</ele>
        <time>2018-09-05T07:37:54.000Z</time>
      </trkpt>
      <trkpt lat="43.45772285945713520050048828125" lon="-3.56464446522295475006103515625">
        <ele>48.59999847412109375</ele>
        <time>2018-09-05T07:37:55.000Z</time>
      </trkpt>
      <trkpt lat="43.45772118307650089263916015625" lon="-3.56492869555950164794921875">
        <ele>48.200000762939453125</ele>
        <time>2018-09-05T07:37:59.000Z</time>
      </trkpt>
      <trkpt lat="43.45766955055296421051025390625" lon="-3.565173111855983734130859375">
        <ele>48</ele>
        <time>2018-09-05T07:38:03.000Z</time>
      </trkpt>
      <trkpt lat="43.4576384536921977996826171875" lon="-3.56543789617717266082763671875">
        <ele>48.40000152587890625</ele>
        <time>2018-09-05T07:38:07.000Z</time>
      </trkpt>
      <trkpt lat="43.4576072730123996734619140625" lon="-3.5656463541090488433837890625">
        <ele>48</ele>
        <time>2018-09-05T07:38:10.000Z</time>
      </trkpt>
      <trkpt lat="43.45757491886615753173828125" lon="-3.56577635742723941802978515625">
        <ele>47.799999237060546875</ele>
        <time>2018-09-05T07:38:12.000Z</time>
      </trkpt>
      <trkpt lat="43.4575281478464603424072265625" lon="-3.56598858721554279327392578125">
        <ele>47.799999237060546875</ele>
        <time>2018-09-05T07:38:15.000Z</time>
      </trkpt>
      <trkpt lat="43.45750073902308940887451171875" lon="-3.56613677926361560821533203125">
        <ele>47.799999237060546875</ele>
        <time>2018-09-05T07:38:17.000Z</time>
      </trkpt>
      <trkpt lat="43.45748984254896640777587890625" lon="-3.56621255166828632354736328125">
        <ele>47.40000152587890625</ele>
        <time>2018-09-05T07:38:18.000Z</time>
      </trkpt>
      <trkpt lat="43.4574560634791851043701171875" lon="-3.566596694290637969970703125">
        <ele>46.40000152587890625</ele>
        <time>2018-09-05T07:38:23.000Z</time>
      </trkpt>
      <trkpt lat="43.4574470110237598419189453125" lon="-3.5666768252849578857421875">
        <ele>46.200000762939453125</ele>
        <time>2018-09-05T07:38:24.000Z</time>
      </trkpt>
      <trkpt lat="43.45742630772292613983154296875" lon="-3.56675385497510433197021484375">
        <ele>46</ele>
        <time>2018-09-05T07:38:25.000Z</time>
      </trkpt>
      <trkpt lat="43.45734986476600170135498046875" lon="-3.56696985661983489990234375">
        <ele>45.200000762939453125</ele>
        <time>2018-09-05T07:38:28.000Z</time>
      </trkpt>
      <trkpt lat="43.45731516368687152862548828125" lon="-3.56703984551131725311279296875">
        <ele>45.200000762939453125</ele>
        <time>2018-09-05T07:38:29.000Z</time>
      </trkpt>
      <trkpt lat="43.45722489058971405029296875" lon="-3.567170687019824981689453125">
        <ele>44.59999847412109375</ele>
        <time>2018-09-05T07:38:31.000Z</time>
      </trkpt>
      <trkpt lat="43.45718323253095149993896484375" lon="-3.56723497621715068817138671875">
        <ele>44.200000762939453125</ele>
        <time>2018-09-05T07:38:32.000Z</time>
      </trkpt>
      <trkpt lat="43.45714308321475982666015625" lon="-3.5673019476234912872314453125">
        <ele>43.799999237060546875</ele>
        <time>2018-09-05T07:38:33.000Z</time>
      </trkpt>
      <trkpt lat="43.45710762776434421539306640625" lon="-3.56737914495170116424560546875">
        <ele>43.40000152587890625</ele>
        <time>2018-09-05T07:38:34.000Z</time>
      </trkpt>
      <trkpt lat="43.4570282511413097381591796875" lon="-3.5676201246678829193115234375">
        <ele>43</ele>
        <time>2018-09-05T07:38:37.000Z</time>
      </trkpt>
      <trkpt lat="43.456943929195404052734375" lon="-3.56785708107054233551025390625">
        <ele>43</ele>
        <time>2018-09-05T07:38:40.000Z</time>
      </trkpt>
      <trkpt lat="43.4569135867059230804443359375" lon="-3.56794173829257488250732421875">
        <ele>42.200000762939453125</ele>
        <time>2018-09-05T07:38:41.000Z</time>
      </trkpt>
      <trkpt lat="43.4568495489656925201416015625" lon="-3.568102754652500152587890625">
        <ele>41.59999847412109375</ele>
        <time>2018-09-05T07:38:43.000Z</time>
      </trkpt>
      <trkpt lat="43.45682599581778049468994140625" lon="-3.5681854002177715301513671875">
        <ele>41.59999847412109375</ele>
        <time>2018-09-05T07:38:44.000Z</time>
      </trkpt>
      <trkpt lat="43.45680780708789825439453125" lon="-3.56842420063912868499755859375">
        <ele>41.799999237060546875</ele>
        <time>2018-09-05T07:38:47.000Z</time>
      </trkpt>
      <trkpt lat="43.4567757882177829742431640625" lon="-3.56855479069054126739501953125">
        <ele>41.59999847412109375</ele>
        <time>2018-09-05T07:38:49.000Z</time>
      </trkpt>
      <trkpt lat="43.45672021619975566864013671875" lon="-3.56864280067384243011474609375">
        <ele>41.200000762939453125</ele>
        <time>2018-09-05T07:38:51.000Z</time>
      </trkpt>
      <trkpt lat="43.45671216957271099090576171875" lon="-3.56864011846482753753662109375">
        <ele>41.200000762939453125</ele>
        <time>2018-09-05T07:39:11.000Z</time>
      </trkpt>
      <trkpt lat="43.45670127309858798980712890625" lon="-3.56866593472659587860107421875">
        <ele>41.200000762939453125</ele>
        <time>2018-09-05T07:39:12.000Z</time>
      </trkpt>
      <trkpt lat="43.45668719150125980377197265625" lon="-3.56869678013026714324951171875">
        <ele>41.200000762939453125</ele>
        <time>2018-09-05T07:39:13.000Z</time>
      </trkpt>
      <trkpt lat="43.45663907937705516815185546875" lon="-3.56881446205079555511474609375">
        <ele>40.59999847412109375</ele>
        <time>2018-09-05T07:39:18.000Z</time>
      </trkpt>
      <trkpt lat="43.45661410130560398101806640625" lon="-3.56887363828718662261962890625">
        <ele>40.40000152587890625</ele>
        <time>2018-09-05T07:39:33.000Z</time>
      </trkpt>
      <trkpt lat="43.45660923980176448822021484375" lon="-3.56889241375029087066650390625">
        <ele>40.200000762939453125</ele>
        <time>2018-09-05T07:39:34.000Z</time>
      </trkpt>
      <trkpt lat="43.45656909048557281494140625" lon="-3.56905996799468994140625">
        <ele>39.59999847412109375</ele>
        <time>2018-09-05T07:39:40.000Z</time>
      </trkpt>
      <trkpt lat="43.45654226839542388916015625" lon="-3.5691865347325801849365234375">
        <ele>39.40000152587890625</ele>
        <time>2018-09-05T07:39:44.000Z</time>
      </trkpt>
      <trkpt lat="43.45654469914734363555908203125" lon="-3.56924160383641719818115234375">
        <ele>39.200000762939453125</ele>
        <time>2018-09-05T07:39:45.000Z</time>
      </trkpt>
      <trkpt lat="43.45654687844216823577880859375" lon="-3.5695788078010082244873046875">
        <ele>38.40000152587890625</ele>
        <time>2018-09-05T07:39:51.000Z</time>
      </trkpt>
      <trkpt lat="43.4565400891005992889404296875" lon="-3.56970529071986675262451171875">
        <ele>37.799999237060546875</ele>
        <time>2018-09-05T07:39:53.000Z</time>
      </trkpt>
      <trkpt lat="43.4565176256000995635986328125" lon="-3.56997535564005374908447265625">
        <ele>36.799999237060546875</ele>
        <time>2018-09-05T07:39:57.000Z</time>
      </trkpt>
      <trkpt lat="43.45651485957205295562744140625" lon="-3.57004945166409015655517578125">
        <ele>36.40000152587890625</ele>
        <time>2018-09-05T07:39:58.000Z</time>
      </trkpt>
      <trkpt lat="43.45651050098240375518798828125" lon="-3.57017283327877521514892578125">
        <ele>35.799999237060546875</ele>
        <time>2018-09-05T07:40:00.000Z</time>
      </trkpt>
      <trkpt lat="43.45654034055769443511962890625" lon="-3.570218347012996673583984375">
        <ele>35.59999847412109375</ele>
        <time>2018-09-05T07:40:01.000Z</time>
      </trkpt>
      <trkpt lat="43.4565804898738861083984375" lon="-3.57023167423903942108154296875">
        <ele>35.59999847412109375</ele>
        <time>2018-09-05T07:40:02.000Z</time>
      </trkpt>
      <trkpt lat="43.4566783905029296875" lon="-3.57019093818962574005126953125">
        <ele>36.59999847412109375</ele>
        <time>2018-09-05T07:40:05.000Z</time>
      </trkpt>
      <trkpt lat="43.45670722424983978271484375" lon="-3.57017735950648784637451171875">
        <ele>37</ele>
        <time>2018-09-05T07:40:06.000Z</time>
      </trkpt>
      <trkpt lat="43.4568270854651927947998046875" lon="-3.5701732523739337921142578125">
        <ele>37.40000152587890625</ele>
        <time>2018-09-05T07:40:10.000Z</time>
      </trkpt>
      <trkpt lat="43.45685902051627635955810546875" lon="-3.5701811313629150390625">
        <ele>37.59999847412109375</ele>
        <time>2018-09-05T07:40:11.000Z</time>
      </trkpt>
      <trkpt lat="43.457062952220439910888671875" lon="-3.5702332668006420135498046875">
        <ele>38.200000762939453125</ele>
        <time>2018-09-05T07:40:17.000Z</time>
      </trkpt>
      <trkpt lat="43.45711818896234035491943359375" lon="-3.57027073390781879425048828125">
        <ele>38.59999847412109375</ele>
        <time>2018-09-05T07:40:19.000Z</time>
      </trkpt>
      <trkpt lat="43.45719580538570880889892578125" lon="-3.57040819711983203887939453125">
        <ele>39.200000762939453125</ele>
        <time>2018-09-05T07:40:23.000Z</time>
      </trkpt>
      <trkpt lat="43.45720686949789524078369140625" lon="-3.57045228593051433563232421875">
        <ele>39.40000152587890625</ele>
        <time>2018-09-05T07:40:24.000Z</time>
      </trkpt>
      <trkpt lat="43.4572242200374603271484375" lon="-3.57060098089277744293212890625">
        <ele>40</ele>
        <time>2018-09-05T07:40:27.000Z</time>
      </trkpt>
      <trkpt lat="43.4572297520935535430908203125" lon="-3.570747412741184234619140625">
        <ele>40.200000762939453125</ele>
        <time>2018-09-05T07:40:30.000Z</time>
      </trkpt>
      <trkpt lat="43.45724877901375293731689453125" lon="-3.57083986513316631317138671875">
        <ele>40.40000152587890625</ele>
        <time>2018-09-05T07:40:32.000Z</time>
      </trkpt>
      <trkpt lat="43.45729873515665531158447265625" lon="-3.57101286761462688446044921875">
        <ele>40.799999237060546875</ele>
        <time>2018-09-05T07:40:36.000Z</time>
      </trkpt>
      <trkpt lat="43.4573269821703433990478515625" lon="-3.57109635137021541595458984375">
        <ele>41.40000152587890625</ele>
        <time>2018-09-05T07:40:38.000Z</time>
      </trkpt>
      <trkpt lat="43.45735455863177776336669921875" lon="-3.571225516498088836669921875">
        <ele>42</ele>
        <time>2018-09-05T07:40:41.000Z</time>
      </trkpt>
      <trkpt lat="43.45737132243812084197998046875" lon="-3.57131780125200748443603515625">
        <ele>42</ele>
        <time>2018-09-05T07:40:43.000Z</time>
      </trkpt>
      <trkpt lat="43.45738288946449756622314453125" lon="-3.57162189669907093048095703125">
        <ele>42.59999847412109375</ele>
        <time>2018-09-05T07:40:49.000Z</time>
      </trkpt>
      <trkpt lat="43.4573786146938800811767578125" lon="-3.5716712661087512969970703125">
        <ele>42.59999847412109375</ele>
        <time>2018-09-05T07:40:50.000Z</time>
      </trkpt>
      <trkpt lat="43.45738179981708526611328125" lon="-3.57210905291140079498291015625">
        <ele>42.799999237060546875</ele>
        <time>2018-09-05T07:40:58.000Z</time>
      </trkpt>
      <trkpt lat="43.45739009790122509002685546875" lon="-3.57221768237650394439697265625">
        <ele>42.799999237060546875</ele>
        <time>2018-09-05T07:41:00.000Z</time>
      </trkpt>
      <trkpt lat="43.4574037604033946990966796875" lon="-3.5722737573087215423583984375">
        <ele>43</ele>
        <time>2018-09-05T07:41:01.000Z</time>
      </trkpt>
      <trkpt lat="43.45745011232793331146240234375" lon="-3.57237995602190494537353515625">
        <ele>42.799999237060546875</ele>
        <time>2018-09-05T07:41:03.000Z</time>
      </trkpt>
      <trkpt lat="43.4575023315846920013427734375" lon="-3.57248246669769287109375">
        <ele>43</ele>
        <time>2018-09-05T07:41:05.000Z</time>
      </trkpt>
      <trkpt lat="43.4576351009309291839599609375" lon="-3.5727126337587833404541015625">
        <ele>43.59999847412109375</ele>
        <time>2018-09-05T07:41:10.000Z</time>
      </trkpt>
      <trkpt lat="43.4578526951372623443603515625" lon="-3.57308202423155307769775390625">
        <ele>42.200000762939453125</ele>
        <time>2018-09-05T07:41:17.000Z</time>
      </trkpt>
      <trkpt lat="43.45798118971288204193115234375" lon="-3.5732473991811275482177734375">
        <ele>41.799999237060546875</ele>
        <time>2018-09-05T07:41:20.000Z</time>
      </trkpt>
      <trkpt lat="43.45809317193925380706787109375" lon="-3.5734217427670955657958984375">
        <ele>42.40000152587890625</ele>
        <time>2018-09-05T07:41:23.000Z</time>
      </trkpt>
      <trkpt lat="43.45820481888949871063232421875" lon="-3.5735913924872875213623046875">
        <ele>43.799999237060546875</ele>
        <time>2018-09-05T07:41:27.000Z</time>
      </trkpt>
      <trkpt lat="43.45822694711387157440185546875" lon="-3.57362098060548305511474609375">
        <ele>44.40000152587890625</ele>
        <time>2018-09-05T07:41:28.000Z</time>
      </trkpt>
      <trkpt lat="43.45827304758131504058837890625" lon="-3.57368233613669872283935546875">
        <ele>45</ele>
        <time>2018-09-05T07:41:30.000Z</time>
      </trkpt>
      <trkpt lat="43.4583737142384052276611328125" lon="-3.57381393201649188995361328125">
        <ele>46</ele>
        <time>2018-09-05T07:41:35.000Z</time>
      </trkpt>
      <trkpt lat="43.45839290879666805267333984375" lon="-3.57383756898343563079833984375">
        <ele>46.200000762939453125</ele>
        <time>2018-09-05T07:41:36.000Z</time>
      </trkpt>
      <trkpt lat="43.45845066010951995849609375" lon="-3.57390881516039371490478515625">
        <ele>47</ele>
        <time>2018-09-05T07:41:39.000Z</time>
      </trkpt>
      <trkpt lat="43.458466418087482452392578125" lon="-3.573930524289608001708984375">
        <ele>47.200000762939453125</ele>
        <time>2018-09-05T07:41:40.000Z</time>
      </trkpt>
      <trkpt lat="43.45851100981235504150390625" lon="-3.57399632222950458526611328125">
        <ele>48.200000762939453125</ele>
        <time>2018-09-05T07:41:43.000Z</time>
      </trkpt>
      <trkpt lat="43.45852718688547611236572265625" lon="-3.5740175284445285797119140625">
        <ele>48.40000152587890625</ele>
        <time>2018-09-05T07:41:44.000Z</time>
      </trkpt>
      <trkpt lat="43.45857915468513965606689453125" lon="-3.57407662086188793182373046875">
        <ele>49.200000762939453125</ele>
        <time>2018-09-05T07:41:47.000Z</time>
      </trkpt>
      <trkpt lat="43.4585936553776264190673828125" lon="-3.5740983299911022186279296875">
        <ele>49.59999847412109375</ele>
        <time>2018-09-05T07:41:48.000Z</time>
      </trkpt>
      <trkpt lat="43.45864336006343364715576171875" lon="-3.57416479848325252532958984375">
        <ele>50.200000762939453125</ele>
        <time>2018-09-05T07:41:51.000Z</time>
      </trkpt>
      <trkpt lat="43.45865928567945957183837890625" lon="-3.5741865076124668121337890625">
        <ele>50.59999847412109375</ele>
        <time>2018-09-05T07:41:52.000Z</time>
      </trkpt>
      <trkpt lat="43.45871510915458202362060546875" lon="-3.57427979819476604461669921875">
        <ele>51.59999847412109375</ele>
        <time>2018-09-05T07:41:56.000Z</time>
      </trkpt>
      <trkpt lat="43.458770848810672760009765625" lon="-3.57438826002180576324462890625">
        <ele>52</ele>
        <time>2018-09-05T07:42:00.000Z</time>
      </trkpt>
      <trkpt lat="43.45886765979230403900146484375" lon="-3.57465597800910472869873046875">
        <ele>52.200000762939453125</ele>
        <time>2018-09-05T07:42:07.000Z</time>
      </trkpt>
      <trkpt lat="43.45891426317393779754638671875" lon="-3.5749519430100917816162109375">
        <ele>52.59999847412109375</ele>
        <time>2018-09-05T07:42:13.000Z</time>
      </trkpt>
      <trkpt lat="43.458928428590297698974609375" lon="-3.575002737343311309814453125">
        <ele>52.59999847412109375</ele>
        <time>2018-09-05T07:42:14.000Z</time>
      </trkpt>
      <trkpt lat="43.4589510597288608551025390625" lon="-3.57515453360974788665771484375">
        <ele>52.799999237060546875</ele>
        <time>2018-09-05T07:42:17.000Z</time>
      </trkpt>
      <trkpt lat="43.4589798934757709503173828125" lon="-3.575279004871845245361328125">
        <ele>53.59999847412109375</ele>
        <time>2018-09-05T07:42:20.000Z</time>
      </trkpt>
      <trkpt lat="43.459024988114833831787109375" lon="-3.5754635743796825408935546875">
        <ele>54</ele>
        <time>2018-09-05T07:42:24.000Z</time>
      </trkpt>
      <trkpt lat="43.4590469487011432647705078125" lon="-3.5755658335983753204345703125">
        <ele>54</ele>
        <time>2018-09-05T07:42:26.000Z</time>
      </trkpt>
      <trkpt lat="43.45907150767743587493896484375" lon="-3.57572819106280803680419921875">
        <ele>53.799999237060546875</ele>
        <time>2018-09-05T07:42:29.000Z</time>
      </trkpt>
      <trkpt lat="43.45910687930881977081298828125" lon="-3.57592575252056121826171875">
        <ele>52.799999237060546875</ele>
        <time>2018-09-05T07:42:32.000Z</time>
      </trkpt>
      <trkpt lat="43.459117524325847625732421875" lon="-3.5760979168117046356201171875">
        <ele>52.200000762939453125</ele>
        <time>2018-09-05T07:42:34.000Z</time>
      </trkpt>
      <trkpt lat="43.45912448130548000335693359375" lon="-3.576191626489162445068359375">
        <ele>51.40000152587890625</ele>
        <time>2018-09-05T07:42:35.000Z</time>
      </trkpt>
      <trkpt lat="43.45914526842534542083740234375" lon="-3.576296232640743255615234375">
        <ele>50.799999237060546875</ele>
        <time>2018-09-05T07:42:36.000Z</time>
      </trkpt>
      <trkpt lat="43.459180891513824462890625" lon="-3.5763966478407382965087890625">
        <ele>50</ele>
        <time>2018-09-05T07:42:37.000Z</time>
      </trkpt>
      <trkpt lat="43.45927267335355281829833984375" lon="-3.57656537555158138275146484375">
        <ele>48.59999847412109375</ele>
        <time>2018-09-05T07:42:39.000Z</time>
      </trkpt>
      <trkpt lat="43.45936621539294719696044921875" lon="-3.57669646851718425750732421875">
        <ele>48</ele>
        <time>2018-09-05T07:42:41.000Z</time>
      </trkpt>
      <trkpt lat="43.459383733570575714111328125" lon="-3.5767592489719390869140625">
        <ele>48.200000762939453125</ele>
        <time>2018-09-05T07:42:42.000Z</time>
      </trkpt>
      <trkpt lat="43.4593336097896099090576171875" lon="-3.5769511945545673370361328125">
        <ele>48.59999847412109375</ele>
        <time>2018-09-05T07:42:45.000Z</time>
      </trkpt>
      <trkpt lat="43.45930854789912700653076171875" lon="-3.57702470384538173675537109375">
        <ele>48.40000152587890625</ele>
        <time>2018-09-05T07:42:46.000Z</time>
      </trkpt>
      <trkpt lat="43.4592524729669094085693359375" lon="-3.57719703577458858489990234375">
        <ele>47</ele>
        <time>2018-09-05T07:42:48.000Z</time>
      </trkpt>
      <trkpt lat="43.459229171276092529296875" lon="-3.57729812152683734893798828125">
        <ele>46.200000762939453125</ele>
        <time>2018-09-05T07:42:49.000Z</time>
      </trkpt>
      <trkpt lat="43.45921115018427371978759765625" lon="-3.5773937590420246124267578125">
        <ele>45.200000762939453125</ele>
        <time>2018-09-05T07:42:50.000Z</time>
      </trkpt>
      <trkpt lat="43.45920570194721221923828125" lon="-3.577471710741519927978515625">
        <ele>44.40000152587890625</ele>
        <time>2018-09-05T07:42:51.000Z</time>
      </trkpt>
      <trkpt lat="43.4592011757194995880126953125" lon="-3.5775639116764068603515625">
        <ele>43.799999237060546875</ele>
        <time>2018-09-05T07:42:52.000Z</time>
      </trkpt>
      <trkpt lat="43.45919120125472545623779296875" lon="-3.577665500342845916748046875">
        <ele>43</ele>
        <time>2018-09-05T07:42:53.000Z</time>
      </trkpt>
      <trkpt lat="43.45918114297091960906982421875" lon="-3.57776516117155551910400390625">
        <ele>42.200000762939453125</ele>
        <time>2018-09-05T07:42:54.000Z</time>
      </trkpt>
      <trkpt lat="43.459172509610652923583984375" lon="-3.57786121778190135955810546875">
        <ele>41.40000152587890625</ele>
        <time>2018-09-05T07:42:55.000Z</time>
      </trkpt>
      <trkpt lat="43.45916991122066974639892578125" lon="-3.57794637791812419891357421875">
        <ele>40.40000152587890625</ele>
        <time>2018-09-05T07:42:56.000Z</time>
      </trkpt>
      <trkpt lat="43.45916949212551116943359375" lon="-3.5780284367501735687255859375">
        <ele>39.40000152587890625</ele>
        <time>2018-09-05T07:42:57.000Z</time>
      </trkpt>
      <trkpt lat="43.4591790474951267242431640625" lon="-3.57810362242162227630615234375">
        <ele>38.40000152587890625</ele>
        <time>2018-09-05T07:42:58.000Z</time>
      </trkpt>
      <trkpt lat="43.459193296730518341064453125" lon="-3.57818140648305416107177734375">
        <ele>37.799999237060546875</ele>
        <time>2018-09-05T07:42:59.000Z</time>
      </trkpt>
      <trkpt lat="43.459212742745876312255859375" lon="-3.5782671533524990081787109375">
        <ele>37</ele>
        <time>2018-09-05T07:43:00.000Z</time>
      </trkpt>
      <trkpt lat="43.45924199558794498443603515625" lon="-3.57833915390074253082275390625">
        <ele>36.200000762939453125</ele>
        <time>2018-09-05T07:43:01.000Z</time>
      </trkpt>
      <trkpt lat="43.4592809714376926422119140625" lon="-3.578404448926448822021484375">
        <ele>35.59999847412109375</ele>
        <time>2018-09-05T07:43:02.000Z</time>
      </trkpt>
      <trkpt lat="43.45933738164603710174560546875" lon="-3.5784465260803699493408203125">
        <ele>35.40000152587890625</ele>
        <time>2018-09-05T07:43:03.000Z</time>
      </trkpt>
      <trkpt lat="43.45937694422900676727294921875" lon="-3.5785000026226043701171875">
        <ele>35.40000152587890625</ele>
        <time>2018-09-05T07:43:04.000Z</time>
      </trkpt>
      <trkpt lat="43.4594123996794223785400390625" lon="-3.57855431735515594482421875">
        <ele>35.59999847412109375</ele>
        <time>2018-09-05T07:43:05.000Z</time>
      </trkpt>
      <trkpt lat="43.459432683885097503662109375" lon="-3.57868582941591739654541015625">
        <ele>35.799999237060546875</ele>
        <time>2018-09-05T07:43:07.000Z</time>
      </trkpt>
      <trkpt lat="43.4594455920159816741943359375" lon="-3.57874550856649875640869140625">
        <ele>36</ele>
        <time>2018-09-05T07:43:08.000Z</time>
      </trkpt>
      <trkpt lat="43.459514491260051727294921875" lon="-3.579083383083343505859375">
        <ele>35.59999847412109375</ele>
        <time>2018-09-05T07:43:14.000Z</time>
      </trkpt>
      <trkpt lat="43.4595059417188167572021484375" lon="-3.57914130203425884246826171875">
        <ele>35.59999847412109375</ele>
        <time>2018-09-05T07:43:15.000Z</time>
      </trkpt>
      <trkpt lat="43.459434024989604949951171875" lon="-3.57923015020787715911865234375">
        <ele>34.799999237060546875</ele>
        <time>2018-09-05T07:43:17.000Z</time>
      </trkpt>
      <trkpt lat="43.45939169637858867645263671875" lon="-3.57928111217916011810302734375">
        <ele>34.200000762939453125</ele>
        <time>2018-09-05T07:43:18.000Z</time>
      </trkpt>
      <trkpt lat="43.459356240928173065185546875" lon="-3.57934598810970783233642578125">
        <ele>33.59999847412109375</ele>
        <time>2018-09-05T07:43:19.000Z</time>
      </trkpt>
      <trkpt lat="43.459317684173583984375" lon="-3.57948361895978450775146484375">
        <ele>32.40000152587890625</ele>
        <time>2018-09-05T07:43:21.000Z</time>
      </trkpt>
      <trkpt lat="43.45930268056690692901611328125" lon="-3.5795556195080280303955078125">
        <ele>32</ele>
        <time>2018-09-05T07:43:22.000Z</time>
      </trkpt>
      <trkpt lat="43.45928926952183246612548828125" lon="-3.57963264919817447662353515625">
        <ele>31.200000762939453125</ele>
        <time>2018-09-05T07:43:23.000Z</time>
      </trkpt>
      <trkpt lat="43.45928440801799297332763671875" lon="-3.57981227338314056396484375">
        <ele>29.799999237060546875</ele>
        <time>2018-09-05T07:43:25.000Z</time>
      </trkpt>
      <trkpt lat="43.45929446630179882049560546875" lon="-3.57989936135709285736083984375">
        <ele>29.6000003814697265625</ele>
        <time>2018-09-05T07:43:26.000Z</time>
      </trkpt>
      <trkpt lat="43.459325730800628662109375" lon="-3.58007621951401233673095703125">
        <ele>29.200000762939453125</ele>
        <time>2018-09-05T07:43:28.000Z</time>
      </trkpt>
      <trkpt lat="43.459339477121829986572265625" lon="-3.58016959391534328460693359375">
        <ele>28.799999237060546875</ele>
        <time>2018-09-05T07:43:29.000Z</time>
      </trkpt>
      <trkpt lat="43.4593550674617290496826171875" lon="-3.5803462006151676177978515625">
        <ele>27.6000003814697265625</ele>
        <time>2018-09-05T07:43:31.000Z</time>
      </trkpt>
      <trkpt lat="43.4593523852527141571044921875" lon="-3.58055532909929752349853515625">
        <ele>26.6000003814697265625</ele>
        <time>2018-09-05T07:43:34.000Z</time>
      </trkpt>
      <trkpt lat="43.45931491814553737640380859375" lon="-3.5806033574044704437255859375">
        <ele>26.3999996185302734375</ele>
        <time>2018-09-05T07:43:35.000Z</time>
      </trkpt>
      <trkpt lat="43.45921584405004978179931640625" lon="-3.5806529782712459564208984375">
        <ele>25.3999996185302734375</ele>
        <time>2018-09-05T07:43:37.000Z</time>
      </trkpt>
      <trkpt lat="43.45916488207876682281494140625" lon="-3.5806757770478725433349609375">
        <ele>24.799999237060546875</ele>
        <time>2018-09-05T07:43:38.000Z</time>
      </trkpt>
      <trkpt lat="43.45911316573619842529296875" lon="-3.5806958936154842376708984375">
        <ele>24.200000762939453125</ele>
        <time>2018-09-05T07:43:39.000Z</time>
      </trkpt>
      <trkpt lat="43.45900177024304866790771484375" lon="-3.58072916977107524871826171875">
        <ele>23</ele>
        <time>2018-09-05T07:43:41.000Z</time>
      </trkpt>
      <trkpt lat="43.458888530731201171875" lon="-3.5807763598859310150146484375">
        <ele>21.6000003814697265625</ele>
        <time>2018-09-05T07:43:43.000Z</time>
      </trkpt>
      <trkpt lat="43.4588313661515712738037109375" lon="-3.58080293051898479461669921875">
        <ele>20.6000003814697265625</ele>
        <time>2018-09-05T07:43:44.000Z</time>
      </trkpt>
      <trkpt lat="43.45877864398062229156494140625" lon="-3.58083595521748065948486328125">
        <ele>19.799999237060546875</ele>
        <time>2018-09-05T07:43:45.000Z</time>
      </trkpt>
      <trkpt lat="43.45872919075191020965576171875" lon="-3.58086814172565937042236328125">
        <ele>18.799999237060546875</ele>
        <time>2018-09-05T07:43:46.000Z</time>
      </trkpt>
      <trkpt lat="43.45863975584506988525390625" lon="-3.58094609342515468597412109375">
        <ele>17.3999996185302734375</ele>
        <time>2018-09-05T07:43:48.000Z</time>
      </trkpt>
      <trkpt lat="43.45860580913722515106201171875" lon="-3.580980710685253143310546875">
        <ele>16.799999237060546875</ele>
        <time>2018-09-05T07:43:49.000Z</time>
      </trkpt>
      <trkpt lat="43.458574377000331878662109375" lon="-3.58106888830661773681640625">
        <ele>16</ele>
        <time>2018-09-05T07:43:51.000Z</time>
      </trkpt>
      <trkpt lat="43.45857965759932994842529296875" lon="-3.58111423440277576446533203125">
        <ele>15.80000019073486328125</ele>
        <time>2018-09-05T07:43:52.000Z</time>
      </trkpt>
      <trkpt lat="43.458670265972614288330078125" lon="-3.5812551341950893402099609375">
        <ele>15.3999996185302734375</ele>
        <time>2018-09-05T07:43:55.000Z</time>
      </trkpt>
      <trkpt lat="43.45885030925273895263671875" lon="-3.5815823636949062347412109375">
        <ele>14.80000019073486328125</ele>
        <time>2018-09-05T07:44:01.000Z</time>
      </trkpt>
      <trkpt lat="43.458878137171268463134765625" lon="-3.5816396959125995635986328125">
        <ele>14.6000003814697265625</ele>
        <time>2018-09-05T07:44:02.000Z</time>
      </trkpt>
      <trkpt lat="43.45890822820365428924560546875" lon="-3.58169895596802234649658203125">
        <ele>14.3999996185302734375</ele>
        <time>2018-09-05T07:44:03.000Z</time>
      </trkpt>
      <trkpt lat="43.45894024707376956939697265625" lon="-3.58176031149923801422119140625">
        <ele>14.3999996185302734375</ele>
        <time>2018-09-05T07:44:04.000Z</time>
      </trkpt>
      <trkpt lat="43.45897394232451915740966796875" lon="-3.581824935972690582275390625">
        <ele>14.19999980926513671875</ele>
        <time>2018-09-05T07:44:05.000Z</time>
      </trkpt>
      <trkpt lat="43.45904401503503322601318359375" lon="-3.58196198008954524993896484375">
        <ele>13.6000003814697265625</ele>
        <time>2018-09-05T07:44:07.000Z</time>
      </trkpt>
      <trkpt lat="43.45908391289412975311279296875" lon="-3.582030124962329864501953125">
        <ele>13.19999980926513671875</ele>
        <time>2018-09-05T07:44:08.000Z</time>
      </trkpt>
      <trkpt lat="43.45916815102100372314453125" lon="-3.58216951601207256317138671875">
        <ele>12.3999996185302734375</ele>
        <time>2018-09-05T07:44:10.000Z</time>
      </trkpt>
      <trkpt lat="43.45925171859562397003173828125" lon="-3.58232080936431884765625">
        <ele>11.6000003814697265625</ele>
        <time>2018-09-05T07:44:12.000Z</time>
      </trkpt>
      <trkpt lat="43.45936420373618602752685546875" lon="-3.58256329782307147979736328125">
        <ele>11.19999980926513671875</ele>
        <time>2018-09-05T07:44:15.000Z</time>
      </trkpt>
      <trkpt lat="43.45959235914051532745361328125" lon="-3.58306738547980785369873046875">
        <ele>10</ele>
        <time>2018-09-05T07:44:21.000Z</time>
      </trkpt>
      <trkpt lat="43.459719009697437286376953125" lon="-3.5833145678043365478515625">
        <ele>9.3999996185302734375</ele>
        <time>2018-09-05T07:44:24.000Z</time>
      </trkpt>
      <trkpt lat="43.45982017926871776580810546875" lon="-3.58346250839531421661376953125">
        <ele>9</ele>
        <time>2018-09-05T07:44:26.000Z</time>
      </trkpt>
      <trkpt lat="43.45998060889542102813720703125" lon="-3.583660237491130828857421875">
        <ele>8.80000019073486328125</ele>
        <time>2018-09-05T07:44:29.000Z</time>
      </trkpt>
      <trkpt lat="43.4601285494863986968994140625" lon="-3.58383734710514545440673828125">
        <ele>8.6000003814697265625</ele>
        <time>2018-09-05T07:44:32.000Z</time>
      </trkpt>
      <trkpt lat="43.4603032283484935760498046875" lon="-3.5840882174670696258544921875">
        <ele>8.80000019073486328125</ele>
        <time>2018-09-05T07:44:36.000Z</time>
      </trkpt>
      <trkpt lat="43.4604507498443126678466796875" lon="-3.58433020301163196563720703125">
        <ele>9.6000003814697265625</ele>
        <time>2018-09-05T07:44:40.000Z</time>
      </trkpt>
      <trkpt lat="43.46055627800524234771728515625" lon="-3.584489710628986358642578125">
        <ele>10</ele>
        <time>2018-09-05T07:44:43.000Z</time>
      </trkpt>
      <trkpt lat="43.46066792495548725128173828125" lon="-3.584694899618625640869140625">
        <ele>10.6000003814697265625</ele>
        <time>2018-09-05T07:44:47.000Z</time>
      </trkpt>
      <trkpt lat="43.4607186354696750640869140625" lon="-3.5847959853708744049072265625">
        <ele>11</ele>
        <time>2018-09-05T07:44:49.000Z</time>
      </trkpt>
      <trkpt lat="43.4607432782649993896484375" lon="-3.5848461091518402099609375">
        <ele>11.19999980926513671875</ele>
        <time>2018-09-05T07:44:50.000Z</time>
      </trkpt>
      <trkpt lat="43.4608467109501361846923828125" lon="-3.58504249714314937591552734375">
        <ele>11.80000019073486328125</ele>
        <time>2018-09-05T07:44:54.000Z</time>
      </trkpt>
      <trkpt lat="43.460897170007228851318359375" lon="-3.58513453043997287750244140625">
        <ele>12</ele>
        <time>2018-09-05T07:44:56.000Z</time>
      </trkpt>
      <trkpt lat="43.46094310283660888671875" lon="-3.58522539027035236358642578125">
        <ele>12.19999980926513671875</ele>
        <time>2018-09-05T07:44:58.000Z</time>
      </trkpt>
      <trkpt lat="43.46098878420889377593994140625" lon="-3.58531641773879528045654296875">
        <ele>12.6000003814697265625</ele>
        <time>2018-09-05T07:45:00.000Z</time>
      </trkpt>
      <trkpt lat="43.461073525249958038330078125" lon="-3.58550316654145717620849609375">
        <ele>13.3999996185302734375</ele>
        <time>2018-09-05T07:45:04.000Z</time>
      </trkpt>
      <trkpt lat="43.46115172840654850006103515625" lon="-3.5856760852038860321044921875">
        <ele>14</ele>
        <time>2018-09-05T07:45:08.000Z</time>
      </trkpt>
      <trkpt lat="43.46120989881455898284912109375" lon="-3.5857954435050487518310546875">
        <ele>14.3999996185302734375</ele>
        <time>2018-09-05T07:45:11.000Z</time>
      </trkpt>
      <trkpt lat="43.4612279199063777923583984375" lon="-3.58591320924460887908935546875">
        <ele>15</ele>
        <time>2018-09-05T07:45:14.000Z</time>
      </trkpt>
      <trkpt lat="43.4612245671451091766357421875" lon="-3.58599401079118251800537109375">
        <ele>15.19999980926513671875</ele>
        <time>2018-09-05T07:45:17.000Z</time>
      </trkpt>
      <trkpt lat="43.46119548194110393524169921875" lon="-3.5860227607190608978271484375">
        <ele>15.19999980926513671875</ele>
        <time>2018-09-05T07:45:19.000Z</time>
      </trkpt>
      <trkpt lat="43.4611233137547969818115234375" lon="-3.58608822338283061981201171875">
        <ele>13.6000003814697265625</ele>
        <time>2018-09-05T07:45:22.000Z</time>
      </trkpt>
      <trkpt lat="43.46109758131206035614013671875" lon="-3.5861266963183879852294921875">
        <ele>12.80000019073486328125</ele>
        <time>2018-09-05T07:45:23.000Z</time>
      </trkpt>
      <trkpt lat="43.46107922494411468505859375" lon="-3.58616919256746768951416015625">
        <ele>11.80000019073486328125</ele>
        <time>2018-09-05T07:45:24.000Z</time>
      </trkpt>
      <trkpt lat="43.4610706754028797149658203125" lon="-3.58621864579617977142333984375">
        <ele>10.80000019073486328125</ele>
        <time>2018-09-05T07:45:25.000Z</time>
      </trkpt>
      <trkpt lat="43.46109867095947265625" lon="-3.5862762294709682464599609375">
        <ele>9.19999980926513671875</ele>
        <time>2018-09-05T07:45:27.000Z</time>
      </trkpt>
      <trkpt lat="43.46118793822824954986572265625" lon="-3.5863647423684597015380859375">
        <ele>10.19999980926513671875</ele>
        <time>2018-09-05T07:45:33.000Z</time>
      </trkpt>
      <trkpt lat="43.4612073004245758056640625" lon="-3.5863774828612804412841796875">
        <ele>10.3999996185302734375</ele>
        <time>2018-09-05T07:45:34.000Z</time>
      </trkpt>
      <trkpt lat="43.461304865777492523193359375" lon="-3.5864607989788055419921875">
        <ele>10.80000019073486328125</ele>
        <time>2018-09-05T07:45:39.000Z</time>
      </trkpt>
      <trkpt lat="43.46136429347097873687744140625" lon="-3.58651243150234222412109375">
        <ele>11.3999996185302734375</ele>
        <time>2018-09-05T07:45:42.000Z</time>
      </trkpt>
      <trkpt lat="43.46144358627498149871826171875" lon="-3.586545288562774658203125">
        <ele>11.3999996185302734375</ele>
        <time>2018-09-05T07:45:45.000Z</time>
      </trkpt>
      <trkpt lat="43.4615930356085300445556640625" lon="-3.58668367378413677215576171875">
        <ele>12.19999980926513671875</ele>
        <time>2018-09-05T07:45:52.000Z</time>
      </trkpt>
      <trkpt lat="43.46166151575744152069091796875" lon="-3.5868765413761138916015625">
        <ele>11.6000003814697265625</ele>
        <time>2018-09-05T07:45:57.000Z</time>
      </trkpt>
      <trkpt lat="43.4617184288799762725830078125" lon="-3.58707510866224765777587890625">
        <ele>11.19999980926513671875</ele>
        <time>2018-09-05T07:46:01.000Z</time>
      </trkpt>
      <trkpt lat="43.46175572834908962249755859375" lon="-3.58718591742217540740966796875">
        <ele>11</ele>
        <time>2018-09-05T07:46:03.000Z</time>
      </trkpt>
      <trkpt lat="43.46184340305626392364501953125" lon="-3.58736403286457061767578125">
        <ele>10</ele>
        <time>2018-09-05T07:46:06.000Z</time>
      </trkpt>
      <trkpt lat="43.46189520321786403656005859375" lon="-3.5874983109533786773681640625">
        <ele>9.19999980926513671875</ele>
        <time>2018-09-05T07:46:08.000Z</time>
      </trkpt>
      <trkpt lat="43.461921773850917816162109375" lon="-3.58756176196038722991943359375">
        <ele>8.80000019073486328125</ele>
        <time>2018-09-05T07:46:09.000Z</time>
      </trkpt>
      <trkpt lat="43.46194432117044925689697265625" lon="-3.58764591626822948455810546875">
        <ele>8.3999996185302734375</ele>
        <time>2018-09-05T07:46:10.000Z</time>
      </trkpt>
      <trkpt lat="43.4619588218629360198974609375" lon="-3.58773174695670604705810546875">
        <ele>7.599999904632568359375</ele>
        <time>2018-09-05T07:46:11.000Z</time>
      </trkpt>
      <trkpt lat="43.46196225844323635101318359375" lon="-3.587837778031826019287109375">
        <ele>6.80000019073486328125</ele>
        <time>2018-09-05T07:46:12.000Z</time>
      </trkpt>
      <trkpt lat="43.4619514457881450653076171875" lon="-3.58793802559375762939453125">
        <ele>6.19999980926513671875</ele>
        <time>2018-09-05T07:46:13.000Z</time>
      </trkpt>
      <trkpt lat="43.46190140582621097564697265625" lon="-3.5881316475570201873779296875">
        <ele>5.19999980926513671875</ele>
        <time>2018-09-05T07:46:15.000Z</time>
      </trkpt>
      <trkpt lat="43.46186938695609569549560546875" lon="-3.588224016129970550537109375">
        <ele>5</ele>
        <time>2018-09-05T07:46:16.000Z</time>
      </trkpt>
      <trkpt lat="43.46184088848531246185302734375" lon="-3.58831621706485748291015625">
        <ele>4.80000019073486328125</ele>
        <time>2018-09-05T07:46:17.000Z</time>
      </trkpt>
      <trkpt lat="43.461782634258270263671875" lon="-3.58850472606718540191650390625">
        <ele>3.400000095367431640625</ele>
        <time>2018-09-05T07:46:19.000Z</time>
      </trkpt>
      <trkpt lat="43.46175187267363071441650390625" lon="-3.5885986872017383575439453125">
        <ele>3</ele>
        <time>2018-09-05T07:46:20.000Z</time>
      </trkpt>
      <trkpt lat="43.4617251344025135040283203125" lon="-3.58869164250791072845458984375">
        <ele>2.400000095367431640625</ele>
        <time>2018-09-05T07:46:21.000Z</time>
      </trkpt>
      <trkpt lat="43.46165631897747516632080078125" lon="-3.58886699192225933074951171875">
        <ele>1</ele>
        <time>2018-09-05T07:46:23.000Z</time>
      </trkpt>
      <trkpt lat="43.4615950472652912139892578125" lon="-3.58895550481975078582763671875">
        <ele>0.4000000059604644775390625</ele>
        <time>2018-09-05T07:46:24.000Z</time>
      </trkpt>
      <trkpt lat="43.46153293736279010772705078125" lon="-3.58904535882174968719482421875">
        <ele>-0.4000000059604644775390625</ele>
        <time>2018-09-05T07:46:25.000Z</time>
      </trkpt>
      <trkpt lat="43.4614378027617931365966796875" lon="-3.58924333937466144561767578125">
        <ele>-1.39999997615814208984375</ele>
        <time>2018-09-05T07:46:27.000Z</time>
      </trkpt>
      <trkpt lat="43.4613848291337490081787109375" lon="-3.58945841901004314422607421875">
        <ele>-1.7999999523162841796875</ele>
        <time>2018-09-05T07:46:29.000Z</time>
      </trkpt>
      <trkpt lat="43.46130595542490482330322265625" lon="-3.58976184390485286712646484375">
        <ele>-2.599999904632568359375</ele>
        <time>2018-09-05T07:46:32.000Z</time>
      </trkpt>
      <trkpt lat="43.461230434477329254150390625" lon="-3.59005236066877841949462890625">
        <ele>-3.2000000476837158203125</ele>
        <time>2018-09-05T07:46:35.000Z</time>
      </trkpt>
      <trkpt lat="43.46120520494878292083740234375" lon="-3.5901486687362194061279296875">
        <ele>-3.599999904632568359375</ele>
        <time>2018-09-05T07:46:36.000Z</time>
      </trkpt>
      <trkpt lat="43.46117972396314144134521484375" lon="-3.5902448929846286773681640625">
        <ele>-4</ele>
        <time>2018-09-05T07:46:37.000Z</time>
      </trkpt>
      <trkpt lat="43.46110277809202671051025390625" lon="-3.59054169617593288421630859375">
        <ele>-5.19999980926513671875</ele>
        <time>2018-09-05T07:46:40.000Z</time>
      </trkpt>
      <trkpt lat="43.4610770456492900848388671875" lon="-3.5906348191201686859130859375">
        <ele>-6.19999980926513671875</ele>
        <time>2018-09-05T07:46:41.000Z</time>
      </trkpt>
      <trkpt lat="43.46100035123527050018310546875" lon="-3.5908985137939453125">
        <ele>-5.80000019073486328125</ele>
        <time>2018-09-05T07:46:44.000Z</time>
      </trkpt>
      <trkpt lat="43.46092675812542438507080078125" lon="-3.5913238115608692169189453125">
        <ele>-6.19999980926513671875</ele>
        <time>2018-09-05T07:46:49.000Z</time>
      </trkpt>
      <trkpt lat="43.4608939848840236663818359375" lon="-3.59157501719892024993896484375">
        <ele>-5.599999904632568359375</ele>
        <time>2018-09-05T07:46:53.000Z</time>
      </trkpt>
      <trkpt lat="43.46088769845664501190185546875" lon="-3.59161667525768280029296875">
        <ele>-5.400000095367431640625</ele>
        <time>2018-09-05T07:46:54.000Z</time>
      </trkpt>
      <trkpt lat="43.460881747305393218994140625" lon="-3.59164693392813205718994140625">
        <ele>-5</ele>
        <time>2018-09-05T07:46:55.000Z</time>
      </trkpt>
      <trkpt lat="43.46087797544896602630615234375" lon="-3.59167844988405704498291015625">
        <ele>-4.599999904632568359375</ele>
        <time>2018-09-05T07:46:56.000Z</time>
      </trkpt>
      <trkpt lat="43.460874371230602264404296875" lon="-3.59170543961226940155029296875">
        <ele>-4.19999980926513671875</ele>
        <time>2018-09-05T07:46:57.000Z</time>
      </trkpt>
      <trkpt lat="43.4608658216893672943115234375" lon="-3.591755144298076629638671875">
        <ele>-4</ele>
        <time>2018-09-05T07:46:59.000Z</time>
      </trkpt>
      <trkpt lat="43.4608423523604869842529296875" lon="-3.59184709377586841583251953125">
        <ele>-4.80000019073486328125</ele>
        <time>2018-09-05T07:47:02.000Z</time>
      </trkpt>
      <trkpt lat="43.46081410534679889678955078125" lon="-3.59196661971509456634521484375">
        <ele>-6</ele>
        <time>2018-09-05T07:47:05.000Z</time>
      </trkpt>
      <trkpt lat="43.4608255885541439056396484375" lon="-3.59200919978320598602294921875">
        <ele>-6.400000095367431640625</ele>
        <time>2018-09-05T07:47:06.000Z</time>
      </trkpt>
      <trkpt lat="43.460954837501049041748046875" lon="-3.592087738215923309326171875">
        <ele>-6.599999904632568359375</ele>
        <time>2018-09-05T07:47:10.000Z</time>
      </trkpt>
      <trkpt lat="43.46102893352508544921875" lon="-3.59210223890841007232666015625">
        <ele>-6.599999904632568359375</ele>
        <time>2018-09-05T07:47:12.000Z</time>
      </trkpt>
      <trkpt lat="43.4610659815371036529541015625" lon="-3.59210290946066379547119140625">
        <ele>-6.400000095367431640625</ele>
        <time>2018-09-05T07:47:13.000Z</time>
      </trkpt>
      <trkpt lat="43.46110261045396327972412109375" lon="-3.592099137604236602783203125">
        <ele>-6.400000095367431640625</ele>
        <time>2018-09-05T07:47:14.000Z</time>
      </trkpt>
      <trkpt lat="43.46114736981689929962158203125" lon="-3.59210726805031299591064453125">
        <ele>-6.400000095367431640625</ele>
        <time>2018-09-05T07:47:15.000Z</time>
      </trkpt>
      <trkpt lat="43.4613278321921825408935546875" lon="-3.59218236990272998809814453125">
        <ele>-6.19999980926513671875</ele>
        <time>2018-09-05T07:47:20.000Z</time>
      </trkpt>
      <trkpt lat="43.46139304339885711669921875" lon="-3.59222763217985630035400390625">
        <ele>-6</ele>
        <time>2018-09-05T07:47:22.000Z</time>
      </trkpt>
      <trkpt lat="43.4614525549113750457763671875" lon="-3.5922823660075664520263671875">
        <ele>-5.80000019073486328125</ele>
        <time>2018-09-05T07:47:24.000Z</time>
      </trkpt>
      <trkpt lat="43.46150527708232402801513671875" lon="-3.5923504270613193511962890625">
        <ele>-5.80000019073486328125</ele>
        <time>2018-09-05T07:47:26.000Z</time>
      </trkpt>
      <trkpt lat="43.46158004365861415863037109375" lon="-3.5924449749290943145751953125">
        <ele>-5.400000095367431640625</ele>
        <time>2018-09-05T07:47:29.000Z</time>
      </trkpt>
      <trkpt lat="43.4616069495677947998046875" lon="-3.592469282448291778564453125">
        <ele>-5</ele>
        <time>2018-09-05T07:47:30.000Z</time>
      </trkpt>
      <trkpt lat="43.4617154113948345184326171875" lon="-3.59254614450037479400634765625">
        <ele>-4.400000095367431640625</ele>
        <time>2018-09-05T07:47:34.000Z</time>
      </trkpt>
      <trkpt lat="43.4618022479116916656494140625" lon="-3.5926049016416072845458984375">
        <ele>-4</ele>
        <time>2018-09-05T07:47:37.000Z</time>
      </trkpt>
      <trkpt lat="43.4618760086596012115478515625" lon="-3.59268293716013431549072265625">
        <ele>-3.7999999523162841796875</ele>
        <time>2018-09-05T07:47:40.000Z</time>
      </trkpt>
      <trkpt lat="43.46189872361719608306884765625" lon="-3.59271797351539134979248046875">
        <ele>-3.599999904632568359375</ele>
        <time>2018-09-05T07:47:41.000Z</time>
      </trkpt>
      <trkpt lat="43.46197684295475482940673828125" lon="-3.592795841395854949951171875">
        <ele>-3.400000095367431640625</ele>
        <time>2018-09-05T07:47:44.000Z</time>
      </trkpt>
      <trkpt lat="43.46203434281051158905029296875" lon="-3.5928382538259029388427734375">
        <ele>-3</ele>
        <time>2018-09-05T07:47:46.000Z</time>
      </trkpt>
      <trkpt lat="43.4620644338428974151611328125" lon="-3.59285744838416576385498046875">
        <ele>-3</ele>
        <time>2018-09-05T07:47:47.000Z</time>
      </trkpt>
      <trkpt lat="43.46222125925123691558837890625" lon="-3.5929897986352443695068359375">
        <ele>-1.7999999523162841796875</ele>
        <time>2018-09-05T07:47:53.000Z</time>
      </trkpt>
      <trkpt lat="43.46226015128195285797119140625" lon="-3.59304855577647686004638671875">
        <ele>-1.2000000476837158203125</ele>
        <time>2018-09-05T07:47:55.000Z</time>
      </trkpt>
      <trkpt lat="43.46229434944689273834228515625" lon="-3.5931099951267242431640625">
        <ele>-0.60000002384185791015625</ele>
        <time>2018-09-05T07:47:57.000Z</time>
      </trkpt>
      <trkpt lat="43.46232837997376918792724609375" lon="-3.5931621305644512176513671875">
        <ele>-0.20000000298023223876953125</ele>
        <time>2018-09-05T07:47:59.000Z</time>
      </trkpt>
      <trkpt lat="43.46239090897142887115478515625" lon="-3.5932208038866519927978515625">
        <ele>0.20000000298023223876953125</ele>
        <time>2018-09-05T07:48:02.000Z</time>
      </trkpt>
      <trkpt lat="43.46241588704288005828857421875" lon="-3.59323916025459766387939453125">
        <ele>0.4000000059604644775390625</ele>
        <time>2018-09-05T07:48:03.000Z</time>
      </trkpt>
      <trkpt lat="43.4626007080078125" lon="-3.593317531049251556396484375">
        <ele>0.800000011920928955078125</ele>
        <time>2018-09-05T07:48:09.000Z</time>
      </trkpt>
      <trkpt lat="43.4626686014235019683837890625" lon="-3.59334544278681278228759765625">
        <ele>0.60000002384185791015625</ele>
        <time>2018-09-05T07:48:11.000Z</time>
      </trkpt>
      <trkpt lat="43.462900109589099884033203125" lon="-3.59344066120684146881103515625">
        <ele>0.800000011920928955078125</ele>
        <time>2018-09-05T07:48:18.000Z</time>
      </trkpt>
      <trkpt lat="43.46323647536337375640869140625" lon="-3.5935678146779537200927734375">
        <ele>0.800000011920928955078125</ele>
        <time>2018-09-05T07:48:27.000Z</time>
      </trkpt>
      <trkpt lat="43.4634249843657016754150390625" lon="-3.59359748661518096923828125">
        <ele>1</ele>
        <time>2018-09-05T07:48:32.000Z</time>
      </trkpt>
      <trkpt lat="43.4634925425052642822265625" lon="-3.59358717687427997589111328125">
        <ele>1.2000000476837158203125</ele>
        <time>2018-09-05T07:48:34.000Z</time>
      </trkpt>
      <trkpt lat="43.46355197019875049591064453125" lon="-3.5935627855360507965087890625">
        <ele>1.60000002384185791015625</ele>
        <time>2018-09-05T07:48:36.000Z</time>
      </trkpt>
      <trkpt lat="43.46361751668155193328857421875" lon="-3.5934935510158538818359375">
        <ele>2.400000095367431640625</ele>
        <time>2018-09-05T07:48:39.000Z</time>
      </trkpt>
      <trkpt lat="43.46363310702145099639892578125" lon="-3.5934668965637683868408203125">
        <ele>2.7999999523162841796875</ele>
        <time>2018-09-05T07:48:40.000Z</time>
      </trkpt>
      <trkpt lat="43.46365951001644134521484375" lon="-3.59341442584991455078125">
        <ele>3.599999904632568359375</ele>
        <time>2018-09-05T07:48:42.000Z</time>
      </trkpt>
      <trkpt lat="43.46367367543280124664306640625" lon="-3.5933889448642730712890625">
        <ele>4</ele>
        <time>2018-09-05T07:48:43.000Z</time>
      </trkpt>
      <trkpt lat="43.46371022053062915802001953125" lon="-3.593313507735729217529296875">
        <ele>4.80000019073486328125</ele>
        <time>2018-09-05T07:48:46.000Z</time>
      </trkpt>
      <trkpt lat="43.46372178755700588226318359375" lon="-3.59328727237880229949951171875">
        <ele>5.19999980926513671875</ele>
        <time>2018-09-05T07:48:47.000Z</time>
      </trkpt>
      <trkpt lat="43.463773839175701141357421875" lon="-3.59318870119750499725341796875">
        <ele>6.19999980926513671875</ele>
        <time>2018-09-05T07:48:51.000Z</time>
      </trkpt>
      <trkpt lat="43.463826142251491546630859375" lon="-3.5930897109210491180419921875">
        <ele>7.400000095367431640625</ele>
        <time>2018-09-05T07:48:55.000Z</time>
      </trkpt>
      <trkpt lat="43.4638910181820392608642578125" lon="-3.59298996627330780029296875">
        <ele>8.19999980926513671875</ele>
        <time>2018-09-05T07:48:59.000Z</time>
      </trkpt>
      <trkpt lat="43.46392798237502574920654296875" lon="-3.59294780530035495758056640625">
        <ele>8.3999996185302734375</ele>
        <time>2018-09-05T07:49:01.000Z</time>
      </trkpt>
      <trkpt lat="43.4639619290828704833984375" lon="-3.59290857799351215362548828125">
        <ele>8.80000019073486328125</ele>
        <time>2018-09-05T07:49:03.000Z</time>
      </trkpt>
      <trkpt lat="43.4640164114534854888916015625" lon="-3.59285141341388225555419921875">
        <ele>9.80000019073486328125</ele>
        <time>2018-09-05T07:49:06.000Z</time>
      </trkpt>
      <trkpt lat="43.4641022421419620513916015625" lon="-3.59280757606029510498046875">
        <ele>10.80000019073486328125</ele>
        <time>2018-09-05T07:49:10.000Z</time>
      </trkpt>
      <trkpt lat="43.46424096263945102691650390625" lon="-3.59274781309068202972412109375">
        <ele>12</ele>
        <time>2018-09-05T07:49:17.000Z</time>
      </trkpt>
      <trkpt lat="43.46427281387150287628173828125" lon="-3.5927323065698146820068359375">
        <ele>12.3999996185302734375</ele>
        <time>2018-09-05T07:49:19.000Z</time>
      </trkpt>
      <trkpt lat="43.4643315710127353668212890625" lon="-3.592719733715057373046875">
        <ele>13</ele>
        <time>2018-09-05T07:49:22.000Z</time>
      </trkpt>
      <trkpt lat="43.46443064510822296142578125" lon="-3.59267120249569416046142578125">
        <ele>13.80000019073486328125</ele>
        <time>2018-09-05T07:49:27.000Z</time>
      </trkpt>
      <trkpt lat="43.46449325792491436004638671875" lon="-3.59264773316681385040283203125">
        <ele>14.3999996185302734375</ele>
        <time>2018-09-05T07:49:30.000Z</time>
      </trkpt>
      <trkpt lat="43.46455612219870090484619140625" lon="-3.59261956997215747833251953125">
        <ele>15</ele>
        <time>2018-09-05T07:49:33.000Z</time>
      </trkpt>
      <trkpt lat="43.46459702588617801666259765625" lon="-3.5925981961190700531005859375">
        <ele>15</ele>
        <time>2018-09-05T07:49:35.000Z</time>
      </trkpt>
      <trkpt lat="43.464637510478496551513671875" lon="-3.59257397241890430450439453125">
        <ele>15.3999996185302734375</ele>
        <time>2018-09-05T07:49:37.000Z</time>
      </trkpt>
      <trkpt lat="43.46480481326580047607421875" lon="-3.59249954111874103546142578125">
        <ele>16</ele>
        <time>2018-09-05T07:49:44.000Z</time>
      </trkpt>
      <trkpt lat="43.464893661439418792724609375" lon="-3.5924416221678256988525390625">
        <ele>16.6000003814697265625</ele>
        <time>2018-09-05T07:49:48.000Z</time>
      </trkpt>
      <trkpt lat="43.46496951766312122344970703125" lon="-3.5923692025244235992431640625">
        <ele>17.6000003814697265625</ele>
        <time>2018-09-05T07:49:52.000Z</time>
      </trkpt>
      <trkpt lat="43.4650051407516002655029296875" lon="-3.59232855029404163360595703125">
        <ele>18</ele>
        <time>2018-09-05T07:49:54.000Z</time>
      </trkpt>
      <trkpt lat="43.465103209018707275390625" lon="-3.592260740697383880615234375">
        <ele>18.3999996185302734375</ele>
        <time>2018-09-05T07:49:59.000Z</time>
      </trkpt>
      <trkpt lat="43.46513581462204456329345703125" lon="-3.59227381646633148193359375">
        <ele>19</ele>
        <time>2018-09-05T07:50:01.000Z</time>
      </trkpt>
      <trkpt lat="43.465156853199005126953125" lon="-3.5923299752175807952880859375">
        <ele>19.799999237060546875</ele>
        <time>2018-09-05T07:50:04.000Z</time>
      </trkpt>
      <trkpt lat="43.46515752375125885009765625" lon="-3.59235419891774654388427734375">
        <ele>20.200000762939453125</ele>
        <time>2018-09-05T07:50:05.000Z</time>
      </trkpt>
      <trkpt lat="43.46515760757029056549072265625" lon="-3.59237951226532459259033203125">
        <ele>20.6000003814697265625</ele>
        <time>2018-09-05T07:50:06.000Z</time>
      </trkpt>
      <trkpt lat="43.4651385806500911712646484375" lon="-3.5924756526947021484375">
        <ele>21.200000762939453125</ele>
        <time>2018-09-05T07:50:10.000Z</time>
      </trkpt>
      <trkpt lat="43.46513598226010799407958984375" lon="-3.59250088222324848175048828125">
        <ele>21.3999996185302734375</ele>
        <time>2018-09-05T07:50:11.000Z</time>
      </trkpt>
      <trkpt lat="43.46512877382338047027587890625" lon="-3.59263801015913486480712890625">
        <ele>22.200000762939453125</ele>
        <time>2018-09-05T07:50:16.000Z</time>
      </trkpt>
      <trkpt lat="43.4651251696050167083740234375" lon="-3.592726103961467742919921875">
        <ele>22.799999237060546875</ele>
        <time>2018-09-05T07:50:19.000Z</time>
      </trkpt>
      <trkpt lat="43.46512441523373126983642578125" lon="-3.5928925685584545135498046875">
        <ele>23.200000762939453125</ele>
        <time>2018-09-05T07:50:24.000Z</time>
      </trkpt>
      <trkpt lat="43.4651127643883228302001953125" lon="-3.59300069510936737060546875">
        <ele>23.799999237060546875</ele>
        <time>2018-09-05T07:50:27.000Z</time>
      </trkpt>
      <trkpt lat="43.46511083655059337615966796875" lon="-3.5931743681430816650390625">
        <ele>24.3999996185302734375</ele>
        <time>2018-09-05T07:50:32.000Z</time>
      </trkpt>
      <trkpt lat="43.46510530449450016021728515625" lon="-3.59331325627863407135009765625">
        <ele>25.200000762939453125</ele>
        <time>2018-09-05T07:50:36.000Z</time>
      </trkpt>
      <trkpt lat="43.46510899253189563751220703125" lon="-3.5933810658752918243408203125">
        <ele>25.799999237060546875</ele>
        <time>2018-09-05T07:50:38.000Z</time>
      </trkpt>
      <trkpt lat="43.4651348926126956939697265625" lon="-3.59357879497110843658447265625">
        <ele>26.799999237060546875</ele>
        <time>2018-09-05T07:50:44.000Z</time>
      </trkpt>
      <trkpt lat="43.46522868610918521881103515625" lon="-3.59379203058779239654541015625">
        <ele>27.799999237060546875</ele>
        <time>2018-09-05T07:50:52.000Z</time>
      </trkpt>
      <trkpt lat="43.465244360268115997314453125" lon="-3.59381449408829212188720703125">
        <ele>28</ele>
        <time>2018-09-05T07:50:53.000Z</time>
      </trkpt>
      <trkpt lat="43.46533463336527347564697265625" lon="-3.5939131490886211395263671875">
        <ele>29</ele>
        <time>2018-09-05T07:50:59.000Z</time>
      </trkpt>
      <trkpt lat="43.4653467871248722076416015625" lon="-3.59392781741917133331298828125">
        <ele>29.200000762939453125</ele>
        <time>2018-09-05T07:51:00.000Z</time>
      </trkpt>
      <trkpt lat="43.46541711129248142242431640625" lon="-3.5939848981797695159912109375">
        <ele>30.200000762939453125</ele>
        <time>2018-09-05T07:51:05.000Z</time>
      </trkpt>
      <trkpt lat="43.4654456935822963714599609375" lon="-3.59401012770831584930419921875">
        <ele>30.799999237060546875</ele>
        <time>2018-09-05T07:51:07.000Z</time>
      </trkpt>
      <trkpt lat="43.4654681570827960968017578125" lon="-3.59403376467525959014892578125">
        <ele>31.200000762939453125</ele>
        <time>2018-09-05T07:51:09.000Z</time>
      </trkpt>
      <trkpt lat="43.4655177779495716094970703125" lon="-3.59407617710530757904052734375">
        <ele>32.40000152587890625</ele>
        <time>2018-09-05T07:51:13.000Z</time>
      </trkpt>
      <trkpt lat="43.46552842296659946441650390625" lon="-3.59408975578844547271728515625">
        <ele>32.59999847412109375</ele>
        <time>2018-09-05T07:51:14.000Z</time>
      </trkpt>
      <trkpt lat="43.46557418815791606903076171875" lon="-3.59414071775972843170166015625">
        <ele>33.59999847412109375</ele>
        <time>2018-09-05T07:51:18.000Z</time>
      </trkpt>
      <trkpt lat="43.46560486592352390289306640625" lon="-3.59416804276406764984130859375">
        <ele>34.200000762939453125</ele>
        <time>2018-09-05T07:51:21.000Z</time>
      </trkpt>
      <trkpt lat="43.4656173549592494964599609375" lon="-3.594189919531345367431640625">
        <ele>34.799999237060546875</ele>
        <time>2018-09-05T07:51:23.000Z</time>
      </trkpt>
      <trkpt lat="43.4656383097171783447265625" lon="-3.59423057176172733306884765625">
        <ele>35.40000152587890625</ele>
        <time>2018-09-05T07:51:26.000Z</time>
      </trkpt>
      <trkpt lat="43.46564694307744503021240234375" lon="-3.594246916472911834716796875">
        <ele>35.799999237060546875</ele>
        <time>2018-09-05T07:51:27.000Z</time>
      </trkpt>
      <trkpt lat="43.46566337160766124725341796875" lon="-3.59428321011364459991455078125">
        <ele>36.200000762939453125</ele>
        <time>2018-09-05T07:51:29.000Z</time>
      </trkpt>
      <trkpt lat="43.465667478740215301513671875" lon="-3.59429913572967052459716796875">
        <ele>36.799999237060546875</ele>
        <time>2018-09-05T07:51:30.000Z</time>
      </trkpt>
      <trkpt lat="43.4656812250614166259765625" lon="-3.59433467499911785125732421875">
        <ele>37.200000762939453125</ele>
        <time>2018-09-05T07:51:32.000Z</time>
      </trkpt>
      <trkpt lat="43.46570846624672412872314453125" lon="-3.59441799111664295196533203125">
        <ele>37.799999237060546875</ele>
        <time>2018-09-05T07:51:36.000Z</time>
      </trkpt>
      <trkpt lat="43.46572556532919406890869140625" lon="-3.59449007548391819000244140625">
        <ele>38.200000762939453125</ele>
        <time>2018-09-05T07:51:39.000Z</time>
      </trkpt>
      <trkpt lat="43.465753309428691864013671875" lon="-3.594626449048519134521484375">
        <ele>38.799999237060546875</ele>
        <time>2018-09-05T07:51:44.000Z</time>
      </trkpt>
      <trkpt lat="43.4657675586640834808349609375" lon="-3.59468537382781505584716796875">
        <ele>39</ele>
        <time>2018-09-05T07:51:46.000Z</time>
      </trkpt>
      <trkpt lat="43.46581055782735347747802734375" lon="-3.5948666743934154510498046875">
        <ele>40</ele>
        <time>2018-09-05T07:51:52.000Z</time>
      </trkpt>
      <trkpt lat="43.46581173129379749298095703125" lon="-3.59489777125418186187744140625">
        <ele>40.200000762939453125</ele>
        <time>2018-09-05T07:51:53.000Z</time>
      </trkpt>
      <trkpt lat="43.4658394753932952880859375" lon="-3.59508032910525798797607421875">
        <ele>41</ele>
        <time>2018-09-05T07:51:59.000Z</time>
      </trkpt>
      <trkpt lat="43.465850539505481719970703125" lon="-3.595138750970363616943359375">
        <ele>41.200000762939453125</ele>
        <time>2018-09-05T07:52:01.000Z</time>
      </trkpt>
      <trkpt lat="43.4658761881291866302490234375" lon="-3.5952462069690227508544921875">
        <ele>41.799999237060546875</ele>
        <time>2018-09-05T07:52:05.000Z</time>
      </trkpt>
      <trkpt lat="43.46588599495589733123779296875" lon="-3.5952964983880519866943359375">
        <ele>42.200000762939453125</ele>
        <time>2018-09-05T07:52:07.000Z</time>
      </trkpt>
      <trkpt lat="43.46590091474354267120361328125" lon="-3.59533899463713169097900390625">
        <ele>42.59999847412109375</ele>
        <time>2018-09-05T07:52:09.000Z</time>
      </trkpt>
      <trkpt lat="43.4659241326153278350830078125" lon="-3.59540353529155254364013671875">
        <ele>43.200000762939453125</ele>
        <time>2018-09-05T07:52:12.000Z</time>
      </trkpt>
      <trkpt lat="43.465971909463405609130859375" lon="-3.595474697649478912353515625">
        <ele>44.200000762939453125</ele>
        <time>2018-09-05T07:52:16.000Z</time>
      </trkpt>
      <trkpt lat="43.46600501798093318939208984375" lon="-3.59548064880073070526123046875">
        <ele>45.200000762939453125</ele>
        <time>2018-09-05T07:52:18.000Z</time>
      </trkpt>
      <trkpt lat="43.46601893194019794464111328125" lon="-3.5954768769443035125732421875">
        <ele>45.40000152587890625</ele>
        <time>2018-09-05T07:52:19.000Z</time>
      </trkpt>
      <trkpt lat="43.46603150479495525360107421875" lon="-3.59546698629856109619140625">
        <ele>45.59999847412109375</ele>
        <time>2018-09-05T07:52:20.000Z</time>
      </trkpt>
      <trkpt lat="43.46607877872884273529052734375" lon="-3.5954366438090801239013671875">
        <ele>46.40000152587890625</ele>
        <time>2018-09-05T07:52:23.000Z</time>
      </trkpt>
      <trkpt lat="43.4661480970680713653564453125" lon="-3.59539146535098552703857421875">
        <ele>47.59999847412109375</ele>
        <time>2018-09-05T07:52:27.000Z</time>
      </trkpt>
      <trkpt lat="43.46617885865271091461181640625" lon="-3.5953752882778644561767578125">
        <ele>48.200000762939453125</ele>
        <time>2018-09-05T07:52:29.000Z</time>
      </trkpt>
      <trkpt lat="43.46620802767574787139892578125" lon="-3.5953638888895511627197265625">
        <ele>48.59999847412109375</ele>
        <time>2018-09-05T07:52:31.000Z</time>
      </trkpt>
      <trkpt lat="43.466290421783924102783203125" lon="-3.59531150199472904205322265625">
        <ele>49.59999847412109375</ele>
        <time>2018-09-05T07:52:36.000Z</time>
      </trkpt>
      <trkpt lat="43.4663120470941066741943359375" lon="-3.5953025333583354949951171875">
        <ele>49.799999237060546875</ele>
        <time>2018-09-05T07:52:37.000Z</time>
      </trkpt>
      <trkpt lat="43.46641874872148036956787109375" lon="-3.595264144241809844970703125">
        <ele>50.799999237060546875</ele>
        <time>2018-09-05T07:52:42.000Z</time>
      </trkpt>
      <trkpt lat="43.466468118131160736083984375" lon="-3.5952773876488208770751953125">
        <ele>51</ele>
        <time>2018-09-05T07:52:44.000Z</time>
      </trkpt>
      <trkpt lat="43.46669116057455539703369140625" lon="-3.5954006016254425048828125">
        <ele>51.799999237060546875</ele>
        <time>2018-09-05T07:52:53.000Z</time>
      </trkpt>
      <trkpt lat="43.4667165577411651611328125" lon="-3.59541392885148525238037109375">
        <ele>52.40000152587890625</ele>
        <time>2018-09-05T07:52:54.000Z</time>
      </trkpt>
      <trkpt lat="43.46687824465334415435791015625" lon="-3.595488108694553375244140625">
        <ele>52.59999847412109375</ele>
        <time>2018-09-05T07:53:00.000Z</time>
      </trkpt>
      <trkpt lat="43.4670654125511646270751953125" lon="-3.5956312716007232666015625">
        <ele>52.799999237060546875</ele>
        <time>2018-09-05T07:53:07.000Z</time>
      </trkpt>
      <trkpt lat="43.46718083135783672332763671875" lon="-3.5957407392561435699462890625">
        <ele>52.40000152587890625</ele>
        <time>2018-09-05T07:53:11.000Z</time>
      </trkpt>
      <trkpt lat="43.46724118106067180633544921875" lon="-3.5957987420260906219482421875">
        <ele>52.200000762939453125</ele>
        <time>2018-09-05T07:53:13.000Z</time>
      </trkpt>
      <trkpt lat="43.46727219410240650177001953125" lon="-3.5958315990865230560302734375">
        <ele>52.200000762939453125</ele>
        <time>2018-09-05T07:53:14.000Z</time>
      </trkpt>
      <trkpt lat="43.46732399426400661468505859375" lon="-3.59591868706047534942626953125">
        <ele>52</ele>
        <time>2018-09-05T07:53:16.000Z</time>
      </trkpt>
      <trkpt lat="43.467342853546142578125" lon="-3.5959734208881855010986328125">
        <ele>52.200000762939453125</ele>
        <time>2018-09-05T07:53:17.000Z</time>
      </trkpt>
      <trkpt lat="43.46736959181725978851318359375" lon="-3.59609118662774562835693359375">
        <ele>51.799999237060546875</ele>
        <time>2018-09-05T07:53:19.000Z</time>
      </trkpt>
      <trkpt lat="43.46737948246300220489501953125" lon="-3.59615505672991275787353515625">
        <ele>51.40000152587890625</ele>
        <time>2018-09-05T07:53:20.000Z</time>
      </trkpt>
      <trkpt lat="43.46739138476550579071044921875" lon="-3.59622043557465076446533203125">
        <ele>51.59999847412109375</ele>
        <time>2018-09-05T07:53:21.000Z</time>
      </trkpt>
      <trkpt lat="43.46740915440022945404052734375" lon="-3.59628564678132534027099609375">
        <ele>51.200000762939453125</ele>
        <time>2018-09-05T07:53:22.000Z</time>
      </trkpt>
      <trkpt lat="43.4674338810145854949951171875" lon="-3.59634834341704845428466796875">
        <ele>51</ele>
        <time>2018-09-05T07:53:23.000Z</time>
      </trkpt>
      <trkpt lat="43.467486016452312469482421875" lon="-3.59646216966211795806884765625">
        <ele>50.799999237060546875</ele>
        <time>2018-09-05T07:53:25.000Z</time>
      </trkpt>
      <trkpt lat="43.46751409582793712615966796875" lon="-3.59651614911854267120361328125">
        <ele>50.59999847412109375</ele>
        <time>2018-09-05T07:53:26.000Z</time>
      </trkpt>
      <trkpt lat="43.46754468977451324462890625" lon="-3.5965682007372379302978515625">
        <ele>50.40000152587890625</ele>
        <time>2018-09-05T07:53:27.000Z</time>
      </trkpt>
      <trkpt lat="43.467579893767833709716796875" lon="-3.59661136753857135772705078125">
        <ele>50</ele>
        <time>2018-09-05T07:53:28.000Z</time>
      </trkpt>
      <trkpt lat="43.46769229508936405181884765625" lon="-3.5967546142637729644775390625">
        <ele>48.799999237060546875</ele>
        <time>2018-09-05T07:53:31.000Z</time>
      </trkpt>
      <trkpt lat="43.467742167413234710693359375" lon="-3.59693608246743679046630859375">
        <ele>49.200000762939453125</ele>
        <time>2018-09-05T07:53:34.000Z</time>
      </trkpt>
      <trkpt lat="43.46775398589670658111572265625" lon="-3.59699525870382785797119140625">
        <ele>49.59999847412109375</ele>
        <time>2018-09-05T07:53:35.000Z</time>
      </trkpt>
      <trkpt lat="43.46776588819921016693115234375" lon="-3.59705309383571147918701171875">
        <ele>49.799999237060546875</ele>
        <time>2018-09-05T07:53:36.000Z</time>
      </trkpt>
      <trkpt lat="43.46780176274478435516357421875" lon="-3.5972028784453868865966796875">
        <ele>50.799999237060546875</ele>
        <time>2018-09-05T07:53:39.000Z</time>
      </trkpt>
      <trkpt lat="43.46783663146197795867919921875" lon="-3.59732969664037227630615234375">
        <ele>52</ele>
        <time>2018-09-05T07:53:42.000Z</time>
      </trkpt>
      <trkpt lat="43.46787569113075733184814453125" lon="-3.5974483005702495574951171875">
        <ele>52.59999847412109375</ele>
        <time>2018-09-05T07:53:45.000Z</time>
      </trkpt>
      <trkpt lat="43.46789631061255931854248046875" lon="-3.597519211471080780029296875">
        <ele>53</ele>
        <time>2018-09-05T07:53:47.000Z</time>
      </trkpt>
      <trkpt lat="43.4679253958165645599365234375" lon="-3.59763362444937229156494140625">
        <ele>53.59999847412109375</ele>
        <time>2018-09-05T07:53:50.000Z</time>
      </trkpt>
      <trkpt lat="43.46793587319552898406982421875" lon="-3.59783160500228404998779296875">
        <ele>54.200000762939453125</ele>
        <time>2018-09-05T07:53:55.000Z</time>
      </trkpt>
      <trkpt lat="43.4679423272609710693359375" lon="-3.5979116521775722503662109375">
        <ele>54.59999847412109375</ele>
        <time>2018-09-05T07:53:57.000Z</time>
      </trkpt>
      <trkpt lat="43.4679787047207355499267578125" lon="-3.59805607236921787261962890625">
        <ele>55.200000762939453125</ele>
        <time>2018-09-05T07:54:01.000Z</time>
      </trkpt>
      <trkpt lat="43.468019105494022369384765625" lon="-3.5981096327304840087890625">
        <ele>55.59999847412109375</ele>
        <time>2018-09-05T07:54:03.000Z</time>
      </trkpt>
      <trkpt lat="43.46816738136112689971923828125" lon="-3.59823695383965969085693359375">
        <ele>55.40000152587890625</ele>
        <time>2018-09-05T07:54:09.000Z</time>
      </trkpt>
      <trkpt lat="43.468193113803863525390625" lon="-3.59825489111244678497314453125">
        <ele>56.40000152587890625</ele>
        <time>2018-09-05T07:54:10.000Z</time>
      </trkpt>
      <trkpt lat="43.46833099611103534698486328125" lon="-3.59830484725534915924072265625">
        <ele>56.799999237060546875</ele>
        <time>2018-09-05T07:54:15.000Z</time>
      </trkpt>
      <trkpt lat="43.46841548569500446319580078125" lon="-3.59831792302429676055908203125">
        <ele>57.59999847412109375</ele>
        <time>2018-09-05T07:54:18.000Z</time>
      </trkpt>
      <trkpt lat="43.46844247542321681976318359375" lon="-3.5983215272426605224609375">
        <ele>57.59999847412109375</ele>
        <time>2018-09-05T07:54:19.000Z</time>
      </trkpt>
      <trkpt lat="43.4686033241450786590576171875" lon="-3.59832353889942169189453125">
        <ele>58.59999847412109375</ele>
        <time>2018-09-05T07:54:25.000Z</time>
      </trkpt>
      <trkpt lat="43.4686529450118541717529296875" lon="-3.59832731075584888458251953125">
        <ele>59</ele>
        <time>2018-09-05T07:54:27.000Z</time>
      </trkpt>
      <trkpt lat="43.46872645430266857147216796875" lon="-3.59835279174149036407470703125">
        <ele>59.799999237060546875</ele>
        <time>2018-09-05T07:54:30.000Z</time>
      </trkpt>
      <trkpt lat="43.46880256198346614837646484375" lon="-3.598405010998249053955078125">
        <ele>60.799999237060546875</ele>
        <time>2018-09-05T07:54:34.000Z</time>
      </trkpt>
      <trkpt lat="43.46881915815174579620361328125" lon="-3.59841649420559406280517578125">
        <ele>61</ele>
        <time>2018-09-05T07:54:35.000Z</time>
      </trkpt>
      <trkpt lat="43.468880094587802886962890625" lon="-3.59846997074782848358154296875">
        <ele>62.200000762939453125</ele>
        <time>2018-09-05T07:54:39.000Z</time>
      </trkpt>
      <trkpt lat="43.468908257782459259033203125" lon="-3.598523698747158050537109375">
        <ele>63.200000762939453125</ele>
        <time>2018-09-05T07:54:42.000Z</time>
      </trkpt>
      <trkpt lat="43.46890582703053951263427734375" lon="-3.59854792244732379913330078125">
        <ele>63.59999847412109375</ele>
        <time>2018-09-05T07:54:43.000Z</time>
      </trkpt>
      <trkpt lat="43.468885123729705810546875" lon="-3.598631657660007476806640625">
        <ele>64</ele>
        <time>2018-09-05T07:54:46.000Z</time>
      </trkpt>
      <trkpt lat="43.4688574634492397308349609375" lon="-3.5987029038369655609130859375">
        <ele>64.40000152587890625</ele>
        <time>2018-09-05T07:54:49.000Z</time>
      </trkpt>
      <trkpt lat="43.4687907434999942779541015625" lon="-3.5988279618322849273681640625">
        <ele>65.40000152587890625</ele>
        <time>2018-09-05T07:54:55.000Z</time>
      </trkpt>
      <trkpt lat="43.46877892501652240753173828125" lon="-3.5988504253327846527099609375">
        <ele>65.8000030517578125</ele>
        <time>2018-09-05T07:54:56.000Z</time>
      </trkpt>
      <trkpt lat="43.46875168383121490478515625" lon="-3.59888889826834201812744140625">
        <ele>64.8000030517578125</ele>
        <time>2018-09-05T07:54:58.000Z</time>
      </trkpt>
      <trkpt lat="43.468720503151416778564453125" lon="-3.59894849359989166259765625">
        <ele>66.40000152587890625</ele>
        <time>2018-09-05T07:55:01.000Z</time>
      </trkpt>
      <trkpt lat="43.46868001855909824371337890625" lon="-3.5990116931498050689697265625">
        <ele>66.40000152587890625</ele>
        <time>2018-09-05T07:55:04.000Z</time>
      </trkpt>
      <trkpt lat="43.46865244209766387939453125" lon="-3.5990653373301029205322265625">
        <ele>67.59999847412109375</ele>
        <time>2018-09-05T07:55:06.000Z</time>
      </trkpt>
      <trkpt lat="43.4685590676963329315185546875" lon="-3.59922098927199840545654296875">
        <ele>67.8000030517578125</ele>
        <time>2018-09-05T07:55:12.000Z</time>
      </trkpt>
      <trkpt lat="43.46844054758548736572265625" lon="-3.59941184520721435546875">
        <ele>68.8000030517578125</ele>
        <time>2018-09-05T07:55:19.000Z</time>
      </trkpt>
      <trkpt lat="43.46842420287430286407470703125" lon="-3.59943405725061893463134765625">
        <ele>69</ele>
        <time>2018-09-05T07:55:20.000Z</time>
      </trkpt>
      <trkpt lat="43.46832496114075183868408203125" lon="-3.59958375804126262664794921875">
        <ele>69.8000030517578125</ele>
        <time>2018-09-05T07:55:26.000Z</time>
      </trkpt>
      <trkpt lat="43.46830702386796474456787109375" lon="-3.5996094904839992523193359375">
        <ele>69.8000030517578125</ele>
        <time>2018-09-05T07:55:27.000Z</time>
      </trkpt>
      <trkpt lat="43.46820057369768619537353515625" lon="-3.5997519828379154205322265625">
        <ele>71</ele>
        <time>2018-09-05T07:55:33.000Z</time>
      </trkpt>
      <trkpt lat="43.468144498765468597412109375" lon="-3.5998304374516010284423828125">
        <ele>71.40000152587890625</ele>
        <time>2018-09-05T07:55:36.000Z</time>
      </trkpt>
      <trkpt lat="43.46808649599552154541015625" lon="-3.59990964643657207489013671875">
        <ele>72.40000152587890625</ele>
        <time>2018-09-05T07:55:39.000Z</time>
      </trkpt>
      <trkpt lat="43.4679904393851757049560546875" lon="-3.60003537498414516448974609375">
        <ele>73.40000152587890625</ele>
        <time>2018-09-05T07:55:44.000Z</time>
      </trkpt>
      <trkpt lat="43.4679745137691497802734375" lon="-3.600063957273960113525390625">
        <ele>73.59999847412109375</ele>
        <time>2018-09-05T07:55:45.000Z</time>
      </trkpt>
      <trkpt lat="43.4678965620696544647216796875" lon="-3.60019681043922901153564453125">
        <ele>74.59999847412109375</ele>
        <time>2018-09-05T07:55:50.000Z</time>
      </trkpt>
      <trkpt lat="43.4678833186626434326171875" lon="-3.60022765584290027618408203125">
        <ele>74.8000030517578125</ele>
        <time>2018-09-05T07:55:51.000Z</time>
      </trkpt>
      <trkpt lat="43.467799164354801177978515625" lon="-3.60043586231768131256103515625">
        <ele>75</ele>
        <time>2018-09-05T07:55:57.000Z</time>
      </trkpt>
      <trkpt lat="43.46776169724762439727783203125" lon="-3.60055471770465373992919921875">
        <ele>75.59999847412109375</ele>
        <time>2018-09-05T07:56:00.000Z</time>
      </trkpt>
      <trkpt lat="43.4676863439381122589111328125" lon="-3.60078555531799793243408203125">
        <ele>76.59999847412109375</ele>
        <time>2018-09-05T07:56:06.000Z</time>
      </trkpt>
      <trkpt lat="43.46767134033143520355224609375" lon="-3.60082394443452358245849609375">
        <ele>76.8000030517578125</ele>
        <time>2018-09-05T07:56:07.000Z</time>
      </trkpt>
      <trkpt lat="43.4675824083387851715087890625" lon="-3.60109585337340831756591796875">
        <ele>77.8000030517578125</ele>
        <time>2018-09-05T07:56:14.000Z</time>
      </trkpt>
      <trkpt lat="43.467527590692043304443359375" lon="-3.60125519335269927978515625">
        <ele>78.8000030517578125</ele>
        <time>2018-09-05T07:56:18.000Z</time>
      </trkpt>
      <trkpt lat="43.467474617063999176025390625" lon="-3.60144789330661296844482421875">
        <ele>80</ele>
        <time>2018-09-05T07:56:23.000Z</time>
      </trkpt>
      <trkpt lat="43.46746514551341533660888671875" lon="-3.6014890484511852264404296875">
        <ele>80</ele>
        <time>2018-09-05T07:56:24.000Z</time>
      </trkpt>
      <trkpt lat="43.46739641390740871429443359375" lon="-3.6017653159797191619873046875">
        <ele>81</ele>
        <time>2018-09-05T07:56:31.000Z</time>
      </trkpt>
      <trkpt lat="43.467376045882701873779296875" lon="-3.60188274644315242767333984375">
        <ele>81.8000030517578125</ele>
        <time>2018-09-05T07:56:34.000Z</time>
      </trkpt>
      <trkpt lat="43.46736053936183452606201171875" lon="-3.60195851884782314300537109375">
        <ele>82</ele>
        <time>2018-09-05T07:56:36.000Z</time>
      </trkpt>
      <trkpt lat="43.4673054702579975128173828125" lon="-3.6021478660404682159423828125">
        <ele>83.40000152587890625</ele>
        <time>2018-09-05T07:56:41.000Z</time>
      </trkpt>
      <trkpt lat="43.46728493459522724151611328125" lon="-3.602224476635456085205078125">
        <ele>83.59999847412109375</ele>
        <time>2018-09-05T07:56:43.000Z</time>
      </trkpt>
      <trkpt lat="43.467227853834629058837890625" lon="-3.60236185602843761444091796875">
        <ele>84.40000152587890625</ele>
        <time>2018-09-05T07:56:47.000Z</time>
      </trkpt>
      <trkpt lat="43.46718183718621730804443359375" lon="-3.6024655401706695556640625">
        <ele>85.1999969482421875</ele>
        <time>2018-09-05T07:56:50.000Z</time>
      </trkpt>
      <trkpt lat="43.4671653248369693756103515625" lon="-3.60249713994562625885009765625">
        <ele>85.40000152587890625</ele>
        <time>2018-09-05T07:56:51.000Z</time>
      </trkpt>
      <trkpt lat="43.4670888818800449371337890625" lon="-3.6026843078434467315673828125">
        <ele>85.40000152587890625</ele>
        <time>2018-09-05T07:56:56.000Z</time>
      </trkpt>
      <trkpt lat="43.4670531749725341796875" lon="-3.602777682244777679443359375">
        <ele>85.59999847412109375</ele>
        <time>2018-09-05T07:56:58.000Z</time>
      </trkpt>
      <trkpt lat="43.466927111148834228515625" lon="-3.60303592868149280548095703125">
        <ele>84.8000030517578125</ele>
        <time>2018-09-05T07:57:03.000Z</time>
      </trkpt>
      <trkpt lat="43.4668494947254657745361328125" lon="-3.60320775769650936126708984375">
        <ele>84.40000152587890625</ele>
        <time>2018-09-05T07:57:06.000Z</time>
      </trkpt>
      <trkpt lat="43.46671178005635738372802734375" lon="-3.6035003699362277984619140625">
        <ele>83.40000152587890625</ele>
        <time>2018-09-05T07:57:11.000Z</time>
      </trkpt>
      <trkpt lat="43.4666570462286472320556640625" lon="-3.6036066524684429168701171875">
        <ele>83.59999847412109375</ele>
        <time>2018-09-05T07:57:13.000Z</time>
      </trkpt>
      <trkpt lat="43.46654732711613178253173828125" lon="-3.603800944983959197998046875">
        <ele>84</ele>
        <time>2018-09-05T07:57:17.000Z</time>
      </trkpt>
      <trkpt lat="43.466496951878070831298828125" lon="-3.603888452053070068359375">
        <ele>84.59999847412109375</ele>
        <time>2018-09-05T07:57:19.000Z</time>
      </trkpt>
      <trkpt lat="43.4664508514106273651123046875" lon="-3.60397763550281524658203125">
        <ele>85</ele>
        <time>2018-09-05T07:57:21.000Z</time>
      </trkpt>
      <trkpt lat="43.466342389583587646484375" lon="-3.60425365157425403594970703125">
        <ele>85.59999847412109375</ele>
        <time>2018-09-05T07:57:27.000Z</time>
      </trkpt>
      <trkpt lat="43.46632990054786205291748046875" lon="-3.60430159606039524078369140625">
        <ele>85.8000030517578125</ele>
        <time>2018-09-05T07:57:28.000Z</time>
      </trkpt>
      <trkpt lat="43.46631078980863094329833984375" lon="-3.6043938808143138885498046875">
        <ele>86.59999847412109375</ele>
        <time>2018-09-05T07:57:30.000Z</time>
      </trkpt>
      <trkpt lat="43.466274328529834747314453125" lon="-3.60465950332581996917724609375">
        <ele>87.8000030517578125</ele>
        <time>2018-09-05T07:57:36.000Z</time>
      </trkpt>
      <trkpt lat="43.46624960191547870635986328125" lon="-3.60482948832213878631591796875">
        <ele>88.8000030517578125</ele>
        <time>2018-09-05T07:57:40.000Z</time>
      </trkpt>
      <trkpt lat="43.4662257134914398193359375" lon="-3.605032749474048614501953125">
        <ele>90</ele>
        <time>2018-09-05T07:57:45.000Z</time>
      </trkpt>
      <trkpt lat="43.4662203490734100341796875" lon="-3.60507423989474773406982421875">
        <ele>90.1999969482421875</ele>
        <time>2018-09-05T07:57:46.000Z</time>
      </trkpt>
      <trkpt lat="43.46620299853384494781494140625" lon="-3.6051945202052593231201171875">
        <ele>91</ele>
        <time>2018-09-05T07:57:49.000Z</time>
      </trkpt>
      <trkpt lat="43.46617097966372966766357421875" lon="-3.60543801449239253997802734375">
        <ele>92.1999969482421875</ele>
        <time>2018-09-05T07:57:55.000Z</time>
      </trkpt>
      <trkpt lat="43.46616561524569988250732421875" lon="-3.60547875054180622100830078125">
        <ele>92.40000152587890625</ele>
        <time>2018-09-05T07:57:56.000Z</time>
      </trkpt>
      <trkpt lat="43.46614181064069271087646484375" lon="-3.6056421138346195220947265625">
        <ele>93</ele>
        <time>2018-09-05T07:58:00.000Z</time>
      </trkpt>
      <trkpt lat="43.46610493026673793792724609375" lon="-3.60589700751006603240966796875">
        <ele>93.40000152587890625</ele>
        <time>2018-09-05T07:58:06.000Z</time>
      </trkpt>
      <trkpt lat="43.46606419421732425689697265625" lon="-3.60617780126631259918212890625">
        <ele>94</ele>
        <time>2018-09-05T07:58:12.000Z</time>
      </trkpt>
      <trkpt lat="43.46604273654520511627197265625" lon="-3.6062972433865070343017578125">
        <ele>94</ele>
        <time>2018-09-05T07:58:15.000Z</time>
      </trkpt>
      <trkpt lat="43.4660227037966251373291015625" lon="-3.60642272047698497772216796875">
        <ele>94.59999847412109375</ele>
        <time>2018-09-05T07:58:18.000Z</time>
      </trkpt>
      <trkpt lat="43.4659831412136554718017578125" lon="-3.60660024918615818023681640625">
        <ele>95</ele>
        <time>2018-09-05T07:58:22.000Z</time>
      </trkpt>
      <trkpt lat="43.46587861888110637664794921875" lon="-3.606858663260936737060546875">
        <ele>95.40000152587890625</ele>
        <time>2018-09-05T07:58:28.000Z</time>
      </trkpt>
      <trkpt lat="43.4657896868884563446044921875" lon="-3.6070194281637668609619140625">
        <ele>95.59999847412109375</ele>
        <time>2018-09-05T07:58:32.000Z</time>
      </trkpt>
      <trkpt lat="43.46572841517627239227294921875" lon="-3.60708229243755340576171875">
        <ele>95.59999847412109375</ele>
        <time>2018-09-05T07:58:34.000Z</time>
      </trkpt>
      <trkpt lat="43.46558894030749797821044921875" lon="-3.6071572266519069671630859375">
        <ele>96.1999969482421875</ele>
        <time>2018-09-05T07:58:38.000Z</time>
      </trkpt>
      <trkpt lat="43.465551473200321197509765625" lon="-3.60715881921350955963134765625">
        <ele>96.40000152587890625</ele>
        <time>2018-09-05T07:58:39.000Z</time>
      </trkpt>
      <trkpt lat="43.46539883874356746673583984375" lon="-3.60712110064923763275146484375">
        <ele>97</ele>
        <time>2018-09-05T07:58:43.000Z</time>
      </trkpt>
      <trkpt lat="43.46536044962704181671142578125" lon="-3.6071009002625942230224609375">
        <ele>97.40000152587890625</ele>
        <time>2018-09-05T07:58:44.000Z</time>
      </trkpt>
      <trkpt lat="43.46528735943138599395751953125" lon="-3.6070536263287067413330078125">
        <ele>98.1999969482421875</ele>
        <time>2018-09-05T07:58:46.000Z</time>
      </trkpt>
      <trkpt lat="43.46510027535259723663330078125" lon="-3.6069879122078418731689453125">
        <ele>99.40000152587890625</ele>
        <time>2018-09-05T07:58:51.000Z</time>
      </trkpt>
      <trkpt lat="43.464938588440418243408203125" lon="-3.60702521167695522308349609375">
        <ele>99.8000030517578125</ele>
        <time>2018-09-05T07:58:55.000Z</time>
      </trkpt>
      <trkpt lat="43.4648971818387508392333984375" lon="-3.607053123414516448974609375">
        <ele>99.40000152587890625</ele>
        <time>2018-09-05T07:58:56.000Z</time>
      </trkpt>
      <trkpt lat="43.46472996287047863006591796875" lon="-3.6072648502886295318603515625">
        <ele>98</ele>
        <time>2018-09-05T07:59:00.000Z</time>
      </trkpt>
      <trkpt lat="43.46469174139201641082763671875" lon="-3.60733467154204845428466796875">
        <ele>97.59999847412109375</ele>
        <time>2018-09-05T07:59:01.000Z</time>
      </trkpt>
      <trkpt lat="43.46461194567382335662841796875" lon="-3.60747062601149082183837890625">
        <ele>97</ele>
        <time>2018-09-05T07:59:03.000Z</time>
      </trkpt>
      <trkpt lat="43.4645712934434413909912109375" lon="-3.607535250484943389892578125">
        <ele>96.59999847412109375</ele>
        <time>2018-09-05T07:59:04.000Z</time>
      </trkpt>
      <trkpt lat="43.464406840503215789794921875" lon="-3.60776633955538272857666015625">
        <ele>96.40000152587890625</ele>
        <time>2018-09-05T07:59:08.000Z</time>
      </trkpt>
      <trkpt lat="43.46432729624211788177490234375" lon="-3.60787111334502696990966796875">
        <ele>96.8000030517578125</ele>
        <time>2018-09-05T07:59:10.000Z</time>
      </trkpt>
      <trkpt lat="43.46424750052392482757568359375" lon="-3.60796364955604076385498046875">
        <ele>97</ele>
        <time>2018-09-05T07:59:12.000Z</time>
      </trkpt>
      <trkpt lat="43.464212715625762939453125" lon="-3.60801109112799167633056640625">
        <ele>97</ele>
        <time>2018-09-05T07:59:13.000Z</time>
      </trkpt>
      <trkpt lat="43.46418111585080623626708984375" lon="-3.60805970616638660430908203125">
        <ele>97.1999969482421875</ele>
        <time>2018-09-05T07:59:14.000Z</time>
      </trkpt>
      <trkpt lat="43.4640539623796939849853515625" lon="-3.6082354746758937835693359375">
        <ele>97.8000030517578125</ele>
        <time>2018-09-05T07:59:18.000Z</time>
      </trkpt>
      <trkpt lat="43.4639956243336200714111328125" lon="-3.60832415521144866943359375">
        <ele>98</ele>
        <time>2018-09-05T07:59:20.000Z</time>
      </trkpt>
      <trkpt lat="43.46384525299072265625" lon="-3.608601428568363189697265625">
        <ele>98.8000030517578125</ele>
        <time>2018-09-05T07:59:26.000Z</time>
      </trkpt>
      <trkpt lat="43.4638289920985698699951171875" lon="-3.60865482129156589508056640625">
        <ele>99.1999969482421875</ele>
        <time>2018-09-05T07:59:27.000Z</time>
      </trkpt>
      <trkpt lat="43.46379973925650119781494140625" lon="-3.60882304608821868896484375">
        <ele>99.59999847412109375</ele>
        <time>2018-09-05T07:59:30.000Z</time>
      </trkpt>
      <trkpt lat="43.46379722468554973602294921875" lon="-3.608952127397060394287109375">
        <ele>100.1999969482421875</ele>
        <time>2018-09-05T07:59:32.000Z</time>
      </trkpt>
      <trkpt lat="43.4638018347322940826416015625" lon="-3.6090181767940521240234375">
        <ele>100.40000152587890625</ele>
        <time>2018-09-05T07:59:33.000Z</time>
      </trkpt>
      <trkpt lat="43.4638102166354656219482421875" lon="-3.6091442406177520751953125">
        <ele>101.1999969482421875</ele>
        <time>2018-09-05T07:59:35.000Z</time>
      </trkpt>
      <trkpt lat="43.46381030045449733734130859375" lon="-3.60920718871057033538818359375">
        <ele>101.59999847412109375</ele>
        <time>2018-09-05T07:59:36.000Z</time>
      </trkpt>
      <trkpt lat="43.463812731206417083740234375" lon="-3.60932855866849422454833984375">
        <ele>102</ele>
        <time>2018-09-05T07:59:38.000Z</time>
      </trkpt>
      <trkpt lat="43.46381331793963909149169921875" lon="-3.6093905009329319000244140625">
        <ele>102.40000152587890625</ele>
        <time>2018-09-05T07:59:39.000Z</time>
      </trkpt>
      <trkpt lat="43.46381197683513164520263671875" lon="-3.60950357280671596527099609375">
        <ele>103.40000152587890625</ele>
        <time>2018-09-05T07:59:41.000Z</time>
      </trkpt>
      <trkpt lat="43.46381281502544879913330078125" lon="-3.6096114479005336761474609375">
        <ele>104.40000152587890625</ele>
        <time>2018-09-05T07:59:43.000Z</time>
      </trkpt>
      <trkpt lat="43.46381315030157566070556640625" lon="-3.609663583338260650634765625">
        <ele>104.59999847412109375</ele>
        <time>2018-09-05T07:59:44.000Z</time>
      </trkpt>
      <trkpt lat="43.4638132341206073760986328125" lon="-3.60971429385244846343994140625">
        <ele>104.8000030517578125</ele>
        <time>2018-09-05T07:59:45.000Z</time>
      </trkpt>
      <trkpt lat="43.46379118971526622772216796875" lon="-3.6100265197455883026123046875">
        <ele>105.1999969482421875</ele>
        <time>2018-09-05T07:59:51.000Z</time>
      </trkpt>
      <trkpt lat="43.46373838372528553009033203125" lon="-3.6103554256260395050048828125">
        <ele>105.1999969482421875</ele>
        <time>2018-09-05T07:59:57.000Z</time>
      </trkpt>
      <trkpt lat="43.4637176804244518280029296875" lon="-3.61047050915658473968505859375">
        <ele>105.1999969482421875</ele>
        <time>2018-09-05T07:59:59.000Z</time>
      </trkpt>
      <trkpt lat="43.463679291307926177978515625" lon="-3.61064694821834564208984375">
        <ele>104.59999847412109375</ele>
        <time>2018-09-05T08:00:02.000Z</time>
      </trkpt>
      <trkpt lat="43.46364920027554035186767578125" lon="-3.6108124069869518280029296875">
        <ele>104</ele>
        <time>2018-09-05T08:00:05.000Z</time>
      </trkpt>
      <trkpt lat="43.46364744007587432861328125" lon="-3.61084937117993831634521484375">
        <ele>103.8000030517578125</ele>
        <time>2018-09-05T08:00:06.000Z</time>
      </trkpt>
      <trkpt lat="43.46364065073430538177490234375" lon="-3.6108871735632419586181640625">
        <ele>103.59999847412109375</ele>
        <time>2018-09-05T08:00:09.000Z</time>
      </trkpt>
      <trkpt lat="43.4636266529560089111328125" lon="-3.610919527709484100341796875">
        <ele>103.59999847412109375</ele>
        <time>2018-09-05T08:00:17.000Z</time>
      </trkpt>
      <trkpt lat="43.4636077098548412322998046875" lon="-3.6109867505729198455810546875">
        <ele>103.40000152587890625</ele>
        <time>2018-09-05T08:00:19.000Z</time>
      </trkpt>
      <trkpt lat="43.4635892696678638458251953125" lon="-3.61107568256556987762451171875">
        <ele>103.1999969482421875</ele>
        <time>2018-09-05T08:00:21.000Z</time>
      </trkpt>
      <trkpt lat="43.46355599351227283477783203125" lon="-3.61122538335621356964111328125">
        <ele>102.8000030517578125</ele>
        <time>2018-09-05T08:00:24.000Z</time>
      </trkpt>
      <trkpt lat="43.463540486991405487060546875" lon="-3.6112794466316699981689453125">
        <ele>102.8000030517578125</ele>
        <time>2018-09-05T08:00:25.000Z</time>
      </trkpt>
      <trkpt lat="43.46352137625217437744140625" lon="-3.6113356053829193115234375">
        <ele>102.59999847412109375</ele>
        <time>2018-09-05T08:00:26.000Z</time>
      </trkpt>
      <trkpt lat="43.4634005092084407806396484375" lon="-3.61164565198123455047607421875">
        <ele>101.1999969482421875</ele>
        <time>2018-09-05T08:00:31.000Z</time>
      </trkpt>
      <trkpt lat="43.46329648979008197784423828125" lon="-3.6118452250957489013671875">
        <ele>100.1999969482421875</ele>
        <time>2018-09-05T08:00:34.000Z</time>
      </trkpt>
      <trkpt lat="43.4632224775850772857666015625" lon="-3.61197732388973236083984375">
        <ele>99.40000152587890625</ele>
        <time>2018-09-05T08:00:36.000Z</time>
      </trkpt>
      <trkpt lat="43.46318685449659824371337890625" lon="-3.61203473992645740509033203125">
        <ele>99</ele>
        <time>2018-09-05T08:00:37.000Z</time>
      </trkpt>
      <trkpt lat="43.46308241598308086395263671875" lon="-3.61222048290073871612548828125">
        <ele>98</ele>
        <time>2018-09-05T08:00:40.000Z</time>
      </trkpt>
      <trkpt lat="43.46304302103817462921142578125" lon="-3.6122877895832061767578125">
        <ele>97.59999847412109375</ele>
        <time>2018-09-05T08:00:41.000Z</time>
      </trkpt>
      <trkpt lat="43.46297009848058223724365234375" lon="-3.61240605823695659637451171875">
        <ele>96.40000152587890625</ele>
        <time>2018-09-05T08:00:43.000Z</time>
      </trkpt>
      <trkpt lat="43.46293774433434009552001953125" lon="-3.6124515719711780548095703125">
        <ele>96</ele>
        <time>2018-09-05T08:00:44.000Z</time>
      </trkpt>
      <trkpt lat="43.462904132902622222900390625" lon="-3.61249188892543315887451171875">
        <ele>95.8000030517578125</ele>
        <time>2018-09-05T08:00:45.000Z</time>
      </trkpt>
      <trkpt lat="43.4628352336585521697998046875" lon="-3.6125779710710048675537109375">
        <ele>95.59999847412109375</ele>
        <time>2018-09-05T08:00:47.000Z</time>
      </trkpt>
      <trkpt lat="43.46279826946556568145751953125" lon="-3.6126202158629894256591796875">
        <ele>95.40000152587890625</ele>
        <time>2018-09-05T08:00:48.000Z</time>
      </trkpt>
      <trkpt lat="43.46267052926123142242431640625" lon="-3.61274954862892627716064453125">
        <ele>94.1999969482421875</ele>
        <time>2018-09-05T08:00:51.000Z</time>
      </trkpt>
      <trkpt lat="43.46262593753635883331298828125" lon="-3.61279950477182865142822265625">
        <ele>93.8000030517578125</ele>
        <time>2018-09-05T08:00:52.000Z</time>
      </trkpt>
      <trkpt lat="43.46254077740013599395751953125" lon="-3.612917102873325347900390625">
        <ele>93.1999969482421875</ele>
        <time>2018-09-05T08:00:54.000Z</time>
      </trkpt>
      <trkpt lat="43.462502472102642059326171875" lon="-3.612986505031585693359375">
        <ele>92.59999847412109375</ele>
        <time>2018-09-05T08:00:55.000Z</time>
      </trkpt>
      <trkpt lat="43.4624245204031467437744140625" lon="-3.61313360743224620819091796875">
        <ele>91.59999847412109375</ele>
        <time>2018-09-05T08:00:57.000Z</time>
      </trkpt>
      <trkpt lat="43.46237733028829097747802734375" lon="-3.61319965682923793792724609375">
        <ele>91.1999969482421875</ele>
        <time>2018-09-05T08:00:58.000Z</time>
      </trkpt>
      <trkpt lat="43.46226534806191921234130859375" lon="-3.61330191604793071746826171875">
        <ele>90.40000152587890625</ele>
        <time>2018-09-05T08:01:00.000Z</time>
      </trkpt>
      <trkpt lat="43.46215772442519664764404296875" lon="-3.61335723660886287689208984375">
        <ele>90.1999969482421875</ele>
        <time>2018-09-05T08:01:02.000Z</time>
      </trkpt>
      <trkpt lat="43.46210055984556674957275390625" lon="-3.61337953247129917144775390625">
        <ele>90.1999969482421875</ele>
        <time>2018-09-05T08:01:03.000Z</time>
      </trkpt>
      <trkpt lat="43.4620419703423976898193359375" lon="-3.6134024150669574737548828125">
        <ele>90</ele>
        <time>2018-09-05T08:01:04.000Z</time>
      </trkpt>
      <trkpt lat="43.461986482143402099609375" lon="-3.6134250462055206298828125">
        <ele>89.40000152587890625</ele>
        <time>2018-09-05T08:01:05.000Z</time>
      </trkpt>
      <trkpt lat="43.4619373641908168792724609375" lon="-3.61344910226762294769287109375">
        <ele>88.40000152587890625</ele>
        <time>2018-09-05T08:01:06.000Z</time>
      </trkpt>
      <trkpt lat="43.46189017407596111297607421875" lon="-3.61348531208932399749755859375">
        <ele>88</ele>
        <time>2018-09-05T08:01:07.000Z</time>
      </trkpt>
      <trkpt lat="43.46183937974274158477783203125" lon="-3.61353627406060695648193359375">
        <ele>87.40000152587890625</ele>
        <time>2018-09-05T08:01:08.000Z</time>
      </trkpt>
      <trkpt lat="43.46173779107630252838134765625" lon="-3.6136833764612674713134765625">
        <ele>86</ele>
        <time>2018-09-05T08:01:10.000Z</time>
      </trkpt>
      <trkpt lat="43.4616852365434169769287109375" lon="-3.6137712188065052032470703125">
        <ele>85.40000152587890625</ele>
        <time>2018-09-05T08:01:11.000Z</time>
      </trkpt>
      <trkpt lat="43.46163234673440456390380859375" lon="-3.613867945969104766845703125">
        <ele>84.40000152587890625</ele>
        <time>2018-09-05T08:01:12.000Z</time>
      </trkpt>
      <trkpt lat="43.46153126098215579986572265625" lon="-3.6140890605747699737548828125">
        <ele>82.59999847412109375</ele>
        <time>2018-09-05T08:01:14.000Z</time>
      </trkpt>
      <trkpt lat="43.4614773653447628021240234375" lon="-3.614208586513996124267578125">
        <ele>81.59999847412109375</ele>
        <time>2018-09-05T08:01:15.000Z</time>
      </trkpt>
      <trkpt lat="43.4614220447838306427001953125" lon="-3.61433154903352260589599609375">
        <ele>80.40000152587890625</ele>
        <time>2018-09-05T08:01:16.000Z</time>
      </trkpt>
      <trkpt lat="43.46136429347097873687744140625" lon="-3.614456355571746826171875">
        <ele>79.40000152587890625</ele>
        <time>2018-09-05T08:01:17.000Z</time>
      </trkpt>
      <trkpt lat="43.46130595542490482330322265625" lon="-3.61458250321447849273681640625">
        <ele>78.40000152587890625</ele>
        <time>2018-09-05T08:01:18.000Z</time>
      </trkpt>
      <trkpt lat="43.461246192455291748046875" lon="-3.6147098243236541748046875">
        <ele>77</ele>
        <time>2018-09-05T08:01:19.000Z</time>
      </trkpt>
      <trkpt lat="43.461182825267314910888671875" lon="-3.6148357205092906951904296875">
        <ele>76</ele>
        <time>2018-09-05T08:01:20.000Z</time>
      </trkpt>
      <trkpt lat="43.4610438533127307891845703125" lon="-3.61508189700543880462646484375">
        <ele>74.59999847412109375</ele>
        <time>2018-09-05T08:01:22.000Z</time>
      </trkpt>
      <trkpt lat="43.46082315780222415924072265625" lon="-3.6154519580304622650146484375">
        <ele>72.8000030517578125</ele>
        <time>2018-09-05T08:01:25.000Z</time>
      </trkpt>
      <trkpt lat="43.460655100643634796142578125" lon="-3.61568153835833072662353515625">
        <ele>71</ele>
        <time>2018-09-05T08:01:27.000Z</time>
      </trkpt>
      <trkpt lat="43.460559546947479248046875" lon="-3.61577843315899372100830078125">
        <ele>70.1999969482421875</ele>
        <time>2018-09-05T08:01:28.000Z</time>
      </trkpt>
      <trkpt lat="43.46045988611876964569091796875" lon="-3.615865521132946014404296875">
        <ele>69.1999969482421875</ele>
        <time>2018-09-05T08:01:29.000Z</time>
      </trkpt>
      <trkpt lat="43.46036366187036037445068359375" lon="-3.61595998518168926239013671875">
        <ele>67.59999847412109375</ele>
        <time>2018-09-05T08:01:30.000Z</time>
      </trkpt>
      <trkpt lat="43.46021379344165325164794921875" lon="-3.61619174480438232421875">
        <ele>66.1999969482421875</ele>
        <time>2018-09-05T08:01:32.000Z</time>
      </trkpt>
      <trkpt lat="43.46013844013214111328125" lon="-3.61647362820804119110107421875">
        <ele>64.40000152587890625</ele>
        <time>2018-09-05T08:01:34.000Z</time>
      </trkpt>
      <trkpt lat="43.46013248898088932037353515625" lon="-3.616618216037750244140625">
        <ele>63.40000152587890625</ele>
        <time>2018-09-05T08:01:35.000Z</time>
      </trkpt>
      <trkpt lat="43.4601496718823909759521484375" lon="-3.6167602054774761199951171875">
        <ele>62.59999847412109375</ele>
        <time>2018-09-05T08:01:36.000Z</time>
      </trkpt>
      <trkpt lat="43.46019275486469268798828125" lon="-3.616894148290157318115234375">
        <ele>62</ele>
        <time>2018-09-05T08:01:37.000Z</time>
      </trkpt>
      <trkpt lat="43.46025905571877956390380859375" lon="-3.61701677553355693817138671875">
        <ele>61.40000152587890625</ele>
        <time>2018-09-05T08:01:38.000Z</time>
      </trkpt>
      <trkpt lat="43.46034027636051177978515625" lon="-3.6171098984777927398681640625">
        <ele>60.59999847412109375</ele>
        <time>2018-09-05T08:01:39.000Z</time>
      </trkpt>
      <trkpt lat="43.4604306332767009735107421875" lon="-3.6171739362180233001708984375">
        <ele>59.799999237060546875</ele>
        <time>2018-09-05T08:01:40.000Z</time>
      </trkpt>
      <trkpt lat="43.46060757525265216827392578125" lon="-3.617267310619354248046875">
        <ele>58.59999847412109375</ele>
        <time>2018-09-05T08:01:42.000Z</time>
      </trkpt>
      <trkpt lat="43.4606760554015636444091796875" lon="-3.6173224635422229766845703125">
        <ele>58</ele>
        <time>2018-09-05T08:01:43.000Z</time>
      </trkpt>
      <trkpt lat="43.4607327170670032501220703125" lon="-3.617393039166927337646484375">
        <ele>57.40000152587890625</ele>
        <time>2018-09-05T08:01:44.000Z</time>
      </trkpt>
      <trkpt lat="43.4607689268887042999267578125" lon="-3.617472164332866668701171875">
        <ele>57</ele>
        <time>2018-09-05T08:01:45.000Z</time>
      </trkpt>
      <trkpt lat="43.46076071262359619140625" lon="-3.6175591684877872467041015625">
        <ele>56.40000152587890625</ele>
        <time>2018-09-05T08:01:46.000Z</time>
      </trkpt>
      <trkpt lat="43.460709750652313232421875" lon="-3.61763368360698223114013671875">
        <ele>55.59999847412109375</ele>
        <time>2018-09-05T08:01:47.000Z</time>
      </trkpt>
      <trkpt lat="43.46063322387635707855224609375" lon="-3.61769034527242183685302734375">
        <ele>55</ele>
        <time>2018-09-05T08:01:48.000Z</time>
      </trkpt>
      <trkpt lat="43.46055057831108570098876953125" lon="-3.6177080310881137847900390625">
        <ele>54.40000152587890625</ele>
        <time>2018-09-05T08:01:49.000Z</time>
      </trkpt>
      <trkpt lat="43.4603893943130970001220703125" lon="-3.6176721565425395965576171875">
        <ele>53.799999237060546875</ele>
        <time>2018-09-05T08:01:51.000Z</time>
      </trkpt>
      <trkpt lat="43.46031102351844310760498046875" lon="-3.61762479878962039947509765625">
        <ele>53.40000152587890625</ele>
        <time>2018-09-05T08:01:52.000Z</time>
      </trkpt>
      <trkpt lat="43.46016098745167255401611328125" lon="-3.6175082065165042877197265625">
        <ele>51.799999237060546875</ele>
        <time>2018-09-05T08:01:54.000Z</time>
      </trkpt>
      <trkpt lat="43.46001028083264827728271484375" lon="-3.6173797957599163055419921875">
        <ele>50.59999847412109375</ele>
        <time>2018-09-05T08:01:56.000Z</time>
      </trkpt>
      <trkpt lat="43.45993316732347011566162109375" lon="-3.61731165088713169097900390625">
        <ele>50.200000762939453125</ele>
        <time>2018-09-05T08:01:57.000Z</time>
      </trkpt>
      <trkpt lat="43.45985404215753078460693359375" lon="-3.6172443442046642303466796875">
        <ele>49.59999847412109375</ele>
        <time>2018-09-05T08:01:58.000Z</time>
      </trkpt>
      <trkpt lat="43.4596891701221466064453125" lon="-3.61710545606911182403564453125">
        <ele>48.40000152587890625</ele>
        <time>2018-09-05T08:02:00.000Z</time>
      </trkpt>
      <trkpt lat="43.4595119766891002655029296875" lon="-3.6169845052063465118408203125">
        <ele>47</ele>
        <time>2018-09-05T08:02:02.000Z</time>
      </trkpt>
      <trkpt lat="43.4594155848026275634765625" lon="-3.61693848855793476104736328125">
        <ele>46.200000762939453125</ele>
        <time>2018-09-05T08:02:03.000Z</time>
      </trkpt>
      <trkpt lat="43.459307290613651275634765625" lon="-3.6169204674661159515380859375">
        <ele>45.200000762939453125</ele>
        <time>2018-09-05T08:02:04.000Z</time>
      </trkpt>
      <trkpt lat="43.4591974876821041107177734375" lon="-3.61692340113222599029541015625">
        <ele>44.200000762939453125</ele>
        <time>2018-09-05T08:02:05.000Z</time>
      </trkpt>
      <trkpt lat="43.4590895287692546844482421875" lon="-3.61694988794624805450439453125">
        <ele>43.200000762939453125</ele>
        <time>2018-09-05T08:02:06.000Z</time>
      </trkpt>
      <trkpt lat="43.45889532007277011871337890625" lon="-3.6170311085879802703857421875">
        <ele>42</ele>
        <time>2018-09-05T08:02:08.000Z</time>
      </trkpt>
      <trkpt lat="43.4587294422090053558349609375" lon="-3.61710780300199985504150390625">
        <ele>42</ele>
        <time>2018-09-05T08:02:10.000Z</time>
      </trkpt>
      <trkpt lat="43.45858384855091571807861328125" lon="-3.617170415818691253662109375">
        <ele>42.799999237060546875</ele>
        <time>2018-09-05T08:02:12.000Z</time>
      </trkpt>
      <trkpt lat="43.45851528458297252655029296875" lon="-3.61720218323171138763427734375">
        <ele>43.200000762939453125</ele>
        <time>2018-09-05T08:02:13.000Z</time>
      </trkpt>
      <trkpt lat="43.45839693211019039154052734375" lon="-3.617266304790973663330078125">
        <ele>44.200000762939453125</ele>
        <time>2018-09-05T08:02:15.000Z</time>
      </trkpt>
      <trkpt lat="43.45834580250084400177001953125" lon="-3.61729622818529605865478515625">
        <ele>44.59999847412109375</ele>
        <time>2018-09-05T08:02:16.000Z</time>
      </trkpt>
      <trkpt lat="43.4582476504147052764892578125" lon="-3.61734802834689617156982421875">
        <ele>46</ele>
        <time>2018-09-05T08:02:18.000Z</time>
      </trkpt>
      <trkpt lat="43.45812083221971988677978515625" lon="-3.6174307577311992645263671875">
        <ele>47</ele>
        <time>2018-09-05T08:02:21.000Z</time>
      </trkpt>
      <trkpt lat="43.45808856189250946044921875" lon="-3.617465458810329437255859375">
        <ele>47.40000152587890625</ele>
        <time>2018-09-05T08:02:22.000Z</time>
      </trkpt>
      <trkpt lat="43.4580427967011928558349609375" lon="-3.6175501160323619842529296875">
        <ele>48.200000762939453125</ele>
        <time>2018-09-05T08:02:24.000Z</time>
      </trkpt>
      <trkpt lat="43.45803114585578441619873046875" lon="-3.61759965308010578155517578125">
        <ele>48.40000152587890625</ele>
        <time>2018-09-05T08:02:25.000Z</time>
      </trkpt>
      <trkpt lat="43.4580324031412601470947265625" lon="-3.61770744435489177703857421875">
        <ele>49.200000762939453125</ele>
        <time>2018-09-05T08:02:27.000Z</time>
      </trkpt>
      <trkpt lat="43.45804623328149318695068359375" lon="-3.61775823868811130523681640625">
        <ele>49.40000152587890625</ele>
        <time>2018-09-05T08:02:28.000Z</time>
      </trkpt>
      <trkpt lat="43.45806769095361232757568359375" lon="-3.61780450679361820220947265625">
        <ele>49.59999847412109375</ele>
        <time>2018-09-05T08:02:29.000Z</time>
      </trkpt>
      <trkpt lat="43.4581235982477664947509765625" lon="-3.61787726171314716339111328125">
        <ele>49.59999847412109375</ele>
        <time>2018-09-05T08:02:31.000Z</time>
      </trkpt>
      <trkpt lat="43.45818637870252132415771484375" lon="-3.617938198149204254150390625">
        <ele>49.799999237060546875</ele>
        <time>2018-09-05T08:02:33.000Z</time>
      </trkpt>
      <trkpt lat="43.45821856521070003509521484375" lon="-3.617963679134845733642578125">
        <ele>50</ele>
        <time>2018-09-05T08:02:34.000Z</time>
      </trkpt>
      <trkpt lat="43.458249829709529876708984375" lon="-3.61799083650112152099609375">
        <ele>50</ele>
        <time>2018-09-05T08:02:35.000Z</time>
      </trkpt>
      <trkpt lat="43.45830791629850864410400390625" lon="-3.6180500127375125885009765625">
        <ele>50</ele>
        <time>2018-09-05T08:02:37.000Z</time>
      </trkpt>
      <trkpt lat="43.45836239866912364959716796875" lon="-3.61811564303934574127197265625">
        <ele>50.40000152587890625</ele>
        <time>2018-09-05T08:02:39.000Z</time>
      </trkpt>
      <trkpt lat="43.4584139473736286163330078125" lon="-3.61818487755954265594482421875">
        <ele>50.799999237060546875</ele>
        <time>2018-09-05T08:02:41.000Z</time>
      </trkpt>
      <trkpt lat="43.45848108641803264617919921875" lon="-3.61830440349876880645751953125">
        <ele>51.40000152587890625</ele>
        <time>2018-09-05T08:02:44.000Z</time>
      </trkpt>
      <trkpt lat="43.45855266787111759185791015625" lon="-3.6184756457805633544921875">
        <ele>52</ele>
        <time>2018-09-05T08:02:48.000Z</time>
      </trkpt>
      <trkpt lat="43.4586630575358867645263671875" lon="-3.6188566870987415313720703125">
        <ele>51.59999847412109375</ele>
        <time>2018-09-05T08:02:55.000Z</time>
      </trkpt>
      <trkpt lat="43.45873287878930568695068359375" lon="-3.61913144588470458984375">
        <ele>50.799999237060546875</ele>
        <time>2018-09-05T08:02:59.000Z</time>
      </trkpt>
      <trkpt lat="43.4587532468140125274658203125" lon="-3.61920931376516819000244140625">
        <ele>50.59999847412109375</ele>
        <time>2018-09-05T08:03:00.000Z</time>
      </trkpt>
      <trkpt lat="43.4587750397622585296630859375" lon="-3.619288690388202667236328125">
        <ele>50.40000152587890625</ele>
        <time>2018-09-05T08:03:01.000Z</time>
      </trkpt>
      <trkpt lat="43.4588179551064968109130859375" lon="-3.61945875920355319976806640625">
        <ele>49.799999237060546875</ele>
        <time>2018-09-05T08:03:03.000Z</time>
      </trkpt>
      <trkpt lat="43.45886296592652797698974609375" lon="-3.619637377560138702392578125">
        <ele>49.200000762939453125</ele>
        <time>2018-09-05T08:03:05.000Z</time>
      </trkpt>
      <trkpt lat="43.4589135088026523590087890625" lon="-3.619824461638927459716796875">
        <ele>48.200000762939453125</ele>
        <time>2018-09-05T08:03:07.000Z</time>
      </trkpt>
      <trkpt lat="43.45896841026842594146728515625" lon="-3.6200190894305706024169921875">
        <ele>47</ele>
        <time>2018-09-05T08:03:09.000Z</time>
      </trkpt>
      <trkpt lat="43.45908089540898799896240234375" lon="-3.62031622789800167083740234375">
        <ele>45.799999237060546875</ele>
        <time>2018-09-05T08:03:12.000Z</time>
      </trkpt>
      <trkpt lat="43.45912548713386058807373046875" lon="-3.62041329033672809600830078125">
        <ele>45.59999847412109375</ele>
        <time>2018-09-05T08:03:13.000Z</time>
      </trkpt>
      <trkpt lat="43.45927954651415348052978515625" lon="-3.6207053996622562408447265625">
        <ele>44.200000762939453125</ele>
        <time>2018-09-05T08:03:16.000Z</time>
      </trkpt>
      <trkpt lat="43.459384404122829437255859375" lon="-3.62091754563152790069580078125">
        <ele>43</ele>
        <time>2018-09-05T08:03:18.000Z</time>
      </trkpt>
      <trkpt lat="43.45949613489210605621337890625" lon="-3.621257431805133819580078125">
        <ele>42.200000762939453125</ele>
        <time>2018-09-05T08:03:21.000Z</time>
      </trkpt>
      <trkpt lat="43.4595210291445255279541015625" lon="-3.62137176096439361572265625">
        <ele>42.200000762939453125</ele>
        <time>2018-09-05T08:03:22.000Z</time>
      </trkpt>
      <trkpt lat="43.4596698917448520660400390625" lon="-3.62196721136569976806640625">
        <ele>43.59999847412109375</ele>
        <time>2018-09-05T08:03:28.000Z</time>
      </trkpt>
      <trkpt lat="43.45988438464701175689697265625" lon="-3.62268126569688320159912109375">
        <ele>43.40000152587890625</ele>
        <time>2018-09-05T08:03:36.000Z</time>
      </trkpt>
      <trkpt lat="43.45993601717054843902587890625" lon="-3.62285368144512176513671875">
        <ele>43.200000762939453125</ele>
        <time>2018-09-05T08:03:38.000Z</time>
      </trkpt>
      <trkpt lat="43.46010030247271060943603515625" lon="-3.62344787456095218658447265625">
        <ele>43.40000152587890625</ele>
        <time>2018-09-05T08:03:45.000Z</time>
      </trkpt>
      <trkpt lat="43.4602068364620208740234375" lon="-3.62405371852219104766845703125">
        <ele>42</ele>
        <time>2018-09-05T08:03:51.000Z</time>
      </trkpt>
      <trkpt lat="43.46027598716318607330322265625" lon="-3.62455931492149829864501953125">
        <ele>42</ele>
        <time>2018-09-05T08:03:56.000Z</time>
      </trkpt>
      <trkpt lat="43.46027364023029804229736328125" lon="-3.624649085104465484619140625">
        <ele>42.40000152587890625</ele>
        <time>2018-09-05T08:03:57.000Z</time>
      </trkpt>
      <trkpt lat="43.46026115119457244873046875" lon="-3.62481898628175258636474609375">
        <ele>42.799999237060546875</ele>
        <time>2018-09-05T08:03:59.000Z</time>
      </trkpt>
      <trkpt lat="43.460252769291400909423828125" lon="-3.62490062601864337921142578125">
        <ele>43</ele>
        <time>2018-09-05T08:04:00.000Z</time>
      </trkpt>
      <trkpt lat="43.46022225916385650634765625" lon="-3.6250613071024417877197265625">
        <ele>43.59999847412109375</ele>
        <time>2018-09-05T08:04:02.000Z</time>
      </trkpt>
      <trkpt lat="43.46018194220960140228271484375" lon="-3.625215031206607818603515625">
        <ele>43.799999237060546875</ele>
        <time>2018-09-05T08:04:04.000Z</time>
      </trkpt>
      <trkpt lat="43.46015377901494503021240234375" lon="-3.62528669647872447967529296875">
        <ele>43.799999237060546875</ele>
        <time>2018-09-05T08:04:05.000Z</time>
      </trkpt>
      <trkpt lat="43.46008555032312870025634765625" lon="-3.6254252493381500244140625">
        <ele>43.59999847412109375</ele>
        <time>2018-09-05T08:04:07.000Z</time>
      </trkpt>
      <trkpt lat="43.4598455764353275299072265625" lon="-3.62577938474714756011962890625">
        <ele>42</ele>
        <time>2018-09-05T08:04:12.000Z</time>
      </trkpt>
      <trkpt lat="43.45973074436187744140625" lon="-3.6259471066296100616455078125">
        <ele>40.59999847412109375</ele>
        <time>2018-09-05T08:04:14.000Z</time>
      </trkpt>
      <trkpt lat="43.459667377173900604248046875" lon="-3.626034446060657501220703125">
        <ele>39.40000152587890625</ele>
        <time>2018-09-05T08:04:15.000Z</time>
      </trkpt>
      <trkpt lat="43.45959923230111598968505859375" lon="-3.62612505443394184112548828125">
        <ele>38.40000152587890625</ele>
        <time>2018-09-05T08:04:16.000Z</time>
      </trkpt>
      <trkpt lat="43.45953066833317279815673828125" lon="-3.62622010521590709686279296875">
        <ele>37.59999847412109375</ele>
        <time>2018-09-05T08:04:17.000Z</time>
      </trkpt>
      <trkpt lat="43.459462858736515045166015625" lon="-3.626319430768489837646484375">
        <ele>36.40000152587890625</ele>
        <time>2018-09-05T08:04:18.000Z</time>
      </trkpt>
      <trkpt lat="43.4593362919986248016357421875" lon="-3.6265190877020359039306640625">
        <ele>34.59999847412109375</ele>
        <time>2018-09-05T08:04:20.000Z</time>
      </trkpt>
      <trkpt lat="43.45917661674320697784423828125" lon="-3.62680147401988506317138671875">
        <ele>34.799999237060546875</ele>
        <time>2018-09-05T08:04:23.000Z</time>
      </trkpt>
      <trkpt lat="43.45908659510314464569091796875" lon="-3.6269800923764705657958984375">
        <ele>35.59999847412109375</ele>
        <time>2018-09-05T08:04:25.000Z</time>
      </trkpt>
      <trkpt lat="43.45899875275790691375732421875" lon="-3.62725342623889446258544921875">
        <ele>35.799999237060546875</ele>
        <time>2018-09-05T08:04:28.000Z</time>
      </trkpt>
      <trkpt lat="43.4589705057442188262939453125" lon="-3.62754679284989833831787109375">
        <ele>36</ele>
        <time>2018-09-05T08:04:31.000Z</time>
      </trkpt>
      <trkpt lat="43.45897100865840911865234375" lon="-3.627647794783115386962890625">
        <ele>35.799999237060546875</ele>
        <time>2018-09-05T08:04:32.000Z</time>
      </trkpt>
      <trkpt lat="43.45897662453353404998779296875" lon="-3.62774862907826900482177734375">
        <ele>35.799999237060546875</ele>
        <time>2018-09-05T08:04:33.000Z</time>
      </trkpt>
      <trkpt lat="43.4589783847332000732421875" lon="-3.62830770201981067657470703125">
        <ele>35.200000762939453125</ele>
        <time>2018-09-05T08:04:39.000Z</time>
      </trkpt>
      <trkpt lat="43.45893538556993007659912109375" lon="-3.6284616775810718536376953125">
        <ele>35</ele>
        <time>2018-09-05T08:04:41.000Z</time>
      </trkpt>
      <trkpt lat="43.45890386961400508880615234375" lon="-3.62854222767055034637451171875">
        <ele>34.200000762939453125</ele>
        <time>2018-09-05T08:04:42.000Z</time>
      </trkpt>
      <trkpt lat="43.45886866562068462371826171875" lon="-3.628624789416790008544921875">
        <ele>34</ele>
        <time>2018-09-05T08:04:43.000Z</time>
      </trkpt>
      <trkpt lat="43.4588296897709369659423828125" lon="-3.62871036864817142486572265625">
        <ele>33.59999847412109375</ele>
        <time>2018-09-05T08:04:44.000Z</time>
      </trkpt>
      <trkpt lat="43.45874176360666751861572265625" lon="-3.62888865172863006591796875">
        <ele>32.799999237060546875</ele>
        <time>2018-09-05T08:04:46.000Z</time>
      </trkpt>
      <trkpt lat="43.45865107141435146331787109375" lon="-3.6290811002254486083984375">
        <ele>31.6000003814697265625</ele>
        <time>2018-09-05T08:04:48.000Z</time>
      </trkpt>
      <trkpt lat="43.45852182246744632720947265625" lon="-3.62938477657735347747802734375">
        <ele>30.3999996185302734375</ele>
        <time>2018-09-05T08:04:51.000Z</time>
      </trkpt>
      <trkpt lat="43.4583748877048492431640625" lon="-3.6298185400664806365966796875">
        <ele>29</ele>
        <time>2018-09-05T08:04:55.000Z</time>
      </trkpt>
      <trkpt lat="43.4581524319946765899658203125" lon="-3.6304176785051822662353515625">
        <ele>28.6000003814697265625</ele>
        <time>2018-09-05T08:05:01.000Z</time>
      </trkpt>
      <trkpt lat="43.45809568651020526885986328125" lon="-3.6304947920143604278564453125">
        <ele>28.200000762939453125</ele>
        <time>2018-09-05T08:05:02.000Z</time>
      </trkpt>
      <trkpt lat="43.45803215168416500091552734375" lon="-3.63055924884974956512451171875">
        <ele>28</ele>
        <time>2018-09-05T08:05:03.000Z</time>
      </trkpt>
      <trkpt lat="43.45784003846347332000732421875" lon="-3.6307482607662677764892578125">
        <ele>27</ele>
        <time>2018-09-05T08:05:06.000Z</time>
      </trkpt>
      <trkpt lat="43.4577765874564647674560546875" lon="-3.630813471972942352294921875">
        <ele>27</ele>
        <time>2018-09-05T08:05:07.000Z</time>
      </trkpt>
      <trkpt lat="43.45734349451959133148193359375" lon="-3.63127539865672588348388671875">
        <ele>26.6000003814697265625</ele>
        <time>2018-09-05T08:05:14.000Z</time>
      </trkpt>
      <trkpt lat="43.45726369880139827728271484375" lon="-3.6314285360276699066162109375">
        <ele>27.3999996185302734375</ele>
        <time>2018-09-05T08:05:16.000Z</time>
      </trkpt>
      <trkpt lat="43.45721810124814510345458984375" lon="-3.63157664425671100616455078125">
        <ele>28.3999996185302734375</ele>
        <time>2018-09-05T08:05:18.000Z</time>
      </trkpt>
      <trkpt lat="43.4571948833763599395751953125" lon="-3.63170907832682132720947265625">
        <ele>29.6000003814697265625</ele>
        <time>2018-09-05T08:05:20.000Z</time>
      </trkpt>
      <trkpt lat="43.45718943513929843902587890625" lon="-3.6317685060203075408935546875">
        <ele>30</ele>
        <time>2018-09-05T08:05:21.000Z</time>
      </trkpt>
      <trkpt lat="43.45718876458704471588134765625" lon="-3.63182432949542999267578125">
        <ele>30.6000003814697265625</ele>
        <time>2018-09-05T08:05:22.000Z</time>
      </trkpt>
      <trkpt lat="43.4571905247867107391357421875" lon="-3.63196841441094875335693359375">
        <ele>31.6000003814697265625</ele>
        <time>2018-09-05T08:05:25.000Z</time>
      </trkpt>
      <trkpt lat="43.4571875073015689849853515625" lon="-3.63208961673080921173095703125">
        <ele>32.40000152587890625</ele>
        <time>2018-09-05T08:05:28.000Z</time>
      </trkpt>
      <trkpt lat="43.45718423835933208465576171875" lon="-3.63212901167571544647216796875">
        <ele>32.799999237060546875</ele>
        <time>2018-09-05T08:05:29.000Z</time>
      </trkpt>
      <trkpt lat="43.4571885131299495697021484375" lon="-3.6322466097772121429443359375">
        <ele>33.59999847412109375</ele>
        <time>2018-09-05T08:05:32.000Z</time>
      </trkpt>
      <trkpt lat="43.4571905247867107391357421875" lon="-3.63228558562695980072021484375">
        <ele>33.799999237060546875</ele>
        <time>2018-09-05T08:05:33.000Z</time>
      </trkpt>
      <trkpt lat="43.4571881778538227081298828125" lon="-3.63236186094582080841064453125">
        <ele>34.200000762939453125</ele>
        <time>2018-09-05T08:05:35.000Z</time>
      </trkpt>
      <trkpt lat="43.45718733966350555419921875" lon="-3.6324365437030792236328125">
        <ele>34.59999847412109375</ele>
        <time>2018-09-05T08:05:37.000Z</time>
      </trkpt>
      <trkpt lat="43.4571838192641735076904296875" lon="-3.63250921480357646942138671875">
        <ele>35</ele>
        <time>2018-09-05T08:05:39.000Z</time>
      </trkpt>
      <trkpt lat="43.45717434771358966827392578125" lon="-3.632661513984203338623046875">
        <ele>35.799999237060546875</ele>
        <time>2018-09-05T08:05:43.000Z</time>
      </trkpt>
      <trkpt lat="43.45716764219105243682861328125" lon="-3.63269914872944355010986328125">
        <ele>36</ele>
        <time>2018-09-05T08:05:44.000Z</time>
      </trkpt>
      <trkpt lat="43.45716110430657863616943359375" lon="-3.632735945284366607666015625">
        <ele>36.200000762939453125</ele>
        <time>2018-09-05T08:05:45.000Z</time>
      </trkpt>
      <trkpt lat="43.4570758603513240814208984375" lon="-3.63297323696315288543701171875">
        <ele>37</ele>
        <time>2018-09-05T08:05:52.000Z</time>
      </trkpt>
      <trkpt lat="43.45705725252628326416015625" lon="-3.633004166185855865478515625">
        <ele>37.200000762939453125</ele>
        <time>2018-09-05T08:05:53.000Z</time>
      </trkpt>
      <trkpt lat="43.45697066746652126312255859375" lon="-3.63311287946999073028564453125">
        <ele>38.40000152587890625</ele>
        <time>2018-09-05T08:05:57.000Z</time>
      </trkpt>
      <trkpt lat="43.45692523755133152008056640625" lon="-3.63316300325095653533935546875">
        <ele>38.59999847412109375</ele>
        <time>2018-09-05T08:05:59.000Z</time>
      </trkpt>
      <trkpt lat="43.456787355244159698486328125" lon="-3.63331957720220088958740234375">
        <ele>39.59999847412109375</ele>
        <time>2018-09-05T08:06:05.000Z</time>
      </trkpt>
      <trkpt lat="43.4567446075379848480224609375" lon="-3.63337322138249874114990234375">
        <ele>39.799999237060546875</ele>
        <time>2018-09-05T08:06:07.000Z</time>
      </trkpt>
      <trkpt lat="43.4566118381917476654052734375" lon="-3.63355829380452632904052734375">
        <ele>40.59999847412109375</ele>
        <time>2018-09-05T08:06:13.000Z</time>
      </trkpt>
      <trkpt lat="43.456539921462535858154296875" lon="-3.6336906440556049346923828125">
        <ele>41.200000762939453125</ele>
        <time>2018-09-05T08:06:17.000Z</time>
      </trkpt>
      <trkpt lat="43.45650899223983287811279296875" lon="-3.63375979475677013397216796875">
        <ele>41.59999847412109375</ele>
        <time>2018-09-05T08:06:19.000Z</time>
      </trkpt>
      <trkpt lat="43.45639382489025592803955078125" lon="-3.634063638746738433837890625">
        <ele>42.40000152587890625</ele>
        <time>2018-09-05T08:06:27.000Z</time>
      </trkpt>
      <trkpt lat="43.45633012242615222930908203125" lon="-3.634227253496646881103515625">
        <ele>42.59999847412109375</ele>
        <time>2018-09-05T08:06:31.000Z</time>
      </trkpt>
      <trkpt lat="43.4563149511814117431640625" lon="-3.63426924683153629302978515625">
        <ele>42.799999237060546875</ele>
        <time>2018-09-05T08:06:32.000Z</time>
      </trkpt>
      <trkpt lat="43.45625535584986209869384765625" lon="-3.634447865188121795654296875">
        <ele>43.40000152587890625</ele>
        <time>2018-09-05T08:06:36.000Z</time>
      </trkpt>
      <trkpt lat="43.45620087347924709320068359375" lon="-3.6346223764121532440185546875">
        <ele>43.799999237060546875</ele>
        <time>2018-09-05T08:06:40.000Z</time>
      </trkpt>
      <trkpt lat="43.45613189041614532470703125" lon="-3.63482697866857051849365234375">
        <ele>44.40000152587890625</ele>
        <time>2018-09-05T08:06:45.000Z</time>
      </trkpt>
      <trkpt lat="43.45610330812633037567138671875" lon="-3.6348979733884334564208984375">
        <ele>44.799999237060546875</ele>
        <time>2018-09-05T08:06:47.000Z</time>
      </trkpt>
      <trkpt lat="43.45604396425187587738037109375" lon="-3.63509201444685459136962890625">
        <ele>45.40000152587890625</ele>
        <time>2018-09-05T08:06:52.000Z</time>
      </trkpt>
      <trkpt lat="43.45601580105721950531005859375" lon="-3.6351621709764003753662109375">
        <ele>45.799999237060546875</ele>
        <time>2018-09-05T08:06:54.000Z</time>
      </trkpt>
      <trkpt lat="43.4559748135507106781005859375" lon="-3.635303489863872528076171875">
        <ele>46.59999847412109375</ele>
        <time>2018-09-05T08:06:58.000Z</time>
      </trkpt>
      <trkpt lat="43.455955870449542999267578125" lon="-3.63537331111729145050048828125">
        <ele>46.799999237060546875</ele>
        <time>2018-09-05T08:07:00.000Z</time>
      </trkpt>
      <trkpt lat="43.45588554628193378448486328125" lon="-3.6356325633823871612548828125">
        <ele>48.200000762939453125</ele>
        <time>2018-09-05T08:07:07.000Z</time>
      </trkpt>
      <trkpt lat="43.4558279626071453094482421875" lon="-3.6359443701803684234619140625">
        <ele>49.40000152587890625</ele>
        <time>2018-09-05T08:07:15.000Z</time>
      </trkpt>
      <trkpt lat="43.4558269567787647247314453125" lon="-3.63598644733428955078125">
        <ele>49.59999847412109375</ele>
        <time>2018-09-05T08:07:16.000Z</time>
      </trkpt>
      <trkpt lat="43.4558195807039737701416015625" lon="-3.6362256668508052825927734375">
        <ele>50.40000152587890625</ele>
        <time>2018-09-05T08:07:22.000Z</time>
      </trkpt>
      <trkpt lat="43.4558128751814365386962890625" lon="-3.6363487131893634796142578125">
        <ele>50.799999237060546875</ele>
        <time>2018-09-05T08:07:25.000Z</time>
      </trkpt>
      <trkpt lat="43.45580868422985076904296875" lon="-3.63656639121472835540771484375">
        <ele>51.40000152587890625</ele>
        <time>2018-09-05T08:07:30.000Z</time>
      </trkpt>
      <trkpt lat="43.45580390654504299163818359375" lon="-3.6367486976087093353271484375">
        <ele>52.200000762939453125</ele>
        <time>2018-09-05T08:07:34.000Z</time>
      </trkpt>
      <trkpt lat="43.45579535700380802154541015625" lon="-3.6368871666491031646728515625">
        <ele>52.59999847412109375</ele>
        <time>2018-09-05T08:07:37.000Z</time>
      </trkpt>
      <trkpt lat="43.4557763300836086273193359375" lon="-3.63705002702772617340087890625">
        <ele>53.200000762939453125</ele>
        <time>2018-09-05T08:07:41.000Z</time>
      </trkpt>
      <trkpt lat="43.45574674196541309356689453125" lon="-3.63725370727479457855224609375">
        <ele>53.59999847412109375</ele>
        <time>2018-09-05T08:07:46.000Z</time>
      </trkpt>
      <trkpt lat="43.45573626458644866943359375" lon="-3.637346327304840087890625">
        <ele>53.799999237060546875</ele>
        <time>2018-09-05T08:07:48.000Z</time>
      </trkpt>
      <trkpt lat="43.45569913275539875030517578125" lon="-3.637732230126857757568359375">
        <ele>53.59999847412109375</ele>
        <time>2018-09-05T08:07:55.000Z</time>
      </trkpt>
      <trkpt lat="43.45563023351132869720458984375" lon="-3.6382772214710712432861328125">
        <ele>53.200000762939453125</ele>
        <time>2018-09-05T08:08:03.000Z</time>
      </trkpt>
      <trkpt lat="43.4555339254438877105712890625" lon="-3.63895439542829990386962890625">
        <ele>54.40000152587890625</ele>
        <time>2018-09-05T08:08:13.000Z</time>
      </trkpt>
      <trkpt lat="43.45551992766559123992919921875" lon="-3.639017008244991302490234375">
        <ele>54.799999237060546875</ele>
        <time>2018-09-05T08:08:14.000Z</time>
      </trkpt>
      <trkpt lat="43.45541414804756641387939453125" lon="-3.63931733183562755584716796875">
        <ele>55.200000762939453125</ele>
        <time>2018-09-05T08:08:19.000Z</time>
      </trkpt>
      <trkpt lat="43.4552566520869731903076171875" lon="-3.639869950711727142333984375">
        <ele>55.200000762939453125</ele>
        <time>2018-09-05T08:08:27.000Z</time>
      </trkpt>
      <trkpt lat="43.455174677073955535888671875" lon="-3.64028292708098888397216796875">
        <ele>55.40000152587890625</ele>
        <time>2018-09-05T08:08:33.000Z</time>
      </trkpt>
      <trkpt lat="43.45513519831001758575439453125" lon="-3.6404786445200443267822265625">
        <ele>55.59999847412109375</ele>
        <time>2018-09-05T08:08:36.000Z</time>
      </trkpt>
      <trkpt lat="43.45500997267663478851318359375" lon="-3.64103863947093486785888671875">
        <ele>55.59999847412109375</ele>
        <time>2018-09-05T08:08:44.000Z</time>
      </trkpt>
      <trkpt lat="43.454824984073638916015625" lon="-3.6417359299957752227783203125">
        <ele>55.40000152587890625</ele>
        <time>2018-09-05T08:08:54.000Z</time>
      </trkpt>
      <trkpt lat="43.4547968208789825439453125" lon="-3.64186652004718780517578125">
        <ele>55.799999237060546875</ele>
        <time>2018-09-05T08:08:56.000Z</time>
      </trkpt>
      <trkpt lat="43.4547453559935092926025390625" lon="-3.64216399379074573516845703125">
        <ele>57</ele>
        <time>2018-09-05T08:09:01.000Z</time>
      </trkpt>
      <trkpt lat="43.4547366388142108917236328125" lon="-3.64221897907555103302001953125">
        <ele>57.200000762939453125</ele>
        <time>2018-09-05T08:09:02.000Z</time>
      </trkpt>
      <trkpt lat="43.45465692691504955291748046875" lon="-3.642615191638469696044921875">
        <ele>58.200000762939453125</ele>
        <time>2018-09-05T08:09:09.000Z</time>
      </trkpt>
      <trkpt lat="43.45463789999485015869140625" lon="-3.64272424019873142242431640625">
        <ele>58.40000152587890625</ele>
        <time>2018-09-05T08:09:11.000Z</time>
      </trkpt>
      <trkpt lat="43.4545995108783245086669921875" lon="-3.64292976446449756622314453125">
        <ele>59.200000762939453125</ele>
        <time>2018-09-05T08:09:15.000Z</time>
      </trkpt>
      <trkpt lat="43.4545814059674739837646484375" lon="-3.64302523434162139892578125">
        <ele>58</ele>
        <time>2018-09-05T08:09:17.000Z</time>
      </trkpt>
      <trkpt lat="43.4545619599521160125732421875" lon="-3.64311911165714263916015625">
        <ele>59.200000762939453125</ele>
        <time>2018-09-05T08:09:19.000Z</time>
      </trkpt>
      <trkpt lat="43.45455466769635677337646484375" lon="-3.64316470921039581298828125">
        <ele>61.200000762939453125</ele>
        <time>2018-09-05T08:09:20.000Z</time>
      </trkpt>
      <trkpt lat="43.45452658832073211669921875" lon="-3.64334500394761562347412109375">
        <ele>61.200000762939453125</ele>
        <time>2018-09-05T08:09:24.000Z</time>
      </trkpt>
      <trkpt lat="43.45449180342257022857666015625" lon="-3.64355756901204586029052734375">
        <ele>62.200000762939453125</ele>
        <time>2018-09-05T08:09:29.000Z</time>
      </trkpt>
      <trkpt lat="43.4544838406145572662353515625" lon="-3.64359796978533267974853515625">
        <ele>62.40000152587890625</ele>
        <time>2018-09-05T08:09:30.000Z</time>
      </trkpt>
      <trkpt lat="43.45446246676146984100341796875" lon="-3.64379980601370334625244140625">
        <ele>63.59999847412109375</ele>
        <time>2018-09-05T08:09:36.000Z</time>
      </trkpt>
      <trkpt lat="43.4544573538005352020263671875" lon="-3.64383651874959468841552734375">
        <ele>63.59999847412109375</ele>
        <time>2018-09-05T08:09:37.000Z</time>
      </trkpt>
      <trkpt lat="43.45442893914878368377685546875" lon="-3.6440292187035083770751953125">
        <ele>64.59999847412109375</ele>
        <time>2018-09-05T08:09:42.000Z</time>
      </trkpt>
      <trkpt lat="43.454401530325412750244140625" lon="-3.64422149956226348876953125">
        <ele>65.1999969482421875</ele>
        <time>2018-09-05T08:09:47.000Z</time>
      </trkpt>
      <trkpt lat="43.454390466213226318359375" lon="-3.64434043876826763153076171875">
        <ele>65.8000030517578125</ele>
        <time>2018-09-05T08:09:50.000Z</time>
      </trkpt>
      <trkpt lat="43.45437563024461269378662109375" lon="-3.64455518312752246856689453125">
        <ele>66.59999847412109375</ele>
        <time>2018-09-05T08:09:55.000Z</time>
      </trkpt>
      <trkpt lat="43.45437227748334407806396484375" lon="-3.644600026309490203857421875">
        <ele>67</ele>
        <time>2018-09-05T08:09:56.000Z</time>
      </trkpt>
      <trkpt lat="43.454351909458637237548828125" lon="-3.64480379037559032440185546875">
        <ele>68</ele>
        <time>2018-09-05T08:10:01.000Z</time>
      </trkpt>
      <trkpt lat="43.45433824695646762847900390625" lon="-3.64487587474286556243896484375">
        <ele>68.40000152587890625</ele>
        <time>2018-09-05T08:10:03.000Z</time>
      </trkpt>
      <trkpt lat="43.45430388115346431732177734375" lon="-3.64506262354552745819091796875">
        <ele>69.1999969482421875</ele>
        <time>2018-09-05T08:10:08.000Z</time>
      </trkpt>
      <trkpt lat="43.45429700799286365509033203125" lon="-3.64513722248375415802001953125">
        <ele>69.40000152587890625</ele>
        <time>2018-09-05T08:10:10.000Z</time>
      </trkpt>
      <trkpt lat="43.454270102083683013916015625" lon="-3.645320199429988861083984375">
        <ele>70.1999969482421875</ele>
        <time>2018-09-05T08:10:15.000Z</time>
      </trkpt>
      <trkpt lat="43.45424990169703960418701171875" lon="-3.645438887178897857666015625">
        <ele>70.8000030517578125</ele>
        <time>2018-09-05T08:10:18.000Z</time>
      </trkpt>
      <trkpt lat="43.45422743819653987884521484375" lon="-3.64557576365768909454345703125">
        <ele>71.40000152587890625</ele>
        <time>2018-09-05T08:10:21.000Z</time>
      </trkpt>
      <trkpt lat="43.454185612499713897705078125" lon="-3.64586301147937774658203125">
        <ele>72.40000152587890625</ele>
        <time>2018-09-05T08:10:28.000Z</time>
      </trkpt>
      <trkpt lat="43.4541504085063934326171875" lon="-3.6461032368242740631103515625">
        <ele>73.40000152587890625</ele>
        <time>2018-09-05T08:10:34.000Z</time>
      </trkpt>
      <trkpt lat="43.45414160750806331634521484375" lon="-3.646218068897724151611328125">
        <ele>73.8000030517578125</ele>
        <time>2018-09-05T08:10:37.000Z</time>
      </trkpt>
      <trkpt lat="43.45410657115280628204345703125" lon="-3.6464214138686656951904296875">
        <ele>74.59999847412109375</ele>
        <time>2018-09-05T08:10:42.000Z</time>
      </trkpt>
      <trkpt lat="43.45408678986132144927978515625" lon="-3.64660958759486675262451171875">
        <ele>74.8000030517578125</ele>
        <time>2018-09-05T08:10:46.000Z</time>
      </trkpt>
      <trkpt lat="43.454069606959819793701171875" lon="-3.6467664130032062530517578125">
        <ele>75</ele>
        <time>2018-09-05T08:10:49.000Z</time>
      </trkpt>
      <trkpt lat="43.45403985120356082916259765625" lon="-3.64703639410436153411865234375">
        <ele>75</ele>
        <time>2018-09-05T08:10:54.000Z</time>
      </trkpt>
      <trkpt lat="43.4540439583361148834228515625" lon="-3.6471484601497650146484375">
        <ele>74.8000030517578125</ele>
        <time>2018-09-05T08:10:56.000Z</time>
      </trkpt>
      <trkpt lat="43.45405183732509613037109375" lon="-3.6472637951374053955078125">
        <ele>75.40000152587890625</ele>
        <time>2018-09-05T08:10:58.000Z</time>
      </trkpt>
      <trkpt lat="43.45406315289437770843505859375" lon="-3.64738239906728267669677734375">
        <ele>74.59999847412109375</ele>
        <time>2018-09-05T08:11:00.000Z</time>
      </trkpt>
      <trkpt lat="43.4540888853371143341064453125" lon="-3.64758968353271484375">
        <ele>73.59999847412109375</ele>
        <time>2018-09-05T08:11:03.000Z</time>
      </trkpt>
      <trkpt lat="43.45409735105931758880615234375" lon="-3.6476542241871356964111328125">
        <ele>73.40000152587890625</ele>
        <time>2018-09-05T08:11:04.000Z</time>
      </trkpt>
      <trkpt lat="43.4541214071214199066162109375" lon="-3.64778540097177028656005859375">
        <ele>72.8000030517578125</ele>
        <time>2018-09-05T08:11:06.000Z</time>
      </trkpt>
      <trkpt lat="43.4541418589651584625244140625" lon="-3.647938705980777740478515625">
        <ele>72.1999969482421875</ele>
        <time>2018-09-05T08:11:08.000Z</time>
      </trkpt>
      <trkpt lat="43.4541646577417850494384765625" lon="-3.648259900510311126708984375">
        <ele>71.1999969482421875</ele>
        <time>2018-09-05T08:11:12.000Z</time>
      </trkpt>
      <trkpt lat="43.45417379401624202728271484375" lon="-3.6484233476221561431884765625">
        <ele>70.59999847412109375</ele>
        <time>2018-09-05T08:11:14.000Z</time>
      </trkpt>
      <trkpt lat="43.45417748205363750457763671875" lon="-3.648508004844188690185546875">
        <ele>70.1999969482421875</ele>
        <time>2018-09-05T08:11:15.000Z</time>
      </trkpt>
      <trkpt lat="43.4541737101972103118896484375" lon="-3.648597188293933868408203125">
        <ele>70</ele>
        <time>2018-09-05T08:11:16.000Z</time>
      </trkpt>
      <trkpt lat="43.45417387783527374267578125" lon="-3.64868645556271076202392578125">
        <ele>69.59999847412109375</ele>
        <time>2018-09-05T08:11:17.000Z</time>
      </trkpt>
      <trkpt lat="43.4541871212422847747802734375" lon="-3.64888125099241733551025390625">
        <ele>69</ele>
        <time>2018-09-05T08:11:19.000Z</time>
      </trkpt>
      <trkpt lat="43.45420514233410358428955078125" lon="-3.6490945704281330108642578125">
        <ele>68.1999969482421875</ele>
        <time>2018-09-05T08:11:21.000Z</time>
      </trkpt>
      <trkpt lat="43.45421805046498775482177734375" lon="-3.64920227788388729095458984375">
        <ele>67.8000030517578125</ele>
        <time>2018-09-05T08:11:22.000Z</time>
      </trkpt>
      <trkpt lat="43.45424068160355091094970703125" lon="-3.64930872805416584014892578125">
        <ele>67.1999969482421875</ele>
        <time>2018-09-05T08:11:23.000Z</time>
      </trkpt>
      <trkpt lat="43.45427588559687137603759765625" lon="-3.64940964616835117340087890625">
        <ele>66.59999847412109375</ele>
        <time>2018-09-05T08:11:24.000Z</time>
      </trkpt>
      <trkpt lat="43.4543215669691562652587890625" lon="-3.6495052836835384368896484375">
        <ele>66</ele>
        <time>2018-09-05T08:11:25.000Z</time>
      </trkpt>
      <trkpt lat="43.4543775580823421478271484375" lon="-3.6495931260287761688232421875">
        <ele>65.40000152587890625</ele>
        <time>2018-09-05T08:11:26.000Z</time>
      </trkpt>
      <trkpt lat="43.45456891693174839019775390625" lon="-3.64983938634395599365234375">
        <ele>64</ele>
        <time>2018-09-05T08:11:29.000Z</time>
      </trkpt>
      <trkpt lat="43.4547128342092037200927734375" lon="-3.6499998159706592559814453125">
        <ele>63</ele>
        <time>2018-09-05T08:11:31.000Z</time>
      </trkpt>
      <trkpt lat="43.45485708676278591156005859375" lon="-3.6501698009669780731201171875">
        <ele>61.40000152587890625</ele>
        <time>2018-09-05T08:11:33.000Z</time>
      </trkpt>
      <trkpt lat="43.45499404706060886383056640625" lon="-3.65035177208483219146728515625">
        <ele>60</ele>
        <time>2018-09-05T08:11:35.000Z</time>
      </trkpt>
      <trkpt lat="43.45512530766427516937255859375" lon="-3.65054891444742679595947265625">
        <ele>58.799999237060546875</ele>
        <time>2018-09-05T08:11:37.000Z</time>
      </trkpt>
      <trkpt lat="43.45526092685759067535400390625" lon="-3.6507521755993366241455078125">
        <ele>57.799999237060546875</ele>
        <time>2018-09-05T08:11:39.000Z</time>
      </trkpt>
      <trkpt lat="43.45540090464055538177490234375" lon="-3.65094244480133056640625">
        <ele>57.40000152587890625</ele>
        <time>2018-09-05T08:11:41.000Z</time>
      </trkpt>
      <trkpt lat="43.45555479638278484344482421875" lon="-3.65110295824706554412841796875">
        <ele>56.59999847412109375</ele>
        <time>2018-09-05T08:11:43.000Z</time>
      </trkpt>
      <trkpt lat="43.45563693903386592864990234375" lon="-3.651180826127529144287109375">
        <ele>55.59999847412109375</ele>
        <time>2018-09-05T08:11:44.000Z</time>
      </trkpt>
      <trkpt lat="43.45571924932301044464111328125" lon="-3.65125693380832672119140625">
        <ele>54.59999847412109375</ele>
        <time>2018-09-05T08:11:45.000Z</time>
      </trkpt>
      <trkpt lat="43.45579971559345722198486328125" lon="-3.6513328738510608673095703125">
        <ele>54.200000762939453125</ele>
        <time>2018-09-05T08:11:46.000Z</time>
      </trkpt>
      <trkpt lat="43.45595058985054492950439453125" lon="-3.65151308476924896240234375">
        <ele>53.59999847412109375</ele>
        <time>2018-09-05T08:11:48.000Z</time>
      </trkpt>
      <trkpt lat="43.456024266779422760009765625" lon="-3.65161039866507053375244140625">
        <ele>53.200000762939453125</ele>
        <time>2018-09-05T08:11:49.000Z</time>
      </trkpt>
      <trkpt lat="43.4560976922512054443359375" lon="-3.65171022713184356689453125">
        <ele>52.40000152587890625</ele>
        <time>2018-09-05T08:11:50.000Z</time>
      </trkpt>
      <trkpt lat="43.4561679325997829437255859375" lon="-3.65181491710245609283447265625">
        <ele>52</ele>
        <time>2018-09-05T08:11:51.000Z</time>
      </trkpt>
      <trkpt lat="43.4563644044101238250732421875" lon="-3.65207475610077381134033203125">
        <ele>51.59999847412109375</ele>
        <time>2018-09-05T08:11:54.000Z</time>
      </trkpt>
      <trkpt lat="43.4564946591854095458984375" lon="-3.6522223614156246185302734375">
        <ele>52.799999237060546875</ele>
        <time>2018-09-05T08:11:56.000Z</time>
      </trkpt>
      <trkpt lat="43.45655643381178379058837890625" lon="-3.65228732116520404815673828125">
        <ele>53.200000762939453125</ele>
        <time>2018-09-05T08:11:57.000Z</time>
      </trkpt>
      <trkpt lat="43.45661493949592113494873046875" lon="-3.6523487605154514312744140625">
        <ele>53.59999847412109375</ele>
        <time>2018-09-05T08:11:58.000Z</time>
      </trkpt>
      <trkpt lat="43.45666891895234584808349609375" lon="-3.65240802057087421417236328125">
        <ele>54</ele>
        <time>2018-09-05T08:11:59.000Z</time>
      </trkpt>
      <trkpt lat="43.456722311675548553466796875" lon="-3.6524580605328083038330078125">
        <ele>54.59999847412109375</ele>
        <time>2018-09-05T08:12:00.000Z</time>
      </trkpt>
      <trkpt lat="43.45682750456035137176513671875" lon="-3.6525356769561767578125">
        <ele>55.59999847412109375</ele>
        <time>2018-09-05T08:12:02.000Z</time>
      </trkpt>
      <trkpt lat="43.45687863416969776153564453125" lon="-3.65255688317120075225830078125">
        <ele>56</ele>
        <time>2018-09-05T08:12:03.000Z</time>
      </trkpt>
      <trkpt lat="43.45697988756000995635986328125" lon="-3.65256543271243572235107421875">
        <ele>56.40000152587890625</ele>
        <time>2018-09-05T08:12:05.000Z</time>
      </trkpt>
      <trkpt lat="43.4570698253810405731201171875" lon="-3.652558140456676483154296875">
        <ele>57</ele>
        <time>2018-09-05T08:12:07.000Z</time>
      </trkpt>
      <trkpt lat="43.4571113996207714080810546875" lon="-3.65255168639123439788818359375">
        <ele>57.200000762939453125</ele>
        <time>2018-09-05T08:12:08.000Z</time>
      </trkpt>
      <trkpt lat="43.45723972655832767486572265625" lon="-3.652548082172870635986328125">
        <ele>57.799999237060546875</ele>
        <time>2018-09-05T08:12:11.000Z</time>
      </trkpt>
      <trkpt lat="43.45728280954062938690185546875" lon="-3.65256392396986484527587890625">
        <ele>58</ele>
        <time>2018-09-05T08:12:12.000Z</time>
      </trkpt>
      <trkpt lat="43.45732421614229679107666015625" lon="-3.65258756093680858612060546875">
        <ele>58</ele>
        <time>2018-09-05T08:12:13.000Z</time>
      </trkpt>
      <trkpt lat="43.45745229162275791168212890625" lon="-3.6527484096586704254150390625">
        <ele>58</ele>
        <time>2018-09-05T08:12:17.000Z</time>
      </trkpt>
      <trkpt lat="43.4574879147112369537353515625" lon="-3.6528664268553256988525390625">
        <ele>58</ele>
        <time>2018-09-05T08:12:19.000Z</time>
      </trkpt>
      <trkpt lat="43.45755924470722675323486328125" lon="-3.65304973907768726348876953125">
        <ele>57.59999847412109375</ele>
        <time>2018-09-05T08:12:22.000Z</time>
      </trkpt>
      <trkpt lat="43.4576944448053836822509765625" lon="-3.65337965078651905059814453125">
        <ele>57.799999237060546875</ele>
        <time>2018-09-05T08:12:27.000Z</time>
      </trkpt>
      <trkpt lat="43.4578087739646434783935546875" lon="-3.653594814240932464599609375">
        <ele>57.200000762939453125</ele>
        <time>2018-09-05T08:12:30.000Z</time>
      </trkpt>
      <trkpt lat="43.45791564323008060455322265625" lon="-3.653690032660961151123046875">
        <ele>57.40000152587890625</ele>
        <time>2018-09-05T08:12:32.000Z</time>
      </trkpt>
      <trkpt lat="43.4580277092754840850830078125" lon="-3.65375331602990627288818359375">
        <ele>57.40000152587890625</ele>
        <time>2018-09-05T08:12:34.000Z</time>
      </trkpt>
      <trkpt lat="43.458142541348934173583984375" lon="-3.65382992662489414215087890625">
        <ele>57.200000762939453125</ele>
        <time>2018-09-05T08:12:36.000Z</time>
      </trkpt>
      <trkpt lat="43.4581943415105342864990234375" lon="-3.65388273261487483978271484375">
        <ele>57.200000762939453125</ele>
        <time>2018-09-05T08:12:37.000Z</time>
      </trkpt>
      <trkpt lat="43.45832669176161289215087890625" lon="-3.65408088080585002899169921875">
        <ele>57</ele>
        <time>2018-09-05T08:12:40.000Z</time>
      </trkpt>
      <trkpt lat="43.45836793072521686553955078125" lon="-3.65415363572537899017333984375">
        <ele>57</ele>
        <time>2018-09-05T08:12:41.000Z</time>
      </trkpt>
      <trkpt lat="43.45840414054691791534423828125" lon="-3.65423795767128467559814453125">
        <ele>57</ele>
        <time>2018-09-05T08:12:42.000Z</time>
      </trkpt>
      <trkpt lat="43.4585250914096832275390625" lon="-3.65447130985558032989501953125">
        <ele>56.799999237060546875</ele>
        <time>2018-09-05T08:12:45.000Z</time>
      </trkpt>
      <trkpt lat="43.45871762372553348541259765625" lon="-3.65457616746425628662109375">
        <ele>56.59999847412109375</ele>
        <time>2018-09-05T08:12:48.000Z</time>
      </trkpt>
      <trkpt lat="43.45878534950315952301025390625" lon="-3.654610700905323028564453125">
        <ele>56.59999847412109375</ele>
        <time>2018-09-05T08:12:49.000Z</time>
      </trkpt>
      <trkpt lat="43.45913328230381011962890625" lon="-3.65479870699346065521240234375">
        <ele>56.40000152587890625</ele>
        <time>2018-09-05T08:12:54.000Z</time>
      </trkpt>
      <trkpt lat="43.45919237472116947174072265625" lon="-3.6548495851457118988037109375">
        <ele>56.200000762939453125</ele>
        <time>2018-09-05T08:12:55.000Z</time>
      </trkpt>
      <trkpt lat="43.459423296153545379638671875" lon="-3.65504211746156215667724609375">
        <ele>56.200000762939453125</ele>
        <time>2018-09-05T08:12:59.000Z</time>
      </trkpt>
      <trkpt lat="43.45960476435720920562744140625" lon="-3.65515820682048797607421875">
        <ele>56</ele>
        <time>2018-09-05T08:13:02.000Z</time>
      </trkpt>
      <trkpt lat="43.45973619259893894195556640625" lon="-3.65520724095404148101806640625">
        <ele>56</ele>
        <time>2018-09-05T08:13:04.000Z</time>
      </trkpt>
      <trkpt lat="43.4600579738616943359375" lon="-3.6553908884525299072265625">
        <ele>55.799999237060546875</ele>
        <time>2018-09-05T08:13:09.000Z</time>
      </trkpt>
      <trkpt lat="43.46011606045067310333251953125" lon="-3.65544461645185947418212890625">
        <ele>55.799999237060546875</ele>
        <time>2018-09-05T08:13:10.000Z</time>
      </trkpt>
      <trkpt lat="43.46022787503898143768310546875" lon="-3.6555476300418376922607421875">
        <ele>55.40000152587890625</ele>
        <time>2018-09-05T08:13:12.000Z</time>
      </trkpt>
      <trkpt lat="43.4602918289601802825927734375" lon="-3.65557285957038402557373046875">
        <ele>55.40000152587890625</ele>
        <time>2018-09-05T08:13:13.000Z</time>
      </trkpt>
      <trkpt lat="43.46055896021425724029541015625" lon="-3.65556498058140277862548828125">
        <ele>55.59999847412109375</ele>
        <time>2018-09-05T08:13:17.000Z</time>
      </trkpt>
      <trkpt lat="43.460764400660991668701171875" lon="-3.6555741168558597564697265625">
        <ele>55.40000152587890625</ele>
        <time>2018-09-05T08:13:20.000Z</time>
      </trkpt>
      <trkpt lat="43.4608312882483005523681640625" lon="-3.6556103266775608062744140625">
        <ele>55.200000762939453125</ele>
        <time>2018-09-05T08:13:21.000Z</time>
      </trkpt>
      <trkpt lat="43.4610056318342685699462890625" lon="-3.65579900331795215606689453125">
        <ele>54.799999237060546875</ele>
        <time>2018-09-05T08:13:24.000Z</time>
      </trkpt>
      <trkpt lat="43.46106715500354766845703125" lon="-3.655875027179718017578125">
        <ele>54.799999237060546875</ele>
        <time>2018-09-05T08:13:25.000Z</time>
      </trkpt>
      <trkpt lat="43.46136043779551982879638671875" lon="-3.6562786996364593505859375">
        <ele>53.59999847412109375</ele>
        <time>2018-09-05T08:13:30.000Z</time>
      </trkpt>
      <trkpt lat="43.4615397267043590545654296875" lon="-3.65654432214796543121337890625">
        <ele>52.200000762939453125</ele>
        <time>2018-09-05T08:13:33.000Z</time>
      </trkpt>
      <trkpt lat="43.4617410600185394287109375" lon="-3.656814806163311004638671875">
        <ele>51.200000762939453125</ele>
        <time>2018-09-05T08:13:36.000Z</time>
      </trkpt>
      <trkpt lat="43.46188598312437534332275390625" lon="-3.6569836176931858062744140625">
        <ele>50</ele>
        <time>2018-09-05T08:13:38.000Z</time>
      </trkpt>
      <trkpt lat="43.46202562563121318817138671875" lon="-3.65716089494526386260986328125">
        <ele>48.799999237060546875</ele>
        <time>2018-09-05T08:13:40.000Z</time>
      </trkpt>
      <trkpt lat="43.462141044437885284423828125" lon="-3.65736843086779117584228515625">
        <ele>48</ele>
        <time>2018-09-05T08:13:42.000Z</time>
      </trkpt>
      <trkpt lat="43.4621921740472316741943359375" lon="-3.65747831761837005615234375">
        <ele>47.40000152587890625</ele>
        <time>2018-09-05T08:13:43.000Z</time>
      </trkpt>
      <trkpt lat="43.46232335083186626434326171875" lon="-3.65782440640032291412353515625">
        <ele>46.200000762939453125</ele>
        <time>2018-09-05T08:13:46.000Z</time>
      </trkpt>
      <trkpt lat="43.46237045712769031524658203125" lon="-3.6579388193786144256591796875">
        <ele>46</ele>
        <time>2018-09-05T08:13:47.000Z</time>
      </trkpt>
      <trkpt lat="43.46252837218344211578369140625" lon="-3.65827468223869800567626953125">
        <ele>45.200000762939453125</ele>
        <time>2018-09-05T08:13:50.000Z</time>
      </trkpt>
      <trkpt lat="43.4625901468098163604736328125" lon="-3.65836705081164836883544921875">
        <ele>44.59999847412109375</ele>
        <time>2018-09-05T08:13:51.000Z</time>
      </trkpt>
      <trkpt lat="43.462667763233184814453125" lon="-3.6584351956844329833984375">
        <ele>44</ele>
        <time>2018-09-05T08:13:52.000Z</time>
      </trkpt>
      <trkpt lat="43.46293640322983264923095703125" lon="-3.6585081182420253753662109375">
        <ele>42.799999237060546875</ele>
        <time>2018-09-05T08:13:55.000Z</time>
      </trkpt>
      <trkpt lat="43.4630290232598781585693359375" lon="-3.6585004068911075592041015625">
        <ele>41.799999237060546875</ele>
        <time>2018-09-05T08:13:56.000Z</time>
      </trkpt>
      <trkpt lat="43.46312482841312885284423828125" lon="-3.65850568749010562896728515625">
        <ele>41.40000152587890625</ele>
        <time>2018-09-05T08:13:57.000Z</time>
      </trkpt>
      <trkpt lat="43.4632171131670475006103515625" lon="-3.6585419811308383941650390625">
        <ele>40.799999237060546875</ele>
        <time>2018-09-05T08:13:58.000Z</time>
      </trkpt>
      <trkpt lat="43.4633019380271434783935546875" lon="-3.65861431695520877838134765625">
        <ele>40</ele>
        <time>2018-09-05T08:13:59.000Z</time>
      </trkpt>
      <trkpt lat="43.463431186974048614501953125" lon="-3.6588135547935962677001953125">
        <ele>39</ele>
        <time>2018-09-05T08:14:01.000Z</time>
      </trkpt>
      <trkpt lat="43.46349581144750118255615234375" lon="-3.65891824476420879364013671875">
        <ele>38.59999847412109375</ele>
        <time>2018-09-05T08:14:02.000Z</time>
      </trkpt>
      <trkpt lat="43.46356152556836605072021484375" lon="-3.65902218036353588104248046875">
        <ele>38</ele>
        <time>2018-09-05T08:14:03.000Z</time>
      </trkpt>
      <trkpt lat="43.46369697712361812591552734375" lon="-3.6592242680490016937255859375">
        <ele>37</ele>
        <time>2018-09-05T08:14:05.000Z</time>
      </trkpt>
      <trkpt lat="43.4638343565165996551513671875" lon="-3.65942568518221378326416015625">
        <ele>35.799999237060546875</ele>
        <time>2018-09-05T08:14:07.000Z</time>
      </trkpt>
      <trkpt lat="43.46390719525516033172607421875" lon="-3.65952626802027225494384765625">
        <ele>35.40000152587890625</ele>
        <time>2018-09-05T08:14:08.000Z</time>
      </trkpt>
      <trkpt lat="43.46398808062076568603515625" lon="-3.65961528383195400238037109375">
        <ele>34.799999237060546875</ele>
        <time>2018-09-05T08:14:09.000Z</time>
      </trkpt>
      <trkpt lat="43.46407785080373287200927734375" lon="-3.65969189442694187164306640625">
        <ele>34.200000762939453125</ele>
        <time>2018-09-05T08:14:10.000Z</time>
      </trkpt>
      <trkpt lat="43.4642806090414524078369140625" lon="-3.6597865261137485504150390625">
        <ele>32.799999237060546875</ele>
        <time>2018-09-05T08:14:12.000Z</time>
      </trkpt>
      <trkpt lat="43.4643857181072235107421875" lon="-3.65982684306800365447998046875">
        <ele>32</ele>
        <time>2018-09-05T08:14:13.000Z</time>
      </trkpt>
      <trkpt lat="43.4644925035536289215087890625" lon="-3.659868501126766204833984375">
        <ele>31.200000762939453125</ele>
        <time>2018-09-05T08:14:14.000Z</time>
      </trkpt>
      <trkpt lat="43.46470682881772518157958984375" lon="-3.6599645577371120452880859375">
        <ele>29.3999996185302734375</ele>
        <time>2018-09-05T08:14:16.000Z</time>
      </trkpt>
      <trkpt lat="43.4649288654327392578125" lon="-3.660059608519077301025390625">
        <ele>27.799999237060546875</ele>
        <time>2018-09-05T08:14:18.000Z</time>
      </trkpt>
      <trkpt lat="43.465035818517208099365234375" lon="-3.66011501289904117584228515625">
        <ele>27</ele>
        <time>2018-09-05T08:14:19.000Z</time>
      </trkpt>
      <trkpt lat="43.465131707489490509033203125" lon="-3.6601774580776691436767578125">
        <ele>25.200000762939453125</ele>
        <time>2018-09-05T08:14:20.000Z</time>
      </trkpt>
      <trkpt lat="43.4652220644056797027587890625" lon="-3.66025549359619617462158203125">
        <ele>24.200000762939453125</ele>
        <time>2018-09-05T08:14:21.000Z</time>
      </trkpt>
      <trkpt lat="43.4653030335903167724609375" lon="-3.66035322658717632293701171875">
        <ele>23.3999996185302734375</ele>
        <time>2018-09-05T08:14:22.000Z</time>
      </trkpt>
      <trkpt lat="43.4654336236417293548583984375" lon="-3.66059177555143833160400390625">
        <ele>21.6000003814697265625</ele>
        <time>2018-09-05T08:14:24.000Z</time>
      </trkpt>
      <trkpt lat="43.46549740992486476898193359375" lon="-3.660722784698009490966796875">
        <ele>21</ele>
        <time>2018-09-05T08:14:25.000Z</time>
      </trkpt>
      <trkpt lat="43.46555985510349273681640625" lon="-3.660855554044246673583984375">
        <ele>20.200000762939453125</ele>
        <time>2018-09-05T08:14:26.000Z</time>
      </trkpt>
      <trkpt lat="43.465674854815006256103515625" lon="-3.66108161397278308868408203125">
        <ele>18.6000003814697265625</ele>
        <time>2018-09-05T08:14:28.000Z</time>
      </trkpt>
      <trkpt lat="43.46580804325640201568603515625" lon="-3.6612697876989841461181640625">
        <ele>17</ele>
        <time>2018-09-05T08:14:30.000Z</time>
      </trkpt>
      <trkpt lat="43.46596755087375640869140625" lon="-3.66140012629330158233642578125">
        <ele>15.6000003814697265625</ele>
        <time>2018-09-05T08:14:32.000Z</time>
      </trkpt>
      <trkpt lat="43.466053716838359832763671875" lon="-3.66145242936909198760986328125">
        <ele>14.80000019073486328125</ele>
        <time>2018-09-05T08:14:33.000Z</time>
      </trkpt>
      <trkpt lat="43.4661410562694072723388671875" lon="-3.66150875575840473175048828125">
        <ele>14.19999980926513671875</ele>
        <time>2018-09-05T08:14:34.000Z</time>
      </trkpt>
      <trkpt lat="43.46631816588342189788818359375" lon="-3.6616194806993007659912109375">
        <ele>13</ele>
        <time>2018-09-05T08:14:36.000Z</time>
      </trkpt>
      <trkpt lat="43.46650457940995693206787109375" lon="-3.66173624061048030853271484375">
        <ele>11.6000003814697265625</ele>
        <time>2018-09-05T08:14:38.000Z</time>
      </trkpt>
      <trkpt lat="43.46668780781328678131103515625" lon="-3.66185375489294528961181640625">
        <ele>10.6000003814697265625</ele>
        <time>2018-09-05T08:14:40.000Z</time>
      </trkpt>
      <trkpt lat="43.46695720218122005462646484375" lon="-3.66202005185186862945556640625">
        <ele>10</ele>
        <time>2018-09-05T08:14:43.000Z</time>
      </trkpt>
      <trkpt lat="43.46719474531710147857666015625" lon="-3.6621964909136295318603515625">
        <ele>9.3999996185302734375</ele>
        <time>2018-09-05T08:14:46.000Z</time>
      </trkpt>
      <trkpt lat="43.4672642312943935394287109375" lon="-3.66226262412965297698974609375">
        <ele>9.3999996185302734375</ele>
        <time>2018-09-05T08:14:47.000Z</time>
      </trkpt>
      <trkpt lat="43.4674536623060703277587890625" lon="-3.66247854195535182952880859375">
        <ele>8.3999996185302734375</ele>
        <time>2018-09-05T08:14:50.000Z</time>
      </trkpt>
      <trkpt lat="43.46756891347467899322509765625" lon="-3.66260142065584659576416015625">
        <ele>7.400000095367431640625</ele>
        <time>2018-09-05T08:14:52.000Z</time>
      </trkpt>
      <trkpt lat="43.4676283411681652069091796875" lon="-3.6626484431326389312744140625">
        <ele>6.80000019073486328125</ele>
        <time>2018-09-05T08:14:53.000Z</time>
      </trkpt>
      <trkpt lat="43.467686176300048828125" lon="-3.662676773965358734130859375">
        <ele>6</ele>
        <time>2018-09-05T08:14:54.000Z</time>
      </trkpt>
      <trkpt lat="43.4677721746265888214111328125" lon="-3.66270652972161769866943359375">
        <ele>5.599999904632568359375</ele>
        <time>2018-09-05T08:14:56.000Z</time>
      </trkpt>
      <trkpt lat="43.467805199325084686279296875" lon="-3.66273008286952972412109375">
        <ele>5.599999904632568359375</ele>
        <time>2018-09-05T08:14:58.000Z</time>
      </trkpt>
      <trkpt lat="43.467811234295368194580078125" lon="-3.66274156607687473297119140625">
        <ele>5.599999904632568359375</ele>
        <time>2018-09-05T08:14:59.000Z</time>
      </trkpt>
      <trkpt lat="43.4678261540830135345458984375" lon="-3.66278246976435184478759765625">
        <ele>5.599999904632568359375</ele>
        <time>2018-09-05T08:15:02.000Z</time>
      </trkpt>
      <trkpt lat="43.46785842441022396087646484375" lon="-3.662834353744983673095703125">
        <ele>5.599999904632568359375</ele>
        <time>2018-09-05T08:15:04.000Z</time>
      </trkpt>
      <trkpt lat="43.4678744338452816009521484375" lon="-3.6630363576114177703857421875">
        <ele>5.19999980926513671875</ele>
        <time>2018-09-05T08:15:08.000Z</time>
      </trkpt>
      <trkpt lat="43.4678657166659832000732421875" lon="-3.66309461183845996856689453125">
        <ele>5</ele>
        <time>2018-09-05T08:15:09.000Z</time>
      </trkpt>
      <trkpt lat="43.46783679910004138946533203125" lon="-3.66322436369955539703369140625">
        <ele>5</ele>
        <time>2018-09-05T08:15:11.000Z</time>
      </trkpt>
      <trkpt lat="43.46780125983059406280517578125" lon="-3.6633516848087310791015625">
        <ele>5</ele>
        <time>2018-09-05T08:15:13.000Z</time>
      </trkpt>
      <trkpt lat="43.4676875174045562744140625" lon="-3.663767091929912567138671875">
        <ele>4.19999980926513671875</ele>
        <time>2018-09-05T08:15:19.000Z</time>
      </trkpt>
      <trkpt lat="43.46766673028469085693359375" lon="-3.6638440378010272979736328125">
        <ele>3.7999999523162841796875</ele>
        <time>2018-09-05T08:15:20.000Z</time>
      </trkpt>
      <trkpt lat="43.46760998480021953582763671875" lon="-3.6640975065529346466064453125">
        <ele>3.400000095367431640625</ele>
        <time>2018-09-05T08:15:23.000Z</time>
      </trkpt>
      <trkpt lat="43.4675750322639942169189453125" lon="-3.66427478380501270294189453125">
        <ele>2.599999904632568359375</ele>
        <time>2018-09-05T08:15:25.000Z</time>
      </trkpt>
      <trkpt lat="43.4675549156963825225830078125" lon="-3.6643663980066776275634765625">
        <ele>2.2000000476837158203125</ele>
        <time>2018-09-05T08:15:26.000Z</time>
      </trkpt>
      <trkpt lat="43.46750454045832157135009765625" lon="-3.66465347819030284881591796875">
        <ele>1.60000002384185791015625</ele>
        <time>2018-09-05T08:15:29.000Z</time>
      </trkpt>
      <trkpt lat="43.46742776222527027130126953125" lon="-3.665053211152553558349609375">
        <ele>0.4000000059604644775390625</ele>
        <time>2018-09-05T08:15:33.000Z</time>
      </trkpt>
      <trkpt lat="43.46735467202961444854736328125" lon="-3.66546937264502048492431640625">
        <ele>-0.60000002384185791015625</ele>
        <time>2018-09-05T08:15:37.000Z</time>
      </trkpt>
      <trkpt lat="43.467327095568180084228515625" lon="-3.665576912462711334228515625">
        <ele>-0.800000011920928955078125</ele>
        <time>2018-09-05T08:15:38.000Z</time>
      </trkpt>
      <trkpt lat="43.46728107891976833343505859375" lon="-3.66578671149909496307373046875">
        <ele>-1.2000000476837158203125</ele>
        <time>2018-09-05T08:15:40.000Z</time>
      </trkpt>
      <trkpt lat="43.46715040504932403564453125" lon="-3.6664226464927196502685546875">
        <ele>-1.7999999523162841796875</ele>
        <time>2018-09-05T08:15:46.000Z</time>
      </trkpt>
      <trkpt lat="43.46706231124699115753173828125" lon="-3.66683562286198139190673828125">
        <ele>-2.400000095367431640625</ele>
        <time>2018-09-05T08:15:50.000Z</time>
      </trkpt>
      <trkpt lat="43.46696021966636180877685546875" lon="-3.6672330088913440704345703125">
        <ele>-2.400000095367431640625</ele>
        <time>2018-09-05T08:15:54.000Z</time>
      </trkpt>
      <trkpt lat="43.46685578115284442901611328125" lon="-3.66761178709566593170166015625">
        <ele>-3.7999999523162841796875</ele>
        <time>2018-09-05T08:15:58.000Z</time>
      </trkpt>
      <trkpt lat="43.46682979725301265716552734375" lon="-3.667701892554759979248046875">
        <ele>-3.7999999523162841796875</ele>
        <time>2018-09-05T08:15:59.000Z</time>
      </trkpt>
      <trkpt lat="43.46678160130977630615234375" lon="-3.66788604296743869781494140625">
        <ele>-2.400000095367431640625</ele>
        <time>2018-09-05T08:16:01.000Z</time>
      </trkpt>
      <trkpt lat="43.4666372649371623992919921875" lon="-3.6684104986488819122314453125">
        <ele>-1.7999999523162841796875</ele>
        <time>2018-09-05T08:16:07.000Z</time>
      </trkpt>
      <trkpt lat="43.4665323235094547271728515625" lon="-3.66877703927457332611083984375">
        <ele>-1</ele>
        <time>2018-09-05T08:16:12.000Z</time>
      </trkpt>
      <trkpt lat="43.46652117557823657989501953125" lon="-3.6688426695764064788818359375">
        <ele>-1</ele>
        <time>2018-09-05T08:16:13.000Z</time>
      </trkpt>
      <trkpt lat="43.4665859676897525787353515625" lon="-3.6690629459917545318603515625">
        <ele>-1.2000000476837158203125</ele>
        <time>2018-09-05T08:16:17.000Z</time>
      </trkpt>
      <trkpt lat="43.4666870534420013427734375" lon="-3.6691212840378284454345703125">
        <ele>-1</ele>
        <time>2018-09-05T08:16:19.000Z</time>
      </trkpt>
      <trkpt lat="43.46674027852714061737060546875" lon="-3.66915187798440456390380859375">
        <ele>-1.39999997615814208984375</ele>
        <time>2018-09-05T08:16:20.000Z</time>
      </trkpt>
      <trkpt lat="43.466797359287738800048828125" lon="-3.66917987354099750518798828125">
        <ele>-1.2000000476837158203125</ele>
        <time>2018-09-05T08:16:21.000Z</time>
      </trkpt>
      <trkpt lat="43.46690892241895198822021484375" lon="-3.669229410588741302490234375">
        <ele>-1.39999997615814208984375</ele>
        <time>2018-09-05T08:16:23.000Z</time>
      </trkpt>
      <trkpt lat="43.46717814914882183074951171875" lon="-3.66936829872429370880126953125">
        <ele>-1.2000000476837158203125</ele>
        <time>2018-09-05T08:16:28.000Z</time>
      </trkpt>
      <trkpt lat="43.46752013079822063446044921875" lon="-3.66958052851259708404541015625">
        <ele>-0.60000002384185791015625</ele>
        <time>2018-09-05T08:16:35.000Z</time>
      </trkpt>
      <trkpt lat="43.4678030200302600860595703125" lon="-3.66973106749355792999267578125">
        <ele>-0.60000002384185791015625</ele>
        <time>2018-09-05T08:16:41.000Z</time>
      </trkpt>
      <trkpt lat="43.46785507164895534515380859375" lon="-3.66973626427352428436279296875">
        <ele>-0.60000002384185791015625</ele>
        <time>2018-09-05T08:16:42.000Z</time>
      </trkpt>
      <trkpt lat="43.46819621510803699493408203125" lon="-3.6698119528591632843017578125">
        <ele>-1</ele>
        <time>2018-09-05T08:16:49.000Z</time>
      </trkpt>
      <trkpt lat="43.46846359781920909881591796875" lon="-3.6699034832417964935302734375">
        <ele>-1.7999999523162841796875</ele>
        <time>2018-09-05T08:16:54.000Z</time>
      </trkpt>
      <trkpt lat="43.4685136377811431884765625" lon="-3.6698940955102443695068359375">
        <ele>-1.7999999523162841796875</ele>
        <time>2018-09-05T08:16:55.000Z</time>
      </trkpt>
      <trkpt lat="43.4685972891747951507568359375" lon="-3.66985310800373554229736328125">
        <ele>-1.7999999523162841796875</ele>
        <time>2018-09-05T08:16:57.000Z</time>
      </trkpt>
      <trkpt lat="43.4686402045190334320068359375" lon="-3.66982628591358661651611328125">
        <ele>-2.2000000476837158203125</ele>
        <time>2018-09-05T08:16:58.000Z</time>
      </trkpt>
      <trkpt lat="43.46868194639682769775390625" lon="-3.6697931773960590362548828125">
        <ele>-2.7999999523162841796875</ele>
        <time>2018-09-05T08:16:59.000Z</time>
      </trkpt>
      <trkpt lat="43.46876400522887706756591796875" lon="-3.66967457346618175506591796875">
        <ele>-3.2000000476837158203125</ele>
        <time>2018-09-05T08:17:01.000Z</time>
      </trkpt>
      <trkpt lat="43.46880055032670497894287109375" lon="-3.6696181632578372955322265625">
        <ele>-3.599999904632568359375</ele>
        <time>2018-09-05T08:17:02.000Z</time>
      </trkpt>
      <trkpt lat="43.468829803168773651123046875" lon="-3.66956393234431743621826171875">
        <ele>-4.599999904632568359375</ele>
        <time>2018-09-05T08:17:03.000Z</time>
      </trkpt>
      <trkpt lat="43.4689275361597537994384765625" lon="-3.66939269006252288818359375">
        <ele>-4.80000019073486328125</ele>
        <time>2018-09-05T08:17:06.000Z</time>
      </trkpt>
      <trkpt lat="43.46896014176309108734130859375" lon="-3.66933443583548069000244140625">
        <ele>-5.599999904632568359375</ele>
        <time>2018-09-05T08:17:07.000Z</time>
      </trkpt>
      <trkpt lat="43.46904396079480648040771484375" lon="-3.6691933684051036834716796875">
        <ele>-6.599999904632568359375</ele>
        <time>2018-09-05T08:17:11.000Z</time>
      </trkpt>
      <trkpt lat="43.4690643288195133209228515625" lon="-3.66919211111962795257568359375">
        <ele>-6.599999904632568359375</ele>
        <time>2018-09-05T08:17:12.000Z</time>
      </trkpt>
      <trkpt lat="43.469088971614837646484375" lon="-3.6692069470882415771484375">
        <ele>-6.599999904632568359375</ele>
        <time>2018-09-05T08:17:14.000Z</time>
      </trkpt>
      <trkpt lat="43.46907950006425380706787109375" lon="-3.66923578083515167236328125">
        <ele>-6.599999904632568359375</ele>
        <time>2018-09-05T08:17:16.000Z</time>
      </trkpt>
      <trkpt lat="43.46903054974973201751708984375" lon="-3.66929168812930583953857421875">
        <ele>-6.599999904632568359375</ele>
        <time>2018-09-05T08:17:18.000Z</time>
      </trkpt>
      <trkpt lat="43.46895863302052021026611328125" lon="-3.6694203503429889678955078125">
        <ele>-6.19999980926513671875</ele>
        <time>2018-09-05T08:17:21.000Z</time>
      </trkpt>
      <trkpt lat="43.4689194895327091217041015625" lon="-3.6694991402328014373779296875">
        <ele>-6</ele>
        <time>2018-09-05T08:17:23.000Z</time>
      </trkpt>
      <trkpt lat="43.46882267855107784271240234375" lon="-3.66968228481709957122802734375">
        <ele>-4.80000019073486328125</ele>
        <time>2018-09-05T08:17:28.000Z</time>
      </trkpt>
      <trkpt lat="43.46880801022052764892578125" lon="-3.6697100289165973663330078125">
        <ele>-4.599999904632568359375</ele>
        <time>2018-09-05T08:17:29.000Z</time>
      </trkpt>
      <trkpt lat="43.468772135674953460693359375" lon="-3.6697633378207683563232421875">
        <ele>-4.19999980926513671875</ele>
        <time>2018-09-05T08:17:31.000Z</time>
      </trkpt>
      <trkpt lat="43.46873064525425434112548828125" lon="-3.66981756873428821563720703125">
        <ele>-3.2000000476837158203125</ele>
        <time>2018-09-05T08:17:33.000Z</time>
      </trkpt>
      <trkpt lat="43.468668200075626373291015625" lon="-3.66989820264279842376708984375">
        <ele>-2.7999999523162841796875</ele>
        <time>2018-09-05T08:17:36.000Z</time>
      </trkpt>
      <trkpt lat="43.4686666913330554962158203125" lon="-3.669932819902896881103515625">
        <ele>-2.400000095367431640625</ele>
        <time>2018-09-05T08:17:37.000Z</time>
      </trkpt>
      <trkpt lat="43.468666858971118927001953125" lon="-3.669970370829105377197265625">
        <ele>-2.2000000476837158203125</ele>
        <time>2018-09-05T08:17:38.000Z</time>
      </trkpt>
      <trkpt lat="43.46866895444691181182861328125" lon="-3.6700503341853618621826171875">
        <ele>-1.60000002384185791015625</ele>
        <time>2018-09-05T08:17:40.000Z</time>
      </trkpt>
      <trkpt lat="43.4686794318258762359619140625" lon="-3.6701200716197490692138671875">
        <ele>-1</ele>
        <time>2018-09-05T08:17:42.000Z</time>
      </trkpt>
      <trkpt lat="43.46869627945125102996826171875" lon="-3.67018586955964565277099609375">
        <ele>-0.60000002384185791015625</ele>
        <time>2018-09-05T08:17:44.000Z</time>
      </trkpt>
      <trkpt lat="43.46871539019048213958740234375" lon="-3.6702474765479564666748046875">
        <ele>-0.20000000298023223876953125</ele>
        <time>2018-09-05T08:17:46.000Z</time>
      </trkpt>
      <trkpt lat="43.4687448106706142425537109375" lon="-3.67029986344277858734130859375">
        <ele>0</ele>
        <time>2018-09-05T08:17:48.000Z</time>
      </trkpt>
      <trkpt lat="43.46877045929431915283203125" lon="-3.67035065777599811553955078125">
        <ele>0.20000000298023223876953125</ele>
        <time>2018-09-05T08:17:50.000Z</time>
      </trkpt>
      <trkpt lat="43.468784205615520477294921875" lon="-3.67037613876163959503173828125">
        <ele>0.4000000059604644775390625</ele>
        <time>2018-09-05T08:17:51.000Z</time>
      </trkpt>
      <trkpt lat="43.46883223392069339752197265625" lon="-3.67044545710086822509765625">
        <ele>1</ele>
        <time>2018-09-05T08:17:54.000Z</time>
      </trkpt>
      <trkpt lat="43.46891169436275959014892578125" lon="-3.67056758143007755279541015625">
        <ele>2.400000095367431640625</ele>
        <time>2018-09-05T08:17:59.000Z</time>
      </trkpt>
      <trkpt lat="43.46895796246826648712158203125" lon="-3.6706464551389217376708984375">
        <ele>3</ele>
        <time>2018-09-05T08:18:02.000Z</time>
      </trkpt>
      <trkpt lat="43.469003476202487945556640625" lon="-3.67072382010519504547119140625">
        <ele>3.599999904632568359375</ele>
        <time>2018-09-05T08:18:05.000Z</time>
      </trkpt>
      <trkpt lat="43.4690742194652557373046875" lon="-3.67081400938332080841064453125">
        <ele>4.400000095367431640625</ele>
        <time>2018-09-05T08:18:09.000Z</time>
      </trkpt>
      <trkpt lat="43.46908905543386936187744140625" lon="-3.670838065445423126220703125">
        <ele>4.599999904632568359375</ele>
        <time>2018-09-05T08:18:10.000Z</time>
      </trkpt>
      <trkpt lat="43.46917874179780483245849609375" lon="-3.6709706671535968780517578125">
        <ele>5.80000019073486328125</ele>
        <time>2018-09-05T08:18:16.000Z</time>
      </trkpt>
      <trkpt lat="43.46924914978444576263427734375" lon="-3.6711064539849758148193359375">
        <ele>7</ele>
        <time>2018-09-05T08:18:21.000Z</time>
      </trkpt>
      <trkpt lat="43.46926440484821796417236328125" lon="-3.6711359582841396331787109375">
        <ele>7.19999980926513671875</ele>
        <time>2018-09-05T08:18:22.000Z</time>
      </trkpt>
      <trkpt lat="43.46933213062584400177001953125" lon="-3.67130870930850505828857421875">
        <ele>8</ele>
        <time>2018-09-05T08:18:27.000Z</time>
      </trkpt>
      <trkpt lat="43.46935174427926540374755859375" lon="-3.6713790334761142730712890625">
        <ele>8.19999980926513671875</ele>
        <time>2018-09-05T08:18:29.000Z</time>
      </trkpt>
      <trkpt lat="43.46941418945789337158203125" lon="-3.671554885804653167724609375">
        <ele>9</ele>
        <time>2018-09-05T08:18:34.000Z</time>
      </trkpt>
      <trkpt lat="43.46943028271198272705078125" lon="-3.67159268818795680999755859375">
        <ele>9.19999980926513671875</ele>
        <time>2018-09-05T08:18:35.000Z</time>
      </trkpt>
      <trkpt lat="43.46950613893568515777587890625" lon="-3.671834170818328857421875">
        <ele>9.6000003814697265625</ele>
        <time>2018-09-05T08:18:41.000Z</time>
      </trkpt>
      <trkpt lat="43.4695141017436981201171875" lon="-3.6718784272670745849609375">
        <ele>9.6000003814697265625</ele>
        <time>2018-09-05T08:18:42.000Z</time>
      </trkpt>
      <trkpt lat="43.46956171095371246337890625" lon="-3.672049753367900848388671875">
        <ele>10.19999980926513671875</ele>
        <time>2018-09-05T08:18:46.000Z</time>
      </trkpt>
      <trkpt lat="43.4696041233837604522705078125" lon="-3.672179169952869415283203125">
        <ele>10.6000003814697265625</ele>
        <time>2018-09-05T08:18:49.000Z</time>
      </trkpt>
      <trkpt lat="43.46965751610696315765380859375" lon="-3.67235091514885425567626953125">
        <ele>10.80000019073486328125</ele>
        <time>2018-09-05T08:18:53.000Z</time>
      </trkpt>
      <trkpt lat="43.46971048973500728607177734375" lon="-3.67251687683165073394775390625">
        <ele>11</ele>
        <time>2018-09-05T08:18:57.000Z</time>
      </trkpt>
      <trkpt lat="43.46972239203751087188720703125" lon="-3.67255367338657379150390625">
        <ele>11.19999980926513671875</ele>
        <time>2018-09-05T08:18:58.000Z</time>
      </trkpt>
      <trkpt lat="43.46973999403417110443115234375" lon="-3.67259130813181400299072265625">
        <ele>11.3999996185302734375</ele>
        <time>2018-09-05T08:18:59.000Z</time>
      </trkpt>
      <trkpt lat="43.46986454911530017852783203125" lon="-3.67269373498857021331787109375">
        <ele>11.6000003814697265625</ele>
        <time>2018-09-05T08:19:03.000Z</time>
      </trkpt>
      <trkpt lat="43.47001089714467525482177734375" lon="-3.67278677411377429962158203125">
        <ele>10.19999980926513671875</ele>
        <time>2018-09-05T08:19:07.000Z</time>
      </trkpt>
      <trkpt lat="43.47008650191128253936767578125" lon="-3.67283857427537441253662109375">
        <ele>11.6000003814697265625</ele>
        <time>2018-09-05T08:19:09.000Z</time>
      </trkpt>
      <trkpt lat="43.470169566571712493896484375" lon="-3.6728850938379764556884765625">
        <ele>11.19999980926513671875</ele>
        <time>2018-09-05T08:19:11.000Z</time>
      </trkpt>
      <trkpt lat="43.4702517092227935791015625" lon="-3.67293211631476879119873046875">
        <ele>11.3999996185302734375</ele>
        <time>2018-09-05T08:19:13.000Z</time>
      </trkpt>
      <trkpt lat="43.47034164704382419586181640625" lon="-3.672960363328456878662109375">
        <ele>11.3999996185302734375</ele>
        <time>2018-09-05T08:19:15.000Z</time>
      </trkpt>
      <trkpt lat="43.47038791514933109283447265625" lon="-3.67296782322227954864501953125">
        <ele>11.3999996185302734375</ele>
        <time>2018-09-05T08:19:16.000Z</time>
      </trkpt>
      <trkpt lat="43.470482043921947479248046875" lon="-3.67298324592411518096923828125">
        <ele>11.6000003814697265625</ele>
        <time>2018-09-05T08:19:18.000Z</time>
      </trkpt>
      <trkpt lat="43.47052906639873981475830078125" lon="-3.67299162782728672027587890625">
        <ele>11.6000003814697265625</ele>
        <time>2018-09-05T08:19:19.000Z</time>
      </trkpt>
      <trkpt lat="43.4707145579159259796142578125" lon="-3.6730165220797061920166015625">
        <ele>11</ele>
        <time>2018-09-05T08:19:23.000Z</time>
      </trkpt>
      <trkpt lat="43.4710136242210865020751953125" lon="-3.67295466363430023193359375">
        <ele>11</ele>
        <time>2018-09-05T08:19:29.000Z</time>
      </trkpt>
      <trkpt lat="43.471046648919582366943359375" lon="-3.6729420907795429229736328125">
        <ele>11</ele>
        <time>2018-09-05T08:19:31.000Z</time>
      </trkpt>
      <trkpt lat="43.47106131725013256072998046875" lon="-3.6729320324957370758056640625">
        <ele>10.80000019073486328125</ele>
        <time>2018-09-05T08:19:32.000Z</time>
      </trkpt>
      <trkpt lat="43.47107187844812870025634765625" lon="-3.67291585542261600494384765625">
        <ele>10.80000019073486328125</ele>
        <time>2018-09-05T08:19:33.000Z</time>
      </trkpt>
      <trkpt lat="43.4711001254618167877197265625" lon="-3.6729816533625125885009765625">
        <ele>10.3999996185302734375</ele>
        <time>2018-09-05T08:19:36.000Z</time>
      </trkpt>
      <trkpt lat="43.471022509038448333740234375" lon="-3.6729665659368038177490234375">
        <ele>10.6000003814697265625</ele>
        <time>2018-09-05T08:19:39.000Z</time>
      </trkpt>
      <trkpt lat="43.4709918312728404998779296875" lon="-3.67292893119156360626220703125">
        <ele>10.80000019073486328125</ele>
        <time>2018-09-05T08:19:41.000Z</time>
      </trkpt>
      <trkpt lat="43.4709898196160793304443359375" lon="-3.6729555018246173858642578125">
        <ele>10.80000019073486328125</ele>
        <time>2018-09-05T08:20:49.000Z</time>
      </trkpt>
      <trkpt lat="43.4710055775940418243408203125" lon="-3.67295742966234683990478515625">
        <ele>10.80000019073486328125</ele>
        <time>2018-09-05T08:20:50.000Z</time>
      </trkpt>
      <trkpt lat="43.4710290469229221343994140625" lon="-3.67295759730041027069091796875">
        <ele>10.80000019073486328125</ele>
        <time>2018-09-05T08:20:51.000Z</time>
      </trkpt>
      <trkpt lat="43.47106031142175197601318359375" lon="-3.672961704432964324951171875">
        <ele>10.6000003814697265625</ele>
        <time>2018-09-05T08:20:52.000Z</time>
      </trkpt>
      <trkpt lat="43.4711346589028835296630859375" lon="-3.67297436110675334930419921875">
        <ele>10.3999996185302734375</ele>
        <time>2018-09-05T08:20:54.000Z</time>
      </trkpt>
      <trkpt lat="43.47117564640939235687255859375" lon="-3.67297268472611904144287109375">
        <ele>10.3999996185302734375</ele>
        <time>2018-09-05T08:20:55.000Z</time>
      </trkpt>
      <trkpt lat="43.47126063890755176544189453125" lon="-3.6729742772877216339111328125">
        <ele>10.19999980926513671875</ele>
        <time>2018-09-05T08:20:57.000Z</time>
      </trkpt>
      <trkpt lat="43.4713847748935222625732421875" lon="-3.6729712598025798797607421875">
        <ele>9.6000003814697265625</ele>
        <time>2018-09-05T08:21:00.000Z</time>
      </trkpt>
      <trkpt lat="43.47143179737031459808349609375" lon="-3.67297000251710414886474609375">
        <ele>9.3999996185302734375</ele>
        <time>2018-09-05T08:21:01.000Z</time>
      </trkpt>
      <trkpt lat="43.471483848989009857177734375" lon="-3.67296664975583553314208984375">
        <ele>9.19999980926513671875</ele>
        <time>2018-09-05T08:21:02.000Z</time>
      </trkpt>
      <trkpt lat="43.471651487052440643310546875" lon="-3.67297033779323101043701171875">
        <ele>9</ele>
        <time>2018-09-05T08:21:05.000Z</time>
      </trkpt>
      <trkpt lat="43.47192364744842052459716796875" lon="-3.67296463809907436370849609375">
        <ele>8.3999996185302734375</ele>
        <time>2018-09-05T08:21:10.000Z</time>
      </trkpt>
      <trkpt lat="43.47197494469583034515380859375" lon="-3.67295105941593647003173828125">
        <ele>8.3999996185302734375</ele>
        <time>2018-09-05T08:21:11.000Z</time>
      </trkpt>
      <trkpt lat="43.47202666103839874267578125" lon="-3.672940246760845184326171875">
        <ele>8.19999980926513671875</ele>
        <time>2018-09-05T08:21:12.000Z</time>
      </trkpt>
      <trkpt lat="43.47245388664305210113525390625" lon="-3.67283999919891357421875">
        <ele>8.19999980926513671875</ele>
        <time>2018-09-05T08:21:20.000Z</time>
      </trkpt>
      <trkpt lat="43.4726289846003055572509765625" lon="-3.67280186153948307037353515625">
        <ele>7.19999980926513671875</ele>
        <time>2018-09-05T08:21:23.000Z</time>
      </trkpt>
      <trkpt lat="43.47275580279529094696044921875" lon="-3.672779314219951629638671875">
        <ele>7</ele>
        <time>2018-09-05T08:21:25.000Z</time>
      </trkpt>
      <trkpt lat="43.47281967289745807647705078125" lon="-3.6727670766413211822509765625">
        <ele>7</ele>
        <time>2018-09-05T08:21:26.000Z</time>
      </trkpt>
      <trkpt lat="43.4732857905328273773193359375" lon="-3.67268367670476436614990234375">
        <ele>6</ele>
        <time>2018-09-05T08:21:33.000Z</time>
      </trkpt>
      <trkpt lat="43.473355360329151153564453125" lon="-3.67267495952546596527099609375">
        <ele>5.80000019073486328125</ele>
        <time>2018-09-05T08:21:34.000Z</time>
      </trkpt>
      <trkpt lat="43.47342384047806262969970703125" lon="-3.6726607941091060638427734375">
        <ele>5.599999904632568359375</ele>
        <time>2018-09-05T08:21:35.000Z</time>
      </trkpt>
      <trkpt lat="43.4737841784954071044921875" lon="-3.67262617684900760650634765625">
        <ele>5</ele>
        <time>2018-09-05T08:21:40.000Z</time>
      </trkpt>
      <trkpt lat="43.47385634668171405792236328125" lon="-3.67262165062129497528076171875">
        <ele>4.599999904632568359375</ele>
        <time>2018-09-05T08:21:41.000Z</time>
      </trkpt>
      <trkpt lat="43.47429354675114154815673828125" lon="-3.67269205860793590545654296875">
        <ele>4</ele>
        <time>2018-09-05T08:21:47.000Z</time>
      </trkpt>
      <trkpt lat="43.47436948679387569427490234375" lon="-3.67270798422396183013916015625">
        <ele>3.7999999523162841796875</ele>
        <time>2018-09-05T08:21:48.000Z</time>
      </trkpt>
      <trkpt lat="43.47481976263225078582763671875" lon="-3.6728173680603504180908203125">
        <ele>2.7999999523162841796875</ele>
        <time>2018-09-05T08:21:54.000Z</time>
      </trkpt>
      <trkpt lat="43.4749621711671352386474609375" lon="-3.672883920371532440185546875">
        <ele>2.400000095367431640625</ele>
        <time>2018-09-05T08:21:56.000Z</time>
      </trkpt>
      <trkpt lat="43.47525897435843944549560546875" lon="-3.6730118282139301300048828125">
        <ele>1.7999999523162841796875</ele>
        <time>2018-09-05T08:22:00.000Z</time>
      </trkpt>
      <trkpt lat="43.47562878392636775970458984375" lon="-3.67315658368170261383056640625">
        <ele>0.60000002384185791015625</ele>
        <time>2018-09-05T08:22:05.000Z</time>
      </trkpt>
      <trkpt lat="43.475700952112674713134765625" lon="-3.673180975019931793212890625">
        <ele>0.60000002384185791015625</ele>
        <time>2018-09-05T08:22:06.000Z</time>
      </trkpt>
      <trkpt lat="43.476248122751712799072265625" lon="-3.67335489951074123382568359375">
        <ele>1</ele>
        <time>2018-09-05T08:22:14.000Z</time>
      </trkpt>
      <trkpt lat="43.47648046910762786865234375" lon="-3.67343184538185596466064453125">
        <ele>1.7999999523162841796875</ele>
        <time>2018-09-05T08:22:18.000Z</time>
      </trkpt>
      <trkpt lat="43.47670250572264194488525390625" lon="-3.673507869243621826171875">
        <ele>2.599999904632568359375</ele>
        <time>2018-09-05T08:22:22.000Z</time>
      </trkpt>
      <trkpt lat="43.47690836526453495025634765625" lon="-3.67357291281223297119140625">
        <ele>3</ele>
        <time>2018-09-05T08:22:26.000Z</time>
      </trkpt>
      <trkpt lat="43.4770479239523410797119140625" lon="-3.67360970936715602874755859375">
        <ele>3.599999904632568359375</ele>
        <time>2018-09-05T08:22:29.000Z</time>
      </trkpt>
      <trkpt lat="43.47713316790759563446044921875" lon="-3.67363192141056060791015625">
        <ele>4</ele>
        <time>2018-09-05T08:22:31.000Z</time>
      </trkpt>
      <trkpt lat="43.47728303633630275726318359375" lon="-3.6736736632883548736572265625">
        <ele>4.80000019073486328125</ele>
        <time>2018-09-05T08:22:35.000Z</time>
      </trkpt>
      <trkpt lat="43.477351181209087371826171875" lon="-3.67369637824594974517822265625">
        <ele>5.19999980926513671875</ele>
        <time>2018-09-05T08:22:37.000Z</time>
      </trkpt>
      <trkpt lat="43.47750901244580745697021484375" lon="-3.673744238913059234619140625">
        <ele>6.400000095367431640625</ele>
        <time>2018-09-05T08:22:42.000Z</time>
      </trkpt>
      <trkpt lat="43.47758461721241474151611328125" lon="-3.673773072659969329833984375">
        <ele>7.19999980926513671875</ele>
        <time>2018-09-05T08:22:45.000Z</time>
      </trkpt>
      <trkpt lat="43.477613031864166259765625" lon="-3.673777766525745391845703125">
        <ele>7.400000095367431640625</ele>
        <time>2018-09-05T08:22:46.000Z</time>
      </trkpt>
      <trkpt lat="43.47769525833427906036376953125" lon="-3.67380098439753055572509765625">
        <ele>8</ele>
        <time>2018-09-05T08:22:49.000Z</time>
      </trkpt>
      <trkpt lat="43.47777740098536014556884765625" lon="-3.6738215200603008270263671875">
        <ele>8.3999996185302734375</ele>
        <time>2018-09-05T08:22:52.000Z</time>
      </trkpt>
      <trkpt lat="43.47780506126582622528076171875" lon="-3.673826716840267181396484375">
        <ele>8.6000003814697265625</ele>
        <time>2018-09-05T08:22:53.000Z</time>
      </trkpt>
      <trkpt lat="43.4779397584497928619384765625" lon="-3.67380031384527683258056640625">
        <ele>9.6000003814697265625</ele>
        <time>2018-09-05T08:22:58.000Z</time>
      </trkpt>
      <trkpt lat="43.477964736521244049072265625" lon="-3.6737920157611370086669921875">
        <ele>9.80000019073486328125</ele>
        <time>2018-09-05T08:22:59.000Z</time>
      </trkpt>
      <trkpt lat="43.47805651836097240447998046875" lon="-3.6738238669931888580322265625">
        <ele>10.6000003814697265625</ele>
        <time>2018-09-05T08:23:03.000Z</time>
      </trkpt>
      <trkpt lat="43.47807294689118862152099609375" lon="-3.67383970879018306732177734375">
        <ele>10.80000019073486328125</ele>
        <time>2018-09-05T08:23:04.000Z</time>
      </trkpt>
      <trkpt lat="43.478114940226078033447265625" lon="-3.6738795228302478790283203125">
        <ele>11.80000019073486328125</ele>
        <time>2018-09-05T08:23:07.000Z</time>
      </trkpt>
      <trkpt lat="43.47815207205712795257568359375" lon="-3.67392621003091335296630859375">
        <ele>12.80000019073486328125</ele>
        <time>2018-09-05T08:23:10.000Z</time>
      </trkpt>
      <trkpt lat="43.47816531546413898468017578125" lon="-3.6739425547420978546142578125">
        <ele>13</ele>
        <time>2018-09-05T08:23:11.000Z</time>
      </trkpt>
      <trkpt lat="43.4781992621719837188720703125" lon="-3.67398999631404876708984375">
        <ele>13.80000019073486328125</ele>
        <time>2018-09-05T08:23:14.000Z</time>
      </trkpt>
      <trkpt lat="43.47824678756296634674072265625" lon="-3.67404204793274402618408203125">
        <ele>15</ele>
        <time>2018-09-05T08:23:18.000Z</time>
      </trkpt>
      <trkpt lat="43.4783028624951839447021484375" lon="-3.67409803904592990875244140625">
        <ele>16</ele>
        <time>2018-09-05T08:23:22.000Z</time>
      </trkpt>
      <trkpt lat="43.47837788052856922149658203125" lon="-3.674131147563457489013671875">
        <ele>17.200000762939453125</ele>
        <time>2018-09-05T08:23:26.000Z</time>
      </trkpt>
      <trkpt lat="43.47839548252522945404052734375" lon="-3.674135841429233551025390625">
        <ele>17.6000003814697265625</ele>
        <time>2018-09-05T08:23:27.000Z</time>
      </trkpt>
      <trkpt lat="43.4784493781626224517822265625" lon="-3.6741443909704685211181640625">
        <ele>18.200000762939453125</ele>
        <time>2018-09-05T08:23:30.000Z</time>
      </trkpt>
      <trkpt lat="43.4785228036344051361083984375" lon="-3.6741728894412517547607421875">
        <ele>19.200000762939453125</ele>
        <time>2018-09-05T08:23:34.000Z</time>
      </trkpt>
      <trkpt lat="43.478540070354938507080078125" lon="-3.67417699657380580902099609375">
        <ele>19.200000762939453125</ele>
        <time>2018-09-05T08:23:35.000Z</time>
      </trkpt>
      <trkpt lat="43.478603102266788482666015625" lon="-3.67422628216445446014404296875">
        <ele>19.6000003814697265625</ele>
        <time>2018-09-05T08:23:40.000Z</time>
      </trkpt>
      <trkpt lat="43.47867912612855434417724609375" lon="-3.67431596852838993072509765625">
        <ele>20.200000762939453125</ele>
        <time>2018-09-05T08:23:47.000Z</time>
      </trkpt>
      <trkpt lat="43.47870443947613239288330078125" lon="-3.67435419000685214996337890625">
        <ele>20.200000762939453125</ele>
        <time>2018-09-05T08:23:50.000Z</time>
      </trkpt>
      <trkpt lat="43.47871097736060619354248046875" lon="-3.674367181956768035888671875">
        <ele>20.3999996185302734375</ele>
        <time>2018-09-05T08:23:51.000Z</time>
      </trkpt>
      <trkpt lat="43.47873578779399394989013671875" lon="-3.67438838817179203033447265625">
        <ele>20.6000003814697265625</ele>
        <time>2018-09-05T08:23:53.000Z</time>
      </trkpt>
      <trkpt lat="43.47874425351619720458984375" lon="-3.6744082532823085784912109375">
        <ele>20.799999237060546875</ele>
        <time>2018-09-05T08:23:54.000Z</time>
      </trkpt>
      <trkpt lat="43.478782810270786285400390625" lon="-3.67446474730968475341796875">
        <ele>21</ele>
        <time>2018-09-05T08:23:57.000Z</time>
      </trkpt>
      <trkpt lat="43.4787923656404018402099609375" lon="-3.67448352277278900146484375">
        <ele>21.200000762939453125</ele>
        <time>2018-09-05T08:23:58.000Z</time>
      </trkpt>
      <trkpt lat="43.47882128320634365081787109375" lon="-3.67452509701251983642578125">
        <ele>21</ele>
        <time>2018-09-05T08:24:01.000Z</time>
      </trkpt>
      <trkpt lat="43.47885145805776119232177734375" lon="-3.6745847761631011962890625">
        <ele>21</ele>
        <time>2018-09-05T08:24:04.000Z</time>
      </trkpt>
      <trkpt lat="43.47890443168580532073974609375" lon="-3.67468980140984058380126953125">
        <ele>20.799999237060546875</ele>
        <time>2018-09-05T08:24:08.000Z</time>
      </trkpt>
      <trkpt lat="43.4789566509425640106201171875" lon="-3.67479725740849971771240234375">
        <ele>19.6000003814697265625</ele>
        <time>2018-09-05T08:24:13.000Z</time>
      </trkpt>
      <trkpt lat="43.4789945371448993682861328125" lon="-3.6748545058071613311767578125">
        <ele>19</ele>
        <time>2018-09-05T08:24:17.000Z</time>
      </trkpt>
      <trkpt lat="43.47900769673287868499755859375" lon="-3.67487705312669277191162109375">
        <ele>18.799999237060546875</ele>
        <time>2018-09-05T08:24:18.000Z</time>
      </trkpt>
      <trkpt lat="43.47901775501668453216552734375" lon="-3.67490706034004688262939453125">
        <ele>18.6000003814697265625</ele>
        <time>2018-09-05T08:24:19.000Z</time>
      </trkpt>
      <trkpt lat="43.4790243767201900482177734375" lon="-3.67494729347527027130126953125">
        <ele>18.3999996185302734375</ele>
        <time>2018-09-05T08:24:20.000Z</time>
      </trkpt>
      <trkpt lat="43.47901088185608386993408203125" lon="-3.67503027431666851043701171875">
        <ele>18</ele>
        <time>2018-09-05T08:24:22.000Z</time>
      </trkpt>
      <trkpt lat="43.47900166176259517669677734375" lon="-3.6750756204128265380859375">
        <ele>17.799999237060546875</ele>
        <time>2018-09-05T08:24:23.000Z</time>
      </trkpt>
      <trkpt lat="43.47895639948546886444091796875" lon="-3.675262033939361572265625">
        <ele>16.799999237060546875</ele>
        <time>2018-09-05T08:24:27.000Z</time>
      </trkpt>
      <trkpt lat="43.478945754468441009521484375" lon="-3.67536219768226146697998046875">
        <ele>16.200000762939453125</ele>
        <time>2018-09-05T08:24:29.000Z</time>
      </trkpt>
      <trkpt lat="43.47893980331718921661376953125" lon="-3.67541299201548099517822265625">
        <ele>15.80000019073486328125</ele>
        <time>2018-09-05T08:24:30.000Z</time>
      </trkpt>
      <trkpt lat="43.47888783551752567291259765625" lon="-3.67563025094568729400634765625">
        <ele>14.3999996185302734375</ele>
        <time>2018-09-05T08:24:34.000Z</time>
      </trkpt>
      <trkpt lat="43.47886562347412109375" lon="-3.675729744136333465576171875">
        <ele>14</ele>
        <time>2018-09-05T08:24:36.000Z</time>
      </trkpt>
      <trkpt lat="43.47887274809181690216064453125" lon="-3.67588740773499011993408203125">
        <ele>13.80000019073486328125</ele>
        <time>2018-09-05T08:24:39.000Z</time>
      </trkpt>
      <trkpt lat="43.47888196818530559539794921875" lon="-3.6759330891072750091552734375">
        <ele>13.6000003814697265625</ele>
        <time>2018-09-05T08:24:40.000Z</time>
      </trkpt>
      <trkpt lat="43.4788879193365573883056640625" lon="-3.675973825156688690185546875">
        <ele>13.3999996185302734375</ele>
        <time>2018-09-05T08:24:41.000Z</time>
      </trkpt>
      <trkpt lat="43.4789512865245342254638671875" lon="-3.67617356590926647186279296875">
        <ele>13.6000003814697265625</ele>
        <time>2018-09-05T08:24:46.000Z</time>
      </trkpt>
      <trkpt lat="43.47898975946009159088134765625" lon="-3.67631681263446807861328125">
        <ele>14</ele>
        <time>2018-09-05T08:24:50.000Z</time>
      </trkpt>
      <trkpt lat="43.47899579443037509918212890625" lon="-3.67641949094831943511962890625">
        <ele>14</ele>
        <time>2018-09-05T08:24:53.000Z</time>
      </trkpt>
      <trkpt lat="43.47897651605308055877685546875" lon="-3.6765776574611663818359375">
        <ele>13.6000003814697265625</ele>
        <time>2018-09-05T08:24:59.000Z</time>
      </trkpt>
      <trkpt lat="43.478954471647739410400390625" lon="-3.67669676430523395538330078125">
        <ele>12.3999996185302734375</ele>
        <time>2018-09-05T08:25:05.000Z</time>
      </trkpt>
      <trkpt lat="43.478916250169277191162109375" lon="-3.67682240903377532958984375">
        <ele>10.3999996185302734375</ele>
        <time>2018-09-05T08:27:14.000Z</time>
      </trkpt>
      <trkpt lat="43.47889604978263378143310546875" lon="-3.67685836739838123321533203125">
        <ele>10</ele>
        <time>2018-09-05T08:27:15.000Z</time>
      </trkpt>
      <trkpt lat="43.47888104617595672607421875" lon="-3.6768973432481288909912109375">
        <ele>9.3999996185302734375</ele>
        <time>2018-09-05T08:27:16.000Z</time>
      </trkpt>
      <trkpt lat="43.4788134880363941192626953125" lon="-3.67697034962475299835205078125">
        <ele>7.599999904632568359375</ele>
        <time>2018-09-05T08:27:18.000Z</time>
      </trkpt>
      <trkpt lat="43.4787387214601039886474609375" lon="-3.67700940929353237152099609375">
        <ele>6.19999980926513671875</ele>
        <time>2018-09-05T08:27:20.000Z</time>
      </trkpt>
      <trkpt lat="43.478672169148921966552734375" lon="-3.677060790359973907470703125">
        <ele>4.80000019073486328125</ele>
        <time>2018-09-05T08:27:22.000Z</time>
      </trkpt>
      <trkpt lat="43.47862263210117816925048828125" lon="-3.67714553140103816986083984375">
        <ele>3.2000000476837158203125</ele>
        <time>2018-09-05T08:27:24.000Z</time>
      </trkpt>
      <trkpt lat="43.47858726046979427337646484375" lon="-3.67718090303242206573486328125">
        <ele>2</ele>
        <time>2018-09-05T08:27:25.000Z</time>
      </trkpt>
      <trkpt lat="43.4785248152911663055419921875" lon="-3.677262626588344573974609375">
        <ele>0.20000000298023223876953125</ele>
        <time>2018-09-05T08:27:27.000Z</time>
      </trkpt>
      <trkpt lat="43.47848139703273773193359375" lon="-3.677321970462799072265625">
        <ele>-1.39999997615814208984375</ele>
        <time>2018-09-05T08:27:29.000Z</time>
      </trkpt>
      <trkpt lat="43.478444181382656097412109375" lon="-3.67741383612155914306640625">
        <ele>-3.2000000476837158203125</ele>
        <time>2018-09-05T08:27:31.000Z</time>
      </trkpt>
      <trkpt lat="43.47839497961103916168212890625" lon="-3.677552975714206695556640625">
        <ele>-5</ele>
        <time>2018-09-05T08:27:33.000Z</time>
      </trkpt>
      <trkpt lat="43.47830395214259624481201171875" lon="-3.6777013354003429412841796875">
        <ele>-6.599999904632568359375</ele>
        <time>2018-09-05T08:27:35.000Z</time>
      </trkpt>
      <trkpt lat="43.47826816141605377197265625" lon="-3.67778624407947063446044921875">
        <ele>-7.19999980926513671875</ele>
        <time>2018-09-05T08:27:36.000Z</time>
      </trkpt>
      <trkpt lat="43.4782420098781585693359375" lon="-3.6778615973889827728271484375">
        <ele>-7.19999980926513671875</ele>
        <time>2018-09-05T08:27:37.000Z</time>
      </trkpt>
      <trkpt lat="43.47829758189618587493896484375" lon="-3.678053878247737884521484375">
        <ele>-6.599999904632568359375</ele>
        <time>2018-09-05T08:27:40.000Z</time>
      </trkpt>
      <trkpt lat="43.47833446227014064788818359375" lon="-3.678078688681125640869140625">
        <ele>-6</ele>
        <time>2018-09-05T08:27:41.000Z</time>
      </trkpt>
      <trkpt lat="43.47836363129317760467529296875" lon="-3.67809377610683441162109375">
        <ele>-5.19999980926513671875</ele>
        <time>2018-09-05T08:27:42.000Z</time>
      </trkpt>
      <trkpt lat="43.47838894464075565338134765625" lon="-3.6781127192080020904541015625">
        <ele>-4.599999904632568359375</ele>
        <time>2018-09-05T08:27:43.000Z</time>
      </trkpt>
      <trkpt lat="43.47840889357030391693115234375" lon="-3.67813325487077236175537109375">
        <ele>-4</ele>
        <time>2018-09-05T08:27:44.000Z</time>
      </trkpt>
      <trkpt lat="43.47841610200703144073486328125" lon="-3.67816342972218990325927734375">
        <ele>-3.599999904632568359375</ele>
        <time>2018-09-05T08:27:45.000Z</time>
      </trkpt>
      <trkpt lat="43.4784074686467647552490234375" lon="-3.67821992374956607818603515625">
        <ele>-2.599999904632568359375</ele>
        <time>2018-09-05T08:27:47.000Z</time>
      </trkpt>
      <trkpt lat="43.47834049724042415618896484375" lon="-3.678294606506824493408203125">
        <ele>-1.39999997615814208984375</ele>
        <time>2018-09-05T08:27:50.000Z</time>
      </trkpt>
      <trkpt lat="43.47832314670085906982421875" lon="-3.67832872085273265838623046875">
        <ele>-1</ele>
        <time>2018-09-05T08:27:51.000Z</time>
      </trkpt>
      <trkpt lat="43.478308059275150299072265625" lon="-3.67836627177894115447998046875">
        <ele>-0.60000002384185791015625</ele>
        <time>2018-09-05T08:27:52.000Z</time>
      </trkpt>
      <trkpt lat="43.478301353752613067626953125" lon="-3.67840357124805450439453125">
        <ele>0</ele>
        <time>2018-09-05T08:27:53.000Z</time>
      </trkpt>
      <trkpt lat="43.47830160520970821380615234375" lon="-3.6784345842897891998291015625">
        <ele>0.4000000059604644775390625</ele>
        <time>2018-09-05T08:27:54.000Z</time>
      </trkpt>
      <trkpt lat="43.47829707898199558258056640625" lon="-3.67846651934087276458740234375">
        <ele>0.800000011920928955078125</ele>
        <time>2018-09-05T08:27:55.000Z</time>
      </trkpt>
      <trkpt lat="43.47829054109752178192138671875" lon="-3.67849702946841716766357421875">
        <ele>1.2000000476837158203125</ele>
        <time>2018-09-05T08:27:56.000Z</time>
      </trkpt>
      <trkpt lat="43.47828282974660396575927734375" lon="-3.6785341612994670867919921875">
        <ele>1.60000002384185791015625</ele>
        <time>2018-09-05T08:27:57.000Z</time>
      </trkpt>
      <trkpt lat="43.4782793931663036346435546875" lon="-3.6785717122256755828857421875">
        <ele>1.7999999523162841796875</ele>
        <time>2018-09-05T08:27:58.000Z</time>
      </trkpt>
      <trkpt lat="43.47828014753758907318115234375" lon="-3.6786357499659061431884765625">
        <ele>2.400000095367431640625</ele>
        <time>2018-09-05T08:28:00.000Z</time>
      </trkpt>
      <trkpt lat="43.47828014753758907318115234375" lon="-3.678663074970245361328125">
        <ele>2.7999999523162841796875</ele>
        <time>2018-09-05T08:28:01.000Z</time>
      </trkpt>
      <trkpt lat="43.4782757051289081573486328125" lon="-3.678715713322162628173828125">
        <ele>3</ele>
        <time>2018-09-05T08:28:03.000Z</time>
      </trkpt>
      <trkpt lat="43.47826656885445117950439453125" lon="-3.67877044714987277984619140625">
        <ele>3.400000095367431640625</ele>
        <time>2018-09-05T08:28:05.000Z</time>
      </trkpt>
      <trkpt lat="43.4782549180090427398681640625" lon="-3.678881339728832244873046875">
        <ele>4.599999904632568359375</ele>
        <time>2018-09-05T08:28:09.000Z</time>
      </trkpt>
      <trkpt lat="43.4782554209232330322265625" lon="-3.67904319427907466888427734375">
        <ele>5</ele>
        <time>2018-09-05T08:28:14.000Z</time>
      </trkpt>
      <trkpt lat="43.4781932272017002105712890625" lon="-3.67927101440727710723876953125">
        <ele>5.599999904632568359375</ele>
        <time>2018-09-05T08:28:21.000Z</time>
      </trkpt>
      <trkpt lat="43.4781754575669765472412109375" lon="-3.6792975850403308868408203125">
        <ele>5.599999904632568359375</ele>
        <time>2018-09-05T08:28:22.000Z</time>
      </trkpt>
      <trkpt lat="43.47805685363709926605224609375" lon="-3.6794422566890716552734375">
        <ele>5.80000019073486328125</ele>
        <time>2018-09-05T08:28:28.000Z</time>
      </trkpt>
      <trkpt lat="43.4779645688831806182861328125" lon="-3.6794932186603546142578125">
        <ele>6.599999904632568359375</ele>
        <time>2018-09-05T08:28:33.000Z</time>
      </trkpt>
      <trkpt lat="43.4779568575322628021240234375" lon="-3.67950587533414363861083984375">
        <ele>6.80000019073486328125</ele>
        <time>2018-09-05T08:28:34.000Z</time>
      </trkpt>
      <trkpt lat="43.47796507179737091064453125" lon="-3.67956588976085186004638671875">
        <ele>6.80000019073486328125</ele>
        <time>2018-09-05T08:28:36.000Z</time>
      </trkpt>
      <trkpt lat="43.47799298353493213653564453125" lon="-3.67964350618422031402587890625">
        <ele>6.400000095367431640625</ele>
        <time>2018-09-05T08:28:38.000Z</time>
      </trkpt>
      <trkpt lat="43.478025756776332855224609375" lon="-3.6797589249908924102783203125">
        <ele>5.599999904632568359375</ele>
        <time>2018-09-05T08:28:41.000Z</time>
      </trkpt>
      <trkpt lat="43.4780607931315898895263671875" lon="-3.6798015050590038299560546875">
        <ele>5.400000095367431640625</ele>
        <time>2018-09-05T08:28:43.000Z</time>
      </trkpt>
      <trkpt lat="43.4781171195209026336669921875" lon="-3.67982438765466213226318359375">
        <ele>4.80000019073486328125</ele>
        <time>2018-09-05T08:28:45.000Z</time>
      </trkpt>
      <trkpt lat="43.4781734459102153778076171875" lon="-3.67984391748905181884765625">
        <ele>4.599999904632568359375</ele>
        <time>2018-09-05T08:28:47.000Z</time>
      </trkpt>
      <trkpt lat="43.4782317839562892913818359375" lon="-3.6798732541501522064208984375">
        <ele>5</ele>
        <time>2018-09-05T08:28:51.000Z</time>
      </trkpt>
      <trkpt lat="43.4782331250607967376708984375" lon="-3.67987367324531078338623046875">
        <ele>5</ele>
        <time>2018-09-05T08:28:52.000Z</time>
      </trkpt>
      <trkpt lat="43.47820236347615718841552734375" lon="-3.6798507906496524810791015625">
        <ele>4.599999904632568359375</ele>
        <time>2018-09-05T08:31:20.000Z</time>
      </trkpt>
      <trkpt lat="43.4781937301158905029296875" lon="-3.6798393912613391876220703125">
        <ele>4.599999904632568359375</ele>
        <time>2018-09-05T08:31:21.000Z</time>
      </trkpt>
      <trkpt lat="43.47819096408784389495849609375" lon="-3.6798350326716899871826171875">
        <ele>4.80000019073486328125</ele>
        <time>2018-09-05T08:31:22.000Z</time>
      </trkpt>
      <trkpt lat="43.4781442768871784210205078125" lon="-3.67984182201325893402099609375">
        <ele>4.19999980926513671875</ele>
        <time>2018-09-05T08:33:33.000Z</time>
      </trkpt>
      <trkpt lat="43.47812826745212078094482421875" lon="-3.6798310093581676483154296875">
        <ele>4.19999980926513671875</ele>
        <time>2018-09-05T08:33:34.000Z</time>
      </trkpt>
      <trkpt lat="43.478078059852123260498046875" lon="-3.679818101227283477783203125">
        <ele>4.599999904632568359375</ele>
        <time>2018-09-05T08:33:37.000Z</time>
      </trkpt>
      <trkpt lat="43.47802584059536457061767578125" lon="-3.6797869205474853515625">
        <ele>4.599999904632568359375</ele>
        <time>2018-09-05T08:33:40.000Z</time>
      </trkpt>
      <trkpt lat="43.47799591720104217529296875" lon="-3.67974895052611827850341796875">
        <ele>5</ele>
        <time>2018-09-05T08:33:42.000Z</time>
      </trkpt>
      <trkpt lat="43.4779628925025463104248046875" lon="-3.67962406016886234283447265625">
        <ele>5.400000095367431640625</ele>
        <time>2018-09-05T08:33:46.000Z</time>
      </trkpt>
      <trkpt lat="43.4779561869800090789794921875" lon="-3.6795818991959095001220703125">
        <ele>5.599999904632568359375</ele>
        <time>2018-09-05T08:33:47.000Z</time>
      </trkpt>
      <trkpt lat="43.47793783061206340789794921875" lon="-3.67951895110309123992919921875">
        <ele>6</ele>
        <time>2018-09-05T08:33:49.000Z</time>
      </trkpt>
      <trkpt lat="43.47792685031890869140625" lon="-3.67950771935284137725830078125">
        <ele>6.19999980926513671875</ele>
        <time>2018-09-05T08:33:50.000Z</time>
      </trkpt>
      <trkpt lat="43.4779129363596439361572265625" lon="-3.67949782870709896087646484375">
        <ele>6.400000095367431640625</ele>
        <time>2018-09-05T08:33:51.000Z</time>
      </trkpt>
      <trkpt lat="43.47789290361106395721435546875" lon="-3.6795074678957462310791015625">
        <ele>6.80000019073486328125</ele>
        <time>2018-09-05T08:33:52.000Z</time>
      </trkpt>
      <trkpt lat="43.47784814424812793731689453125" lon="-3.6795389838516712188720703125">
        <ele>7.19999980926513671875</ele>
        <time>2018-09-05T08:33:54.000Z</time>
      </trkpt>
      <trkpt lat="43.477824591100215911865234375" lon="-3.67956052534282207489013671875">
        <ele>7.19999980926513671875</ele>
        <time>2018-09-05T08:33:55.000Z</time>
      </trkpt>
      <trkpt lat="43.47776516340672969818115234375" lon="-3.679608218371868133544921875">
        <ele>7.400000095367431640625</ele>
        <time>2018-09-05T08:33:57.000Z</time>
      </trkpt>
      <trkpt lat="43.47773180343210697174072265625" lon="-3.6796251498162746429443359375">
        <ele>7.599999904632568359375</ele>
        <time>2018-09-05T08:33:58.000Z</time>
      </trkpt>
      <trkpt lat="43.47766466438770294189453125" lon="-3.67965373210608959197998046875">
        <ele>7.400000095367431640625</ele>
        <time>2018-09-05T08:34:00.000Z</time>
      </trkpt>
      <trkpt lat="43.477630801498889923095703125" lon="-3.67967703379690647125244140625">
        <ele>7.400000095367431640625</ele>
        <time>2018-09-05T08:34:01.000Z</time>
      </trkpt>
      <trkpt lat="43.47736450843513011932373046875" lon="-3.67983260191977024078369140625">
        <ele>7.80000019073486328125</ele>
        <time>2018-09-05T08:34:09.000Z</time>
      </trkpt>
      <trkpt lat="43.47729577682912349700927734375" lon="-3.6798745952546596527099609375">
        <ele>8</ele>
        <time>2018-09-05T08:34:11.000Z</time>
      </trkpt>
      <trkpt lat="43.47705043852329254150390625" lon="-3.68008129298686981201171875">
        <ele>8.6000003814697265625</ele>
        <time>2018-09-05T08:34:19.000Z</time>
      </trkpt>
      <trkpt lat="43.47705303691327571868896484375" lon="-3.68013669736683368682861328125">
        <ele>8.3999996185302734375</ele>
        <time>2018-09-05T08:34:20.000Z</time>
      </trkpt>
      <trkpt lat="43.47709603607654571533203125" lon="-3.68023711256682872772216796875">
        <ele>8.6000003814697265625</ele>
        <time>2018-09-05T08:34:22.000Z</time>
      </trkpt>
      <trkpt lat="43.4771371074020862579345703125" lon="-3.6803282238543033599853515625">
        <ele>8.6000003814697265625</ele>
        <time>2018-09-05T08:34:24.000Z</time>
      </trkpt>
      <trkpt lat="43.4771991334855556488037109375" lon="-3.68046912364661693572998046875">
        <ele>9</ele>
        <time>2018-09-05T08:34:27.000Z</time>
      </trkpt>
      <trkpt lat="43.47725990228354930877685546875" lon="-3.68061178363859653472900390625">
        <ele>9.19999980926513671875</ele>
        <time>2018-09-05T08:34:30.000Z</time>
      </trkpt>
      <trkpt lat="43.47729644738137722015380859375" lon="-3.68070633150637149810791015625">
        <ele>9.19999980926513671875</ele>
        <time>2018-09-05T08:34:32.000Z</time>
      </trkpt>
      <trkpt lat="43.477345816791057586669921875" lon="-3.68084379471838474273681640625">
        <ele>9.6000003814697265625</ele>
        <time>2018-09-05T08:34:35.000Z</time>
      </trkpt>
      <trkpt lat="43.4773935936391353607177734375" lon="-3.6810255981981754302978515625">
        <ele>9.80000019073486328125</ele>
        <time>2018-09-05T08:34:39.000Z</time>
      </trkpt>
      <trkpt lat="43.4773818589746952056884765625" lon="-3.68107496760785579681396484375">
        <ele>10</ele>
        <time>2018-09-05T08:34:40.000Z</time>
      </trkpt>
      <trkpt lat="43.47733885981142520904541015625" lon="-3.68117026984691619873046875">
        <ele>9.80000019073486328125</ele>
        <time>2018-09-05T08:34:42.000Z</time>
      </trkpt>
      <trkpt lat="43.47722922451794147491455078125" lon="-3.6814326234161853790283203125">
        <ele>9.80000019073486328125</ele>
        <time>2018-09-05T08:34:47.000Z</time>
      </trkpt>
      <trkpt lat="43.4771986305713653564453125" lon="-3.6816042847931385040283203125">
        <ele>10</ele>
        <time>2018-09-05T08:34:50.000Z</time>
      </trkpt>
      <trkpt lat="43.4771578945219516754150390625" lon="-3.68184660561382770538330078125">
        <ele>11</ele>
        <time>2018-09-05T08:34:55.000Z</time>
      </trkpt>
      <trkpt lat="43.4771423041820526123046875" lon="-3.68193335831165313720703125">
        <ele>11.3999996185302734375</ele>
        <time>2018-09-05T08:34:57.000Z</time>
      </trkpt>
      <trkpt lat="43.47708639688789844512939453125" lon="-3.682196550071239471435546875">
        <ele>12.19999980926513671875</ele>
        <time>2018-09-05T08:35:03.000Z</time>
      </trkpt>
      <trkpt lat="43.477030657231807708740234375" lon="-3.682364188134670257568359375">
        <ele>12.80000019073486328125</ele>
        <time>2018-09-05T08:35:07.000Z</time>
      </trkpt>
      <trkpt lat="43.476974330842494964599609375" lon="-3.68246250785887241363525390625">
        <ele>13.3999996185302734375</ele>
        <time>2018-09-05T08:35:10.000Z</time>
      </trkpt>
      <trkpt lat="43.47691976465284824371337890625" lon="-3.6825497634708881378173828125">
        <ele>14.3999996185302734375</ele>
        <time>2018-09-05T08:35:13.000Z</time>
      </trkpt>
      <trkpt lat="43.47687064670026302337646484375" lon="-3.68259309791028499603271484375">
        <ele>14.6000003814697265625</ele>
        <time>2018-09-05T08:35:15.000Z</time>
      </trkpt>
      <trkpt lat="43.47676687873899936676025390625" lon="-3.6826865561306476593017578125">
        <ele>15.3999996185302734375</ele>
        <time>2018-09-05T08:35:19.000Z</time>
      </trkpt>
      <trkpt lat="43.476658500730991363525390625" lon="-3.68278571404516696929931640625">
        <ele>15.80000019073486328125</ele>
        <time>2018-09-05T08:35:23.000Z</time>
      </trkpt>
      <trkpt lat="43.47660250961780548095703125" lon="-3.6828297190368175506591796875">
        <ele>16.3999996185302734375</ele>
        <time>2018-09-05T08:35:25.000Z</time>
      </trkpt>
      <trkpt lat="43.47652179189026355743408203125" lon="-3.6829001270234584808349609375">
        <ele>16.6000003814697265625</ele>
        <time>2018-09-05T08:35:28.000Z</time>
      </trkpt>
      <trkpt lat="43.47647166810929775238037109375" lon="-3.6829537712037563323974609375">
        <ele>16.799999237060546875</ele>
        <time>2018-09-05T08:35:30.000Z</time>
      </trkpt>
      <trkpt lat="43.47639321349561214447021484375" lon="-3.68303448893129825592041015625">
        <ele>17.6000003814697265625</ele>
        <time>2018-09-05T08:35:33.000Z</time>
      </trkpt>
      <trkpt lat="43.47631190903484821319580078125" lon="-3.68312157690525054931640625">
        <ele>18</ele>
        <time>2018-09-05T08:35:36.000Z</time>
      </trkpt>
      <trkpt lat="43.47623747773468494415283203125" lon="-3.68324504233896732330322265625">
        <ele>19</ele>
        <time>2018-09-05T08:35:39.000Z</time>
      </trkpt>
      <trkpt lat="43.4762194566428661346435546875" lon="-3.6832977645099163055419921875">
        <ele>19</ele>
        <time>2018-09-05T08:35:40.000Z</time>
      </trkpt>
      <trkpt lat="43.476199842989444732666015625" lon="-3.68334797210991382598876953125">
        <ele>19</ele>
        <time>2018-09-05T08:35:41.000Z</time>
      </trkpt>
      <trkpt lat="43.47613739781081676483154296875" lon="-3.6835218966007232666015625">
        <ele>20</ele>
        <time>2018-09-05T08:35:45.000Z</time>
      </trkpt>
      <trkpt lat="43.476129435002803802490234375" lon="-3.68354461155831813812255859375">
        <ele>20.200000762939453125</ele>
        <time>2018-09-05T08:35:46.000Z</time>
      </trkpt>
      <trkpt lat="43.47610303200781345367431640625" lon="-3.683642260730266571044921875">
        <ele>20.799999237060546875</ele>
        <time>2018-09-05T08:35:50.000Z</time>
      </trkpt>
      <trkpt lat="43.47606916911900043487548828125" lon="-3.6837527342140674591064453125">
        <ele>21</ele>
        <time>2018-09-05T08:35:53.000Z</time>
      </trkpt>
      <trkpt lat="43.4760256670415401458740234375" lon="-3.68387117050588130950927734375">
        <ele>20.799999237060546875</ele>
        <time>2018-09-05T08:35:56.000Z</time>
      </trkpt>
      <trkpt lat="43.475902117788791656494140625" lon="-3.6841808818280696868896484375">
        <ele>21.200000762939453125</ele>
        <time>2018-09-05T08:36:03.000Z</time>
      </trkpt>
      <trkpt lat="43.47588158212602138519287109375" lon="-3.684224300086498260498046875">
        <ele>21.200000762939453125</ele>
        <time>2018-09-05T08:36:04.000Z</time>
      </trkpt>
      <trkpt lat="43.47569751553237438201904296875" lon="-3.68459855206310749053955078125">
        <ele>21.3999996185302734375</ele>
        <time>2018-09-05T08:36:12.000Z</time>
      </trkpt>
      <trkpt lat="43.4756377525627613067626953125" lon="-3.68475596420466899871826171875">
        <ele>21</ele>
        <time>2018-09-05T08:36:15.000Z</time>
      </trkpt>
      <trkpt lat="43.4755639918148517608642578125" lon="-3.68490901775658130645751953125">
        <ele>20.6000003814697265625</ele>
        <time>2018-09-05T08:36:18.000Z</time>
      </trkpt>
      <trkpt lat="43.47552518360316753387451171875" lon="-3.6850334890186786651611328125">
        <ele>20</ele>
        <time>2018-09-05T08:36:20.000Z</time>
      </trkpt>
      <trkpt lat="43.47550037316977977752685546875" lon="-3.6851595528423786163330078125">
        <ele>20.200000762939453125</ele>
        <time>2018-09-05T08:36:22.000Z</time>
      </trkpt>
      <trkpt lat="43.4754768200218677520751953125" lon="-3.6852197349071502685546875">
        <ele>20</ele>
        <time>2018-09-05T08:36:23.000Z</time>
      </trkpt>
      <trkpt lat="43.47545578144490718841552734375" lon="-3.68527933023869991302490234375">
        <ele>20</ele>
        <time>2018-09-05T08:36:24.000Z</time>
      </trkpt>
      <trkpt lat="43.4754147939383983612060546875" lon="-3.6854039691388607025146484375">
        <ele>19.6000003814697265625</ele>
        <time>2018-09-05T08:36:26.000Z</time>
      </trkpt>
      <trkpt lat="43.47537497989833354949951171875" lon="-3.68550916202366352081298828125">
        <ele>19.6000003814697265625</ele>
        <time>2018-09-05T08:36:28.000Z</time>
      </trkpt>
      <trkpt lat="43.47532804124057292938232421875" lon="-3.68561267852783203125">
        <ele>19.6000003814697265625</ele>
        <time>2018-09-05T08:36:30.000Z</time>
      </trkpt>
      <trkpt lat="43.47530457191169261932373046875" lon="-3.685661964118480682373046875">
        <ele>19.6000003814697265625</ele>
        <time>2018-09-05T08:36:31.000Z</time>
      </trkpt>
      <trkpt lat="43.47528244368731975555419921875" lon="-3.68571166880428791046142578125">
        <ele>19.6000003814697265625</ele>
        <time>2018-09-05T08:36:32.000Z</time>
      </trkpt>
      <trkpt lat="43.4751422144472599029541015625" lon="-3.685953654348850250244140625">
        <ele>19.3999996185302734375</ele>
        <time>2018-09-05T08:36:38.000Z</time>
      </trkpt>
      <trkpt lat="43.47495286725461483001708984375" lon="-3.6862247250974178314208984375">
        <ele>19.3999996185302734375</ele>
        <time>2018-09-05T08:36:45.000Z</time>
      </trkpt>
      <trkpt lat="43.4747998975217342376708984375" lon="-3.6864962987601757049560546875">
        <ele>19.200000762939453125</ele>
        <time>2018-09-05T08:36:51.000Z</time>
      </trkpt>
      <trkpt lat="43.47471029497683048248291015625" lon="-3.6867246218025684356689453125">
        <ele>19</ele>
        <time>2018-09-05T08:36:55.000Z</time>
      </trkpt>
      <trkpt lat="43.4746892563998699188232421875" lon="-3.68678279221057891845703125">
        <ele>18.799999237060546875</ele>
        <time>2018-09-05T08:36:56.000Z</time>
      </trkpt>
      <trkpt lat="43.47465078346431255340576171875" lon="-3.686901815235614776611328125">
        <ele>19</ele>
        <time>2018-09-05T08:36:58.000Z</time>
      </trkpt>
      <trkpt lat="43.47463770769536495208740234375" lon="-3.68696426041424274444580078125">
        <ele>18.799999237060546875</ele>
        <time>2018-09-05T08:36:59.000Z</time>
      </trkpt>
      <trkpt lat="43.47454701550304889678955078125" lon="-3.68741738609969615936279296875">
        <ele>19.6000003814697265625</ele>
        <time>2018-09-05T08:37:07.000Z</time>
      </trkpt>
      <trkpt lat="43.474518097937107086181640625" lon="-3.6875317990779876708984375">
        <ele>19.3999996185302734375</ele>
        <time>2018-09-05T08:37:09.000Z</time>
      </trkpt>
      <trkpt lat="43.47448130138218402862548828125" lon="-3.68764705024659633636474609375">
        <ele>19</ele>
        <time>2018-09-05T08:37:11.000Z</time>
      </trkpt>
      <trkpt lat="43.4744646213948726654052734375" lon="-3.68770957924425601959228515625">
        <ele>19</ele>
        <time>2018-09-05T08:37:12.000Z</time>
      </trkpt>
      <trkpt lat="43.47445028834044933319091796875" lon="-3.6877731978893280029296875">
        <ele>18.799999237060546875</ele>
        <time>2018-09-05T08:37:13.000Z</time>
      </trkpt>
      <trkpt lat="43.47441709600389003753662109375" lon="-3.68805876933038234710693359375">
        <ele>18.200000762939453125</ele>
        <time>2018-09-05T08:37:17.000Z</time>
      </trkpt>
      <trkpt lat="43.47439999692142009735107421875" lon="-3.68820763193070888519287109375">
        <ele>17.799999237060546875</ele>
        <time>2018-09-05T08:37:19.000Z</time>
      </trkpt>
      <trkpt lat="43.47437493503093719482421875" lon="-3.6884392239153385162353515625">
        <ele>17.200000762939453125</ele>
        <time>2018-09-05T08:37:22.000Z</time>
      </trkpt>
      <trkpt lat="43.47435724921524524688720703125" lon="-3.6885931156575679779052734375">
        <ele>16.799999237060546875</ele>
        <time>2018-09-05T08:37:24.000Z</time>
      </trkpt>
      <trkpt lat="43.47434752620756626129150390625" lon="-3.6886692233383655548095703125">
        <ele>16.6000003814697265625</ele>
        <time>2018-09-05T08:37:25.000Z</time>
      </trkpt>
      <trkpt lat="43.474342413246631622314453125" lon="-3.6887456662952899932861328125">
        <ele>16.3999996185302734375</ele>
        <time>2018-09-05T08:37:26.000Z</time>
      </trkpt>
      <trkpt lat="43.474338054656982421875" lon="-3.688893355429172515869140625">
        <ele>16.3999996185302734375</ele>
        <time>2018-09-05T08:37:28.000Z</time>
      </trkpt>
      <trkpt lat="43.47433093003928661346435546875" lon="-3.688962422311305999755859375">
        <ele>16.3999996185302734375</ele>
        <time>2018-09-05T08:37:29.000Z</time>
      </trkpt>
      <trkpt lat="43.4743251465260982513427734375" lon="-3.689103908836841583251953125">
        <ele>16.3999996185302734375</ele>
        <time>2018-09-05T08:37:31.000Z</time>
      </trkpt>
      <trkpt lat="43.47432120703160762786865234375" lon="-3.6891791783273220062255859375">
        <ele>16.3999996185302734375</ele>
        <time>2018-09-05T08:37:32.000Z</time>
      </trkpt>
      <trkpt lat="43.47430922091007232666015625" lon="-3.68933365680277347564697265625">
        <ele>15.80000019073486328125</ele>
        <time>2018-09-05T08:37:34.000Z</time>
      </trkpt>
      <trkpt lat="43.4743016771972179412841796875" lon="-3.68941294960677623748779296875">
        <ele>15.3999996185302734375</ele>
        <time>2018-09-05T08:37:35.000Z</time>
      </trkpt>
      <trkpt lat="43.47429354675114154815673828125" lon="-3.689824752509593963623046875">
        <ele>14.6000003814697265625</ele>
        <time>2018-09-05T08:37:40.000Z</time>
      </trkpt>
      <trkpt lat="43.47429983317852020263671875" lon="-3.68990832008421421051025390625">
        <ele>14.19999980926513671875</ele>
        <time>2018-09-05T08:37:41.000Z</time>
      </trkpt>
      <trkpt lat="43.47431014291942119598388671875" lon="-3.69028575718402862548828125">
        <ele>13.80000019073486328125</ele>
        <time>2018-09-05T08:37:46.000Z</time>
      </trkpt>
      <trkpt lat="43.47438558004796504974365234375" lon="-3.69059622287750244140625">
        <ele>13.80000019073486328125</ele>
        <time>2018-09-05T08:37:51.000Z</time>
      </trkpt>
      <trkpt lat="43.47439907491207122802734375" lon="-3.6906641162931919097900390625">
        <ele>13.3999996185302734375</ele>
        <time>2018-09-05T08:37:52.000Z</time>
      </trkpt>
      <trkpt lat="43.4744364582002162933349609375" lon="-3.69087517261505126953125">
        <ele>13.19999980926513671875</ele>
        <time>2018-09-05T08:37:55.000Z</time>
      </trkpt>
      <trkpt lat="43.4744408167898654937744140625" lon="-3.69102898053824901580810546875">
        <ele>12.80000019073486328125</ele>
        <time>2018-09-05T08:37:57.000Z</time>
      </trkpt>
      <trkpt lat="43.474437296390533447265625" lon="-3.69110592640936374664306640625">
        <ele>12.3999996185302734375</ele>
        <time>2018-09-05T08:37:58.000Z</time>
      </trkpt>
      <trkpt lat="43.4744203649461269378662109375" lon="-3.69135729968547821044921875">
        <ele>11.3999996185302734375</ele>
        <time>2018-09-05T08:38:01.000Z</time>
      </trkpt>
      <trkpt lat="43.47441541962325572967529296875" lon="-3.691503815352916717529296875">
        <ele>11.6000003814697265625</ele>
        <time>2018-09-05T08:38:03.000Z</time>
      </trkpt>
      <trkpt lat="43.474437296390533447265625" lon="-3.69169685058295726776123046875">
        <ele>12.3999996185302734375</ele>
        <time>2018-09-05T08:38:07.000Z</time>
      </trkpt>
      <trkpt lat="43.47445565275847911834716796875" lon="-3.69174194522202014923095703125">
        <ele>12.6000003814697265625</ele>
        <time>2018-09-05T08:38:08.000Z</time>
      </trkpt>
      <trkpt lat="43.47452371381223201751708984375" lon="-3.69182358495891094207763671875">
        <ele>12</ele>
        <time>2018-09-05T08:38:10.000Z</time>
      </trkpt>
      <trkpt lat="43.4745668806135654449462890625" lon="-3.6918501555919647216796875">
        <ele>11.3999996185302734375</ele>
        <time>2018-09-05T08:38:11.000Z</time>
      </trkpt>
      <trkpt lat="43.4746651165187358856201171875" lon="-3.6919029615819454193115234375">
        <ele>11.3999996185302734375</ele>
        <time>2018-09-05T08:38:14.000Z</time>
      </trkpt>
      <trkpt lat="43.47474348731338977813720703125" lon="-3.69202307425439357757568359375">
        <ele>12.19999980926513671875</ele>
        <time>2018-09-05T08:38:18.000Z</time>
      </trkpt>
      <trkpt lat="43.47475924529135227203369140625" lon="-3.69206448085606098175048828125">
        <ele>12.19999980926513671875</ele>
        <time>2018-09-05T08:38:19.000Z</time>
      </trkpt>
      <trkpt lat="43.47478891722857952117919921875" lon="-3.69214762933552265167236328125">
        <ele>12.19999980926513671875</ele>
        <time>2018-09-05T08:38:21.000Z</time>
      </trkpt>
      <trkpt lat="43.474801070988178253173828125" lon="-3.6921902932226657867431640625">
        <ele>12.6000003814697265625</ele>
        <time>2018-09-05T08:38:22.000Z</time>
      </trkpt>
      <trkpt lat="43.47483702935278415679931640625" lon="-3.69231660850346088409423828125">
        <ele>13.19999980926513671875</ele>
        <time>2018-09-05T08:38:25.000Z</time>
      </trkpt>
      <trkpt lat="43.4748731553554534912109375" lon="-3.692438900470733642578125">
        <ele>13.3999996185302734375</ele>
        <time>2018-09-05T08:38:28.000Z</time>
      </trkpt>
      <trkpt lat="43.4749400429427623748779296875" lon="-3.69260913692414760589599609375">
        <ele>13.80000019073486328125</ele>
        <time>2018-09-05T08:38:33.000Z</time>
      </trkpt>
      <trkpt lat="43.474955968558788299560546875" lon="-3.69263981468975543975830078125">
        <ele>13.80000019073486328125</ele>
        <time>2018-09-05T08:38:34.000Z</time>
      </trkpt>
      <trkpt lat="43.47503609955310821533203125" lon="-3.69279764592647552490234375">
        <ele>14</ele>
        <time>2018-09-05T08:38:39.000Z</time>
      </trkpt>
      <trkpt lat="43.475057221949100494384765625" lon="-3.6928283236920833587646484375">
        <ele>14</ele>
        <time>2018-09-05T08:38:40.000Z</time>
      </trkpt>
      <trkpt lat="43.47522075287997722625732421875" lon="-3.6930579878389835357666015625">
        <ele>14.3999996185302734375</ele>
        <time>2018-09-05T08:38:47.000Z</time>
      </trkpt>
      <trkpt lat="43.475368358194828033447265625" lon="-3.69331137277185916900634765625">
        <ele>14.3999996185302734375</ele>
        <time>2018-09-05T08:38:54.000Z</time>
      </trkpt>
      <trkpt lat="43.4755458869040012359619140625" lon="-3.69345269165933132171630859375">
        <ele>14.3999996185302734375</ele>
        <time>2018-09-05T08:39:00.000Z</time>
      </trkpt>
      <trkpt lat="43.4756142832338809967041015625" lon="-3.693484626710414886474609375">
        <ele>14.80000019073486328125</ele>
        <time>2018-09-05T08:39:02.000Z</time>
      </trkpt>
      <trkpt lat="43.47574898041784763336181640625" lon="-3.6935582198202610015869140625">
        <ele>15.19999980926513671875</ele>
        <time>2018-09-05T08:39:07.000Z</time>
      </trkpt>
      <trkpt lat="43.475871942937374114990234375" lon="-3.69366777129471302032470703125">
        <ele>16</ele>
        <time>2018-09-05T08:39:12.000Z</time>
      </trkpt>
      <trkpt lat="43.47602181136608123779296875" lon="-3.6938794143497943878173828125">
        <ele>15.80000019073486328125</ele>
        <time>2018-09-05T08:39:19.000Z</time>
      </trkpt>
      <trkpt lat="43.47619154490530490875244140625" lon="-3.6941181309521198272705078125">
        <ele>16</ele>
        <time>2018-09-05T08:39:27.000Z</time>
      </trkpt>
      <trkpt lat="43.47620981745421886444091796875" lon="-3.69418895803391933441162109375">
        <ele>16.6000003814697265625</ele>
        <time>2018-09-05T08:39:30.000Z</time>
      </trkpt>
      <trkpt lat="43.4762383997440338134765625" lon="-3.69422231800854206085205078125">
        <ele>16.799999237060546875</ele>
        <time>2018-09-05T08:39:32.000Z</time>
      </trkpt>
      <trkpt lat="43.47625390626490116119384765625" lon="-3.69424947537481784820556640625">
        <ele>16.799999237060546875</ele>
        <time>2018-09-05T08:39:33.000Z</time>
      </trkpt>
      <trkpt lat="43.476282991468906402587890625" lon="-3.69431938044726848602294921875">
        <ele>17.200000762939453125</ele>
        <time>2018-09-05T08:39:36.000Z</time>
      </trkpt>
      <trkpt lat="43.47628391347825527191162109375" lon="-3.6943303607404232025146484375">
        <ele>17.3999996185302734375</ele>
        <time>2018-09-05T08:39:37.000Z</time>
      </trkpt>
      <trkpt lat="43.47628324292600154876708984375" lon="-3.694373108446598052978515625">
        <ele>18</ele>
        <time>2018-09-05T08:39:39.000Z</time>
      </trkpt>
      <trkpt lat="43.47628106363117694854736328125" lon="-3.6944292671978473663330078125">
        <ele>18.200000762939453125</ele>
        <time>2018-09-05T08:39:41.000Z</time>
      </trkpt>
      <trkpt lat="43.4762824885547161102294921875" lon="-3.69445483200252056121826171875">
        <ele>18.200000762939453125</ele>
        <time>2018-09-05T08:39:42.000Z</time>
      </trkpt>
      <trkpt lat="43.4762754477560520172119140625" lon="-3.69467309676110744476318359375">
        <ele>19</ele>
        <time>2018-09-05T08:39:49.000Z</time>
      </trkpt>
      <trkpt lat="43.476230688393115997314453125" lon="-3.694873340427875518798828125">
        <ele>19.3999996185302734375</ele>
        <time>2018-09-05T08:39:55.000Z</time>
      </trkpt>
      <trkpt lat="43.47622591070830821990966796875" lon="-3.6948963068425655364990234375">
        <ele>19.6000003814697265625</ele>
        <time>2018-09-05T08:39:56.000Z</time>
      </trkpt>
      <trkpt lat="43.47621987573802471160888671875" lon="-3.69494215585291385650634765625">
        <ele>20.6000003814697265625</ele>
        <time>2018-09-05T08:39:58.000Z</time>
      </trkpt>
      <trkpt lat="43.47622171975672245025634765625" lon="-3.69501139037311077117919921875">
        <ele>21.3999996185302734375</ele>
        <time>2018-09-05T08:40:01.000Z</time>
      </trkpt>
      <trkpt lat="43.47623370587825775146484375" lon="-3.6950525455176830291748046875">
        <ele>21.799999237060546875</ele>
        <time>2018-09-05T08:40:03.000Z</time>
      </trkpt>
      <trkpt lat="43.4762576781213283538818359375" lon="-3.69514499790966510772705078125">
        <ele>22.3999996185302734375</ele>
        <time>2018-09-05T08:40:07.000Z</time>
      </trkpt>
      <trkpt lat="43.4762942232191562652587890625" lon="-3.695204593241214752197265625">
        <ele>22.799999237060546875</ele>
        <time>2018-09-05T08:40:10.000Z</time>
      </trkpt>
      <trkpt lat="43.47636890597641468048095703125" lon="-3.69527122937142848968505859375">
        <ele>23.799999237060546875</ele>
        <time>2018-09-05T08:40:15.000Z</time>
      </trkpt>
      <trkpt lat="43.47641534171998500823974609375" lon="-3.695319592952728271484375">
        <ele>24.3999996185302734375</ele>
        <time>2018-09-05T08:40:18.000Z</time>
      </trkpt>
      <trkpt lat="43.4764578379690647125244140625" lon="-3.695367537438869476318359375">
        <ele>25</ele>
        <time>2018-09-05T08:40:21.000Z</time>
      </trkpt>
      <trkpt lat="43.4765155054628849029541015625" lon="-3.6954418011009693145751953125">
        <ele>26</ele>
        <time>2018-09-05T08:40:25.000Z</time>
      </trkpt>
      <trkpt lat="43.47652849741280078887939453125" lon="-3.6954599060118198394775390625">
        <ele>26.200000762939453125</ele>
        <time>2018-09-05T08:40:26.000Z</time>
      </trkpt>
      <trkpt lat="43.47658197395503520965576171875" lon="-3.69558856822550296783447265625">
        <ele>27.200000762939453125</ele>
        <time>2018-09-05T08:40:32.000Z</time>
      </trkpt>
      <trkpt lat="43.4766583330929279327392578125" lon="-3.695722259581089019775390625">
        <ele>28.3999996185302734375</ele>
        <time>2018-09-05T08:40:39.000Z</time>
      </trkpt>
      <trkpt lat="43.4766690619289875030517578125" lon="-3.69574363343417644500732421875">
        <ele>28.6000003814697265625</ele>
        <time>2018-09-05T08:40:40.000Z</time>
      </trkpt>
      <trkpt lat="43.47674625925719738006591796875" lon="-3.695857711136341094970703125">
        <ele>29.6000003814697265625</ele>
        <time>2018-09-05T08:40:46.000Z</time>
      </trkpt>
      <trkpt lat="43.47676000557839870452880859375" lon="-3.695876486599445343017578125">
        <ele>29.799999237060546875</ele>
        <time>2018-09-05T08:40:47.000Z</time>
      </trkpt>
      <trkpt lat="43.47680325619876384735107421875" lon="-3.6959530971944332122802734375">
        <ele>30.799999237060546875</ele>
        <time>2018-09-05T08:40:51.000Z</time>
      </trkpt>
      <trkpt lat="43.47683141939342021942138671875" lon="-3.6959953419864177703857421875">
        <ele>31.799999237060546875</ele>
        <time>2018-09-05T08:40:54.000Z</time>
      </trkpt>
      <trkpt lat="43.476841561496257781982421875" lon="-3.69600917212665081024169921875">
        <ele>32.200000762939453125</ele>
        <time>2018-09-05T08:40:55.000Z</time>
      </trkpt>
      <trkpt lat="43.47685958258807659149169921875" lon="-3.6960322223603725433349609375">
        <ele>32.59999847412109375</ele>
        <time>2018-09-05T08:40:57.000Z</time>
      </trkpt>
      <trkpt lat="43.47689009271562099456787109375" lon="-3.69607396423816680908203125">
        <ele>32.799999237060546875</ele>
        <time>2018-09-05T08:41:00.000Z</time>
      </trkpt>
      <trkpt lat="43.4769007377326488494873046875" lon="-3.69608812965452671051025390625">
        <ele>33</ele>
        <time>2018-09-05T08:41:01.000Z</time>
      </trkpt>
      <trkpt lat="43.4769114665687084197998046875" lon="-3.696102462708950042724609375">
        <ele>33.200000762939453125</ele>
        <time>2018-09-05T08:41:02.000Z</time>
      </trkpt>
      <trkpt lat="43.477003835141658782958984375" lon="-3.69617530144751071929931640625">
        <ele>34.40000152587890625</ele>
        <time>2018-09-05T08:41:09.000Z</time>
      </trkpt>
      <trkpt lat="43.4770189225673675537109375" lon="-3.696188293397426605224609375">
        <ele>34.799999237060546875</ele>
        <time>2018-09-05T08:41:10.000Z</time>
      </trkpt>
      <trkpt lat="43.477079607546329498291015625" lon="-3.6962404288351535797119140625">
        <ele>35.40000152587890625</ele>
        <time>2018-09-05T08:41:14.000Z</time>
      </trkpt>
      <trkpt lat="43.47716283984482288360595703125" lon="-3.69630035944283008575439453125">
        <ele>36.40000152587890625</ele>
        <time>2018-09-05T08:41:19.000Z</time>
      </trkpt>
      <trkpt lat="43.47717809490859508514404296875" lon="-3.69631628505885601043701171875">
        <ele>36.59999847412109375</ele>
        <time>2018-09-05T08:41:20.000Z</time>
      </trkpt>
      <trkpt lat="43.477228470146656036376953125" lon="-3.696386776864528656005859375">
        <ele>37.59999847412109375</ele>
        <time>2018-09-05T08:41:24.000Z</time>
      </trkpt>
      <trkpt lat="43.47727968357503414154052734375" lon="-3.69645123369991779327392578125">
        <ele>38.799999237060546875</ele>
        <time>2018-09-05T08:41:28.000Z</time>
      </trkpt>
      <trkpt lat="43.4773436374962329864501953125" lon="-3.69649733416736125946044921875">
        <ele>40</ele>
        <time>2018-09-05T08:41:32.000Z</time>
      </trkpt>
      <trkpt lat="43.47740314900875091552734375" lon="-3.69652046822011470794677734375">
        <ele>41</ele>
        <time>2018-09-05T08:41:35.000Z</time>
      </trkpt>
      <trkpt lat="43.477520830929279327392578125" lon="-3.696506805717945098876953125">
        <ele>41.59999847412109375</ele>
        <time>2018-09-05T08:41:40.000Z</time>
      </trkpt>
      <trkpt lat="43.47755025140941143035888671875" lon="-3.69649951346218585968017578125">
        <ele>41.59999847412109375</ele>
        <time>2018-09-05T08:41:41.000Z</time>
      </trkpt>
      <trkpt lat="43.47760976292192935943603515625" lon="-3.6964850127696990966796875">
        <ele>42.200000762939453125</ele>
        <time>2018-09-05T08:41:43.000Z</time>
      </trkpt>
      <trkpt lat="43.47775745205581188201904296875" lon="-3.696456849575042724609375">
        <ele>43</ele>
        <time>2018-09-05T08:41:48.000Z</time>
      </trkpt>
      <trkpt lat="43.47786759026348590850830078125" lon="-3.69642290286719799041748046875">
        <ele>43.40000152587890625</ele>
        <time>2018-09-05T08:41:52.000Z</time>
      </trkpt>
      <trkpt lat="43.4779270179569721221923828125" lon="-3.69639289565384387969970703125">
        <ele>43.40000152587890625</ele>
        <time>2018-09-05T08:41:54.000Z</time>
      </trkpt>
      <trkpt lat="43.4781935624778270721435546875" lon="-3.6962816677987575531005859375">
        <ele>43.40000152587890625</ele>
        <time>2018-09-05T08:42:01.000Z</time>
      </trkpt>
      <trkpt lat="43.47851090133190155029296875" lon="-3.69617647491395473480224609375">
        <ele>44.200000762939453125</ele>
        <time>2018-09-05T08:42:09.000Z</time>
      </trkpt>
      <trkpt lat="43.47863503731787204742431640625" lon="-3.696128614246845245361328125">
        <ele>44</ele>
        <time>2018-09-05T08:42:13.000Z</time>
      </trkpt>
      <trkpt lat="43.478721119463443756103515625" lon="-3.69609718210995197296142578125">
        <ele>44</ele>
        <time>2018-09-05T08:42:16.000Z</time>
      </trkpt>
      <trkpt lat="43.4787712432444095611572265625" lon="-3.6960774846374988555908203125">
        <ele>43.799999237060546875</ele>
        <time>2018-09-05T08:42:18.000Z</time>
      </trkpt>
      <trkpt lat="43.4788108058273792266845703125" lon="-3.6960556916892528533935546875">
        <ele>43.59999847412109375</ele>
        <time>2018-09-05T08:42:20.000Z</time>
      </trkpt>
      <trkpt lat="43.47882949747145175933837890625" lon="-3.69604772888123989105224609375">
        <ele>43.59999847412109375</ele>
        <time>2018-09-05T08:42:21.000Z</time>
      </trkpt>
      <trkpt lat="43.47884777002036571502685546875" lon="-3.69604404084384441375732421875">
        <ele>43.40000152587890625</ele>
        <time>2018-09-05T08:42:22.000Z</time>
      </trkpt>
      <trkpt lat="43.478877358138561248779296875" lon="-3.69603867642581462860107421875">
        <ele>43.40000152587890625</ele>
        <time>2018-09-05T08:42:24.000Z</time>
      </trkpt>
      <trkpt lat="43.47890644334256649017333984375" lon="-3.6960518360137939453125">
        <ele>43.200000762939453125</ele>
        <time>2018-09-05T08:42:27.000Z</time>
      </trkpt>
      <trkpt lat="43.47892220132052898406982421875" lon="-3.69604672305285930633544921875">
        <ele>43.200000762939453125</ele>
        <time>2018-09-05T08:42:29.000Z</time>
      </trkpt>
      <trkpt lat="43.4789449162781238555908203125" lon="-3.6960275284945964813232421875">
        <ele>43.200000762939453125</ele>
        <time>2018-09-05T08:42:31.000Z</time>
      </trkpt>
      <trkpt lat="43.47896285355091094970703125" lon="-3.69601755402982234954833984375">
        <ele>43</ele>
        <time>2018-09-05T08:42:32.000Z</time>
      </trkpt>
      <trkpt lat="43.47900954075157642364501953125" lon="-3.695975057780742645263671875">
        <ele>42.59999847412109375</ele>
        <time>2018-09-05T08:42:36.000Z</time>
      </trkpt>
      <trkpt lat="43.47904524765908718109130859375" lon="-3.69591915048658847808837890625">
        <ele>42.40000152587890625</ele>
        <time>2018-09-05T08:42:39.000Z</time>
      </trkpt>
      <trkpt lat="43.4790565632283687591552734375" lon="-3.69588713161647319793701171875">
        <ele>42</ele>
        <time>2018-09-05T08:42:41.000Z</time>
      </trkpt>
      <trkpt lat="43.47905337810516357421875" lon="-3.6959668435156345367431640625">
        <ele>42.200000762939453125</ele>
        <time>2018-09-05T08:43:32.000Z</time>
      </trkpt>
      <trkpt lat="43.47904541529715061187744140625" lon="-3.6959805898368358612060546875">
        <ele>42.40000152587890625</ele>
        <time>2018-09-05T08:43:33.000Z</time>
      </trkpt>
      <trkpt lat="43.47898825071752071380615234375" lon="-3.6960531771183013916015625">
        <ele>43.200000762939453125</ele>
        <time>2018-09-05T08:43:41.000Z</time>
      </trkpt>
      <trkpt lat="43.47897224128246307373046875" lon="-3.69608938694000244140625">
        <ele>43.40000152587890625</ele>
        <time>2018-09-05T08:43:57.000Z</time>
      </trkpt>
      <trkpt lat="43.47894818522036075592041015625" lon="-3.6961324699223041534423828125">
        <ele>43.40000152587890625</ele>
        <time>2018-09-05T08:43:59.000Z</time>
      </trkpt>
      <trkpt lat="43.4789020009338855743408203125" lon="-3.6962079070508480072021484375">
        <ele>43.799999237060546875</ele>
        <time>2018-09-05T08:44:02.000Z</time>
      </trkpt>
      <trkpt lat="43.47885380499064922332763671875" lon="-3.69629398919641971588134765625">
        <ele>44.59999847412109375</ele>
        <time>2018-09-05T08:44:05.000Z</time>
      </trkpt>
      <trkpt lat="43.4788294136524200439453125" lon="-3.696353919804096221923828125">
        <ele>45.200000762939453125</ele>
        <time>2018-09-05T08:44:07.000Z</time>
      </trkpt>
      <trkpt lat="43.47880594432353973388671875" lon="-3.696410246193408966064453125">
        <ele>45.799999237060546875</ele>
        <time>2018-09-05T08:44:09.000Z</time>
      </trkpt>
      <trkpt lat="43.478774763643741607666015625" lon="-3.6965099908411502838134765625">
        <ele>46.40000152587890625</ele>
        <time>2018-09-05T08:44:12.000Z</time>
      </trkpt>
      <trkpt lat="43.4787497855722904205322265625" lon="-3.6966182850301265716552734375">
        <ele>47</ele>
        <time>2018-09-05T08:44:15.000Z</time>
      </trkpt>
      <trkpt lat="43.4787209518253803253173828125" lon="-3.6967731826007366180419921875">
        <ele>47.40000152587890625</ele>
        <time>2018-09-05T08:44:19.000Z</time>
      </trkpt>
      <trkpt lat="43.47869865596294403076171875" lon="-3.6970910243690013885498046875">
        <ele>47.40000152587890625</ele>
        <time>2018-09-05T08:44:26.000Z</time>
      </trkpt>
      <trkpt lat="43.4787135757505893707275390625" lon="-3.69744650088250637054443359375">
        <ele>46.799999237060546875</ele>
        <time>2018-09-05T08:44:32.000Z</time>
      </trkpt>
      <trkpt lat="43.47871986217796802520751953125" lon="-3.697511963546276092529296875">
        <ele>46.59999847412109375</ele>
        <time>2018-09-05T08:44:33.000Z</time>
      </trkpt>
      <trkpt lat="43.47874131985008716583251953125" lon="-3.6976995505392551422119140625">
        <ele>45.40000152587890625</ele>
        <time>2018-09-05T08:44:36.000Z</time>
      </trkpt>
      <trkpt lat="43.478777110576629638671875" lon="-3.6978422105312347412109375">
        <ele>44.59999847412109375</ele>
        <time>2018-09-05T08:44:39.000Z</time>
      </trkpt>
      <trkpt lat="43.4787913598120212554931640625" lon="-3.6978851258754730224609375">
        <ele>44.200000762939453125</ele>
        <time>2018-09-05T08:44:40.000Z</time>
      </trkpt>
      <trkpt lat="43.47880217246711254119873046875" lon="-3.6979268677532672882080078125">
        <ele>44.200000762939453125</ele>
        <time>2018-09-05T08:44:41.000Z</time>
      </trkpt>
      <trkpt lat="43.47880770452320575714111328125" lon="-3.69798637926578521728515625">
        <ele>43.799999237060546875</ele>
        <time>2018-09-05T08:44:43.000Z</time>
      </trkpt>
      <trkpt lat="43.4788084588944911956787109375" lon="-3.698005490005016326904296875">
        <ele>43.59999847412109375</ele>
        <time>2018-09-05T08:44:44.000Z</time>
      </trkpt>
      <trkpt lat="43.47880032844841480255126953125" lon="-3.698053769767284393310546875">
        <ele>43.40000152587890625</ele>
        <time>2018-09-05T08:44:48.000Z</time>
      </trkpt>
      <trkpt lat="43.478789515793323516845703125" lon="-3.69808570481836795806884765625">
        <ele>43.200000762939453125</ele>
        <time>2018-09-05T08:44:52.000Z</time>
      </trkpt>
      <trkpt lat="43.47878289408981800079345703125" lon="-3.69811386801302433013916015625">
        <ele>43</ele>
        <time>2018-09-05T08:44:53.000Z</time>
      </trkpt>
      <trkpt lat="43.478775434195995330810546875" lon="-3.6981458030641078948974609375">
        <ele>42.799999237060546875</ele>
        <time>2018-09-05T08:44:54.000Z</time>
      </trkpt>
      <trkpt lat="43.4787494502961635589599609375" lon="-3.69831629097461700439453125">
        <ele>42</ele>
        <time>2018-09-05T08:44:58.000Z</time>
      </trkpt>
      <trkpt lat="43.47874953411519527435302734375" lon="-3.69836951605975627899169921875">
        <ele>41.59999847412109375</ele>
        <time>2018-09-05T08:44:59.000Z</time>
      </trkpt>
      <trkpt lat="43.47874551080167293548583984375" lon="-3.6984242498874664306640625">
        <ele>41.40000152587890625</ele>
        <time>2018-09-05T08:45:00.000Z</time>
      </trkpt>
      <trkpt lat="43.4787373803555965423583984375" lon="-3.69848233647644519805908203125">
        <ele>40.799999237060546875</ele>
        <time>2018-09-05T08:45:01.000Z</time>
      </trkpt>
      <trkpt lat="43.478716425597667694091796875" lon="-3.69868249632418155670166015625">
        <ele>39.40000152587890625</ele>
        <time>2018-09-05T08:45:04.000Z</time>
      </trkpt>
      <trkpt lat="43.47868029959499835968017578125" lon="-3.69882398284971714019775390625">
        <ele>38.59999847412109375</ele>
        <time>2018-09-05T08:45:06.000Z</time>
      </trkpt>
      <trkpt lat="43.47865574061870574951171875" lon="-3.69888500310480594635009765625">
        <ele>38.200000762939453125</ele>
        <time>2018-09-05T08:45:07.000Z</time>
      </trkpt>
      <trkpt lat="43.47863168455660343170166015625" lon="-3.6989387311041355133056640625">
        <ele>37.59999847412109375</ele>
        <time>2018-09-05T08:45:08.000Z</time>
      </trkpt>
      <trkpt lat="43.4785858355462551116943359375" lon="-3.69902648963034152984619140625">
        <ele>37.200000762939453125</ele>
        <time>2018-09-05T08:45:10.000Z</time>
      </trkpt>
      <trkpt lat="43.47855976782739162445068359375" lon="-3.69906974025070667266845703125">
        <ele>36.799999237060546875</ele>
        <time>2018-09-05T08:45:11.000Z</time>
      </trkpt>
      <trkpt lat="43.47850142978131771087646484375" lon="-3.69917619042098522186279296875">
        <ele>36</ele>
        <time>2018-09-05T08:45:13.000Z</time>
      </trkpt>
      <trkpt lat="43.47847477532923221588134765625" lon="-3.69934952817857265472412109375">
        <ele>36</ele>
        <time>2018-09-05T08:45:16.000Z</time>
      </trkpt>
      <trkpt lat="43.4784624539315700531005859375" lon="-3.69944390840828418731689453125">
        <ele>37</ele>
        <time>2018-09-05T08:45:19.000Z</time>
      </trkpt>
      <trkpt lat="43.47845985554158687591552734375" lon="-3.69946771301329135894775390625">
        <ele>37.40000152587890625</ele>
        <time>2018-09-05T08:45:20.000Z</time>
      </trkpt>
      <trkpt lat="43.4784584306180477142333984375" lon="-3.6994890868663787841796875">
        <ele>37.799999237060546875</ele>
        <time>2018-09-05T08:45:21.000Z</time>
      </trkpt>
      <trkpt lat="43.47845415584743022918701171875" lon="-3.69953694753348827362060546875">
        <ele>38</ele>
        <time>2018-09-05T08:45:23.000Z</time>
      </trkpt>
      <trkpt lat="43.47844745032489299774169921875" lon="-3.6996411345899105072021484375">
        <ele>38.799999237060546875</ele>
        <time>2018-09-05T08:45:27.000Z</time>
      </trkpt>
      <trkpt lat="43.47845097072422504425048828125" lon="-3.6996682919561862945556640625">
        <ele>39</ele>
        <time>2018-09-05T08:45:28.000Z</time>
      </trkpt>
      <trkpt lat="43.47845331765711307525634765625" lon="-3.69970005936920642852783203125">
        <ele>39.200000762939453125</ele>
        <time>2018-09-05T08:45:29.000Z</time>
      </trkpt>
      <trkpt lat="43.47844376228749752044677734375" lon="-3.69977029971778392791748046875">
        <ele>39</ele>
        <time>2018-09-05T08:45:31.000Z</time>
      </trkpt>
      <trkpt lat="43.47843940369784832000732421875" lon="-3.6998077668249607086181640625">
        <ele>39</ele>
        <time>2018-09-05T08:45:32.000Z</time>
      </trkpt>
      <trkpt lat="43.47841995768249034881591796875" lon="-3.69987825863063335418701171875">
        <ele>39</ele>
        <time>2018-09-05T08:45:34.000Z</time>
      </trkpt>
      <trkpt lat="43.47839497961103916168212890625" lon="-3.69996853172779083251953125">
        <ele>39.40000152587890625</ele>
        <time>2018-09-05T08:45:37.000Z</time>
      </trkpt>
      <trkpt lat="43.478349633514881134033203125" lon="-3.70017481036484241485595703125">
        <ele>40</ele>
        <time>2018-09-05T08:45:44.000Z</time>
      </trkpt>
      <trkpt lat="43.47834686748683452606201171875" lon="-3.70020884089171886444091796875">
        <ele>40.200000762939453125</ele>
        <time>2018-09-05T08:45:45.000Z</time>
      </trkpt>
      <trkpt lat="43.4783457778394222259521484375" lon="-3.7003173865377902984619140625">
        <ele>41.200000762939453125</ele>
        <time>2018-09-05T08:45:48.000Z</time>
      </trkpt>
      <trkpt lat="43.47835022024810314178466796875" lon="-3.70035368017852306365966796875">
        <ele>41.59999847412109375</ele>
        <time>2018-09-05T08:45:49.000Z</time>
      </trkpt>
      <trkpt lat="43.47835927270352840423583984375" lon="-3.70038737542927265167236328125">
        <ele>41.799999237060546875</ele>
        <time>2018-09-05T08:45:50.000Z</time>
      </trkpt>
      <trkpt lat="43.4784094803035259246826171875" lon="-3.70050606317818164825439453125">
        <ele>42</ele>
        <time>2018-09-05T08:45:53.000Z</time>
      </trkpt>
      <trkpt lat="43.47842699848115444183349609375" lon="-3.7005592882633209228515625">
        <ele>41.59999847412109375</ele>
        <time>2018-09-05T08:45:54.000Z</time>
      </trkpt>
      <trkpt lat="43.4784560836851596832275390625" lon="-3.70075684972107410430908203125">
        <ele>39.59999847412109375</ele>
        <time>2018-09-05T08:45:57.000Z</time>
      </trkpt>
      <trkpt lat="43.47844493575394153594970703125" lon="-3.7008109129965305328369140625">
        <ele>39.40000152587890625</ele>
        <time>2018-09-05T08:45:58.000Z</time>
      </trkpt>
      <trkpt lat="43.4784567542374134063720703125" lon="-3.70098802261054515838623046875">
        <ele>39.200000762939453125</ele>
        <time>2018-09-05T08:46:02.000Z</time>
      </trkpt>
      <trkpt lat="43.4784681536257266998291015625" lon="-3.7010620348155498504638671875">
        <ele>38.59999847412109375</ele>
        <time>2018-09-05T08:46:06.000Z</time>
      </trkpt>
      <trkpt lat="43.478462956845760345458984375" lon="-3.7011498771607875823974609375">
        <ele>38.799999237060546875</ele>
        <time>2018-09-05T08:46:10.000Z</time>
      </trkpt>
      <trkpt lat="43.47847561351954936981201171875" lon="-3.7012055329978466033935546875">
        <ele>38.799999237060546875</ele>
        <time>2018-09-05T08:46:12.000Z</time>
      </trkpt>
      <trkpt lat="43.47847728990018367767333984375" lon="-3.7012745998799800872802734375">
        <ele>39.40000152587890625</ele>
        <time>2018-09-05T08:46:15.000Z</time>
      </trkpt>
      <trkpt lat="43.47848349250853061676025390625" lon="-3.701327405869960784912109375">
        <ele>39.59999847412109375</ele>
        <time>2018-09-05T08:46:17.000Z</time>
      </trkpt>
      <trkpt lat="43.47854535095393657684326171875" lon="-3.70146696455776691436767578125">
        <ele>39.40000152587890625</ele>
        <time>2018-09-05T08:46:21.000Z</time>
      </trkpt>
      <trkpt lat="43.47858793102204799652099609375" lon="-3.7015532143414020538330078125">
        <ele>38.59999847412109375</ele>
        <time>2018-09-05T08:46:23.000Z</time>
      </trkpt>
      <trkpt lat="43.4786636196076869964599609375" lon="-3.70170517824590206146240234375">
        <ele>38.200000762939453125</ele>
        <time>2018-09-05T08:46:27.000Z</time>
      </trkpt>
      <trkpt lat="43.4787087142467498779296875" lon="-3.70178966782987117767333984375">
        <ele>37.799999237060546875</ele>
        <time>2018-09-05T08:46:29.000Z</time>
      </trkpt>
      <trkpt lat="43.47874299623072147369384765625" lon="-3.70183291845023632049560546875">
        <ele>37.40000152587890625</ele>
        <time>2018-09-05T08:46:30.000Z</time>
      </trkpt>
      <trkpt lat="43.47877685911953449249267578125" lon="-3.7018697150051593780517578125">
        <ele>37.40000152587890625</ele>
        <time>2018-09-05T08:46:31.000Z</time>
      </trkpt>
      <trkpt lat="43.47887224517762660980224609375" lon="-3.702017404139041900634765625">
        <ele>37.59999847412109375</ele>
        <time>2018-09-05T08:46:35.000Z</time>
      </trkpt>
      <trkpt lat="43.4788805432617664337158203125" lon="-3.70206241495907306671142578125">
        <ele>37.40000152587890625</ele>
        <time>2018-09-05T08:46:36.000Z</time>
      </trkpt>
      <trkpt lat="43.47887509502470493316650390625" lon="-3.7022348307073116302490234375">
        <ele>38</ele>
        <time>2018-09-05T08:46:40.000Z</time>
      </trkpt>
      <trkpt lat="43.47887241281569004058837890625" lon="-3.70229400694370269775390625">
        <ele>38.799999237060546875</ele>
        <time>2018-09-05T08:46:42.000Z</time>
      </trkpt>
      <trkpt lat="43.47887375392019748687744140625" lon="-3.70230532251298427581787109375">
        <ele>39.200000762939453125</ele>
        <time>2018-09-05T08:46:44.000Z</time>
      </trkpt>
      <trkpt lat="43.478890098631381988525390625" lon="-3.70246742852032184600830078125">
        <ele>39.59999847412109375</ele>
        <time>2018-09-05T08:48:56.000Z</time>
      </trkpt>
      <trkpt lat="43.4788932837545871734619140625" lon="-3.70252409018576145172119140625">
        <ele>39.59999847412109375</ele>
        <time>2018-09-05T08:48:58.000Z</time>
      </trkpt>
      <trkpt lat="43.47890795208513736724853515625" lon="-3.70270849205553531646728515625">
        <ele>39.799999237060546875</ele>
        <time>2018-09-05T08:49:03.000Z</time>
      </trkpt>
      <trkpt lat="43.47891868092119693756103515625" lon="-3.70274855755269527435302734375">
        <ele>39.799999237060546875</ele>
        <time>2018-09-05T08:49:04.000Z</time>
      </trkpt>
      <trkpt lat="43.47896997816860675811767578125" lon="-3.7030106596648693084716796875">
        <ele>39.200000762939453125</ele>
        <time>2018-09-05T08:49:10.000Z</time>
      </trkpt>
      <trkpt lat="43.478974588215351104736328125" lon="-3.70305969379842281341552734375">
        <ele>38.799999237060546875</ele>
        <time>2018-09-05T08:49:11.000Z</time>
      </trkpt>
      <trkpt lat="43.47896494902670383453369140625" lon="-3.703265301883220672607421875">
        <ele>38.59999847412109375</ele>
        <time>2018-09-05T08:49:15.000Z</time>
      </trkpt>
      <trkpt lat="43.478957824409008026123046875" lon="-3.703312575817108154296875">
        <ele>38.59999847412109375</ele>
        <time>2018-09-05T08:49:16.000Z</time>
      </trkpt>
      <trkpt lat="43.47890912555158138275146484375" lon="-3.7035833112895488739013671875">
        <ele>38.40000152587890625</ele>
        <time>2018-09-05T08:49:22.000Z</time>
      </trkpt>
      <trkpt lat="43.47884827293455600738525390625" lon="-3.70385044254362583160400390625">
        <ele>38.200000762939453125</ele>
        <time>2018-09-05T08:49:27.000Z</time>
      </trkpt>
      <trkpt lat="43.47881742753088474273681640625" lon="-3.7039668671786785125732421875">
        <ele>38</ele>
        <time>2018-09-05T08:49:29.000Z</time>
      </trkpt>
      <trkpt lat="43.4788079559803009033203125" lon="-3.70402939617633819580078125">
        <ele>38.200000762939453125</ele>
        <time>2018-09-05T08:49:30.000Z</time>
      </trkpt>
      <trkpt lat="43.478794209659099578857421875" lon="-3.7041636742651462554931640625">
        <ele>38</ele>
        <time>2018-09-05T08:49:32.000Z</time>
      </trkpt>
      <trkpt lat="43.4787876717746257781982421875" lon="-3.70423450134694576263427734375">
        <ele>37.59999847412109375</ele>
        <time>2018-09-05T08:49:33.000Z</time>
      </trkpt>
      <trkpt lat="43.47876378335058689117431640625" lon="-3.70452937670052051544189453125">
        <ele>36.40000152587890625</ele>
        <time>2018-09-05T08:49:37.000Z</time>
      </trkpt>
      <trkpt lat="43.4787491150200366973876953125" lon="-3.7046686001121997833251953125">
        <ele>35.799999237060546875</ele>
        <time>2018-09-05T08:49:39.000Z</time>
      </trkpt>
      <trkpt lat="43.478715755045413970947265625" lon="-3.7048271857202053070068359375">
        <ele>35.40000152587890625</ele>
        <time>2018-09-05T08:49:42.000Z</time>
      </trkpt>
      <trkpt lat="43.47869991324841976165771484375" lon="-3.70487303473055362701416015625">
        <ele>35.200000762939453125</ele>
        <time>2018-09-05T08:49:43.000Z</time>
      </trkpt>
      <trkpt lat="43.47868147306144237518310546875" lon="-3.7049150280654430389404296875">
        <ele>35.200000762939453125</ele>
        <time>2018-09-05T08:49:44.000Z</time>
      </trkpt>
      <trkpt lat="43.47861282527446746826171875" lon="-3.70503145270049571990966796875">
        <ele>35.200000762939453125</ele>
        <time>2018-09-05T08:49:47.000Z</time>
      </trkpt>
      <trkpt lat="43.4785590134561061859130859375" lon="-3.7051064707338809967041015625">
        <ele>35.59999847412109375</ele>
        <time>2018-09-05T08:49:49.000Z</time>
      </trkpt>
      <trkpt lat="43.478499166667461395263671875" lon="-3.70517495088279247283935546875">
        <ele>35.799999237060546875</ele>
        <time>2018-09-05T08:49:51.000Z</time>
      </trkpt>
      <trkpt lat="43.47844711504876613616943359375" lon="-3.70523312129080295562744140625">
        <ele>36.200000762939453125</ele>
        <time>2018-09-05T08:49:53.000Z</time>
      </trkpt>
      <trkpt lat="43.478423394262790679931640625" lon="-3.7052640505135059356689453125">
        <ele>36.40000152587890625</ele>
        <time>2018-09-05T08:49:54.000Z</time>
      </trkpt>
      <trkpt lat="43.47836866043508052825927734375" lon="-3.70532196946442127227783203125">
        <ele>36.40000152587890625</ele>
        <time>2018-09-05T08:49:56.000Z</time>
      </trkpt>
      <trkpt lat="43.47828132100403308868408203125" lon="-3.70544719509780406951904296875">
        <ele>37.40000152587890625</ele>
        <time>2018-09-05T08:50:00.000Z</time>
      </trkpt>
      <trkpt lat="43.47825600765645503997802734375" lon="-3.70552204549312591552734375">
        <ele>37.59999847412109375</ele>
        <time>2018-09-05T08:50:02.000Z</time>
      </trkpt>
      <trkpt lat="43.4782378189265727996826171875" lon="-3.70561047457158565521240234375">
        <ele>37.59999847412109375</ele>
        <time>2018-09-05T08:50:04.000Z</time>
      </trkpt>
      <trkpt lat="43.4781949035823345184326171875" lon="-3.70581013150513172149658203125">
        <ele>37.200000762939453125</ele>
        <time>2018-09-05T08:50:08.000Z</time>
      </trkpt>
      <trkpt lat="43.47813933156430721282958984375" lon="-3.7059449963271617889404296875">
        <ele>37.40000152587890625</ele>
        <time>2018-09-05T08:50:11.000Z</time>
      </trkpt>
      <trkpt lat="43.4781013615429401397705078125" lon="-3.7060060165822505950927734375">
        <ele>37.59999847412109375</ele>
        <time>2018-09-05T08:50:13.000Z</time>
      </trkpt>
      <trkpt lat="43.477988876402378082275390625" lon="-3.7061589024960994720458984375">
        <ele>38.40000152587890625</ele>
        <time>2018-09-05T08:50:18.000Z</time>
      </trkpt>
      <trkpt lat="43.4779615513980388641357421875" lon="-3.706181533634662628173828125">
        <ele>38.59999847412109375</ele>
        <time>2018-09-05T08:50:19.000Z</time>
      </trkpt>
      <trkpt lat="43.47790539264678955078125" lon="-3.706211037933826446533203125">
        <ele>39.40000152587890625</ele>
        <time>2018-09-05T08:50:21.000Z</time>
      </trkpt>
      <trkpt lat="43.4778492338955402374267578125" lon="-3.7062283046543598175048828125">
        <ele>40.40000152587890625</ele>
        <time>2018-09-05T08:50:23.000Z</time>
      </trkpt>
      <trkpt lat="43.47782048396766185760498046875" lon="-3.7062353454530239105224609375">
        <ele>41</ele>
        <time>2018-09-05T08:50:24.000Z</time>
      </trkpt>
      <trkpt lat="43.47779081203043460845947265625" lon="-3.70624196715652942657470703125">
        <ele>41.200000762939453125</ele>
        <time>2018-09-05T08:50:25.000Z</time>
      </trkpt>
      <trkpt lat="43.4777345694601535797119140625" lon="-3.70624221861362457275390625">
        <ele>41.59999847412109375</ele>
        <time>2018-09-05T08:50:27.000Z</time>
      </trkpt>
      <trkpt lat="43.47767296247184276580810546875" lon="-3.7062464095652103424072265625">
        <ele>42</ele>
        <time>2018-09-05T08:50:29.000Z</time>
      </trkpt>
      <trkpt lat="43.477640859782695770263671875" lon="-3.70625738985836505889892578125">
        <ele>42</ele>
        <time>2018-09-05T08:50:30.000Z</time>
      </trkpt>
      <trkpt lat="43.4776143729686737060546875" lon="-3.7062742374837398529052734375">
        <ele>42.200000762939453125</ele>
        <time>2018-09-05T08:50:31.000Z</time>
      </trkpt>
      <trkpt lat="43.47746324725449085235595703125" lon="-3.70638429187238216400146484375">
        <ele>43.200000762939453125</ele>
        <time>2018-09-05T08:50:37.000Z</time>
      </trkpt>
      <trkpt lat="43.47732192836701869964599609375" lon="-3.70649023912847042083740234375">
        <ele>42.40000152587890625</ele>
        <time>2018-09-05T08:50:42.000Z</time>
      </trkpt>
      <trkpt lat="43.47723416984081268310546875" lon="-3.70664320886135101318359375">
        <ele>42.200000762939453125</ele>
        <time>2018-09-05T08:50:47.000Z</time>
      </trkpt>
      <trkpt lat="43.47716669552028179168701171875" lon="-3.70676483027637004852294921875">
        <ele>42.200000762939453125</ele>
        <time>2018-09-05T08:50:50.000Z</time>
      </trkpt>
      <trkpt lat="43.4771421365439891815185546875" lon="-3.70681746862828731536865234375">
        <ele>42</ele>
        <time>2018-09-05T08:50:51.000Z</time>
      </trkpt>
      <trkpt lat="43.477117158472537994384765625" lon="-3.7068659998476505279541015625">
        <ele>42</ele>
        <time>2018-09-05T08:50:52.000Z</time>
      </trkpt>
      <trkpt lat="43.47700660116970539093017578125" lon="-3.707115612924098968505859375">
        <ele>41.799999237060546875</ele>
        <time>2018-09-05T08:50:57.000Z</time>
      </trkpt>
      <trkpt lat="43.47697039134800434112548828125" lon="-3.70715995319187641143798828125">
        <ele>41</ele>
        <time>2018-09-05T08:50:58.000Z</time>
      </trkpt>
      <trkpt lat="43.47689143382012844085693359375" lon="-3.70725232176482677459716796875">
        <ele>39.59999847412109375</ele>
        <time>2018-09-05T08:51:00.000Z</time>
      </trkpt>
      <trkpt lat="43.4768625162541866302490234375" lon="-3.707324825227260589599609375">
        <ele>39</ele>
        <time>2018-09-05T08:51:01.000Z</time>
      </trkpt>
      <trkpt lat="43.4768289886415004730224609375" lon="-3.70740361511707305908203125">
        <ele>38.200000762939453125</ele>
        <time>2018-09-05T08:51:02.000Z</time>
      </trkpt>
      <trkpt lat="43.47677324898540973663330078125" lon="-3.707589022815227508544921875">
        <ele>36.59999847412109375</ele>
        <time>2018-09-05T08:51:04.000Z</time>
      </trkpt>
      <trkpt lat="43.4767587482929229736328125" lon="-3.70768851600587368011474609375">
        <ele>36.40000152587890625</ele>
        <time>2018-09-05T08:51:05.000Z</time>
      </trkpt>
      <trkpt lat="43.47674340941011905670166015625" lon="-3.70777451433241367340087890625">
        <ele>36.40000152587890625</ele>
        <time>2018-09-05T08:51:06.000Z</time>
      </trkpt>
      <trkpt lat="43.4767320938408374786376953125" lon="-3.70784726925194263458251953125">
        <ele>36.799999237060546875</ele>
        <time>2018-09-05T08:51:07.000Z</time>
      </trkpt>
      <trkpt lat="43.4767180122435092926025390625" lon="-3.70790652930736541748046875">
        <ele>37.40000152587890625</ele>
        <time>2018-09-05T08:51:08.000Z</time>
      </trkpt>
      <trkpt lat="43.47670803777873516082763671875" lon="-3.7079593352973461151123046875">
        <ele>37.799999237060546875</ele>
        <time>2018-09-05T08:51:09.000Z</time>
      </trkpt>
      <trkpt lat="43.47670116461813449859619140625" lon="-3.7080116383731365203857421875">
        <ele>38</ele>
        <time>2018-09-05T08:51:10.000Z</time>
      </trkpt>
      <trkpt lat="43.4766952134668827056884765625" lon="-3.70816527865827083587646484375">
        <ele>38.200000762939453125</ele>
        <time>2018-09-05T08:51:13.000Z</time>
      </trkpt>
      <trkpt lat="43.47669772803783416748046875" lon="-3.7082376144826412200927734375">
        <ele>38</ele>
        <time>2018-09-05T08:51:15.000Z</time>
      </trkpt>
      <trkpt lat="43.47670443356037139892578125" lon="-3.7082947790622711181640625">
        <ele>37.40000152587890625</ele>
        <time>2018-09-05T08:51:17.000Z</time>
      </trkpt>
      <trkpt lat="43.476714156568050384521484375" lon="-3.70835487730801105499267578125">
        <ele>36.799999237060546875</ele>
        <time>2018-09-05T08:51:19.000Z</time>
      </trkpt>
      <trkpt lat="43.4767186827957630157470703125" lon="-3.708478510379791259765625">
        <ele>36.200000762939453125</ele>
        <time>2018-09-05T08:51:22.000Z</time>
      </trkpt>
      <trkpt lat="43.476699404418468475341796875" lon="-3.70862896554172039031982421875">
        <ele>35.799999237060546875</ele>
        <time>2018-09-05T08:51:25.000Z</time>
      </trkpt>
      <trkpt lat="43.4766662120819091796875" lon="-3.708689399063587188720703125">
        <ele>36</ele>
        <time>2018-09-05T08:51:27.000Z</time>
      </trkpt>
      <trkpt lat="43.47658297978341579437255859375" lon="-3.70879375375807285308837890625">
        <ele>36.799999237060546875</ele>
        <time>2018-09-05T08:51:31.000Z</time>
      </trkpt>
      <trkpt lat="43.4765554033219814300537109375" lon="-3.7088776566088199615478515625">
        <ele>37.59999847412109375</ele>
        <time>2018-09-05T08:51:33.000Z</time>
      </trkpt>
      <trkpt lat="43.476539812982082366943359375" lon="-3.70897413231432437896728515625">
        <ele>38.200000762939453125</ele>
        <time>2018-09-05T08:51:35.000Z</time>
      </trkpt>
      <trkpt lat="43.47653956152498722076416015625" lon="-3.709083013236522674560546875">
        <ele>38</ele>
        <time>2018-09-05T08:51:37.000Z</time>
      </trkpt>
      <trkpt lat="43.47654215991497039794921875" lon="-3.7091410160064697265625">
        <ele>37.799999237060546875</ele>
        <time>2018-09-05T08:51:38.000Z</time>
      </trkpt>
      <trkpt lat="43.4765396453440189361572265625" lon="-3.70919625274837017059326171875">
        <ele>37.59999847412109375</ele>
        <time>2018-09-05T08:51:39.000Z</time>
      </trkpt>
      <trkpt lat="43.4765587560832500457763671875" lon="-3.70936171151697635650634765625">
        <ele>37.59999847412109375</ele>
        <time>2018-09-05T08:51:42.000Z</time>
      </trkpt>
      <trkpt lat="43.4765976481139659881591796875" lon="-3.7094838358461856842041015625">
        <ele>37</ele>
        <time>2018-09-05T08:51:44.000Z</time>
      </trkpt>
      <trkpt lat="43.47659354098141193389892578125" lon="-3.7096243165433406829833984375">
        <ele>36.200000762939453125</ele>
        <time>2018-09-05T08:51:46.000Z</time>
      </trkpt>
      <trkpt lat="43.47658214159309864044189453125" lon="-3.70970084331929683685302734375">
        <ele>35.59999847412109375</ele>
        <time>2018-09-05T08:51:47.000Z</time>
      </trkpt>
      <trkpt lat="43.4765748493373394012451171875" lon="-3.70995732955634593963623046875">
        <ele>34.799999237060546875</ele>
        <time>2018-09-05T08:51:50.000Z</time>
      </trkpt>
      <trkpt lat="43.47658935002982616424560546875" lon="-3.71004785411059856414794921875">
        <ele>34.59999847412109375</ele>
        <time>2018-09-05T08:51:51.000Z</time>
      </trkpt>
      <trkpt lat="43.4765976481139659881591796875" lon="-3.710218928754329681396484375">
        <ele>33.59999847412109375</ele>
        <time>2018-09-05T08:51:53.000Z</time>
      </trkpt>
      <trkpt lat="43.476576693356037139892578125" lon="-3.710288666188716888427734375">
        <ele>33</ele>
        <time>2018-09-05T08:51:54.000Z</time>
      </trkpt>
      <trkpt lat="43.47651726566255092620849609375" lon="-3.71038514189422130584716796875">
        <ele>33.200000762939453125</ele>
        <time>2018-09-05T08:51:56.000Z</time>
      </trkpt>
      <trkpt lat="43.47647954709827899932861328125" lon="-3.710409365594387054443359375">
        <ele>33.200000762939453125</ele>
        <time>2018-09-05T08:51:57.000Z</time>
      </trkpt>
      <trkpt lat="43.476344682276248931884765625" lon="-3.710448928177356719970703125">
        <ele>32.799999237060546875</ele>
        <time>2018-09-05T08:52:00.000Z</time>
      </trkpt>
      <trkpt lat="43.47630151547491550445556640625" lon="-3.710467033088207244873046875">
        <ele>33</ele>
        <time>2018-09-05T08:52:01.000Z</time>
      </trkpt>
      <trkpt lat="43.47624753601849079132080078125" lon="-3.71051489375531673431396484375">
        <ele>34</ele>
        <time>2018-09-05T08:52:03.000Z</time>
      </trkpt>
      <trkpt lat="43.47623211331665515899658203125" lon="-3.7105342559516429901123046875">
        <ele>34.59999847412109375</ele>
        <time>2018-09-05T08:52:04.000Z</time>
      </trkpt>
      <trkpt lat="43.476122729480266571044921875" lon="-3.7106792628765106201171875">
        <ele>35.40000152587890625</ele>
        <time>2018-09-05T08:52:11.000Z</time>
      </trkpt>
      <trkpt lat="43.47600446082651615142822265625" lon="-3.7107883952558040618896484375">
        <ele>34</ele>
        <time>2018-09-05T08:52:15.000Z</time>
      </trkpt>
      <trkpt lat="43.47590069286525249481201171875" lon="-3.71083374135196208953857421875">
        <ele>33.40000152587890625</ele>
        <time>2018-09-05T08:52:18.000Z</time>
      </trkpt>
      <trkpt lat="43.4758613817393779754638671875" lon="-3.71086022816598415374755859375">
        <ele>32.59999847412109375</ele>
        <time>2018-09-05T08:52:19.000Z</time>
      </trkpt>
      <trkpt lat="43.4758302010595798492431640625" lon="-3.71090079657733440399169921875">
        <ele>32.200000762939453125</ele>
        <time>2018-09-05T08:52:20.000Z</time>
      </trkpt>
      <trkpt lat="43.4758114255964756011962890625" lon="-3.71101713739335536956787109375">
        <ele>31.799999237060546875</ele>
        <time>2018-09-05T08:52:22.000Z</time>
      </trkpt>
      <trkpt lat="43.47587571479380130767822265625" lon="-3.7113308720290660858154296875">
        <ele>32</ele>
        <time>2018-09-05T08:52:27.000Z</time>
      </trkpt>
      <trkpt lat="43.47592650912702083587646484375" lon="-3.7115203030407428741455078125">
        <ele>31.200000762939453125</ele>
        <time>2018-09-05T08:52:30.000Z</time>
      </trkpt>
      <trkpt lat="43.47593740560114383697509765625" lon="-3.7116393260657787322998046875">
        <ele>31.3999996185302734375</ele>
        <time>2018-09-05T08:52:32.000Z</time>
      </trkpt>
      <trkpt lat="43.47592122852802276611328125" lon="-3.71176463551819324493408203125">
        <ele>30.799999237060546875</ele>
        <time>2018-09-05T08:52:34.000Z</time>
      </trkpt>
      <trkpt lat="43.4759089909493923187255859375" lon="-3.71181911788880825042724609375">
        <ele>30.799999237060546875</ele>
        <time>2018-09-05T08:52:35.000Z</time>
      </trkpt>
      <trkpt lat="43.475896418094635009765625" lon="-3.71186655946075916290283203125">
        <ele>31</ele>
        <time>2018-09-05T08:52:36.000Z</time>
      </trkpt>
      <trkpt lat="43.47585526295006275177001953125" lon="-3.71199949644505977630615234375">
        <ele>30.3999996185302734375</ele>
        <time>2018-09-05T08:52:39.000Z</time>
      </trkpt>
      <trkpt lat="43.47583564929664134979248046875" lon="-3.7120399810373783111572265625">
        <ele>29.799999237060546875</ele>
        <time>2018-09-05T08:52:40.000Z</time>
      </trkpt>
      <trkpt lat="43.475808240473270416259765625" lon="-3.71207929216325283050537109375">
        <ele>29.3999996185302734375</ele>
        <time>2018-09-05T08:52:41.000Z</time>
      </trkpt>
      <trkpt lat="43.47577312029898166656494140625" lon="-3.7121147476136684417724609375">
        <ele>28.799999237060546875</ele>
        <time>2018-09-05T08:52:42.000Z</time>
      </trkpt>
      <trkpt lat="43.47567136399447917938232421875" lon="-3.71227861382067203521728515625">
        <ele>27.799999237060546875</ele>
        <time>2018-09-05T08:52:45.000Z</time>
      </trkpt>
      <trkpt lat="43.47564152441918849945068359375" lon="-3.712343908846378326416015625">
        <ele>27.799999237060546875</ele>
        <time>2018-09-05T08:52:46.000Z</time>
      </trkpt>
      <trkpt lat="43.475538007915019989013671875" lon="-3.7125246226787567138671875">
        <ele>26.799999237060546875</ele>
        <time>2018-09-05T08:52:49.000Z</time>
      </trkpt>
      <trkpt lat="43.475501798093318939208984375" lon="-3.71257784776389598846435546875">
        <ele>26.6000003814697265625</ele>
        <time>2018-09-05T08:52:50.000Z</time>
      </trkpt>
      <trkpt lat="43.47547003068029880523681640625" lon="-3.71263660490512847900390625">
        <ele>26.6000003814697265625</ele>
        <time>2018-09-05T08:52:51.000Z</time>
      </trkpt>
      <trkpt lat="43.47542099654674530029296875" lon="-3.71276560239493846893310546875">
        <ele>26.3999996185302734375</ele>
        <time>2018-09-05T08:52:53.000Z</time>
      </trkpt>
      <trkpt lat="43.4753792546689510345458984375" lon="-3.7128902412950992584228515625">
        <ele>26.3999996185302734375</ele>
        <time>2018-09-05T08:52:55.000Z</time>
      </trkpt>
      <trkpt lat="43.47534530796110630035400390625" lon="-3.7130404449999332427978515625">
        <ele>27.799999237060546875</ele>
        <time>2018-09-05T08:52:59.000Z</time>
      </trkpt>
      <trkpt lat="43.47530658356845378875732421875" lon="-3.71322291903197765350341796875">
        <ele>27.3999996185302734375</ele>
        <time>2018-09-05T08:53:04.000Z</time>
      </trkpt>
      <trkpt lat="43.4752934239804744720458984375" lon="-3.71331025846302509307861328125">
        <ele>27.3999996185302734375</ele>
        <time>2018-09-05T08:53:06.000Z</time>
      </trkpt>
      <trkpt lat="43.47524799406528472900390625" lon="-3.71341385878622531890869140625">
        <ele>27.3999996185302734375</ele>
        <time>2018-09-05T08:53:09.000Z</time>
      </trkpt>
      <trkpt lat="43.47521002404391765594482421875" lon="-3.713481836020946502685546875">
        <ele>28</ele>
        <time>2018-09-05T08:53:11.000Z</time>
      </trkpt>
      <trkpt lat="43.4751754067838191986083984375" lon="-3.71354050934314727783203125">
        <ele>28.799999237060546875</ele>
        <time>2018-09-05T08:53:13.000Z</time>
      </trkpt>
      <trkpt lat="43.47514112479984760284423828125" lon="-3.71359926648437976837158203125">
        <ele>29.200000762939453125</ele>
        <time>2018-09-05T08:53:15.000Z</time>
      </trkpt>
      <trkpt lat="43.47511564381420612335205078125" lon="-3.7136721052229404449462890625">
        <ele>29.200000762939453125</ele>
        <time>2018-09-05T08:53:17.000Z</time>
      </trkpt>
      <trkpt lat="43.47510441206395626068115234375" lon="-3.7137817405164241790771484375">
        <ele>28.799999237060546875</ele>
        <time>2018-09-05T08:53:20.000Z</time>
      </trkpt>
      <trkpt lat="43.4751137159764766693115234375" lon="-3.71397527866065502166748046875">
        <ele>27.6000003814697265625</ele>
        <time>2018-09-05T08:53:24.000Z</time>
      </trkpt>
      <trkpt lat="43.47512067295610904693603515625" lon="-3.7140388973057270050048828125">
        <ele>27.200000762939453125</ele>
        <time>2018-09-05T08:53:25.000Z</time>
      </trkpt>
      <trkpt lat="43.4751254506409168243408203125" lon="-3.71417677961289882659912109375">
        <ele>26.200000762939453125</ele>
        <time>2018-09-05T08:53:27.000Z</time>
      </trkpt>
      <trkpt lat="43.4750882349908351898193359375" lon="-3.71435330249369144439697265625">
        <ele>26</ele>
        <time>2018-09-05T08:53:30.000Z</time>
      </trkpt>
      <trkpt lat="43.47506962716579437255859375" lon="-3.71439822949469089508056640625">
        <ele>26.200000762939453125</ele>
        <time>2018-09-05T08:53:31.000Z</time>
      </trkpt>
      <trkpt lat="43.47503366880118846893310546875" lon="-3.71450333856046199798583984375">
        <ele>25.799999237060546875</ele>
        <time>2018-09-05T08:53:33.000Z</time>
      </trkpt>
      <trkpt lat="43.475021012127399444580078125" lon="-3.71456511318683624267578125">
        <ele>25.200000762939453125</ele>
        <time>2018-09-05T08:53:34.000Z</time>
      </trkpt>
      <trkpt lat="43.4750087745487689971923828125" lon="-3.71462806127965450286865234375">
        <ele>25</ele>
        <time>2018-09-05T08:53:35.000Z</time>
      </trkpt>
      <trkpt lat="43.47497415728867053985595703125" lon="-3.714747838675975799560546875">
        <ele>25</ele>
        <time>2018-09-05T08:53:37.000Z</time>
      </trkpt>
      <trkpt lat="43.47491146065294742584228515625" lon="-3.714835345745086669921875">
        <ele>25</ele>
        <time>2018-09-05T08:53:39.000Z</time>
      </trkpt>
      <trkpt lat="43.474853374063968658447265625" lon="-3.71489309705793857574462890625">
        <ele>26</ele>
        <time>2018-09-05T08:53:41.000Z</time>
      </trkpt>
      <trkpt lat="43.47480081953108310699462890625" lon="-3.714999295771121978759765625">
        <ele>26.3999996185302734375</ele>
        <time>2018-09-05T08:53:44.000Z</time>
      </trkpt>
      <trkpt lat="43.47475488670170307159423828125" lon="-3.71517355553805828094482421875">
        <ele>25.200000762939453125</ele>
        <time>2018-09-05T08:53:47.000Z</time>
      </trkpt>
      <trkpt lat="43.47474415786564350128173828125" lon="-3.715243041515350341796875">
        <ele>25</ele>
        <time>2018-09-05T08:53:48.000Z</time>
      </trkpt>
      <trkpt lat="43.47471917979419231414794921875" lon="-3.71552794240415096282958984375">
        <ele>25.799999237060546875</ele>
        <time>2018-09-05T08:53:53.000Z</time>
      </trkpt>
      <trkpt lat="43.474717251956462860107421875" lon="-3.71556465514004230499267578125">
        <ele>26.200000762939453125</ele>
        <time>2018-09-05T08:53:54.000Z</time>
      </trkpt>
      <trkpt lat="43.4747023321688175201416015625" lon="-3.71565618552267551422119140625">
        <ele>27</ele>
        <time>2018-09-05T08:53:57.000Z</time>
      </trkpt>
      <trkpt lat="43.47469654865562915802001953125" lon="-3.71569474227726459503173828125">
        <ele>27.200000762939453125</ele>
        <time>2018-09-05T08:53:58.000Z</time>
      </trkpt>
      <trkpt lat="43.47465866245329380035400390625" lon="-3.71582382358610630035400390625">
        <ele>26.799999237060546875</ele>
        <time>2018-09-05T08:54:02.000Z</time>
      </trkpt>
      <trkpt lat="43.474642150104045867919921875" lon="-3.715848885476589202880859375">
        <ele>26.6000003814697265625</ele>
        <time>2018-09-05T08:54:03.000Z</time>
      </trkpt>
      <trkpt lat="43.47455464303493499755859375" lon="-3.71588383801281452178955078125">
        <ele>26</ele>
        <time>2018-09-05T08:54:06.000Z</time>
      </trkpt>
      <trkpt lat="43.474513404071331024169921875" lon="-3.715899176895618438720703125">
        <ele>25.3999996185302734375</ele>
        <time>2018-09-05T08:54:07.000Z</time>
      </trkpt>
      <trkpt lat="43.47447811625897884368896484375" lon="-3.715933375060558319091796875">
        <ele>25.200000762939453125</ele>
        <time>2018-09-05T08:54:08.000Z</time>
      </trkpt>
      <trkpt lat="43.4744064509868621826171875" lon="-3.716003783047199249267578125">
        <ele>25.200000762939453125</ele>
        <time>2018-09-05T08:54:10.000Z</time>
      </trkpt>
      <trkpt lat="43.4742926247417926788330078125" lon="-3.716054074466228485107421875">
        <ele>25.799999237060546875</ele>
        <time>2018-09-05T08:54:14.000Z</time>
      </trkpt>
      <trkpt lat="43.4741940535604953765869140625" lon="-3.715980984270572662353515625">
        <ele>26.799999237060546875</ele>
        <time>2018-09-05T08:54:19.000Z</time>
      </trkpt>
      <trkpt lat="43.47412406466901302337646484375" lon="-3.7159846723079681396484375">
        <ele>27</ele>
        <time>2018-09-05T08:54:22.000Z</time>
      </trkpt>
      <trkpt lat="43.47410277463495731353759765625" lon="-3.71599447913467884063720703125">
        <ele>27.6000003814697265625</ele>
        <time>2018-09-05T08:54:23.000Z</time>
      </trkpt>
      <trkpt lat="43.4740819036960601806640625" lon="-3.71600721962749958038330078125">
        <ele>27.799999237060546875</ele>
        <time>2018-09-05T08:54:24.000Z</time>
      </trkpt>
      <trkpt lat="43.4739898703992366790771484375" lon="-3.71616077609360218048095703125">
        <ele>27.799999237060546875</ele>
        <time>2018-09-05T08:54:29.000Z</time>
      </trkpt>
      <trkpt lat="43.4739667363464832305908203125" lon="-3.7163134105503559112548828125">
        <ele>27.3999996185302734375</ele>
        <time>2018-09-05T08:54:32.000Z</time>
      </trkpt>
      <trkpt lat="43.4739664010703563690185546875" lon="-3.716417513787746429443359375">
        <ele>27.200000762939453125</ele>
        <time>2018-09-05T08:54:34.000Z</time>
      </trkpt>
      <trkpt lat="43.47392122261226177215576171875" lon="-3.7166745029389858245849609375">
        <ele>26.3999996185302734375</ele>
        <time>2018-09-05T08:54:39.000Z</time>
      </trkpt>
      <trkpt lat="43.47390311770141124725341796875" lon="-3.716727308928966522216796875">
        <ele>26.3999996185302734375</ele>
        <time>2018-09-05T08:54:40.000Z</time>
      </trkpt>
      <trkpt lat="43.473871685564517974853515625" lon="-3.71682210825383663177490234375">
        <ele>26.3999996185302734375</ele>
        <time>2018-09-05T08:54:42.000Z</time>
      </trkpt>
      <trkpt lat="43.4738393314182758331298828125" lon="-3.71692738495767116546630859375">
        <ele>26.799999237060546875</ele>
        <time>2018-09-05T08:54:45.000Z</time>
      </trkpt>
      <trkpt lat="43.47382214851677417755126953125" lon="-3.71706702746450901031494140625">
        <ele>26.3999996185302734375</ele>
        <time>2018-09-05T08:54:51.000Z</time>
      </trkpt>
      <trkpt lat="43.4738110005855560302734375" lon="-3.7171257846057415008544921875">
        <ele>25.799999237060546875</ele>
        <time>2018-09-05T08:54:53.000Z</time>
      </trkpt>
      <trkpt lat="43.47378996200859546661376953125" lon="-3.7172049097716808319091796875">
        <ele>25.6000003814697265625</ele>
        <time>2018-09-05T08:54:55.000Z</time>
      </trkpt>
      <trkpt lat="43.47377755679190158843994140625" lon="-3.71724891476333141326904296875">
        <ele>25.3999996185302734375</ele>
        <time>2018-09-05T08:54:56.000Z</time>
      </trkpt>
      <trkpt lat="43.47372609190642833709716796875" lon="-3.71750456281006336212158203125">
        <ele>25.200000762939453125</ele>
        <time>2018-09-05T08:55:02.000Z</time>
      </trkpt>
      <trkpt lat="43.47364948131144046783447265625" lon="-3.7178112566471099853515625">
        <ele>25</ele>
        <time>2018-09-05T08:55:09.000Z</time>
      </trkpt>
      <trkpt lat="43.47363489679992198944091796875" lon="-3.71787856332957744598388671875">
        <ele>26.200000762939453125</ele>
        <time>2018-09-05T08:55:11.000Z</time>
      </trkpt>
      <trkpt lat="43.47363187931478023529052734375" lon="-3.71805910952389240264892578125">
        <ele>26</ele>
        <time>2018-09-05T08:55:15.000Z</time>
      </trkpt>
      <trkpt lat="43.473627269268035888671875" lon="-3.7181637994945049285888671875">
        <ele>25.799999237060546875</ele>
        <time>2018-09-05T08:55:17.000Z</time>
      </trkpt>
      <trkpt lat="43.4736324660480022430419921875" lon="-3.7183471955358982086181640625">
        <ele>26.6000003814697265625</ele>
        <time>2018-09-05T08:55:21.000Z</time>
      </trkpt>
      <trkpt lat="43.47363640554249286651611328125" lon="-3.71838432736694812774658203125">
        <ele>27</ele>
        <time>2018-09-05T08:55:22.000Z</time>
      </trkpt>
      <trkpt lat="43.47365400753915309906005859375" lon="-3.7184496223926544189453125">
        <ele>27.3999996185302734375</ele>
        <time>2018-09-05T08:55:24.000Z</time>
      </trkpt>
      <trkpt lat="43.4736742079257965087890625" lon="-3.71856587938964366912841796875">
        <ele>27.200000762939453125</ele>
        <time>2018-09-05T08:55:27.000Z</time>
      </trkpt>
      <trkpt lat="43.4737377427518367767333984375" lon="-3.718788586556911468505859375">
        <ele>25.799999237060546875</ele>
        <time>2018-09-05T08:55:31.000Z</time>
      </trkpt>
      <trkpt lat="43.47375643439590930938720703125" lon="-3.7188504450023174285888671875">
        <ele>25.6000003814697265625</ele>
        <time>2018-09-05T08:55:32.000Z</time>
      </trkpt>
      <trkpt lat="43.473805971443653106689453125" lon="-3.7190351821482181549072265625">
        <ele>24.799999237060546875</ele>
        <time>2018-09-05T08:55:35.000Z</time>
      </trkpt>
      <trkpt lat="43.4738115034997463226318359375" lon="-3.7191005609929561614990234375">
        <ele>24.799999237060546875</ele>
        <time>2018-09-05T08:55:36.000Z</time>
      </trkpt>
      <trkpt lat="43.47380957566201686859130859375" lon="-3.71921204030513763427734375">
        <ele>24.6000003814697265625</ele>
        <time>2018-09-05T08:55:38.000Z</time>
      </trkpt>
      <trkpt lat="43.47379415296018123626708984375" lon="-3.7192658521234989166259765625">
        <ele>24.3999996185302734375</ele>
        <time>2018-09-05T08:55:39.000Z</time>
      </trkpt>
      <trkpt lat="43.47373363561928272247314453125" lon="-3.71943357400596141815185546875">
        <ele>24.6000003814697265625</ele>
        <time>2018-09-05T08:55:42.000Z</time>
      </trkpt>
      <trkpt lat="43.47370983101427555084228515625" lon="-3.719483949244022369384765625">
        <ele>24.6000003814697265625</ele>
        <time>2018-09-05T08:55:43.000Z</time>
      </trkpt>
      <trkpt lat="43.4735986031591892242431640625" lon="-3.71971621178090572357177734375">
        <ele>24.799999237060546875</ele>
        <time>2018-09-05T08:55:48.000Z</time>
      </trkpt>
      <trkpt lat="43.47354747354984283447265625" lon="-3.7198160402476787567138671875">
        <ele>25</ele>
        <time>2018-09-05T08:55:51.000Z</time>
      </trkpt>
      <trkpt lat="43.473491482436656951904296875" lon="-3.71990916319191455841064453125">
        <ele>25.6000003814697265625</ele>
        <time>2018-09-05T08:55:54.000Z</time>
      </trkpt>
      <trkpt lat="43.4734017960727214813232421875" lon="-3.72006271965801715850830078125">
        <ele>25.3999996185302734375</ele>
        <time>2018-09-05T08:55:58.000Z</time>
      </trkpt>
      <trkpt lat="43.473311103880405426025390625" lon="-3.7202146835625171661376953125">
        <ele>25.6000003814697265625</ele>
        <time>2018-09-05T08:56:02.000Z</time>
      </trkpt>
      <trkpt lat="43.47320356406271457672119140625" lon="-3.72049639932811260223388671875">
        <ele>25.200000762939453125</ele>
        <time>2018-09-05T08:56:08.000Z</time>
      </trkpt>
      <trkpt lat="43.47319568507373332977294921875" lon="-3.7205523066222667694091796875">
        <ele>25</ele>
        <time>2018-09-05T08:56:09.000Z</time>
      </trkpt>
      <trkpt lat="43.473191075026988983154296875" lon="-3.7207236327230930328369140625">
        <ele>25.200000762939453125</ele>
        <time>2018-09-05T08:56:12.000Z</time>
      </trkpt>
      <trkpt lat="43.473203144967555999755859375" lon="-3.72082673013210296630859375">
        <ele>25.6000003814697265625</ele>
        <time>2018-09-05T08:56:14.000Z</time>
      </trkpt>
      <trkpt lat="43.473215885460376739501953125" lon="-3.72102982364594936370849609375">
        <ele>25.3999996185302734375</ele>
        <time>2018-09-05T08:56:18.000Z</time>
      </trkpt>
      <trkpt lat="43.47318830899894237518310546875" lon="-3.72113342396914958953857421875">
        <ele>24.799999237060546875</ele>
        <time>2018-09-05T08:56:20.000Z</time>
      </trkpt>
      <trkpt lat="43.473123349249362945556640625" lon="-3.7212309055030345916748046875">
        <ele>24.799999237060546875</ele>
        <time>2018-09-05T08:56:22.000Z</time>
      </trkpt>
      <trkpt lat="43.473090492188930511474609375" lon="-3.7212791852653026580810546875">
        <ele>24</ele>
        <time>2018-09-05T08:56:23.000Z</time>
      </trkpt>
      <trkpt lat="43.47303642891347408294677734375" lon="-3.7213898263871669769287109375">
        <ele>23.6000003814697265625</ele>
        <time>2018-09-05T08:56:25.000Z</time>
      </trkpt>
      <trkpt lat="43.47297616302967071533203125" lon="-3.7215973623096942901611328125">
        <ele>22.6000003814697265625</ele>
        <time>2018-09-05T08:56:28.000Z</time>
      </trkpt>
      <trkpt lat="43.47296250052750110626220703125" lon="-3.72167539782822132110595703125">
        <ele>22.6000003814697265625</ele>
        <time>2018-09-05T08:56:29.000Z</time>
      </trkpt>
      <trkpt lat="43.47294665873050689697265625" lon="-3.72183096595108509063720703125">
        <ele>22.200000762939453125</ele>
        <time>2018-09-05T08:56:31.000Z</time>
      </trkpt>
      <trkpt lat="43.47292788326740264892578125" lon="-3.72197396121919155120849609375">
        <ele>21.799999237060546875</ele>
        <time>2018-09-05T08:56:33.000Z</time>
      </trkpt>
      <trkpt lat="43.4729109518229961395263671875" lon="-3.7220422737300395965576171875">
        <ele>21.6000003814697265625</ele>
        <time>2018-09-05T08:56:34.000Z</time>
      </trkpt>
      <trkpt lat="43.47281992435455322265625" lon="-3.722206391394138336181640625">
        <ele>21</ele>
        <time>2018-09-05T08:56:37.000Z</time>
      </trkpt>
      <trkpt lat="43.47278195433318614959716796875" lon="-3.7222501449286937713623046875">
        <ele>20.3999996185302734375</ele>
        <time>2018-09-05T08:56:38.000Z</time>
      </trkpt>
      <trkpt lat="43.47274708561599254608154296875" lon="-3.72229934670031070709228515625">
        <ele>20.3999996185302734375</ele>
        <time>2018-09-05T08:56:39.000Z</time>
      </trkpt>
      <trkpt lat="43.47267131321132183074951171875" lon="-3.72243194840848445892333984375">
        <ele>20.3999996185302734375</ele>
        <time>2018-09-05T08:56:42.000Z</time>
      </trkpt>
      <trkpt lat="43.47266041673719882965087890625" lon="-3.72258550487458705902099609375">
        <ele>20.3999996185302734375</ele>
        <time>2018-09-05T08:56:47.000Z</time>
      </trkpt>
      <trkpt lat="43.47263962961733341217041015625" lon="-3.72269597835838794708251953125">
        <ele>20.200000762939453125</ele>
        <time>2018-09-05T08:56:52.000Z</time>
      </trkpt>
      <trkpt lat="43.47263694740831851959228515625" lon="-3.72277527116239070892333984375">
        <ele>20.200000762939453125</ele>
        <time>2018-09-05T08:56:56.000Z</time>
      </trkpt>
      <trkpt lat="43.47261750139296054840087890625" lon="-3.72284366749227046966552734375">
        <ele>20</ele>
        <time>2018-09-05T08:56:58.000Z</time>
      </trkpt>
      <trkpt lat="43.47252865321934223175048828125" lon="-3.72304298914968967437744140625">
        <ele>19.6000003814697265625</ele>
        <time>2018-09-05T08:57:03.000Z</time>
      </trkpt>
      <trkpt lat="43.47250945866107940673828125" lon="-3.7230879999697208404541015625">
        <ele>19.3999996185302734375</ele>
        <time>2018-09-05T08:57:04.000Z</time>
      </trkpt>
      <trkpt lat="43.47242094576358795166015625" lon="-3.72323376126587390899658203125">
        <ele>19.200000762939453125</ele>
        <time>2018-09-05T08:57:08.000Z</time>
      </trkpt>
      <trkpt lat="43.47237442620098590850830078125" lon="-3.723294027149677276611328125">
        <ele>19.200000762939453125</ele>
        <time>2018-09-05T08:57:10.000Z</time>
      </trkpt>
      <trkpt lat="43.4722742624580860137939453125" lon="-3.723442219197750091552734375">
        <ele>19.3999996185302734375</ele>
        <time>2018-09-05T08:57:16.000Z</time>
      </trkpt>
      <trkpt lat="43.4722031839191913604736328125" lon="-3.7235754914581775665283203125">
        <ele>19</ele>
        <time>2018-09-05T08:57:21.000Z</time>
      </trkpt>
      <trkpt lat="43.47218046896159648895263671875" lon="-3.72361077927052974700927734375">
        <ele>19</ele>
        <time>2018-09-05T08:57:22.000Z</time>
      </trkpt>
      <trkpt lat="43.47212431021034717559814453125" lon="-3.7236824445426464080810546875">
        <ele>18.200000762939453125</ele>
        <time>2018-09-05T08:57:24.000Z</time>
      </trkpt>
      <trkpt lat="43.47205088473856449127197265625" lon="-3.7238054908812046051025390625">
        <ele>18</ele>
        <time>2018-09-05T08:57:27.000Z</time>
      </trkpt>
      <trkpt lat="43.47202775068581104278564453125" lon="-3.72384287416934967041015625">
        <ele>18</ele>
        <time>2018-09-05T08:57:28.000Z</time>
      </trkpt>
      <trkpt lat="43.47196706570684909820556640625" lon="-3.72396893799304962158203125">
        <ele>18</ele>
        <time>2018-09-05T08:57:31.000Z</time>
      </trkpt>
      <trkpt lat="43.47189766354858875274658203125" lon="-3.7240666709840297698974609375">
        <ele>17.6000003814697265625</ele>
        <time>2018-09-05T08:57:34.000Z</time>
      </trkpt>
      <trkpt lat="43.47187402658164501190185546875" lon="-3.72409768402576446533203125">
        <ele>17</ele>
        <time>2018-09-05T08:57:35.000Z</time>
      </trkpt>
      <trkpt lat="43.47178149037063121795654296875" lon="-3.72423154301941394805908203125">
        <ele>15.6000003814697265625</ele>
        <time>2018-09-05T08:57:39.000Z</time>
      </trkpt>
      <trkpt lat="43.47175098024308681488037109375" lon="-3.72426289133727550506591796875">
        <ele>15.19999980926513671875</ele>
        <time>2018-09-05T08:57:40.000Z</time>
      </trkpt>
      <trkpt lat="43.4716895408928394317626953125" lon="-3.72433774173259735107421875">
        <ele>14.3999996185302734375</ele>
        <time>2018-09-05T08:57:42.000Z</time>
      </trkpt>
      <trkpt lat="43.471585772931575775146484375" lon="-3.7244438566267490386962890625">
        <ele>13.19999980926513671875</ele>
        <time>2018-09-05T08:57:45.000Z</time>
      </trkpt>
      <trkpt lat="43.4715333022177219390869140625" lon="-3.72451636008918285369873046875">
        <ele>12.3999996185302734375</ele>
        <time>2018-09-05T08:57:47.000Z</time>
      </trkpt>
      <trkpt lat="43.47151209600269794464111328125" lon="-3.724545277655124664306640625">
        <ele>12.19999980926513671875</ele>
        <time>2018-09-05T08:57:48.000Z</time>
      </trkpt>
      <trkpt lat="43.47145979292690753936767578125" lon="-3.72462247498333454132080078125">
        <ele>11</ele>
        <time>2018-09-05T08:57:51.000Z</time>
      </trkpt>
      <trkpt lat="43.471442274749279022216796875" lon="-3.7246446870267391204833984375">
        <ele>10.6000003814697265625</ele>
        <time>2018-09-05T08:57:52.000Z</time>
      </trkpt>
      <trkpt lat="43.47139106132090091705322265625" lon="-3.72471651993691921234130859375">
        <ele>9.6000003814697265625</ele>
        <time>2018-09-05T08:57:55.000Z</time>
      </trkpt>
      <trkpt lat="43.4713636524975299835205078125" lon="-3.7247697450220584869384765625">
        <ele>8.80000019073486328125</ele>
        <time>2018-09-05T08:57:57.000Z</time>
      </trkpt>
      <trkpt lat="43.471351750195026397705078125" lon="-3.7247891910374164581298828125">
        <ele>8.6000003814697265625</ele>
        <time>2018-09-05T08:57:58.000Z</time>
      </trkpt>
      <trkpt lat="43.47132484428584575653076171875" lon="-3.7248451821506023406982421875">
        <ele>8.19999980926513671875</ele>
        <time>2018-09-05T08:58:00.000Z</time>
      </trkpt>
      <trkpt lat="43.47126734443008899688720703125" lon="-3.7249521352350711822509765625">
        <ele>8</ele>
        <time>2018-09-05T08:58:03.000Z</time>
      </trkpt>
      <trkpt lat="43.47120699472725391387939453125" lon="-3.7250532209873199462890625">
        <ele>7.400000095367431640625</ele>
        <time>2018-09-05T08:58:06.000Z</time>
      </trkpt>
      <trkpt lat="43.47111864946782588958740234375" lon="-3.725151456892490386962890625">
        <ele>6.80000019073486328125</ele>
        <time>2018-09-05T08:58:09.000Z</time>
      </trkpt>
      <trkpt lat="43.47106668166816234588623046875" lon="-3.72524223290383815765380859375">
        <ele>6.19999980926513671875</ele>
        <time>2018-09-05T08:58:11.000Z</time>
      </trkpt>
      <trkpt lat="43.47097330726683139801025390625" lon="-3.7254630960524082183837890625">
        <ele>5</ele>
        <time>2018-09-05T08:58:15.000Z</time>
      </trkpt>
      <trkpt lat="43.47089032642543315887451171875" lon="-3.72566945850849151611328125">
        <ele>4.80000019073486328125</ele>
        <time>2018-09-05T08:58:19.000Z</time>
      </trkpt>
      <trkpt lat="43.4708659350872039794921875" lon="-3.7257266230881214141845703125">
        <ele>4.400000095367431640625</ele>
        <time>2018-09-05T08:58:20.000Z</time>
      </trkpt>
      <trkpt lat="43.470812626183032989501953125" lon="-3.72583868913352489471435546875">
        <ele>3.7999999523162841796875</ele>
        <time>2018-09-05T08:58:22.000Z</time>
      </trkpt>
      <trkpt lat="43.47068228758871555328369140625" lon="-3.7260266952216625213623046875">
        <ele>3.400000095367431640625</ele>
        <time>2018-09-05T08:58:26.000Z</time>
      </trkpt>
      <trkpt lat="43.47060617990791797637939453125" lon="-3.726070113480091094970703125">
        <ele>3.2000000476837158203125</ele>
        <time>2018-09-05T08:58:28.000Z</time>
      </trkpt>
      <trkpt lat="43.470535688102245330810546875" lon="-3.72605745680630207061767578125">
        <ele>3.400000095367431640625</ele>
        <time>2018-09-05T08:58:30.000Z</time>
      </trkpt>
      <trkpt lat="43.470488749444484710693359375" lon="-3.7260391004383563995361328125">
        <ele>4</ele>
        <time>2018-09-05T08:58:32.000Z</time>
      </trkpt>
      <trkpt lat="43.4704651124775409698486328125" lon="-3.72602812014520168304443359375">
        <ele>4.19999980926513671875</ele>
        <time>2018-09-05T08:58:33.000Z</time>
      </trkpt>
      <trkpt lat="43.47041809000074863433837890625" lon="-3.72600917704403400421142578125">
        <ele>4.599999904632568359375</ele>
        <time>2018-09-05T08:58:35.000Z</time>
      </trkpt>
      <trkpt lat="43.47036411054432392120361328125" lon="-3.72599526308476924896240234375">
        <ele>5</ele>
        <time>2018-09-05T08:58:37.000Z</time>
      </trkpt>
      <trkpt lat="43.47031465731561183929443359375" lon="-3.72598721645772457122802734375">
        <ele>5.19999980926513671875</ele>
        <time>2018-09-05T08:58:39.000Z</time>
      </trkpt>
      <trkpt lat="43.470237292349338531494140625" lon="-3.7260018847882747650146484375">
        <ele>5.400000095367431640625</ele>
        <time>2018-09-05T08:58:42.000Z</time>
      </trkpt>
      <trkpt lat="43.47016445361077785491943359375" lon="-3.72604572214186191558837890625">
        <ele>5.19999980926513671875</ele>
        <time>2018-09-05T08:58:45.000Z</time>
      </trkpt>
      <trkpt lat="43.47007242031395435333251953125" lon="-3.72610473074018955230712890625">
        <ele>3.7999999523162841796875</ele>
        <time>2018-09-05T08:58:48.000Z</time>
      </trkpt>
      <trkpt lat="43.46998742781579494476318359375" lon="-3.726122081279754638671875">
        <ele>2.599999904632568359375</ele>
        <time>2018-09-05T08:58:50.000Z</time>
      </trkpt>
      <trkpt lat="43.4698964841663837432861328125" lon="-3.72615368105471134185791015625">
        <ele>2.400000095367431640625</ele>
        <time>2018-09-05T08:58:54.000Z</time>
      </trkpt>
      <trkpt lat="43.4698240645229816436767578125" lon="-3.7261976860463619232177734375">
        <ele>2.400000095367431640625</ele>
        <time>2018-09-05T08:58:58.000Z</time>
      </trkpt>
      <trkpt lat="43.4698059596121311187744140625" lon="-3.72619391418993473052978515625">
        <ele>1.7999999523162841796875</ele>
        <time>2018-09-05T08:58:59.000Z</time>
      </trkpt>
      <trkpt lat="43.469777964055538177490234375" lon="-3.72615233995020389556884765625">
        <ele>2.400000095367431640625</ele>
        <time>2018-09-05T08:59:01.000Z</time>
      </trkpt>
      <trkpt lat="43.469770252704620361328125" lon="-3.726090900599956512451171875">
        <ele>2.400000095367431640625</ele>
        <time>2018-09-05T08:59:03.000Z</time>
      </trkpt>
      <trkpt lat="43.46979145891964435577392578125" lon="-3.7259589694440364837646484375">
        <ele>2.7999999523162841796875</ele>
        <time>2018-09-05T08:59:07.000Z</time>
      </trkpt>
      <trkpt lat="43.469792716205120086669921875" lon="-3.72592954896390438079833984375">
        <ele>2.7999999523162841796875</ele>
        <time>2018-09-05T08:59:08.000Z</time>
      </trkpt>
      <trkpt lat="43.46980604343116283416748046875" lon="-3.725802563130855560302734375">
        <ele>3.7999999523162841796875</ele>
        <time>2018-09-05T08:59:12.000Z</time>
      </trkpt>
      <trkpt lat="43.46982096321880817413330078125" lon="-3.72568245045840740203857421875">
        <ele>4.599999904632568359375</ele>
        <time>2018-09-05T08:59:16.000Z</time>
      </trkpt>
      <trkpt lat="43.4698210470378398895263671875" lon="-3.725651688873767852783203125">
        <ele>5</ele>
        <time>2018-09-05T08:59:17.000Z</time>
      </trkpt>
      <trkpt lat="43.4698240645229816436767578125" lon="-3.7255519442260265350341796875">
        <ele>5.599999904632568359375</ele>
        <time>2018-09-05T08:59:20.000Z</time>
      </trkpt>
      <trkpt lat="43.46983806230127811431884765625" lon="-3.72546837665140628814697265625">
        <ele>5.80000019073486328125</ele>
        <time>2018-09-05T08:59:23.000Z</time>
      </trkpt>
      <trkpt lat="43.46984200179576873779296875" lon="-3.72544021345674991607666015625">
        <ele>6</ele>
        <time>2018-09-05T08:59:24.000Z</time>
      </trkpt>
      <trkpt lat="43.4698493778705596923828125" lon="-3.725285232067108154296875">
        <ele>6.400000095367431640625</ele>
        <time>2018-09-05T08:59:30.000Z</time>
      </trkpt>
      <trkpt lat="43.4698656387627124786376953125" lon="-3.7250855751335620880126953125">
        <ele>6.80000019073486328125</ele>
        <time>2018-09-05T08:59:38.000Z</time>
      </trkpt>
      <trkpt lat="43.46988801844418048858642578125" lon="-3.72491441667079925537109375">
        <ele>6.599999904632568359375</ele>
        <time>2018-09-05T08:59:43.000Z</time>
      </trkpt>
      <trkpt lat="43.4698922932147979736328125" lon="-3.72483219020068645477294921875">
        <ele>6.599999904632568359375</ele>
        <time>2018-09-05T08:59:45.000Z</time>
      </trkpt>
      <trkpt lat="43.46989723853766918182373046875" lon="-3.72478759847581386566162109375">
        <ele>6.599999904632568359375</ele>
        <time>2018-09-05T08:59:46.000Z</time>
      </trkpt>
      <trkpt lat="43.4699011780321598052978515625" lon="-3.7247420847415924072265625">
        <ele>6.599999904632568359375</ele>
        <time>2018-09-05T08:59:47.000Z</time>
      </trkpt>
      <trkpt lat="43.46991634927690029144287109375" lon="-3.72448216192424297332763671875">
        <ele>6.19999980926513671875</ele>
        <time>2018-09-05T08:59:52.000Z</time>
      </trkpt>
      <trkpt lat="43.469920456409454345703125" lon="-3.72442851774394512176513671875">
        <ele>6</ele>
        <time>2018-09-05T08:59:53.000Z</time>
      </trkpt>
      <trkpt lat="43.469948284327983856201171875" lon="-3.724006153643131256103515625">
        <ele>5.400000095367431640625</ele>
        <time>2018-09-05T09:00:00.000Z</time>
      </trkpt>
      <trkpt lat="43.4699538163840770721435546875" lon="-3.7238730490207672119140625">
        <ele>5.19999980926513671875</ele>
        <time>2018-09-05T09:00:02.000Z</time>
      </trkpt>
      <trkpt lat="43.46996806561946868896484375" lon="-3.72366643510758876800537109375">
        <ele>5</ele>
        <time>2018-09-05T09:00:05.000Z</time>
      </trkpt>
      <trkpt lat="43.46999044530093669891357421875" lon="-3.7231515347957611083984375">
        <ele>4.400000095367431640625</ele>
        <time>2018-09-05T09:00:12.000Z</time>
      </trkpt>
      <trkpt lat="43.4700131602585315704345703125" lon="-3.72279547154903411865234375">
        <ele>4.19999980926513671875</ele>
        <time>2018-09-05T09:00:17.000Z</time>
      </trkpt>
      <trkpt lat="43.470024056732654571533203125" lon="-3.72259120456874370574951171875">
        <ele>4.19999980926513671875</ele>
        <time>2018-09-05T09:00:20.000Z</time>
      </trkpt>
      <trkpt lat="43.4700205363333225250244140625" lon="-3.72247084043920040130615234375">
        <ele>4.19999980926513671875</ele>
        <time>2018-09-05T09:00:22.000Z</time>
      </trkpt>
      <trkpt lat="43.46998726017773151397705078125" lon="-3.72238576412200927734375">
        <ele>4.400000095367431640625</ele>
        <time>2018-09-05T09:00:24.000Z</time>
      </trkpt>
      <trkpt lat="43.46988583914935588836669921875" lon="-3.72232139110565185546875">
        <ele>5.19999980926513671875</ele>
        <time>2018-09-05T09:00:28.000Z</time>
      </trkpt>
      <trkpt lat="43.469781987369060516357421875" lon="-3.72234008274972438812255859375">
        <ele>5.80000019073486328125</ele>
        <time>2018-09-05T09:00:32.000Z</time>
      </trkpt>
      <trkpt lat="43.46976262517273426055908203125" lon="-3.72234527952969074249267578125">
        <ele>6</ele>
        <time>2018-09-05T09:00:33.000Z</time>
      </trkpt>
      <trkpt lat="43.46960454247891902923583984375" lon="-3.7223939783871173858642578125">
        <ele>6.80000019073486328125</ele>
        <time>2018-09-05T09:00:39.000Z</time>
      </trkpt>
      <trkpt lat="43.46957554109394550323486328125" lon="-3.722405545413494110107421875">
        <ele>7</ele>
        <time>2018-09-05T09:00:40.000Z</time>
      </trkpt>
      <trkpt lat="43.46954670734703540802001953125" lon="-3.72241593897342681884765625">
        <ele>7.19999980926513671875</ele>
        <time>2018-09-05T09:00:41.000Z</time>
      </trkpt>
      <trkpt lat="43.46948686055839061737060546875" lon="-3.7224311940371990203857421875">
        <ele>7.400000095367431640625</ele>
        <time>2018-09-05T09:00:43.000Z</time>
      </trkpt>
      <trkpt lat="43.4693942405283451080322265625" lon="-3.7224365584552288055419921875">
        <ele>8.19999980926513671875</ele>
        <time>2018-09-05T09:00:46.000Z</time>
      </trkpt>
      <trkpt lat="43.46933330409228801727294921875" lon="-3.722438402473926544189453125">
        <ele>8.80000019073486328125</ele>
        <time>2018-09-05T09:00:48.000Z</time>
      </trkpt>
      <trkpt lat="43.4692728705704212188720703125" lon="-3.72243898920714855194091796875">
        <ele>9.19999980926513671875</ele>
        <time>2018-09-05T09:00:50.000Z</time>
      </trkpt>
      <trkpt lat="43.4691776521503925323486328125" lon="-3.72243278659880161285400390625">
        <ele>9.6000003814697265625</ele>
        <time>2018-09-05T09:00:53.000Z</time>
      </trkpt>
      <trkpt lat="43.469016216695308685302734375" lon="-3.72238911688327789306640625">
        <ele>9.3999996185302734375</ele>
        <time>2018-09-05T09:00:58.000Z</time>
      </trkpt>
      <trkpt lat="43.4688396938145160675048828125" lon="-3.72231133282184600830078125">
        <ele>8</ele>
        <time>2018-09-05T09:01:02.000Z</time>
      </trkpt>
      <trkpt lat="43.4687837027013301849365234375" lon="-3.72228643856942653656005859375">
        <ele>7.599999904632568359375</ele>
        <time>2018-09-05T09:01:03.000Z</time>
      </trkpt>
      <trkpt lat="43.4687230177223682403564453125" lon="-3.7222538329660892486572265625">
        <ele>7</ele>
        <time>2018-09-05T09:01:04.000Z</time>
      </trkpt>
      <trkpt lat="43.46858932636678218841552734375" lon="-3.72217630036175251007080078125">
        <ele>5.599999904632568359375</ele>
        <time>2018-09-05T09:01:06.000Z</time>
      </trkpt>
      <trkpt lat="43.468434847891330718994140625" lon="-3.722077645361423492431640625">
        <ele>4</ele>
        <time>2018-09-05T09:01:08.000Z</time>
      </trkpt>
      <trkpt lat="43.4682502783834934234619140625" lon="-3.72198821045458316802978515625">
        <ele>3</ele>
        <time>2018-09-05T09:01:10.000Z</time>
      </trkpt>
      <trkpt lat="43.46806914545595645904541015625" lon="-3.7219048105180263519287109375">
        <ele>1.7999999523162841796875</ele>
        <time>2018-09-05T09:01:12.000Z</time>
      </trkpt>
      <trkpt lat="43.46798247657716274261474609375" lon="-3.72186667285859584808349609375">
        <ele>2</ele>
        <time>2018-09-05T09:01:13.000Z</time>
      </trkpt>
      <trkpt lat="43.4675985015928745269775390625" lon="-3.72170473448932170867919921875">
        <ele>3</ele>
        <time>2018-09-05T09:01:18.000Z</time>
      </trkpt>
      <trkpt lat="43.46753270365297794342041015625" lon="-3.721676655113697052001953125">
        <ele>3.2000000476837158203125</ele>
        <time>2018-09-05T09:01:19.000Z</time>
      </trkpt>
      <trkpt lat="43.4671743772923946380615234375" lon="-3.7215111963450908660888671875">
        <ele>4</ele>
        <time>2018-09-05T09:01:25.000Z</time>
      </trkpt>
      <trkpt lat="43.46711796708405017852783203125" lon="-3.72148898430168628692626953125">
        <ele>4</ele>
        <time>2018-09-05T09:01:26.000Z</time>
      </trkpt>
      <trkpt lat="43.4669088385999202728271484375" lon="-3.721397705376148223876953125">
        <ele>3.7999999523162841796875</ele>
        <time>2018-09-05T09:01:30.000Z</time>
      </trkpt>
      <trkpt lat="43.46673323772847652435302734375" lon="-3.721321262419223785400390625">
        <ele>2.7999999523162841796875</ele>
        <time>2018-09-05T09:01:33.000Z</time>
      </trkpt>
      <trkpt lat="43.46653324551880359649658203125" lon="-3.7212423048913478851318359375">
        <ele>1</ele>
        <time>2018-09-05T09:01:36.000Z</time>
      </trkpt>
      <trkpt lat="43.46639360301196575164794921875" lon="-3.72117818333208560943603515625">
        <ele>0</ele>
        <time>2018-09-05T09:01:38.000Z</time>
      </trkpt>
      <trkpt lat="43.4663231112062931060791015625" lon="-3.7211454100906848907470703125">
        <ele>-0.20000000298023223876953125</ele>
        <time>2018-09-05T09:01:39.000Z</time>
      </trkpt>
      <trkpt lat="43.46610845066606998443603515625" lon="-3.72104994021356105804443359375">
        <ele>-0.60000002384185791015625</ele>
        <time>2018-09-05T09:01:42.000Z</time>
      </trkpt>
      <trkpt lat="43.4658272378146648406982421875" lon="-3.7209306657314300537109375">
        <ele>-1</ele>
        <time>2018-09-05T09:01:46.000Z</time>
      </trkpt>
      <trkpt lat="43.4656988270580768585205078125" lon="-3.7208708189427852630615234375">
        <ele>-1.2000000476837158203125</ele>
        <time>2018-09-05T09:01:48.000Z</time>
      </trkpt>
      <trkpt lat="43.465438820421695709228515625" lon="-3.720746934413909912109375">
        <ele>-1</ele>
        <time>2018-09-05T09:01:52.000Z</time>
      </trkpt>
      <trkpt lat="43.46510765142738819122314453125" lon="-3.720591031014919281005859375">
        <ele>-1.2000000476837158203125</ele>
        <time>2018-09-05T09:01:57.000Z</time>
      </trkpt>
      <trkpt lat="43.4650463797152042388916015625" lon="-3.7205546535551548004150390625">
        <ele>-1.2000000476837158203125</ele>
        <time>2018-09-05T09:01:58.000Z</time>
      </trkpt>
      <trkpt lat="43.4648636542260646820068359375" lon="-3.72045633383095264434814453125">
        <ele>-1.60000002384185791015625</ele>
        <time>2018-09-05T09:02:01.000Z</time>
      </trkpt>
      <trkpt lat="43.464732728898525238037109375" lon="-3.72040151618421077728271484375">
        <ele>-1.60000002384185791015625</ele>
        <time>2018-09-05T09:02:03.000Z</time>
      </trkpt>
      <trkpt lat="43.46459786407649517059326171875" lon="-3.720346949994564056396484375">
        <ele>-1.60000002384185791015625</ele>
        <time>2018-09-05T09:02:05.000Z</time>
      </trkpt>
      <trkpt lat="43.46446207724511623382568359375" lon="-3.72028894722461700439453125">
        <ele>-1.60000002384185791015625</ele>
        <time>2018-09-05T09:02:07.000Z</time>
      </trkpt>
      <trkpt lat="43.46407600678503513336181640625" lon="-3.720138072967529296875">
        <ele>-2.2000000476837158203125</ele>
        <time>2018-09-05T09:02:13.000Z</time>
      </trkpt>
      <trkpt lat="43.46401314251124858856201171875" lon="-3.7201125919818878173828125">
        <ele>-2.599999904632568359375</ele>
        <time>2018-09-05T09:02:14.000Z</time>
      </trkpt>
      <trkpt lat="43.4638216160237789154052734375" lon="-3.72005031444132328033447265625">
        <ele>-3.2000000476837158203125</ele>
        <time>2018-09-05T09:02:17.000Z</time>
      </trkpt>
      <trkpt lat="43.4635448455810546875" lon="-3.7200332991778850555419921875">
        <ele>-3.7999999523162841796875</ele>
        <time>2018-09-05T09:02:21.000Z</time>
      </trkpt>
      <trkpt lat="43.4634844958782196044921875" lon="-3.72005199082195758819580078125">
        <ele>-4</ele>
        <time>2018-09-05T09:02:22.000Z</time>
      </trkpt>
      <trkpt lat="43.46339120529592037200927734375" lon="-3.7201422639191150665283203125">
        <ele>-4.19999980926513671875</ele>
        <time>2018-09-05T09:02:24.000Z</time>
      </trkpt>
      <trkpt lat="43.46333705820143222808837890625" lon="-3.72027981095016002655029296875">
        <ele>-3.7999999523162841796875</ele>
        <time>2018-09-05T09:02:26.000Z</time>
      </trkpt>
      <trkpt lat="43.4633181989192962646484375" lon="-3.72036564163863658905029296875">
        <ele>-4</ele>
        <time>2018-09-05T09:02:27.000Z</time>
      </trkpt>
      <trkpt lat="43.46329665742814540863037109375" lon="-3.72045247815549373626708984375">
        <ele>-4.400000095367431640625</ele>
        <time>2018-09-05T09:02:28.000Z</time>
      </trkpt>
      <trkpt lat="43.46326665021479129791259765625" lon="-3.72053646482527256011962890625">
        <ele>-4.400000095367431640625</ele>
        <time>2018-09-05T09:02:29.000Z</time>
      </trkpt>
      <trkpt lat="43.4631787240505218505859375" lon="-3.72068054974079132080078125">
        <ele>-4.599999904632568359375</ele>
        <time>2018-09-05T09:02:31.000Z</time>
      </trkpt>
      <trkpt lat="43.46300161443650722503662109375" lon="-3.7207885086536407470703125">
        <ele>-5.400000095367431640625</ele>
        <time>2018-09-05T09:02:34.000Z</time>
      </trkpt>
      <trkpt lat="43.4628017060458660125732421875" lon="-3.7208262272179126739501953125">
        <ele>-5.400000095367431640625</ele>
        <time>2018-09-05T09:02:37.000Z</time>
      </trkpt>
      <trkpt lat="43.46260196529328823089599609375" lon="-3.72084961272776126861572265625">
        <ele>-5.599999904632568359375</ele>
        <time>2018-09-05T09:02:40.000Z</time>
      </trkpt>
      <trkpt lat="43.46229116432368755340576171875" lon="-3.7208909355103969573974609375">
        <ele>-5.80000019073486328125</ele>
        <time>2018-09-05T09:02:45.000Z</time>
      </trkpt>
      <trkpt lat="43.46218404360115528106689453125" lon="-3.720945753157138824462890625">
        <ele>-6</ele>
        <time>2018-09-05T09:02:47.000Z</time>
      </trkpt>
      <trkpt lat="43.46213333308696746826171875" lon="-3.72096394188702106475830078125">
        <ele>-6</ele>
        <time>2018-09-05T09:02:48.000Z</time>
      </trkpt>
      <trkpt lat="43.4620084427297115325927734375" lon="-3.720939718186855316162109375">
        <ele>-5.19999980926513671875</ele>
        <time>2018-09-05T09:02:51.000Z</time>
      </trkpt>
      <trkpt lat="43.4619447402656078338623046875" lon="-3.7208748422563076019287109375">
        <ele>-4.19999980926513671875</ele>
        <time>2018-09-05T09:02:54.000Z</time>
      </trkpt>
      <trkpt lat="43.46191045828163623809814453125" lon="-3.72086050920188426971435546875">
        <ele>-3.7999999523162841796875</ele>
        <time>2018-09-05T09:02:56.000Z</time>
      </trkpt>
      <trkpt lat="43.4619249589741230010986328125" lon="-3.7209469266235828399658203125">
        <ele>-3.400000095367431640625</ele>
        <time>2018-09-05T09:03:00.000Z</time>
      </trkpt>
      <trkpt lat="43.461990840733051300048828125" lon="-3.720982968807220458984375">
        <ele>-4</ele>
        <time>2018-09-05T09:03:02.000Z</time>
      </trkpt>
      <trkpt lat="43.4620620869100093841552734375" lon="-3.72103057801723480224609375">
        <ele>-4.80000019073486328125</ele>
        <time>2018-09-05T09:03:04.000Z</time>
      </trkpt>
      <trkpt lat="43.4621566347777843475341796875" lon="-3.7211252935230731964111328125">
        <ele>-5.400000095367431640625</ele>
        <time>2018-09-05T09:03:07.000Z</time>
      </trkpt>
      <trkpt lat="43.46219527535140514373779296875" lon="-3.721207268536090850830078125">
        <ele>-5.599999904632568359375</ele>
        <time>2018-09-05T09:03:09.000Z</time>
      </trkpt>
      <trkpt lat="43.46226685680449008941650390625" lon="-3.72147037647664546966552734375">
        <ele>-5.80000019073486328125</ele>
        <time>2018-09-05T09:03:15.000Z</time>
      </trkpt>
      <trkpt lat="43.46228160895407199859619140625" lon="-3.7214957736432552337646484375">
        <ele>-6</ele>
        <time>2018-09-05T09:03:16.000Z</time>
      </trkpt>
      <trkpt lat="43.462303318083286285400390625" lon="-3.72147205285727977752685546875">
        <ele>-6.19999980926513671875</ele>
        <time>2018-09-05T09:03:18.000Z</time>
      </trkpt>
      <trkpt lat="43.46234933473169803619384765625" lon="-3.72141949832439422607421875">
        <ele>-6.400000095367431640625</ele>
        <time>2018-09-05T09:03:21.000Z</time>
      </trkpt>
      <trkpt lat="43.4623742289841175079345703125" lon="-3.72141815721988677978515625">
        <ele>-6.599999904632568359375</ele>
        <time>2018-09-05T09:03:22.000Z</time>
      </trkpt>
      <trkpt lat="43.4624196588993072509765625" lon="-3.72150574810802936553955078125">
        <ele>-6.400000095367431640625</ele>
        <time>2018-09-05T09:03:26.000Z</time>
      </trkpt>
      <trkpt lat="43.46239862032234668731689453125" lon="-3.72172703035175800323486328125">
        <ele>-7.19999980926513671875</ele>
        <time>2018-09-05T09:03:31.000Z</time>
      </trkpt>
      <trkpt lat="43.462352268397808074951171875" lon="-3.72186767868697643280029296875">
        <ele>-7.19999980926513671875</ele>
        <time>2018-09-05T09:03:33.000Z</time>
      </trkpt>
      <trkpt lat="43.46231614239513874053955078125" lon="-3.72200614772737026214599609375">
        <ele>-7.599999904632568359375</ele>
        <time>2018-09-05T09:03:35.000Z</time>
      </trkpt>
      <trkpt lat="43.46227339468896389007568359375" lon="-3.72220530174672603607177734375">
        <ele>-8.19999980926513671875</ele>
        <time>2018-09-05T09:03:38.000Z</time>
      </trkpt>
      <trkpt lat="43.46221338026225566864013671875" lon="-3.72247402556240558624267578125">
        <ele>-8.19999980926513671875</ele>
        <time>2018-09-05T09:03:42.000Z</time>
      </trkpt>
      <trkpt lat="43.46219091676175594329833984375" lon="-3.7225421704351902008056640625">
        <ele>-8.3999996185302734375</ele>
        <time>2018-09-05T09:03:43.000Z</time>
      </trkpt>
      <trkpt lat="43.462161831557750701904296875" lon="-3.72266672551631927490234375">
        <ele>-8.3999996185302734375</ele>
        <time>2018-09-05T09:03:45.000Z</time>
      </trkpt>
      <trkpt lat="43.46213878132402896881103515625" lon="-3.7227839045226573944091796875">
        <ele>-8.6000003814697265625</ele>
        <time>2018-09-05T09:03:47.000Z</time>
      </trkpt>
      <trkpt lat="43.46213199198246002197265625" lon="-3.7229478545486927032470703125">
        <ele>-8.3999996185302734375</ele>
        <time>2018-09-05T09:03:50.000Z</time>
      </trkpt>
      <trkpt lat="43.46214414574205875396728515625" lon="-3.722998313605785369873046875">
        <ele>-8.6000003814697265625</ele>
        <time>2018-09-05T09:03:51.000Z</time>
      </trkpt>
      <trkpt lat="43.46221916377544403076171875" lon="-3.72312295250594615936279296875">
        <ele>-8.80000019073486328125</ele>
        <time>2018-09-05T09:03:54.000Z</time>
      </trkpt>
      <trkpt lat="43.46225378103554248809814453125" lon="-3.72315580956637859344482421875">
        <ele>-9</ele>
        <time>2018-09-05T09:03:55.000Z</time>
      </trkpt>
      <trkpt lat="43.4625063277781009674072265625" lon="-3.72334943152964115142822265625">
        <ele>-9</ele>
        <time>2018-09-05T09:04:02.000Z</time>
      </trkpt>
      <trkpt lat="43.4625187329947948455810546875" lon="-3.7233843840658664703369140625">
        <ele>-9</ele>
        <time>2018-09-05T09:04:04.000Z</time>
      </trkpt>
      <trkpt lat="43.46250339411199092864990234375" lon="-3.72341413982212543487548828125">
        <ele>-9</ele>
        <time>2018-09-05T09:04:05.000Z</time>
      </trkpt>
      <trkpt lat="43.4624902345240116119384765625" lon="-3.7236448936164379119873046875">
        <ele>-9.19999980926513671875</ele>
        <time>2018-09-05T09:04:10.000Z</time>
      </trkpt>
      <trkpt lat="43.46247992478311061859130859375" lon="-3.7239188142120838165283203125">
        <ele>-9.19999980926513671875</ele>
        <time>2018-09-05T09:04:15.000Z</time>
      </trkpt>
      <trkpt lat="43.46245528198778629302978515625" lon="-3.72431955300271511077880859375">
        <ele>-9.3999996185302734375</ele>
        <time>2018-09-05T09:04:22.000Z</time>
      </trkpt>
      <trkpt lat="43.4624466486275196075439453125" lon="-3.7244301103055477142333984375">
        <ele>-9.19999980926513671875</ele>
        <time>2018-09-05T09:04:24.000Z</time>
      </trkpt>
      <trkpt lat="43.4624416194856166839599609375" lon="-3.7244783900678157806396484375">
        <ele>-9.19999980926513671875</ele>
        <time>2018-09-05T09:04:25.000Z</time>
      </trkpt>
      <trkpt lat="43.4624677710235118865966796875" lon="-3.7246188707649707794189453125">
        <ele>-9.3999996185302734375</ele>
        <time>2018-09-05T09:04:29.000Z</time>
      </trkpt>
      <trkpt lat="43.46247036941349506378173828125" lon="-3.7246580980718135833740234375">
        <ele>-9.3999996185302734375</ele>
        <time>2018-09-05T09:04:33.000Z</time>
      </trkpt>
      <trkpt lat="43.4624553658068180084228515625" lon="-3.7246587686240673065185546875">
        <ele>-9.3999996185302734375</ele>
        <time>2018-09-05T09:04:34.000Z</time>
      </trkpt>
      <trkpt lat="43.4623660147190093994140625" lon="-3.72465969063341617584228515625">
        <ele>-9.3999996185302734375</ele>
        <time>2018-09-05T09:04:37.000Z</time>
      </trkpt>
      <trkpt lat="43.46218219958245754241943359375" lon="-3.7246778793632984161376953125">
        <ele>-9.80000019073486328125</ele>
        <time>2018-09-05T09:04:41.000Z</time>
      </trkpt>
      <trkpt lat="43.46212721429765224456787109375" lon="-3.724679052829742431640625">
        <ele>-10.19999980926513671875</ele>
        <time>2018-09-05T09:04:42.000Z</time>
      </trkpt>
      <trkpt lat="43.46183686517179012298583984375" lon="-3.72465868480503559112548828125">
        <ele>-10.80000019073486328125</ele>
        <time>2018-09-05T09:04:47.000Z</time>
      </trkpt>
      <trkpt lat="43.46178070642054080963134765625" lon="-3.724674023687839508056640625">
        <ele>-11</ele>
        <time>2018-09-05T09:04:48.000Z</time>
      </trkpt>
      <trkpt lat="43.461678028106689453125" lon="-3.7247858382761478424072265625">
        <ele>-10.3999996185302734375</ele>
        <time>2018-09-05T09:04:51.000Z</time>
      </trkpt>
      <trkpt lat="43.4616525471210479736328125" lon="-3.72491852380335330963134765625">
        <ele>-10.19999980926513671875</ele>
        <time>2018-09-05T09:04:53.000Z</time>
      </trkpt>
      <trkpt lat="43.46159261651337146759033203125" lon="-3.72509353794157505035400390625">
        <ele>-10</ele>
        <time>2018-09-05T09:04:56.000Z</time>
      </trkpt>
      <trkpt lat="43.461430929601192474365234375" lon="-3.72526553459465503692626953125">
        <ele>-10.3999996185302734375</ele>
        <time>2018-09-05T09:05:00.000Z</time>
      </trkpt>
      <trkpt lat="43.4613831527531147003173828125" lon="-3.72530090622603893280029296875">
        <ele>-10.3999996185302734375</ele>
        <time>2018-09-05T09:05:01.000Z</time>
      </trkpt>
      <trkpt lat="43.46133344806730747222900390625" lon="-3.725329823791980743408203125">
        <ele>-10.6000003814697265625</ele>
        <time>2018-09-05T09:05:02.000Z</time>
      </trkpt>
      <trkpt lat="43.46117318607866764068603515625" lon="-3.7253641895949840545654296875">
        <ele>-11</ele>
        <time>2018-09-05T09:05:05.000Z</time>
      </trkpt>
      <trkpt lat="43.46112490631639957427978515625" lon="-3.7253594957292079925537109375">
        <ele>-11</ele>
        <time>2018-09-05T09:05:06.000Z</time>
      </trkpt>
      <trkpt lat="43.46094704233109951019287109375" lon="-3.7253162451088428497314453125">
        <ele>-10.19999980926513671875</ele>
        <time>2018-09-05T09:05:10.000Z</time>
      </trkpt>
      <trkpt lat="43.4608517400920391082763671875" lon="-3.72528464533388614654541015625">
        <ele>-10.3999996185302734375</ele>
        <time>2018-09-05T09:05:12.000Z</time>
      </trkpt>
      <trkpt lat="43.46075476147234439849853515625" lon="-3.72524994425475597381591796875">
        <ele>-10.3999996185302734375</ele>
        <time>2018-09-05T09:05:14.000Z</time>
      </trkpt>
      <trkpt lat="43.46065937541425228118896484375" lon="-3.725225888192653656005859375">
        <ele>-10.6000003814697265625</ele>
        <time>2018-09-05T09:05:16.000Z</time>
      </trkpt>
      <trkpt lat="43.46055627800524234771728515625" lon="-3.72523385100066661834716796875">
        <ele>-10.6000003814697265625</ele>
        <time>2018-09-05T09:05:18.000Z</time>
      </trkpt>
      <trkpt lat="43.46045150421559810638427734375" lon="-3.725256733596324920654296875">
        <ele>-10.6000003814697265625</ele>
        <time>2018-09-05T09:05:20.000Z</time>
      </trkpt>
      <trkpt lat="43.4601392783224582672119140625" lon="-3.72533024288713932037353515625">
        <ele>-10.80000019073486328125</ele>
        <time>2018-09-05T09:05:26.000Z</time>
      </trkpt>
      <trkpt lat="43.46000223420560359954833984375" lon="-3.72536175884306430816650390625">
        <ele>-10.6000003814697265625</ele>
        <time>2018-09-05T09:05:29.000Z</time>
      </trkpt>
      <trkpt lat="43.45989368855953216552734375" lon="-3.7253829650580883026123046875">
        <ele>-10.80000019073486328125</ele>
        <time>2018-09-05T09:05:32.000Z</time>
      </trkpt>
      <trkpt lat="43.4598422236740589141845703125" lon="-3.7253960408270359039306640625">
        <ele>-10.6000003814697265625</ele>
        <time>2018-09-05T09:05:34.000Z</time>
      </trkpt>
      <trkpt lat="43.45978547818958759307861328125" lon="-3.72543853707611560821533203125">
        <ele>-10.6000003814697265625</ele>
        <time>2018-09-05T09:05:37.000Z</time>
      </trkpt>
      <trkpt lat="43.45976301468908786773681640625" lon="-3.7255449034273624420166015625">
        <ele>-10.3999996185302734375</ele>
        <time>2018-09-05T09:05:41.000Z</time>
      </trkpt>
      <trkpt lat="43.45976184122264385223388671875" lon="-3.725575245916843414306640625">
        <ele>-10.19999980926513671875</ele>
        <time>2018-09-05T09:05:42.000Z</time>
      </trkpt>
      <trkpt lat="43.45975781790912151336669921875" lon="-3.72560583986341953277587890625">
        <ele>-10.19999980926513671875</ele>
        <time>2018-09-05T09:05:43.000Z</time>
      </trkpt>
      <trkpt lat="43.45973904244601726531982421875" lon="-3.72573274187743663787841796875">
        <ele>-10.6000003814697265625</ele>
        <time>2018-09-05T09:05:47.000Z</time>
      </trkpt>
      <trkpt lat="43.45973183400928974151611328125" lon="-3.72581706382334232330322265625">
        <ele>-11</ele>
        <time>2018-09-05T09:05:49.000Z</time>
      </trkpt>
      <trkpt lat="43.4597289003431797027587890625" lon="-3.72585712932050228118896484375">
        <ele>-11.19999980926513671875</ele>
        <time>2018-09-05T09:05:50.000Z</time>
      </trkpt>
      <trkpt lat="43.45972831360995769500732421875" lon="-3.725995682179927825927734375">
        <ele>-11.19999980926513671875</ele>
        <time>2018-09-05T09:05:53.000Z</time>
      </trkpt>
      <trkpt lat="43.45974893309175968170166015625" lon="-3.7261162139475345611572265625">
        <ele>-11.6000003814697265625</ele>
        <time>2018-09-05T09:05:55.000Z</time>
      </trkpt>
      <trkpt lat="43.4597567282617092132568359375" lon="-3.726237751543521881103515625">
        <ele>-11.6000003814697265625</ele>
        <time>2018-09-05T09:05:57.000Z</time>
      </trkpt>
      <trkpt lat="43.45975480042397975921630859375" lon="-3.72641804628074169158935546875">
        <ele>-11.3999996185302734375</ele>
        <time>2018-09-05T09:06:00.000Z</time>
      </trkpt>
      <trkpt lat="43.45976050011813640594482421875" lon="-3.7264796532690525054931640625">
        <ele>-11.3999996185302734375</ele>
        <time>2018-09-05T09:06:01.000Z</time>
      </trkpt>
      <trkpt lat="43.45980207435786724090576171875" lon="-3.726696074008941650390625">
        <ele>-11.19999980926513671875</ele>
        <time>2018-09-05T09:06:05.000Z</time>
      </trkpt>
      <trkpt lat="43.45977324061095714569091796875" lon="-3.72686211951076984405517578125">
        <ele>-10.80000019073486328125</ele>
        <time>2018-09-05T09:06:09.000Z</time>
      </trkpt>
      <trkpt lat="43.4596993960440158843994140625" lon="-3.72699941508471965789794921875">
        <ele>-10</ele>
        <time>2018-09-05T09:06:14.000Z</time>
      </trkpt>
      <trkpt lat="43.45967634581029415130615234375" lon="-3.72701232321560382843017578125">
        <ele>-10</ele>
        <time>2018-09-05T09:06:15.000Z</time>
      </trkpt>
      <trkpt lat="43.459583558142185211181640625" lon="-3.727046437561511993408203125">
        <ele>-8.80000019073486328125</ele>
        <time>2018-09-05T09:06:19.000Z</time>
      </trkpt>
      <trkpt lat="43.45951952040195465087890625" lon="-3.72705372981727123260498046875">
        <ele>-7.80000019073486328125</ele>
        <time>2018-09-05T09:06:22.000Z</time>
      </trkpt>
      <trkpt lat="43.459499068558216094970703125" lon="-3.72704953886568546295166015625">
        <ele>-7.599999904632568359375</ele>
        <time>2018-09-05T09:06:23.000Z</time>
      </trkpt>
      <trkpt lat="43.45945925451815128326416015625" lon="-3.727039061486721038818359375">
        <ele>-6.80000019073486328125</ele>
        <time>2018-09-05T09:06:25.000Z</time>
      </trkpt>
      <trkpt lat="43.4594382159411907196044921875" lon="-3.72703067958354949951171875">
        <ele>-6.599999904632568359375</ele>
        <time>2018-09-05T09:06:26.000Z</time>
      </trkpt>
      <trkpt lat="43.45939773134887218475341796875" lon="-3.7270238064229488372802734375">
        <ele>-5.80000019073486328125</ele>
        <time>2018-09-05T09:06:28.000Z</time>
      </trkpt>
      <trkpt lat="43.45937795005738735198974609375" lon="-3.7270259857177734375">
        <ele>-5.599999904632568359375</ele>
        <time>2018-09-05T09:06:29.000Z</time>
      </trkpt>
      <trkpt lat="43.4593590907752513885498046875" lon="-3.7270238064229488372802734375">
        <ele>-5.400000095367431640625</ele>
        <time>2018-09-05T09:06:30.000Z</time>
      </trkpt>
      <trkpt lat="43.459320031106472015380859375" lon="-3.72701517306268215179443359375">
        <ele>-5</ele>
        <time>2018-09-05T09:06:32.000Z</time>
      </trkpt>
      <trkpt lat="43.459272086620330810546875" lon="-3.727003522217273712158203125">
        <ele>-4.599999904632568359375</ele>
        <time>2018-09-05T09:06:35.000Z</time>
      </trkpt>
      <trkpt lat="43.459254316985607147216796875" lon="-3.7270058691501617431640625">
        <ele>-4.400000095367431640625</ele>
        <time>2018-09-05T09:06:36.000Z</time>
      </trkpt>
      <trkpt lat="43.45919765532016754150390625" lon="-3.72701383195817470550537109375">
        <ele>-3.7999999523162841796875</ele>
        <time>2018-09-05T09:06:39.000Z</time>
      </trkpt>
      <trkpt lat="43.4591339528560638427734375" lon="-3.7270114012062549591064453125">
        <ele>-3.400000095367431640625</ele>
        <time>2018-09-05T09:06:43.000Z</time>
      </trkpt>
      <trkpt lat="43.459081314504146575927734375" lon="-3.72700829990208148956298828125">
        <ele>-3</ele>
        <time>2018-09-05T09:06:47.000Z</time>
      </trkpt>
      <trkpt lat="43.45902339555323123931884765625" lon="-3.7270489521324634552001953125">
        <ele>-2.400000095367431640625</ele>
        <time>2018-09-05T09:06:51.000Z</time>
      </trkpt>
      <trkpt lat="43.45899757929146289825439453125" lon="-3.72708373703062534332275390625">
        <ele>-2</ele>
        <time>2018-09-05T09:06:53.000Z</time>
      </trkpt>
      <trkpt lat="43.45898685045540332794189453125" lon="-3.72710502706468105316162109375">
        <ele>-1.7999999523162841796875</ele>
        <time>2018-09-05T09:06:54.000Z</time>
      </trkpt>
      <trkpt lat="43.45894544385373592376708984375" lon="-3.727180548012256622314453125">
        <ele>-1.2000000476837158203125</ele>
        <time>2018-09-05T09:06:58.000Z</time>
      </trkpt>
      <trkpt lat="43.458894900977611541748046875" lon="-3.7273091264069080352783203125">
        <ele>-0.800000011920928955078125</ele>
        <time>2018-09-05T09:07:03.000Z</time>
      </trkpt>
      <trkpt lat="43.458892889320850372314453125" lon="-3.72741733677685260772705078125">
        <ele>-0.4000000059604644775390625</ele>
        <time>2018-09-05T09:07:07.000Z</time>
      </trkpt>
      <trkpt lat="43.458912335336208343505859375" lon="-3.72747114859521389007568359375">
        <ele>-0.20000000298023223876953125</ele>
        <time>2018-09-05T09:07:09.000Z</time>
      </trkpt>
      <trkpt lat="43.45900855958461761474609375" lon="-3.7275773473083972930908203125">
        <ele>-0.60000002384185791015625</ele>
        <time>2018-09-05T09:07:14.000Z</time>
      </trkpt>
      <trkpt lat="43.45902238972485065460205078125" lon="-3.72760291211307048797607421875">
        <ele>-0.60000002384185791015625</ele>
        <time>2018-09-05T09:07:15.000Z</time>
      </trkpt>
      <trkpt lat="43.45902775414288043975830078125" lon="-3.72762923128902912139892578125">
        <ele>-0.60000002384185791015625</ele>
        <time>2018-09-05T09:07:16.000Z</time>
      </trkpt>
      <trkpt lat="43.4590642154216766357421875" lon="-3.7277583964169025421142578125">
        <ele>-0.60000002384185791015625</ele>
        <time>2018-09-05T09:07:20.000Z</time>
      </trkpt>
      <trkpt lat="43.4591334499418735504150390625" lon="-3.72781866230070590972900390625">
        <ele>-1.2000000476837158203125</ele>
        <time>2018-09-05T09:07:24.000Z</time>
      </trkpt>
      <trkpt lat="43.45915348269045352935791015625" lon="-3.7278204225003719329833984375">
        <ele>-1.60000002384185791015625</ele>
        <time>2018-09-05T09:07:25.000Z</time>
      </trkpt>
      <trkpt lat="43.459173180162906646728515625" lon="-3.72782486490905284881591796875">
        <ele>-1.7999999523162841796875</ele>
        <time>2018-09-05T09:07:26.000Z</time>
      </trkpt>
      <trkpt lat="43.45918960869312286376953125" lon="-3.72783123515546321868896484375">
        <ele>-1.60000002384185791015625</ele>
        <time>2018-09-05T09:07:27.000Z</time>
      </trkpt>
      <trkpt lat="43.4592075459659099578857421875" lon="-3.727849759161472320556640625">
        <ele>-2</ele>
        <time>2018-09-05T09:07:29.000Z</time>
      </trkpt>
      <trkpt lat="43.45921265892684459686279296875" lon="-3.72786752879619598388671875">
        <ele>-1.7999999523162841796875</ele>
        <time>2018-09-05T09:07:30.000Z</time>
      </trkpt>
      <trkpt lat="43.45921467058360576629638671875" lon="-3.7280189059674739837646484375">
        <ele>-2.400000095367431640625</ele>
        <time>2018-09-05T09:07:35.000Z</time>
      </trkpt>
      <trkpt lat="43.45923813991248607635498046875" lon="-3.72806995175778865814208984375">
        <ele>-2.7999999523162841796875</ele>
        <time>2018-09-05T09:07:37.000Z</time>
      </trkpt>
      <trkpt lat="43.45923881046473979949951171875" lon="-3.72810515575110912322998046875">
        <ele>-2.7999999523162841796875</ele>
        <time>2018-09-05T09:07:38.000Z</time>
      </trkpt>
      <trkpt lat="43.459234870970249176025390625" lon="-3.72818260453641414642333984375">
        <ele>-3</ele>
        <time>2018-09-05T09:07:40.000Z</time>
      </trkpt>
      <trkpt lat="43.4592212922871112823486328125" lon="-3.7283401004970073699951171875">
        <ele>-3.599999904632568359375</ele>
        <time>2018-09-05T09:07:43.000Z</time>
      </trkpt>
      <trkpt lat="43.45921617932617664337158203125" lon="-3.72838729061186313629150390625">
        <ele>-4</ele>
        <time>2018-09-05T09:07:44.000Z</time>
      </trkpt>
      <trkpt lat="43.45921450294554233551025390625" lon="-3.7284376658499240875244140625">
        <ele>-3.7999999523162841796875</ele>
        <time>2018-09-05T09:07:45.000Z</time>
      </trkpt>
      <trkpt lat="43.45921986736357212066650390625" lon="-3.72865140438079833984375">
        <ele>-4.599999904632568359375</ele>
        <time>2018-09-05T09:07:51.000Z</time>
      </trkpt>
      <trkpt lat="43.45922271721065044403076171875" lon="-3.728879056870937347412109375">
        <ele>-4.80000019073486328125</ele>
        <time>2018-09-05T09:07:57.000Z</time>
      </trkpt>
      <trkpt lat="43.45920494757592678070068359375" lon="-3.72897670604288578033447265625">
        <ele>-5</ele>
        <time>2018-09-05T09:08:00.000Z</time>
      </trkpt>
      <trkpt lat="43.459188938140869140625" lon="-3.72902649454772472381591796875">
        <ele>-5.19999980926513671875</ele>
        <time>2018-09-05T09:08:02.000Z</time>
      </trkpt>
      <trkpt lat="43.45918533392250537872314453125" lon="-3.7290528975427150726318359375">
        <ele>-5.400000095367431640625</ele>
        <time>2018-09-05T09:08:03.000Z</time>
      </trkpt>
      <trkpt lat="43.4591864235699176788330078125" lon="-3.72912791557610034942626953125">
        <ele>-5.19999980926513671875</ele>
        <time>2018-09-05T09:08:06.000Z</time>
      </trkpt>
      <trkpt lat="43.459190614521503448486328125" lon="-3.72916747815907001495361328125">
        <ele>-5.19999980926513671875</ele>
        <time>2018-09-05T09:08:08.000Z</time>
      </trkpt>
      <trkpt lat="43.45919623039662837982177734375" lon="-3.72928096912801265716552734375">
        <ele>-5.599999904632568359375</ele>
        <time>2018-09-05T09:08:13.000Z</time>
      </trkpt>
      <trkpt lat="43.45920310355722904205322265625" lon="-3.72935875318944454193115234375">
        <ele>-5.80000019073486328125</ele>
        <time>2018-09-05T09:08:16.000Z</time>
      </trkpt>
      <trkpt lat="43.45923746936023235321044921875" lon="-3.72943720780313014984130859375">
        <ele>-6</ele>
        <time>2018-09-05T09:08:19.000Z</time>
      </trkpt>
      <trkpt lat="43.4592752717435359954833984375" lon="-3.72950945980846881866455078125">
        <ele>-6.599999904632568359375</ele>
        <time>2018-09-05T09:08:21.000Z</time>
      </trkpt>
      <trkpt lat="43.459305949509143829345703125" lon="-3.7295963801443576812744140625">
        <ele>-7</ele>
        <time>2018-09-05T09:08:23.000Z</time>
      </trkpt>
      <trkpt lat="43.45933637581765651702880859375" lon="-3.72974239289760589599609375">
        <ele>-7.80000019073486328125</ele>
        <time>2018-09-05T09:08:26.000Z</time>
      </trkpt>
      <trkpt lat="43.45934978686273097991943359375" lon="-3.72979938983917236328125">
        <ele>-8</ele>
        <time>2018-09-05T09:08:27.000Z</time>
      </trkpt>
      <trkpt lat="43.4593664668500423431396484375" lon="-3.72985781170427799224853515625">
        <ele>-8</ele>
        <time>2018-09-05T09:08:28.000Z</time>
      </trkpt>
      <trkpt lat="43.45940393395721912384033203125" lon="-3.7299796007573604583740234375">
        <ele>-8.6000003814697265625</ele>
        <time>2018-09-05T09:08:30.000Z</time>
      </trkpt>
      <trkpt lat="43.45943578518927097320556640625" lon="-3.730062581598758697509765625">
        <ele>-9.19999980926513671875</ele>
        <time>2018-09-05T09:08:32.000Z</time>
      </trkpt>
      <trkpt lat="43.4594556502997875213623046875" lon="-3.730097450315952301025390625">
        <ele>-9.6000003814697265625</ele>
        <time>2018-09-05T09:08:33.000Z</time>
      </trkpt>
      <trkpt lat="43.45953016541898250579833984375" lon="-3.730173222720623016357421875">
        <ele>-10.19999980926513671875</ele>
        <time>2018-09-05T09:08:36.000Z</time>
      </trkpt>
      <trkpt lat="43.45956436358392238616943359375" lon="-3.73022829182446002960205078125">
        <ele>-10.80000019073486328125</ele>
        <time>2018-09-05T09:08:38.000Z</time>
      </trkpt>
      <trkpt lat="43.4595887549221515655517578125" lon="-3.73025662265717983245849609375">
        <ele>-11</ele>
        <time>2018-09-05T09:08:40.000Z</time>
      </trkpt>
      <trkpt lat="43.459691517055034637451171875" lon="-3.730981908738613128662109375">
        <ele>-10.80000019073486328125</ele>
        <time>2018-09-05T09:09:51.000Z</time>
      </trkpt>
      <trkpt lat="43.45969855785369873046875" lon="-3.73099322430789470672607421875">
        <ele>-11</ele>
        <time>2018-09-05T09:09:52.000Z</time>
      </trkpt>
      <trkpt lat="43.4597159922122955322265625" lon="-3.73103655874729156494140625">
        <ele>-11.19999980926513671875</ele>
        <time>2018-09-05T09:09:56.000Z</time>
      </trkpt>
      <trkpt lat="43.45972579903900623321533203125" lon="-3.73105935752391815185546875">
        <ele>-11.19999980926513671875</ele>
        <time>2018-09-05T09:09:58.000Z</time>
      </trkpt>
      <trkpt lat="43.459728397428989410400390625" lon="-3.73106882907450199127197265625">
        <ele>-11.19999980926513671875</ele>
        <time>2018-09-05T09:09:59.000Z</time>
      </trkpt>
      <trkpt lat="43.45986426807940006256103515625" lon="-3.73146479018032550811767578125">
        <ele>-13</ele>
        <time>2018-09-05T09:11:04.000Z</time>
      </trkpt>
      <trkpt lat="43.45984515734016895294189453125" lon="-3.7315456755459308624267578125">
        <ele>-13.3999996185302734375</ele>
        <time>2018-09-05T09:11:07.000Z</time>
      </trkpt>
      <trkpt lat="43.45983459614217281341552734375" lon="-3.73157140798866748809814453125">
        <ele>-13.3999996185302734375</ele>
        <time>2018-09-05T09:11:08.000Z</time>
      </trkpt>
      <trkpt lat="43.45982520841062068939208984375" lon="-3.73160124756395816802978515625">
        <ele>-13.3999996185302734375</ele>
        <time>2018-09-05T09:11:09.000Z</time>
      </trkpt>
      <trkpt lat="43.459797799587249755859375" lon="-3.73165874741971492767333984375">
        <ele>-13.19999980926513671875</ele>
        <time>2018-09-05T09:11:11.000Z</time>
      </trkpt>
      <trkpt lat="43.45972873270511627197265625" lon="-3.73176746070384979248046875">
        <ele>-13.3999996185302734375</ele>
        <time>2018-09-05T09:11:15.000Z</time>
      </trkpt>
      <trkpt lat="43.45953284762799739837646484375" lon="-3.73204900883138179779052734375">
        <ele>-13.3999996185302734375</ele>
        <time>2018-09-05T09:11:25.000Z</time>
      </trkpt>
      <trkpt lat="43.45947266556322574615478515625" lon="-3.73216467909514904022216796875">
        <ele>-13.19999980926513671875</ele>
        <time>2018-09-05T09:11:29.000Z</time>
      </trkpt>
      <trkpt lat="43.45944835804402828216552734375" lon="-3.7322333268821239471435546875">
        <ele>-13.19999980926513671875</ele>
        <time>2018-09-05T09:11:31.000Z</time>
      </trkpt>
      <trkpt lat="43.459434024989604949951171875" lon="-3.732269704341888427734375">
        <ele>-13.19999980926513671875</ele>
        <time>2018-09-05T09:11:32.000Z</time>
      </trkpt>
      <trkpt lat="43.4593976475298404693603515625" lon="-3.73238663189113140106201171875">
        <ele>-13</ele>
        <time>2018-09-05T09:11:35.000Z</time>
      </trkpt>
      <trkpt lat="43.45935196615755558013916015625" lon="-3.73258226551115512847900390625">
        <ele>-13</ele>
        <time>2018-09-05T09:11:40.000Z</time>
      </trkpt>
      <trkpt lat="43.45923386514186859130859375" lon="-3.73284512199461460113525390625">
        <ele>-13.19999980926513671875</ele>
        <time>2018-09-05T09:11:47.000Z</time>
      </trkpt>
      <trkpt lat="43.45914023928344249725341796875" lon="-3.73310948722064495086669921875">
        <ele>-13</ele>
        <time>2018-09-05T09:11:54.000Z</time>
      </trkpt>
      <trkpt lat="43.4590771235525608062744140625" lon="-3.7333075515925884246826171875">
        <ele>-13.19999980926513671875</ele>
        <time>2018-09-05T09:11:59.000Z</time>
      </trkpt>
      <trkpt lat="43.45904200337827205657958984375" lon="-3.73341701924800872802734375">
        <ele>-13.19999980926513671875</ele>
        <time>2018-09-05T09:12:02.000Z</time>
      </trkpt>
      <trkpt lat="43.45901819877326488494873046875" lon="-3.73348868452012538909912109375">
        <ele>-13.3999996185302734375</ele>
        <time>2018-09-05T09:12:04.000Z</time>
      </trkpt>
      <trkpt lat="43.45893186517059803009033203125" lon="-3.73376511968672275543212890625">
        <ele>-13.19999980926513671875</ele>
        <time>2018-09-05T09:12:11.000Z</time>
      </trkpt>
      <trkpt lat="43.45882306806743144989013671875" lon="-3.73407457955181598663330078125">
        <ele>-13.3999996185302734375</ele>
        <time>2018-09-05T09:12:19.000Z</time>
      </trkpt>
      <trkpt lat="43.4586566872894763946533203125" lon="-3.73442812822759151458740234375">
        <ele>-13.3999996185302734375</ele>
        <time>2018-09-05T09:12:29.000Z</time>
      </trkpt>
      <trkpt lat="43.45859122462570667266845703125" lon="-3.734610937535762786865234375">
        <ele>-13.19999980926513671875</ele>
        <time>2018-09-05T09:12:34.000Z</time>
      </trkpt>
      <trkpt lat="43.45856540836393833160400390625" lon="-3.73467606492340564727783203125">
        <ele>-13.19999980926513671875</ele>
        <time>2018-09-05T09:12:36.000Z</time>
      </trkpt>
      <trkpt lat="43.45850891433656215667724609375" lon="-3.7348406016826629638671875">
        <ele>-13</ele>
        <time>2018-09-05T09:12:41.000Z</time>
      </trkpt>
      <trkpt lat="43.45848879776895046234130859375" lon="-3.73494814150035381317138671875">
        <ele>-13</ele>
        <time>2018-09-05T09:12:44.000Z</time>
      </trkpt>
      <trkpt lat="43.458468429744243621826171875" lon="-3.73502634465694427490234375">
        <ele>-13</ele>
        <time>2018-09-05T09:12:46.000Z</time>
      </trkpt>
      <trkpt lat="43.458435572683811187744140625" lon="-3.73524083755910396575927734375">
        <ele>-13.19999980926513671875</ele>
        <time>2018-09-05T09:12:51.000Z</time>
      </trkpt>
      <trkpt lat="43.45842249691486358642578125" lon="-3.73532499186694622039794921875">
        <ele>-13.19999980926513671875</ele>
        <time>2018-09-05T09:12:53.000Z</time>
      </trkpt>
      <trkpt lat="43.4583106823265552520751953125" lon="-3.735674433410167694091796875">
        <ele>-13.6000003814697265625</ele>
        <time>2018-09-05T09:13:02.000Z</time>
      </trkpt>
      <trkpt lat="43.45824144780635833740234375" lon="-3.735879957675933837890625">
        <ele>-13.3999996185302734375</ele>
        <time>2018-09-05T09:13:07.000Z</time>
      </trkpt>
      <trkpt lat="43.458167351782321929931640625" lon="-3.73611263930797576904296875">
        <ele>-13.3999996185302734375</ele>
        <time>2018-09-05T09:13:13.000Z</time>
      </trkpt>
      <trkpt lat="43.4581118635833263397216796875" lon="-3.7364819459617137908935546875">
        <ele>-13.19999980926513671875</ele>
        <time>2018-09-05T09:13:22.000Z</time>
      </trkpt>
      <trkpt lat="43.458043299615383148193359375" lon="-3.736840523779392242431640625">
        <ele>-13.19999980926513671875</ele>
        <time>2018-09-05T09:13:31.000Z</time>
      </trkpt>
      <trkpt lat="43.45799560658633708953857421875" lon="-3.73708301223814487457275390625">
        <ele>-13.19999980926513671875</ele>
        <time>2018-09-05T09:13:38.000Z</time>
      </trkpt>
      <trkpt lat="43.4579591453075408935546875" lon="-3.7372970022261142730712890625">
        <ele>-13.3999996185302734375</ele>
        <time>2018-09-05T09:13:44.000Z</time>
      </trkpt>
      <trkpt lat="43.45794045366346836090087890625" lon="-3.737368248403072357177734375">
        <ele>-13.19999980926513671875</ele>
        <time>2018-09-05T09:13:46.000Z</time>
      </trkpt>
      <trkpt lat="43.4579023160040378570556640625" lon="-3.73750193975865840911865234375">
        <ele>-13</ele>
        <time>2018-09-05T09:13:50.000Z</time>
      </trkpt>
      <trkpt lat="43.4578681178390979766845703125" lon="-3.73774744570255279541015625">
        <ele>-13</ele>
        <time>2018-09-05T09:13:57.000Z</time>
      </trkpt>
      <trkpt lat="43.45781321637332439422607421875" lon="-3.737970404326915740966796875">
        <ele>-13</ele>
        <time>2018-09-05T09:14:04.000Z</time>
      </trkpt>
      <trkpt lat="43.45775739289820194244384765625" lon="-3.73823250643908977508544921875">
        <ele>-13.19999980926513671875</ele>
        <time>2018-09-05T09:14:12.000Z</time>
      </trkpt>
      <trkpt lat="43.45769955776631832122802734375" lon="-3.73848102986812591552734375">
        <ele>-13</ele>
        <time>2018-09-05T09:14:19.000Z</time>
      </trkpt>
      <trkpt lat="43.45765312202274799346923828125" lon="-3.73878520913422107696533203125">
        <ele>-12.80000019073486328125</ele>
        <time>2018-09-05T09:14:27.000Z</time>
      </trkpt>
      <trkpt lat="43.4576257131993770599365234375" lon="-3.73903130181133747100830078125">
        <ele>-13</ele>
        <time>2018-09-05T09:14:33.000Z</time>
      </trkpt>
      <trkpt lat="43.4575767628848552703857421875" lon="-3.739383257925510406494140625">
        <ele>-12.80000019073486328125</ele>
        <time>2018-09-05T09:14:42.000Z</time>
      </trkpt>
      <trkpt lat="43.45754784531891345977783203125" lon="-3.7396881915628910064697265625">
        <ele>-13</ele>
        <time>2018-09-05T09:14:50.000Z</time>
      </trkpt>
      <trkpt lat="43.45750995911657810211181640625" lon="-3.74003310687839984893798828125">
        <ele>-13.19999980926513671875</ele>
        <time>2018-09-05T09:14:59.000Z</time>
      </trkpt>
      <trkpt lat="43.45749378204345703125" lon="-3.74025757424533367156982421875">
        <ele>-13.19999980926513671875</ele>
        <time>2018-09-05T09:15:05.000Z</time>
      </trkpt>
      <trkpt lat="43.457491435110569000244140625" lon="-3.740331418812274932861328125">
        <ele>-13.19999980926513671875</ele>
        <time>2018-09-05T09:15:07.000Z</time>
      </trkpt>
      <trkpt lat="43.45745715312659740447998046875" lon="-3.74055596999824047088623046875">
        <ele>-13</ele>
        <time>2018-09-05T09:15:13.000Z</time>
      </trkpt>
      <trkpt lat="43.4574346058070659637451171875" lon="-3.7407272122800350189208984375">
        <ele>-13.19999980926513671875</ele>
        <time>2018-09-05T09:15:17.000Z</time>
      </trkpt>
      <trkpt lat="43.45741800963878631591796875" lon="-3.7409028969705104827880859375">
        <ele>-13</ele>
        <time>2018-09-05T09:15:21.000Z</time>
      </trkpt>
      <trkpt lat="43.4573970548808574676513671875" lon="-3.7410738877952098846435546875">
        <ele>-13</ele>
        <time>2018-09-05T09:15:25.000Z</time>
      </trkpt>
      <trkpt lat="43.45735757611691951751708984375" lon="-3.74140203930437564849853515625">
        <ele>-13</ele>
        <time>2018-09-05T09:15:33.000Z</time>
      </trkpt>
      <trkpt lat="43.45729588530957698822021484375" lon="-3.74181392602622509002685546875">
        <ele>-13.19999980926513671875</ele>
        <time>2018-09-05T09:15:43.000Z</time>
      </trkpt>
      <trkpt lat="43.45725799910724163055419921875" lon="-3.7420773692429065704345703125">
        <ele>-13</ele>
        <time>2018-09-05T09:15:50.000Z</time>
      </trkpt>
      <trkpt lat="43.45719882287085056304931640625" lon="-3.7421759404242038726806640625">
        <ele>-13</ele>
        <time>2018-09-05T09:15:55.000Z</time>
      </trkpt>
      <trkpt lat="43.45668886788189411163330078125" lon="-3.74218692071735858917236328125">
        <ele>-9.3999996185302734375</ele>
        <time>2018-09-05T09:17:04.000Z</time>
      </trkpt>
      <trkpt lat="43.45667780376970767974853515625" lon="-3.74218943528831005096435546875">
        <ele>-9.19999980926513671875</ele>
        <time>2018-09-05T09:17:05.000Z</time>
      </trkpt>
      <trkpt lat="43.45665936358273029327392578125" lon="-3.74220184050500392913818359375">
        <ele>-9</ele>
        <time>2018-09-05T09:17:07.000Z</time>
      </trkpt>
      <trkpt lat="43.45665466971695423126220703125" lon="-3.742255903780460357666015625">
        <ele>-8.6000003814697265625</ele>
        <time>2018-09-05T09:17:10.000Z</time>
      </trkpt>
      <trkpt lat="43.45665299333631992340087890625" lon="-3.74227459542453289031982421875">
        <ele>-8.6000003814697265625</ele>
        <time>2018-09-05T09:17:11.000Z</time>
      </trkpt>
      <trkpt lat="43.4566463716328144073486328125" lon="-3.74232555739581584930419921875">
        <ele>-8.19999980926513671875</ele>
        <time>2018-09-05T09:17:14.000Z</time>
      </trkpt>
      <trkpt lat="43.45662885345518589019775390625" lon="-3.74244139529764652252197265625">
        <ele>-7.599999904632568359375</ele>
        <time>2018-09-05T09:17:21.000Z</time>
      </trkpt>
      <trkpt lat="43.45662315376102924346923828125" lon="-3.74254524707794189453125">
        <ele>-7.19999980926513671875</ele>
        <time>2018-09-05T09:17:27.000Z</time>
      </trkpt>
      <trkpt lat="43.45661963336169719696044921875" lon="-3.74258053489029407501220703125">
        <ele>-7.19999980926513671875</ele>
        <time>2018-09-05T09:17:29.000Z</time>
      </trkpt>
      <trkpt lat="43.45660421065986156463623046875" lon="-3.7426459975540637969970703125">
        <ele>-7.19999980926513671875</ele>
        <time>2018-09-05T09:17:33.000Z</time>
      </trkpt>
      <trkpt lat="43.456598259508609771728515625" lon="-3.74267474748194217681884765625">
        <ele>-7.19999980926513671875</ele>
        <time>2018-09-05T09:17:37.000Z</time>
      </trkpt>
      <trkpt lat="43.45652977935969829559326171875" lon="-3.74276191927492618560791015625">
        <ele>-7.80000019073486328125</ele>
        <time>2018-09-05T09:17:49.000Z</time>
      </trkpt>
      <trkpt lat="43.45649524591863155364990234375" lon="-3.74278203584253787994384765625">
        <ele>-8.3999996185302734375</ele>
        <time>2018-09-05T09:17:51.000Z</time>
      </trkpt>
      <trkpt lat="43.45646909438073635101318359375" lon="-3.74279125593602657318115234375">
        <ele>-9</ele>
        <time>2018-09-05T09:17:53.000Z</time>
      </trkpt>
      <trkpt lat="43.45645434223115444183349609375" lon="-3.7427931837737560272216796875">
        <ele>-9.19999980926513671875</ele>
        <time>2018-09-05T09:17:55.000Z</time>
      </trkpt>
      <trkpt lat="43.4564410150051116943359375" lon="-3.7427928484976291656494140625">
        <ele>-9.19999980926513671875</ele>
        <time>2018-09-05T09:17:56.000Z</time>
      </trkpt>
      <trkpt lat="43.45640019513666629791259765625" lon="-3.74279242940247058868408203125">
        <ele>-9.3999996185302734375</ele>
        <time>2018-09-05T09:17:58.000Z</time>
      </trkpt>
      <trkpt lat="43.45635610632598400115966796875" lon="-3.74278572387993335723876953125">
        <ele>-9.3999996185302734375</ele>
        <time>2018-09-05T09:18:00.000Z</time>
      </trkpt>
      <trkpt lat="43.45632492564618587493896484375" lon="-3.74277214519679546356201171875">
        <ele>-9.19999980926513671875</ele>
        <time>2018-09-05T09:18:02.000Z</time>
      </trkpt>
      <trkpt lat="43.456280417740345001220703125" lon="-3.7427609972655773162841796875">
        <ele>-9.3999996185302734375</ele>
        <time>2018-09-05T09:18:05.000Z</time>
      </trkpt>
      <trkpt lat="43.45625032670795917510986328125" lon="-3.74270827509462833404541015625">
        <ele>-9.3999996185302734375</ele>
        <time>2018-09-05T09:19:52.000Z</time>
      </trkpt>
      <trkpt lat="43.456139266490936279296875" lon="-3.7427008152008056640625">
        <ele>-9.80000019073486328125</ele>
        <time>2018-09-05T09:19:57.000Z</time>
      </trkpt>
      <trkpt lat="43.45597405917942523956298828125" lon="-3.7426503561437129974365234375">
        <ele>-10</ele>
        <time>2018-09-05T09:20:04.000Z</time>
      </trkpt>
      <trkpt lat="43.45585118047893047332763671875" lon="-3.742604590952396392822265625">
        <ele>-10</ele>
        <time>2018-09-05T09:20:09.000Z</time>
      </trkpt>
      <trkpt lat="43.4558400325477123260498046875" lon="-3.7425841391086578369140625">
        <ele>-10</ele>
        <time>2018-09-05T09:20:10.000Z</time>
      </trkpt>
      <trkpt lat="43.45586995594203472137451171875" lon="-3.7425444088876247406005859375">
        <ele>-10</ele>
        <time>2018-09-05T09:20:13.000Z</time>
      </trkpt>
      <trkpt lat="43.4559017233550548553466796875" lon="-3.74243837781250476837158203125">
        <ele>-9.80000019073486328125</ele>
        <time>2018-09-05T09:20:18.000Z</time>
      </trkpt>
      <trkpt lat="43.45590599812567234039306640625" lon="-3.74240904115140438079833984375">
        <ele>-9.80000019073486328125</ele>
        <time>2018-09-05T09:20:19.000Z</time>
      </trkpt>
      <trkpt lat="43.4559536911547183990478515625" lon="-3.74225615523755550384521484375">
        <ele>-9.80000019073486328125</ele>
        <time>2018-09-05T09:20:24.000Z</time>
      </trkpt>
      <trkpt lat="43.4559687785804271697998046875" lon="-3.742189519107341766357421875">
        <ele>-10</ele>
        <time>2018-09-05T09:20:26.000Z</time>
      </trkpt>
      <trkpt lat="43.4560011327266693115234375" lon="-3.74199095182120800018310546875">
        <ele>-10.3999996185302734375</ele>
        <time>2018-09-05T09:20:32.000Z</time>
      </trkpt>
      <trkpt lat="43.4560096822679042816162109375" lon="-3.74188986606895923614501953125">
        <ele>-10.3999996185302734375</ele>
        <time>2018-09-05T09:20:35.000Z</time>
      </trkpt>
      <trkpt lat="43.45601093955338001251220703125" lon="-3.741797246038913726806640625">
        <ele>-10.19999980926513671875</ele>
        <time>2018-09-05T09:20:40.000Z</time>
      </trkpt>
      <trkpt lat="43.45600490458309650421142578125" lon="-3.74177721329033374786376953125">
        <ele>-10.3999996185302734375</ele>
        <time>2018-09-05T09:20:41.000Z</time>
      </trkpt>
      <trkpt lat="43.455990739166736602783203125" lon="-3.7417568452656269073486328125">
        <ele>-10.3999996185302734375</ele>
        <time>2018-09-05T09:20:42.000Z</time>
      </trkpt>
      <trkpt lat="43.455970287322998046875" lon="-3.7417660653591156005859375">
        <ele>-10.6000003814697265625</ele>
        <time>2018-09-05T09:20:44.000Z</time>
      </trkpt>
      <trkpt lat="43.45600222237408161163330078125" lon="-3.74181141145527362823486328125">
        <ele>-10.3999996185302734375</ele>
        <time>2018-09-05T09:20:48.000Z</time>
      </trkpt>
      <trkpt lat="43.45600591041147708892822265625" lon="-3.74182465486228466033935546875">
        <ele>-10.19999980926513671875</ele>
        <time>2018-09-05T09:20:49.000Z</time>
      </trkpt>
      <trkpt lat="43.45601596869528293609619140625" lon="-3.74185767956078052520751953125">
        <ele>-10</ele>
        <time>2018-09-05T09:20:51.000Z</time>
      </trkpt>
      <trkpt lat="43.45602066256105899810791015625" lon="-3.74187846668064594268798828125">
        <ele>-10</ele>
        <time>2018-09-05T09:20:52.000Z</time>
      </trkpt>
      <trkpt lat="43.45603474415838718414306640625" lon="-3.74193781055510044097900390625">
        <ele>-9.80000019073486328125</ele>
        <time>2018-09-05T09:20:55.000Z</time>
      </trkpt>
      <trkpt lat="43.4560566209256649017333984375" lon="-3.741982318460941314697265625">
        <ele>-9.3999996185302734375</ele>
        <time>2018-09-05T09:20:58.000Z</time>
      </trkpt>
      <trkpt lat="43.45607464201748371124267578125" lon="-3.742005117237567901611328125">
        <ele>-9</ele>
        <time>2018-09-05T09:21:00.000Z</time>
      </trkpt>
      <trkpt lat="43.456098027527332305908203125" lon="-3.74202582053840160369873046875">
        <ele>-8.80000019073486328125</ele>
        <time>2018-09-05T09:21:02.000Z</time>
      </trkpt>
      <trkpt lat="43.45611688680946826934814453125" lon="-3.74203772284090518951416015625">
        <ele>-8.6000003814697265625</ele>
        <time>2018-09-05T09:21:04.000Z</time>
      </trkpt>
      <trkpt lat="43.456132896244525909423828125" lon="-3.7420488707721233367919921875">
        <ele>-8.3999996185302734375</ele>
        <time>2018-09-05T09:21:06.000Z</time>
      </trkpt>
      <trkpt lat="43.4561461396515369415283203125" lon="-3.7420535646378993988037109375">
        <ele>-8.19999980926513671875</ele>
        <time>2018-09-05T09:21:07.000Z</time>
      </trkpt>
      <trkpt lat="43.4561930783092975616455078125" lon="-3.7420612759888172149658203125">
        <ele>-7.80000019073486328125</ele>
        <time>2018-09-05T09:21:11.000Z</time>
      </trkpt>
      <trkpt lat="43.4562162123620510101318359375" lon="-3.74205515719950199127197265625">
        <ele>-7.400000095367431640625</ele>
        <time>2018-09-05T09:21:13.000Z</time>
      </trkpt>
      <trkpt lat="43.45622886903584003448486328125" lon="-3.7420476973056793212890625">
        <ele>-7.400000095367431640625</ele>
        <time>2018-09-05T09:21:14.000Z</time>
      </trkpt>
      <trkpt lat="43.45626709051430225372314453125" lon="-3.74203973449766635894775390625">
        <ele>-7</ele>
        <time>2018-09-05T09:21:18.000Z</time>
      </trkpt>
      <trkpt lat="43.4562666714191436767578125" lon="-3.7420414946973323822021484375">
        <ele>-6.80000019073486328125</ele>
        <time>2018-09-05T09:21:20.000Z</time>
      </trkpt>
      <trkpt lat="43.45628117211163043975830078125" lon="-3.7420941330492496490478515625">
        <ele>-6.80000019073486328125</ele>
        <time>2018-09-05T09:21:23.000Z</time>
      </trkpt>
      <trkpt lat="43.4562879614531993865966796875" lon="-3.742113746702671051025390625">
        <ele>-6.80000019073486328125</ele>
        <time>2018-09-05T09:21:24.000Z</time>
      </trkpt>
      <trkpt lat="43.45629424788057804107666015625" lon="-3.7421243079006671905517578125">
        <ele>-6.80000019073486328125</ele>
        <time>2018-09-05T09:21:25.000Z</time>
      </trkpt>
      <trkpt lat="43.4562343172729015350341796875" lon="-3.74212925322353839874267578125">
        <ele>-7</ele>
        <time>2018-09-05T09:21:35.000Z</time>
      </trkpt>
      <trkpt lat="43.45614186488091945648193359375" lon="-3.7421283312141895294189453125">
        <ele>-8.19999980926513671875</ele>
        <time>2018-09-05T09:21:40.000Z</time>
      </trkpt>
      <trkpt lat="43.45613281242549419403076171875" lon="-3.7421316839754581451416015625">
        <ele>-8.3999996185302734375</ele>
        <time>2018-09-05T09:21:41.000Z</time>
      </trkpt>
      <trkpt lat="43.456116132438182830810546875" lon="-3.7421424128115177154541015625">
        <ele>-8.80000019073486328125</ele>
        <time>2018-09-05T09:21:42.000Z</time>
      </trkpt>
      <trkpt lat="43.4561030566692352294921875" lon="-3.7421772815287113189697265625">
        <ele>-9.3999996185302734375</ele>
        <time>2018-09-05T09:21:44.000Z</time>
      </trkpt>
      <trkpt lat="43.45610238611698150634765625" lon="-3.7422059476375579833984375">
        <ele>-9.3999996185302734375</ele>
        <time>2018-09-05T09:21:46.000Z</time>
      </trkpt>
      <trkpt lat="43.456093333661556243896484375" lon="-3.74226252548396587371826171875">
        <ele>-9.19999980926513671875</ele>
        <time>2018-09-05T09:21:50.000Z</time>
      </trkpt>
      <trkpt lat="43.456018231809139251708984375" lon="-3.74232019297778606414794921875">
        <ele>-8.6000003814697265625</ele>
        <time>2018-09-05T09:26:06.000Z</time>
      </trkpt>
      <trkpt lat="43.4559929184615612030029296875" lon="-3.7423212826251983642578125">
        <ele>-9.19999980926513671875</ele>
        <time>2018-09-05T09:26:07.000Z</time>
      </trkpt>
      <trkpt lat="43.45597657375037670135498046875" lon="-3.742320947349071502685546875">
        <ele>-9.19999980926513671875</ele>
        <time>2018-09-05T09:26:08.000Z</time>
      </trkpt>
      <trkpt lat="43.45595528371632099151611328125" lon="-3.74234667979180812835693359375">
        <ele>-9.3999996185302734375</ele>
        <time>2018-09-05T09:26:09.000Z</time>
      </trkpt>
      <trkpt lat="43.45594572834670543670654296875" lon="-3.7424106337130069732666015625">
        <ele>-9.19999980926513671875</ele>
        <time>2018-09-05T09:26:11.000Z</time>
      </trkpt>
      <trkpt lat="43.455945812165737152099609375" lon="-3.74243116937577724456787109375">
        <ele>-9.19999980926513671875</ele>
        <time>2018-09-05T09:26:12.000Z</time>
      </trkpt>
      <trkpt lat="43.45589057542383670806884765625" lon="-3.74257047660648822784423828125">
        <ele>-9.19999980926513671875</ele>
        <time>2018-09-05T09:26:18.000Z</time>
      </trkpt>
      <trkpt lat="43.45588437281548976898193359375" lon="-3.74259578995406627655029296875">
        <ele>-9.3999996185302734375</ele>
        <time>2018-09-05T09:26:19.000Z</time>
      </trkpt>
      <trkpt lat="43.455906249582767486572265625" lon="-3.7426453270018100738525390625">
        <ele>-9.19999980926513671875</ele>
        <time>2018-09-05T09:26:22.000Z</time>
      </trkpt>
      <trkpt lat="43.45593701116740703582763671875" lon="-3.7426553852856159210205078125">
        <ele>-9.19999980926513671875</ele>
        <time>2018-09-05T09:26:24.000Z</time>
      </trkpt>
      <trkpt lat="43.456025607883930206298828125" lon="-3.742685727775096893310546875">
        <ele>-9</ele>
        <time>2018-09-05T09:26:30.000Z</time>
      </trkpt>
      <trkpt lat="43.45615862868726253509521484375" lon="-3.74276393093168735504150390625">
        <ele>-9</ele>
        <time>2018-09-05T09:26:38.000Z</time>
      </trkpt>
      <trkpt lat="43.45621612854301929473876953125" lon="-3.742745406925678253173828125">
        <ele>-8.80000019073486328125</ele>
        <time>2018-09-05T09:27:03.000Z</time>
      </trkpt>
      <trkpt lat="43.4562318027019500732421875" lon="-3.742728643119335174560546875">
        <ele>-8.80000019073486328125</ele>
        <time>2018-09-05T09:27:04.000Z</time>
      </trkpt>
      <trkpt lat="43.4562711976468563079833984375" lon="-3.74270743690431118011474609375">
        <ele>-9</ele>
        <time>2018-09-05T09:27:06.000Z</time>
      </trkpt>
      <trkpt lat="43.45630816183984279632568359375" lon="-3.74271950684487819671630859375">
        <ele>-8.80000019073486328125</ele>
        <time>2018-09-05T09:27:08.000Z</time>
      </trkpt>
      <trkpt lat="43.4563332237303256988525390625" lon="-3.7427673675119876861572265625">
        <ele>-8.3999996185302734375</ele>
        <time>2018-09-05T09:27:12.000Z</time>
      </trkpt>
      <trkpt lat="43.45625569112598896026611328125" lon="-3.7427040003240108489990234375">
        <ele>-7.80000019073486328125</ele>
        <time>2018-09-05T09:32:15.000Z</time>
      </trkpt>
      <trkpt lat="43.45624144189059734344482421875" lon="-3.74270961619913578033447265625">
        <ele>-8</ele>
        <time>2018-09-05T09:32:16.000Z</time>
      </trkpt>
      <trkpt lat="43.4562182240188121795654296875" lon="-3.74275781214237213134765625">
        <ele>-8</ele>
        <time>2018-09-05T09:32:18.000Z</time>
      </trkpt>
      <trkpt lat="43.45620338805019855499267578125" lon="-3.74281346797943115234375">
        <ele>-8</ele>
        <time>2018-09-05T09:32:20.000Z</time>
      </trkpt>
      <trkpt lat="43.45619852654635906219482421875" lon="-3.74284573830664157867431640625">
        <ele>-8.19999980926513671875</ele>
        <time>2018-09-05T09:32:21.000Z</time>
      </trkpt>
      <trkpt lat="43.4561816789209842681884765625" lon="-3.7430106103420257568359375">
        <ele>-8.19999980926513671875</ele>
        <time>2018-09-05T09:32:26.000Z</time>
      </trkpt>
      <trkpt lat="43.45615468919277191162109375" lon="-3.7431891448795795440673828125">
        <ele>-8.3999996185302734375</ele>
        <time>2018-09-05T09:32:31.000Z</time>
      </trkpt>
      <trkpt lat="43.4561374224722385406494140625" lon="-3.74326701276004314422607421875">
        <ele>-8.3999996185302734375</ele>
        <time>2018-09-05T09:32:33.000Z</time>
      </trkpt>
      <trkpt lat="43.45610012300312519073486328125" lon="-3.74334680847823619842529296875">
        <ele>-8.3999996185302734375</ele>
        <time>2018-09-05T09:32:36.000Z</time>
      </trkpt>
      <trkpt lat="43.456084616482257843017578125" lon="-3.74334647320210933685302734375">
        <ele>-8.19999980926513671875</ele>
        <time>2018-09-05T09:32:37.000Z</time>
      </trkpt>
      <trkpt lat="43.45607556402683258056640625" lon="-3.743303306400775909423828125">
        <ele>-8.19999980926513671875</ele>
        <time>2018-09-05T09:32:39.000Z</time>
      </trkpt>
      <trkpt lat="43.45608252100646495819091796875" lon="-3.7432709522545337677001953125">
        <ele>-8.19999980926513671875</ele>
        <time>2018-09-05T09:32:40.000Z</time>
      </trkpt>
      <trkpt lat="43.4560941718518733978271484375" lon="-3.7431956827640533447265625">
        <ele>-8.19999980926513671875</ele>
        <time>2018-09-05T09:32:42.000Z</time>
      </trkpt>
      <trkpt lat="43.4561240114271640777587890625" lon="-3.74302326701581478118896484375">
        <ele>-8.19999980926513671875</ele>
        <time>2018-09-05T09:32:47.000Z</time>
      </trkpt>
      <trkpt lat="43.45612007193267345428466796875" lon="-3.74280215241014957427978515625">
        <ele>-8.19999980926513671875</ele>
        <time>2018-09-05T09:32:54.000Z</time>
      </trkpt>
      <trkpt lat="43.456037342548370361328125" lon="-3.7427338398993015289306640625">
        <ele>-8.19999980926513671875</ele>
        <time>2018-09-05T09:32:58.000Z</time>
      </trkpt>
      <trkpt lat="43.45588286407291889190673828125" lon="-3.7426677905023097991943359375">
        <ele>-8.3999996185302734375</ele>
        <time>2018-09-05T09:33:05.000Z</time>
      </trkpt>
      <trkpt lat="43.4558782540261745452880859375" lon="-3.74264306388795375823974609375">
        <ele>-8.3999996185302734375</ele>
        <time>2018-09-05T09:33:06.000Z</time>
      </trkpt>
      <trkpt lat="43.45589845441281795501708984375" lon="-3.742581792175769805908203125">
        <ele>-8.3999996185302734375</ele>
        <time>2018-09-05T09:33:09.000Z</time>
      </trkpt>
      <trkpt lat="43.45592862926423549652099609375" lon="-3.74242697842419147491455078125">
        <ele>-8.3999996185302734375</ele>
        <time>2018-09-05T09:33:16.000Z</time>
      </trkpt>
      <trkpt lat="43.455975987017154693603515625" lon="-3.74240954406559467315673828125">
        <ele>-8</ele>
        <time>2018-09-05T09:33:20.000Z</time>
      </trkpt>
      <trkpt lat="43.45600775443017482757568359375" lon="-3.74241038225591182708740234375">
        <ele>-8</ele>
        <time>2018-09-05T09:33:22.000Z</time>
      </trkpt>
      <trkpt lat="43.45603709109127521514892578125" lon="-3.74236143194139003753662109375">
        <ele>-8</ele>
        <time>2018-09-05T09:33:25.000Z</time>
      </trkpt>
      <trkpt lat="43.4560720436275005340576171875" lon="-3.74230041168630123138427734375">
        <ele>-8</ele>
        <time>2018-09-05T09:33:30.000Z</time>
      </trkpt>
      <trkpt lat="43.45608294010162353515625" lon="-3.7423207797110080718994140625">
        <ele>-8.19999980926513671875</ele>
        <time>2018-09-05T09:33:31.000Z</time>
      </trkpt>
      <trkpt lat="43.45605419017374515533447265625" lon="-3.74237920157611370086669921875">
        <ele>-8.19999980926513671875</ele>
        <time>2018-09-05T09:33:34.000Z</time>
      </trkpt>
      <trkpt lat="43.4560413658618927001953125" lon="-3.7423965521156787872314453125">
        <ele>-8.19999980926513671875</ele>
        <time>2018-09-05T09:33:35.000Z</time>
      </trkpt>
      <trkpt lat="43.45594002865254878997802734375" lon="-3.74243862926959991455078125">
        <ele>-8.19999980926513671875</ele>
        <time>2018-09-05T09:33:40.000Z</time>
      </trkpt>
      <trkpt lat="43.45591806806623935699462890625" lon="-3.74248020350933074951171875">
        <ele>-8.19999980926513671875</ele>
        <time>2018-09-05T09:33:42.000Z</time>
      </trkpt>
      <trkpt lat="43.455907590687274932861328125" lon="-3.74253024347126483917236328125">
        <ele>-8.19999980926513671875</ele>
        <time>2018-09-05T09:33:44.000Z</time>
      </trkpt>
      <trkpt lat="43.45588336698710918426513671875" lon="-3.74262797646224498748779296875">
        <ele>-8.3999996185302734375</ele>
        <time>2018-09-05T09:33:48.000Z</time>
      </trkpt>
      <trkpt lat="43.45597523264586925506591796875" lon="-3.74266653321683406829833984375">
        <ele>-8.3999996185302734375</ele>
        <time>2018-09-05T09:33:52.000Z</time>
      </trkpt>
      <trkpt lat="43.4561746381223201751708984375" lon="-3.7427656911313533782958984375">
        <ele>-7.80000019073486328125</ele>
        <time>2018-09-05T09:33:59.000Z</time>
      </trkpt>
      <trkpt lat="43.45619584433734416961669921875" lon="-3.74292410910129547119140625">
        <ele>-8.3999996185302734375</ele>
        <time>2018-09-05T09:34:03.000Z</time>
      </trkpt>
      <trkpt lat="43.45617136918008327484130859375" lon="-3.7430577166378498077392578125">
        <ele>-8.19999980926513671875</ele>
        <time>2018-09-05T09:34:06.000Z</time>
      </trkpt>
      <trkpt lat="43.45615225844085216522216796875" lon="-3.74316341243684291839599609375">
        <ele>-8.19999980926513671875</ele>
        <time>2018-09-05T09:34:08.000Z</time>
      </trkpt>
      <trkpt lat="43.45612711273133754730224609375" lon="-3.74327623285353183746337890625">
        <ele>-8.3999996185302734375</ele>
        <time>2018-09-05T09:34:10.000Z</time>
      </trkpt>
      <trkpt lat="43.45611386932432651519775390625" lon="-3.74333314597606658935546875">
        <ele>-8.3999996185302734375</ele>
        <time>2018-09-05T09:34:11.000Z</time>
      </trkpt>
      <trkpt lat="43.4560904838144779205322265625" lon="-3.7434449605643749237060546875">
        <ele>-8.19999980926513671875</ele>
        <time>2018-09-05T09:34:13.000Z</time>
      </trkpt>
      <trkpt lat="43.4560308046638965606689453125" lon="-3.74373556114733219146728515625">
        <ele>-8.3999996185302734375</ele>
        <time>2018-09-05T09:34:18.000Z</time>
      </trkpt>
      <trkpt lat="43.455956541001796722412109375" lon="-3.74406044371426105499267578125">
        <ele>-8.19999980926513671875</ele>
        <time>2018-09-05T09:34:24.000Z</time>
      </trkpt>
      <trkpt lat="43.4559469856321811676025390625" lon="-3.7441178597509860992431640625">
        <ele>-8.19999980926513671875</ele>
        <time>2018-09-05T09:34:25.000Z</time>
      </trkpt>
      <trkpt lat="43.45592376776039600372314453125" lon="-3.7443317659199237823486328125">
        <ele>-8.19999980926513671875</ele>
        <time>2018-09-05T09:34:29.000Z</time>
      </trkpt>
      <trkpt lat="43.4559080936014652252197265625" lon="-3.74451088719069957733154296875">
        <ele>-8.19999980926513671875</ele>
        <time>2018-09-05T09:34:32.000Z</time>
      </trkpt>
      <trkpt lat="43.45586098730564117431640625" lon="-3.74466695822775363922119140625">
        <ele>-8</ele>
        <time>2018-09-05T09:34:35.000Z</time>
      </trkpt>
      <trkpt lat="43.4557672776281833648681640625" lon="-3.74478899873793125152587890625">
        <ele>-8.19999980926513671875</ele>
        <time>2018-09-05T09:34:38.000Z</time>
      </trkpt>
      <trkpt lat="43.45573316328227519989013671875" lon="-3.744825460016727447509765625">
        <ele>-8.19999980926513671875</ele>
        <time>2018-09-05T09:34:39.000Z</time>
      </trkpt>
      <trkpt lat="43.4556982107460498809814453125" lon="-3.74486024491488933563232421875">
        <ele>-8.3999996185302734375</ele>
        <time>2018-09-05T09:34:40.000Z</time>
      </trkpt>
      <trkpt lat="43.4555946104228496551513671875" lon="-3.7449701316654682159423828125">
        <ele>-8</ele>
        <time>2018-09-05T09:34:43.000Z</time>
      </trkpt>
      <trkpt lat="43.4554903395473957061767578125" lon="-3.74507800675928592681884765625">
        <ele>-8</ele>
        <time>2018-09-05T09:34:46.000Z</time>
      </trkpt>
      <trkpt lat="43.45541364513337612152099609375" lon="-3.74513483606278896331787109375">
        <ele>-8</ele>
        <time>2018-09-05T09:34:48.000Z</time>
      </trkpt>
      <trkpt lat="43.45536804758012294769287109375" lon="-3.745145983994007110595703125">
        <ele>-8</ele>
        <time>2018-09-05T09:34:49.000Z</time>
      </trkpt>
      <trkpt lat="43.45513368956744670867919921875" lon="-3.74511354602873325347900390625">
        <ele>-8.80000019073486328125</ele>
        <time>2018-09-05T09:34:54.000Z</time>
      </trkpt>
      <trkpt lat="43.45503754913806915283203125" lon="-3.74507448635995388031005859375">
        <ele>-8.80000019073486328125</ele>
        <time>2018-09-05T09:34:56.000Z</time>
      </trkpt>
      <trkpt lat="43.454765640199184417724609375" lon="-3.7449364364147186279296875">
        <ele>-9.19999980926513671875</ele>
        <time>2018-09-05T09:35:02.000Z</time>
      </trkpt>
      <trkpt lat="43.4545656479895114898681640625" lon="-3.74489444307982921600341796875">
        <ele>-9</ele>
        <time>2018-09-05T09:35:07.000Z</time>
      </trkpt>
      <trkpt lat="43.4544935636222362518310546875" lon="-3.744890503585338592529296875">
        <ele>-9</ele>
        <time>2018-09-05T09:35:09.000Z</time>
      </trkpt>
      <trkpt lat="43.4544647298753261566162109375" lon="-3.7449044175446033477783203125">
        <ele>-9</ele>
        <time>2018-09-05T09:35:10.000Z</time>
      </trkpt>
      <trkpt lat="43.45444888807833194732666015625" lon="-3.74497574754059314727783203125">
        <ele>-8.80000019073486328125</ele>
        <time>2018-09-05T09:35:12.000Z</time>
      </trkpt>
      <trkpt lat="43.454410918056964874267578125" lon="-3.7452782504260540008544921875">
        <ele>-9.19999980926513671875</ele>
        <time>2018-09-05T09:35:18.000Z</time>
      </trkpt>
      <trkpt lat="43.45440044067800045013427734375" lon="-3.74539199285209178924560546875">
        <ele>-9.19999980926513671875</ele>
        <time>2018-09-05T09:35:20.000Z</time>
      </trkpt>
      <trkpt lat="43.45438753254711627960205078125" lon="-3.745507411658763885498046875">
        <ele>-9</ele>
        <time>2018-09-05T09:35:22.000Z</time>
      </trkpt>
      <trkpt lat="43.45436138100922107696533203125" lon="-3.74567194841802120208740234375">
        <ele>-9.3999996185302734375</ele>
        <time>2018-09-05T09:35:25.000Z</time>
      </trkpt>
      <trkpt lat="43.45434377901256084442138671875" lon="-3.745788037776947021484375">
        <ele>-9.3999996185302734375</ele>
        <time>2018-09-05T09:35:27.000Z</time>
      </trkpt>
      <trkpt lat="43.45433774404227733612060546875" lon="-3.7458488903939723968505859375">
        <ele>-9.3999996185302734375</ele>
        <time>2018-09-05T09:35:28.000Z</time>
      </trkpt>
      <trkpt lat="43.45430773682892322540283203125" lon="-3.746080063283443450927734375">
        <ele>-9.3999996185302734375</ele>
        <time>2018-09-05T09:35:32.000Z</time>
      </trkpt>
      <trkpt lat="43.45432802103459835052490234375" lon="-3.74625398777425289154052734375">
        <ele>-9.3999996185302734375</ele>
        <time>2018-09-05T09:35:36.000Z</time>
      </trkpt>
      <trkpt lat="43.4544204734265804290771484375" lon="-3.74632892198860645294189453125">
        <ele>-9.3999996185302734375</ele>
        <time>2018-09-05T09:35:40.000Z</time>
      </trkpt>
      <trkpt lat="43.45437102019786834716796875" lon="-3.7463762797415256500244140625">
        <ele>-9.19999980926513671875</ele>
        <time>2018-09-05T09:35:43.000Z</time>
      </trkpt>
      <trkpt lat="43.45435467548668384552001953125" lon="-3.74640368856489658355712890625">
        <ele>-9</ele>
        <time>2018-09-05T09:35:44.000Z</time>
      </trkpt>
      <trkpt lat="43.4543353132903575897216796875" lon="-3.74649203382432460784912109375">
        <ele>-9</ele>
        <time>2018-09-05T09:35:46.000Z</time>
      </trkpt>
      <trkpt lat="43.454325087368488311767578125" lon="-3.7465942092239856719970703125">
        <ele>-9</ele>
        <time>2018-09-05T09:35:48.000Z</time>
      </trkpt>
      <trkpt lat="43.45431226305663585662841796875" lon="-3.74669504351913928985595703125">
        <ele>-9.19999980926513671875</ele>
        <time>2018-09-05T09:35:50.000Z</time>
      </trkpt>
      <trkpt lat="43.45429298467934131622314453125" lon="-3.7468584068119525909423828125">
        <ele>-9.19999980926513671875</ele>
        <time>2018-09-05T09:35:53.000Z</time>
      </trkpt>
      <trkpt lat="43.454245962202548980712890625" lon="-3.7471236102283000946044921875">
        <ele>-8.19999980926513671875</ele>
        <time>2018-09-05T09:35:59.000Z</time>
      </trkpt>
      <trkpt lat="43.45415133051574230194091796875" lon="-3.74713383615016937255859375">
        <ele>-8.19999980926513671875</ele>
        <time>2018-09-05T09:36:03.000Z</time>
      </trkpt>
      <trkpt lat="43.454116880893707275390625" lon="-3.7471202574670314788818359375">
        <ele>-8.19999980926513671875</ele>
        <time>2018-09-05T09:36:04.000Z</time>
      </trkpt>
      <trkpt lat="43.4540043957531452178955078125" lon="-3.7470776773989200592041015625">
        <ele>-8.19999980926513671875</ele>
        <time>2018-09-05T09:36:07.000Z</time>
      </trkpt>
      <trkpt lat="43.45392602495849132537841796875" lon="-3.74704792164266109466552734375">
        <ele>-8</ele>
        <time>2018-09-05T09:36:09.000Z</time>
      </trkpt>
      <trkpt lat="43.45360885374248027801513671875" lon="-3.74685882590711116790771484375">
        <ele>-8.3999996185302734375</ele>
        <time>2018-09-05T09:36:17.000Z</time>
      </trkpt>
      <trkpt lat="43.45321121625602245330810546875" lon="-3.74661147594451904296875">
        <ele>-8</ele>
        <time>2018-09-05T09:36:27.000Z</time>
      </trkpt>
      <trkpt lat="43.45301507972180843353271484375" lon="-3.7465606816112995147705078125">
        <ele>-8.19999980926513671875</ele>
        <time>2018-09-05T09:36:32.000Z</time>
      </trkpt>
      <trkpt lat="43.45298239029943943023681640625" lon="-3.74655540101230144500732421875">
        <ele>-8.19999980926513671875</ele>
        <time>2018-09-05T09:36:33.000Z</time>
      </trkpt>
      <trkpt lat="43.452889434993267059326171875" lon="-3.74655473046004772186279296875">
        <ele>-8.3999996185302734375</ele>
        <time>2018-09-05T09:36:36.000Z</time>
      </trkpt>
      <trkpt lat="43.4527776204049587249755859375" lon="-3.7465886771678924560546875">
        <ele>-8.3999996185302734375</ele>
        <time>2018-09-05T09:36:40.000Z</time>
      </trkpt>
      <trkpt lat="43.45266102813184261322021484375" lon="-3.74664701521396636962890625">
        <ele>-8.3999996185302734375</ele>
        <time>2018-09-05T09:36:44.000Z</time>
      </trkpt>
      <trkpt lat="43.45259682275354862213134765625" lon="-3.746625892817974090576171875">
        <ele>-8.80000019073486328125</ele>
        <time>2018-09-05T09:36:46.000Z</time>
      </trkpt>
      <trkpt lat="43.4524698369204998016357421875" lon="-3.74655188061296939849853515625">
        <ele>-8.3999996185302734375</ele>
        <time>2018-09-05T09:36:50.000Z</time>
      </trkpt>
      <trkpt lat="43.45237453468143939971923828125" lon="-3.7464922852814197540283203125">
        <ele>-8.6000003814697265625</ele>
        <time>2018-09-05T09:36:53.000Z</time>
      </trkpt>
      <trkpt lat="43.4522522427141666412353515625" lon="-3.7464098073542118072509765625">
        <ele>-8.6000003814697265625</ele>
        <time>2018-09-05T09:36:57.000Z</time>
      </trkpt>
      <trkpt lat="43.45206524245440959930419921875" lon="-3.74633395113050937652587890625">
        <ele>-8.80000019073486328125</ele>
        <time>2018-09-05T09:37:04.000Z</time>
      </trkpt>
      <trkpt lat="43.45200858078896999359130859375" lon="-3.74633629806339740753173828125">
        <ele>-9</ele>
        <time>2018-09-05T09:37:07.000Z</time>
      </trkpt>
      <trkpt lat="43.45197237096726894378662109375" lon="-3.74637342989444732666015625">
        <ele>-8.80000019073486328125</ele>
        <time>2018-09-05T09:37:10.000Z</time>
      </trkpt>
      <trkpt lat="43.45194303430616855621337890625" lon="-3.74642447568476200103759765625">
        <ele>-8.19999980926513671875</ele>
        <time>2018-09-05T09:37:14.000Z</time>
      </trkpt>
      <trkpt lat="43.4519349038600921630859375" lon="-3.74646403826773166656494140625">
        <ele>-8.6000003814697265625</ele>
        <time>2018-09-05T09:51:00.000Z</time>
      </trkpt>
      <trkpt lat="43.4519280306994915008544921875" lon="-3.746444843709468841552734375">
        <ele>-8.6000003814697265625</ele>
        <time>2018-09-05T09:51:01.000Z</time>
      </trkpt>
      <trkpt lat="43.4518820978701114654541015625" lon="-3.74644459225237369537353515625">
        <ele>-8.80000019073486328125</ele>
        <time>2018-09-05T09:51:05.000Z</time>
      </trkpt>
      <trkpt lat="43.4516775794327259063720703125" lon="-3.74662346206605434417724609375">
        <ele>-9.80000019073486328125</ele>
        <time>2018-09-05T09:55:41.000Z</time>
      </trkpt>
      <trkpt lat="43.45167162828147411346435546875" lon="-3.74664424918591976165771484375">
        <ele>-9.80000019073486328125</ele>
        <time>2018-09-05T09:55:42.000Z</time>
      </trkpt>
      <trkpt lat="43.45166391693055629730224609375" lon="-3.74666922725737094879150390625">
        <ele>-9.80000019073486328125</ele>
        <time>2018-09-05T09:55:43.000Z</time>
      </trkpt>
      <trkpt lat="43.451618067920207977294921875" lon="-3.7468057684600353240966796875">
        <ele>-9.80000019073486328125</ele>
        <time>2018-09-05T09:55:48.000Z</time>
      </trkpt>
      <trkpt lat="43.45157087780535221099853515625" lon="-3.74692730605602264404296875">
        <ele>-9.80000019073486328125</ele>
        <time>2018-09-05T09:55:52.000Z</time>
      </trkpt>
      <trkpt lat="43.45143626444041728973388671875" lon="-3.74723668210208415985107421875">
        <ele>-10</ele>
        <time>2018-09-05T09:56:02.000Z</time>
      </trkpt>
      <trkpt lat="43.45135579816997051239013671875" lon="-3.7474092654883861541748046875">
        <ele>-9.80000019073486328125</ele>
        <time>2018-09-05T09:56:07.000Z</time>
      </trkpt>
      <trkpt lat="43.45132227055728435516357421875" lon="-3.747483193874359130859375">
        <ele>-10</ele>
        <time>2018-09-05T09:56:09.000Z</time>
      </trkpt>
      <trkpt lat="43.45125135965645313262939453125" lon="-3.7476406060159206390380859375">
        <ele>-10</ele>
        <time>2018-09-05T09:56:13.000Z</time>
      </trkpt>
      <trkpt lat="43.4512024931609630584716796875" lon="-3.7477579526603221893310546875">
        <ele>-10.19999980926513671875</ele>
        <time>2018-09-05T09:56:16.000Z</time>
      </trkpt>
      <trkpt lat="43.45115446485579013824462890625" lon="-3.747880160808563232421875">
        <ele>-10</ele>
        <time>2018-09-05T09:56:19.000Z</time>
      </trkpt>
      <trkpt lat="43.45106444321572780609130859375" lon="-3.74808979220688343048095703125">
        <ele>-10</ele>
        <time>2018-09-05T09:56:24.000Z</time>
      </trkpt>
      <trkpt lat="43.45099017955362796783447265625" lon="-3.7482588551938533782958984375">
        <ele>-10</ele>
        <time>2018-09-05T09:56:28.000Z</time>
      </trkpt>
      <trkpt lat="43.4508608467876911163330078125" lon="-3.7485542334616184234619140625">
        <ele>-10</ele>
        <time>2018-09-05T09:56:35.000Z</time>
      </trkpt>
      <trkpt lat="43.4508430771529674530029296875" lon="-3.74859589152038097381591796875">
        <ele>-10</ele>
        <time>2018-09-05T09:56:36.000Z</time>
      </trkpt>
      <trkpt lat="43.4507656283676624298095703125" lon="-3.74881558120250701904296875">
        <ele>-9.80000019073486328125</ele>
        <time>2018-09-05T09:56:41.000Z</time>
      </trkpt>
      <trkpt lat="43.450728915631771087646484375" lon="-3.7489045970141887664794921875">
        <ele>-9.80000019073486328125</ele>
        <time>2018-09-05T09:56:43.000Z</time>
      </trkpt>
      <trkpt lat="43.45069631002843379974365234375" lon="-3.74898967333137989044189453125">
        <ele>-10</ele>
        <time>2018-09-05T09:56:45.000Z</time>
      </trkpt>
      <trkpt lat="43.450681306421756744384765625" lon="-3.7490306608378887176513671875">
        <ele>-10</ele>
        <time>2018-09-05T09:56:46.000Z</time>
      </trkpt>
      <trkpt lat="43.4506650455296039581298828125" lon="-3.74907081015408039093017578125">
        <ele>-10.19999980926513671875</ele>
        <time>2018-09-05T09:56:47.000Z</time>
      </trkpt>
      <trkpt lat="43.450613915920257568359375" lon="-3.7491984665393829345703125">
        <ele>-10</ele>
        <time>2018-09-05T09:56:50.000Z</time>
      </trkpt>
      <trkpt lat="43.45056203193962574005126953125" lon="-3.74933165498077869415283203125">
        <ele>-10</ele>
        <time>2018-09-05T09:56:53.000Z</time>
      </trkpt>
      <trkpt lat="43.45050939358770847320556640625" lon="-3.74945721589028835296630859375">
        <ele>-9.80000019073486328125</ele>
        <time>2018-09-05T09:56:56.000Z</time>
      </trkpt>
      <trkpt lat="43.4503539092838764190673828125" lon="-3.7498326413333415985107421875">
        <ele>-9.80000019073486328125</ele>
        <time>2018-09-05T09:57:05.000Z</time>
      </trkpt>
      <trkpt lat="43.45024938695132732391357421875" lon="-3.75008602626621723175048828125">
        <ele>-10</ele>
        <time>2018-09-05T09:57:11.000Z</time>
      </trkpt>
      <trkpt lat="43.45019456930458545684814453125" lon="-3.7502215616405010223388671875">
        <ele>-9.80000019073486328125</ele>
        <time>2018-09-05T09:57:14.000Z</time>
      </trkpt>
      <trkpt lat="43.4500028751790523529052734375" lon="-3.75067242421209812164306640625">
        <ele>-10</ele>
        <time>2018-09-05T09:57:24.000Z</time>
      </trkpt>
      <trkpt lat="43.44994629733264446258544921875" lon="-3.75080938450992107391357421875">
        <ele>-9.80000019073486328125</ele>
        <time>2018-09-05T09:57:27.000Z</time>
      </trkpt>
      <trkpt lat="43.44984269700944423675537109375" lon="-3.751075677573680877685546875">
        <ele>-9.80000019073486328125</ele>
        <time>2018-09-05T09:57:33.000Z</time>
      </trkpt>
      <trkpt lat="43.44970271922647953033447265625" lon="-3.7515413761138916015625">
        <ele>-9.80000019073486328125</ele>
        <time>2018-09-05T09:57:43.000Z</time>
      </trkpt>
      <trkpt lat="43.44968025572597980499267578125" lon="-3.7516357563436031341552734375">
        <ele>-9.80000019073486328125</ele>
        <time>2018-09-05T09:57:45.000Z</time>
      </trkpt>
      <trkpt lat="43.44965863041579723358154296875" lon="-3.7517209164798259735107421875">
        <ele>-10</ele>
        <time>2018-09-05T09:57:47.000Z</time>
      </trkpt>
      <trkpt lat="43.449641279876232147216796875" lon="-3.75181219540536403656005859375">
        <ele>-10</ele>
        <time>2018-09-05T09:57:49.000Z</time>
      </trkpt>
      <trkpt lat="43.44957481138408184051513671875" lon="-3.75208829529583454132080078125">
        <ele>-10</ele>
        <time>2018-09-05T09:57:55.000Z</time>
      </trkpt>
      <trkpt lat="43.44950574450194835662841796875" lon="-3.75237009488046169281005859375">
        <ele>-9.80000019073486328125</ele>
        <time>2018-09-05T09:58:01.000Z</time>
      </trkpt>
      <trkpt lat="43.4494838677346706390380859375" lon="-3.75246531330049037933349609375">
        <ele>-9.80000019073486328125</ele>
        <time>2018-09-05T09:58:03.000Z</time>
      </trkpt>
      <trkpt lat="43.4494484961032867431640625" lon="-3.75260713510215282440185546875">
        <ele>-9.80000019073486328125</ele>
        <time>2018-09-05T09:58:06.000Z</time>
      </trkpt>
      <trkpt lat="43.4494362585246562957763671875" lon="-3.7526558339595794677734375">
        <ele>-9.80000019073486328125</ele>
        <time>2018-09-05T09:58:07.000Z</time>
      </trkpt>
      <trkpt lat="43.4493829496204853057861328125" lon="-3.7529403157532215118408203125">
        <ele>-9.80000019073486328125</ele>
        <time>2018-09-05T09:58:13.000Z</time>
      </trkpt>
      <trkpt lat="43.44934598542749881744384765625" lon="-3.75314106233417987823486328125">
        <ele>-10</ele>
        <time>2018-09-05T09:58:17.000Z</time>
      </trkpt>
      <trkpt lat="43.4493262879550457000732421875" lon="-3.75325052998960018157958984375">
        <ele>-10</ele>
        <time>2018-09-05T09:58:19.000Z</time>
      </trkpt>
      <trkpt lat="43.4492645971477031707763671875" lon="-3.75386173836886882781982421875">
        <ele>-9.80000019073486328125</ele>
        <time>2018-09-05T09:58:31.000Z</time>
      </trkpt>
      <trkpt lat="43.44926099292933940887451171875" lon="-3.7544346414506435394287109375">
        <ele>-9.6000003814697265625</ele>
        <time>2018-09-05T09:58:42.000Z</time>
      </trkpt>
      <trkpt lat="43.4492756612598896026611328125" lon="-3.75463731586933135986328125">
        <ele>-9.6000003814697265625</ele>
        <time>2018-09-05T09:58:46.000Z</time>
      </trkpt>
      <trkpt lat="43.4492860548198223114013671875" lon="-3.75477947294712066650390625">
        <ele>-9.80000019073486328125</ele>
        <time>2018-09-05T09:58:49.000Z</time>
      </trkpt>
      <trkpt lat="43.44929971732199192047119140625" lon="-3.7551011703908443450927734375">
        <ele>-9.80000019073486328125</ele>
        <time>2018-09-05T09:58:56.000Z</time>
      </trkpt>
      <trkpt lat="43.4493036568164825439453125" lon="-3.75514735467731952667236328125">
        <ele>-9.6000003814697265625</ele>
        <time>2018-09-05T09:58:57.000Z</time>
      </trkpt>
      <trkpt lat="43.449349589645862579345703125" lon="-3.75592569820582866668701171875">
        <ele>-9.80000019073486328125</ele>
        <time>2018-09-05T09:59:14.000Z</time>
      </trkpt>
      <trkpt lat="43.44935889355838298797607421875" lon="-3.7561113573610782623291015625">
        <ele>-9.80000019073486328125</ele>
        <time>2018-09-05T09:59:18.000Z</time>
      </trkpt>
      <trkpt lat="43.44936610199511051177978515625" lon="-3.75619743950664997100830078125">
        <ele>-9.80000019073486328125</ele>
        <time>2018-09-05T09:59:20.000Z</time>
      </trkpt>
      <trkpt lat="43.4493635036051273345947265625" lon="-3.7564271874725818634033203125">
        <ele>-9.6000003814697265625</ele>
        <time>2018-09-05T09:59:25.000Z</time>
      </trkpt>
      <trkpt lat="43.44936409033834934234619140625" lon="-3.7568392418324947357177734375">
        <ele>-9.6000003814697265625</ele>
        <time>2018-09-05T09:59:34.000Z</time>
      </trkpt>
      <trkpt lat="43.44936626963317394256591796875" lon="-3.756926916539669036865234375">
        <ele>-9.6000003814697265625</ele>
        <time>2018-09-05T09:59:36.000Z</time>
      </trkpt>
      <trkpt lat="43.449393175542354583740234375" lon="-3.7575842253863811492919921875">
        <ele>-9.6000003814697265625</ele>
        <time>2018-09-05T09:59:50.000Z</time>
      </trkpt>
      <trkpt lat="43.44939694739878177642822265625" lon="-3.757724203169345855712890625">
        <ele>-9.6000003814697265625</ele>
        <time>2018-09-05T09:59:53.000Z</time>
      </trkpt>
      <trkpt lat="43.44940549694001674652099609375" lon="-3.75794716179370880126953125">
        <ele>-9.6000003814697265625</ele>
        <time>2018-09-05T09:59:58.000Z</time>
      </trkpt>
      <trkpt lat="43.44940382055938243865966796875" lon="-3.75838059000670909881591796875">
        <ele>-9.6000003814697265625</ele>
        <time>2018-09-05T10:00:07.000Z</time>
      </trkpt>
      <trkpt lat="43.44940465874969959259033203125" lon="-3.7584735453128814697265625">
        <ele>-9.6000003814697265625</ele>
        <time>2018-09-05T10:00:09.000Z</time>
      </trkpt>
      <trkpt lat="43.4493997134268283843994140625" lon="-3.7588368169963359832763671875">
        <ele>-9.80000019073486328125</ele>
        <time>2018-09-05T10:00:17.000Z</time>
      </trkpt>
      <trkpt lat="43.44939284026622772216796875" lon="-3.7589679099619388580322265625">
        <ele>-9.6000003814697265625</ele>
        <time>2018-09-05T10:00:20.000Z</time>
      </trkpt>
      <trkpt lat="43.44935688190162181854248046875" lon="-3.75942329876124858856201171875">
        <ele>-9.6000003814697265625</ele>
        <time>2018-09-05T10:00:30.000Z</time>
      </trkpt>
      <trkpt lat="43.44934514723718166351318359375" lon="-3.75951047055423259735107421875">
        <ele>-9.6000003814697265625</ele>
        <time>2018-09-05T10:00:32.000Z</time>
      </trkpt>
      <trkpt lat="43.44933005981147289276123046875" lon="-3.75959412194788455963134765625">
        <ele>-9.6000003814697265625</ele>
        <time>2018-09-05T10:00:34.000Z</time>
      </trkpt>
      <trkpt lat="43.44932285137474536895751953125" lon="-3.75963653437793254852294921875">
        <ele>-9.6000003814697265625</ele>
        <time>2018-09-05T10:00:35.000Z</time>
      </trkpt>
      <trkpt lat="43.44926333986222743988037109375" lon="-3.75994515605270862579345703125">
        <ele>-9.6000003814697265625</ele>
        <time>2018-09-05T10:00:42.000Z</time>
      </trkpt>
      <trkpt lat="43.44920047558844089508056640625" lon="-3.7602872215211391448974609375">
        <ele>-9.6000003814697265625</ele>
        <time>2018-09-05T10:00:50.000Z</time>
      </trkpt>
      <trkpt lat="43.44915856607258319854736328125" lon="-3.760461397469043731689453125">
        <ele>-9.6000003814697265625</ele>
        <time>2018-09-05T10:00:54.000Z</time>
      </trkpt>
      <trkpt lat="43.44910793937742710113525390625" lon="-3.76063900999724864959716796875">
        <ele>-9.6000003814697265625</ele>
        <time>2018-09-05T10:00:58.000Z</time>
      </trkpt>
      <trkpt lat="43.449094779789447784423828125" lon="-3.7606811709702014923095703125">
        <ele>-9.6000003814697265625</ele>
        <time>2018-09-05T10:00:59.000Z</time>
      </trkpt>
      <trkpt lat="43.44892152585089206695556640625" lon="-3.7612021900713443756103515625">
        <ele>-9.6000003814697265625</ele>
        <time>2018-09-05T10:01:11.000Z</time>
      </trkpt>
      <trkpt lat="43.448720611631870269775390625" lon="-3.76170367933809757232666015625">
        <ele>-9.6000003814697265625</ele>
        <time>2018-09-05T10:01:23.000Z</time>
      </trkpt>
      <trkpt lat="43.44855003990232944488525390625" lon="-3.7621174938976764678955078125">
        <ele>-9.6000003814697265625</ele>
        <time>2018-09-05T10:01:33.000Z</time>
      </trkpt>
      <trkpt lat="43.448514081537723541259765625" lon="-3.762201480567455291748046875">
        <ele>-9.6000003814697265625</ele>
        <time>2018-09-05T10:01:35.000Z</time>
      </trkpt>
      <trkpt lat="43.44847862608730792999267578125" lon="-3.7622849643230438232421875">
        <ele>-9.6000003814697265625</ele>
        <time>2018-09-05T10:01:37.000Z</time>
      </trkpt>
      <trkpt lat="43.44821828417479991912841796875" lon="-3.76292240805923938751220703125">
        <ele>-9.6000003814697265625</ele>
        <time>2018-09-05T10:01:52.000Z</time>
      </trkpt>
      <trkpt lat="43.4480361454188823699951171875" lon="-3.76347444020211696624755859375">
        <ele>-9.6000003814697265625</ele>
        <time>2018-09-05T10:02:05.000Z</time>
      </trkpt>
      <trkpt lat="43.44785325229167938232421875" lon="-3.76409453339874744415283203125">
        <ele>-9.6000003814697265625</ele>
        <time>2018-09-05T10:02:19.000Z</time>
      </trkpt>
      <trkpt lat="43.4477655775845050811767578125" lon="-3.7645965255796909332275390625">
        <ele>-9.6000003814697265625</ele>
        <time>2018-09-05T10:02:30.000Z</time>
      </trkpt>
      <trkpt lat="43.44772542826831340789794921875" lon="-3.76518032513558864593505859375">
        <ele>-9.6000003814697265625</ele>
        <time>2018-09-05T10:02:42.000Z</time>
      </trkpt>
      <trkpt lat="43.44776951707899570465087890625" lon="-3.76585565507411956787109375">
        <ele>-9.6000003814697265625</ele>
        <time>2018-09-05T10:02:56.000Z</time>
      </trkpt>
      <trkpt lat="43.44787764362990856170654296875" lon="-3.76632110215723514556884765625">
        <ele>-9.6000003814697265625</ele>
        <time>2018-09-05T10:03:06.000Z</time>
      </trkpt>
      <trkpt lat="43.448025919497013092041015625" lon="-3.766671717166900634765625">
        <ele>-9.6000003814697265625</ele>
        <time>2018-09-05T10:03:14.000Z</time>
      </trkpt>
      <trkpt lat="43.44808719120919704437255859375" lon="-3.7667937576770782470703125">
        <ele>-9.3999996185302734375</ele>
        <time>2018-09-05T10:03:17.000Z</time>
      </trkpt>
      <trkpt lat="43.4483100660145282745361328125" lon="-3.76720455475151538848876953125">
        <ele>-9.6000003814697265625</ele>
        <time>2018-09-05T10:03:27.000Z</time>
      </trkpt>
      <trkpt lat="43.44841961748898029327392578125" lon="-3.76740220002830028533935546875">
        <ele>-9.6000003814697265625</ele>
        <time>2018-09-05T10:03:32.000Z</time>
      </trkpt>
      <trkpt lat="43.44864911399781703948974609375" lon="-3.76785457134246826171875">
        <ele>-9.3999996185302734375</ele>
        <time>2018-09-05T10:03:44.000Z</time>
      </trkpt>
      <trkpt lat="43.4487241320312023162841796875" lon="-3.76803637482225894927978515625">
        <ele>-9.3999996185302734375</ele>
        <time>2018-09-05T10:03:49.000Z</time>
      </trkpt>
      <trkpt lat="43.448776938021183013916015625" lon="-3.76817040145397186279296875">
        <ele>-9.6000003814697265625</ele>
        <time>2018-09-05T10:03:53.000Z</time>
      </trkpt>
      <trkpt lat="43.44880300574004650115966796875" lon="-3.76823234371840953826904296875">
        <ele>-9.6000003814697265625</ele>
        <time>2018-09-05T10:03:55.000Z</time>
      </trkpt>
      <trkpt lat="43.44888146035373210906982421875" lon="-3.768486566841602325439453125">
        <ele>-9.3999996185302734375</ele>
        <time>2018-09-05T10:04:05.000Z</time>
      </trkpt>
      <trkpt lat="43.44890643842518329620361328125" lon="-3.76866049133241176605224609375">
        <ele>-9.19999980926513671875</ele>
        <time>2018-09-05T10:04:15.000Z</time>
      </trkpt>
      <trkpt lat="43.44891699962317943572998046875" lon="-3.768707849085330963134765625">
        <ele>-9.3999996185302734375</ele>
        <time>2018-09-05T10:04:19.000Z</time>
      </trkpt>
      <trkpt lat="43.44891800545156002044677734375" lon="-3.76873039640486240386962890625">
        <ele>-9.3999996185302734375</ele>
        <time>2018-09-05T10:04:22.000Z</time>
      </trkpt>
      <trkpt lat="43.44891213811933994293212890625" lon="-3.76875436864793300628662109375">
        <ele>-9.3999996185302734375</ele>
        <time>2018-09-05T10:04:25.000Z</time>
      </trkpt>
      <trkpt lat="43.44906250946223735809326171875" lon="-3.768774233758449554443359375">
        <ele>-9.6000003814697265625</ele>
        <time>2018-09-05T10:05:58.000Z</time>
      </trkpt>
      <trkpt lat="43.44908078201115131378173828125" lon="-3.76883232034742832183837890625">
        <ele>-9.6000003814697265625</ele>
        <time>2018-09-05T10:06:01.000Z</time>
      </trkpt>
      <trkpt lat="43.4491720609366893768310546875" lon="-3.76911831088364124298095703125">
        <ele>-9.6000003814697265625</ele>
        <time>2018-09-05T10:06:11.000Z</time>
      </trkpt>
      <trkpt lat="43.44922545365989208221435546875" lon="-3.769242949783802032470703125">
        <ele>-9.6000003814697265625</ele>
        <time>2018-09-05T10:06:15.000Z</time>
      </trkpt>
      <trkpt lat="43.44925261102616786956787109375" lon="-3.7693048082292079925537109375">
        <ele>-9.80000019073486328125</ele>
        <time>2018-09-05T10:06:17.000Z</time>
      </trkpt>
      <trkpt lat="43.44934129156172275543212890625" lon="-3.769482672214508056640625">
        <ele>-9.80000019073486328125</ele>
        <time>2018-09-05T10:06:23.000Z</time>
      </trkpt>
      <trkpt lat="43.44960180111229419708251953125" lon="-3.7699968181550502777099609375">
        <ele>-10</ele>
        <time>2018-09-05T10:06:39.000Z</time>
      </trkpt>
      <trkpt lat="43.44980229623615741729736328125" lon="-3.7704279832541942596435546875">
        <ele>-10</ele>
        <time>2018-09-05T10:06:51.000Z</time>
      </trkpt>
      <trkpt lat="43.449851833283901214599609375" lon="-3.77053703181445598602294921875">
        <ele>-10</ele>
        <time>2018-09-05T10:06:54.000Z</time>
      </trkpt>
      <trkpt lat="43.45006112940609455108642578125" lon="-3.77107481472194194793701171875">
        <ele>-9.80000019073486328125</ele>
        <time>2018-09-05T10:07:08.000Z</time>
      </trkpt>
      <trkpt lat="43.45028677023947238922119140625" lon="-3.771658949553966522216796875">
        <ele>-10</ele>
        <time>2018-09-05T10:07:24.000Z</time>
      </trkpt>
      <trkpt lat="43.4505108185112476348876953125" lon="-3.77212129533290863037109375">
        <ele>-10</ele>
        <time>2018-09-05T10:07:38.000Z</time>
      </trkpt>
      <trkpt lat="43.45055666752159595489501953125" lon="-3.7722284160554409027099609375">
        <ele>-10</ele>
        <time>2018-09-05T10:07:41.000Z</time>
      </trkpt>
      <trkpt lat="43.450775183737277984619140625" lon="-3.77266905270516872406005859375">
        <ele>-10</ele>
        <time>2018-09-05T10:07:54.000Z</time>
      </trkpt>
      <trkpt lat="43.451044745743274688720703125" lon="-3.77316961996257305145263671875">
        <ele>-10</ele>
        <time>2018-09-05T10:08:09.000Z</time>
      </trkpt>
      <trkpt lat="43.45109947957098484039306640625" lon="-3.77327640540897846221923828125">
        <ele>-10</ele>
        <time>2018-09-05T10:08:12.000Z</time>
      </trkpt>
      <trkpt lat="43.45132830552756786346435546875" lon="-3.7738622166216373443603515625">
        <ele>-10.19999980926513671875</ele>
        <time>2018-09-05T10:08:27.000Z</time>
      </trkpt>
      <trkpt lat="43.45138614065945148468017578125" lon="-3.77403102815151214599609375">
        <ele>-10</ele>
        <time>2018-09-05T10:08:31.000Z</time>
      </trkpt>
      <trkpt lat="43.45149971544742584228515625" lon="-3.77439203672111034393310546875">
        <ele>-10.19999980926513671875</ele>
        <time>2018-09-05T10:08:40.000Z</time>
      </trkpt>
      <trkpt lat="43.4516142122447490692138671875" lon="-3.77493786625564098358154296875">
        <ele>-10.19999980926513671875</ele>
        <time>2018-09-05T10:08:53.000Z</time>
      </trkpt>
      <trkpt lat="43.45163793303072452545166015625" lon="-3.77506795339286327362060546875">
        <ele>-10.19999980926513671875</ele>
        <time>2018-09-05T10:08:56.000Z</time>
      </trkpt>
      <trkpt lat="43.4516614861786365509033203125" lon="-3.7751998007297515869140625">
        <ele>-10.19999980926513671875</ele>
        <time>2018-09-05T10:08:59.000Z</time>
      </trkpt>
      <trkpt lat="43.45169283449649810791015625" lon="-3.77543114125728607177734375">
        <ele>-10.19999980926513671875</ele>
        <time>2018-09-05T10:09:04.000Z</time>
      </trkpt>
      <trkpt lat="43.45171588473021984100341796875" lon="-3.7755664251744747161865234375">
        <ele>-10.3999996185302734375</ele>
        <time>2018-09-05T10:09:07.000Z</time>
      </trkpt>
      <trkpt lat="43.451821245253086090087890625" lon="-3.77619112841784954071044921875">
        <ele>-10.19999980926513671875</ele>
        <time>2018-09-05T10:09:21.000Z</time>
      </trkpt>
      <trkpt lat="43.4519349038600921630859375" lon="-3.77685916610062122344970703125">
        <ele>-10.3999996185302734375</ele>
        <time>2018-09-05T10:09:36.000Z</time>
      </trkpt>
      <trkpt lat="43.45196130685508251190185546875" lon="-3.776998557150363922119140625">
        <ele>-10.19999980926513671875</ele>
        <time>2018-09-05T10:09:39.000Z</time>
      </trkpt>
      <trkpt lat="43.45199399627745151519775390625" lon="-3.777187652885913848876953125">
        <ele>-10.19999980926513671875</ele>
        <time>2018-09-05T10:09:43.000Z</time>
      </trkpt>
      <trkpt lat="43.45211419276893138885498046875" lon="-3.77767606638371944427490234375">
        <ele>-10.19999980926513671875</ele>
        <time>2018-09-05T10:09:53.000Z</time>
      </trkpt>
      <trkpt lat="43.45212743617594242095947265625" lon="-3.777724765241146087646484375">
        <ele>-10.19999980926513671875</ele>
        <time>2018-09-05T10:09:54.000Z</time>
      </trkpt>
      <trkpt lat="43.4523209743201732635498046875" lon="-3.778462372720241546630859375">
        <ele>-10.19999980926513671875</ele>
        <time>2018-09-05T10:10:10.000Z</time>
      </trkpt>
      <trkpt lat="43.45233363099396228790283203125" lon="-3.77850704826414585113525390625">
        <ele>-10.3999996185302734375</ele>
        <time>2018-09-05T10:10:11.000Z</time>
      </trkpt>
      <trkpt lat="43.4523789770901203155517578125" lon="-3.77868424169719219207763671875">
        <ele>-10.3999996185302734375</ele>
        <time>2018-09-05T10:10:15.000Z</time>
      </trkpt>
      <trkpt lat="43.4525134228169918060302734375" lon="-3.77916284836828708648681640625">
        <ele>-10.3999996185302734375</ele>
        <time>2018-09-05T10:10:26.000Z</time>
      </trkpt>
      <trkpt lat="43.4526564180850982666015625" lon="-3.77977757714688777923583984375">
        <ele>-10.3999996185302734375</ele>
        <time>2018-09-05T10:10:40.000Z</time>
      </trkpt>
      <trkpt lat="43.45269807614386081695556640625" lon="-3.780040852725505828857421875">
        <ele>-10.3999996185302734375</ele>
        <time>2018-09-05T10:10:46.000Z</time>
      </trkpt>
      <trkpt lat="43.452742584049701690673828125" lon="-3.78036439418792724609375">
        <ele>-10.3999996185302734375</ele>
        <time>2018-09-05T10:10:53.000Z</time>
      </trkpt>
      <trkpt lat="43.452829755842685699462890625" lon="-3.7810029275715351104736328125">
        <ele>-10.6000003814697265625</ele>
        <time>2018-09-05T10:11:07.000Z</time>
      </trkpt>
      <trkpt lat="43.45293142832815647125244140625" lon="-3.781587816774845123291015625">
        <ele>-10.3999996185302734375</ele>
        <time>2018-09-05T10:11:20.000Z</time>
      </trkpt>
      <trkpt lat="43.45296814106404781341552734375" lon="-3.78176710568368434906005859375">
        <ele>-10.3999996185302734375</ele>
        <time>2018-09-05T10:11:24.000Z</time>
      </trkpt>
      <trkpt lat="43.45304667949676513671875" lon="-3.7822615541517734527587890625">
        <ele>-10.3999996185302734375</ele>
        <time>2018-09-05T10:11:35.000Z</time>
      </trkpt>
      <trkpt lat="43.45309504307806491851806640625" lon="-3.78253404982388019561767578125">
        <ele>-10.3999996185302734375</ele>
        <time>2018-09-05T10:11:41.000Z</time>
      </trkpt>
      <trkpt lat="43.4532265551388263702392578125" lon="-3.78305221907794475555419921875">
        <ele>-10.3999996185302734375</ele>
        <time>2018-09-05T10:11:52.000Z</time>
      </trkpt>
      <trkpt lat="43.453368209302425384521484375" lon="-3.78363467752933502197265625">
        <ele>-10.3999996185302734375</ele>
        <time>2018-09-05T10:12:05.000Z</time>
      </trkpt>
      <trkpt lat="43.45337650738656520843505859375" lon="-3.784047067165374755859375">
        <ele>-10.3999996185302734375</ele>
        <time>2018-09-05T10:12:14.000Z</time>
      </trkpt>
      <trkpt lat="43.4533780999481678009033203125" lon="-3.7847690843045711517333984375">
        <ele>-10.3999996185302734375</ele>
        <time>2018-09-05T10:12:29.000Z</time>
      </trkpt>
      <trkpt lat="43.45341347157955169677734375" lon="-3.78535103984177112579345703125">
        <ele>-10.3999996185302734375</ele>
        <time>2018-09-05T10:12:41.000Z</time>
      </trkpt>
      <trkpt lat="43.45350089482963085174560546875" lon="-3.785975910723209381103515625">
        <ele>-10.3999996185302734375</ele>
        <time>2018-09-05T10:12:54.000Z</time>
      </trkpt>
      <trkpt lat="43.45357038080692291259765625" lon="-3.78626500256359577178955078125">
        <ele>-10.19999980926513671875</ele>
        <time>2018-09-05T10:13:00.000Z</time>
      </trkpt>
      <trkpt lat="43.45361656509339809417724609375" lon="-3.78645208664238452911376953125">
        <ele>-10.19999980926513671875</ele>
        <time>2018-09-05T10:13:04.000Z</time>
      </trkpt>
      <trkpt lat="43.45382158644497394561767578125" lon="-3.78701627254486083984375">
        <ele>-10.3999996185302734375</ele>
        <time>2018-09-05T10:13:17.000Z</time>
      </trkpt>
      <trkpt lat="43.45384128391742706298828125" lon="-3.787056170403957366943359375">
        <ele>-10.3999996185302734375</ele>
        <time>2018-09-05T10:13:18.000Z</time>
      </trkpt>
      <trkpt lat="43.45395267941057682037353515625" lon="-3.78728910349309444427490234375">
        <ele>-10.19999980926513671875</ele>
        <time>2018-09-05T10:13:24.000Z</time>
      </trkpt>
      <trkpt lat="43.4541468881070613861083984375" lon="-3.78767400048673152923583984375">
        <ele>-10.19999980926513671875</ele>
        <time>2018-09-05T10:13:34.000Z</time>
      </trkpt>
      <trkpt lat="43.45444134436547756195068359375" lon="-3.78823340870440006256103515625">
        <ele>-10.19999980926513671875</ele>
        <time>2018-09-05T10:13:48.000Z</time>
      </trkpt>
      <trkpt lat="43.45453119836747646331787109375" lon="-3.7883935868740081787109375">
        <ele>-10.19999980926513671875</ele>
        <time>2018-09-05T10:13:52.000Z</time>
      </trkpt>
      <trkpt lat="43.4548638761043548583984375" lon="-3.7890381552278995513916015625">
        <ele>-10.3999996185302734375</ele>
        <time>2018-09-05T10:14:08.000Z</time>
      </trkpt>
      <trkpt lat="43.454906456172466278076171875" lon="-3.7891236506402492523193359375">
        <ele>-10.19999980926513671875</ele>
        <time>2018-09-05T10:14:10.000Z</time>
      </trkpt>
      <trkpt lat="43.45521952025592327117919921875" lon="-3.78975371830165386199951171875">
        <ele>-10.19999980926513671875</ele>
        <time>2018-09-05T10:14:25.000Z</time>
      </trkpt>
      <trkpt lat="43.45548757351934909820556640625" lon="-3.790308348834514617919921875">
        <ele>-10.19999980926513671875</ele>
        <time>2018-09-05T10:14:38.000Z</time>
      </trkpt>
      <trkpt lat="43.4557994641363620758056640625" lon="-3.79095970652997493743896484375">
        <ele>-10</ele>
        <time>2018-09-05T10:14:53.000Z</time>
      </trkpt>
      <trkpt lat="43.45599300228059291839599609375" lon="-3.79133555106818675994873046875">
        <ele>-10.19999980926513671875</ele>
        <time>2018-09-05T10:15:02.000Z</time>
      </trkpt>
      <trkpt lat="43.4561679325997829437255859375" lon="-3.791669905185699462890625">
        <ele>-10.19999980926513671875</ele>
        <time>2018-09-05T10:15:10.000Z</time>
      </trkpt>
      <trkpt lat="43.45625468529760837554931640625" lon="-3.79183293320238590240478515625">
        <ele>-10.19999980926513671875</ele>
        <time>2018-09-05T10:15:14.000Z</time>
      </trkpt>
      <trkpt lat="43.4565831720829010009765625" lon="-3.79244841635227203369140625">
        <ele>-10.19999980926513671875</ele>
        <time>2018-09-05T10:15:29.000Z</time>
      </trkpt>
      <trkpt lat="43.45660605467855930328369140625" lon="-3.7924908287823200225830078125">
        <ele>-10.19999980926513671875</ele>
        <time>2018-09-05T10:15:30.000Z</time>
      </trkpt>
      <trkpt lat="43.45692842267453670501708984375" lon="-3.7931048870086669921875">
        <ele>-10.19999980926513671875</ele>
        <time>2018-09-05T10:15:45.000Z</time>
      </trkpt>
      <trkpt lat="43.4569908678531646728515625" lon="-3.79322684369981288909912109375">
        <ele>-10</ele>
        <time>2018-09-05T10:15:48.000Z</time>
      </trkpt>
      <trkpt lat="43.45712791197001934051513671875" lon="-3.79346497356891632080078125">
        <ele>-10.19999980926513671875</ele>
        <time>2018-09-05T10:15:54.000Z</time>
      </trkpt>
      <trkpt lat="43.45730694942176342010498046875" lon="-3.7937821447849273681640625">
        <ele>-10</ele>
        <time>2018-09-05T10:16:02.000Z</time>
      </trkpt>
      <trkpt lat="43.4575928561389446258544921875" lon="-3.79426301456987857818603515625">
        <ele>-10</ele>
        <time>2018-09-05T10:16:15.000Z</time>
      </trkpt>
      <trkpt lat="43.45768564380705356597900390625" lon="-3.79442243836820125579833984375">
        <ele>-10</ele>
        <time>2018-09-05T10:16:19.000Z</time>
      </trkpt>
      <trkpt lat="43.45800734125077724456787109375" lon="-3.7949896417558193206787109375">
        <ele>-10.19999980926513671875</ele>
        <time>2018-09-05T10:16:33.000Z</time>
      </trkpt>
      <trkpt lat="43.45816290937364101409912109375" lon="-3.7952736206352710723876953125">
        <ele>-10</ele>
        <time>2018-09-05T10:16:40.000Z</time>
      </trkpt>
      <trkpt lat="43.45832593739032745361328125" lon="-3.79559389315545558929443359375">
        <ele>-10</ele>
        <time>2018-09-05T10:16:48.000Z</time>
      </trkpt>
      <trkpt lat="43.458526432514190673828125" lon="-3.79605925641953945159912109375">
        <ele>-10.19999980926513671875</ele>
        <time>2018-09-05T10:16:59.000Z</time>
      </trkpt>
      <trkpt lat="43.458574377000331878662109375" lon="-3.79618783481419086456298828125">
        <ele>-10.19999980926513671875</ele>
        <time>2018-09-05T10:17:02.000Z</time>
      </trkpt>
      <trkpt lat="43.45883899368345737457275390625" lon="-3.79688587971031665802001953125">
        <ele>-10.19999980926513671875</ele>
        <time>2018-09-05T10:17:18.000Z</time>
      </trkpt>
      <trkpt lat="43.45901652239263057708740234375" lon="-3.79743774421513080596923828125">
        <ele>-10.19999980926513671875</ele>
        <time>2018-09-05T10:17:30.000Z</time>
      </trkpt>
      <trkpt lat="43.4591254033148288726806640625" lon="-3.79785197786986827850341796875">
        <ele>-10.3999996185302734375</ele>
        <time>2018-09-05T10:17:39.000Z</time>
      </trkpt>
      <trkpt lat="43.45927334390580654144287109375" lon="-3.798369728028774261474609375">
        <ele>-10</ele>
        <time>2018-09-05T10:17:50.000Z</time>
      </trkpt>
      <trkpt lat="43.45948942936956882476806640625" lon="-3.79884707741439342498779296875">
        <ele>-10</ele>
        <time>2018-09-05T10:18:01.000Z</time>
      </trkpt>
      <trkpt lat="43.459773994982242584228515625" lon="-3.79929802380502223968505859375">
        <ele>-10.19999980926513671875</ele>
        <time>2018-09-05T10:18:13.000Z</time>
      </trkpt>
      <trkpt lat="43.45996200107038021087646484375" lon="-3.79953481256961822509765625">
        <ele>-10.19999980926513671875</ele>
        <time>2018-09-05T10:18:20.000Z</time>
      </trkpt>
      <trkpt lat="43.46019216813147068023681640625" lon="-3.79980294965207576751708984375">
        <ele>-10</ele>
        <time>2018-09-05T10:18:28.000Z</time>
      </trkpt>
      <trkpt lat="43.460545130074024200439453125" lon="-3.8001810573041439056396484375">
        <ele>-10</ele>
        <time>2018-09-05T10:18:40.000Z</time>
      </trkpt>
      <trkpt lat="43.46083003096282482147216796875" lon="-3.80043804645538330078125">
        <ele>-10</ele>
        <time>2018-09-05T10:18:50.000Z</time>
      </trkpt>
      <trkpt lat="43.46112859435379505157470703125" lon="-3.80078472197055816650390625">
        <ele>-10</ele>
        <time>2018-09-05T10:19:04.000Z</time>
      </trkpt>
      <trkpt lat="43.46130880527198314666748046875" lon="-3.8011040724813938140869140625">
        <ele>-10</ele>
        <time>2018-09-05T10:19:16.000Z</time>
      </trkpt>
      <trkpt lat="43.46133948303759098052978515625" lon="-3.80117632448673248291015625">
        <ele>-10</ele>
        <time>2018-09-05T10:19:19.000Z</time>
      </trkpt>
      <trkpt lat="43.46135004423558712005615234375" lon="-3.801200799643993377685546875">
        <ele>-10</ele>
        <time>2018-09-05T10:19:20.000Z</time>
      </trkpt>
      <trkpt lat="43.4613714180886745452880859375" lon="-3.8012479059398174285888671875">
        <ele>-10</ele>
        <time>2018-09-05T10:19:22.000Z</time>
      </trkpt>
      <trkpt lat="43.46138088963925838470458984375" lon="-3.80127129144966602325439453125">
        <ele>-10</ele>
        <time>2018-09-05T10:19:23.000Z</time>
      </trkpt>
      <trkpt lat="43.461397401988506317138671875" lon="-3.80131848156452178955078125">
        <ele>-10</ele>
        <time>2018-09-05T10:19:25.000Z</time>
      </trkpt>
      <trkpt lat="43.461420200765132904052734375" lon="-3.80140875466167926788330078125">
        <ele>-10</ele>
        <time>2018-09-05T10:19:29.000Z</time>
      </trkpt>
      <trkpt lat="43.461436294019222259521484375" lon="-3.80147011019289493560791015625">
        <ele>-10</ele>
        <time>2018-09-05T10:19:33.000Z</time>
      </trkpt>
      <trkpt lat="43.46144123934209346771240234375" lon="-3.8015080802142620086669921875">
        <ele>-10</ele>
        <time>2018-09-05T10:19:36.000Z</time>
      </trkpt>
      <trkpt lat="43.46144677139818668365478515625" lon="-3.8015328906476497650146484375">
        <ele>-10</ele>
        <time>2018-09-05T10:19:38.000Z</time>
      </trkpt>
      <trkpt lat="43.4614485315978527069091796875" lon="-3.8015419431030750274658203125">
        <ele>-10</ele>
        <time>2018-09-05T10:19:39.000Z</time>
      </trkpt>
      <trkpt lat="43.46155473031103610992431640625" lon="-3.8019120879471302032470703125">
        <ele>-9.19999980926513671875</ele>
        <time>2018-09-05T10:22:58.000Z</time>
      </trkpt>
      <trkpt lat="43.461581133306026458740234375" lon="-3.8019669055938720703125">
        <ele>-9.19999980926513671875</ele>
        <time>2018-09-05T10:23:00.000Z</time>
      </trkpt>
      <trkpt lat="43.4615655429661273956298828125" lon="-3.8021088950335979461669921875">
        <ele>-9</ele>
        <time>2018-09-05T10:23:05.000Z</time>
      </trkpt>
      <trkpt lat="43.46152623184025287628173828125" lon="-3.80218827165663242340087890625">
        <ele>-9</ele>
        <time>2018-09-05T10:23:08.000Z</time>
      </trkpt>
      <trkpt lat="43.46149169839918613433837890625" lon="-3.8022460229694843292236328125">
        <ele>-8.80000019073486328125</ele>
        <time>2018-09-05T10:23:10.000Z</time>
      </trkpt>
      <trkpt lat="43.4614299237728118896484375" lon="-3.80232791416347026824951171875">
        <ele>-9</ele>
        <time>2018-09-05T10:23:13.000Z</time>
      </trkpt>
      <trkpt lat="43.46129355020821094512939453125" lon="-3.8025883398950099945068359375">
        <ele>-9</ele>
        <time>2018-09-05T10:23:21.000Z</time>
      </trkpt>
      <trkpt lat="43.46116396598517894744873046875" lon="-3.80284742452204227447509765625">
        <ele>-9</ele>
        <time>2018-09-05T10:23:29.000Z</time>
      </trkpt>
      <trkpt lat="43.4610827453434467315673828125" lon="-3.80301221273839473724365234375">
        <ele>-9</ele>
        <time>2018-09-05T10:23:34.000Z</time>
      </trkpt>
      <trkpt lat="43.46101761795580387115478515625" lon="-3.80313458852469921112060546875">
        <ele>-8.80000019073486328125</ele>
        <time>2018-09-05T10:23:38.000Z</time>
      </trkpt>
      <trkpt lat="43.4610036201775074005126953125" lon="-3.80320063792169094085693359375">
        <ele>-8.80000019073486328125</ele>
        <time>2018-09-05T10:23:40.000Z</time>
      </trkpt>
      <trkpt lat="43.461015857756137847900390625" lon="-3.8032743148505687713623046875">
        <ele>-8.3999996185302734375</ele>
        <time>2018-09-05T10:23:42.000Z</time>
      </trkpt>
      <trkpt lat="43.461054749786853790283203125" lon="-3.803329132497310638427734375">
        <ele>-8.3999996185302734375</ele>
        <time>2018-09-05T10:23:44.000Z</time>
      </trkpt>
      <trkpt lat="43.4611115790903568267822265625" lon="-3.80334564484655857086181640625">
        <ele>-8.6000003814697265625</ele>
        <time>2018-09-05T10:23:46.000Z</time>
      </trkpt>
      <trkpt lat="43.4611933864653110504150390625" lon="-3.80337263457477092742919921875">
        <ele>-8.3999996185302734375</ele>
        <time>2018-09-05T10:23:49.000Z</time>
      </trkpt>
      <trkpt lat="43.46123822964727878570556640625" lon="-3.80340783856809139251708984375">
        <ele>-8.6000003814697265625</ele>
        <time>2018-09-05T10:23:51.000Z</time>
      </trkpt>
      <trkpt lat="43.46124325878918170928955078125" lon="-3.80344572477042675018310546875">
        <ele>-8.6000003814697265625</ele>
        <time>2018-09-05T10:23:52.000Z</time>
      </trkpt>
      <trkpt lat="43.461218364536762237548828125" lon="-3.80358285270631313323974609375">
        <ele>-8.80000019073486328125</ele>
        <time>2018-09-05T10:23:56.000Z</time>
      </trkpt>
      <trkpt lat="43.46123705618083477020263671875" lon="-3.80367807112634181976318359375">
        <ele>-8.80000019073486328125</ele>
        <time>2018-09-05T10:23:59.000Z</time>
      </trkpt>
      <trkpt lat="43.46126019023358821868896484375" lon="-3.80369600839912891387939453125">
        <ele>-8.80000019073486328125</ele>
        <time>2018-09-05T10:24:00.000Z</time>
      </trkpt>
      <trkpt lat="43.461392708122730255126953125" lon="-3.80368553102016448974609375">
        <ele>-8.80000019073486328125</ele>
        <time>2018-09-05T10:24:05.000Z</time>
      </trkpt>
      <trkpt lat="43.46144895069301128387451171875" lon="-3.8035857863724231719970703125">
        <ele>-8.80000019073486328125</ele>
        <time>2018-09-05T10:24:09.000Z</time>
      </trkpt>
      <trkpt lat="43.4614683128893375396728515625" lon="-3.80356558598577976226806640625">
        <ele>-8.80000019073486328125</ele>
        <time>2018-09-05T10:24:10.000Z</time>
      </trkpt>
      <trkpt lat="43.4615031816065311431884765625" lon="-3.80351261235773563385009765625">
        <ele>-8.6000003814697265625</ele>
        <time>2018-09-05T10:24:12.000Z</time>
      </trkpt>
      <trkpt lat="43.461514413356781005859375" lon="-3.80344404838979244232177734375">
        <ele>-8.6000003814697265625</ele>
        <time>2018-09-05T10:24:14.000Z</time>
      </trkpt>
      <trkpt lat="43.46157317049801349639892578125" lon="-3.803203739225864410400390625">
        <ele>-9</ele>
        <time>2018-09-05T10:24:21.000Z</time>
      </trkpt>
      <trkpt lat="43.46159529872238636016845703125" lon="-3.80319259129464626312255859375">
        <ele>-8.80000019073486328125</ele>
        <time>2018-09-05T10:24:22.000Z</time>
      </trkpt>
      <trkpt lat="43.46170174889266490936279296875" lon="-3.80319108255207538604736328125">
        <ele>-8.80000019073486328125</ele>
        <time>2018-09-05T10:24:26.000Z</time>
      </trkpt>
      <trkpt lat="43.461741395294666290283203125" lon="-3.80318052135407924652099609375">
        <ele>-8.80000019073486328125</ele>
        <time>2018-09-05T10:24:28.000Z</time>
      </trkpt>
      <trkpt lat="43.46177467145025730133056640625" lon="-3.80309301428496837615966796875">
        <ele>-9</ele>
        <time>2018-09-05T10:24:32.000Z</time>
      </trkpt>
      <trkpt lat="43.4618069417774677276611328125" lon="-3.803002573549747467041015625">
        <ele>-8.80000019073486328125</ele>
        <time>2018-09-05T10:24:39.000Z</time>
      </trkpt>
      <trkpt lat="43.46178204752504825592041015625" lon="-3.8030731491744518280029296875">
        <ele>-9</ele>
        <time>2018-09-05T10:24:43.000Z</time>
      </trkpt>
      <trkpt lat="43.46177483908832073211669921875" lon="-3.80309837870299816131591796875">
        <ele>-9</ele>
        <time>2018-09-05T10:24:44.000Z</time>
      </trkpt>
      <trkpt lat="43.46176511608064174652099609375" lon="-3.80315520800650119781494140625">
        <ele>-8.80000019073486328125</ele>
        <time>2018-09-05T10:24:46.000Z</time>
      </trkpt>
      <trkpt lat="43.4617625176906585693359375" lon="-3.80318705923855304718017578125">
        <ele>-8.80000019073486328125</ele>
        <time>2018-09-05T10:24:47.000Z</time>
      </trkpt>
      <trkpt lat="43.46175271086394786834716796875" lon="-3.8033520989120006561279296875">
        <ele>-8.80000019073486328125</ele>
        <time>2018-09-05T10:24:52.000Z</time>
      </trkpt>
      <trkpt lat="43.46173728816211223602294921875" lon="-3.80356625653803348541259765625">
        <ele>-8.80000019073486328125</ele>
        <time>2018-09-05T10:24:59.000Z</time>
      </trkpt>
      <trkpt lat="43.461705856025218963623046875" lon="-3.8037326373159885406494140625">
        <ele>-8.80000019073486328125</ele>
        <time>2018-09-05T10:25:04.000Z</time>
      </trkpt>
      <trkpt lat="43.46169923432171344757080078125" lon="-3.8037698529660701751708984375">
        <ele>-8.80000019073486328125</ele>
        <time>2018-09-05T10:25:05.000Z</time>
      </trkpt>
      <trkpt lat="43.4616874158382415771484375" lon="-3.8038831762969493865966796875">
        <ele>-8.6000003814697265625</ele>
        <time>2018-09-05T10:25:08.000Z</time>
      </trkpt>
      <trkpt lat="43.4616678021848201751708984375" lon="-3.80406347103416919708251953125">
        <ele>-8.6000003814697265625</ele>
        <time>2018-09-05T10:25:13.000Z</time>
      </trkpt>
      <trkpt lat="43.46165296621620655059814453125" lon="-3.80425960756838321685791015625">
        <ele>-8.80000019073486328125</ele>
        <time>2018-09-05T10:25:19.000Z</time>
      </trkpt>
      <trkpt lat="43.46167744137346744537353515625" lon="-3.80427570082247257232666015625">
        <ele>-8.80000019073486328125</ele>
        <time>2018-09-05T10:25:23.000Z</time>
      </trkpt>
      <trkpt lat="43.4617258049547672271728515625" lon="-3.80427888594567775726318359375">
        <ele>-9</ele>
        <time>2018-09-05T10:25:59.000Z</time>
      </trkpt>
      <trkpt lat="43.46176511608064174652099609375" lon="-3.8042791374027729034423828125">
        <ele>-8.80000019073486328125</ele>
        <time>2018-09-05T10:26:01.000Z</time>
      </trkpt>
      <trkpt lat="43.46184139139950275421142578125" lon="-3.8043173588812351226806640625">
        <ele>-9</ele>
        <time>2018-09-05T10:26:07.000Z</time>
      </trkpt>
      <trkpt lat="43.46185161732137203216552734375" lon="-3.80444861948490142822265625">
        <ele>-8.80000019073486328125</ele>
        <time>2018-09-05T10:26:12.000Z</time>
      </trkpt>
      <trkpt lat="43.4618501923978328704833984375" lon="-3.80447938106954097747802734375">
        <ele>-8.6000003814697265625</ele>
        <time>2018-09-05T10:26:13.000Z</time>
      </trkpt>
      <trkpt lat="43.46183963119983673095703125" lon="-3.80464483983814716339111328125">
        <ele>-8.80000019073486328125</ele>
        <time>2018-09-05T10:26:18.000Z</time>
      </trkpt>
      <trkpt lat="43.46183233894407749176025390625" lon="-3.80473905242979526519775390625">
        <ele>-8.6000003814697265625</ele>
        <time>2018-09-05T10:26:21.000Z</time>
      </trkpt>
      <trkpt lat="43.4618268907070159912109375" lon="-3.804809041321277618408203125">
        <ele>-8.80000019073486328125</ele>
        <time>2018-09-05T10:26:24.000Z</time>
      </trkpt>
      <trkpt lat="43.46180769614875316619873046875" lon="-3.8048638589680194854736328125">
        <ele>-8.80000019073486328125</ele>
        <time>2018-09-05T10:26:26.000Z</time>
      </trkpt>
      <trkpt lat="43.461798392236232757568359375" lon="-3.8049268908798694610595703125">
        <ele>-9</ele>
        <time>2018-09-05T10:26:28.000Z</time>
      </trkpt>
      <trkpt lat="43.46179193817079067230224609375" lon="-3.80496066994965076446533203125">
        <ele>-9</ele>
        <time>2018-09-05T10:26:29.000Z</time>
      </trkpt>
      <trkpt lat="43.46178020350635051727294921875" lon="-3.8050556369125843048095703125">
        <ele>-9</ele>
        <time>2018-09-05T10:26:32.000Z</time>
      </trkpt>
      <trkpt lat="43.46177048049867153167724609375" lon="-3.8052056729793548583984375">
        <ele>-8.80000019073486328125</ele>
        <time>2018-09-05T10:26:38.000Z</time>
      </trkpt>
      <trkpt lat="43.4617546387016773223876953125" lon="-3.80535679869353771209716796875">
        <ele>-8.80000019073486328125</ele>
        <time>2018-09-05T10:26:44.000Z</time>
      </trkpt>
      <trkpt lat="43.4617268107831478118896484375" lon="-3.80553047172725200653076171875">
        <ele>-8.6000003814697265625</ele>
        <time>2018-09-05T10:26:51.000Z</time>
      </trkpt>
      <trkpt lat="43.461709879338741302490234375" lon="-3.8056349940598011016845703125">
        <ele>-9</ele>
        <time>2018-09-05T10:26:56.000Z</time>
      </trkpt>
      <trkpt lat="43.4617117233574390411376953125" lon="-3.8056621514260768890380859375">
        <ele>-8.80000019073486328125</ele>
        <time>2018-09-05T10:26:57.000Z</time>
      </trkpt>
      <trkpt lat="43.461699821054935455322265625" lon="-3.8057895563542842864990234375">
        <ele>-8.80000019073486328125</ele>
        <time>2018-09-05T10:27:01.000Z</time>
      </trkpt>
      <trkpt lat="43.46170241944491863250732421875" lon="-3.805848397314548492431640625">
        <ele>-8.6000003814697265625</ele>
        <time>2018-09-05T10:27:03.000Z</time>
      </trkpt>
      <trkpt lat="43.46170627512037754058837890625" lon="-3.8059263490140438079833984375">
        <ele>-8.80000019073486328125</ele>
        <time>2018-09-05T10:27:06.000Z</time>
      </trkpt>
      <trkpt lat="43.4616926126182079315185546875" lon="-3.8059833459556102752685546875">
        <ele>-8.6000003814697265625</ele>
        <time>2018-09-05T10:27:09.000Z</time>
      </trkpt>
      <trkpt lat="43.46168012358248233795166015625" lon="-3.8060594536364078521728515625">
        <ele>-8.6000003814697265625</ele>
        <time>2018-09-05T10:27:14.000Z</time>
      </trkpt>
      <trkpt lat="43.4616713225841522216796875" lon="-3.806075043976306915283203125">
        <ele>-8.6000003814697265625</ele>
        <time>2018-09-05T10:27:15.000Z</time>
      </trkpt>
      <trkpt lat="43.46163854934275150299072265625" lon="-3.80619180388748645782470703125">
        <ele>-9</ele>
        <time>2018-09-05T10:27:20.000Z</time>
      </trkpt>
      <trkpt lat="43.46163368783891201019287109375" lon="-3.80622600205242633819580078125">
        <ele>-8.80000019073486328125</ele>
        <time>2018-09-05T10:27:21.000Z</time>
      </trkpt>
      <trkpt lat="43.46160887740552425384521484375" lon="-3.80641199648380279541015625">
        <ele>-8.80000019073486328125</ele>
        <time>2018-09-05T10:27:26.000Z</time>
      </trkpt>
      <trkpt lat="43.461599908769130706787109375" lon="-3.80650461651384830474853515625">
        <ele>-8.80000019073486328125</ele>
        <time>2018-09-05T10:27:28.000Z</time>
      </trkpt>
      <trkpt lat="43.4615923650562763214111328125" lon="-3.80676730535924434661865234375">
        <ele>-9.19999980926513671875</ele>
        <time>2018-09-05T10:27:33.000Z</time>
      </trkpt>
      <trkpt lat="43.4615920297801494598388671875" lon="-3.8068232126533985137939453125">
        <ele>-9.19999980926513671875</ele>
        <time>2018-09-05T10:27:34.000Z</time>
      </trkpt>
      <trkpt lat="43.46158079802989959716796875" lon="-3.80698942579329013824462890625">
        <ele>-9</ele>
        <time>2018-09-05T10:27:37.000Z</time>
      </trkpt>
      <trkpt lat="43.4615693986415863037109375" lon="-3.8072101213037967681884765625">
        <ele>-9.19999980926513671875</ele>
        <time>2018-09-05T10:27:41.000Z</time>
      </trkpt>
      <trkpt lat="43.46154953353106975555419921875" lon="-3.8075641728937625885009765625">
        <ele>-8.80000019073486328125</ele>
        <time>2018-09-05T10:27:48.000Z</time>
      </trkpt>
      <trkpt lat="43.46154400147497653961181640625" lon="-3.80766785703599452972412109375">
        <ele>-8.6000003814697265625</ele>
        <time>2018-09-05T10:27:51.000Z</time>
      </trkpt>
      <trkpt lat="43.46154081635177135467529296875" lon="-3.807704150676727294921875">
        <ele>-8.6000003814697265625</ele>
        <time>2018-09-05T10:27:53.000Z</time>
      </trkpt>
      <trkpt lat="43.4615390561521053314208984375" lon="-3.80777833051979541778564453125">
        <ele>-9</ele>
        <time>2018-09-05T10:28:07.000Z</time>
      </trkpt>
      <trkpt lat="43.46153712831437587738037109375" lon="-3.8078112713992595672607421875">
        <ele>-9</ele>
        <time>2018-09-05T10:28:08.000Z</time>
      </trkpt>
      <trkpt lat="43.4615300036966800689697265625" lon="-3.80789416842162609100341796875">
        <ele>-9</ele>
        <time>2018-09-05T10:28:10.000Z</time>
      </trkpt>
      <trkpt lat="43.4615169279277324676513671875" lon="-3.807983435690402984619140625">
        <ele>-9</ele>
        <time>2018-09-05T10:28:12.000Z</time>
      </trkpt>
      <trkpt lat="43.46150862984359264373779296875" lon="-3.80808326415717601776123046875">
        <ele>-9</ele>
        <time>2018-09-05T10:28:14.000Z</time>
      </trkpt>
      <trkpt lat="43.46148935146629810333251953125" lon="-3.80829934962093830108642578125">
        <ele>-9</ele>
        <time>2018-09-05T10:28:18.000Z</time>
      </trkpt>
      <trkpt lat="43.46147392876446247100830078125" lon="-3.80841803736984729766845703125">
        <ele>-9.19999980926513671875</ele>
        <time>2018-09-05T10:28:20.000Z</time>
      </trkpt>
      <trkpt lat="43.46146739087998867034912109375" lon="-3.8085374794900417327880859375">
        <ele>-9.19999980926513671875</ele>
        <time>2018-09-05T10:28:22.000Z</time>
      </trkpt>
      <trkpt lat="43.4614686481654644012451171875" lon="-3.80871106870472431182861328125">
        <ele>-9</ele>
        <time>2018-09-05T10:28:25.000Z</time>
      </trkpt>
      <trkpt lat="43.4614594280719757080078125" lon="-3.80892514251172542572021484375">
        <ele>-9</ele>
        <time>2018-09-05T10:28:29.000Z</time>
      </trkpt>
      <trkpt lat="43.46145397983491420745849609375" lon="-3.8089850731194019317626953125">
        <ele>-9</ele>
        <time>2018-09-05T10:28:30.000Z</time>
      </trkpt>
      <trkpt lat="43.46145196817815303802490234375" lon="-3.80904584191739559173583984375">
        <ele>-9</ele>
        <time>2018-09-05T10:28:31.000Z</time>
      </trkpt>
      <trkpt lat="43.46145431511104106903076171875" lon="-3.80910493433475494384765625">
        <ele>-9</ele>
        <time>2018-09-05T10:28:32.000Z</time>
      </trkpt>
      <trkpt lat="43.46146470867097377777099609375" lon="-3.8092278130352497100830078125">
        <ele>-9</ele>
        <time>2018-09-05T10:28:34.000Z</time>
      </trkpt>
      <trkpt lat="43.461467809975147247314453125" lon="-3.80935664288699626922607421875">
        <ele>-8.80000019073486328125</ele>
        <time>2018-09-05T10:28:36.000Z</time>
      </trkpt>
      <trkpt lat="43.46147225238382816314697265625" lon="-3.8094199262559413909912109375">
        <ele>-8.6000003814697265625</ele>
        <time>2018-09-05T10:28:37.000Z</time>
      </trkpt>
      <trkpt lat="43.461486585438251495361328125" lon="-3.80954808555543422698974609375">
        <ele>-9</ele>
        <time>2018-09-05T10:28:39.000Z</time>
      </trkpt>
      <trkpt lat="43.46153411082923412322998046875" lon="-3.80972678773105144500732421875">
        <ele>-9.3999996185302734375</ele>
        <time>2018-09-05T10:28:42.000Z</time>
      </trkpt>
      <trkpt lat="43.4616439975798130035400390625" lon="-3.8101625628769397735595703125">
        <ele>-8.3999996185302734375</ele>
        <time>2018-09-05T10:28:49.000Z</time>
      </trkpt>
      <trkpt lat="43.4617130644619464874267578125" lon="-3.8104757107794284820556640625">
        <ele>-8.19999980926513671875</ele>
        <time>2018-09-05T10:28:55.000Z</time>
      </trkpt>
      <trkpt lat="43.4617261402308940887451171875" lon="-3.8105548359453678131103515625">
        <ele>-8.19999980926513671875</ele>
        <time>2018-09-05T10:28:57.000Z</time>
      </trkpt>
      <trkpt lat="43.46174952574074268341064453125" lon="-3.810694478452205657958984375">
        <ele>-8.19999980926513671875</ele>
        <time>2018-09-05T10:29:00.000Z</time>
      </trkpt>
      <trkpt lat="43.4617744199931621551513671875" lon="-3.81083906628191471099853515625">
        <ele>-8.19999980926513671875</ele>
        <time>2018-09-05T10:29:03.000Z</time>
      </trkpt>
      <trkpt lat="43.46179294399917125701904296875" lon="-3.810933195054531097412109375">
        <ele>-8.19999980926513671875</ele>
        <time>2018-09-05T10:29:05.000Z</time>
      </trkpt>
      <trkpt lat="43.4618042595684528350830078125" lon="-3.81097904406487941741943359375">
        <ele>-8</ele>
        <time>2018-09-05T10:29:06.000Z</time>
      </trkpt>
      <trkpt lat="43.46185840666294097900390625" lon="-3.811232931911945343017578125">
        <ele>-7.80000019073486328125</ele>
        <time>2018-09-05T10:29:11.000Z</time>
      </trkpt>
      <trkpt lat="43.4618605859577655792236328125" lon="-3.811274506151676177978515625">
        <ele>-8.19999980926513671875</ele>
        <time>2018-09-05T10:29:12.000Z</time>
      </trkpt>
      <trkpt lat="43.46187324263155460357666015625" lon="-3.8113608397543430328369140625">
        <ele>-8</ele>
        <time>2018-09-05T10:29:15.000Z</time>
      </trkpt>
      <trkpt lat="43.461888916790485382080078125" lon="-3.81143317557871341705322265625">
        <ele>-7.599999904632568359375</ele>
        <time>2018-09-05T10:29:18.000Z</time>
      </trkpt>
      <trkpt lat="43.4619018249213695526123046875" lon="-3.8114905916154384613037109375">
        <ele>-7.599999904632568359375</ele>
        <time>2018-09-05T10:29:20.000Z</time>
      </trkpt>
      <trkpt lat="43.46191297285258769989013671875" lon="-3.8115314953029155731201171875">
        <ele>-7.400000095367431640625</ele>
        <time>2018-09-05T10:29:22.000Z</time>
      </trkpt>
      <trkpt lat="43.4619162417948246002197265625" lon="-3.8115469180047512054443359375">
        <ele>-7.599999904632568359375</ele>
        <time>2018-09-05T10:29:25.000Z</time>
      </trkpt>
      <trkpt lat="43.46191330812871456146240234375" lon="-3.81160072982311248779296875">
        <ele>-7.400000095367431640625</ele>
        <time>2018-09-05T10:29:42.000Z</time>
      </trkpt>
      <trkpt lat="43.4619088657200336456298828125" lon="-3.8116314075887203216552734375">
        <ele>-7.599999904632568359375</ele>
        <time>2018-09-05T10:29:43.000Z</time>
      </trkpt>
      <trkpt lat="43.46188254654407501220703125" lon="-3.811762332916259765625">
        <ele>-7.599999904632568359375</ele>
        <time>2018-09-05T10:29:47.000Z</time>
      </trkpt>
      <trkpt lat="43.4618793614208698272705078125" lon="-3.81181321106851100921630859375">
        <ele>-7.599999904632568359375</ele>
        <time>2018-09-05T10:29:48.000Z</time>
      </trkpt>
      <trkpt lat="43.46188413910567760467529296875" lon="-3.81196743808686733245849609375">
        <ele>-7.19999980926513671875</ele>
        <time>2018-09-05T10:29:51.000Z</time>
      </trkpt>
      <trkpt lat="43.461892269551753997802734375" lon="-3.812172375619411468505859375">
        <ele>-7.19999980926513671875</ele>
        <time>2018-09-05T10:29:55.000Z</time>
      </trkpt>
      <trkpt lat="43.46187056042253971099853515625" lon="-3.812572695314884185791015625">
        <ele>-6.80000019073486328125</ele>
        <time>2018-09-05T10:30:02.000Z</time>
      </trkpt>
      <trkpt lat="43.461856059730052947998046875" lon="-3.812745697796344757080078125">
        <ele>-6.400000095367431640625</ele>
        <time>2018-09-05T10:30:05.000Z</time>
      </trkpt>
      <trkpt lat="43.461857736110687255859375" lon="-3.81280713714659214019775390625">
        <ele>-6.400000095367431640625</ele>
        <time>2018-09-05T10:30:06.000Z</time>
      </trkpt>
      <trkpt lat="43.46184273250401020050048828125" lon="-3.81291844882071018218994140625">
        <ele>-6.599999904632568359375</ele>
        <time>2018-09-05T10:30:08.000Z</time>
      </trkpt>
      <trkpt lat="43.4618107974529266357421875" lon="-3.81339202634990215301513671875">
        <ele>-6.19999980926513671875</ele>
        <time>2018-09-05T10:30:16.000Z</time>
      </trkpt>
      <trkpt lat="43.46181356348097324371337890625" lon="-3.81344935856759548187255859375">
        <ele>-6.19999980926513671875</ele>
        <time>2018-09-05T10:30:17.000Z</time>
      </trkpt>
      <trkpt lat="43.46182395704090595245361328125" lon="-3.81368572823703289031982421875">
        <ele>-5.599999904632568359375</ele>
        <time>2018-09-05T10:30:21.000Z</time>
      </trkpt>
      <trkpt lat="43.46182244829833507537841796875" lon="-3.81380424834787845611572265625">
        <ele>-5.400000095367431640625</ele>
        <time>2018-09-05T10:30:23.000Z</time>
      </trkpt>
      <trkpt lat="43.46180342137813568115234375" lon="-3.814041875302791595458984375">
        <ele>-5.400000095367431640625</ele>
        <time>2018-09-05T10:30:28.000Z</time>
      </trkpt>
      <trkpt lat="43.46180551685392856597900390625" lon="-3.8140635006129741668701171875">
        <ele>-5.400000095367431640625</ele>
        <time>2018-09-05T10:30:29.000Z</time>
      </trkpt>
      <trkpt lat="43.46181456930935382843017578125" lon="-3.81407850421965122222900390625">
        <ele>-5</ele>
        <time>2018-09-05T10:30:32.000Z</time>
      </trkpt>
      <trkpt lat="43.4618579037487506866455078125" lon="-3.8141164742410182952880859375">
        <ele>-5</ele>
        <time>2018-09-05T10:31:22.000Z</time>
      </trkpt>
      <trkpt lat="43.461864776909351348876953125" lon="-3.81414421834051609039306640625">
        <ele>-5</ele>
        <time>2018-09-05T10:31:23.000Z</time>
      </trkpt>
      <trkpt lat="43.46187307499349117279052734375" lon="-3.8141634128987789154052734375">
        <ele>-5</ele>
        <time>2018-09-05T10:31:24.000Z</time>
      </trkpt>
      <trkpt lat="43.46189319156110286712646484375" lon="-3.81426156498491764068603515625">
        <ele>-5</ele>
        <time>2018-09-05T10:31:27.000Z</time>
      </trkpt>
      <trkpt lat="43.4618927724659442901611328125" lon="-3.8143095932900905609130859375">
        <ele>-4.80000019073486328125</ele>
        <time>2018-09-05T10:31:28.000Z</time>
      </trkpt>
      <trkpt lat="43.46188933588564395904541015625" lon="-3.81441042758524417877197265625">
        <ele>-4.599999904632568359375</ele>
        <time>2018-09-05T10:31:30.000Z</time>
      </trkpt>
      <trkpt lat="43.46188254654407501220703125" lon="-3.81451436318457126617431640625">
        <ele>-4.400000095367431640625</ele>
        <time>2018-09-05T10:31:32.000Z</time>
      </trkpt>
      <trkpt lat="43.46185195259749889373779296875" lon="-3.81473380140960216522216796875">
        <ele>-4</ele>
        <time>2018-09-05T10:31:36.000Z</time>
      </trkpt>
      <trkpt lat="43.46182194538414478302001953125" lon="-3.81493295542895793914794921875">
        <ele>-3.599999904632568359375</ele>
        <time>2018-09-05T10:31:40.000Z</time>
      </trkpt>
      <trkpt lat="43.46181951463222503662109375" lon="-3.8149771280586719512939453125">
        <ele>-3.400000095367431640625</ele>
        <time>2018-09-05T10:31:41.000Z</time>
      </trkpt>
      <trkpt lat="43.46181683242321014404296875" lon="-3.8150247372686862945556640625">
        <ele>-3.2000000476837158203125</ele>
        <time>2018-09-05T10:31:42.000Z</time>
      </trkpt>
      <trkpt lat="43.46181549131870269775390625" lon="-3.81512003950774669647216796875">
        <ele>-3</ele>
        <time>2018-09-05T10:31:44.000Z</time>
      </trkpt>
      <trkpt lat="43.4618052653968334197998046875" lon="-3.81522196345031261444091796875">
        <ele>-2.599999904632568359375</ele>
        <time>2018-09-05T10:31:46.000Z</time>
      </trkpt>
      <trkpt lat="43.4617975540459156036376953125" lon="-3.815329335629940032958984375">
        <ele>-2.400000095367431640625</ele>
        <time>2018-09-05T10:31:48.000Z</time>
      </trkpt>
      <trkpt lat="43.46179537475109100341796875" lon="-3.8153831474483013153076171875">
        <ele>-2.2000000476837158203125</ele>
        <time>2018-09-05T10:31:49.000Z</time>
      </trkpt>
      <trkpt lat="43.46179269254207611083984375" lon="-3.8154874183237552642822265625">
        <ele>-2</ele>
        <time>2018-09-05T10:31:51.000Z</time>
      </trkpt>
      <trkpt lat="43.4617750905454158782958984375" lon="-3.8156325928866863250732421875">
        <ele>-1.60000002384185791015625</ele>
        <time>2018-09-05T10:31:54.000Z</time>
      </trkpt>
      <trkpt lat="43.4617839753627777099609375" lon="-3.81568171083927154541015625">
        <ele>-1.39999997615814208984375</ele>
        <time>2018-09-05T10:31:55.000Z</time>
      </trkpt>
      <trkpt lat="43.46178322099149227142333984375" lon="-3.8157777674496173858642578125">
        <ele>-1</ele>
        <time>2018-09-05T10:31:57.000Z</time>
      </trkpt>
      <trkpt lat="43.46174550242722034454345703125" lon="-3.81595797836780548095703125">
        <ele>-0.60000002384185791015625</ele>
        <time>2018-09-05T10:32:01.000Z</time>
      </trkpt>
      <trkpt lat="43.46173276193439960479736328125" lon="-3.816004581749439239501953125">
        <ele>-0.4000000059604644775390625</ele>
        <time>2018-09-05T10:32:02.000Z</time>
      </trkpt>
      <trkpt lat="43.461642153561115264892578125" lon="-3.81623986177146434783935546875">
        <ele>-0.20000000298023223876953125</ele>
        <time>2018-09-05T10:32:07.000Z</time>
      </trkpt>
      <trkpt lat="43.46161122433841228485107421875" lon="-3.8163410313427448272705078125">
        <ele>0.20000000298023223876953125</ele>
        <time>2018-09-05T10:32:09.000Z</time>
      </trkpt>
      <trkpt lat="43.4615631960332393646240234375" lon="-3.816555440425872802734375">
        <ele>0.4000000059604644775390625</ele>
        <time>2018-09-05T10:32:13.000Z</time>
      </trkpt>
      <trkpt lat="43.46150041557848453521728515625" lon="-3.8168711028993129730224609375">
        <ele>1.60000002384185791015625</ele>
        <time>2018-09-05T10:32:19.000Z</time>
      </trkpt>
      <trkpt lat="43.46148482523858547210693359375" lon="-3.81692348979413509368896484375">
        <ele>2</ele>
        <time>2018-09-05T10:32:20.000Z</time>
      </trkpt>
      <trkpt lat="43.46136932261288166046142578125" lon="-3.81725239567458629608154296875">
        <ele>2.400000095367431640625</ele>
        <time>2018-09-05T10:32:27.000Z</time>
      </trkpt>
      <trkpt lat="43.46134618856012821197509765625" lon="-3.81732028909027576446533203125">
        <ele>2.599999904632568359375</ele>
        <time>2018-09-05T10:32:29.000Z</time>
      </trkpt>
      <trkpt lat="43.4613526426255702972412109375" lon="-3.81740813143551349639892578125">
        <ele>3</ele>
        <time>2018-09-05T10:32:32.000Z</time>
      </trkpt>
      <trkpt lat="43.46137468703091144561767578125" lon="-3.817482478916645050048828125">
        <ele>3.2000000476837158203125</ele>
        <time>2018-09-05T10:32:35.000Z</time>
      </trkpt>
      <trkpt lat="43.46135255880653858184814453125" lon="-3.81756705231964588165283203125">
        <ele>3.400000095367431640625</ele>
        <time>2018-09-05T10:32:38.000Z</time>
      </trkpt>
      <trkpt lat="43.46131115220487117767333984375" lon="-3.81763427518308162689208984375">
        <ele>3.400000095367431640625</ele>
        <time>2018-09-05T10:32:41.000Z</time>
      </trkpt>
      <trkpt lat="43.4612983278930187225341796875" lon="-3.81764684803783893585205078125">
        <ele>3.400000095367431640625</ele>
        <time>2018-09-05T10:32:42.000Z</time>
      </trkpt>
      <trkpt lat="43.46126496791839599609375" lon="-3.8176747597754001617431640625">
        <ele>3.400000095367431640625</ele>
        <time>2018-09-05T10:32:44.000Z</time>
      </trkpt>
      <trkpt lat="43.46124459989368915557861328125" lon="-3.81768071092665195465087890625">
        <ele>3.599999904632568359375</ele>
        <time>2018-09-05T10:32:45.000Z</time>
      </trkpt>
      <trkpt lat="43.46119732595980167388916015625" lon="-3.81768775172531604766845703125">
        <ele>3.599999904632568359375</ele>
        <time>2018-09-05T10:32:47.000Z</time>
      </trkpt>
      <trkpt lat="43.4610777162015438079833984375" lon="-3.8176613487303256988525390625">
        <ele>3</ele>
        <time>2018-09-05T10:32:51.000Z</time>
      </trkpt>
      <trkpt lat="43.46100789494812488555908203125" lon="-3.81767886690795421600341796875">
        <ele>2.7999999523162841796875</ele>
        <time>2018-09-05T10:32:53.000Z</time>
      </trkpt>
      <trkpt lat="43.46099012531340122222900390625" lon="-3.81771826185286045074462890625">
        <ele>2.599999904632568359375</ele>
        <time>2018-09-05T10:32:54.000Z</time>
      </trkpt>
      <trkpt lat="43.46096497960388660430908203125" lon="-3.8178125582635402679443359375">
        <ele>2.400000095367431640625</ele>
        <time>2018-09-05T10:32:56.000Z</time>
      </trkpt>
      <trkpt lat="43.46092239953577518463134765625" lon="-3.817983381450176239013671875">
        <ele>2.599999904632568359375</ele>
        <time>2018-09-05T10:33:00.000Z</time>
      </trkpt>
      <trkpt lat="43.46084930934011936187744140625" lon="-3.81823944859206676483154296875">
        <ele>3</ele>
        <time>2018-09-05T10:33:06.000Z</time>
      </trkpt>
      <trkpt lat="43.46077823080122470855712890625" lon="-3.81854320876300334930419921875">
        <ele>3.599999904632568359375</ele>
        <time>2018-09-05T10:33:12.000Z</time>
      </trkpt>
      <trkpt lat="43.46076448448002338409423828125" lon="-3.81860087625682353973388671875">
        <ele>3.599999904632568359375</ele>
        <time>2018-09-05T10:33:13.000Z</time>
      </trkpt>
      <trkpt lat="43.460750319063663482666015625" lon="-3.818656615912914276123046875">
        <ele>3.599999904632568359375</ele>
        <time>2018-09-05T10:33:14.000Z</time>
      </trkpt>
      <trkpt lat="43.460725843906402587890625" lon="-3.81876247934997081756591796875">
        <ele>4</ele>
        <time>2018-09-05T10:33:16.000Z</time>
      </trkpt>
      <trkpt lat="43.46069432795047760009765625" lon="-3.81889826618134975433349609375">
        <ele>4.19999980926513671875</ele>
        <time>2018-09-05T10:33:19.000Z</time>
      </trkpt>
      <trkpt lat="43.46066624857485294342041015625" lon="-3.81910177879035472869873046875">
        <ele>4.80000019073486328125</ele>
        <time>2018-09-05T10:33:23.000Z</time>
      </trkpt>
      <trkpt lat="43.46064914949238300323486328125" lon="-3.81920152343809604644775390625">
        <ele>5</ele>
        <time>2018-09-05T10:33:25.000Z</time>
      </trkpt>
      <trkpt lat="43.46059776842594146728515625" lon="-3.8193950615823268890380859375">
        <ele>5.400000095367431640625</ele>
        <time>2018-09-05T10:33:30.000Z</time>
      </trkpt>
      <trkpt lat="43.460579998791217803955078125" lon="-3.81942749954760074615478515625">
        <ele>5.599999904632568359375</ele>
        <time>2018-09-05T10:33:31.000Z</time>
      </trkpt>
      <trkpt lat="43.460547812283039093017578125" lon="-3.819524310529232025146484375">
        <ele>5.80000019073486328125</ele>
        <time>2018-09-05T10:33:34.000Z</time>
      </trkpt>
      <trkpt lat="43.46053163520991802215576171875" lon="-3.81957720033824443817138671875">
        <ele>6</ele>
        <time>2018-09-05T10:33:36.000Z</time>
      </trkpt>
      <trkpt lat="43.46051822416484355926513671875" lon="-3.819613493978977203369140625">
        <ele>6</ele>
        <time>2018-09-05T10:33:39.000Z</time>
      </trkpt>
      <trkpt lat="43.4605157934129238128662109375" lon="-3.8196186907589435577392578125">
        <ele>6</ele>
        <time>2018-09-05T10:33:43.000Z</time>
      </trkpt>
      <trkpt lat="43.4605509974062442779541015625" lon="-3.8195456005632877349853515625">
        <ele>5.80000019073486328125</ele>
        <time>2018-09-05T10:33:49.000Z</time>
      </trkpt>
      <trkpt lat="43.460566587746143341064453125" lon="-3.8195514678955078125">
        <ele>6</ele>
        <time>2018-09-05T10:33:50.000Z</time>
      </trkpt>
      <trkpt lat="43.46064177341759204864501953125" lon="-3.819586336612701416015625">
        <ele>6.400000095367431640625</ele>
        <time>2018-09-05T10:33:56.000Z</time>
      </trkpt>
      <trkpt lat="43.4607347287237644195556640625" lon="-3.81961374543607234954833984375">
        <ele>6.400000095367431640625</ele>
        <time>2018-09-05T10:34:02.000Z</time>
      </trkpt>
      <trkpt lat="43.4607830084860324859619140625" lon="-3.819682560861110687255859375">
        <ele>6.19999980926513671875</ele>
        <time>2018-09-05T10:34:05.000Z</time>
      </trkpt>
      <trkpt lat="43.46079549752175807952880859375" lon="-3.819717429578304290771484375">
        <ele>6.19999980926513671875</ele>
        <time>2018-09-05T10:34:07.000Z</time>
      </trkpt>
      <trkpt lat="43.46080136485397815704345703125" lon="-3.8197491131722927093505859375">
        <ele>6.19999980926513671875</ele>
        <time>2018-09-05T10:34:09.000Z</time>
      </trkpt>
      <trkpt lat="43.46088342368602752685546875" lon="-3.8195125758647918701171875">
        <ele>4</ele>
        <time>2018-09-05T11:25:16.000Z</time>
      </trkpt>
      <trkpt lat="43.460870683193206787109375" lon="-3.8195046968758106231689453125">
        <ele>4.19999980926513671875</ele>
        <time>2018-09-05T11:25:17.000Z</time>
      </trkpt>
      <trkpt lat="43.4607779793441295623779296875" lon="-3.81943101994693279266357421875">
        <ele>4</ele>
        <time>2018-09-05T11:25:22.000Z</time>
      </trkpt>
      <trkpt lat="43.46076129935681819915771484375" lon="-3.81942071020603179931640625">
        <ele>4</ele>
        <time>2018-09-05T11:25:23.000Z</time>
      </trkpt>
      <trkpt lat="43.4605144523084163665771484375" lon="-3.81976562552154064178466796875">
        <ele>4.19999980926513671875</ele>
        <time>2018-09-05T11:26:06.000Z</time>
      </trkpt>
      <trkpt lat="43.4605178050696849822998046875" lon="-3.81977736018598079681396484375">
        <ele>4.400000095367431640625</ele>
        <time>2018-09-05T11:26:07.000Z</time>
      </trkpt>
      <trkpt lat="43.46052157692611217498779296875" lon="-3.8197923637926578521728515625">
        <ele>4.400000095367431640625</ele>
        <time>2018-09-05T11:26:08.000Z</time>
      </trkpt>
      <trkpt lat="43.460494838654994964599609375" lon="-3.81999579258263111114501953125">
        <ele>5</ele>
        <time>2018-09-05T11:26:31.000Z</time>
      </trkpt>
      <trkpt lat="43.460497520864009857177734375" lon="-3.82002445869147777557373046875">
        <ele>5</ele>
        <time>2018-09-05T11:26:32.000Z</time>
      </trkpt>
      <trkpt lat="43.46053398214280605316162109375" lon="-3.8201480917632579803466796875">
        <ele>5.599999904632568359375</ele>
        <time>2018-09-05T11:26:36.000Z</time>
      </trkpt>
      <trkpt lat="43.46052392385900020599365234375" lon="-3.82024238817393779754638671875">
        <ele>5.400000095367431640625</ele>
        <time>2018-09-05T11:26:38.000Z</time>
      </trkpt>
      <trkpt lat="43.4605043940246105194091796875" lon="-3.8203412108123302459716796875">
        <ele>5.80000019073486328125</ele>
        <time>2018-09-05T11:26:40.000Z</time>
      </trkpt>
      <trkpt lat="43.460493497550487518310546875" lon="-3.82045495323836803436279296875">
        <ele>6.19999980926513671875</ele>
        <time>2018-09-05T11:26:43.000Z</time>
      </trkpt>
      <trkpt lat="43.4604836069047451019287109375" lon="-3.8205225951969623565673828125">
        <ele>6.400000095367431640625</ele>
        <time>2018-09-05T11:26:45.000Z</time>
      </trkpt>
      <trkpt lat="43.46045720390975475311279296875" lon="-3.82067237980663776397705078125">
        <ele>6.80000019073486328125</ele>
        <time>2018-09-05T11:26:49.000Z</time>
      </trkpt>
      <trkpt lat="43.46043608151376247406005859375" lon="-3.82072233594954013824462890625">
        <ele>6.80000019073486328125</ele>
        <time>2018-09-05T11:26:50.000Z</time>
      </trkpt>
      <trkpt lat="43.4604038111865520477294921875" lon="-3.82084873504936695098876953125">
        <ele>7</ele>
        <time>2018-09-05T11:26:53.000Z</time>
      </trkpt>
      <trkpt lat="43.460395596921443939208984375" lon="-3.82088787853717803955078125">
        <ele>7.19999980926513671875</ele>
        <time>2018-09-05T11:26:54.000Z</time>
      </trkpt>
      <trkpt lat="43.4603910706937313079833984375" lon="-3.8209668360650539398193359375">
        <ele>7.599999904632568359375</ele>
        <time>2018-09-05T11:26:56.000Z</time>
      </trkpt>
      <trkpt lat="43.46035243012011051177978515625" lon="-3.8211616314947605133056640625">
        <ele>7.599999904632568359375</ele>
        <time>2018-09-05T11:27:00.000Z</time>
      </trkpt>
      <trkpt lat="43.46033046953380107879638671875" lon="-3.8212977536022663116455078125">
        <ele>8</ele>
        <time>2018-09-05T11:27:03.000Z</time>
      </trkpt>
      <trkpt lat="43.46032476983964443206787109375" lon="-3.8213426806032657623291015625">
        <ele>8.3999996185302734375</ele>
        <time>2018-09-05T11:27:04.000Z</time>
      </trkpt>
      <trkpt lat="43.46016568131744861602783203125" lon="-3.8216853328049182891845703125">
        <ele>8.80000019073486328125</ele>
        <time>2018-09-05T11:27:10.000Z</time>
      </trkpt>
      <trkpt lat="43.46006937325000762939453125" lon="-3.82192782126367092132568359375">
        <ele>9.6000003814697265625</ele>
        <time>2018-09-05T11:27:15.000Z</time>
      </trkpt>
      <trkpt lat="43.4600485861301422119140625" lon="-3.82197945378720760345458984375">
        <ele>9.6000003814697265625</ele>
        <time>2018-09-05T11:27:16.000Z</time>
      </trkpt>
      <trkpt lat="43.45989377237856388092041015625" lon="-3.8222242891788482666015625">
        <ele>10</ele>
        <time>2018-09-05T11:27:21.000Z</time>
      </trkpt>
      <trkpt lat="43.4598501026630401611328125" lon="-3.8224175758659839630126953125">
        <ele>10.6000003814697265625</ele>
        <time>2018-09-05T11:27:26.000Z</time>
      </trkpt>
      <trkpt lat="43.459859825670719146728515625" lon="-3.82269593887031078338623046875">
        <ele>11</ele>
        <time>2018-09-05T11:27:33.000Z</time>
      </trkpt>
      <trkpt lat="43.45985806547105312347412109375" lon="-3.82287405431270599365234375">
        <ele>11.6000003814697265625</ele>
        <time>2018-09-05T11:27:38.000Z</time>
      </trkpt>
      <trkpt lat="43.45985974185168743133544921875" lon="-3.82290883921086788177490234375">
        <ele>11.6000003814697265625</ele>
        <time>2018-09-05T11:27:39.000Z</time>
      </trkpt>
      <trkpt lat="43.4598318301141262054443359375" lon="-3.823055438697338104248046875">
        <ele>12</ele>
        <time>2018-09-05T11:27:44.000Z</time>
      </trkpt>
      <trkpt lat="43.45981364138424396514892578125" lon="-3.82312978617846965789794921875">
        <ele>12.3999996185302734375</ele>
        <time>2018-09-05T11:27:46.000Z</time>
      </trkpt>
      <trkpt lat="43.45973786897957324981689453125" lon="-3.823333717882633209228515625">
        <ele>12.6000003814697265625</ele>
        <time>2018-09-05T11:27:50.000Z</time>
      </trkpt>
      <trkpt lat="43.45916773192584514617919921875" lon="-3.82390896789729595184326171875">
        <ele>13</ele>
        <time>2018-09-05T11:27:53.000Z</time>
      </trkpt>
      <trkpt lat="43.4591710008680820465087890625" lon="-3.82400318048894405364990234375">
        <ele>13</ele>
        <time>2018-09-05T11:27:56.000Z</time>
      </trkpt>
      <trkpt lat="43.45915717072784900665283203125" lon="-3.82407702505588531494140625">
        <ele>13.80000019073486328125</ele>
        <time>2018-09-05T11:27:59.000Z</time>
      </trkpt>
      <trkpt lat="43.4591703303158283233642578125" lon="-3.82425296120345592498779296875">
        <ele>14</ele>
        <time>2018-09-05T11:28:03.000Z</time>
      </trkpt>
      <trkpt lat="43.45917351543903350830078125" lon="-3.82437164895236492156982421875">
        <ele>14.19999980926513671875</ele>
        <time>2018-09-05T11:28:06.000Z</time>
      </trkpt>
      <trkpt lat="43.459177874028682708740234375" lon="-3.82441188208758831024169921875">
        <ele>14.19999980926513671875</ele>
        <time>2018-09-05T11:28:07.000Z</time>
      </trkpt>
      <trkpt lat="43.45918382517993450164794921875" lon="-3.8244520314037799835205078125">
        <ele>14.19999980926513671875</ele>
        <time>2018-09-05T11:28:08.000Z</time>
      </trkpt>
      <trkpt lat="43.45921131782233715057373046875" lon="-3.82454448379576206207275390625">
        <ele>15</ele>
        <time>2018-09-05T11:28:11.000Z</time>
      </trkpt>
      <trkpt lat="43.45924166031181812286376953125" lon="-3.82457214407622814178466796875">
        <ele>15.19999980926513671875</ele>
        <time>2018-09-05T11:28:13.000Z</time>
      </trkpt>
      <trkpt lat="43.459261022508144378662109375" lon="-3.8246169872581958770751953125">
        <ele>15.19999980926513671875</ele>
        <time>2018-09-05T11:28:15.000Z</time>
      </trkpt>
      <trkpt lat="43.4593191929161548614501953125" lon="-3.82473978213965892791748046875">
        <ele>15.3999996185302734375</ele>
        <time>2018-09-05T11:28:18.000Z</time>
      </trkpt>
      <trkpt lat="43.45934626646339893341064453125" lon="-3.82480214349925518035888671875">
        <ele>15.6000003814697265625</ele>
        <time>2018-09-05T11:28:20.000Z</time>
      </trkpt>
      <trkpt lat="43.45937677659094333648681640625" lon="-3.82483030669391155242919921875">
        <ele>16</ele>
        <time>2018-09-05T11:28:22.000Z</time>
      </trkpt>
      <trkpt lat="43.459599316120147705078125" lon="-3.8248153030872344970703125">
        <ele>16.799999237060546875</ele>
        <time>2018-09-05T11:28:28.000Z</time>
      </trkpt>
      <trkpt lat="43.45982369966804981231689453125" lon="-3.82480985485017299652099609375">
        <ele>17</ele>
        <time>2018-09-05T11:28:34.000Z</time>
      </trkpt>
      <trkpt lat="43.459819592535495758056640625" lon="-3.82485059089958667755126953125">
        <ele>17</ele>
        <time>2018-09-05T11:28:35.000Z</time>
      </trkpt>
      <trkpt lat="43.45979101024568080902099609375" lon="-3.8249425403773784637451171875">
        <ele>17.3999996185302734375</ele>
        <time>2018-09-05T11:28:37.000Z</time>
      </trkpt>
      <trkpt lat="43.459735102951526641845703125" lon="-3.825044296681880950927734375">
        <ele>17.799999237060546875</ele>
        <time>2018-09-05T11:28:39.000Z</time>
      </trkpt>
      <trkpt lat="43.4595014154911041259765625" lon="-3.8252861984074115753173828125">
        <ele>18.200000762939453125</ele>
        <time>2018-09-05T11:28:42.000Z</time>
      </trkpt>
      <trkpt lat="43.45932631753385066986083984375" lon="-3.82550454698503017425537109375">
        <ele>18.3999996185302734375</ele>
        <time>2018-09-05T11:28:45.000Z</time>
      </trkpt>
      <trkpt lat="43.4592970646917819976806640625" lon="-3.8255711831152439117431640625">
        <ele>18.6000003814697265625</ele>
        <time>2018-09-05T11:28:46.000Z</time>
      </trkpt>
      <trkpt lat="43.459185920655727386474609375" lon="-3.82577888667583465576171875">
        <ele>19.200000762939453125</ele>
        <time>2018-09-05T11:28:50.000Z</time>
      </trkpt>
      <trkpt lat="43.45912850461900234222412109375" lon="-3.82588944397866725921630859375">
        <ele>19.200000762939453125</ele>
        <time>2018-09-05T11:28:53.000Z</time>
      </trkpt>
      <trkpt lat="43.459032364189624786376953125" lon="-3.82599706761538982391357421875">
        <ele>19.3999996185302734375</ele>
        <time>2018-09-05T11:28:55.000Z</time>
      </trkpt>
      <trkpt lat="43.45891342498362064361572265625" lon="-3.82617074064910411834716796875">
        <ele>19.799999237060546875</ele>
        <time>2018-09-05T11:28:59.000Z</time>
      </trkpt>
      <trkpt lat="43.4588845074176788330078125" lon="-3.82620963267982006072998046875">
        <ele>19.799999237060546875</ele>
        <time>2018-09-05T11:29:00.000Z</time>
      </trkpt>
      <trkpt lat="43.458744026720523834228515625" lon="-3.82650115527212619781494140625">
        <ele>20</ele>
        <time>2018-09-05T11:29:05.000Z</time>
      </trkpt>
      <trkpt lat="43.4585648216307163238525390625" lon="-3.8269783370196819305419921875">
        <ele>20</ele>
        <time>2018-09-05T11:29:12.000Z</time>
      </trkpt>
      <trkpt lat="43.4584607183933258056640625" lon="-3.8272814266383647918701171875">
        <ele>18.799999237060546875</ele>
        <time>2018-09-05T11:29:16.000Z</time>
      </trkpt>
      <trkpt lat="43.4584116004407405853271484375" lon="-3.827451579272747039794921875">
        <ele>18</ele>
        <time>2018-09-05T11:29:18.000Z</time>
      </trkpt>
      <trkpt lat="43.458369188010692596435546875" lon="-3.82762047462165355682373046875">
        <ele>17.3999996185302734375</ele>
        <time>2018-09-05T11:29:20.000Z</time>
      </trkpt>
      <trkpt lat="43.4583237580955028533935546875" lon="-3.8277880288660526275634765625">
        <ele>17</ele>
        <time>2018-09-05T11:29:22.000Z</time>
      </trkpt>
      <trkpt lat="43.45825016498565673828125" lon="-3.82805650122463703155517578125">
        <ele>15.80000019073486328125</ele>
        <time>2018-09-05T11:29:25.000Z</time>
      </trkpt>
      <trkpt lat="43.4582005441188812255859375" lon="-3.82824257947504520416259765625">
        <ele>15.6000003814697265625</ele>
        <time>2018-09-05T11:29:27.000Z</time>
      </trkpt>
      <trkpt lat="43.45814815722405910491943359375" lon="-3.828425221145153045654296875">
        <ele>15.3999996185302734375</ele>
        <time>2018-09-05T11:29:29.000Z</time>
      </trkpt>
      <trkpt lat="43.45809048973023891448974609375" lon="-3.828648515045642852783203125">
        <ele>14.3999996185302734375</ele>
        <time>2018-09-05T11:29:32.000Z</time>
      </trkpt>
      <trkpt lat="43.4580002166330814361572265625" lon="-3.82902326993644237518310546875">
        <ele>13.3999996185302734375</ele>
        <time>2018-09-05T11:29:37.000Z</time>
      </trkpt>
      <trkpt lat="43.45798303373157978057861328125" lon="-3.82910239510238170623779296875">
        <ele>13</ele>
        <time>2018-09-05T11:29:38.000Z</time>
      </trkpt>
      <trkpt lat="43.45792016945779323577880859375" lon="-3.829353936016559600830078125">
        <ele>12.3999996185302734375</ele>
        <time>2018-09-05T11:29:41.000Z</time>
      </trkpt>
      <trkpt lat="43.45789837650954723358154296875" lon="-3.82944018580019474029541015625">
        <ele>12.19999980926513671875</ele>
        <time>2018-09-05T11:29:42.000Z</time>
      </trkpt>
      <trkpt lat="43.45783987082540988922119140625" lon="-3.82961519993841648101806640625">
        <ele>11.6000003814697265625</ele>
        <time>2018-09-05T11:29:44.000Z</time>
      </trkpt>
      <trkpt lat="43.457746915519237518310546875" lon="-3.8299274258315563201904296875">
        <ele>11.3999996185302734375</ele>
        <time>2018-09-05T11:29:48.000Z</time>
      </trkpt>
      <trkpt lat="43.45773291774094104766845703125" lon="-3.8299964927136898040771484375">
        <ele>11.6000003814697265625</ele>
        <time>2018-09-05T11:29:49.000Z</time>
      </trkpt>
      <trkpt lat="43.4577152319252490997314453125" lon="-3.83006296120584011077880859375">
        <ele>11.6000003814697265625</ele>
        <time>2018-09-05T11:29:50.000Z</time>
      </trkpt>
      <trkpt lat="43.4576736576855182647705078125" lon="-3.8301879353821277618408203125">
        <ele>11.6000003814697265625</ele>
        <time>2018-09-05T11:29:52.000Z</time>
      </trkpt>
      <trkpt lat="43.4576186724007129669189453125" lon="-3.83030285127460956573486328125">
        <ele>11.3999996185302734375</ele>
        <time>2018-09-05T11:29:54.000Z</time>
      </trkpt>
      <trkpt lat="43.45747240819036960601806640625" lon="-3.83065556176006793975830078125">
        <ele>11.80000019073486328125</ele>
        <time>2018-09-05T11:30:01.000Z</time>
      </trkpt>
      <trkpt lat="43.4574392996728420257568359375" lon="-3.83076067082583904266357421875">
        <ele>11.80000019073486328125</ele>
        <time>2018-09-05T11:30:03.000Z</time>
      </trkpt>
      <trkpt lat="43.4573890082538127899169921875" lon="-3.83100240491330623626708984375">
        <ele>12.19999980926513671875</ele>
        <time>2018-09-05T11:30:08.000Z</time>
      </trkpt>
      <trkpt lat="43.457372747361660003662109375" lon="-3.83109728805720806121826171875">
        <ele>12.6000003814697265625</ele>
        <time>2018-09-05T11:30:10.000Z</time>
      </trkpt>
      <trkpt lat="43.45733880065381526947021484375" lon="-3.83123726584017276763916015625">
        <ele>13.3999996185302734375</ele>
        <time>2018-09-05T11:30:13.000Z</time>
      </trkpt>
      <trkpt lat="43.45732253976166248321533203125" lon="-3.8312819413840770721435546875">
        <ele>13.3999996185302734375</ele>
        <time>2018-09-05T11:30:14.000Z</time>
      </trkpt>
      <trkpt lat="43.4572911076247692108154296875" lon="-3.831532560288906097412109375">
        <ele>14</ele>
        <time>2018-09-05T11:30:20.000Z</time>
      </trkpt>
      <trkpt lat="43.45725347287952899932861328125" lon="-3.8316031359136104583740234375">
        <ele>14.19999980926513671875</ele>
        <time>2018-09-05T11:30:23.000Z</time>
      </trkpt>
      <trkpt lat="43.457241989672183990478515625" lon="-3.83158092387020587921142578125">
        <ele>14.19999980926513671875</ele>
        <time>2018-09-05T11:30:24.000Z</time>
      </trkpt>
      <trkpt lat="43.4572518803179264068603515625" lon="-3.83154622279107570648193359375">
        <ele>14.3999996185302734375</ele>
        <time>2018-09-05T11:30:25.000Z</time>
      </trkpt>
      <trkpt lat="43.45726302824914455413818359375" lon="-3.83146106265485286712646484375">
        <ele>14.19999980926513671875</ele>
        <time>2018-09-05T11:30:27.000Z</time>
      </trkpt>
      <trkpt lat="43.457229249179363250732421875" lon="-3.831389732658863067626953125">
        <ele>13.80000019073486328125</ele>
        <time>2018-09-05T11:30:30.000Z</time>
      </trkpt>
      <trkpt lat="43.45722279511392116546630859375" lon="-3.83138000965118408203125">
        <ele>13.80000019073486328125</ele>
        <time>2018-09-05T11:30:31.000Z</time>
      </trkpt>
      <trkpt lat="43.45715674571692943572998046875" lon="-3.8313865475356578826904296875">
        <ele>13.6000003814697265625</ele>
        <time>2018-09-05T11:30:44.000Z</time>
      </trkpt>
      <trkpt lat="43.45710955560207366943359375" lon="-3.831427954137325286865234375">
        <ele>13.19999980926513671875</ele>
        <time>2018-09-05T11:30:46.000Z</time>
      </trkpt>
      <trkpt lat="43.4570205397903919219970703125" lon="-3.8314978592097759246826171875">
        <ele>13.19999980926513671875</ele>
        <time>2018-09-05T11:30:49.000Z</time>
      </trkpt>
      <trkpt lat="43.456916771829128265380859375" lon="-3.8315850310027599334716796875">
        <ele>13.19999980926513671875</ele>
        <time>2018-09-05T11:30:52.000Z</time>
      </trkpt>
      <trkpt lat="43.45677536912262439727783203125" lon="-3.83172936737537384033203125">
        <ele>13</ele>
        <time>2018-09-05T11:30:56.000Z</time>
      </trkpt>
      <trkpt lat="43.45670395530760288238525390625" lon="-3.83180539123713970184326171875">
        <ele>12.6000003814697265625</ele>
        <time>2018-09-05T11:30:58.000Z</time>
      </trkpt>
      <trkpt lat="43.456633128225803375244140625" lon="-3.83189910091459751129150390625">
        <ele>12.19999980926513671875</ele>
        <time>2018-09-05T11:31:00.000Z</time>
      </trkpt>
      <trkpt lat="43.45656900666654109954833984375" lon="-3.83201192133128643035888671875">
        <ele>12</ele>
        <time>2018-09-05T11:31:02.000Z</time>
      </trkpt>
      <trkpt lat="43.4565456211566925048828125" lon="-3.832072354853153228759765625">
        <ele>12</ele>
        <time>2018-09-05T11:31:03.000Z</time>
      </trkpt>
      <trkpt lat="43.45652760006487369537353515625" lon="-3.832241334021091461181640625">
        <ele>12.3999996185302734375</ele>
        <time>2018-09-05T11:31:06.000Z</time>
      </trkpt>
      <trkpt lat="43.45653547905385494232177734375" lon="-3.8323404081165790557861328125">
        <ele>12.80000019073486328125</ele>
        <time>2018-09-05T11:31:08.000Z</time>
      </trkpt>
      <trkpt lat="43.45652944408357143402099609375" lon="-3.832445852458477020263671875">
        <ele>12.80000019073486328125</ele>
        <time>2018-09-05T11:31:10.000Z</time>
      </trkpt>
      <trkpt lat="43.4565000236034393310546875" lon="-3.83255205117166042327880859375">
        <ele>13.19999980926513671875</ele>
        <time>2018-09-05T11:31:12.000Z</time>
      </trkpt>
      <trkpt lat="43.4564800746738910675048828125" lon="-3.8326022587716579437255859375">
        <ele>13.19999980926513671875</ele>
        <time>2018-09-05T11:31:13.000Z</time>
      </trkpt>
      <trkpt lat="43.45643439330160617828369140625" lon="-3.832695297896862030029296875">
        <ele>13.19999980926513671875</ele>
        <time>2018-09-05T11:31:15.000Z</time>
      </trkpt>
      <trkpt lat="43.4563778154551982879638671875" lon="-3.83276872336864471435546875">
        <ele>13.19999980926513671875</ele>
        <time>2018-09-05T11:31:17.000Z</time>
      </trkpt>
      <trkpt lat="43.4562162123620510101318359375" lon="-3.832857906818389892578125">
        <ele>13</ele>
        <time>2018-09-05T11:31:21.000Z</time>
      </trkpt>
      <trkpt lat="43.45617053098976612091064453125" lon="-3.83285631425678730010986328125">
        <ele>12.6000003814697265625</ele>
        <time>2018-09-05T11:31:22.000Z</time>
      </trkpt>
      <trkpt lat="43.456133902072906494140625" lon="-3.83284709416329860687255859375">
        <ele>12.19999980926513671875</ele>
        <time>2018-09-05T11:31:23.000Z</time>
      </trkpt>
      <trkpt lat="43.45608855597674846649169921875" lon="-3.8328285701572895050048828125">
        <ele>12.19999980926513671875</ele>
        <time>2018-09-05T11:31:25.000Z</time>
      </trkpt>
      <trkpt lat="43.4560680203139781951904296875" lon="-3.83281641639769077301025390625">
        <ele>12</ele>
        <time>2018-09-05T11:31:26.000Z</time>
      </trkpt>
      <trkpt lat="43.45593634061515331268310546875" lon="-3.83271516300737857818603515625">
        <ele>11.19999980926513671875</ele>
        <time>2018-09-05T11:31:31.000Z</time>
      </trkpt>
      <trkpt lat="43.4559003822505474090576171875" lon="-3.832687921822071075439453125">
        <ele>10.80000019073486328125</ele>
        <time>2018-09-05T11:31:32.000Z</time>
      </trkpt>
      <trkpt lat="43.45585956238210201263427734375" lon="-3.8326649554073810577392578125">
        <ele>10.6000003814697265625</ele>
        <time>2018-09-05T11:31:33.000Z</time>
      </trkpt>
      <trkpt lat="43.455763757228851318359375" lon="-3.83264827542006969451904296875">
        <ele>9.80000019073486328125</ele>
        <time>2018-09-05T11:31:35.000Z</time>
      </trkpt>
      <trkpt lat="43.4557216800749301910400390625" lon="-3.83265833370387554168701171875">
        <ele>9.6000003814697265625</ele>
        <time>2018-09-05T11:31:36.000Z</time>
      </trkpt>
      <trkpt lat="43.45565806142985820770263671875" lon="-3.83268113248050212860107421875">
        <ele>9</ele>
        <time>2018-09-05T11:31:38.000Z</time>
      </trkpt>
      <trkpt lat="43.45562403090298175811767578125" lon="-3.83269202895462512969970703125">
        <ele>8.80000019073486328125</ele>
        <time>2018-09-05T11:31:39.000Z</time>
      </trkpt>
      <trkpt lat="43.45558262430131435394287109375" lon="-3.8327058590948581695556640625">
        <ele>8.3999996185302734375</ele>
        <time>2018-09-05T11:31:40.000Z</time>
      </trkpt>
      <trkpt lat="43.45548304729163646697998046875" lon="-3.8327407278120517730712890625">
        <ele>7.19999980926513671875</ele>
        <time>2018-09-05T11:31:42.000Z</time>
      </trkpt>
      <trkpt lat="43.45539000816643238067626953125" lon="-3.83281004615128040313720703125">
        <ele>6</ele>
        <time>2018-09-05T11:31:44.000Z</time>
      </trkpt>
      <trkpt lat="43.45527048222720623016357421875" lon="-3.83300718851387500762939453125">
        <ele>4.19999980926513671875</ele>
        <time>2018-09-05T11:31:47.000Z</time>
      </trkpt>
      <trkpt lat="43.455243408679962158203125" lon="-3.83309402503073215484619140625">
        <ele>3.599999904632568359375</ele>
        <time>2018-09-05T11:31:48.000Z</time>
      </trkpt>
      <trkpt lat="43.45521935261785984039306640625" lon="-3.833184801042079925537109375">
        <ele>3.2000000476837158203125</ele>
        <time>2018-09-05T11:31:49.000Z</time>
      </trkpt>
      <trkpt lat="43.45514441840350627899169921875" lon="-3.8334843702614307403564453125">
        <ele>2</ele>
        <time>2018-09-05T11:31:52.000Z</time>
      </trkpt>
      <trkpt lat="43.45511189661920070648193359375" lon="-3.8335941731929779052734375">
        <ele>1.60000002384185791015625</ele>
        <time>2018-09-05T11:31:53.000Z</time>
      </trkpt>
      <trkpt lat="43.45504299737513065338134765625" lon="-3.8338253460824489593505859375">
        <ele>0.800000011920928955078125</ele>
        <time>2018-09-05T11:31:55.000Z</time>
      </trkpt>
      <trkpt lat="43.45496973954141139984130859375" lon="-3.8340731151401996612548828125">
        <ele>-0.4000000059604644775390625</ele>
        <time>2018-09-05T11:31:57.000Z</time>
      </trkpt>
      <trkpt lat="43.454892374575138092041015625" lon="-3.83433303795754909515380859375">
        <ele>-1.60000002384185791015625</ele>
        <time>2018-09-05T11:31:59.000Z</time>
      </trkpt>
      <trkpt lat="43.4548177756369113922119140625" lon="-3.8345917873084545135498046875">
        <ele>-2.599999904632568359375</ele>
        <time>2018-09-05T11:32:01.000Z</time>
      </trkpt>
      <trkpt lat="43.45473772846162319183349609375" lon="-3.83484584279358386993408203125">
        <ele>-3.7999999523162841796875</ele>
        <time>2018-09-05T11:32:03.000Z</time>
      </trkpt>
      <trkpt lat="43.4546196274459362030029296875" lon="-3.83523291908204555511474609375">
        <ele>-4.80000019073486328125</ele>
        <time>2018-09-05T11:32:06.000Z</time>
      </trkpt>
      <trkpt lat="43.4545817412436008453369140625" lon="-3.8353595696389675140380859375">
        <ele>-5</ele>
        <time>2018-09-05T11:32:07.000Z</time>
      </trkpt>
      <trkpt lat="43.4543986804783344268798828125" lon="-3.835985362529754638671875">
        <ele>-5.80000019073486328125</ele>
        <time>2018-09-05T11:32:12.000Z</time>
      </trkpt>
      <trkpt lat="43.45436490140855312347412109375" lon="-3.83611268363893032073974609375">
        <ele>-6.19999980926513671875</ele>
        <time>2018-09-05T11:32:13.000Z</time>
      </trkpt>
      <trkpt lat="43.4543327987194061279296875" lon="-3.83623975329101085662841796875">
        <ele>-6.19999980926513671875</ele>
        <time>2018-09-05T11:32:14.000Z</time>
      </trkpt>
      <trkpt lat="43.4543051384389400482177734375" lon="-3.83636782877147197723388671875">
        <ele>-6.400000095367431640625</ele>
        <time>2018-09-05T11:32:15.000Z</time>
      </trkpt>
      <trkpt lat="43.45428694970905780792236328125" lon="-3.83649758063256740570068359375">
        <ele>-6.599999904632568359375</ele>
        <time>2018-09-05T11:32:16.000Z</time>
      </trkpt>
      <trkpt lat="43.45426331274211406707763671875" lon="-3.8367497920989990234375">
        <ele>-6.599999904632568359375</ele>
        <time>2018-09-05T11:32:18.000Z</time>
      </trkpt>
      <trkpt lat="43.45426180399954319000244140625" lon="-3.836868815124034881591796875">
        <ele>-6.400000095367431640625</ele>
        <time>2018-09-05T11:32:19.000Z</time>
      </trkpt>
      <trkpt lat="43.4542384184896945953369140625" lon="-3.8373222760856151580810546875">
        <ele>-6.19999980926513671875</ele>
        <time>2018-09-05T11:32:23.000Z</time>
      </trkpt>
      <trkpt lat="43.45423095859587192535400390625" lon="-3.8375381939113140106201171875">
        <ele>-5.80000019073486328125</ele>
        <time>2018-09-05T11:32:25.000Z</time>
      </trkpt>
      <trkpt lat="43.4542404301464557647705078125" lon="-3.8379297964274883270263671875">
        <ele>-5.400000095367431640625</ele>
        <time>2018-09-05T11:32:29.000Z</time>
      </trkpt>
      <trkpt lat="43.45424336381256580352783203125" lon="-3.83811780251562595367431640625">
        <ele>-5.19999980926513671875</ele>
        <time>2018-09-05T11:32:31.000Z</time>
      </trkpt>
      <trkpt lat="43.454253673553466796875" lon="-3.83838753215968608856201171875">
        <ele>-4.80000019073486328125</ele>
        <time>2018-09-05T11:32:34.000Z</time>
      </trkpt>
      <trkpt lat="43.45426507294178009033203125" lon="-3.8386555016040802001953125">
        <ele>-4.80000019073486328125</ele>
        <time>2018-09-05T11:32:37.000Z</time>
      </trkpt>
      <trkpt lat="43.4542858600616455078125" lon="-3.83882674388587474822998046875">
        <ele>-5.400000095367431640625</ele>
        <time>2018-09-05T11:32:39.000Z</time>
      </trkpt>
      <trkpt lat="43.454376049339771270751953125" lon="-3.83927081711590290069580078125">
        <ele>-6</ele>
        <time>2018-09-05T11:32:44.000Z</time>
      </trkpt>
      <trkpt lat="43.454418294131755828857421875" lon="-3.83945572189986705780029296875">
        <ele>-6.599999904632568359375</ele>
        <time>2018-09-05T11:32:46.000Z</time>
      </trkpt>
      <trkpt lat="43.4545006044209003448486328125" lon="-3.83983609266579151153564453125">
        <ele>-7.19999980926513671875</ele>
        <time>2018-09-05T11:32:50.000Z</time>
      </trkpt>
      <trkpt lat="43.454547040164470672607421875" lon="-3.840032480657100677490234375">
        <ele>-8.19999980926513671875</ele>
        <time>2018-09-05T11:32:52.000Z</time>
      </trkpt>
      <trkpt lat="43.4546176157891750335693359375" lon="-3.84033096022903919219970703125">
        <ele>-8.6000003814697265625</ele>
        <time>2018-09-05T11:32:55.000Z</time>
      </trkpt>
      <trkpt lat="43.4547537378966808319091796875" lon="-3.84089774452149868011474609375">
        <ele>-9</ele>
        <time>2018-09-05T11:33:01.000Z</time>
      </trkpt>
      <trkpt lat="43.454795815050601959228515625" lon="-3.84105498902499675750732421875">
        <ele>-8.3999996185302734375</ele>
        <time>2018-09-05T11:33:03.000Z</time>
      </trkpt>
      <trkpt lat="43.45480847172439098358154296875" lon="-3.841129839420318603515625">
        <ele>-8.19999980926513671875</ele>
        <time>2018-09-05T11:33:04.000Z</time>
      </trkpt>
      <trkpt lat="43.45482825301587581634521484375" lon="-3.8412706553936004638671875">
        <ele>-7.80000019073486328125</ele>
        <time>2018-09-05T11:33:06.000Z</time>
      </trkpt>
      <trkpt lat="43.4548171050846576690673828125" lon="-3.8414146564900875091552734375">
        <ele>-7.400000095367431640625</ele>
        <time>2018-09-05T11:33:08.000Z</time>
      </trkpt>
      <trkpt lat="43.45479573123157024383544921875" lon="-3.8415611721575260162353515625">
        <ele>-7.19999980926513671875</ele>
        <time>2018-09-05T11:33:10.000Z</time>
      </trkpt>
      <trkpt lat="43.45473705790936946868896484375" lon="-3.84191765449941158294677734375">
        <ele>-7.19999980926513671875</ele>
        <time>2018-09-05T11:33:15.000Z</time>
      </trkpt>
      <trkpt lat="43.45469280146062374114990234375" lon="-3.842130638659000396728515625">
        <ele>-6.599999904632568359375</ele>
        <time>2018-09-05T11:33:18.000Z</time>
      </trkpt>
      <trkpt lat="43.4545703418552875518798828125" lon="-3.84271276183426380157470703125">
        <ele>-6.80000019073486328125</ele>
        <time>2018-09-05T11:33:26.000Z</time>
      </trkpt>
      <trkpt lat="43.4544419310986995697021484375" lon="-3.8433877564966678619384765625">
        <ele>-6.80000019073486328125</ele>
        <time>2018-09-05T11:33:35.000Z</time>
      </trkpt>
      <trkpt lat="43.4543336369097232818603515625" lon="-3.84391070343554019927978515625">
        <ele>-6.19999980926513671875</ele>
        <time>2018-09-05T11:33:42.000Z</time>
      </trkpt>
      <trkpt lat="43.4543185494840145111083984375" lon="-3.843983374536037445068359375">
        <ele>-5.80000019073486328125</ele>
        <time>2018-09-05T11:33:43.000Z</time>
      </trkpt>
      <trkpt lat="43.4542276896536350250244140625" lon="-3.84452794678509235382080078125">
        <ele>-5.400000095367431640625</ele>
        <time>2018-09-05T11:33:51.000Z</time>
      </trkpt>
      <trkpt lat="43.45416826196014881134033203125" lon="-3.84485517628490924835205078125">
        <ele>-5</ele>
        <time>2018-09-05T11:33:56.000Z</time>
      </trkpt>
      <trkpt lat="43.4541182219982147216796875" lon="-3.8451053760945796966552734375">
        <ele>-4.599999904632568359375</ele>
        <time>2018-09-05T11:34:00.000Z</time>
      </trkpt>
      <trkpt lat="43.45404689200222492218017578125" lon="-3.84554265998303890228271484375">
        <ele>-3.7999999523162841796875</ele>
        <time>2018-09-05T11:34:07.000Z</time>
      </trkpt>
      <trkpt lat="43.4540385939180850982666015625" lon="-3.84560200385749340057373046875">
        <ele>-3.7999999523162841796875</ele>
        <time>2018-09-05T11:34:08.000Z</time>
      </trkpt>
      <trkpt lat="43.45395619980990886688232421875" lon="-3.846083544194698333740234375">
        <ele>-3.7999999523162841796875</ele>
        <time>2018-09-05T11:34:17.000Z</time>
      </trkpt>
      <trkpt lat="43.4539423696696758270263671875" lon="-3.84617649950087070465087890625">
        <ele>-2.599999904632568359375</ele>
        <time>2018-09-05T11:34:19.000Z</time>
      </trkpt>
      <trkpt lat="43.4539282880723476409912109375" lon="-3.8462496735155582427978515625">
        <ele>-2.400000095367431640625</ele>
        <time>2018-09-05T11:34:22.000Z</time>
      </trkpt>
      <trkpt lat="43.453928120434284210205078125" lon="-3.84633759967982769012451171875">
        <ele>-2.400000095367431640625</ele>
        <time>2018-09-05T11:34:34.000Z</time>
      </trkpt>
      <trkpt lat="43.45392979681491851806640625" lon="-3.84643566794693470001220703125">
        <ele>-2.2000000476837158203125</ele>
        <time>2018-09-05T11:34:38.000Z</time>
      </trkpt>
      <trkpt lat="43.45393625088036060333251953125" lon="-3.84645947255194187164306640625">
        <ele>-2</ele>
        <time>2018-09-05T11:34:40.000Z</time>
      </trkpt>
      <trkpt lat="43.453910686075687408447265625" lon="-3.84650976397097110748291015625">
        <ele>-2.400000095367431640625</ele>
        <time>2018-09-05T11:35:39.000Z</time>
      </trkpt>
      <trkpt lat="43.453903310000896453857421875" lon="-3.84652099572122097015380859375">
        <ele>-2.400000095367431640625</ele>
        <time>2018-09-05T11:35:40.000Z</time>
      </trkpt>
      <trkpt lat="43.4538996219635009765625" lon="-3.84658268652856349945068359375">
        <ele>-2.599999904632568359375</ele>
        <time>2018-09-05T11:35:43.000Z</time>
      </trkpt>
      <trkpt lat="43.45389568246901035308837890625" lon="-3.84661453776061534881591796875">
        <ele>-2.2000000476837158203125</ele>
        <time>2018-09-05T11:35:45.000Z</time>
      </trkpt>
      <trkpt lat="43.45392485149204730987548828125" lon="-3.84670791216194629669189453125">
        <ele>-1.39999997615814208984375</ele>
        <time>2018-09-05T11:35:49.000Z</time>
      </trkpt>
      <trkpt lat="43.45393759198486804962158203125" lon="-3.8467318005859851837158203125">
        <ele>-1.2000000476837158203125</ele>
        <time>2018-09-05T11:35:50.000Z</time>
      </trkpt>
      <trkpt lat="43.45399978570640087127685546875" lon="-3.84682190604507923126220703125">
        <ele>-0.800000011920928955078125</ele>
        <time>2018-09-05T11:35:54.000Z</time>
      </trkpt>
      <trkpt lat="43.4540543518960475921630859375" lon="-3.8468695990741252899169921875">
        <ele>-0.60000002384185791015625</ele>
        <time>2018-09-05T11:35:57.000Z</time>
      </trkpt>
      <trkpt lat="43.45406985841691493988037109375" lon="-3.8468843512237071990966796875">
        <ele>-0.4000000059604644775390625</ele>
        <time>2018-09-05T11:35:58.000Z</time>
      </trkpt>
      <trkpt lat="43.45407824032008647918701171875" lon="-3.846902288496494293212890625">
        <ele>-0.20000000298023223876953125</ele>
        <time>2018-09-05T11:35:59.000Z</time>
      </trkpt>
      <trkpt lat="43.45409072935581207275390625" lon="-3.84695920161902904510498046875">
        <ele>-0.20000000298023223876953125</ele>
        <time>2018-09-05T11:36:01.000Z</time>
      </trkpt>
      <trkpt lat="43.45406927168369293212890625" lon="-3.8470342196524143218994140625">
        <ele>0.20000000298023223876953125</ele>
        <time>2018-09-05T11:36:03.000Z</time>
      </trkpt>
      <trkpt lat="43.45403951592743396759033203125" lon="-3.8470561802387237548828125">
        <ele>0.20000000298023223876953125</ele>
        <time>2018-09-05T11:36:04.000Z</time>
      </trkpt>
      <trkpt lat="43.45395737327635288238525390625" lon="-3.8470935635268688201904296875">
        <ele>-0.20000000298023223876953125</ele>
        <time>2018-09-05T11:36:06.000Z</time>
      </trkpt>
      <trkpt lat="43.4539105184376239776611328125" lon="-3.84711342863738536834716796875">
        <ele>-0.4000000059604644775390625</ele>
        <time>2018-09-05T11:36:07.000Z</time>
      </trkpt>
      <trkpt lat="43.45385863445699214935302734375" lon="-3.84714427404105663299560546875">
        <ele>-0.800000011920928955078125</ele>
        <time>2018-09-05T11:36:08.000Z</time>
      </trkpt>
      <trkpt lat="43.45377682708203792572021484375" lon="-3.8472588546574115753173828125">
        <ele>-1.39999997615814208984375</ele>
        <time>2018-09-05T11:36:10.000Z</time>
      </trkpt>
      <trkpt lat="43.45375335775315761566162109375" lon="-3.8473302684724330902099609375">
        <ele>-1.39999997615814208984375</ele>
        <time>2018-09-05T11:36:11.000Z</time>
      </trkpt>
      <trkpt lat="43.45372804440557956695556640625" lon="-3.847473599016666412353515625">
        <ele>-1.60000002384185791015625</ele>
        <time>2018-09-05T11:36:13.000Z</time>
      </trkpt>
      <trkpt lat="43.453708179295063018798828125" lon="-3.8476072065532207489013671875">
        <ele>-1.60000002384185791015625</ele>
        <time>2018-09-05T11:36:15.000Z</time>
      </trkpt>
      <trkpt lat="43.4535863064229488372802734375" lon="-3.84830600582063198089599609375">
        <ele>-1.60000002384185791015625</ele>
        <time>2018-09-05T11:36:26.000Z</time>
      </trkpt>
      <trkpt lat="43.45348429866135120391845703125" lon="-3.8488259352743625640869140625">
        <ele>-0.60000002384185791015625</ele>
        <time>2018-09-05T11:36:35.000Z</time>
      </trkpt>
      <trkpt lat="43.453474827110767364501953125" lon="-3.84888066910207271575927734375">
        <ele>-0.4000000059604644775390625</ele>
        <time>2018-09-05T11:36:36.000Z</time>
      </trkpt>
      <trkpt lat="43.45339201390743255615234375" lon="-3.8493154384195804595947265625">
        <ele>1</ele>
        <time>2018-09-05T11:36:44.000Z</time>
      </trkpt>
      <trkpt lat="43.45338220708072185516357421875" lon="-3.84936614893376827239990234375">
        <ele>1</ele>
        <time>2018-09-05T11:36:45.000Z</time>
      </trkpt>
      <trkpt lat="43.45335421152412891387939453125" lon="-3.8495062105357646942138671875">
        <ele>1.7999999523162841796875</ele>
        <time>2018-09-05T11:36:48.000Z</time>
      </trkpt>
      <trkpt lat="43.4533459134399890899658203125" lon="-3.8495524786412715911865234375">
        <ele>2.2000000476837158203125</ele>
        <time>2018-09-05T11:36:49.000Z</time>
      </trkpt>
      <trkpt lat="43.4533190913498401641845703125" lon="-3.84970561601221561431884765625">
        <ele>3.2000000476837158203125</ele>
        <time>2018-09-05T11:36:53.000Z</time>
      </trkpt>
      <trkpt lat="43.45329604111611843109130859375" lon="-3.84984190575778484344482421875">
        <ele>4.19999980926513671875</ele>
        <time>2018-09-05T11:36:57.000Z</time>
      </trkpt>
      <trkpt lat="43.4532785229384899139404296875" lon="-3.849924467504024505615234375">
        <ele>5.19999980926513671875</ele>
        <time>2018-09-05T11:37:00.000Z</time>
      </trkpt>
      <trkpt lat="43.4532734937965869903564453125" lon="-3.84995372034609317779541015625">
        <ele>5.400000095367431640625</ele>
        <time>2018-09-05T11:37:01.000Z</time>
      </trkpt>
      <trkpt lat="43.4532572329044342041015625" lon="-3.85009638033807277679443359375">
        <ele>6.599999904632568359375</ele>
        <time>2018-09-05T11:37:06.000Z</time>
      </trkpt>
      <trkpt lat="43.4532443247735500335693359375" lon="-3.8501770980656147003173828125">
        <ele>7.19999980926513671875</ele>
        <time>2018-09-05T11:37:09.000Z</time>
      </trkpt>
      <trkpt lat="43.4532342664897441864013671875" lon="-3.8502327539026737213134765625">
        <ele>7.599999904632568359375</ele>
        <time>2018-09-05T11:37:11.000Z</time>
      </trkpt>
      <trkpt lat="43.453206606209278106689453125" lon="-3.85039754211902618408203125">
        <ele>8.80000019073486328125</ele>
        <time>2018-09-05T11:37:17.000Z</time>
      </trkpt>
      <trkpt lat="43.4531947039067745208740234375" lon="-3.85047909803688526153564453125">
        <ele>9.6000003814697265625</ele>
        <time>2018-09-05T11:37:20.000Z</time>
      </trkpt>
      <trkpt lat="43.45318690873682498931884765625" lon="-3.85053031146526336669921875">
        <ele>10</ele>
        <time>2018-09-05T11:37:22.000Z</time>
      </trkpt>
      <trkpt lat="43.4531789459288120269775390625" lon="-3.85060952045023441314697265625">
        <ele>11</ele>
        <time>2018-09-05T11:37:25.000Z</time>
      </trkpt>
      <trkpt lat="43.4531633555889129638671875" lon="-3.8507388532161712646484375">
        <ele>12.19999980926513671875</ele>
        <time>2018-09-05T11:37:30.000Z</time>
      </trkpt>
      <trkpt lat="43.45314617268741130828857421875" lon="-3.85084806941449642181396484375">
        <ele>13.19999980926513671875</ele>
        <time>2018-09-05T11:37:34.000Z</time>
      </trkpt>
      <trkpt lat="43.4531326778233051300048828125" lon="-3.85095720179378986358642578125">
        <ele>14</ele>
        <time>2018-09-05T11:37:38.000Z</time>
      </trkpt>
      <trkpt lat="43.4531266428530216217041015625" lon="-3.85098150931298732757568359375">
        <ele>14.19999980926513671875</ele>
        <time>2018-09-05T11:37:39.000Z</time>
      </trkpt>
      <trkpt lat="43.45310711301863193511962890625" lon="-3.85114990174770355224609375">
        <ele>15.3999996185302734375</ele>
        <time>2018-09-05T11:37:45.000Z</time>
      </trkpt>
      <trkpt lat="43.4530961327254772186279296875" lon="-3.8512404263019561767578125">
        <ele>16.200000762939453125</ele>
        <time>2018-09-05T11:37:48.000Z</time>
      </trkpt>
      <trkpt lat="43.45308984629809856414794921875" lon="-3.85130102746188640594482421875">
        <ele>16.6000003814697265625</ele>
        <time>2018-09-05T11:37:50.000Z</time>
      </trkpt>
      <trkpt lat="43.45306671224534511566162109375" lon="-3.85150169022381305694580078125">
        <ele>17.799999237060546875</ele>
        <time>2018-09-05T11:37:56.000Z</time>
      </trkpt>
      <trkpt lat="43.45305933617055416107177734375" lon="-3.8515798933804035186767578125">
        <ele>18</ele>
        <time>2018-09-05T11:37:58.000Z</time>
      </trkpt>
      <trkpt lat="43.453027904033660888671875" lon="-3.851755075156688690185546875">
        <ele>18.799999237060546875</ele>
        <time>2018-09-05T11:38:02.000Z</time>
      </trkpt>
      <trkpt lat="43.4530035965144634246826171875" lon="-3.851942159235477447509765625">
        <ele>19.3999996185302734375</ele>
        <time>2018-09-05T11:38:06.000Z</time>
      </trkpt>
      <trkpt lat="43.4529663808643817901611328125" lon="-3.85224801488220691680908203125">
        <ele>19.6000003814697265625</ele>
        <time>2018-09-05T11:38:13.000Z</time>
      </trkpt>
      <trkpt lat="43.45295791514217853546142578125" lon="-3.85237357579171657562255859375">
        <ele>19</ele>
        <time>2018-09-05T11:38:19.000Z</time>
      </trkpt>
      <trkpt lat="43.4528500400483608245849609375" lon="-3.85242001153528690338134765625">
        <ele>20.200000762939453125</ele>
        <time>2018-09-05T12:05:35.000Z</time>
      </trkpt>
      <trkpt lat="43.45284618437290191650390625" lon="-3.85246192105114459991455078125">
        <ele>20.200000762939453125</ele>
        <time>2018-09-05T12:05:36.000Z</time>
      </trkpt>
      <trkpt lat="43.4528560750186443328857421875" lon="-3.8526346720755100250244140625">
        <ele>19.6000003814697265625</ele>
        <time>2018-09-05T12:05:39.000Z</time>
      </trkpt>
      <trkpt lat="43.4528674744069576263427734375" lon="-3.85268622078001499176025390625">
        <ele>19.3999996185302734375</ele>
        <time>2018-09-05T12:05:40.000Z</time>
      </trkpt>
      <trkpt lat="43.45288415439426898956298828125" lon="-3.85271589271724224090576171875">
        <ele>19.200000762939453125</ele>
        <time>2018-09-05T12:05:41.000Z</time>
      </trkpt>
      <trkpt lat="43.4529058635234832763671875" lon="-3.85276400484144687652587890625">
        <ele>18.3999996185302734375</ele>
        <time>2018-09-05T12:05:43.000Z</time>
      </trkpt>
      <trkpt lat="43.45290913246572017669677734375" lon="-3.8528039865195751190185546875">
        <ele>18</ele>
        <time>2018-09-05T12:05:44.000Z</time>
      </trkpt>
      <trkpt lat="43.45289857126772403717041015625" lon="-3.85290062986314296722412109375">
        <ele>17.3999996185302734375</ele>
        <time>2018-09-05T12:05:46.000Z</time>
      </trkpt>
      <trkpt lat="43.45289002172648906707763671875" lon="-3.8529464788734912872314453125">
        <ele>17.200000762939453125</ele>
        <time>2018-09-05T12:05:47.000Z</time>
      </trkpt>
      <trkpt lat="43.4528721682727336883544921875" lon="-3.85302216745913028717041015625">
        <ele>17</ele>
        <time>2018-09-05T12:05:49.000Z</time>
      </trkpt>
      <trkpt lat="43.45285825431346893310546875" lon="-3.853110261261463165283203125">
        <ele>16.200000762939453125</ele>
        <time>2018-09-05T12:05:52.000Z</time>
      </trkpt>
      <trkpt lat="43.4528497047722339630126953125" lon="-3.85313582606613636016845703125">
        <ele>16.200000762939453125</ele>
        <time>2018-09-05T12:05:53.000Z</time>
      </trkpt>
      <trkpt lat="43.45280787907540798187255859375" lon="-3.8531635701656341552734375">
        <ele>16.200000762939453125</ele>
        <time>2018-09-05T12:05:55.000Z</time>
      </trkpt>
      <trkpt lat="43.45278692431747913360595703125" lon="-3.8531721197068691253662109375">
        <ele>16.3999996185302734375</ele>
        <time>2018-09-05T12:05:56.000Z</time>
      </trkpt>
      <trkpt lat="43.45276169478893280029296875" lon="-3.853207491338253021240234375">
        <ele>16.6000003814697265625</ele>
        <time>2018-09-05T12:05:58.000Z</time>
      </trkpt>
      <trkpt lat="43.4527583420276641845703125" lon="-3.85328896343708038330078125">
        <ele>16.799999237060546875</ele>
        <time>2018-09-05T12:06:00.000Z</time>
      </trkpt>
      <trkpt lat="43.452754318714141845703125" lon="-3.8533437810838222503662109375">
        <ele>16.799999237060546875</ele>
        <time>2018-09-05T12:06:01.000Z</time>
      </trkpt>
      <trkpt lat="43.45271718688309192657470703125" lon="-3.85352206416428089141845703125">
        <ele>16</ele>
        <time>2018-09-05T12:06:04.000Z</time>
      </trkpt>
      <trkpt lat="43.4526495449244976043701171875" lon="-3.85376916266977787017822265625">
        <ele>15</ele>
        <time>2018-09-05T12:06:08.000Z</time>
      </trkpt>
      <trkpt lat="43.45259196124970912933349609375" lon="-3.8539600186049938201904296875">
        <ele>14.80000019073486328125</ele>
        <time>2018-09-05T12:06:11.000Z</time>
      </trkpt>
      <trkpt lat="43.4525741077959537506103515625" lon="-3.85402179323136806488037109375">
        <ele>14.6000003814697265625</ele>
        <time>2018-09-05T12:06:12.000Z</time>
      </trkpt>
      <trkpt lat="43.45251769758760929107666015625" lon="-3.854203261435031890869140625">
        <ele>13.80000019073486328125</ele>
        <time>2018-09-05T12:06:15.000Z</time>
      </trkpt>
      <trkpt lat="43.45246086828410625457763671875" lon="-3.8543744198977947235107421875">
        <ele>14</ele>
        <time>2018-09-05T12:06:18.000Z</time>
      </trkpt>
      <trkpt lat="43.45239263959228992462158203125" lon="-3.85461456142365932464599609375">
        <ele>14.19999980926513671875</ele>
        <time>2018-09-05T12:06:22.000Z</time>
      </trkpt>
      <trkpt lat="43.45232340507209300994873046875" lon="-3.854863755404949188232421875">
        <ele>14.3999996185302734375</ele>
        <time>2018-09-05T12:06:26.000Z</time>
      </trkpt>
      <trkpt lat="43.45224226824939250946044921875" lon="-3.85511630214750766754150390625">
        <ele>14</ele>
        <time>2018-09-05T12:06:30.000Z</time>
      </trkpt>
      <trkpt lat="43.4521238319575786590576171875" lon="-3.85555149056017398834228515625">
        <ele>13.3999996185302734375</ele>
        <time>2018-09-05T12:06:36.000Z</time>
      </trkpt>
      <trkpt lat="43.45202148891985416412353515625" lon="-3.85594845749437808990478515625">
        <ele>13.6000003814697265625</ele>
        <time>2018-09-05T12:06:42.000Z</time>
      </trkpt>
      <trkpt lat="43.451955355703830718994140625" lon="-3.85619354434311389923095703125">
        <ele>13.3999996185302734375</ele>
        <time>2018-09-05T12:06:46.000Z</time>
      </trkpt>
      <trkpt lat="43.45191922970116138458251953125" lon="-3.85630954988300800323486328125">
        <ele>13.80000019073486328125</ele>
        <time>2018-09-05T12:06:48.000Z</time>
      </trkpt>
      <trkpt lat="43.45190380699932575225830078125" lon="-3.8563673011958599090576171875">
        <ele>14</ele>
        <time>2018-09-05T12:06:49.000Z</time>
      </trkpt>
      <trkpt lat="43.451874218881130218505859375" lon="-3.8564806245267391204833984375">
        <ele>13.80000019073486328125</ele>
        <time>2018-09-05T12:06:51.000Z</time>
      </trkpt>
      <trkpt lat="43.451738767325878143310546875" lon="-3.85697691701352596282958984375">
        <ele>14.19999980926513671875</ele>
        <time>2018-09-05T12:07:00.000Z</time>
      </trkpt>
      <trkpt lat="43.4516199119389057159423828125" lon="-3.85741948150098323822021484375">
        <ele>14.19999980926513671875</ele>
        <time>2018-09-05T12:07:08.000Z</time>
      </trkpt>
      <trkpt lat="43.4516004659235477447509765625" lon="-3.85747916065156459808349609375">
        <ele>14</ele>
        <time>2018-09-05T12:07:09.000Z</time>
      </trkpt>
      <trkpt lat="43.45149225555360317230224609375" lon="-3.8578099943697452545166015625">
        <ele>13.19999980926513671875</ele>
        <time>2018-09-05T12:07:14.000Z</time>
      </trkpt>
      <trkpt lat="43.45144380815327167510986328125" lon="-3.85792373679578304290771484375">
        <ele>13.19999980926513671875</ele>
        <time>2018-09-05T12:07:16.000Z</time>
      </trkpt>
      <trkpt lat="43.451423943042755126953125" lon="-3.85797888971865177154541015625">
        <ele>13.3999996185302734375</ele>
        <time>2018-09-05T12:07:17.000Z</time>
      </trkpt>
      <trkpt lat="43.45132562331855297088623046875" lon="-3.85825113393366336822509765625">
        <ele>14.19999980926513671875</ele>
        <time>2018-09-05T12:07:22.000Z</time>
      </trkpt>
      <trkpt lat="43.4512460790574550628662109375" lon="-3.85847006924450397491455078125">
        <ele>13.6000003814697265625</ele>
        <time>2018-09-05T12:07:26.000Z</time>
      </trkpt>
      <trkpt lat="43.4512192569673061370849609375" lon="-3.85858632624149322509765625">
        <ele>13.6000003814697265625</ele>
        <time>2018-09-05T12:07:28.000Z</time>
      </trkpt>
      <trkpt lat="43.45117776654660701751708984375" lon="-3.8586951233446598052978515625">
        <ele>13</ele>
        <time>2018-09-05T12:07:30.000Z</time>
      </trkpt>
      <trkpt lat="43.45110819675028324127197265625" lon="-3.85892000980675220489501953125">
        <ele>13.3999996185302734375</ele>
        <time>2018-09-05T12:07:34.000Z</time>
      </trkpt>
      <trkpt lat="43.45112948678433895111083984375" lon="-3.85916207917034626007080078125">
        <ele>13.80000019073486328125</ele>
        <time>2018-09-05T12:07:38.000Z</time>
      </trkpt>
      <trkpt lat="43.45113485120236873626708984375" lon="-3.85922335088253021240234375">
        <ele>14</ele>
        <time>2018-09-05T12:07:39.000Z</time>
      </trkpt>
      <trkpt lat="43.451107777655124664306640625" lon="-3.859467096626758575439453125">
        <ele>13.80000019073486328125</ele>
        <time>2018-09-05T12:07:43.000Z</time>
      </trkpt>
      <trkpt lat="43.4510284848511219024658203125" lon="-3.85967731475830078125">
        <ele>13.6000003814697265625</ele>
        <time>2018-09-05T12:07:47.000Z</time>
      </trkpt>
      <trkpt lat="43.45098565332591533660888671875" lon="-3.8597740419209003448486328125">
        <ele>13.80000019073486328125</ele>
        <time>2018-09-05T12:07:49.000Z</time>
      </trkpt>
      <trkpt lat="43.45093418844044208526611328125" lon="-3.8598597049713134765625">
        <ele>13.80000019073486328125</ele>
        <time>2018-09-05T12:07:51.000Z</time>
      </trkpt>
      <trkpt lat="43.4508058615028858184814453125" lon="-3.85999792255461215972900390625">
        <ele>14.19999980926513671875</ele>
        <time>2018-09-05T12:07:55.000Z</time>
      </trkpt>
      <trkpt lat="43.45057879574596881866455078125" lon="-3.86024351231753826141357421875">
        <ele>14.6000003814697265625</ele>
        <time>2018-09-05T12:08:02.000Z</time>
      </trkpt>
      <trkpt lat="43.4505349583923816680908203125" lon="-3.8603376410901546478271484375">
        <ele>15</ele>
        <time>2018-09-05T12:08:04.000Z</time>
      </trkpt>
      <trkpt lat="43.45049916766583919525146484375" lon="-3.86044241487979888916015625">
        <ele>14.80000019073486328125</ele>
        <time>2018-09-05T12:08:06.000Z</time>
      </trkpt>
      <trkpt lat="43.450477458536624908447265625" lon="-3.86049262247979640960693359375">
        <ele>14.6000003814697265625</ele>
        <time>2018-09-05T12:08:07.000Z</time>
      </trkpt>
      <trkpt lat="43.45033161342144012451171875" lon="-3.86090920306742191314697265625">
        <ele>15.19999980926513671875</ele>
        <time>2018-09-05T12:08:15.000Z</time>
      </trkpt>
      <trkpt lat="43.4502932243049144744873046875" lon="-3.86101028881967067718505859375">
        <ele>15.6000003814697265625</ele>
        <time>2018-09-05T12:08:17.000Z</time>
      </trkpt>
      <trkpt lat="43.45023773610591888427734375" lon="-3.86116535402834415435791015625">
        <ele>15.3999996185302734375</ele>
        <time>2018-09-05T12:08:20.000Z</time>
      </trkpt>
      <trkpt lat="43.4501929767429828643798828125" lon="-3.8612623326480388641357421875">
        <ele>15.3999996185302734375</ele>
        <time>2018-09-05T12:08:22.000Z</time>
      </trkpt>
      <trkpt lat="43.4500467963516712188720703125" lon="-3.86164647527039051055908203125">
        <ele>16.200000762939453125</ele>
        <time>2018-09-05T12:08:30.000Z</time>
      </trkpt>
      <trkpt lat="43.45002718269824981689453125" lon="-3.8616928271949291229248046875">
        <ele>16.6000003814697265625</ele>
        <time>2018-09-05T12:08:31.000Z</time>
      </trkpt>
      <trkpt lat="43.44995585270226001739501953125" lon="-3.861856944859027862548828125">
        <ele>17.200000762939453125</ele>
        <time>2018-09-05T12:08:35.000Z</time>
      </trkpt>
      <trkpt lat="43.44992165453732013702392578125" lon="-3.86193129234015941619873046875">
        <ele>17.3999996185302734375</ele>
        <time>2018-09-05T12:08:37.000Z</time>
      </trkpt>
      <trkpt lat="43.44989986158907413482666015625" lon="-3.86196481995284557342529296875">
        <ele>17.3999996185302734375</ele>
        <time>2018-09-05T12:08:38.000Z</time>
      </trkpt>
      <trkpt lat="43.449795506894588470458984375" lon="-3.86218006722629070281982421875">
        <ele>18.200000762939453125</ele>
        <time>2018-09-05T12:08:44.000Z</time>
      </trkpt>
      <trkpt lat="43.4497644938528537750244140625" lon="-3.8622477091848850250244140625">
        <ele>18.799999237060546875</ele>
        <time>2018-09-05T12:08:46.000Z</time>
      </trkpt>
      <trkpt lat="43.44969232566654682159423828125" lon="-3.86240604333579540252685546875">
        <ele>19.3999996185302734375</ele>
        <time>2018-09-05T12:08:51.000Z</time>
      </trkpt>
      <trkpt lat="43.4496662579476833343505859375" lon="-3.86247217655181884765625">
        <ele>19.799999237060546875</ele>
        <time>2018-09-05T12:08:53.000Z</time>
      </trkpt>
      <trkpt lat="43.44956626184284687042236328125" lon="-3.8626436702907085418701171875">
        <ele>20.200000762939453125</ele>
        <time>2018-09-05T12:08:59.000Z</time>
      </trkpt>
      <trkpt lat="43.44955050386488437652587890625" lon="-3.862674348056316375732421875">
        <ele>20.6000003814697265625</ele>
        <time>2018-09-05T12:09:00.000Z</time>
      </trkpt>
      <trkpt lat="43.44948512502014636993408203125" lon="-3.86279965750873088836669921875">
        <ele>21.200000762939453125</ele>
        <time>2018-09-05T12:09:04.000Z</time>
      </trkpt>
      <trkpt lat="43.44945042394101619720458984375" lon="-3.86285615153610706329345703125">
        <ele>21.6000003814697265625</ele>
        <time>2018-09-05T12:09:06.000Z</time>
      </trkpt>
      <trkpt lat="43.449375741183757781982421875" lon="-3.86296444572508335113525390625">
        <ele>22</ele>
        <time>2018-09-05T12:09:10.000Z</time>
      </trkpt>
      <trkpt lat="43.44930390827357769012451171875" lon="-3.8630889169871807098388671875">
        <ele>22.799999237060546875</ele>
        <time>2018-09-05T12:09:14.000Z</time>
      </trkpt>
      <trkpt lat="43.44918974675238132476806640625" lon="-3.86326250620186328887939453125">
        <ele>23.799999237060546875</ele>
        <time>2018-09-05T12:09:20.000Z</time>
      </trkpt>
      <trkpt lat="43.44907156191766262054443359375" lon="-3.86347792111337184906005859375">
        <ele>24.799999237060546875</ele>
        <time>2018-09-05T12:09:27.000Z</time>
      </trkpt>
      <trkpt lat="43.44903870485723018646240234375" lon="-3.8635375164449214935302734375">
        <ele>25</ele>
        <time>2018-09-05T12:09:29.000Z</time>
      </trkpt>
      <trkpt lat="43.448984809219837188720703125" lon="-3.8637453876435756683349609375">
        <ele>26</ele>
        <time>2018-09-05T12:09:35.000Z</time>
      </trkpt>
      <trkpt lat="43.44895941205322742462158203125" lon="-3.86402140371501445770263671875">
        <ele>26.799999237060546875</ele>
        <time>2018-09-05T12:09:42.000Z</time>
      </trkpt>
      <trkpt lat="43.448949940502643585205078125" lon="-3.864059709012508392333984375">
        <ele>27</ele>
        <time>2018-09-05T12:09:43.000Z</time>
      </trkpt>
      <trkpt lat="43.44888296909630298614501953125" lon="-3.8642120920121669769287109375">
        <ele>27.6000003814697265625</ele>
        <time>2018-09-05T12:09:48.000Z</time>
      </trkpt>
      <trkpt lat="43.44887517392635345458984375" lon="-3.8642694242298603057861328125">
        <ele>28.200000762939453125</ele>
        <time>2018-09-05T12:09:50.000Z</time>
      </trkpt>
      <trkpt lat="43.4489055164158344268798828125" lon="-3.86432834900915622711181640625">
        <ele>28.3999996185302734375</ele>
        <time>2018-09-05T12:09:52.000Z</time>
      </trkpt>
      <trkpt lat="43.44898355193436145782470703125" lon="-3.8644139282405376434326171875">
        <ele>28.6000003814697265625</ele>
        <time>2018-09-05T12:09:55.000Z</time>
      </trkpt>
      <trkpt lat="43.44907156191766262054443359375" lon="-3.86449850164353847503662109375">
        <ele>28.6000003814697265625</ele>
        <time>2018-09-05T12:09:58.000Z</time>
      </trkpt>
      <trkpt lat="43.449267446994781494140625" lon="-3.8646992482244968414306640625">
        <ele>28.799999237060546875</ele>
        <time>2018-09-05T12:10:04.000Z</time>
      </trkpt>
      <trkpt lat="43.449509851634502410888671875" lon="-3.8648350350558757781982421875">
        <ele>29</ele>
        <time>2018-09-05T12:10:10.000Z</time>
      </trkpt>
      <trkpt lat="43.4495515935122966766357421875" lon="-3.86484794318675994873046875">
        <ele>29.200000762939453125</ele>
        <time>2018-09-05T12:10:11.000Z</time>
      </trkpt>
      <trkpt lat="43.44959191046655178070068359375" lon="-3.86486026458442211151123046875">
        <ele>29.3999996185302734375</ele>
        <time>2018-09-05T12:10:12.000Z</time>
      </trkpt>
      <trkpt lat="43.4498640708625316619873046875" lon="-3.86496906168758869171142578125">
        <ele>30.200000762939453125</ele>
        <time>2018-09-05T12:10:19.000Z</time>
      </trkpt>
      <trkpt lat="43.4499713592231273651123046875" lon="-3.8650242984294891357421875">
        <ele>30.799999237060546875</ele>
        <time>2018-09-05T12:10:22.000Z</time>
      </trkpt>
      <trkpt lat="43.45003782771527767181396484375" lon="-3.865065872669219970703125">
        <ele>30.799999237060546875</ele>
        <time>2018-09-05T12:10:24.000Z</time>
      </trkpt>
      <trkpt lat="43.45009650103747844696044921875" lon="-3.86510535143315792083740234375">
        <ele>31.3999996185302734375</ele>
        <time>2018-09-05T12:10:26.000Z</time>
      </trkpt>
      <trkpt lat="43.45013975165784358978271484375" lon="-3.86514709331095218658447265625">
        <ele>32.200000762939453125</ele>
        <time>2018-09-05T12:10:28.000Z</time>
      </trkpt>
      <trkpt lat="43.45016221515834331512451171875" lon="-3.86516620405018329620361328125">
        <ele>32.40000152587890625</ele>
        <time>2018-09-05T12:10:29.000Z</time>
      </trkpt>
      <trkpt lat="43.4502238221466541290283203125" lon="-3.86522001586854457855224609375">
        <ele>32.799999237060546875</ele>
        <time>2018-09-05T12:10:33.000Z</time>
      </trkpt>
      <trkpt lat="43.4502362273633480072021484375" lon="-3.8652568124234676361083984375">
        <ele>32.59999847412109375</ele>
        <time>2018-09-05T12:10:35.000Z</time>
      </trkpt>
      <trkpt lat="43.45021896064281463623046875" lon="-3.865318000316619873046875">
        <ele>32.40000152587890625</ele>
        <time>2018-09-05T12:10:37.000Z</time>
      </trkpt>
      <trkpt lat="43.450158946216106414794921875" lon="-3.86543492786586284637451171875">
        <ele>31.6000003814697265625</ele>
        <time>2018-09-05T12:10:40.000Z</time>
      </trkpt>
      <trkpt lat="43.4501195512712001800537109375" lon="-3.8655374385416507720947265625">
        <ele>31.799999237060546875</ele>
        <time>2018-09-05T12:10:42.000Z</time>
      </trkpt>
      <trkpt lat="43.450002036988735198974609375" lon="-3.8657909072935581207275390625">
        <ele>31.799999237060546875</ele>
        <time>2018-09-05T12:10:47.000Z</time>
      </trkpt>
      <trkpt lat="43.44998317770659923553466796875" lon="-3.865836672484874725341796875">
        <ele>31.6000003814697265625</ele>
        <time>2018-09-05T12:10:48.000Z</time>
      </trkpt>
      <trkpt lat="43.44991025514900684356689453125" lon="-3.866021744906902313232421875">
        <ele>31.200000762939453125</ele>
        <time>2018-09-05T12:10:52.000Z</time>
      </trkpt>
      <trkpt lat="43.44984554685652256011962890625" lon="-3.8661969266831874847412109375">
        <ele>31.200000762939453125</ele>
        <time>2018-09-05T12:10:56.000Z</time>
      </trkpt>
      <trkpt lat="43.44976030290126800537109375" lon="-3.8664453662931919097900390625">
        <ele>30.6000003814697265625</ele>
        <time>2018-09-05T12:11:01.000Z</time>
      </trkpt>
      <trkpt lat="43.4497356601059436798095703125" lon="-3.8665368966758251190185546875">
        <ele>31</ele>
        <time>2018-09-05T12:11:03.000Z</time>
      </trkpt>
      <trkpt lat="43.44961948692798614501953125" lon="-3.86686974205076694488525390625">
        <ele>30.200000762939453125</ele>
        <time>2018-09-05T12:11:10.000Z</time>
      </trkpt>
      <trkpt lat="43.44960280694067478179931640625" lon="-3.86691651307046413421630859375">
        <ele>29.3999996185302734375</ele>
        <time>2018-09-05T12:11:11.000Z</time>
      </trkpt>
      <trkpt lat="43.44951219856739044189453125" lon="-3.8671232946217060089111328125">
        <ele>30</ele>
        <time>2018-09-05T12:11:16.000Z</time>
      </trkpt>
      <trkpt lat="43.44943114556372165679931640625" lon="-3.8673928566277027130126953125">
        <ele>29.6000003814697265625</ele>
        <time>2018-09-05T12:11:22.000Z</time>
      </trkpt>
      <trkpt lat="43.449413292109966278076171875" lon="-3.86741959489881992340087890625">
        <ele>29.6000003814697265625</ele>
        <time>2018-09-05T12:11:23.000Z</time>
      </trkpt>
      <trkpt lat="43.4493789263069629669189453125" lon="-3.86744474060833454132080078125">
        <ele>29.6000003814697265625</ele>
        <time>2018-09-05T12:11:25.000Z</time>
      </trkpt>
      <trkpt lat="43.44934992492198944091796875" lon="-3.86745446361601352691650390625">
        <ele>29.3999996185302734375</ele>
        <time>2018-09-05T12:11:28.000Z</time>
      </trkpt>
      <trkpt lat="43.4493430517613887786865234375" lon="-3.8674619235098361968994140625">
        <ele>29.3999996185302734375</ele>
        <time>2018-09-05T12:11:29.000Z</time>
      </trkpt>
      <trkpt lat="43.449336178600788116455078125" lon="-3.86747877113521099090576171875">
        <ele>29</ele>
        <time>2018-09-05T12:11:31.000Z</time>
      </trkpt>
      <trkpt lat="43.449328131973743438720703125" lon="-3.86751196347177028656005859375">
        <ele>29</ele>
        <time>2018-09-05T12:11:34.000Z</time>
      </trkpt>
      <trkpt lat="43.44931614585220813751220703125" lon="-3.8675796054303646087646484375">
        <ele>28.799999237060546875</ele>
        <time>2018-09-05T12:11:38.000Z</time>
      </trkpt>
      <trkpt lat="43.4493063390254974365234375" lon="-3.8676273822784423828125">
        <ele>28.799999237060546875</ele>
        <time>2018-09-05T12:11:40.000Z</time>
      </trkpt>
      <trkpt lat="43.449271135032176971435546875" lon="-3.86779577471315860748291015625">
        <ele>28.3999996185302734375</ele>
        <time>2018-09-05T12:12:15.000Z</time>
      </trkpt>
      <trkpt lat="43.44926333986222743988037109375" lon="-3.86782226152718067169189453125">
        <ele>28.3999996185302734375</ele>
        <time>2018-09-05T12:12:16.000Z</time>
      </trkpt>
      <trkpt lat="43.44919594936072826385498046875" lon="-3.86799576692283153533935546875">
        <ele>28</ele>
        <time>2018-09-05T12:12:21.000Z</time>
      </trkpt>
      <trkpt lat="43.44917952083051204681396484375" lon="-3.86803650297224521636962890625">
        <ele>27.799999237060546875</ele>
        <time>2018-09-05T12:12:22.000Z</time>
      </trkpt>
      <trkpt lat="43.44907323829829692840576171875" lon="-3.86834084987640380859375">
        <ele>27.6000003814697265625</ele>
        <time>2018-09-05T12:12:29.000Z</time>
      </trkpt>
      <trkpt lat="43.44905245117843151092529296875" lon="-3.86838904581964015960693359375">
        <ele>27.6000003814697265625</ele>
        <time>2018-09-05T12:12:30.000Z</time>
      </trkpt>
      <trkpt lat="43.4490081109106540679931640625" lon="-3.86848610825836658477783203125">
        <ele>27.200000762939453125</ele>
        <time>2018-09-05T12:12:32.000Z</time>
      </trkpt>
      <trkpt lat="43.44896192662417888641357421875" lon="-3.86857847683131694793701171875">
        <ele>27</ele>
        <time>2018-09-05T12:12:34.000Z</time>
      </trkpt>
      <trkpt lat="43.44882865436375141143798828125" lon="-3.8688920438289642333984375">
        <ele>26.6000003814697265625</ele>
        <time>2018-09-05T12:12:41.000Z</time>
      </trkpt>
      <trkpt lat="43.4488320909440517425537109375" lon="-3.86893705464899539947509765625">
        <ele>26.3999996185302734375</ele>
        <time>2018-09-05T12:12:42.000Z</time>
      </trkpt>
      <trkpt lat="43.44887316226959228515625" lon="-3.86899623088538646697998046875">
        <ele>26.3999996185302734375</ele>
        <time>2018-09-05T12:12:44.000Z</time>
      </trkpt>
      <trkpt lat="43.4489843063056468963623046875" lon="-3.8690950535237789154052734375">
        <ele>26.799999237060546875</ele>
        <time>2018-09-05T12:12:48.000Z</time>
      </trkpt>
      <trkpt lat="43.44903434626758098602294921875" lon="-3.869291357696056365966796875">
        <ele>26.6000003814697265625</ele>
        <time>2018-09-05T12:12:52.000Z</time>
      </trkpt>
      <trkpt lat="43.44903887249529361724853515625" lon="-3.86933988891541957855224609375">
        <ele>26.799999237060546875</ele>
        <time>2018-09-05T12:12:53.000Z</time>
      </trkpt>
      <trkpt lat="43.4490077756345272064208984375" lon="-3.86958145536482334136962890625">
        <ele>27.799999237060546875</ele>
        <time>2018-09-05T12:12:58.000Z</time>
      </trkpt>
      <trkpt lat="43.44900031574070453643798828125" lon="-3.86962923221290111541748046875">
        <ele>28</ele>
        <time>2018-09-05T12:12:59.000Z</time>
      </trkpt>
      <trkpt lat="43.4489799477159976959228515625" lon="-3.86971690692007541656494140625">
        <ele>28.200000762939453125</ele>
        <time>2018-09-05T12:13:01.000Z</time>
      </trkpt>
      <trkpt lat="43.4489497728645801544189453125" lon="-3.86984498240053653717041015625">
        <ele>28.6000003814697265625</ele>
        <time>2018-09-05T12:13:04.000Z</time>
      </trkpt>
      <trkpt lat="43.4489120543003082275390625" lon="-3.869968615472316741943359375">
        <ele>29</ele>
        <time>2018-09-05T12:13:07.000Z</time>
      </trkpt>
      <trkpt lat="43.44888783060014247894287109375" lon="-3.8700482435524463653564453125">
        <ele>29.3999996185302734375</ele>
        <time>2018-09-05T12:13:09.000Z</time>
      </trkpt>
      <trkpt lat="43.44883318059146404266357421875" lon="-3.87028067372739315032958984375">
        <ele>30.200000762939453125</ele>
        <time>2018-09-05T12:13:15.000Z</time>
      </trkpt>
      <trkpt lat="43.4488284029066562652587890625" lon="-3.87032023631036281585693359375">
        <ele>30.3999996185302734375</ele>
        <time>2018-09-05T12:13:16.000Z</time>
      </trkpt>
      <trkpt lat="43.44882261939346790313720703125" lon="-3.87035854160785675048828125">
        <ele>30.6000003814697265625</ele>
        <time>2018-09-05T12:13:17.000Z</time>
      </trkpt>
      <trkpt lat="43.448790349066257476806640625" lon="-3.8705987669527530670166015625">
        <ele>31.6000003814697265625</ele>
        <time>2018-09-05T12:13:24.000Z</time>
      </trkpt>
      <trkpt lat="43.4488119743764400482177734375" lon="-3.87070915661752223968505859375">
        <ele>32.799999237060546875</ele>
        <time>2018-09-05T12:13:29.000Z</time>
      </trkpt>
      <trkpt lat="43.44880811870098114013671875" lon="-3.8707285188138484954833984375">
        <ele>33</ele>
        <time>2018-09-05T12:13:30.000Z</time>
      </trkpt>
      <trkpt lat="43.44880820252001285552978515625" lon="-3.8708223961293697357177734375">
        <ele>33.799999237060546875</ele>
        <time>2018-09-05T12:13:34.000Z</time>
      </trkpt>
      <trkpt lat="43.44882127828896045684814453125" lon="-3.870896995067596435546875">
        <ele>34.40000152587890625</ele>
        <time>2018-09-05T12:13:37.000Z</time>
      </trkpt>
      <trkpt lat="43.44882915727794170379638671875" lon="-3.8709447719156742095947265625">
        <ele>34.799999237060546875</ele>
        <time>2018-09-05T12:13:39.000Z</time>
      </trkpt>
      <trkpt lat="43.44884298741817474365234375" lon="-3.8710574246942996978759765625">
        <ele>36</ele>
        <time>2018-09-05T12:13:44.000Z</time>
      </trkpt>
      <trkpt lat="43.4488418139517307281494140625" lon="-3.87108198367059230804443359375">
        <ele>36.200000762939453125</ele>
        <time>2018-09-05T12:13:45.000Z</time>
      </trkpt>
      <trkpt lat="43.44882328994572162628173828125" lon="-3.87119983322918415069580078125">
        <ele>37</ele>
        <time>2018-09-05T12:13:50.000Z</time>
      </trkpt>
      <trkpt lat="43.44881557859480381011962890625" lon="-3.87124895118176937103271484375">
        <ele>37.40000152587890625</ele>
        <time>2018-09-05T12:13:52.000Z</time>
      </trkpt>
      <trkpt lat="43.44879143871366977691650390625" lon="-3.8714535534381866455078125">
        <ele>37.799999237060546875</ele>
        <time>2018-09-05T12:13:58.000Z</time>
      </trkpt>
      <trkpt lat="43.44876143150031566619873046875" lon="-3.871736191213130950927734375">
        <ele>38.40000152587890625</ele>
        <time>2018-09-05T12:14:05.000Z</time>
      </trkpt>
      <trkpt lat="43.44875103794038295745849609375" lon="-3.87181724421679973602294921875">
        <ele>38.40000152587890625</ele>
        <time>2018-09-05T12:14:07.000Z</time>
      </trkpt>
      <trkpt lat="43.44867995940148830413818359375" lon="-3.87217573821544647216796875">
        <ele>38.799999237060546875</ele>
        <time>2018-09-05T12:14:16.000Z</time>
      </trkpt>
      <trkpt lat="43.44866788946092128753662109375" lon="-3.8723237626254558563232421875">
        <ele>39.40000152587890625</ele>
        <time>2018-09-05T12:14:20.000Z</time>
      </trkpt>
      <trkpt lat="43.448673672974109649658203125" lon="-3.8724226690828800201416015625">
        <ele>39.799999237060546875</ele>
        <time>2018-09-05T12:14:23.000Z</time>
      </trkpt>
      <trkpt lat="43.44873008318245410919189453125" lon="-3.8725675083696842193603515625">
        <ele>40.799999237060546875</ele>
        <time>2018-09-05T12:14:28.000Z</time>
      </trkpt>
      <trkpt lat="43.44874332658946514129638671875" lon="-3.8725934922695159912109375">
        <ele>41</ele>
        <time>2018-09-05T12:14:29.000Z</time>
      </trkpt>
      <trkpt lat="43.4487955458462238311767578125" lon="-3.87277118861675262451171875">
        <ele>41.799999237060546875</ele>
        <time>2018-09-05T12:14:35.000Z</time>
      </trkpt>
      <trkpt lat="43.4487967193126678466796875" lon="-3.8728053867816925048828125">
        <ele>42</ele>
        <time>2018-09-05T12:14:36.000Z</time>
      </trkpt>
      <trkpt lat="43.44876922667026519775390625" lon="-3.87308894656598567962646484375">
        <ele>42</ele>
        <time>2018-09-05T12:14:43.000Z</time>
      </trkpt>
      <trkpt lat="43.4487502835690975189208984375" lon="-3.87349127791821956634521484375">
        <ele>41.799999237060546875</ele>
        <time>2018-09-05T12:14:51.000Z</time>
      </trkpt>
      <trkpt lat="43.448712565004825592041015625" lon="-3.8739458285272121429443359375">
        <ele>41.59999847412109375</ele>
        <time>2018-09-05T12:14:59.000Z</time>
      </trkpt>
      <trkpt lat="43.44866520725190639495849609375" lon="-3.87410961091518402099609375">
        <ele>41.59999847412109375</ele>
        <time>2018-09-05T12:15:02.000Z</time>
      </trkpt>
      <trkpt lat="43.448604606091976165771484375" lon="-3.87429024092853069305419921875">
        <ele>39.799999237060546875</ele>
        <time>2018-09-05T12:15:05.000Z</time>
      </trkpt>
      <trkpt lat="43.4485826455056667327880859375" lon="-3.874357379972934722900390625">
        <ele>39.40000152587890625</ele>
        <time>2018-09-05T12:15:06.000Z</time>
      </trkpt>
      <trkpt lat="43.44845482148230075836181640625" lon="-3.87482819147408008575439453125">
        <ele>38.40000152587890625</ele>
        <time>2018-09-05T12:15:12.000Z</time>
      </trkpt>
      <trkpt lat="43.448430597782135009765625" lon="-3.87491117231547832489013671875">
        <ele>37.200000762939453125</ele>
        <time>2018-09-05T12:15:13.000Z</time>
      </trkpt>
      <trkpt lat="43.4483912028372287750244140625" lon="-3.87505886144936084747314453125">
        <ele>36.200000762939453125</ele>
        <time>2018-09-05T12:15:15.000Z</time>
      </trkpt>
      <trkpt lat="43.448352478444576263427734375" lon="-3.8751712627708911895751953125">
        <ele>35.59999847412109375</ele>
        <time>2018-09-05T12:15:17.000Z</time>
      </trkpt>
      <trkpt lat="43.44832590781152248382568359375" lon="-3.875207640230655670166015625">
        <ele>35</ele>
        <time>2018-09-05T12:15:18.000Z</time>
      </trkpt>
      <trkpt lat="43.44824359752237796783447265625" lon="-3.87524343095719814300537109375">
        <ele>33.59999847412109375</ele>
        <time>2018-09-05T12:15:20.000Z</time>
      </trkpt>
      <trkpt lat="43.448069505393505096435546875" lon="-3.87526891194283962249755859375">
        <ele>32.200000762939453125</ele>
        <time>2018-09-05T12:15:23.000Z</time>
      </trkpt>
      <trkpt lat="43.44800236634910106658935546875" lon="-3.875285424292087554931640625">
        <ele>31.6000003814697265625</ele>
        <time>2018-09-05T12:15:24.000Z</time>
      </trkpt>
      <trkpt lat="43.4479332156479358673095703125" lon="-3.87530344538390636444091796875">
        <ele>30.3999996185302734375</ele>
        <time>2018-09-05T12:15:25.000Z</time>
      </trkpt>
      <trkpt lat="43.44779499806463718414306640625" lon="-3.87536664493381977081298828125">
        <ele>27.799999237060546875</ele>
        <time>2018-09-05T12:15:27.000Z</time>
      </trkpt>
      <trkpt lat="43.44766541384160518646240234375" lon="-3.87549924664199352264404296875">
        <ele>25.799999237060546875</ele>
        <time>2018-09-05T12:15:29.000Z</time>
      </trkpt>
      <trkpt lat="43.44755628146231174468994140625" lon="-3.87568180449306964874267578125">
        <ele>24</ele>
        <time>2018-09-05T12:15:31.000Z</time>
      </trkpt>
      <trkpt lat="43.447473049163818359375" lon="-3.87586914002895355224609375">
        <ele>22.3999996185302734375</ele>
        <time>2018-09-05T12:15:33.000Z</time>
      </trkpt>
      <trkpt lat="43.44740473665297031402587890625" lon="-3.8760651089251041412353515625">
        <ele>21.200000762939453125</ele>
        <time>2018-09-05T12:15:35.000Z</time>
      </trkpt>
      <trkpt lat="43.4473826922476291656494140625" lon="-3.87617013417184352874755859375">
        <ele>20.3999996185302734375</ele>
        <time>2018-09-05T12:15:36.000Z</time>
      </trkpt>
      <trkpt lat="43.447376824915409088134765625" lon="-3.87627574615180492401123046875">
        <ele>20</ele>
        <time>2018-09-05T12:15:37.000Z</time>
      </trkpt>
      <trkpt lat="43.447413705289363861083984375" lon="-3.87667573057115077972412109375">
        <ele>19</ele>
        <time>2018-09-05T12:15:41.000Z</time>
      </trkpt>
      <trkpt lat="43.4474487416446208953857421875" lon="-3.87675837613642215728759765625">
        <ele>18.799999237060546875</ele>
        <time>2018-09-05T12:15:42.000Z</time>
      </trkpt>
      <trkpt lat="43.447473384439945220947265625" lon="-3.87693104334175586700439453125">
        <ele>18.3999996185302734375</ele>
        <time>2018-09-05T12:15:44.000Z</time>
      </trkpt>
      <trkpt lat="43.447460643947124481201171875" lon="-3.87707537971436977386474609375">
        <ele>18.3999996185302734375</ele>
        <time>2018-09-05T12:15:46.000Z</time>
      </trkpt>
      <trkpt lat="43.44746005721390247344970703125" lon="-3.8771460391581058502197265625">
        <ele>18.6000003814697265625</ele>
        <time>2018-09-05T12:15:47.000Z</time>
      </trkpt>
      <trkpt lat="43.44746123068034648895263671875" lon="-3.87721560895442962646484375">
        <ele>18.799999237060546875</ele>
        <time>2018-09-05T12:15:48.000Z</time>
      </trkpt>
      <trkpt lat="43.44747832976281642913818359375" lon="-3.877430856227874755859375">
        <ele>19</ele>
        <time>2018-09-05T12:15:51.000Z</time>
      </trkpt>
      <trkpt lat="43.447537757456302642822265625" lon="-3.87764065526425838470458984375">
        <ele>19</ele>
        <time>2018-09-05T12:15:54.000Z</time>
      </trkpt>
      <trkpt lat="43.44769089482724666595458984375" lon="-3.878082297742366790771484375">
        <ele>18.200000762939453125</ele>
        <time>2018-09-05T12:16:00.000Z</time>
      </trkpt>
      <trkpt lat="43.4477099217474460601806640625" lon="-3.87816737405955791473388671875">
        <ele>17.799999237060546875</ele>
        <time>2018-09-05T12:16:01.000Z</time>
      </trkpt>
      <trkpt lat="43.447780497372150421142578125" lon="-3.87860591523349285125732421875">
        <ele>16.6000003814697265625</ele>
        <time>2018-09-05T12:16:06.000Z</time>
      </trkpt>
      <trkpt lat="43.44793313182890415191650390625" lon="-3.87917756102979183197021484375">
        <ele>16.200000762939453125</ele>
        <time>2018-09-05T12:16:13.000Z</time>
      </trkpt>
      <trkpt lat="43.4480361454188823699951171875" lon="-3.87964560650289058685302734375">
        <ele>15.80000019073486328125</ele>
        <time>2018-09-05T12:16:19.000Z</time>
      </trkpt>
      <trkpt lat="43.44805131666362285614013671875" lon="-3.879715092480182647705078125">
        <ele>15.6000003814697265625</ele>
        <time>2018-09-05T12:16:20.000Z</time>
      </trkpt>
      <trkpt lat="43.44807989895343780517578125" lon="-3.87997199781239032745361328125">
        <ele>15.3999996185302734375</ele>
        <time>2018-09-05T12:16:24.000Z</time>
      </trkpt>
      <trkpt lat="43.44807453453540802001953125" lon="-3.88009856455028057098388671875">
        <ele>15.3999996185302734375</ele>
        <time>2018-09-05T12:16:26.000Z</time>
      </trkpt>
      <trkpt lat="43.44806380569934844970703125" lon="-3.88028246350586414337158203125">
        <ele>15.3999996185302734375</ele>
        <time>2018-09-05T12:16:29.000Z</time>
      </trkpt>
      <trkpt lat="43.44798359088599681854248046875" lon="-3.8803589902818202972412109375">
        <ele>15</ele>
        <time>2018-09-05T12:16:32.000Z</time>
      </trkpt>
      <trkpt lat="43.44787429086863994598388671875" lon="-3.88030794449150562286376953125">
        <ele>14</ele>
        <time>2018-09-05T12:16:34.000Z</time>
      </trkpt>
      <trkpt lat="43.44780874438583850860595703125" lon="-3.88027391396462917327880859375">
        <ele>13.3999996185302734375</ele>
        <time>2018-09-05T12:16:35.000Z</time>
      </trkpt>
      <trkpt lat="43.447664491832256317138671875" lon="-3.88019478879868984222412109375">
        <ele>12.80000019073486328125</ele>
        <time>2018-09-05T12:16:37.000Z</time>
      </trkpt>
      <trkpt lat="43.44751655124127864837646484375" lon="-3.88012220151722431182861328125">
        <ele>11.19999980926513671875</ele>
        <time>2018-09-05T12:16:39.000Z</time>
      </trkpt>
      <trkpt lat="43.44735109247267246246337890625" lon="-3.88009496033191680908203125">
        <ele>10.3999996185302734375</ele>
        <time>2018-09-05T12:16:42.000Z</time>
      </trkpt>
      <trkpt lat="43.44726492650806903839111328125" lon="-3.88013360090553760528564453125">
        <ele>10</ele>
        <time>2018-09-05T12:16:46.000Z</time>
      </trkpt>
      <trkpt lat="43.4472515992820262908935546875" lon="-3.8801427371799945831298828125">
        <ele>10</ele>
        <time>2018-09-05T12:16:47.000Z</time>
      </trkpt>
      <trkpt lat="43.447231315076351165771484375" lon="-3.88016578741371631622314453125">
        <ele>10</ele>
        <time>2018-09-05T12:16:49.000Z</time>
      </trkpt>
      <trkpt lat="43.4471915848553180694580078125" lon="-3.8802289031445980072021484375">
        <ele>9.80000019073486328125</ele>
        <time>2018-09-05T12:16:53.000Z</time>
      </trkpt>
      <trkpt lat="43.4471369348466396331787109375" lon="-3.88035270385444164276123046875">
        <ele>9.6000003814697265625</ele>
        <time>2018-09-05T12:17:01.000Z</time>
      </trkpt>
      <trkpt lat="43.44712846912443637847900390625" lon="-3.88041372410953044891357421875">
        <ele>9.6000003814697265625</ele>
        <time>2018-09-05T12:17:04.000Z</time>
      </trkpt>
      <trkpt lat="43.44712436199188232421875" lon="-3.88050877489149570465087890625">
        <ele>10</ele>
        <time>2018-09-05T12:17:08.000Z</time>
      </trkpt>
      <trkpt lat="43.44712193123996257781982421875" lon="-3.88072687201201915740966796875">
        <ele>10</ele>
        <time>2018-09-05T12:17:16.000Z</time>
      </trkpt>
      <trkpt lat="43.44712612219154834747314453125" lon="-3.88105192221701145172119140625">
        <ele>9.80000019073486328125</ele>
        <time>2018-09-05T12:17:25.000Z</time>
      </trkpt>
      <trkpt lat="43.4471245296299457550048828125" lon="-3.8810880482196807861328125">
        <ele>9.80000019073486328125</ele>
        <time>2018-09-05T12:17:26.000Z</time>
      </trkpt>
      <trkpt lat="43.4471218474209308624267578125" lon="-3.88119257055222988128662109375">
        <ele>9.6000003814697265625</ele>
        <time>2018-09-05T12:17:29.000Z</time>
      </trkpt>
      <trkpt lat="43.44712461344897747039794921875" lon="-3.88137864880263805389404296875">
        <ele>9.80000019073486328125</ele>
        <time>2018-09-05T12:17:35.000Z</time>
      </trkpt>
      <trkpt lat="43.4471198357641696929931640625" lon="-3.88172582723200321197509765625">
        <ele>9.6000003814697265625</ele>
        <time>2018-09-05T12:17:45.000Z</time>
      </trkpt>
      <trkpt lat="43.44712109304964542388916015625" lon="-3.88185323216021060943603515625">
        <ele>10</ele>
        <time>2018-09-05T12:17:48.000Z</time>
      </trkpt>
      <trkpt lat="43.4471257030963897705078125" lon="-3.88199530541896820068359375">
        <ele>10</ele>
        <time>2018-09-05T12:17:51.000Z</time>
      </trkpt>
      <trkpt lat="43.4471292234957218170166015625" lon="-3.882092870771884918212890625">
        <ele>9.80000019073486328125</ele>
        <time>2018-09-05T12:17:53.000Z</time>
      </trkpt>
      <trkpt lat="43.4471463225781917572021484375" lon="-3.88241129927337169647216796875">
        <ele>10.19999980926513671875</ele>
        <time>2018-09-05T12:17:59.000Z</time>
      </trkpt>
      <trkpt lat="43.44719736836850643157958984375" lon="-3.882670216262340545654296875">
        <ele>11</ele>
        <time>2018-09-05T12:18:05.000Z</time>
      </trkpt>
      <trkpt lat="43.44723089598119258880615234375" lon="-3.8827015645802021026611328125">
        <ele>11</ele>
        <time>2018-09-05T12:18:06.000Z</time>
      </trkpt>
      <trkpt lat="43.4473736397922039031982421875" lon="-3.88277507387101650238037109375">
        <ele>9.6000003814697265625</ele>
        <time>2018-09-05T12:18:09.000Z</time>
      </trkpt>
      <trkpt lat="43.4474279545247554779052734375" lon="-3.88281279243528842926025390625">
        <ele>9.19999980926513671875</ele>
        <time>2018-09-05T12:18:10.000Z</time>
      </trkpt>
      <trkpt lat="43.4475266933441162109375" lon="-3.88291337527334690093994140625">
        <ele>8.80000019073486328125</ele>
        <time>2018-09-05T12:18:12.000Z</time>
      </trkpt>
      <trkpt lat="43.44755611382424831390380859375" lon="-3.88298210687935352325439453125">
        <ele>8.6000003814697265625</ele>
        <time>2018-09-05T12:18:13.000Z</time>
      </trkpt>
      <trkpt lat="43.44757639802992343902587890625" lon="-3.883196599781513214111328125">
        <ele>9</ele>
        <time>2018-09-05T12:18:16.000Z</time>
      </trkpt>
      <trkpt lat="43.4475731290876865386962890625" lon="-3.8832671754062175750732421875">
        <ele>8.80000019073486328125</ele>
        <time>2018-09-05T12:18:17.000Z</time>
      </trkpt>
      <trkpt lat="43.44757606275379657745361328125" lon="-3.88347798027098178863525390625">
        <ele>8.80000019073486328125</ele>
        <time>2018-09-05T12:18:20.000Z</time>
      </trkpt>
      <trkpt lat="43.44760975800454616546630859375" lon="-3.88362298719584941864013671875">
        <ele>8.6000003814697265625</ele>
        <time>2018-09-05T12:18:22.000Z</time>
      </trkpt>
      <trkpt lat="43.44773431308567523956298828125" lon="-3.88384292833507061004638671875">
        <ele>8</ele>
        <time>2018-09-05T12:18:26.000Z</time>
      </trkpt>
      <trkpt lat="43.447772450745105743408203125" lon="-3.88388701714575290679931640625">
        <ele>8.19999980926513671875</ele>
        <time>2018-09-05T12:18:27.000Z</time>
      </trkpt>
      <trkpt lat="43.44797990284860134124755859375" lon="-3.88414199464023113250732421875">
        <ele>8.6000003814697265625</ele>
        <time>2018-09-05T12:18:33.000Z</time>
      </trkpt>
      <trkpt lat="43.44810127280652523040771484375" lon="-3.88437978923320770263671875">
        <ele>9.6000003814697265625</ele>
        <time>2018-09-05T12:18:39.000Z</time>
      </trkpt>
      <trkpt lat="43.448142595589160919189453125" lon="-3.88453208841383457183837890625">
        <ele>10.80000019073486328125</ele>
        <time>2018-09-05T12:18:43.000Z</time>
      </trkpt>
      <trkpt lat="43.4481481276452541351318359375" lon="-3.88461942784488201141357421875">
        <ele>11.19999980926513671875</ele>
        <time>2018-09-05T12:18:45.000Z</time>
      </trkpt>
      <trkpt lat="43.44812759198248386383056640625" lon="-3.88477248139679431915283203125">
        <ele>11.3999996185302734375</ele>
        <time>2018-09-05T12:18:48.000Z</time>
      </trkpt>
      <trkpt lat="43.4481142647564411163330078125" lon="-3.88488295488059520721435546875">
        <ele>11.19999980926513671875</ele>
        <time>2018-09-05T12:18:50.000Z</time>
      </trkpt>
      <trkpt lat="43.44809507019817829132080078125" lon="-3.88504338450729846954345703125">
        <ele>11.6000003814697265625</ele>
        <time>2018-09-05T12:18:53.000Z</time>
      </trkpt>
      <trkpt lat="43.4480827488005161285400390625" lon="-3.88515268452465534210205078125">
        <ele>11.80000019073486328125</ele>
        <time>2018-09-05T12:18:55.000Z</time>
      </trkpt>
      <trkpt lat="43.4480700083076953887939453125" lon="-3.88532166369259357452392578125">
        <ele>11.80000019073486328125</ele>
        <time>2018-09-05T12:18:58.000Z</time>
      </trkpt>
      <trkpt lat="43.44803430140018463134765625" lon="-3.88559306971728801727294921875">
        <ele>11.80000019073486328125</ele>
        <time>2018-09-05T12:19:03.000Z</time>
      </trkpt>
      <trkpt lat="43.4480304457247257232666015625" lon="-3.88570589013397693634033203125">
        <ele>12.19999980926513671875</ele>
        <time>2018-09-05T12:19:05.000Z</time>
      </trkpt>
      <trkpt lat="43.44803136773407459259033203125" lon="-3.8857631385326385498046875">
        <ele>12.19999980926513671875</ele>
        <time>2018-09-05T12:19:06.000Z</time>
      </trkpt>
      <trkpt lat="43.4480284340679645538330078125" lon="-3.88581921346485614776611328125">
        <ele>12.3999996185302734375</ele>
        <time>2018-09-05T12:19:07.000Z</time>
      </trkpt>
      <trkpt lat="43.44799683429300785064697265625" lon="-3.8861024379730224609375">
        <ele>12.80000019073486328125</ele>
        <time>2018-09-05T12:19:12.000Z</time>
      </trkpt>
      <trkpt lat="43.44798828475177288055419921875" lon="-3.8861572556197643280029296875">
        <ele>12.80000019073486328125</ele>
        <time>2018-09-05T12:19:13.000Z</time>
      </trkpt>
      <trkpt lat="43.4479375742375850677490234375" lon="-3.88664533384144306182861328125">
        <ele>12.80000019073486328125</ele>
        <time>2018-09-05T12:19:22.000Z</time>
      </trkpt>
      <trkpt lat="43.44789138995110988616943359375" lon="-3.886962421238422393798828125">
        <ele>13.19999980926513671875</ele>
        <time>2018-09-05T12:19:28.000Z</time>
      </trkpt>
      <trkpt lat="43.44786792062222957611083984375" lon="-3.887124024331569671630859375">
        <ele>13.3999996185302734375</ele>
        <time>2018-09-05T12:19:31.000Z</time>
      </trkpt>
      <trkpt lat="43.447791226208209991455078125" lon="-3.88755594380199909210205078125">
        <ele>14</ele>
        <time>2018-09-05T12:19:39.000Z</time>
      </trkpt>
      <trkpt lat="43.447724841535091400146484375" lon="-3.88807813636958599090576171875">
        <ele>14.3999996185302734375</ele>
        <time>2018-09-05T12:19:49.000Z</time>
      </trkpt>
      <trkpt lat="43.4476720355451107025146484375" lon="-3.88848784379661083221435546875">
        <ele>15</ele>
        <time>2018-09-05T12:19:57.000Z</time>
      </trkpt>
      <trkpt lat="43.447653762996196746826171875" lon="-3.8885839842259883880615234375">
        <ele>14.80000019073486328125</ele>
        <time>2018-09-05T12:19:59.000Z</time>
      </trkpt>
      <trkpt lat="43.4476965107023715972900390625" lon="-3.88872228562831878662109375">
        <ele>15.19999980926513671875</ele>
        <time>2018-09-05T12:20:02.000Z</time>
      </trkpt>
      <trkpt lat="43.4477265179157257080078125" lon="-3.888748101890087127685546875">
        <ele>15.3999996185302734375</ele>
        <time>2018-09-05T12:20:03.000Z</time>
      </trkpt>
      <trkpt lat="43.44779583625495433807373046875" lon="-3.88876595534384250640869140625">
        <ele>15.6000003814697265625</ele>
        <time>2018-09-05T12:20:05.000Z</time>
      </trkpt>
      <trkpt lat="43.44786339439451694488525390625" lon="-3.888763524591922760009765625">
        <ele>16.200000762939453125</ele>
        <time>2018-09-05T12:20:07.000Z</time>
      </trkpt>
      <trkpt lat="43.4479892067611217498779296875" lon="-3.8887725770473480224609375">
        <ele>17</ele>
        <time>2018-09-05T12:20:11.000Z</time>
      </trkpt>
      <trkpt lat="43.44808568246662616729736328125" lon="-3.8888434879481792449951171875">
        <ele>17.3999996185302734375</ele>
        <time>2018-09-05T12:20:15.000Z</time>
      </trkpt>
      <trkpt lat="43.44809691421687602996826171875" lon="-3.888870142400264739990234375">
        <ele>17.6000003814697265625</ele>
        <time>2018-09-05T12:20:16.000Z</time>
      </trkpt>
      <trkpt lat="43.44806489534676074981689453125" lon="-3.88897935859858989715576171875">
        <ele>17.6000003814697265625</ele>
        <time>2018-09-05T12:20:19.000Z</time>
      </trkpt>
      <trkpt lat="43.4479757957160472869873046875" lon="-3.88919041492044925689697265625">
        <ele>18.3999996185302734375</ele>
        <time>2018-09-05T12:20:24.000Z</time>
      </trkpt>
      <trkpt lat="43.44791737385094165802001953125" lon="-3.88932502828538417816162109375">
        <ele>18.6000003814697265625</ele>
        <time>2018-09-05T12:20:27.000Z</time>
      </trkpt>
      <trkpt lat="43.44776700250804424285888671875" lon="-3.88963214121758937835693359375">
        <ele>18.799999237060546875</ele>
        <time>2018-09-05T12:20:34.000Z</time>
      </trkpt>
      <trkpt lat="43.44763188622891902923583984375" lon="-3.8899519108235836029052734375">
        <ele>19</ele>
        <time>2018-09-05T12:20:41.000Z</time>
      </trkpt>
      <trkpt lat="43.44749777577817440032958984375" lon="-3.890303112566471099853515625">
        <ele>19.200000762939453125</ele>
        <time>2018-09-05T12:20:48.000Z</time>
      </trkpt>
      <trkpt lat="43.44732946716248989105224609375" lon="-3.890713490545749664306640625">
        <ele>19.3999996185302734375</ele>
        <time>2018-09-05T12:20:56.000Z</time>
      </trkpt>
      <trkpt lat="43.4473106078803539276123046875" lon="-3.8907605968415737152099609375">
        <ele>19.3999996185302734375</ele>
        <time>2018-09-05T12:20:57.000Z</time>
      </trkpt>
      <trkpt lat="43.44714003615081310272216796875" lon="-3.89115027152001857757568359375">
        <ele>20.200000762939453125</ele>
        <time>2018-09-05T12:21:05.000Z</time>
      </trkpt>
      <trkpt lat="43.44711430370807647705078125" lon="-3.89119637198746204376220703125">
        <ele>20.200000762939453125</ele>
        <time>2018-09-05T12:21:06.000Z</time>
      </trkpt>
      <trkpt lat="43.4469867311418056488037109375" lon="-3.89135411940515041351318359375">
        <ele>20.3999996185302734375</ele>
        <time>2018-09-05T12:21:10.000Z</time>
      </trkpt>
      <trkpt lat="43.4469562210142612457275390625" lon="-3.8913932628929615020751953125">
        <ele>20.6000003814697265625</ele>
        <time>2018-09-05T12:21:11.000Z</time>
      </trkpt>
      <trkpt lat="43.4468938596546649932861328125" lon="-3.89147020876407623291015625">
        <ele>19.200000762939453125</ele>
        <time>2018-09-05T12:21:13.000Z</time>
      </trkpt>
      <trkpt lat="43.44682998955249786376953125" lon="-3.89153667725622653961181640625">
        <ele>20.3999996185302734375</ele>
        <time>2018-09-05T12:21:15.000Z</time>
      </trkpt>
      <trkpt lat="43.44680274836719036102294921875" lon="-3.891569785773754119873046875">
        <ele>21.3999996185302734375</ele>
        <time>2018-09-05T12:21:16.000Z</time>
      </trkpt>
      <trkpt lat="43.446779362857341766357421875" lon="-3.8915991224348545074462890625">
        <ele>21.3999996185302734375</ele>
        <time>2018-09-05T12:21:17.000Z</time>
      </trkpt>
      <trkpt lat="43.446684144437313079833984375" lon="-3.891689814627170562744140625">
        <ele>20.799999237060546875</ele>
        <time>2018-09-05T12:21:21.000Z</time>
      </trkpt>
      <trkpt lat="43.4466826356947422027587890625" lon="-3.891828618943691253662109375">
        <ele>21.200000762939453125</ele>
        <time>2018-09-05T12:21:25.000Z</time>
      </trkpt>
      <trkpt lat="43.44668070785701274871826171875" lon="-3.89186424203217029571533203125">
        <ele>21.3999996185302734375</ele>
        <time>2018-09-05T12:21:26.000Z</time>
      </trkpt>
      <trkpt lat="43.44662974588572978973388671875" lon="-3.8920145295560359954833984375">
        <ele>22.799999237060546875</ele>
        <time>2018-09-05T12:21:31.000Z</time>
      </trkpt>
      <trkpt lat="43.44662153162062168121337890625" lon="-3.89204529114067554473876953125">
        <ele>22.3999996185302734375</ele>
        <time>2018-09-05T12:21:32.000Z</time>
      </trkpt>
      <trkpt lat="43.4465991519391536712646484375" lon="-3.89213003218173980712890625">
        <ele>24.799999237060546875</ele>
        <time>2018-09-05T12:21:35.000Z</time>
      </trkpt>
      <trkpt lat="43.44658263958990573883056640625" lon="-3.89218040741980075836181640625">
        <ele>23.3999996185302734375</ele>
        <time>2018-09-05T12:21:37.000Z</time>
      </trkpt>
      <trkpt lat="43.446569144725799560546875" lon="-3.8922324590384960174560546875">
        <ele>23.6000003814697265625</ele>
        <time>2018-09-05T12:21:39.000Z</time>
      </trkpt>
      <trkpt lat="43.44653905369341373443603515625" lon="-3.8923290185630321502685546875">
        <ele>24.3999996185302734375</ele>
        <time>2018-09-05T12:21:43.000Z</time>
      </trkpt>
      <trkpt lat="43.4465220384299755096435546875" lon="-3.892386518418788909912109375">
        <ele>25.200000762939453125</ele>
        <time>2018-09-05T12:21:45.000Z</time>
      </trkpt>
      <trkpt lat="43.44644752331078052520751953125" lon="-3.8926418311893939971923828125">
        <ele>25.3999996185302734375</ele>
        <time>2018-09-05T12:21:52.000Z</time>
      </trkpt>
      <trkpt lat="43.446440063416957855224609375" lon="-3.892682231962680816650390625">
        <ele>25.6000003814697265625</ele>
        <time>2018-09-05T12:21:53.000Z</time>
      </trkpt>
      <trkpt lat="43.44644886441528797149658203125" lon="-3.89281726442277431488037109375">
        <ele>25.799999237060546875</ele>
        <time>2018-09-05T12:21:57.000Z</time>
      </trkpt>
      <trkpt lat="43.446562774479389190673828125" lon="-3.8929066993296146392822265625">
        <ele>25.799999237060546875</ele>
        <time>2018-09-05T12:22:01.000Z</time>
      </trkpt>
      <trkpt lat="43.44668825156986713409423828125" lon="-3.893061093986034393310546875">
        <ele>25.200000762939453125</ele>
        <time>2018-09-05T12:22:06.000Z</time>
      </trkpt>
      <trkpt lat="43.44672538340091705322265625" lon="-3.89308799989521503448486328125">
        <ele>25.200000762939453125</ele>
        <time>2018-09-05T12:22:07.000Z</time>
      </trkpt>
      <trkpt lat="43.44677140004932880401611328125" lon="-3.893174417316913604736328125">
        <ele>24.6000003814697265625</ele>
        <time>2018-09-05T12:22:09.000Z</time>
      </trkpt>
      <trkpt lat="43.446772657334804534912109375" lon="-3.89322797767817974090576171875">
        <ele>24.3999996185302734375</ele>
        <time>2018-09-05T12:22:10.000Z</time>
      </trkpt>
      <trkpt lat="43.44671675004065036773681640625" lon="-3.8933737389743328094482421875">
        <ele>24</ele>
        <time>2018-09-05T12:22:13.000Z</time>
      </trkpt>
      <trkpt lat="43.4466598369181156158447265625" lon="-3.89365059323608875274658203125">
        <ele>24.3999996185302734375</ele>
        <time>2018-09-05T12:22:19.000Z</time>
      </trkpt>
      <trkpt lat="43.446568809449672698974609375" lon="-3.89389936812222003936767578125">
        <ele>24.799999237060546875</ele>
        <time>2018-09-05T12:22:24.000Z</time>
      </trkpt>
      <trkpt lat="43.446381725370883941650390625" lon="-3.8943440280854701995849609375">
        <ele>24.799999237060546875</ele>
        <time>2018-09-05T12:22:33.000Z</time>
      </trkpt>
      <trkpt lat="43.446249626576900482177734375" lon="-3.89466941356658935546875">
        <ele>25</ele>
        <time>2018-09-05T12:22:40.000Z</time>
      </trkpt>
      <trkpt lat="43.446234874427318572998046875" lon="-3.89471836388111114501953125">
        <ele>25.200000762939453125</ele>
        <time>2018-09-05T12:22:41.000Z</time>
      </trkpt>
      <trkpt lat="43.446129597723484039306640625" lon="-3.89503260143101215362548828125">
        <ele>24.6000003814697265625</ele>
        <time>2018-09-05T12:22:47.000Z</time>
      </trkpt>
      <trkpt lat="43.445962965488433837890625" lon="-3.89546913094818592071533203125">
        <ele>25.3999996185302734375</ele>
        <time>2018-09-05T12:22:55.000Z</time>
      </trkpt>
      <trkpt lat="43.4459242410957813262939453125" lon="-3.8955754972994327545166015625">
        <ele>25.3999996185302734375</ele>
        <time>2018-09-05T12:22:57.000Z</time>
      </trkpt>
      <trkpt lat="43.4457324631512165069580078125" lon="-3.89602786861360073089599609375">
        <ele>26.200000762939453125</ele>
        <time>2018-09-05T12:23:06.000Z</time>
      </trkpt>
      <trkpt lat="43.445677645504474639892578125" lon="-3.89610665850341320037841796875">
        <ele>26.6000003814697265625</ele>
        <time>2018-09-05T12:23:08.000Z</time>
      </trkpt>
      <trkpt lat="43.4455789066851139068603515625" lon="-3.89618293382227420806884765625">
        <ele>26.799999237060546875</ele>
        <time>2018-09-05T12:23:11.000Z</time>
      </trkpt>
      <trkpt lat="43.44547706656157970428466796875" lon="-3.8962205685675144195556640625">
        <ele>27.799999237060546875</ele>
        <time>2018-09-05T12:23:14.000Z</time>
      </trkpt>
      <trkpt lat="43.445410430431365966796875" lon="-3.89624613337218761444091796875">
        <ele>28.200000762939453125</ele>
        <time>2018-09-05T12:23:16.000Z</time>
      </trkpt>
      <trkpt lat="43.4452929161489009857177734375" lon="-3.89634034596383571624755859375">
        <ele>29</ele>
        <time>2018-09-05T12:23:20.000Z</time>
      </trkpt>
      <trkpt lat="43.44524555839598178863525390625" lon="-3.8964069820940494537353515625">
        <ele>29.3999996185302734375</ele>
        <time>2018-09-05T12:23:22.000Z</time>
      </trkpt>
      <trkpt lat="43.445157967507839202880859375" lon="-3.8966296054422855377197265625">
        <ele>29.799999237060546875</ele>
        <time>2018-09-05T12:23:27.000Z</time>
      </trkpt>
      <trkpt lat="43.4451470710337162017822265625" lon="-3.89667763374745845794677734375">
        <ele>30.3999996185302734375</ele>
        <time>2018-09-05T12:23:28.000Z</time>
      </trkpt>
      <trkpt lat="43.4450927563011646270751953125" lon="-3.8968552462756633758544921875">
        <ele>31</ele>
        <time>2018-09-05T12:23:32.000Z</time>
      </trkpt>
      <trkpt lat="43.44501371495425701141357421875" lon="-3.8970191963016986846923828125">
        <ele>30.799999237060546875</ele>
        <time>2018-09-05T12:23:36.000Z</time>
      </trkpt>
      <trkpt lat="43.44485110603272914886474609375" lon="-3.89739495702087879180908203125">
        <ele>31.200000762939453125</ele>
        <time>2018-09-05T12:23:44.000Z</time>
      </trkpt>
      <trkpt lat="43.444805927574634552001953125" lon="-3.89756175689399242401123046875">
        <ele>31.200000762939453125</ele>
        <time>2018-09-05T12:23:47.000Z</time>
      </trkpt>
      <trkpt lat="43.44477298669517040252685546875" lon="-3.89772889204323291778564453125">
        <ele>31.3999996185302734375</ele>
        <time>2018-09-05T12:23:50.000Z</time>
      </trkpt>
      <trkpt lat="43.44475924037396907806396484375" lon="-3.89778010547161102294921875">
        <ele>31.6000003814697265625</ele>
        <time>2018-09-05T12:23:51.000Z</time>
      </trkpt>
      <trkpt lat="43.4446408040821552276611328125" lon="-3.89820917509496212005615234375">
        <ele>31.200000762939453125</ele>
        <time>2018-09-05T12:23:59.000Z</time>
      </trkpt>
      <trkpt lat="43.44450811855494976043701171875" lon="-3.8984982669353485107421875">
        <ele>32</ele>
        <time>2018-09-05T12:24:05.000Z</time>
      </trkpt>
      <trkpt lat="43.44433008693158626556396484375" lon="-3.898900263011455535888671875">
        <ele>32.200000762939453125</ele>
        <time>2018-09-05T12:24:13.000Z</time>
      </trkpt>
      <trkpt lat="43.4442423284053802490234375" lon="-3.899206705391407012939453125">
        <ele>32.59999847412109375</ele>
        <time>2018-09-05T12:24:19.000Z</time>
      </trkpt>
      <trkpt lat="43.44422447495162487030029296875" lon="-3.89931458048522472381591796875">
        <ele>33.40000152587890625</ele>
        <time>2018-09-05T12:24:21.000Z</time>
      </trkpt>
      <trkpt lat="43.44420142471790313720703125" lon="-3.8994814641773700714111328125">
        <ele>33.200000762939453125</ele>
        <time>2018-09-05T12:24:24.000Z</time>
      </trkpt>
      <trkpt lat="43.44415389932692050933837890625" lon="-3.89965069480240345001220703125">
        <ele>33.59999847412109375</ele>
        <time>2018-09-05T12:24:27.000Z</time>
      </trkpt>
      <trkpt lat="43.44412456266582012176513671875" lon="-3.89969847165048122406005859375">
        <ele>33.59999847412109375</ele>
        <time>2018-09-05T12:24:28.000Z</time>
      </trkpt>
      <trkpt lat="43.44405381940305233001708984375" lon="-3.89978245832026004791259765625">
        <ele>33.799999237060546875</ele>
        <time>2018-09-05T12:24:30.000Z</time>
      </trkpt>
      <trkpt lat="43.44396228902041912078857421875" lon="-3.8998378627002239227294921875">
        <ele>33.59999847412109375</ele>
        <time>2018-09-05T12:24:32.000Z</time>
      </trkpt>
      <trkpt lat="43.44369088299572467803955078125" lon="-3.900081105530261993408203125">
        <ele>34.200000762939453125</ele>
        <time>2018-09-05T12:24:39.000Z</time>
      </trkpt>
      <trkpt lat="43.4435317106544971466064453125" lon="-3.900343291461467742919921875">
        <ele>34.200000762939453125</ele>
        <time>2018-09-05T12:24:44.000Z</time>
      </trkpt>
      <trkpt lat="43.44350698404014110565185546875" lon="-3.900399617850780487060546875">
        <ele>34.200000762939453125</ele>
        <time>2018-09-05T12:24:45.000Z</time>
      </trkpt>
      <trkpt lat="43.44340321607887744903564453125" lon="-3.90069776214659214019775390625">
        <ele>33.799999237060546875</ele>
        <time>2018-09-05T12:24:50.000Z</time>
      </trkpt>
      <trkpt lat="43.44324060715734958648681640625" lon="-3.9011531509459018707275390625">
        <ele>34.59999847412109375</ele>
        <time>2018-09-05T12:24:58.000Z</time>
      </trkpt>
      <trkpt lat="43.4430569596588611602783203125" lon="-3.9016537182033061981201171875">
        <ele>33.59999847412109375</ele>
        <time>2018-09-05T12:25:07.000Z</time>
      </trkpt>
      <trkpt lat="43.44289359636604785919189453125" lon="-3.90202646143734455108642578125">
        <ele>32.59999847412109375</ele>
        <time>2018-09-05T12:25:13.000Z</time>
      </trkpt>
      <trkpt lat="43.44286493025720119476318359375" lon="-3.90209041535854339599609375">
        <ele>32.40000152587890625</ele>
        <time>2018-09-05T12:25:14.000Z</time>
      </trkpt>
      <trkpt lat="43.4427900798618793487548828125" lon="-3.9022947661578655242919921875">
        <ele>32.200000762939453125</ele>
        <time>2018-09-05T12:25:17.000Z</time>
      </trkpt>
      <trkpt lat="43.44277448952198028564453125" lon="-3.90237095765769481658935546875">
        <ele>32</ele>
        <time>2018-09-05T12:25:18.000Z</time>
      </trkpt>
      <trkpt lat="43.442752696573734283447265625" lon="-3.90252870507538318634033203125">
        <ele>31.6000003814697265625</ele>
        <time>2018-09-05T12:25:20.000Z</time>
      </trkpt>
      <trkpt lat="43.44274708069860935211181640625" lon="-3.9026075787842273712158203125">
        <ele>31.200000762939453125</ele>
        <time>2018-09-05T12:25:21.000Z</time>
      </trkpt>
      <trkpt lat="43.44274272210896015167236328125" lon="-3.9026870392262935638427734375">
        <ele>31.200000762939453125</ele>
        <time>2018-09-05T12:25:22.000Z</time>
      </trkpt>
      <trkpt lat="43.44274674542248249053955078125" lon="-3.9027631469070911407470703125">
        <ele>31</ele>
        <time>2018-09-05T12:25:23.000Z</time>
      </trkpt>
      <trkpt lat="43.44275613315403461456298828125" lon="-3.90298401005566120147705078125">
        <ele>30.3999996185302734375</ele>
        <time>2018-09-05T12:25:26.000Z</time>
      </trkpt>
      <trkpt lat="43.4427702985703945159912109375" lon="-3.90328106470406055450439453125">
        <ele>30</ele>
        <time>2018-09-05T12:25:30.000Z</time>
      </trkpt>
      <trkpt lat="43.4427793510258197784423828125" lon="-3.90335566364228725433349609375">
        <ele>28.6000003814697265625</ele>
        <time>2018-09-05T12:25:31.000Z</time>
      </trkpt>
      <trkpt lat="43.4427877329289913177490234375" lon="-3.9035051129758358001708984375">
        <ele>29.200000762939453125</ele>
        <time>2018-09-05T12:25:33.000Z</time>
      </trkpt>
      <trkpt lat="43.4427927620708942413330078125" lon="-3.90358046628534793853759765625">
        <ele>30</ele>
        <time>2018-09-05T12:25:34.000Z</time>
      </trkpt>
      <trkpt lat="43.4428219310939311981201171875" lon="-3.90407483093440532684326171875">
        <ele>28.3999996185302734375</ele>
        <time>2018-09-05T12:25:41.000Z</time>
      </trkpt>
      <trkpt lat="43.4428269602358341217041015625" lon="-3.90420424751937389373779296875">
        <ele>28.3999996185302734375</ele>
        <time>2018-09-05T12:25:43.000Z</time>
      </trkpt>
      <trkpt lat="43.44285973347723484039306640625" lon="-3.904604651033878326416015625">
        <ele>28.6000003814697265625</ele>
        <time>2018-09-05T12:25:50.000Z</time>
      </trkpt>
      <trkpt lat="43.44288152642548084259033203125" lon="-3.90483372844755649566650390625">
        <ele>28.3999996185302734375</ele>
        <time>2018-09-05T12:25:55.000Z</time>
      </trkpt>
      <trkpt lat="43.44289141707122325897216796875" lon="-3.90489106066524982452392578125">
        <ele>28.200000762939453125</ele>
        <time>2018-09-05T12:25:56.000Z</time>
      </trkpt>
      <trkpt lat="43.44292175956070423126220703125" lon="-3.90517738647758960723876953125">
        <ele>28.200000762939453125</ele>
        <time>2018-09-05T12:26:01.000Z</time>
      </trkpt>
      <trkpt lat="43.4429429657757282257080078125" lon="-3.905380479991436004638671875">
        <ele>28</ele>
        <time>2018-09-05T12:26:04.000Z</time>
      </trkpt>
      <trkpt lat="43.4429557062685489654541015625" lon="-3.90545046888291835784912109375">
        <ele>27.799999237060546875</ele>
        <time>2018-09-05T12:26:05.000Z</time>
      </trkpt>
      <trkpt lat="43.44297959469258785247802734375" lon="-3.90558667480945587158203125">
        <ele>27.799999237060546875</ele>
        <time>2018-09-05T12:26:07.000Z</time>
      </trkpt>
      <trkpt lat="43.4430458955466747283935546875" lon="-3.9061075262725353240966796875">
        <ele>27</ele>
        <time>2018-09-05T12:26:14.000Z</time>
      </trkpt>
      <trkpt lat="43.44310565851628780364990234375" lon="-3.90649460256099700927734375">
        <ele>26.6000003814697265625</ele>
        <time>2018-09-05T12:26:19.000Z</time>
      </trkpt>
      <trkpt lat="43.4430522657930850982666015625" lon="-3.9067733846604824066162109375">
        <ele>26.3999996185302734375</ele>
        <time>2018-09-05T12:26:23.000Z</time>
      </trkpt>
      <trkpt lat="43.44301630742847919464111328125" lon="-3.9068950898945331573486328125">
        <ele>26.6000003814697265625</ele>
        <time>2018-09-05T12:26:25.000Z</time>
      </trkpt>
      <trkpt lat="43.44298177398741245269775390625" lon="-3.907047808170318603515625">
        <ele>28</ele>
        <time>2018-09-05T12:26:28.000Z</time>
      </trkpt>
      <trkpt lat="43.44296987168490886688232421875" lon="-3.907091058790683746337890625">
        <ele>28.200000762939453125</ele>
        <time>2018-09-05T12:26:29.000Z</time>
      </trkpt>
      <trkpt lat="43.4429513476788997650146484375" lon="-3.9073161967098712921142578125">
        <ele>29.200000762939453125</ele>
        <time>2018-09-05T12:26:34.000Z</time>
      </trkpt>
      <trkpt lat="43.44295143149793148040771484375" lon="-3.90735693275928497314453125">
        <ele>29.200000762939453125</ele>
        <time>2018-09-05T12:26:35.000Z</time>
      </trkpt>
      <trkpt lat="43.44301111064851284027099609375" lon="-3.90769698657095432281494140625">
        <ele>29.6000003814697265625</ele>
        <time>2018-09-05T12:26:43.000Z</time>
      </trkpt>
      <trkpt lat="43.4430613182485103607177734375" lon="-3.90780276618897914886474609375">
        <ele>30.200000762939453125</ele>
        <time>2018-09-05T12:26:46.000Z</time>
      </trkpt>
      <trkpt lat="43.44310565851628780364990234375" lon="-3.9079160057008266448974609375">
        <ele>30.6000003814697265625</ele>
        <time>2018-09-05T12:26:49.000Z</time>
      </trkpt>
      <trkpt lat="43.4431169740855693817138671875" lon="-3.90795506536960601806640625">
        <ele>30.6000003814697265625</ele>
        <time>2018-09-05T12:26:50.000Z</time>
      </trkpt>
      <trkpt lat="43.44316131435334682464599609375" lon="-3.9081195183098316192626953125">
        <ele>31.200000762939453125</ele>
        <time>2018-09-05T12:26:54.000Z</time>
      </trkpt>
      <trkpt lat="43.44319785945117473602294921875" lon="-3.90825639478862285614013671875">
        <ele>31.200000762939453125</ele>
        <time>2018-09-05T12:26:57.000Z</time>
      </trkpt>
      <trkpt lat="43.44329978339374065399169921875" lon="-3.9086217619478702545166015625">
        <ele>30.799999237060546875</ele>
        <time>2018-09-05T12:27:03.000Z</time>
      </trkpt>
      <trkpt lat="43.4434698522090911865234375" lon="-3.90922768972814083099365234375">
        <ele>30.3999996185302734375</ele>
        <time>2018-09-05T12:27:12.000Z</time>
      </trkpt>
      <trkpt lat="43.44357588328421115875244140625" lon="-3.9095699228346347808837890625">
        <ele>30.6000003814697265625</ele>
        <time>2018-09-05T12:27:18.000Z</time>
      </trkpt>
      <trkpt lat="43.44364729709923267364501953125" lon="-3.90998356975615024566650390625">
        <ele>30.3999996185302734375</ele>
        <time>2018-09-05T12:27:25.000Z</time>
      </trkpt>
      <trkpt lat="43.44368719495832920074462890625" lon="-3.91046787612140178680419921875">
        <ele>30.6000003814697265625</ele>
        <time>2018-09-05T12:27:33.000Z</time>
      </trkpt>
      <trkpt lat="43.4437798149883747100830078125" lon="-3.9106545411050319671630859375">
        <ele>30.799999237060546875</ele>
        <time>2018-09-05T12:27:37.000Z</time>
      </trkpt>
      <trkpt lat="43.44384041614830493927001953125" lon="-3.9107155613601207733154296875">
        <ele>31.6000003814697265625</ele>
        <time>2018-09-05T12:27:39.000Z</time>
      </trkpt>
      <trkpt lat="43.443956337869167327880859375" lon="-3.91084271483123302459716796875">
        <ele>32.200000762939453125</ele>
        <time>2018-09-05T12:27:43.000Z</time>
      </trkpt>
      <trkpt lat="43.44412540085613727569580078125" lon="-3.911149241030216217041015625">
        <ele>32.40000152587890625</ele>
        <time>2018-09-05T12:27:50.000Z</time>
      </trkpt>
      <trkpt lat="43.44417233951389789581298828125" lon="-3.91145803034305572509765625">
        <ele>32.40000152587890625</ele>
        <time>2018-09-05T12:27:56.000Z</time>
      </trkpt>
      <trkpt lat="43.44418801367282867431640625" lon="-3.91168928705155849456787109375">
        <ele>32.40000152587890625</ele>
        <time>2018-09-05T12:28:00.000Z</time>
      </trkpt>
      <trkpt lat="43.44418189488351345062255859375" lon="-3.91174762509763240814208984375">
        <ele>32.40000152587890625</ele>
        <time>2018-09-05T12:28:01.000Z</time>
      </trkpt>
      <trkpt lat="43.44414241611957550048828125" lon="-3.91191828064620494842529296875">
        <ele>32.799999237060546875</ele>
        <time>2018-09-05T12:28:04.000Z</time>
      </trkpt>
      <trkpt lat="43.4441026858985424041748046875" lon="-3.9120224677026271820068359375">
        <ele>33</ele>
        <time>2018-09-05T12:28:06.000Z</time>
      </trkpt>
      <trkpt lat="43.44407879747450351715087890625" lon="-3.9120714180171489715576171875">
        <ele>32.799999237060546875</ele>
        <time>2018-09-05T12:28:07.000Z</time>
      </trkpt>
      <trkpt lat="43.4440151788294315338134765625" lon="-3.91222354955971240997314453125">
        <ele>33.200000762939453125</ele>
        <time>2018-09-05T12:28:10.000Z</time>
      </trkpt>
      <trkpt lat="43.44395776279270648956298828125" lon="-3.91237861476838588714599609375">
        <ele>33.40000152587890625</ele>
        <time>2018-09-05T12:28:13.000Z</time>
      </trkpt>
      <trkpt lat="43.4437613748013973236083984375" lon="-3.91284062527120113372802734375">
        <ele>33.59999847412109375</ele>
        <time>2018-09-05T12:28:22.000Z</time>
      </trkpt>
      <trkpt lat="43.443547971546649932861328125" lon="-3.9131402783095836639404296875">
        <ele>33.59999847412109375</ele>
        <time>2018-09-05T12:28:29.000Z</time>
      </trkpt>
      <trkpt lat="43.44343875534832477569580078125" lon="-3.91323675401508808135986328125">
        <ele>33.799999237060546875</ele>
        <time>2018-09-05T12:28:32.000Z</time>
      </trkpt>
      <trkpt lat="43.4433181397616863250732421875" lon="-3.913315124809741973876953125">
        <ele>33</ele>
        <time>2018-09-05T12:28:35.000Z</time>
      </trkpt>
      <trkpt lat="43.44296501018106937408447265625" lon="-3.91353263519704341888427734375">
        <ele>33.40000152587890625</ele>
        <time>2018-09-05T12:28:44.000Z</time>
      </trkpt>
      <trkpt lat="43.44281195662915706634521484375" lon="-3.91362885944545269012451171875">
        <ele>34.40000152587890625</ele>
        <time>2018-09-05T12:28:48.000Z</time>
      </trkpt>
      <trkpt lat="43.44267365522682666778564453125" lon="-3.91372189857065677642822265625">
        <ele>35</ele>
        <time>2018-09-05T12:28:52.000Z</time>
      </trkpt>
      <trkpt lat="43.44253049232065677642822265625" lon="-3.91380387358367443084716796875">
        <ele>35.40000152587890625</ele>
        <time>2018-09-05T12:28:56.000Z</time>
      </trkpt>
      <trkpt lat="43.442432843148708343505859375" lon="-3.91387327574193477630615234375">
        <ele>36</ele>
        <time>2018-09-05T12:28:59.000Z</time>
      </trkpt>
      <trkpt lat="43.44235447235405445098876953125" lon="-3.9139549992978572845458984375">
        <ele>36.59999847412109375</ele>
        <time>2018-09-05T12:29:02.000Z</time>
      </trkpt>
      <trkpt lat="43.4422932006418704986572265625" lon="-3.91403135843575000762939453125">
        <ele>37.40000152587890625</ele>
        <time>2018-09-05T12:29:05.000Z</time>
      </trkpt>
      <trkpt lat="43.44227559864521026611328125" lon="-3.91406220383942127227783203125">
        <ele>37.59999847412109375</ele>
        <time>2018-09-05T12:29:06.000Z</time>
      </trkpt>
      <trkpt lat="43.44218264333903789520263671875" lon="-3.914238475263118743896484375">
        <ele>38.59999847412109375</ele>
        <time>2018-09-05T12:29:12.000Z</time>
      </trkpt>
      <trkpt lat="43.44210905022919178009033203125" lon="-3.9144022576510906219482421875">
        <ele>39.59999847412109375</ele>
        <time>2018-09-05T12:29:18.000Z</time>
      </trkpt>
      <trkpt lat="43.44206714071333408355712890625" lon="-3.914482891559600830078125">
        <ele>40</ele>
        <time>2018-09-05T12:29:21.000Z</time>
      </trkpt>
      <trkpt lat="43.44203428365290164947509765625" lon="-3.91456805169582366943359375">
        <ele>40.799999237060546875</ele>
        <time>2018-09-05T12:29:24.000Z</time>
      </trkpt>
      <trkpt lat="43.441996984183788299560546875" lon="-3.91470811329782009124755859375">
        <ele>41.59999847412109375</ele>
        <time>2018-09-05T12:29:29.000Z</time>
      </trkpt>
      <trkpt lat="43.4419880993664264678955078125" lon="-3.91473409719765186309814453125">
        <ele>41.799999237060546875</ele>
        <time>2018-09-05T12:29:30.000Z</time>
      </trkpt>
      <trkpt lat="43.44195700250566005706787109375" lon="-3.9148491807281970977783203125">
        <ele>42.799999237060546875</ele>
        <time>2018-09-05T12:29:34.000Z</time>
      </trkpt>
      <trkpt lat="43.44193973578512668609619140625" lon="-3.91490475274622440338134765625">
        <ele>43</ele>
        <time>2018-09-05T12:29:36.000Z</time>
      </trkpt>
      <trkpt lat="43.44187620095908641815185546875" lon="-3.9150932617485523223876953125">
        <ele>43.59999847412109375</ele>
        <time>2018-09-05T12:29:42.000Z</time>
      </trkpt>
      <trkpt lat="43.44186983071267604827880859375" lon="-3.915128298103809356689453125">
        <ele>43.799999237060546875</ele>
        <time>2018-09-05T12:29:43.000Z</time>
      </trkpt>
      <trkpt lat="43.4418637119233608245849609375" lon="-3.91515805386006832122802734375">
        <ele>44</ele>
        <time>2018-09-05T12:29:44.000Z</time>
      </trkpt>
      <trkpt lat="43.4417902864515781402587890625" lon="-3.9153881371021270751953125">
        <ele>44.59999847412109375</ele>
        <time>2018-09-05T12:29:51.000Z</time>
      </trkpt>
      <trkpt lat="43.44176338054239749908447265625" lon="-3.9154577068984508514404296875">
        <ele>45</ele>
        <time>2018-09-05T12:29:53.000Z</time>
      </trkpt>
      <trkpt lat="43.44165542162954807281494140625" lon="-3.915679492056369781494140625">
        <ele>45.59999847412109375</ele>
        <time>2018-09-05T12:30:00.000Z</time>
      </trkpt>
      <trkpt lat="43.4416236542165279388427734375" lon="-3.915734477341175079345703125">
        <ele>46.200000762939453125</ele>
        <time>2018-09-05T12:30:02.000Z</time>
      </trkpt>
      <trkpt lat="43.44153958372771739959716796875" lon="-3.915931284427642822265625">
        <ele>47.200000762939453125</ele>
        <time>2018-09-05T12:30:09.000Z</time>
      </trkpt>
      <trkpt lat="43.4415160305798053741455078125" lon="-3.91598467715084552764892578125">
        <ele>47.59999847412109375</ele>
        <time>2018-09-05T12:30:11.000Z</time>
      </trkpt>
      <trkpt lat="43.44144436530768871307373046875" lon="-3.9161624573171138763427734375">
        <ele>48.59999847412109375</ele>
        <time>2018-09-05T12:30:17.000Z</time>
      </trkpt>
      <trkpt lat="43.44141804613173007965087890625" lon="-3.91621434129774570465087890625">
        <ele>49</ele>
        <time>2018-09-05T12:30:19.000Z</time>
      </trkpt>
      <trkpt lat="43.4413953311741352081298828125" lon="-3.91627083532512187957763671875">
        <ele>49.40000152587890625</ele>
        <time>2018-09-05T12:30:21.000Z</time>
      </trkpt>
      <trkpt lat="43.4413443692028522491455078125" lon="-3.9163857512176036834716796875">
        <ele>49.799999237060546875</ele>
        <time>2018-09-05T12:30:25.000Z</time>
      </trkpt>
      <trkpt lat="43.44127890653908252716064453125" lon="-3.91655288636684417724609375">
        <ele>50.200000762939453125</ele>
        <time>2018-09-05T12:30:30.000Z</time>
      </trkpt>
      <trkpt lat="43.4412240050733089447021484375" lon="-3.91669571399688720703125">
        <ele>50.40000152587890625</ele>
        <time>2018-09-05T12:30:34.000Z</time>
      </trkpt>
      <trkpt lat="43.44117513857781887054443359375" lon="-3.91679001040756702423095703125">
        <ele>50.59999847412109375</ele>
        <time>2018-09-05T12:30:37.000Z</time>
      </trkpt>
      <trkpt lat="43.4411633200943470001220703125" lon="-3.91681976616382598876953125">
        <ele>50.799999237060546875</ele>
        <time>2018-09-05T12:30:38.000Z</time>
      </trkpt>
      <trkpt lat="43.44108092598617076873779296875" lon="-3.9170405454933643341064453125">
        <ele>51.799999237060546875</ele>
        <time>2018-09-05T12:30:45.000Z</time>
      </trkpt>
      <trkpt lat="43.441017307341098785400390625" lon="-3.9172232709825038909912109375">
        <ele>52.59999847412109375</ele>
        <time>2018-09-05T12:30:51.000Z</time>
      </trkpt>
      <trkpt lat="43.44096475280821323394775390625" lon="-3.9173104427754878997802734375">
        <ele>53</ele>
        <time>2018-09-05T12:30:54.000Z</time>
      </trkpt>
      <trkpt lat="43.44091814942657947540283203125" lon="-3.91740440391004085540771484375">
        <ele>53.200000762939453125</ele>
        <time>2018-09-05T12:30:57.000Z</time>
      </trkpt>
      <trkpt lat="43.4408501721918582916259765625" lon="-3.91761370003223419189453125">
        <ele>54</ele>
        <time>2018-09-05T12:31:03.000Z</time>
      </trkpt>
      <trkpt lat="43.44080398790538311004638671875" lon="-3.91774403862655162811279296875">
        <ele>54.59999847412109375</ele>
        <time>2018-09-05T12:31:07.000Z</time>
      </trkpt>
      <trkpt lat="43.440769203007221221923828125" lon="-3.91784168779850006103515625">
        <ele>55</ele>
        <time>2018-09-05T12:31:10.000Z</time>
      </trkpt>
      <trkpt lat="43.4407184086740016937255859375" lon="-3.9179990999400615692138671875">
        <ele>56.200000762939453125</ele>
        <time>2018-09-05T12:31:15.000Z</time>
      </trkpt>
      <trkpt lat="43.4407090209424495697021484375" lon="-3.91802684403955936431884765625">
        <ele>56.200000762939453125</ele>
        <time>2018-09-05T12:31:16.000Z</time>
      </trkpt>
      <trkpt lat="43.440665267407894134521484375" lon="-3.9181902073323726654052734375">
        <ele>57.200000762939453125</ele>
        <time>2018-09-05T12:31:21.000Z</time>
      </trkpt>
      <trkpt lat="43.4406362660229206085205078125" lon="-3.91832389868795871734619140625">
        <ele>57.59999847412109375</ele>
        <time>2018-09-05T12:31:25.000Z</time>
      </trkpt>
      <trkpt lat="43.44060483388602733612060546875" lon="-3.9184458553791046142578125">
        <ele>58.40000152587890625</ele>
        <time>2018-09-05T12:31:29.000Z</time>
      </trkpt>
      <trkpt lat="43.4405799396336078643798828125" lon="-3.918483741581439971923828125">
        <ele>58.59999847412109375</ele>
        <time>2018-09-05T12:31:31.000Z</time>
      </trkpt>
      <trkpt lat="43.4405668638646602630615234375" lon="-3.91846320591866970062255859375">
        <ele>58.59999847412109375</ele>
        <time>2018-09-05T12:31:32.000Z</time>
      </trkpt>
      <trkpt lat="43.44061036594212055206298828125" lon="-3.9184332825243473052978515625">
        <ele>58.59999847412109375</ele>
        <time>2018-09-05T12:31:35.000Z</time>
      </trkpt>
      <trkpt lat="43.4406597353518009185791015625" lon="-3.91845515929162502288818359375">
        <ele>58.799999237060546875</ele>
        <time>2018-09-05T12:31:37.000Z</time>
      </trkpt>
      <trkpt lat="43.44065831042826175689697265625" lon="-3.9184520579874515533447265625">
        <ele>58.799999237060546875</ele>
        <time>2018-09-05T12:31:39.000Z</time>
      </trkpt>
      <trkpt lat="43.440644480288028717041015625" lon="-3.91850645653903484344482421875">
        <ele>59</ele>
        <time>2018-09-05T12:32:23.000Z</time>
      </trkpt>
      <trkpt lat="43.44062780030071735382080078125" lon="-3.91853529028594493865966796875">
        <ele>59.200000762939453125</ele>
        <time>2018-09-05T12:32:24.000Z</time>
      </trkpt>
      <trkpt lat="43.44061128795146942138671875" lon="-3.918564878404140472412109375">
        <ele>59.200000762939453125</ele>
        <time>2018-09-05T12:32:25.000Z</time>
      </trkpt>
      <trkpt lat="43.44058186747133731842041015625" lon="-3.91862145625054836273193359375">
        <ele>59.40000152587890625</ele>
        <time>2018-09-05T12:32:27.000Z</time>
      </trkpt>
      <trkpt lat="43.440543226897716522216796875" lon="-3.91876964829862117767333984375">
        <ele>60.59999847412109375</ele>
        <time>2018-09-05T12:32:32.000Z</time>
      </trkpt>
      <trkpt lat="43.44046753831207752227783203125" lon="-3.91896913759410381317138671875">
        <ele>61.200000762939453125</ele>
        <time>2018-09-05T12:32:38.000Z</time>
      </trkpt>
      <trkpt lat="43.44039780087769031524658203125" lon="-3.91916627995669841766357421875">
        <ele>61.59999847412109375</ele>
        <time>2018-09-05T12:32:43.000Z</time>
      </trkpt>
      <trkpt lat="43.4403465874493122100830078125" lon="-3.91931279562413692474365234375">
        <ele>62.40000152587890625</ele>
        <time>2018-09-05T12:32:47.000Z</time>
      </trkpt>
      <trkpt lat="43.44032353721559047698974609375" lon="-3.91938337124884128570556640625">
        <ele>63</ele>
        <time>2018-09-05T12:32:49.000Z</time>
      </trkpt>
      <trkpt lat="43.440267629921436309814453125" lon="-3.91955922357738018035888671875">
        <ele>63.59999847412109375</ele>
        <time>2018-09-05T12:32:54.000Z</time>
      </trkpt>
      <trkpt lat="43.4402392990887165069580078125" lon="-3.91962996684014797210693359375">
        <ele>63.799999237060546875</ele>
        <time>2018-09-05T12:32:56.000Z</time>
      </trkpt>
      <trkpt lat="43.44016604125499725341796875" lon="-3.919778577983379364013671875">
        <ele>64</ele>
        <time>2018-09-05T12:33:00.000Z</time>
      </trkpt>
      <trkpt lat="43.4401008300483226776123046875" lon="-3.9199165441095829010009765625">
        <ele>63.799999237060546875</ele>
        <time>2018-09-05T12:33:03.000Z</time>
      </trkpt>
      <trkpt lat="43.43992573209106922149658203125" lon="-3.9203239046037197113037109375">
        <ele>63.40000152587890625</ele>
        <time>2018-09-05T12:33:11.000Z</time>
      </trkpt>
      <trkpt lat="43.43982431106269359588623046875" lon="-3.9205755293369293212890625">
        <ele>63.40000152587890625</ele>
        <time>2018-09-05T12:33:16.000Z</time>
      </trkpt>
      <trkpt lat="43.43973713926970958709716796875" lon="-3.920776359736919403076171875">
        <ele>63.59999847412109375</ele>
        <time>2018-09-05T12:33:20.000Z</time>
      </trkpt>
      <trkpt lat="43.43965700827538967132568359375" lon="-3.92096285708248615264892578125">
        <ele>63.59999847412109375</ele>
        <time>2018-09-05T12:33:24.000Z</time>
      </trkpt>
      <trkpt lat="43.43958609737455844879150390625" lon="-3.92112747766077518463134765625">
        <ele>64</ele>
        <time>2018-09-05T12:33:28.000Z</time>
      </trkpt>
      <trkpt lat="43.4395432658493518829345703125" lon="-3.92126552760601043701171875">
        <ele>65.1999969482421875</ele>
        <time>2018-09-05T12:33:33.000Z</time>
      </trkpt>
      <trkpt lat="43.43954435549676418304443359375" lon="-3.9212861470878124237060546875">
        <ele>65.40000152587890625</ele>
        <time>2018-09-05T12:33:34.000Z</time>
      </trkpt>
      <trkpt lat="43.439517281949520111083984375" lon="-3.9213106222450733184814453125">
        <ele>65.59999847412109375</ele>
        <time>2018-09-05T12:34:00.000Z</time>
      </trkpt>
      <trkpt lat="43.43948132358491420745849609375" lon="-3.9212506078183650970458984375">
        <ele>65.1999969482421875</ele>
        <time>2018-09-05T12:34:02.000Z</time>
      </trkpt>
      <trkpt lat="43.4394027851521968841552734375" lon="-3.9211651124060153961181640625">
        <ele>64.59999847412109375</ele>
        <time>2018-09-05T12:34:05.000Z</time>
      </trkpt>
      <trkpt lat="43.439369760453701019287109375" lon="-3.92113535664975643157958984375">
        <ele>64.40000152587890625</ele>
        <time>2018-09-05T12:34:06.000Z</time>
      </trkpt>
      <trkpt lat="43.43933363445103168487548828125" lon="-3.9211057685315608978271484375">
        <ele>64.1999969482421875</ele>
        <time>2018-09-05T12:34:07.000Z</time>
      </trkpt>
      <trkpt lat="43.439144454896450042724609375" lon="-3.92099621705710887908935546875">
        <ele>63.59999847412109375</ele>
        <time>2018-09-05T12:34:11.000Z</time>
      </trkpt>
      <trkpt lat="43.43908284790813922882080078125" lon="-3.92097274772822856903076171875">
        <ele>63.200000762939453125</ele>
        <time>2018-09-05T12:34:12.000Z</time>
      </trkpt>
      <trkpt lat="43.43902300111949443817138671875" lon="-3.92094424925744533538818359375">
        <ele>62.799999237060546875</ele>
        <time>2018-09-05T12:34:13.000Z</time>
      </trkpt>
      <trkpt lat="43.43889039941132068634033203125" lon="-3.920900411903858184814453125">
        <ele>61.59999847412109375</ele>
        <time>2018-09-05T12:34:15.000Z</time>
      </trkpt>
      <trkpt lat="43.43874908052384853363037109375" lon="-3.9208435826003551483154296875">
        <ele>60.40000152587890625</ele>
        <time>2018-09-05T12:34:17.000Z</time>
      </trkpt>
      <trkpt lat="43.43867205083370208740234375" lon="-3.9208150841295719146728515625">
        <ele>60</ele>
        <time>2018-09-05T12:34:18.000Z</time>
      </trkpt>
      <trkpt lat="43.4385937638580799102783203125" lon="-3.9207832328975200653076171875">
        <ele>59.40000152587890625</ele>
        <time>2018-09-05T12:34:19.000Z</time>
      </trkpt>
      <trkpt lat="43.43843023292720317840576171875" lon="-3.9207198657095432281494140625">
        <ele>58.200000762939453125</ele>
        <time>2018-09-05T12:34:21.000Z</time>
      </trkpt>
      <trkpt lat="43.4382588230073451995849609375" lon="-3.9206514693796634674072265625">
        <ele>57</ele>
        <time>2018-09-05T12:34:23.000Z</time>
      </trkpt>
      <trkpt lat="43.438174836337566375732421875" lon="-3.92061500810086727142333984375">
        <ele>56.799999237060546875</ele>
        <time>2018-09-05T12:34:24.000Z</time>
      </trkpt>
      <trkpt lat="43.4380006603896617889404296875" lon="-3.92051995731890201568603515625">
        <ele>55.799999237060546875</ele>
        <time>2018-09-05T12:34:27.000Z</time>
      </trkpt>
      <trkpt lat="43.4377522207796573638916015625" lon="-3.9203638024628162384033203125">
        <ele>54.59999847412109375</ele>
        <time>2018-09-05T12:34:32.000Z</time>
      </trkpt>
      <trkpt lat="43.43769933097064495086669921875" lon="-3.92032080329954624176025390625">
        <ele>54.59999847412109375</ele>
        <time>2018-09-05T12:34:33.000Z</time>
      </trkpt>
      <trkpt lat="43.43747938983142375946044921875" lon="-3.9201492257416248321533203125">
        <ele>53.40000152587890625</ele>
        <time>2018-09-05T12:34:37.000Z</time>
      </trkpt>
      <trkpt lat="43.4373006038367748260498046875" lon="-3.9200151152908802032470703125">
        <ele>52.799999237060546875</ele>
        <time>2018-09-05T12:34:40.000Z</time>
      </trkpt>
      <trkpt lat="43.43723975121974945068359375" lon="-3.9199721999466419219970703125">
        <ele>52.200000762939453125</ele>
        <time>2018-09-05T12:34:41.000Z</time>
      </trkpt>
      <trkpt lat="43.43706130050122737884521484375" lon="-3.91983331181108951568603515625">
        <ele>51.200000762939453125</ele>
        <time>2018-09-05T12:34:44.000Z</time>
      </trkpt>
      <trkpt lat="43.4368124417960643768310546875" lon="-3.91964488662779331207275390625">
        <ele>49.59999847412109375</ele>
        <time>2018-09-05T12:34:48.000Z</time>
      </trkpt>
      <trkpt lat="43.43668520450592041015625" lon="-3.91955302096903324127197265625">
        <ele>48.59999847412109375</ele>
        <time>2018-09-05T12:34:50.000Z</time>
      </trkpt>
      <trkpt lat="43.43616778962314128875732421875" lon="-3.91916728578507900238037109375">
        <ele>47.59999847412109375</ele>
        <time>2018-09-05T12:34:58.000Z</time>
      </trkpt>
      <trkpt lat="43.43610676936805248260498046875" lon="-3.9191172458231449127197265625">
        <ele>47.40000152587890625</ele>
        <time>2018-09-05T12:34:59.000Z</time>
      </trkpt>
      <trkpt lat="43.435868807137012481689453125" lon="-3.91894332133233547210693359375">
        <ele>46.200000762939453125</ele>
        <time>2018-09-05T12:35:03.000Z</time>
      </trkpt>
      <trkpt lat="43.4357787854969501495361328125" lon="-3.9188724942505359649658203125">
        <ele>46</ele>
        <time>2018-09-05T12:35:05.000Z</time>
      </trkpt>
      <trkpt lat="43.435721956193447113037109375" lon="-3.91878850758075714111328125">
        <ele>46.200000762939453125</ele>
        <time>2018-09-05T12:35:07.000Z</time>
      </trkpt>
      <trkpt lat="43.43567023985087871551513671875" lon="-3.9187038503587245941162109375">
        <ele>46.200000762939453125</ele>
        <time>2018-09-05T12:35:09.000Z</time>
      </trkpt>
      <trkpt lat="43.4355417452752590179443359375" lon="-3.91859547235071659088134765625">
        <ele>45.200000762939453125</ele>
        <time>2018-09-05T12:35:13.000Z</time>
      </trkpt>
      <trkpt lat="43.43554602004587650299072265625" lon="-3.9185362122952938079833984375">
        <ele>45.200000762939453125</ele>
        <time>2018-09-05T12:35:15.000Z</time>
      </trkpt>
      <trkpt lat="43.435572087764739990234375" lon="-3.918544091284275054931640625">
        <ele>45.200000762939453125</ele>
        <time>2018-09-05T12:35:16.000Z</time>
      </trkpt>
      <trkpt lat="43.435668647289276123046875" lon="-3.918615840375423431396484375">
        <ele>45.40000152587890625</ele>
        <time>2018-09-05T12:35:20.000Z</time>
      </trkpt>
      <trkpt lat="43.435697816312313079833984375" lon="-3.9186361245810985565185546875">
        <ele>45.59999847412109375</ele>
        <time>2018-09-05T12:35:21.000Z</time>
      </trkpt>
      <trkpt lat="43.435801081359386444091796875" lon="-3.9187745936214923858642578125">
        <ele>46</ele>
        <time>2018-09-05T12:35:26.000Z</time>
      </trkpt>
      <trkpt lat="43.4358052723109722137451171875" lon="-3.91883519478142261505126953125">
        <ele>45.799999237060546875</ele>
        <time>2018-09-05T12:35:28.000Z</time>
      </trkpt>
      <trkpt lat="43.43578976579010486602783203125" lon="-3.91886989586055278778076171875">
        <ele>45.799999237060546875</ele>
        <time>2018-09-05T12:35:30.000Z</time>
      </trkpt>
      <trkpt lat="43.43578456901013851165771484375" lon="-3.91894835047423839569091796875">
        <ele>46</ele>
        <time>2018-09-05T12:35:36.000Z</time>
      </trkpt>
      <trkpt lat="43.43570125289261341094970703125" lon="-3.91893745400011539459228515625">
        <ele>46</ele>
        <time>2018-09-05T12:35:39.000Z</time>
      </trkpt>
      <trkpt lat="43.435650877654552459716796875" lon="-3.9188909344375133514404296875">
        <ele>45.799999237060546875</ele>
        <time>2018-09-05T12:35:41.000Z</time>
      </trkpt>
      <trkpt lat="43.4355980716645717620849609375" lon="-3.91885531134903430938720703125">
        <ele>46.40000152587890625</ele>
        <time>2018-09-05T12:35:43.000Z</time>
      </trkpt>
      <trkpt lat="43.43555222265422344207763671875" lon="-3.91881893388926982879638671875">
        <ele>47.200000762939453125</ele>
        <time>2018-09-05T12:35:45.000Z</time>
      </trkpt>
      <trkpt lat="43.43552825041115283966064453125" lon="-3.91880166716873645782470703125">
        <ele>47.40000152587890625</ele>
        <time>2018-09-05T12:35:46.000Z</time>
      </trkpt>
      <trkpt lat="43.4354555793106555938720703125" lon="-3.9187501184642314910888671875">
        <ele>48</ele>
        <time>2018-09-05T12:35:49.000Z</time>
      </trkpt>
      <trkpt lat="43.43538391403853893280029296875" lon="-3.9186921156942844390869140625">
        <ele>48.59999847412109375</ele>
        <time>2018-09-05T12:35:52.000Z</time>
      </trkpt>
      <trkpt lat="43.43531182967126369476318359375" lon="-3.91864090226590633392333984375">
        <ele>49.200000762939453125</ele>
        <time>2018-09-05T12:35:55.000Z</time>
      </trkpt>
      <trkpt lat="43.435241170227527618408203125" lon="-3.9185844920575618743896484375">
        <ele>49.799999237060546875</ele>
        <time>2018-09-05T12:35:58.000Z</time>
      </trkpt>
      <trkpt lat="43.43516430817544460296630859375" lon="-3.91852238215506076812744140625">
        <ele>49.59999847412109375</ele>
        <time>2018-09-05T12:36:01.000Z</time>
      </trkpt>
      <trkpt lat="43.4351065568625926971435546875" lon="-3.9184802211821079254150390625">
        <ele>49.200000762939453125</ele>
        <time>2018-09-05T12:36:03.000Z</time>
      </trkpt>
      <trkpt lat="43.43498560599982738494873046875" lon="-3.91839087009429931640625">
        <ele>49</ele>
        <time>2018-09-05T12:36:07.000Z</time>
      </trkpt>
      <trkpt lat="43.4348410181701183319091796875" lon="-3.91827578656375408172607421875">
        <ele>49.200000762939453125</ele>
        <time>2018-09-05T12:36:11.000Z</time>
      </trkpt>
      <trkpt lat="43.43469031155109405517578125" lon="-3.918167240917682647705078125">
        <ele>48.59999847412109375</ele>
        <time>2018-09-05T12:36:14.000Z</time>
      </trkpt>
      <trkpt lat="43.43456567265093326568603515625" lon="-3.91809842549264430999755859375">
        <ele>47.200000762939453125</ele>
        <time>2018-09-05T12:36:16.000Z</time>
      </trkpt>
      <trkpt lat="43.4344978630542755126953125" lon="-3.9180644787847995758056640625">
        <ele>46.200000762939453125</ele>
        <time>2018-09-05T12:36:17.000Z</time>
      </trkpt>
      <trkpt lat="43.434219919145107269287109375" lon="-3.917977474629878997802734375">
        <ele>45.40000152587890625</ele>
        <time>2018-09-05T12:36:21.000Z</time>
      </trkpt>
      <trkpt lat="43.43415780924260616302490234375" lon="-3.9179695956408977508544921875">
        <ele>45</ele>
        <time>2018-09-05T12:36:22.000Z</time>
      </trkpt>
      <trkpt lat="43.43404398299753665924072265625" lon="-3.91799080185592174530029296875">
        <ele>44.200000762939453125</ele>
        <time>2018-09-05T12:36:24.000Z</time>
      </trkpt>
      <trkpt lat="43.4340004809200763702392578125" lon="-3.9180373214185237884521484375">
        <ele>44.40000152587890625</ele>
        <time>2018-09-05T12:36:25.000Z</time>
      </trkpt>
      <trkpt lat="43.4339119680225849151611328125" lon="-3.91820990480482578277587890625">
        <ele>44.799999237060546875</ele>
        <time>2018-09-05T12:36:28.000Z</time>
      </trkpt>
      <trkpt lat="43.43376235105097293853759765625" lon="-3.918366394937038421630859375">
        <ele>45.40000152587890625</ele>
        <time>2018-09-05T12:36:32.000Z</time>
      </trkpt>
      <trkpt lat="43.4337292425334453582763671875" lon="-3.91840855590999126434326171875">
        <ele>45.40000152587890625</ele>
        <time>2018-09-05T12:36:33.000Z</time>
      </trkpt>
      <trkpt lat="43.43365036882460117340087890625" lon="-3.91863637603819370269775390625">
        <ele>45.40000152587890625</ele>
        <time>2018-09-05T12:36:37.000Z</time>
      </trkpt>
      <trkpt lat="43.43364215455949306488037109375" lon="-3.91870024614036083221435546875">
        <ele>45.40000152587890625</ele>
        <time>2018-09-05T12:36:38.000Z</time>
      </trkpt>
      <trkpt lat="43.43360175378620624542236328125" lon="-3.91913040541112422943115234375">
        <ele>45.799999237060546875</ele>
        <time>2018-09-05T12:36:45.000Z</time>
      </trkpt>
      <trkpt lat="43.43359504826366901397705078125" lon="-3.9191903360188007354736328125">
        <ele>46</ele>
        <time>2018-09-05T12:36:46.000Z</time>
      </trkpt>
      <trkpt lat="43.43353285454213619232177734375" lon="-3.91964153386652469635009765625">
        <ele>47</ele>
        <time>2018-09-05T12:36:54.000Z</time>
      </trkpt>
      <trkpt lat="43.4334603510797023773193359375" lon="-3.9201512373983860015869140625">
        <ele>47.200000762939453125</ele>
        <time>2018-09-05T12:37:03.000Z</time>
      </trkpt>
      <trkpt lat="43.4334419108927249908447265625" lon="-3.920256681740283966064453125">
        <ele>47.200000762939453125</ele>
        <time>2018-09-05T12:37:05.000Z</time>
      </trkpt>
      <trkpt lat="43.43336999416351318359375" lon="-3.92057443968951702117919921875">
        <ele>47.40000152587890625</ele>
        <time>2018-09-05T12:37:11.000Z</time>
      </trkpt>
      <trkpt lat="43.43331106938421726226806640625" lon="-3.92077091149985790252685546875">
        <ele>47.59999847412109375</ele>
        <time>2018-09-05T12:37:15.000Z</time>
      </trkpt>
      <trkpt lat="43.4332427568733692169189453125" lon="-3.9209632761776447296142578125">
        <ele>47.200000762939453125</ele>
        <time>2018-09-05T12:37:19.000Z</time>
      </trkpt>
      <trkpt lat="43.433197997510433197021484375" lon="-3.92111088149249553680419921875">
        <ele>47.200000762939453125</ele>
        <time>2018-09-05T12:37:22.000Z</time>
      </trkpt>
      <trkpt lat="43.43314267694950103759765625" lon="-3.921292014420032501220703125">
        <ele>47.59999847412109375</ele>
        <time>2018-09-05T12:37:26.000Z</time>
      </trkpt>
      <trkpt lat="43.433139324188232421875" lon="-3.92131472937762737274169921875">
        <ele>48.200000762939453125</ele>
        <time>2018-09-05T12:37:29.000Z</time>
      </trkpt>
      <trkpt lat="43.433115519583225250244140625" lon="-3.92137122340500354766845703125">
        <ele>48.40000152587890625</ele>
        <time>2018-09-05T12:38:51.000Z</time>
      </trkpt>
      <trkpt lat="43.4330949001014232635498046875" lon="-3.92144062556326389312744140625">
        <ele>48.40000152587890625</ele>
        <time>2018-09-05T12:38:53.000Z</time>
      </trkpt>
      <trkpt lat="43.43304335139691829681396484375" lon="-3.92160189338028430938720703125">
        <ele>48.200000762939453125</ele>
        <time>2018-09-05T12:38:57.000Z</time>
      </trkpt>
      <trkpt lat="43.4330181218683719635009765625" lon="-3.9216814376413822174072265625">
        <ele>48.40000152587890625</ele>
        <time>2018-09-05T12:38:59.000Z</time>
      </trkpt>
      <trkpt lat="43.43300680629909038543701171875" lon="-3.921722508966922760009765625">
        <ele>48.40000152587890625</ele>
        <time>2018-09-05T12:39:00.000Z</time>
      </trkpt>
      <trkpt lat="43.4329346381127834320068359375" lon="-3.9218963496387004852294921875">
        <ele>48.59999847412109375</ele>
        <time>2018-09-05T12:39:04.000Z</time>
      </trkpt>
      <trkpt lat="43.43291795812547206878662109375" lon="-3.92194722779095172882080078125">
        <ele>48.59999847412109375</ele>
        <time>2018-09-05T12:39:05.000Z</time>
      </trkpt>
      <trkpt lat="43.43276440165936946868896484375" lon="-3.9223677478730678558349609375">
        <ele>48.200000762939453125</ele>
        <time>2018-09-05T12:39:13.000Z</time>
      </trkpt>
      <trkpt lat="43.43268913216888904571533203125" lon="-3.92252189107239246368408203125">
        <ele>47.59999847412109375</ele>
        <time>2018-09-05T12:39:16.000Z</time>
      </trkpt>
      <trkpt lat="43.4326114319264888763427734375" lon="-3.92266807146370410919189453125">
        <ele>47.59999847412109375</ele>
        <time>2018-09-05T12:39:19.000Z</time>
      </trkpt>
      <trkpt lat="43.43258921988308429718017578125" lon="-3.92271467484533786773681640625">
        <ele>47.799999237060546875</ele>
        <time>2018-09-05T12:39:20.000Z</time>
      </trkpt>
      <trkpt lat="43.43247807584702968597412109375" lon="-3.92306260764598846435546875">
        <ele>48.200000762939453125</ele>
        <time>2018-09-05T12:39:27.000Z</time>
      </trkpt>
      <trkpt lat="43.432381264865398406982421875" lon="-3.92336569726467132568359375">
        <ele>47.799999237060546875</ele>
        <time>2018-09-05T12:39:33.000Z</time>
      </trkpt>
      <trkpt lat="43.4323308058083057403564453125" lon="-3.92351749353110790252685546875">
        <ele>48</ele>
        <time>2018-09-05T12:39:36.000Z</time>
      </trkpt>
      <trkpt lat="43.43221019022166728973388671875" lon="-3.92391094006597995758056640625">
        <ele>48</ele>
        <time>2018-09-05T12:39:44.000Z</time>
      </trkpt>
      <trkpt lat="43.43210558407008647918701171875" lon="-3.92424571327865123748779296875">
        <ele>48.59999847412109375</ele>
        <time>2018-09-05T12:39:51.000Z</time>
      </trkpt>
      <trkpt lat="43.4319807775318622589111328125" lon="-3.92472934909164905548095703125">
        <ele>48.59999847412109375</ele>
        <time>2018-09-05T12:40:00.000Z</time>
      </trkpt>
      <trkpt lat="43.43188949860632419586181640625" lon="-3.925252966582775115966796875">
        <ele>47.40000152587890625</ele>
        <time>2018-09-05T12:40:08.000Z</time>
      </trkpt>
      <trkpt lat="43.4318788535892963409423828125" lon="-3.9253289066255092620849609375">
        <ele>47.200000762939453125</ele>
        <time>2018-09-05T12:40:09.000Z</time>
      </trkpt>
      <trkpt lat="43.43179444782435894012451171875" lon="-3.9258985407650470733642578125">
        <ele>46</ele>
        <time>2018-09-05T12:40:16.000Z</time>
      </trkpt>
      <trkpt lat="43.4317611716687679290771484375" lon="-3.92616055905818939208984375">
        <ele>44.59999847412109375</ele>
        <time>2018-09-05T12:40:19.000Z</time>
      </trkpt>
      <trkpt lat="43.43172186054289340972900390625" lon="-3.92642743885517120361328125">
        <ele>43.40000152587890625</ele>
        <time>2018-09-05T12:40:22.000Z</time>
      </trkpt>
      <trkpt lat="43.43168464489281177520751953125" lon="-3.9267055504024028778076171875">
        <ele>42.59999847412109375</ele>
        <time>2018-09-05T12:40:25.000Z</time>
      </trkpt>
      <trkpt lat="43.43167022801935672760009765625" lon="-3.92679884098470211029052734375">
        <ele>42.200000762939453125</ele>
        <time>2018-09-05T12:40:26.000Z</time>
      </trkpt>
      <trkpt lat="43.43160166405141353607177734375" lon="-3.927293457090854644775390625">
        <ele>41.799999237060546875</ele>
        <time>2018-09-05T12:40:31.000Z</time>
      </trkpt>
      <trkpt lat="43.431575596332550048828125" lon="-3.9274957962334156036376953125">
        <ele>41.200000762939453125</ele>
        <time>2018-09-05T12:40:33.000Z</time>
      </trkpt>
      <trkpt lat="43.4315318427979946136474609375" lon="-3.9278086088597774505615234375">
        <ele>40</ele>
        <time>2018-09-05T12:40:36.000Z</time>
      </trkpt>
      <trkpt lat="43.43147912062704563140869140625" lon="-3.92812184058129787445068359375">
        <ele>38.59999847412109375</ele>
        <time>2018-09-05T12:40:39.000Z</time>
      </trkpt>
      <trkpt lat="43.431463278830051422119140625" lon="-3.9282290451228618621826171875">
        <ele>38.200000762939453125</ele>
        <time>2018-09-05T12:40:40.000Z</time>
      </trkpt>
      <trkpt lat="43.43141977675259113311767578125" lon="-3.92843079753220081329345703125">
        <ele>37.40000152587890625</ele>
        <time>2018-09-05T12:40:42.000Z</time>
      </trkpt>
      <trkpt lat="43.431319780647754669189453125" lon="-3.92879792489111423492431640625">
        <ele>37.40000152587890625</ele>
        <time>2018-09-05T12:40:46.000Z</time>
      </trkpt>
      <trkpt lat="43.43126756139099597930908203125" lon="-3.9289599470794200897216796875">
        <ele>37.59999847412109375</ele>
        <time>2018-09-05T12:40:48.000Z</time>
      </trkpt>
      <trkpt lat="43.4311851672828197479248046875" lon="-3.92917779274284839630126953125">
        <ele>38.40000152587890625</ele>
        <time>2018-09-05T12:40:51.000Z</time>
      </trkpt>
      <trkpt lat="43.4311606921255588531494140625" lon="-3.9292392320930957794189453125">
        <ele>38.200000762939453125</ele>
        <time>2018-09-05T12:40:52.000Z</time>
      </trkpt>
      <trkpt lat="43.43106891028583049774169921875" lon="-3.929472081363201141357421875">
        <ele>38.59999847412109375</ele>
        <time>2018-09-05T12:40:56.000Z</time>
      </trkpt>
      <trkpt lat="43.43100168742239475250244140625" lon="-3.92964181490242481231689453125">
        <ele>39</ele>
        <time>2018-09-05T12:40:59.000Z</time>
      </trkpt>
      <trkpt lat="43.4309665672481060028076171875" lon="-3.9297781884670257568359375">
        <ele>39.40000152587890625</ele>
        <time>2018-09-05T12:41:02.000Z</time>
      </trkpt>
      <trkpt lat="43.43098442070186138153076171875" lon="-3.9298021607100963592529296875">
        <ele>39.799999237060546875</ele>
        <time>2018-09-05T12:41:03.000Z</time>
      </trkpt>
      <trkpt lat="43.43103555031120777130126953125" lon="-3.9297072775661945343017578125">
        <ele>39.799999237060546875</ele>
        <time>2018-09-05T12:41:06.000Z</time>
      </trkpt>
      <trkpt lat="43.431044854223728179931640625" lon="-3.929655142128467559814453125">
        <ele>39.799999237060546875</ele>
        <time>2018-09-05T12:41:07.000Z</time>
      </trkpt>
      <trkpt lat="43.4310607798397541046142578125" lon="-3.92954207025468349456787109375">
        <ele>39.59999847412109375</ele>
        <time>2018-09-05T12:41:09.000Z</time>
      </trkpt>
      <trkpt lat="43.4310983307659626007080078125" lon="-3.92942824400961399078369140625">
        <ele>39.40000152587890625</ele>
        <time>2018-09-05T12:41:11.000Z</time>
      </trkpt>
      <trkpt lat="43.43114250339567661285400390625" lon="-3.9293141663074493408203125">
        <ele>39.200000762939453125</ele>
        <time>2018-09-05T12:41:13.000Z</time>
      </trkpt>
      <trkpt lat="43.43122179619967937469482421875" lon="-3.9291559159755706787109375">
        <ele>39</ele>
        <time>2018-09-05T12:41:16.000Z</time>
      </trkpt>
      <trkpt lat="43.431268818676471710205078125" lon="-3.929151557385921478271484375">
        <ele>38.799999237060546875</ele>
        <time>2018-09-05T12:41:17.000Z</time>
      </trkpt>
      <trkpt lat="43.431363366544246673583984375" lon="-3.92922959290444850921630859375">
        <ele>38.40000152587890625</ele>
        <time>2018-09-05T12:41:19.000Z</time>
      </trkpt>
      <trkpt lat="43.4314134903252124786376953125" lon="-3.9293141663074493408203125">
        <ele>37.59999847412109375</ele>
        <time>2018-09-05T12:41:20.000Z</time>
      </trkpt>
      <trkpt lat="43.4314600937068462371826171875" lon="-3.929408378899097442626953125">
        <ele>36.40000152587890625</ele>
        <time>2018-09-05T12:41:21.000Z</time>
      </trkpt>
      <trkpt lat="43.43152622692286968231201171875" lon="-3.9296244643628597259521484375">
        <ele>34.799999237060546875</ele>
        <time>2018-09-05T12:41:23.000Z</time>
      </trkpt>
      <trkpt lat="43.43155221082270145416259765625" lon="-3.9299677871167659759521484375">
        <ele>33.59999847412109375</ele>
        <time>2018-09-05T12:41:26.000Z</time>
      </trkpt>
      <trkpt lat="43.43157249502837657928466796875" lon="-3.93032108433544635772705078125">
        <ele>32</ele>
        <time>2018-09-05T12:41:29.000Z</time>
      </trkpt>
      <trkpt lat="43.43160686083137989044189453125" lon="-3.93042837269604206085205078125">
        <ele>31.3999996185302734375</ele>
        <time>2018-09-05T12:41:30.000Z</time>
      </trkpt>
      <trkpt lat="43.43169017694890499114990234375" lon="-3.9306204020977020263671875">
        <ele>31</ele>
        <time>2018-09-05T12:41:32.000Z</time>
      </trkpt>
      <trkpt lat="43.43177609145641326904296875" lon="-3.93081997521221637725830078125">
        <ele>30.3999996185302734375</ele>
        <time>2018-09-05T12:41:34.000Z</time>
      </trkpt>
      <trkpt lat="43.43181406147778034210205078125" lon="-3.9309068955481052398681640625">
        <ele>29.799999237060546875</ele>
        <time>2018-09-05T12:41:35.000Z</time>
      </trkpt>
      <trkpt lat="43.43186862766742706298828125" lon="-3.93106958828866481781005859375">
        <ele>28.799999237060546875</ele>
        <time>2018-09-05T12:41:37.000Z</time>
      </trkpt>
      <trkpt lat="43.43186183832585811614990234375" lon="-3.9311566762626171112060546875">
        <ele>28</ele>
        <time>2018-09-05T12:41:38.000Z</time>
      </trkpt>
      <trkpt lat="43.43184272758662700653076171875" lon="-3.931233622133731842041015625">
        <ele>27.200000762939453125</ele>
        <time>2018-09-05T12:41:39.000Z</time>
      </trkpt>
      <trkpt lat="43.4317598305642604827880859375" lon="-3.9313719235360622406005859375">
        <ele>26.200000762939453125</ele>
        <time>2018-09-05T12:41:41.000Z</time>
      </trkpt>
      <trkpt lat="43.431671150028705596923828125" lon="-3.9314691536128520965576171875">
        <ele>24.6000003814697265625</ele>
        <time>2018-09-05T12:41:43.000Z</time>
      </trkpt>
      <trkpt lat="43.43165178783237934112548828125" lon="-3.93153662793338298797607421875">
        <ele>24.200000762939453125</ele>
        <time>2018-09-05T12:41:44.000Z</time>
      </trkpt>
      <trkpt lat="43.43166687525808811187744140625" lon="-3.931637965142726898193359375">
        <ele>23.3999996185302734375</ele>
        <time>2018-09-05T12:41:45.000Z</time>
      </trkpt>
      <trkpt lat="43.43177349306643009185791015625" lon="-3.93178783357143402099609375">
        <ele>21.799999237060546875</ele>
        <time>2018-09-05T12:41:47.000Z</time>
      </trkpt>
      <trkpt lat="43.43187558464705944061279296875" lon="-3.931955806910991668701171875">
        <ele>22.200000762939453125</ele>
        <time>2018-09-05T12:41:50.000Z</time>
      </trkpt>
      <trkpt lat="43.4318748302757740020751953125" lon="-3.93202026374638080596923828125">
        <ele>22.799999237060546875</ele>
        <time>2018-09-05T12:41:51.000Z</time>
      </trkpt>
      <trkpt lat="43.4318584017455577850341796875" lon="-3.932139538228511810302734375">
        <ele>23.3999996185302734375</ele>
        <time>2018-09-05T12:41:53.000Z</time>
      </trkpt>
      <trkpt lat="43.43184054829180240631103515625" lon="-3.932230733335018157958984375">
        <ele>23.6000003814697265625</ele>
        <time>2018-09-05T12:41:55.000Z</time>
      </trkpt>
      <trkpt lat="43.43183702789247035980224609375" lon="-3.93226836808025836944580078125">
        <ele>23.799999237060546875</ele>
        <time>2018-09-05T12:41:56.000Z</time>
      </trkpt>
      <trkpt lat="43.4318419732153415679931640625" lon="-3.93233307637274265289306640625">
        <ele>24.6000003814697265625</ele>
        <time>2018-09-05T12:41:58.000Z</time>
      </trkpt>
      <trkpt lat="43.4318500198423862457275390625" lon="-3.932358808815479278564453125">
        <ele>25</ele>
        <time>2018-09-05T12:41:59.000Z</time>
      </trkpt>
      <trkpt lat="43.4318758361041545867919921875" lon="-3.93243952654302120208740234375">
        <ele>26</ele>
        <time>2018-09-05T12:42:03.000Z</time>
      </trkpt>
      <trkpt lat="43.43188740313053131103515625" lon="-3.93245838582515716552734375">
        <ele>26.200000762939453125</ele>
        <time>2018-09-05T12:42:04.000Z</time>
      </trkpt>
      <trkpt lat="43.43193694017827510833740234375" lon="-3.93251429311931133270263671875">
        <ele>27.200000762939453125</ele>
        <time>2018-09-05T12:42:08.000Z</time>
      </trkpt>
      <trkpt lat="43.43196376226842403411865234375" lon="-3.93254212103784084320068359375">
        <ele>27.6000003814697265625</ele>
        <time>2018-09-05T12:42:10.000Z</time>
      </trkpt>
      <trkpt lat="43.4319925121963024139404296875" lon="-3.93255938775837421417236328125">
        <ele>28.200000762939453125</ele>
        <time>2018-09-05T12:42:12.000Z</time>
      </trkpt>
      <trkpt lat="43.43201036565005779266357421875" lon="-3.932594172656536102294921875">
        <ele>28.6000003814697265625</ele>
        <time>2018-09-05T12:42:14.000Z</time>
      </trkpt>
      <trkpt lat="43.43202847056090831756591796875" lon="-3.932630382478237152099609375">
        <ele>28.799999237060546875</ele>
        <time>2018-09-05T12:42:16.000Z</time>
      </trkpt>
      <trkpt lat="43.43205311335623264312744140625" lon="-3.93266089260578155517578125">
        <ele>29.200000762939453125</ele>
        <time>2018-09-05T12:42:18.000Z</time>
      </trkpt>
      <trkpt lat="43.43209368176758289337158203125" lon="-3.93271009437739849090576171875">
        <ele>29.6000003814697265625</ele>
        <time>2018-09-05T12:42:21.000Z</time>
      </trkpt>
      <trkpt lat="43.432113043963909149169921875" lon="-3.93275049515068531036376953125">
        <ele>29.799999237060546875</ele>
        <time>2018-09-05T12:42:23.000Z</time>
      </trkpt>
      <trkpt lat="43.43217574059963226318359375" lon="-3.9328528381884098052978515625">
        <ele>30.3999996185302734375</ele>
        <time>2018-09-05T12:42:28.000Z</time>
      </trkpt>
      <trkpt lat="43.43220390379428863525390625" lon="-3.9329078234732151031494140625">
        <ele>30.200000762939453125</ele>
        <time>2018-09-05T12:42:30.000Z</time>
      </trkpt>
      <trkpt lat="43.43230892904102802276611328125" lon="-3.933103121817111968994140625">
        <ele>29.3999996185302734375</ele>
        <time>2018-09-05T12:42:35.000Z</time>
      </trkpt>
      <trkpt lat="43.4323308058083057403564453125" lon="-3.93315752036869525909423828125">
        <ele>29</ele>
        <time>2018-09-05T12:42:36.000Z</time>
      </trkpt>
      <trkpt lat="43.4324189834296703338623046875" lon="-3.93341124057769775390625">
        <ele>28.6000003814697265625</ele>
        <time>2018-09-05T12:42:40.000Z</time>
      </trkpt>
      <trkpt lat="43.4324478171765804290771484375" lon="-3.93347351811826229095458984375">
        <ele>28.3999996185302734375</ele>
        <time>2018-09-05T12:42:41.000Z</time>
      </trkpt>
      <trkpt lat="43.43247304670512676239013671875" lon="-3.9335398189723491668701171875">
        <ele>28</ele>
        <time>2018-09-05T12:42:42.000Z</time>
      </trkpt>
      <trkpt lat="43.432535827159881591796875" lon="-3.9337681420147418975830078125">
        <ele>27</ele>
        <time>2018-09-05T12:42:45.000Z</time>
      </trkpt>
      <trkpt lat="43.4325752221047878265380859375" lon="-3.93396503292024135589599609375">
        <ele>25.6000003814697265625</ele>
        <time>2018-09-05T12:42:47.000Z</time>
      </trkpt>
      <trkpt lat="43.43261000700294971466064453125" lon="-3.934167958796024322509765625">
        <ele>24.200000762939453125</ele>
        <time>2018-09-05T12:42:49.000Z</time>
      </trkpt>
      <trkpt lat="43.4326566942036151885986328125" lon="-3.93434221856296062469482421875">
        <ele>23</ele>
        <time>2018-09-05T12:42:51.000Z</time>
      </trkpt>
      <trkpt lat="43.4326865337789058685302734375" lon="-3.93440558575093746185302734375">
        <ele>22.3999996185302734375</ele>
        <time>2018-09-05T12:42:52.000Z</time>
      </trkpt>
      <trkpt lat="43.43271561898291110992431640625" lon="-3.9344397000968456268310546875">
        <ele>22</ele>
        <time>2018-09-05T12:42:53.000Z</time>
      </trkpt>
      <trkpt lat="43.43278233893215656280517578125" lon="-3.9344997145235538482666015625">
        <ele>21.6000003814697265625</ele>
        <time>2018-09-05T12:42:55.000Z</time>
      </trkpt>
      <trkpt lat="43.43281938694417476654052734375" lon="-3.9345332421362400054931640625">
        <ele>21.6000003814697265625</ele>
        <time>2018-09-05T12:42:56.000Z</time>
      </trkpt>
      <trkpt lat="43.432852663099765777587890625" lon="-3.93457272090017795562744140625">
        <ele>21.3999996185302734375</ele>
        <time>2018-09-05T12:42:57.000Z</time>
      </trkpt>
      <trkpt lat="43.43290504999458789825439453125" lon="-3.93470280803740024566650390625">
        <ele>20.6000003814697265625</ele>
        <time>2018-09-05T12:42:59.000Z</time>
      </trkpt>
      <trkpt lat="43.43292650766670703887939453125" lon="-3.934798948466777801513671875">
        <ele>19.6000003814697265625</ele>
        <time>2018-09-05T12:43:00.000Z</time>
      </trkpt>
      <trkpt lat="43.432943187654018402099609375" lon="-3.93490615300834178924560546875">
        <ele>18.6000003814697265625</ele>
        <time>2018-09-05T12:43:01.000Z</time>
      </trkpt>
      <trkpt lat="43.43299071304500102996826171875" lon="-3.935114443302154541015625">
        <ele>17</ele>
        <time>2018-09-05T12:43:03.000Z</time>
      </trkpt>
      <trkpt lat="43.43300663866102695465087890625" lon="-3.9352188818156719207763671875">
        <ele>16.3999996185302734375</ele>
        <time>2018-09-05T12:43:04.000Z</time>
      </trkpt>
      <trkpt lat="43.43301401473581790924072265625" lon="-3.935319297015666961669921875">
        <ele>16.200000762939453125</ele>
        <time>2018-09-05T12:43:05.000Z</time>
      </trkpt>
      <trkpt lat="43.43300814740359783172607421875" lon="-3.935595564544200897216796875">
        <ele>16.3999996185302734375</ele>
        <time>2018-09-05T12:43:08.000Z</time>
      </trkpt>
      <trkpt lat="43.43298870138823986053466796875" lon="-3.9357533119618892669677734375">
        <ele>16.6000003814697265625</ele>
        <time>2018-09-05T12:43:10.000Z</time>
      </trkpt>
      <trkpt lat="43.432966656982898712158203125" lon="-3.9359499514102935791015625">
        <ele>17</ele>
        <time>2018-09-05T12:43:13.000Z</time>
      </trkpt>
      <trkpt lat="43.43294620513916015625" lon="-3.93607006408274173736572265625">
        <ele>17.3999996185302734375</ele>
        <time>2018-09-05T12:43:15.000Z</time>
      </trkpt>
      <trkpt lat="43.43291477300226688385009765625" lon="-3.93639310263097286224365234375">
        <ele>18.200000762939453125</ele>
        <time>2018-09-05T12:43:21.000Z</time>
      </trkpt>
      <trkpt lat="43.43290907330811023712158203125" lon="-3.93644792027771472930908203125">
        <ele>18.200000762939453125</ele>
        <time>2018-09-05T12:43:22.000Z</time>
      </trkpt>
      <trkpt lat="43.432895243167877197265625" lon="-3.936720751225948333740234375">
        <ele>17.6000003814697265625</ele>
        <time>2018-09-05T12:43:26.000Z</time>
      </trkpt>
      <trkpt lat="43.43288074247539043426513671875" lon="-3.936809264123439788818359375">
        <ele>17</ele>
        <time>2018-09-05T12:43:27.000Z</time>
      </trkpt>
      <trkpt lat="43.4327946603298187255859375" lon="-3.9370387606322765350341796875">
        <ele>15.6000003814697265625</ele>
        <time>2018-09-05T12:43:30.000Z</time>
      </trkpt>
      <trkpt lat="43.43275970779359340667724609375" lon="-3.93710506148636341094970703125">
        <ele>15.6000003814697265625</ele>
        <time>2018-09-05T12:43:31.000Z</time>
      </trkpt>
      <trkpt lat="43.432703129947185516357421875" lon="-3.93725124187767505645751953125">
        <ele>15.6000003814697265625</ele>
        <time>2018-09-05T12:43:33.000Z</time>
      </trkpt>
      <trkpt lat="43.4326283633708953857421875" lon="-3.9375661499798297882080078125">
        <ele>15.19999980926513671875</ele>
        <time>2018-09-05T12:43:37.000Z</time>
      </trkpt>
      <trkpt lat="43.432644121348857879638671875" lon="-3.93775700591504573822021484375">
        <ele>14.3999996185302734375</ele>
        <time>2018-09-05T12:43:39.000Z</time>
      </trkpt>
      <trkpt lat="43.43264604918658733367919921875" lon="-3.9379547350108623504638671875">
        <ele>13.3999996185302734375</ele>
        <time>2018-09-05T12:43:41.000Z</time>
      </trkpt>
      <trkpt lat="43.43262090347707271575927734375" lon="-3.9381600916385650634765625">
        <ele>12.3999996185302734375</ele>
        <time>2018-09-05T12:43:43.000Z</time>
      </trkpt>
      <trkpt lat="43.43258921988308429718017578125" lon="-3.9383899234235286712646484375">
        <ele>10.6000003814697265625</ele>
        <time>2018-09-05T12:43:45.000Z</time>
      </trkpt>
      <trkpt lat="43.43258150853216648101806640625" lon="-3.9385210163891315460205078125">
        <ele>9.6000003814697265625</ele>
        <time>2018-09-05T12:43:46.000Z</time>
      </trkpt>
      <trkpt lat="43.43257807195186614990234375" lon="-3.93865487538278102874755859375">
        <ele>8.6000003814697265625</ele>
        <time>2018-09-05T12:43:47.000Z</time>
      </trkpt>
      <trkpt lat="43.43256994150578975677490234375" lon="-3.93891756422817707061767578125">
        <ele>6.80000019073486328125</ele>
        <time>2018-09-05T12:43:49.000Z</time>
      </trkpt>
      <trkpt lat="43.43256508000195026397705078125" lon="-3.939358703792095184326171875">
        <ele>6.80000019073486328125</ele>
        <time>2018-09-05T12:43:53.000Z</time>
      </trkpt>
      <trkpt lat="43.4325693547725677490234375" lon="-3.93944478593766689300537109375">
        <ele>7.400000095367431640625</ele>
        <time>2018-09-05T12:43:54.000Z</time>
      </trkpt>
      <trkpt lat="43.43254077248275279998779296875" lon="-3.93990880809724330902099609375">
        <ele>6.400000095367431640625</ele>
        <time>2018-09-05T12:44:00.000Z</time>
      </trkpt>
      <trkpt lat="43.4324689395725727081298828125" lon="-3.9400324411690235137939453125">
        <ele>5.400000095367431640625</ele>
        <time>2018-09-05T12:44:02.000Z</time>
      </trkpt>
      <trkpt lat="43.4324122779071331024169921875" lon="-3.94008818082511425018310546875">
        <ele>4.80000019073486328125</ele>
        <time>2018-09-05T12:44:03.000Z</time>
      </trkpt>
      <trkpt lat="43.432351090013980865478515625" lon="-3.940146602690219879150390625">
        <ele>4.19999980926513671875</ele>
        <time>2018-09-05T12:44:04.000Z</time>
      </trkpt>
      <trkpt lat="43.4322888962924480438232421875" lon="-3.94021122716367244720458984375">
        <ele>3.400000095367431640625</ele>
        <time>2018-09-05T12:44:05.000Z</time>
      </trkpt>
      <trkpt lat="43.43222645111382007598876953125" lon="-3.94027979113161563873291015625">
        <ele>2.7999999523162841796875</ele>
        <time>2018-09-05T12:44:06.000Z</time>
      </trkpt>
      <trkpt lat="43.43217414803802967071533203125" lon="-3.940365202724933624267578125">
        <ele>2.400000095367431640625</ele>
        <time>2018-09-05T12:44:07.000Z</time>
      </trkpt>
      <trkpt lat="43.43213357962667942047119140625" lon="-3.9404572360217571258544921875">
        <ele>2.2000000476837158203125</ele>
        <time>2018-09-05T12:44:08.000Z</time>
      </trkpt>
      <trkpt lat="43.432116396725177764892578125" lon="-3.94055974669754505157470703125">
        <ele>1.7999999523162841796875</ele>
        <time>2018-09-05T12:44:09.000Z</time>
      </trkpt>
      <trkpt lat="43.43211698345839977264404296875" lon="-3.94066452048718929290771484375">
        <ele>1.60000002384185791015625</ele>
        <time>2018-09-05T12:44:10.000Z</time>
      </trkpt>
      <trkpt lat="43.4321965277194976806640625" lon="-3.94088563509285449981689453125">
        <ele>0.800000011920928955078125</ele>
        <time>2018-09-05T12:44:12.000Z</time>
      </trkpt>
      <trkpt lat="43.43223365955054759979248046875" lon="-3.9409977011382579803466796875">
        <ele>0.4000000059604644775390625</ele>
        <time>2018-09-05T12:44:13.000Z</time>
      </trkpt>
      <trkpt lat="43.432281352579593658447265625" lon="-3.9412213303148746490478515625">
        <ele>-0.60000002384185791015625</ele>
        <time>2018-09-05T12:44:15.000Z</time>
      </trkpt>
      <trkpt lat="43.432300128042697906494140625" lon="-3.94133440218865871429443359375">
        <ele>-1</ele>
        <time>2018-09-05T12:44:16.000Z</time>
      </trkpt>
      <trkpt lat="43.43233072198927402496337890625" lon="-3.94155400805175304412841796875">
        <ele>-2</ele>
        <time>2018-09-05T12:44:18.000Z</time>
      </trkpt>
      <trkpt lat="43.43236575834453105926513671875" lon="-3.9420105703175067901611328125">
        <ele>-2.599999904632568359375</ele>
        <time>2018-09-05T12:44:22.000Z</time>
      </trkpt>
      <trkpt lat="43.4323552809655666351318359375" lon="-3.94223880954086780548095703125">
        <ele>-2.7999999523162841796875</ele>
        <time>2018-09-05T12:44:24.000Z</time>
      </trkpt>
      <trkpt lat="43.43236081302165985107421875" lon="-3.9425503648817539215087890625">
        <ele>-3</ele>
        <time>2018-09-05T12:44:27.000Z</time>
      </trkpt>
      <trkpt lat="43.43236475251615047454833984375" lon="-3.942748010158538818359375">
        <ele>-3</ele>
        <time>2018-09-05T12:44:29.000Z</time>
      </trkpt>
      <trkpt lat="43.43233206309378147125244140625" lon="-3.943216390907764434814453125">
        <ele>-3.599999904632568359375</ele>
        <time>2018-09-05T12:44:34.000Z</time>
      </trkpt>
      <trkpt lat="43.43225461430847644805908203125" lon="-3.9437010325491428375244140625">
        <ele>-3.2000000476837158203125</ele>
        <time>2018-09-05T12:44:40.000Z</time>
      </trkpt>
      <trkpt lat="43.43219376169145107269287109375" lon="-3.9441221393644809722900390625">
        <ele>-4</ele>
        <time>2018-09-05T12:44:45.000Z</time>
      </trkpt>
      <trkpt lat="43.43217934481799602508544921875" lon="-3.94420822151005268096923828125">
        <ele>-4</ele>
        <time>2018-09-05T12:44:46.000Z</time>
      </trkpt>
      <trkpt lat="43.43216090463101863861083984375" lon="-3.9442924596369266510009765625">
        <ele>-4</ele>
        <time>2018-09-05T12:44:47.000Z</time>
      </trkpt>
      <trkpt lat="43.43207641504704952239990234375" lon="-3.944618515670299530029296875">
        <ele>-4.599999904632568359375</ele>
        <time>2018-09-05T12:44:51.000Z</time>
      </trkpt>
      <trkpt lat="43.43206384219229221343994140625" lon="-3.944704346358776092529296875">
        <ele>-4.599999904632568359375</ele>
        <time>2018-09-05T12:44:52.000Z</time>
      </trkpt>
      <trkpt lat="43.432079516351222991943359375" lon="-3.9447926916182041168212890625">
        <ele>-4.400000095367431640625</ele>
        <time>2018-09-05T12:44:53.000Z</time>
      </trkpt>
      <trkpt lat="43.4321282990276813507080078125" lon="-3.944942392408847808837890625">
        <ele>-4.400000095367431640625</ele>
        <time>2018-09-05T12:44:55.000Z</time>
      </trkpt>
      <trkpt lat="43.432159312069416046142578125" lon="-3.9450749941170215606689453125">
        <ele>-4</ele>
        <time>2018-09-05T12:44:57.000Z</time>
      </trkpt>
      <trkpt lat="43.43216660432517528533935546875" lon="-3.94513693638145923614501953125">
        <ele>-3.7999999523162841796875</ele>
        <time>2018-09-05T12:44:58.000Z</time>
      </trkpt>
      <trkpt lat="43.432165682315826416015625" lon="-3.945192508399486541748046875">
        <ele>-3.7999999523162841796875</ele>
        <time>2018-09-05T12:44:59.000Z</time>
      </trkpt>
      <trkpt lat="43.43215428292751312255859375" lon="-3.94527859054505825042724609375">
        <ele>-3</ele>
        <time>2018-09-05T12:45:01.000Z</time>
      </trkpt>
      <trkpt lat="43.432147912681102752685546875" lon="-3.945358134806156158447265625">
        <ele>-1.7999999523162841796875</ele>
        <time>2018-09-05T12:45:03.000Z</time>
      </trkpt>
      <trkpt lat="43.43214430846273899078369140625" lon="-3.945400379598140716552734375">
        <ele>-1.7999999523162841796875</ele>
        <time>2018-09-05T12:45:04.000Z</time>
      </trkpt>
      <trkpt lat="43.4321403689682483673095703125" lon="-3.94544404931366443634033203125">
        <ele>-1.60000002384185791015625</ele>
        <time>2018-09-05T12:45:05.000Z</time>
      </trkpt>
      <trkpt lat="43.43211530707776546478271484375" lon="-3.94561772234737873077392578125">
        <ele>-1.39999997615814208984375</ele>
        <time>2018-09-05T12:45:09.000Z</time>
      </trkpt>
      <trkpt lat="43.4320820309221744537353515625" lon="-3.94574244506657123565673828125">
        <ele>-0.800000011920928955078125</ele>
        <time>2018-09-05T12:45:12.000Z</time>
      </trkpt>
      <trkpt lat="43.4320538677275180816650390625" lon="-3.9459182135760784149169921875">
        <ele>-0.60000002384185791015625</ele>
        <time>2018-09-05T12:45:17.000Z</time>
      </trkpt>
      <trkpt lat="43.43206836842000484466552734375" lon="-3.94594595767557621002197265625">
        <ele>-0.4000000059604644775390625</ele>
        <time>2018-09-05T12:45:18.000Z</time>
      </trkpt>
      <trkpt lat="43.4321531094610691070556640625" lon="-3.94599817693233489990234375">
        <ele>-0.800000011920928955078125</ele>
        <time>2018-09-05T12:45:21.000Z</time>
      </trkpt>
      <trkpt lat="43.4321802668273448944091796875" lon="-3.9460238255560398101806640625">
        <ele>-1.2000000476837158203125</ele>
        <time>2018-09-05T12:45:22.000Z</time>
      </trkpt>
      <trkpt lat="43.43223198316991329193115234375" lon="-3.94606900401413440704345703125">
        <ele>-2.400000095367431640625</ele>
        <time>2018-09-05T12:45:24.000Z</time>
      </trkpt>
      <trkpt lat="43.4322607330977916717529296875" lon="-3.94610135816037654876708984375">
        <ele>-3.2000000476837158203125</ele>
        <time>2018-09-05T12:45:26.000Z</time>
      </trkpt>
      <trkpt lat="43.43226936645805835723876953125" lon="-3.9461128413677215576171875">
        <ele>-3.400000095367431640625</ele>
        <time>2018-09-05T12:45:27.000Z</time>
      </trkpt>
      <trkpt lat="43.43229870311915874481201171875" lon="-3.94615768454968929290771484375">
        <ele>-4</ele>
        <time>2018-09-05T12:45:30.000Z</time>
      </trkpt>
      <trkpt lat="43.4323006309568881988525390625" lon="-3.94619003869593143463134765625">
        <ele>-4.19999980926513671875</ele>
        <time>2018-09-05T12:45:31.000Z</time>
      </trkpt>
      <trkpt lat="43.43228495679795742034912109375" lon="-3.94625055603682994842529296875">
        <ele>-4.599999904632568359375</ele>
        <time>2018-09-05T12:45:33.000Z</time>
      </trkpt>
      <trkpt lat="43.4322717972099781036376953125" lon="-3.9462806470692157745361328125">
        <ele>-4.599999904632568359375</ele>
        <time>2018-09-05T12:45:34.000Z</time>
      </trkpt>
      <trkpt lat="43.4322479926049709320068359375" lon="-3.9463477022945880889892578125">
        <ele>-4</ele>
        <time>2018-09-05T12:45:36.000Z</time>
      </trkpt>
      <trkpt lat="43.4322261996567249298095703125" lon="-3.94641852937638759613037109375">
        <ele>-3.400000095367431640625</ele>
        <time>2018-09-05T12:45:38.000Z</time>
      </trkpt>
      <trkpt lat="43.4321624971926212310791015625" lon="-3.9466330222785472869873046875">
        <ele>-2.400000095367431640625</ele>
        <time>2018-09-05T12:45:44.000Z</time>
      </trkpt>
      <trkpt lat="43.4321521036326885223388671875" lon="-3.94666931591928005218505859375">
        <ele>-2.2000000476837158203125</ele>
        <time>2018-09-05T12:45:45.000Z</time>
      </trkpt>
      <trkpt lat="43.43206107616424560546875" lon="-3.94699872471392154693603515625">
        <ele>-1.2000000476837158203125</ele>
        <time>2018-09-05T12:45:54.000Z</time>
      </trkpt>
      <trkpt lat="43.43199527822434902191162109375" lon="-3.9472412131726741790771484375">
        <ele>-0.4000000059604644775390625</ele>
        <time>2018-09-05T12:46:01.000Z</time>
      </trkpt>
      <trkpt lat="43.4319807775318622589111328125" lon="-3.94730483181774616241455078125">
        <ele>-0.20000000298023223876953125</ele>
        <time>2018-09-05T12:46:03.000Z</time>
      </trkpt>
      <trkpt lat="43.4319385327398777008056640625" lon="-3.94748948514461517333984375">
        <ele>0.800000011920928955078125</ele>
        <time>2018-09-05T12:46:09.000Z</time>
      </trkpt>
      <trkpt lat="43.43193031847476959228515625" lon="-3.947516977787017822265625">
        <ele>1.2000000476837158203125</ele>
        <time>2018-09-05T12:46:10.000Z</time>
      </trkpt>
      <trkpt lat="43.4319150634109973907470703125" lon="-3.9475728012621402740478515625">
        <ele>1.7999999523162841796875</ele>
        <time>2018-09-05T12:46:12.000Z</time>
      </trkpt>
      <trkpt lat="43.43188337981700897216796875" lon="-3.94768738187849521636962890625">
        <ele>2.400000095367431640625</ele>
        <time>2018-09-05T12:46:16.000Z</time>
      </trkpt>
      <trkpt lat="43.43184473924338817596435546875" lon="-3.947820402681827545166015625">
        <ele>3</ele>
        <time>2018-09-05T12:46:21.000Z</time>
      </trkpt>
      <trkpt lat="43.4318372793495655059814453125" lon="-3.9478473924100399017333984375">
        <ele>3.400000095367431640625</ele>
        <time>2018-09-05T12:46:22.000Z</time>
      </trkpt>
      <trkpt lat="43.4317933581769466400146484375" lon="-3.94795711152255535125732421875">
        <ele>4.19999980926513671875</ele>
        <time>2018-09-05T12:46:26.000Z</time>
      </trkpt>
      <trkpt lat="43.431763350963592529296875" lon="-3.94800656475126743316650390625">
        <ele>4.599999904632568359375</ele>
        <time>2018-09-05T12:46:28.000Z</time>
      </trkpt>
      <trkpt lat="43.43166301958262920379638671875" lon="-3.94811100326478481292724609375">
        <ele>5.599999904632568359375</ele>
        <time>2018-09-05T12:46:33.000Z</time>
      </trkpt>
      <trkpt lat="43.43148247338831424713134765625" lon="-3.94815224222838878631591796875">
        <ele>6.599999904632568359375</ele>
        <time>2018-09-05T12:46:40.000Z</time>
      </trkpt>
      <trkpt lat="43.43145213089883327484130859375" lon="-3.94814402796328067779541015625">
        <ele>6.80000019073486328125</ele>
        <time>2018-09-05T12:46:41.000Z</time>
      </trkpt>
      <trkpt lat="43.4312408231198787689208984375" lon="-3.94808602519333362579345703125">
        <ele>6.80000019073486328125</ele>
        <time>2018-09-05T12:46:47.000Z</time>
      </trkpt>
      <trkpt lat="43.43099531717598438262939453125" lon="-3.9480183832347393035888671875">
        <ele>7</ele>
        <time>2018-09-05T12:46:53.000Z</time>
      </trkpt>
      <trkpt lat="43.43079306185245513916015625" lon="-3.94796046428382396697998046875">
        <ele>7.19999980926513671875</ele>
        <time>2018-09-05T12:46:58.000Z</time>
      </trkpt>
      <trkpt lat="43.43061863444745540618896484375" lon="-3.9478614740073680877685546875">
        <ele>7.400000095367431640625</ele>
        <time>2018-09-05T12:47:03.000Z</time>
      </trkpt>
      <trkpt lat="43.430518805980682373046875" lon="-3.94786289893090724945068359375">
        <ele>7.599999904632568359375</ele>
        <time>2018-09-05T12:47:07.000Z</time>
      </trkpt>
      <trkpt lat="43.43053582124412059783935546875" lon="-3.94792475737631320953369140625">
        <ele>7.19999980926513671875</ele>
        <time>2018-09-05T12:47:48.000Z</time>
      </trkpt>
      <trkpt lat="43.4305370785295963287353515625" lon="-3.947970606386661529541015625">
        <ele>7</ele>
        <time>2018-09-05T12:47:49.000Z</time>
      </trkpt>
      <trkpt lat="43.4305189736187458038330078125" lon="-3.9481531642377376556396484375">
        <ele>5.19999980926513671875</ele>
        <time>2018-09-05T12:47:52.000Z</time>
      </trkpt>
      <trkpt lat="43.430506400763988494873046875" lon="-3.94822265021502971649169921875">
        <ele>4.400000095367431640625</ele>
        <time>2018-09-05T12:47:53.000Z</time>
      </trkpt>
      <trkpt lat="43.4304955042898654937744140625" lon="-3.9482975006103515625">
        <ele>2.7999999523162841796875</ele>
        <time>2018-09-05T12:47:54.000Z</time>
      </trkpt>
      <trkpt lat="43.430480249226093292236328125" lon="-3.9484478719532489776611328125">
        <ele>1.2000000476837158203125</ele>
        <time>2018-09-05T12:47:56.000Z</time>
      </trkpt>
      <trkpt lat="43.4304653294384479522705078125" lon="-3.94858893938362598419189453125">
        <ele>0</ele>
        <time>2018-09-05T12:47:58.000Z</time>
      </trkpt>
      <trkpt lat="43.43046021647751331329345703125" lon="-3.9486671425402164459228515625">
        <ele>-0.4000000059604644775390625</ele>
        <time>2018-09-05T12:47:59.000Z</time>
      </trkpt>
      <trkpt lat="43.43046046793460845947265625" lon="-3.94874970428645610809326171875">
        <ele>-0.800000011920928955078125</ele>
        <time>2018-09-05T12:48:00.000Z</time>
      </trkpt>
      <trkpt lat="43.43046222813427448272705078125" lon="-3.94883737899363040924072265625">
        <ele>-1.2000000476837158203125</ele>
        <time>2018-09-05T12:48:01.000Z</time>
      </trkpt>
      <trkpt lat="43.43046088702976703643798828125" lon="-3.94892773590981960296630859375">
        <ele>-1.60000002384185791015625</ele>
        <time>2018-09-05T12:48:02.000Z</time>
      </trkpt>
      <trkpt lat="43.4304515831172466278076171875" lon="-3.94911465235054492950439453125">
        <ele>-2.400000095367431640625</ele>
        <time>2018-09-05T12:48:04.000Z</time>
      </trkpt>
      <trkpt lat="43.43045166693627834320068359375" lon="-3.94928782247006893157958984375">
        <ele>-3.2000000476837158203125</ele>
        <time>2018-09-05T12:48:06.000Z</time>
      </trkpt>
      <trkpt lat="43.43045183457434177398681640625" lon="-3.9493651874363422393798828125">
        <ele>-3.599999904632568359375</ele>
        <time>2018-09-05T12:48:07.000Z</time>
      </trkpt>
      <trkpt lat="43.43045300804078578948974609375" lon="-3.949522934854030609130859375">
        <ele>-4.19999980926513671875</ele>
        <time>2018-09-05T12:48:09.000Z</time>
      </trkpt>
      <trkpt lat="43.430454097688198089599609375" lon="-3.94968730397522449493408203125">
        <ele>-5</ele>
        <time>2018-09-05T12:48:11.000Z</time>
      </trkpt>
      <trkpt lat="43.43048351816833019256591796875" lon="-3.95010841079056262969970703125">
        <ele>-6</ele>
        <time>2018-09-05T12:48:16.000Z</time>
      </trkpt>
      <trkpt lat="43.43049156479537487030029296875" lon="-3.95019306801259517669677734375">
        <ele>-6.19999980926513671875</ele>
        <time>2018-09-05T12:48:17.000Z</time>
      </trkpt>
      <trkpt lat="43.43049927614629268646240234375" lon="-3.9503666572272777557373046875">
        <ele>-6.400000095367431640625</ele>
        <time>2018-09-05T12:48:19.000Z</time>
      </trkpt>
      <trkpt lat="43.43050916679203510284423828125" lon="-3.95072112791240215301513671875">
        <ele>-7</ele>
        <time>2018-09-05T12:48:23.000Z</time>
      </trkpt>
      <trkpt lat="43.43050581403076648712158203125" lon="-3.9508088864386081695556640625">
        <ele>-7.19999980926513671875</ele>
        <time>2018-09-05T12:48:24.000Z</time>
      </trkpt>
      <trkpt lat="43.43049357645213603973388671875" lon="-3.950895555317401885986328125">
        <ele>-7.400000095367431640625</ele>
        <time>2018-09-05T12:48:25.000Z</time>
      </trkpt>
      <trkpt lat="43.43043071217834949493408203125" lon="-3.951159417629241943359375">
        <ele>-7.80000019073486328125</ele>
        <time>2018-09-05T12:48:28.000Z</time>
      </trkpt>
      <trkpt lat="43.4304043091833591461181640625" lon="-3.95124700851738452911376953125">
        <ele>-8.19999980926513671875</ele>
        <time>2018-09-05T12:48:29.000Z</time>
      </trkpt>
      <trkpt lat="43.4302886389195919036865234375" lon="-3.9515692926943302154541015625">
        <ele>-8.6000003814697265625</ele>
        <time>2018-09-05T12:48:33.000Z</time>
      </trkpt>
      <trkpt lat="43.430093340575695037841796875" lon="-3.952146805822849273681640625">
        <ele>-8.6000003814697265625</ele>
        <time>2018-09-05T12:48:41.000Z</time>
      </trkpt>
      <trkpt lat="43.42998647131025791168212890625" lon="-3.95246758125722408294677734375">
        <ele>-7.80000019073486328125</ele>
        <time>2018-09-05T12:48:46.000Z</time>
      </trkpt>
      <trkpt lat="43.4299483336508274078369140625" lon="-3.95258157514035701751708984375">
        <ele>-7.400000095367431640625</ele>
        <time>2018-09-05T12:48:48.000Z</time>
      </trkpt>
      <trkpt lat="43.429890833795070648193359375" lon="-3.9527444355189800262451171875">
        <ele>-7.19999980926513671875</ele>
        <time>2018-09-05T12:48:51.000Z</time>
      </trkpt>
      <trkpt lat="43.42983325012028217315673828125" lon="-3.95293747074902057647705078125">
        <ele>-6.599999904632568359375</ele>
        <time>2018-09-05T12:48:55.000Z</time>
      </trkpt>
      <trkpt lat="43.429820425808429718017578125" lon="-3.9529774524271488189697265625">
        <ele>-6.400000095367431640625</ele>
        <time>2018-09-05T12:48:56.000Z</time>
      </trkpt>
      <trkpt lat="43.429764769971370697021484375" lon="-3.95311181433498859405517578125">
        <ele>-6.19999980926513671875</ele>
        <time>2018-09-05T12:49:00.000Z</time>
      </trkpt>
      <trkpt lat="43.42973786406219005584716796875" lon="-3.95316830836236476898193359375">
        <ele>-5.400000095367431640625</ele>
        <time>2018-09-05T12:49:02.000Z</time>
      </trkpt>
      <trkpt lat="43.4297233633697032928466796875" lon="-3.95319194532930850982666015625">
        <ele>-5</ele>
        <time>2018-09-05T12:49:03.000Z</time>
      </trkpt>
      <trkpt lat="43.42969737946987152099609375" lon="-3.95324525423347949981689453125">
        <ele>-4.599999904632568359375</ele>
        <time>2018-09-05T12:49:05.000Z</time>
      </trkpt>
      <trkpt lat="43.42966921627521514892578125" lon="-3.95329655148088932037353515625">
        <ele>-4</ele>
        <time>2018-09-05T12:49:07.000Z</time>
      </trkpt>
      <trkpt lat="43.42964180745184421539306640625" lon="-3.95334265194833278656005859375">
        <ele>-3.599999904632568359375</ele>
        <time>2018-09-05T12:49:09.000Z</time>
      </trkpt>
      <trkpt lat="43.42960643582046031951904296875" lon="-3.95340618677437305450439453125">
        <ele>-2.7999999523162841796875</ele>
        <time>2018-09-05T12:49:12.000Z</time>
      </trkpt>
      <trkpt lat="43.429574333131313323974609375" lon="-3.953449688851833343505859375">
        <ele>-2</ele>
        <time>2018-09-05T12:49:15.000Z</time>
      </trkpt>
      <trkpt lat="43.4295637719333171844482421875" lon="-3.9534612558782100677490234375">
        <ele>-1.7999999523162841796875</ele>
        <time>2018-09-05T12:49:16.000Z</time>
      </trkpt>
      <trkpt lat="43.42952513135969638824462890625" lon="-3.95350945182144641876220703125">
        <ele>-1</ele>
        <time>2018-09-05T12:49:20.000Z</time>
      </trkpt>
      <trkpt lat="43.4295067749917507171630859375" lon="-3.95353107713162899017333984375">
        <ele>-0.60000002384185791015625</ele>
        <time>2018-09-05T12:49:22.000Z</time>
      </trkpt>
      <trkpt lat="43.42948774807155132293701171875" lon="-3.95355370827019214630126953125">
        <ele>-0.20000000298023223876953125</ele>
        <time>2018-09-05T12:49:24.000Z</time>
      </trkpt>
      <trkpt lat="43.42943661846220493316650390625" lon="-3.95358237437903881072998046875">
        <ele>0.4000000059604644775390625</ele>
        <time>2018-09-05T12:49:28.000Z</time>
      </trkpt>
      <trkpt lat="43.42935380525887012481689453125" lon="-3.95360433496534824371337890625">
        <ele>1.60000002384185791015625</ele>
        <time>2018-09-05T12:49:34.000Z</time>
      </trkpt>
      <trkpt lat="43.4292881749570369720458984375" lon="-3.953600227832794189453125">
        <ele>2.400000095367431640625</ele>
        <time>2018-09-05T12:49:39.000Z</time>
      </trkpt>
      <trkpt lat="43.42927836813032627105712890625" lon="-3.953611291944980621337890625">
        <ele>2.599999904632568359375</ele>
        <time>2018-09-05T12:49:40.000Z</time>
      </trkpt>
      <trkpt lat="43.42926898039877414703369140625" lon="-3.953621685504913330078125">
        <ele>2.599999904632568359375</ele>
        <time>2018-09-05T12:49:41.000Z</time>
      </trkpt>
      <trkpt lat="43.42923293821513652801513671875" lon="-3.9536406286060810089111328125">
        <ele>3.2000000476837158203125</ele>
        <time>2018-09-05T12:49:44.000Z</time>
      </trkpt>
      <trkpt lat="43.429207541048526763916015625" lon="-3.95365362055599689483642578125">
        <ele>3.400000095367431640625</ele>
        <time>2018-09-05T12:49:46.000Z</time>
      </trkpt>
      <trkpt lat="43.42919387854635715484619140625" lon="-3.9536600746214389801025390625">
        <ele>3.599999904632568359375</ele>
        <time>2018-09-05T12:49:47.000Z</time>
      </trkpt>
      <trkpt lat="43.42911827377974987030029296875" lon="-3.95368136465549468994140625">
        <ele>4.400000095367431640625</ele>
        <time>2018-09-05T12:49:52.000Z</time>
      </trkpt>
      <trkpt lat="43.42910570092499256134033203125" lon="-3.95368480123579502105712890625">
        <ele>4.400000095367431640625</ele>
        <time>2018-09-05T12:49:53.000Z</time>
      </trkpt>
      <trkpt lat="43.42909228987991809844970703125" lon="-3.95368848927319049835205078125">
        <ele>4.80000019073486328125</ele>
        <time>2018-09-05T12:49:54.000Z</time>
      </trkpt>
      <trkpt lat="43.42907703481614589691162109375" lon="-3.953692428767681121826171875">
        <ele>5</ele>
        <time>2018-09-05T12:49:55.000Z</time>
      </trkpt>
      <trkpt lat="43.4289689920842647552490234375" lon="-3.95370961166918277740478515625">
        <ele>5.80000019073486328125</ele>
        <time>2018-09-05T12:50:02.000Z</time>
      </trkpt>
      <trkpt lat="43.4288549982011318206787109375" lon="-3.95371480844914913177490234375">
        <ele>6.80000019073486328125</ele>
        <time>2018-09-05T12:50:09.000Z</time>
      </trkpt>
      <trkpt lat="43.42878676950931549072265625" lon="-3.95371464081108570098876953125">
        <ele>7.599999904632568359375</ele>
        <time>2018-09-05T12:50:13.000Z</time>
      </trkpt>
      <trkpt lat="43.42873924411833286285400390625" lon="-3.9537130482494831085205078125">
        <ele>8</ele>
        <time>2018-09-05T12:50:16.000Z</time>
      </trkpt>
      <trkpt lat="43.42866414226591587066650390625" lon="-3.953711874783039093017578125">
        <ele>9</ele>
        <time>2018-09-05T12:50:21.000Z</time>
      </trkpt>
      <trkpt lat="43.428630530834197998046875" lon="-3.9537093602120876312255859375">
        <ele>9.19999980926513671875</ele>
        <time>2018-09-05T12:50:23.000Z</time>
      </trkpt>
      <trkpt lat="43.42853254638612270355224609375" lon="-3.953686058521270751953125">
        <ele>10.19999980926513671875</ele>
        <time>2018-09-05T12:50:29.000Z</time>
      </trkpt>
      <trkpt lat="43.42846758663654327392578125" lon="-3.95367600023746490478515625">
        <ele>11</ele>
        <time>2018-09-05T12:50:33.000Z</time>
      </trkpt>
      <trkpt lat="43.428433053195476531982421875" lon="-3.9536704681813716888427734375">
        <ele>11.19999980926513671875</ele>
        <time>2018-09-05T12:50:35.000Z</time>
      </trkpt>
      <trkpt lat="43.428339846432209014892578125" lon="-3.95368295721709728240966796875">
        <ele>12</ele>
        <time>2018-09-05T12:50:41.000Z</time>
      </trkpt>
      <trkpt lat="43.42832400463521480560302734375" lon="-3.9536852203309535980224609375">
        <ele>12.3999996185302734375</ele>
        <time>2018-09-05T12:50:42.000Z</time>
      </trkpt>
      <trkpt lat="43.428225852549076080322265625" lon="-3.9536879025399684906005859375">
        <ele>13.3999996185302734375</ele>
        <time>2018-09-05T12:50:48.000Z</time>
      </trkpt>
      <trkpt lat="43.42809400521218776702880859375" lon="-3.95367977209389209747314453125">
        <ele>14.6000003814697265625</ele>
        <time>2018-09-05T12:50:55.000Z</time>
      </trkpt>
      <trkpt lat="43.4280754812061786651611328125" lon="-3.9536788500845432281494140625">
        <ele>14.80000019073486328125</ele>
        <time>2018-09-05T12:50:56.000Z</time>
      </trkpt>
      <trkpt lat="43.42798587866127490997314453125" lon="-3.95366535522043704986572265625">
        <ele>15.6000003814697265625</ele>
        <time>2018-09-05T12:51:01.000Z</time>
      </trkpt>
      <trkpt lat="43.42796735465526580810546875" lon="-3.953662253916263580322265625">
        <ele>15.80000019073486328125</ele>
        <time>2018-09-05T12:51:02.000Z</time>
      </trkpt>
      <trkpt lat="43.42789518646895885467529296875" lon="-3.95365093834698200225830078125">
        <ele>16.799999237060546875</ele>
        <time>2018-09-05T12:51:06.000Z</time>
      </trkpt>
      <trkpt lat="43.42780432663857936859130859375" lon="-3.95363953895866870880126953125">
        <ele>17.6000003814697265625</ele>
        <time>2018-09-05T12:51:11.000Z</time>
      </trkpt>
      <trkpt lat="43.42778538353741168975830078125" lon="-3.95363870076835155487060546875">
        <ele>17.799999237060546875</ele>
        <time>2018-09-05T12:51:12.000Z</time>
      </trkpt>
      <trkpt lat="43.42766518704593181610107421875" lon="-3.95363199524581432342529296875">
        <ele>19</ele>
        <time>2018-09-05T12:51:19.000Z</time>
      </trkpt>
      <trkpt lat="43.42763266526162624359130859375" lon="-3.9536245353519916534423828125">
        <ele>19.200000762939453125</ele>
        <time>2018-09-05T12:51:21.000Z</time>
      </trkpt>
      <trkpt lat="43.42753820121288299560546875" lon="-3.9536148123443126678466796875">
        <ele>20.200000762939453125</ele>
        <time>2018-09-05T12:51:26.000Z</time>
      </trkpt>
      <trkpt lat="43.42751934193074703216552734375" lon="-3.9536101184785366058349609375">
        <ele>20.200000762939453125</ele>
        <time>2018-09-05T12:51:27.000Z</time>
      </trkpt>
      <trkpt lat="43.427420519292354583740234375" lon="-3.95355203188955783843994140625">
        <ele>21.200000762939453125</ele>
        <time>2018-09-05T12:51:33.000Z</time>
      </trkpt>
      <trkpt lat="43.42738456092774868011474609375" lon="-3.9535400457680225372314453125">
        <ele>21.6000003814697265625</ele>
        <time>2018-09-05T12:51:35.000Z</time>
      </trkpt>
      <trkpt lat="43.4273030050098896026611328125" lon="-3.95349352620542049407958984375">
        <ele>22.3999996185302734375</ele>
        <time>2018-09-05T12:51:40.000Z</time>
      </trkpt>
      <trkpt lat="43.4272724948823451995849609375" lon="-3.95346418954432010650634765625">
        <ele>22.6000003814697265625</ele>
        <time>2018-09-05T12:51:42.000Z</time>
      </trkpt>
      <trkpt lat="43.42717752791941165924072265625" lon="-3.95341305993497371673583984375">
        <ele>23.6000003814697265625</ele>
        <time>2018-09-05T12:51:47.000Z</time>
      </trkpt>
      <trkpt lat="43.42713721096515655517578125" lon="-3.95340249873697757720947265625">
        <ele>23.799999237060546875</ele>
        <time>2018-09-05T12:51:49.000Z</time>
      </trkpt>
      <trkpt lat="43.42704090289771556854248046875" lon="-3.95337584428489208221435546875">
        <ele>24.799999237060546875</ele>
        <time>2018-09-05T12:51:54.000Z</time>
      </trkpt>
      <trkpt lat="43.42699631117284297943115234375" lon="-3.95336712710559368133544921875">
        <ele>25.200000762939453125</ele>
        <time>2018-09-05T12:51:56.000Z</time>
      </trkpt>
      <trkpt lat="43.4269152581691741943359375" lon="-3.953350447118282318115234375">
        <ele>25.799999237060546875</ele>
        <time>2018-09-05T12:52:00.000Z</time>
      </trkpt>
      <trkpt lat="43.42687644995748996734619140625" lon="-3.953337036073207855224609375">
        <ele>26.200000762939453125</ele>
        <time>2018-09-05T12:52:02.000Z</time>
      </trkpt>
      <trkpt lat="43.42670478858053684234619140625" lon="-3.95327324979007244110107421875">
        <ele>26.799999237060546875</ele>
        <time>2018-09-05T12:52:09.000Z</time>
      </trkpt>
      <trkpt lat="43.42664770781993865966796875" lon="-3.9532604254782199859619140625">
        <ele>27</ele>
        <time>2018-09-05T12:52:11.000Z</time>
      </trkpt>
      <trkpt lat="43.4265317022800445556640625" lon="-3.95321977324783802032470703125">
        <ele>26.6000003814697265625</ele>
        <time>2018-09-05T12:52:14.000Z</time>
      </trkpt>
      <trkpt lat="43.42642315663397312164306640625" lon="-3.9531665481626987457275390625">
        <ele>25.6000003814697265625</ele>
        <time>2018-09-05T12:52:16.000Z</time>
      </trkpt>
      <trkpt lat="43.426292650401592254638671875" lon="-3.95308054983615875244140625">
        <ele>23</ele>
        <time>2018-09-05T12:52:18.000Z</time>
      </trkpt>
      <trkpt lat="43.42596718110144138336181640625" lon="-3.9529171027243137359619140625">
        <ele>23.3999996185302734375</ele>
        <time>2018-09-05T12:52:23.000Z</time>
      </trkpt>
      <trkpt lat="43.42586257494986057281494140625" lon="-3.95285180769860744476318359375">
        <ele>23.6000003814697265625</ele>
        <time>2018-09-05T12:52:25.000Z</time>
      </trkpt>
      <trkpt lat="43.42578269541263580322265625" lon="-3.952767737209796905517578125">
        <ele>24</ele>
        <time>2018-09-05T12:52:27.000Z</time>
      </trkpt>
      <trkpt lat="43.42569057829678058624267578125" lon="-3.95255676470696926116943359375">
        <ele>24.6000003814697265625</ele>
        <time>2018-09-05T12:52:31.000Z</time>
      </trkpt>
      <trkpt lat="43.42565420083701610565185546875" lon="-3.95240304060280323028564453125">
        <ele>24.799999237060546875</ele>
        <time>2018-09-05T12:52:34.000Z</time>
      </trkpt>
      <trkpt lat="43.4256453998386859893798828125" lon="-3.95235442556440830230712890625">
        <ele>25.200000762939453125</ele>
        <time>2018-09-05T12:52:35.000Z</time>
      </trkpt>
      <trkpt lat="43.425625450909137725830078125" lon="-3.9522690139710903167724609375">
        <ele>25.6000003814697265625</ele>
        <time>2018-09-05T12:52:37.000Z</time>
      </trkpt>
      <trkpt lat="43.42558865435421466827392578125" lon="-3.952187709510326385498046875">
        <ele>26.3999996185302734375</ele>
        <time>2018-09-05T12:52:40.000Z</time>
      </trkpt>
      <trkpt lat="43.42556250281631946563720703125" lon="-3.95215518772602081298828125">
        <ele>27</ele>
        <time>2018-09-05T12:52:42.000Z</time>
      </trkpt>
      <trkpt lat="43.42554992996156215667724609375" lon="-3.9521419443190097808837890625">
        <ele>27.6000003814697265625</ele>
        <time>2018-09-05T12:52:43.000Z</time>
      </trkpt>
      <trkpt lat="43.4255015663802623748779296875" lon="-3.95209609530866146087646484375">
        <ele>28.799999237060546875</ele>
        <time>2018-09-05T12:52:47.000Z</time>
      </trkpt>
      <trkpt lat="43.42547616921365261077880859375" lon="-3.952054269611835479736328125">
        <ele>29.799999237060546875</ele>
        <time>2018-09-05T12:52:50.000Z</time>
      </trkpt>
      <trkpt lat="43.42547130770981311798095703125" lon="-3.9520383439958095550537109375">
        <ele>30</ele>
        <time>2018-09-05T12:52:51.000Z</time>
      </trkpt>
      <trkpt lat="43.4254636801779270172119140625" lon="-3.9520044811069965362548828125">
        <ele>30.6000003814697265625</ele>
        <time>2018-09-05T12:52:53.000Z</time>
      </trkpt>
      <trkpt lat="43.42546510510146617889404296875" lon="-3.95196198485791683197021484375">
        <ele>31</ele>
        <time>2018-09-05T12:52:55.000Z</time>
      </trkpt>
      <trkpt lat="43.42546527273952960968017578125" lon="-3.9519391022622585296630859375">
        <ele>31.200000762939453125</ele>
        <time>2018-09-05T12:52:56.000Z</time>
      </trkpt>
      <trkpt lat="43.42546351253986358642578125" lon="-3.9519146271049976348876953125">
        <ele>31.200000762939453125</ele>
        <time>2018-09-05T12:52:57.000Z</time>
      </trkpt>
      <trkpt lat="43.42546124942600727081298828125" lon="-3.95189023576676845550537109375">
        <ele>31.200000762939453125</ele>
        <time>2018-09-05T12:52:58.000Z</time>
      </trkpt>
      <trkpt lat="43.4254251234233379364013671875" lon="-3.95170725882053375244140625">
        <ele>31.3999996185302734375</ele>
        <time>2018-09-05T12:53:05.000Z</time>
      </trkpt>
      <trkpt lat="43.42538975179195404052734375" lon="-3.95162184722721576690673828125">
        <ele>32.200000762939453125</ele>
        <time>2018-09-05T12:53:09.000Z</time>
      </trkpt>
      <trkpt lat="43.4253456629812717437744140625" lon="-3.95155370235443115234375">
        <ele>33</ele>
        <time>2018-09-05T12:53:13.000Z</time>
      </trkpt>
      <trkpt lat="43.4253221936523914337158203125" lon="-3.95152864046394824981689453125">
        <ele>33.200000762939453125</ele>
        <time>2018-09-05T12:53:15.000Z</time>
      </trkpt>
      <trkpt lat="43.42528112232685089111328125" lon="-3.9514841325581073760986328125">
        <ele>34.200000762939453125</ele>
        <time>2018-09-05T12:53:19.000Z</time>
      </trkpt>
      <trkpt lat="43.4252719022333621978759765625" lon="-3.9514693804085254669189453125">
        <ele>34.40000152587890625</ele>
        <time>2018-09-05T12:53:20.000Z</time>
      </trkpt>
      <trkpt lat="43.425259999930858612060546875" lon="-3.951456807553768157958984375">
        <ele>34.59999847412109375</ele>
        <time>2018-09-05T12:53:21.000Z</time>
      </trkpt>
      <trkpt lat="43.425220437347888946533203125" lon="-3.951388411223888397216796875">
        <ele>35.40000152587890625</ele>
        <time>2018-09-05T12:53:25.000Z</time>
      </trkpt>
      <trkpt lat="43.425202667713165283203125" lon="-3.95135194994509220123291015625">
        <ele>35.799999237060546875</ele>
        <time>2018-09-05T12:53:27.000Z</time>
      </trkpt>
      <trkpt lat="43.4251558966934680938720703125" lon="-3.95127718336880207061767578125">
        <ele>36.59999847412109375</ele>
        <time>2018-09-05T12:53:31.000Z</time>
      </trkpt>
      <trkpt lat="43.425125218927860260009765625" lon="-3.9512460865080356597900390625">
        <ele>37</ele>
        <time>2018-09-05T12:53:33.000Z</time>
      </trkpt>
      <trkpt lat="43.42506495304405689239501953125" lon="-3.95116553641855716705322265625">
        <ele>37.59999847412109375</ele>
        <time>2018-09-05T12:53:37.000Z</time>
      </trkpt>
      <trkpt lat="43.425004184246063232421875" lon="-3.95107450895011425018310546875">
        <ele>38.200000762939453125</ele>
        <time>2018-09-05T12:53:41.000Z</time>
      </trkpt>
      <trkpt lat="43.42490033246576786041259765625" lon="-3.95092539489269256591796875">
        <ele>38.59999847412109375</ele>
        <time>2018-09-05T12:53:47.000Z</time>
      </trkpt>
      <trkpt lat="43.42488172464072704315185546875" lon="-3.95089932717382907867431640625">
        <ele>38.799999237060546875</ele>
        <time>2018-09-05T12:53:48.000Z</time>
      </trkpt>
      <trkpt lat="43.4247840754687786102294921875" lon="-3.9507827349007129669189453125">
        <ele>39.59999847412109375</ele>
        <time>2018-09-05T12:53:53.000Z</time>
      </trkpt>
      <trkpt lat="43.4247368015348911285400390625" lon="-3.95072154700756072998046875">
        <ele>40.200000762939453125</ele>
        <time>2018-09-05T12:53:56.000Z</time>
      </trkpt>
      <trkpt lat="43.42461568303406238555908203125" lon="-3.95057402551174163818359375">
        <ele>40.799999237060546875</ele>
        <time>2018-09-05T12:54:03.000Z</time>
      </trkpt>
      <trkpt lat="43.42460277490317821502685546875" lon="-3.95054586231708526611328125">
        <ele>40.799999237060546875</ele>
        <time>2018-09-05T12:54:04.000Z</time>
      </trkpt>
      <trkpt lat="43.42448928393423557281494140625" lon="-3.95038627088069915771484375">
        <ele>41.40000152587890625</ele>
        <time>2018-09-05T12:54:10.000Z</time>
      </trkpt>
      <trkpt lat="43.4243770502507686614990234375" lon="-3.95021586678922176361083984375">
        <ele>41.799999237060546875</ele>
        <time>2018-09-05T12:54:16.000Z</time>
      </trkpt>
      <trkpt lat="43.42435802333056926727294921875" lon="-3.95018435083329677581787109375">
        <ele>41.799999237060546875</ele>
        <time>2018-09-05T12:54:17.000Z</time>
      </trkpt>
      <trkpt lat="43.42430052347481250762939453125" lon="-3.9501014538109302520751953125">
        <ele>41.59999847412109375</ele>
        <time>2018-09-05T12:54:20.000Z</time>
      </trkpt>
      <trkpt lat="43.4242979250848293304443359375" lon="-3.95007119514048099517822265625">
        <ele>41.59999847412109375</ele>
        <time>2018-09-05T12:54:21.000Z</time>
      </trkpt>
      <trkpt lat="43.42430991120636463165283203125" lon="-3.95004697144031524658203125">
        <ele>41.59999847412109375</ele>
        <time>2018-09-05T12:54:22.000Z</time>
      </trkpt>
      <trkpt lat="43.42437964864075183868408203125" lon="-3.95005275495350360870361328125">
        <ele>41.59999847412109375</ele>
        <time>2018-09-05T12:54:25.000Z</time>
      </trkpt>
      <trkpt lat="43.42446229420602321624755859375" lon="-3.95018384791910648345947265625">
        <ele>40.59999847412109375</ele>
        <time>2018-09-05T12:54:29.000Z</time>
      </trkpt>
      <trkpt lat="43.42454091645777225494384765625" lon="-3.9503009431064128875732421875">
        <ele>40.59999847412109375</ele>
        <time>2018-09-05T12:54:33.000Z</time>
      </trkpt>
      <trkpt lat="43.4245708398520946502685546875" lon="-3.95033623091876506805419921875">
        <ele>41</ele>
        <time>2018-09-05T12:54:35.000Z</time>
      </trkpt>
      <trkpt lat="43.424653820693492889404296875" lon="-3.95047008991241455078125">
        <ele>41</ele>
        <time>2018-09-05T12:54:40.000Z</time>
      </trkpt>
      <trkpt lat="43.4247783757746219635009765625" lon="-3.95064175128936767578125">
        <ele>39.59999847412109375</ele>
        <time>2018-09-05T12:54:45.000Z</time>
      </trkpt>
      <trkpt lat="43.42480368912220001220703125" lon="-3.9506737701594829559326171875">
        <ele>39.40000152587890625</ele>
        <time>2018-09-05T12:54:46.000Z</time>
      </trkpt>
      <trkpt lat="43.42483864165842533111572265625" lon="-3.95072967745363712310791015625">
        <ele>39.40000152587890625</ele>
        <time>2018-09-05T12:54:48.000Z</time>
      </trkpt>
      <trkpt lat="43.42483445070683956146240234375" lon="-3.9507609419524669647216796875">
        <ele>39.200000762939453125</ele>
        <time>2018-09-05T12:54:49.000Z</time>
      </trkpt>
      <trkpt lat="43.4248150885105133056640625" lon="-3.95077946595847606658935546875">
        <ele>39.200000762939453125</ele>
        <time>2018-09-05T12:54:50.000Z</time>
      </trkpt>
      <trkpt lat="43.42474141158163547515869140625" lon="-3.95071945153176784515380859375">
        <ele>39.799999237060546875</ele>
        <time>2018-09-05T12:54:53.000Z</time>
      </trkpt>
      <trkpt lat="43.42471576295793056488037109375" lon="-3.95068709738552570343017578125">
        <ele>40.200000762939453125</ele>
        <time>2018-09-05T12:54:54.000Z</time>
      </trkpt>
      <trkpt lat="43.42459707520902156829833984375" lon="-3.9505208842456340789794921875">
        <ele>40.799999237060546875</ele>
        <time>2018-09-05T12:54:59.000Z</time>
      </trkpt>
      <trkpt lat="43.424578048288822174072265625" lon="-3.9504843391478061676025390625">
        <ele>41</ele>
        <time>2018-09-05T12:55:00.000Z</time>
      </trkpt>
      <trkpt lat="43.4244260005652904510498046875" lon="-3.95022726617753505706787109375">
        <ele>41.799999237060546875</ele>
        <time>2018-09-05T12:55:07.000Z</time>
      </trkpt>
      <trkpt lat="43.4243723563849925994873046875" lon="-3.950162641704082489013671875">
        <ele>41.799999237060546875</ele>
        <time>2018-09-05T12:55:09.000Z</time>
      </trkpt>
      <trkpt lat="43.4241778962314128875732421875" lon="-3.94992300309240818023681640625">
        <ele>41.59999847412109375</ele>
        <time>2018-09-05T12:55:15.000Z</time>
      </trkpt>
      <trkpt lat="43.42414252460002899169921875" lon="-3.94988000392913818359375">
        <ele>41.59999847412109375</ele>
        <time>2018-09-05T12:55:16.000Z</time>
      </trkpt>
      <trkpt lat="43.42400849796831607818603515625" lon="-3.94968353211879730224609375">
        <ele>40.799999237060546875</ele>
        <time>2018-09-05T12:55:20.000Z</time>
      </trkpt>
      <trkpt lat="43.423891402781009674072265625" lon="-3.9495043270289897918701171875">
        <ele>40.200000762939453125</ele>
        <time>2018-09-05T12:55:23.000Z</time>
      </trkpt>
      <trkpt lat="43.42380297370254993438720703125" lon="-3.949377425014972686767578125">
        <ele>39.799999237060546875</ele>
        <time>2018-09-05T12:55:25.000Z</time>
      </trkpt>
      <trkpt lat="43.423714376986026763916015625" lon="-3.94926619715988636016845703125">
        <ele>39</ele>
        <time>2018-09-05T12:55:27.000Z</time>
      </trkpt>
      <trkpt lat="43.4236682765185832977294921875" lon="-3.9492133073508739471435546875">
        <ele>38.59999847412109375</ele>
        <time>2018-09-05T12:55:28.000Z</time>
      </trkpt>
      <trkpt lat="43.42362225987017154693603515625" lon="-3.9491586573421955108642578125">
        <ele>38.40000152587890625</ele>
        <time>2018-09-05T12:55:29.000Z</time>
      </trkpt>
      <trkpt lat="43.42353156767785549163818359375" lon="-3.94902370870113372802734375">
        <ele>37.200000762939453125</ele>
        <time>2018-09-05T12:55:31.000Z</time>
      </trkpt>
      <trkpt lat="43.4234325774013996124267578125" lon="-3.94886973313987255096435546875">
        <ele>36</ele>
        <time>2018-09-05T12:55:33.000Z</time>
      </trkpt>
      <trkpt lat="43.4233760833740234375" lon="-3.94878893159329891204833984375">
        <ele>35.40000152587890625</ele>
        <time>2018-09-05T12:55:34.000Z</time>
      </trkpt>
      <trkpt lat="43.42331648804247379302978515625" lon="-3.94870729185640811920166015625">
        <ele>34.799999237060546875</ele>
        <time>2018-09-05T12:55:35.000Z</time>
      </trkpt>
      <trkpt lat="43.42320819385349750518798828125" lon="-3.94855591468513011932373046875">
        <ele>33.40000152587890625</ele>
        <time>2018-09-05T12:55:37.000Z</time>
      </trkpt>
      <trkpt lat="43.42310911975800991058349609375" lon="-3.9484260790050029754638671875">
        <ele>32.40000152587890625</ele>
        <time>2018-09-05T12:55:39.000Z</time>
      </trkpt>
      <trkpt lat="43.423059917986392974853515625" lon="-3.9483727701008319854736328125">
        <ele>31.799999237060546875</ele>
        <time>2018-09-05T12:55:40.000Z</time>
      </trkpt>
      <trkpt lat="43.42300535179674625396728515625" lon="-3.94833169877529144287109375">
        <ele>31.3999996185302734375</ele>
        <time>2018-09-05T12:55:41.000Z</time>
      </trkpt>
      <trkpt lat="43.42287828214466571807861328125" lon="-3.9482975006103515625">
        <ele>30.3999996185302734375</ele>
        <time>2018-09-05T12:55:43.000Z</time>
      </trkpt>
      <trkpt lat="43.42281407676637172698974609375" lon="-3.94830621778964996337890625">
        <ele>29.799999237060546875</ele>
        <time>2018-09-05T12:55:44.000Z</time>
      </trkpt>
      <trkpt lat="43.42268985696136951446533203125" lon="-3.94837796688079833984375">
        <ele>28.3999996185302734375</ele>
        <time>2018-09-05T12:55:46.000Z</time>
      </trkpt>
      <trkpt lat="43.42252456583082675933837890625" lon="-3.948598913848400115966796875">
        <ele>27.3999996185302734375</ele>
        <time>2018-09-05T12:55:49.000Z</time>
      </trkpt>
      <trkpt lat="43.422468490898609161376953125" lon="-3.9486939646303653717041015625">
        <ele>26.799999237060546875</ele>
        <time>2018-09-05T12:55:50.000Z</time>
      </trkpt>
      <trkpt lat="43.42241090722382068634033203125" lon="-3.94880301319062709808349609375">
        <ele>26</ele>
        <time>2018-09-05T12:55:51.000Z</time>
      </trkpt>
      <trkpt lat="43.42235407792031764984130859375" lon="-3.94892337732017040252685546875">
        <ele>24.799999237060546875</ele>
        <time>2018-09-05T12:55:52.000Z</time>
      </trkpt>
      <trkpt lat="43.4223003499209880828857421875" lon="-3.949051536619663238525390625">
        <ele>23.3999996185302734375</ele>
        <time>2018-09-05T12:55:53.000Z</time>
      </trkpt>
      <trkpt lat="43.42225098051130771636962890625" lon="-3.9491861499845981597900390625">
        <ele>22.3999996185302734375</ele>
        <time>2018-09-05T12:55:54.000Z</time>
      </trkpt>
      <trkpt lat="43.42220605351030826568603515625" lon="-3.94932637922465801239013671875">
        <ele>20.799999237060546875</ele>
        <time>2018-09-05T12:55:55.000Z</time>
      </trkpt>
      <trkpt lat="43.4221296943724155426025390625" lon="-3.94960935227572917938232421875">
        <ele>19.6000003814697265625</ele>
        <time>2018-09-05T12:55:57.000Z</time>
      </trkpt>
      <trkpt lat="43.42205107212066650390625" lon="-3.949864916503429412841796875">
        <ele>18.6000003814697265625</ele>
        <time>2018-09-05T12:55:59.000Z</time>
      </trkpt>
      <trkpt lat="43.4220120124518871307373046875" lon="-3.949960805475711822509765625">
        <ele>18</ele>
        <time>2018-09-05T12:56:00.000Z</time>
      </trkpt>
      <trkpt lat="43.4219764731824398040771484375" lon="-3.95003532059490680694580078125">
        <ele>17.3999996185302734375</ele>
        <time>2018-09-05T12:56:01.000Z</time>
      </trkpt>
      <trkpt lat="43.42194068245589733123779296875" lon="-3.95011268556118011474609375">
        <ele>17</ele>
        <time>2018-09-05T12:56:02.000Z</time>
      </trkpt>
      <trkpt lat="43.421905227005481719970703125" lon="-3.95019910298287868499755859375">
        <ele>16</ele>
        <time>2018-09-05T12:56:03.000Z</time>
      </trkpt>
      <trkpt lat="43.42183657921850681304931640625" lon="-3.9503896236419677734375">
        <ele>14.6000003814697265625</ele>
        <time>2018-09-05T12:56:05.000Z</time>
      </trkpt>
      <trkpt lat="43.4217722900211811065673828125" lon="-3.95058785565197467803955078125">
        <ele>14</ele>
        <time>2018-09-05T12:56:07.000Z</time>
      </trkpt>
      <trkpt lat="43.42174136079847812652587890625" lon="-3.95069313235580921173095703125">
        <ele>13.19999980926513671875</ele>
        <time>2018-09-05T12:56:08.000Z</time>
      </trkpt>
      <trkpt lat="43.42167749069631099700927734375" lon="-3.9509017579257488250732421875">
        <ele>11.6000003814697265625</ele>
        <time>2018-09-05T12:56:10.000Z</time>
      </trkpt>
      <trkpt lat="43.4215597249567508697509765625" lon="-3.95119789056479930877685546875">
        <ele>10.6000003814697265625</ele>
        <time>2018-09-05T12:56:13.000Z</time>
      </trkpt>
      <trkpt lat="43.421515636146068572998046875" lon="-3.95129160024225711822509765625">
        <ele>10.6000003814697265625</ele>
        <time>2018-09-05T12:56:14.000Z</time>
      </trkpt>
      <trkpt lat="43.4214276261627674102783203125" lon="-3.9514821209013462066650390625">
        <ele>10.3999996185302734375</ele>
        <time>2018-09-05T12:56:16.000Z</time>
      </trkpt>
      <trkpt lat="43.42130164615809917449951171875" lon="-3.9517776668071746826171875">
        <ele>9</ele>
        <time>2018-09-05T12:56:19.000Z</time>
      </trkpt>
      <trkpt lat="43.4212060086429119110107421875" lon="-3.95197355188429355621337890625">
        <ele>8</ele>
        <time>2018-09-05T12:56:21.000Z</time>
      </trkpt>
      <trkpt lat="43.4211570583283901214599609375" lon="-3.95207069814205169677734375">
        <ele>7.599999904632568359375</ele>
        <time>2018-09-05T12:56:22.000Z</time>
      </trkpt>
      <trkpt lat="43.4210226126015186309814453125" lon="-3.9523749612271785736083984375">
        <ele>6.400000095367431640625</ele>
        <time>2018-09-05T12:56:25.000Z</time>
      </trkpt>
      <trkpt lat="43.4209729917347431182861328125" lon="-3.95246707834303379058837890625">
        <ele>5.599999904632568359375</ele>
        <time>2018-09-05T12:56:26.000Z</time>
      </trkpt>
      <trkpt lat="43.42092479579150676727294921875" lon="-3.95255927927792072296142578125">
        <ele>5</ele>
        <time>2018-09-05T12:56:27.000Z</time>
      </trkpt>
      <trkpt lat="43.4208294935524463653564453125" lon="-3.95273814909160137176513671875">
        <ele>3.599999904632568359375</ele>
        <time>2018-09-05T12:56:29.000Z</time>
      </trkpt>
      <trkpt lat="43.42068909667432308197021484375" lon="-3.95299430005252361297607421875">
        <ele>3.2000000476837158203125</ele>
        <time>2018-09-05T12:56:32.000Z</time>
      </trkpt>
      <trkpt lat="43.42058013193309307098388671875" lon="-3.9532560668885707855224609375">
        <ele>3.2000000476837158203125</ele>
        <time>2018-09-05T12:56:35.000Z</time>
      </trkpt>
      <trkpt lat="43.420548029243946075439453125" lon="-3.95334198139607906341552734375">
        <ele>3</ele>
        <time>2018-09-05T12:56:36.000Z</time>
      </trkpt>
      <trkpt lat="43.42048457823693752288818359375" lon="-3.95350878126919269561767578125">
        <ele>2.599999904632568359375</ele>
        <time>2018-09-05T12:56:38.000Z</time>
      </trkpt>
      <trkpt lat="43.42045172117650508880615234375" lon="-3.95358840934932231903076171875">
        <ele>2.400000095367431640625</ele>
        <time>2018-09-05T12:56:39.000Z</time>
      </trkpt>
      <trkpt lat="43.4203919582068920135498046875" lon="-3.953745067119598388671875">
        <ele>2.599999904632568359375</ele>
        <time>2018-09-05T12:56:41.000Z</time>
      </trkpt>
      <trkpt lat="43.42034594155848026275634765625" lon="-3.95389803685247898101806640625">
        <ele>2.400000095367431640625</ele>
        <time>2018-09-05T12:56:43.000Z</time>
      </trkpt>
      <trkpt lat="43.42019942589104175567626953125" lon="-3.95440916530787944793701171875">
        <ele>2.2000000476837158203125</ele>
        <time>2018-09-05T12:56:50.000Z</time>
      </trkpt>
      <trkpt lat="43.42016422189772129058837890625" lon="-3.95455299876630306243896484375">
        <ele>2.599999904632568359375</ele>
        <time>2018-09-05T12:56:52.000Z</time>
      </trkpt>
      <trkpt lat="43.42010638676583766937255859375" lon="-3.9547540806233882904052734375">
        <ele>2.7999999523162841796875</ele>
        <time>2018-09-05T12:56:55.000Z</time>
      </trkpt>
      <trkpt lat="43.42008660547435283660888671875" lon="-3.954821638762950897216796875">
        <ele>2.7999999523162841796875</ele>
        <time>2018-09-05T12:56:56.000Z</time>
      </trkpt>
      <trkpt lat="43.4199923090636730194091796875" lon="-3.95510352216660976409912109375">
        <ele>1.39999997615814208984375</ele>
        <time>2018-09-05T12:57:00.000Z</time>
      </trkpt>
      <trkpt lat="43.4199755452573299407958984375" lon="-3.95518030039966106414794921875">
        <ele>0.800000011920928955078125</ele>
        <time>2018-09-05T12:57:01.000Z</time>
      </trkpt>
      <trkpt lat="43.419954590499401092529296875" lon="-3.955259509384632110595703125">
        <ele>0.20000000298023223876953125</ele>
        <time>2018-09-05T12:57:02.000Z</time>
      </trkpt>
      <trkpt lat="43.4199105016887187957763671875" lon="-3.955430500209331512451171875">
        <ele>-1</ele>
        <time>2018-09-05T12:57:04.000Z</time>
      </trkpt>
      <trkpt lat="43.41988376341760158538818359375" lon="-3.95561800338327884674072265625">
        <ele>-1.7999999523162841796875</ele>
        <time>2018-09-05T12:57:06.000Z</time>
      </trkpt>
      <trkpt lat="43.41987336985766887664794921875" lon="-3.95573032088577747344970703125">
        <ele>-4.19999980926513671875</ele>
        <time>2018-09-05T12:57:07.000Z</time>
      </trkpt>
      <trkpt lat="43.41985945589840412139892578125" lon="-3.95598429255187511444091796875">
        <ele>-6</ele>
        <time>2018-09-05T12:57:09.000Z</time>
      </trkpt>
      <trkpt lat="43.4198501519858837127685546875" lon="-3.95611345767974853515625">
        <ele>-6.80000019073486328125</ele>
        <time>2018-09-05T12:57:10.000Z</time>
      </trkpt>
      <trkpt lat="43.41983892023563385009765625" lon="-3.95624044351279735565185546875">
        <ele>-7.599999904632568359375</ele>
        <time>2018-09-05T12:57:11.000Z</time>
      </trkpt>
      <trkpt lat="43.419811427593231201171875" lon="-3.95634303800761699676513671875">
        <ele>-8.3999996185302734375</ele>
        <time>2018-09-05T12:57:12.000Z</time>
      </trkpt>
      <trkpt lat="43.41977396048605442047119140625" lon="-3.95642886869609355926513671875">
        <ele>-8.80000019073486328125</ele>
        <time>2018-09-05T12:57:13.000Z</time>
      </trkpt>
      <trkpt lat="43.41961906291544437408447265625" lon="-3.9565759710967540740966796875">
        <ele>-9.6000003814697265625</ele>
        <time>2018-09-05T12:57:16.000Z</time>
      </trkpt>
      <trkpt lat="43.4195594675838947296142578125" lon="-3.95660891197621822357177734375">
        <ele>-9.3999996185302734375</ele>
        <time>2018-09-05T12:57:17.000Z</time>
      </trkpt>
      <trkpt lat="43.4193747304379940032958984375" lon="-3.9566835947334766387939453125">
        <ele>-9.80000019073486328125</ele>
        <time>2018-09-05T12:57:20.000Z</time>
      </trkpt>
      <trkpt lat="43.4193217568099498748779296875" lon="-3.956687115132808685302734375">
        <ele>-9.6000003814697265625</ele>
        <time>2018-09-05T12:57:21.000Z</time>
      </trkpt>
      <trkpt lat="43.41922461055219173431396484375" lon="-3.956715278327465057373046875">
        <ele>-9.19999980926513671875</ele>
        <time>2018-09-05T12:57:23.000Z</time>
      </trkpt>
      <trkpt lat="43.41908379457890987396240234375" lon="-3.9567871950566768646240234375">
        <ele>-8.80000019073486328125</ele>
        <time>2018-09-05T12:57:26.000Z</time>
      </trkpt>
      <trkpt lat="43.4187326766550540924072265625" lon="-3.956899680197238922119140625">
        <ele>-9.3999996185302734375</ele>
        <time>2018-09-05T12:57:33.000Z</time>
      </trkpt>
      <trkpt lat="43.41834618709981441497802734375" lon="-3.9570275880396366119384765625">
        <ele>-10</ele>
        <time>2018-09-05T12:57:40.000Z</time>
      </trkpt>
      <trkpt lat="43.41794569976627826690673828125" lon="-3.9572171866893768310546875">
        <ele>-9.80000019073486328125</ele>
        <time>2018-09-05T12:57:47.000Z</time>
      </trkpt>
      <trkpt lat="43.41757974587380886077880859375" lon="-3.95739211700856685638427734375">
        <ele>-10</ele>
        <time>2018-09-05T12:57:54.000Z</time>
      </trkpt>
      <trkpt lat="43.41714371927082538604736328125" lon="-3.9575378783047199249267578125">
        <ele>-10.3999996185302734375</ele>
        <time>2018-09-05T12:58:02.000Z</time>
      </trkpt>
      <trkpt lat="43.416656814515590667724609375" lon="-3.95763904787600040435791015625">
        <ele>-9.80000019073486328125</ele>
        <time>2018-09-05T12:58:11.000Z</time>
      </trkpt>
      <trkpt lat="43.4163339436054229736328125" lon="-3.95769453607499599456787109375">
        <ele>-9.6000003814697265625</ele>
        <time>2018-09-05T12:58:17.000Z</time>
      </trkpt>
      <trkpt lat="43.41611735522747039794921875" lon="-3.9577340148389339447021484375">
        <ele>-9.6000003814697265625</ele>
        <time>2018-09-05T12:58:21.000Z</time>
      </trkpt>
      <trkpt lat="43.4159508906304836273193359375" lon="-3.95775371231138706207275390625">
        <ele>-10.19999980926513671875</ele>
        <time>2018-09-05T12:58:24.000Z</time>
      </trkpt>
      <trkpt lat="43.41556775383651256561279296875" lon="-3.95777366124093532562255859375">
        <ele>-9.3999996185302734375</ele>
        <time>2018-09-05T12:58:31.000Z</time>
      </trkpt>
      <trkpt lat="43.415513522922992706298828125" lon="-3.95777433179318904876708984375">
        <ele>-9.3999996185302734375</ele>
        <time>2018-09-05T12:58:32.000Z</time>
      </trkpt>
      <trkpt lat="43.41501924209296703338623046875" lon="-3.9577997289597988128662109375">
        <ele>-8.80000019073486328125</ele>
        <time>2018-09-05T12:58:41.000Z</time>
      </trkpt>
      <trkpt lat="43.4146325848996639251708984375" lon="-3.9578037522733211517333984375">
        <ele>-8.6000003814697265625</ele>
        <time>2018-09-05T12:58:48.000Z</time>
      </trkpt>
      <trkpt lat="43.41452521272003650665283203125" lon="-3.95780869759619235992431640625">
        <ele>-8.80000019073486328125</ele>
        <time>2018-09-05T12:58:50.000Z</time>
      </trkpt>
      <trkpt lat="43.414020203053951263427734375" lon="-3.95782596431672573089599609375">
        <ele>-9.19999980926513671875</ele>
        <time>2018-09-05T12:58:59.000Z</time>
      </trkpt>
      <trkpt lat="43.41384996660053730010986328125" lon="-3.957847170531749725341796875">
        <ele>-9</ele>
        <time>2018-09-05T12:59:02.000Z</time>
      </trkpt>
      <trkpt lat="43.413556516170501708984375" lon="-3.9578798599541187286376953125">
        <ele>-8.80000019073486328125</ele>
        <time>2018-09-05T12:59:07.000Z</time>
      </trkpt>
      <trkpt lat="43.41315225698053836822509765625" lon="-3.95792688243091106414794921875">
        <ele>-9.19999980926513671875</ele>
        <time>2018-09-05T12:59:14.000Z</time>
      </trkpt>
      <trkpt lat="43.4131013788282871246337890625" lon="-3.95790911279618740081787109375">
        <ele>-9</ele>
        <time>2018-09-05T12:59:15.000Z</time>
      </trkpt>
      <trkpt lat="43.413034491240978240966796875" lon="-3.95773686468601226806640625">
        <ele>-8.6000003814697265625</ele>
        <time>2018-09-05T12:59:18.000Z</time>
      </trkpt>
      <trkpt lat="43.41307430528104305267333984375" lon="-3.95751893520355224609375">
        <ele>-8.6000003814697265625</ele>
        <time>2018-09-05T12:59:21.000Z</time>
      </trkpt>
      <trkpt lat="43.41309123672544956207275390625" lon="-3.95744710229337215423583984375">
        <ele>-8.6000003814697265625</ele>
        <time>2018-09-05T12:59:22.000Z</time>
      </trkpt>
      <trkpt lat="43.41318729333579540252685546875" lon="-3.9569702558219432830810546875">
        <ele>-8.6000003814697265625</ele>
        <time>2018-09-05T12:59:29.000Z</time>
      </trkpt>
      <trkpt lat="43.41325342655181884765625" lon="-3.9565949141979217529296875">
        <ele>-7.80000019073486328125</ele>
        <time>2018-09-05T12:59:35.000Z</time>
      </trkpt>
      <trkpt lat="43.41327597387135028839111328125" lon="-3.95647932775318622589111328125">
        <ele>-7.400000095367431640625</ele>
        <time>2018-09-05T12:59:37.000Z</time>
      </trkpt>
      <trkpt lat="43.4133206494152545928955078125" lon="-3.956273384392261505126953125">
        <ele>-6.80000019073486328125</ele>
        <time>2018-09-05T12:59:41.000Z</time>
      </trkpt>
      <trkpt lat="43.41333699412643909454345703125" lon="-3.9561682753264904022216796875">
        <ele>-6.400000095367431640625</ele>
        <time>2018-09-05T12:59:43.000Z</time>
      </trkpt>
      <trkpt lat="43.41334671713411808013916015625" lon="-3.9561149664223194122314453125">
        <ele>-6.400000095367431640625</ele>
        <time>2018-09-05T12:59:44.000Z</time>
      </trkpt>
      <trkpt lat="43.41337940655648708343505859375" lon="-3.95595562644302845001220703125">
        <ele>-6.19999980926513671875</ele>
        <time>2018-09-05T12:59:47.000Z</time>
      </trkpt>
      <trkpt lat="43.4133996069431304931640625" lon="-3.955852277576923370361328125">
        <ele>-5.400000095367431640625</ele>
        <time>2018-09-05T12:59:49.000Z</time>
      </trkpt>
      <trkpt lat="43.4134452044963836669921875" lon="-3.955645747482776641845703125">
        <ele>-4.80000019073486328125</ele>
        <time>2018-09-05T12:59:53.000Z</time>
      </trkpt>
      <trkpt lat="43.41345668770372867584228515625" lon="-3.95559386350214481353759765625">
        <ele>-4.599999904632568359375</ele>
        <time>2018-09-05T12:59:54.000Z</time>
      </trkpt>
      <trkpt lat="43.41346926055848598480224609375" lon="-3.95554441027343273162841796875">
        <ele>-4.400000095367431640625</ele>
        <time>2018-09-05T12:59:55.000Z</time>
      </trkpt>
      <trkpt lat="43.41355190612375736236572265625" lon="-3.9552135765552520751953125">
        <ele>-4.599999904632568359375</ele>
        <time>2018-09-05T13:00:01.000Z</time>
      </trkpt>
      <trkpt lat="43.41364209540188312530517578125" lon="-3.95481099374592304229736328125">
        <ele>-5.400000095367431640625</ele>
        <time>2018-09-05T13:00:07.000Z</time>
      </trkpt>
      <trkpt lat="43.41365818865597248077392578125" lon="-3.9547393284738063812255859375">
        <ele>-5.599999904632568359375</ele>
        <time>2018-09-05T13:00:08.000Z</time>
      </trkpt>
      <trkpt lat="43.413686938583850860595703125" lon="-3.95460010506212711334228515625">
        <ele>-6.19999980926513671875</ele>
        <time>2018-09-05T13:00:10.000Z</time>
      </trkpt>
      <trkpt lat="43.41373245231807231903076171875" lon="-3.95439826883375644683837890625">
        <ele>-6.19999980926513671875</ele>
        <time>2018-09-05T13:00:13.000Z</time>
      </trkpt>
      <trkpt lat="43.41375810094177722930908203125" lon="-3.95426650531589984893798828125">
        <ele>-6.400000095367431640625</ele>
        <time>2018-09-05T13:00:15.000Z</time>
      </trkpt>
      <trkpt lat="43.41377285309135913848876953125" lon="-3.95420162938535213470458984375">
        <ele>-6.599999904632568359375</ele>
        <time>2018-09-05T13:00:16.000Z</time>
      </trkpt>
      <trkpt lat="43.41389338485896587371826171875" lon="-3.953623361885547637939453125">
        <ele>-5.599999904632568359375</ele>
        <time>2018-09-05T13:00:25.000Z</time>
      </trkpt>
      <trkpt lat="43.4140150062739849090576171875" lon="-3.9530971460044384002685546875">
        <ele>-5</ele>
        <time>2018-09-05T13:00:34.000Z</time>
      </trkpt>
      <trkpt lat="43.41411584056913852691650390625" lon="-3.95263471640646457672119140625">
        <ele>-4.80000019073486328125</ele>
        <time>2018-09-05T13:00:42.000Z</time>
      </trkpt>
      <trkpt lat="43.4142364561557769775390625" lon="-3.9520564489066600799560546875">
        <ele>-5</ele>
        <time>2018-09-05T13:00:51.000Z</time>
      </trkpt>
      <trkpt lat="43.41433695517480373382568359375" lon="-3.9516698755323886871337890625">
        <ele>-5.400000095367431640625</ele>
        <time>2018-09-05T13:00:57.000Z</time>
      </trkpt>
      <trkpt lat="43.41440099291503429412841796875" lon="-3.95127567462623119354248046875">
        <ele>-4.599999904632568359375</ele>
        <time>2018-09-05T13:01:04.000Z</time>
      </trkpt>
      <trkpt lat="43.41443426907062530517578125" lon="-3.95110485143959522247314453125">
        <ele>-3.400000095367431640625</ele>
        <time>2018-09-05T13:01:08.000Z</time>
      </trkpt>
      <trkpt lat="43.4144528768956661224365234375" lon="-3.950990103185176849365234375">
        <ele>-2.7999999523162841796875</ele>
        <time>2018-09-05T13:01:11.000Z</time>
      </trkpt>
      <trkpt lat="43.4144699759781360626220703125" lon="-3.9509141631424427032470703125">
        <ele>-2.400000095367431640625</ele>
        <time>2018-09-05T13:01:13.000Z</time>
      </trkpt>
      <trkpt lat="43.41454566456377506256103515625" lon="-3.95069581456482410430908203125">
        <ele>-1.60000002384185791015625</ele>
        <time>2018-09-05T13:01:19.000Z</time>
      </trkpt>
      <trkpt lat="43.4146280586719512939453125" lon="-3.95051945932209491729736328125">
        <ele>-1.2000000476837158203125</ele>
        <time>2018-09-05T13:01:24.000Z</time>
      </trkpt>
      <trkpt lat="43.4146694652736186981201171875" lon="-3.9504580199718475341796875">
        <ele>-1</ele>
        <time>2018-09-05T13:01:26.000Z</time>
      </trkpt>
      <trkpt lat="43.4147811122238636016845703125" lon="-3.95030991174280643463134765625">
        <ele>-0.20000000298023223876953125</ele>
        <time>2018-09-05T13:01:31.000Z</time>
      </trkpt>
      <trkpt lat="43.41486820019781589508056640625" lon="-3.95020731724798679351806640625">
        <ele>1</ele>
        <time>2018-09-05T13:01:35.000Z</time>
      </trkpt>
      <trkpt lat="43.414973728358745574951171875" lon="-3.95001855678856372833251953125">
        <ele>1.2000000476837158203125</ele>
        <time>2018-09-05T13:01:41.000Z</time>
      </trkpt>
      <trkpt lat="43.4150288812816143035888671875" lon="-3.9498469792306423187255859375">
        <ele>0</ele>
        <time>2018-09-05T13:01:44.000Z</time>
      </trkpt>
      <trkpt lat="43.41505746357142925262451171875" lon="-3.9497779123485088348388671875">
        <ele>-0.4000000059604644775390625</ele>
        <time>2018-09-05T13:01:45.000Z</time>
      </trkpt>
      <trkpt lat="43.41508068144321441650390625" lon="-3.949701972305774688720703125">
        <ele>-0.800000011920928955078125</ele>
        <time>2018-09-05T13:01:46.000Z</time>
      </trkpt>
      <trkpt lat="43.41509937308728694915771484375" lon="-3.94952184520661830902099609375">
        <ele>-1.60000002384185791015625</ele>
        <time>2018-09-05T13:01:48.000Z</time>
      </trkpt>
      <trkpt lat="43.415085040032863616943359375" lon="-3.94943215884268283843994140625">
        <ele>-2</ele>
        <time>2018-09-05T13:01:49.000Z</time>
      </trkpt>
      <trkpt lat="43.41504849493503570556640625" lon="-3.94926083274185657501220703125">
        <ele>-2</ele>
        <time>2018-09-05T13:01:51.000Z</time>
      </trkpt>
      <trkpt lat="43.414998538792133331298828125" lon="-3.94901809282600879669189453125">
        <ele>-2.599999904632568359375</ele>
        <time>2018-09-05T13:01:54.000Z</time>
      </trkpt>
      <trkpt lat="43.41497129760682582855224609375" lon="-3.948772586882114410400390625">
        <ele>-2.400000095367431640625</ele>
        <time>2018-09-05T13:01:57.000Z</time>
      </trkpt>
      <trkpt lat="43.41494615189731121063232421875" lon="-3.9485326968133449554443359375">
        <ele>-3</ele>
        <time>2018-09-05T13:02:00.000Z</time>
      </trkpt>
      <trkpt lat="43.41492913663387298583984375" lon="-3.94845700822770595550537109375">
        <ele>-2.7999999523162841796875</ele>
        <time>2018-09-05T13:02:01.000Z</time>
      </trkpt>
      <trkpt lat="43.41488630510866641998291015625" lon="-3.9483161084353923797607421875">
        <ele>-2.599999904632568359375</ele>
        <time>2018-09-05T13:02:03.000Z</time>
      </trkpt>
      <trkpt lat="43.41483668424189090728759765625" lon="-3.948188535869121551513671875">
        <ele>-2</ele>
        <time>2018-09-05T13:02:05.000Z</time>
      </trkpt>
      <trkpt lat="43.41476024128496646881103515625" lon="-3.9479312114417552947998046875">
        <ele>-1.60000002384185791015625</ele>
        <time>2018-09-05T13:02:09.000Z</time>
      </trkpt>
      <trkpt lat="43.41471464373171329498291015625" lon="-3.94773515872657299041748046875">
        <ele>-1.39999997615814208984375</ele>
        <time>2018-09-05T13:02:12.000Z</time>
      </trkpt>
      <trkpt lat="43.41467558406293392181396484375" lon="-3.9472656883299350738525390625">
        <ele>-1</ele>
        <time>2018-09-05T13:02:19.000Z</time>
      </trkpt>
      <trkpt lat="43.41466896235942840576171875" lon="-3.94719519652426242828369140625">
        <ele>-1</ele>
        <time>2018-09-05T13:02:20.000Z</time>
      </trkpt>
      <trkpt lat="43.41463149525225162506103515625" lon="-3.94700040109455585479736328125">
        <ele>-0.4000000059604644775390625</ele>
        <time>2018-09-05T13:02:23.000Z</time>
      </trkpt>
      <trkpt lat="43.41459746472537517547607421875" lon="-3.94687199033796787261962890625">
        <ele>0.20000000298023223876953125</ele>
        <time>2018-09-05T13:02:25.000Z</time>
      </trkpt>
      <trkpt lat="43.41456846334040164947509765625" lon="-3.94674559123814105987548828125">
        <ele>0.60000002384185791015625</ele>
        <time>2018-09-05T13:02:27.000Z</time>
      </trkpt>
      <trkpt lat="43.4145333431661128997802734375" lon="-3.94639807753264904022216796875">
        <ele>1.2000000476837158203125</ele>
        <time>2018-09-05T13:02:32.000Z</time>
      </trkpt>
      <trkpt lat="43.4145105443894863128662109375" lon="-3.94605022855103015899658203125">
        <ele>1.60000002384185791015625</ele>
        <time>2018-09-05T13:02:37.000Z</time>
      </trkpt>
      <trkpt lat="43.41446855105459690093994140625" lon="-3.9457153715193271636962890625">
        <ele>2</ele>
        <time>2018-09-05T13:02:42.000Z</time>
      </trkpt>
      <trkpt lat="43.41437182389199733734130859375" lon="-3.94539878703653812408447265625">
        <ele>3</ele>
        <time>2018-09-05T13:02:47.000Z</time>
      </trkpt>
      <trkpt lat="43.41432832181453704833984375" lon="-3.945274651050567626953125">
        <ele>3.2000000476837158203125</ele>
        <time>2018-09-05T13:02:49.000Z</time>
      </trkpt>
      <trkpt lat="43.41421156190335750579833984375" lon="-3.94499561749398708343505859375">
        <ele>3.599999904632568359375</ele>
        <time>2018-09-05T13:02:54.000Z</time>
      </trkpt>
      <trkpt lat="43.41418088413774967193603515625" lon="-3.944950439035892486572265625">
        <ele>3.7999999523162841796875</ele>
        <time>2018-09-05T13:02:55.000Z</time>
      </trkpt>
      <trkpt lat="43.41414970345795154571533203125" lon="-3.94490878097712993621826171875">
        <ele>4</ele>
        <time>2018-09-05T13:02:56.000Z</time>
      </trkpt>
      <trkpt lat="43.414116092026233673095703125" lon="-3.944872654974460601806640625">
        <ele>4.19999980926513671875</ele>
        <time>2018-09-05T13:02:57.000Z</time>
      </trkpt>
      <trkpt lat="43.41403939761221408843994140625" lon="-3.944812305271625518798828125">
        <ele>4.19999980926513671875</ele>
        <time>2018-09-05T13:02:59.000Z</time>
      </trkpt>
      <trkpt lat="43.41394199989736080169677734375" lon="-3.94478925503790378570556640625">
        <ele>3.7999999523162841796875</ele>
        <time>2018-09-05T13:03:01.000Z</time>
      </trkpt>
      <trkpt lat="43.41376782394945621490478515625" lon="-3.94475840963423252105712890625">
        <ele>3</ele>
        <time>2018-09-05T13:03:04.000Z</time>
      </trkpt>
      <trkpt lat="43.4135771356523036956787109375" lon="-3.944706358015537261962890625">
        <ele>1.39999997615814208984375</ele>
        <time>2018-09-05T13:03:07.000Z</time>
      </trkpt>
      <trkpt lat="43.41351385228335857391357421875" lon="-3.94467660225927829742431640625">
        <ele>1.2000000476837158203125</ele>
        <time>2018-09-05T13:03:08.000Z</time>
      </trkpt>
      <trkpt lat="43.41334219090640544891357421875" lon="-3.944534026086330413818359375">
        <ele>0.800000011920928955078125</ele>
        <time>2018-09-05T13:03:11.000Z</time>
      </trkpt>
      <trkpt lat="43.41324864886701107025146484375" lon="-3.944405615329742431640625">
        <ele>0.4000000059604644775390625</ele>
        <time>2018-09-05T13:03:13.000Z</time>
      </trkpt>
      <trkpt lat="43.4131667576730251312255859375" lon="-3.944257088005542755126953125">
        <ele>0.4000000059604644775390625</ele>
        <time>2018-09-05T13:03:15.000Z</time>
      </trkpt>
      <trkpt lat="43.413127362728118896484375" lon="-3.94417502917349338531494140625">
        <ele>0.4000000059604644775390625</ele>
        <time>2018-09-05T13:03:16.000Z</time>
      </trkpt>
      <trkpt lat="43.41299467720091342926025390625" lon="-3.9438180439174175262451171875">
        <ele>-0.800000011920928955078125</ele>
        <time>2018-09-05T13:03:20.000Z</time>
      </trkpt>
      <trkpt lat="43.412971794605255126953125" lon="-3.94374352879822254180908203125">
        <ele>-1.2000000476837158203125</ele>
        <time>2018-09-05T13:03:21.000Z</time>
      </trkpt>
      <trkpt lat="43.41294254176318645477294921875" lon="-3.94367462955415248870849609375">
        <ele>-1.60000002384185791015625</ele>
        <time>2018-09-05T13:03:22.000Z</time>
      </trkpt>
      <trkpt lat="43.41284782625734806060791015625" lon="-3.943571783602237701416015625">
        <ele>-1.7999999523162841796875</ele>
        <time>2018-09-05T13:03:24.000Z</time>
      </trkpt>
      <trkpt lat="43.4126454032957553863525390625" lon="-3.94344580359756946563720703125">
        <ele>-4</ele>
        <time>2018-09-05T13:03:27.000Z</time>
      </trkpt>
      <trkpt lat="43.41257072053849697113037109375" lon="-3.9433982782065868377685546875">
        <ele>-4.80000019073486328125</ele>
        <time>2018-09-05T13:03:28.000Z</time>
      </trkpt>
      <trkpt lat="43.41249679215252399444580078125" lon="-3.94335159100592136383056640625">
        <ele>-5.400000095367431640625</ele>
        <time>2018-09-05T13:03:29.000Z</time>
      </trkpt>
      <trkpt lat="43.41227710247039794921875" lon="-3.9431987889111042022705078125">
        <ele>-6.599999904632568359375</ele>
        <time>2018-09-05T13:03:32.000Z</time>
      </trkpt>
      <trkpt lat="43.412130586802959442138671875" lon="-3.9430975355207920074462890625">
        <ele>-6.80000019073486328125</ele>
        <time>2018-09-05T13:03:34.000Z</time>
      </trkpt>
      <trkpt lat="43.4119807183742523193359375" lon="-3.943015895783901214599609375">
        <ele>-7.19999980926513671875</ele>
        <time>2018-09-05T13:03:36.000Z</time>
      </trkpt>
      <trkpt lat="43.41184132732450962066650390625" lon="-3.94291690550744533538818359375">
        <ele>-7</ele>
        <time>2018-09-05T13:03:38.000Z</time>
      </trkpt>
      <trkpt lat="43.4116365574300289154052734375" lon="-3.9427689649164676666259765625">
        <ele>-7.400000095367431640625</ele>
        <time>2018-09-05T13:03:41.000Z</time>
      </trkpt>
      <trkpt lat="43.41138266958296298980712890625" lon="-3.94254307262599468231201171875">
        <ele>-8.6000003814697265625</ele>
        <time>2018-09-05T13:03:45.000Z</time>
      </trkpt>
      <trkpt lat="43.41125828213989734649658203125" lon="-3.9424165897071361541748046875">
        <ele>-6.80000019073486328125</ele>
        <time>2018-09-05T13:03:47.000Z</time>
      </trkpt>
      <trkpt lat="43.411189131438732147216796875" lon="-3.94236470572650432586669921875">
        <ele>-6</ele>
        <time>2018-09-05T13:03:48.000Z</time>
      </trkpt>
      <trkpt lat="43.411041609942913055419921875" lon="-3.9422952197492122650146484375">
        <ele>-8.6000003814697265625</ele>
        <time>2018-09-05T13:03:50.000Z</time>
      </trkpt>
      <trkpt lat="43.41097027994692325592041015625" lon="-3.9422868378460407257080078125">
        <ele>-9.19999980926513671875</ele>
        <time>2018-09-05T13:03:51.000Z</time>
      </trkpt>
      <trkpt lat="43.41084220446646213531494140625" lon="-3.9422814734280109405517578125">
        <ele>-10.19999980926513671875</ele>
        <time>2018-09-05T13:03:53.000Z</time>
      </trkpt>
      <trkpt lat="43.41066920198500156402587890625" lon="-3.94225808791816234588623046875">
        <ele>-10.3999996185302734375</ele>
        <time>2018-09-05T13:03:56.000Z</time>
      </trkpt>
      <trkpt lat="43.41052436269819736480712890625" lon="-3.9422657154500484466552734375">
        <ele>-10.6000003814697265625</ele>
        <time>2018-09-05T13:04:00.000Z</time>
      </trkpt>
      <trkpt lat="43.41040936298668384552001953125" lon="-3.94227082841098308563232421875">
        <ele>-10.19999980926513671875</ele>
        <time>2018-09-05T13:04:05.000Z</time>
      </trkpt>
      <trkpt lat="43.4102632664144039154052734375" lon="-3.94231575541198253631591796875">
        <ele>-9.6000003814697265625</ele>
        <time>2018-09-05T13:04:11.000Z</time>
      </trkpt>
      <trkpt lat="43.41016997583210468292236328125" lon="-3.9423183538019657135009765625">
        <ele>-9.19999980926513671875</ele>
        <time>2018-09-05T13:04:14.000Z</time>
      </trkpt>
      <trkpt lat="43.41001474298536777496337890625" lon="-3.9423270709812641143798828125">
        <ele>-8</ele>
        <time>2018-09-05T13:04:19.000Z</time>
      </trkpt>
      <trkpt lat="43.4099558182060718536376953125" lon="-3.94233000464737415313720703125">
        <ele>-7.599999904632568359375</ele>
        <time>2018-09-05T13:04:21.000Z</time>
      </trkpt>
      <trkpt lat="43.40989940799772739410400390625" lon="-3.94234308041632175445556640625">
        <ele>-7.400000095367431640625</ele>
        <time>2018-09-05T13:04:23.000Z</time>
      </trkpt>
      <trkpt lat="43.40984090231359004974365234375" lon="-3.942364789545536041259765625">
        <ele>-7</ele>
        <time>2018-09-05T13:04:25.000Z</time>
      </trkpt>
      <trkpt lat="43.40981257148087024688720703125" lon="-3.942367471754550933837890625">
        <ele>-6.80000019073486328125</ele>
        <time>2018-09-05T13:04:26.000Z</time>
      </trkpt>
      <trkpt lat="43.4097918681800365447998046875" lon="-3.942378871142864227294921875">
        <ele>-6.80000019073486328125</ele>
        <time>2018-09-05T13:04:27.000Z</time>
      </trkpt>
      <trkpt lat="43.4097583405673503875732421875" lon="-3.9424517937004566192626953125">
        <ele>-6.400000095367431640625</ele>
        <time>2018-09-05T13:04:31.000Z</time>
      </trkpt>
      <trkpt lat="43.40974803082644939422607421875" lon="-3.942608870565891265869140625">
        <ele>-6.19999980926513671875</ele>
        <time>2018-09-05T13:04:35.000Z</time>
      </trkpt>
      <trkpt lat="43.40974501334130764007568359375" lon="-3.94265203736722469329833984375">
        <ele>-6.19999980926513671875</ele>
        <time>2018-09-05T13:04:36.000Z</time>
      </trkpt>
      <trkpt lat="43.4097459353506565093994140625" lon="-3.942777179181575775146484375">
        <ele>-5.80000019073486328125</ele>
        <time>2018-09-05T13:04:39.000Z</time>
      </trkpt>
      <trkpt lat="43.4097496233880519866943359375" lon="-3.94291103817522525787353515625">
        <ele>-5.400000095367431640625</ele>
        <time>2018-09-05T13:04:42.000Z</time>
      </trkpt>
      <trkpt lat="43.40975674800574779510498046875" lon="-3.94304011948406696319580078125">
        <ele>-4.599999904632568359375</ele>
        <time>2018-09-05T13:04:45.000Z</time>
      </trkpt>
      <trkpt lat="43.40977803803980350494384765625" lon="-3.9432202465832233428955078125">
        <ele>-4.400000095367431640625</ele>
        <time>2018-09-05T13:04:49.000Z</time>
      </trkpt>
      <trkpt lat="43.40981810353696346282958984375" lon="-3.9433939196169376373291015625">
        <ele>-4.19999980926513671875</ele>
        <time>2018-09-05T13:04:53.000Z</time>
      </trkpt>
      <trkpt lat="43.40987107716500759124755859375" lon="-3.943639509379863739013671875">
        <ele>-3.599999904632568359375</ele>
        <time>2018-09-05T13:04:59.000Z</time>
      </trkpt>
      <trkpt lat="43.40990091674029827117919921875" lon="-3.943770267069339752197265625">
        <ele>-2.599999904632568359375</ele>
        <time>2018-09-05T13:05:02.000Z</time>
      </trkpt>
      <trkpt lat="43.40990980155766010284423828125" lon="-3.94381712190806865692138671875">
        <ele>-2.400000095367431640625</ele>
        <time>2018-09-05T13:05:03.000Z</time>
      </trkpt>
      <trkpt lat="43.40990292839705944061279296875" lon="-3.94410646520555019378662109375">
        <ele>-2</ele>
        <time>2018-09-05T13:05:09.000Z</time>
      </trkpt>
      <trkpt lat="43.4098269045352935791015625" lon="-3.944427073001861572265625">
        <ele>-1.2000000476837158203125</ele>
        <time>2018-09-05T13:05:15.000Z</time>
      </trkpt>
      <trkpt lat="43.40980947017669677734375" lon="-3.9444815553724765777587890625">
        <ele>-1</ele>
        <time>2018-09-05T13:05:16.000Z</time>
      </trkpt>
      <trkpt lat="43.409626074135303497314453125" lon="-3.94492906518280506134033203125">
        <ele>-1.60000002384185791015625</ele>
        <time>2018-09-05T13:05:24.000Z</time>
      </trkpt>
      <trkpt lat="43.4095293469727039337158203125" lon="-3.945099301636219024658203125">
        <ele>-2.2000000476837158203125</ele>
        <time>2018-09-05T13:05:27.000Z</time>
      </trkpt>
      <trkpt lat="43.4094146825373172760009765625" lon="-3.94528412260115146636962890625">
        <ele>-2.7999999523162841796875</ele>
        <time>2018-09-05T13:05:30.000Z</time>
      </trkpt>
      <trkpt lat="43.4093664027750492095947265625" lon="-3.94534212537109851837158203125">
        <ele>-3</ele>
        <time>2018-09-05T13:05:31.000Z</time>
      </trkpt>
      <trkpt lat="43.40931368060410022735595703125" lon="-3.94540079869329929351806640625">
        <ele>-3.599999904632568359375</ele>
        <time>2018-09-05T13:05:32.000Z</time>
      </trkpt>
      <trkpt lat="43.40919331647455692291259765625" lon="-3.94551546312868595123291015625">
        <ele>-4.599999904632568359375</ele>
        <time>2018-09-05T13:05:34.000Z</time>
      </trkpt>
      <trkpt lat="43.409056775271892547607421875" lon="-3.94563029520213603973388671875">
        <ele>-5</ele>
        <time>2018-09-05T13:05:36.000Z</time>
      </trkpt>
      <trkpt lat="43.40890933759510517120361328125" lon="-3.9457539282739162445068359375">
        <ele>-5.80000019073486328125</ele>
        <time>2018-09-05T13:05:38.000Z</time>
      </trkpt>
      <trkpt lat="43.40876131318509578704833984375" lon="-3.94587605260312557220458984375">
        <ele>-6.80000019073486328125</ele>
        <time>2018-09-05T13:05:40.000Z</time>
      </trkpt>
      <trkpt lat="43.408548831939697265625" lon="-3.94605140201747417449951171875">
        <ele>-7.19999980926513671875</ele>
        <time>2018-09-05T13:05:43.000Z</time>
      </trkpt>
      <trkpt lat="43.40841631405055522918701171875" lon="-3.94616179168224334716796875">
        <ele>-8</ele>
        <time>2018-09-05T13:05:45.000Z</time>
      </trkpt>
      <trkpt lat="43.40816502459347248077392578125" lon="-3.94636572338640689849853515625">
        <ele>-8</ele>
        <time>2018-09-05T13:05:49.000Z</time>
      </trkpt>
      <trkpt lat="43.40803979896008968353271484375" lon="-3.946465887129306793212890625">
        <ele>-7.400000095367431640625</ele>
        <time>2018-09-05T13:05:51.000Z</time>
      </trkpt>
      <trkpt lat="43.4075384773313999176025390625" lon="-3.9468724094331264495849609375">
        <ele>-7.80000019073486328125</ele>
        <time>2018-09-05T13:05:59.000Z</time>
      </trkpt>
      <trkpt lat="43.407476954162120819091796875" lon="-3.94692379049956798553466796875">
        <ele>-7.80000019073486328125</ele>
        <time>2018-09-05T13:06:00.000Z</time>
      </trkpt>
      <trkpt lat="43.40701167471706867218017578125" lon="-3.94730231724679470062255859375">
        <ele>-7.400000095367431640625</ele>
        <time>2018-09-05T13:06:08.000Z</time>
      </trkpt>
      <trkpt lat="43.40695627033710479736328125" lon="-3.94734690897166728973388671875">
        <ele>-7.599999904632568359375</ele>
        <time>2018-09-05T13:06:09.000Z</time>
      </trkpt>
      <trkpt lat="43.40663566254079341888427734375" lon="-3.9476197399199008941650390625">
        <ele>-7.19999980926513671875</ele>
        <time>2018-09-05T13:06:15.000Z</time>
      </trkpt>
      <trkpt lat="43.40658151544630527496337890625" lon="-3.94766374491155147552490234375">
        <ele>-6.80000019073486328125</ele>
        <time>2018-09-05T13:06:16.000Z</time>
      </trkpt>
      <trkpt lat="43.40641756542026996612548828125" lon="-3.94779819063842296600341796875">
        <ele>-6.19999980926513671875</ele>
        <time>2018-09-05T13:06:19.000Z</time>
      </trkpt>
      <trkpt lat="43.40603987686336040496826171875" lon="-3.94811200909316539764404296875">
        <ele>-6.599999904632568359375</ele>
        <time>2018-09-05T13:06:26.000Z</time>
      </trkpt>
      <trkpt lat="43.40583099983632564544677734375" lon="-3.94829138182103633880615234375">
        <ele>-5.80000019073486328125</ele>
        <time>2018-09-05T13:06:30.000Z</time>
      </trkpt>
      <trkpt lat="43.40534233488142490386962890625" lon="-3.948723971843719482421875">
        <ele>-6</ele>
        <time>2018-09-05T13:06:41.000Z</time>
      </trkpt>
      <trkpt lat="43.4052934683859348297119140625" lon="-3.94874341785907745361328125">
        <ele>-5.80000019073486328125</ele>
        <time>2018-09-05T13:06:42.000Z</time>
      </trkpt>
      <trkpt lat="43.40520336292684078216552734375" lon="-3.948698155581951141357421875">
        <ele>-5.400000095367431640625</ele>
        <time>2018-09-05T13:06:44.000Z</time>
      </trkpt>
      <trkpt lat="43.40512205846607685089111328125" lon="-3.94853009842336177825927734375">
        <ele>-4.80000019073486328125</ele>
        <time>2018-09-05T13:06:47.000Z</time>
      </trkpt>
      <trkpt lat="43.40505190193653106689453125" lon="-3.948439992964267730712890625">
        <ele>-4.80000019073486328125</ele>
        <time>2018-09-05T13:06:49.000Z</time>
      </trkpt>
      <trkpt lat="43.40491184033453464508056640625" lon="-3.9482674933969974517822265625">
        <ele>-4</ele>
        <time>2018-09-05T13:06:53.000Z</time>
      </trkpt>
      <trkpt lat="43.40484327636659145355224609375" lon="-3.948192894458770751953125">
        <ele>-3.599999904632568359375</ele>
        <time>2018-09-05T13:06:55.000Z</time>
      </trkpt>
      <trkpt lat="43.40473514981567859649658203125" lon="-3.94808518700301647186279296875">
        <ele>-3.400000095367431640625</ele>
        <time>2018-09-05T13:06:59.000Z</time>
      </trkpt>
      <trkpt lat="43.40470581315457820892333984375" lon="-3.948044367134571075439453125">
        <ele>-2.599999904632568359375</ele>
        <time>2018-09-05T13:08:40.000Z</time>
      </trkpt>
      <trkpt lat="43.40469181537628173828125" lon="-3.94803238101303577423095703125">
        <ele>-2.599999904632568359375</ele>
        <time>2018-09-05T13:08:41.000Z</time>
      </trkpt>
      <trkpt lat="43.40460875071585178375244140625" lon="-3.94792132079601287841796875">
        <ele>-2.2000000476837158203125</ele>
        <time>2018-09-05T13:08:46.000Z</time>
      </trkpt>
      <trkpt lat="43.404521830379962921142578125" lon="-3.94781109876930713653564453125">
        <ele>-1.7999999523162841796875</ele>
        <time>2018-09-05T13:08:50.000Z</time>
      </trkpt>
      <trkpt lat="43.40445578098297119140625" lon="-3.94772711209952831268310546875">
        <ele>-1.39999997615814208984375</ele>
        <time>2018-09-05T13:08:53.000Z</time>
      </trkpt>
      <trkpt lat="43.40443457476794719696044921875" lon="-3.94770029000937938690185546875">
        <ele>-1.39999997615814208984375</ele>
        <time>2018-09-05T13:08:54.000Z</time>
      </trkpt>
      <trkpt lat="43.4042826108634471893310546875" lon="-3.94751907326281070709228515625">
        <ele>-1</ele>
        <time>2018-09-05T13:09:01.000Z</time>
      </trkpt>
      <trkpt lat="43.40425989590585231781005859375" lon="-3.947490490972995758056640625">
        <ele>-0.800000011920928955078125</ele>
        <time>2018-09-05T13:09:02.000Z</time>
      </trkpt>
      <trkpt lat="43.40418010018765926361083984375" lon="-3.94740164279937744140625">
        <ele>-0.800000011920928955078125</ele>
        <time>2018-09-05T13:09:05.000Z</time>
      </trkpt>
      <trkpt lat="43.4040630050003528594970703125" lon="-3.94726417958736419677734375">
        <ele>-1.39999997615814208984375</ele>
        <time>2018-09-05T13:09:09.000Z</time>
      </trkpt>
      <trkpt lat="43.40386477299034595489501953125" lon="-3.94701230339705944061279296875">
        <ele>-1.7999999523162841796875</ele>
        <time>2018-09-05T13:09:15.000Z</time>
      </trkpt>
      <trkpt lat="43.40379989705979824066162109375" lon="-3.94693686626851558685302734375">
        <ele>-2</ele>
        <time>2018-09-05T13:09:17.000Z</time>
      </trkpt>
      <trkpt lat="43.40372194536030292510986328125" lon="-3.9469723217189311981201171875">
        <ele>-2.2000000476837158203125</ele>
        <time>2018-09-05T13:09:20.000Z</time>
      </trkpt>
      <trkpt lat="43.40369596146047115325927734375" lon="-3.94700123928487300872802734375">
        <ele>-2.2000000476837158203125</ele>
        <time>2018-09-05T13:09:21.000Z</time>
      </trkpt>
      <trkpt lat="43.40355967171490192413330078125" lon="-3.94710727035999298095703125">
        <ele>-2.400000095367431640625</ele>
        <time>2018-09-05T13:09:25.000Z</time>
      </trkpt>
      <trkpt lat="43.403524719178676605224609375" lon="-3.94712730310857295989990234375">
        <ele>-2.599999904632568359375</ele>
        <time>2018-09-05T13:09:26.000Z</time>
      </trkpt>
      <trkpt lat="43.40333285741508007049560546875" lon="-3.94723023287951946258544921875">
        <ele>-2</ele>
        <time>2018-09-05T13:09:32.000Z</time>
      </trkpt>
      <trkpt lat="43.40330217964947223663330078125" lon="-3.94724448211491107940673828125">
        <ele>-1.2000000476837158203125</ele>
        <time>2018-09-05T13:09:33.000Z</time>
      </trkpt>
      <trkpt lat="43.4031694941222667694091796875" lon="-3.9473414607346057891845703125">
        <ele>-0.4000000059604644775390625</ele>
        <time>2018-09-05T13:09:38.000Z</time>
      </trkpt>
      <trkpt lat="43.40312481857836246490478515625" lon="-3.9473707973957061767578125">
        <ele>-0.20000000298023223876953125</ele>
        <time>2018-09-05T13:09:41.000Z</time>
      </trkpt>
      <trkpt lat="43.403075449168682098388671875" lon="-3.94740440882742404937744140625">
        <ele>-0.800000011920928955078125</ele>
        <time>2018-09-05T13:11:06.000Z</time>
      </trkpt>
      <trkpt lat="43.40305508114397525787353515625" lon="-3.94740826450288295745849609375">
        <ele>-0.800000011920928955078125</ele>
        <time>2018-09-05T13:11:07.000Z</time>
      </trkpt>
      <trkpt lat="43.40303479693830013275146484375" lon="-3.9474145509302616119384765625">
        <ele>-0.800000011920928955078125</ele>
        <time>2018-09-05T13:11:08.000Z</time>
      </trkpt>
      <trkpt lat="43.40292952023446559906005859375" lon="-3.94749325700104236602783203125">
        <ele>-1.2000000476837158203125</ele>
        <time>2018-09-05T13:11:12.000Z</time>
      </trkpt>
      <trkpt lat="43.40289750136435031890869140625" lon="-3.9475144632160663604736328125">
        <ele>-1.39999997615814208984375</ele>
        <time>2018-09-05T13:11:13.000Z</time>
      </trkpt>
      <trkpt lat="43.40284720994532108306884765625" lon="-3.9475550316274166107177734375">
        <ele>-2</ele>
        <time>2018-09-05T13:11:15.000Z</time>
      </trkpt>
      <trkpt lat="43.40282164514064788818359375" lon="-3.94757037051022052764892578125">
        <ele>-2.2000000476837158203125</ele>
        <time>2018-09-05T13:11:16.000Z</time>
      </trkpt>
      <trkpt lat="43.4027899615466594696044921875" lon="-3.94758461974561214447021484375">
        <ele>-2.400000095367431640625</ele>
        <time>2018-09-05T13:11:17.000Z</time>
      </trkpt>
      <trkpt lat="43.40275567956268787384033203125" lon="-3.947604484856128692626953125">
        <ele>-2.7999999523162841796875</ele>
        <time>2018-09-05T13:11:18.000Z</time>
      </trkpt>
      <trkpt lat="43.4026359021663665771484375" lon="-3.94769199192523956298828125">
        <ele>-3.599999904632568359375</ele>
        <time>2018-09-05T13:11:21.000Z</time>
      </trkpt>
      <trkpt lat="43.40255870483815670013427734375" lon="-3.94774027168750762939453125">
        <ele>-4.400000095367431640625</ele>
        <time>2018-09-05T13:11:23.000Z</time>
      </trkpt>
      <trkpt lat="43.4025200642645359039306640625" lon="-3.9477732963860034942626953125">
        <ele>-4.599999904632568359375</ele>
        <time>2018-09-05T13:11:24.000Z</time>
      </trkpt>
      <trkpt lat="43.40245644561946392059326171875" lon="-3.9478869549930095672607421875">
        <ele>-5.19999980926513671875</ele>
        <time>2018-09-05T13:11:26.000Z</time>
      </trkpt>
      <trkpt lat="43.40243867598474025726318359375" lon="-3.9479603804647922515869140625">
        <ele>-5.599999904632568359375</ele>
        <time>2018-09-05T13:11:27.000Z</time>
      </trkpt>
      <trkpt lat="43.40242803096771240234375" lon="-3.9480374939739704132080078125">
        <ele>-6</ele>
        <time>2018-09-05T13:11:28.000Z</time>
      </trkpt>
      <trkpt lat="43.4024452976882457733154296875" lon="-3.948309235274791717529296875">
        <ele>-7.19999980926513671875</ele>
        <time>2018-09-05T13:11:31.000Z</time>
      </trkpt>
      <trkpt lat="43.40247823856770992279052734375" lon="-3.9488223753869533538818359375">
        <ele>-8</ele>
        <time>2018-09-05T13:11:37.000Z</time>
      </trkpt>
      <trkpt lat="43.4024835191667079925537109375" lon="-3.94889890216290950775146484375">
        <ele>-8</ele>
        <time>2018-09-05T13:11:38.000Z</time>
      </trkpt>
      <trkpt lat="43.402488715946674346923828125" lon="-3.9489732496440410614013671875">
        <ele>-8</ele>
        <time>2018-09-05T13:11:39.000Z</time>
      </trkpt>
      <trkpt lat="43.40249240398406982421875" lon="-3.94904407672584056854248046875">
        <ele>-8.19999980926513671875</ele>
        <time>2018-09-05T13:11:40.000Z</time>
      </trkpt>
      <trkpt lat="43.40251612477004528045654296875" lon="-3.9493175782263278961181640625">
        <ele>-8.3999996185302734375</ele>
        <time>2018-09-05T13:11:44.000Z</time>
      </trkpt>
      <trkpt lat="43.402518890798091888427734375" lon="-3.94938522018492221832275390625">
        <ele>-8.3999996185302734375</ele>
        <time>2018-09-05T13:11:45.000Z</time>
      </trkpt>
      <trkpt lat="43.40254135429859161376953125" lon="-3.9497772417962551116943359375">
        <ele>-8</ele>
        <time>2018-09-05T13:11:51.000Z</time>
      </trkpt>
      <trkpt lat="43.40255065821111202239990234375" lon="-3.9498446322977542877197265625">
        <ele>-8</ele>
        <time>2018-09-05T13:11:52.000Z</time>
      </trkpt>
      <trkpt lat="43.40258804149925708770751953125" lon="-3.95017948932945728302001953125">
        <ele>-8.19999980926513671875</ele>
        <time>2018-09-05T13:11:57.000Z</time>
      </trkpt>
      <trkpt lat="43.40261821635067462921142578125" lon="-3.95065474323928356170654296875">
        <ele>-8.3999996185302734375</ele>
        <time>2018-09-05T13:12:04.000Z</time>
      </trkpt>
      <trkpt lat="43.40262358076870441436767578125" lon="-3.950723893940448760986328125">
        <ele>-8.19999980926513671875</ele>
        <time>2018-09-05T13:12:05.000Z</time>
      </trkpt>
      <trkpt lat="43.40264705009758472442626953125" lon="-3.95111608318984508514404296875">
        <ele>-7.599999904632568359375</ele>
        <time>2018-09-05T13:12:11.000Z</time>
      </trkpt>
      <trkpt lat="43.40265610255300998687744140625" lon="-3.9511763490736484527587890625">
        <ele>-7.599999904632568359375</ele>
        <time>2018-09-05T13:12:12.000Z</time>
      </trkpt>
      <trkpt lat="43.40266632847487926483154296875" lon="-3.95123443566262722015380859375">
        <ele>-8</ele>
        <time>2018-09-05T13:12:13.000Z</time>
      </trkpt>
      <trkpt lat="43.40267144143581390380859375" lon="-3.95129151642322540283203125">
        <ele>-8</ele>
        <time>2018-09-05T13:12:14.000Z</time>
      </trkpt>
      <trkpt lat="43.40266741812229156494140625" lon="-3.951411545276641845703125">
        <ele>-7.80000019073486328125</ele>
        <time>2018-09-05T13:12:17.000Z</time>
      </trkpt>
      <trkpt lat="43.40265409089624881744384765625" lon="-3.95149176008999347686767578125">
        <ele>-7.400000095367431640625</ele>
        <time>2018-09-05T13:12:21.000Z</time>
      </trkpt>
      <trkpt lat="43.402658365666866302490234375" lon="-3.95151237957179546356201171875">
        <ele>-7.400000095367431640625</ele>
        <time>2018-09-05T13:12:22.000Z</time>
      </trkpt>
      <trkpt lat="43.4026555158197879791259765625" lon="-3.95152830518782138824462890625">
        <ele>-7.400000095367431640625</ele>
        <time>2018-09-05T13:12:23.000Z</time>
      </trkpt>
      <trkpt lat="43.4026588685810565948486328125" lon="-3.95162251777946949005126953125">
        <ele>-7.400000095367431640625</ele>
        <time>2018-09-05T13:12:26.000Z</time>
      </trkpt>
      <trkpt lat="43.40267990715801715850830078125" lon="-3.95170818082988262176513671875">
        <ele>-7.19999980926513671875</ele>
        <time>2018-09-05T13:12:30.000Z</time>
      </trkpt>
      <trkpt lat="43.4026467986404895782470703125" lon="-3.9516916684806346893310546875">
        <ele>-7.400000095367431640625</ele>
        <time>2018-09-05T13:12:33.000Z</time>
      </trkpt>
      <trkpt lat="43.402648977935314178466796875" lon="-3.95163886249065399169921875">
        <ele>-7.400000095367431640625</ele>
        <time>2018-09-05T13:12:35.000Z</time>
      </trkpt>
      <trkpt lat="43.4026451222598552703857421875" lon="-3.95156736485660076141357421875">
        <ele>-7.400000095367431640625</ele>
        <time>2018-09-05T13:12:37.000Z</time>
      </trkpt>
      <trkpt lat="43.402645625174045562744140625" lon="-3.9513932727277278900146484375">
        <ele>-7.400000095367431640625</ele>
        <time>2018-09-05T13:12:41.000Z</time>
      </trkpt>
      <trkpt lat="43.4026531688868999481201171875" lon="-3.95136536099016666412353515625">
        <ele>-7.400000095367431640625</ele>
        <time>2018-09-05T13:12:42.000Z</time>
      </trkpt>
      <trkpt lat="43.40267353691160678863525390625" lon="-3.95135111175477504730224609375">
        <ele>-7.400000095367431640625</ele>
        <time>2018-09-05T13:12:43.000Z</time>
      </trkpt>
      <trkpt lat="43.40272466652095317840576171875" lon="-3.95136217586696147918701171875">
        <ele>-7.400000095367431640625</ele>
        <time>2018-09-05T13:12:45.000Z</time>
      </trkpt>
      <trkpt lat="43.4027644805610179901123046875" lon="-3.9514727331697940826416015625">
        <ele>-7.400000095367431640625</ele>
        <time>2018-09-05T13:12:49.000Z</time>
      </trkpt>
      <trkpt lat="43.4027617983520030975341796875" lon="-3.9514978788793087005615234375">
        <ele>-7.19999980926513671875</ele>
        <time>2018-09-05T13:12:50.000Z</time>
      </trkpt>
      <trkpt lat="43.4027644805610179901123046875" lon="-3.951547332108020782470703125">
        <ele>-6.599999904632568359375</ele>
        <time>2018-09-05T13:12:53.000Z</time>
      </trkpt>
      <trkpt lat="43.4027477167546749114990234375" lon="-3.95159217528998851776123046875">
        <ele>-6.599999904632568359375</ele>
        <time>2018-09-05T13:12:56.000Z</time>
      </trkpt>
      <trkpt lat="43.40274478308856487274169921875" lon="-3.9516021497547626495361328125">
        <ele>-6.599999904632568359375</ele>
        <time>2018-09-05T13:12:57.000Z</time>
      </trkpt>
      <trkpt lat="43.402755260467529296875" lon="-3.95164129324257373809814453125">
        <ele>-6.80000019073486328125</ele>
        <time>2018-09-05T13:13:03.000Z</time>
      </trkpt>
      <trkpt lat="43.402757607400417327880859375" lon="-3.95167817361652851104736328125">
        <ele>-6.80000019073486328125</ele>
        <time>2018-09-05T13:13:04.000Z</time>
      </trkpt>
      <trkpt lat="43.40276540257036685943603515625" lon="-3.95191538147628307342529296875">
        <ele>-7</ele>
        <time>2018-09-05T13:13:09.000Z</time>
      </trkpt>
      <trkpt lat="43.40275651775300502777099609375" lon="-3.95237118937075138092041015625">
        <ele>-6.400000095367431640625</ele>
        <time>2018-09-05T13:13:17.000Z</time>
      </trkpt>
      <trkpt lat="43.40277898125350475311279296875" lon="-3.952663801610469818115234375">
        <ele>-6.19999980926513671875</ele>
        <time>2018-09-05T13:13:22.000Z</time>
      </trkpt>
      <trkpt lat="43.402812592685222625732421875" lon="-3.95309873856604099273681640625">
        <ele>-6.19999980926513671875</ele>
        <time>2018-09-05T13:13:29.000Z</time>
      </trkpt>
      <trkpt lat="43.40282835066318511962890625" lon="-3.95334131084382534027099609375">
        <ele>-6.400000095367431640625</ele>
        <time>2018-09-05T13:13:33.000Z</time>
      </trkpt>
      <trkpt lat="43.4028412587940692901611328125" lon="-3.953447006642818450927734375">
        <ele>-6.19999980926513671875</ele>
        <time>2018-09-05T13:13:35.000Z</time>
      </trkpt>
      <trkpt lat="43.4028317034244537353515625" lon="-3.9534763433039188385009765625">
        <ele>-6.19999980926513671875</ele>
        <time>2018-09-05T13:13:36.000Z</time>
      </trkpt>
      <trkpt lat="43.402796499431133270263671875" lon="-3.953453041613101959228515625">
        <ele>-6.400000095367431640625</ele>
        <time>2018-09-05T13:13:38.000Z</time>
      </trkpt>
      <trkpt lat="43.40277294628322124481201171875" lon="-3.95332002080976963043212890625">
        <ele>-6.19999980926513671875</ele>
        <time>2018-09-05T13:13:41.000Z</time>
      </trkpt>
      <trkpt lat="43.40269683860242366790771484375" lon="-3.9533023349940776824951171875">
        <ele>-6.599999904632568359375</ele>
        <time>2018-09-05T13:13:44.000Z</time>
      </trkpt>
      <trkpt lat="43.40260949917137622833251953125" lon="-3.95341255702078342437744140625">
        <ele>-7.19999980926513671875</ele>
        <time>2018-09-05T13:13:47.000Z</time>
      </trkpt>
      <trkpt lat="43.40257085859775543212890625" lon="-3.95344792865216732025146484375">
        <ele>-7.400000095367431640625</ele>
        <time>2018-09-05T13:13:48.000Z</time>
      </trkpt>
      <trkpt lat="43.4025338105857372283935546875" lon="-3.95348447374999523162841796875">
        <ele>-7.599999904632568359375</ele>
        <time>2018-09-05T13:13:49.000Z</time>
      </trkpt>
      <trkpt lat="43.40249634347856044769287109375" lon="-3.9535279758274555206298828125">
        <ele>-7.80000019073486328125</ele>
        <time>2018-09-05T13:13:50.000Z</time>
      </trkpt>
      <trkpt lat="43.4024674259126186370849609375" lon="-3.953585140407085418701171875">
        <ele>-8</ele>
        <time>2018-09-05T13:13:51.000Z</time>
      </trkpt>
      <trkpt lat="43.40242861770093441009521484375" lon="-3.9537210948765277862548828125">
        <ele>-8.3999996185302734375</ele>
        <time>2018-09-05T13:13:53.000Z</time>
      </trkpt>
      <trkpt lat="43.4024084173142910003662109375" lon="-3.9538657665252685546875">
        <ele>-8.3999996185302734375</ele>
        <time>2018-09-05T13:13:55.000Z</time>
      </trkpt>
      <trkpt lat="43.402382098138332366943359375" lon="-3.9541381783783435821533203125">
        <ele>-9</ele>
        <time>2018-09-05T13:13:59.000Z</time>
      </trkpt>
      <trkpt lat="43.402361311018466949462890625" lon="-3.95430355332791805267333984375">
        <ele>-6.80000019073486328125</ele>
        <time>2018-09-05T13:14:02.000Z</time>
      </trkpt>
      <trkpt lat="43.4023462235927581787109375" lon="-3.954396508634090423583984375">
        <ele>-7.80000019073486328125</ele>
        <time>2018-09-05T13:14:04.000Z</time>
      </trkpt>
      <trkpt lat="43.40234295465052127838134765625" lon="-3.95444638095796108245849609375">
        <ele>-7.599999904632568359375</ele>
        <time>2018-09-05T13:14:05.000Z</time>
      </trkpt>
      <trkpt lat="43.40232518501579761505126953125" lon="-3.95461401902139186859130859375">
        <ele>-7.80000019073486328125</ele>
        <time>2018-09-05T13:14:08.000Z</time>
      </trkpt>
      <trkpt lat="43.40232199989259243011474609375" lon="-3.95467302761971950531005859375">
        <ele>-7.80000019073486328125</ele>
        <time>2018-09-05T13:14:09.000Z</time>
      </trkpt>
      <trkpt lat="43.40230724774301052093505859375" lon="-3.95479624159634113311767578125">
        <ele>-7.80000019073486328125</ele>
        <time>2018-09-05T13:14:11.000Z</time>
      </trkpt>
      <trkpt lat="43.4022979438304901123046875" lon="-3.954859189689159393310546875">
        <ele>-7.80000019073486328125</ele>
        <time>2018-09-05T13:14:12.000Z</time>
      </trkpt>
      <trkpt lat="43.40226634405553340911865234375" lon="-3.95505825988948345184326171875">
        <ele>-8</ele>
        <time>2018-09-05T13:14:15.000Z</time>
      </trkpt>
      <trkpt lat="43.40221990831196308135986328125" lon="-3.9554442465305328369140625">
        <ele>-7</ele>
        <time>2018-09-05T13:14:21.000Z</time>
      </trkpt>
      <trkpt lat="43.402213789522647857666015625" lon="-3.95556285046041011810302734375">
        <ele>-6.80000019073486328125</ele>
        <time>2018-09-05T13:14:23.000Z</time>
      </trkpt>
      <trkpt lat="43.4022166393697261810302734375" lon="-3.9556212723255157470703125">
        <ele>-6.80000019073486328125</ele>
        <time>2018-09-05T13:14:24.000Z</time>
      </trkpt>
      <trkpt lat="43.40224153362214565277099609375" lon="-3.95578698255121707916259765625">
        <ele>-6.400000095367431640625</ele>
        <time>2018-09-05T13:14:27.000Z</time>
      </trkpt>
      <trkpt lat="43.4023547731339931488037109375" lon="-3.956129215657711029052734375">
        <ele>-5.80000019073486328125</ele>
        <time>2018-09-05T13:14:34.000Z</time>
      </trkpt>
      <trkpt lat="43.40245820581912994384765625" lon="-3.95642383955419063568115234375">
        <ele>-5.80000019073486328125</ele>
        <time>2018-09-05T13:14:40.000Z</time>
      </trkpt>
      <trkpt lat="43.402475304901599884033203125" lon="-3.9564720354974269866943359375">
        <ele>-5.599999904632568359375</ele>
        <time>2018-09-05T13:14:41.000Z</time>
      </trkpt>
      <trkpt lat="43.4024898894131183624267578125" lon="-3.95651780068874359130859375">
        <ele>-5.599999904632568359375</ele>
        <time>2018-09-05T13:14:42.000Z</time>
      </trkpt>
      <trkpt lat="43.402602374553680419921875" lon="-3.9568656496703624725341796875">
        <ele>-5.19999980926513671875</ele>
        <time>2018-09-05T13:14:49.000Z</time>
      </trkpt>
      <trkpt lat="43.40266607701778411865234375" lon="-3.9570607803761959075927734375">
        <ele>-4.400000095367431640625</ele>
        <time>2018-09-05T13:14:53.000Z</time>
      </trkpt>
      <trkpt lat="43.4027973376214504241943359375" lon="-3.9574027620255947113037109375">
        <ele>-4.599999904632568359375</ele>
        <time>2018-09-05T13:15:00.000Z</time>
      </trkpt>
      <trkpt lat="43.40296589769423007965087890625" lon="-3.957865275442600250244140625">
        <ele>-5.19999980926513671875</ele>
        <time>2018-09-05T13:15:09.000Z</time>
      </trkpt>
      <trkpt lat="43.40315449051558971405029296875" lon="-3.958448655903339385986328125">
        <ele>-5</ele>
        <time>2018-09-05T13:15:19.000Z</time>
      </trkpt>
      <trkpt lat="43.4032513014972209930419921875" lon="-3.95893447101116180419921875">
        <ele>-4.19999980926513671875</ele>
        <time>2018-09-05T13:15:27.000Z</time>
      </trkpt>
      <trkpt lat="43.40334241278469562530517578125" lon="-3.9594509638845920562744140625">
        <ele>-4</ele>
        <time>2018-09-05T13:15:35.000Z</time>
      </trkpt>
      <trkpt lat="43.40342204086482524871826171875" lon="-3.959806859493255615234375">
        <ele>-3.2000000476837158203125</ele>
        <time>2018-09-05T13:15:41.000Z</time>
      </trkpt>
      <trkpt lat="43.40346948243677616119384765625" lon="-3.96004666574299335479736328125">
        <ele>-3</ele>
        <time>2018-09-05T13:15:45.000Z</time>
      </trkpt>
      <trkpt lat="43.40357559733092784881591796875" lon="-3.960533402860164642333984375">
        <ele>-2.400000095367431640625</ele>
        <time>2018-09-05T13:15:53.000Z</time>
      </trkpt>
      <trkpt lat="43.40364147908985614776611328125" lon="-3.96081847138702869415283203125">
        <ele>-2.2000000476837158203125</ele>
        <time>2018-09-05T13:15:58.000Z</time>
      </trkpt>
      <trkpt lat="43.40368137694895267486572265625" lon="-3.9609925635159015655517578125">
        <ele>-1.7999999523162841796875</ele>
        <time>2018-09-05T13:16:01.000Z</time>
      </trkpt>
      <trkpt lat="43.4037823788821697235107421875" lon="-3.96142481826245784759521484375">
        <ele>-1.2000000476837158203125</ele>
        <time>2018-09-05T13:16:09.000Z</time>
      </trkpt>
      <trkpt lat="43.40378900058567523956298828125" lon="-3.96147477440536022186279296875">
        <ele>-1.2000000476837158203125</ele>
        <time>2018-09-05T13:16:10.000Z</time>
      </trkpt>
      <trkpt lat="43.40382604859769344329833984375" lon="-3.96163889206945896148681640625">
        <ele>0</ele>
        <time>2018-09-05T13:16:14.000Z</time>
      </trkpt>
      <trkpt lat="43.403831161558628082275390625" lon="-3.96167610771954059600830078125">
        <ele>0</ele>
        <time>2018-09-05T13:16:15.000Z</time>
      </trkpt>
      <trkpt lat="43.40386762283742427825927734375" lon="-3.961844332516193389892578125">
        <ele>1</ele>
        <time>2018-09-05T13:16:20.000Z</time>
      </trkpt>
      <trkpt lat="43.40389184653759002685546875" lon="-3.9618957974016666412353515625">
        <ele>2</ele>
        <time>2018-09-05T13:16:22.000Z</time>
      </trkpt>
      <trkpt lat="43.4039084427058696746826171875" lon="-3.96191230975091457366943359375">
        <ele>2.2000000476837158203125</ele>
        <time>2018-09-05T13:16:23.000Z</time>
      </trkpt>
      <trkpt lat="43.4039828740060329437255859375" lon="-3.96194432862102985382080078125">
        <ele>2.7999999523162841796875</ele>
        <time>2018-09-05T13:16:27.000Z</time>
      </trkpt>
      <trkpt lat="43.4040016494691371917724609375" lon="-3.9619470946490764617919921875">
        <ele>3</ele>
        <time>2018-09-05T13:16:28.000Z</time>
      </trkpt>
      <trkpt lat="43.40409611351788043975830078125" lon="-3.9619725756347179412841796875">
        <ele>4.19999980926513671875</ele>
        <time>2018-09-05T13:16:33.000Z</time>
      </trkpt>
      <trkpt lat="43.4041300602257251739501953125" lon="-3.9619936980307102203369140625">
        <ele>4.599999904632568359375</ele>
        <time>2018-09-05T13:16:35.000Z</time>
      </trkpt>
      <trkpt lat="43.40417289175093173980712890625" lon="-3.9620397984981536865234375">
        <ele>5.19999980926513671875</ele>
        <time>2018-09-05T13:16:38.000Z</time>
      </trkpt>
      <trkpt lat="43.40421765111386775970458984375" lon="-3.96210861392319202423095703125">
        <ele>5.599999904632568359375</ele>
        <time>2018-09-05T13:16:41.000Z</time>
      </trkpt>
      <trkpt lat="43.40422821231186389923095703125" lon="-3.96213644184172153472900390625">
        <ele>5.80000019073486328125</ele>
        <time>2018-09-05T13:16:42.000Z</time>
      </trkpt>
      <trkpt lat="43.40424581430852413177490234375" lon="-3.962215483188629150390625">
        <ele>6.400000095367431640625</ele>
        <time>2018-09-05T13:16:45.000Z</time>
      </trkpt>
      <trkpt lat="43.40426123701035976409912109375" lon="-3.9622954465448856353759765625">
        <ele>6.599999904632568359375</ele>
        <time>2018-09-05T13:16:48.000Z</time>
      </trkpt>
      <trkpt lat="43.4042822755873203277587890625" lon="-3.96239929832518100738525390625">
        <ele>7.400000095367431640625</ele>
        <time>2018-09-05T13:16:52.000Z</time>
      </trkpt>
      <trkpt lat="43.4042930044233798980712890625" lon="-3.96250323392450809478759765625">
        <ele>7.80000019073486328125</ele>
        <time>2018-09-05T13:16:56.000Z</time>
      </trkpt>
      <trkpt lat="43.40429644100368022918701171875" lon="-3.9625816047191619873046875">
        <ele>8.3999996185302734375</ele>
        <time>2018-09-05T13:16:59.000Z</time>
      </trkpt>
      <trkpt lat="43.404327370226383209228515625" lon="-3.962679170072078704833984375">
        <ele>9.19999980926513671875</ele>
        <time>2018-09-05T13:17:03.000Z</time>
      </trkpt>
      <trkpt lat="43.4043268673121929168701171875" lon="-3.96272837184369564056396484375">
        <ele>9.6000003814697265625</ele>
        <time>2018-09-05T13:17:05.000Z</time>
      </trkpt>
      <trkpt lat="43.40433818288147449493408203125" lon="-3.962829373776912689208984375">
        <ele>10.19999980926513671875</ele>
        <time>2018-09-05T13:17:09.000Z</time>
      </trkpt>
      <trkpt lat="43.404344134032726287841796875" lon="-3.96288578398525714874267578125">
        <ele>10.6000003814697265625</ele>
        <time>2018-09-05T13:17:11.000Z</time>
      </trkpt>
      <trkpt lat="43.40435394085943698883056640625" lon="-3.96301117725670337677001953125">
        <ele>11.3999996185302734375</ele>
        <time>2018-09-05T13:17:16.000Z</time>
      </trkpt>
      <trkpt lat="43.404360227286815643310546875" lon="-3.96303380839526653289794921875">
        <ele>11.6000003814697265625</ele>
        <time>2018-09-05T13:17:17.000Z</time>
      </trkpt>
      <trkpt lat="43.404399119317531585693359375" lon="-3.9632092416286468505859375">
        <ele>12.80000019073486328125</ele>
        <time>2018-09-05T13:17:24.000Z</time>
      </trkpt>
      <trkpt lat="43.40442250482738018035888671875" lon="-3.9633943140506744384765625">
        <ele>13.80000019073486328125</ele>
        <time>2018-09-05T13:17:31.000Z</time>
      </trkpt>
      <trkpt lat="43.4044302999973297119140625" lon="-3.96347687579691410064697265625">
        <ele>14.3999996185302734375</ele>
        <time>2018-09-05T13:17:34.000Z</time>
      </trkpt>
      <trkpt lat="43.40444848872721195220947265625" lon="-3.9635849185287952423095703125">
        <ele>15</ele>
        <time>2018-09-05T13:17:38.000Z</time>
      </trkpt>
      <trkpt lat="43.40446860529482364654541015625" lon="-3.9636962302029132843017578125">
        <ele>15.3999996185302734375</ele>
        <time>2018-09-05T13:17:42.000Z</time>
      </trkpt>
      <trkpt lat="43.40447254478931427001953125" lon="-3.96372447721660137176513671875">
        <ele>15.80000019073486328125</ele>
        <time>2018-09-05T13:17:43.000Z</time>
      </trkpt>
      <trkpt lat="43.4044844470918178558349609375" lon="-3.96380729041993618011474609375">
        <ele>16</ele>
        <time>2018-09-05T13:17:46.000Z</time>
      </trkpt>
      <trkpt lat="43.404503725469112396240234375" lon="-3.96397056989371776580810546875">
        <ele>16.799999237060546875</ele>
        <time>2018-09-05T13:17:52.000Z</time>
      </trkpt>
      <trkpt lat="43.40450800023972988128662109375" lon="-3.9640541374683380126953125">
        <ele>17.200000762939453125</ele>
        <time>2018-09-05T13:17:55.000Z</time>
      </trkpt>
      <trkpt lat="43.4045250155031681060791015625" lon="-3.9642095379531383514404296875">
        <ele>18.200000762939453125</ele>
        <time>2018-09-05T13:18:01.000Z</time>
      </trkpt>
      <trkpt lat="43.40455443598330020904541015625" lon="-3.96437533199787139892578125">
        <ele>19.3999996185302734375</ele>
        <time>2018-09-05T13:18:07.000Z</time>
      </trkpt>
      <trkpt lat="43.4045632369816303253173828125" lon="-3.9644546248018741607666015625">
        <ele>20.200000762939453125</ele>
        <time>2018-09-05T13:18:10.000Z</time>
      </trkpt>
      <trkpt lat="43.404564075171947479248046875" lon="-3.964505083858966827392578125">
        <ele>20.799999237060546875</ele>
        <time>2018-09-05T13:18:12.000Z</time>
      </trkpt>
      <trkpt lat="43.4045914001762866973876953125" lon="-3.9646440558135509490966796875">
        <ele>22</ele>
        <time>2018-09-05T13:18:18.000Z</time>
      </trkpt>
      <trkpt lat="43.40460020117461681365966796875" lon="-3.96471320651471614837646484375">
        <ele>23</ele>
        <time>2018-09-05T13:18:21.000Z</time>
      </trkpt>
      <trkpt lat="43.404612354934215545654296875" lon="-3.96483021788299083709716796875">
        <ele>23.799999237060546875</ele>
        <time>2018-09-05T13:18:26.000Z</time>
      </trkpt>
      <trkpt lat="43.404617048799991607666015625" lon="-3.96485410630702972412109375">
        <ele>24.200000762939453125</ele>
        <time>2018-09-05T13:18:27.000Z</time>
      </trkpt>
      <trkpt lat="43.4046312980353832244873046875" lon="-3.9650071598589420318603515625">
        <ele>25</ele>
        <time>2018-09-05T13:18:34.000Z</time>
      </trkpt>
      <trkpt lat="43.4046341478824615478515625" lon="-3.96503113210201263427734375">
        <ele>25.200000762939453125</ele>
        <time>2018-09-05T13:18:35.000Z</time>
      </trkpt>
      <trkpt lat="43.40464378707110881805419921875" lon="-3.96514235995709896087646484375">
        <ele>26</ele>
        <time>2018-09-05T13:18:40.000Z</time>
      </trkpt>
      <trkpt lat="43.4046494029462337493896484375" lon="-3.9651657454669475555419921875">
        <ele>26.3999996185302734375</ele>
        <time>2018-09-05T13:18:41.000Z</time>
      </trkpt>
      <trkpt lat="43.404656946659088134765625" lon="-3.96520958282053470611572265625">
        <ele>26.799999237060546875</ele>
        <time>2018-09-05T13:18:43.000Z</time>
      </trkpt>
      <trkpt lat="43.40467195026576519012451171875" lon="-3.9652783982455730438232421875">
        <ele>27.3999996185302734375</ele>
        <time>2018-09-05T13:18:46.000Z</time>
      </trkpt>
      <trkpt lat="43.40468720532953739166259765625" lon="-3.9653898775577545166015625">
        <ele>28</ele>
        <time>2018-09-05T13:18:51.000Z</time>
      </trkpt>
      <trkpt lat="43.4046926535665988922119140625" lon="-3.96546757780015468597412109375">
        <ele>28.6000003814697265625</ele>
        <time>2018-09-05T13:18:54.000Z</time>
      </trkpt>
      <trkpt lat="43.4047084115445613861083984375" lon="-3.96557687781751155853271484375">
        <ele>29.6000003814697265625</ele>
        <time>2018-09-05T13:18:58.000Z</time>
      </trkpt>
      <trkpt lat="43.4047114290297031402587890625" lon="-3.96560302935540676116943359375">
        <ele>29.799999237060546875</ele>
        <time>2018-09-05T13:18:59.000Z</time>
      </trkpt>
      <trkpt lat="43.404717631638050079345703125" lon="-3.96573177538812160491943359375">
        <ele>30.799999237060546875</ele>
        <time>2018-09-05T13:19:04.000Z</time>
      </trkpt>
      <trkpt lat="43.40472475625574588775634765625" lon="-3.96577653475105762481689453125">
        <ele>31</ele>
        <time>2018-09-05T13:19:06.000Z</time>
      </trkpt>
      <trkpt lat="43.40473900549113750457763671875" lon="-3.9658373035490512847900390625">
        <ele>32</ele>
        <time>2018-09-05T13:19:09.000Z</time>
      </trkpt>
      <trkpt lat="43.4047593735158443450927734375" lon="-3.96594417281448841094970703125">
        <ele>33</ele>
        <time>2018-09-05T13:19:14.000Z</time>
      </trkpt>
      <trkpt lat="43.4047623910009860992431640625" lon="-3.9659670554101467132568359375">
        <ele>33.200000762939453125</ele>
        <time>2018-09-05T13:19:15.000Z</time>
      </trkpt>
      <trkpt lat="43.40475208126008510589599609375" lon="-3.96607392467558383941650390625">
        <ele>34</ele>
        <time>2018-09-05T13:19:20.000Z</time>
      </trkpt>
      <trkpt lat="43.40475794859230518341064453125" lon="-3.966115415096282958984375">
        <ele>34.40000152587890625</ele>
        <time>2018-09-05T13:19:22.000Z</time>
      </trkpt>
      <trkpt lat="43.4047791548073291778564453125" lon="-3.9662279002368450164794921875">
        <ele>35.40000152587890625</ele>
        <time>2018-09-05T13:19:27.000Z</time>
      </trkpt>
      <trkpt lat="43.40478309430181980133056640625" lon="-3.9662483520805835723876953125">
        <ele>35.59999847412109375</ele>
        <time>2018-09-05T13:19:28.000Z</time>
      </trkpt>
      <trkpt lat="43.40479667298495769500732421875" lon="-3.9663519524037837982177734375">
        <ele>36.59999847412109375</ele>
        <time>2018-09-05T13:19:33.000Z</time>
      </trkpt>
      <trkpt lat="43.404809497296810150146484375" lon="-3.96639637649059295654296875">
        <ele>37</ele>
        <time>2018-09-05T13:19:35.000Z</time>
      </trkpt>
      <trkpt lat="43.4048192203044891357421875" lon="-3.966494612395763397216796875">
        <ele>37.59999847412109375</ele>
        <time>2018-09-05T13:19:39.000Z</time>
      </trkpt>
      <trkpt lat="43.40482030995190143585205078125" lon="-3.9665239490568637847900390625">
        <ele>37.799999237060546875</ele>
        <time>2018-09-05T13:19:40.000Z</time>
      </trkpt>
      <trkpt lat="43.4048374928534030914306640625" lon="-3.9666000567376613616943359375">
        <ele>38.200000762939453125</ele>
        <time>2018-09-05T13:19:43.000Z</time>
      </trkpt>
      <trkpt lat="43.40484981425106525421142578125" lon="-3.96667591296136379241943359375">
        <ele>38.799999237060546875</ele>
        <time>2018-09-05T13:19:46.000Z</time>
      </trkpt>
      <trkpt lat="43.40488133020699024200439453125" lon="-3.9668370969593524932861328125">
        <ele>40</ele>
        <time>2018-09-05T13:19:52.000Z</time>
      </trkpt>
      <trkpt lat="43.4049286879599094390869140625" lon="-3.96700615994632244110107421875">
        <ele>41</ele>
        <time>2018-09-05T13:19:58.000Z</time>
      </trkpt>
      <trkpt lat="43.404978811740875244140625" lon="-3.96726834587752819061279296875">
        <ele>42</ele>
        <time>2018-09-05T13:20:05.000Z</time>
      </trkpt>
      <trkpt lat="43.40499021112918853759765625" lon="-3.96734277717769145965576171875">
        <ele>42.40000152587890625</ele>
        <time>2018-09-05T13:20:07.000Z</time>
      </trkpt>
      <trkpt lat="43.40505165047943592071533203125" lon="-3.96766497753560543060302734375">
        <ele>42.799999237060546875</ele>
        <time>2018-09-05T13:20:15.000Z</time>
      </trkpt>
      <trkpt lat="43.40510445646941661834716796875" lon="-3.96791492588818073272705078125">
        <ele>42.799999237060546875</ele>
        <time>2018-09-05T13:20:21.000Z</time>
      </trkpt>
      <trkpt lat="43.40512624941766262054443359375" lon="-3.96805004216730594635009765625">
        <ele>42.799999237060546875</ele>
        <time>2018-09-05T13:20:24.000Z</time>
      </trkpt>
      <trkpt lat="43.4051332063972949981689453125" lon="-3.96809832192957401275634765625">
        <ele>42.799999237060546875</ele>
        <time>2018-09-05T13:20:25.000Z</time>
      </trkpt>
      <trkpt lat="43.405145108699798583984375" lon="-3.96818951703608036041259765625">
        <ele>43.200000762939453125</ele>
        <time>2018-09-05T13:20:27.000Z</time>
      </trkpt>
      <trkpt lat="43.40516245923936367034912109375" lon="-3.96835849620401859283447265625">
        <ele>44</ele>
        <time>2018-09-05T13:20:32.000Z</time>
      </trkpt>
      <trkpt lat="43.4051751159131526947021484375" lon="-3.9683756791055202484130859375">
        <ele>44.200000762939453125</ele>
        <time>2018-09-05T13:20:33.000Z</time>
      </trkpt>
      <trkpt lat="43.405237980186939239501953125" lon="-3.96841012872755527496337890625">
        <ele>44.59999847412109375</ele>
        <time>2018-09-05T13:20:36.000Z</time>
      </trkpt>
      <trkpt lat="43.4052948094904422760009765625" lon="-3.96842471323907375335693359375">
        <ele>44.799999237060546875</ele>
        <time>2018-09-05T13:20:38.000Z</time>
      </trkpt>
      <trkpt lat="43.4054208733141422271728515625" lon="-3.96841582842171192169189453125">
        <ele>45.40000152587890625</ele>
        <time>2018-09-05T13:20:42.000Z</time>
      </trkpt>
      <trkpt lat="43.4055864997208118438720703125" lon="-3.96848724223673343658447265625">
        <ele>46.200000762939453125</ele>
        <time>2018-09-05T13:20:48.000Z</time>
      </trkpt>
      <trkpt lat="43.40560116805136203765869140625" lon="-3.96857458166778087615966796875">
        <ele>46.40000152587890625</ele>
        <time>2018-09-05T13:20:50.000Z</time>
      </trkpt>
      <trkpt lat="43.40558188967406749725341796875" lon="-3.96864599548280239105224609375">
        <ele>46.59999847412109375</ele>
        <time>2018-09-05T13:20:52.000Z</time>
      </trkpt>
      <trkpt lat="43.40548130683600902557373046875" lon="-3.96888772957026958465576171875">
        <ele>46.200000762939453125</ele>
        <time>2018-09-05T13:20:57.000Z</time>
      </trkpt>
      <trkpt lat="43.4052884392440319061279296875" lon="-3.969350159168243408203125">
        <ele>45.59999847412109375</ele>
        <time>2018-09-05T13:21:05.000Z</time>
      </trkpt>
      <trkpt lat="43.40525843203067779541015625" lon="-3.96940120495855808258056640625">
        <ele>45.40000152587890625</ele>
        <time>2018-09-05T13:21:06.000Z</time>
      </trkpt>
      <trkpt lat="43.40508517809212207794189453125" lon="-3.96976581774652004241943359375">
        <ele>45.200000762939453125</ele>
        <time>2018-09-05T13:21:12.000Z</time>
      </trkpt>
      <trkpt lat="43.40505265630781650543212890625" lon="-3.9698240719735622406005859375">
        <ele>45.200000762939453125</ele>
        <time>2018-09-05T13:21:13.000Z</time>
      </trkpt>
      <trkpt lat="43.40473665855824947357177734375" lon="-3.97032790817320346832275390625">
        <ele>44.799999237060546875</ele>
        <time>2018-09-05T13:21:22.000Z</time>
      </trkpt>
      <trkpt lat="43.40460254810750484466552734375" lon="-3.97044843994081020355224609375">
        <ele>44.799999237060546875</ele>
        <time>2018-09-05T13:21:25.000Z</time>
      </trkpt>
      <trkpt lat="43.40450196526944637298583984375" lon="-3.97048733197152614593505859375">
        <ele>45</ele>
        <time>2018-09-05T13:21:27.000Z</time>
      </trkpt>
      <trkpt lat="43.40426341630518436431884765625" lon="-3.97059747017920017242431640625">
        <ele>45</ele>
        <time>2018-09-05T13:21:32.000Z</time>
      </trkpt>
      <trkpt lat="43.40422452427446842193603515625" lon="-3.9706354402005672454833984375">
        <ele>45.40000152587890625</ele>
        <time>2018-09-05T13:21:33.000Z</time>
      </trkpt>
      <trkpt lat="43.404150344431400299072265625" lon="-3.97071867249906063079833984375">
        <ele>45.59999847412109375</ele>
        <time>2018-09-05T13:21:35.000Z</time>
      </trkpt>
      <trkpt lat="43.4040780924260616302490234375" lon="-3.97082998417317867279052734375">
        <ele>45.200000762939453125</ele>
        <time>2018-09-05T13:21:37.000Z</time>
      </trkpt>
      <trkpt lat="43.4040418826043605804443359375" lon="-3.970903493463993072509765625">
        <ele>44.799999237060546875</ele>
        <time>2018-09-05T13:21:38.000Z</time>
      </trkpt>
      <trkpt lat="43.404001481831073760986328125" lon="-3.97098454646766185760498046875">
        <ele>44.200000762939453125</ele>
        <time>2018-09-05T13:21:39.000Z</time>
      </trkpt>
      <trkpt lat="43.40392294339835643768310546875" lon="-3.97117297165095806121826171875">
        <ele>42.799999237060546875</ele>
        <time>2018-09-05T13:21:41.000Z</time>
      </trkpt>
      <trkpt lat="43.40389779768884181976318359375" lon="-3.97128067910671234130859375">
        <ele>42</ele>
        <time>2018-09-05T13:21:42.000Z</time>
      </trkpt>
      <trkpt lat="43.4038843028247356414794921875" lon="-3.9714012108743190765380859375">
        <ele>41.59999847412109375</ele>
        <time>2018-09-05T13:21:43.000Z</time>
      </trkpt>
      <trkpt lat="43.40388421900570392608642578125" lon="-3.97164705209434032440185546875">
        <ele>40.40000152587890625</ele>
        <time>2018-09-05T13:21:45.000Z</time>
      </trkpt>
      <trkpt lat="43.40389260090887546539306640625" lon="-3.97177479229867458343505859375">
        <ele>39.799999237060546875</ele>
        <time>2018-09-05T13:21:46.000Z</time>
      </trkpt>
      <trkpt lat="43.40389050543308258056640625" lon="-3.97190303541719913482666015625">
        <ele>38.799999237060546875</ele>
        <time>2018-09-05T13:21:47.000Z</time>
      </trkpt>
      <trkpt lat="43.40390383265912532806396484375" lon="-3.9721589349210262298583984375">
        <ele>37.200000762939453125</ele>
        <time>2018-09-05T13:21:49.000Z</time>
      </trkpt>
      <trkpt lat="43.40392914600670337677001953125" lon="-3.972286842763423919677734375">
        <ele>36.40000152587890625</ele>
        <time>2018-09-05T13:21:50.000Z</time>
      </trkpt>
      <trkpt lat="43.403961248695850372314453125" lon="-3.97241114638745784759521484375">
        <ele>35.59999847412109375</ele>
        <time>2018-09-05T13:21:51.000Z</time>
      </trkpt>
      <trkpt lat="43.40400810353457927703857421875" lon="-3.97267140448093414306640625">
        <ele>34.799999237060546875</ele>
        <time>2018-09-05T13:21:53.000Z</time>
      </trkpt>
      <trkpt lat="43.40401799418032169342041015625" lon="-3.972803167998790740966796875">
        <ele>34.200000762939453125</ele>
        <time>2018-09-05T13:21:54.000Z</time>
      </trkpt>
      <trkpt lat="43.40400575660169124603271484375" lon="-3.97318379022181034088134765625">
        <ele>32.59999847412109375</ele>
        <time>2018-09-05T13:21:57.000Z</time>
      </trkpt>
      <trkpt lat="43.40398882515728473663330078125" lon="-3.9733035676181316375732421875">
        <ele>32.40000152587890625</ele>
        <time>2018-09-05T13:21:58.000Z</time>
      </trkpt>
      <trkpt lat="43.4039268828928470611572265625" lon="-3.97371905855834484100341796875">
        <ele>33</ele>
        <time>2018-09-05T13:22:02.000Z</time>
      </trkpt>
      <trkpt lat="43.4039126336574554443359375" lon="-3.973897509276866912841796875">
        <ele>33.59999847412109375</ele>
        <time>2018-09-05T13:22:04.000Z</time>
      </trkpt>
      <trkpt lat="43.40391959063708782196044921875" lon="-3.97397621534764766693115234375">
        <ele>34</ele>
        <time>2018-09-05T13:22:05.000Z</time>
      </trkpt>
      <trkpt lat="43.4039367735385894775390625" lon="-3.97404461167752742767333984375">
        <ele>34.40000152587890625</ele>
        <time>2018-09-05T13:22:06.000Z</time>
      </trkpt>
      <trkpt lat="43.40395781211555004119873046875" lon="-3.9740964956581592559814453125">
        <ele>35</ele>
        <time>2018-09-05T13:22:07.000Z</time>
      </trkpt>
      <trkpt lat="43.40398438274860382080078125" lon="-3.97420520894229412078857421875">
        <ele>35.799999237060546875</ele>
        <time>2018-09-05T13:22:09.000Z</time>
      </trkpt>
      <trkpt lat="43.40398580767214298248291015625" lon="-3.97425365634262561798095703125">
        <ele>36.200000762939453125</ele>
        <time>2018-09-05T13:22:10.000Z</time>
      </trkpt>
      <trkpt lat="43.4039862267673015594482421875" lon="-3.9743342064321041107177734375">
        <ele>36.799999237060546875</ele>
        <time>2018-09-05T13:22:12.000Z</time>
      </trkpt>
      <trkpt lat="43.40396485291421413421630859375" lon="-3.974403440952301025390625">
        <ele>37.40000152587890625</ele>
        <time>2018-09-05T13:22:14.000Z</time>
      </trkpt>
      <trkpt lat="43.40395345352590084075927734375" lon="-3.97443101741373538970947265625">
        <ele>37.799999237060546875</ele>
        <time>2018-09-05T13:22:15.000Z</time>
      </trkpt>
      <trkpt lat="43.40393065474927425384521484375" lon="-3.97451877593994140625">
        <ele>38.40000152587890625</ele>
        <time>2018-09-05T13:22:18.000Z</time>
      </trkpt>
      <trkpt lat="43.40392629615962505340576171875" lon="-3.97454752586781978607177734375">
        <ele>38.59999847412109375</ele>
        <time>2018-09-05T13:22:19.000Z</time>
      </trkpt>
      <trkpt lat="43.403908945620059967041015625" lon="-3.97463075816631317138671875">
        <ele>39.59999847412109375</ele>
        <time>2018-09-05T13:22:22.000Z</time>
      </trkpt>
      <trkpt lat="43.40390265919268131256103515625" lon="-3.97465481422841548919677734375">
        <ele>39.799999237060546875</ele>
        <time>2018-09-05T13:22:23.000Z</time>
      </trkpt>
      <trkpt lat="43.40387600474059581756591796875" lon="-3.97471734322607517242431640625">
        <ele>40.40000152587890625</ele>
        <time>2018-09-05T13:22:26.000Z</time>
      </trkpt>
      <trkpt lat="43.40385940857231616973876953125" lon="-3.97475338540971279144287109375">
        <ele>41</ele>
        <time>2018-09-05T13:22:28.000Z</time>
      </trkpt>
      <trkpt lat="43.40384784154593944549560546875" lon="-3.97479395382106304168701171875">
        <ele>41.40000152587890625</ele>
        <time>2018-09-05T13:22:30.000Z</time>
      </trkpt>
      <trkpt lat="43.40383577160537242889404296875" lon="-3.97483435459434986114501953125">
        <ele>42</ele>
        <time>2018-09-05T13:22:32.000Z</time>
      </trkpt>
      <trkpt lat="43.4038192592561244964599609375" lon="-3.97487374953925609588623046875">
        <ele>42.40000152587890625</ele>
        <time>2018-09-05T13:22:34.000Z</time>
      </trkpt>
      <trkpt lat="43.40380509383976459503173828125" lon="-3.974910043179988861083984375">
        <ele>43</ele>
        <time>2018-09-05T13:22:36.000Z</time>
      </trkpt>
      <trkpt lat="43.40379687957465648651123046875" lon="-3.9749278128147125244140625">
        <ele>43.40000152587890625</ele>
        <time>2018-09-05T13:22:37.000Z</time>
      </trkpt>
      <trkpt lat="43.40376351960003376007080078125" lon="-3.97498506121337413787841796875">
        <ele>44.200000762939453125</ele>
        <time>2018-09-05T13:22:40.000Z</time>
      </trkpt>
      <trkpt lat="43.40374759398400783538818359375" lon="-3.975005932152271270751953125">
        <ele>44.40000152587890625</ele>
        <time>2018-09-05T13:22:41.000Z</time>
      </trkpt>
      <trkpt lat="43.40370484627783298492431640625" lon="-3.97508329711854457855224609375">
        <ele>44.799999237060546875</ele>
        <time>2018-09-05T13:22:44.000Z</time>
      </trkpt>
      <trkpt lat="43.40357090346515178680419921875" lon="-3.97527675144374370574951171875">
        <ele>44.799999237060546875</ele>
        <time>2018-09-05T13:22:50.000Z</time>
      </trkpt>
      <trkpt lat="43.40340343303978443145751953125" lon="-3.97554748691618442535400390625">
        <ele>45</ele>
        <time>2018-09-05T13:22:57.000Z</time>
      </trkpt>
      <trkpt lat="43.40325289405882358551025390625" lon="-3.97576675750315189361572265625">
        <ele>44.200000762939453125</ele>
        <time>2018-09-05T13:23:01.000Z</time>
      </trkpt>
      <trkpt lat="43.40321014635264873504638671875" lon="-3.9758129417896270751953125">
        <ele>44.40000152587890625</ele>
        <time>2018-09-05T13:23:02.000Z</time>
      </trkpt>
      <trkpt lat="43.403064720332622528076171875" lon="-3.97601083852350711822509765625">
        <ele>44.59999847412109375</ele>
        <time>2018-09-05T13:23:06.000Z</time>
      </trkpt>
      <trkpt lat="43.4030194580554962158203125" lon="-3.97612986154854297637939453125">
        <ele>44.799999237060546875</ele>
        <time>2018-09-05T13:23:08.000Z</time>
      </trkpt>
      <trkpt lat="43.4029792249202728271484375" lon="-3.97630353458225727081298828125">
        <ele>45</ele>
        <time>2018-09-05T13:23:11.000Z</time>
      </trkpt>
      <trkpt lat="43.402959443628787994384765625" lon="-3.9763998426496982574462890625">
        <ele>45.40000152587890625</ele>
        <time>2018-09-05T13:23:13.000Z</time>
      </trkpt>
      <trkpt lat="43.40290320105850696563720703125" lon="-3.976565636694431304931640625">
        <ele>46.59999847412109375</ele>
        <time>2018-09-05T13:23:18.000Z</time>
      </trkpt>
      <trkpt lat="43.4028935618698596954345703125" lon="-3.9765973202884197235107421875">
        <ele>46.59999847412109375</ele>
        <time>2018-09-05T13:23:19.000Z</time>
      </trkpt>
      <trkpt lat="43.40284000150859355926513671875" lon="-3.9767267368733882904052734375">
        <ele>46.799999237060546875</ele>
        <time>2018-09-05T13:23:24.000Z</time>
      </trkpt>
      <trkpt lat="43.40283229015767574310302734375" lon="-3.97675733081996440887451171875">
        <ele>47</ele>
        <time>2018-09-05T13:23:25.000Z</time>
      </trkpt>
      <trkpt lat="43.40272634290158748626708984375" lon="-3.97695765830576419830322265625">
        <ele>47.200000762939453125</ele>
        <time>2018-09-05T13:23:31.000Z</time>
      </trkpt>
      <trkpt lat="43.40268912725150585174560546875" lon="-3.977077268064022064208984375">
        <ele>47.200000762939453125</ele>
        <time>2018-09-05T13:23:34.000Z</time>
      </trkpt>
      <trkpt lat="43.402653001248836517333984375" lon="-3.9771592430770397186279296875">
        <ele>47.59999847412109375</ele>
        <time>2018-09-05T13:23:36.000Z</time>
      </trkpt>
      <trkpt lat="43.40263120830059051513671875" lon="-3.97719872184097766876220703125">
        <ele>47.799999237060546875</ele>
        <time>2018-09-05T13:23:37.000Z</time>
      </trkpt>
      <trkpt lat="43.40251989662647247314453125" lon="-3.97741246037185192108154296875">
        <ele>48.59999847412109375</ele>
        <time>2018-09-05T13:23:43.000Z</time>
      </trkpt>
      <trkpt lat="43.40249433182179927825927734375" lon="-3.9774705469608306884765625">
        <ele>49.200000762939453125</ele>
        <time>2018-09-05T13:23:45.000Z</time>
      </trkpt>
      <trkpt lat="43.40244856663048267364501953125" lon="-3.97755377925932407379150390625">
        <ele>49.799999237060546875</ele>
        <time>2018-09-05T13:23:48.000Z</time>
      </trkpt>
      <trkpt lat="43.4023596346378326416015625" lon="-3.9776903204619884490966796875">
        <ele>51</ele>
        <time>2018-09-05T13:23:53.000Z</time>
      </trkpt>
      <trkpt lat="43.40234245173633098602294921875" lon="-3.97771454416215419769287109375">
        <ele>52</ele>
        <time>2018-09-05T13:23:54.000Z</time>
      </trkpt>
      <trkpt lat="43.4022800065577030181884765625" lon="-3.97780515253543853759765625">
        <ele>52.200000762939453125</ele>
        <time>2018-09-05T13:23:58.000Z</time>
      </trkpt>
      <trkpt lat="43.40223147533833980560302734375" lon="-3.97787665016949176788330078125">
        <ele>52.59999847412109375</ele>
        <time>2018-09-05T13:24:01.000Z</time>
      </trkpt>
      <trkpt lat="43.40218554250895977020263671875" lon="-3.97796449251472949981689453125">
        <ele>53</ele>
        <time>2018-09-05T13:24:04.000Z</time>
      </trkpt>
      <trkpt lat="43.4021509252488613128662109375" lon="-3.978059291839599609375">
        <ele>53.40000152587890625</ele>
        <time>2018-09-05T13:24:07.000Z</time>
      </trkpt>
      <trkpt lat="43.40207875706255435943603515625" lon="-3.9783169515430927276611328125">
        <ele>53.799999237060546875</ele>
        <time>2018-09-05T13:24:14.000Z</time>
      </trkpt>
      <trkpt lat="43.402007929980754852294921875" lon="-3.978539742529392242431640625">
        <ele>54.40000152587890625</ele>
        <time>2018-09-05T13:24:19.000Z</time>
      </trkpt>
      <trkpt lat="43.40199208818376064300537109375" lon="-3.9785841666162014007568359375">
        <ele>54.40000152587890625</ele>
        <time>2018-09-05T13:24:20.000Z</time>
      </trkpt>
      <trkpt lat="43.4018672816455364227294921875" lon="-3.97892740555107593536376953125">
        <ele>55.200000762939453125</ele>
        <time>2018-09-05T13:24:28.000Z</time>
      </trkpt>
      <trkpt lat="43.40185579843819141387939453125" lon="-3.97896277718245983123779296875">
        <ele>55.40000152587890625</ele>
        <time>2018-09-05T13:24:29.000Z</time>
      </trkpt>
      <trkpt lat="43.401804082095623016357421875" lon="-3.97910761646926403045654296875">
        <ele>56.59999847412109375</ele>
        <time>2018-09-05T13:24:34.000Z</time>
      </trkpt>
      <trkpt lat="43.40179176069796085357666015625" lon="-3.97912890650331974029541015625">
        <ele>56.799999237060546875</ele>
        <time>2018-09-05T13:24:35.000Z</time>
      </trkpt>
      <trkpt lat="43.4017211012542247772216796875" lon="-3.9792282320559024810791015625">
        <ele>57.799999237060546875</ele>
        <time>2018-09-05T13:24:40.000Z</time>
      </trkpt>
      <trkpt lat="43.40169645845890045166015625" lon="-3.9792590774595737457275390625">
        <ele>58</ele>
        <time>2018-09-05T13:24:42.000Z</time>
      </trkpt>
      <trkpt lat="43.40165379457175731658935546875" lon="-3.97929822094738483428955078125">
        <ele>58.799999237060546875</ele>
        <time>2018-09-05T13:24:45.000Z</time>
      </trkpt>
      <trkpt lat="43.40158472768962383270263671875" lon="-3.97935655899345874786376953125">
        <ele>59.799999237060546875</ele>
        <time>2018-09-05T13:24:49.000Z</time>
      </trkpt>
      <trkpt lat="43.4015672095119953155517578125" lon="-3.9793695509433746337890625">
        <ele>60</ele>
        <time>2018-09-05T13:24:50.000Z</time>
      </trkpt>
      <trkpt lat="43.40149487368762493133544921875" lon="-3.97942679934203624725341796875">
        <ele>61.200000762939453125</ele>
        <time>2018-09-05T13:24:54.000Z</time>
      </trkpt>
      <trkpt lat="43.401465453207492828369140625" lon="-3.97946720011532306671142578125">
        <ele>61.799999237060546875</ele>
        <time>2018-09-05T13:24:56.000Z</time>
      </trkpt>
      <trkpt lat="43.40145162306725978851318359375" lon="-3.9794862270355224609375">
        <ele>62.200000762939453125</ele>
        <time>2018-09-05T13:24:57.000Z</time>
      </trkpt>
      <trkpt lat="43.40135606937110424041748046875" lon="-3.97958421148359775543212890625">
        <ele>62.59999847412109375</ele>
        <time>2018-09-05T13:25:02.000Z</time>
      </trkpt>
      <trkpt lat="43.4012098051607608795166015625" lon="-3.97959410212934017181396484375">
        <ele>63</ele>
        <time>2018-09-05T13:25:07.000Z</time>
      </trkpt>
      <trkpt lat="43.40115071274340152740478515625" lon="-3.979582451283931732177734375">
        <ele>63.200000762939453125</ele>
        <time>2018-09-05T13:25:09.000Z</time>
      </trkpt>
      <trkpt lat="43.401013500988483428955078125" lon="-3.97964489646255970001220703125">
        <ele>64</ele>
        <time>2018-09-05T13:25:14.000Z</time>
      </trkpt>
      <trkpt lat="43.40097066946327686309814453125" lon="-3.97970843128859996795654296875">
        <ele>64.1999969482421875</ele>
        <time>2018-09-05T13:25:16.000Z</time>
      </trkpt>
      <trkpt lat="43.4008844196796417236328125" lon="-3.979880847036838531494140625">
        <ele>65.1999969482421875</ele>
        <time>2018-09-05T13:25:21.000Z</time>
      </trkpt>
      <trkpt lat="43.400873355567455291748046875" lon="-3.97992166690528392791748046875">
        <ele>65.40000152587890625</ele>
        <time>2018-09-05T13:25:22.000Z</time>
      </trkpt>
      <trkpt lat="43.40084695257246494293212890625" lon="-3.980138339102268218994140625">
        <ele>66.1999969482421875</ele>
        <time>2018-09-05T13:25:27.000Z</time>
      </trkpt>
      <trkpt lat="43.40084410272538661956787109375" lon="-3.98017823696136474609375">
        <ele>66.40000152587890625</ele>
        <time>2018-09-05T13:25:28.000Z</time>
      </trkpt>
      <trkpt lat="43.40079666115343570709228515625" lon="-3.980466909706592559814453125">
        <ele>67.1999969482421875</ele>
        <time>2018-09-05T13:25:34.000Z</time>
      </trkpt>
      <trkpt lat="43.40070093981921672821044921875" lon="-3.98082640953361988067626953125">
        <ele>67</ele>
        <time>2018-09-05T13:25:41.000Z</time>
      </trkpt>
      <trkpt lat="43.4006740339100360870361328125" lon="-3.9809264056384563446044921875">
        <ele>67</ele>
        <time>2018-09-05T13:25:43.000Z</time>
      </trkpt>
      <trkpt lat="43.400617204606533050537109375" lon="-3.98107501678168773651123046875">
        <ele>66.8000030517578125</ele>
        <time>2018-09-05T13:25:46.000Z</time>
      </trkpt>
      <trkpt lat="43.4005918912589550018310546875" lon="-3.981188423931598663330078125">
        <ele>66.59999847412109375</ele>
        <time>2018-09-05T13:25:48.000Z</time>
      </trkpt>
      <trkpt lat="43.40058275498449802398681640625" lon="-3.9815547131001949310302734375">
        <ele>66.8000030517578125</ele>
        <time>2018-09-05T13:25:54.000Z</time>
      </trkpt>
      <trkpt lat="43.40059029869735240936279296875" lon="-3.98164741694927215576171875">
        <ele>67.1999969482421875</ele>
        <time>2018-09-05T13:25:56.000Z</time>
      </trkpt>
      <trkpt lat="43.4005925618112087249755859375" lon="-3.9816858060657978057861328125">
        <ele>67.59999847412109375</ele>
        <time>2018-09-05T13:25:57.000Z</time>
      </trkpt>
      <trkpt lat="43.4006049670279026031494140625" lon="-3.98174540139734745025634765625">
        <ele>68.1999969482421875</ele>
        <time>2018-09-05T13:25:59.000Z</time>
      </trkpt>
      <trkpt lat="43.40060806833207607269287109375" lon="-3.98180164396762847900390625">
        <ele>68.59999847412109375</ele>
        <time>2018-09-05T13:26:01.000Z</time>
      </trkpt>
      <trkpt lat="43.40062449686229228973388671875" lon="-3.981926031410694122314453125">
        <ele>69.59999847412109375</ele>
        <time>2018-09-05T13:26:06.000Z</time>
      </trkpt>
      <trkpt lat="43.4006472118198871612548828125" lon="-3.98204530589282512664794921875">
        <ele>71</ele>
        <time>2018-09-05T13:26:11.000Z</time>
      </trkpt>
      <trkpt lat="43.4006666578352451324462890625" lon="-3.98211420513689517974853515625">
        <ele>71.40000152587890625</ele>
        <time>2018-09-05T13:26:14.000Z</time>
      </trkpt>
      <trkpt lat="43.40067629702389240264892578125" lon="-3.98218595422804355621337890625">
        <ele>72</ele>
        <time>2018-09-05T13:26:17.000Z</time>
      </trkpt>
      <trkpt lat="43.40067780576646327972412109375" lon="-3.98226675577461719512939453125">
        <ele>72.8000030517578125</ele>
        <time>2018-09-05T13:26:20.000Z</time>
      </trkpt>
      <trkpt lat="43.40067948214709758758544921875" lon="-3.9822916500270366668701171875">
        <ele>73</ele>
        <time>2018-09-05T13:26:21.000Z</time>
      </trkpt>
      <trkpt lat="43.40068501420319080352783203125" lon="-3.9823141135275363922119140625">
        <ele>73.40000152587890625</ele>
        <time>2018-09-05T13:26:22.000Z</time>
      </trkpt>
      <trkpt lat="43.400698006153106689453125" lon="-3.98245484568178653717041015625">
        <ele>74.59999847412109375</ele>
        <time>2018-09-05T13:26:28.000Z</time>
      </trkpt>
      <trkpt lat="43.400714099407196044921875" lon="-3.9825008623301982879638671875">
        <ele>75</ele>
        <time>2018-09-05T13:26:30.000Z</time>
      </trkpt>
      <trkpt lat="43.40072625316679477691650390625" lon="-3.9826001040637493133544921875">
        <ele>75.8000030517578125</ele>
        <time>2018-09-05T13:26:34.000Z</time>
      </trkpt>
      <trkpt lat="43.400738239288330078125" lon="-3.9826678298413753509521484375">
        <ele>76.1999969482421875</ele>
        <time>2018-09-05T13:26:37.000Z</time>
      </trkpt>
      <trkpt lat="43.400742597877979278564453125" lon="-3.98272373713552951812744140625">
        <ele>76.40000152587890625</ele>
        <time>2018-09-05T13:26:39.000Z</time>
      </trkpt>
      <trkpt lat="43.40073446743190288543701171875" lon="-3.98282683454453945159912109375">
        <ele>76.59999847412109375</ele>
        <time>2018-09-05T13:26:42.000Z</time>
      </trkpt>
      <trkpt lat="43.40066875331103801727294921875" lon="-3.98303587920963764190673828125">
        <ele>76.40000152587890625</ele>
        <time>2018-09-05T13:26:47.000Z</time>
      </trkpt>
      <trkpt lat="43.40050564147531986236572265625" lon="-3.98339982144534587860107421875">
        <ele>76</ele>
        <time>2018-09-05T13:26:54.000Z</time>
      </trkpt>
      <trkpt lat="43.4004547633230686187744140625" lon="-3.98351465351879596710205078125">
        <ele>76</ele>
        <time>2018-09-05T13:26:56.000Z</time>
      </trkpt>
      <trkpt lat="43.4003702737390995025634765625" lon="-3.983676843345165252685546875">
        <ele>76</ele>
        <time>2018-09-05T13:26:59.000Z</time>
      </trkpt>
      <trkpt lat="43.4002862870693206787109375" lon="-3.98386216722428798675537109375">
        <ele>75.8000030517578125</ele>
        <time>2018-09-05T13:27:02.000Z</time>
      </trkpt>
      <trkpt lat="43.40015494264662265777587890625" lon="-3.9841742254793643951416015625">
        <ele>75.8000030517578125</ele>
        <time>2018-09-05T13:27:07.000Z</time>
      </trkpt>
      <trkpt lat="43.40013398788869380950927734375" lon="-3.98424505256116390228271484375">
        <ele>75.8000030517578125</ele>
        <time>2018-09-05T13:27:08.000Z</time>
      </trkpt>
      <trkpt lat="43.40009610168635845184326171875" lon="-3.984387628734111785888671875">
        <ele>76</ele>
        <time>2018-09-05T13:27:10.000Z</time>
      </trkpt>
      <trkpt lat="43.39999635703861713409423828125" lon="-3.9848843403160572052001953125">
        <ele>75.8000030517578125</ele>
        <time>2018-09-05T13:27:17.000Z</time>
      </trkpt>
      <trkpt lat="43.39996970258653163909912109375" lon="-3.9850137569010257720947265625">
        <ele>75.8000030517578125</ele>
        <time>2018-09-05T13:27:19.000Z</time>
      </trkpt>
      <trkpt lat="43.3999293856322765350341796875" lon="-3.98524886928498744964599609375">
        <ele>76.1999969482421875</ele>
        <time>2018-09-05T13:27:24.000Z</time>
      </trkpt>
      <trkpt lat="43.3999122865498065948486328125" lon="-3.9853133261203765869140625">
        <ele>76.1999969482421875</ele>
        <time>2018-09-05T13:27:26.000Z</time>
      </trkpt>
      <trkpt lat="43.39991555549204349517822265625" lon="-3.98535749875009059906005859375">
        <ele>76.1999969482421875</ele>
        <time>2018-09-05T13:27:27.000Z</time>
      </trkpt>
      <trkpt lat="43.3999039046466350555419921875" lon="-3.9854653738439083099365234375">
        <ele>76.1999969482421875</ele>
        <time>2018-09-05T13:27:29.000Z</time>
      </trkpt>
      <trkpt lat="43.399839363992214202880859375" lon="-3.98582839407026767730712890625">
        <ele>76.40000152587890625</ele>
        <time>2018-09-05T13:27:34.000Z</time>
      </trkpt>
      <trkpt lat="43.3997724764049053192138671875" lon="-3.98622435517609119415283203125">
        <ele>75.8000030517578125</ele>
        <time>2018-09-05T13:27:39.000Z</time>
      </trkpt>
      <trkpt lat="43.39974389411509037017822265625" lon="-3.98637774400413036346435546875">
        <ele>75.59999847412109375</ele>
        <time>2018-09-05T13:27:41.000Z</time>
      </trkpt>
      <trkpt lat="43.3996712230145931243896484375" lon="-3.9866824261844158172607421875">
        <ele>75.40000152587890625</ele>
        <time>2018-09-05T13:27:45.000Z</time>
      </trkpt>
      <trkpt lat="43.3995862305164337158203125" lon="-3.98688820190727710723876953125">
        <ele>75</ele>
        <time>2018-09-05T13:27:48.000Z</time>
      </trkpt>
      <trkpt lat="43.3995203487575054168701171875" lon="-3.9870245754718780517578125">
        <ele>74.59999847412109375</ele>
        <time>2018-09-05T13:27:50.000Z</time>
      </trkpt>
      <trkpt lat="43.39942060410976409912109375" lon="-3.98722783662378787994384765625">
        <ele>74.8000030517578125</ele>
        <time>2018-09-05T13:27:53.000Z</time>
      </trkpt>
      <trkpt lat="43.39935950003564357757568359375" lon="-3.98734509944915771484375">
        <ele>75</ele>
        <time>2018-09-05T13:27:55.000Z</time>
      </trkpt>
      <trkpt lat="43.3993275649845600128173828125" lon="-3.98746244609355926513671875">
        <ele>75.1999969482421875</ele>
        <time>2018-09-05T13:27:57.000Z</time>
      </trkpt>
      <trkpt lat="43.3993797004222869873046875" lon="-3.98757451213896274566650390625">
        <ele>74.40000152587890625</ele>
        <time>2018-09-05T13:27:59.000Z</time>
      </trkpt>
      <trkpt lat="43.399463854730129241943359375" lon="-3.98766486905515193939208984375">
        <ele>74.59999847412109375</ele>
        <time>2018-09-05T13:28:01.000Z</time>
      </trkpt>
      <trkpt lat="43.3994918502867221832275390625" lon="-3.98772521875798702239990234375">
        <ele>74.8000030517578125</ele>
        <time>2018-09-05T13:28:02.000Z</time>
      </trkpt>
      <trkpt lat="43.3995193429291248321533203125" lon="-3.98778003640472888946533203125">
        <ele>75.1999969482421875</ele>
        <time>2018-09-05T13:28:03.000Z</time>
      </trkpt>
      <trkpt lat="43.399579189717769622802734375" lon="-3.9878760091960430145263671875">
        <ele>75.59999847412109375</ele>
        <time>2018-09-05T13:28:05.000Z</time>
      </trkpt>
      <trkpt lat="43.39967046864330768585205078125" lon="-3.98800366558134555816650390625">
        <ele>76</ele>
        <time>2018-09-05T13:28:08.000Z</time>
      </trkpt>
      <trkpt lat="43.3997040800750255584716796875" lon="-3.9880339242517948150634765625">
        <ele>76</ele>
        <time>2018-09-05T13:28:09.000Z</time>
      </trkpt>
      <trkpt lat="43.39976652525365352630615234375" lon="-3.98810240440070629119873046875">
        <ele>76.1999969482421875</ele>
        <time>2018-09-05T13:28:11.000Z</time>
      </trkpt>
      <trkpt lat="43.399970121681690216064453125" lon="-3.98835285566747188568115234375">
        <ele>75.40000152587890625</ele>
        <time>2018-09-05T13:28:17.000Z</time>
      </trkpt>
      <trkpt lat="43.4000427089631557464599609375" lon="-3.98848428390920162200927734375">
        <ele>74.59999847412109375</ele>
        <time>2018-09-05T13:28:19.000Z</time>
      </trkpt>
      <trkpt lat="43.40007833205163478851318359375" lon="-3.9885641634464263916015625">
        <ele>73.8000030517578125</ele>
        <time>2018-09-05T13:28:20.000Z</time>
      </trkpt>
      <trkpt lat="43.400113284587860107421875" lon="-3.98865141905844211578369140625">
        <ele>73</ele>
        <time>2018-09-05T13:28:21.000Z</time>
      </trkpt>
      <trkpt lat="43.40014756657183170318603515625" lon="-3.9887470565736293792724609375">
        <ele>70.8000030517578125</ele>
        <time>2018-09-05T13:28:22.000Z</time>
      </trkpt>
      <trkpt lat="43.40017992071807384490966796875" lon="-3.98884856142103672027587890625">
        <ele>69.8000030517578125</ele>
        <time>2018-09-05T13:28:23.000Z</time>
      </trkpt>
      <trkpt lat="43.400237001478672027587890625" lon="-3.98907135240733623504638671875">
        <ele>67.8000030517578125</ele>
        <time>2018-09-05T13:28:25.000Z</time>
      </trkpt>
      <trkpt lat="43.40023976750671863555908203125" lon="-3.98919909261167049407958984375">
        <ele>66.59999847412109375</ele>
        <time>2018-09-05T13:28:26.000Z</time>
      </trkpt>
      <trkpt lat="43.40022786520421504974365234375" lon="-3.9893301017582416534423828125">
        <ele>65.59999847412109375</ele>
        <time>2018-09-05T13:28:27.000Z</time>
      </trkpt>
      <trkpt lat="43.40021814219653606414794921875" lon="-3.98946010507643222808837890625">
        <ele>64.59999847412109375</ele>
        <time>2018-09-05T13:28:28.000Z</time>
      </trkpt>
      <trkpt lat="43.4002093411982059478759765625" lon="-3.989595472812652587890625">
        <ele>64.40000152587890625</ele>
        <time>2018-09-05T13:28:29.000Z</time>
      </trkpt>
      <trkpt lat="43.4002271108329296112060546875" lon="-3.990009538829326629638671875">
        <ele>63.59999847412109375</ele>
        <time>2018-09-05T13:28:32.000Z</time>
      </trkpt>
      <trkpt lat="43.40025208890438079833984375" lon="-3.990134261548519134521484375">
        <ele>63.200000762939453125</ele>
        <time>2018-09-05T13:28:33.000Z</time>
      </trkpt>
      <trkpt lat="43.40028653852641582489013671875" lon="-3.9902539551258087158203125">
        <ele>62</ele>
        <time>2018-09-05T13:28:34.000Z</time>
      </trkpt>
      <trkpt lat="43.40032995678484439849853515625" lon="-3.9903746545314788818359375">
        <ele>60.200000762939453125</ele>
        <time>2018-09-05T13:28:35.000Z</time>
      </trkpt>
      <trkpt lat="43.40035962872207164764404296875" lon="-3.99050650186836719512939453125">
        <ele>58.59999847412109375</ele>
        <time>2018-09-05T13:28:36.000Z</time>
      </trkpt>
      <trkpt lat="43.40038091875612735748291015625" lon="-3.99063684046268463134765625">
        <ele>57.40000152587890625</ele>
        <time>2018-09-05T13:28:37.000Z</time>
      </trkpt>
      <trkpt lat="43.4003900550305843353271484375" lon="-3.9907654188573360443115234375">
        <ele>56</ele>
        <time>2018-09-05T13:28:38.000Z</time>
      </trkpt>
      <trkpt lat="43.40040019713342189788818359375" lon="-3.99088519625365734100341796875">
        <ele>54.799999237060546875</ele>
        <time>2018-09-05T13:28:39.000Z</time>
      </trkpt>
      <trkpt lat="43.40039416216313838958740234375" lon="-3.991015367209911346435546875">
        <ele>53.59999847412109375</ele>
        <time>2018-09-05T13:28:40.000Z</time>
      </trkpt>
      <trkpt lat="43.4003628976643085479736328125" lon="-3.99115450680255889892578125">
        <ele>52.59999847412109375</ele>
        <time>2018-09-05T13:28:41.000Z</time>
      </trkpt>
      <trkpt lat="43.4003136120736598968505859375" lon="-3.99127026088535785675048828125">
        <ele>51.40000152587890625</ele>
        <time>2018-09-05T13:28:42.000Z</time>
      </trkpt>
      <trkpt lat="43.4002609737217426300048828125" lon="-3.99136371910572052001953125">
        <ele>49.59999847412109375</ele>
        <time>2018-09-05T13:28:43.000Z</time>
      </trkpt>
      <trkpt lat="43.4002113528549671173095703125" lon="-3.99146187119185924530029296875">
        <ele>48</ele>
        <time>2018-09-05T13:28:44.000Z</time>
      </trkpt>
      <trkpt lat="43.40018830262124538421630859375" lon="-3.99155708961188793182373046875">
        <ele>46.799999237060546875</ele>
        <time>2018-09-05T13:28:45.000Z</time>
      </trkpt>
      <trkpt lat="43.40018478222191333770751953125" lon="-3.99166421033442020416259765625">
        <ele>45</ele>
        <time>2018-09-05T13:28:46.000Z</time>
      </trkpt>
      <trkpt lat="43.40020489878952503204345703125" lon="-3.9917772822082042694091796875">
        <ele>43.799999237060546875</ele>
        <time>2018-09-05T13:28:47.000Z</time>
      </trkpt>
      <trkpt lat="43.4002579562366008758544921875" lon="-3.99188934825360774993896484375">
        <ele>42.59999847412109375</ele>
        <time>2018-09-05T13:28:48.000Z</time>
      </trkpt>
      <trkpt lat="43.40033498592674732208251953125" lon="-3.99198993109166622161865234375">
        <ele>41.200000762939453125</ele>
        <time>2018-09-05T13:28:49.000Z</time>
      </trkpt>
      <trkpt lat="43.40040354989469051361083984375" lon="-3.99208523333072662353515625">
        <ele>39.799999237060546875</ele>
        <time>2018-09-05T13:28:50.000Z</time>
      </trkpt>
      <trkpt lat="43.40046993456780910491943359375" lon="-3.99217030964791774749755859375">
        <ele>38</ele>
        <time>2018-09-05T13:28:51.000Z</time>
      </trkpt>
      <trkpt lat="43.4005536697804927825927734375" lon="-3.992240130901336669921875">
        <ele>36.40000152587890625</ele>
        <time>2018-09-05T13:28:52.000Z</time>
      </trkpt>
      <trkpt lat="43.40063572861254215240478515625" lon="-3.99228983558714389801025390625">
        <ele>34.59999847412109375</ele>
        <time>2018-09-05T13:28:53.000Z</time>
      </trkpt>
      <trkpt lat="43.40073622763156890869140625" lon="-3.99229352362453937530517578125">
        <ele>33.200000762939453125</ele>
        <time>2018-09-05T13:28:54.000Z</time>
      </trkpt>
      <trkpt lat="43.40083857066929340362548828125" lon="-3.99225957691669464111328125">
        <ele>31.6000003814697265625</ele>
        <time>2018-09-05T13:28:55.000Z</time>
      </trkpt>
      <trkpt lat="43.400933034718036651611328125" lon="-3.99219159968197345733642578125">
        <ele>30</ele>
        <time>2018-09-05T13:28:56.000Z</time>
      </trkpt>
      <trkpt lat="43.40101375244557857513427734375" lon="-3.99214818142354488372802734375">
        <ele>28.200000762939453125</ele>
        <time>2018-09-05T13:28:57.000Z</time>
      </trkpt>
      <trkpt lat="43.40107695199549198150634765625" lon="-3.99211666546761989593505859375">
        <ele>26.799999237060546875</ele>
        <time>2018-09-05T13:28:58.000Z</time>
      </trkpt>
      <trkpt lat="43.40112154372036457061767578125" lon="-3.99209856055676937103271484375">
        <ele>25.799999237060546875</ele>
        <time>2018-09-05T13:28:59.000Z</time>
      </trkpt>
      <trkpt lat="43.401152305305004119873046875" lon="-3.99211934767663478851318359375">
        <ele>25.200000762939453125</ele>
        <time>2018-09-05T13:29:00.000Z</time>
      </trkpt>
      <trkpt lat="43.40115741826593875885009765625" lon="-3.99216460995376110076904296875">
        <ele>24.3999996185302734375</ele>
        <time>2018-09-05T13:29:01.000Z</time>
      </trkpt>
      <trkpt lat="43.4011219628155231475830078125" lon="-3.9922533743083477020263671875">
        <ele>23.3999996185302734375</ele>
        <time>2018-09-05T13:29:03.000Z</time>
      </trkpt>
      <trkpt lat="43.40109832584857940673828125" lon="-3.99228782393038272857666015625">
        <ele>23.200000762939453125</ele>
        <time>2018-09-05T13:29:04.000Z</time>
      </trkpt>
      <trkpt lat="43.401029594242572784423828125" lon="-3.9923861436545848846435546875">
        <ele>23.200000762939453125</ele>
        <time>2018-09-05T13:29:07.000Z</time>
      </trkpt>
      <trkpt lat="43.40100671164691448211669921875" lon="-3.99242855608463287353515625">
        <ele>23.200000762939453125</ele>
        <time>2018-09-05T13:29:08.000Z</time>
      </trkpt>
      <trkpt lat="43.40096530504524707794189453125" lon="-3.99252536706626415252685546875">
        <ele>22.799999237060546875</ele>
        <time>2018-09-05T13:29:10.000Z</time>
      </trkpt>
      <trkpt lat="43.40091920457780361175537109375" lon="-3.9926064200699329376220703125">
        <ele>22.200000762939453125</ele>
        <time>2018-09-05T13:29:12.000Z</time>
      </trkpt>
      <trkpt lat="43.40085483156144618988037109375" lon="-3.9927274547517299652099609375">
        <ele>21.3999996185302734375</ele>
        <time>2018-09-05T13:29:15.000Z</time>
      </trkpt>
      <trkpt lat="43.40083588846027851104736328125" lon="-3.99276249110698699951171875">
        <ele>21.200000762939453125</ele>
        <time>2018-09-05T13:29:16.000Z</time>
      </trkpt>
      <trkpt lat="43.40082063339650630950927734375" lon="-3.99280247278511524200439453125">
        <ele>20.799999237060546875</ele>
        <time>2018-09-05T13:29:17.000Z</time>
      </trkpt>
      <trkpt lat="43.4007856808602809906005859375" lon="-3.9928846992552280426025390625">
        <ele>20.200000762939453125</ele>
        <time>2018-09-05T13:29:19.000Z</time>
      </trkpt>
      <trkpt lat="43.40074536390602588653564453125" lon="-3.992970697581768035888671875">
        <ele>19</ele>
        <time>2018-09-05T13:29:21.000Z</time>
      </trkpt>
      <trkpt lat="43.40068350546061992645263671875" lon="-3.99314470589160919189453125">
        <ele>18</ele>
        <time>2018-09-05T13:29:24.000Z</time>
      </trkpt>
      <trkpt lat="43.4006294421851634979248046875" lon="-3.9932860247790813446044921875">
        <ele>16.799999237060546875</ele>
        <time>2018-09-05T13:29:26.000Z</time>
      </trkpt>
      <trkpt lat="43.40056632645428180694580078125" lon="-3.993448801338672637939453125">
        <ele>15.3999996185302734375</ele>
        <time>2018-09-05T13:29:28.000Z</time>
      </trkpt>
      <trkpt lat="43.40052760206162929534912109375" lon="-3.9935290999710559844970703125">
        <ele>14.6000003814697265625</ele>
        <time>2018-09-05T13:29:29.000Z</time>
      </trkpt>
      <trkpt lat="43.40047680772840976715087890625" lon="-3.99360361509025096893310546875">
        <ele>13.80000019073486328125</ele>
        <time>2018-09-05T13:29:30.000Z</time>
      </trkpt>
      <trkpt lat="43.400373123586177825927734375" lon="-3.993698917329311370849609375">
        <ele>12</ele>
        <time>2018-09-05T13:29:32.000Z</time>
      </trkpt>
      <trkpt lat="43.40031855739653110504150390625" lon="-3.9937339536845684051513671875">
        <ele>11.6000003814697265625</ele>
        <time>2018-09-05T13:29:33.000Z</time>
      </trkpt>
      <trkpt lat="43.40022652409970760345458984375" lon="-3.99377142079174518585205078125">
        <ele>11</ele>
        <time>2018-09-05T13:29:35.000Z</time>
      </trkpt>
      <trkpt lat="43.40018025599420070648193359375" lon="-3.99376085959374904632568359375">
        <ele>10.80000019073486328125</ele>
        <time>2018-09-05T13:29:36.000Z</time>
      </trkpt>
      <trkpt lat="43.40011437423527240753173828125" lon="-3.9937704987823963165283203125">
        <ele>11.6000003814697265625</ele>
        <time>2018-09-05T13:29:38.000Z</time>
      </trkpt>
      <trkpt lat="43.40006693266332149505615234375" lon="-3.9938291721045970916748046875">
        <ele>12</ele>
        <time>2018-09-05T13:29:40.000Z</time>
      </trkpt>
      <trkpt lat="43.40005167759954929351806640625" lon="-3.9938561618328094482421875">
        <ele>12.19999980926513671875</ele>
        <time>2018-09-05T13:29:41.000Z</time>
      </trkpt>
      <trkpt lat="43.40004899539053440093994140625" lon="-3.99389396421611309051513671875">
        <ele>12.6000003814697265625</ele>
        <time>2018-09-05T13:29:43.000Z</time>
      </trkpt>
      <trkpt lat="43.4000393562018871307373046875" lon="-3.9939133264124393463134765625">
        <ele>12.80000019073486328125</ele>
        <time>2018-09-05T13:29:44.000Z</time>
      </trkpt>
      <trkpt lat="43.400027453899383544921875" lon="-3.9939860813319683074951171875">
        <ele>13.19999980926513671875</ele>
        <time>2018-09-05T13:29:47.000Z</time>
      </trkpt>
      <trkpt lat="43.40000926516950130462646484375" lon="-3.99404852651059627532958984375">
        <ele>14.19999980926513671875</ele>
        <time>2018-09-05T13:29:50.000Z</time>
      </trkpt>
      <trkpt lat="43.39999996125698089599609375" lon="-3.994066379964351654052734375">
        <ele>14.3999996185302734375</ele>
        <time>2018-09-05T13:29:51.000Z</time>
      </trkpt>
      <trkpt lat="43.3999900706112384796142578125" lon="-3.9940846525132656097412109375">
        <ele>14.6000003814697265625</ele>
        <time>2018-09-05T13:29:52.000Z</time>
      </trkpt>
      <trkpt lat="43.3999655954539775848388671875" lon="-3.9941418170928955078125">
        <ele>15.19999980926513671875</ele>
        <time>2018-09-05T13:29:55.000Z</time>
      </trkpt>
      <trkpt lat="43.3999541960656642913818359375" lon="-3.99416017346084117889404296875">
        <ele>15.6000003814697265625</ele>
        <time>2018-09-05T13:29:56.000Z</time>
      </trkpt>
      <trkpt lat="43.39993433095514774322509765625" lon="-3.994213230907917022705078125">
        <ele>16.200000762939453125</ele>
        <time>2018-09-05T13:29:58.000Z</time>
      </trkpt>
      <trkpt lat="43.3999206684529781341552734375" lon="-3.994266204535961151123046875">
        <ele>16.6000003814697265625</ele>
        <time>2018-09-05T13:30:00.000Z</time>
      </trkpt>
      <trkpt lat="43.3998958580195903778076171875" lon="-3.99429696612060070037841796875">
        <ele>17</ele>
        <time>2018-09-05T13:30:02.000Z</time>
      </trkpt>
      <trkpt lat="43.3998723886907100677490234375" lon="-3.99432295002043247222900390625">
        <ele>17.3999996185302734375</ele>
        <time>2018-09-05T13:30:04.000Z</time>
      </trkpt>
      <trkpt lat="43.3998566307127475738525390625" lon="-3.9943362772464752197265625">
        <ele>17.3999996185302734375</ele>
        <time>2018-09-05T13:30:05.000Z</time>
      </trkpt>
      <trkpt lat="43.39983877725899219512939453125" lon="-3.99434809572994709014892578125">
        <ele>17.6000003814697265625</ele>
        <time>2018-09-05T13:30:06.000Z</time>
      </trkpt>
      <trkpt lat="43.39973769150674343109130859375" lon="-3.99441045708954334259033203125">
        <ele>18.6000003814697265625</ele>
        <time>2018-09-05T13:30:11.000Z</time>
      </trkpt>
      <trkpt lat="43.39971690438687801361083984375" lon="-3.99441531859338283538818359375">
        <ele>18.799999237060546875</ele>
        <time>2018-09-05T13:30:12.000Z</time>
      </trkpt>
      <trkpt lat="43.39959654025733470916748046875" lon="-3.9944735728204250335693359375">
        <ele>19.6000003814697265625</ele>
        <time>2018-09-05T13:30:18.000Z</time>
      </trkpt>
      <trkpt lat="43.39956804178655147552490234375" lon="-3.9944832958281040191650390625">
        <ele>19.799999237060546875</ele>
        <time>2018-09-05T13:30:19.000Z</time>
      </trkpt>
      <trkpt lat="43.3993553929030895233154296875" lon="-3.99455630220472812652587890625">
        <ele>20.200000762939453125</ele>
        <time>2018-09-05T13:30:26.000Z</time>
      </trkpt>
      <trkpt lat="43.39925891719758510589599609375" lon="-3.99457775987684726715087890625">
        <ele>21</ele>
        <time>2018-09-05T13:30:30.000Z</time>
      </trkpt>
      <trkpt lat="43.3991760201752185821533203125" lon="-3.99460793472826480865478515625">
        <ele>22</ele>
        <time>2018-09-05T13:30:34.000Z</time>
      </trkpt>
      <trkpt lat="43.3991114795207977294921875" lon="-3.9946324937045574188232421875">
        <ele>22.3999996185302734375</ele>
        <time>2018-09-05T13:30:37.000Z</time>
      </trkpt>
      <trkpt lat="43.3990100584924221038818359375" lon="-3.99463945068418979644775390625">
        <ele>23</ele>
        <time>2018-09-05T13:30:42.000Z</time>
      </trkpt>
      <trkpt lat="43.398905955255031585693359375" lon="-3.99464800022542476654052734375">
        <ele>24.200000762939453125</ele>
        <time>2018-09-05T13:30:47.000Z</time>
      </trkpt>
      <trkpt lat="43.39883445762097835540771484375" lon="-3.99462067522108554840087890625">
        <ele>25.200000762939453125</ele>
        <time>2018-09-05T13:30:52.000Z</time>
      </trkpt>
      <trkpt lat="43.3988189511001110076904296875" lon="-3.994608186185359954833984375">
        <ele>25.6000003814697265625</ele>
        <time>2018-09-05T13:30:53.000Z</time>
      </trkpt>
      <trkpt lat="43.39872834272682666778564453125" lon="-3.99454540573060512542724609375">
        <ele>26.3999996185302734375</ele>
        <time>2018-09-05T13:30:58.000Z</time>
      </trkpt>
      <trkpt lat="43.3986952342092990875244140625" lon="-3.9945084415376186370849609375">
        <ele>26.6000003814697265625</ele>
        <time>2018-09-05T13:31:00.000Z</time>
      </trkpt>
      <trkpt lat="43.39857034385204315185546875" lon="-3.99438011460006237030029296875">
        <ele>27.3999996185302734375</ele>
        <time>2018-09-05T13:31:06.000Z</time>
      </trkpt>
      <trkpt lat="43.39852449484169483184814453125" lon="-3.9943367801606655120849609375">
        <ele>27.6000003814697265625</ele>
        <time>2018-09-05T13:31:08.000Z</time>
      </trkpt>
      <trkpt lat="43.3984005264937877655029296875" lon="-3.9941973052918910980224609375">
        <ele>28</ele>
        <time>2018-09-05T13:31:13.000Z</time>
      </trkpt>
      <trkpt lat="43.398329280316829681396484375" lon="-3.99408138357102870941162109375">
        <ele>28</ele>
        <time>2018-09-05T13:31:16.000Z</time>
      </trkpt>
      <trkpt lat="43.398134149610996246337890625" lon="-3.993822634220123291015625">
        <ele>27.799999237060546875</ele>
        <time>2018-09-05T13:31:23.000Z</time>
      </trkpt>
      <trkpt lat="43.39802308939397335052490234375" lon="-3.99377125315368175506591796875">
        <ele>27.799999237060546875</ele>
        <time>2018-09-05T13:31:26.000Z</time>
      </trkpt>
      <trkpt lat="43.39796659536659717559814453125" lon="-3.993742503225803375244140625">
        <ele>27.6000003814697265625</ele>
        <time>2018-09-05T13:31:28.000Z</time>
      </trkpt>
      <trkpt lat="43.397806584835052490234375" lon="-3.99376387707889080047607421875">
        <ele>27.3999996185302734375</ele>
        <time>2018-09-05T13:31:32.000Z</time>
      </trkpt>
      <trkpt lat="43.39776643551886081695556640625" lon="-3.99378064088523387908935546875">
        <ele>27.3999996185302734375</ele>
        <time>2018-09-05T13:31:33.000Z</time>
      </trkpt>
      <trkpt lat="43.397614471614360809326171875" lon="-3.99383881129324436187744140625">
        <ele>28</ele>
        <time>2018-09-05T13:31:37.000Z</time>
      </trkpt>
      <trkpt lat="43.3975826203823089599609375" lon="-3.99384182877838611602783203125">
        <ele>28.3999996185302734375</ele>
        <time>2018-09-05T13:31:38.000Z</time>
      </trkpt>
      <trkpt lat="43.39755110442638397216796875" lon="-3.99384249933063983917236328125">
        <ele>28.799999237060546875</ele>
        <time>2018-09-05T13:31:39.000Z</time>
      </trkpt>
      <trkpt lat="43.39745990931987762451171875" lon="-3.99382657371461391448974609375">
        <ele>30</ele>
        <time>2018-09-05T13:31:42.000Z</time>
      </trkpt>
      <trkpt lat="43.39740081690251827239990234375" lon="-3.99380310438573360443115234375">
        <ele>30.799999237060546875</ele>
        <time>2018-09-05T13:31:44.000Z</time>
      </trkpt>
      <trkpt lat="43.39737483300268650054931640625" lon="-3.99378977715969085693359375">
        <ele>31.200000762939453125</ele>
        <time>2018-09-05T13:31:45.000Z</time>
      </trkpt>
      <trkpt lat="43.39732537977397441864013671875" lon="-3.9937550760805606842041015625">
        <ele>32.200000762939453125</ele>
        <time>2018-09-05T13:31:47.000Z</time>
      </trkpt>
      <trkpt lat="43.397282548248767852783203125" lon="-3.99372540414333343505859375">
        <ele>32.799999237060546875</ele>
        <time>2018-09-05T13:31:49.000Z</time>
      </trkpt>
      <trkpt lat="43.39723167009651660919189453125" lon="-3.99371241219341754913330078125">
        <ele>33.200000762939453125</ele>
        <time>2018-09-05T13:31:51.000Z</time>
      </trkpt>
      <trkpt lat="43.39720417745411396026611328125" lon="-3.9937329478561878204345703125">
        <ele>33.200000762939453125</ele>
        <time>2018-09-05T13:31:52.000Z</time>
      </trkpt>
      <trkpt lat="43.3971630223095417022705078125" lon="-3.99381232447922229766845703125">
        <ele>33</ele>
        <time>2018-09-05T13:31:54.000Z</time>
      </trkpt>
      <trkpt lat="43.39700619690120220184326171875" lon="-3.99410870857536792755126953125">
        <ele>32.40000152587890625</ele>
        <time>2018-09-05T13:32:00.000Z</time>
      </trkpt>
      <trkpt lat="43.3969791233539581298828125" lon="-3.99416285566985607147216796875">
        <ele>32</ele>
        <time>2018-09-05T13:32:01.000Z</time>
      </trkpt>
      <trkpt lat="43.3969615213572978973388671875" lon="-3.99421499110758304595947265625">
        <ele>31.799999237060546875</ele>
        <time>2018-09-05T13:32:02.000Z</time>
      </trkpt>
      <trkpt lat="43.39698105119168758392333984375" lon="-3.99434139020740985870361328125">
        <ele>31.6000003814697265625</ele>
        <time>2018-09-05T13:32:04.000Z</time>
      </trkpt>
      <trkpt lat="43.39700653217732906341552734375" lon="-3.994447924196720123291015625">
        <ele>31.799999237060546875</ele>
        <time>2018-09-05T13:32:06.000Z</time>
      </trkpt>
      <trkpt lat="43.3970403112471103668212890625" lon="-3.9946606568992137908935546875">
        <ele>32.59999847412109375</ele>
        <time>2018-09-05T13:32:10.000Z</time>
      </trkpt>
      <trkpt lat="43.39705531485378742218017578125" lon="-3.9948651753365993499755859375">
        <ele>32.59999847412109375</ele>
        <time>2018-09-05T13:32:13.000Z</time>
      </trkpt>
      <trkpt lat="43.39706822298467159271240234375" lon="-3.99493231438100337982177734375">
        <ele>32.40000152587890625</ele>
        <time>2018-09-05T13:32:14.000Z</time>
      </trkpt>
      <trkpt lat="43.39713326655328273773193359375" lon="-3.9952428638935089111328125">
        <ele>31.200000762939453125</ele>
        <time>2018-09-05T13:32:18.000Z</time>
      </trkpt>
      <trkpt lat="43.3971375413239002227783203125" lon="-3.99532894603908061981201171875">
        <ele>31</ele>
        <time>2018-09-05T13:32:19.000Z</time>
      </trkpt>
      <trkpt lat="43.39717551134526729583740234375" lon="-3.99574619717895984649658203125">
        <ele>30</ele>
        <time>2018-09-05T13:32:24.000Z</time>
      </trkpt>
      <trkpt lat="43.397177271544933319091796875" lon="-3.9959001727402210235595703125">
        <ele>30</ele>
        <time>2018-09-05T13:32:26.000Z</time>
      </trkpt>
      <trkpt lat="43.39716779999434947967529296875" lon="-3.99597468785941600799560546875">
        <ele>29.799999237060546875</ele>
        <time>2018-09-05T13:32:27.000Z</time>
      </trkpt>
      <trkpt lat="43.39711214415729045867919921875" lon="-3.9961789548397064208984375">
        <ele>30.200000762939453125</ele>
        <time>2018-09-05T13:32:30.000Z</time>
      </trkpt>
      <trkpt lat="43.39708247222006320953369140625" lon="-3.9963185973465442657470703125">
        <ele>30.799999237060546875</ele>
        <time>2018-09-05T13:32:32.000Z</time>
      </trkpt>
      <trkpt lat="43.3970738388597965240478515625" lon="-3.9964027516543865203857421875">
        <ele>30.799999237060546875</ele>
        <time>2018-09-05T13:32:33.000Z</time>
      </trkpt>
      <trkpt lat="43.39706604368984699249267578125" lon="-3.99658204056322574615478515625">
        <ele>29.6000003814697265625</ele>
        <time>2018-09-05T13:32:35.000Z</time>
      </trkpt>
      <trkpt lat="43.39706428349018096923828125" lon="-3.996679522097110748291015625">
        <ele>28.799999237060546875</ele>
        <time>2018-09-05T13:32:36.000Z</time>
      </trkpt>
      <trkpt lat="43.397073335945606231689453125" lon="-3.99677968584001064300537109375">
        <ele>28.3999996185302734375</ele>
        <time>2018-09-05T13:32:37.000Z</time>
      </trkpt>
      <trkpt lat="43.39710719883441925048828125" lon="-3.9969690330326557159423828125">
        <ele>28.3999996185302734375</ele>
        <time>2018-09-05T13:32:39.000Z</time>
      </trkpt>
      <trkpt lat="43.397150449454784393310546875" lon="-3.99722778238356113433837890625">
        <ele>28.3999996185302734375</ele>
        <time>2018-09-05T13:32:42.000Z</time>
      </trkpt>
      <trkpt lat="43.3971641957759857177734375" lon="-3.99738536216318607330322265625">
        <ele>28.200000762939453125</ele>
        <time>2018-09-05T13:32:44.000Z</time>
      </trkpt>
      <trkpt lat="43.3971908502280712127685546875" lon="-3.997606895864009857177734375">
        <ele>28.6000003814697265625</ele>
        <time>2018-09-05T13:32:47.000Z</time>
      </trkpt>
      <trkpt lat="43.3971398882567882537841796875" lon="-3.99774628691375255584716796875">
        <ele>28.200000762939453125</ele>
        <time>2018-09-05T13:32:49.000Z</time>
      </trkpt>
      <trkpt lat="43.39710074476897716522216796875" lon="-3.9978135935962200164794921875">
        <ele>27.799999237060546875</ele>
        <time>2018-09-05T13:32:50.000Z</time>
      </trkpt>
      <trkpt lat="43.39706017635762691497802734375" lon="-3.99788542650640010833740234375">
        <ele>27.6000003814697265625</ele>
        <time>2018-09-05T13:32:51.000Z</time>
      </trkpt>
      <trkpt lat="43.39699194766581058502197265625" lon="-3.9980372227728366851806640625">
        <ele>27.200000762939453125</ele>
        <time>2018-09-05T13:32:53.000Z</time>
      </trkpt>
      <trkpt lat="43.39693285524845123291015625" lon="-3.99819237180054187774658203125">
        <ele>26.3999996185302734375</ele>
        <time>2018-09-05T13:32:55.000Z</time>
      </trkpt>
      <trkpt lat="43.39686320163309574127197265625" lon="-3.99837207980453968048095703125">
        <ele>25.3999996185302734375</ele>
        <time>2018-09-05T13:32:57.000Z</time>
      </trkpt>
      <trkpt lat="43.3967781253159046173095703125" lon="-3.99856871925294399261474609375">
        <ele>24</ele>
        <time>2018-09-05T13:32:59.000Z</time>
      </trkpt>
      <trkpt lat="43.39667159132659435272216796875" lon="-3.99888404645025730133056640625">
        <ele>22.6000003814697265625</ele>
        <time>2018-09-05T13:33:02.000Z</time>
      </trkpt>
      <trkpt lat="43.39660570956766605377197265625" lon="-3.99912226013839244842529296875">
        <ele>21.200000762939453125</ele>
        <time>2018-09-05T13:33:04.000Z</time>
      </trkpt>
      <trkpt lat="43.39656933210790157318115234375" lon="-3.99924597702920436859130859375">
        <ele>20.6000003814697265625</ele>
        <time>2018-09-05T13:33:05.000Z</time>
      </trkpt>
      <trkpt lat="43.39654569514095783233642578125" lon="-3.99937086738646030426025390625">
        <ele>20</ele>
        <time>2018-09-05T13:33:06.000Z</time>
      </trkpt>
      <trkpt lat="43.39652071706950664520263671875" lon="-3.99961528368294239044189453125">
        <ele>18.799999237060546875</ele>
        <time>2018-09-05T13:33:08.000Z</time>
      </trkpt>
      <trkpt lat="43.39649892412126064300537109375" lon="-3.9998202212154865264892578125">
        <ele>17.799999237060546875</ele>
        <time>2018-09-05T13:33:10.000Z</time>
      </trkpt>
      <trkpt lat="43.39647511951625347137451171875" lon="-3.9999700896441936492919921875">
        <ele>15.80000019073486328125</ele>
        <time>2018-09-05T13:33:12.000Z</time>
      </trkpt>
      <trkpt lat="43.39646975509822368621826171875" lon="-4.0000619553029537200927734375">
        <ele>14.6000003814697265625</ele>
        <time>2018-09-05T13:33:13.000Z</time>
      </trkpt>
      <trkpt lat="43.39646539650857448577880859375" lon="-4.00025582872331142425537109375">
        <ele>14</ele>
        <time>2018-09-05T13:33:15.000Z</time>
      </trkpt>
      <trkpt lat="43.39646556414663791656494140625" lon="-4.0003647096455097198486328125">
        <ele>13.6000003814697265625</ele>
        <time>2018-09-05T13:33:16.000Z</time>
      </trkpt>
      <trkpt lat="43.396465815603733062744140625" lon="-4.00047845207154750823974609375">
        <ele>12.6000003814697265625</ele>
        <time>2018-09-05T13:33:17.000Z</time>
      </trkpt>
      <trkpt lat="43.3964582718908786773681640625" lon="-4.00060082785785198211669921875">
        <ele>11.19999980926513671875</ele>
        <time>2018-09-05T13:33:18.000Z</time>
      </trkpt>
      <trkpt lat="43.3964565955102443695068359375" lon="-4.0007224492728710174560546875">
        <ele>10</ele>
        <time>2018-09-05T13:33:19.000Z</time>
      </trkpt>
      <trkpt lat="43.39645885862410068511962890625" lon="-4.0008424781262874603271484375">
        <ele>8.80000019073486328125</ele>
        <time>2018-09-05T13:33:20.000Z</time>
      </trkpt>
      <trkpt lat="43.39646740816533565521240234375" lon="-4.0009591542184352874755859375">
        <ele>8.19999980926513671875</ele>
        <time>2018-09-05T13:33:21.000Z</time>
      </trkpt>
      <trkpt lat="43.3964837528765201568603515625" lon="-4.0010754950344562530517578125">
        <ele>7.599999904632568359375</ele>
        <time>2018-09-05T13:33:22.000Z</time>
      </trkpt>
      <trkpt lat="43.39653865434229373931884765625" lon="-4.0012997947633266448974609375">
        <ele>7.19999980926513671875</ele>
        <time>2018-09-05T13:33:24.000Z</time>
      </trkpt>
      <trkpt lat="43.39658827520906925201416015625" lon="-4.00140180252492427825927734375">
        <ele>6.80000019073486328125</ele>
        <time>2018-09-05T13:33:25.000Z</time>
      </trkpt>
      <trkpt lat="43.39663202874362468719482421875" lon="-4.0015083365142345428466796875">
        <ele>6.19999980926513671875</ele>
        <time>2018-09-05T13:33:26.000Z</time>
      </trkpt>
      <trkpt lat="43.3967093937098979949951171875" lon="-4.001724086701869964599609375">
        <ele>4.400000095367431640625</ele>
        <time>2018-09-05T13:33:28.000Z</time>
      </trkpt>
      <trkpt lat="43.3967645466327667236328125" lon="-4.001920223236083984375">
        <ele>2.7999999523162841796875</ele>
        <time>2018-09-05T13:33:30.000Z</time>
      </trkpt>
      <trkpt lat="43.3967677317559719085693359375" lon="-4.0021026134490966796875">
        <ele>2.400000095367431640625</ele>
        <time>2018-09-05T13:33:32.000Z</time>
      </trkpt>
      <trkpt lat="43.39675909839570522308349609375" lon="-4.002163298428058624267578125">
        <ele>2.599999904632568359375</ele>
        <time>2018-09-05T13:33:33.000Z</time>
      </trkpt>
      <trkpt lat="43.3967506326735019683837890625" lon="-4.00224946439266204833984375">
        <ele>2.400000095367431640625</ele>
        <time>2018-09-05T13:33:35.000Z</time>
      </trkpt>
      <trkpt lat="43.39676982723176479339599609375" lon="-4.002326242625713348388671875">
        <ele>2</ele>
        <time>2018-09-05T13:33:37.000Z</time>
      </trkpt>
      <trkpt lat="43.39680436067283153533935546875" lon="-4.00239405222237110137939453125">
        <ele>2</ele>
        <time>2018-09-05T13:33:39.000Z</time>
      </trkpt>
      <trkpt lat="43.396815173327922821044921875" lon="-4.002428166568279266357421875">
        <ele>1.60000002384185791015625</ele>
        <time>2018-09-05T13:33:40.000Z</time>
      </trkpt>
      <trkpt lat="43.3968664705753326416015625" lon="-4.00253319181501865386962890625">
        <ele>1.2000000476837158203125</ele>
        <time>2018-09-05T13:33:43.000Z</time>
      </trkpt>
      <trkpt lat="43.39689337648451328277587890625" lon="-4.00256487540900707244873046875">
        <ele>1.39999997615814208984375</ele>
        <time>2018-09-05T13:33:44.000Z</time>
      </trkpt>
      <trkpt lat="43.39701558463275432586669921875" lon="-4.00261851958930492401123046875">
        <ele>2.400000095367431640625</ele>
        <time>2018-09-05T13:33:49.000Z</time>
      </trkpt>
      <trkpt lat="43.39705313555896282196044921875" lon="-4.002643413841724395751953125">
        <ele>2.599999904632568359375</ele>
        <time>2018-09-05T13:33:51.000Z</time>
      </trkpt>
      <trkpt lat="43.3970996551215648651123046875" lon="-4.002697058022022247314453125">
        <ele>3.400000095367431640625</ele>
        <time>2018-09-05T13:33:54.000Z</time>
      </trkpt>
      <trkpt lat="43.39711264707148075103759765625" lon="-4.002715833485126495361328125">
        <ele>3.599999904632568359375</ele>
        <time>2018-09-05T13:33:55.000Z</time>
      </trkpt>
      <trkpt lat="43.39712806977331638336181640625" lon="-4.0027347765862941741943359375">
        <ele>4</ele>
        <time>2018-09-05T13:33:56.000Z</time>
      </trkpt>
      <trkpt lat="43.39716377668082714080810546875" lon="-4.0027750097215175628662109375">
        <ele>5.19999980926513671875</ele>
        <time>2018-09-05T13:33:58.000Z</time>
      </trkpt>
      <trkpt lat="43.3971972204744815826416015625" lon="-4.002813734114170074462890625">
        <ele>5.599999904632568359375</ele>
        <time>2018-09-05T13:34:00.000Z</time>
      </trkpt>
      <trkpt lat="43.397220186889171600341796875" lon="-4.0028403885662555694580078125">
        <ele>5.400000095367431640625</ele>
        <time>2018-09-05T13:34:01.000Z</time>
      </trkpt>
      <trkpt lat="43.39726947247982025146484375" lon="-4.00289193727076053619384765625">
        <ele>5.19999980926513671875</ele>
        <time>2018-09-05T13:34:03.000Z</time>
      </trkpt>
      <trkpt lat="43.39732739143073558807373046875" lon="-4.0029461681842803955078125">
        <ele>4.80000019073486328125</ele>
        <time>2018-09-05T13:34:06.000Z</time>
      </trkpt>
      <trkpt lat="43.3973397128283977508544921875" lon="-4.00295312516391277313232421875">
        <ele>5</ele>
        <time>2018-09-05T13:34:07.000Z</time>
      </trkpt>
      <trkpt lat="43.39735102839767932891845703125" lon="-4.00295480154454708099365234375">
        <ele>5.19999980926513671875</ele>
        <time>2018-09-05T13:34:08.000Z</time>
      </trkpt>
      <trkpt lat="43.39737818576395511627197265625" lon="-4.0029258839786052703857421875">
        <ele>5.400000095367431640625</ele>
        <time>2018-09-05T13:34:11.000Z</time>
      </trkpt>
      <trkpt lat="43.3973802812397480010986328125" lon="-4.00290383957326412200927734375">
        <ele>5.400000095367431640625</ele>
        <time>2018-09-05T13:34:12.000Z</time>
      </trkpt>
      <trkpt lat="43.39740064926445484161376953125" lon="-4.00279118679463863372802734375">
        <ele>6.19999980926513671875</ele>
        <time>2018-09-05T13:34:17.000Z</time>
      </trkpt>
      <trkpt lat="43.39741104282438755035400390625" lon="-4.00277107022702693939208984375">
        <ele>6.400000095367431640625</ele>
        <time>2018-09-05T13:34:18.000Z</time>
      </trkpt>
      <trkpt lat="43.39752101339399814605712890625" lon="-4.00265824981033802032470703125">
        <ele>7.400000095367431640625</ele>
        <time>2018-09-05T13:34:25.000Z</time>
      </trkpt>
      <trkpt lat="43.39759661816060543060302734375" lon="-4.00261533446609973907470703125">
        <ele>8.19999980926513671875</ele>
        <time>2018-09-05T13:34:29.000Z</time>
      </trkpt>
      <trkpt lat="43.397637270390987396240234375" lon="-4.0026162564754486083984375">
        <ele>8.19999980926513671875</ele>
        <time>2018-09-05T13:34:31.000Z</time>
      </trkpt>
      <trkpt lat="43.3977219276130199432373046875" lon="-4.002647437155246734619140625">
        <ele>8.3999996185302734375</ele>
        <time>2018-09-05T13:34:35.000Z</time>
      </trkpt>
      <trkpt lat="43.39779241941869258880615234375" lon="-4.0026841498911380767822265625">
        <ele>8.80000019073486328125</ele>
        <time>2018-09-05T13:34:38.000Z</time>
      </trkpt>
      <trkpt lat="43.39796693064272403717041015625" lon="-4.00280057452619075775146484375">
        <ele>8.80000019073486328125</ele>
        <time>2018-09-05T13:34:46.000Z</time>
      </trkpt>
      <trkpt lat="43.39804337359964847564697265625" lon="-4.00284818373620510101318359375">
        <ele>9.3999996185302734375</ele>
        <time>2018-09-05T13:34:49.000Z</time>
      </trkpt>
      <trkpt lat="43.3981244266033172607421875" lon="-4.00289847515523433685302734375">
        <ele>9.80000019073486328125</ele>
        <time>2018-09-05T13:34:52.000Z</time>
      </trkpt>
      <trkpt lat="43.39828879572451114654541015625" lon="-4.00301062501966953277587890625">
        <ele>10.3999996185302734375</ele>
        <time>2018-09-05T13:34:58.000Z</time>
      </trkpt>
      <trkpt lat="43.3984813280403614044189453125" lon="-4.0031428076326847076416015625">
        <ele>11.19999980926513671875</ele>
        <time>2018-09-05T13:35:04.000Z</time>
      </trkpt>
      <trkpt lat="43.39863681234419345855712890625" lon="-4.0032474137842655181884765625">
        <ele>11.6000003814697265625</ele>
        <time>2018-09-05T13:35:09.000Z</time>
      </trkpt>
      <trkpt lat="43.39866832830011844635009765625" lon="-4.00326526723802089691162109375">
        <ele>12</ele>
        <time>2018-09-05T13:35:10.000Z</time>
      </trkpt>
      <trkpt lat="43.398773185908794403076171875" lon="-4.0033587254583835601806640625">
        <ele>12</ele>
        <time>2018-09-05T13:35:14.000Z</time>
      </trkpt>
      <trkpt lat="43.39877863414585590362548828125" lon="-4.003397785127162933349609375">
        <ele>11.80000019073486328125</ele>
        <time>2018-09-05T13:35:15.000Z</time>
      </trkpt>
      <trkpt lat="43.39873798191547393798828125" lon="-4.00354773737490177154541015625">
        <ele>11.19999980926513671875</ele>
        <time>2018-09-05T13:35:18.000Z</time>
      </trkpt>
      <trkpt lat="43.39869774878025054931640625" lon="-4.0036500804126262664794921875">
        <ele>10.19999980926513671875</ele>
        <time>2018-09-05T13:35:20.000Z</time>
      </trkpt>
      <trkpt lat="43.39868140406906604766845703125" lon="-4.0037074126303195953369140625">
        <ele>9.80000019073486328125</ele>
        <time>2018-09-05T13:35:21.000Z</time>
      </trkpt>
      <trkpt lat="43.39866899885237216949462890625" lon="-4.0037627331912517547607421875">
        <ele>9.6000003814697265625</ele>
        <time>2018-09-05T13:35:22.000Z</time>
      </trkpt>
      <trkpt lat="43.39866916649043560028076171875" lon="-4.0038157068192958831787109375">
        <ele>9.19999980926513671875</ele>
        <time>2018-09-05T13:35:23.000Z</time>
      </trkpt>
      <trkpt lat="43.39872591197490692138671875" lon="-4.00391637347638607025146484375">
        <ele>7.80000019073486328125</ele>
        <time>2018-09-05T13:35:25.000Z</time>
      </trkpt>
      <trkpt lat="43.3987780474126338958740234375" lon="-4.003957025706768035888671875">
        <ele>7.19999980926513671875</ele>
        <time>2018-09-05T13:35:26.000Z</time>
      </trkpt>
      <trkpt lat="43.39883546344935894012451171875" lon="-4.00399432517588138580322265625">
        <ele>6.80000019073486328125</ele>
        <time>2018-09-05T13:35:27.000Z</time>
      </trkpt>
      <trkpt lat="43.3990130759775638580322265625" lon="-4.00411787442862987518310546875">
        <ele>5.599999904632568359375</ele>
        <time>2018-09-05T13:35:30.000Z</time>
      </trkpt>
      <trkpt lat="43.3991356194019317626953125" lon="-4.00418995879590511322021484375">
        <ele>5.19999980926513671875</ele>
        <time>2018-09-05T13:35:32.000Z</time>
      </trkpt>
      <trkpt lat="43.399325720965862274169921875" lon="-4.00427545420825481414794921875">
        <ele>4.19999980926513671875</ele>
        <time>2018-09-05T13:35:35.000Z</time>
      </trkpt>
      <trkpt lat="43.39939654804766178131103515625" lon="-4.00427830405533313751220703125">
        <ele>3.7999999523162841796875</ele>
        <time>2018-09-05T13:35:36.000Z</time>
      </trkpt>
      <trkpt lat="43.39961112476885318756103515625" lon="-4.00420823134481906890869140625">
        <ele>3.400000095367431640625</ele>
        <time>2018-09-05T13:35:39.000Z</time>
      </trkpt>
      <trkpt lat="43.39967985637485980987548828125" lon="-4.004223905503749847412109375">
        <ele>3</ele>
        <time>2018-09-05T13:35:40.000Z</time>
      </trkpt>
      <trkpt lat="43.39979770593345165252685546875" lon="-4.00431350804865360260009765625">
        <ele>2.2000000476837158203125</ele>
        <time>2018-09-05T13:35:42.000Z</time>
      </trkpt>
      <trkpt lat="43.39985311031341552734375" lon="-4.00436195544898509979248046875">
        <ele>2</ele>
        <time>2018-09-05T13:35:43.000Z</time>
      </trkpt>
      <trkpt lat="43.39990767650306224822998046875" lon="-4.00440369732677936553955078125">
        <ele>1.7999999523162841796875</ele>
        <time>2018-09-05T13:35:44.000Z</time>
      </trkpt>
      <trkpt lat="43.40008503757417201995849609375" lon="-4.00448433123528957366943359375">
        <ele>1.7999999523162841796875</ele>
        <time>2018-09-05T13:35:47.000Z</time>
      </trkpt>
      <trkpt lat="43.4001979418098926544189453125" lon="-4.0045046992599964141845703125">
        <ele>2</ele>
        <time>2018-09-05T13:35:49.000Z</time>
      </trkpt>
      <trkpt lat="43.40041025541722774505615234375" lon="-4.00454920716583728790283203125">
        <ele>2.400000095367431640625</ele>
        <time>2018-09-05T13:35:53.000Z</time>
      </trkpt>
      <trkpt lat="43.4004621393978595733642578125" lon="-4.00456328876316547393798828125">
        <ele>2.599999904632568359375</ele>
        <time>2018-09-05T13:35:54.000Z</time>
      </trkpt>
      <trkpt lat="43.4005114249885082244873046875" lon="-4.00457217358052730560302734375">
        <ele>2.599999904632568359375</ele>
        <time>2018-09-05T13:35:55.000Z</time>
      </trkpt>
      <trkpt lat="43.4006552584469318389892578125" lon="-4.00456018745899200439453125">
        <ele>3</ele>
        <time>2018-09-05T13:35:58.000Z</time>
      </trkpt>
      <trkpt lat="43.40070311911404132843017578125" lon="-4.00455390103161334991455078125">
        <ele>3</ele>
        <time>2018-09-05T13:35:59.000Z</time>
      </trkpt>
      <trkpt lat="43.40079448185861110687255859375" lon="-4.00454518385231494903564453125">
        <ele>3.2000000476837158203125</ele>
        <time>2018-09-05T13:36:01.000Z</time>
      </trkpt>
      <trkpt lat="43.4009166061878204345703125" lon="-4.00455373339354991912841796875">
        <ele>3.599999904632568359375</ele>
        <time>2018-09-05T13:36:04.000Z</time>
      </trkpt>
      <trkpt lat="43.400955833494663238525390625" lon="-4.00455742143094539642333984375">
        <ele>3.7999999523162841796875</ele>
        <time>2018-09-05T13:36:05.000Z</time>
      </trkpt>
      <trkpt lat="43.40110746212303638458251953125" lon="-4.004569239914417266845703125">
        <ele>4</ele>
        <time>2018-09-05T13:36:09.000Z</time>
      </trkpt>
      <trkpt lat="43.401176445186138153076171875" lon="-4.00460804812610149383544921875">
        <ele>4.400000095367431640625</ele>
        <time>2018-09-05T13:36:11.000Z</time>
      </trkpt>
      <trkpt lat="43.40132053010165691375732421875" lon="-4.00479144416749477386474609375">
        <ele>4.599999904632568359375</ele>
        <time>2018-09-05T13:36:16.000Z</time>
      </trkpt>
      <trkpt lat="43.4013871662318706512451171875" lon="-4.0048597566783428192138671875">
        <ele>5.19999980926513671875</ele>
        <time>2018-09-05T13:36:18.000Z</time>
      </trkpt>
      <trkpt lat="43.40145749039947986602783203125" lon="-4.00492136366665363311767578125">
        <ele>5.599999904632568359375</ele>
        <time>2018-09-05T13:36:20.000Z</time>
      </trkpt>
      <trkpt lat="43.401574753224849700927734375" lon="-4.00499361567199230194091796875">
        <ele>5.599999904632568359375</ele>
        <time>2018-09-05T13:36:23.000Z</time>
      </trkpt>
      <trkpt lat="43.40173325501382350921630859375" lon="-4.0050719864666461944580078125">
        <ele>6.19999980926513671875</ele>
        <time>2018-09-05T13:36:27.000Z</time>
      </trkpt>
      <trkpt lat="43.40183802880346775054931640625" lon="-4.00515027344226837158203125">
        <ele>6.80000019073486328125</ele>
        <time>2018-09-05T13:36:30.000Z</time>
      </trkpt>
      <trkpt lat="43.40186585672199726104736328125" lon="-4.0051933564245700836181640625">
        <ele>6.80000019073486328125</ele>
        <time>2018-09-05T13:36:31.000Z</time>
      </trkpt>
      <trkpt lat="43.4019212611019611358642578125" lon="-4.0054096095263957977294921875">
        <ele>6.400000095367431640625</ele>
        <time>2018-09-05T13:36:35.000Z</time>
      </trkpt>
      <trkpt lat="43.401938192546367645263671875" lon="-4.0055319853127002716064453125">
        <ele>6.400000095367431640625</ele>
        <time>2018-09-05T13:36:37.000Z</time>
      </trkpt>
      <trkpt lat="43.40198823250830173492431640625" lon="-4.00585141964256763458251953125">
        <ele>6.19999980926513671875</ele>
        <time>2018-09-05T13:36:42.000Z</time>
      </trkpt>
      <trkpt lat="43.40203634463250637054443359375" lon="-4.006095416843891143798828125">
        <ele>4.80000019073486328125</ele>
        <time>2018-09-05T13:36:46.000Z</time>
      </trkpt>
      <trkpt lat="43.40205579064786434173583984375" lon="-4.0062747895717620849609375">
        <ele>5</ele>
        <time>2018-09-05T13:36:49.000Z</time>
      </trkpt>
      <trkpt lat="43.4020396135747432708740234375" lon="-4.00647100992500782012939453125">
        <ele>5.19999980926513671875</ele>
        <time>2018-09-05T13:36:53.000Z</time>
      </trkpt>
      <trkpt lat="43.401897288858890533447265625" lon="-4.0066021867096424102783203125">
        <ele>5.400000095367431640625</ele>
        <time>2018-09-05T13:36:57.000Z</time>
      </trkpt>
      <trkpt lat="43.40185294859111309051513671875" lon="-4.006623141467571258544921875">
        <ele>5.19999980926513671875</ele>
        <time>2018-09-05T13:36:58.000Z</time>
      </trkpt>
      <trkpt lat="43.401663936674594879150390625" lon="-4.00666060857474803924560546875">
        <ele>4.80000019073486328125</ele>
        <time>2018-09-05T13:37:02.000Z</time>
      </trkpt>
      <trkpt lat="43.4016158245503902435302734375" lon="-4.0066595189273357391357421875">
        <ele>4.599999904632568359375</ele>
        <time>2018-09-05T13:37:03.000Z</time>
      </trkpt>
      <trkpt lat="43.4014294110238552093505859375" lon="-4.00665407069027423858642578125">
        <ele>4.80000019073486328125</ele>
        <time>2018-09-05T13:37:07.000Z</time>
      </trkpt>
      <trkpt lat="43.40128666721284389495849609375" lon="-4.00663965381681919097900390625">
        <ele>4.400000095367431640625</ele>
        <time>2018-09-05T13:37:10.000Z</time>
      </trkpt>
      <trkpt lat="43.401234447956085205078125" lon="-4.006643593311309814453125">
        <ele>4.400000095367431640625</ele>
        <time>2018-09-05T13:37:11.000Z</time>
      </trkpt>
      <trkpt lat="43.40118038468062877655029296875" lon="-4.0066568367183208465576171875">
        <ele>4</ele>
        <time>2018-09-05T13:37:12.000Z</time>
      </trkpt>
      <trkpt lat="43.40112523175776004791259765625" lon="-4.0066782943904399871826171875">
        <ele>3.7999999523162841796875</ele>
        <time>2018-09-05T13:37:13.000Z</time>
      </trkpt>
      <trkpt lat="43.40101358480751514434814453125" lon="-4.00674124248325824737548828125">
        <ele>3.2000000476837158203125</ele>
        <time>2018-09-05T13:37:15.000Z</time>
      </trkpt>
      <trkpt lat="43.40095742605626583099365234375" lon="-4.00678130798041820526123046875">
        <ele>3.2000000476837158203125</ele>
        <time>2018-09-05T13:37:16.000Z</time>
      </trkpt>
      <trkpt lat="43.40090394951403141021728515625" lon="-4.00682531297206878662109375">
        <ele>3.2000000476837158203125</ele>
        <time>2018-09-05T13:37:17.000Z</time>
      </trkpt>
      <trkpt lat="43.40085432864725589752197265625" lon="-4.00687485001981258392333984375">
        <ele>3</ele>
        <time>2018-09-05T13:37:18.000Z</time>
      </trkpt>
      <trkpt lat="43.40075793676078319549560546875" lon="-4.00698767043650150299072265625">
        <ele>2.7999999523162841796875</ele>
        <time>2018-09-05T13:37:20.000Z</time>
      </trkpt>
      <trkpt lat="43.40071183629333972930908203125" lon="-4.00705891661345958709716796875">
        <ele>2.599999904632568359375</ele>
        <time>2018-09-05T13:37:21.000Z</time>
      </trkpt>
      <trkpt lat="43.4006376564502716064453125" lon="-4.007240720093250274658203125">
        <ele>1.7999999523162841796875</ele>
        <time>2018-09-05T13:37:23.000Z</time>
      </trkpt>
      <trkpt lat="43.400605805218219757080078125" lon="-4.0073428116738796234130859375">
        <ele>1.39999997615814208984375</ele>
        <time>2018-09-05T13:37:24.000Z</time>
      </trkpt>
      <trkpt lat="43.40050832368433475494384765625" lon="-4.00765051133930683135986328125">
        <ele>0</ele>
        <time>2018-09-05T13:37:27.000Z</time>
      </trkpt>
      <trkpt lat="43.40046205557882785797119140625" lon="-4.0077397786080837249755859375">
        <ele>-0.800000011920928955078125</ele>
        <time>2018-09-05T13:37:28.000Z</time>
      </trkpt>
      <trkpt lat="43.40041411109268665313720703125" lon="-4.0078199096024036407470703125">
        <ele>-1</ele>
        <time>2018-09-05T13:37:29.000Z</time>
      </trkpt>
      <trkpt lat="43.40036365203559398651123046875" lon="-4.00789140723645687103271484375">
        <ele>-1</ele>
        <time>2018-09-05T13:37:30.000Z</time>
      </trkpt>
      <trkpt lat="43.40025787241756916046142578125" lon="-4.00802199728786945343017578125">
        <ele>-0.4000000059604644775390625</ele>
        <time>2018-09-05T13:37:32.000Z</time>
      </trkpt>
      <trkpt lat="43.4002143703401088714599609375" lon="-4.00809525512158870697021484375">
        <ele>-0.4000000059604644775390625</ele>
        <time>2018-09-05T13:37:33.000Z</time>
      </trkpt>
      <trkpt lat="43.4001808427274227142333984375" lon="-4.00826775468885898590087890625">
        <ele>-0.4000000059604644775390625</ele>
        <time>2018-09-05T13:37:35.000Z</time>
      </trkpt>
      <trkpt lat="43.40019886381924152374267578125" lon="-4.00855408050119876861572265625">
        <ele>-0.4000000059604644775390625</ele>
        <time>2018-09-05T13:37:39.000Z</time>
      </trkpt>
      <trkpt lat="43.40017832815647125244140625" lon="-4.00869422592222690582275390625">
        <ele>0.20000000298023223876953125</ele>
        <time>2018-09-05T13:37:41.000Z</time>
      </trkpt>
      <trkpt lat="43.4001583792269229888916015625" lon="-4.00876815430819988250732421875">
        <ele>-0.20000000298023223876953125</ele>
        <time>2018-09-05T13:37:42.000Z</time>
      </trkpt>
      <trkpt lat="43.40013432316482067108154296875" lon="-4.0088448487222194671630859375">
        <ele>-0.20000000298023223876953125</ele>
        <time>2018-09-05T13:37:43.000Z</time>
      </trkpt>
      <trkpt lat="43.40009291656315326690673828125" lon="-4.0090034343302249908447265625">
        <ele>-0.60000002384185791015625</ele>
        <time>2018-09-05T13:37:45.000Z</time>
      </trkpt>
      <trkpt lat="43.40008637867867946624755859375" lon="-4.0091566555202007293701171875">
        <ele>-1</ele>
        <time>2018-09-05T13:37:47.000Z</time>
      </trkpt>
      <trkpt lat="43.4000886417925357818603515625" lon="-4.0092287398874759674072265625">
        <ele>-1.2000000476837158203125</ele>
        <time>2018-09-05T13:37:48.000Z</time>
      </trkpt>
      <trkpt lat="43.40008805505931377410888671875" lon="-4.00942563079297542572021484375">
        <ele>-1.7999999523162841796875</ele>
        <time>2018-09-05T13:37:51.000Z</time>
      </trkpt>
      <trkpt lat="43.40006642974913120269775390625" lon="-4.009478352963924407958984375">
        <ele>-1.60000002384185791015625</ele>
        <time>2018-09-05T13:37:52.000Z</time>
      </trkpt>
      <trkpt lat="43.39993047527968883514404296875" lon="-4.009524621069431304931640625">
        <ele>-1.7999999523162841796875</ele>
        <time>2018-09-05T13:37:55.000Z</time>
      </trkpt>
      <trkpt lat="43.3998713828623294830322265625" lon="-4.009513556957244873046875">
        <ele>-2.2000000476837158203125</ele>
        <time>2018-09-05T13:37:56.000Z</time>
      </trkpt>
      <trkpt lat="43.399748839437961578369140625" lon="-4.00949385948479175567626953125">
        <ele>-3.2000000476837158203125</ele>
        <time>2018-09-05T13:37:58.000Z</time>
      </trkpt>
      <trkpt lat="43.39955412782728672027587890625" lon="-4.0094936080276966094970703125">
        <ele>-3.7999999523162841796875</ele>
        <time>2018-09-05T13:38:01.000Z</time>
      </trkpt>
      <trkpt lat="43.39941951446235179901123046875" lon="-4.00949008762836456298828125">
        <ele>-3.7999999523162841796875</ele>
        <time>2018-09-05T13:38:03.000Z</time>
      </trkpt>
      <trkpt lat="43.39915028773248195648193359375" lon="-4.00949276983737945556640625">
        <ele>-4.19999980926513671875</ele>
        <time>2018-09-05T13:38:07.000Z</time>
      </trkpt>
      <trkpt lat="43.3990895189344882965087890625" lon="-4.0095029957592487335205078125">
        <ele>-4.19999980926513671875</ele>
        <time>2018-09-05T13:38:08.000Z</time>
      </trkpt>
      <trkpt lat="43.39888189919292926788330078125" lon="-4.00956694968044757843017578125">
        <ele>-3.7999999523162841796875</ele>
        <time>2018-09-05T13:38:12.000Z</time>
      </trkpt>
      <trkpt lat="43.39884082786738872528076171875" lon="-4.0095873177051544189453125">
        <ele>-3.400000095367431640625</ele>
        <time>2018-09-05T13:38:13.000Z</time>
      </trkpt>
      <trkpt lat="43.398802019655704498291015625" lon="-4.00960969738662242889404296875">
        <ele>-3</ele>
        <time>2018-09-05T13:38:14.000Z</time>
      </trkpt>
      <trkpt lat="43.3987280912697315216064453125" lon="-4.00965504348278045654296875">
        <ele>-2.599999904632568359375</ele>
        <time>2018-09-05T13:38:16.000Z</time>
      </trkpt>
      <trkpt lat="43.39865961112082004547119140625" lon="-4.00969737209379673004150390625">
        <ele>-2</ele>
        <time>2018-09-05T13:38:18.000Z</time>
      </trkpt>
      <trkpt lat="43.398598842322826385498046875" lon="-4.0097428858280181884765625">
        <ele>-1.39999997615814208984375</ele>
        <time>2018-09-05T13:38:20.000Z</time>
      </trkpt>
      <trkpt lat="43.3985353074967861175537109375" lon="-4.0097846277058124542236328125">
        <ele>-0.60000002384185791015625</ele>
        <time>2018-09-05T13:38:22.000Z</time>
      </trkpt>
      <trkpt lat="43.39847051538527011871337890625" lon="-4.00980533100664615631103515625">
        <ele>0</ele>
        <time>2018-09-05T13:38:24.000Z</time>
      </trkpt>
      <trkpt lat="43.3984387479722499847412109375" lon="-4.00980784557759761810302734375">
        <ele>0.4000000059604644775390625</ele>
        <time>2018-09-05T13:38:25.000Z</time>
      </trkpt>
      <trkpt lat="43.3984092436730861663818359375" lon="-4.00980030186474323272705078125">
        <ele>0.60000002384185791015625</ele>
        <time>2018-09-05T13:38:26.000Z</time>
      </trkpt>
      <trkpt lat="43.398348726332187652587890625" lon="-4.00977884419262409210205078125">
        <ele>1</ele>
        <time>2018-09-05T13:38:28.000Z</time>
      </trkpt>
      <trkpt lat="43.39828443713486194610595703125" lon="-4.0097534470260143280029296875">
        <ele>1.39999997615814208984375</ele>
        <time>2018-09-05T13:38:30.000Z</time>
      </trkpt>
      <trkpt lat="43.3982536755502223968505859375" lon="-4.0097494237124919891357421875">
        <ele>1.39999997615814208984375</ele>
        <time>2018-09-05T13:38:31.000Z</time>
      </trkpt>
      <trkpt lat="43.3981547690927982330322265625" lon="-4.00976057164371013641357421875">
        <ele>1.2000000476837158203125</ele>
        <time>2018-09-05T13:38:34.000Z</time>
      </trkpt>
      <trkpt lat="43.3980493247509002685546875" lon="-4.00975973345339298248291015625">
        <ele>1.39999997615814208984375</ele>
        <time>2018-09-05T13:38:37.000Z</time>
      </trkpt>
      <trkpt lat="43.39793859981000423431396484375" lon="-4.0097584761679172515869140625">
        <ele>1.60000002384185791015625</ele>
        <time>2018-09-05T13:38:40.000Z</time>
      </trkpt>
      <trkpt lat="43.397838436067104339599609375" lon="-4.00972251780331134796142578125">
        <ele>2.2000000476837158203125</ele>
        <time>2018-09-05T13:38:43.000Z</time>
      </trkpt>
      <trkpt lat="43.39773081243038177490234375" lon="-4.00967172347009181976318359375">
        <ele>2.7999999523162841796875</ele>
        <time>2018-09-05T13:38:47.000Z</time>
      </trkpt>
      <trkpt lat="43.397672139108180999755859375" lon="-4.009648673236370086669921875">
        <ele>2.7999999523162841796875</ele>
        <time>2018-09-05T13:38:49.000Z</time>
      </trkpt>
      <trkpt lat="43.39744155295193195343017578125" lon="-4.00952495634555816650390625">
        <ele>2.400000095367431640625</ele>
        <time>2018-09-05T13:38:55.000Z</time>
      </trkpt>
      <trkpt lat="43.39737139642238616943359375" lon="-4.00948338210582733154296875">
        <ele>3</ele>
        <time>2018-09-05T13:38:57.000Z</time>
      </trkpt>
      <trkpt lat="43.39725782163441181182861328125" lon="-4.0094211883842945098876953125">
        <ele>3.400000095367431640625</ele>
        <time>2018-09-05T13:39:01.000Z</time>
      </trkpt>
      <trkpt lat="43.39720333926379680633544921875" lon="-4.00940534658730030059814453125">
        <ele>4</ele>
        <time>2018-09-05T13:39:03.000Z</time>
      </trkpt>
      <trkpt lat="43.397110886871814727783203125" lon="-4.0094242058694362640380859375">
        <ele>4.80000019073486328125</ele>
        <time>2018-09-05T13:39:06.000Z</time>
      </trkpt>
      <trkpt lat="43.397082053124904632568359375" lon="-4.00943904183804988861083984375">
        <ele>5</ele>
        <time>2018-09-05T13:39:07.000Z</time>
      </trkpt>
      <trkpt lat="43.3970010839402675628662109375" lon="-4.00951112620532512664794921875">
        <ele>5.599999904632568359375</ele>
        <time>2018-09-05T13:39:10.000Z</time>
      </trkpt>
      <trkpt lat="43.396977446973323822021484375" lon="-4.009541384875774383544921875">
        <ele>5.599999904632568359375</ele>
        <time>2018-09-05T13:39:11.000Z</time>
      </trkpt>
      <trkpt lat="43.3968106471002101898193359375" lon="-4.00983475148677825927734375">
        <ele>6.19999980926513671875</ele>
        <time>2018-09-05T13:39:19.000Z</time>
      </trkpt>
      <trkpt lat="43.39669413864612579345703125" lon="-4.01002912782132625579833984375">
        <ele>6</ele>
        <time>2018-09-05T13:39:24.000Z</time>
      </trkpt>
      <trkpt lat="43.39666170068085193634033203125" lon="-4.01006600819528102874755859375">
        <ele>6.19999980926513671875</ele>
        <time>2018-09-05T13:39:25.000Z</time>
      </trkpt>
      <trkpt lat="43.39645667932927608489990234375" lon="-4.01036540977656841278076171875">
        <ele>6.400000095367431640625</ele>
        <time>2018-09-05T13:39:32.000Z</time>
      </trkpt>
      <trkpt lat="43.39643128216266632080078125" lon="-4.01041268371045589447021484375">
        <ele>6.400000095367431640625</ele>
        <time>2018-09-05T13:39:33.000Z</time>
      </trkpt>
      <trkpt lat="43.396339081227779388427734375" lon="-4.01066062040627002716064453125">
        <ele>6.19999980926513671875</ele>
        <time>2018-09-05T13:39:37.000Z</time>
      </trkpt>
      <trkpt lat="43.3962279371917247772216796875" lon="-4.0109869278967380523681640625">
        <ele>5.599999904632568359375</ele>
        <time>2018-09-05T13:39:42.000Z</time>
      </trkpt>
      <trkpt lat="43.39610866270959377288818359375" lon="-4.01130083017051219940185546875">
        <ele>6.19999980926513671875</ele>
        <time>2018-09-05T13:39:47.000Z</time>
      </trkpt>
      <trkpt lat="43.39600120671093463897705078125" lon="-4.011541306972503662109375">
        <ele>6.599999904632568359375</ele>
        <time>2018-09-05T13:39:51.000Z</time>
      </trkpt>
      <trkpt lat="43.395915962755680084228515625" lon="-4.01172428391873836517333984375">
        <ele>6</ele>
        <time>2018-09-05T13:39:54.000Z</time>
      </trkpt>
      <trkpt lat="43.395842202007770538330078125" lon="-4.0118690393865108489990234375">
        <ele>5</ele>
        <time>2018-09-05T13:39:56.000Z</time>
      </trkpt>
      <trkpt lat="43.39576215483248233795166015625" lon="-4.012040197849273681640625">
        <ele>3.400000095367431640625</ele>
        <time>2018-09-05T13:39:58.000Z</time>
      </trkpt>
      <trkpt lat="43.39568688534200191497802734375" lon="-4.0122284553945064544677734375">
        <ele>2.599999904632568359375</ele>
        <time>2018-09-05T13:40:00.000Z</time>
      </trkpt>
      <trkpt lat="43.3956495858728885650634765625" lon="-4.0123230032622814178466796875">
        <ele>2.2000000476837158203125</ele>
        <time>2018-09-05T13:40:01.000Z</time>
      </trkpt>
      <trkpt lat="43.39547239243984222412109375" lon="-4.012807309627532958984375">
        <ele>1.39999997615814208984375</ele>
        <time>2018-09-05T13:40:06.000Z</time>
      </trkpt>
      <trkpt lat="43.39533987455070018768310546875" lon="-4.01319446973502635955810546875">
        <ele>1.39999997615814208984375</ele>
        <time>2018-09-05T13:40:10.000Z</time>
      </trkpt>
      <trkpt lat="43.39530609548091888427734375" lon="-4.01328935287892818450927734375">
        <ele>1</ele>
        <time>2018-09-05T13:40:11.000Z</time>
      </trkpt>
      <trkpt lat="43.39525253511965274810791015625" lon="-4.01348565705120563507080078125">
        <ele>0.20000000298023223876953125</ele>
        <time>2018-09-05T13:40:13.000Z</time>
      </trkpt>
      <trkpt lat="43.39523233473300933837890625" lon="-4.0135873295366764068603515625">
        <ele>0</ele>
        <time>2018-09-05T13:40:14.000Z</time>
      </trkpt>
      <trkpt lat="43.39510920457541942596435546875" lon="-4.01410608552396297454833984375">
        <ele>0.4000000059604644775390625</ele>
        <time>2018-09-05T13:40:19.000Z</time>
      </trkpt>
      <trkpt lat="43.39499755762517452239990234375" lon="-4.01442090980708599090576171875">
        <ele>-1.2000000476837158203125</ele>
        <time>2018-09-05T13:40:22.000Z</time>
      </trkpt>
      <trkpt lat="43.39487702585756778717041015625" lon="-4.01472383178770542144775390625">
        <ele>-1.2000000476837158203125</ele>
        <time>2018-09-05T13:40:25.000Z</time>
      </trkpt>
      <trkpt lat="43.39478096924722194671630859375" lon="-4.01489985175430774688720703125">
        <ele>-1.7999999523162841796875</ele>
        <time>2018-09-05T13:40:27.000Z</time>
      </trkpt>
      <trkpt lat="43.394727408885955810546875" lon="-4.01497696526348590850830078125">
        <ele>-2</ele>
        <time>2018-09-05T13:40:28.000Z</time>
      </trkpt>
      <trkpt lat="43.39467116631567478179931640625" lon="-4.01504402048885822296142578125">
        <ele>-2.400000095367431640625</ele>
        <time>2018-09-05T13:40:29.000Z</time>
      </trkpt>
      <trkpt lat="43.3944452740252017974853515625" lon="-4.0152667276561260223388671875">
        <ele>-2.599999904632568359375</ele>
        <time>2018-09-05T13:40:33.000Z</time>
      </trkpt>
      <trkpt lat="43.39440227486193180084228515625" lon="-4.015306793153285980224609375">
        <ele>-2.7999999523162841796875</ele>
        <time>2018-09-05T13:40:34.000Z</time>
      </trkpt>
      <trkpt lat="43.39436757378280162811279296875" lon="-4.0153455175459384918212890625">
        <ele>-3</ele>
        <time>2018-09-05T13:40:35.000Z</time>
      </trkpt>
      <trkpt lat="43.39430152438580989837646484375" lon="-4.015427492558956146240234375">
        <ele>-3.400000095367431640625</ele>
        <time>2018-09-05T13:40:37.000Z</time>
      </trkpt>
      <trkpt lat="43.3942652307450771331787109375" lon="-4.01547409594058990478515625">
        <ele>-3.599999904632568359375</ele>
        <time>2018-09-05T13:40:38.000Z</time>
      </trkpt>
      <trkpt lat="43.3942313678562641143798828125" lon="-4.0155359543859958648681640625">
        <ele>-3.599999904632568359375</ele>
        <time>2018-09-05T13:40:39.000Z</time>
      </trkpt>
      <trkpt lat="43.3941250853240489959716796875" lon="-4.0157672949135303497314453125">
        <ele>-4.400000095367431640625</ele>
        <time>2018-09-05T13:40:42.000Z</time>
      </trkpt>
      <trkpt lat="43.3940474689006805419921875" lon="-4.01594473980367183685302734375">
        <ele>-5.400000095367431640625</ele>
        <time>2018-09-05T13:40:44.000Z</time>
      </trkpt>
      <trkpt lat="43.394008241593837738037109375" lon="-4.016036354005336761474609375">
        <ele>-5.80000019073486328125</ele>
        <time>2018-09-05T13:40:45.000Z</time>
      </trkpt>
      <trkpt lat="43.39392878115177154541015625" lon="-4.01621933095157146453857421875">
        <ele>-7</ele>
        <time>2018-09-05T13:40:47.000Z</time>
      </trkpt>
      <trkpt lat="43.39374345727264881134033203125" lon="-4.016664661467075347900390625">
        <ele>-8.19999980926513671875</ele>
        <time>2018-09-05T13:40:52.000Z</time>
      </trkpt>
      <trkpt lat="43.3936731331050395965576171875" lon="-4.01692424900829792022705078125">
        <ele>-7</ele>
        <time>2018-09-05T13:40:55.000Z</time>
      </trkpt>
      <trkpt lat="43.39361052028834819793701171875" lon="-4.0171613730490207672119140625">
        <ele>-6.19999980926513671875</ele>
        <time>2018-09-05T13:40:58.000Z</time>
      </trkpt>
      <trkpt lat="43.3935914933681488037109375" lon="-4.017233960330486297607421875">
        <ele>-6</ele>
        <time>2018-09-05T13:40:59.000Z</time>
      </trkpt>
      <trkpt lat="43.39355285279452800750732421875" lon="-4.017368741333484649658203125">
        <ele>-5.599999904632568359375</ele>
        <time>2018-09-05T13:41:01.000Z</time>
      </trkpt>
      <trkpt lat="43.39350809343159198760986328125" lon="-4.0174919553101062774658203125">
        <ele>-5</ele>
        <time>2018-09-05T13:41:03.000Z</time>
      </trkpt>
      <trkpt lat="43.393483869731426239013671875" lon="-4.01755155064165592193603515625">
        <ele>-5</ele>
        <time>2018-09-05T13:41:04.000Z</time>
      </trkpt>
      <trkpt lat="43.39336962439119815826416015625" lon="-4.017760343849658966064453125">
        <ele>-4.80000019073486328125</ele>
        <time>2018-09-05T13:41:08.000Z</time>
      </trkpt>
      <trkpt lat="43.39330558665096759796142578125" lon="-4.01786436326801776885986328125">
        <ele>-4.400000095367431640625</ele>
        <time>2018-09-05T13:41:10.000Z</time>
      </trkpt>
      <trkpt lat="43.39327289722859859466552734375" lon="-4.0179187618196010589599609375">
        <ele>-4.400000095367431640625</ele>
        <time>2018-09-05T13:41:11.000Z</time>
      </trkpt>
      <trkpt lat="43.3931759186089038848876953125" lon="-4.018085896968841552734375">
        <ele>-4.599999904632568359375</ele>
        <time>2018-09-05T13:41:14.000Z</time>
      </trkpt>
      <trkpt lat="43.39298254810273647308349609375" lon="-4.0184106118977069854736328125">
        <ele>-4.400000095367431640625</ele>
        <time>2018-09-05T13:41:20.000Z</time>
      </trkpt>
      <trkpt lat="43.39280116371810436248779296875" lon="-4.01871797628700733184814453125">
        <ele>-3.7999999523162841796875</ele>
        <time>2018-09-05T13:41:26.000Z</time>
      </trkpt>
      <trkpt lat="43.392769731581211090087890625" lon="-4.0187683515250682830810546875">
        <ele>-3.599999904632568359375</ele>
        <time>2018-09-05T13:41:27.000Z</time>
      </trkpt>
      <trkpt lat="43.39261324144899845123291015625" lon="-4.01902073062956333160400390625">
        <ele>-3.2000000476837158203125</ele>
        <time>2018-09-05T13:41:32.000Z</time>
      </trkpt>
      <trkpt lat="43.39255121536552906036376953125" lon="-4.01911921799182891845703125">
        <ele>-2.599999904632568359375</ele>
        <time>2018-09-05T13:41:34.000Z</time>
      </trkpt>
      <trkpt lat="43.39234049431979656219482421875" lon="-4.019475616514682769775390625">
        <ele>-1.39999997615814208984375</ele>
        <time>2018-09-05T13:41:41.000Z</time>
      </trkpt>
      <trkpt lat="43.39217285625636577606201171875" lon="-4.01977661065757274627685546875">
        <ele>-0.4000000059604644775390625</ele>
        <time>2018-09-05T13:41:47.000Z</time>
      </trkpt>
      <trkpt lat="43.3921144343912601470947265625" lon="-4.019871242344379425048828125">
        <ele>-0.20000000298023223876953125</ele>
        <time>2018-09-05T13:41:49.000Z</time>
      </trkpt>
      <trkpt lat="43.39198283851146697998046875" lon="-4.0201087854802608489990234375">
        <ele>0.60000002384185791015625</ele>
        <time>2018-09-05T13:41:54.000Z</time>
      </trkpt>
      <trkpt lat="43.39187295176088809967041015625" lon="-4.0203019045293331146240234375">
        <ele>1.2000000476837158203125</ele>
        <time>2018-09-05T13:41:58.000Z</time>
      </trkpt>
      <trkpt lat="43.391692154109477996826171875" lon="-4.02073985897004604339599609375">
        <ele>1.39999997615814208984375</ele>
        <time>2018-09-05T13:42:06.000Z</time>
      </trkpt>
      <trkpt lat="43.39167966507375240325927734375" lon="-4.02080423198640346527099609375">
        <ele>1.60000002384185791015625</ele>
        <time>2018-09-05T13:42:07.000Z</time>
      </trkpt>
      <trkpt lat="43.39158008806407451629638671875" lon="-4.02126993052661418914794921875">
        <ele>1.60000002384185791015625</ele>
        <time>2018-09-05T13:42:14.000Z</time>
      </trkpt>
      <trkpt lat="43.39149274863302707672119140625" lon="-4.0216014347970485687255859375">
        <ele>1</ele>
        <time>2018-09-05T13:42:19.000Z</time>
      </trkpt>
      <trkpt lat="43.3914784155786037445068359375" lon="-4.021670334041118621826171875">
        <ele>1.2000000476837158203125</ele>
        <time>2018-09-05T13:42:20.000Z</time>
      </trkpt>
      <trkpt lat="43.3914680220186710357666015625" lon="-4.0217422507703304290771484375">
        <ele>1.39999997615814208984375</ele>
        <time>2018-09-05T13:42:21.000Z</time>
      </trkpt>
      <trkpt lat="43.3914073370397090911865234375" lon="-4.02212404645979404449462890625">
        <ele>0.800000011920928955078125</ele>
        <time>2018-09-05T13:42:26.000Z</time>
      </trkpt>
      <trkpt lat="43.39137959294021129608154296875" lon="-4.0222956240177154541015625">
        <ele>0.60000002384185791015625</ele>
        <time>2018-09-05T13:42:28.000Z</time>
      </trkpt>
      <trkpt lat="43.3913161419332027435302734375" lon="-4.022661745548248291015625">
        <ele>-0.60000002384185791015625</ele>
        <time>2018-09-05T13:42:32.000Z</time>
      </trkpt>
      <trkpt lat="43.39124699123203754425048828125" lon="-4.0230407752096652984619140625">
        <ele>-0.4000000059604644775390625</ele>
        <time>2018-09-05T13:42:36.000Z</time>
      </trkpt>
      <trkpt lat="43.3912070095539093017578125" lon="-4.0233210660517215728759765625">
        <ele>-1.2000000476837158203125</ele>
        <time>2018-09-05T13:42:39.000Z</time>
      </trkpt>
      <trkpt lat="43.39108522050082683563232421875" lon="-4.02397041209042072296142578125">
        <ele>-1.60000002384185791015625</ele>
        <time>2018-09-05T13:42:46.000Z</time>
      </trkpt>
      <trkpt lat="43.3910680375993251800537109375" lon="-4.02407082729041576385498046875">
        <ele>-1.7999999523162841796875</ele>
        <time>2018-09-05T13:42:47.000Z</time>
      </trkpt>
      <trkpt lat="43.39101648889482021331787109375" lon="-4.0243664570152759552001953125">
        <ele>-2.7999999523162841796875</ele>
        <time>2018-09-05T13:42:50.000Z</time>
      </trkpt>
      <trkpt lat="43.3909828774631023406982421875" lon="-4.024565108120441436767578125">
        <ele>-3.400000095367431640625</ele>
        <time>2018-09-05T13:42:52.000Z</time>
      </trkpt>
      <trkpt lat="43.3909439854323863983154296875" lon="-4.02476987801492214202880859375">
        <ele>-4</ele>
        <time>2018-09-05T13:42:54.000Z</time>
      </trkpt>
      <trkpt lat="43.390923701226711273193359375" lon="-4.0248760767281055450439453125">
        <ele>-4.19999980926513671875</ele>
        <time>2018-09-05T13:42:55.000Z</time>
      </trkpt>
      <trkpt lat="43.390864022076129913330078125" lon="-4.02520783245563507080078125">
        <ele>-5.19999980926513671875</ele>
        <time>2018-09-05T13:42:58.000Z</time>
      </trkpt>
      <trkpt lat="43.390753380954265594482421875" lon="-4.0257524885237216949462890625">
        <ele>-6</ele>
        <time>2018-09-05T13:43:03.000Z</time>
      </trkpt>
      <trkpt lat="43.39072488248348236083984375" lon="-4.02585466392338275909423828125">
        <ele>-6</ele>
        <time>2018-09-05T13:43:04.000Z</time>
      </trkpt>
      <trkpt lat="43.39057945646345615386962890625" lon="-4.02622380293905735015869140625">
        <ele>-5.599999904632568359375</ele>
        <time>2018-09-05T13:43:08.000Z</time>
      </trkpt>
      <trkpt lat="43.39034576900303363800048828125" lon="-4.02664306573569774627685546875">
        <ele>-4.19999980926513671875</ele>
        <time>2018-09-05T13:43:14.000Z</time>
      </trkpt>
      <trkpt lat="43.39024686254560947418212890625" lon="-4.02681288309395313262939453125">
        <ele>-3.2000000476837158203125</ele>
        <time>2018-09-05T13:43:17.000Z</time>
      </trkpt>
      <trkpt lat="43.390215933322906494140625" lon="-4.02686686255037784576416015625">
        <ele>-3</ele>
        <time>2018-09-05T13:43:18.000Z</time>
      </trkpt>
      <trkpt lat="43.39012364856898784637451171875" lon="-4.02702125720679759979248046875">
        <ele>-2</ele>
        <time>2018-09-05T13:43:21.000Z</time>
      </trkpt>
      <trkpt lat="43.390094898641109466552734375" lon="-4.02707205154001712799072265625">
        <ele>-1.60000002384185791015625</ele>
        <time>2018-09-05T13:43:22.000Z</time>
      </trkpt>
      <trkpt lat="43.39000730775296688079833984375" lon="-4.027216471731662750244140625">
        <ele>-1</ele>
        <time>2018-09-05T13:43:25.000Z</time>
      </trkpt>
      <trkpt lat="43.38995399884879589080810546875" lon="-4.0273071639239788055419921875">
        <ele>-0.4000000059604644775390625</ele>
        <time>2018-09-05T13:43:27.000Z</time>
      </trkpt>
      <trkpt lat="43.38992835022509098052978515625" lon="-4.0273524262011051177978515625">
        <ele>-0.20000000298023223876953125</ele>
        <time>2018-09-05T13:43:28.000Z</time>
      </trkpt>
      <trkpt lat="43.38977931998670101165771484375" lon="-4.0276102535426616668701171875">
        <ele>0.800000011920928955078125</ele>
        <time>2018-09-05T13:43:34.000Z</time>
      </trkpt>
      <trkpt lat="43.3896414376795291900634765625" lon="-4.027827680110931396484375">
        <ele>1.39999997615814208984375</ele>
        <time>2018-09-05T13:43:39.000Z</time>
      </trkpt>
      <trkpt lat="43.38955569081008434295654296875" lon="-4.02796053327620029449462890625">
        <ele>1.7999999523162841796875</ele>
        <time>2018-09-05T13:43:42.000Z</time>
      </trkpt>
      <trkpt lat="43.3893857896327972412109375" lon="-4.028129763901233673095703125">
        <ele>2.2000000476837158203125</ele>
        <time>2018-09-05T13:43:47.000Z</time>
      </trkpt>
      <trkpt lat="43.38935184292495250701904296875" lon="-4.02816052548587322235107421875">
        <ele>2.2000000476837158203125</ele>
        <time>2018-09-05T13:43:48.000Z</time>
      </trkpt>
      <trkpt lat="43.38924656622111797332763671875" lon="-4.02824903838336467742919921875">
        <ele>3</ele>
        <time>2018-09-05T13:43:51.000Z</time>
      </trkpt>
      <trkpt lat="43.38903509080410003662109375" lon="-4.0284192748367786407470703125">
        <ele>3.400000095367431640625</ele>
        <time>2018-09-05T13:43:57.000Z</time>
      </trkpt>
      <trkpt lat="43.38890592567622661590576171875" lon="-4.02852547354996204376220703125">
        <ele>4</ele>
        <time>2018-09-05T13:44:01.000Z</time>
      </trkpt>
      <trkpt lat="43.38874340057373046875" lon="-4.02864910662174224853515625">
        <ele>4.599999904632568359375</ele>
        <time>2018-09-05T13:44:06.000Z</time>
      </trkpt>
      <trkpt lat="43.38864457793533802032470703125" lon="-4.02872496284544467926025390625">
        <ele>5</ele>
        <time>2018-09-05T13:44:09.000Z</time>
      </trkpt>
      <trkpt lat="43.3884294144809246063232421875" lon="-4.0288906730711460113525390625">
        <ele>6</ele>
        <time>2018-09-05T13:44:16.000Z</time>
      </trkpt>
      <trkpt lat="43.388397730886936187744140625" lon="-4.0289154835045337677001953125">
        <ele>6</ele>
        <time>2018-09-05T13:44:17.000Z</time>
      </trkpt>
      <trkpt lat="43.38824878446757793426513671875" lon="-4.02903157286345958709716796875">
        <ele>6.599999904632568359375</ele>
        <time>2018-09-05T13:44:22.000Z</time>
      </trkpt>
      <trkpt lat="43.38818927295506000518798828125" lon="-4.029076583683490753173828125">
        <ele>7</ele>
        <time>2018-09-05T13:44:24.000Z</time>
      </trkpt>
      <trkpt lat="43.38812976144254207611083984375" lon="-4.02911723591387271881103515625">
        <ele>7.19999980926513671875</ele>
        <time>2018-09-05T13:44:26.000Z</time>
      </trkpt>
      <trkpt lat="43.388028256595134735107421875" lon="-4.02918932028114795684814453125">
        <ele>7.80000019073486328125</ele>
        <time>2018-09-05T13:44:30.000Z</time>
      </trkpt>
      <trkpt lat="43.38800084777176380157470703125" lon="-4.02921278961002826690673828125">
        <ele>8</ele>
        <time>2018-09-05T13:44:31.000Z</time>
      </trkpt>
      <trkpt lat="43.38789322413504123687744140625" lon="-4.0293323993682861328125">
        <ele>8.19999980926513671875</ele>
        <time>2018-09-05T13:44:35.000Z</time>
      </trkpt>
      <trkpt lat="43.3878413401544094085693359375" lon="-4.02939802967011928558349609375">
        <ele>8.3999996185302734375</ele>
        <time>2018-09-05T13:44:37.000Z</time>
      </trkpt>
      <trkpt lat="43.3877239935100078582763671875" lon="-4.02973540127277374267578125">
        <ele>8.6000003814697265625</ele>
        <time>2018-09-05T13:44:43.000Z</time>
      </trkpt>
      <trkpt lat="43.3876557648181915283203125" lon="-4.02990295551717281341552734375">
        <ele>8.19999980926513671875</ele>
        <time>2018-09-05T13:44:46.000Z</time>
      </trkpt>
      <trkpt lat="43.38755241595208644866943359375" lon="-4.03019003570079803466796875">
        <ele>8.80000019073486328125</ele>
        <time>2018-09-05T13:44:51.000Z</time>
      </trkpt>
      <trkpt lat="43.387470357120037078857421875" lon="-4.03042204678058624267578125">
        <ele>8.6000003814697265625</ele>
        <time>2018-09-05T13:44:55.000Z</time>
      </trkpt>
      <trkpt lat="43.38740958832204341888427734375" lon="-4.030600078403949737548828125">
        <ele>8.6000003814697265625</ele>
        <time>2018-09-05T13:44:58.000Z</time>
      </trkpt>
      <trkpt lat="43.38737371377646923065185546875" lon="-4.03071616776287555694580078125">
        <ele>8.3999996185302734375</ele>
        <time>2018-09-05T13:45:00.000Z</time>
      </trkpt>
      <trkpt lat="43.38727681897580623626708984375" lon="-4.03101573698222637176513671875">
        <ele>9</ele>
        <time>2018-09-05T13:45:05.000Z</time>
      </trkpt>
      <trkpt lat="43.38720976375043392181396484375" lon="-4.0311980433762073516845703125">
        <ele>9.19999980926513671875</ele>
        <time>2018-09-05T13:45:08.000Z</time>
      </trkpt>
      <trkpt lat="43.387109600007534027099609375" lon="-4.03143416158854961395263671875">
        <ele>9.19999980926513671875</ele>
        <time>2018-09-05T13:45:12.000Z</time>
      </trkpt>
      <trkpt lat="43.38708621449768543243408203125" lon="-4.03149451129138469696044921875">
        <ele>9.19999980926513671875</ele>
        <time>2018-09-05T13:45:13.000Z</time>
      </trkpt>
      <trkpt lat="43.3870621584355831146240234375" lon="-4.03155670501291751861572265625">
        <ele>9.19999980926513671875</ele>
        <time>2018-09-05T13:45:14.000Z</time>
      </trkpt>
      <trkpt lat="43.3869883976876735687255859375" lon="-4.031734652817249298095703125">
        <ele>9.3999996185302734375</ele>
        <time>2018-09-05T13:45:17.000Z</time>
      </trkpt>
      <trkpt lat="43.3868630044162273406982421875" lon="-4.03202039189636707305908203125">
        <ele>9.6000003814697265625</ele>
        <time>2018-09-05T13:45:22.000Z</time>
      </trkpt>
      <trkpt lat="43.38669964112341403961181640625" lon="-4.0322645567357540130615234375">
        <ele>9.6000003814697265625</ele>
        <time>2018-09-05T13:45:27.000Z</time>
      </trkpt>
      <trkpt lat="43.38662889786064624786376953125" lon="-4.0323497168719768524169921875">
        <ele>10</ele>
        <time>2018-09-05T13:45:29.000Z</time>
      </trkpt>
      <trkpt lat="43.38633234612643718719482421875" lon="-4.03263579122722148895263671875">
        <ele>9.6000003814697265625</ele>
        <time>2018-09-05T13:45:36.000Z</time>
      </trkpt>
      <trkpt lat="43.38618130423128604888916015625" lon="-4.03272530995309352874755859375">
        <ele>9.80000019073486328125</ele>
        <time>2018-09-05T13:45:39.000Z</time>
      </trkpt>
      <trkpt lat="43.38607124984264373779296875" lon="-4.032758586108684539794921875">
        <ele>9.80000019073486328125</ele>
        <time>2018-09-05T13:45:41.000Z</time>
      </trkpt>
      <trkpt lat="43.38601366616785526275634765625" lon="-4.0327714942395687103271484375">
        <ele>9.80000019073486328125</ele>
        <time>2018-09-05T13:45:42.000Z</time>
      </trkpt>
      <trkpt lat="43.3858337067067623138427734375" lon="-4.0327966399490833282470703125">
        <ele>10</ele>
        <time>2018-09-05T13:45:45.000Z</time>
      </trkpt>
      <trkpt lat="43.385593481361865997314453125" lon="-4.03282069601118564605712890625">
        <ele>10</ele>
        <time>2018-09-05T13:45:49.000Z</time>
      </trkpt>
      <trkpt lat="43.38512250222265720367431640625" lon="-4.0328640304505825042724609375">
        <ele>9.6000003814697265625</ele>
        <time>2018-09-05T13:45:57.000Z</time>
      </trkpt>
      <trkpt lat="43.38463551364839076995849609375" lon="-4.032890684902667999267578125">
        <ele>8</ele>
        <time>2018-09-05T13:46:04.000Z</time>
      </trkpt>
      <trkpt lat="43.3844047598540782928466796875" lon="-4.03293217532336711883544921875">
        <ele>6.80000019073486328125</ele>
        <time>2018-09-05T13:46:07.000Z</time>
      </trkpt>
      <trkpt lat="43.38432588614523410797119140625" lon="-4.03296570293605327606201171875">
        <ele>6.400000095367431640625</ele>
        <time>2018-09-05T13:46:08.000Z</time>
      </trkpt>
      <trkpt lat="43.38424877263605594635009765625" lon="-4.03301113285124301910400390625">
        <ele>6</ele>
        <time>2018-09-05T13:46:09.000Z</time>
      </trkpt>
      <trkpt lat="43.38417492806911468505859375" lon="-4.03306963853538036346435546875">
        <ele>5.599999904632568359375</ele>
        <time>2018-09-05T13:46:10.000Z</time>
      </trkpt>
      <trkpt lat="43.38403813540935516357421875" lon="-4.03321397490799427032470703125">
        <ele>5</ele>
        <time>2018-09-05T13:46:12.000Z</time>
      </trkpt>
      <trkpt lat="43.38396982289850711822509765625" lon="-4.03328622691333293914794921875">
        <ele>4.80000019073486328125</ele>
        <time>2018-09-05T13:46:13.000Z</time>
      </trkpt>
      <trkpt lat="43.38377133943140506744384765625" lon="-4.0335020609200000762939453125">
        <ele>4.400000095367431640625</ele>
        <time>2018-09-05T13:46:16.000Z</time>
      </trkpt>
      <trkpt lat="43.383517451584339141845703125" lon="-4.033781178295612335205078125">
        <ele>3.400000095367431640625</ele>
        <time>2018-09-05T13:46:20.000Z</time>
      </trkpt>
      <trkpt lat="43.3833932317793369293212890625" lon="-4.03391771949827671051025390625">
        <ele>3</ele>
        <time>2018-09-05T13:46:22.000Z</time>
      </trkpt>
      <trkpt lat="43.38321075774729251861572265625" lon="-4.03412525542080402374267578125">
        <ele>2.2000000476837158203125</ele>
        <time>2018-09-05T13:46:25.000Z</time>
      </trkpt>
      <trkpt lat="43.38296600617468357086181640625" lon="-4.034410826861858367919921875">
        <ele>1.7999999523162841796875</ele>
        <time>2018-09-05T13:46:29.000Z</time>
      </trkpt>
      <trkpt lat="43.38284715078771114349365234375" lon="-4.034549631178379058837890625">
        <ele>1.2000000476837158203125</ele>
        <time>2018-09-05T13:46:31.000Z</time>
      </trkpt>
      <trkpt lat="43.3825000561773777008056640625" lon="-4.034951291978359222412109375">
        <ele>0.20000000298023223876953125</ele>
        <time>2018-09-05T13:46:37.000Z</time>
      </trkpt>
      <trkpt lat="43.38209462352097034454345703125" lon="-4.03541908599436283111572265625">
        <ele>0</ele>
        <time>2018-09-05T13:46:44.000Z</time>
      </trkpt>
      <trkpt lat="43.3820350281894207000732421875" lon="-4.0354907512664794921875">
        <ele>-0.20000000298023223876953125</ele>
        <time>2018-09-05T13:46:45.000Z</time>
      </trkpt>
      <trkpt lat="43.38191659189760684967041015625" lon="-4.03563936240971088409423828125">
        <ele>-0.800000011920928955078125</ele>
        <time>2018-09-05T13:46:47.000Z</time>
      </trkpt>
      <trkpt lat="43.3817570842802524566650390625" lon="-4.03586299158632755279541015625">
        <ele>-1.39999997615814208984375</ele>
        <time>2018-09-05T13:46:50.000Z</time>
      </trkpt>
      <trkpt lat="43.3816611953079700469970703125" lon="-4.0360095910727977752685546875">
        <ele>-2</ele>
        <time>2018-09-05T13:46:52.000Z</time>
      </trkpt>
      <trkpt lat="43.38156689889729022979736328125" lon="-4.0361591242253780364990234375">
        <ele>-2.400000095367431640625</ele>
        <time>2018-09-05T13:46:54.000Z</time>
      </trkpt>
      <trkpt lat="43.38141887448728084564208984375" lon="-4.03639256022870540618896484375">
        <ele>-3</ele>
        <time>2018-09-05T13:46:57.000Z</time>
      </trkpt>
      <trkpt lat="43.38131644763052463531494140625" lon="-4.03655215166509151458740234375">
        <ele>-3.400000095367431640625</ele>
        <time>2018-09-05T13:46:59.000Z</time>
      </trkpt>
      <trkpt lat="43.3812645636498928070068359375" lon="-4.0366315282881259918212890625">
        <ele>-3.7999999523162841796875</ele>
        <time>2018-09-05T13:47:00.000Z</time>
      </trkpt>
      <trkpt lat="43.38111930526793003082275390625" lon="-4.0368782915174961090087890625">
        <ele>-4.19999980926513671875</ele>
        <time>2018-09-05T13:47:03.000Z</time>
      </trkpt>
      <trkpt lat="43.38093574158847332000732421875" lon="-4.0372058562934398651123046875">
        <ele>-5.400000095367431640625</ele>
        <time>2018-09-05T13:47:07.000Z</time>
      </trkpt>
      <trkpt lat="43.3808216638863086700439453125" lon="-4.03755697421729564666748046875">
        <ele>-5.80000019073486328125</ele>
        <time>2018-09-05T13:47:11.000Z</time>
      </trkpt>
      <trkpt lat="43.38075888343155384063720703125" lon="-4.037718661129474639892578125">
        <ele>-5.400000095367431640625</ele>
        <time>2018-09-05T13:47:13.000Z</time>
      </trkpt>
      <trkpt lat="43.3807061612606048583984375" lon="-4.03777129948139190673828125">
        <ele>-5.599999904632568359375</ele>
        <time>2018-09-05T13:47:14.000Z</time>
      </trkpt>
      <trkpt lat="43.3805795945227146148681640625" lon="-4.03783005662262439727783203125">
        <ele>-6</ele>
        <time>2018-09-05T13:47:16.000Z</time>
      </trkpt>
      <trkpt lat="43.38044975884258747100830078125" lon="-4.0378894843161106109619140625">
        <ele>-5.599999904632568359375</ele>
        <time>2018-09-05T13:47:18.000Z</time>
      </trkpt>
      <trkpt lat="43.38038756512105464935302734375" lon="-4.03793248347938060760498046875">
        <ele>-5.400000095367431640625</ele>
        <time>2018-09-05T13:47:19.000Z</time>
      </trkpt>
      <trkpt lat="43.3800723217427730560302734375" lon="-4.038152508437633514404296875">
        <ele>-5.19999980926513671875</ele>
        <time>2018-09-05T13:47:24.000Z</time>
      </trkpt>
      <trkpt lat="43.37971868924796581268310546875" lon="-4.03830681927502155303955078125">
        <ele>-6</ele>
        <time>2018-09-05T13:47:29.000Z</time>
      </trkpt>
      <trkpt lat="43.3796401508152484893798828125" lon="-4.03833766467869281768798828125">
        <ele>-6.400000095367431640625</ele>
        <time>2018-09-05T13:47:30.000Z</time>
      </trkpt>
      <trkpt lat="43.37956613861024379730224609375" lon="-4.03837387450039386749267578125">
        <ele>-6.599999904632568359375</ele>
        <time>2018-09-05T13:47:31.000Z</time>
      </trkpt>
      <trkpt lat="43.37935038842260837554931640625" lon="-4.0384718589484691619873046875">
        <ele>-5.80000019073486328125</ele>
        <time>2018-09-05T13:47:34.000Z</time>
      </trkpt>
      <trkpt lat="43.37913111783564090728759765625" lon="-4.0385637246072292327880859375">
        <ele>-5.400000095367431640625</ele>
        <time>2018-09-05T13:47:37.000Z</time>
      </trkpt>
      <trkpt lat="43.37891134433448314666748046875" lon="-4.03865869157016277313232421875">
        <ele>-5.599999904632568359375</ele>
        <time>2018-09-05T13:47:40.000Z</time>
      </trkpt>
      <trkpt lat="43.37837037630379199981689453125" lon="-4.03890587389469146728515625">
        <ele>-6.19999980926513671875</ele>
        <time>2018-09-05T13:47:48.000Z</time>
      </trkpt>
      <trkpt lat="43.37781012989580631256103515625" lon="-4.03915205039083957672119140625">
        <ele>-5.19999980926513671875</ele>
        <time>2018-09-05T13:47:57.000Z</time>
      </trkpt>
      <trkpt lat="43.377382569015026092529296875" lon="-4.0393224544823169708251953125">
        <ele>-5</ele>
        <time>2018-09-05T13:48:04.000Z</time>
      </trkpt>
      <trkpt lat="43.37682894431054592132568359375" lon="-4.03955765068531036376953125">
        <ele>-4.80000019073486328125</ele>
        <time>2018-09-05T13:48:13.000Z</time>
      </trkpt>
      <trkpt lat="43.37676540948450565338134765625" lon="-4.039586484432220458984375">
        <ele>-5</ele>
        <time>2018-09-05T13:48:14.000Z</time>
      </trkpt>
      <trkpt lat="43.37626802735030651092529296875" lon="-4.0397992171347141265869140625">
        <ele>-4.80000019073486328125</ele>
        <time>2018-09-05T13:48:22.000Z</time>
      </trkpt>
      <trkpt lat="43.37596627883613109588623046875" lon="-4.0399353392422199249267578125">
        <ele>-4.400000095367431640625</ele>
        <time>2018-09-05T13:48:27.000Z</time>
      </trkpt>
      <trkpt lat="43.3757762610912322998046875" lon="-4.04001840390264987945556640625">
        <ele>-4.19999980926513671875</ele>
        <time>2018-09-05T13:48:30.000Z</time>
      </trkpt>
      <trkpt lat="43.3755823038518428802490234375" lon="-4.0401096828281879425048828125">
        <ele>-4.19999980926513671875</ele>
        <time>2018-09-05T13:48:33.000Z</time>
      </trkpt>
      <trkpt lat="43.3751833252608776092529296875" lon="-4.04028092510998249053955078125">
        <ele>-4.19999980926513671875</ele>
        <time>2018-09-05T13:48:39.000Z</time>
      </trkpt>
      <trkpt lat="43.3751186169683933258056640625" lon="-4.04030774720013141632080078125">
        <ele>-4.400000095367431640625</ele>
        <time>2018-09-05T13:48:40.000Z</time>
      </trkpt>
      <trkpt lat="43.37457320652902126312255859375" lon="-4.04053187929093837738037109375">
        <ele>-3.599999904632568359375</ele>
        <time>2018-09-05T13:48:49.000Z</time>
      </trkpt>
      <trkpt lat="43.37441361509263515472412109375" lon="-4.04059021733701229095458984375">
        <ele>-3.400000095367431640625</ele>
        <time>2018-09-05T13:48:52.000Z</time>
      </trkpt>
      <trkpt lat="43.37436483241617679595947265625" lon="-4.0406112559139728546142578125">
        <ele>-3.2000000476837158203125</ele>
        <time>2018-09-05T13:48:53.000Z</time>
      </trkpt>
      <trkpt lat="43.374263830482959747314453125" lon="-4.0406508184969425201416015625">
        <ele>-3</ele>
        <time>2018-09-05T13:48:55.000Z</time>
      </trkpt>
      <trkpt lat="43.37391774170100688934326171875" lon="-4.0407986752688884735107421875">
        <ele>-3</ele>
        <time>2018-09-05T13:49:02.000Z</time>
      </trkpt>
      <trkpt lat="43.37377139367163181304931640625" lon="-4.0408499725162982940673828125">
        <ele>-3</ele>
        <time>2018-09-05T13:49:05.000Z</time>
      </trkpt>
      <trkpt lat="43.37363895960152149200439453125" lon="-4.0409086458384990692138671875">
        <ele>-3</ele>
        <time>2018-09-05T13:49:08.000Z</time>
      </trkpt>
      <trkpt lat="43.37359705008566379547119140625" lon="-4.04092423617839813232421875">
        <ele>-3</ele>
        <time>2018-09-05T13:49:09.000Z</time>
      </trkpt>
      <trkpt lat="43.37351691909134387969970703125" lon="-4.04096354730427265167236328125">
        <ele>-3</ele>
        <time>2018-09-05T13:49:11.000Z</time>
      </trkpt>
      <trkpt lat="43.3734757639467716217041015625" lon="-4.04099087230861186981201171875">
        <ele>-3</ele>
        <time>2018-09-05T13:49:12.000Z</time>
      </trkpt>
      <trkpt lat="43.37339580059051513671875" lon="-4.04106396250426769256591796875">
        <ele>-2.7999999523162841796875</ele>
        <time>2018-09-05T13:49:14.000Z</time>
      </trkpt>
      <trkpt lat="43.37329613976180553436279296875" lon="-4.041281640529632568359375">
        <ele>-2.2000000476837158203125</ele>
        <time>2018-09-05T13:49:18.000Z</time>
      </trkpt>
      <trkpt lat="43.3732880093157291412353515625" lon="-4.04134324751794338226318359375">
        <ele>-2.2000000476837158203125</ele>
        <time>2018-09-05T13:49:19.000Z</time>
      </trkpt>
      <trkpt lat="43.37328138761222362518310546875" lon="-4.04146143235266208648681640625">
        <ele>-1.7999999523162841796875</ele>
        <time>2018-09-05T13:49:21.000Z</time>
      </trkpt>
      <trkpt lat="43.373296558856964111328125" lon="-4.04156805016100406646728515625">
        <ele>-1.39999997615814208984375</ele>
        <time>2018-09-05T13:49:23.000Z</time>
      </trkpt>
      <trkpt lat="43.3733195252716541290283203125" lon="-4.04165446758270263671875">
        <ele>-1.2000000476837158203125</ele>
        <time>2018-09-05T13:49:25.000Z</time>
      </trkpt>
      <trkpt lat="43.3733674697577953338623046875" lon="-4.04182068072259426116943359375">
        <ele>-0.20000000298023223876953125</ele>
        <time>2018-09-05T13:49:29.000Z</time>
      </trkpt>
      <trkpt lat="43.3733775280416011810302734375" lon="-4.04186569154262542724609375">
        <ele>0</ele>
        <time>2018-09-05T13:49:30.000Z</time>
      </trkpt>
      <trkpt lat="43.3734046854078769683837890625" lon="-4.0419543720781803131103515625">
        <ele>0.60000002384185791015625</ele>
        <time>2018-09-05T13:49:32.000Z</time>
      </trkpt>
      <trkpt lat="43.3734435774385929107666015625" lon="-4.042075239121913909912109375">
        <ele>1.39999997615814208984375</ele>
        <time>2018-09-05T13:49:35.000Z</time>
      </trkpt>
      <trkpt lat="43.37353770621120929718017578125" lon="-4.04242317192256450653076171875">
        <ele>2.400000095367431640625</ele>
        <time>2018-09-05T13:49:43.000Z</time>
      </trkpt>
      <trkpt lat="43.3736645244061946868896484375" lon="-4.04280220158398151397705078125">
        <ele>2.2000000476837158203125</ele>
        <time>2018-09-05T13:49:51.000Z</time>
      </trkpt>
      <trkpt lat="43.3736930228769779205322265625" lon="-4.042857773602008819580078125">
        <ele>2</ele>
        <time>2018-09-05T13:49:52.000Z</time>
      </trkpt>
      <trkpt lat="43.3737654425203800201416015625" lon="-4.0429727733135223388671875">
        <ele>1.7999999523162841796875</ele>
        <time>2018-09-05T13:49:54.000Z</time>
      </trkpt>
      <trkpt lat="43.3738123811781406402587890625" lon="-4.04301895759999752044677734375">
        <ele>1.7999999523162841796875</ele>
        <time>2018-09-05T13:49:55.000Z</time>
      </trkpt>
      <trkpt lat="43.37392059154808521270751953125" lon="-4.043099172413349151611328125">
        <ele>1.39999997615814208984375</ele>
        <time>2018-09-05T13:49:57.000Z</time>
      </trkpt>
      <trkpt lat="43.3740497566759586334228515625" lon="-4.0431556664407253265380859375">
        <ele>0.4000000059604644775390625</ele>
        <time>2018-09-05T13:49:59.000Z</time>
      </trkpt>
      <trkpt lat="43.37411890737712383270263671875" lon="-4.04316999949514865875244140625">
        <ele>0.20000000298023223876953125</ele>
        <time>2018-09-05T13:50:00.000Z</time>
      </trkpt>
      <trkpt lat="43.37419065646827220916748046875" lon="-4.0431791357696056365966796875">
        <ele>0</ele>
        <time>2018-09-05T13:50:01.000Z</time>
      </trkpt>
      <trkpt lat="43.37448150850832462310791015625" lon="-4.04323822818696498870849609375">
        <ele>-0.60000002384185791015625</ele>
        <time>2018-09-05T13:50:05.000Z</time>
      </trkpt>
      <trkpt lat="43.374554179608821868896484375" lon="-4.04325532726943492889404296875">
        <ele>-0.800000011920928955078125</ele>
        <time>2018-09-05T13:50:06.000Z</time>
      </trkpt>
      <trkpt lat="43.37462550960481166839599609375" lon="-4.04327628202736377716064453125">
        <ele>-1</ele>
        <time>2018-09-05T13:50:07.000Z</time>
      </trkpt>
      <trkpt lat="43.37491669692099094390869140625" lon="-4.0433591790497303009033203125">
        <ele>-1.39999997615814208984375</ele>
        <time>2018-09-05T13:50:11.000Z</time>
      </trkpt>
      <trkpt lat="43.37526018731296062469482421875" lon="-4.04344626702368259429931640625">
        <ele>-1.39999997615814208984375</ele>
        <time>2018-09-05T13:50:16.000Z</time>
      </trkpt>
      <trkpt lat="43.37538775987923145294189453125" lon="-4.043498151004314422607421875">
        <ele>-1.60000002384185791015625</ele>
        <time>2018-09-05T13:50:18.000Z</time>
      </trkpt>
      <trkpt lat="43.37544777430593967437744140625" lon="-4.0435341931879520416259765625">
        <ele>-1.39999997615814208984375</ele>
        <time>2018-09-05T13:50:19.000Z</time>
      </trkpt>
      <trkpt lat="43.37555808015167713165283203125" lon="-4.0436217002570629119873046875">
        <ele>-1.2000000476837158203125</ele>
        <time>2018-09-05T13:50:21.000Z</time>
      </trkpt>
      <trkpt lat="43.37565463967621326446533203125" lon="-4.043725468218326568603515625">
        <ele>-1</ele>
        <time>2018-09-05T13:50:23.000Z</time>
      </trkpt>
      <trkpt lat="43.37584775872528553009033203125" lon="-4.04409728944301605224609375">
        <ele>-0.4000000059604644775390625</ele>
        <time>2018-09-05T13:50:28.000Z</time>
      </trkpt>
      <trkpt lat="43.375965021550655364990234375" lon="-4.04433256946504116058349609375">
        <ele>0</ele>
        <time>2018-09-05T13:50:31.000Z</time>
      </trkpt>
      <trkpt lat="43.37604439817368984222412109375" lon="-4.044489227235317230224609375">
        <ele>-0.20000000298023223876953125</ele>
        <time>2018-09-05T13:50:33.000Z</time>
      </trkpt>
      <trkpt lat="43.37611916474997997283935546875" lon="-4.0446459688246250152587890625">
        <ele>-0.4000000059604644775390625</ele>
        <time>2018-09-05T13:50:35.000Z</time>
      </trkpt>
      <trkpt lat="43.3764282055199146270751953125" lon="-4.04525994323194026947021484375">
        <ele>0</ele>
        <time>2018-09-05T13:50:43.000Z</time>
      </trkpt>
      <trkpt lat="43.37654613889753818511962890625" lon="-4.04548658989369869232177734375">
        <ele>0.20000000298023223876953125</ele>
        <time>2018-09-05T13:50:46.000Z</time>
      </trkpt>
      <trkpt lat="43.376657702028751373291015625" lon="-4.045712649822235107421875">
        <ele>0.4000000059604644775390625</ele>
        <time>2018-09-05T13:50:49.000Z</time>
      </trkpt>
      <trkpt lat="43.376762308180332183837890625" lon="-4.04592580161988735198974609375">
        <ele>0.800000011920928955078125</ele>
        <time>2018-09-05T13:50:52.000Z</time>
      </trkpt>
      <trkpt lat="43.37704519741237163543701171875" lon="-4.0464923344552516937255859375">
        <ele>1</ele>
        <time>2018-09-05T13:51:00.000Z</time>
      </trkpt>
      <trkpt lat="43.3772657252848148345947265625" lon="-4.04692492447793483734130859375">
        <ele>1.2000000476837158203125</ele>
        <time>2018-09-05T13:51:06.000Z</time>
      </trkpt>
      <trkpt lat="43.3774507977068424224853515625" lon="-4.04728601686656475067138671875">
        <ele>1.2000000476837158203125</ele>
        <time>2018-09-05T13:51:11.000Z</time>
      </trkpt>
      <trkpt lat="43.377739973366260528564453125" lon="-4.0478274039924144744873046875">
        <ele>2</ele>
        <time>2018-09-05T13:51:19.000Z</time>
      </trkpt>
      <trkpt lat="43.37777115404605865478515625" lon="-4.047886244952678680419921875">
        <ele>2.2000000476837158203125</ele>
        <time>2018-09-05T13:51:20.000Z</time>
      </trkpt>
      <trkpt lat="43.3779594115912914276123046875" lon="-4.04818975366652011871337890625">
        <ele>3.2000000476837158203125</ele>
        <time>2018-09-05T13:51:26.000Z</time>
      </trkpt>
      <trkpt lat="43.3780003152787685394287109375" lon="-4.048225544393062591552734375">
        <ele>3.2000000476837158203125</ele>
        <time>2018-09-05T13:51:27.000Z</time>
      </trkpt>
      <trkpt lat="43.378041051328182220458984375" lon="-4.04826167039573192596435546875">
        <ele>3.400000095367431640625</ele>
        <time>2018-09-05T13:51:28.000Z</time>
      </trkpt>
      <trkpt lat="43.37825772352516651153564453125" lon="-4.04842863790690898895263671875">
        <ele>4.19999980926513671875</ele>
        <time>2018-09-05T13:51:33.000Z</time>
      </trkpt>
      <trkpt lat="43.378304578363895416259765625" lon="-4.04844724573194980621337890625">
        <ele>4.19999980926513671875</ele>
        <time>2018-09-05T13:51:34.000Z</time>
      </trkpt>
      <trkpt lat="43.37835193611681461334228515625" lon="-4.04845579527318477630615234375">
        <ele>4.599999904632568359375</ele>
        <time>2018-09-05T13:51:35.000Z</time>
      </trkpt>
      <trkpt lat="43.37844170629978179931640625" lon="-4.0484490059316158294677734375">
        <ele>4.80000019073486328125</ele>
        <time>2018-09-05T13:51:37.000Z</time>
      </trkpt>
      <trkpt lat="43.37848453782498836517333984375" lon="-4.04843836091458797454833984375">
        <ele>5.19999980926513671875</ele>
        <time>2018-09-05T13:51:38.000Z</time>
      </trkpt>
      <trkpt lat="43.37852493859827518463134765625" lon="-4.0484201721847057342529296875">
        <ele>5.400000095367431640625</ele>
        <time>2018-09-05T13:51:39.000Z</time>
      </trkpt>
      <trkpt lat="43.37856316007673740386962890625" lon="-4.0483997203409671783447265625">
        <ele>5.599999904632568359375</ele>
        <time>2018-09-05T13:51:40.000Z</time>
      </trkpt>
      <trkpt lat="43.37867145426571369171142578125" lon="-4.04833258129656314849853515625">
        <ele>6.19999980926513671875</ele>
        <time>2018-09-05T13:51:43.000Z</time>
      </trkpt>
      <trkpt lat="43.3787402696907520294189453125" lon="-4.04829586856067180633544921875">
        <ele>6.80000019073486328125</ele>
        <time>2018-09-05T13:51:45.000Z</time>
      </trkpt>
      <trkpt lat="43.37889860384166240692138671875" lon="-4.0482030808925628662109375">
        <ele>7.80000019073486328125</ele>
        <time>2018-09-05T13:51:50.000Z</time>
      </trkpt>
      <trkpt lat="43.37892861105501651763916015625" lon="-4.0481884963810443878173828125">
        <ele>8.19999980926513671875</ele>
        <time>2018-09-05T13:51:51.000Z</time>
      </trkpt>
      <trkpt lat="43.3790135197341442108154296875" lon="-4.04813577421009540557861328125">
        <ele>9</ele>
        <time>2018-09-05T13:51:54.000Z</time>
      </trkpt>
      <trkpt lat="43.37912960909307003021240234375" lon="-4.04808028601109981536865234375">
        <ele>9.6000003814697265625</ele>
        <time>2018-09-05T13:51:58.000Z</time>
      </trkpt>
      <trkpt lat="43.3791593648493289947509765625" lon="-4.048067629337310791015625">
        <ele>10.19999980926513671875</ele>
        <time>2018-09-05T13:51:59.000Z</time>
      </trkpt>
      <trkpt lat="43.37933219969272613525390625" lon="-4.04802664183080196380615234375">
        <ele>11.3999996185302734375</ele>
        <time>2018-09-05T13:52:05.000Z</time>
      </trkpt>
      <trkpt lat="43.3793945610523223876953125" lon="-4.0480232052505016326904296875">
        <ele>11.80000019073486328125</ele>
        <time>2018-09-05T13:52:07.000Z</time>
      </trkpt>
      <trkpt lat="43.37945331819355487823486328125" lon="-4.04802580364048480987548828125">
        <ele>12.6000003814697265625</ele>
        <time>2018-09-05T13:52:09.000Z</time>
      </trkpt>
      <trkpt lat="43.37960167787969112396240234375" lon="-4.04805488884449005126953125">
        <ele>13.3999996185302734375</ele>
        <time>2018-09-05T13:52:14.000Z</time>
      </trkpt>
      <trkpt lat="43.3796332776546478271484375" lon="-4.048063270747661590576171875">
        <ele>13.6000003814697265625</ele>
        <time>2018-09-05T13:52:15.000Z</time>
      </trkpt>
      <trkpt lat="43.3797886781394481658935546875" lon="-4.048118926584720611572265625">
        <ele>14.80000019073486328125</ele>
        <time>2018-09-05T13:52:20.000Z</time>
      </trkpt>
      <trkpt lat="43.37985062040388584136962890625" lon="-4.0481576509773731231689453125">
        <ele>15</ele>
        <time>2018-09-05T13:52:22.000Z</time>
      </trkpt>
      <trkpt lat="43.38009855709969997406005859375" lon="-4.0483189187943935394287109375">
        <ele>15.80000019073486328125</ele>
        <time>2018-09-05T13:52:29.000Z</time>
      </trkpt>
      <trkpt lat="43.380136191844940185546875" lon="-4.04834213666617870330810546875">
        <ele>15.80000019073486328125</ele>
        <time>2018-09-05T13:52:30.000Z</time>
      </trkpt>
      <trkpt lat="43.38042763061821460723876953125" lon="-4.04850692488253116607666015625">
        <ele>15.3999996185302734375</ele>
        <time>2018-09-05T13:52:37.000Z</time>
      </trkpt>
      <trkpt lat="43.380517065525054931640625" lon="-4.048564843833446502685546875">
        <ele>15.6000003814697265625</ele>
        <time>2018-09-05T13:52:39.000Z</time>
      </trkpt>
      <trkpt lat="43.38067037053406238555908203125" lon="-4.048662073910236358642578125">
        <ele>14.80000019073486328125</ele>
        <time>2018-09-05T13:52:42.000Z</time>
      </trkpt>
      <trkpt lat="43.38072937913239002227783203125" lon="-4.0486927516758441925048828125">
        <ele>14.6000003814697265625</ele>
        <time>2018-09-05T13:52:43.000Z</time>
      </trkpt>
      <trkpt lat="43.380790986120700836181640625" lon="-4.04872552491724491119384765625">
        <ele>14.3999996185302734375</ele>
        <time>2018-09-05T13:52:44.000Z</time>
      </trkpt>
      <trkpt lat="43.380982093513011932373046875" lon="-4.0488360822200775146484375">
        <ele>13.3999996185302734375</ele>
        <time>2018-09-05T13:52:47.000Z</time>
      </trkpt>
      <trkpt lat="43.38116574101150035858154296875" lon="-4.048947393894195556640625">
        <ele>12.3999996185302734375</ele>
        <time>2018-09-05T13:52:50.000Z</time>
      </trkpt>
      <trkpt lat="43.3812152780592441558837890625" lon="-4.04898636974394321441650390625">
        <ele>12.19999980926513671875</ele>
        <time>2018-09-05T13:52:51.000Z</time>
      </trkpt>
      <trkpt lat="43.3812504820525646209716796875" lon="-4.04904252849519252777099609375">
        <ele>12.3999996185302734375</ele>
        <time>2018-09-05T13:52:52.000Z</time>
      </trkpt>
      <trkpt lat="43.38126565329730510711669921875" lon="-4.04918636195361614227294921875">
        <ele>12.6000003814697265625</ele>
        <time>2018-09-05T13:52:54.000Z</time>
      </trkpt>
      <trkpt lat="43.38120144791901111602783203125" lon="-4.049356095492839813232421875">
        <ele>13.19999980926513671875</ele>
        <time>2018-09-05T13:52:57.000Z</time>
      </trkpt>
      <trkpt lat="43.3811790682375431060791015625" lon="-4.04940060339868068695068359375">
        <ele>13.80000019073486328125</ele>
        <time>2018-09-05T13:52:58.000Z</time>
      </trkpt>
      <trkpt lat="43.38114411570131778717041015625" lon="-4.04948660172522068023681640625">
        <ele>14.3999996185302734375</ele>
        <time>2018-09-05T13:53:00.000Z</time>
      </trkpt>
      <trkpt lat="43.3811271004378795623779296875" lon="-4.04952566139400005340576171875">
        <ele>14.80000019073486328125</ele>
        <time>2018-09-05T13:53:01.000Z</time>
      </trkpt>
      <trkpt lat="43.3810972608625888824462890625" lon="-4.04959958977997303009033203125">
        <ele>15.3999996185302734375</ele>
        <time>2018-09-05T13:53:03.000Z</time>
      </trkpt>
      <trkpt lat="43.38106482289731502532958984375" lon="-4.04966899193823337554931640625">
        <ele>16</ele>
        <time>2018-09-05T13:53:05.000Z</time>
      </trkpt>
      <trkpt lat="43.38101486675441265106201171875" lon="-4.0497726760804653167724609375">
        <ele>16.799999237060546875</ele>
        <time>2018-09-05T13:53:08.000Z</time>
      </trkpt>
      <trkpt lat="43.38099994696676731109619140625" lon="-4.04980838298797607421875">
        <ele>17</ele>
        <time>2018-09-05T13:53:09.000Z</time>
      </trkpt>
      <trkpt lat="43.38095217011868953704833984375" lon="-4.04990167357027530670166015625">
        <ele>18</ele>
        <time>2018-09-05T13:53:12.000Z</time>
      </trkpt>
      <trkpt lat="43.38089567609131336212158203125" lon="-4.05002589337527751922607421875">
        <ele>19.200000762939453125</ele>
        <time>2018-09-05T13:53:16.000Z</time>
      </trkpt>
      <trkpt lat="43.38083901442587375640869140625" lon="-4.05015799216926097869873046875">
        <ele>20.200000762939453125</ele>
        <time>2018-09-05T13:53:20.000Z</time>
      </trkpt>
      <trkpt lat="43.3808246813714504241943359375" lon="-4.05018917284905910491943359375">
        <ele>20.3999996185302734375</ele>
        <time>2018-09-05T13:53:21.000Z</time>
      </trkpt>
      <trkpt lat="43.3807623200118541717529296875" lon="-4.05033208429813385009765625">
        <ele>21.3999996185302734375</ele>
        <time>2018-09-05T13:53:26.000Z</time>
      </trkpt>
      <trkpt lat="43.38075377047061920166015625" lon="-4.0503959544003009796142578125">
        <ele>21.799999237060546875</ele>
        <time>2018-09-05T13:53:28.000Z</time>
      </trkpt>
      <trkpt lat="43.3807596378028392791748046875" lon="-4.0505213476717472076416015625">
        <ele>22.6000003814697265625</ele>
        <time>2018-09-05T13:53:32.000Z</time>
      </trkpt>
      <trkpt lat="43.380795679986476898193359375" lon="-4.0505961142480373382568359375">
        <ele>23</ele>
        <time>2018-09-05T13:53:35.000Z</time>
      </trkpt>
      <trkpt lat="43.3808478154242038726806640625" lon="-4.0506601519882678985595703125">
        <ele>23.6000003814697265625</ele>
        <time>2018-09-05T13:53:38.000Z</time>
      </trkpt>
      <trkpt lat="43.38097195141017436981201171875" lon="-4.05082468874752521514892578125">
        <ele>24.6000003814697265625</ele>
        <time>2018-09-05T13:53:45.000Z</time>
      </trkpt>
      <trkpt lat="43.38110773824155330657958984375" lon="-4.05098578892648220062255859375">
        <ele>25.799999237060546875</ele>
        <time>2018-09-05T13:53:52.000Z</time>
      </trkpt>
      <trkpt lat="43.381128273904323577880859375" lon="-4.05101026408374309539794921875">
        <ele>25.799999237060546875</ele>
        <time>2018-09-05T13:53:53.000Z</time>
      </trkpt>
      <trkpt lat="43.38123514316976070404052734375" lon="-4.0511905588209629058837890625">
        <ele>26.799999237060546875</ele>
        <time>2018-09-05T13:53:59.000Z</time>
      </trkpt>
      <trkpt lat="43.381273783743381500244140625" lon="-4.05125400982797145843505859375">
        <ele>27.3999996185302734375</ele>
        <time>2018-09-05T13:54:01.000Z</time>
      </trkpt>
      <trkpt lat="43.38142675347626209259033203125" lon="-4.0514537505805492401123046875">
        <ele>28</ele>
        <time>2018-09-05T13:54:08.000Z</time>
      </trkpt>
      <trkpt lat="43.38145055808126926422119140625" lon="-4.05148149468004703521728515625">
        <ele>28</ele>
        <time>2018-09-05T13:54:09.000Z</time>
      </trkpt>
      <trkpt lat="43.3815951459109783172607421875" lon="-4.0516006015241146087646484375">
        <ele>28.6000003814697265625</ele>
        <time>2018-09-05T13:54:14.000Z</time>
      </trkpt>
      <trkpt lat="43.38169799186289310455322265625" lon="-4.05169925652444362640380859375">
        <ele>29</ele>
        <time>2018-09-05T13:54:18.000Z</time>
      </trkpt>
      <trkpt lat="43.381836377084255218505859375" lon="-4.05181593261659145355224609375">
        <ele>29.799999237060546875</ele>
        <time>2018-09-05T13:54:23.000Z</time>
      </trkpt>
      <trkpt lat="43.3818662166595458984375" lon="-4.05183655209839344024658203125">
        <ele>30.200000762939453125</ele>
        <time>2018-09-05T13:54:24.000Z</time>
      </trkpt>
      <trkpt lat="43.38195380754768848419189453125" lon="-4.05189237557351589202880859375">
        <ele>30.6000003814697265625</ele>
        <time>2018-09-05T13:54:27.000Z</time>
      </trkpt>
      <trkpt lat="43.3821027539670467376708984375" lon="-4.052026905119419097900390625">
        <ele>31.200000762939453125</ele>
        <time>2018-09-05T13:54:33.000Z</time>
      </trkpt>
      <trkpt lat="43.3821265585720539093017578125" lon="-4.052053056657314300537109375">
        <ele>31.6000003814697265625</ele>
        <time>2018-09-05T13:54:34.000Z</time>
      </trkpt>
      <trkpt lat="43.38221297599375247955322265625" lon="-4.05216227285563945770263671875">
        <ele>32.40000152587890625</ele>
        <time>2018-09-05T13:54:38.000Z</time>
      </trkpt>
      <trkpt lat="43.3822881616652011871337890625" lon="-4.052284061908721923828125">
        <ele>33.40000152587890625</ele>
        <time>2018-09-05T13:54:42.000Z</time>
      </trkpt>
      <trkpt lat="43.3823049254715442657470703125" lon="-4.05231784097850322723388671875">
        <ele>33.59999847412109375</ele>
        <time>2018-09-05T13:54:43.000Z</time>
      </trkpt>
      <trkpt lat="43.38235178031027317047119140625" lon="-4.05245664529502391815185546875">
        <ele>34.40000152587890625</ele>
        <time>2018-09-05T13:54:47.000Z</time>
      </trkpt>
      <trkpt lat="43.38236804120242595672607421875" lon="-4.0525202639400959014892578125">
        <ele>34.59999847412109375</ele>
        <time>2018-09-05T13:54:49.000Z</time>
      </trkpt>
      <trkpt lat="43.38237625546753406524658203125" lon="-4.05255303718149662017822265625">
        <ele>34.799999237060546875</ele>
        <time>2018-09-05T13:54:50.000Z</time>
      </trkpt>
      <trkpt lat="43.382420428097248077392578125" lon="-4.05273224227130413055419921875">
        <ele>35.799999237060546875</ele>
        <time>2018-09-05T13:54:55.000Z</time>
      </trkpt>
      <trkpt lat="43.382429815828800201416015625" lon="-4.05277230776846408843994140625">
        <ele>36</ele>
        <time>2018-09-05T13:54:56.000Z</time>
      </trkpt>
      <trkpt lat="43.382494859397411346435546875" lon="-4.05299878679215908050537109375">
        <ele>37</ele>
        <time>2018-09-05T13:55:02.000Z</time>
      </trkpt>
      <trkpt lat="43.38254104368388652801513671875" lon="-4.053136669099330902099609375">
        <ele>38</ele>
        <time>2018-09-05T13:55:06.000Z</time>
      </trkpt>
      <trkpt lat="43.3826123736798763275146484375" lon="-4.05329450033605098724365234375">
        <ele>39.200000762939453125</ele>
        <time>2018-09-05T13:55:11.000Z</time>
      </trkpt>
      <trkpt lat="43.3826935105025768280029296875" lon="-4.0534000284969806671142578125">
        <ele>40</ele>
        <time>2018-09-05T13:55:15.000Z</time>
      </trkpt>
      <trkpt lat="43.3827136270701885223388671875" lon="-4.05342198908329010009765625">
        <ele>40.200000762939453125</ele>
        <time>2018-09-05T13:55:16.000Z</time>
      </trkpt>
      <trkpt lat="43.3828363381326198577880859375" lon="-4.05354193411767482757568359375">
        <ele>41.40000152587890625</ele>
        <time>2018-09-05T13:55:22.000Z</time>
      </trkpt>
      <trkpt lat="43.38289283215999603271484375" lon="-4.0536095760762691497802734375">
        <ele>42</ele>
        <time>2018-09-05T13:55:25.000Z</time>
      </trkpt>
      <trkpt lat="43.3829811774194240570068359375" lon="-4.053719379007816314697265625">
        <ele>42.40000152587890625</ele>
        <time>2018-09-05T13:55:29.000Z</time>
      </trkpt>
      <trkpt lat="43.38301026262342929840087890625" lon="-4.053793810307979583740234375">
        <ele>43</ele>
        <time>2018-09-05T13:55:31.000Z</time>
      </trkpt>
      <trkpt lat="43.38301847688853740692138671875" lon="-4.053872264921665191650390625">
        <ele>43.59999847412109375</ele>
        <time>2018-09-05T13:55:33.000Z</time>
      </trkpt>
      <trkpt lat="43.3830177225172519683837890625" lon="-4.054001010954380035400390625">
        <ele>44.59999847412109375</ele>
        <time>2018-09-05T13:55:36.000Z</time>
      </trkpt>
      <trkpt lat="43.38298000395298004150390625" lon="-4.0541624464094638824462890625">
        <ele>45.40000152587890625</ele>
        <time>2018-09-05T13:55:41.000Z</time>
      </trkpt>
      <trkpt lat="43.382968939840793609619140625" lon="-4.054200835525989532470703125">
        <ele>45.59999847412109375</ele>
        <time>2018-09-05T13:55:42.000Z</time>
      </trkpt>
      <trkpt lat="43.3829580433666706085205078125" lon="-4.05424132011830806732177734375">
        <ele>45.799999237060546875</ele>
        <time>2018-09-05T13:55:43.000Z</time>
      </trkpt>
      <trkpt lat="43.38294371031224727630615234375" lon="-4.0544551424682140350341796875">
        <ele>46.799999237060546875</ele>
        <time>2018-09-05T13:55:48.000Z</time>
      </trkpt>
      <trkpt lat="43.38294538669288158416748046875" lon="-4.05450199730694293975830078125">
        <ele>47</ele>
        <time>2018-09-05T13:55:49.000Z</time>
      </trkpt>
      <trkpt lat="43.38296650908887386322021484375" lon="-4.054739959537982940673828125">
        <ele>47</ele>
        <time>2018-09-05T13:55:54.000Z</time>
      </trkpt>
      <trkpt lat="43.38298000395298004150390625" lon="-4.05487599782645702362060546875">
        <ele>47.40000152587890625</ele>
        <time>2018-09-05T13:55:57.000Z</time>
      </trkpt>
      <trkpt lat="43.38300146162509918212890625" lon="-4.05518176965415477752685546875">
        <ele>47.200000762939453125</ele>
        <time>2018-09-05T13:56:04.000Z</time>
      </trkpt>
      <trkpt lat="43.38304965756833553314208984375" lon="-4.055543281137943267822265625">
        <ele>46</ele>
        <time>2018-09-05T13:56:10.000Z</time>
      </trkpt>
      <trkpt lat="43.38306608609855175018310546875" lon="-4.05561645515263080596923828125">
        <ele>45.59999847412109375</ele>
        <time>2018-09-05T13:56:11.000Z</time>
      </trkpt>
      <trkpt lat="43.38308519683778285980224609375" lon="-4.0556943230330944061279296875">
        <ele>45.200000762939453125</ele>
        <time>2018-09-05T13:56:12.000Z</time>
      </trkpt>
      <trkpt lat="43.3831094205379486083984375" lon="-4.05577571131289005279541015625">
        <ele>44.799999237060546875</ele>
        <time>2018-09-05T13:56:13.000Z</time>
      </trkpt>
      <trkpt lat="43.38313934393227100372314453125" lon="-4.0558589436113834381103515625">
        <ele>44.40000152587890625</ele>
        <time>2018-09-05T13:56:14.000Z</time>
      </trkpt>
      <trkpt lat="43.383172452449798583984375" lon="-4.05594083480536937713623046875">
        <ele>44</ele>
        <time>2018-09-05T13:56:15.000Z</time>
      </trkpt>
      <trkpt lat="43.383247554302215576171875" lon="-4.05610327608883380889892578125">
        <ele>43.200000762939453125</ele>
        <time>2018-09-05T13:56:17.000Z</time>
      </trkpt>
      <trkpt lat="43.383289463818073272705078125" lon="-4.05618173070251941680908203125">
        <ele>43</ele>
        <time>2018-09-05T13:56:18.000Z</time>
      </trkpt>
      <trkpt lat="43.38333263061940670013427734375" lon="-4.0562606044113636016845703125">
        <ele>42.799999237060546875</ele>
        <time>2018-09-05T13:56:19.000Z</time>
      </trkpt>
      <trkpt lat="43.38337219320237636566162109375" lon="-4.05634291470050811767578125">
        <ele>42.40000152587890625</ele>
        <time>2018-09-05T13:56:20.000Z</time>
      </trkpt>
      <trkpt lat="43.38341058231890201568603515625" lon="-4.05642807483673095703125">
        <ele>42.200000762939453125</ele>
        <time>2018-09-05T13:56:21.000Z</time>
      </trkpt>
      <trkpt lat="43.38358995504677295684814453125" lon="-4.05691690742969512939453125">
        <ele>40.799999237060546875</ele>
        <time>2018-09-05T13:56:26.000Z</time>
      </trkpt>
      <trkpt lat="43.38362331502139568328857421875" lon="-4.0570250339806079864501953125">
        <ele>40.200000762939453125</ele>
        <time>2018-09-05T13:56:27.000Z</time>
      </trkpt>
      <trkpt lat="43.38365860283374786376953125" lon="-4.05713425017893314361572265625">
        <ele>39.59999847412109375</ele>
        <time>2018-09-05T13:56:28.000Z</time>
      </trkpt>
      <trkpt lat="43.383769579231739044189453125" lon="-4.05747287906706333160400390625">
        <ele>38.40000152587890625</ele>
        <time>2018-09-05T13:56:31.000Z</time>
      </trkpt>
      <trkpt lat="43.3838428370654582977294921875" lon="-4.0577088296413421630859375">
        <ele>37.200000762939453125</ele>
        <time>2018-09-05T13:56:33.000Z</time>
      </trkpt>
      <trkpt lat="43.383878879249095916748046875" lon="-4.05782793648540973663330078125">
        <ele>36.799999237060546875</ele>
        <time>2018-09-05T13:56:34.000Z</time>
      </trkpt>
      <trkpt lat="43.3839140832424163818359375" lon="-4.057949222624301910400390625">
        <ele>36.200000762939453125</ele>
        <time>2018-09-05T13:56:35.000Z</time>
      </trkpt>
      <trkpt lat="43.38403302244842052459716796875" lon="-4.058305285871028900146484375">
        <ele>35.200000762939453125</ele>
        <time>2018-09-05T13:56:38.000Z</time>
      </trkpt>
      <trkpt lat="43.38417501188814640045166015625" lon="-4.05865003354847431182861328125">
        <ele>33.799999237060546875</ele>
        <time>2018-09-05T13:56:41.000Z</time>
      </trkpt>
      <trkpt lat="43.3843628503382205963134765625" lon="-4.05895940959453582763671875">
        <ele>32.200000762939453125</ele>
        <time>2018-09-05T13:56:44.000Z</time>
      </trkpt>
      <trkpt lat="43.38444004766643047332763671875" lon="-4.05904389917850494384765625">
        <ele>31.6000003814697265625</ele>
        <time>2018-09-05T13:56:45.000Z</time>
      </trkpt>
      <trkpt lat="43.38452068157494068145751953125" lon="-4.05912361107766628265380859375">
        <ele>30.799999237060546875</ele>
        <time>2018-09-05T13:56:46.000Z</time>
      </trkpt>
      <trkpt lat="43.38469619862735271453857421875" lon="-4.059255458414554595947265625">
        <ele>29</ele>
        <time>2018-09-05T13:56:48.000Z</time>
      </trkpt>
      <trkpt lat="43.3847863040864467620849609375" lon="-4.05931974761188030242919921875">
        <ele>28.3999996185302734375</ele>
        <time>2018-09-05T13:56:49.000Z</time>
      </trkpt>
      <trkpt lat="43.3848741464316844940185546875" lon="-4.0593944303691387176513671875">
        <ele>27.799999237060546875</ele>
        <time>2018-09-05T13:56:50.000Z</time>
      </trkpt>
      <trkpt lat="43.38513758964836597442626953125" lon="-4.059586040675640106201171875">
        <ele>27.200000762939453125</ele>
        <time>2018-09-05T13:56:53.000Z</time>
      </trkpt>
      <trkpt lat="43.3853029645979404449462890625" lon="-4.059678576886653900146484375">
        <ele>26.6000003814697265625</ele>
        <time>2018-09-05T13:56:55.000Z</time>
      </trkpt>
      <trkpt lat="43.38545434176921844482421875" lon="-4.05973582528531551361083984375">
        <ele>26.6000003814697265625</ele>
        <time>2018-09-05T13:56:57.000Z</time>
      </trkpt>
      <trkpt lat="43.38577176444232463836669921875" lon="-4.05981838703155517578125">
        <ele>27.799999237060546875</ele>
        <time>2018-09-05T13:57:02.000Z</time>
      </trkpt>
      <trkpt lat="43.38591442443430423736572265625" lon="-4.0598604641854763031005859375">
        <ele>28.799999237060546875</ele>
        <time>2018-09-05T13:57:05.000Z</time>
      </trkpt>
      <trkpt lat="43.38595415465533733367919921875" lon="-4.05987077392637729644775390625">
        <ele>29.200000762939453125</ele>
        <time>2018-09-05T13:57:06.000Z</time>
      </trkpt>
      <trkpt lat="43.3859892748296260833740234375" lon="-4.059878401458263397216796875">
        <ele>29.3999996185302734375</ele>
        <time>2018-09-05T13:57:07.000Z</time>
      </trkpt>
      <trkpt lat="43.38602171279489994049072265625" lon="-4.0598859451711177825927734375">
        <ele>30</ele>
        <time>2018-09-05T13:57:08.000Z</time>
      </trkpt>
      <trkpt lat="43.38611223734915256500244140625" lon="-4.05989642255008220672607421875">
        <ele>31</ele>
        <time>2018-09-05T13:57:11.000Z</time>
      </trkpt>
      <trkpt lat="43.38617183268070220947265625" lon="-4.05990866012871265411376953125">
        <ele>31.799999237060546875</ele>
        <time>2018-09-05T13:57:13.000Z</time>
      </trkpt>
      <trkpt lat="43.38619739748537540435791015625" lon="-4.05991100706160068511962890625">
        <ele>32.200000762939453125</ele>
        <time>2018-09-05T13:57:14.000Z</time>
      </trkpt>
      <trkpt lat="43.386247940361499786376953125" lon="-4.059913940727710723876953125">
        <ele>32.799999237060546875</ele>
        <time>2018-09-05T13:57:16.000Z</time>
      </trkpt>
      <trkpt lat="43.3862977288663387298583984375" lon="-4.05992073006927967071533203125">
        <ele>33</ele>
        <time>2018-09-05T13:57:18.000Z</time>
      </trkpt>
      <trkpt lat="43.38632337749004364013671875" lon="-4.05992357991635799407958984375">
        <ele>33.200000762939453125</ele>
        <time>2018-09-05T13:57:19.000Z</time>
      </trkpt>
      <trkpt lat="43.38637165725231170654296875" lon="-4.059926010668277740478515625">
        <ele>33.59999847412109375</ele>
        <time>2018-09-05T13:57:21.000Z</time>
      </trkpt>
      <trkpt lat="43.3863966353237628936767578125" lon="-4.05992860905826091766357421875">
        <ele>34</ele>
        <time>2018-09-05T13:57:22.000Z</time>
      </trkpt>
      <trkpt lat="43.386439718306064605712890625" lon="-4.0599432773888111114501953125">
        <ele>34.200000762939453125</ele>
        <time>2018-09-05T13:57:24.000Z</time>
      </trkpt>
      <trkpt lat="43.38646729476749897003173828125" lon="-4.05997588299214839935302734375">
        <ele>34.40000152587890625</ele>
        <time>2018-09-05T13:57:26.000Z</time>
      </trkpt>
      <trkpt lat="43.38654935359954833984375" lon="-4.0599975921213626861572265625">
        <ele>35.200000762939453125</ele>
        <time>2018-09-05T13:57:30.000Z</time>
      </trkpt>
      <trkpt lat="43.38659151457250118255615234375" lon="-4.0599875338375568389892578125">
        <ele>35.59999847412109375</ele>
        <time>2018-09-05T13:57:32.000Z</time>
      </trkpt>
      <trkpt lat="43.386671058833599090576171875" lon="-4.05996046029031276702880859375">
        <ele>36.40000152587890625</ele>
        <time>2018-09-05T13:57:36.000Z</time>
      </trkpt>
      <trkpt lat="43.38673107326030731201171875" lon="-4.05993112362921237945556640625">
        <ele>37</ele>
        <time>2018-09-05T13:57:39.000Z</time>
      </trkpt>
      <trkpt lat="43.38681556284427642822265625" lon="-4.0598785690963268280029296875">
        <ele>37.59999847412109375</ele>
        <time>2018-09-05T13:57:43.000Z</time>
      </trkpt>
      <trkpt lat="43.38690516538918018341064453125" lon="-4.059832133352756500244140625">
        <ele>38.200000762939453125</ele>
        <time>2018-09-05T13:57:47.000Z</time>
      </trkpt>
      <trkpt lat="43.38699552230536937713623046875" lon="-4.05979030765593051910400390625">
        <ele>38.59999847412109375</ele>
        <time>2018-09-05T13:57:51.000Z</time>
      </trkpt>
      <trkpt lat="43.38706090115010738372802734375" lon="-4.05977505259215831756591796875">
        <ele>39.200000762939453125</ele>
        <time>2018-09-05T13:57:54.000Z</time>
      </trkpt>
      <trkpt lat="43.3871278725564479827880859375" lon="-4.05978343449532985687255859375">
        <ele>39.799999237060546875</ele>
        <time>2018-09-05T13:57:57.000Z</time>
      </trkpt>
      <trkpt lat="43.38721227832138538360595703125" lon="-4.05981461517512798309326171875">
        <ele>40.799999237060546875</ele>
        <time>2018-09-05T13:58:01.000Z</time>
      </trkpt>
      <trkpt lat="43.38729978539049625396728515625" lon="-4.0598966740071773529052734375">
        <ele>42</ele>
        <time>2018-09-05T13:58:06.000Z</time>
      </trkpt>
      <trkpt lat="43.38733079843223094940185546875" lon="-4.0599372424185276031494140625">
        <ele>42</ele>
        <time>2018-09-05T13:58:08.000Z</time>
      </trkpt>
      <trkpt lat="43.3874009549617767333984375" lon="-4.0600415132939815521240234375">
        <ele>43</ele>
        <time>2018-09-05T13:58:13.000Z</time>
      </trkpt>
      <trkpt lat="43.38742417283356189727783203125" lon="-4.06008191406726837158203125">
        <ele>43.40000152587890625</ele>
        <time>2018-09-05T13:58:15.000Z</time>
      </trkpt>
      <trkpt lat="43.38746356777846813201904296875" lon="-4.0601474605500698089599609375">
        <ele>44.200000762939453125</ele>
        <time>2018-09-05T13:58:18.000Z</time>
      </trkpt>
      <trkpt lat="43.3875291980803012847900390625" lon="-4.06025089323520660400390625">
        <ele>45.200000762939453125</ele>
        <time>2018-09-05T13:58:23.000Z</time>
      </trkpt>
      <trkpt lat="43.3875416032969951629638671875" lon="-4.06027025543153285980224609375">
        <ele>45.200000762939453125</ele>
        <time>2018-09-05T13:58:24.000Z</time>
      </trkpt>
      <trkpt lat="43.3876213990151882171630859375" lon="-4.06048164702951908111572265625">
        <ele>46</ele>
        <time>2018-09-05T13:58:31.000Z</time>
      </trkpt>
      <trkpt lat="43.38764302432537078857421875" lon="-4.06054870225489139556884765625">
        <ele>46.40000152587890625</ele>
        <time>2018-09-05T13:58:33.000Z</time>
      </trkpt>
      <trkpt lat="43.387688286602497100830078125" lon="-4.0607653744518756866455078125">
        <ele>47</ele>
        <time>2018-09-05T13:58:39.000Z</time>
      </trkpt>
      <trkpt lat="43.3876934833824634552001953125" lon="-4.0608394704759120941162109375">
        <ele>47.40000152587890625</ele>
        <time>2018-09-05T13:58:41.000Z</time>
      </trkpt>
      <trkpt lat="43.38772826828062534332275390625" lon="-4.06108095310628414154052734375">
        <ele>48</ele>
        <time>2018-09-05T13:58:47.000Z</time>
      </trkpt>
      <trkpt lat="43.3877737820148468017578125" lon="-4.0612605772912502288818359375">
        <ele>48.40000152587890625</ele>
        <time>2018-09-05T13:58:51.000Z</time>
      </trkpt>
      <trkpt lat="43.3878242410719394683837890625" lon="-4.0613923408091068267822265625">
        <ele>48.59999847412109375</ele>
        <time>2018-09-05T13:58:54.000Z</time>
      </trkpt>
      <trkpt lat="43.3879305236041545867919921875" lon="-4.06162611208856105804443359375">
        <ele>48.59999847412109375</ele>
        <time>2018-09-05T13:58:59.000Z</time>
      </trkpt>
      <trkpt lat="43.387978635728359222412109375" lon="-4.06171982176601886749267578125">
        <ele>48.799999237060546875</ele>
        <time>2018-09-05T13:59:01.000Z</time>
      </trkpt>
      <trkpt lat="43.38812020607292652130126953125" lon="-4.06198603101074695587158203125">
        <ele>49.59999847412109375</ele>
        <time>2018-09-05T13:59:07.000Z</time>
      </trkpt>
      <trkpt lat="43.388165719807147979736328125" lon="-4.062075130641460418701171875">
        <ele>49.799999237060546875</ele>
        <time>2018-09-05T13:59:09.000Z</time>
      </trkpt>
      <trkpt lat="43.3883264847099781036376953125" lon="-4.06237252056598663330078125">
        <ele>50.59999847412109375</ele>
        <time>2018-09-05T13:59:16.000Z</time>
      </trkpt>
      <trkpt lat="43.38835288770496845245361328125" lon="-4.0624129213392734527587890625">
        <ele>50.59999847412109375</ele>
        <time>2018-09-05T13:59:17.000Z</time>
      </trkpt>
      <trkpt lat="43.38837685994803905487060546875" lon="-4.06245357356965541839599609375">
        <ele>50.59999847412109375</ele>
        <time>2018-09-05T13:59:18.000Z</time>
      </trkpt>
      <trkpt lat="43.38844827376306056976318359375" lon="-4.06269044615328311920166015625">
        <ele>51</ele>
        <time>2018-09-05T13:59:23.000Z</time>
      </trkpt>
      <trkpt lat="43.3884837292134761810302734375" lon="-4.062902592122554779052734375">
        <ele>51.40000152587890625</ele>
        <time>2018-09-05T13:59:27.000Z</time>
      </trkpt>
      <trkpt lat="43.38850937783718109130859375" lon="-4.0630120597779750823974609375">
        <ele>51.200000762939453125</ele>
        <time>2018-09-05T13:59:29.000Z</time>
      </trkpt>
      <trkpt lat="43.3885316736996173858642578125" lon="-4.06312479637563228607177734375">
        <ele>51.40000152587890625</ele>
        <time>2018-09-05T13:59:31.000Z</time>
      </trkpt>
      <trkpt lat="43.38857232592999935150146484375" lon="-4.06329260207712650299072265625">
        <ele>51.40000152587890625</ele>
        <time>2018-09-05T13:59:34.000Z</time>
      </trkpt>
      <trkpt lat="43.3886255510151386260986328125" lon="-4.0633924305438995361328125">
        <ele>51.59999847412109375</ele>
        <time>2018-09-05T13:59:36.000Z</time>
      </trkpt>
      <trkpt lat="43.38866067118942737579345703125" lon="-4.06343392096459865570068359375">
        <ele>51.59999847412109375</ele>
        <time>2018-09-05T13:59:37.000Z</time>
      </trkpt>
      <trkpt lat="43.388697803020477294921875" lon="-4.063474237918853759765625">
        <ele>51.59999847412109375</ele>
        <time>2018-09-05T13:59:38.000Z</time>
      </trkpt>
      <trkpt lat="43.38877835310995578765869140625" lon="-4.063541628420352935791015625">
        <ele>52</ele>
        <time>2018-09-05T13:59:40.000Z</time>
      </trkpt>
      <trkpt lat="43.388818167150020599365234375" lon="-4.06356886960566043853759765625">
        <ele>52</ele>
        <time>2018-09-05T13:59:41.000Z</time>
      </trkpt>
      <trkpt lat="43.3889319933950901031494140625" lon="-4.06361681409180164337158203125">
        <ele>52.59999847412109375</ele>
        <time>2018-09-05T13:59:44.000Z</time>
      </trkpt>
      <trkpt lat="43.388966023921966552734375" lon="-4.06362150795757770538330078125">
        <ele>52.799999237060546875</ele>
        <time>2018-09-05T13:59:45.000Z</time>
      </trkpt>
      <trkpt lat="43.389003910124301910400390625" lon="-4.06362234614789485931396484375">
        <ele>53</ele>
        <time>2018-09-05T13:59:46.000Z</time>
      </trkpt>
      <trkpt lat="43.3890419639647006988525390625" lon="-4.063621424138545989990234375">
        <ele>53.200000762939453125</ele>
        <time>2018-09-05T13:59:47.000Z</time>
      </trkpt>
      <trkpt lat="43.38915252126753330230712890625" lon="-4.06360927037894725799560546875">
        <ele>54</ele>
        <time>2018-09-05T13:59:50.000Z</time>
      </trkpt>
      <trkpt lat="43.38930054567754268646240234375" lon="-4.06360097229480743408203125">
        <ele>55</ele>
        <time>2018-09-05T13:59:54.000Z</time>
      </trkpt>
      <trkpt lat="43.3893370069563388824462890625" lon="-4.063603989779949188232421875">
        <ele>55</ele>
        <time>2018-09-05T13:59:55.000Z</time>
      </trkpt>
      <trkpt lat="43.38959340937435626983642578125" lon="-4.06361832283437252044677734375">
        <ele>56.200000762939453125</ele>
        <time>2018-09-05T14:00:02.000Z</time>
      </trkpt>
      <trkpt lat="43.38966733776032924652099609375" lon="-4.06364112161099910736083984375">
        <ele>56.40000152587890625</ele>
        <time>2018-09-05T14:00:04.000Z</time>
      </trkpt>
      <trkpt lat="43.389925919473171234130859375" lon="-4.063780345022678375244140625">
        <ele>57.200000762939453125</ele>
        <time>2018-09-05T14:00:11.000Z</time>
      </trkpt>
      <trkpt lat="43.38996271602809429168701171875" lon="-4.06380507163703441619873046875">
        <ele>57.40000152587890625</ele>
        <time>2018-09-05T14:00:12.000Z</time>
      </trkpt>
      <trkpt lat="43.39024065993726253509521484375" lon="-4.06399852596223354339599609375">
        <ele>58</ele>
        <time>2018-09-05T14:00:20.000Z</time>
      </trkpt>
      <trkpt lat="43.39031182229518890380859375" lon="-4.06404429115355014801025390625">
        <ele>58.59999847412109375</ele>
        <time>2018-09-05T14:00:22.000Z</time>
      </trkpt>
      <trkpt lat="43.39056135155260562896728515625" lon="-4.06423137523233890533447265625">
        <ele>58.200000762939453125</ele>
        <time>2018-09-05T14:00:29.000Z</time>
      </trkpt>
      <trkpt lat="43.3906988985836505889892578125" lon="-4.06434654258191585540771484375">
        <ele>58.59999847412109375</ele>
        <time>2018-09-05T14:00:33.000Z</time>
      </trkpt>
      <trkpt lat="43.39073016308248043060302734375" lon="-4.06438375823199748992919921875">
        <ele>58.799999237060546875</ele>
        <time>2018-09-05T14:00:34.000Z</time>
      </trkpt>
      <trkpt lat="43.3907954581081867218017578125" lon="-4.0644574351608753204345703125">
        <ele>59</ele>
        <time>2018-09-05T14:00:36.000Z</time>
      </trkpt>
      <trkpt lat="43.390893526375293731689453125" lon="-4.064569585025310516357421875">
        <ele>58.799999237060546875</ele>
        <time>2018-09-05T14:00:39.000Z</time>
      </trkpt>
      <trkpt lat="43.39102000929415225982666015625" lon="-4.0647296793758869171142578125">
        <ele>59</ele>
        <time>2018-09-05T14:00:43.000Z</time>
      </trkpt>
      <trkpt lat="43.3910487592220306396484375" lon="-4.06477485783398151397705078125">
        <ele>59</ele>
        <time>2018-09-05T14:00:44.000Z</time>
      </trkpt>
      <trkpt lat="43.39124129153788089752197265625" lon="-4.06511851586401462554931640625">
        <ele>59.200000762939453125</ele>
        <time>2018-09-05T14:00:51.000Z</time>
      </trkpt>
      <trkpt lat="43.3913131244480609893798828125" lon="-4.06528263352811336517333984375">
        <ele>59.40000152587890625</ele>
        <time>2018-09-05T14:00:54.000Z</time>
      </trkpt>
      <trkpt lat="43.39138110168278217315673828125" lon="-4.06543350778520107269287109375">
        <ele>59.59999847412109375</ele>
        <time>2018-09-05T14:00:57.000Z</time>
      </trkpt>
      <trkpt lat="43.39144899509847164154052734375" lon="-4.0655889920890331268310546875">
        <ele>59.799999237060546875</ele>
        <time>2018-09-05T14:01:00.000Z</time>
      </trkpt>
      <trkpt lat="43.39156768284738063812255859375" lon="-4.06585377641022205352783203125">
        <ele>60.59999847412109375</ele>
        <time>2018-09-05T14:01:05.000Z</time>
      </trkpt>
      <trkpt lat="43.39165887795388698577880859375" lon="-4.0660721249878406524658203125">
        <ele>60.200000762939453125</ele>
        <time>2018-09-05T14:01:09.000Z</time>
      </trkpt>
      <trkpt lat="43.39175359345972537994384765625" lon="-4.066302962601184844970703125">
        <ele>61.799999237060546875</ele>
        <time>2018-09-05T14:01:13.000Z</time>
      </trkpt>
      <trkpt lat="43.3918304555118083953857421875" lon="-4.06646682880818843841552734375">
        <ele>60.40000152587890625</ele>
        <time>2018-09-05T14:01:16.000Z</time>
      </trkpt>
      <trkpt lat="43.39188091456890106201171875" lon="-4.0665696747601032257080078125">
        <ele>60.799999237060546875</ele>
        <time>2018-09-05T14:01:18.000Z</time>
      </trkpt>
      <trkpt lat="43.39194755069911479949951171875" lon="-4.06672398559749126434326171875">
        <ele>61.59999847412109375</ele>
        <time>2018-09-05T14:01:21.000Z</time>
      </trkpt>
      <trkpt lat="43.39207847602665424346923828125" lon="-4.06701718457043170928955078125">
        <ele>62.59999847412109375</ele>
        <time>2018-09-05T14:01:27.000Z</time>
      </trkpt>
      <trkpt lat="43.3920966647565364837646484375" lon="-4.06705875881016254425048828125">
        <ele>62.799999237060546875</ele>
        <time>2018-09-05T14:01:28.000Z</time>
      </trkpt>
      <trkpt lat="43.39220068417489528656005859375" lon="-4.06730485148727893829345703125">
        <ele>63.799999237060546875</ele>
        <time>2018-09-05T14:01:34.000Z</time>
      </trkpt>
      <trkpt lat="43.39223437942564487457275390625" lon="-4.06738615594804286956787109375">
        <ele>64.1999969482421875</ele>
        <time>2018-09-05T14:01:36.000Z</time>
      </trkpt>
      <trkpt lat="43.39226941578090190887451171875" lon="-4.067463018000125885009765625">
        <ele>64.8000030517578125</ele>
        <time>2018-09-05T14:01:38.000Z</time>
      </trkpt>
      <trkpt lat="43.3923316933214664459228515625" lon="-4.0676142275333404541015625">
        <ele>65.40000152587890625</ele>
        <time>2018-09-05T14:01:42.000Z</time>
      </trkpt>
      <trkpt lat="43.39236505329608917236328125" lon="-4.067679606378078460693359375">
        <ele>66</ele>
        <time>2018-09-05T14:01:44.000Z</time>
      </trkpt>
      <trkpt lat="43.3923933841288089752197265625" lon="-4.0677488408982753753662109375">
        <ele>66.1999969482421875</ele>
        <time>2018-09-05T14:01:46.000Z</time>
      </trkpt>
      <trkpt lat="43.3924443461000919342041015625" lon="-4.06788052059710025787353515625">
        <ele>67</ele>
        <time>2018-09-05T14:01:50.000Z</time>
      </trkpt>
      <trkpt lat="43.3924708329141139984130859375" lon="-4.067975990474224090576171875">
        <ele>68</ele>
        <time>2018-09-05T14:01:53.000Z</time>
      </trkpt>
      <trkpt lat="43.392478041350841522216796875" lon="-4.0680059976875782012939453125">
        <ele>68.1999969482421875</ele>
        <time>2018-09-05T14:01:54.000Z</time>
      </trkpt>
      <trkpt lat="43.392514921724796295166015625" lon="-4.06816081143915653228759765625">
        <ele>69.1999969482421875</ele>
        <time>2018-09-05T14:01:59.000Z</time>
      </trkpt>
      <trkpt lat="43.39253931306302547454833984375" lon="-4.0682606399059295654296875">
        <ele>70</ele>
        <time>2018-09-05T14:02:02.000Z</time>
      </trkpt>
      <trkpt lat="43.39255490340292453765869140625" lon="-4.0683245100080966949462890625">
        <ele>70.40000152587890625</ele>
        <time>2018-09-05T14:02:04.000Z</time>
      </trkpt>
      <trkpt lat="43.39261441491544246673583984375" lon="-4.06851603649556636810302734375">
        <ele>71.40000152587890625</ele>
        <time>2018-09-05T14:02:10.000Z</time>
      </trkpt>
      <trkpt lat="43.39262950234115123748779296875" lon="-4.068547300994396209716796875">
        <ele>71.59999847412109375</ele>
        <time>2018-09-05T14:02:11.000Z</time>
      </trkpt>
      <trkpt lat="43.3927457593381404876708984375" lon="-4.06875944696366786956787109375">
        <ele>72.59999847412109375</ele>
        <time>2018-09-05T14:02:18.000Z</time>
      </trkpt>
      <trkpt lat="43.392769396305084228515625" lon="-4.06878861598670482635498046875">
        <ele>72.8000030517578125</ele>
        <time>2018-09-05T14:02:19.000Z</time>
      </trkpt>
      <trkpt lat="43.39293125085532665252685546875" lon="-4.0690188668668270111083984375">
        <ele>72.40000152587890625</ele>
        <time>2018-09-05T14:02:25.000Z</time>
      </trkpt>
      <trkpt lat="43.3930496871471405029296875" lon="-4.06918960623443126678466796875">
        <ele>71.8000030517578125</ele>
        <time>2018-09-05T14:02:29.000Z</time>
      </trkpt>
      <trkpt lat="43.39314691722393035888671875" lon="-4.06932807527482509613037109375">
        <ele>71.59999847412109375</ele>
        <time>2018-09-05T14:02:32.000Z</time>
      </trkpt>
      <trkpt lat="43.3931811153888702392578125" lon="-4.06937534920871257781982421875">
        <ele>71.40000152587890625</ele>
        <time>2018-09-05T14:02:33.000Z</time>
      </trkpt>
      <trkpt lat="43.3932830393314361572265625" lon="-4.06951532699167728424072265625">
        <ele>71</ele>
        <time>2018-09-05T14:02:36.000Z</time>
      </trkpt>
      <trkpt lat="43.39338890276849269866943359375" lon="-4.06967106275260448455810546875">
        <ele>70.8000030517578125</ele>
        <time>2018-09-05T14:02:39.000Z</time>
      </trkpt>
      <trkpt lat="43.39342645369470119476318359375" lon="-4.0697222761809825897216796875">
        <ele>70.59999847412109375</ele>
        <time>2018-09-05T14:02:40.000Z</time>
      </trkpt>
      <trkpt lat="43.39346299879252910614013671875" lon="-4.06977583654224872589111328125">
        <ele>70.59999847412109375</ele>
        <time>2018-09-05T14:02:41.000Z</time>
      </trkpt>
      <trkpt lat="43.39350021444261074066162109375" lon="-4.06982847489416599273681640625">
        <ele>70.40000152587890625</ele>
        <time>2018-09-05T14:02:42.000Z</time>
      </trkpt>
      <trkpt lat="43.393576405942440032958984375" lon="-4.06994012184441089630126953125">
        <ele>70</ele>
        <time>2018-09-05T14:02:44.000Z</time>
      </trkpt>
      <trkpt lat="43.39373490773141384124755859375" lon="-4.07016190700232982635498046875">
        <ele>69.40000152587890625</ele>
        <time>2018-09-05T14:02:48.000Z</time>
      </trkpt>
      <trkpt lat="43.3937743864953517913818359375" lon="-4.0702151320874691009521484375">
        <ele>69.1999969482421875</ele>
        <time>2018-09-05T14:02:49.000Z</time>
      </trkpt>
      <trkpt lat="43.39398217387497425079345703125" lon="-4.07050237990915775299072265625">
        <ele>68.40000152587890625</ele>
        <time>2018-09-05T14:02:54.000Z</time>
      </trkpt>
      <trkpt lat="43.39406817220151424407958984375" lon="-4.07062106765806674957275390625">
        <ele>68.1999969482421875</ele>
        <time>2018-09-05T14:02:56.000Z</time>
      </trkpt>
      <trkpt lat="43.39411091990768909454345703125" lon="-4.070681668817996978759765625">
        <ele>67.8000030517578125</ele>
        <time>2018-09-05T14:02:57.000Z</time>
      </trkpt>
      <trkpt lat="43.39438266120851039886474609375" lon="-4.07104066573083400726318359375">
        <ele>66.59999847412109375</ele>
        <time>2018-09-05T14:03:03.000Z</time>
      </trkpt>
      <trkpt lat="43.39447419159114360809326171875" lon="-4.0711612813174724578857421875">
        <ele>66.1999969482421875</ele>
        <time>2018-09-05T14:03:05.000Z</time>
      </trkpt>
      <trkpt lat="43.39464719407260417938232421875" lon="-4.07140427269041538238525390625">
        <ele>65.40000152587890625</ele>
        <time>2018-09-05T14:03:09.000Z</time>
      </trkpt>
      <trkpt lat="43.3946806378662586212158203125" lon="-4.071471579372882843017578125">
        <ele>65.40000152587890625</ele>
        <time>2018-09-05T14:03:10.000Z</time>
      </trkpt>
      <trkpt lat="43.3947352878749370574951171875" lon="-4.07160912640392780303955078125">
        <ele>65.40000152587890625</ele>
        <time>2018-09-05T14:03:12.000Z</time>
      </trkpt>
      <trkpt lat="43.3947919495403766632080078125" lon="-4.07182051800191402435302734375">
        <ele>66</ele>
        <time>2018-09-05T14:03:15.000Z</time>
      </trkpt>
      <trkpt lat="43.39482673443853855133056640625" lon="-4.071953035891056060791015625">
        <ele>66.59999847412109375</ele>
        <time>2018-09-05T14:03:17.000Z</time>
      </trkpt>
      <trkpt lat="43.394845426082611083984375" lon="-4.0720179118216037750244140625">
        <ele>66.8000030517578125</ele>
        <time>2018-09-05T14:03:18.000Z</time>
      </trkpt>
      <trkpt lat="43.3948841504752635955810546875" lon="-4.07214439474046230316162109375">
        <ele>67.1999969482421875</ele>
        <time>2018-09-05T14:03:20.000Z</time>
      </trkpt>
      <trkpt lat="43.395026810467243194580078125" lon="-4.07250992953777313232421875">
        <ele>67.40000152587890625</ele>
        <time>2018-09-05T14:03:26.000Z</time>
      </trkpt>
      <trkpt lat="43.39511523954570293426513671875" lon="-4.072679579257965087890625">
        <ele>67</ele>
        <time>2018-09-05T14:03:29.000Z</time>
      </trkpt>
      <trkpt lat="43.39528287760913372039794921875" lon="-4.07293028198182582855224609375">
        <ele>67.8000030517578125</ele>
        <time>2018-09-05T14:03:34.000Z</time>
      </trkpt>
      <trkpt lat="43.39539251290261745452880859375" lon="-4.0730612911283969879150390625">
        <ele>68.40000152587890625</ele>
        <time>2018-09-05T14:03:37.000Z</time>
      </trkpt>
      <trkpt lat="43.39558244682848453521728515625" lon="-4.07326756976544857025146484375">
        <ele>68.8000030517578125</ele>
        <time>2018-09-05T14:03:42.000Z</time>
      </trkpt>
      <trkpt lat="43.3957729674875736236572265625" lon="-4.07346253283321857452392578125">
        <ele>68.8000030517578125</ele>
        <time>2018-09-05T14:03:47.000Z</time>
      </trkpt>
      <trkpt lat="43.3959084190428256988525390625" lon="-4.0736165083944797515869140625">
        <ele>69.40000152587890625</ele>
        <time>2018-09-05T14:03:51.000Z</time>
      </trkpt>
      <trkpt lat="43.39599139988422393798828125" lon="-4.07373293302953243255615234375">
        <ele>69.8000030517578125</ele>
        <time>2018-09-05T14:03:54.000Z</time>
      </trkpt>
      <trkpt lat="43.39608527719974517822265625" lon="-4.0738880820572376251220703125">
        <ele>71</ele>
        <time>2018-09-05T14:03:58.000Z</time>
      </trkpt>
      <trkpt lat="43.39613364078104496002197265625" lon="-4.0740178339183330535888671875">
        <ele>72.1999969482421875</ele>
        <time>2018-09-05T14:04:01.000Z</time>
      </trkpt>
      <trkpt lat="43.39618845842778682708740234375" lon="-4.0741982124745845794677734375">
        <ele>72.59999847412109375</ele>
        <time>2018-09-05T14:04:05.000Z</time>
      </trkpt>
      <trkpt lat="43.39628686197102069854736328125" lon="-4.07460196875035762786865234375">
        <ele>72.59999847412109375</ele>
        <time>2018-09-05T14:04:13.000Z</time>
      </trkpt>
      <trkpt lat="43.39638090692460536956787109375" lon="-4.075018130242824554443359375">
        <ele>73</ele>
        <time>2018-09-05T14:04:20.000Z</time>
      </trkpt>
      <trkpt lat="43.396465815603733062744140625" lon="-4.075390286743640899658203125">
        <ele>73.1999969482421875</ele>
        <time>2018-09-05T14:04:26.000Z</time>
      </trkpt>
      <trkpt lat="43.39655810035765171051025390625" lon="-4.07576923258602619171142578125">
        <ele>73.59999847412109375</ele>
        <time>2018-09-05T14:04:32.000Z</time>
      </trkpt>
      <trkpt lat="43.3966577611863613128662109375" lon="-4.07635630108416080474853515625">
        <ele>73.59999847412109375</ele>
        <time>2018-09-05T14:04:41.000Z</time>
      </trkpt>
      <trkpt lat="43.39666371233761310577392578125" lon="-4.07660432159900665283203125">
        <ele>74.1999969482421875</ele>
        <time>2018-09-05T14:04:45.000Z</time>
      </trkpt>
      <trkpt lat="43.39665868319571018218994140625" lon="-4.07670733518898487091064453125">
        <ele>74.40000152587890625</ele>
        <time>2018-09-05T14:04:47.000Z</time>
      </trkpt>
      <trkpt lat="43.3966584317386150360107421875" lon="-4.07675410620868206024169921875">
        <ele>74.40000152587890625</ele>
        <time>2018-09-05T14:04:48.000Z</time>
      </trkpt>
      <trkpt lat="43.39665331877768039703369140625" lon="-4.0768824331462383270263671875">
        <ele>75.40000152587890625</ele>
        <time>2018-09-05T14:04:51.000Z</time>
      </trkpt>
      <trkpt lat="43.396637476980686187744140625" lon="-4.0770795755088329315185546875">
        <ele>76.59999847412109375</ele>
        <time>2018-09-05T14:04:56.000Z</time>
      </trkpt>
      <trkpt lat="43.3966094814240932464599609375" lon="-4.0772996842861175537109375">
        <ele>77.59999847412109375</ele>
        <time>2018-09-05T14:05:02.000Z</time>
      </trkpt>
      <trkpt lat="43.39658743701875209808349609375" lon="-4.07740253023803234100341796875">
        <ele>78.1999969482421875</ele>
        <time>2018-09-05T14:05:05.000Z</time>
      </trkpt>
      <trkpt lat="43.396554999053478240966796875" lon="-4.077496491372585296630859375">
        <ele>78.8000030517578125</ele>
        <time>2018-09-05T14:05:08.000Z</time>
      </trkpt>
      <trkpt lat="43.396508060395717620849609375" lon="-4.07760704867541790008544921875">
        <ele>79.59999847412109375</ele>
        <time>2018-09-05T14:05:12.000Z</time>
      </trkpt>
      <trkpt lat="43.396495319902896881103515625" lon="-4.0776351280510425567626953125">
        <ele>80</ele>
        <time>2018-09-05T14:05:13.000Z</time>
      </trkpt>
      <trkpt lat="43.3964405022561550140380859375" lon="-4.07774962484836578369140625">
        <ele>80.8000030517578125</ele>
        <time>2018-09-05T14:05:17.000Z</time>
      </trkpt>
      <trkpt lat="43.39642633683979511260986328125" lon="-4.07777485437691211700439453125">
        <ele>81</ele>
        <time>2018-09-05T14:05:18.000Z</time>
      </trkpt>
      <trkpt lat="43.39638291858136653900146484375" lon="-4.07785423099994659423828125">
        <ele>81.8000030517578125</ele>
        <time>2018-09-05T14:05:21.000Z</time>
      </trkpt>
      <trkpt lat="43.3963680826127529144287109375" lon="-4.07788130454719066619873046875">
        <ele>82.1999969482421875</ele>
        <time>2018-09-05T14:05:22.000Z</time>
      </trkpt>
      <trkpt lat="43.39629004709422588348388671875" lon="-4.0780153311789035797119140625">
        <ele>83.1999969482421875</ele>
        <time>2018-09-05T14:05:27.000Z</time>
      </trkpt>
      <trkpt lat="43.39627345092594623565673828125" lon="-4.0780507028102874755859375">
        <ele>83.1999969482421875</ele>
        <time>2018-09-05T14:05:28.000Z</time>
      </trkpt>
      <trkpt lat="43.3961685933172702789306640625" lon="-4.07825178466737270355224609375">
        <ele>84</ele>
        <time>2018-09-05T14:05:34.000Z</time>
      </trkpt>
      <trkpt lat="43.39613020420074462890625" lon="-4.078324623405933380126953125">
        <ele>84.40000152587890625</ele>
        <time>2018-09-05T14:05:36.000Z</time>
      </trkpt>
      <trkpt lat="43.396111764013767242431640625" lon="-4.0783626772463321685791015625">
        <ele>84.59999847412109375</ele>
        <time>2018-09-05T14:05:37.000Z</time>
      </trkpt>
      <trkpt lat="43.395945131778717041015625" lon="-4.07869719900190830230712890625">
        <ele>84.8000030517578125</ele>
        <time>2018-09-05T14:05:45.000Z</time>
      </trkpt>
      <trkpt lat="43.39588821865618228912353515625" lon="-4.0788283757865428924560546875">
        <ele>85.1999969482421875</ele>
        <time>2018-09-05T14:05:48.000Z</time>
      </trkpt>
      <trkpt lat="43.39577405713498592376708984375" lon="-4.07906684093177318572998046875">
        <ele>85.1999969482421875</ele>
        <time>2018-09-05T14:05:53.000Z</time>
      </trkpt>
      <trkpt lat="43.395676910877227783203125" lon="-4.07928912900388240814208984375">
        <ele>84.8000030517578125</ele>
        <time>2018-09-05T14:05:57.000Z</time>
      </trkpt>
      <trkpt lat="43.39559501968324184417724609375" lon="-4.07946883700788021087646484375">
        <ele>84.59999847412109375</ele>
        <time>2018-09-05T14:06:00.000Z</time>
      </trkpt>
      <trkpt lat="43.3955117873847484588623046875" lon="-4.07965675927698612213134765625">
        <ele>84.40000152587890625</ele>
        <time>2018-09-05T14:06:03.000Z</time>
      </trkpt>
      <trkpt lat="43.39545755647122859954833984375" lon="-4.07978517003357410430908203125">
        <ele>84.1999969482421875</ele>
        <time>2018-09-05T14:06:05.000Z</time>
      </trkpt>
      <trkpt lat="43.395390920341014862060546875" lon="-4.07999069429934024810791015625">
        <ele>84</ele>
        <time>2018-09-05T14:06:08.000Z</time>
      </trkpt>
      <trkpt lat="43.39537306688725948333740234375" lon="-4.080063365399837493896484375">
        <ele>84</ele>
        <time>2018-09-05T14:06:09.000Z</time>
      </trkpt>
      <trkpt lat="43.395362086594104766845703125" lon="-4.08013855107128620147705078125">
        <ele>84</ele>
        <time>2018-09-05T14:06:10.000Z</time>
      </trkpt>
      <trkpt lat="43.3953418023884296417236328125" lon="-4.08037777058780193328857421875">
        <ele>84</ele>
        <time>2018-09-05T14:06:13.000Z</time>
      </trkpt>
      <trkpt lat="43.3953434787690639495849609375" lon="-4.08046309836208820343017578125">
        <ele>83.59999847412109375</ele>
        <time>2018-09-05T14:06:14.000Z</time>
      </trkpt>
      <trkpt lat="43.39535035192966461181640625" lon="-4.0805510245263576507568359375">
        <ele>83.1999969482421875</ele>
        <time>2018-09-05T14:06:15.000Z</time>
      </trkpt>
      <trkpt lat="43.3953709714114665985107421875" lon="-4.08073467202484607696533203125">
        <ele>82.1999969482421875</ele>
        <time>2018-09-05T14:06:17.000Z</time>
      </trkpt>
      <trkpt lat="43.39539553038775920867919921875" lon="-4.0809158049523830413818359375">
        <ele>81.59999847412109375</ele>
        <time>2018-09-05T14:06:19.000Z</time>
      </trkpt>
      <trkpt lat="43.39546090923249721527099609375" lon="-4.08142936415970325469970703125">
        <ele>82</ele>
        <time>2018-09-05T14:06:25.000Z</time>
      </trkpt>
      <trkpt lat="43.39548102580010890960693359375" lon="-4.0815933980047702789306640625">
        <ele>82.1999969482421875</ele>
        <time>2018-09-05T14:06:27.000Z</time>
      </trkpt>
      <trkpt lat="43.39556786231696605682373046875" lon="-4.08205431886017322540283203125">
        <ele>81.8000030517578125</ele>
        <time>2018-09-05T14:06:33.000Z</time>
      </trkpt>
      <trkpt lat="43.3956006355583667755126953125" lon="-4.08211885951459407806396484375">
        <ele>82.1999969482421875</ele>
        <time>2018-09-05T14:06:34.000Z</time>
      </trkpt>
      <trkpt lat="43.39563910849392414093017578125" lon="-4.08218122087419033050537109375">
        <ele>82.1999969482421875</ele>
        <time>2018-09-05T14:06:35.000Z</time>
      </trkpt>
      <trkpt lat="43.395805656909942626953125" lon="-4.0823403932154178619384765625">
        <ele>81.1999969482421875</ele>
        <time>2018-09-05T14:06:38.000Z</time>
      </trkpt>
      <trkpt lat="43.3958728797733783721923828125" lon="-4.08238624222576618194580078125">
        <ele>80.59999847412109375</ele>
        <time>2018-09-05T14:06:39.000Z</time>
      </trkpt>
      <trkpt lat="43.39593582786619663238525390625" lon="-4.08243821002542972564697265625">
        <ele>79.8000030517578125</ele>
        <time>2018-09-05T14:06:40.000Z</time>
      </trkpt>
      <trkpt lat="43.39604931883513927459716796875" lon="-4.0825529582798480987548828125">
        <ele>78.1999969482421875</ele>
        <time>2018-09-05T14:06:42.000Z</time>
      </trkpt>
      <trkpt lat="43.39609022252261638641357421875" lon="-4.0826307423412799835205078125">
        <ele>77.8000030517578125</ele>
        <time>2018-09-05T14:06:43.000Z</time>
      </trkpt>
      <trkpt lat="43.39611637406051158905029296875" lon="-4.08272244036197662353515625">
        <ele>76.8000030517578125</ele>
        <time>2018-09-05T14:06:44.000Z</time>
      </trkpt>
      <trkpt lat="43.39610665105283260345458984375" lon="-4.08292838372290134429931640625">
        <ele>75.1999969482421875</ele>
        <time>2018-09-05T14:06:46.000Z</time>
      </trkpt>
      <trkpt lat="43.39595359750092029571533203125" lon="-4.08319191075861454010009765625">
        <ele>73.8000030517578125</ele>
        <time>2018-09-05T14:06:49.000Z</time>
      </trkpt>
      <trkpt lat="43.39590079151093959808349609375" lon="-4.083269275724887847900390625">
        <ele>74</ele>
        <time>2018-09-05T14:06:50.000Z</time>
      </trkpt>
      <trkpt lat="43.395855613052845001220703125" lon="-4.08335032872855663299560546875">
        <ele>74.1999969482421875</ele>
        <time>2018-09-05T14:06:51.000Z</time>
      </trkpt>
      <trkpt lat="43.39578528888523578643798828125" lon="-4.083503969013690948486328125">
        <ele>74.8000030517578125</ele>
        <time>2018-09-05T14:06:53.000Z</time>
      </trkpt>
      <trkpt lat="43.39576651342213153839111328125" lon="-4.08357429318130016326904296875">
        <ele>75.1999969482421875</ele>
        <time>2018-09-05T14:06:54.000Z</time>
      </trkpt>
      <trkpt lat="43.395738936960697174072265625" lon="-4.08369717188179492950439453125">
        <ele>76.1999969482421875</ele>
        <time>2018-09-05T14:06:56.000Z</time>
      </trkpt>
      <trkpt lat="43.39573097415268421173095703125" lon="-4.0837555937469005584716796875">
        <ele>76.8000030517578125</ele>
        <time>2018-09-05T14:06:57.000Z</time>
      </trkpt>
      <trkpt lat="43.3957297168672084808349609375" lon="-4.08381409943103790283203125">
        <ele>77</ele>
        <time>2018-09-05T14:06:58.000Z</time>
      </trkpt>
      <trkpt lat="43.39572862721979618072509765625" lon="-4.08386866562068462371826171875">
        <ele>77.1999969482421875</ele>
        <time>2018-09-05T14:06:59.000Z</time>
      </trkpt>
      <trkpt lat="43.3957360871136188507080078125" lon="-4.08396975137293338775634765625">
        <ele>77.8000030517578125</ele>
        <time>2018-09-05T14:07:01.000Z</time>
      </trkpt>
      <trkpt lat="43.39574061334133148193359375" lon="-4.0840194560587406158447265625">
        <ele>78</ele>
        <time>2018-09-05T14:07:02.000Z</time>
      </trkpt>
      <trkpt lat="43.39574103243649005889892578125" lon="-4.08411844633519649505615234375">
        <ele>78.59999847412109375</ele>
        <time>2018-09-05T14:07:04.000Z</time>
      </trkpt>
      <trkpt lat="43.3957464806735515594482421875" lon="-4.0841693244874477386474609375">
        <ele>78.59999847412109375</ele>
        <time>2018-09-05T14:07:05.000Z</time>
      </trkpt>
      <trkpt lat="43.395751677453517913818359375" lon="-4.08426881767809391021728515625">
        <ele>79</ele>
        <time>2018-09-05T14:07:07.000Z</time>
      </trkpt>
      <trkpt lat="43.3957598917186260223388671875" lon="-4.0845515392720699310302734375">
        <ele>79.59999847412109375</ele>
        <time>2018-09-05T14:07:12.000Z</time>
      </trkpt>
      <trkpt lat="43.395761735737323760986328125" lon="-4.0846108831465244293212890625">
        <ele>79.59999847412109375</ele>
        <time>2018-09-05T14:07:13.000Z</time>
      </trkpt>
      <trkpt lat="43.3957706205546855926513671875" lon="-4.0852314792573451995849609375">
        <ele>80</ele>
        <time>2018-09-05T14:07:23.000Z</time>
      </trkpt>
      <trkpt lat="43.3957665972411632537841796875" lon="-4.08529258333146572113037109375">
        <ele>80</ele>
        <time>2018-09-05T14:07:24.000Z</time>
      </trkpt>
      <trkpt lat="43.395736254751682281494140625" lon="-4.0856482274830341339111328125">
        <ele>80.59999847412109375</ele>
        <time>2018-09-05T14:07:30.000Z</time>
      </trkpt>
      <trkpt lat="43.39568638242781162261962890625" lon="-4.0860358066856861114501953125">
        <ele>79.59999847412109375</ele>
        <time>2018-09-05T14:07:36.000Z</time>
      </trkpt>
      <trkpt lat="43.39565855450928211212158203125" lon="-4.0862329490482807159423828125">
        <ele>80</ele>
        <time>2018-09-05T14:07:39.000Z</time>
      </trkpt>
      <trkpt lat="43.39561186730861663818359375" lon="-4.08675405196845531463623046875">
        <ele>79.1999969482421875</ele>
        <time>2018-09-05T14:07:46.000Z</time>
      </trkpt>
      <trkpt lat="43.3956137113273143768310546875" lon="-4.086831919848918914794921875">
        <ele>79</ele>
        <time>2018-09-05T14:07:47.000Z</time>
      </trkpt>
      <trkpt lat="43.39561949484050273895263671875" lon="-4.08698623068630695343017578125">
        <ele>78.59999847412109375</ele>
        <time>2018-09-05T14:07:49.000Z</time>
      </trkpt>
      <trkpt lat="43.395622260868549346923828125" lon="-4.0870630927383899688720703125">
        <ele>77.8000030517578125</ele>
        <time>2018-09-05T14:07:50.000Z</time>
      </trkpt>
      <trkpt lat="43.39564061723649501800537109375" lon="-4.08728999085724353790283203125">
        <ele>78.40000152587890625</ele>
        <time>2018-09-05T14:07:53.000Z</time>
      </trkpt>
      <trkpt lat="43.3956616558134555816650390625" lon="-4.08752116374671459197998046875">
        <ele>78.1999969482421875</ele>
        <time>2018-09-05T14:07:56.000Z</time>
      </trkpt>
      <trkpt lat="43.39568403549492359161376953125" lon="-4.08767807297408580780029296875">
        <ele>77.8000030517578125</ele>
        <time>2018-09-05T14:07:58.000Z</time>
      </trkpt>
      <trkpt lat="43.39568805880844593048095703125" lon="-4.08776189200580120086669921875">
        <ele>77.59999847412109375</ele>
        <time>2018-09-05T14:07:59.000Z</time>
      </trkpt>
      <trkpt lat="43.39568470604717731475830078125" lon="-4.088023491203784942626953125">
        <ele>76.59999847412109375</ele>
        <time>2018-09-05T14:08:02.000Z</time>
      </trkpt>
      <trkpt lat="43.3957012183964252471923828125" lon="-4.08820378594100475311279296875">
        <ele>75.8000030517578125</ele>
        <time>2018-09-05T14:08:04.000Z</time>
      </trkpt>
      <trkpt lat="43.3957059122622013092041015625" lon="-4.08829498104751110076904296875">
        <ele>75.59999847412109375</ele>
        <time>2018-09-05T14:08:05.000Z</time>
      </trkpt>
      <trkpt lat="43.3957380987703800201416015625" lon="-4.0887884236872196197509765625">
        <ele>74.40000152587890625</ele>
        <time>2018-09-05T14:08:10.000Z</time>
      </trkpt>
      <trkpt lat="43.395713455975055694580078125" lon="-4.0891979634761810302734375">
        <ele>73.59999847412109375</ele>
        <time>2018-09-05T14:08:14.000Z</time>
      </trkpt>
      <trkpt lat="43.3956928364932537078857421875" lon="-4.08929293043911457061767578125">
        <ele>73.59999847412109375</ele>
        <time>2018-09-05T14:08:15.000Z</time>
      </trkpt>
      <trkpt lat="43.39561496861279010772705078125" lon="-4.08953315578401088714599609375">
        <ele>73.8000030517578125</ele>
        <time>2018-09-05T14:08:18.000Z</time>
      </trkpt>
      <trkpt lat="43.3955929242074489593505859375" lon="-4.08960406668484210968017578125">
        <ele>74.1999969482421875</ele>
        <time>2018-09-05T14:08:19.000Z</time>
      </trkpt>
      <trkpt lat="43.39553466998040676116943359375" lon="-4.089789725840091705322265625">
        <ele>75.40000152587890625</ele>
        <time>2018-09-05T14:08:22.000Z</time>
      </trkpt>
      <trkpt lat="43.39550918899476528167724609375" lon="-4.0899095870554447174072265625">
        <ele>75.59999847412109375</ele>
        <time>2018-09-05T14:08:24.000Z</time>
      </trkpt>
      <trkpt lat="43.39549460448324680328369140625" lon="-4.09001595340669155120849609375">
        <ele>76</ele>
        <time>2018-09-05T14:08:26.000Z</time>
      </trkpt>
      <trkpt lat="43.3954876475036144256591796875" lon="-4.0901120938360691070556640625">
        <ele>76.40000152587890625</ele>
        <time>2018-09-05T14:08:28.000Z</time>
      </trkpt>
      <trkpt lat="43.39548370800912380218505859375" lon="-4.09020270220935344696044921875">
        <ele>76.8000030517578125</ele>
        <time>2018-09-05T14:08:30.000Z</time>
      </trkpt>
      <trkpt lat="43.39547507464885711669921875" lon="-4.0903246589004993438720703125">
        <ele>77.59999847412109375</ele>
        <time>2018-09-05T14:08:33.000Z</time>
      </trkpt>
      <trkpt lat="43.39546577073633670806884765625" lon="-4.0903984196484088897705078125">
        <ele>78.40000152587890625</ele>
        <time>2018-09-05T14:08:35.000Z</time>
      </trkpt>
      <trkpt lat="43.39545755647122859954833984375" lon="-4.0904653072357177734375">
        <ele>78.8000030517578125</ele>
        <time>2018-09-05T14:08:37.000Z</time>
      </trkpt>
      <trkpt lat="43.395442552864551544189453125" lon="-4.09052607603371143341064453125">
        <ele>79.40000152587890625</ele>
        <time>2018-09-05T14:08:39.000Z</time>
      </trkpt>
      <trkpt lat="43.39542536996304988861083984375" lon="-4.09058055840432643890380859375">
        <ele>79.59999847412109375</ele>
        <time>2018-09-05T14:08:41.000Z</time>
      </trkpt>
      <trkpt lat="43.3954138867557048797607421875" lon="-4.0906056202948093414306640625">
        <ele>80.1999969482421875</ele>
        <time>2018-09-05T14:08:42.000Z</time>
      </trkpt>
      <trkpt lat="43.3953884057700634002685546875" lon="-4.09065230749547481536865234375">
        <ele>81.1999969482421875</ele>
        <time>2018-09-05T14:08:44.000Z</time>
      </trkpt>
      <trkpt lat="43.39536652900278568267822265625" lon="-4.09069488756358623504638671875">
        <ele>81.40000152587890625</ele>
        <time>2018-09-05T14:08:46.000Z</time>
      </trkpt>
      <trkpt lat="43.39534071274101734161376953125" lon="-4.09072774462401866912841796875">
        <ele>81.8000030517578125</ele>
        <time>2018-09-05T14:08:48.000Z</time>
      </trkpt>
      <trkpt lat="43.395318500697612762451171875" lon="-4.0907585062086582183837890625">
        <ele>82.59999847412109375</ele>
        <time>2018-09-05T14:08:50.000Z</time>
      </trkpt>
      <trkpt lat="43.3952945284545421600341796875" lon="-4.09078591503202915191650390625">
        <ele>83</ele>
        <time>2018-09-05T14:08:52.000Z</time>
      </trkpt>
      <trkpt lat="43.39523677714169025421142578125" lon="-4.0908406488597393035888671875">
        <ele>83.8000030517578125</ele>
        <time>2018-09-05T14:08:56.000Z</time>
      </trkpt>
      <trkpt lat="43.3951874077320098876953125" lon="-4.09088549204170703887939453125">
        <ele>84.59999847412109375</ele>
        <time>2018-09-05T14:09:00.000Z</time>
      </trkpt>
      <trkpt lat="43.39517374522984027862548828125" lon="-4.0908916108310222625732421875">
        <ele>84.8000030517578125</ele>
        <time>2018-09-05T14:09:01.000Z</time>
      </trkpt>
      <trkpt lat="43.39515815488994121551513671875" lon="-4.09090183675289154052734375">
        <ele>84.8000030517578125</ele>
        <time>2018-09-05T14:09:02.000Z</time>
      </trkpt>
      <trkpt lat="43.395071066915988922119140625" lon="-4.090961515903472900390625">
        <ele>86</ele>
        <time>2018-09-05T14:09:08.000Z</time>
      </trkpt>
      <trkpt lat="43.3950551412999629974365234375" lon="-4.0909717418253421783447265625">
        <ele>86.1999969482421875</ele>
        <time>2018-09-05T14:09:09.000Z</time>
      </trkpt>
      <trkpt lat="43.394989259541034698486328125" lon="-4.09101708792150020599365234375">
        <ele>87</ele>
        <time>2018-09-05T14:09:14.000Z</time>
      </trkpt>
      <trkpt lat="43.3949434943497180938720703125" lon="-4.09104608930647373199462890625">
        <ele>87.40000152587890625</ele>
        <time>2018-09-05T14:09:17.000Z</time>
      </trkpt>
      <trkpt lat="43.39488557539880275726318359375" lon="-4.09108129329979419708251953125">
        <ele>88</ele>
        <time>2018-09-05T14:09:21.000Z</time>
      </trkpt>
      <trkpt lat="43.39484115131199359893798828125" lon="-4.09110945649445056915283203125">
        <ele>88.59999847412109375</ele>
        <time>2018-09-05T14:09:24.000Z</time>
      </trkpt>
      <trkpt lat="43.3947761915624141693115234375" lon="-4.0911487676203250885009765625">
        <ele>89</ele>
        <time>2018-09-05T14:09:28.000Z</time>
      </trkpt>
      <trkpt lat="43.3947287499904632568359375" lon="-4.09118740819394588470458984375">
        <ele>89.59999847412109375</ele>
        <time>2018-09-05T14:09:31.000Z</time>
      </trkpt>
      <trkpt lat="43.394621796905994415283203125" lon="-4.09124842844903469085693359375">
        <ele>90.1999969482421875</ele>
        <time>2018-09-05T14:09:36.000Z</time>
      </trkpt>
      <trkpt lat="43.394542671740055084228515625" lon="-4.0912895835936069488525390625">
        <ele>90.40000152587890625</ele>
        <time>2018-09-05T14:09:39.000Z</time>
      </trkpt>
      <trkpt lat="43.394348211586475372314453125" lon="-4.091336689889430999755859375">
        <ele>91.1999969482421875</ele>
        <time>2018-09-05T14:09:46.000Z</time>
      </trkpt>
      <trkpt lat="43.3943252451717853546142578125" lon="-4.09134414978325366973876953125">
        <ele>91.40000152587890625</ele>
        <time>2018-09-05T14:09:47.000Z</time>
      </trkpt>
      <trkpt lat="43.394261039793491363525390625" lon="-4.09137197770178318023681640625">
        <ele>92.1999969482421875</ele>
        <time>2018-09-05T14:09:50.000Z</time>
      </trkpt>
      <trkpt lat="43.394185602664947509765625" lon="-4.091411791741847991943359375">
        <ele>93.1999969482421875</ele>
        <time>2018-09-05T14:09:54.000Z</time>
      </trkpt>
      <trkpt lat="43.39414964430034160614013671875" lon="-4.0914350934326648712158203125">
        <ele>93.40000152587890625</ele>
        <time>2018-09-05T14:09:56.000Z</time>
      </trkpt>
      <trkpt lat="43.39407789520919322967529296875" lon="-4.09149728715419769287109375">
        <ele>94</ele>
        <time>2018-09-05T14:10:00.000Z</time>
      </trkpt>
      <trkpt lat="43.39401083998382091522216796875" lon="-4.09156861715018749237060546875">
        <ele>95.1999969482421875</ele>
        <time>2018-09-05T14:10:04.000Z</time>
      </trkpt>
      <trkpt lat="43.39393389411270618438720703125" lon="-4.0916546992957592010498046875">
        <ele>95</ele>
        <time>2018-09-05T14:10:08.000Z</time>
      </trkpt>
      <trkpt lat="43.39377396740019321441650390625" lon="-4.09182359464466571807861328125">
        <ele>96.40000152587890625</ele>
        <time>2018-09-05T14:10:16.000Z</time>
      </trkpt>
      <trkpt lat="43.39373457245528697967529296875" lon="-4.09186483360826969146728515625">
        <ele>96.8000030517578125</ele>
        <time>2018-09-05T14:10:18.000Z</time>
      </trkpt>
      <trkpt lat="43.3936543576419353485107421875" lon="-4.09195058047771453857421875">
        <ele>97.40000152587890625</ele>
        <time>2018-09-05T14:10:22.000Z</time>
      </trkpt>
      <trkpt lat="43.39357229880988597869873046875" lon="-4.09203448332846164703369140625">
        <ele>98.40000152587890625</ele>
        <time>2018-09-05T14:10:26.000Z</time>
      </trkpt>
      <trkpt lat="43.39351111091673374176025390625" lon="-4.09210078418254852294921875">
        <ele>99</ele>
        <time>2018-09-05T14:10:29.000Z</time>
      </trkpt>
      <trkpt lat="43.3934498392045497894287109375" lon="-4.09216725267469882965087890625">
        <ele>99.59999847412109375</ele>
        <time>2018-09-05T14:10:32.000Z</time>
      </trkpt>
      <trkpt lat="43.3933646790683269500732421875" lon="-4.0922615490853786468505859375">
        <ele>100.1999969482421875</ele>
        <time>2018-09-05T14:10:36.000Z</time>
      </trkpt>
      <trkpt lat="43.39332167990505695343017578125" lon="-4.0923031233251094818115234375">
        <ele>100.59999847412109375</ele>
        <time>2018-09-05T14:10:38.000Z</time>
      </trkpt>
      <trkpt lat="43.39321531355381011962890625" lon="-4.0924047119915485382080078125">
        <ele>101.40000152587890625</ele>
        <time>2018-09-05T14:10:43.000Z</time>
      </trkpt>
      <trkpt lat="43.39316627942025661468505859375" lon="-4.09245424903929233551025390625">
        <ele>101.8000030517578125</ele>
        <time>2018-09-05T14:10:45.000Z</time>
      </trkpt>
      <trkpt lat="43.393096290528774261474609375" lon="-4.09253530204296112060546875">
        <ele>103</ele>
        <time>2018-09-05T14:10:49.000Z</time>
      </trkpt>
      <trkpt lat="43.39305412955582141876220703125" lon="-4.09256807528436183929443359375">
        <ele>103.1999969482421875</ele>
        <time>2018-09-05T14:10:51.000Z</time>
      </trkpt>
      <trkpt lat="43.39300048537552356719970703125" lon="-4.09257377497851848602294921875">
        <ele>103.59999847412109375</ele>
        <time>2018-09-05T14:10:53.000Z</time>
      </trkpt>
      <trkpt lat="43.3929214440286159515380859375" lon="-4.09261710941791534423828125">
        <ele>104.1999969482421875</ele>
        <time>2018-09-05T14:10:56.000Z</time>
      </trkpt>
      <trkpt lat="43.39285078458487987518310546875" lon="-4.09267469309270381927490234375">
        <ele>104.8000030517578125</ele>
        <time>2018-09-05T14:10:59.000Z</time>
      </trkpt>
      <trkpt lat="43.39283184148371219635009765625" lon="-4.0926982462406158447265625">
        <ele>105</ele>
        <time>2018-09-05T14:11:00.000Z</time>
      </trkpt>
      <trkpt lat="43.39281222783029079437255859375" lon="-4.09271962009370326995849609375">
        <ele>105.1999969482421875</ele>
        <time>2018-09-05T14:11:01.000Z</time>
      </trkpt>
      <trkpt lat="43.39269923977553844451904296875" lon="-4.092832691967487335205078125">
        <ele>106.1999969482421875</ele>
        <time>2018-09-05T14:11:06.000Z</time>
      </trkpt>
      <trkpt lat="43.3926569111645221710205078125" lon="-4.0928858332335948944091796875">
        <ele>106.40000152587890625</ele>
        <time>2018-09-05T14:11:08.000Z</time>
      </trkpt>
      <trkpt lat="43.3925580047070980072021484375" lon="-4.093030504882335662841796875">
        <ele>107.40000152587890625</ele>
        <time>2018-09-05T14:11:13.000Z</time>
      </trkpt>
      <trkpt lat="43.39253998361527919769287109375" lon="-4.09306495450437068939208984375">
        <ele>107.59999847412109375</ele>
        <time>2018-09-05T14:11:14.000Z</time>
      </trkpt>
      <trkpt lat="43.39243319816887378692626953125" lon="-4.09328162670135498046875">
        <ele>108.40000152587890625</ele>
        <time>2018-09-05T14:11:20.000Z</time>
      </trkpt>
      <trkpt lat="43.3923873491585254669189453125" lon="-4.09339553676545619964599609375">
        <ele>109.1999969482421875</ele>
        <time>2018-09-05T14:11:23.000Z</time>
      </trkpt>
      <trkpt lat="43.39233596809208393096923828125" lon="-4.0935168229043483734130859375">
        <ele>109.40000152587890625</ele>
        <time>2018-09-05T14:11:26.000Z</time>
      </trkpt>
      <trkpt lat="43.3922448568046092987060546875" lon="-4.093735925853252410888671875">
        <ele>110</ele>
        <time>2018-09-05T14:11:31.000Z</time>
      </trkpt>
      <trkpt lat="43.3921067230403423309326171875" lon="-4.093934409320354461669921875">
        <ele>110.59999847412109375</ele>
        <time>2018-09-05T14:11:36.000Z</time>
      </trkpt>
      <trkpt lat="43.39207478798925876617431640625" lon="-4.09396902658045291900634765625">
        <ele>111</ele>
        <time>2018-09-05T14:11:37.000Z</time>
      </trkpt>
      <trkpt lat="43.391788713634014129638671875" lon="-4.0942306257784366607666015625">
        <ele>111</ele>
        <time>2018-09-05T14:11:45.000Z</time>
      </trkpt>
      <trkpt lat="43.3916266076266765594482421875" lon="-4.09436884336173534393310546875">
        <ele>111</ele>
        <time>2018-09-05T14:11:49.000Z</time>
      </trkpt>
      <trkpt lat="43.39146609418094158172607421875" lon="-4.0945142693817615509033203125">
        <ele>111</ele>
        <time>2018-09-05T14:11:53.000Z</time>
      </trkpt>
      <trkpt lat="43.391278423368930816650390625" lon="-4.09473446197807788848876953125">
        <ele>110.8000030517578125</ele>
        <time>2018-09-05T14:11:58.000Z</time>
      </trkpt>
      <trkpt lat="43.39124657213687896728515625" lon="-4.09478156827390193939208984375">
        <ele>110.8000030517578125</ele>
        <time>2018-09-05T14:11:59.000Z</time>
      </trkpt>
      <trkpt lat="43.39122050441801548004150390625" lon="-4.0948331169784069061279296875">
        <ele>110.8000030517578125</ele>
        <time>2018-09-05T14:12:00.000Z</time>
      </trkpt>
      <trkpt lat="43.391232825815677642822265625" lon="-4.0950181894004344940185546875">
        <ele>111</ele>
        <time>2018-09-05T14:12:03.000Z</time>
      </trkpt>
      <trkpt lat="43.3912722207605838775634765625" lon="-4.09514115191996097564697265625">
        <ele>111.1999969482421875</ele>
        <time>2018-09-05T14:12:05.000Z</time>
      </trkpt>
      <trkpt lat="43.391336761415004730224609375" lon="-4.09537299536168575286865234375">
        <ele>111</ele>
        <time>2018-09-05T14:12:09.000Z</time>
      </trkpt>
      <trkpt lat="43.3913781680166721343994140625" lon="-4.09555546939373016357421875">
        <ele>111</ele>
        <time>2018-09-05T14:12:12.000Z</time>
      </trkpt>
      <trkpt lat="43.3914086781442165374755859375" lon="-4.09581086598336696624755859375">
        <ele>111.40000152587890625</ele>
        <time>2018-09-05T14:12:16.000Z</time>
      </trkpt>
      <trkpt lat="43.39143005199730396270751953125" lon="-4.09593609161674976348876953125">
        <ele>112.1999969482421875</ele>
        <time>2018-09-05T14:12:18.000Z</time>
      </trkpt>
      <trkpt lat="43.391473554074764251708984375" lon="-4.0961743891239166259765625">
        <ele>111.8000030517578125</ele>
        <time>2018-09-05T14:12:22.000Z</time>
      </trkpt>
      <trkpt lat="43.39161579497158527374267578125" lon="-4.0965450368821620941162109375">
        <ele>112.59999847412109375</ele>
        <time>2018-09-05T14:12:29.000Z</time>
      </trkpt>
      <trkpt lat="43.39164295233786106109619140625" lon="-4.0966519899666309356689453125">
        <ele>112.59999847412109375</ele>
        <time>2018-09-05T14:12:31.000Z</time>
      </trkpt>
      <trkpt lat="43.3917255140841007232666015625" lon="-4.09684703685343265533447265625">
        <ele>111.59999847412109375</ele>
        <time>2018-09-05T14:12:34.000Z</time>
      </trkpt>
      <trkpt lat="43.39175887405872344970703125" lon="-4.09691442735493183135986328125">
        <ele>111.40000152587890625</ele>
        <time>2018-09-05T14:12:35.000Z</time>
      </trkpt>
      <trkpt lat="43.391883261501789093017578125" lon="-4.097208045423030853271484375">
        <ele>111.40000152587890625</ele>
        <time>2018-09-05T14:12:39.000Z</time>
      </trkpt>
      <trkpt lat="43.3919296972453594207763671875" lon="-4.09742320887744426727294921875">
        <ele>111.8000030517578125</ele>
        <time>2018-09-05T14:12:42.000Z</time>
      </trkpt>
      <trkpt lat="43.3919387497007846832275390625" lon="-4.09756318666040897369384765625">
        <ele>111.8000030517578125</ele>
        <time>2018-09-05T14:12:44.000Z</time>
      </trkpt>
      <trkpt lat="43.39193179272115230560302734375" lon="-4.0977188386023044586181640625">
        <ele>111.40000152587890625</ele>
        <time>2018-09-05T14:12:46.000Z</time>
      </trkpt>
      <trkpt lat="43.3918861113488674163818359375" lon="-4.09785001538693904876708984375">
        <ele>111.1999969482421875</ele>
        <time>2018-09-05T14:12:48.000Z</time>
      </trkpt>
      <trkpt lat="43.39184026233851909637451171875" lon="-4.0979072637856006622314453125">
        <ele>110.8000030517578125</ele>
        <time>2018-09-05T14:12:49.000Z</time>
      </trkpt>
      <trkpt lat="43.39178242720663547515869140625" lon="-4.0979592315852642059326171875">
        <ele>109.59999847412109375</ele>
        <time>2018-09-05T14:12:50.000Z</time>
      </trkpt>
      <trkpt lat="43.391716964542865753173828125" lon="-4.098008684813976287841796875">
        <ele>108.8000030517578125</ele>
        <time>2018-09-05T14:12:51.000Z</time>
      </trkpt>
      <trkpt lat="43.39164546690881252288818359375" lon="-4.0980598144233226776123046875">
        <ele>108</ele>
        <time>2018-09-05T14:12:52.000Z</time>
      </trkpt>
      <trkpt lat="43.391490988433361053466796875" lon="-4.09818294458091259002685546875">
        <ele>106.59999847412109375</ele>
        <time>2018-09-05T14:12:54.000Z</time>
      </trkpt>
      <trkpt lat="43.39141546748578548431396484375" lon="-4.0982388518750667572021484375">
        <ele>106</ele>
        <time>2018-09-05T14:12:55.000Z</time>
      </trkpt>
      <trkpt lat="43.39133986271917819976806640625" lon="-4.09829802811145782470703125">
        <ele>105.1999969482421875</ele>
        <time>2018-09-05T14:12:56.000Z</time>
      </trkpt>
      <trkpt lat="43.39118228293955326080322265625" lon="-4.0984245948493480682373046875">
        <ele>104</ele>
        <time>2018-09-05T14:12:58.000Z</time>
      </trkpt>
      <trkpt lat="43.391118161380290985107421875" lon="-4.0984944999217987060546875">
        <ele>103.59999847412109375</ele>
        <time>2018-09-05T14:12:59.000Z</time>
      </trkpt>
      <trkpt lat="43.39106778614223003387451171875" lon="-4.0985627286136150360107421875">
        <ele>103</ele>
        <time>2018-09-05T14:13:00.000Z</time>
      </trkpt>
      <trkpt lat="43.391022272408008575439453125" lon="-4.0986442007124423980712890625">
        <ele>102.59999847412109375</ele>
        <time>2018-09-05T14:13:01.000Z</time>
      </trkpt>
      <trkpt lat="43.39097390882670879364013671875" lon="-4.09894452430307865142822265625">
        <ele>101.8000030517578125</ele>
        <time>2018-09-05T14:13:04.000Z</time>
      </trkpt>
      <trkpt lat="43.3910677023231983184814453125" lon="-4.0992222167551517486572265625">
        <ele>100.8000030517578125</ele>
        <time>2018-09-05T14:13:07.000Z</time>
      </trkpt>
      <trkpt lat="43.39121446944773197174072265625" lon="-4.0994418226182460784912109375">
        <ele>100.40000152587890625</ele>
        <time>2018-09-05T14:13:10.000Z</time>
      </trkpt>
      <trkpt lat="43.391269035637378692626953125" lon="-4.0995175950229167938232421875">
        <ele>100</ele>
        <time>2018-09-05T14:13:11.000Z</time>
      </trkpt>
      <trkpt lat="43.39132511056959629058837890625" lon="-4.09959764219820499420166015625">
        <ele>99.59999847412109375</ele>
        <time>2018-09-05T14:13:12.000Z</time>
      </trkpt>
      <trkpt lat="43.3914894796907901763916015625" lon="-4.099835269153118133544921875">
        <ele>98.40000152587890625</ele>
        <time>2018-09-05T14:13:15.000Z</time>
      </trkpt>
      <trkpt lat="43.39158050715923309326171875" lon="-4.09998052753508090972900390625">
        <ele>97.8000030517578125</ele>
        <time>2018-09-05T14:13:17.000Z</time>
      </trkpt>
      <trkpt lat="43.39166524820029735565185546875" lon="-4.100152440369129180908203125">
        <ele>97.40000152587890625</ele>
        <time>2018-09-05T14:13:19.000Z</time>
      </trkpt>
      <trkpt lat="43.39174420572817325592041015625" lon="-4.10035192966461181640625">
        <ele>95.8000030517578125</ele>
        <time>2018-09-05T14:13:21.000Z</time>
      </trkpt>
      <trkpt lat="43.39178108610212802886962890625" lon="-4.10045863129198551177978515625">
        <ele>95.1999969482421875</ele>
        <time>2018-09-05T14:13:22.000Z</time>
      </trkpt>
      <trkpt lat="43.3918146975338459014892578125" lon="-4.1005733795464038848876953125">
        <ele>94.59999847412109375</ele>
        <time>2018-09-05T14:13:23.000Z</time>
      </trkpt>
      <trkpt lat="43.39189021848142147064208984375" lon="-4.10080111585557460784912109375">
        <ele>93.1999969482421875</ele>
        <time>2018-09-05T14:13:25.000Z</time>
      </trkpt>
      <trkpt lat="43.391977809369564056396484375" lon="-4.10103321075439453125">
        <ele>91.59999847412109375</ele>
        <time>2018-09-05T14:13:27.000Z</time>
      </trkpt>
      <trkpt lat="43.3920249156653881072998046875" lon="-4.1011473722755908966064453125">
        <ele>91</ele>
        <time>2018-09-05T14:13:28.000Z</time>
      </trkpt>
      <trkpt lat="43.39207805693149566650390625" lon="-4.10125658847391605377197265625">
        <ele>90.1999969482421875</ele>
        <time>2018-09-05T14:13:29.000Z</time>
      </trkpt>
      <trkpt lat="43.3921892009675502777099609375" lon="-4.1014635376632213592529296875">
        <ele>88.8000030517578125</ele>
        <time>2018-09-05T14:13:31.000Z</time>
      </trkpt>
      <trkpt lat="43.39229774661362171173095703125" lon="-4.10166646353900432586669921875">
        <ele>87.59999847412109375</ele>
        <time>2018-09-05T14:13:33.000Z</time>
      </trkpt>
      <trkpt lat="43.39240729808807373046875" lon="-4.101934768259525299072265625">
        <ele>86.59999847412109375</ele>
        <time>2018-09-05T14:13:36.000Z</time>
      </trkpt>
      <trkpt lat="43.39244627393782138824462890625" lon="-4.1020237840712070465087890625">
        <ele>86.1999969482421875</ele>
        <time>2018-09-05T14:13:37.000Z</time>
      </trkpt>
      <trkpt lat="43.39247443713247776031494140625" lon="-4.1020998917520046234130859375">
        <ele>85.1999969482421875</ele>
        <time>2018-09-05T14:13:38.000Z</time>
      </trkpt>
      <trkpt lat="43.39251651428639888763427734375" lon="-4.1021977923810482025146484375">
        <ele>84.59999847412109375</ele>
        <time>2018-09-05T14:13:40.000Z</time>
      </trkpt>
      <trkpt lat="43.392537720501422882080078125" lon="-4.102280102670192718505859375">
        <ele>84.1999969482421875</ele>
        <time>2018-09-05T14:13:42.000Z</time>
      </trkpt>
      <trkpt lat="43.39257367886602878570556640625" lon="-4.10241781733930110931396484375">
        <ele>83.1999969482421875</ele>
        <time>2018-09-05T14:13:45.000Z</time>
      </trkpt>
      <trkpt lat="43.3925878442823886871337890625" lon="-4.10246039740741252899169921875">
        <ele>82.59999847412109375</ele>
        <time>2018-09-05T14:13:46.000Z</time>
      </trkpt>
      <trkpt lat="43.3926190249621868133544921875" lon="-4.10260858945548534393310546875">
        <ele>81.40000152587890625</ele>
        <time>2018-09-05T14:13:49.000Z</time>
      </trkpt>
      <trkpt lat="43.3926232159137725830078125" lon="-4.10267346538603305816650390625">
        <ele>81</ele>
        <time>2018-09-05T14:13:50.000Z</time>
      </trkpt>
      <trkpt lat="43.3926446735858917236328125" lon="-4.102977477014064788818359375">
        <ele>80</ele>
        <time>2018-09-05T14:13:54.000Z</time>
      </trkpt>
      <trkpt lat="43.39265045709908008575439453125" lon="-4.10306674428284168243408203125">
        <ele>79.59999847412109375</ele>
        <time>2018-09-05T14:13:55.000Z</time>
      </trkpt>
      <trkpt lat="43.39265339076519012451171875" lon="-4.1031593643128871917724609375">
        <ele>78.8000030517578125</ele>
        <time>2018-09-05T14:13:56.000Z</time>
      </trkpt>
      <trkpt lat="43.3926341123878955841064453125" lon="-4.1036193631589412689208984375">
        <ele>77.1999969482421875</ele>
        <time>2018-09-05T14:14:00.000Z</time>
      </trkpt>
      <trkpt lat="43.39262614957988262176513671875" lon="-4.103766046464443206787109375">
        <ele>76</ele>
        <time>2018-09-05T14:14:01.000Z</time>
      </trkpt>
      <trkpt lat="43.392605446279048919677734375" lon="-4.1039090417325496673583984375">
        <ele>74</ele>
        <time>2018-09-05T14:14:02.000Z</time>
      </trkpt>
      <trkpt lat="43.39252338744699954986572265625" lon="-4.10416133701801300048828125">
        <ele>72.40000152587890625</ele>
        <time>2018-09-05T14:14:04.000Z</time>
      </trkpt>
      <trkpt lat="43.39238508604466915130615234375" lon="-4.10463298670947551727294921875">
        <ele>71.59999847412109375</ele>
        <time>2018-09-05T14:14:08.000Z</time>
      </trkpt>
      <trkpt lat="43.39236681349575519561767578125" lon="-4.1047489084303379058837890625">
        <ele>71.40000152587890625</ele>
        <time>2018-09-05T14:14:09.000Z</time>
      </trkpt>
      <trkpt lat="43.39230763725936412811279296875" lon="-4.10516523756086826324462890625">
        <ele>71.40000152587890625</ele>
        <time>2018-09-05T14:14:13.000Z</time>
      </trkpt>
      <trkpt lat="43.3922951482236385345458984375" lon="-4.10524629056453704833984375">
        <ele>71.1999969482421875</ele>
        <time>2018-09-05T14:14:14.000Z</time>
      </trkpt>
      <trkpt lat="43.39227645657956600189208984375" lon="-4.105388112366199493408203125">
        <ele>71.1999969482421875</ele>
        <time>2018-09-05T14:14:17.000Z</time>
      </trkpt>
      <trkpt lat="43.39227897115051746368408203125" lon="-4.1055513918399810791015625">
        <ele>71.1999969482421875</ele>
        <time>2018-09-05T14:14:22.000Z</time>
      </trkpt>
      <trkpt lat="43.39229506440460681915283203125" lon="-4.105588607490062713623046875">
        <ele>71.1999969482421875</ele>
        <time>2018-09-05T14:14:24.000Z</time>
      </trkpt>
      <trkpt lat="43.39230981655418872833251953125" lon="-4.10560042597353458404541015625">
        <ele>71.40000152587890625</ele>
        <time>2018-09-05T14:14:25.000Z</time>
      </trkpt>
      <trkpt lat="43.39233378879725933074951171875" lon="-4.10559229552745819091796875">
        <ele>71.59999847412109375</ele>
        <time>2018-09-05T14:14:27.000Z</time>
      </trkpt>
      <trkpt lat="43.3923839963972568511962890625" lon="-4.10557142458856105804443359375">
        <ele>72.1999969482421875</ele>
        <time>2018-09-05T14:14:31.000Z</time>
      </trkpt>
      <trkpt lat="43.39241073466837406158447265625" lon="-4.1055726818740367889404296875">
        <ele>72.59999847412109375</ele>
        <time>2018-09-05T14:14:33.000Z</time>
      </trkpt>
      <trkpt lat="43.39243889786303043365478515625" lon="-4.10556069575250148773193359375">
        <ele>72.8000030517578125</ele>
        <time>2018-09-05T14:14:35.000Z</time>
      </trkpt>
      <trkpt lat="43.39245281182229518890380859375" lon="-4.1055559180676937103271484375">
        <ele>72.8000030517578125</ele>
        <time>2018-09-05T14:14:36.000Z</time>
      </trkpt>
      <trkpt lat="43.39247896336019039154052734375" lon="-4.105547703802585601806640625">
        <ele>73.1999969482421875</ele>
        <time>2018-09-05T14:14:38.000Z</time>
      </trkpt>
      <trkpt lat="43.39248885400593280792236328125" lon="-4.10556010901927947998046875">
        <ele>73.40000152587890625</ele>
        <time>2018-09-05T14:14:39.000Z</time>
      </trkpt>
      <trkpt lat="43.3925442583858966827392578125" lon="-4.1055860929191112518310546875">
        <ele>73.8000030517578125</ele>
        <time>2018-09-05T14:14:43.000Z</time>
      </trkpt>
      <trkpt lat="43.39256982319056987762451171875" lon="-4.1056018508970737457275390625">
        <ele>74</ele>
        <time>2018-09-05T14:14:45.000Z</time>
      </trkpt>
      <trkpt lat="43.39258474297821521759033203125" lon="-4.105604700744152069091796875">
        <ele>74.1999969482421875</ele>
        <time>2018-09-05T14:14:46.000Z</time>
      </trkpt>
      <trkpt lat="43.39261257089674472808837890625" lon="-4.10561601631343364715576171875">
        <ele>74.40000152587890625</ele>
        <time>2018-09-05T14:14:48.000Z</time>
      </trkpt>
      <trkpt lat="43.392647691071033477783203125" lon="-4.10562657751142978668212890625">
        <ele>74.59999847412109375</ele>
        <time>2018-09-05T14:14:51.000Z</time>
      </trkpt>
      <trkpt lat="43.392669819295406341552734375" lon="-4.10558030940592288970947265625">
        <ele>75</ele>
        <time>2018-09-05T14:14:56.000Z</time>
      </trkpt>
      <trkpt lat="43.39255674742162227630615234375" lon="-4.10558517090976238250732421875">
        <ele>74.40000152587890625</ele>
        <time>2018-09-05T14:15:01.000Z</time>
      </trkpt>
      <trkpt lat="43.39250184595584869384765625" lon="-4.10559975542128086090087890625">
        <ele>74.1999969482421875</ele>
        <time>2018-09-05T14:15:03.000Z</time>
      </trkpt>
      <trkpt lat="43.39241106994450092315673828125" lon="-4.105606041848659515380859375">
        <ele>73.40000152587890625</ele>
        <time>2018-09-05T14:15:07.000Z</time>
      </trkpt>
      <trkpt lat="43.39231769554316997528076171875" lon="-4.105628170073032379150390625">
        <ele>72.40000152587890625</ele>
        <time>2018-09-05T14:17:38.000Z</time>
      </trkpt>
      <trkpt lat="43.39230327866971492767333984375" lon="-4.10565708763897418975830078125">
        <ele>72.1999969482421875</ele>
        <time>2018-09-05T14:17:39.000Z</time>
      </trkpt>
      <trkpt lat="43.39225030504167079925537109375" lon="-4.1056471131742000579833984375">
        <ele>71.1999969482421875</ele>
        <time>2018-09-05T14:17:42.000Z</time>
      </trkpt>
      <trkpt lat="43.39227830059826374053955078125" lon="-4.1055847518146038055419921875">
        <ele>71.1999969482421875</ele>
        <time>2018-09-05T14:17:46.000Z</time>
      </trkpt>
      <trkpt lat="43.3923447690904140472412109375" lon="-4.10556606017053127288818359375">
        <ele>72</ele>
        <time>2018-09-05T14:17:52.000Z</time>
      </trkpt>
      <trkpt lat="43.3924155123531818389892578125" lon="-4.105579555034637451171875">
        <ele>72.40000152587890625</ele>
        <time>2018-09-05T14:17:56.000Z</time>
      </trkpt>
      <trkpt lat="43.39243487454950809478759765625" lon="-4.105581901967525482177734375">
        <ele>72.59999847412109375</ele>
        <time>2018-09-05T14:17:57.000Z</time>
      </trkpt>
      <trkpt lat="43.39246236719191074371337890625" lon="-4.10555466078221797943115234375">
        <ele>72.8000030517578125</ele>
        <time>2018-09-05T14:17:59.000Z</time>
      </trkpt>
      <trkpt lat="43.39245549403131008148193359375" lon="-4.105526246130466461181640625">
        <ele>72.8000030517578125</ele>
        <time>2018-09-05T14:18:01.000Z</time>
      </trkpt>
      <trkpt lat="43.392417691648006439208984375" lon="-4.10557486116886138916015625">
        <ele>72.40000152587890625</ele>
        <time>2018-09-05T14:18:05.000Z</time>
      </trkpt>
      <trkpt lat="43.39241601526737213134765625" lon="-4.105613417923450469970703125">
        <ele>72.1999969482421875</ele>
        <time>2018-09-05T14:18:10.000Z</time>
      </trkpt>
      <trkpt lat="43.39241207577288150787353515625" lon="-4.105573184788227081298828125">
        <ele>72.1999969482421875</ele>
        <time>2018-09-05T14:18:20.000Z</time>
      </trkpt>
      <trkpt lat="43.3924185298383235931396484375" lon="-4.10554938018321990966796875">
        <ele>72.1999969482421875</ele>
        <time>2018-09-05T14:18:22.000Z</time>
      </trkpt>
      <trkpt lat="43.39239321649074554443359375" lon="-4.105534963309764862060546875">
        <ele>71.59999847412109375</ele>
        <time>2018-09-05T14:18:25.000Z</time>
      </trkpt>
      <trkpt lat="43.39237486012279987335205078125" lon="-4.10554393194615840911865234375">
        <ele>71.8000030517578125</ele>
        <time>2018-09-05T14:18:27.000Z</time>
      </trkpt>
      <trkpt lat="43.392321802675724029541015625" lon="-4.10557226277887821197509765625">
        <ele>71.1999969482421875</ele>
        <time>2018-09-05T14:18:30.000Z</time>
      </trkpt>
      <trkpt lat="43.39233152568340301513671875" lon="-4.1055951453745365142822265625">
        <ele>71.1999969482421875</ele>
        <time>2018-09-05T14:18:31.000Z</time>
      </trkpt>
      <trkpt lat="43.3923826552927494049072265625" lon="-4.10556547343730926513671875">
        <ele>71.59999847412109375</ele>
        <time>2018-09-05T14:18:34.000Z</time>
      </trkpt>
      <trkpt lat="43.39241391979157924652099609375" lon="-4.10555684007704257965087890625">
        <ele>71.8000030517578125</ele>
        <time>2018-09-05T14:18:37.000Z</time>
      </trkpt>
      <trkpt lat="43.39242012239992618560791015625" lon="-4.1055210493505001068115234375">
        <ele>71.8000030517578125</ele>
        <time>2018-09-05T14:18:39.000Z</time>
      </trkpt>
      <trkpt lat="43.3923642151057720184326171875" lon="-4.10550705157220363616943359375">
        <ele>71.59999847412109375</ele>
        <time>2018-09-05T14:18:42.000Z</time>
      </trkpt>
      <trkpt lat="43.39234703220427036285400390625" lon="-4.1055565886199474334716796875">
        <ele>71.40000152587890625</ele>
        <time>2018-09-05T14:18:45.000Z</time>
      </trkpt>
      <trkpt lat="43.3923451043665409088134765625" lon="-4.1055699996650218963623046875">
        <ele>71.40000152587890625</ele>
        <time>2018-09-05T14:18:46.000Z</time>
      </trkpt>
      <trkpt lat="43.392280228435993194580078125" lon="-4.10560478456318378448486328125">
        <ele>70.8000030517578125</ele>
        <time>2018-09-05T14:19:57.000Z</time>
      </trkpt>
      <trkpt lat="43.39226237498223781585693359375" lon="-4.10562389530241489410400390625">
        <ele>70.59999847412109375</ele>
        <time>2018-09-05T14:19:58.000Z</time>
      </trkpt>
      <trkpt lat="43.39221275411546230316162109375" lon="-4.105699919164180755615234375">
        <ele>70.1999969482421875</ele>
        <time>2018-09-05T14:20:01.000Z</time>
      </trkpt>
      <trkpt lat="43.39217838831245899200439453125" lon="-4.1057681478559970855712890625">
        <ele>70.1999969482421875</ele>
        <time>2018-09-05T14:20:03.000Z</time>
      </trkpt>
      <trkpt lat="43.39211753569543361663818359375" lon="-4.10579270683228969573974609375">
        <ele>70</ele>
        <time>2018-09-05T14:20:05.000Z</time>
      </trkpt>
      <trkpt lat="43.392059616744518280029296875" lon="-4.10582489334046840667724609375">
        <ele>69.8000030517578125</ele>
        <time>2018-09-05T14:20:07.000Z</time>
      </trkpt>
      <trkpt lat="43.39206120930612087249755859375" lon="-4.10590049810707569122314453125">
        <ele>69.1999969482421875</ele>
        <time>2018-09-05T14:20:10.000Z</time>
      </trkpt>
      <trkpt lat="43.39199029840528964996337890625" lon="-4.1059726662933826446533203125">
        <ele>68.8000030517578125</ele>
        <time>2018-09-05T14:20:15.000Z</time>
      </trkpt>
      <trkpt lat="43.391921818256378173828125" lon="-4.10603888332843780517578125">
        <ele>68</ele>
        <time>2018-09-05T14:20:19.000Z</time>
      </trkpt>
      <trkpt lat="43.39189826510846614837646484375" lon="-4.10606897436082363128662109375">
        <ele>67.8000030517578125</ele>
        <time>2018-09-05T14:20:21.000Z</time>
      </trkpt>
      <trkpt lat="43.39182131923735141754150390625" lon="-4.10612404346466064453125">
        <ele>67</ele>
        <time>2018-09-05T14:20:25.000Z</time>
      </trkpt>
      <trkpt lat="43.39180422015488147735595703125" lon="-4.10614407621324062347412109375">
        <ele>67</ele>
        <time>2018-09-05T14:20:26.000Z</time>
      </trkpt>
      <trkpt lat="43.39172777719795703887939453125" lon="-4.10624231211841106414794921875">
        <ele>66.40000152587890625</ele>
        <time>2018-09-05T14:20:31.000Z</time>
      </trkpt>
      <trkpt lat="43.3916671760380268096923828125" lon="-4.10629763267934322357177734375">
        <ele>66.40000152587890625</ele>
        <time>2018-09-05T14:20:35.000Z</time>
      </trkpt>
      <trkpt lat="43.39164010249078273773193359375" lon="-4.10631389357149600982666015625">
        <ele>66.59999847412109375</ele>
        <time>2018-09-05T14:20:37.000Z</time>
      </trkpt>
      <trkpt lat="43.3915518410503864288330078125" lon="-4.10637726075947284698486328125">
        <ele>67</ele>
        <time>2018-09-05T14:20:43.000Z</time>
      </trkpt>
      <trkpt lat="43.39141446165740489959716796875" lon="-4.106476418673992156982421875">
        <ele>66.1999969482421875</ele>
        <time>2018-09-05T14:20:49.000Z</time>
      </trkpt>
      <trkpt lat="43.3913375996053218841552734375" lon="-4.10654959268867969512939453125">
        <ele>66.59999847412109375</ele>
        <time>2018-09-05T14:20:55.000Z</time>
      </trkpt>
      <trkpt lat="43.39031760580837726593017578125" lon="-4.11094338633120059967041015625">
        <ele>99</ele>
        <time>2018-09-06T06:19:17.000Z</time>
      </trkpt>
      <trkpt lat="43.3903321065008640289306640625" lon="-4.11095696501433849334716796875">
        <ele>99</ele>
        <time>2018-09-06T06:19:18.000Z</time>
      </trkpt>
      <trkpt lat="43.390387929975986480712890625" lon="-4.11104665137827396392822265625">
        <ele>102.1999969482421875</ele>
        <time>2018-09-06T06:19:22.000Z</time>
      </trkpt>
      <trkpt lat="43.3904068730771541595458984375" lon="-4.11107079125940799713134765625">
        <ele>101.1999969482421875</ele>
        <time>2018-09-06T06:19:23.000Z</time>
      </trkpt>
      <trkpt lat="43.39048155583441257476806640625" lon="-4.1111912392079830169677734375">
        <ele>102</ele>
        <time>2018-09-06T06:19:29.000Z</time>
      </trkpt>
      <trkpt lat="43.39049882255494594573974609375" lon="-4.11121177487075328826904296875">
        <ele>102.1999969482421875</ele>
        <time>2018-09-06T06:19:30.000Z</time>
      </trkpt>
      <trkpt lat="43.39060627855360507965087890625" lon="-4.1113484837114810943603515625">
        <ele>103</ele>
        <time>2018-09-06T06:19:37.000Z</time>
      </trkpt>
      <trkpt lat="43.39062119834125041961669921875" lon="-4.111365415155887603759765625">
        <ele>103.40000152587890625</ele>
        <time>2018-09-06T06:19:38.000Z</time>
      </trkpt>
      <trkpt lat="43.390726558864116668701171875" lon="-4.11147974431514739990234375">
        <ele>104</ele>
        <time>2018-09-06T06:19:44.000Z</time>
      </trkpt>
      <trkpt lat="43.39078313671052455902099609375" lon="-4.11153716035187244415283203125">
        <ele>104.40000152587890625</ele>
        <time>2018-09-06T06:19:47.000Z</time>
      </trkpt>
      <trkpt lat="43.39083476923406124114990234375" lon="-4.1115791536867618560791015625">
        <ele>104.8000030517578125</ele>
        <time>2018-09-06T06:19:50.000Z</time>
      </trkpt>
      <trkpt lat="43.390907607972621917724609375" lon="-4.11164872348308563232421875">
        <ele>105.40000152587890625</ele>
        <time>2018-09-06T06:19:54.000Z</time>
      </trkpt>
      <trkpt lat="43.39093417860567569732666015625" lon="-4.1116770543158054351806640625">
        <ele>105.59999847412109375</ele>
        <time>2018-09-06T06:19:56.000Z</time>
      </trkpt>
      <trkpt lat="43.39103660546243190765380859375" lon="-4.11177772097289562225341796875">
        <ele>106.40000152587890625</ele>
        <time>2018-09-06T06:20:02.000Z</time>
      </trkpt>
      <trkpt lat="43.391057141125202178955078125" lon="-4.1117923893034458160400390625">
        <ele>106.59999847412109375</ele>
        <time>2018-09-06T06:20:03.000Z</time>
      </trkpt>
      <trkpt lat="43.391160070896148681640625" lon="-4.1118882782757282257080078125">
        <ele>107.40000152587890625</ele>
        <time>2018-09-06T06:20:09.000Z</time>
      </trkpt>
      <trkpt lat="43.39117809198796749114990234375" lon="-4.1119073890149593353271484375">
        <ele>107.40000152587890625</ele>
        <time>2018-09-06T06:20:10.000Z</time>
      </trkpt>
      <trkpt lat="43.39131253771483898162841796875" lon="-4.11203068681061267852783203125">
        <ele>108.40000152587890625</ele>
        <time>2018-09-06T06:20:17.000Z</time>
      </trkpt>
      <trkpt lat="43.39146542362868785858154296875" lon="-4.11218340508639812469482421875">
        <ele>109.40000152587890625</ele>
        <time>2018-09-06T06:20:25.000Z</time>
      </trkpt>
      <trkpt lat="43.39148797094821929931640625" lon="-4.11219656467437744140625">
        <ele>109.40000152587890625</ele>
        <time>2018-09-06T06:20:26.000Z</time>
      </trkpt>
      <trkpt lat="43.39162669144570827484130859375" lon="-4.112325645983219146728515625">
        <ele>110.59999847412109375</ele>
        <time>2018-09-06T06:20:33.000Z</time>
      </trkpt>
      <trkpt lat="43.39175350964069366455078125" lon="-4.11245564930140972137451171875">
        <ele>111.59999847412109375</ele>
        <time>2018-09-06T06:20:40.000Z</time>
      </trkpt>
      <trkpt lat="43.39190463535487651824951171875" lon="-4.11258280277252197265625">
        <ele>112.59999847412109375</ele>
        <time>2018-09-06T06:20:48.000Z</time>
      </trkpt>
      <trkpt lat="43.3919836767017841339111328125" lon="-4.112640805542469024658203125">
        <ele>113.59999847412109375</ele>
        <time>2018-09-06T06:20:53.000Z</time>
      </trkpt>
      <trkpt lat="43.3920027874410152435302734375" lon="-4.1126543842256069183349609375">
        <ele>113.8000030517578125</ele>
        <time>2018-09-06T06:20:54.000Z</time>
      </trkpt>
      <trkpt lat="43.3920165337622165679931640625" lon="-4.1126734949648380279541015625">
        <ele>113.8000030517578125</ele>
        <time>2018-09-06T06:20:55.000Z</time>
      </trkpt>
      <trkpt lat="43.39213061146438121795654296875" lon="-4.1127777658402919769287109375">
        <ele>115</ele>
        <time>2018-09-06T06:21:02.000Z</time>
      </trkpt>
      <trkpt lat="43.39222465641796588897705078125" lon="-4.1128642670810222625732421875">
        <ele>116</ele>
        <time>2018-09-06T06:21:07.000Z</time>
      </trkpt>
      <trkpt lat="43.3922736905515193939208984375" lon="-4.1129118762910366058349609375">
        <ele>116.40000152587890625</ele>
        <time>2018-09-06T06:21:10.000Z</time>
      </trkpt>
      <trkpt lat="43.39233228005468845367431640625" lon="-4.11297717131674289703369140625">
        <ele>117</ele>
        <time>2018-09-06T06:21:14.000Z</time>
      </trkpt>
      <trkpt lat="43.39234803803265094757080078125" lon="-4.1129926778376102447509765625">
        <ele>117.1999969482421875</ele>
        <time>2018-09-06T06:21:15.000Z</time>
      </trkpt>
      <trkpt lat="43.3924676477909088134765625" lon="-4.113109521567821502685546875">
        <ele>118.1999969482421875</ele>
        <time>2018-09-06T06:21:22.000Z</time>
      </trkpt>
      <trkpt lat="43.39248441159725189208984375" lon="-4.11312418989837169647216796875">
        <ele>118.40000152587890625</ele>
        <time>2018-09-06T06:21:23.000Z</time>
      </trkpt>
      <trkpt lat="43.39256890118122100830078125" lon="-4.1132226772606372833251953125">
        <ele>119.40000152587890625</ele>
        <time>2018-09-06T06:21:28.000Z</time>
      </trkpt>
      <trkpt lat="43.3926220424473285675048828125" lon="-4.1132820211350917816162109375">
        <ele>119.8000030517578125</ele>
        <time>2018-09-06T06:21:31.000Z</time>
      </trkpt>
      <trkpt lat="43.392665125429630279541015625" lon="-4.1133360005915164947509765625">
        <ele>120.40000152587890625</ele>
        <time>2018-09-06T06:21:34.000Z</time>
      </trkpt>
      <trkpt lat="43.39272505603730678558349609375" lon="-4.1134209930896759033203125">
        <ele>121.1999969482421875</ele>
        <time>2018-09-06T06:21:38.000Z</time>
      </trkpt>
      <trkpt lat="43.39275388978421688079833984375" lon="-4.113471619784832000732421875">
        <ele>121.40000152587890625</ele>
        <time>2018-09-06T06:21:40.000Z</time>
      </trkpt>
      <trkpt lat="43.392809964716434478759765625" lon="-4.1136139445006847381591796875">
        <ele>122.1999969482421875</ele>
        <time>2018-09-06T06:21:45.000Z</time>
      </trkpt>
      <trkpt lat="43.39283720590174198150634765625" lon="-4.11369524896144866943359375">
        <ele>122.59999847412109375</ele>
        <time>2018-09-06T06:21:48.000Z</time>
      </trkpt>
      <trkpt lat="43.3929046802222728729248046875" lon="-4.11384402774274349212646484375">
        <ele>123.59999847412109375</ele>
        <time>2018-09-06T06:21:54.000Z</time>
      </trkpt>
      <trkpt lat="43.3929164148867130279541015625" lon="-4.1138700954616069793701171875">
        <ele>123.8000030517578125</ele>
        <time>2018-09-06T06:21:55.000Z</time>
      </trkpt>
      <trkpt lat="43.39297533966600894927978515625" lon="-4.11402256228029727935791015625">
        <ele>124.8000030517578125</ele>
        <time>2018-09-06T06:22:01.000Z</time>
      </trkpt>
      <trkpt lat="43.39301674626767635345458984375" lon="-4.114132113754749298095703125">
        <ele>125.1999969482421875</ele>
        <time>2018-09-06T06:22:05.000Z</time>
      </trkpt>
      <trkpt lat="43.3930532075464725494384765625" lon="-4.11423395387828350067138671875">
        <ele>125.8000030517578125</ele>
        <time>2018-09-06T06:22:09.000Z</time>
      </trkpt>
      <trkpt lat="43.393100313842296600341796875" lon="-4.114371836185455322265625">
        <ele>126.59999847412109375</ele>
        <time>2018-09-06T06:22:14.000Z</time>
      </trkpt>
      <trkpt lat="43.39312420226633548736572265625" lon="-4.1144548170268535614013671875">
        <ele>126.8000030517578125</ele>
        <time>2018-09-06T06:22:17.000Z</time>
      </trkpt>
      <trkpt lat="43.3931516110897064208984375" lon="-4.11458171904087066650390625">
        <ele>127.59999847412109375</ele>
        <time>2018-09-06T06:22:22.000Z</time>
      </trkpt>
      <trkpt lat="43.39317415840923786163330078125" lon="-4.1146462596952915191650390625">
        <ele>127.8000030517578125</ele>
        <time>2018-09-06T06:22:25.000Z</time>
      </trkpt>
      <trkpt lat="43.39318857528269290924072265625" lon="-4.11469730548560619354248046875">
        <ele>128.399993896484375</ele>
        <time>2018-09-06T06:22:27.000Z</time>
      </trkpt>
      <trkpt lat="43.39322243817150592803955078125" lon="-4.11482739262282848358154296875">
        <ele>129</ele>
        <time>2018-09-06T06:22:32.000Z</time>
      </trkpt>
      <trkpt lat="43.3932463265955448150634765625" lon="-4.11490132100880146026611328125">
        <ele>129.1999969482421875</ele>
        <time>2018-09-06T06:22:35.000Z</time>
      </trkpt>
      <trkpt lat="43.3932811953127384185791015625" lon="-4.11501598544418811798095703125">
        <ele>130.1999969482421875</ele>
        <time>2018-09-06T06:22:39.000Z</time>
      </trkpt>
      <trkpt lat="43.39331598021090030670166015625" lon="-4.115185551345348358154296875">
        <ele>131</ele>
        <time>2018-09-06T06:22:45.000Z</time>
      </trkpt>
      <trkpt lat="43.39332033880054950714111328125" lon="-4.11521480418741703033447265625">
        <ele>131.1999969482421875</ele>
        <time>2018-09-06T06:22:46.000Z</time>
      </trkpt>
      <trkpt lat="43.39337465353310108184814453125" lon="-4.11540557630360126495361328125">
        <ele>132.1999969482421875</ele>
        <time>2018-09-06T06:22:53.000Z</time>
      </trkpt>
      <trkpt lat="43.3933795988559722900390625" lon="-4.11543256603181362152099609375">
        <ele>132.399993896484375</ele>
        <time>2018-09-06T06:22:54.000Z</time>
      </trkpt>
      <trkpt lat="43.39341773651540279388427734375" lon="-4.11559953354299068450927734375">
        <ele>133.399993896484375</ele>
        <time>2018-09-06T06:23:00.000Z</time>
      </trkpt>
      <trkpt lat="43.39344439096748828887939453125" lon="-4.11570967175066471099853515625">
        <ele>134.1999969482421875</ele>
        <time>2018-09-06T06:23:04.000Z</time>
      </trkpt>
      <trkpt lat="43.39345076121389865875244140625" lon="-4.115738756954669952392578125">
        <ele>134.600006103515625</ele>
        <time>2018-09-06T06:23:05.000Z</time>
      </trkpt>
      <trkpt lat="43.39348412118852138519287109375" lon="-4.1159276850521564483642578125">
        <ele>135.1999969482421875</ele>
        <time>2018-09-06T06:23:12.000Z</time>
      </trkpt>
      <trkpt lat="43.39348294772207736968994140625" lon="-4.11604712717235088348388671875">
        <ele>135.600006103515625</ele>
        <time>2018-09-06T06:23:16.000Z</time>
      </trkpt>
      <trkpt lat="43.39347540400922298431396484375" lon="-4.11613530479371547698974609375">
        <ele>136.1999969482421875</ele>
        <time>2018-09-06T06:23:19.000Z</time>
      </trkpt>
      <trkpt lat="43.39347221888601779937744140625" lon="-4.1161674074828624725341796875">
        <ele>136.600006103515625</ele>
        <time>2018-09-06T06:23:20.000Z</time>
      </trkpt>
      <trkpt lat="43.39344237931072711944580078125" lon="-4.11629791371524333953857421875">
        <ele>137.600006103515625</ele>
        <time>2018-09-06T06:23:25.000Z</time>
      </trkpt>
      <trkpt lat="43.3934347517788410186767578125" lon="-4.1163531504571437835693359375">
        <ele>137.8000030517578125</ele>
        <time>2018-09-06T06:23:27.000Z</time>
      </trkpt>
      <trkpt lat="43.39341388083994388580322265625" lon="-4.11643990315496921539306640625">
        <ele>138.8000030517578125</ele>
        <time>2018-09-06T06:23:31.000Z</time>
      </trkpt>
      <trkpt lat="43.39339912869036197662353515625" lon="-4.11648474633693695068359375">
        <ele>139</ele>
        <time>2018-09-06T06:23:33.000Z</time>
      </trkpt>
      <trkpt lat="43.39335436932742595672607421875" lon="-4.11661483347415924072265625">
        <ele>139.600006103515625</ele>
        <time>2018-09-06T06:23:39.000Z</time>
      </trkpt>
      <trkpt lat="43.3933432213962078094482421875" lon="-4.116639308631420135498046875">
        <ele>140</ele>
        <time>2018-09-06T06:23:40.000Z</time>
      </trkpt>
      <trkpt lat="43.39330424554646015167236328125" lon="-4.11680501885712146759033203125">
        <ele>141</ele>
        <time>2018-09-06T06:23:47.000Z</time>
      </trkpt>
      <trkpt lat="43.39333039708435535430908203125" lon="-4.11695622839033603668212890625">
        <ele>142</ele>
        <time>2018-09-06T06:23:53.000Z</time>
      </trkpt>
      <trkpt lat="43.39343366213142871856689453125" lon="-4.11708782427012920379638671875">
        <ele>142.8000030517578125</ele>
        <time>2018-09-06T06:24:00.000Z</time>
      </trkpt>
      <trkpt lat="43.39349283836781978607177734375" lon="-4.1171249561011791229248046875">
        <ele>143</ele>
        <time>2018-09-06T06:24:03.000Z</time>
      </trkpt>
      <trkpt lat="43.393600545823574066162109375" lon="-4.1172359324991703033447265625">
        <ele>143.399993896484375</ele>
        <time>2018-09-06T06:24:09.000Z</time>
      </trkpt>
      <trkpt lat="43.39361353777348995208740234375" lon="-4.11726166494190692901611328125">
        <ele>143.600006103515625</ele>
        <time>2018-09-06T06:24:10.000Z</time>
      </trkpt>
      <trkpt lat="43.39365653693675994873046875" lon="-4.1174049116671085357666015625">
        <ele>144</ele>
        <time>2018-09-06T06:24:15.000Z</time>
      </trkpt>
      <trkpt lat="43.39365812949836254119873046875" lon="-4.11743852309882640838623046875">
        <ele>144</ele>
        <time>2018-09-06T06:24:16.000Z</time>
      </trkpt>
      <trkpt lat="43.39366315864026546478271484375" lon="-4.1175386868417263031005859375">
        <ele>143.8000030517578125</ele>
        <time>2018-09-06T06:24:19.000Z</time>
      </trkpt>
      <trkpt lat="43.39361974038183689117431640625" lon="-4.117641448974609375">
        <ele>144</ele>
        <time>2018-09-06T06:24:22.000Z</time>
      </trkpt>
      <trkpt lat="43.3935574628412723541259765625" lon="-4.1177452169358730316162109375">
        <ele>144.1999969482421875</ele>
        <time>2018-09-06T06:24:25.000Z</time>
      </trkpt>
      <trkpt lat="43.39349158108234405517578125" lon="-4.11787857301533222198486328125">
        <ele>144</ele>
        <time>2018-09-06T06:24:28.000Z</time>
      </trkpt>
      <trkpt lat="43.3934461511671543121337890625" lon="-4.1180384159088134765625">
        <ele>143.399993896484375</ele>
        <time>2018-09-06T06:24:31.000Z</time>
      </trkpt>
      <trkpt lat="43.393442295491695404052734375" lon="-4.1180932335555553436279296875">
        <ele>143.1999969482421875</ele>
        <time>2018-09-06T06:24:32.000Z</time>
      </trkpt>
      <trkpt lat="43.39344673790037631988525390625" lon="-4.11819675005972385406494140625">
        <ele>142.8000030517578125</ele>
        <time>2018-09-06T06:24:34.000Z</time>
      </trkpt>
      <trkpt lat="43.39344958774745464324951171875" lon="-4.1182436048984527587890625">
        <ele>143</ele>
        <time>2018-09-06T06:24:35.000Z</time>
      </trkpt>
      <trkpt lat="43.39346283115446567535400390625" lon="-4.11833153106272220611572265625">
        <ele>143.600006103515625</ele>
        <time>2018-09-06T06:24:37.000Z</time>
      </trkpt>
      <trkpt lat="43.39348831214010715484619140625" lon="-4.11846094764769077301025390625">
        <ele>143.600006103515625</ele>
        <time>2018-09-06T06:24:40.000Z</time>
      </trkpt>
      <trkpt lat="43.39351664297282695770263671875" lon="-4.11854225210845470428466796875">
        <ele>144.1999969482421875</ele>
        <time>2018-09-06T06:24:42.000Z</time>
      </trkpt>
      <trkpt lat="43.39361764490604400634765625" lon="-4.11885716021060943603515625">
        <ele>144.8000030517578125</ele>
        <time>2018-09-06T06:24:49.000Z</time>
      </trkpt>
      <trkpt lat="43.39368612505495548248291015625" lon="-4.11931154318153858184814453125">
        <ele>144.399993896484375</ele>
        <time>2018-09-06T06:24:57.000Z</time>
      </trkpt>
      <trkpt lat="43.39369819499552249908447265625" lon="-4.1197407804429531097412109375">
        <ele>143.600006103515625</ele>
        <time>2018-09-06T06:25:04.000Z</time>
      </trkpt>
      <trkpt lat="43.39369517751038074493408203125" lon="-4.1198095120489597320556640625">
        <ele>143.399993896484375</ele>
        <time>2018-09-06T06:25:05.000Z</time>
      </trkpt>
      <trkpt lat="43.393691070377826690673828125" lon="-4.1198795847594738006591796875">
        <ele>143.399993896484375</ele>
        <time>2018-09-06T06:25:06.000Z</time>
      </trkpt>
      <trkpt lat="43.39367824606597423553466796875" lon="-4.12001989781856536865234375">
        <ele>143</ele>
        <time>2018-09-06T06:25:08.000Z</time>
      </trkpt>
      <trkpt lat="43.3936272002756595611572265625" lon="-4.12031494081020355224609375">
        <ele>142</ele>
        <time>2018-09-06T06:25:12.000Z</time>
      </trkpt>
      <trkpt lat="43.393605910241603851318359375" lon="-4.1203865222632884979248046875">
        <ele>141.8000030517578125</ele>
        <time>2018-09-06T06:25:13.000Z</time>
      </trkpt>
      <trkpt lat="43.3935271203517913818359375" lon="-4.12061844952404499053955078125">
        <ele>140.8000030517578125</ele>
        <time>2018-09-06T06:25:16.000Z</time>
      </trkpt>
      <trkpt lat="43.39342989027500152587890625" lon="-4.12087108008563518524169921875">
        <ele>139.600006103515625</ele>
        <time>2018-09-06T06:25:19.000Z</time>
      </trkpt>
      <trkpt lat="43.39330650866031646728515625" lon="-4.12114768289029598236083984375">
        <ele>138.600006103515625</ele>
        <time>2018-09-06T06:25:22.000Z</time>
      </trkpt>
      <trkpt lat="43.39321120642125606536865234375" lon="-4.12135102786123752593994140625">
        <ele>136.8000030517578125</ele>
        <time>2018-09-06T06:25:24.000Z</time>
      </trkpt>
      <trkpt lat="43.39306871406733989715576171875" lon="-4.12168798036873340606689453125">
        <ele>135.600006103515625</ele>
        <time>2018-09-06T06:25:27.000Z</time>
      </trkpt>
      <trkpt lat="43.39298472739756107330322265625" lon="-4.1219324804842472076416015625">
        <ele>133.600006103515625</ele>
        <time>2018-09-06T06:25:29.000Z</time>
      </trkpt>
      <trkpt lat="43.39295287616550922393798828125" lon="-4.1220662556588649749755859375">
        <ele>133.1999969482421875</ele>
        <time>2018-09-06T06:25:30.000Z</time>
      </trkpt>
      <trkpt lat="43.392925970256328582763671875" lon="-4.12220380268990993499755859375">
        <ele>132.1999969482421875</ele>
        <time>2018-09-06T06:25:31.000Z</time>
      </trkpt>
      <trkpt lat="43.39290241710841655731201171875" lon="-4.12234327755868434906005859375">
        <ele>130.600006103515625</ele>
        <time>2018-09-06T06:25:32.000Z</time>
      </trkpt>
      <trkpt lat="43.392885737121105194091796875" lon="-4.1224843449890613555908203125">
        <ele>128.399993896484375</ele>
        <time>2018-09-06T06:25:33.000Z</time>
      </trkpt>
      <trkpt lat="43.392869643867015838623046875" lon="-4.12262842990458011627197265625">
        <ele>126.40000152587890625</ele>
        <time>2018-09-06T06:25:34.000Z</time>
      </trkpt>
      <trkpt lat="43.39285681955516338348388671875" lon="-4.1227740235626697540283203125">
        <ele>125.40000152587890625</ele>
        <time>2018-09-06T06:25:35.000Z</time>
      </trkpt>
      <trkpt lat="43.39282614178955554962158203125" lon="-4.12306412123143672943115234375">
        <ele>123.8000030517578125</ele>
        <time>2018-09-06T06:25:37.000Z</time>
      </trkpt>
      <trkpt lat="43.39278087951242923736572265625" lon="-4.1233580745756626129150390625">
        <ele>122.40000152587890625</ele>
        <time>2018-09-06T06:25:39.000Z</time>
      </trkpt>
      <trkpt lat="43.39270242489874362945556640625" lon="-4.123660661280155181884765625">
        <ele>120.40000152587890625</ele>
        <time>2018-09-06T06:25:41.000Z</time>
      </trkpt>
      <trkpt lat="43.392645679414272308349609375" lon="-4.12380793131887912750244140625">
        <ele>119.40000152587890625</ele>
        <time>2018-09-06T06:25:42.000Z</time>
      </trkpt>
      <trkpt lat="43.39257988147437572479248046875" lon="-4.12395126186311244964599609375">
        <ele>118.59999847412109375</ele>
        <time>2018-09-06T06:25:43.000Z</time>
      </trkpt>
      <trkpt lat="43.39251257479190826416015625" lon="-4.12409040145576000213623046875">
        <ele>117.59999847412109375</ele>
        <time>2018-09-06T06:25:44.000Z</time>
      </trkpt>
      <trkpt lat="43.3924408257007598876953125" lon="-4.12423691712319850921630859375">
        <ele>116.40000152587890625</ele>
        <time>2018-09-06T06:25:45.000Z</time>
      </trkpt>
      <trkpt lat="43.39230713434517383575439453125" lon="-4.12454587407410144805908203125">
        <ele>114.1999969482421875</ele>
        <time>2018-09-06T06:25:47.000Z</time>
      </trkpt>
      <trkpt lat="43.392261452972888946533203125" lon="-4.12471183575689792633056640625">
        <ele>113.59999847412109375</ele>
        <time>2018-09-06T06:25:48.000Z</time>
      </trkpt>
      <trkpt lat="43.39222901500761508941650390625" lon="-4.1248835809528827667236328125">
        <ele>112.40000152587890625</ele>
        <time>2018-09-06T06:25:49.000Z</time>
      </trkpt>
      <trkpt lat="43.39221158064901828765869140625" lon="-4.1250590980052947998046875">
        <ele>111</ele>
        <time>2018-09-06T06:25:50.000Z</time>
      </trkpt>
      <trkpt lat="43.39220722205936908721923828125" lon="-4.12523536942899227142333984375">
        <ele>109.40000152587890625</ele>
        <time>2018-09-06T06:25:51.000Z</time>
      </trkpt>
      <trkpt lat="43.392222560942173004150390625" lon="-4.12541172467172145843505859375">
        <ele>107.8000030517578125</ele>
        <time>2018-09-06T06:25:52.000Z</time>
      </trkpt>
      <trkpt lat="43.39225064031779766082763671875" lon="-4.1255876608192920684814453125">
        <ele>105.59999847412109375</ele>
        <time>2018-09-06T06:25:53.000Z</time>
      </trkpt>
      <trkpt lat="43.39235206134617328643798828125" lon="-4.1259158961474895477294921875">
        <ele>103.8000030517578125</ele>
        <time>2018-09-06T06:25:55.000Z</time>
      </trkpt>
      <trkpt lat="43.39241023175418376922607421875" lon="-4.12607171572744846343994140625">
        <ele>103.1999969482421875</ele>
        <time>2018-09-06T06:25:56.000Z</time>
      </trkpt>
      <trkpt lat="43.39247376658022403717041015625" lon="-4.12622611038386821746826171875">
        <ele>102.59999847412109375</ele>
        <time>2018-09-06T06:25:57.000Z</time>
      </trkpt>
      <trkpt lat="43.39259597472846508026123046875" lon="-4.12653439678251743316650390625">
        <ele>101.40000152587890625</ele>
        <time>2018-09-06T06:25:59.000Z</time>
      </trkpt>
      <trkpt lat="43.3926582522690296173095703125" lon="-4.12669398821890354156494140625">
        <ele>100</ele>
        <time>2018-09-06T06:26:00.000Z</time>
      </trkpt>
      <trkpt lat="43.3927199430763721466064453125" lon="-4.1268479637801647186279296875">
        <ele>98.40000152587890625</ele>
        <time>2018-09-06T06:26:01.000Z</time>
      </trkpt>
      <trkpt lat="43.39277819730341434478759765625" lon="-4.12700973451137542724609375">
        <ele>97.40000152587890625</ele>
        <time>2018-09-06T06:26:02.000Z</time>
      </trkpt>
      <trkpt lat="43.392832092940807342529296875" lon="-4.12717611528933048248291015625">
        <ele>96.40000152587890625</ele>
        <time>2018-09-06T06:26:03.000Z</time>
      </trkpt>
      <trkpt lat="43.39288112707436084747314453125" lon="-4.12734140641987323760986328125">
        <ele>95.1999969482421875</ele>
        <time>2018-09-06T06:26:04.000Z</time>
      </trkpt>
      <trkpt lat="43.3929271437227725982666015625" lon="-4.1275091283023357391357421875">
        <ele>94</ele>
        <time>2018-09-06T06:26:05.000Z</time>
      </trkpt>
      <trkpt lat="43.392969556152820587158203125" lon="-4.1276764310896396636962890625">
        <ele>92.59999847412109375</ele>
        <time>2018-09-06T06:26:06.000Z</time>
      </trkpt>
      <trkpt lat="43.39304096996784210205078125" lon="-4.12801346741616725921630859375">
        <ele>91.40000152587890625</ele>
        <time>2018-09-06T06:26:08.000Z</time>
      </trkpt>
      <trkpt lat="43.39309654198586940765380859375" lon="-4.128351844847202301025390625">
        <ele>89.8000030517578125</ele>
        <time>2018-09-06T06:26:10.000Z</time>
      </trkpt>
      <trkpt lat="43.39311875402927398681640625" lon="-4.12852157838642597198486328125">
        <ele>88.8000030517578125</ele>
        <time>2018-09-06T06:26:11.000Z</time>
      </trkpt>
      <trkpt lat="43.39315094053745269775390625" lon="-4.1288623027503490447998046875">
        <ele>87</ele>
        <time>2018-09-06T06:26:13.000Z</time>
      </trkpt>
      <trkpt lat="43.3931729011237621307373046875" lon="-4.1293806396424770355224609375">
        <ele>85.40000152587890625</ele>
        <time>2018-09-06T06:26:16.000Z</time>
      </trkpt>
      <trkpt lat="43.39317482896149158477783203125" lon="-4.12971549667418003082275390625">
        <ele>83.1999969482421875</ele>
        <time>2018-09-06T06:26:18.000Z</time>
      </trkpt>
      <trkpt lat="43.39316996745765209197998046875" lon="-4.12988145835697650909423828125">
        <ele>81.59999847412109375</ele>
        <time>2018-09-06T06:26:19.000Z</time>
      </trkpt>
      <trkpt lat="43.39316141791641712188720703125" lon="-4.13004708476364612579345703125">
        <ele>80</ele>
        <time>2018-09-06T06:26:20.000Z</time>
      </trkpt>
      <trkpt lat="43.3931138925254344940185546875" lon="-4.13054010830819606781005859375">
        <ele>79</ele>
        <time>2018-09-06T06:26:23.000Z</time>
      </trkpt>
      <trkpt lat="43.39308128692209720611572265625" lon="-4.1308714449405670166015625">
        <ele>76.8000030517578125</ele>
        <time>2018-09-06T06:26:25.000Z</time>
      </trkpt>
      <trkpt lat="43.39307122863829135894775390625" lon="-4.1312001831829547882080078125">
        <ele>75.59999847412109375</ele>
        <time>2018-09-06T06:26:27.000Z</time>
      </trkpt>
      <trkpt lat="43.3930790238082408905029296875" lon="-4.131362624466419219970703125">
        <ele>75</ele>
        <time>2018-09-06T06:26:28.000Z</time>
      </trkpt>
      <trkpt lat="43.39309327304363250732421875" lon="-4.131524227559566497802734375">
        <ele>74.59999847412109375</ele>
        <time>2018-09-06T06:26:29.000Z</time>
      </trkpt>
      <trkpt lat="43.393123447895050048828125" lon="-4.13168004713952541351318359375">
        <ele>74</ele>
        <time>2018-09-06T06:26:30.000Z</time>
      </trkpt>
      <trkpt lat="43.393243141472339630126953125" lon="-4.13212194107472896575927734375">
        <ele>72.59999847412109375</ele>
        <time>2018-09-06T06:26:33.000Z</time>
      </trkpt>
      <trkpt lat="43.39337280951440334320068359375" lon="-4.1325459815561771392822265625">
        <ele>71.1999969482421875</ele>
        <time>2018-09-06T06:26:36.000Z</time>
      </trkpt>
      <trkpt lat="43.393459729850292205810546875" lon="-4.13282568566501140594482421875">
        <ele>70.1999969482421875</ele>
        <time>2018-09-06T06:26:38.000Z</time>
      </trkpt>
      <trkpt lat="43.393544889986515045166015625" lon="-4.13310497067868709564208984375">
        <ele>68.59999847412109375</ele>
        <time>2018-09-06T06:26:40.000Z</time>
      </trkpt>
      <trkpt lat="43.39358537457883358001708984375" lon="-4.13324587047100067138671875">
        <ele>68</ele>
        <time>2018-09-06T06:26:41.000Z</time>
      </trkpt>
      <trkpt lat="43.3936261944472789764404296875" lon="-4.133383333683013916015625">
        <ele>66.59999847412109375</ele>
        <time>2018-09-06T06:26:42.000Z</time>
      </trkpt>
      <trkpt lat="43.39366567321121692657470703125" lon="-4.1335187852382659912109375">
        <ele>65.1999969482421875</ele>
        <time>2018-09-06T06:26:43.000Z</time>
      </trkpt>
      <trkpt lat="43.39370490051805973052978515625" lon="-4.133649207651615142822265625">
        <ele>63.799999237060546875</ele>
        <time>2018-09-06T06:26:44.000Z</time>
      </trkpt>
      <trkpt lat="43.39378201402723789215087890625" lon="-4.13390410132706165313720703125">
        <ele>63.200000762939453125</ele>
        <time>2018-09-06T06:26:46.000Z</time>
      </trkpt>
      <trkpt lat="43.39382006786763668060302734375" lon="-4.1340284049510955810546875">
        <ele>63</ele>
        <time>2018-09-06T06:26:47.000Z</time>
      </trkpt>
      <trkpt lat="43.39385745115578174591064453125" lon="-4.1341512836515903472900390625">
        <ele>62.59999847412109375</ele>
        <time>2018-09-06T06:26:48.000Z</time>
      </trkpt>
      <trkpt lat="43.393895588815212249755859375" lon="-4.134268797934055328369140625">
        <ele>61.799999237060546875</ele>
        <time>2018-09-06T06:26:49.000Z</time>
      </trkpt>
      <trkpt lat="43.3940053917467594146728515625" lon="-4.13460818119347095489501953125">
        <ele>62</ele>
        <time>2018-09-06T06:26:52.000Z</time>
      </trkpt>
      <trkpt lat="43.39410924352705478668212890625" lon="-4.13492627441883087158203125">
        <ele>63</ele>
        <time>2018-09-06T06:26:55.000Z</time>
      </trkpt>
      <trkpt lat="43.39428626932203769683837890625" lon="-4.1354897059500217437744140625">
        <ele>62.40000152587890625</ele>
        <time>2018-09-06T06:27:01.000Z</time>
      </trkpt>
      <trkpt lat="43.39438366703689098358154296875" lon="-4.13580612279474735260009765625">
        <ele>62.799999237060546875</ele>
        <time>2018-09-06T06:27:05.000Z</time>
      </trkpt>
      <trkpt lat="43.39443110860884189605712890625" lon="-4.13594509474933147430419921875">
        <ele>63.200000762939453125</ele>
        <time>2018-09-06T06:27:07.000Z</time>
      </trkpt>
      <trkpt lat="43.3944498002529144287109375" lon="-4.1360164247453212738037109375">
        <ele>63.799999237060546875</ele>
        <time>2018-09-06T06:27:08.000Z</time>
      </trkpt>
      <trkpt lat="43.3944942243397235870361328125" lon="-4.13615204393863677978515625">
        <ele>65</ele>
        <time>2018-09-06T06:27:10.000Z</time>
      </trkpt>
      <trkpt lat="43.39454091154038906097412109375" lon="-4.13628238253295421600341796875">
        <ele>65.1999969482421875</ele>
        <time>2018-09-06T06:27:12.000Z</time>
      </trkpt>
      <trkpt lat="43.39458131231367588043212890625" lon="-4.136414565145969390869140625">
        <ele>64.8000030517578125</ele>
        <time>2018-09-06T06:27:14.000Z</time>
      </trkpt>
      <trkpt lat="43.394602350890636444091796875" lon="-4.13647868670523166656494140625">
        <ele>64.8000030517578125</ele>
        <time>2018-09-06T06:27:15.000Z</time>
      </trkpt>
      <trkpt lat="43.39466043747961521148681640625" lon="-4.13666862063109874725341796875">
        <ele>65</ele>
        <time>2018-09-06T06:27:18.000Z</time>
      </trkpt>
      <trkpt lat="43.39480896480381488800048828125" lon="-4.13706290535628795623779296875">
        <ele>66</ele>
        <time>2018-09-06T06:27:25.000Z</time>
      </trkpt>
      <trkpt lat="43.39483008719980716705322265625" lon="-4.1371147893369197845458984375">
        <ele>66.1999969482421875</ele>
        <time>2018-09-06T06:27:26.000Z</time>
      </trkpt>
      <trkpt lat="43.39492597617208957672119140625" lon="-4.1374509036540985107421875">
        <ele>66.40000152587890625</ele>
        <time>2018-09-06T06:27:32.000Z</time>
      </trkpt>
      <trkpt lat="43.395107947289943695068359375" lon="-4.1380632854998111724853515625">
        <ele>66.8000030517578125</ele>
        <time>2018-09-06T06:27:42.000Z</time>
      </trkpt>
      <trkpt lat="43.3953201770782470703125" lon="-4.1386523656547069549560546875">
        <ele>66</ele>
        <time>2018-09-06T06:27:51.000Z</time>
      </trkpt>
      <trkpt lat="43.39538832195103168487548828125" lon="-4.1388411261141300201416015625">
        <ele>65.59999847412109375</ele>
        <time>2018-09-06T06:27:54.000Z</time>
      </trkpt>
      <trkpt lat="43.395503573119640350341796875" lon="-4.13916525430977344512939453125">
        <ele>66</ele>
        <time>2018-09-06T06:27:59.000Z</time>
      </trkpt>
      <trkpt lat="43.39558881707489490509033203125" lon="-4.1394265182316303253173828125">
        <ele>65.8000030517578125</ele>
        <time>2018-09-06T06:28:03.000Z</time>
      </trkpt>
      <trkpt lat="43.39570348151028156280517578125" lon="-4.13982960395514965057373046875">
        <ele>66.1999969482421875</ele>
        <time>2018-09-06T06:28:09.000Z</time>
      </trkpt>
      <trkpt lat="43.39579484425485134124755859375" lon="-4.140261523425579071044921875">
        <ele>65</ele>
        <time>2018-09-06T06:28:15.000Z</time>
      </trkpt>
      <trkpt lat="43.39582066051661968231201171875" lon="-4.1404048539698123931884765625">
        <ele>64.59999847412109375</ele>
        <time>2018-09-06T06:28:17.000Z</time>
      </trkpt>
      <trkpt lat="43.3958581276237964630126953125" lon="-4.1406197659671306610107421875">
        <ele>65.1999969482421875</ele>
        <time>2018-09-06T06:28:20.000Z</time>
      </trkpt>
      <trkpt lat="43.39591671712696552276611328125" lon="-4.14102368988096714019775390625">
        <ele>65</ele>
        <time>2018-09-06T06:28:26.000Z</time>
      </trkpt>
      <trkpt lat="43.39597438462078571319580078125" lon="-4.1413697786629199981689453125">
        <ele>66.40000152587890625</ele>
        <time>2018-09-06T06:28:32.000Z</time>
      </trkpt>
      <trkpt lat="43.3959805034101009368896484375" lon="-4.14142132736742496490478515625">
        <ele>66.8000030517578125</ele>
        <time>2018-09-06T06:28:33.000Z</time>
      </trkpt>
      <trkpt lat="43.39603833854198455810546875" lon="-4.1417627222836017608642578125">
        <ele>66.8000030517578125</ele>
        <time>2018-09-06T06:28:40.000Z</time>
      </trkpt>
      <trkpt lat="43.3960452117025852203369140625" lon="-4.14181091822683811187744140625">
        <ele>66.8000030517578125</ele>
        <time>2018-09-06T06:28:41.000Z</time>
      </trkpt>
      <trkpt lat="43.39608016423881053924560546875" lon="-4.1420446895062923431396484375">
        <ele>67.40000152587890625</ele>
        <time>2018-09-06T06:28:46.000Z</time>
      </trkpt>
      <trkpt lat="43.3961102552711963653564453125" lon="-4.1422233916819095611572265625">
        <ele>68.1999969482421875</ele>
        <time>2018-09-06T06:28:50.000Z</time>
      </trkpt>
      <trkpt lat="43.39612307958304882049560546875" lon="-4.1423119045794010162353515625">
        <ele>68.59999847412109375</ele>
        <time>2018-09-06T06:28:52.000Z</time>
      </trkpt>
      <trkpt lat="43.39615157805383205413818359375" lon="-4.14249370805919170379638671875">
        <ele>69.59999847412109375</ele>
        <time>2018-09-06T06:28:56.000Z</time>
      </trkpt>
      <trkpt lat="43.39617236517369747161865234375" lon="-4.142625890672206878662109375">
        <ele>69.40000152587890625</ele>
        <time>2018-09-06T06:28:59.000Z</time>
      </trkpt>
      <trkpt lat="43.39623439125716686248779296875" lon="-4.14305915124714374542236328125">
        <ele>70.1999969482421875</ele>
        <time>2018-09-06T06:29:09.000Z</time>
      </trkpt>
      <trkpt lat="43.39625048451125621795654296875" lon="-4.1431430540978908538818359375">
        <ele>70.59999847412109375</ele>
        <time>2018-09-06T06:29:11.000Z</time>
      </trkpt>
      <trkpt lat="43.3962856046855449676513671875" lon="-4.14339962415397167205810546875">
        <ele>71.40000152587890625</ele>
        <time>2018-09-06T06:29:17.000Z</time>
      </trkpt>
      <trkpt lat="43.3963010273873805999755859375" lon="-4.14351110346615314483642578125">
        <ele>71.8000030517578125</ele>
        <time>2018-09-06T06:29:20.000Z</time>
      </trkpt>
      <trkpt lat="43.3963258378207683563232421875" lon="-4.1436181403696537017822265625">
        <ele>72.1999969482421875</ele>
        <time>2018-09-06T06:29:23.000Z</time>
      </trkpt>
      <trkpt lat="43.39635374955832958221435546875" lon="-4.14386549033224582672119140625">
        <ele>72.8000030517578125</ele>
        <time>2018-09-06T06:29:30.000Z</time>
      </trkpt>
      <trkpt lat="43.3963593654334545135498046875" lon="-4.14389633573591709136962890625">
        <ele>73</ele>
        <time>2018-09-06T06:29:31.000Z</time>
      </trkpt>
      <trkpt lat="43.3963915519416332244873046875" lon="-4.14408241398632526397705078125">
        <ele>73.8000030517578125</ele>
        <time>2018-09-06T06:29:37.000Z</time>
      </trkpt>
      <trkpt lat="43.3963945694267749786376953125" lon="-4.14412046782672405242919921875">
        <ele>74</ele>
        <time>2018-09-06T06:29:38.000Z</time>
      </trkpt>
      <trkpt lat="43.39642591774463653564453125" lon="-4.144344516098499298095703125">
        <ele>75.1999969482421875</ele>
        <time>2018-09-06T06:29:44.000Z</time>
      </trkpt>
      <trkpt lat="43.39643203653395175933837890625" lon="-4.144443757832050323486328125">
        <ele>75.59999847412109375</ele>
        <time>2018-09-06T06:29:47.000Z</time>
      </trkpt>
      <trkpt lat="43.39644494466483592987060546875" lon="-4.14462539367377758026123046875">
        <ele>76.40000152587890625</ele>
        <time>2018-09-06T06:29:53.000Z</time>
      </trkpt>
      <trkpt lat="43.39644360356032848358154296875" lon="-4.14471725933253765106201171875">
        <ele>76.8000030517578125</ele>
        <time>2018-09-06T06:29:56.000Z</time>
      </trkpt>
      <trkpt lat="43.396436311304569244384765625" lon="-4.1448740847408771514892578125">
        <ele>77.59999847412109375</ele>
        <time>2018-09-06T06:30:01.000Z</time>
      </trkpt>
      <trkpt lat="43.39643455110490322113037109375" lon="-4.14501867257058620452880859375">
        <ele>78.40000152587890625</ele>
        <time>2018-09-06T06:30:06.000Z</time>
      </trkpt>
      <trkpt lat="43.3964270912110805511474609375" lon="-4.1451486758887767791748046875">
        <ele>78.8000030517578125</ele>
        <time>2018-09-06T06:30:11.000Z</time>
      </trkpt>
      <trkpt lat="43.3964207209646701812744140625" lon="-4.145279265940189361572265625">
        <ele>79.59999847412109375</ele>
        <time>2018-09-06T06:30:16.000Z</time>
      </trkpt>
      <trkpt lat="43.39641443453729152679443359375" lon="-4.1453324072062969207763671875">
        <ele>80</ele>
        <time>2018-09-06T06:30:18.000Z</time>
      </trkpt>
      <trkpt lat="43.3963890373706817626953125" lon="-4.1454856283962726593017578125">
        <ele>80.40000152587890625</ele>
        <time>2018-09-06T06:30:24.000Z</time>
      </trkpt>
      <trkpt lat="43.396379984915256500244140625" lon="-4.14556634612381458282470703125">
        <ele>81</ele>
        <time>2018-09-06T06:30:27.000Z</time>
      </trkpt>
      <trkpt lat="43.39635140262544155120849609375" lon="-4.1457558609545230865478515625">
        <ele>81.40000152587890625</ele>
        <time>2018-09-06T06:30:34.000Z</time>
      </trkpt>
      <trkpt lat="43.39632474817335605621337890625" lon="-4.1459285281598567962646484375">
        <ele>82</ele>
        <time>2018-09-06T06:30:40.000Z</time>
      </trkpt>
      <trkpt lat="43.3963221497833728790283203125" lon="-4.14595778100192546844482421875">
        <ele>82.40000152587890625</ele>
        <time>2018-09-06T06:30:41.000Z</time>
      </trkpt>
      <trkpt lat="43.39629624970257282257080078125" lon="-4.1461306996643543243408203125">
        <ele>82.8000030517578125</ele>
        <time>2018-09-06T06:30:47.000Z</time>
      </trkpt>
      <trkpt lat="43.3962819166481494903564453125" lon="-4.146223403513431549072265625">
        <ele>83.1999969482421875</ele>
        <time>2018-09-06T06:30:50.000Z</time>
      </trkpt>
      <trkpt lat="43.396232463419437408447265625" lon="-4.1465803049504756927490234375">
        <ele>84.1999969482421875</ele>
        <time>2018-09-06T06:31:00.000Z</time>
      </trkpt>
      <trkpt lat="43.3962091617286205291748046875" lon="-4.14689672179520130157470703125">
        <ele>83.40000152587890625</ele>
        <time>2018-09-06T06:31:07.000Z</time>
      </trkpt>
      <trkpt lat="43.39620756916701793670654296875" lon="-4.146948270499706268310546875">
        <ele>83.1999969482421875</ele>
        <time>2018-09-06T06:31:08.000Z</time>
      </trkpt>
      <trkpt lat="43.39620723389089107513427734375" lon="-4.14722261019051074981689453125">
        <ele>83.1999969482421875</ele>
        <time>2018-09-06T06:31:13.000Z</time>
      </trkpt>
      <trkpt lat="43.396214358508586883544921875" lon="-4.147345907986164093017578125">
        <ele>82.8000030517578125</ele>
        <time>2018-09-06T06:31:15.000Z</time>
      </trkpt>
      <trkpt lat="43.39622835628688335418701171875" lon="-4.14752989076077938079833984375">
        <ele>82.59999847412109375</ele>
        <time>2018-09-06T06:31:18.000Z</time>
      </trkpt>
      <trkpt lat="43.3962410129606723785400390625" lon="-4.14765360765159130096435546875">
        <ele>82.1999969482421875</ele>
        <time>2018-09-06T06:31:20.000Z</time>
      </trkpt>
      <trkpt lat="43.39625014923512935638427734375" lon="-4.1477152146399021148681640625">
        <ele>82</ele>
        <time>2018-09-06T06:31:21.000Z</time>
      </trkpt>
      <trkpt lat="43.39625735767185688018798828125" lon="-4.1477782465517520904541015625">
        <ele>81.8000030517578125</ele>
        <time>2018-09-06T06:31:22.000Z</time>
      </trkpt>
      <trkpt lat="43.396278060972690582275390625" lon="-4.14797094650566577911376953125">
        <ele>81.8000030517578125</ele>
        <time>2018-09-06T06:31:25.000Z</time>
      </trkpt>
      <trkpt lat="43.3963020332157611846923828125" lon="-4.14816322736442089080810546875">
        <ele>81.8000030517578125</ele>
        <time>2018-09-06T06:31:28.000Z</time>
      </trkpt>
      <trkpt lat="43.39631686918437480926513671875" lon="-4.14829582907259464263916015625">
        <ele>80.59999847412109375</ele>
        <time>2018-09-06T06:31:30.000Z</time>
      </trkpt>
      <trkpt lat="43.39634134434163570404052734375" lon="-4.14856388233602046966552734375">
        <ele>80.40000152587890625</ele>
        <time>2018-09-06T06:31:34.000Z</time>
      </trkpt>
      <trkpt lat="43.39636950753629207611083984375" lon="-4.1488347016274929046630859375">
        <ele>79.1999969482421875</ele>
        <time>2018-09-06T06:31:38.000Z</time>
      </trkpt>
      <trkpt lat="43.39637788943946361541748046875" lon="-4.148896224796772003173828125">
        <ele>79</ele>
        <time>2018-09-06T06:31:39.000Z</time>
      </trkpt>
      <trkpt lat="43.39641074649989604949951171875" lon="-4.14912463165819644927978515625">
        <ele>78.1999969482421875</ele>
        <time>2018-09-06T06:31:43.000Z</time>
      </trkpt>
      <trkpt lat="43.39643203653395175933837890625" lon="-4.14935496635735034942626953125">
        <ele>78</ele>
        <time>2018-09-06T06:31:47.000Z</time>
      </trkpt>
      <trkpt lat="43.3964507281780242919921875" lon="-4.14948320947587490081787109375">
        <ele>77.1999969482421875</ele>
        <time>2018-09-06T06:31:49.000Z</time>
      </trkpt>
      <trkpt lat="43.3964582718908786773681640625" lon="-4.1495511867105960845947265625">
        <ele>76.8000030517578125</ele>
        <time>2018-09-06T06:31:50.000Z</time>
      </trkpt>
      <trkpt lat="43.39648551307618618011474609375" lon="-4.1497717984020709991455078125">
        <ele>75.8000030517578125</ele>
        <time>2018-09-06T06:31:53.000Z</time>
      </trkpt>
      <trkpt lat="43.39649909175932407379150390625" lon="-4.14993901737034320831298828125">
        <ele>74.8000030517578125</ele>
        <time>2018-09-06T06:31:55.000Z</time>
      </trkpt>
      <trkpt lat="43.39650680311024188995361328125" lon="-4.1500239260494709014892578125">
        <ele>74.59999847412109375</ele>
        <time>2018-09-06T06:31:56.000Z</time>
      </trkpt>
      <trkpt lat="43.39652859605848789215087890625" lon="-4.1501885466277599334716796875">
        <ele>73.40000152587890625</ele>
        <time>2018-09-06T06:31:58.000Z</time>
      </trkpt>
      <trkpt lat="43.3965498022735118865966796875" lon="-4.15034671314060688018798828125">
        <ele>72</ele>
        <time>2018-09-06T06:32:00.000Z</time>
      </trkpt>
      <trkpt lat="43.39655843563377857208251953125" lon="-4.150424413383007049560546875">
        <ele>71.59999847412109375</ele>
        <time>2018-09-06T06:32:01.000Z</time>
      </trkpt>
      <trkpt lat="43.39657335542142391204833984375" lon="-4.150567911565303802490234375">
        <ele>71</ele>
        <time>2018-09-06T06:32:03.000Z</time>
      </trkpt>
      <trkpt lat="43.3965940587222576141357421875" lon="-4.15075759403407573699951171875">
        <ele>71.1999969482421875</ele>
        <time>2018-09-06T06:32:06.000Z</time>
      </trkpt>
      <trkpt lat="43.39659648947417736053466796875" lon="-4.15081501007080078125">
        <ele>70.59999847412109375</ele>
        <time>2018-09-06T06:32:07.000Z</time>
      </trkpt>
      <trkpt lat="43.39659799821674823760986328125" lon="-4.150923974812030792236328125">
        <ele>69.59999847412109375</ele>
        <time>2018-09-06T06:32:09.000Z</time>
      </trkpt>
      <trkpt lat="43.3966078050434589385986328125" lon="-4.151080548763275146484375">
        <ele>69.40000152587890625</ele>
        <time>2018-09-06T06:32:12.000Z</time>
      </trkpt>
      <trkpt lat="43.39661576785147190093994140625" lon="-4.15127173997461795806884765625">
        <ele>68.40000152587890625</ele>
        <time>2018-09-06T06:32:15.000Z</time>
      </trkpt>
      <trkpt lat="43.3966171927750110626220703125" lon="-4.151348434388637542724609375">
        <ele>68.1999969482421875</ele>
        <time>2018-09-06T06:32:16.000Z</time>
      </trkpt>
      <trkpt lat="43.39661643840372562408447265625" lon="-4.1515199281275272369384765625">
        <ele>66.59999847412109375</ele>
        <time>2018-09-06T06:32:18.000Z</time>
      </trkpt>
      <trkpt lat="43.3966135047376155853271484375" lon="-4.151708185672760009765625">
        <ele>65.40000152587890625</ele>
        <time>2018-09-06T06:32:20.000Z</time>
      </trkpt>
      <trkpt lat="43.3966124989092350006103515625" lon="-4.15180499665439128875732421875">
        <ele>65.40000152587890625</ele>
        <time>2018-09-06T06:32:21.000Z</time>
      </trkpt>
      <trkpt lat="43.39660964906215667724609375" lon="-4.1519044898450374603271484375">
        <ele>64.8000030517578125</ele>
        <time>2018-09-06T06:32:22.000Z</time>
      </trkpt>
      <trkpt lat="43.39660520665347576141357421875" lon="-4.152008593082427978515625">
        <ele>63.59999847412109375</ele>
        <time>2018-09-06T06:32:23.000Z</time>
      </trkpt>
      <trkpt lat="43.396597914397716522216796875" lon="-4.15211881510913372039794921875">
        <ele>62.40000152587890625</ele>
        <time>2018-09-06T06:32:24.000Z</time>
      </trkpt>
      <trkpt lat="43.39657570235431194305419921875" lon="-4.15234412066638469696044921875">
        <ele>61.200000762939453125</ele>
        <time>2018-09-06T06:32:26.000Z</time>
      </trkpt>
      <trkpt lat="43.3965645544230937957763671875" lon="-4.1524623893201351165771484375">
        <ele>60.40000152587890625</ele>
        <time>2018-09-06T06:32:27.000Z</time>
      </trkpt>
      <trkpt lat="43.39655223302543163299560546875" lon="-4.15258216671645641326904296875">
        <ele>59.59999847412109375</ele>
        <time>2018-09-06T06:32:28.000Z</time>
      </trkpt>
      <trkpt lat="43.3965218067169189453125" lon="-4.152829013764858245849609375">
        <ele>58.200000762939453125</ele>
        <time>2018-09-06T06:32:30.000Z</time>
      </trkpt>
      <trkpt lat="43.39649272151291370391845703125" lon="-4.1530860029160976409912109375">
        <ele>56.799999237060546875</ele>
        <time>2018-09-06T06:32:32.000Z</time>
      </trkpt>
      <trkpt lat="43.39647687971591949462890625" lon="-4.15321919135749340057373046875">
        <ele>56</ele>
        <time>2018-09-06T06:32:33.000Z</time>
      </trkpt>
      <trkpt lat="43.39646137319505214691162109375" lon="-4.1533555649220943450927734375">
        <ele>55</ele>
        <time>2018-09-06T06:32:34.000Z</time>
      </trkpt>
      <trkpt lat="43.39642499573528766632080078125" lon="-4.1536301560699939727783203125">
        <ele>53.799999237060546875</ele>
        <time>2018-09-06T06:32:36.000Z</time>
      </trkpt>
      <trkpt lat="43.3963878639042377471923828125" lon="-4.153905920684337615966796875">
        <ele>52.40000152587890625</ele>
        <time>2018-09-06T06:32:38.000Z</time>
      </trkpt>
      <trkpt lat="43.39634637348353862762451171875" lon="-4.15417975746095180511474609375">
        <ele>50.799999237060546875</ele>
        <time>2018-09-06T06:32:40.000Z</time>
      </trkpt>
      <trkpt lat="43.39632424525916576385498046875" lon="-4.15431420318782329559326171875">
        <ele>50.40000152587890625</ele>
        <time>2018-09-06T06:32:41.000Z</time>
      </trkpt>
      <trkpt lat="43.39628686197102069854736328125" lon="-4.1545773111283779144287109375">
        <ele>49</ele>
        <time>2018-09-06T06:32:43.000Z</time>
      </trkpt>
      <trkpt lat="43.3962254226207733154296875" lon="-4.155061282217502593994140625">
        <ele>47.59999847412109375</ele>
        <time>2018-09-06T06:32:47.000Z</time>
      </trkpt>
      <trkpt lat="43.39620891027152538299560546875" lon="-4.1551714204251766204833984375">
        <ele>47.59999847412109375</ele>
        <time>2018-09-06T06:32:48.000Z</time>
      </trkpt>
      <trkpt lat="43.3961756341159343719482421875" lon="-4.15538138709962368011474609375">
        <ele>48.59999847412109375</ele>
        <time>2018-09-06T06:32:50.000Z</time>
      </trkpt>
      <trkpt lat="43.39615895412862300872802734375" lon="-4.15547962300479412078857421875">
        <ele>49.200000762939453125</ele>
        <time>2018-09-06T06:32:51.000Z</time>
      </trkpt>
      <trkpt lat="43.39614252559840679168701171875" lon="-4.15557249449193477630615234375">
        <ele>49.59999847412109375</ele>
        <time>2018-09-06T06:32:52.000Z</time>
      </trkpt>
      <trkpt lat="43.3961208164691925048828125" lon="-4.15574901737272739410400390625">
        <ele>49</ele>
        <time>2018-09-06T06:32:54.000Z</time>
      </trkpt>
      <trkpt lat="43.3961042203009128570556640625" lon="-4.15591564960777759552001953125">
        <ele>48.799999237060546875</ele>
        <time>2018-09-06T06:32:56.000Z</time>
      </trkpt>
      <trkpt lat="43.39609374292194843292236328125" lon="-4.15599578060209751129150390625">
        <ele>49</ele>
        <time>2018-09-06T06:32:57.000Z</time>
      </trkpt>
      <trkpt lat="43.39607144705951213836669921875" lon="-4.15614715777337551116943359375">
        <ele>49</ele>
        <time>2018-09-06T06:32:59.000Z</time>
      </trkpt>
      <trkpt lat="43.39606222696602344512939453125" lon="-4.15621857158839702606201171875">
        <ele>49.40000152587890625</ele>
        <time>2018-09-06T06:33:00.000Z</time>
      </trkpt>
      <trkpt lat="43.3960525877773761749267578125" lon="-4.1562885604798793792724609375">
        <ele>50</ele>
        <time>2018-09-06T06:33:01.000Z</time>
      </trkpt>
      <trkpt lat="43.3960430324077606201171875" lon="-4.1563556157052516937255859375">
        <ele>50.799999237060546875</ele>
        <time>2018-09-06T06:33:02.000Z</time>
      </trkpt>
      <trkpt lat="43.396023921668529510498046875" lon="-4.1564826853573322296142578125">
        <ele>50.799999237060546875</ele>
        <time>2018-09-06T06:33:04.000Z</time>
      </trkpt>
      <trkpt lat="43.39600137434899806976318359375" lon="-4.15666549466550350189208984375">
        <ele>50.799999237060546875</ele>
        <time>2018-09-06T06:33:07.000Z</time>
      </trkpt>
      <trkpt lat="43.39599634520709514617919921875" lon="-4.15671980939805507659912109375">
        <ele>51.200000762939453125</ele>
        <time>2018-09-06T06:33:08.000Z</time>
      </trkpt>
      <trkpt lat="43.39597907848656177520751953125" lon="-4.15682542137801647186279296875">
        <ele>51.59999847412109375</ele>
        <time>2018-09-06T06:33:10.000Z</time>
      </trkpt>
      <trkpt lat="43.39596667326986789703369140625" lon="-4.1569275967776775360107421875">
        <ele>52</ele>
        <time>2018-09-06T06:33:12.000Z</time>
      </trkpt>
      <trkpt lat="43.39594119228422641754150390625" lon="-4.15707369334995746612548828125">
        <ele>52.59999847412109375</ele>
        <time>2018-09-06T06:33:15.000Z</time>
      </trkpt>
      <trkpt lat="43.39592996053397655487060546875" lon="-4.1572186164557933807373046875">
        <ele>52.799999237060546875</ele>
        <time>2018-09-06T06:33:18.000Z</time>
      </trkpt>
      <trkpt lat="43.39592711068689823150634765625" lon="-4.157265722751617431640625">
        <ele>53</ele>
        <time>2018-09-06T06:33:19.000Z</time>
      </trkpt>
      <trkpt lat="43.39591093361377716064453125" lon="-4.15740058757364749908447265625">
        <ele>53.40000152587890625</ele>
        <time>2018-09-06T06:33:22.000Z</time>
      </trkpt>
      <trkpt lat="43.39587204158306121826171875" lon="-4.15779705159366130828857421875">
        <ele>54</ele>
        <time>2018-09-06T06:33:31.000Z</time>
      </trkpt>
      <trkpt lat="43.39585418812930583953857421875" lon="-4.1582358442246913909912109375">
        <ele>53.59999847412109375</ele>
        <time>2018-09-06T06:33:41.000Z</time>
      </trkpt>
      <trkpt lat="43.39585334993898868560791015625" lon="-4.15832444094121456146240234375">
        <ele>53.59999847412109375</ele>
        <time>2018-09-06T06:33:43.000Z</time>
      </trkpt>
      <trkpt lat="43.39584949426352977752685546875" lon="-4.15836852975189685821533203125">
        <ele>53.799999237060546875</ele>
        <time>2018-09-06T06:33:44.000Z</time>
      </trkpt>
      <trkpt lat="43.39584999717772006988525390625" lon="-4.15845620445907115936279296875">
        <ele>53.40000152587890625</ele>
        <time>2018-09-06T06:33:46.000Z</time>
      </trkpt>
      <trkpt lat="43.39585284702479839324951171875" lon="-4.1585466451942920684814453125">
        <ele>53.200000762939453125</ele>
        <time>2018-09-06T06:33:48.000Z</time>
      </trkpt>
      <trkpt lat="43.39586022309958934783935546875" lon="-4.1587273590266704559326171875">
        <ele>52.59999847412109375</ele>
        <time>2018-09-06T06:33:52.000Z</time>
      </trkpt>
      <trkpt lat="43.3958715386688709259033203125" lon="-4.15891368873417377471923828125">
        <ele>52.200000762939453125</ele>
        <time>2018-09-06T06:33:56.000Z</time>
      </trkpt>
      <trkpt lat="43.395873047411441802978515625" lon="-4.15896247141063213348388671875">
        <ele>52</ele>
        <time>2018-09-06T06:33:57.000Z</time>
      </trkpt>
      <trkpt lat="43.39588503353297710418701171875" lon="-4.1591125912964344024658203125">
        <ele>51.799999237060546875</ele>
        <time>2018-09-06T06:34:00.000Z</time>
      </trkpt>
      <trkpt lat="43.39589618146419525146484375" lon="-4.15922868065536022186279296875">
        <ele>51.799999237060546875</ele>
        <time>2018-09-06T06:34:02.000Z</time>
      </trkpt>
      <trkpt lat="43.395955860614776611328125" lon="-4.1597170941531658172607421875">
        <ele>50.799999237060546875</ele>
        <time>2018-09-06T06:34:10.000Z</time>
      </trkpt>
      <trkpt lat="43.39606122113764286041259765625" lon="-4.16022394783794879913330078125">
        <ele>51</ele>
        <time>2018-09-06T06:34:18.000Z</time>
      </trkpt>
      <trkpt lat="43.396103717386722564697265625" lon="-4.1604057513177394866943359375">
        <ele>51.40000152587890625</ele>
        <time>2018-09-06T06:34:21.000Z</time>
      </trkpt>
      <trkpt lat="43.396193571388721466064453125" lon="-4.16068780235946178436279296875">
        <ele>52</ele>
        <time>2018-09-06T06:34:26.000Z</time>
      </trkpt>
      <trkpt lat="43.3962098322808742523193359375" lon="-4.1607437096536159515380859375">
        <ele>52.200000762939453125</ele>
        <time>2018-09-06T06:34:27.000Z</time>
      </trkpt>
      <trkpt lat="43.3962292782962322235107421875" lon="-4.16079618036746978759765625">
        <ele>52.40000152587890625</ele>
        <time>2018-09-06T06:34:28.000Z</time>
      </trkpt>
      <trkpt lat="43.39626590721309185028076171875" lon="-4.16089248843491077423095703125">
        <ele>52.59999847412109375</ele>
        <time>2018-09-06T06:34:30.000Z</time>
      </trkpt>
      <trkpt lat="43.39630915783345699310302734375" lon="-4.16102173738181591033935546875">
        <ele>52.799999237060546875</ele>
        <time>2018-09-06T06:34:33.000Z</time>
      </trkpt>
      <trkpt lat="43.39632307179272174835205078125" lon="-4.16106079705059528350830078125">
        <ele>53</ele>
        <time>2018-09-06T06:34:34.000Z</time>
      </trkpt>
      <trkpt lat="43.3963767997920513153076171875" lon="-4.1612057201564311981201171875">
        <ele>53.200000762939453125</ele>
        <time>2018-09-06T06:34:38.000Z</time>
      </trkpt>
      <trkpt lat="43.3964213915169239044189453125" lon="-4.16133287362754344940185546875">
        <ele>54</ele>
        <time>2018-09-06T06:34:42.000Z</time>
      </trkpt>
      <trkpt lat="43.39648450724780559539794921875" lon="-4.16149900294840335845947265625">
        <ele>55.200000762939453125</ele>
        <time>2018-09-06T06:34:48.000Z</time>
      </trkpt>
      <trkpt lat="43.396572768688201904296875" lon="-4.16171911172568798065185546875">
        <ele>56</ele>
        <time>2018-09-06T06:34:56.000Z</time>
      </trkpt>
      <trkpt lat="43.3965813182294368743896484375" lon="-4.16174559853971004486083984375">
        <ele>56.200000762939453125</ele>
        <time>2018-09-06T06:34:57.000Z</time>
      </trkpt>
      <trkpt lat="43.39663839899003505706787109375" lon="-4.1619124822318553924560546875">
        <ele>57.40000152587890625</ele>
        <time>2018-09-06T06:35:03.000Z</time>
      </trkpt>
      <trkpt lat="43.39669221080839633941650390625" lon="-4.16205405257642269134521484375">
        <ele>58.40000152587890625</ele>
        <time>2018-09-06T06:35:09.000Z</time>
      </trkpt>
      <trkpt lat="43.39673579670488834381103515625" lon="-4.16215178556740283966064453125">
        <ele>59</ele>
        <time>2018-09-06T06:35:13.000Z</time>
      </trkpt>
      <trkpt lat="43.3967657200992107391357421875" lon="-4.16221850551664829254150390625">
        <ele>59.59999847412109375</ele>
        <time>2018-09-06T06:35:16.000Z</time>
      </trkpt>
      <trkpt lat="43.39681844227015972137451171875" lon="-4.16235429234802722930908203125">
        <ele>60.40000152587890625</ele>
        <time>2018-09-06T06:35:22.000Z</time>
      </trkpt>
      <trkpt lat="43.396835960447788238525390625" lon="-4.162401147186756134033203125">
        <ele>60.59999847412109375</ele>
        <time>2018-09-06T06:35:24.000Z</time>
      </trkpt>
      <trkpt lat="43.39687912724912166595458984375" lon="-4.16250181384384632110595703125">
        <ele>61.799999237060546875</ele>
        <time>2018-09-06T06:35:29.000Z</time>
      </trkpt>
      <trkpt lat="43.39690963737666606903076171875" lon="-4.162592589855194091796875">
        <ele>62.40000152587890625</ele>
        <time>2018-09-06T06:35:33.000Z</time>
      </trkpt>
      <trkpt lat="43.39696160517632961273193359375" lon="-4.16270415298640727996826171875">
        <ele>63</ele>
        <time>2018-09-06T06:35:38.000Z</time>
      </trkpt>
      <trkpt lat="43.396988175809383392333984375" lon="-4.162797443568706512451171875">
        <ele>63.59999847412109375</ele>
        <time>2018-09-06T06:35:42.000Z</time>
      </trkpt>
      <trkpt lat="43.3970195241272449493408203125" lon="-4.16286055929958820343017578125">
        <ele>64.1999969482421875</ele>
        <time>2018-09-06T06:35:45.000Z</time>
      </trkpt>
      <trkpt lat="43.39708532206714153289794921875" lon="-4.1630467213690280914306640625">
        <ele>65.1999969482421875</ele>
        <time>2018-09-06T06:35:53.000Z</time>
      </trkpt>
      <trkpt lat="43.397149778902530670166015625" lon="-4.16319499723613262176513671875">
        <ele>66.40000152587890625</ele>
        <time>2018-09-06T06:36:00.000Z</time>
      </trkpt>
      <trkpt lat="43.39717400260269641876220703125" lon="-4.16325786150991916656494140625">
        <ele>66.59999847412109375</ele>
        <time>2018-09-06T06:36:03.000Z</time>
      </trkpt>
      <trkpt lat="43.3971963822841644287109375" lon="-4.1633189655840396881103515625">
        <ele>67</ele>
        <time>2018-09-06T06:36:06.000Z</time>
      </trkpt>
      <trkpt lat="43.397226221859455108642578125" lon="-4.1633816622197628021240234375">
        <ele>67.40000152587890625</ele>
        <time>2018-09-06T06:36:09.000Z</time>
      </trkpt>
      <trkpt lat="43.39724491350352764129638671875" lon="-4.16341896168887615203857421875">
        <ele>67.8000030517578125</ele>
        <time>2018-09-06T06:36:11.000Z</time>
      </trkpt>
      <trkpt lat="43.397291935980319976806640625" lon="-4.16354670189321041107177734375">
        <ele>68.59999847412109375</ele>
        <time>2018-09-06T06:36:17.000Z</time>
      </trkpt>
      <trkpt lat="43.397317416965961456298828125" lon="-4.16361308656632900238037109375">
        <ele>69.1999969482421875</ele>
        <time>2018-09-06T06:36:20.000Z</time>
      </trkpt>
      <trkpt lat="43.3973487652838230133056640625" lon="-4.163699336349964141845703125">
        <ele>69.59999847412109375</ele>
        <time>2018-09-06T06:36:24.000Z</time>
      </trkpt>
      <trkpt lat="43.39738874696195125579833984375" lon="-4.163798578083515167236328125">
        <ele>70.40000152587890625</ele>
        <time>2018-09-06T06:36:29.000Z</time>
      </trkpt>
      <trkpt lat="43.39741623960435390472412109375" lon="-4.16386236436665058135986328125">
        <ele>70.8000030517578125</ele>
        <time>2018-09-06T06:36:32.000Z</time>
      </trkpt>
      <trkpt lat="43.397454209625720977783203125" lon="-4.1639821417629718780517578125">
        <ele>71.40000152587890625</ele>
        <time>2018-09-06T06:36:37.000Z</time>
      </trkpt>
      <trkpt lat="43.3974697999656200408935546875" lon="-4.16402447037398815155029296875">
        <ele>71.8000030517578125</ele>
        <time>2018-09-06T06:36:39.000Z</time>
      </trkpt>
      <trkpt lat="43.39751866646111011505126953125" lon="-4.1641531325876712799072265625">
        <ele>73</ele>
        <time>2018-09-06T06:36:45.000Z</time>
      </trkpt>
      <trkpt lat="43.3975365199148654937744140625" lon="-4.16419613175094127655029296875">
        <ele>73.1999969482421875</ele>
        <time>2018-09-06T06:36:47.000Z</time>
      </trkpt>
      <trkpt lat="43.3975844644010066986083984375" lon="-4.16432001627981662750244140625">
        <ele>74</ele>
        <time>2018-09-06T06:36:53.000Z</time>
      </trkpt>
      <trkpt lat="43.39759779162704944610595703125" lon="-4.16436226107180118560791015625">
        <ele>74.1999969482421875</ele>
        <time>2018-09-06T06:36:55.000Z</time>
      </trkpt>
      <trkpt lat="43.39766082353889942169189453125" lon="-4.1645108722150325775146484375">
        <ele>75</ele>
        <time>2018-09-06T06:37:02.000Z</time>
      </trkpt>
      <trkpt lat="43.39767104946076869964599609375" lon="-4.1645336709916591644287109375">
        <ele>75.1999969482421875</ele>
        <time>2018-09-06T06:37:03.000Z</time>
      </trkpt>
      <trkpt lat="43.39769485406577587127685546875" lon="-4.16460282169282436370849609375">
        <ele>76</ele>
        <time>2018-09-06T06:37:06.000Z</time>
      </trkpt>
      <trkpt lat="43.39773911051452159881591796875" lon="-4.16471865959465503692626953125">
        <ele>77</ele>
        <time>2018-09-06T06:37:11.000Z</time>
      </trkpt>
      <trkpt lat="43.3977893181145191192626953125" lon="-4.1648603975772857666015625">
        <ele>77.8000030517578125</ele>
        <time>2018-09-06T06:37:17.000Z</time>
      </trkpt>
      <trkpt lat="43.3978074230253696441650390625" lon="-4.16491496376693248748779296875">
        <ele>78.1999969482421875</ele>
        <time>2018-09-06T06:37:19.000Z</time>
      </trkpt>
      <trkpt lat="43.397862575948238372802734375" lon="-4.16509039700031280517578125">
        <ele>79.1999969482421875</ele>
        <time>2018-09-06T06:37:26.000Z</time>
      </trkpt>
      <trkpt lat="43.3978883922100067138671875" lon="-4.16516943834722042083740234375">
        <ele>79.40000152587890625</ele>
        <time>2018-09-06T06:37:29.000Z</time>
      </trkpt>
      <trkpt lat="43.3979398570954799652099609375" lon="-4.16533540003001689910888671875">
        <ele>79.8000030517578125</ele>
        <time>2018-09-06T06:37:35.000Z</time>
      </trkpt>
      <trkpt lat="43.39794698171317577362060546875" lon="-4.1653634794056415557861328125">
        <ele>79.8000030517578125</ele>
        <time>2018-09-06T06:37:36.000Z</time>
      </trkpt>
      <trkpt lat="43.3980018831789493560791015625" lon="-4.1655736975371837615966796875">
        <ele>80.59999847412109375</ele>
        <time>2018-09-06T06:37:42.000Z</time>
      </trkpt>
      <trkpt lat="43.39801219291985034942626953125" lon="-4.16560848243534564971923828125">
        <ele>80.8000030517578125</ele>
        <time>2018-09-06T06:37:43.000Z</time>
      </trkpt>
      <trkpt lat="43.3980605565011501312255859375" lon="-4.1658667288720607757568359375">
        <ele>81</ele>
        <time>2018-09-06T06:37:50.000Z</time>
      </trkpt>
      <trkpt lat="43.39808754622936248779296875" lon="-4.16598893702030181884765625">
        <ele>80.59999847412109375</ele>
        <time>2018-09-06T06:37:53.000Z</time>
      </trkpt>
      <trkpt lat="43.39812585152685642242431640625" lon="-4.1662234626710414886474609375">
        <ele>81.1999969482421875</ele>
        <time>2018-09-06T06:37:58.000Z</time>
      </trkpt>
      <trkpt lat="43.3981426991522312164306640625" lon="-4.16636570356786251068115234375">
        <ele>81.1999969482421875</ele>
        <time>2018-09-06T06:38:01.000Z</time>
      </trkpt>
      <trkpt lat="43.39816533029079437255859375" lon="-4.1665131412446498870849609375">
        <ele>81</ele>
        <time>2018-09-06T06:38:04.000Z</time>
      </trkpt>
      <trkpt lat="43.39818033389747142791748046875" lon="-4.16661925613880157470703125">
        <ele>80.8000030517578125</ele>
        <time>2018-09-06T06:38:06.000Z</time>
      </trkpt>
      <trkpt lat="43.39818569831550121307373046875" lon="-4.16667499579489231109619140625">
        <ele>80.1999969482421875</ele>
        <time>2018-09-06T06:38:07.000Z</time>
      </trkpt>
      <trkpt lat="43.398189134895801544189453125" lon="-4.166733585298061370849609375">
        <ele>79.59999847412109375</ele>
        <time>2018-09-06T06:38:08.000Z</time>
      </trkpt>
      <trkpt lat="43.3981960080564022064208984375" lon="-4.16685805656015872955322265625">
        <ele>79</ele>
        <time>2018-09-06T06:38:10.000Z</time>
      </trkpt>
      <trkpt lat="43.3981996960937976837158203125" lon="-4.1669972799718379974365234375">
        <ele>79.1999969482421875</ele>
        <time>2018-09-06T06:38:12.000Z</time>
      </trkpt>
      <trkpt lat="43.39820288121700286865234375" lon="-4.16707254946231842041015625">
        <ele>78.8000030517578125</ele>
        <time>2018-09-06T06:38:13.000Z</time>
      </trkpt>
      <trkpt lat="43.39820430614054203033447265625" lon="-4.16715092025697231292724609375">
        <ele>78.40000152587890625</ele>
        <time>2018-09-06T06:38:14.000Z</time>
      </trkpt>
      <trkpt lat="43.3982023783028125762939453125" lon="-4.16741109453141689300537109375">
        <ele>77.40000152587890625</ele>
        <time>2018-09-06T06:38:17.000Z</time>
      </trkpt>
      <trkpt lat="43.39819340966641902923583984375" lon="-4.16759901680052280426025390625">
        <ele>76.40000152587890625</ele>
        <time>2018-09-06T06:38:19.000Z</time>
      </trkpt>
      <trkpt lat="43.39818100444972515106201171875" lon="-4.16779984720051288604736328125">
        <ele>74.8000030517578125</ele>
        <time>2018-09-06T06:38:21.000Z</time>
      </trkpt>
      <trkpt lat="43.398160301148891448974609375" lon="-4.168009646236896514892578125">
        <ele>73.1999969482421875</ele>
        <time>2018-09-06T06:38:23.000Z</time>
      </trkpt>
      <trkpt lat="43.39813943020999431610107421875" lon="-4.16823034174740314483642578125">
        <ele>72.1999969482421875</ele>
        <time>2018-09-06T06:38:25.000Z</time>
      </trkpt>
      <trkpt lat="43.3981163799762725830078125" lon="-4.16846704669296741485595703125">
        <ele>70.1999969482421875</ele>
        <time>2018-09-06T06:38:27.000Z</time>
      </trkpt>
      <trkpt lat="43.39806206524372100830078125" lon="-4.16897465474903583526611328125">
        <ele>68.8000030517578125</ele>
        <time>2018-09-06T06:38:31.000Z</time>
      </trkpt>
      <trkpt lat="43.39804706163704395294189453125" lon="-4.1691068373620510101318359375">
        <ele>68.1999969482421875</ele>
        <time>2018-09-06T06:38:32.000Z</time>
      </trkpt>
      <trkpt lat="43.398032225668430328369140625" lon="-4.169237427413463592529296875">
        <ele>67.59999847412109375</ele>
        <time>2018-09-06T06:38:33.000Z</time>
      </trkpt>
      <trkpt lat="43.39800314046442508697509765625" lon="-4.169501625001430511474609375">
        <ele>66.1999969482421875</ele>
        <time>2018-09-06T06:38:35.000Z</time>
      </trkpt>
      <trkpt lat="43.39797397144138813018798828125" lon="-4.1697666607797145843505859375">
        <ele>65.8000030517578125</ele>
        <time>2018-09-06T06:38:37.000Z</time>
      </trkpt>
      <trkpt lat="43.39794580824673175811767578125" lon="-4.17002825997769832611083984375">
        <ele>65</ele>
        <time>2018-09-06T06:38:39.000Z</time>
      </trkpt>
      <trkpt lat="43.39790515601634979248046875" lon="-4.17040846310555934906005859375">
        <ele>64</ele>
        <time>2018-09-06T06:38:42.000Z</time>
      </trkpt>
      <trkpt lat="43.39785612188279628753662109375" lon="-4.17087684385478496551513671875">
        <ele>63.59999847412109375</ele>
        <time>2018-09-06T06:38:46.000Z</time>
      </trkpt>
      <trkpt lat="43.39782175607979297637939453125" lon="-4.17119468562304973602294921875">
        <ele>64.1999969482421875</ele>
        <time>2018-09-06T06:38:49.000Z</time>
      </trkpt>
      <trkpt lat="43.3977457322180271148681640625" lon="-4.17173163034021854400634765625">
        <ele>65</ele>
        <time>2018-09-06T06:38:55.000Z</time>
      </trkpt>
      <trkpt lat="43.39769971556961536407470703125" lon="-4.172077216207981109619140625">
        <ele>66.40000152587890625</ele>
        <time>2018-09-06T06:39:00.000Z</time>
      </trkpt>
      <trkpt lat="43.3976927585899829864501953125" lon="-4.17213924229145050048828125">
        <ele>66.8000030517578125</ele>
        <time>2018-09-06T06:39:01.000Z</time>
      </trkpt>
      <trkpt lat="43.39766853488981723785400390625" lon="-4.1725162602961063385009765625">
        <ele>67.59999847412109375</ele>
        <time>2018-09-06T06:39:08.000Z</time>
      </trkpt>
      <trkpt lat="43.39766442775726318359375" lon="-4.1725658811628818511962890625">
        <ele>67.59999847412109375</ele>
        <time>2018-09-06T06:39:09.000Z</time>
      </trkpt>
      <trkpt lat="43.397637270390987396240234375" lon="-4.17283737100660800933837890625">
        <ele>68.8000030517578125</ele>
        <time>2018-09-06T06:39:15.000Z</time>
      </trkpt>
      <trkpt lat="43.39762310497462749481201171875" lon="-4.17295672930777072906494140625">
        <ele>69.1999969482421875</ele>
        <time>2018-09-06T06:39:18.000Z</time>
      </trkpt>
      <trkpt lat="43.39758639223873615264892578125" lon="-4.17314884252846240997314453125">
        <ele>70</ele>
        <time>2018-09-06T06:39:23.000Z</time>
      </trkpt>
      <trkpt lat="43.39757214300334453582763671875" lon="-4.17322075925767421722412109375">
        <ele>70.59999847412109375</ele>
        <time>2018-09-06T06:39:25.000Z</time>
      </trkpt>
      <trkpt lat="43.39754708111286163330078125" lon="-4.17339610867202281951904296875">
        <ele>71</ele>
        <time>2018-09-06T06:39:30.000Z</time>
      </trkpt>
      <trkpt lat="43.397532999515533447265625" lon="-4.1734691150486469268798828125">
        <ele>71.1999969482421875</ele>
        <time>2018-09-06T06:39:32.000Z</time>
      </trkpt>
      <trkpt lat="43.39749217964708805084228515625" lon="-4.173682518303394317626953125">
        <ele>71.8000030517578125</ele>
        <time>2018-09-06T06:39:38.000Z</time>
      </trkpt>
      <trkpt lat="43.39748664759099483489990234375" lon="-4.1737197339534759521484375">
        <ele>72.1999969482421875</ele>
        <time>2018-09-06T06:39:39.000Z</time>
      </trkpt>
      <trkpt lat="43.39748128317296504974365234375" lon="-4.17375451885163784027099609375">
        <ele>72.1999969482421875</ele>
        <time>2018-09-06T06:39:40.000Z</time>
      </trkpt>
      <trkpt lat="43.39742998592555522918701171875" lon="-4.17396473698318004608154296875">
        <ele>73.1999969482421875</ele>
        <time>2018-09-06T06:39:46.000Z</time>
      </trkpt>
      <trkpt lat="43.39740986935794353485107421875" lon="-4.17403782717883586883544921875">
        <ele>73.59999847412109375</ele>
        <time>2018-09-06T06:39:48.000Z</time>
      </trkpt>
      <trkpt lat="43.397345580160617828369140625" lon="-4.17424703948199748992919921875">
        <ele>74.40000152587890625</ele>
        <time>2018-09-06T06:39:54.000Z</time>
      </trkpt>
      <trkpt lat="43.3973143994808197021484375" lon="-4.17435449548065662384033203125">
        <ele>74.59999847412109375</ele>
        <time>2018-09-06T06:39:57.000Z</time>
      </trkpt>
      <trkpt lat="43.39715455658733844757080078125" lon="-4.17477241717278957366943359375">
        <ele>74.8000030517578125</ele>
        <time>2018-09-06T06:40:08.000Z</time>
      </trkpt>
      <trkpt lat="43.397093117237091064453125" lon="-4.1749406419694423675537109375">
        <ele>74.8000030517578125</ele>
        <time>2018-09-06T06:40:12.000Z</time>
      </trkpt>
      <trkpt lat="43.39705833233892917633056640625" lon="-4.175022952258586883544921875">
        <ele>75</ele>
        <time>2018-09-06T06:40:14.000Z</time>
      </trkpt>
      <trkpt lat="43.39700351469218730926513671875" lon="-4.175154380500316619873046875">
        <ele>75</ele>
        <time>2018-09-06T06:40:17.000Z</time>
      </trkpt>
      <trkpt lat="43.3969856612384319305419921875" lon="-4.17520157061517238616943359375">
        <ele>74.8000030517578125</ele>
        <time>2018-09-06T06:40:18.000Z</time>
      </trkpt>
      <trkpt lat="43.39689404703676700592041015625" lon="-4.17544598691165447235107421875">
        <ele>74.8000030517578125</ele>
        <time>2018-09-06T06:40:23.000Z</time>
      </trkpt>
      <trkpt lat="43.39685867540538311004638671875" lon="-4.17554975487291812896728515625">
        <ele>74.59999847412109375</ele>
        <time>2018-09-06T06:40:25.000Z</time>
      </trkpt>
      <trkpt lat="43.3967137522995471954345703125" lon="-4.17609374038875102996826171875">
        <ele>75.40000152587890625</ele>
        <time>2018-09-06T06:40:35.000Z</time>
      </trkpt>
      <trkpt lat="43.39664342813193798065185546875" lon="-4.176498167216777801513671875">
        <ele>75.40000152587890625</ele>
        <time>2018-09-06T06:40:43.000Z</time>
      </trkpt>
      <trkpt lat="43.39660755358636379241943359375" lon="-4.17682313360273838043212890625">
        <ele>76</ele>
        <time>2018-09-06T06:40:50.000Z</time>
      </trkpt>
      <trkpt lat="43.3965984173119068145751953125" lon="-4.17691281996667385101318359375">
        <ele>76.40000152587890625</ele>
        <time>2018-09-06T06:40:52.000Z</time>
      </trkpt>
      <trkpt lat="43.396587856113910675048828125" lon="-4.17703653685748577117919921875">
        <ele>77.59999847412109375</ele>
        <time>2018-09-06T06:40:55.000Z</time>
      </trkpt>
      <trkpt lat="43.39658224023878574371337890625" lon="-4.1770760156214237213134765625">
        <ele>76.59999847412109375</ele>
        <time>2018-09-06T06:40:56.000Z</time>
      </trkpt>
      <trkpt lat="43.39659716002643108367919921875" lon="-4.1773613356053829193115234375">
        <ele>78.1999969482421875</ele>
        <time>2018-09-06T06:41:03.000Z</time>
      </trkpt>
      <trkpt lat="43.396610319614410400390625" lon="-4.1774833761155605316162109375">
        <ele>78.8000030517578125</ele>
        <time>2018-09-06T06:41:06.000Z</time>
      </trkpt>
      <trkpt lat="43.3966299332678318023681640625" lon="-4.17764556594192981719970703125">
        <ele>79.40000152587890625</ele>
        <time>2018-09-06T06:41:10.000Z</time>
      </trkpt>
      <trkpt lat="43.39665818028151988983154296875" lon="-4.1777975298464298248291015625">
        <ele>79.8000030517578125</ele>
        <time>2018-09-06T06:41:14.000Z</time>
      </trkpt>
      <trkpt lat="43.3966859243810176849365234375" lon="-4.1779517568647861480712890625">
        <ele>79.8000030517578125</ele>
        <time>2018-09-06T06:41:18.000Z</time>
      </trkpt>
      <trkpt lat="43.396739065647125244140625" lon="-4.17818737216293811798095703125">
        <ele>80.8000030517578125</ele>
        <time>2018-09-06T06:41:24.000Z</time>
      </trkpt>
      <trkpt lat="43.39677234180271625518798828125" lon="-4.1783088259398937225341796875">
        <ele>81.59999847412109375</ele>
        <time>2018-09-06T06:41:27.000Z</time>
      </trkpt>
      <trkpt lat="43.39683135040104389190673828125" lon="-4.1785183735191822052001953125">
        <ele>82</ele>
        <time>2018-09-06T06:41:32.000Z</time>
      </trkpt>
      <trkpt lat="43.3968837372958660125732421875" lon="-4.17866547591984272003173828125">
        <ele>82.40000152587890625</ele>
        <time>2018-09-06T06:41:36.000Z</time>
      </trkpt>
      <trkpt lat="43.39701944030821323394775390625" lon="-4.17899957858026027679443359375">
        <ele>82.8000030517578125</ele>
        <time>2018-09-06T06:41:44.000Z</time>
      </trkpt>
      <trkpt lat="43.3972032554447650909423828125" lon="-4.179376177489757537841796875">
        <ele>81.40000152587890625</ele>
        <time>2018-09-06T06:41:52.000Z</time>
      </trkpt>
      <trkpt lat="43.39728766120970249176025390625" lon="-4.1795419715344905853271484375">
        <ele>81.1999969482421875</ele>
        <time>2018-09-06T06:41:55.000Z</time>
      </trkpt>
      <trkpt lat="43.3973762579262256622314453125" lon="-4.1797236911952495574951171875">
        <ele>81</ele>
        <time>2018-09-06T06:41:58.000Z</time>
      </trkpt>
      <trkpt lat="43.39740249328315258026123046875" lon="-4.1797847114503383636474609375">
        <ele>80.8000030517578125</ele>
        <time>2018-09-06T06:41:59.000Z</time>
      </trkpt>
      <trkpt lat="43.3974322490394115447998046875" lon="-4.17984430678188800811767578125">
        <ele>80.59999847412109375</ele>
        <time>2018-09-06T06:42:00.000Z</time>
      </trkpt>
      <trkpt lat="43.39749285019934177398681640625" lon="-4.17997187934815883636474609375">
        <ele>79.8000030517578125</ele>
        <time>2018-09-06T06:42:02.000Z</time>
      </trkpt>
      <trkpt lat="43.3975790999829769134521484375" lon="-4.180134236812591552734375">
        <ele>78.8000030517578125</ele>
        <time>2018-09-06T06:42:05.000Z</time>
      </trkpt>
      <trkpt lat="43.3976193331182003021240234375" lon="-4.1801541857421398162841796875">
        <ele>78.8000030517578125</ele>
        <time>2018-09-06T06:42:06.000Z</time>
      </trkpt>
      <trkpt lat="43.39768982492387294769287109375" lon="-4.18016097508370876312255859375">
        <ele>79</ele>
        <time>2018-09-06T06:42:08.000Z</time>
      </trkpt>
      <trkpt lat="43.397759310901165008544921875" lon="-4.18015100061893463134765625">
        <ele>79.8000030517578125</ele>
        <time>2018-09-06T06:42:11.000Z</time>
      </trkpt>
      <trkpt lat="43.39777917601168155670166015625" lon="-4.1801427863538265228271484375">
        <ele>79.8000030517578125</ele>
        <time>2018-09-06T06:42:12.000Z</time>
      </trkpt>
      <trkpt lat="43.39779342524707317352294921875" lon="-4.1801390983164310455322265625">
        <ele>79.8000030517578125</ele>
        <time>2018-09-06T06:42:13.000Z</time>
      </trkpt>
      <trkpt lat="43.397825695574283599853515625" lon="-4.1801142878830432891845703125">
        <ele>79.59999847412109375</ele>
        <time>2018-09-06T06:42:23.000Z</time>
      </trkpt>
      <trkpt lat="43.3978147991001605987548828125" lon="-4.1801035590469837188720703125">
        <ele>79.40000152587890625</ele>
        <time>2018-09-06T06:42:24.000Z</time>
      </trkpt>
      <trkpt lat="43.397798202931880950927734375" lon="-4.18011705391108989715576171875">
        <ele>79.40000152587890625</ele>
        <time>2018-09-06T06:42:26.000Z</time>
      </trkpt>
      <trkpt lat="43.39775570668280124664306640625" lon="-4.18015007860958576202392578125">
        <ele>79.59999847412109375</ele>
        <time>2018-09-06T06:42:30.000Z</time>
      </trkpt>
      <trkpt lat="43.397726118564605712890625" lon="-4.18016307055950164794921875">
        <ele>79.8000030517578125</ele>
        <time>2018-09-06T06:42:32.000Z</time>
      </trkpt>
      <trkpt lat="43.39764405973255634307861328125" lon="-4.18016131035983562469482421875">
        <ele>79.1999969482421875</ele>
        <time>2018-09-06T06:42:37.000Z</time>
      </trkpt>
      <trkpt lat="43.39761681854724884033203125" lon="-4.18014504946768283843994140625">
        <ele>78.8000030517578125</ele>
        <time>2018-09-06T06:42:39.000Z</time>
      </trkpt>
      <trkpt lat="43.397592343389987945556640625" lon="-4.1801749728620052337646484375">
        <ele>78.40000152587890625</ele>
        <time>2018-09-06T06:42:42.000Z</time>
      </trkpt>
      <trkpt lat="43.397612459957599639892578125" lon="-4.18026843108236789703369140625">
        <ele>78.40000152587890625</ele>
        <time>2018-09-06T06:42:47.000Z</time>
      </trkpt>
      <trkpt lat="43.39761941693723201751708984375" lon="-4.180289804935455322265625">
        <ele>78.40000152587890625</ele>
        <time>2018-09-06T06:42:48.000Z</time>
      </trkpt>
      <trkpt lat="43.397658057510852813720703125" lon="-4.180418550968170166015625">
        <ele>78</ele>
        <time>2018-09-06T06:42:53.000Z</time>
      </trkpt>
      <trkpt lat="43.397669456899166107177734375" lon="-4.1804519109427928924560546875">
        <ele>77.8000030517578125</ele>
        <time>2018-09-06T06:42:54.000Z</time>
      </trkpt>
      <trkpt lat="43.397682197391986846923828125" lon="-4.18049021624028682708740234375">
        <ele>77.8000030517578125</ele>
        <time>2018-09-06T06:42:55.000Z</time>
      </trkpt>
      <trkpt lat="43.39774212799966335296630859375" lon="-4.18070110492408275604248046875">
        <ele>76.8000030517578125</ele>
        <time>2018-09-06T06:43:00.000Z</time>
      </trkpt>
      <trkpt lat="43.3977648429572582244873046875" lon="-4.1808036155998706817626953125">
        <ele>76.59999847412109375</ele>
        <time>2018-09-06T06:43:02.000Z</time>
      </trkpt>
      <trkpt lat="43.39779593981802463531494140625" lon="-4.1809816472232341766357421875">
        <ele>75.8000030517578125</ele>
        <time>2018-09-06T06:43:05.000Z</time>
      </trkpt>
      <trkpt lat="43.39780515991151332855224609375" lon="-4.18104744516313076019287109375">
        <ele>75.40000152587890625</ele>
        <time>2018-09-06T06:43:06.000Z</time>
      </trkpt>
      <trkpt lat="43.39782779105007648468017578125" lon="-4.18126881122589111328125">
        <ele>74.40000152587890625</ele>
        <time>2018-09-06T06:43:09.000Z</time>
      </trkpt>
      <trkpt lat="43.3978402800858020782470703125" lon="-4.1814337670803070068359375">
        <ele>73.8000030517578125</ele>
        <time>2018-09-06T06:43:11.000Z</time>
      </trkpt>
      <trkpt lat="43.39784639887511730194091796875" lon="-4.1815154068171977996826171875">
        <ele>73.59999847412109375</ele>
        <time>2018-09-06T06:43:12.000Z</time>
      </trkpt>
      <trkpt lat="43.39784723706543445587158203125" lon="-4.18168866075575351715087890625">
        <ele>73.1999969482421875</ele>
        <time>2018-09-06T06:43:14.000Z</time>
      </trkpt>
      <trkpt lat="43.3978322334587574005126953125" lon="-4.18196124024689197540283203125">
        <ele>72.1999969482421875</ele>
        <time>2018-09-06T06:43:17.000Z</time>
      </trkpt>
      <trkpt lat="43.39782334864139556884765625" lon="-4.1820560395717620849609375">
        <ele>72</ele>
        <time>2018-09-06T06:43:18.000Z</time>
      </trkpt>
      <trkpt lat="43.39777506887912750244140625" lon="-4.18245057575404644012451171875">
        <ele>70.8000030517578125</ele>
        <time>2018-09-06T06:43:22.000Z</time>
      </trkpt>
      <trkpt lat="43.39775570668280124664306640625" lon="-4.18254998512566089630126953125">
        <ele>70.1999969482421875</ele>
        <time>2018-09-06T06:43:23.000Z</time>
      </trkpt>
      <trkpt lat="43.39773274026811122894287109375" lon="-4.182650148868560791015625">
        <ele>69.59999847412109375</ele>
        <time>2018-09-06T06:43:24.000Z</time>
      </trkpt>
      <trkpt lat="43.39767842553555965423583984375" lon="-4.18285206891596317291259765625">
        <ele>68.40000152587890625</ele>
        <time>2018-09-06T06:43:26.000Z</time>
      </trkpt>
      <trkpt lat="43.39757080189883708953857421875" lon="-4.18315683491528034210205078125">
        <ele>67.40000152587890625</ele>
        <time>2018-09-06T06:43:29.000Z</time>
      </trkpt>
      <trkpt lat="43.397529311478137969970703125" lon="-4.183257333934307098388671875">
        <ele>66</ele>
        <time>2018-09-06T06:43:30.000Z</time>
      </trkpt>
      <trkpt lat="43.3974050916731357574462890625" lon="-4.1835582442581653594970703125">
        <ele>65</ele>
        <time>2018-09-06T06:43:33.000Z</time>
      </trkpt>
      <trkpt lat="43.39731733314692974090576171875" lon="-4.1837510280311107635498046875">
        <ele>64.40000152587890625</ele>
        <time>2018-09-06T06:43:35.000Z</time>
      </trkpt>
      <trkpt lat="43.3972334302961826324462890625" lon="-4.18393869884312152862548828125">
        <ele>64.1999969482421875</ele>
        <time>2018-09-06T06:43:37.000Z</time>
      </trkpt>
      <trkpt lat="43.397147767245769500732421875" lon="-4.18412075378000736236572265625">
        <ele>63.799999237060546875</ele>
        <time>2018-09-06T06:43:39.000Z</time>
      </trkpt>
      <trkpt lat="43.3969816379249095916748046875" lon="-4.1844839416444301605224609375">
        <ele>62.799999237060546875</ele>
        <time>2018-09-06T06:43:43.000Z</time>
      </trkpt>
      <trkpt lat="43.3969005011022090911865234375" lon="-4.18467597104609012603759765625">
        <ele>62</ele>
        <time>2018-09-06T06:43:45.000Z</time>
      </trkpt>
      <trkpt lat="43.3968602679669857025146484375" lon="-4.184775464236736297607421875">
        <ele>61.59999847412109375</ele>
        <time>2018-09-06T06:43:46.000Z</time>
      </trkpt>
      <trkpt lat="43.3968196995556354522705078125" lon="-4.18488032184541225433349609375">
        <ele>61.200000762939453125</ele>
        <time>2018-09-06T06:43:47.000Z</time>
      </trkpt>
      <trkpt lat="43.3967459388077259063720703125" lon="-4.1850976645946502685546875">
        <ele>60.40000152587890625</ele>
        <time>2018-09-06T06:43:49.000Z</time>
      </trkpt>
      <trkpt lat="43.39668114669620990753173828125" lon="-4.1853291727602481842041015625">
        <ele>59.40000152587890625</ele>
        <time>2018-09-06T06:43:51.000Z</time>
      </trkpt>
      <trkpt lat="43.396656252443790435791015625" lon="-4.185448028147220611572265625">
        <ele>59</ele>
        <time>2018-09-06T06:43:52.000Z</time>
      </trkpt>
      <trkpt lat="43.3966151811182498931884765625" lon="-4.1856902651488780975341796875">
        <ele>57.59999847412109375</ele>
        <time>2018-09-06T06:43:54.000Z</time>
      </trkpt>
      <trkpt lat="43.39657536707818508148193359375" lon="-4.18606401421129703521728515625">
        <ele>56.59999847412109375</ele>
        <time>2018-09-06T06:43:57.000Z</time>
      </trkpt>
      <trkpt lat="43.3965682424604892730712890625" lon="-4.1861884854733943939208984375">
        <ele>56.200000762939453125</ele>
        <time>2018-09-06T06:43:58.000Z</time>
      </trkpt>
      <trkpt lat="43.396553657948970794677734375" lon="-4.18654999695718288421630859375">
        <ele>55.40000152587890625</ele>
        <time>2018-09-06T06:44:01.000Z</time>
      </trkpt>
      <trkpt lat="43.39653664268553256988525390625" lon="-4.186999015510082244873046875">
        <ele>55</ele>
        <time>2018-09-06T06:44:05.000Z</time>
      </trkpt>
      <trkpt lat="43.3965132571756839752197265625" lon="-4.1873158514499664306640625">
        <ele>54.40000152587890625</ele>
        <time>2018-09-06T06:44:08.000Z</time>
      </trkpt>
      <trkpt lat="43.3964871056377887725830078125" lon="-4.1875262372195720672607421875">
        <ele>53.200000762939453125</ele>
        <time>2018-09-06T06:44:10.000Z</time>
      </trkpt>
      <trkpt lat="43.3964480459690093994140625" lon="-4.18773218058049678802490234375">
        <ele>52.59999847412109375</ele>
        <time>2018-09-06T06:44:12.000Z</time>
      </trkpt>
      <trkpt lat="43.396400101482868194580078125" lon="-4.1879362799227237701416015625">
        <ele>52</ele>
        <time>2018-09-06T06:44:14.000Z</time>
      </trkpt>
      <trkpt lat="43.39629272930324077606201171875" lon="-4.1883619129657745361328125">
        <ele>50.40000152587890625</ele>
        <time>2018-09-06T06:44:18.000Z</time>
      </trkpt>
      <trkpt lat="43.39623657055199146270751953125" lon="-4.18858026154339313507080078125">
        <ele>49.40000152587890625</ele>
        <time>2018-09-06T06:44:20.000Z</time>
      </trkpt>
      <trkpt lat="43.39620941318571567535400390625" lon="-4.18868788518011569976806640625">
        <ele>49.200000762939453125</ele>
        <time>2018-09-06T06:44:21.000Z</time>
      </trkpt>
      <trkpt lat="43.39607295580208301544189453125" lon="-4.1892317868769168853759765625">
        <ele>47.799999237060546875</ele>
        <time>2018-09-06T06:44:26.000Z</time>
      </trkpt>
      <trkpt lat="43.39602786116302013397216796875" lon="-4.18945784680545330047607421875">
        <ele>46.59999847412109375</ele>
        <time>2018-09-06T06:44:28.000Z</time>
      </trkpt>
      <trkpt lat="43.39598201215267181396484375" lon="-4.18968893587589263916015625">
        <ele>45.59999847412109375</ele>
        <time>2018-09-06T06:44:30.000Z</time>
      </trkpt>
      <trkpt lat="43.3959385938942432403564453125" lon="-4.18992388062179088592529296875">
        <ele>44.40000152587890625</ele>
        <time>2018-09-06T06:44:32.000Z</time>
      </trkpt>
      <trkpt lat="43.395875729620456695556640625" lon="-4.190287403762340545654296875">
        <ele>43.200000762939453125</ele>
        <time>2018-09-06T06:44:35.000Z</time>
      </trkpt>
      <trkpt lat="43.39583289809525012969970703125" lon="-4.19053626246750354766845703125">
        <ele>42</ele>
        <time>2018-09-06T06:44:37.000Z</time>
      </trkpt>
      <trkpt lat="43.39581445790827274322509765625" lon="-4.19066232629120349884033203125">
        <ele>41.40000152587890625</ele>
        <time>2018-09-06T06:44:38.000Z</time>
      </trkpt>
      <trkpt lat="43.3957769908010959625244140625" lon="-4.190918393433094024658203125">
        <ele>40.59999847412109375</ele>
        <time>2018-09-06T06:44:40.000Z</time>
      </trkpt>
      <trkpt lat="43.395737595856189727783203125" lon="-4.1911723650991916656494140625">
        <ele>38.40000152587890625</ele>
        <time>2018-09-06T06:44:42.000Z</time>
      </trkpt>
      <trkpt lat="43.39567213319242000579833984375" lon="-4.191557429730892181396484375">
        <ele>37</ele>
        <time>2018-09-06T06:44:45.000Z</time>
      </trkpt>
      <trkpt lat="43.39560918509960174560546875" lon="-4.19180779717862606048583984375">
        <ele>36</ele>
        <time>2018-09-06T06:44:47.000Z</time>
      </trkpt>
      <trkpt lat="43.39552628807723522186279296875" lon="-4.19205456040799617767333984375">
        <ele>34.59999847412109375</ele>
        <time>2018-09-06T06:44:49.000Z</time>
      </trkpt>
      <trkpt lat="43.3954195864498615264892578125" lon="-4.19228975661098957061767578125">
        <ele>33.40000152587890625</ele>
        <time>2018-09-06T06:44:51.000Z</time>
      </trkpt>
      <trkpt lat="43.39529360644519329071044921875" lon="-4.1925097815692424774169921875">
        <ele>31.799999237060546875</ele>
        <time>2018-09-06T06:44:53.000Z</time>
      </trkpt>
      <trkpt lat="43.39515245519578456878662109375" lon="-4.19269971549510955810546875">
        <ele>31.200000762939453125</ele>
        <time>2018-09-06T06:44:55.000Z</time>
      </trkpt>
      <trkpt lat="43.394917510449886322021484375" lon="-4.1929305531084537506103515625">
        <ele>30.3999996185302734375</ele>
        <time>2018-09-06T06:44:58.000Z</time>
      </trkpt>
      <trkpt lat="43.3947473578155040740966796875" lon="-4.193049408495426177978515625">
        <ele>29.3999996185302734375</ele>
        <time>2018-09-06T06:45:00.000Z</time>
      </trkpt>
      <trkpt lat="43.3945704996585845947265625" lon="-4.19313649646937847137451171875">
        <ele>28.3999996185302734375</ele>
        <time>2018-09-06T06:45:02.000Z</time>
      </trkpt>
      <trkpt lat="43.3943936415016651153564453125" lon="-4.1931927390396595001220703125">
        <ele>28.200000762939453125</ele>
        <time>2018-09-06T06:45:04.000Z</time>
      </trkpt>
      <trkpt lat="43.3943061344325542449951171875" lon="-4.19321201741695404052734375">
        <ele>28.200000762939453125</ele>
        <time>2018-09-06T06:45:05.000Z</time>
      </trkpt>
      <trkpt lat="43.39379810728132724761962890625" lon="-4.1932664997875690460205078125">
        <ele>28</ele>
        <time>2018-09-06T06:45:11.000Z</time>
      </trkpt>
      <trkpt lat="43.39340751059353351593017578125" lon="-4.1933288611471652984619140625">
        <ele>29.6000003814697265625</ele>
        <time>2018-09-06T06:45:17.000Z</time>
      </trkpt>
      <trkpt lat="43.3932654373347759246826171875" lon="-4.1933620534837245941162109375">
        <ele>31.200000762939453125</ele>
        <time>2018-09-06T06:45:20.000Z</time>
      </trkpt>
      <trkpt lat="43.393198885023593902587890625" lon="-4.19337672181427478790283203125">
        <ele>31.6000003814697265625</ele>
        <time>2018-09-06T06:45:22.000Z</time>
      </trkpt>
      <trkpt lat="43.39307273738086223602294921875" lon="-4.19343589805066585540771484375">
        <ele>32</ele>
        <time>2018-09-06T06:45:27.000Z</time>
      </trkpt>
      <trkpt lat="43.39304138906300067901611328125" lon="-4.19345215894281864166259765625">
        <ele>32.200000762939453125</ele>
        <time>2018-09-06T06:45:28.000Z</time>
      </trkpt>
      <trkpt lat="43.3929133974015712738037109375" lon="-4.1935367323458194732666015625">
        <ele>32.799999237060546875</ele>
        <time>2018-09-06T06:45:32.000Z</time>
      </trkpt>
      <trkpt lat="43.39278691448271274566650390625" lon="-4.193626083433628082275390625">
        <ele>33.40000152587890625</ele>
        <time>2018-09-06T06:45:36.000Z</time>
      </trkpt>
      <trkpt lat="43.3926797099411487579345703125" lon="-4.19371853582561016082763671875">
        <ele>34</ele>
        <time>2018-09-06T06:45:40.000Z</time>
      </trkpt>
      <trkpt lat="43.39263671077787876129150390625" lon="-4.1937731020152568817138671875">
        <ele>34.40000152587890625</ele>
        <time>2018-09-06T06:45:42.000Z</time>
      </trkpt>
      <trkpt lat="43.39256278239190578460693359375" lon="-4.1938515566289424896240234375">
        <ele>35</ele>
        <time>2018-09-06T06:45:45.000Z</time>
      </trkpt>
      <trkpt lat="43.3924756944179534912109375" lon="-4.193962700664997100830078125">
        <ele>35.200000762939453125</ele>
        <time>2018-09-06T06:45:49.000Z</time>
      </trkpt>
      <trkpt lat="43.3924542367458343505859375" lon="-4.19399128295481204986572265625">
        <ele>35.40000152587890625</ele>
        <time>2018-09-06T06:45:50.000Z</time>
      </trkpt>
      <trkpt lat="43.39238877408206462860107421875" lon="-4.19408834539353847503662109375">
        <ele>36</ele>
        <time>2018-09-06T06:45:53.000Z</time>
      </trkpt>
      <trkpt lat="43.392323143780231475830078125" lon="-4.19417954050004482269287109375">
        <ele>36.59999847412109375</ele>
        <time>2018-09-06T06:45:56.000Z</time>
      </trkpt>
      <trkpt lat="43.39223823510110378265380859375" lon="-4.1942989826202392578125">
        <ele>37</ele>
        <time>2018-09-06T06:46:00.000Z</time>
      </trkpt>
      <trkpt lat="43.39220185764133930206298828125" lon="-4.19435421936213970184326171875">
        <ele>37.200000762939453125</ele>
        <time>2018-09-06T06:46:02.000Z</time>
      </trkpt>
      <trkpt lat="43.39210110716521739959716796875" lon="-4.194520600140094757080078125">
        <ele>37.59999847412109375</ele>
        <time>2018-09-06T06:46:08.000Z</time>
      </trkpt>
      <trkpt lat="43.39195727370679378509521484375" lon="-4.19476526789367198944091796875">
        <ele>38.59999847412109375</ele>
        <time>2018-09-06T06:46:16.000Z</time>
      </trkpt>
      <trkpt lat="43.3919001929461956024169921875" lon="-4.194849170744419097900390625">
        <ele>39</ele>
        <time>2018-09-06T06:46:19.000Z</time>
      </trkpt>
      <trkpt lat="43.3918237499892711639404296875" lon="-4.19496526010334491729736328125">
        <ele>39.40000152587890625</ele>
        <time>2018-09-06T06:46:23.000Z</time>
      </trkpt>
      <trkpt lat="43.39173867367208003997802734375" lon="-4.1951076686382293701171875">
        <ele>39.59999847412109375</ele>
        <time>2018-09-06T06:46:28.000Z</time>
      </trkpt>
      <trkpt lat="43.3917231671512126922607421875" lon="-4.1951249353587627410888671875">
        <ele>39.799999237060546875</ele>
        <time>2018-09-06T06:46:29.000Z</time>
      </trkpt>
      <trkpt lat="43.39170933701097965240478515625" lon="-4.19514798559248447418212890625">
        <ele>40</ele>
        <time>2018-09-06T06:46:30.000Z</time>
      </trkpt>
      <trkpt lat="43.391611017286777496337890625" lon="-4.19531428255140781402587890625">
        <ele>40.200000762939453125</ele>
        <time>2018-09-06T06:46:36.000Z</time>
      </trkpt>
      <trkpt lat="43.3915930800139904022216796875" lon="-4.195340014994144439697265625">
        <ele>40.200000762939453125</ele>
        <time>2018-09-06T06:46:37.000Z</time>
      </trkpt>
      <trkpt lat="43.3915396034717559814453125" lon="-4.19541922397911548614501953125">
        <ele>40.59999847412109375</ele>
        <time>2018-09-06T06:46:40.000Z</time>
      </trkpt>
      <trkpt lat="43.391519151628017425537109375" lon="-4.1954464651644229888916015625">
        <ele>40.799999237060546875</ele>
        <time>2018-09-06T06:46:41.000Z</time>
      </trkpt>
      <trkpt lat="43.3914633281528949737548828125" lon="-4.195527769625186920166015625">
        <ele>41</ele>
        <time>2018-09-06T06:46:44.000Z</time>
      </trkpt>
      <trkpt lat="43.39139115996658802032470703125" lon="-4.19563899748027324676513671875">
        <ele>41.40000152587890625</ele>
        <time>2018-09-06T06:46:48.000Z</time>
      </trkpt>
      <trkpt lat="43.39133818633854389190673828125" lon="-4.1957245767116546630859375">
        <ele>41.799999237060546875</ele>
        <time>2018-09-06T06:46:51.000Z</time>
      </trkpt>
      <trkpt lat="43.3912990428507328033447265625" lon="-4.195778556168079376220703125">
        <ele>41.799999237060546875</ele>
        <time>2018-09-06T06:46:53.000Z</time>
      </trkpt>
      <trkpt lat="43.39114339090883731842041015625" lon="-4.19599271379411220550537109375">
        <ele>42.40000152587890625</ele>
        <time>2018-09-06T06:47:01.000Z</time>
      </trkpt>
      <trkpt lat="43.391067199409008026123046875" lon="-4.19607519172132015228271484375">
        <ele>43</ele>
        <time>2018-09-06T06:47:05.000Z</time>
      </trkpt>
      <trkpt lat="43.391012884676456451416015625" lon="-4.19614098966121673583984375">
        <ele>43.200000762939453125</ele>
        <time>2018-09-06T06:47:08.000Z</time>
      </trkpt>
      <trkpt lat="43.39091674424707889556884765625" lon="-4.196264035999774932861328125">
        <ele>44</ele>
        <time>2018-09-06T06:47:13.000Z</time>
      </trkpt>
      <trkpt lat="43.39087567292153835296630859375" lon="-4.19631239958107471466064453125">
        <ele>44.200000762939453125</ele>
        <time>2018-09-06T06:47:15.000Z</time>
      </trkpt>
      <trkpt lat="43.3907724916934967041015625" lon="-4.1964305005967617034912109375">
        <ele>45</ele>
        <time>2018-09-06T06:47:20.000Z</time>
      </trkpt>
      <trkpt lat="43.3906760998070240020751953125" lon="-4.19654457829892635345458984375">
        <ele>45.59999847412109375</ele>
        <time>2018-09-06T06:47:25.000Z</time>
      </trkpt>
      <trkpt lat="43.39063368737697601318359375" lon="-4.19659269042313098907470703125">
        <ele>46.200000762939453125</ele>
        <time>2018-09-06T06:47:27.000Z</time>
      </trkpt>
      <trkpt lat="43.39051709510385990142822265625" lon="-4.196752198040485382080078125">
        <ele>47.200000762939453125</ele>
        <time>2018-09-06T06:47:33.000Z</time>
      </trkpt>
      <trkpt lat="43.39049748145043849945068359375" lon="-4.19677742756903171539306640625">
        <ele>47.40000152587890625</ele>
        <time>2018-09-06T06:47:34.000Z</time>
      </trkpt>
      <trkpt lat="43.39037544094026088714599609375" lon="-4.19695772230625152587890625">
        <ele>48.40000152587890625</ele>
        <time>2018-09-06T06:47:41.000Z</time>
      </trkpt>
      <trkpt lat="43.39035884477198123931884765625" lon="-4.19698077253997325897216796875">
        <ele>48.59999847412109375</ele>
        <time>2018-09-06T06:47:42.000Z</time>
      </trkpt>
      <trkpt lat="43.39024099521338939666748046875" lon="-4.19718026183545589447021484375">
        <ele>49.799999237060546875</ele>
        <time>2018-09-06T06:47:50.000Z</time>
      </trkpt>
      <trkpt lat="43.3902280032634735107421875" lon="-4.197204820811748504638671875">
        <ele>49.799999237060546875</ele>
        <time>2018-09-06T06:47:51.000Z</time>
      </trkpt>
      <trkpt lat="43.390147201716899871826171875" lon="-4.19736650772392749786376953125">
        <ele>50.799999237060546875</ele>
        <time>2018-09-06T06:47:57.000Z</time>
      </trkpt>
      <trkpt lat="43.39007738046348094940185546875" lon="-4.19751872308552265167236328125">
        <ele>51.799999237060546875</ele>
        <time>2018-09-06T06:48:03.000Z</time>
      </trkpt>
      <trkpt lat="43.3900457806885242462158203125" lon="-4.19760170392692089080810546875">
        <ele>52.200000762939453125</ele>
        <time>2018-09-06T06:48:06.000Z</time>
      </trkpt>
      <trkpt lat="43.38997998274862766265869140625" lon="-4.197760038077831268310546875">
        <ele>52.799999237060546875</ele>
        <time>2018-09-06T06:48:12.000Z</time>
      </trkpt>
      <trkpt lat="43.3899549208581447601318359375" lon="-4.1978462040424346923828125">
        <ele>53.200000762939453125</ele>
        <time>2018-09-06T06:48:15.000Z</time>
      </trkpt>
      <trkpt lat="43.389929942786693572998046875" lon="-4.19796489179134368896484375">
        <ele>54</ele>
        <time>2018-09-06T06:48:19.000Z</time>
      </trkpt>
      <trkpt lat="43.38989247567951679229736328125" lon="-4.198111407458782196044921875">
        <ele>54.799999237060546875</ele>
        <time>2018-09-06T06:48:24.000Z</time>
      </trkpt>
      <trkpt lat="43.3898848481476306915283203125" lon="-4.19814418070018291473388671875">
        <ele>55</ele>
        <time>2018-09-06T06:48:25.000Z</time>
      </trkpt>
      <trkpt lat="43.38983648456633090972900390625" lon="-4.19834350235760211944580078125">
        <ele>56.200000762939453125</ele>
        <time>2018-09-06T06:48:32.000Z</time>
      </trkpt>
      <trkpt lat="43.3898130990564823150634765625" lon="-4.1984282433986663818359375">
        <ele>56.40000152587890625</ele>
        <time>2018-09-06T06:48:35.000Z</time>
      </trkpt>
      <trkpt lat="43.38975953869521617889404296875" lon="-4.19868766330182552337646484375">
        <ele>57.40000152587890625</ele>
        <time>2018-09-06T06:48:43.000Z</time>
      </trkpt>
      <trkpt lat="43.38975233025848865509033203125" lon="-4.19872219674289226531982421875">
        <ele>57.59999847412109375</ele>
        <time>2018-09-06T06:48:44.000Z</time>
      </trkpt>
      <trkpt lat="43.38966675102710723876953125" lon="-4.19904842041432857513427734375">
        <ele>57.59999847412109375</ele>
        <time>2018-09-06T06:48:53.000Z</time>
      </trkpt>
      <trkpt lat="43.3895654976367950439453125" lon="-4.19943985529243946075439453125">
        <ele>58</ele>
        <time>2018-09-06T06:49:02.000Z</time>
      </trkpt>
      <trkpt lat="43.38946013711392879486083984375" lon="-4.1997172124683856964111328125">
        <ele>57.799999237060546875</ele>
        <time>2018-09-06T06:49:08.000Z</time>
      </trkpt>
      <trkpt lat="43.389440439641475677490234375" lon="-4.199768006801605224609375">
        <ele>57.59999847412109375</ele>
        <time>2018-09-06T06:49:09.000Z</time>
      </trkpt>
      <trkpt lat="43.3893815986812114715576171875" lon="-4.1999200545251369476318359375">
        <ele>57.40000152587890625</ele>
        <time>2018-09-06T06:49:12.000Z</time>
      </trkpt>
      <trkpt lat="43.38931672275066375732421875" lon="-4.20007101260125637054443359375">
        <ele>57</ele>
        <time>2018-09-06T06:49:15.000Z</time>
      </trkpt>
      <trkpt lat="43.38922326453030109405517578125" lon="-4.20028810389339923858642578125">
        <ele>56.59999847412109375</ele>
        <time>2018-09-06T06:49:20.000Z</time>
      </trkpt>
      <trkpt lat="43.3891982026398181915283203125" lon="-4.200345687568187713623046875">
        <ele>56.40000152587890625</ele>
        <time>2018-09-06T06:49:21.000Z</time>
      </trkpt>
      <trkpt lat="43.38917230255901813507080078125" lon="-4.20040444470942020416259765625">
        <ele>55.799999237060546875</ele>
        <time>2018-09-06T06:49:22.000Z</time>
      </trkpt>
      <trkpt lat="43.38902595452964305877685546875" lon="-4.2007428221404552459716796875">
        <ele>54.59999847412109375</ele>
        <time>2018-09-06T06:49:27.000Z</time>
      </trkpt>
      <trkpt lat="43.388889916241168975830078125" lon="-4.20105278491973876953125">
        <ele>53.200000762939453125</ele>
        <time>2018-09-06T06:49:31.000Z</time>
      </trkpt>
      <trkpt lat="43.38885270059108734130859375" lon="-4.20113383792340755462646484375">
        <ele>52</ele>
        <time>2018-09-06T06:49:32.000Z</time>
      </trkpt>
      <trkpt lat="43.38877986185252666473388671875" lon="-4.2013007216155529022216796875">
        <ele>51.40000152587890625</ele>
        <time>2018-09-06T06:49:34.000Z</time>
      </trkpt>
      <trkpt lat="43.38870895095169544219970703125" lon="-4.2014680244028568267822265625">
        <ele>51</ele>
        <time>2018-09-06T06:49:36.000Z</time>
      </trkpt>
      <trkpt lat="43.3885702304542064666748046875" lon="-4.20178477652370929718017578125">
        <ele>50.59999847412109375</ele>
        <time>2018-09-06T06:49:40.000Z</time>
      </trkpt>
      <trkpt lat="43.38853888213634490966796875" lon="-4.20185887254774570465087890625">
        <ele>50.59999847412109375</ele>
        <time>2018-09-06T06:49:41.000Z</time>
      </trkpt>
      <trkpt lat="43.38844542391598224639892578125" lon="-4.20205056667327880859375">
        <ele>50.40000152587890625</ele>
        <time>2018-09-06T06:49:44.000Z</time>
      </trkpt>
      <trkpt lat="43.38839680887758731842041015625" lon="-4.20216565020382404327392578125">
        <ele>50.40000152587890625</ele>
        <time>2018-09-06T06:49:46.000Z</time>
      </trkpt>
      <trkpt lat="43.3882805518805980682373046875" lon="-4.2024488747119903564453125">
        <ele>51</ele>
        <time>2018-09-06T06:49:52.000Z</time>
      </trkpt>
      <trkpt lat="43.38819262571632862091064453125" lon="-4.20265213586390018463134765625">
        <ele>52</ele>
        <time>2018-09-06T06:49:57.000Z</time>
      </trkpt>
      <trkpt lat="43.38812272064387798309326171875" lon="-4.20279412530362606048583984375">
        <ele>52.200000762939453125</ele>
        <time>2018-09-06T06:50:01.000Z</time>
      </trkpt>
      <trkpt lat="43.3880639635026454925537109375" lon="-4.20293896459043025970458984375">
        <ele>52.59999847412109375</ele>
        <time>2018-09-06T06:50:05.000Z</time>
      </trkpt>
      <trkpt lat="43.38803303427994251251220703125" lon="-4.20301222242414951324462890625">
        <ele>53</ele>
        <time>2018-09-06T06:50:07.000Z</time>
      </trkpt>
      <trkpt lat="43.3880150131881237030029296875" lon="-4.2030485160648822784423828125">
        <ele>53</ele>
        <time>2018-09-06T06:50:08.000Z</time>
      </trkpt>
      <trkpt lat="43.3879640512168407440185546875" lon="-4.203159995377063751220703125">
        <ele>53.59999847412109375</ele>
        <time>2018-09-06T06:50:11.000Z</time>
      </trkpt>
      <trkpt lat="43.387918286025524139404296875" lon="-4.2032711394131183624267578125">
        <ele>54.200000762939453125</ele>
        <time>2018-09-06T06:50:14.000Z</time>
      </trkpt>
      <trkpt lat="43.38786791078746318817138671875" lon="-4.2033770866692066192626953125">
        <ele>54.40000152587890625</ele>
        <time>2018-09-06T06:50:17.000Z</time>
      </trkpt>
      <trkpt lat="43.38779926300048828125" lon="-4.20352888293564319610595703125">
        <ele>55</ele>
        <time>2018-09-06T06:50:21.000Z</time>
      </trkpt>
      <trkpt lat="43.38776699267327785491943359375" lon="-4.20360716991126537322998046875">
        <ele>55.200000762939453125</ele>
        <time>2018-09-06T06:50:23.000Z</time>
      </trkpt>
      <trkpt lat="43.3877524919807910919189453125" lon="-4.20364446938037872314453125">
        <ele>55.200000762939453125</ele>
        <time>2018-09-06T06:50:24.000Z</time>
      </trkpt>
      <trkpt lat="43.38760547339916229248046875" lon="-4.20399206690490245819091796875">
        <ele>55.40000152587890625</ele>
        <time>2018-09-06T06:50:33.000Z</time>
      </trkpt>
      <trkpt lat="43.38746876455843448638916015625" lon="-4.2043249122798442840576171875">
        <ele>55.59999847412109375</ele>
        <time>2018-09-06T06:50:41.000Z</time>
      </trkpt>
      <trkpt lat="43.38739265687763690948486328125" lon="-4.20451124198734760284423828125">
        <ele>55.59999847412109375</ele>
        <time>2018-09-06T06:50:45.000Z</time>
      </trkpt>
      <trkpt lat="43.38733683340251445770263671875" lon="-4.20466295443475246429443359375">
        <ele>55.200000762939453125</ele>
        <time>2018-09-06T06:50:48.000Z</time>
      </trkpt>
      <trkpt lat="43.38729693554341793060302734375" lon="-4.20477208681404590606689453125">
        <ele>55.200000762939453125</ele>
        <time>2018-09-06T06:50:50.000Z</time>
      </trkpt>
      <trkpt lat="43.38723205961287021636962890625" lon="-4.20495162717998027801513671875">
        <ele>54.59999847412109375</ele>
        <time>2018-09-06T06:50:53.000Z</time>
      </trkpt>
      <trkpt lat="43.3871917426586151123046875" lon="-4.2050796188414096832275390625">
        <ele>54.200000762939453125</ele>
        <time>2018-09-06T06:50:55.000Z</time>
      </trkpt>
      <trkpt lat="43.38716936297714710235595703125" lon="-4.2051456682384014129638671875">
        <ele>53.59999847412109375</ele>
        <time>2018-09-06T06:50:56.000Z</time>
      </trkpt>
      <trkpt lat="43.38713206350803375244140625" lon="-4.20528740622103214263916015625">
        <ele>52.799999237060546875</ele>
        <time>2018-09-06T06:50:58.000Z</time>
      </trkpt>
      <trkpt lat="43.38709409348666667938232421875" lon="-4.20543928630650043487548828125">
        <ele>51.799999237060546875</ele>
        <time>2018-09-06T06:51:00.000Z</time>
      </trkpt>
      <trkpt lat="43.38707481510937213897705078125" lon="-4.20551572926342487335205078125">
        <ele>51.200000762939453125</ele>
        <time>2018-09-06T06:51:01.000Z</time>
      </trkpt>
      <trkpt lat="43.38697155006229877471923828125" lon="-4.20600858516991138458251953125">
        <ele>50.200000762939453125</ele>
        <time>2018-09-06T06:51:07.000Z</time>
      </trkpt>
      <trkpt lat="43.38695998303592205047607421875" lon="-4.20609089545905590057373046875">
        <ele>50.40000152587890625</ele>
        <time>2018-09-06T06:51:08.000Z</time>
      </trkpt>
      <trkpt lat="43.38694757781922817230224609375" lon="-4.2061722837388515472412109375">
        <ele>50.200000762939453125</ele>
        <time>2018-09-06T06:51:09.000Z</time>
      </trkpt>
      <trkpt lat="43.38692578487098217010498046875" lon="-4.20633397065103054046630859375">
        <ele>48.40000152587890625</ele>
        <time>2018-09-06T06:51:11.000Z</time>
      </trkpt>
      <trkpt lat="43.38689527474343776702880859375" lon="-4.206664301455020904541015625">
        <ele>48.799999237060546875</ele>
        <time>2018-09-06T06:51:15.000Z</time>
      </trkpt>
      <trkpt lat="43.3868884854018688201904296875" lon="-4.2067486234009265899658203125">
        <ele>48.59999847412109375</ele>
        <time>2018-09-06T06:51:16.000Z</time>
      </trkpt>
      <trkpt lat="43.38685445487499237060546875" lon="-4.2073787748813629150390625">
        <ele>48.799999237060546875</ele>
        <time>2018-09-06T06:51:24.000Z</time>
      </trkpt>
      <trkpt lat="43.3868412114679813385009765625" lon="-4.20765831135213375091552734375">
        <ele>48.799999237060546875</ele>
        <time>2018-09-06T06:51:28.000Z</time>
      </trkpt>
      <trkpt lat="43.386832661926746368408203125" lon="-4.20784874819219112396240234375">
        <ele>48.59999847412109375</ele>
        <time>2018-09-06T06:51:31.000Z</time>
      </trkpt>
      <trkpt lat="43.3868288062512874603271484375" lon="-4.20790825970470905303955078125">
        <ele>48.59999847412109375</ele>
        <time>2018-09-06T06:51:32.000Z</time>
      </trkpt>
      <trkpt lat="43.38682235218584537506103515625" lon="-4.2081333138048648834228515625">
        <ele>49.200000762939453125</ele>
        <time>2018-09-06T06:51:36.000Z</time>
      </trkpt>
      <trkpt lat="43.38681799359619617462158203125" lon="-4.20818553306162357330322265625">
        <ele>49.40000152587890625</ele>
        <time>2018-09-06T06:51:37.000Z</time>
      </trkpt>
      <trkpt lat="43.3868189156055450439453125" lon="-4.20828309841454029083251953125">
        <ele>49.799999237060546875</ele>
        <time>2018-09-06T06:51:39.000Z</time>
      </trkpt>
      <trkpt lat="43.38682151399552822113037109375" lon="-4.20847152359783649444580078125">
        <ele>50.40000152587890625</ele>
        <time>2018-09-06T06:51:43.000Z</time>
      </trkpt>
      <trkpt lat="43.38682151399552822113037109375" lon="-4.208605550229549407958984375">
        <ele>50.59999847412109375</ele>
        <time>2018-09-06T06:51:46.000Z</time>
      </trkpt>
      <trkpt lat="43.3868157304823398590087890625" lon="-4.2087371461093425750732421875">
        <ele>51.200000762939453125</ele>
        <time>2018-09-06T06:51:49.000Z</time>
      </trkpt>
      <trkpt lat="43.3868170715868473052978515625" lon="-4.20877754688262939453125">
        <ele>51.59999847412109375</ele>
        <time>2018-09-06T06:51:50.000Z</time>
      </trkpt>
      <trkpt lat="43.3868217654526233673095703125" lon="-4.20893236063420772552490234375">
        <ele>52</ele>
        <time>2018-09-06T06:51:54.000Z</time>
      </trkpt>
      <trkpt lat="43.3868247829377651214599609375" lon="-4.209005534648895263671875">
        <ele>52.59999847412109375</ele>
        <time>2018-09-06T06:51:56.000Z</time>
      </trkpt>
      <trkpt lat="43.3868311531841754913330078125" lon="-4.2092430777847766876220703125">
        <ele>53.200000762939453125</ele>
        <time>2018-09-06T06:52:03.000Z</time>
      </trkpt>
      <trkpt lat="43.38683140464127063751220703125" lon="-4.20931055210530757904052734375">
        <ele>53.799999237060546875</ele>
        <time>2018-09-06T06:52:05.000Z</time>
      </trkpt>
      <trkpt lat="43.386843390762805938720703125" lon="-4.20951674692332744598388671875">
        <ele>54.59999847412109375</ele>
        <time>2018-09-06T06:52:11.000Z</time>
      </trkpt>
      <trkpt lat="43.38684632442891597747802734375" lon="-4.2095511965453624725341796875">
        <ele>54.799999237060546875</ele>
        <time>2018-09-06T06:52:12.000Z</time>
      </trkpt>
      <trkpt lat="43.3868542872369289398193359375" lon="-4.20961665920913219451904296875">
        <ele>55</ele>
        <time>2018-09-06T06:52:14.000Z</time>
      </trkpt>
      <trkpt lat="43.3868814446032047271728515625" lon="-4.2098881490528583526611328125">
        <ele>55.59999847412109375</ele>
        <time>2018-09-06T06:52:22.000Z</time>
      </trkpt>
      <trkpt lat="43.38689343072474002838134765625" lon="-4.2099939286708831787109375">
        <ele>56</ele>
        <time>2018-09-06T06:52:25.000Z</time>
      </trkpt>
      <trkpt lat="43.38691857643425464630126953125" lon="-4.2101790010929107666015625">
        <ele>56.59999847412109375</ele>
        <time>2018-09-06T06:52:30.000Z</time>
      </trkpt>
      <trkpt lat="43.38697574101388454437255859375" lon="-4.210494495928287506103515625">
        <ele>57.200000762939453125</ele>
        <time>2018-09-06T06:52:38.000Z</time>
      </trkpt>
      <trkpt lat="43.3869905769824981689453125" lon="-4.21058057807385921478271484375">
        <ele>57.200000762939453125</ele>
        <time>2018-09-06T06:52:40.000Z</time>
      </trkpt>
      <trkpt lat="43.38705067522823810577392578125" lon="-4.21084888279438018798828125">
        <ele>57.40000152587890625</ele>
        <time>2018-09-06T06:52:46.000Z</time>
      </trkpt>
      <trkpt lat="43.38715041987597942352294921875" lon="-4.21133209951221942901611328125">
        <ele>57.40000152587890625</ele>
        <time>2018-09-06T06:52:56.000Z</time>
      </trkpt>
      <trkpt lat="43.38722870685160160064697265625" lon="-4.21166184358298778533935546875">
        <ele>57.200000762939453125</ele>
        <time>2018-09-06T06:53:02.000Z</time>
      </trkpt>
      <trkpt lat="43.38731688447296619415283203125" lon="-4.21203047968447208404541015625">
        <ele>58</ele>
        <time>2018-09-06T06:53:09.000Z</time>
      </trkpt>
      <trkpt lat="43.3873662538826465606689453125" lon="-4.21221815049648284912109375">
        <ele>58.200000762939453125</ele>
        <time>2018-09-06T06:53:13.000Z</time>
      </trkpt>
      <trkpt lat="43.387438841164112091064453125" lon="-4.21247589401900768280029296875">
        <ele>58.799999237060546875</ele>
        <time>2018-09-06T06:53:19.000Z</time>
      </trkpt>
      <trkpt lat="43.38748318143188953399658203125" lon="-4.21266247518360614776611328125">
        <ele>59.40000152587890625</ele>
        <time>2018-09-06T06:53:24.000Z</time>
      </trkpt>
      <trkpt lat="43.3875037170946598052978515625" lon="-4.21273439191281795501708984375">
        <ele>59.799999237060546875</ele>
        <time>2018-09-06T06:53:26.000Z</time>
      </trkpt>
      <trkpt lat="43.3875654079020023345947265625" lon="-4.2129643075168132781982421875">
        <ele>60.40000152587890625</ele>
        <time>2018-09-06T06:53:32.000Z</time>
      </trkpt>
      <trkpt lat="43.387649394571781158447265625" lon="-4.21332280151546001434326171875">
        <ele>60.799999237060546875</ele>
        <time>2018-09-06T06:53:41.000Z</time>
      </trkpt>
      <trkpt lat="43.387685604393482208251953125" lon="-4.213611222803592681884765625">
        <ele>60.59999847412109375</ele>
        <time>2018-09-06T06:53:47.000Z</time>
      </trkpt>
      <trkpt lat="43.38768862187862396240234375" lon="-4.213662855327129364013671875">
        <ele>60.59999847412109375</ele>
        <time>2018-09-06T06:53:48.000Z</time>
      </trkpt>
      <trkpt lat="43.387723825871944427490234375" lon="-4.21397960744798183441162109375">
        <ele>60.200000762939453125</ele>
        <time>2018-09-06T06:53:55.000Z</time>
      </trkpt>
      <trkpt lat="43.38773497380316257476806640625" lon="-4.21405403874814510345458984375">
        <ele>60.200000762939453125</ele>
        <time>2018-09-06T06:53:57.000Z</time>
      </trkpt>
      <trkpt lat="43.387725837528705596923828125" lon="-4.2141277156770229339599609375">
        <ele>59.799999237060546875</ele>
        <time>2018-09-06T06:53:59.000Z</time>
      </trkpt>
      <trkpt lat="43.38767998851835727691650390625" lon="-4.21436299569904804229736328125">
        <ele>59.200000762939453125</ele>
        <time>2018-09-06T06:54:04.000Z</time>
      </trkpt>
      <trkpt lat="43.3876683376729488372802734375" lon="-4.21441194601356983184814453125">
        <ele>59.200000762939453125</ele>
        <time>2018-09-06T06:54:05.000Z</time>
      </trkpt>
      <trkpt lat="43.38767998851835727691650390625" lon="-4.214562065899372100830078125">
        <ele>59.200000762939453125</ele>
        <time>2018-09-06T06:54:09.000Z</time>
      </trkpt>
      <trkpt lat="43.38768417946994304656982421875" lon="-4.21465267427265644073486328125">
        <ele>59.59999847412109375</ele>
        <time>2018-09-06T06:54:14.000Z</time>
      </trkpt>
      <trkpt lat="43.38767881505191326141357421875" lon="-4.2146624810993671417236328125">
        <ele>59.59999847412109375</ele>
        <time>2018-09-06T06:54:15.000Z</time>
      </trkpt>
      <trkpt lat="43.387656770646572113037109375" lon="-4.21464999206364154815673828125">
        <ele>59.40000152587890625</ele>
        <time>2018-09-06T06:54:19.000Z</time>
      </trkpt>
      <trkpt lat="43.38765886612236499786376953125" lon="-4.21461361460387706756591796875">
        <ele>59.59999847412109375</ele>
        <time>2018-09-06T06:54:22.000Z</time>
      </trkpt>
      <trkpt lat="43.3876857720315456390380859375" lon="-4.21462384052574634552001953125">
        <ele>59.59999847412109375</ele>
        <time>2018-09-06T06:54:25.000Z</time>
      </trkpt>
      <trkpt lat="43.3876965008676052093505859375" lon="-4.2146708630025386810302734375">
        <ele>59.59999847412109375</ele>
        <time>2018-09-06T06:54:30.000Z</time>
      </trkpt>
      <trkpt lat="43.38772105984389781951904296875" lon="-4.21471587382256984710693359375">
        <ele>59.59999847412109375</ele>
        <time>2018-09-06T06:55:04.000Z</time>
      </trkpt>
      <trkpt lat="43.38773430325090885162353515625" lon="-4.2147442884743213653564453125">
        <ele>59.59999847412109375</ele>
        <time>2018-09-06T06:55:05.000Z</time>
      </trkpt>
      <trkpt lat="43.38779046200215816497802734375" lon="-4.21484529040753841400146484375">
        <ele>59.40000152587890625</ele>
        <time>2018-09-06T06:55:08.000Z</time>
      </trkpt>
      <trkpt lat="43.3878584392368793487548828125" lon="-4.21493883244693279266357421875">
        <ele>59.40000152587890625</ele>
        <time>2018-09-06T06:55:11.000Z</time>
      </trkpt>
      <trkpt lat="43.387941084802150726318359375" lon="-4.21506204642355442047119140625">
        <ele>59.59999847412109375</ele>
        <time>2018-09-06T06:55:14.000Z</time>
      </trkpt>
      <trkpt lat="43.38799347169697284698486328125" lon="-4.2151613719761371612548828125">
        <ele>59.59999847412109375</ele>
        <time>2018-09-06T06:55:16.000Z</time>
      </trkpt>
      <trkpt lat="43.388016857206821441650390625" lon="-4.2152143456041812896728515625">
        <ele>59.59999847412109375</ele>
        <time>2018-09-06T06:55:17.000Z</time>
      </trkpt>
      <trkpt lat="43.38817267678678035736083984375" lon="-4.21552690677344799041748046875">
        <ele>59.59999847412109375</ele>
        <time>2018-09-06T06:55:23.000Z</time>
      </trkpt>
      <trkpt lat="43.38822213001549243927001953125" lon="-4.21562983654439449310302734375">
        <ele>59.799999237060546875</ele>
        <time>2018-09-06T06:55:25.000Z</time>
      </trkpt>
      <trkpt lat="43.3882939629256725311279296875" lon="-4.21577165834605693817138671875">
        <ele>60.200000762939453125</ele>
        <time>2018-09-06T06:55:28.000Z</time>
      </trkpt>
      <trkpt lat="43.38840208947658538818359375" lon="-4.215990006923675537109375">
        <ele>60.799999237060546875</ele>
        <time>2018-09-06T06:55:33.000Z</time>
      </trkpt>
      <trkpt lat="43.38846621103584766387939453125" lon="-4.216113723814487457275390625">
        <ele>61</ele>
        <time>2018-09-06T06:55:36.000Z</time>
      </trkpt>
      <trkpt lat="43.38856059126555919647216796875" lon="-4.216267280280590057373046875">
        <ele>61.200000762939453125</ele>
        <time>2018-09-06T06:55:40.000Z</time>
      </trkpt>
      <trkpt lat="43.38864541612565517425537109375" lon="-4.21636224724352359771728515625">
        <ele>61.59999847412109375</ele>
        <time>2018-09-06T06:55:43.000Z</time>
      </trkpt>
      <trkpt lat="43.38873334228992462158203125" lon="-4.2164491675794124603271484375">
        <ele>62.40000152587890625</ele>
        <time>2018-09-06T06:55:46.000Z</time>
      </trkpt>
      <trkpt lat="43.3888330869376659393310546875" lon="-4.21652502380311489105224609375">
        <ele>62.200000762939453125</ele>
        <time>2018-09-06T06:55:49.000Z</time>
      </trkpt>
      <trkpt lat="43.3889477513730525970458984375" lon="-4.2165795899927616119384765625">
        <ele>62.200000762939453125</ele>
        <time>2018-09-06T06:55:52.000Z</time>
      </trkpt>
      <trkpt lat="43.3890721388161182403564453125" lon="-4.21662443317472934722900390625">
        <ele>62.59999847412109375</ele>
        <time>2018-09-06T06:55:55.000Z</time>
      </trkpt>
      <trkpt lat="43.389197029173374176025390625" lon="-4.2166788317263126373291015625">
        <ele>63.59999847412109375</ele>
        <time>2018-09-06T06:55:58.000Z</time>
      </trkpt>
      <trkpt lat="43.3893118612468242645263671875" lon="-4.21673088334500789642333984375">
        <ele>62.799999237060546875</ele>
        <time>2018-09-06T06:56:01.000Z</time>
      </trkpt>
      <trkpt lat="43.38957027532160282135009765625" lon="-4.21684973873198032379150390625">
        <ele>63.200000762939453125</ele>
        <time>2018-09-06T06:56:07.000Z</time>
      </trkpt>
      <trkpt lat="43.38974964804947376251220703125" lon="-4.21692903153598308563232421875">
        <ele>62.40000152587890625</ele>
        <time>2018-09-06T06:56:11.000Z</time>
      </trkpt>
      <trkpt lat="43.389960117638111114501953125" lon="-4.2169899679720401763916015625">
        <ele>61.59999847412109375</ele>
        <time>2018-09-06T06:56:15.000Z</time>
      </trkpt>
      <trkpt lat="43.39001636020839214324951171875" lon="-4.2170023731887340545654296875">
        <ele>61.40000152587890625</ele>
        <time>2018-09-06T06:56:16.000Z</time>
      </trkpt>
      <trkpt lat="43.39019891805946826934814453125" lon="-4.21703615225851535797119140625">
        <ele>60.799999237060546875</ele>
        <time>2018-09-06T06:56:19.000Z</time>
      </trkpt>
      <trkpt lat="43.39026463218033313751220703125" lon="-4.21703984029591083526611328125">
        <ele>59.59999847412109375</ele>
        <time>2018-09-06T06:56:20.000Z</time>
      </trkpt>
      <trkpt lat="43.39033487252891063690185546875" lon="-4.217037744820117950439453125">
        <ele>59.200000762939453125</ele>
        <time>2018-09-06T06:56:21.000Z</time>
      </trkpt>
      <trkpt lat="43.3904839865863323211669921875" lon="-4.21702424995601177215576171875">
        <ele>58.40000152587890625</ele>
        <time>2018-09-06T06:56:23.000Z</time>
      </trkpt>
      <trkpt lat="43.39063662104308605194091796875" lon="-4.21700589358806610107421875">
        <ele>57.799999237060546875</ele>
        <time>2018-09-06T06:56:25.000Z</time>
      </trkpt>
      <trkpt lat="43.39071507565677165985107421875" lon="-4.2169980145990848541259765625">
        <ele>57.40000152587890625</ele>
        <time>2018-09-06T06:56:26.000Z</time>
      </trkpt>
      <trkpt lat="43.39087240397930145263671875" lon="-4.21698468737304210662841796875">
        <ele>57</ele>
        <time>2018-09-06T06:56:28.000Z</time>
      </trkpt>
      <trkpt lat="43.391037695109844207763671875" lon="-4.216969348490238189697265625">
        <ele>55.799999237060546875</ele>
        <time>2018-09-06T06:56:30.000Z</time>
      </trkpt>
      <trkpt lat="43.3912004716694355010986328125" lon="-4.21693892218172550201416015625">
        <ele>54.799999237060546875</ele>
        <time>2018-09-06T06:56:32.000Z</time>
      </trkpt>
      <trkpt lat="43.3913697861135005950927734375" lon="-4.216883182525634765625">
        <ele>53.40000152587890625</ele>
        <time>2018-09-06T06:56:34.000Z</time>
      </trkpt>
      <trkpt lat="43.39153625071048736572265625" lon="-4.21680799685418605804443359375">
        <ele>52</ele>
        <time>2018-09-06T06:56:36.000Z</time>
      </trkpt>
      <trkpt lat="43.39179231785237789154052734375" lon="-4.21668444760143756866455078125">
        <ele>50.40000152587890625</ele>
        <time>2018-09-06T06:56:39.000Z</time>
      </trkpt>
      <trkpt lat="43.39198158122599124908447265625" lon="-4.21659291721880435943603515625">
        <ele>48.59999847412109375</ele>
        <time>2018-09-06T06:56:41.000Z</time>
      </trkpt>
      <trkpt lat="43.39217855595052242279052734375" lon="-4.216488562524318695068359375">
        <ele>46.799999237060546875</ele>
        <time>2018-09-06T06:56:43.000Z</time>
      </trkpt>
      <trkpt lat="43.3922793902456760406494140625" lon="-4.2164347507059574127197265625">
        <ele>45</ele>
        <time>2018-09-06T06:56:44.000Z</time>
      </trkpt>
      <trkpt lat="43.3923764526844024658203125" lon="-4.21638119034469127655029296875">
        <ele>44</ele>
        <time>2018-09-06T06:56:45.000Z</time>
      </trkpt>
      <trkpt lat="43.39254819788038730621337890625" lon="-4.21629376709461212158203125">
        <ele>42</ele>
        <time>2018-09-06T06:56:47.000Z</time>
      </trkpt>
      <trkpt lat="43.39272287674248218536376953125" lon="-4.216258227825164794921875">
        <ele>40.59999847412109375</ele>
        <time>2018-09-06T06:56:49.000Z</time>
      </trkpt>
      <trkpt lat="43.39290996082127094268798828125" lon="-4.21633358113467693328857421875">
        <ele>39.40000152587890625</ele>
        <time>2018-09-06T06:56:51.000Z</time>
      </trkpt>
      <trkpt lat="43.39298791252076625823974609375" lon="-4.21640130691230297088623046875">
        <ele>38.59999847412109375</ele>
        <time>2018-09-06T06:56:52.000Z</time>
      </trkpt>
      <trkpt lat="43.39303971268236637115478515625" lon="-4.21649082563817501068115234375">
        <ele>37.59999847412109375</ele>
        <time>2018-09-06T06:56:53.000Z</time>
      </trkpt>
      <trkpt lat="43.39304365217685699462890625" lon="-4.2166144587099552154541015625">
        <ele>36.40000152587890625</ele>
        <time>2018-09-06T06:56:54.000Z</time>
      </trkpt>
      <trkpt lat="43.39302043430507183074951171875" lon="-4.21676608733832836151123046875">
        <ele>35.40000152587890625</ele>
        <time>2018-09-06T06:56:55.000Z</time>
      </trkpt>
      <trkpt lat="43.3929958753287792205810546875" lon="-4.21691830269992351531982421875">
        <ele>34.59999847412109375</ele>
        <time>2018-09-06T06:56:56.000Z</time>
      </trkpt>
      <trkpt lat="43.39297450147569179534912109375" lon="-4.2170697636902332305908203125">
        <ele>33.799999237060546875</ele>
        <time>2018-09-06T06:56:57.000Z</time>
      </trkpt>
      <trkpt lat="43.3929398842155933380126953125" lon="-4.21737159602344036102294921875">
        <ele>32</ele>
        <time>2018-09-06T06:56:59.000Z</time>
      </trkpt>
      <trkpt lat="43.392930664122104644775390625" lon="-4.21752582304179668426513671875">
        <ele>30.6000003814697265625</ele>
        <time>2018-09-06T06:57:00.000Z</time>
      </trkpt>
      <trkpt lat="43.39294197969138622283935546875" lon="-4.2176870070397853851318359375">
        <ele>29.200000762939453125</ele>
        <time>2018-09-06T06:57:01.000Z</time>
      </trkpt>
      <trkpt lat="43.39297265745699405670166015625" lon="-4.21784701757133007049560546875">
        <ele>27.6000003814697265625</ele>
        <time>2018-09-06T06:57:02.000Z</time>
      </trkpt>
      <trkpt lat="43.39301993139088153839111328125" lon="-4.21799973584711551666259765625">
        <ele>26.200000762939453125</ele>
        <time>2018-09-06T06:57:03.000Z</time>
      </trkpt>
      <trkpt lat="43.39307391084730625152587890625" lon="-4.2181436531245708465576171875">
        <ele>24.799999237060546875</ele>
        <time>2018-09-06T06:57:04.000Z</time>
      </trkpt>
      <trkpt lat="43.39313090778887271881103515625" lon="-4.21828036196529865264892578125">
        <ele>23.6000003814697265625</ele>
        <time>2018-09-06T06:57:05.000Z</time>
      </trkpt>
      <trkpt lat="43.3932401239871978759765625" lon="-4.21852578409016132354736328125">
        <ele>22.200000762939453125</ele>
        <time>2018-09-06T06:57:07.000Z</time>
      </trkpt>
      <trkpt lat="43.3932868950068950653076171875" lon="-4.2186368443071842193603515625">
        <ele>20.799999237060546875</ele>
        <time>2018-09-06T06:57:08.000Z</time>
      </trkpt>
      <trkpt lat="43.393377251923084259033203125" lon="-4.21884329058229923248291015625">
        <ele>19.200000762939453125</ele>
        <time>2018-09-06T06:57:10.000Z</time>
      </trkpt>
      <trkpt lat="43.39345260523259639739990234375" lon="-4.2190250940620899200439453125">
        <ele>18.200000762939453125</ele>
        <time>2018-09-06T06:57:12.000Z</time>
      </trkpt>
      <trkpt lat="43.39348353445529937744140625" lon="-4.21909893862903118133544921875">
        <ele>17.799999237060546875</ele>
        <time>2018-09-06T06:57:13.000Z</time>
      </trkpt>
      <trkpt lat="43.39353893883526325225830078125" lon="-4.21924419701099395751953125">
        <ele>16.799999237060546875</ele>
        <time>2018-09-06T06:57:15.000Z</time>
      </trkpt>
      <trkpt lat="43.3935852907598018646240234375" lon="-4.21936623752117156982421875">
        <ele>16</ele>
        <time>2018-09-06T06:57:17.000Z</time>
      </trkpt>
      <trkpt lat="43.3936080895364284515380859375" lon="-4.21942180953919887542724609375">
        <ele>15.80000019073486328125</ele>
        <time>2018-09-06T06:57:18.000Z</time>
      </trkpt>
      <trkpt lat="43.3936464786529541015625" lon="-4.2195801436901092529296875">
        <ele>14.80000019073486328125</ele>
        <time>2018-09-06T06:57:22.000Z</time>
      </trkpt>
      <trkpt lat="43.39365209452807903289794921875" lon="-4.2197536490857601165771484375">
        <ele>13.6000003814697265625</ele>
        <time>2018-09-06T06:57:25.000Z</time>
      </trkpt>
      <trkpt lat="43.3936719596385955810546875" lon="-4.2198522202670574188232421875">
        <ele>12.80000019073486328125</ele>
        <time>2018-09-06T06:57:27.000Z</time>
      </trkpt>
      <trkpt lat="43.393637426197528839111328125" lon="-4.22001667320728302001953125">
        <ele>12.6000003814697265625</ele>
        <time>2018-09-06T06:57:31.000Z</time>
      </trkpt>
      <trkpt lat="43.393632732331752777099609375" lon="-4.22005849890410900115966796875">
        <ele>12.3999996185302734375</ele>
        <time>2018-09-06T06:57:32.000Z</time>
      </trkpt>
      <trkpt lat="43.39359543286263942718505859375" lon="-4.2202049307525157928466796875">
        <ele>12</ele>
        <time>2018-09-06T06:57:35.000Z</time>
      </trkpt>
      <trkpt lat="43.3934940956532955169677734375" lon="-4.2204302363097667694091796875">
        <ele>11.3999996185302734375</ele>
        <time>2018-09-06T06:57:40.000Z</time>
      </trkpt>
      <trkpt lat="43.39345897547900676727294921875" lon="-4.22046569176018238067626953125">
        <ele>11.19999980926513671875</ele>
        <time>2018-09-06T06:57:41.000Z</time>
      </trkpt>
      <trkpt lat="43.3933780901134014129638671875" lon="-4.2205207608640193939208984375">
        <ele>11</ele>
        <time>2018-09-06T06:57:43.000Z</time>
      </trkpt>
      <trkpt lat="43.39328865520656108856201171875" lon="-4.22054716385900974273681640625">
        <ele>11</ele>
        <time>2018-09-06T06:57:45.000Z</time>
      </trkpt>
      <trkpt lat="43.3929854817688465118408203125" lon="-4.22067842446267604827880859375">
        <ele>10.3999996185302734375</ele>
        <time>2018-09-06T06:57:52.000Z</time>
      </trkpt>
      <trkpt lat="43.39294650591909885406494140625" lon="-4.2206937633454799652099609375">
        <ele>10.19999980926513671875</ele>
        <time>2018-09-06T06:57:53.000Z</time>
      </trkpt>
      <trkpt lat="43.39286553673446178436279296875" lon="-4.2207262851297855377197265625">
        <ele>9.80000019073486328125</ele>
        <time>2018-09-06T06:57:55.000Z</time>
      </trkpt>
      <trkpt lat="43.3927269838750362396240234375" lon="-4.22083063982427120208740234375">
        <ele>10.3999996185302734375</ele>
        <time>2018-09-06T06:57:59.000Z</time>
      </trkpt>
      <trkpt lat="43.39263268746435642242431640625" lon="-4.22092569060623645782470703125">
        <ele>10.3999996185302734375</ele>
        <time>2018-09-06T06:58:03.000Z</time>
      </trkpt>
      <trkpt lat="43.39261525310575962066650390625" lon="-4.220942370593547821044921875">
        <ele>10.3999996185302734375</ele>
        <time>2018-09-06T06:58:04.000Z</time>
      </trkpt>
      <trkpt lat="43.39259211905300617218017578125" lon="-4.2209455557167530059814453125">
        <ele>10.3999996185302734375</ele>
        <time>2018-09-06T06:58:05.000Z</time>
      </trkpt>
      <trkpt lat="43.3925016783177852630615234375" lon="-4.22096240334212779998779296875">
        <ele>10.19999980926513671875</ele>
        <time>2018-09-06T06:58:08.000Z</time>
      </trkpt>
      <trkpt lat="43.3924084715545177459716796875" lon="-4.22101738862693309783935546875">
        <ele>10.19999980926513671875</ele>
        <time>2018-09-06T06:58:11.000Z</time>
      </trkpt>
      <trkpt lat="43.39234753511846065521240234375" lon="-4.22106030397117137908935546875">
        <ele>10.3999996185302734375</ele>
        <time>2018-09-06T06:58:13.000Z</time>
      </trkpt>
      <trkpt lat="43.3923139236867427825927734375" lon="-4.22107757069170475006103515625">
        <ele>10.3999996185302734375</ele>
        <time>2018-09-06T06:58:14.000Z</time>
      </trkpt>
      <trkpt lat="43.392158187925815582275390625" lon="-4.22118552960455417633056640625">
        <ele>10.19999980926513671875</ele>
        <time>2018-09-06T06:58:19.000Z</time>
      </trkpt>
      <trkpt lat="43.392127342522144317626953125" lon="-4.2212080769240856170654296875">
        <ele>10</ele>
        <time>2018-09-06T06:58:20.000Z</time>
      </trkpt>
      <trkpt lat="43.39202851988375186920166015625" lon="-4.22132584266364574432373046875">
        <ele>10</ele>
        <time>2018-09-06T06:58:24.000Z</time>
      </trkpt>
      <trkpt lat="43.3919752947986125946044921875" lon="-4.2213954962790012359619140625">
        <ele>9.80000019073486328125</ele>
        <time>2018-09-06T06:58:26.000Z</time>
      </trkpt>
      <trkpt lat="43.39183975942432880401611328125" lon="-4.2216137610375881195068359375">
        <ele>10.19999980926513671875</ele>
        <time>2018-09-06T06:58:32.000Z</time>
      </trkpt>
      <trkpt lat="43.39182215742766857147216796875" lon="-4.2216482944786548614501953125">
        <ele>10.19999980926513671875</ele>
        <time>2018-09-06T06:58:33.000Z</time>
      </trkpt>
      <trkpt lat="43.39177806861698627471923828125" lon="-4.22174527309834957122802734375">
        <ele>9.80000019073486328125</ele>
        <time>2018-09-06T06:58:36.000Z</time>
      </trkpt>
      <trkpt lat="43.39177991263568401336669921875" lon="-4.22177712433040142059326171875">
        <ele>9.6000003814697265625</ele>
        <time>2018-09-06T06:58:37.000Z</time>
      </trkpt>
      <trkpt lat="43.39178024791181087493896484375" lon="-4.22180972993373870849609375">
        <ele>9.3999996185302734375</ele>
        <time>2018-09-06T06:58:38.000Z</time>
      </trkpt>
      <trkpt lat="43.39177689515054225921630859375" lon="-4.2218645475804805755615234375">
        <ele>9.3999996185302734375</ele>
        <time>2018-09-06T06:58:40.000Z</time>
      </trkpt>
      <trkpt lat="43.39177303947508335113525390625" lon="-4.22189380042254924774169921875">
        <ele>9.6000003814697265625</ele>
        <time>2018-09-06T06:58:41.000Z</time>
      </trkpt>
      <trkpt lat="43.39176951907575130462646484375" lon="-4.2219282500445842742919921875">
        <ele>10</ele>
        <time>2018-09-06T06:58:42.000Z</time>
      </trkpt>
      <trkpt lat="43.3917702734470367431640625" lon="-4.22199438326060771942138671875">
        <ele>9.80000019073486328125</ele>
        <time>2018-09-06T06:58:44.000Z</time>
      </trkpt>
      <trkpt lat="43.3917717821896076202392578125" lon="-4.22203696332871913909912109375">
        <ele>9.80000019073486328125</ele>
        <time>2018-09-06T06:58:45.000Z</time>
      </trkpt>
      <trkpt lat="43.39174739085137844085693359375" lon="-4.222093708813190460205078125">
        <ele>9.6000003814697265625</ele>
        <time>2018-09-06T06:58:47.000Z</time>
      </trkpt>
      <trkpt lat="43.39171151630580425262451171875" lon="-4.2221263982355594635009765625">
        <ele>9.6000003814697265625</ele>
        <time>2018-09-06T06:58:49.000Z</time>
      </trkpt>
      <trkpt lat="43.391580171883106231689453125" lon="-4.22218482010066509246826171875">
        <ele>9.6000003814697265625</ele>
        <time>2018-09-06T06:58:55.000Z</time>
      </trkpt>
      <trkpt lat="43.391503393650054931640625" lon="-4.22222136519849300384521484375">
        <ele>10.19999980926513671875</ele>
        <time>2018-09-06T06:59:00.000Z</time>
      </trkpt>
      <trkpt lat="43.39141077362000942230224609375" lon="-4.2222776077687740325927734375">
        <ele>10.80000019073486328125</ele>
        <time>2018-09-06T06:59:05.000Z</time>
      </trkpt>
      <trkpt lat="43.39139099232852458953857421875" lon="-4.22228313982486724853515625">
        <ele>11</ele>
        <time>2018-09-06T06:59:06.000Z</time>
      </trkpt>
      <trkpt lat="43.39135729707777500152587890625" lon="-4.2223108001053333282470703125">
        <ele>11.3999996185302734375</ele>
        <time>2018-09-06T06:59:08.000Z</time>
      </trkpt>
      <trkpt lat="43.3913355879485607147216796875" lon="-4.22234307043254375457763671875">
        <ele>12</ele>
        <time>2018-09-06T06:59:11.000Z</time>
      </trkpt>
      <trkpt lat="43.39132209308445453643798828125" lon="-4.22237835824489593505859375">
        <ele>12.19999980926513671875</ele>
        <time>2018-09-06T06:59:13.000Z</time>
      </trkpt>
      <trkpt lat="43.391311280429363250732421875" lon="-4.2224237881600856781005859375">
        <ele>12.6000003814697265625</ele>
        <time>2018-09-06T06:59:15.000Z</time>
      </trkpt>
      <trkpt lat="43.391301892697811126708984375" lon="-4.2224646918475627899169921875">
        <ele>13</ele>
        <time>2018-09-06T06:59:17.000Z</time>
      </trkpt>
      <trkpt lat="43.391297869384288787841796875" lon="-4.22248321585357189178466796875">
        <ele>13</ele>
        <time>2018-09-06T06:59:18.000Z</time>
      </trkpt>
      <trkpt lat="43.39128856547176837921142578125" lon="-4.222553707659244537353515625">
        <ele>13.80000019073486328125</ele>
        <time>2018-09-06T06:59:22.000Z</time>
      </trkpt>
      <trkpt lat="43.3912806026637554168701171875" lon="-4.22257089056074619293212890625">
        <ele>14</ele>
        <time>2018-09-06T06:59:23.000Z</time>
      </trkpt>
      <trkpt lat="43.39126677252352237701416015625" lon="-4.22267817892134189605712890625">
        <ele>15</ele>
        <time>2018-09-06T06:59:29.000Z</time>
      </trkpt>
      <trkpt lat="43.39126266539096832275390625" lon="-4.22271153889596462249755859375">
        <ele>15.19999980926513671875</ele>
        <time>2018-09-06T06:59:31.000Z</time>
      </trkpt>
      <trkpt lat="43.3912497572600841522216796875" lon="-4.2228153906762599945068359375">
        <ele>16</ele>
        <time>2018-09-06T06:59:37.000Z</time>
      </trkpt>
      <trkpt lat="43.391246907413005828857421875" lon="-4.2228566296398639678955078125">
        <ele>16.3999996185302734375</ele>
        <time>2018-09-06T06:59:39.000Z</time>
      </trkpt>
      <trkpt lat="43.39125487022101879119873046875" lon="-4.22293013893067836761474609375">
        <ele>17.200000762939453125</ele>
        <time>2018-09-06T06:59:43.000Z</time>
      </trkpt>
      <trkpt lat="43.39126191101968288421630859375" lon="-4.22299602068960666656494140625">
        <ele>17.799999237060546875</ele>
        <time>2018-09-06T06:59:47.000Z</time>
      </trkpt>
      <trkpt lat="43.3912681974470615386962890625" lon="-4.2230336554348468780517578125">
        <ele>18.200000762939453125</ele>
        <time>2018-09-06T06:59:49.000Z</time>
      </trkpt>
      <trkpt lat="43.39130817912518978118896484375" lon="-4.22311856411397457122802734375">
        <ele>19.200000762939453125</ele>
        <time>2018-09-06T06:59:54.000Z</time>
      </trkpt>
      <trkpt lat="43.39131362736225128173828125" lon="-4.22313474118709564208984375">
        <ele>19.3999996185302734375</ele>
        <time>2018-09-06T06:59:55.000Z</time>
      </trkpt>
      <trkpt lat="43.3913148008286952972412109375" lon="-4.22314857132732868194580078125">
        <ele>19.799999237060546875</ele>
        <time>2018-09-06T06:59:56.000Z</time>
      </trkpt>
      <trkpt lat="43.3913285471498966217041015625" lon="-4.22317388467490673065185546875">
        <ele>20.3999996185302734375</ele>
        <time>2018-09-06T06:59:58.000Z</time>
      </trkpt>
      <trkpt lat="43.39135654270648956298828125" lon="-4.22320825047791004180908203125">
        <ele>20.799999237060546875</ele>
        <time>2018-09-06T07:00:01.000Z</time>
      </trkpt>
      <trkpt lat="43.39138311333954334259033203125" lon="-4.22323892824351787567138671875">
        <ele>21.3999996185302734375</ele>
        <time>2018-09-06T07:00:04.000Z</time>
      </trkpt>
      <trkpt lat="43.3914267830550670623779296875" lon="-4.223287962377071380615234375">
        <ele>22.6000003814697265625</ele>
        <time>2018-09-06T07:00:10.000Z</time>
      </trkpt>
      <trkpt lat="43.3914331533014774322509765625" lon="-4.2233025468885898590087890625">
        <ele>22.799999237060546875</ele>
        <time>2018-09-06T07:00:11.000Z</time>
      </trkpt>
      <trkpt lat="43.39147179387509822845458984375" lon="-4.223355688154697418212890625">
        <ele>23.6000003814697265625</ele>
        <time>2018-09-06T07:00:15.000Z</time>
      </trkpt>
      <trkpt lat="43.3914981968700885772705078125" lon="-4.22336943447589874267578125">
        <ele>23.799999237060546875</ele>
        <time>2018-09-06T07:00:17.000Z</time>
      </trkpt>
      <trkpt lat="43.3915223367512226104736328125" lon="-4.22337085939943790435791015625">
        <ele>24.200000762939453125</ele>
        <time>2018-09-06T07:00:19.000Z</time>
      </trkpt>
      <trkpt lat="43.39153666980564594268798828125" lon="-4.22336968593299388885498046875">
        <ele>24.799999237060546875</ele>
        <time>2018-09-06T07:00:20.000Z</time>
      </trkpt>
      <trkpt lat="43.39159215800464153289794921875" lon="-4.223356358706951141357421875">
        <ele>25.6000003814697265625</ele>
        <time>2018-09-06T07:00:24.000Z</time>
      </trkpt>
      <trkpt lat="43.39161646552383899688720703125" lon="-4.22336541116237640380859375">
        <ele>26</ele>
        <time>2018-09-06T07:00:26.000Z</time>
      </trkpt>
      <trkpt lat="43.3916752226650714874267578125" lon="-4.2233873717486858367919921875">
        <ele>27</ele>
        <time>2018-09-06T07:00:32.000Z</time>
      </trkpt>
      <trkpt lat="43.39175216853618621826171875" lon="-4.2233659140765666961669921875">
        <ele>28.200000762939453125</ele>
        <time>2018-09-06T07:00:38.000Z</time>
      </trkpt>
      <trkpt lat="43.39176155626773834228515625" lon="-4.2233639024198055267333984375">
        <ele>28.3999996185302734375</ele>
        <time>2018-09-06T07:00:39.000Z</time>
      </trkpt>
      <trkpt lat="43.39182794094085693359375" lon="-4.223368428647518157958984375">
        <ele>29.3999996185302734375</ele>
        <time>2018-09-06T07:00:44.000Z</time>
      </trkpt>
      <trkpt lat="43.39183858595788478851318359375" lon="-4.22337002120912075042724609375">
        <ele>29.3999996185302734375</ele>
        <time>2018-09-06T07:00:45.000Z</time>
      </trkpt>
      <trkpt lat="43.39191712439060211181640625" lon="-4.22336004674434661865234375">
        <ele>30.3999996185302734375</ele>
        <time>2018-09-06T07:00:51.000Z</time>
      </trkpt>
      <trkpt lat="43.3919285237789154052734375" lon="-4.22335661016404628753662109375">
        <ele>30.3999996185302734375</ele>
        <time>2018-09-06T07:00:52.000Z</time>
      </trkpt>
      <trkpt lat="43.39199163950979709625244140625" lon="-4.22331050969660282135009765625">
        <ele>31.3999996185302734375</ele>
        <time>2018-09-06T07:00:57.000Z</time>
      </trkpt>
      <trkpt lat="43.39202784933149814605712890625" lon="-4.223281927406787872314453125">
        <ele>32</ele>
        <time>2018-09-06T07:01:00.000Z</time>
      </trkpt>
      <trkpt lat="43.3920644782483577728271484375" lon="-4.22325971536338329315185546875">
        <ele>32.59999847412109375</ele>
        <time>2018-09-06T07:01:03.000Z</time>
      </trkpt>
      <trkpt lat="43.39210881851613521575927734375" lon="-4.22322920523583889007568359375">
        <ele>33.59999847412109375</ele>
        <time>2018-09-06T07:01:07.000Z</time>
      </trkpt>
      <trkpt lat="43.39213144965469837188720703125" lon="-4.2232277803122997283935546875">
        <ele>34.40000152587890625</ele>
        <time>2018-09-06T07:01:09.000Z</time>
      </trkpt>
      <trkpt lat="43.3921543322503566741943359375" lon="-4.22323591075837612152099609375">
        <ele>34.799999237060546875</ele>
        <time>2018-09-06T07:01:11.000Z</time>
      </trkpt>
      <trkpt lat="43.39217998087406158447265625" lon="-4.22323876060545444488525390625">
        <ele>35</ele>
        <time>2018-09-06T07:01:13.000Z</time>
      </trkpt>
      <trkpt lat="43.39219951070845127105712890625" lon="-4.22322384081780910491943359375">
        <ele>35.40000152587890625</ele>
        <time>2018-09-06T07:01:15.000Z</time>
      </trkpt>
      <trkpt lat="43.3922230638563632965087890625" lon="-4.22322350554168224334716796875">
        <ele>35.799999237060546875</ele>
        <time>2018-09-06T07:01:17.000Z</time>
      </trkpt>
      <trkpt lat="43.392239995300769805908203125" lon="-4.22326155938208103179931640625">
        <ele>36.40000152587890625</ele>
        <time>2018-09-06T07:01:21.000Z</time>
      </trkpt>
      <trkpt lat="43.39226447045803070068359375" lon="-4.223294667899608612060546875">
        <ele>36.799999237060546875</ele>
        <time>2018-09-06T07:01:24.000Z</time>
      </trkpt>
      <trkpt lat="43.39227628894150257110595703125" lon="-4.22329927794635295867919921875">
        <ele>37</ele>
        <time>2018-09-06T07:01:25.000Z</time>
      </trkpt>
      <trkpt lat="43.39230646379292011260986328125" lon="-4.223300032317638397216796875">
        <ele>37.40000152587890625</ele>
        <time>2018-09-06T07:01:28.000Z</time>
      </trkpt>
      <trkpt lat="43.392317108809947967529296875" lon="-4.223306737840175628662109375">
        <ele>37.59999847412109375</ele>
        <time>2018-09-06T07:01:29.000Z</time>
      </trkpt>
      <trkpt lat="43.39232741855084896087646484375" lon="-4.22331738285720348358154296875">
        <ele>37.799999237060546875</ele>
        <time>2018-09-06T07:01:30.000Z</time>
      </trkpt>
      <trkpt lat="43.3923511393368244171142578125" lon="-4.22334219329059123992919921875">
        <ele>38.40000152587890625</ele>
        <time>2018-09-06T07:01:33.000Z</time>
      </trkpt>
      <trkpt lat="43.3923575095832347869873046875" lon="-4.22335426323115825653076171875">
        <ele>38.59999847412109375</ele>
        <time>2018-09-06T07:01:34.000Z</time>
      </trkpt>
      <trkpt lat="43.39236496947705745697021484375" lon="-4.22337940894067287445068359375">
        <ele>38.799999237060546875</ele>
        <time>2018-09-06T07:01:36.000Z</time>
      </trkpt>
      <trkpt lat="43.3923729322850704193115234375" lon="-4.223389886319637298583984375">
        <ele>39</ele>
        <time>2018-09-06T07:01:37.000Z</time>
      </trkpt>
      <trkpt lat="43.39240285567939281463623046875" lon="-4.2233940772712230682373046875">
        <ele>39.40000152587890625</ele>
        <time>2018-09-06T07:01:40.000Z</time>
      </trkpt>
      <trkpt lat="43.3924242295324802398681640625" lon="-4.2234178818762302398681640625">
        <ele>39.59999847412109375</ele>
        <time>2018-09-06T07:01:42.000Z</time>
      </trkpt>
      <trkpt lat="43.39244828559458255767822265625" lon="-4.22345794737339019775390625">
        <ele>40</ele>
        <time>2018-09-06T07:01:45.000Z</time>
      </trkpt>
      <trkpt lat="43.39246538467705249786376953125" lon="-4.22348485328257083892822265625">
        <ele>40.40000152587890625</ele>
        <time>2018-09-06T07:01:47.000Z</time>
      </trkpt>
      <trkpt lat="43.39248365722596645355224609375" lon="-4.2235037125647068023681640625">
        <ele>40.799999237060546875</ele>
        <time>2018-09-06T07:01:49.000Z</time>
      </trkpt>
      <trkpt lat="43.3924983255565166473388671875" lon="-4.2235248349606990814208984375">
        <ele>41.200000762939453125</ele>
        <time>2018-09-06T07:01:51.000Z</time>
      </trkpt>
      <trkpt lat="43.3925140835344791412353515625" lon="-4.22354956157505512237548828125">
        <ele>41.40000152587890625</ele>
        <time>2018-09-06T07:01:53.000Z</time>
      </trkpt>
      <trkpt lat="43.39255523867905139923095703125" lon="-4.22359230928122997283935546875">
        <ele>42.200000762939453125</ele>
        <time>2018-09-06T07:01:57.000Z</time>
      </trkpt>
      <trkpt lat="43.3925777859985828399658203125" lon="-4.22363539226353168487548828125">
        <ele>42.59999847412109375</ele>
        <time>2018-09-06T07:02:00.000Z</time>
      </trkpt>
      <trkpt lat="43.3926166780292987823486328125" lon="-4.223692305386066436767578125">
        <ele>43.40000152587890625</ele>
        <time>2018-09-06T07:02:04.000Z</time>
      </trkpt>
      <trkpt lat="43.39266671799123287200927734375" lon="-4.2237571813166141510009765625">
        <ele>44.200000762939453125</ele>
        <time>2018-09-06T07:02:08.000Z</time>
      </trkpt>
      <trkpt lat="43.39269152842462062835693359375" lon="-4.2237903736531734466552734375">
        <ele>44.59999847412109375</ele>
        <time>2018-09-06T07:02:10.000Z</time>
      </trkpt>
      <trkpt lat="43.39272187091410160064697265625" lon="-4.22383773140609264373779296875">
        <ele>45.200000762939453125</ele>
        <time>2018-09-06T07:02:13.000Z</time>
      </trkpt>
      <trkpt lat="43.392768390476703643798828125" lon="-4.22388668172061443328857421875">
        <ele>45.59999847412109375</ele>
        <time>2018-09-06T07:02:16.000Z</time>
      </trkpt>
      <trkpt lat="43.392829410731792449951171875" lon="-4.2239744402468204498291015625">
        <ele>46.59999847412109375</ele>
        <time>2018-09-06T07:02:21.000Z</time>
      </trkpt>
      <trkpt lat="43.3928520418703556060791015625" lon="-4.22401173971593379974365234375">
        <ele>47.200000762939453125</ele>
        <time>2018-09-06T07:02:23.000Z</time>
      </trkpt>
      <trkpt lat="43.392887748777866363525390625" lon="-4.22406001947820186614990234375">
        <ele>47.799999237060546875</ele>
        <time>2018-09-06T07:02:26.000Z</time>
      </trkpt>
      <trkpt lat="43.39293996803462505340576171875" lon="-4.2241541482508182525634765625">
        <ele>48.40000152587890625</ele>
        <time>2018-09-06T07:02:31.000Z</time>
      </trkpt>
      <trkpt lat="43.39295354671776294708251953125" lon="-4.2241935431957244873046875">
        <ele>48.799999237060546875</ele>
        <time>2018-09-06T07:02:33.000Z</time>
      </trkpt>
      <trkpt lat="43.3929767645895481109619140625" lon="-4.22430158592760562896728515625">
        <ele>49.59999847412109375</ele>
        <time>2018-09-06T07:02:38.000Z</time>
      </trkpt>
      <trkpt lat="43.39298824779689311981201171875" lon="-4.22434232197701930999755859375">
        <ele>49.799999237060546875</ele>
        <time>2018-09-06T07:02:40.000Z</time>
      </trkpt>
      <trkpt lat="43.392992354929447174072265625" lon="-4.22442832030355930328369140625">
        <ele>50.59999847412109375</ele>
        <time>2018-09-06T07:02:44.000Z</time>
      </trkpt>
      <trkpt lat="43.39298875071108341217041015625" lon="-4.224466793239116668701171875">
        <ele>51</ele>
        <time>2018-09-06T07:02:46.000Z</time>
      </trkpt>
      <trkpt lat="43.392987661063671112060546875" lon="-4.22455153428018093109130859375">
        <ele>51.799999237060546875</ele>
        <time>2018-09-06T07:02:50.000Z</time>
      </trkpt>
      <trkpt lat="43.3929841406643390655517578125" lon="-4.2246543802320957183837890625">
        <ele>52.200000762939453125</ele>
        <time>2018-09-06T07:02:54.000Z</time>
      </trkpt>
      <trkpt lat="43.392976932227611541748046875" lon="-4.22473174519836902618408203125">
        <ele>52.40000152587890625</ele>
        <time>2018-09-06T07:02:57.000Z</time>
      </trkpt>
      <trkpt lat="43.3929452486336231231689453125" lon="-4.2248394526541233062744140625">
        <ele>52.799999237060546875</ele>
        <time>2018-09-06T07:03:02.000Z</time>
      </trkpt>
      <trkpt lat="43.392939381301403045654296875" lon="-4.22489016316831111907958984375">
        <ele>53.200000762939453125</ele>
        <time>2018-09-06T07:03:05.000Z</time>
      </trkpt>
      <trkpt lat="43.39292655698955059051513671875" lon="-4.22491229139268398284912109375">
        <ele>53.200000762939453125</ele>
        <time>2018-09-06T07:03:06.000Z</time>
      </trkpt>
      <trkpt lat="43.392908535897731781005859375" lon="-4.22495503909885883331298828125">
        <ele>53.59999847412109375</ele>
        <time>2018-09-06T07:03:08.000Z</time>
      </trkpt>
      <trkpt lat="43.39289101772010326385498046875" lon="-4.225011281669139862060546875">
        <ele>54.200000762939453125</ele>
        <time>2018-09-06T07:03:11.000Z</time>
      </trkpt>
      <trkpt lat="43.39286662638187408447265625" lon="-4.22503852285444736480712890625">
        <ele>54.200000762939453125</ele>
        <time>2018-09-06T07:03:13.000Z</time>
      </trkpt>
      <trkpt lat="43.39285455644130706787109375" lon="-4.225056208670139312744140625">
        <ele>54.40000152587890625</ele>
        <time>2018-09-06T07:03:14.000Z</time>
      </trkpt>
      <trkpt lat="43.3928399719297885894775390625" lon="-4.22510960139334201812744140625">
        <ele>54.799999237060546875</ele>
        <time>2018-09-06T07:03:17.000Z</time>
      </trkpt>
      <trkpt lat="43.39283385314047336578369140625" lon="-4.225165843963623046875">
        <ele>55.40000152587890625</ele>
        <time>2018-09-06T07:03:20.000Z</time>
      </trkpt>
      <trkpt lat="43.39283536188304424285888671875" lon="-4.22518570907413959503173828125">
        <ele>55.59999847412109375</ele>
        <time>2018-09-06T07:03:21.000Z</time>
      </trkpt>
      <trkpt lat="43.39277886785566806793212890625" lon="-4.22541537322103977203369140625">
        <ele>57.59999847412109375</ele>
        <time>2018-09-06T07:03:34.000Z</time>
      </trkpt>
      <trkpt lat="43.39276780374348163604736328125" lon="-4.2254409380257129669189453125">
        <ele>57.799999237060546875</ele>
        <time>2018-09-06T07:03:35.000Z</time>
      </trkpt>
      <trkpt lat="43.39266219176352024078369140625" lon="-4.2256119288504123687744140625">
        <ele>58.59999847412109375</ele>
        <time>2018-09-06T07:03:41.000Z</time>
      </trkpt>
      <trkpt lat="43.392642326653003692626953125" lon="-4.2256364040076732635498046875">
        <ele>58.799999237060546875</ele>
        <time>2018-09-06T07:03:42.000Z</time>
      </trkpt>
      <trkpt lat="43.39262682013213634490966796875" lon="-4.22566129826009273529052734375">
        <ele>59</ele>
        <time>2018-09-06T07:03:43.000Z</time>
      </trkpt>
      <trkpt lat="43.39254819788038730621337890625" lon="-4.22574394382536411285400390625">
        <ele>59.799999237060546875</ele>
        <time>2018-09-06T07:03:48.000Z</time>
      </trkpt>
      <trkpt lat="43.392535038292407989501953125" lon="-4.225758947432041168212890625">
        <ele>60</ele>
        <time>2018-09-06T07:03:49.000Z</time>
      </trkpt>
      <trkpt lat="43.39248030446469783782958984375" lon="-4.22582642175257205963134765625">
        <ele>61</ele>
        <time>2018-09-06T07:03:54.000Z</time>
      </trkpt>
      <trkpt lat="43.39247091673314571380615234375" lon="-4.22584385611116886138916015625">
        <ele>61.200000762939453125</ele>
        <time>2018-09-06T07:03:55.000Z</time>
      </trkpt>
      <trkpt lat="43.3924617804586887359619140625" lon="-4.2259160242974758148193359375">
        <ele>62.200000762939453125</ele>
        <time>2018-09-06T07:03:59.000Z</time>
      </trkpt>
      <trkpt lat="43.39247141964733600616455078125" lon="-4.2259495519101619720458984375">
        <ele>62.59999847412109375</ele>
        <time>2018-09-06T07:04:01.000Z</time>
      </trkpt>
      <trkpt lat="43.39249136857688426971435546875" lon="-4.22599573619663715362548828125">
        <ele>63.200000762939453125</ele>
        <time>2018-09-06T07:04:04.000Z</time>
      </trkpt>
      <trkpt lat="43.3925097249448299407958984375" lon="-4.22602616250514984130859375">
        <ele>63.59999847412109375</ele>
        <time>2018-09-06T07:04:06.000Z</time>
      </trkpt>
      <trkpt lat="43.39255071245133876800537109375" lon="-4.22607310116291046142578125">
        <ele>64.1999969482421875</ele>
        <time>2018-09-06T07:04:10.000Z</time>
      </trkpt>
      <trkpt lat="43.39262497611343860626220703125" lon="-4.22610688023269176483154296875">
        <ele>65.1999969482421875</ele>
        <time>2018-09-06T07:04:16.000Z</time>
      </trkpt>
      <trkpt lat="43.39264961890876293182373046875" lon="-4.22611123882234096527099609375">
        <ele>65.8000030517578125</ele>
        <time>2018-09-06T07:04:18.000Z</time>
      </trkpt>
      <trkpt lat="43.3926840685307979583740234375" lon="-4.22614510171115398406982421875">
        <ele>66.40000152587890625</ele>
        <time>2018-09-06T07:04:21.000Z</time>
      </trkpt>
      <trkpt lat="43.3927439153194427490234375" lon="-4.22617427073419094085693359375">
        <ele>67.1999969482421875</ele>
        <time>2018-09-06T07:04:26.000Z</time>
      </trkpt>
      <trkpt lat="43.3927564881742000579833984375" lon="-4.22617628239095211029052734375">
        <ele>67.40000152587890625</ele>
        <time>2018-09-06T07:04:27.000Z</time>
      </trkpt>
      <trkpt lat="43.3927662111818790435791015625" lon="-4.22618935815989971160888671875">
        <ele>67.59999847412109375</ele>
        <time>2018-09-06T07:04:28.000Z</time>
      </trkpt>
      <trkpt lat="43.39282773435115814208984375" lon="-4.2262301780283451080322265625">
        <ele>68.40000152587890625</ele>
        <time>2018-09-06T07:04:33.000Z</time>
      </trkpt>
      <trkpt lat="43.39284248650074005126953125" lon="-4.2262365482747554779052734375">
        <ele>68.59999847412109375</ele>
        <time>2018-09-06T07:04:34.000Z</time>
      </trkpt>
      <trkpt lat="43.3929264731705188751220703125" lon="-4.22627049498260021209716796875">
        <ele>69.8000030517578125</ele>
        <time>2018-09-06T07:04:40.000Z</time>
      </trkpt>
      <trkpt lat="43.39294373989105224609375" lon="-4.22626932151615619659423828125">
        <ele>70</ele>
        <time>2018-09-06T07:04:41.000Z</time>
      </trkpt>
      <trkpt lat="43.39301356114447116851806640625" lon="-4.22627158463001251220703125">
        <ele>71</ele>
        <time>2018-09-06T07:04:45.000Z</time>
      </trkpt>
      <trkpt lat="43.3931091986596584320068359375" lon="-4.22628306783735752105712890625">
        <ele>72.1999969482421875</ele>
        <time>2018-09-06T07:04:50.000Z</time>
      </trkpt>
      <trkpt lat="43.3931980468332767486572265625" lon="-4.226247109472751617431640625">
        <ele>72.8000030517578125</ele>
        <time>2018-09-06T07:04:55.000Z</time>
      </trkpt>
      <trkpt lat="43.3932439796626567840576171875" lon="-4.22624208033084869384765625">
        <ele>73.1999969482421875</ele>
        <time>2018-09-06T07:04:58.000Z</time>
      </trkpt>
      <trkpt lat="43.393315561115741729736328125" lon="-4.22621618025004863739013671875">
        <ele>73.8000030517578125</ele>
        <time>2018-09-06T07:05:03.000Z</time>
      </trkpt>
      <trkpt lat="43.39334598742425441741943359375" lon="-4.2262140847742557525634765625">
        <ele>74.1999969482421875</ele>
        <time>2018-09-06T07:05:05.000Z</time>
      </trkpt>
      <trkpt lat="43.393411450088024139404296875" lon="-4.22619556076824665069580078125">
        <ele>75.40000152587890625</ele>
        <time>2018-09-06T07:05:09.000Z</time>
      </trkpt>
      <trkpt lat="43.3934273757040500640869140625" lon="-4.2261959798634052276611328125">
        <ele>75.59999847412109375</ele>
        <time>2018-09-06T07:05:10.000Z</time>
      </trkpt>
      <trkpt lat="43.3934894017875194549560546875" lon="-4.22620377503335475921630859375">
        <ele>76.40000152587890625</ele>
        <time>2018-09-06T07:05:14.000Z</time>
      </trkpt>
      <trkpt lat="43.39352100156247615814208984375" lon="-4.22619321383535861968994140625">
        <ele>76.59999847412109375</ele>
        <time>2018-09-06T07:05:16.000Z</time>
      </trkpt>
      <trkpt lat="43.393607251346111297607421875" lon="-4.22614929266273975372314453125">
        <ele>77.40000152587890625</ele>
        <time>2018-09-06T07:05:21.000Z</time>
      </trkpt>
      <trkpt lat="43.3936349116265773773193359375" lon="-4.2261289246380329132080078125">
        <ele>77.8000030517578125</ele>
        <time>2018-09-06T07:05:23.000Z</time>
      </trkpt>
      <trkpt lat="43.39372870512306690216064453125" lon="-4.22608961351215839385986328125">
        <ele>78.40000152587890625</ele>
        <time>2018-09-06T07:05:29.000Z</time>
      </trkpt>
      <trkpt lat="43.393762819468975067138671875" lon="-4.2260886915028095245361328125">
        <ele>78.59999847412109375</ele>
        <time>2018-09-06T07:05:31.000Z</time>
      </trkpt>
      <trkpt lat="43.39381822384893894195556640625" lon="-4.22609564848244190216064453125">
        <ele>79</ele>
        <time>2018-09-06T07:05:34.000Z</time>
      </trkpt>
      <trkpt lat="43.39387714862823486328125" lon="-4.22610805369913578033447265625">
        <ele>79.1999969482421875</ele>
        <time>2018-09-06T07:05:38.000Z</time>
      </trkpt>
      <trkpt lat="43.39396691881120204925537109375" lon="-4.22614409588277339935302734375">
        <ele>79.59999847412109375</ele>
        <time>2018-09-06T07:05:43.000Z</time>
      </trkpt>
      <trkpt lat="43.3940037153661251068115234375" lon="-4.2261500470340251922607421875">
        <ele>79.8000030517578125</ele>
        <time>2018-09-06T07:05:45.000Z</time>
      </trkpt>
      <trkpt lat="43.394055180251598358154296875" lon="-4.22615080140531063079833984375">
        <ele>80</ele>
        <time>2018-09-06T07:05:48.000Z</time>
      </trkpt>
      <trkpt lat="43.39412349276244640350341796875" lon="-4.226154573261737823486328125">
        <ele>80.59999847412109375</ele>
        <time>2018-09-06T07:05:52.000Z</time>
      </trkpt>
      <trkpt lat="43.39413807727396488189697265625" lon="-4.22616220079362392425537109375">
        <ele>80.8000030517578125</ele>
        <time>2018-09-06T07:05:53.000Z</time>
      </trkpt>
      <trkpt lat="43.39421234093606472015380859375" lon="-4.226178713142871856689453125">
        <ele>81.8000030517578125</ele>
        <time>2018-09-06T07:05:58.000Z</time>
      </trkpt>
      <trkpt lat="43.39427805505692958831787109375" lon="-4.226172678172588348388671875">
        <ele>82.1999969482421875</ele>
        <time>2018-09-06T07:06:02.000Z</time>
      </trkpt>
      <trkpt lat="43.39433806948363780975341796875" lon="-4.226186089217662811279296875">
        <ele>82.8000030517578125</ele>
        <time>2018-09-06T07:06:06.000Z</time>
      </trkpt>
      <trkpt lat="43.3943644724786281585693359375" lon="-4.226178042590618133544921875">
        <ele>83.1999969482421875</ele>
        <time>2018-09-06T07:06:08.000Z</time>
      </trkpt>
      <trkpt lat="43.3944214694201946258544921875" lon="-4.2261651344597339630126953125">
        <ele>83.8000030517578125</ele>
        <time>2018-09-06T07:06:12.000Z</time>
      </trkpt>
      <trkpt lat="43.39443747885525226593017578125" lon="-4.22616538591682910919189453125">
        <ele>83.8000030517578125</ele>
        <time>2018-09-06T07:06:13.000Z</time>
      </trkpt>
      <trkpt lat="43.394470252096652984619140625" lon="-4.2261636257171630859375">
        <ele>84</ele>
        <time>2018-09-06T07:06:15.000Z</time>
      </trkpt>
      <trkpt lat="43.39451543055474758148193359375" lon="-4.22617175616323947906494140625">
        <ele>84.59999847412109375</ele>
        <time>2018-09-06T07:06:18.000Z</time>
      </trkpt>
      <trkpt lat="43.394543342292308807373046875" lon="-4.22616924159228801727294921875">
        <ele>85</ele>
        <time>2018-09-06T07:06:20.000Z</time>
      </trkpt>
      <trkpt lat="43.39458868838846683502197265625" lon="-4.22618986107409000396728515625">
        <ele>85.40000152587890625</ele>
        <time>2018-09-06T07:06:23.000Z</time>
      </trkpt>
      <trkpt lat="43.3946779556572437286376953125" lon="-4.2262305133044719696044921875">
        <ele>86.1999969482421875</ele>
        <time>2018-09-06T07:06:27.000Z</time>
      </trkpt>
      <trkpt lat="43.39469865895807743072509765625" lon="-4.2262365482747554779052734375">
        <ele>86.1999969482421875</ele>
        <time>2018-09-06T07:06:28.000Z</time>
      </trkpt>
      <trkpt lat="43.394769988954067230224609375" lon="-4.22624920494854450225830078125">
        <ele>87</ele>
        <time>2018-09-06T07:06:32.000Z</time>
      </trkpt>
      <trkpt lat="43.39478683657944202423095703125" lon="-4.2262559942901134490966796875">
        <ele>87.1999969482421875</ele>
        <time>2018-09-06T07:06:33.000Z</time>
      </trkpt>
      <trkpt lat="43.3948020078241825103759765625" lon="-4.22626747749745845794677734375">
        <ele>87.1999969482421875</ele>
        <time>2018-09-06T07:06:34.000Z</time>
      </trkpt>
      <trkpt lat="43.39489798061549663543701171875" lon="-4.22634207643568515777587890625">
        <ele>88.40000152587890625</ele>
        <time>2018-09-06T07:06:39.000Z</time>
      </trkpt>
      <trkpt lat="43.3949351124465465545654296875" lon="-4.2263870872557163238525390625">
        <ele>89.40000152587890625</ele>
        <time>2018-09-06T07:06:42.000Z</time>
      </trkpt>
      <trkpt lat="43.3949406445026397705078125" lon="-4.2264008335769176483154296875">
        <ele>89.59999847412109375</ele>
        <time>2018-09-06T07:06:43.000Z</time>
      </trkpt>
      <trkpt lat="43.39495380409061908721923828125" lon="-4.2264222912490367889404296875">
        <ele>90.1999969482421875</ele>
        <time>2018-09-06T07:06:45.000Z</time>
      </trkpt>
      <trkpt lat="43.3949781954288482666015625" lon="-4.226499237120151519775390625">
        <ele>91</ele>
        <time>2018-09-06T07:07:10.000Z</time>
      </trkpt>
      <trkpt lat="43.39500778354704380035400390625" lon="-4.22665690071880817413330078125">
        <ele>91.8000030517578125</ele>
        <time>2018-09-06T07:07:16.000Z</time>
      </trkpt>
      <trkpt lat="43.39500979520380496978759765625" lon="-4.22668422572314739227294921875">
        <ele>92.1999969482421875</ele>
        <time>2018-09-06T07:07:17.000Z</time>
      </trkpt>
      <trkpt lat="43.39500359259545803070068359375" lon="-4.22679034061729907989501953125">
        <ele>92.8000030517578125</ele>
        <time>2018-09-06T07:07:21.000Z</time>
      </trkpt>
      <trkpt lat="43.39498800225555896759033203125" lon="-4.226909615099430084228515625">
        <ele>93.8000030517578125</ele>
        <time>2018-09-06T07:07:25.000Z</time>
      </trkpt>
      <trkpt lat="43.39498330838978290557861328125" lon="-4.22694071196019649505615234375">
        <ele>94</ele>
        <time>2018-09-06T07:07:26.000Z</time>
      </trkpt>
      <trkpt lat="43.3949206955730915069580078125" lon="-4.2270737327635288238525390625">
        <ele>95</ele>
        <time>2018-09-06T07:07:31.000Z</time>
      </trkpt>
      <trkpt lat="43.39486713521182537078857421875" lon="-4.2271964438259601593017578125">
        <ele>96</ele>
        <time>2018-09-06T07:07:36.000Z</time>
      </trkpt>
      <trkpt lat="43.39484953321516513824462890625" lon="-4.22724346630275249481201171875">
        <ele>96.59999847412109375</ele>
        <time>2018-09-06T07:07:38.000Z</time>
      </trkpt>
      <trkpt lat="43.39475766755640506744384765625" lon="-4.2273520119488239288330078125">
        <ele>96.59999847412109375</ele>
        <time>2018-09-06T07:07:44.000Z</time>
      </trkpt>
      <trkpt lat="43.3947041071951389312744140625" lon="-4.22741127200424671173095703125">
        <ele>97</ele>
        <time>2018-09-06T07:07:47.000Z</time>
      </trkpt>
      <trkpt lat="43.3946482837200164794921875" lon="-4.2274727113544940948486328125">
        <ele>96.8000030517578125</ele>
        <time>2018-09-06T07:07:50.000Z</time>
      </trkpt>
      <trkpt lat="43.39462758041918277740478515625" lon="-4.227497689425945281982421875">
        <ele>96.59999847412109375</ele>
        <time>2018-09-06T07:07:51.000Z</time>
      </trkpt>
      <trkpt lat="43.3945958130061626434326171875" lon="-4.22753985039889812469482421875">
        <ele>96</ele>
        <time>2018-09-06T07:07:53.000Z</time>
      </trkpt>
      <trkpt lat="43.39452599175274372100830078125" lon="-4.2276447080075740814208984375">
        <ele>96.59999847412109375</ele>
        <time>2018-09-06T07:07:57.000Z</time>
      </trkpt>
      <trkpt lat="43.39447000063955783843994140625" lon="-4.22772861085832118988037109375">
        <ele>96.40000152587890625</ele>
        <time>2018-09-06T07:08:00.000Z</time>
      </trkpt>
      <trkpt lat="43.39440311305224895477294921875" lon="-4.2278333008289337158203125">
        <ele>97</ele>
        <time>2018-09-06T07:08:04.000Z</time>
      </trkpt>
      <trkpt lat="43.39433907531201839447021484375" lon="-4.22793715260922908782958984375">
        <ele>97.59999847412109375</ele>
        <time>2018-09-06T07:08:08.000Z</time>
      </trkpt>
      <trkpt lat="43.39425458572804927825927734375" lon="-4.22804578207433223724365234375">
        <ele>98</ele>
        <time>2018-09-06T07:08:13.000Z</time>
      </trkpt>
      <trkpt lat="43.39424259960651397705078125" lon="-4.2280684970319271087646484375">
        <ele>98.1999969482421875</ele>
        <time>2018-09-06T07:08:14.000Z</time>
      </trkpt>
      <trkpt lat="43.39422784745693206787109375" lon="-4.2280882783234119415283203125">
        <ele>98.40000152587890625</ele>
        <time>2018-09-06T07:08:15.000Z</time>
      </trkpt>
      <trkpt lat="43.3941968344151973724365234375" lon="-4.2281241528689861297607421875">
        <ele>98.8000030517578125</ele>
        <time>2018-09-06T07:08:17.000Z</time>
      </trkpt>
      <trkpt lat="43.3941321261227130889892578125" lon="-4.22818911261856555938720703125">
        <ele>99.40000152587890625</ele>
        <time>2018-09-06T07:08:21.000Z</time>
      </trkpt>
      <trkpt lat="43.3940823376178741455078125" lon="-4.22822959721088409423828125">
        <ele>100</ele>
        <time>2018-09-06T07:08:24.000Z</time>
      </trkpt>
      <trkpt lat="43.39405124075710773468017578125" lon="-4.2282666452229022979736328125">
        <ele>100.40000152587890625</ele>
        <time>2018-09-06T07:08:26.000Z</time>
      </trkpt>
      <trkpt lat="43.394000865519046783447265625" lon="-4.228306710720062255859375">
        <ele>101</ele>
        <time>2018-09-06T07:08:29.000Z</time>
      </trkpt>
      <trkpt lat="43.3939728699624538421630859375" lon="-4.22833747230470180511474609375">
        <ele>101.1999969482421875</ele>
        <time>2018-09-06T07:08:31.000Z</time>
      </trkpt>
      <trkpt lat="43.39395971037447452545166015625" lon="-4.22835121862590312957763671875">
        <ele>101.59999847412109375</ele>
        <time>2018-09-06T07:08:32.000Z</time>
      </trkpt>
      <trkpt lat="43.39389902539551258087158203125" lon="-4.22845297493040561676025390625">
        <ele>102.59999847412109375</ele>
        <time>2018-09-06T07:08:37.000Z</time>
      </trkpt>
      <trkpt lat="43.39388611726462841033935546875" lon="-4.22847175039350986480712890625">
        <ele>102.8000030517578125</ele>
        <time>2018-09-06T07:08:38.000Z</time>
      </trkpt>
      <trkpt lat="43.393833227455615997314453125" lon="-4.228553138673305511474609375">
        <ele>103.40000152587890625</ele>
        <time>2018-09-06T07:08:42.000Z</time>
      </trkpt>
      <trkpt lat="43.39378905482590198516845703125" lon="-4.22860301099717617034912109375">
        <ele>103.8000030517578125</ele>
        <time>2018-09-06T07:08:45.000Z</time>
      </trkpt>
      <trkpt lat="43.3937323093414306640625" lon="-4.22868691384792327880859375">
        <ele>105.40000152587890625</ele>
        <time>2018-09-06T07:08:49.000Z</time>
      </trkpt>
      <trkpt lat="43.3936818502843379974365234375" lon="-4.2287782765924930572509765625">
        <ele>106</ele>
        <time>2018-09-06T07:08:53.000Z</time>
      </trkpt>
      <trkpt lat="43.39361052028834819793701171875" lon="-4.22890677116811275482177734375">
        <ele>106.1999969482421875</ele>
        <time>2018-09-06T07:08:58.000Z</time>
      </trkpt>
      <trkpt lat="43.39359627105295658111572265625" lon="-4.22893644310534000396728515625">
        <ele>106.40000152587890625</ele>
        <time>2018-09-06T07:08:59.000Z</time>
      </trkpt>
      <trkpt lat="43.3935606479644775390625" lon="-4.22898924909532070159912109375">
        <ele>106.8000030517578125</ele>
        <time>2018-09-06T07:09:01.000Z</time>
      </trkpt>
      <trkpt lat="43.39348562993109226226806640625" lon="-4.22909419052302837371826171875">
        <ele>107.40000152587890625</ele>
        <time>2018-09-06T07:09:06.000Z</time>
      </trkpt>
      <trkpt lat="43.39344506151974201202392578125" lon="-4.2291584797203540802001953125">
        <ele>107.59999847412109375</ele>
        <time>2018-09-06T07:09:09.000Z</time>
      </trkpt>
      <trkpt lat="43.39337222278118133544921875" lon="-4.22931597568094730377197265625">
        <ele>107.8000030517578125</ele>
        <time>2018-09-06T07:09:15.000Z</time>
      </trkpt>
      <trkpt lat="43.3933556266129016876220703125" lon="-4.2295192368328571319580078125">
        <ele>107.8000030517578125</ele>
        <time>2018-09-06T07:09:21.000Z</time>
      </trkpt>
      <trkpt lat="43.393352441489696502685546875" lon="-4.22955016605556011199951171875">
        <ele>108</ele>
        <time>2018-09-06T07:09:22.000Z</time>
      </trkpt>
      <trkpt lat="43.393343724310398101806640625" lon="-4.2296402715146541595458984375">
        <ele>108.1999969482421875</ele>
        <time>2018-09-06T07:09:25.000Z</time>
      </trkpt>
      <trkpt lat="43.39334296993911266326904296875" lon="-4.22967203892767429351806640625">
        <ele>108.40000152587890625</ele>
        <time>2018-09-06T07:09:26.000Z</time>
      </trkpt>
      <trkpt lat="43.39334129355847835540771484375" lon="-4.22970036976039409637451171875">
        <ele>108.59999847412109375</ele>
        <time>2018-09-06T07:09:27.000Z</time>
      </trkpt>
      <trkpt lat="43.39334146119654178619384765625" lon="-4.2298407666385173797607421875">
        <ele>109.1999969482421875</ele>
        <time>2018-09-06T07:09:31.000Z</time>
      </trkpt>
      <trkpt lat="43.39334003627300262451171875" lon="-4.22988393343985080718994140625">
        <ele>109.40000152587890625</ele>
        <time>2018-09-06T07:09:32.000Z</time>
      </trkpt>
      <trkpt lat="43.39333307929337024688720703125" lon="-4.2299671657383441925048828125">
        <ele>109.8000030517578125</ele>
        <time>2018-09-06T07:09:34.000Z</time>
      </trkpt>
      <trkpt lat="43.3933187462389469146728515625" lon="-4.23007168807089328765869140625">
        <ele>110.59999847412109375</ele>
        <time>2018-09-06T07:09:37.000Z</time>
      </trkpt>
      <trkpt lat="43.3932989649474620819091796875" lon="-4.2301237396895885467529296875">
        <ele>111</ele>
        <time>2018-09-06T07:09:39.000Z</time>
      </trkpt>
      <trkpt lat="43.39328329078853130340576171875" lon="-4.2301495559513568878173828125">
        <ele>111.1999969482421875</ele>
        <time>2018-09-06T07:09:40.000Z</time>
      </trkpt>
      <trkpt lat="43.3932615816593170166015625" lon="-4.2301810719072818756103515625">
        <ele>111.59999847412109375</ele>
        <time>2018-09-06T07:09:42.000Z</time>
      </trkpt>
      <trkpt lat="43.39324481785297393798828125" lon="-4.2302360571920871734619140625">
        <ele>112.40000152587890625</ele>
        <time>2018-09-06T07:09:45.000Z</time>
      </trkpt>
      <trkpt lat="43.39321958832442760467529296875" lon="-4.23031191341578960418701171875">
        <ele>112.8000030517578125</ele>
        <time>2018-09-06T07:09:48.000Z</time>
      </trkpt>
      <trkpt lat="43.3931784331798553466796875" lon="-4.23039522953331470489501953125">
        <ele>112.8000030517578125</ele>
        <time>2018-09-06T07:09:51.000Z</time>
      </trkpt>
      <trkpt lat="43.3930800296366214752197265625" lon="-4.23058616928756237030029296875">
        <ele>111.40000152587890625</ele>
        <time>2018-09-06T07:09:57.000Z</time>
      </trkpt>
      <trkpt lat="43.3930384553968906402587890625" lon="-4.23064467497169971466064453125">
        <ele>111</ele>
        <time>2018-09-06T07:09:59.000Z</time>
      </trkpt>
      <trkpt lat="43.39285866357386112213134765625" lon="-4.23079387284815311431884765625">
        <ele>111</ele>
        <time>2018-09-06T07:10:05.000Z</time>
      </trkpt>
      <trkpt lat="43.39278507046401500701904296875" lon="-4.230844080448150634765625">
        <ele>111.8000030517578125</ele>
        <time>2018-09-06T07:10:07.000Z</time>
      </trkpt>
      <trkpt lat="43.3927132375538349151611328125" lon="-4.2309029214084148406982421875">
        <ele>112</ele>
        <time>2018-09-06T07:10:09.000Z</time>
      </trkpt>
      <trkpt lat="43.39268046431243419647216796875" lon="-4.2309401370584964752197265625">
        <ele>111.40000152587890625</ele>
        <time>2018-09-06T07:10:10.000Z</time>
      </trkpt>
      <trkpt lat="43.39261944405734539031982421875" lon="-4.2310142330825328826904296875">
        <ele>111.59999847412109375</ele>
        <time>2018-09-06T07:10:12.000Z</time>
      </trkpt>
      <trkpt lat="43.39249312877655029296875" lon="-4.2312170751392841339111328125">
        <ele>112.40000152587890625</ele>
        <time>2018-09-06T07:10:17.000Z</time>
      </trkpt>
      <trkpt lat="43.392466641962528228759765625" lon="-4.23124398104846477508544921875">
        <ele>112.40000152587890625</ele>
        <time>2018-09-06T07:10:18.000Z</time>
      </trkpt>
      <trkpt lat="43.39239715598523616790771484375" lon="-4.23133115284144878387451171875">
        <ele>113.40000152587890625</ele>
        <time>2018-09-06T07:10:21.000Z</time>
      </trkpt>
      <trkpt lat="43.39232993312180042266845703125" lon="-4.23141228966414928436279296875">
        <ele>114</ele>
        <time>2018-09-06T07:10:24.000Z</time>
      </trkpt>
      <trkpt lat="43.39228550903499126434326171875" lon="-4.231452606618404388427734375">
        <ele>114.40000152587890625</ele>
        <time>2018-09-06T07:10:26.000Z</time>
      </trkpt>
      <trkpt lat="43.3921771310269832611083984375" lon="-4.23152024857699871063232421875">
        <ele>115</ele>
        <time>2018-09-06T07:10:31.000Z</time>
      </trkpt>
      <trkpt lat="43.39213010855019092559814453125" lon="-4.23158562742173671722412109375">
        <ele>114.59999847412109375</ele>
        <time>2018-09-06T07:10:34.000Z</time>
      </trkpt>
      <trkpt lat="43.39212725870311260223388671875" lon="-4.23159183003008365631103515625">
        <ele>114.40000152587890625</ele>
        <time>2018-09-06T07:10:35.000Z</time>
      </trkpt>
      <trkpt lat="43.3920819126069545745849609375" lon="-4.231600128114223480224609375">
        <ele>114.1999969482421875</ele>
        <time>2018-09-06T07:10:50.000Z</time>
      </trkpt>
      <trkpt lat="43.392086438834667205810546875" lon="-4.23161865212023258209228515625">
        <ele>114.1999969482421875</ele>
        <time>2018-09-06T07:10:51.000Z</time>
      </trkpt>
      <trkpt lat="43.392082750797271728515625" lon="-4.2316935025155544281005859375">
        <ele>113.8000030517578125</ele>
        <time>2018-09-06T07:11:20.000Z</time>
      </trkpt>
      <trkpt lat="43.3920785598456859588623046875" lon="-4.2317082546651363372802734375">
        <ele>113.8000030517578125</ele>
        <time>2018-09-06T07:11:21.000Z</time>
      </trkpt>
      <trkpt lat="43.39207227341830730438232421875" lon="-4.23171781003475189208984375">
        <ele>113.59999847412109375</ele>
        <time>2018-09-06T07:11:22.000Z</time>
      </trkpt>
      <trkpt lat="43.3920728601515293121337890625" lon="-4.23171856440603733062744140625">
        <ele>113.59999847412109375</ele>
        <time>2018-09-06T07:11:24.000Z</time>
      </trkpt>
      <trkpt lat="43.39208886958658695220947265625" lon="-4.23182853497564792633056640625">
        <ele>113.59999847412109375</ele>
        <time>2018-09-06T07:11:34.000Z</time>
      </trkpt>
      <trkpt lat="43.392081074416637420654296875" lon="-4.23186457715928554534912109375">
        <ele>113.40000152587890625</ele>
        <time>2018-09-06T07:11:35.000Z</time>
      </trkpt>
      <trkpt lat="43.39204327203333377838134765625" lon="-4.23200086690485477447509765625">
        <ele>113</ele>
        <time>2018-09-06T07:11:38.000Z</time>
      </trkpt>
      <trkpt lat="43.39202885515987873077392578125" lon="-4.23205451108515262603759765625">
        <ele>112.59999847412109375</ele>
        <time>2018-09-06T07:11:39.000Z</time>
      </trkpt>
      <trkpt lat="43.3920148573815822601318359375" lon="-4.23211276531219482421875">
        <ele>112.40000152587890625</ele>
        <time>2018-09-06T07:11:40.000Z</time>
      </trkpt>
      <trkpt lat="43.39200563728809356689453125" lon="-4.232180155813694000244140625">
        <ele>112</ele>
        <time>2018-09-06T07:11:41.000Z</time>
      </trkpt>
      <trkpt lat="43.3920089900493621826171875" lon="-4.2323241569101810455322265625">
        <ele>110.8000030517578125</ele>
        <time>2018-09-06T07:11:43.000Z</time>
      </trkpt>
      <trkpt lat="43.3920329622924327850341796875" lon="-4.23253563232719898223876953125">
        <ele>110.1999969482421875</ele>
        <time>2018-09-06T07:11:46.000Z</time>
      </trkpt>
      <trkpt lat="43.3920604549348354339599609375" lon="-4.2326808907091617584228515625">
        <ele>110</ele>
        <time>2018-09-06T07:11:48.000Z</time>
      </trkpt>
      <trkpt lat="43.3920909650623798370361328125" lon="-4.232758842408657073974609375">
        <ele>109.40000152587890625</ele>
        <time>2018-09-06T07:11:49.000Z</time>
      </trkpt>
      <trkpt lat="43.39218844659626483917236328125" lon="-4.23291273415088653564453125">
        <ele>107.8000030517578125</ele>
        <time>2018-09-06T07:11:51.000Z</time>
      </trkpt>
      <trkpt lat="43.392241001129150390625" lon="-4.23299697227776050567626953125">
        <ele>107</ele>
        <time>2018-09-06T07:11:52.000Z</time>
      </trkpt>
      <trkpt lat="43.392287604510784149169921875" lon="-4.23309654928743839263916015625">
        <ele>106.59999847412109375</ele>
        <time>2018-09-06T07:11:53.000Z</time>
      </trkpt>
      <trkpt lat="43.39234770275652408599853515625" lon="-4.2333192564547061920166015625">
        <ele>105.59999847412109375</ele>
        <time>2018-09-06T07:11:55.000Z</time>
      </trkpt>
      <trkpt lat="43.39235826395452022552490234375" lon="-4.23343769274652004241943359375">
        <ele>105</ele>
        <time>2018-09-06T07:11:56.000Z</time>
      </trkpt>
      <trkpt lat="43.39236027561128139495849609375" lon="-4.23355872742831707000732421875">
        <ele>103</ele>
        <time>2018-09-06T07:11:57.000Z</time>
      </trkpt>
      <trkpt lat="43.39236245490610599517822265625" lon="-4.2336773313581943511962890625">
        <ele>101.8000030517578125</ele>
        <time>2018-09-06T07:11:58.000Z</time>
      </trkpt>
      <trkpt lat="43.392384834587574005126953125" lon="-4.23401704989373683929443359375">
        <ele>102.1999969482421875</ele>
        <time>2018-09-06T07:12:01.000Z</time>
      </trkpt>
      <trkpt lat="43.392391204833984375" lon="-4.2343234084546566009521484375">
        <ele>101.40000152587890625</ele>
        <time>2018-09-06T07:12:04.000Z</time>
      </trkpt>
      <trkpt lat="43.39240822009742259979248046875" lon="-4.2346124164760112762451171875">
        <ele>101.40000152587890625</ele>
        <time>2018-09-06T07:12:07.000Z</time>
      </trkpt>
      <trkpt lat="43.39243772439658641815185546875" lon="-4.23480344004929065704345703125">
        <ele>100.40000152587890625</ele>
        <time>2018-09-06T07:12:09.000Z</time>
      </trkpt>
      <trkpt lat="43.392457924783229827880859375" lon="-4.23509605228900909423828125">
        <ele>100</ele>
        <time>2018-09-06T07:12:12.000Z</time>
      </trkpt>
      <trkpt lat="43.3924533985555171966552734375" lon="-4.23519303090870380401611328125">
        <ele>99.1999969482421875</ele>
        <time>2018-09-06T07:12:13.000Z</time>
      </trkpt>
      <trkpt lat="43.3924550749361515045166015625" lon="-4.23539511859416961669921875">
        <ele>98</ele>
        <time>2018-09-06T07:12:15.000Z</time>
      </trkpt>
      <trkpt lat="43.3924530632793903350830078125" lon="-4.235780350863933563232421875">
        <ele>97.59999847412109375</ele>
        <time>2018-09-06T07:12:19.000Z</time>
      </trkpt>
      <trkpt lat="43.39242733083665370941162109375" lon="-4.235874228179454803466796875">
        <ele>97</ele>
        <time>2018-09-06T07:12:20.000Z</time>
      </trkpt>
      <trkpt lat="43.3923518098890781402587890625" lon="-4.23616650514304637908935546875">
        <ele>95.8000030517578125</ele>
        <time>2018-09-06T07:12:23.000Z</time>
      </trkpt>
      <trkpt lat="43.39229531586170196533203125" lon="-4.2363451234996318817138671875">
        <ele>95</ele>
        <time>2018-09-06T07:12:25.000Z</time>
      </trkpt>
      <trkpt lat="43.3922530710697174072265625" lon="-4.23643179237842559814453125">
        <ele>94.40000152587890625</ele>
        <time>2018-09-06T07:12:26.000Z</time>
      </trkpt>
      <trkpt lat="43.39219984598457813262939453125" lon="-4.2365157790482044219970703125">
        <ele>93.1999969482421875</ele>
        <time>2018-09-06T07:12:27.000Z</time>
      </trkpt>
      <trkpt lat="43.392142765223979949951171875" lon="-4.2365969158709049224853515625">
        <ele>92.1999969482421875</ele>
        <time>2018-09-06T07:12:28.000Z</time>
      </trkpt>
      <trkpt lat="43.392087109386920928955078125" lon="-4.2366803996264934539794921875">
        <ele>91.1999969482421875</ele>
        <time>2018-09-06T07:12:29.000Z</time>
      </trkpt>
      <trkpt lat="43.39203782379627227783203125" lon="-4.236771427094936370849609375">
        <ele>90.59999847412109375</ele>
        <time>2018-09-06T07:12:30.000Z</time>
      </trkpt>
      <trkpt lat="43.39199700392782688140869140625" lon="-4.2368691600859165191650390625">
        <ele>90.1999969482421875</ele>
        <time>2018-09-06T07:12:31.000Z</time>
      </trkpt>
      <trkpt lat="43.39195274747908115386962890625" lon="-4.23708449117839336395263671875">
        <ele>90.8000030517578125</ele>
        <time>2018-09-06T07:12:33.000Z</time>
      </trkpt>
      <trkpt lat="43.39191637001931667327880859375" lon="-4.23730359412729740142822265625">
        <ele>90</ele>
        <time>2018-09-06T07:12:35.000Z</time>
      </trkpt>
      <trkpt lat="43.3918936550617218017578125" lon="-4.237538874149322509765625">
        <ele>88.8000030517578125</ele>
        <time>2018-09-06T07:12:37.000Z</time>
      </trkpt>
      <trkpt lat="43.39187957346439361572265625" lon="-4.23780784942209720611572265625">
        <ele>86.8000030517578125</ele>
        <time>2018-09-06T07:12:39.000Z</time>
      </trkpt>
      <trkpt lat="43.39187177829444408416748046875" lon="-4.23794782720506191253662109375">
        <ele>85.40000152587890625</ele>
        <time>2018-09-06T07:12:40.000Z</time>
      </trkpt>
      <trkpt lat="43.3918680064380168914794921875" lon="-4.23808939754962921142578125">
        <ele>84.40000152587890625</ele>
        <time>2018-09-06T07:12:41.000Z</time>
      </trkpt>
      <trkpt lat="43.39187630452215671539306640625" lon="-4.2382320575416088104248046875">
        <ele>83.8000030517578125</ele>
        <time>2018-09-06T07:12:42.000Z</time>
      </trkpt>
      <trkpt lat="43.39190362952649593353271484375" lon="-4.238375388085842132568359375">
        <ele>83.1999969482421875</ele>
        <time>2018-09-06T07:12:43.000Z</time>
      </trkpt>
      <trkpt lat="43.39194587431848049163818359375" lon="-4.23850245773792266845703125">
        <ele>82.8000030517578125</ele>
        <time>2018-09-06T07:12:44.000Z</time>
      </trkpt>
      <trkpt lat="43.39203405193984508514404296875" lon="-4.23873606137931346893310546875">
        <ele>82.59999847412109375</ele>
        <time>2018-09-06T07:12:46.000Z</time>
      </trkpt>
      <trkpt lat="43.39211158454418182373046875" lon="-4.23895843327045440673828125">
        <ele>82.1999969482421875</ele>
        <time>2018-09-06T07:12:48.000Z</time>
      </trkpt>
      <trkpt lat="43.39212633669376373291015625" lon="-4.239080138504505157470703125">
        <ele>82</ele>
        <time>2018-09-06T07:12:49.000Z</time>
      </trkpt>
      <trkpt lat="43.39212256483733654022216796875" lon="-4.23932245932519435882568359375">
        <ele>80.40000152587890625</ele>
        <time>2018-09-06T07:12:51.000Z</time>
      </trkpt>
      <trkpt lat="43.39210462756454944610595703125" lon="-4.239447601139545440673828125">
        <ele>79.1999969482421875</ele>
        <time>2018-09-06T07:12:52.000Z</time>
      </trkpt>
      <trkpt lat="43.3920691721141338348388671875" lon="-4.239697046577930450439453125">
        <ele>78.40000152587890625</ele>
        <time>2018-09-06T07:12:54.000Z</time>
      </trkpt>
      <trkpt lat="43.3920688368380069732666015625" lon="-4.2398174107074737548828125">
        <ele>78.8000030517578125</ele>
        <time>2018-09-06T07:12:55.000Z</time>
      </trkpt>
      <trkpt lat="43.39210965670645236968994140625" lon="-4.24001866020262241363525390625">
        <ele>80.8000030517578125</ele>
        <time>2018-09-06T07:12:57.000Z</time>
      </trkpt>
      <trkpt lat="43.39211971499025821685791015625" lon="-4.24009971320629119873046875">
        <ele>81.8000030517578125</ele>
        <time>2018-09-06T07:12:58.000Z</time>
      </trkpt>
      <trkpt lat="43.3921060524880886077880859375" lon="-4.24024178646504878997802734375">
        <ele>83.1999969482421875</ele>
        <time>2018-09-06T07:13:00.000Z</time>
      </trkpt>
      <trkpt lat="43.39209423400461673736572265625" lon="-4.24030330963432788848876953125">
        <ele>83.59999847412109375</ele>
        <time>2018-09-06T07:13:01.000Z</time>
      </trkpt>
      <trkpt lat="43.3920835889875888824462890625" lon="-4.24036650918424129486083984375">
        <ele>83.8000030517578125</ele>
        <time>2018-09-06T07:13:02.000Z</time>
      </trkpt>
      <trkpt lat="43.39205752126872539520263671875" lon="-4.2404817603528499603271484375">
        <ele>84.1999969482421875</ele>
        <time>2018-09-06T07:13:04.000Z</time>
      </trkpt>
      <trkpt lat="43.39204243384301662445068359375" lon="-4.24069759435951709747314453125">
        <ele>84.8000030517578125</ele>
        <time>2018-09-06T07:13:08.000Z</time>
      </trkpt>
      <trkpt lat="43.39204930700361728668212890625" lon="-4.24084779806435108184814453125">
        <ele>85.40000152587890625</ele>
        <time>2018-09-06T07:13:11.000Z</time>
      </trkpt>
      <trkpt lat="43.39206506498157978057861328125" lon="-4.2410539090633392333984375">
        <ele>86.1999969482421875</ele>
        <time>2018-09-06T07:13:15.000Z</time>
      </trkpt>
      <trkpt lat="43.39205886237323284149169921875" lon="-4.24113965593278408050537109375">
        <ele>86.59999847412109375</ele>
        <time>2018-09-06T07:13:17.000Z</time>
      </trkpt>
      <trkpt lat="43.39204679243266582489013671875" lon="-4.24124426208436489105224609375">
        <ele>87</ele>
        <time>2018-09-06T07:13:20.000Z</time>
      </trkpt>
      <trkpt lat="43.39202164672315120697021484375" lon="-4.24131148494780063629150390625">
        <ele>87.59999847412109375</ele>
        <time>2018-09-06T07:13:23.000Z</time>
      </trkpt>
      <trkpt lat="43.3919982612133026123046875" lon="-4.2413518019020557403564453125">
        <ele>88</ele>
        <time>2018-09-06T07:13:25.000Z</time>
      </trkpt>
      <trkpt lat="43.39196129702031612396240234375" lon="-4.2414081282913684844970703125">
        <ele>88.8000030517578125</ele>
        <time>2018-09-06T07:13:28.000Z</time>
      </trkpt>
      <trkpt lat="43.39189457707107067108154296875" lon="-4.2414946295320987701416015625">
        <ele>89.8000030517578125</ele>
        <time>2018-09-06T07:13:33.000Z</time>
      </trkpt>
      <trkpt lat="43.39187965728342533111572265625" lon="-4.2415056936442852020263671875">
        <ele>90.1999969482421875</ele>
        <time>2018-09-06T07:13:34.000Z</time>
      </trkpt>
      <trkpt lat="43.39180648326873779296875" lon="-4.2415774427354335784912109375">
        <ele>91.40000152587890625</ele>
        <time>2018-09-06T07:13:39.000Z</time>
      </trkpt>
      <trkpt lat="43.39175887405872344970703125" lon="-4.2416270636022090911865234375">
        <ele>92</ele>
        <time>2018-09-06T07:13:42.000Z</time>
      </trkpt>
      <trkpt lat="43.39167430065572261810302734375" lon="-4.24174524843692779541015625">
        <ele>92.40000152587890625</ele>
        <time>2018-09-06T07:13:48.000Z</time>
      </trkpt>
      <trkpt lat="43.39164027012884616851806640625" lon="-4.2417819611728191375732421875">
        <ele>92.59999847412109375</ele>
        <time>2018-09-06T07:13:50.000Z</time>
      </trkpt>
      <trkpt lat="43.39154974557459354400634765625" lon="-4.24189989455044269561767578125">
        <ele>93.1999969482421875</ele>
        <time>2018-09-06T07:13:56.000Z</time>
      </trkpt>
      <trkpt lat="43.39153826236724853515625" lon="-4.24192504025995731353759765625">
        <ele>93.40000152587890625</ele>
        <time>2018-09-06T07:13:57.000Z</time>
      </trkpt>
      <trkpt lat="43.3915049023926258087158203125" lon="-4.241988994181156158447265625">
        <ele>94.1999969482421875</ele>
        <time>2018-09-06T07:14:00.000Z</time>
      </trkpt>
      <trkpt lat="43.39148000814020633697509765625" lon="-4.24203182570636272430419921875">
        <ele>94.59999847412109375</ele>
        <time>2018-09-06T07:14:02.000Z</time>
      </trkpt>
      <trkpt lat="43.391449414193630218505859375" lon="-4.24214816652238368988037109375">
        <ele>95.40000152587890625</ele>
        <time>2018-09-06T07:14:06.000Z</time>
      </trkpt>
      <trkpt lat="43.39144128374755382537841796875" lon="-4.2421688698232173919677734375">
        <ele>95.8000030517578125</ele>
        <time>2018-09-06T07:14:07.000Z</time>
      </trkpt>
      <trkpt lat="43.391443379223346710205078125" lon="-4.2422493360936641693115234375">
        <ele>96.1999969482421875</ele>
        <time>2018-09-06T07:14:10.000Z</time>
      </trkpt>
      <trkpt lat="43.39145083911716938018798828125" lon="-4.2423059977591037750244140625">
        <ele>96.40000152587890625</ele>
        <time>2018-09-06T07:14:12.000Z</time>
      </trkpt>
      <trkpt lat="43.39146408252418041229248046875" lon="-4.242463074624538421630859375">
        <ele>96.8000030517578125</ele>
        <time>2018-09-06T07:14:18.000Z</time>
      </trkpt>
      <trkpt lat="43.3914656750857830047607421875" lon="-4.242514707148075103759765625">
        <ele>97.1999969482421875</ele>
        <time>2018-09-06T07:14:20.000Z</time>
      </trkpt>
      <trkpt lat="43.391470201313495635986328125" lon="-4.242561645805835723876953125">
        <ele>97.8000030517578125</ele>
        <time>2018-09-06T07:14:22.000Z</time>
      </trkpt>
      <trkpt lat="43.39146492071449756622314453125" lon="-4.24268745817244052886962890625">
        <ele>98.8000030517578125</ele>
        <time>2018-09-06T07:14:27.000Z</time>
      </trkpt>
      <trkpt lat="43.39146357960999011993408203125" lon="-4.24271444790065288543701171875">
        <ele>99.1999969482421875</ele>
        <time>2018-09-06T07:14:28.000Z</time>
      </trkpt>
      <trkpt lat="43.39145042002201080322265625" lon="-4.24287043511867523193359375">
        <ele>100.40000152587890625</ele>
        <time>2018-09-06T07:14:34.000Z</time>
      </trkpt>
      <trkpt lat="43.39144497178494930267333984375" lon="-4.24289918504655361175537109375">
        <ele>100.8000030517578125</ele>
        <time>2018-09-06T07:14:35.000Z</time>
      </trkpt>
      <trkpt lat="43.39140423573553562164306640625" lon="-4.24303413368761539459228515625">
        <ele>101.59999847412109375</ele>
        <time>2018-09-06T07:14:40.000Z</time>
      </trkpt>
      <trkpt lat="43.39138202369213104248046875" lon="-4.2431153543293476104736328125">
        <ele>102</ele>
        <time>2018-09-06T07:14:43.000Z</time>
      </trkpt>
      <trkpt lat="43.3913303911685943603515625" lon="-4.2432759515941143035888671875">
        <ele>102.8000030517578125</ele>
        <time>2018-09-06T07:14:48.000Z</time>
      </trkpt>
      <trkpt lat="43.39127699844539165496826171875" lon="-4.2435079626739025115966796875">
        <ele>102.40000152587890625</ele>
        <time>2018-09-06T07:14:54.000Z</time>
      </trkpt>
      <trkpt lat="43.391271047294139862060546875" lon="-4.2435488663613796234130859375">
        <ele>102.1999969482421875</ele>
        <time>2018-09-06T07:14:55.000Z</time>
      </trkpt>
      <trkpt lat="43.391213715076446533203125" lon="-4.24368456937372684478759765625">
        <ele>101.8000030517578125</ele>
        <time>2018-09-06T07:14:58.000Z</time>
      </trkpt>
      <trkpt lat="43.39119317941367626190185546875" lon="-4.24373653717339038848876953125">
        <ele>101.59999847412109375</ele>
        <time>2018-09-06T07:14:59.000Z</time>
      </trkpt>
      <trkpt lat="43.3911639265716075897216796875" lon="-4.2437822185456752777099609375">
        <ele>101.40000152587890625</ele>
        <time>2018-09-06T07:15:00.000Z</time>
      </trkpt>
      <trkpt lat="43.391123525798320770263671875" lon="-4.24382991157472133636474609375">
        <ele>101</ele>
        <time>2018-09-06T07:15:01.000Z</time>
      </trkpt>
      <trkpt lat="43.39107222855091094970703125" lon="-4.243840388953685760498046875">
        <ele>100.1999969482421875</ele>
        <time>2018-09-06T07:15:02.000Z</time>
      </trkpt>
      <trkpt lat="43.39102587662637233734130859375" lon="-4.2438281513750553131103515625">
        <ele>99</ele>
        <time>2018-09-06T07:15:03.000Z</time>
      </trkpt>
      <trkpt lat="43.390962593257427215576171875" lon="-4.24375263042747974395751953125">
        <ele>97.8000030517578125</ele>
        <time>2018-09-06T07:15:04.000Z</time>
      </trkpt>
      <trkpt lat="43.39089696295559406280517578125" lon="-4.24369110725820064544677734375">
        <ele>96.40000152587890625</ele>
        <time>2018-09-06T07:15:05.000Z</time>
      </trkpt>
      <trkpt lat="43.3908289857208728790283203125" lon="-4.24362606368958950042724609375">
        <ele>95.40000152587890625</ele>
        <time>2018-09-06T07:15:06.000Z</time>
      </trkpt>
      <trkpt lat="43.39076419360935688018798828125" lon="-4.24355666153132915496826171875">
        <ele>94.1999969482421875</ele>
        <time>2018-09-06T07:15:07.000Z</time>
      </trkpt>
      <trkpt lat="43.39070367626845836639404296875" lon="-4.24348508007824420928955078125">
        <ele>93.40000152587890625</ele>
        <time>2018-09-06T07:15:08.000Z</time>
      </trkpt>
      <trkpt lat="43.3906563185155391693115234375" lon="-4.2433973215520381927490234375">
        <ele>92.59999847412109375</ele>
        <time>2018-09-06T07:15:09.000Z</time>
      </trkpt>
      <trkpt lat="43.39061801321804523468017578125" lon="-4.243297576904296875">
        <ele>91.1999969482421875</ele>
        <time>2018-09-06T07:15:10.000Z</time>
      </trkpt>
      <trkpt lat="43.3905054442584514617919921875" lon="-4.24302290193736553192138671875">
        <ele>89.8000030517578125</ele>
        <time>2018-09-06T07:15:13.000Z</time>
      </trkpt>
      <trkpt lat="43.39040930382907390594482421875" lon="-4.2428732849657535552978515625">
        <ele>89</ele>
        <time>2018-09-06T07:15:15.000Z</time>
      </trkpt>
      <trkpt lat="43.39034861885011196136474609375" lon="-4.24280832521617412567138671875">
        <ele>88.59999847412109375</ele>
        <time>2018-09-06T07:15:16.000Z</time>
      </trkpt>
      <trkpt lat="43.39026781730353832244873046875" lon="-4.24276256002485752105712890625">
        <ele>88</ele>
        <time>2018-09-06T07:15:17.000Z</time>
      </trkpt>
      <trkpt lat="43.3901748619973659515380859375" lon="-4.2427217401564121246337890625">
        <ele>86.8000030517578125</ele>
        <time>2018-09-06T07:15:18.000Z</time>
      </trkpt>
      <trkpt lat="43.3900900371372699737548828125" lon="-4.2426734603941440582275390625">
        <ele>85.40000152587890625</ele>
        <time>2018-09-06T07:15:19.000Z</time>
      </trkpt>
      <trkpt lat="43.39000948704779148101806640625" lon="-4.2426060698926448822021484375">
        <ele>83.8000030517578125</ele>
        <time>2018-09-06T07:15:20.000Z</time>
      </trkpt>
      <trkpt lat="43.3899304457008838653564453125" lon="-4.2425219155848026275634765625">
        <ele>82.40000152587890625</ele>
        <time>2018-09-06T07:15:21.000Z</time>
      </trkpt>
      <trkpt lat="43.38985509239137172698974609375" lon="-4.24244128167629241943359375">
        <ele>81</ele>
        <time>2018-09-06T07:15:22.000Z</time>
      </trkpt>
      <trkpt lat="43.3897839300334453582763671875" lon="-4.24237556755542755126953125">
        <ele>79.8000030517578125</ele>
        <time>2018-09-06T07:15:23.000Z</time>
      </trkpt>
      <trkpt lat="43.38971410878002643585205078125" lon="-4.24231949262320995330810546875">
        <ele>78.8000030517578125</ele>
        <time>2018-09-06T07:15:24.000Z</time>
      </trkpt>
      <trkpt lat="43.3896553516387939453125" lon="-4.24229049123823642730712890625">
        <ele>78.40000152587890625</ele>
        <time>2018-09-06T07:15:25.000Z</time>
      </trkpt>
      <trkpt lat="43.3895552717149257659912109375" lon="-4.2422610707581043243408203125">
        <ele>77.8000030517578125</ele>
        <time>2018-09-06T07:15:27.000Z</time>
      </trkpt>
      <trkpt lat="43.38951713405549526214599609375" lon="-4.2422694526612758636474609375">
        <ele>77.40000152587890625</ele>
        <time>2018-09-06T07:15:28.000Z</time>
      </trkpt>
      <trkpt lat="43.38945628143846988677978515625" lon="-4.24235084094107151031494140625">
        <ele>76</ele>
        <time>2018-09-06T07:15:30.000Z</time>
      </trkpt>
      <trkpt lat="43.3894114382565021514892578125" lon="-4.24251210875809192657470703125">
        <ele>74.59999847412109375</ele>
        <time>2018-09-06T07:15:32.000Z</time>
      </trkpt>
      <trkpt lat="43.3893718756735324859619140625" lon="-4.24258620478212833404541015625">
        <ele>74</ele>
        <time>2018-09-06T07:15:33.000Z</time>
      </trkpt>
      <trkpt lat="43.38931831531226634979248046875" lon="-4.2426566965878009796142578125">
        <ele>71.59999847412109375</ele>
        <time>2018-09-06T07:15:34.000Z</time>
      </trkpt>
      <trkpt lat="43.3892608992755413055419921875" lon="-4.24272702075541019439697265625">
        <ele>70.40000152587890625</ele>
        <time>2018-09-06T07:15:35.000Z</time>
      </trkpt>
      <trkpt lat="43.389201052486896514892578125" lon="-4.24279524944722652435302734375">
        <ele>69.1999969482421875</ele>
        <time>2018-09-06T07:15:36.000Z</time>
      </trkpt>
      <trkpt lat="43.38913701474666595458984375" lon="-4.24285492859780788421630859375">
        <ele>68</ele>
        <time>2018-09-06T07:15:37.000Z</time>
      </trkpt>
      <trkpt lat="43.389066942036151885986328125" lon="-4.24290320836007595062255859375">
        <ele>67</ele>
        <time>2018-09-06T07:15:38.000Z</time>
      </trkpt>
      <trkpt lat="43.3889164030551910400390625" lon="-4.24297411926090717315673828125">
        <ele>65.1999969482421875</ele>
        <time>2018-09-06T07:15:40.000Z</time>
      </trkpt>
      <trkpt lat="43.38884943164885044097900390625" lon="-4.242983423173427581787109375">
        <ele>64.8000030517578125</ele>
        <time>2018-09-06T07:15:41.000Z</time>
      </trkpt>
      <trkpt lat="43.38877466507256031036376953125" lon="-4.24299775622785091400146484375">
        <ele>64</ele>
        <time>2018-09-06T07:15:43.000Z</time>
      </trkpt>
      <trkpt lat="43.3887542970478534698486328125" lon="-4.24300513230264186859130859375">
        <ele>63.59999847412109375</ele>
        <time>2018-09-06T07:15:44.000Z</time>
      </trkpt>
      <trkpt lat="43.38873895816504955291748046875" lon="-4.24303296022117137908935546875">
        <ele>62.799999237060546875</ele>
        <time>2018-09-06T07:15:46.000Z</time>
      </trkpt>
      <trkpt lat="43.38874700479209423065185546875" lon="-4.24306330271065235137939453125">
        <ele>62.59999847412109375</ele>
        <time>2018-09-06T07:15:47.000Z</time>
      </trkpt>
      <trkpt lat="43.388784639537334442138671875" lon="-4.2432025261223316192626953125">
        <ele>61.799999237060546875</ele>
        <time>2018-09-06T07:15:50.000Z</time>
      </trkpt>
      <trkpt lat="43.388802744448184967041015625" lon="-4.2432531528174877166748046875">
        <ele>61.59999847412109375</ele>
        <time>2018-09-06T07:15:51.000Z</time>
      </trkpt>
      <trkpt lat="43.38882193900644779205322265625" lon="-4.24330738373100757598876953125">
        <ele>61.59999847412109375</ele>
        <time>2018-09-06T07:15:52.000Z</time>
      </trkpt>
      <trkpt lat="43.3888860605657100677490234375" lon="-4.24364148639142513275146484375">
        <ele>60.59999847412109375</ele>
        <time>2018-09-06T07:15:58.000Z</time>
      </trkpt>
      <trkpt lat="43.38885714299976825714111328125" lon="-4.24368825741112232208251953125">
        <ele>60.200000762939453125</ele>
        <time>2018-09-06T07:15:59.000Z</time>
      </trkpt>
      <trkpt lat="43.38876016438007354736328125" lon="-4.24370937980711460113525390625">
        <ele>60.200000762939453125</ele>
        <time>2018-09-06T07:16:01.000Z</time>
      </trkpt>
      <trkpt lat="43.38871045969426631927490234375" lon="-4.2437201924622058868408203125">
        <ele>60.200000762939453125</ele>
        <time>2018-09-06T07:16:02.000Z</time>
      </trkpt>
      <trkpt lat="43.3886039257049560546875" lon="-4.2437845654785633087158203125">
        <ele>59.59999847412109375</ele>
        <time>2018-09-06T07:16:04.000Z</time>
      </trkpt>
      <trkpt lat="43.38855053298175334930419921875" lon="-4.2438368685543537139892578125">
        <ele>59</ele>
        <time>2018-09-06T07:16:05.000Z</time>
      </trkpt>
      <trkpt lat="43.3885014988481998443603515625" lon="-4.2439049296081066131591796875">
        <ele>58.40000152587890625</ele>
        <time>2018-09-06T07:16:06.000Z</time>
      </trkpt>
      <trkpt lat="43.38845799677073955535888671875" lon="-4.24398497678339481353759765625">
        <ele>57.59999847412109375</ele>
        <time>2018-09-06T07:16:07.000Z</time>
      </trkpt>
      <trkpt lat="43.3884160034358501434326171875" lon="-4.2440708912909030914306640625">
        <ele>56.59999847412109375</ele>
        <time>2018-09-06T07:16:08.000Z</time>
      </trkpt>
      <trkpt lat="43.38837199844419956207275390625" lon="-4.2441610805690288543701171875">
        <ele>55.799999237060546875</ele>
        <time>2018-09-06T07:16:09.000Z</time>
      </trkpt>
      <trkpt lat="43.38831718079745769500732421875" lon="-4.24424699507653713226318359375">
        <ele>55</ele>
        <time>2018-09-06T07:16:10.000Z</time>
      </trkpt>
      <trkpt lat="43.388256914913654327392578125" lon="-4.24432955682277679443359375">
        <ele>54.59999847412109375</ele>
        <time>2018-09-06T07:16:11.000Z</time>
      </trkpt>
      <trkpt lat="43.38817452080547809600830078125" lon="-4.2443887330591678619384765625">
        <ele>54</ele>
        <time>2018-09-06T07:16:12.000Z</time>
      </trkpt>
      <trkpt lat="43.3880800567567348480224609375" lon="-4.2444316484034061431884765625">
        <ele>53.40000152587890625</ele>
        <time>2018-09-06T07:16:13.000Z</time>
      </trkpt>
      <trkpt lat="43.3879777975380420684814453125" lon="-4.24444514326751232147216796875">
        <ele>52.200000762939453125</ele>
        <time>2018-09-06T07:16:14.000Z</time>
      </trkpt>
      <trkpt lat="43.38786967098712921142578125" lon="-4.24441815353929996490478515625">
        <ele>50.799999237060546875</ele>
        <time>2018-09-06T07:16:15.000Z</time>
      </trkpt>
      <trkpt lat="43.38777286000549793243408203125" lon="-4.24434028565883636474609375">
        <ele>49.40000152587890625</ele>
        <time>2018-09-06T07:16:16.000Z</time>
      </trkpt>
      <trkpt lat="43.38768325746059417724609375" lon="-4.24425319768488407135009765625">
        <ele>48</ele>
        <time>2018-09-06T07:16:17.000Z</time>
      </trkpt>
      <trkpt lat="43.38751603849232196807861328125" lon="-4.24404063262045383453369140625">
        <ele>46.40000152587890625</ele>
        <time>2018-09-06T07:16:19.000Z</time>
      </trkpt>
      <trkpt lat="43.38742668740451335906982421875" lon="-4.2439418099820613861083984375">
        <ele>45.59999847412109375</ele>
        <time>2018-09-06T07:16:20.000Z</time>
      </trkpt>
      <trkpt lat="43.3873300440609455108642578125" lon="-4.24385623075067996978759765625">
        <ele>44.40000152587890625</ele>
        <time>2018-09-06T07:16:21.000Z</time>
      </trkpt>
      <trkpt lat="43.38722753338515758514404296875" lon="-4.24379311501979827880859375">
        <ele>42.799999237060546875</ele>
        <time>2018-09-06T07:16:22.000Z</time>
      </trkpt>
      <trkpt lat="43.3869087696075439453125" lon="-4.24371088854968547821044921875">
        <ele>42</ele>
        <time>2018-09-06T07:16:25.000Z</time>
      </trkpt>
      <trkpt lat="43.3863228745758533477783203125" lon="-4.2436393909156322479248046875">
        <ele>42</ele>
        <time>2018-09-06T07:16:31.000Z</time>
      </trkpt>
      <trkpt lat="43.3862363733351230621337890625" lon="-4.2436340264976024627685546875">
        <ele>41.59999847412109375</ele>
        <time>2018-09-06T07:16:32.000Z</time>
      </trkpt>
      <trkpt lat="43.38615079410374164581298828125" lon="-4.243640899658203125">
        <ele>41.200000762939453125</ele>
        <time>2018-09-06T07:16:33.000Z</time>
      </trkpt>
      <trkpt lat="43.38599204085767269134521484375" lon="-4.243701584637165069580078125">
        <ele>40.799999237060546875</ele>
        <time>2018-09-06T07:16:35.000Z</time>
      </trkpt>
      <trkpt lat="43.38592397980391979217529296875" lon="-4.2437540553510189056396484375">
        <ele>40.799999237060546875</ele>
        <time>2018-09-06T07:16:36.000Z</time>
      </trkpt>
      <trkpt lat="43.3858184516429901123046875" lon="-4.2438878305256366729736328125">
        <ele>41</ele>
        <time>2018-09-06T07:16:38.000Z</time>
      </trkpt>
      <trkpt lat="43.3857803978025913238525390625" lon="-4.24395949579775333404541015625">
        <ele>41.200000762939453125</ele>
        <time>2018-09-06T07:16:39.000Z</time>
      </trkpt>
      <trkpt lat="43.3857522346079349517822265625" lon="-4.244028814136981964111328125">
        <ele>41.59999847412109375</ele>
        <time>2018-09-06T07:16:40.000Z</time>
      </trkpt>
      <trkpt lat="43.38571761734783649444580078125" lon="-4.2441617511212825775146484375">
        <ele>43.59999847412109375</ele>
        <time>2018-09-06T07:16:42.000Z</time>
      </trkpt>
      <trkpt lat="43.38570051826536655426025390625" lon="-4.24422034062445163726806640625">
        <ele>44.40000152587890625</ele>
        <time>2018-09-06T07:16:43.000Z</time>
      </trkpt>
      <trkpt lat="43.38568191044032573699951171875" lon="-4.24427591264247894287109375">
        <ele>45</ele>
        <time>2018-09-06T07:16:44.000Z</time>
      </trkpt>
      <trkpt lat="43.38566279970109462738037109375" lon="-4.2443300597369670867919921875">
        <ele>45.40000152587890625</ele>
        <time>2018-09-06T07:16:45.000Z</time>
      </trkpt>
      <trkpt lat="43.385614268481731414794921875" lon="-4.244427122175693511962890625">
        <ele>45.799999237060546875</ele>
        <time>2018-09-06T07:16:47.000Z</time>
      </trkpt>
      <trkpt lat="43.38556339032948017120361328125" lon="-4.2445127852261066436767578125">
        <ele>46</ele>
        <time>2018-09-06T07:16:49.000Z</time>
      </trkpt>
      <trkpt lat="43.38554008863866329193115234375" lon="-4.24455377273261547088623046875">
        <ele>46.200000762939453125</ele>
        <time>2018-09-06T07:16:50.000Z</time>
      </trkpt>
      <trkpt lat="43.38544956408441066741943359375" lon="-4.24471721984446048736572265625">
        <ele>46.40000152587890625</ele>
        <time>2018-09-06T07:16:54.000Z</time>
      </trkpt>
      <trkpt lat="43.38533272035419940948486328125" lon="-4.2449201457202434539794921875">
        <ele>45.59999847412109375</ele>
        <time>2018-09-06T07:16:59.000Z</time>
      </trkpt>
      <trkpt lat="43.38524437509477138519287109375" lon="-4.24503053538501262664794921875">
        <ele>45.40000152587890625</ele>
        <time>2018-09-06T07:17:02.000Z</time>
      </trkpt>
      <trkpt lat="43.385141193866729736328125" lon="-4.24514268524944782257080078125">
        <ele>45.40000152587890625</ele>
        <time>2018-09-06T07:17:05.000Z</time>
      </trkpt>
      <trkpt lat="43.38497850112617015838623046875" lon="-4.24526874907314777374267578125">
        <ele>45.40000152587890625</ele>
        <time>2018-09-06T07:17:09.000Z</time>
      </trkpt>
      <trkpt lat="43.384660743176937103271484375" lon="-4.245522134006023406982421875">
        <ele>46.200000762939453125</ele>
        <time>2018-09-06T07:17:17.000Z</time>
      </trkpt>
      <trkpt lat="43.38450911454856395721435546875" lon="-4.245677031576633453369140625">
        <ele>46.200000762939453125</ele>
        <time>2018-09-06T07:17:21.000Z</time>
      </trkpt>
      <trkpt lat="43.38435539044439792633056640625" lon="-4.2458341084420680999755859375">
        <ele>46</ele>
        <time>2018-09-06T07:17:25.000Z</time>
      </trkpt>
      <trkpt lat="43.384057246148586273193359375" lon="-4.246138036251068115234375">
        <ele>46.799999237060546875</ele>
        <time>2018-09-06T07:17:33.000Z</time>
      </trkpt>
      <trkpt lat="43.38397912681102752685546875" lon="-4.2462143115699291229248046875">
        <ele>47.200000762939453125</ele>
        <time>2018-09-06T07:17:35.000Z</time>
      </trkpt>
      <trkpt lat="43.383941911160945892333984375" lon="-4.24625328741967678070068359375">
        <ele>47.200000762939453125</ele>
        <time>2018-09-06T07:17:36.000Z</time>
      </trkpt>
      <trkpt lat="43.38368919678032398223876953125" lon="-4.2465207539498805999755859375">
        <ele>47.799999237060546875</ele>
        <time>2018-09-06T07:17:43.000Z</time>
      </trkpt>
      <trkpt lat="43.38347084820270538330078125" lon="-4.2467326484620571136474609375">
        <ele>48.40000152587890625</ele>
        <time>2018-09-06T07:17:49.000Z</time>
      </trkpt>
      <trkpt lat="43.38340270332992076873779296875" lon="-4.24680230207741260528564453125">
        <ele>48.40000152587890625</ele>
        <time>2018-09-06T07:17:51.000Z</time>
      </trkpt>
      <trkpt lat="43.38323992677032947540283203125" lon="-4.24697689712047576904296875">
        <ele>49</ele>
        <time>2018-09-06T07:17:56.000Z</time>
      </trkpt>
      <trkpt lat="43.38317153044044971466064453125" lon="-4.24704336561262607574462890625">
        <ele>49</ele>
        <time>2018-09-06T07:17:58.000Z</time>
      </trkpt>
      <trkpt lat="43.3830428682267665863037109375" lon="-4.2471996881067752838134765625">
        <ele>49.40000152587890625</ele>
        <time>2018-09-06T07:18:02.000Z</time>
      </trkpt>
      <trkpt lat="43.38289149105548858642578125" lon="-4.24741317518055438995361328125">
        <ele>49.799999237060546875</ele>
        <time>2018-09-06T07:18:07.000Z</time>
      </trkpt>
      <trkpt lat="43.382741622626781463623046875" lon="-4.247699081897735595703125">
        <ele>50</ele>
        <time>2018-09-06T07:18:13.000Z</time>
      </trkpt>
      <trkpt lat="43.3826804347336292266845703125" lon="-4.247903265058994293212890625">
        <ele>50.40000152587890625</ele>
        <time>2018-09-06T07:18:17.000Z</time>
      </trkpt>
      <trkpt lat="43.38264782913029193878173828125" lon="-4.248061515390872955322265625">
        <ele>50.59999847412109375</ele>
        <time>2018-09-06T07:18:20.000Z</time>
      </trkpt>
      <trkpt lat="43.38262519799172878265380859375" lon="-4.24825354479253292083740234375">
        <ele>51.59999847412109375</ele>
        <time>2018-09-06T07:18:24.000Z</time>
      </trkpt>
      <trkpt lat="43.38262117467820644378662109375" lon="-4.248303584754467010498046875">
        <ele>51.59999847412109375</ele>
        <time>2018-09-06T07:18:25.000Z</time>
      </trkpt>
      <trkpt lat="43.38260189630091190338134765625" lon="-4.24853048287332057952880859375">
        <ele>52.59999847412109375</ele>
        <time>2018-09-06T07:18:30.000Z</time>
      </trkpt>
      <trkpt lat="43.3825892396271228790283203125" lon="-4.24862251617014408111572265625">
        <ele>53</ele>
        <time>2018-09-06T07:18:32.000Z</time>
      </trkpt>
      <trkpt lat="43.38256468065083026885986328125" lon="-4.24881555140018463134765625">
        <ele>53.59999847412109375</ele>
        <time>2018-09-06T07:18:36.000Z</time>
      </trkpt>
      <trkpt lat="43.3825657702982425689697265625" lon="-4.24894890747964382171630859375">
        <ele>54.200000762939453125</ele>
        <time>2018-09-06T07:18:39.000Z</time>
      </trkpt>
      <trkpt lat="43.38260826654732227325439453125" lon="-4.24916566349565982818603515625">
        <ele>54.799999237060546875</ele>
        <time>2018-09-06T07:18:44.000Z</time>
      </trkpt>
      <trkpt lat="43.38262720964848995208740234375" lon="-4.2492079921066761016845703125">
        <ele>55</ele>
        <time>2018-09-06T07:18:45.000Z</time>
      </trkpt>
      <trkpt lat="43.3827156387269496917724609375" lon="-4.2493752948939800262451171875">
        <ele>55.799999237060546875</ele>
        <time>2018-09-06T07:18:49.000Z</time>
      </trkpt>
      <trkpt lat="43.3828903175890445709228515625" lon="-4.249549806118011474609375">
        <ele>56.799999237060546875</ele>
        <time>2018-09-06T07:18:55.000Z</time>
      </trkpt>
      <trkpt lat="43.38291822932660579681396484375" lon="-4.24957235343754291534423828125">
        <ele>57</ele>
        <time>2018-09-06T07:18:56.000Z</time>
      </trkpt>
      <trkpt lat="43.383052758872509002685546875" lon="-4.24964041449129581451416015625">
        <ele>57.799999237060546875</ele>
        <time>2018-09-06T07:19:00.000Z</time>
      </trkpt>
      <trkpt lat="43.3831685967743396759033203125" lon="-4.249786175787448883056640625">
        <ele>57.799999237060546875</ele>
        <time>2018-09-06T07:19:04.000Z</time>
      </trkpt>
      <trkpt lat="43.38321427814662456512451171875" lon="-4.24988365732133388519287109375">
        <ele>58</ele>
        <time>2018-09-06T07:19:06.000Z</time>
      </trkpt>
      <trkpt lat="43.38322676718235015869140625" lon="-4.24999999813735485076904296875">
        <ele>58</ele>
        <time>2018-09-06T07:19:08.000Z</time>
      </trkpt>
      <trkpt lat="43.38322752155363559722900390625" lon="-4.2500607669353485107421875">
        <ele>57.799999237060546875</ele>
        <time>2018-09-06T07:19:09.000Z</time>
      </trkpt>
      <trkpt lat="43.3832113444805145263671875" lon="-4.25020971335470676422119140625">
        <ele>57</ele>
        <time>2018-09-06T07:19:12.000Z</time>
      </trkpt>
      <trkpt lat="43.38318561203777790069580078125" lon="-4.2502674646675586700439453125">
        <ele>56.799999237060546875</ele>
        <time>2018-09-06T07:19:13.000Z</time>
      </trkpt>
      <trkpt lat="43.3830995298922061920166015625" lon="-4.25041104666888713836669921875">
        <ele>56</ele>
        <time>2018-09-06T07:19:15.000Z</time>
      </trkpt>
      <trkpt lat="43.38300959207117557525634765625" lon="-4.250571727752685546875">
        <ele>55.200000762939453125</ele>
        <time>2018-09-06T07:19:17.000Z</time>
      </trkpt>
      <trkpt lat="43.38295863009989261627197265625" lon="-4.2506642639636993408203125">
        <ele>54.40000152587890625</ele>
        <time>2018-09-06T07:19:18.000Z</time>
      </trkpt>
      <trkpt lat="43.38290766812860965728759765625" lon="-4.25075705163180828094482421875">
        <ele>53.40000152587890625</ele>
        <time>2018-09-06T07:19:19.000Z</time>
      </trkpt>
      <trkpt lat="43.382801301777362823486328125" lon="-4.25094430334866046905517578125">
        <ele>51.40000152587890625</ele>
        <time>2018-09-06T07:19:21.000Z</time>
      </trkpt>
      <trkpt lat="43.38275059126317501068115234375" lon="-4.251047484576702117919921875">
        <ele>50.200000762939453125</ele>
        <time>2018-09-06T07:19:22.000Z</time>
      </trkpt>
      <trkpt lat="43.38271421380341053009033203125" lon="-4.25115787424147129058837890625">
        <ele>48.799999237060546875</ele>
        <time>2018-09-06T07:19:23.000Z</time>
      </trkpt>
      <trkpt lat="43.38269510306417942047119140625" lon="-4.25127740018069744110107421875">
        <ele>47.59999847412109375</ele>
        <time>2018-09-06T07:19:24.000Z</time>
      </trkpt>
      <trkpt lat="43.38269242085516452789306640625" lon="-4.25139851868152618408203125">
        <ele>46.59999847412109375</ele>
        <time>2018-09-06T07:19:25.000Z</time>
      </trkpt>
      <trkpt lat="43.3826965279877185821533203125" lon="-4.2515133507549762725830078125">
        <ele>46</ele>
        <time>2018-09-06T07:19:26.000Z</time>
      </trkpt>
      <trkpt lat="43.3826958574354648590087890625" lon="-4.25161938183009624481201171875">
        <ele>45.40000152587890625</ele>
        <time>2018-09-06T07:19:27.000Z</time>
      </trkpt>
      <trkpt lat="43.3826856315135955810546875" lon="-4.251717031002044677734375">
        <ele>44.59999847412109375</ele>
        <time>2018-09-06T07:19:28.000Z</time>
      </trkpt>
      <trkpt lat="43.382667861878871917724609375" lon="-4.25180344842374324798583984375">
        <ele>43.59999847412109375</ele>
        <time>2018-09-06T07:19:29.000Z</time>
      </trkpt>
      <trkpt lat="43.3826415427029132843017578125" lon="-4.25187938846647739410400390625">
        <ele>42.799999237060546875</ele>
        <time>2018-09-06T07:19:30.000Z</time>
      </trkpt>
      <trkpt lat="43.38256685994565486907958984375" lon="-4.2519857548177242279052734375">
        <ele>41.200000762939453125</ele>
        <time>2018-09-06T07:19:32.000Z</time>
      </trkpt>
      <trkpt lat="43.3824896626174449920654296875" lon="-4.25203260965645313262939453125">
        <ele>39.40000152587890625</ele>
        <time>2018-09-06T07:19:34.000Z</time>
      </trkpt>
      <trkpt lat="43.3824075199663639068603515625" lon="-4.252030514180660247802734375">
        <ele>39</ele>
        <time>2018-09-06T07:19:36.000Z</time>
      </trkpt>
      <trkpt lat="43.3823039196431636810302734375" lon="-4.25201970152556896209716796875">
        <ele>38.59999847412109375</ele>
        <time>2018-09-06T07:19:38.000Z</time>
      </trkpt>
      <trkpt lat="43.3822499401867389678955078125" lon="-4.2520145885646343231201171875">
        <ele>38.40000152587890625</ele>
        <time>2018-09-06T07:19:39.000Z</time>
      </trkpt>
      <trkpt lat="43.38214089162647724151611328125" lon="-4.25200209952890872955322265625">
        <ele>38</ele>
        <time>2018-09-06T07:19:41.000Z</time>
      </trkpt>
      <trkpt lat="43.3820849843323230743408203125" lon="-4.25199354998767375946044921875">
        <ele>38</ele>
        <time>2018-09-06T07:19:42.000Z</time>
      </trkpt>
      <trkpt lat="43.3819163404405117034912109375" lon="-4.251964800059795379638671875">
        <ele>37.200000762939453125</ele>
        <time>2018-09-06T07:19:45.000Z</time>
      </trkpt>
      <trkpt lat="43.38152063079178333282470703125" lon="-4.25190277397632598876953125">
        <ele>36</ele>
        <time>2018-09-06T07:19:52.000Z</time>
      </trkpt>
      <trkpt lat="43.38140931911766529083251953125" lon="-4.25189967267215251922607421875">
        <ele>36.200000762939453125</ele>
        <time>2018-09-06T07:19:54.000Z</time>
      </trkpt>
      <trkpt lat="43.381353579461574554443359375" lon="-4.25190688110888004302978515625">
        <ele>36.200000762939453125</ele>
        <time>2018-09-06T07:19:55.000Z</time>
      </trkpt>
      <trkpt lat="43.38118267245590686798095703125" lon="-4.25195038318634033203125">
        <ele>35.799999237060546875</ele>
        <time>2018-09-06T07:19:58.000Z</time>
      </trkpt>
      <trkpt lat="43.38107773102819919586181640625" lon="-4.25199455581605434417724609375">
        <ele>35.59999847412109375</ele>
        <time>2018-09-06T07:20:00.000Z</time>
      </trkpt>
      <trkpt lat="43.38103565387427806854248046875" lon="-4.2520940490067005157470703125">
        <ele>35.200000762939453125</ele>
        <time>2018-09-06T07:20:02.000Z</time>
      </trkpt>
      <trkpt lat="43.3810345642268657684326171875" lon="-4.25215900875627994537353515625">
        <ele>35</ele>
        <time>2018-09-06T07:20:03.000Z</time>
      </trkpt>
      <trkpt lat="43.381049148738384246826171875" lon="-4.252291023731231689453125">
        <ele>34.799999237060546875</ele>
        <time>2018-09-06T07:20:05.000Z</time>
      </trkpt>
      <trkpt lat="43.3810570277273654937744140625" lon="-4.2523542232811450958251953125">
        <ele>34.59999847412109375</ele>
        <time>2018-09-06T07:20:06.000Z</time>
      </trkpt>
      <trkpt lat="43.38107722811400890350341796875" lon="-4.2525346018373966217041015625">
        <ele>34</ele>
        <time>2018-09-06T07:20:09.000Z</time>
      </trkpt>
      <trkpt lat="43.38109172880649566650390625" lon="-4.25269528292119503021240234375">
        <ele>34.40000152587890625</ele>
        <time>2018-09-06T07:20:12.000Z</time>
      </trkpt>
      <trkpt lat="43.3810962550342082977294921875" lon="-4.252755381166934967041015625">
        <ele>34.40000152587890625</ele>
        <time>2018-09-06T07:20:13.000Z</time>
      </trkpt>
      <trkpt lat="43.3811297826468944549560546875" lon="-4.2529439739882946014404296875">
        <ele>34.200000762939453125</ele>
        <time>2018-09-06T07:20:16.000Z</time>
      </trkpt>
      <trkpt lat="43.38117127306759357452392578125" lon="-4.25313533283770084381103515625">
        <ele>33.59999847412109375</ele>
        <time>2018-09-06T07:20:19.000Z</time>
      </trkpt>
      <trkpt lat="43.38118367828428745269775390625" lon="-4.2532686889171600341796875">
        <ele>33</ele>
        <time>2018-09-06T07:20:21.000Z</time>
      </trkpt>
      <trkpt lat="43.38119138963520526885986328125" lon="-4.253472201526165008544921875">
        <ele>33</ele>
        <time>2018-09-06T07:20:24.000Z</time>
      </trkpt>
      <trkpt lat="43.38119499385356903076171875" lon="-4.2535360716283321380615234375">
        <ele>33</ele>
        <time>2018-09-06T07:20:25.000Z</time>
      </trkpt>
      <trkpt lat="43.38121318258345127105712890625" lon="-4.25378945656120777130126953125">
        <ele>33</ele>
        <time>2018-09-06T07:20:29.000Z</time>
      </trkpt>
      <trkpt lat="43.3811978437006473541259765625" lon="-4.2538398317992687225341796875">
        <ele>32.799999237060546875</ele>
        <time>2018-09-06T07:20:30.000Z</time>
      </trkpt>
      <trkpt lat="43.3811056427657604217529296875" lon="-4.25398525781929492950439453125">
        <ele>32.40000152587890625</ele>
        <time>2018-09-06T07:20:33.000Z</time>
      </trkpt>
      <trkpt lat="43.38108980096876621246337890625" lon="-4.2540433444082736968994140625">
        <ele>32.59999847412109375</ele>
        <time>2018-09-06T07:20:34.000Z</time>
      </trkpt>
      <trkpt lat="43.38112525641918182373046875" lon="-4.2542233876883983612060546875">
        <ele>32.40000152587890625</ele>
        <time>2018-09-06T07:20:37.000Z</time>
      </trkpt>
      <trkpt lat="43.3811465464532375335693359375" lon="-4.2542820610105991363525390625">
        <ele>32.40000152587890625</ele>
        <time>2018-09-06T07:20:38.000Z</time>
      </trkpt>
      <trkpt lat="43.3812451176345348358154296875" lon="-4.25463066436350345611572265625">
        <ele>31.799999237060546875</ele>
        <time>2018-09-06T07:20:44.000Z</time>
      </trkpt>
      <trkpt lat="43.3812595345079898834228515625" lon="-4.25468900240957736968994140625">
        <ele>31.799999237060546875</ele>
        <time>2018-09-06T07:20:45.000Z</time>
      </trkpt>
      <trkpt lat="43.38132114149630069732666015625" lon="-4.25506467930972576141357421875">
        <ele>30.799999237060546875</ele>
        <time>2018-09-06T07:20:51.000Z</time>
      </trkpt>
      <trkpt lat="43.3813312835991382598876953125" lon="-4.2551279626786708831787109375">
        <ele>30.799999237060546875</ele>
        <time>2018-09-06T07:20:52.000Z</time>
      </trkpt>
      <trkpt lat="43.38134343735873699188232421875" lon="-4.2551909945905208587646484375">
        <ele>30.6000003814697265625</ele>
        <time>2018-09-06T07:20:53.000Z</time>
      </trkpt>
      <trkpt lat="43.38137646205723285675048828125" lon="-4.25537883304059505462646484375">
        <ele>30.799999237060546875</ele>
        <time>2018-09-06T07:20:56.000Z</time>
      </trkpt>
      <trkpt lat="43.38138031773269176483154296875" lon="-4.25550724379718303680419921875">
        <ele>31</ele>
        <time>2018-09-06T07:20:58.000Z</time>
      </trkpt>
      <trkpt lat="43.38134595192968845367431640625" lon="-4.25568561069667339324951171875">
        <ele>30.799999237060546875</ele>
        <time>2018-09-06T07:21:01.000Z</time>
      </trkpt>
      <trkpt lat="43.381328769028186798095703125" lon="-4.25573707558214664459228515625">
        <ele>30.6000003814697265625</ele>
        <time>2018-09-06T07:21:02.000Z</time>
      </trkpt>
      <trkpt lat="43.38130907155573368072509765625" lon="-4.25578527152538299560546875">
        <ele>30.799999237060546875</ele>
        <time>2018-09-06T07:21:03.000Z</time>
      </trkpt>
      <trkpt lat="43.3812640607357025146484375" lon="-4.25587051548063755035400390625">
        <ele>31</ele>
        <time>2018-09-06T07:21:05.000Z</time>
      </trkpt>
      <trkpt lat="43.38121117092669010162353515625" lon="-4.25594813190400600433349609375">
        <ele>31</ele>
        <time>2018-09-06T07:21:07.000Z</time>
      </trkpt>
      <trkpt lat="43.38118166662752628326416015625" lon="-4.2559830844402313232421875">
        <ele>31.200000762939453125</ele>
        <time>2018-09-06T07:21:08.000Z</time>
      </trkpt>
      <trkpt lat="43.381064236164093017578125" lon="-4.25611007027328014373779296875">
        <ele>32</ele>
        <time>2018-09-06T07:21:12.000Z</time>
      </trkpt>
      <trkpt lat="43.3809651620686054229736328125" lon="-4.256220795214176177978515625">
        <ele>32.799999237060546875</ele>
        <time>2018-09-06T07:21:16.000Z</time>
      </trkpt>
      <trkpt lat="43.38094328530132770538330078125" lon="-4.25624736584722995758056640625">
        <ele>33</ele>
        <time>2018-09-06T07:21:17.000Z</time>
      </trkpt>
      <trkpt lat="43.3808820135891437530517578125" lon="-4.25632934086024761199951171875">
        <ele>33</ele>
        <time>2018-09-06T07:21:21.000Z</time>
      </trkpt>
      <trkpt lat="43.38084002025425434112548828125" lon="-4.25637896172702312469482421875">
        <ele>33.59999847412109375</ele>
        <time>2018-09-06T07:21:26.000Z</time>
      </trkpt>
      <trkpt lat="43.380737006664276123046875" lon="-4.2564658820629119873046875">
        <ele>33.799999237060546875</ele>
        <time>2018-09-06T07:22:35.000Z</time>
      </trkpt>
      <trkpt lat="43.3807190693914890289306640625" lon="-4.25648172385990619659423828125">
        <ele>33.799999237060546875</ele>
        <time>2018-09-06T07:22:36.000Z</time>
      </trkpt>
      <trkpt lat="43.38068143464624881744384765625" lon="-4.25651751458644866943359375">
        <ele>33.59999847412109375</ele>
        <time>2018-09-06T07:22:38.000Z</time>
      </trkpt>
      <trkpt lat="43.38059660978615283966064453125" lon="-4.2565914429724216461181640625">
        <ele>34</ele>
        <time>2018-09-06T07:22:42.000Z</time>
      </trkpt>
      <trkpt lat="43.38057347573339939117431640625" lon="-4.2566115595400333404541015625">
        <ele>34</ele>
        <time>2018-09-06T07:22:43.000Z</time>
      </trkpt>
      <trkpt lat="43.380505330860614776611328125" lon="-4.25666662864387035369873046875">
        <ele>34.200000762939453125</ele>
        <time>2018-09-06T07:22:46.000Z</time>
      </trkpt>
      <trkpt lat="43.38048278354108333587646484375" lon="-4.25668423064053058624267578125">
        <ele>34.200000762939453125</ele>
        <time>2018-09-06T07:22:47.000Z</time>
      </trkpt>
      <trkpt lat="43.380438275635242462158203125" lon="-4.25671842880547046661376953125">
        <ele>34.200000762939453125</ele>
        <time>2018-09-06T07:22:49.000Z</time>
      </trkpt>
      <trkpt lat="43.38035671971738338470458984375" lon="-4.2567984759807586669921875">
        <ele>34.59999847412109375</ele>
        <time>2018-09-06T07:22:53.000Z</time>
      </trkpt>
      <trkpt lat="43.3803311549127101898193359375" lon="-4.2568214423954486846923828125">
        <ele>34.59999847412109375</ele>
        <time>2018-09-06T07:22:54.000Z</time>
      </trkpt>
      <trkpt lat="43.380255885422229766845703125" lon="-4.25688606686890125274658203125">
        <ele>34.799999237060546875</ele>
        <time>2018-09-06T07:22:57.000Z</time>
      </trkpt>
      <trkpt lat="43.380212299525737762451171875" lon="-4.25693267025053501129150390625">
        <ele>35</ele>
        <time>2018-09-06T07:22:59.000Z</time>
      </trkpt>
      <trkpt lat="43.38017298839986324310302734375" lon="-4.25697290338575839996337890625">
        <ele>35.40000152587890625</ele>
        <time>2018-09-06T07:23:01.000Z</time>
      </trkpt>
      <trkpt lat="43.38011146523058414459228515625" lon="-4.25701833330094814300537109375">
        <ele>35.59999847412109375</ele>
        <time>2018-09-06T07:23:04.000Z</time>
      </trkpt>
      <trkpt lat="43.3800568990409374237060546875" lon="-4.25706870853900909423828125">
        <ele>36.200000762939453125</ele>
        <time>2018-09-06T07:23:07.000Z</time>
      </trkpt>
      <trkpt lat="43.38003334589302539825439453125" lon="-4.25711321644484996795654296875">
        <ele>36.40000152587890625</ele>
        <time>2018-09-06T07:23:09.000Z</time>
      </trkpt>
      <trkpt lat="43.3799861557781696319580078125" lon="-4.25719209015369415283203125">
        <ele>37.200000762939453125</ele>
        <time>2018-09-06T07:23:13.000Z</time>
      </trkpt>
      <trkpt lat="43.37995388545095920562744140625" lon="-4.25724715925753116607666015625">
        <ele>37.799999237060546875</ele>
        <time>2018-09-06T07:23:16.000Z</time>
      </trkpt>
      <trkpt lat="43.3799268119037151336669921875" lon="-4.2573858797550201416015625">
        <ele>38.40000152587890625</ele>
        <time>2018-09-06T07:23:22.000Z</time>
      </trkpt>
      <trkpt lat="43.3799237944185733795166015625" lon="-4.25741094164550304412841796875">
        <ele>38.59999847412109375</ele>
        <time>2018-09-06T07:23:23.000Z</time>
      </trkpt>
      <trkpt lat="43.3799110539257526397705078125" lon="-4.2575084231793880462646484375">
        <ele>39.40000152587890625</ele>
        <time>2018-09-06T07:23:27.000Z</time>
      </trkpt>
      <trkpt lat="43.379893787205219268798828125" lon="-4.257632978260517120361328125">
        <ele>40</ele>
        <time>2018-09-06T07:23:32.000Z</time>
      </trkpt>
      <trkpt lat="43.37988884188234806060791015625" lon="-4.2576844431459903717041015625">
        <ele>40.40000152587890625</ele>
        <time>2018-09-06T07:23:34.000Z</time>
      </trkpt>
      <trkpt lat="43.37986537255346775054931640625" lon="-4.257862307131290435791015625">
        <ele>41.40000152587890625</ele>
        <time>2018-09-06T07:23:41.000Z</time>
      </trkpt>
      <trkpt lat="43.37986369617283344268798828125" lon="-4.25788787193596363067626953125">
        <ele>41.59999847412109375</ele>
        <time>2018-09-06T07:23:42.000Z</time>
      </trkpt>
      <trkpt lat="43.37983972392976284027099609375" lon="-4.258056767284870147705078125">
        <ele>42.59999847412109375</ele>
        <time>2018-09-06T07:23:49.000Z</time>
      </trkpt>
      <trkpt lat="43.37983486242592334747314453125" lon="-4.25808216445147991180419921875">
        <ele>42.799999237060546875</ele>
        <time>2018-09-06T07:23:50.000Z</time>
      </trkpt>
      <trkpt lat="43.37980418466031551361083984375" lon="-4.25825282000005245208740234375">
        <ele>43.59999847412109375</ele>
        <time>2018-09-06T07:23:57.000Z</time>
      </trkpt>
      <trkpt lat="43.37980066426098346710205078125" lon="-4.25827662460505962371826171875">
        <ele>44</ele>
        <time>2018-09-06T07:23:58.000Z</time>
      </trkpt>
      <trkpt lat="43.3797819726169109344482421875" lon="-4.2583972401916980743408203125">
        <ele>44.59999847412109375</ele>
        <time>2018-09-06T07:24:03.000Z</time>
      </trkpt>
      <trkpt lat="43.3797712437808513641357421875" lon="-4.258495308458805084228515625">
        <ele>45</ele>
        <time>2018-09-06T07:24:07.000Z</time>
      </trkpt>
      <trkpt lat="43.3797658793628215789794921875" lon="-4.25859161652624607086181640625">
        <ele>45.59999847412109375</ele>
        <time>2018-09-06T07:24:11.000Z</time>
      </trkpt>
      <trkpt lat="43.37974467314779758453369140625" lon="-4.2587670497596263885498046875">
        <ele>46.59999847412109375</ele>
        <time>2018-09-06T07:24:18.000Z</time>
      </trkpt>
      <trkpt lat="43.37974660098552703857421875" lon="-4.25879311747848987579345703125">
        <ele>46.799999237060546875</ele>
        <time>2018-09-06T07:24:19.000Z</time>
      </trkpt>
      <trkpt lat="43.37974417023360729217529296875" lon="-4.25894533284008502960205078125">
        <ele>47.799999237060546875</ele>
        <time>2018-09-06T07:24:25.000Z</time>
      </trkpt>
      <trkpt lat="43.37974366731941699981689453125" lon="-4.25897039473056793212890625">
        <ele>48</ele>
        <time>2018-09-06T07:24:26.000Z</time>
      </trkpt>
      <trkpt lat="43.37974769063293933868408203125" lon="-4.25912235863506793975830078125">
        <ele>49</ele>
        <time>2018-09-06T07:24:32.000Z</time>
      </trkpt>
      <trkpt lat="43.3797377161681652069091796875" lon="-4.25917214713990688323974609375">
        <ele>49.200000762939453125</ele>
        <time>2018-09-06T07:24:34.000Z</time>
      </trkpt>
      <trkpt lat="43.3796917833387851715087890625" lon="-4.25931028090417385101318359375">
        <ele>50</ele>
        <time>2018-09-06T07:24:40.000Z</time>
      </trkpt>
      <trkpt lat="43.37966504506766796112060546875" lon="-4.25937482155859470367431640625">
        <ele>50.59999847412109375</ele>
        <time>2018-09-06T07:24:43.000Z</time>
      </trkpt>
      <trkpt lat="43.37964392267167568206787109375" lon="-4.25941522233188152313232421875">
        <ele>51</ele>
        <time>2018-09-06T07:24:45.000Z</time>
      </trkpt>
      <trkpt lat="43.37959597818553447723388671875" lon="-4.259485043585300445556640625">
        <ele>52</ele>
        <time>2018-09-06T07:24:49.000Z</time>
      </trkpt>
      <trkpt lat="43.37958005256950855255126953125" lon="-4.2595204152166843414306640625">
        <ele>52.40000152587890625</ele>
        <time>2018-09-06T07:24:51.000Z</time>
      </trkpt>
      <trkpt lat="43.37955457158386707305908203125" lon="-4.25957229919731616973876953125">
        <ele>53</ele>
        <time>2018-09-06T07:24:54.000Z</time>
      </trkpt>
      <trkpt lat="43.3795058727264404296875" lon="-4.2596763186156749725341796875">
        <ele>54.200000762939453125</ele>
        <time>2018-09-06T07:24:59.000Z</time>
      </trkpt>
      <trkpt lat="43.3794611133635044097900390625" lon="-4.2597980238497257232666015625">
        <ele>55.200000762939453125</ele>
        <time>2018-09-06T07:25:04.000Z</time>
      </trkpt>
      <trkpt lat="43.37944309227168560028076171875" lon="-4.259843789041042327880859375">
        <ele>55.799999237060546875</ele>
        <time>2018-09-06T07:25:06.000Z</time>
      </trkpt>
      <trkpt lat="43.3794027753174304962158203125" lon="-4.25989885814487934112548828125">
        <ele>56.40000152587890625</ele>
        <time>2018-09-06T07:25:09.000Z</time>
      </trkpt>
      <trkpt lat="43.37933085858821868896484375" lon="-4.2599877901375293731689453125">
        <ele>57.200000762939453125</ele>
        <time>2018-09-06T07:25:14.000Z</time>
      </trkpt>
      <trkpt lat="43.37931334041059017181396484375" lon="-4.26000363193452358245849609375">
        <ele>57.40000152587890625</ele>
        <time>2018-09-06T07:25:15.000Z</time>
      </trkpt>
      <trkpt lat="43.37918057106435298919677734375" lon="-4.2600447870790958404541015625">
        <ele>58</ele>
        <time>2018-09-06T07:25:21.000Z</time>
      </trkpt>
      <trkpt lat="43.37913262657821178436279296875" lon="-4.26004839129745960235595703125">
        <ele>58.40000152587890625</ele>
        <time>2018-09-06T07:25:23.000Z</time>
      </trkpt>
      <trkpt lat="43.378971777856349945068359375" lon="-4.26003162749111652374267578125">
        <ele>59.40000152587890625</ele>
        <time>2018-09-06T07:25:30.000Z</time>
      </trkpt>
      <trkpt lat="43.37894805707037448883056640625" lon="-4.260026514530181884765625">
        <ele>59.40000152587890625</ele>
        <time>2018-09-06T07:25:31.000Z</time>
      </trkpt>
      <trkpt lat="43.37877153418958187103271484375" lon="-4.2600233294069766998291015625">
        <ele>60.40000152587890625</ele>
        <time>2018-09-06T07:25:38.000Z</time>
      </trkpt>
      <trkpt lat="43.3787245117127895355224609375" lon="-4.26004352979362010955810546875">
        <ele>60.59999847412109375</ele>
        <time>2018-09-06T07:25:40.000Z</time>
      </trkpt>
      <trkpt lat="43.378612361848354339599609375" lon="-4.26011142320930957794189453125">
        <ele>61.200000762939453125</ele>
        <time>2018-09-06T07:25:45.000Z</time>
      </trkpt>
      <trkpt lat="43.37854706682264804840087890625" lon="-4.2601574398577213287353515625">
        <ele>61.59999847412109375</ele>
        <time>2018-09-06T07:25:48.000Z</time>
      </trkpt>
      <trkpt lat="43.378419578075408935546875" lon="-4.26025860942900180816650390625">
        <ele>62.59999847412109375</ele>
        <time>2018-09-06T07:25:54.000Z</time>
      </trkpt>
      <trkpt lat="43.3784002996981143951416015625" lon="-4.26028124056756496429443359375">
        <ele>62.799999237060546875</ele>
        <time>2018-09-06T07:25:55.000Z</time>
      </trkpt>
      <trkpt lat="43.37831203825771808624267578125" lon="-4.26039791665971279144287109375">
        <ele>64</ele>
        <time>2018-09-06T07:26:00.000Z</time>
      </trkpt>
      <trkpt lat="43.37827784009277820587158203125" lon="-4.26043890416622161865234375">
        <ele>64.40000152587890625</ele>
        <time>2018-09-06T07:26:02.000Z</time>
      </trkpt>
      <trkpt lat="43.37822587229311466217041015625" lon="-4.26050604321062564849853515625">
        <ele>65</ele>
        <time>2018-09-06T07:26:05.000Z</time>
      </trkpt>
      <trkpt lat="43.37815781123936176300048828125" lon="-4.26059589721262454986572265625">
        <ele>66</ele>
        <time>2018-09-06T07:26:09.000Z</time>
      </trkpt>
      <trkpt lat="43.3781414665281772613525390625" lon="-4.2606187798082828521728515625">
        <ele>66.1999969482421875</ele>
        <time>2018-09-06T07:26:10.000Z</time>
      </trkpt>
      <trkpt lat="43.37808522395789623260498046875" lon="-4.26074593327939510345458984375">
        <ele>67.1999969482421875</ele>
        <time>2018-09-06T07:26:15.000Z</time>
      </trkpt>
      <trkpt lat="43.378076255321502685546875" lon="-4.2607761919498443603515625">
        <ele>67.40000152587890625</ele>
        <time>2018-09-06T07:26:16.000Z</time>
      </trkpt>
      <trkpt lat="43.378038369119167327880859375" lon="-4.26086059771478176116943359375">
        <ele>68.1999969482421875</ele>
        <time>2018-09-06T07:26:19.000Z</time>
      </trkpt>
      <trkpt lat="43.378017581999301910400390625" lon="-4.2609290778636932373046875">
        <ele>69</ele>
        <time>2018-09-06T07:26:22.000Z</time>
      </trkpt>
      <trkpt lat="43.37801917456090450286865234375" lon="-4.26095548085868358612060546875">
        <ele>69.59999847412109375</ele>
        <time>2018-09-06T07:26:23.000Z</time>
      </trkpt>
      <trkpt lat="43.3780467510223388671875" lon="-4.26104902289807796478271484375">
        <ele>70</ele>
        <time>2018-09-06T07:26:27.000Z</time>
      </trkpt>
      <trkpt lat="43.37808497250080108642578125" lon="-4.26110283471643924713134765625">
        <ele>70.59999847412109375</ele>
        <time>2018-09-06T07:26:30.000Z</time>
      </trkpt>
      <trkpt lat="43.37809410877525806427001953125" lon="-4.26112211309373378753662109375">
        <ele>70.8000030517578125</ele>
        <time>2018-09-06T07:26:31.000Z</time>
      </trkpt>
      <trkpt lat="43.3781196735799312591552734375" lon="-4.261156059801578521728515625">
        <ele>71.1999969482421875</ele>
        <time>2018-09-06T07:26:33.000Z</time>
      </trkpt>
      <trkpt lat="43.378159068524837493896484375" lon="-4.26117190159857273101806640625">
        <ele>71.59999847412109375</ele>
        <time>2018-09-06T07:26:35.000Z</time>
      </trkpt>
      <trkpt lat="43.378178514540195465087890625" lon="-4.2611785233020782470703125">
        <ele>71.8000030517578125</ele>
        <time>2018-09-06T07:26:36.000Z</time>
      </trkpt>
      <trkpt lat="43.37826644070446491241455078125" lon="-4.26120945252478122711181640625">
        <ele>72.8000030517578125</ele>
        <time>2018-09-06T07:26:40.000Z</time>
      </trkpt>
      <trkpt lat="43.3783471584320068359375" lon="-4.26124415360391139984130859375">
        <ele>74</ele>
        <time>2018-09-06T07:26:43.000Z</time>
      </trkpt>
      <trkpt lat="43.3784274570643901824951171875" lon="-4.26125907339155673980712890625">
        <ele>74.8000030517578125</ele>
        <time>2018-09-06T07:26:46.000Z</time>
      </trkpt>
      <trkpt lat="43.378451764583587646484375" lon="-4.2612616717815399169921875">
        <ele>75.40000152587890625</ele>
        <time>2018-09-06T07:26:47.000Z</time>
      </trkpt>
      <trkpt lat="43.3786007948219776153564453125" lon="-4.26131120882928371429443359375">
        <ele>75.8000030517578125</ele>
        <time>2018-09-06T07:26:54.000Z</time>
      </trkpt>
      <trkpt lat="43.37871185503900051116943359375" lon="-4.26134289242327213287353515625">
        <ele>76</ele>
        <time>2018-09-06T07:26:58.000Z</time>
      </trkpt>
      <trkpt lat="43.37877564132213592529296875" lon="-4.2613563872873783111572265625">
        <ele>75.8000030517578125</ele>
        <time>2018-09-06T07:27:00.000Z</time>
      </trkpt>
      <trkpt lat="43.378810174763202667236328125" lon="-4.26135580055415630340576171875">
        <ele>75.59999847412109375</ele>
        <time>2018-09-06T07:27:01.000Z</time>
      </trkpt>
      <trkpt lat="43.3788817562162876129150390625" lon="-4.26135010085999965667724609375">
        <ele>75.40000152587890625</ele>
        <time>2018-09-06T07:27:03.000Z</time>
      </trkpt>
      <trkpt lat="43.379015028476715087890625" lon="-4.26134842447936534881591796875">
        <ele>75.1999969482421875</ele>
        <time>2018-09-06T07:27:07.000Z</time>
      </trkpt>
      <trkpt lat="43.3790477178990840911865234375" lon="-4.26135093905031681060791015625">
        <ele>75.1999969482421875</ele>
        <time>2018-09-06T07:27:08.000Z</time>
      </trkpt>
      <trkpt lat="43.37911854498088359832763671875" lon="-4.26136535592377185821533203125">
        <ele>75.1999969482421875</ele>
        <time>2018-09-06T07:27:10.000Z</time>
      </trkpt>
      <trkpt lat="43.3792592771351337432861328125" lon="-4.26140693016350269317626953125">
        <ele>75.59999847412109375</ele>
        <time>2018-09-06T07:27:14.000Z</time>
      </trkpt>
      <trkpt lat="43.37932817637920379638671875" lon="-4.261435009539127349853515625">
        <ele>75.8000030517578125</ele>
        <time>2018-09-06T07:27:16.000Z</time>
      </trkpt>
      <trkpt lat="43.37939296849071979522705078125" lon="-4.26145822741091251373291015625">
        <ele>75.8000030517578125</ele>
        <time>2018-09-06T07:27:18.000Z</time>
      </trkpt>
      <trkpt lat="43.37955893017351627349853515625" lon="-4.261527545750141143798828125">
        <ele>75.8000030517578125</ele>
        <time>2018-09-06T07:27:23.000Z</time>
      </trkpt>
      <trkpt lat="43.37967024184763431549072265625" lon="-4.2615810222923755645751953125">
        <ele>75.59999847412109375</ele>
        <time>2018-09-06T07:27:26.000Z</time>
      </trkpt>
      <trkpt lat="43.37974953465163707733154296875" lon="-4.2616447247564792633056640625">
        <ele>75.1999969482421875</ele>
        <time>2018-09-06T07:27:28.000Z</time>
      </trkpt>
      <trkpt lat="43.3797870017588138580322265625" lon="-4.26168722100555896759033203125">
        <ele>75</ele>
        <time>2018-09-06T07:27:29.000Z</time>
      </trkpt>
      <trkpt lat="43.37986554019153118133544921875" lon="-4.2618730477988719940185546875">
        <ele>74.1999969482421875</ele>
        <time>2018-09-06T07:27:32.000Z</time>
      </trkpt>
      <trkpt lat="43.37986067868769168853759765625" lon="-4.26209491677582263946533203125">
        <ele>73.8000030517578125</ele>
        <time>2018-09-06T07:27:35.000Z</time>
      </trkpt>
      <trkpt lat="43.3798480220139026641845703125" lon="-4.26216348074376583099365234375">
        <ele>73.59999847412109375</ele>
        <time>2018-09-06T07:27:36.000Z</time>
      </trkpt>
      <trkpt lat="43.37982698343694210052490234375" lon="-4.2623050510883331298828125">
        <ele>73.59999847412109375</ele>
        <time>2018-09-06T07:27:38.000Z</time>
      </trkpt>
      <trkpt lat="43.3798302523791790008544921875" lon="-4.26238308660686016082763671875">
        <ele>73.1999969482421875</ele>
        <time>2018-09-06T07:27:39.000Z</time>
      </trkpt>
      <trkpt lat="43.379844166338443756103515625" lon="-4.2624661512672901153564453125">
        <ele>72.59999847412109375</ele>
        <time>2018-09-06T07:27:40.000Z</time>
      </trkpt>
      <trkpt lat="43.379864282906055450439453125" lon="-4.26255038939416408538818359375">
        <ele>72</ele>
        <time>2018-09-06T07:27:41.000Z</time>
      </trkpt>
      <trkpt lat="43.37997769005596637725830078125" lon="-4.26278592087328433990478515625">
        <ele>71</ele>
        <time>2018-09-06T07:27:44.000Z</time>
      </trkpt>
      <trkpt lat="43.38002555072307586669921875" lon="-4.262856580317020416259765625">
        <ele>70.59999847412109375</ele>
        <time>2018-09-06T07:27:45.000Z</time>
      </trkpt>
      <trkpt lat="43.38012705557048320770263671875" lon="-4.2629925347864627838134765625">
        <ele>69.8000030517578125</ele>
        <time>2018-09-06T07:27:47.000Z</time>
      </trkpt>
      <trkpt lat="43.3802815340459346771240234375" lon="-4.2631598375737667083740234375">
        <ele>69.59999847412109375</ele>
        <time>2018-09-06T07:27:50.000Z</time>
      </trkpt>
      <trkpt lat="43.380334675312042236328125" lon="-4.2631994001567363739013671875">
        <ele>69.8000030517578125</ele>
        <time>2018-09-06T07:27:51.000Z</time>
      </trkpt>
      <trkpt lat="43.3804833702743053436279296875" lon="-4.26327391527593135833740234375">
        <ele>70.8000030517578125</ele>
        <time>2018-09-06T07:27:54.000Z</time>
      </trkpt>
      <trkpt lat="43.3805309794843196868896484375" lon="-4.26328430883586406707763671875">
        <ele>71.1999969482421875</ele>
        <time>2018-09-06T07:27:55.000Z</time>
      </trkpt>
      <trkpt lat="43.3807785809040069580078125" lon="-4.26333493553102016448974609375">
        <ele>71</ele>
        <time>2018-09-06T07:28:00.000Z</time>
      </trkpt>
      <trkpt lat="43.380977399647235870361328125" lon="-4.26336376927793025970458984375">
        <ele>69.1999969482421875</ele>
        <time>2018-09-06T07:28:03.000Z</time>
      </trkpt>
      <trkpt lat="43.3810503222048282623291015625" lon="-4.263386316597461700439453125">
        <ele>68.59999847412109375</ele>
        <time>2018-09-06T07:28:04.000Z</time>
      </trkpt>
      <trkpt lat="43.38112316094338893890380859375" lon="-4.2634101212024688720703125">
        <ele>68.1999969482421875</ele>
        <time>2018-09-06T07:28:05.000Z</time>
      </trkpt>
      <trkpt lat="43.381525576114654541015625" lon="-4.263585470616817474365234375">
        <ele>67.8000030517578125</ele>
        <time>2018-09-06T07:28:11.000Z</time>
      </trkpt>
      <trkpt lat="43.381839729845523834228515625" lon="-4.263697452843189239501953125">
        <ele>69.40000152587890625</ele>
        <time>2018-09-06T07:28:17.000Z</time>
      </trkpt>
      <trkpt lat="43.3818858303129673004150390625" lon="-4.26369753666222095489501953125">
        <ele>69.59999847412109375</ele>
        <time>2018-09-06T07:28:18.000Z</time>
      </trkpt>
      <trkpt lat="43.38197241537272930145263671875" lon="-4.26368664018809795379638671875">
        <ele>70.1999969482421875</ele>
        <time>2018-09-06T07:28:20.000Z</time>
      </trkpt>
      <trkpt lat="43.3820633590221405029296875" lon="-4.2636775039136409759521484375">
        <ele>70.40000152587890625</ele>
        <time>2018-09-06T07:28:22.000Z</time>
      </trkpt>
      <trkpt lat="43.38226125575602054595947265625" lon="-4.26370189525187015533447265625">
        <ele>69.59999847412109375</ele>
        <time>2018-09-06T07:28:26.000Z</time>
      </trkpt>
      <trkpt lat="43.38232009671628475189208984375" lon="-4.2637288011610507965087890625">
        <ele>69</ele>
        <time>2018-09-06T07:28:27.000Z</time>
      </trkpt>
      <trkpt lat="43.38244222104549407958984375" lon="-4.26382360048592090606689453125">
        <ele>67.8000030517578125</ele>
        <time>2018-09-06T07:28:29.000Z</time>
      </trkpt>
      <trkpt lat="43.38250667788088321685791015625" lon="-4.2638810165226459503173828125">
        <ele>67</ele>
        <time>2018-09-06T07:28:30.000Z</time>
      </trkpt>
      <trkpt lat="43.3825711347162723541259765625" lon="-4.26394564099609851837158203125">
        <ele>66.40000152587890625</ele>
        <time>2018-09-06T07:28:31.000Z</time>
      </trkpt>
      <trkpt lat="43.3827089332044124603271484375" lon="-4.26408276893198490142822265625">
        <ele>65</ele>
        <time>2018-09-06T07:28:33.000Z</time>
      </trkpt>
      <trkpt lat="43.382849581539630889892578125" lon="-4.2642233334481716156005859375">
        <ele>63.59999847412109375</ele>
        <time>2018-09-06T07:28:35.000Z</time>
      </trkpt>
      <trkpt lat="43.3829171396791934967041015625" lon="-4.26430237479507923126220703125">
        <ele>63</ele>
        <time>2018-09-06T07:28:36.000Z</time>
      </trkpt>
      <trkpt lat="43.38298025541007518768310546875" lon="-4.26439155824482440948486328125">
        <ele>62.200000762939453125</ele>
        <time>2018-09-06T07:28:37.000Z</time>
      </trkpt>
      <trkpt lat="43.38309609331190586090087890625" lon="-4.26459632813930511474609375">
        <ele>60.40000152587890625</ele>
        <time>2018-09-06T07:28:39.000Z</time>
      </trkpt>
      <trkpt lat="43.38320455513894557952880859375" lon="-4.26481098867952823638916015625">
        <ele>59</ele>
        <time>2018-09-06T07:28:41.000Z</time>
      </trkpt>
      <trkpt lat="43.38331502862274646759033203125" lon="-4.26499597728252410888671875">
        <ele>57.59999847412109375</ele>
        <time>2018-09-06T07:28:43.000Z</time>
      </trkpt>
      <trkpt lat="43.38345048017799854278564453125" lon="-4.2650896869599819183349609375">
        <ele>56.200000762939453125</ele>
        <time>2018-09-06T07:28:45.000Z</time>
      </trkpt>
      <trkpt lat="43.38358324952423572540283203125" lon="-4.2650957219302654266357421875">
        <ele>53.799999237060546875</ele>
        <time>2018-09-06T07:28:47.000Z</time>
      </trkpt>
      <trkpt lat="43.3836540766060352325439453125" lon="-4.2650501243770122528076171875">
        <ele>53</ele>
        <time>2018-09-06T07:28:48.000Z</time>
      </trkpt>
      <trkpt lat="43.38373680599033832550048828125" lon="-4.2649539001286029815673828125">
        <ele>52</ele>
        <time>2018-09-06T07:28:49.000Z</time>
      </trkpt>
      <trkpt lat="43.383804447948932647705078125" lon="-4.264838397502899169921875">
        <ele>51.200000762939453125</ele>
        <time>2018-09-06T07:28:50.000Z</time>
      </trkpt>
      <trkpt lat="43.3838750235736370086669921875" lon="-4.26475382409989833831787109375">
        <ele>50.59999847412109375</ele>
        <time>2018-09-06T07:28:51.000Z</time>
      </trkpt>
      <trkpt lat="43.38395557366311550140380859375" lon="-4.26472096703946590423583984375">
        <ele>50.40000152587890625</ele>
        <time>2018-09-06T07:28:52.000Z</time>
      </trkpt>
      <trkpt lat="43.38411818258464336395263671875" lon="-4.2647812329232692718505859375">
        <ele>49.200000762939453125</ele>
        <time>2018-09-06T07:28:54.000Z</time>
      </trkpt>
      <trkpt lat="43.3842585794627666473388671875" lon="-4.26490922458469867706298828125">
        <ele>47.799999237060546875</ele>
        <time>2018-09-06T07:28:56.000Z</time>
      </trkpt>
      <trkpt lat="43.3843936957418918609619140625" lon="-4.2650658823549747467041015625">
        <ele>46.799999237060546875</ele>
        <time>2018-09-06T07:28:58.000Z</time>
      </trkpt>
      <trkpt lat="43.38460014201700687408447265625" lon="-4.26532044075429439544677734375">
        <ele>45.200000762939453125</ele>
        <time>2018-09-06T07:29:01.000Z</time>
      </trkpt>
      <trkpt lat="43.384753949940204620361328125" lon="-4.26548070274293422698974609375">
        <ele>43.799999237060546875</ele>
        <time>2018-09-06T07:29:03.000Z</time>
      </trkpt>
      <trkpt lat="43.384835422039031982421875" lon="-4.2655523680150508880615234375">
        <ele>43</ele>
        <time>2018-09-06T07:29:04.000Z</time>
      </trkpt>
      <trkpt lat="43.38492033071815967559814453125" lon="-4.26561581902205944061279296875">
        <ele>42.40000152587890625</ele>
        <time>2018-09-06T07:29:05.000Z</time>
      </trkpt>
      <trkpt lat="43.38510255329310894012451171875" lon="-4.2657025717198848724365234375">
        <ele>41.799999237060546875</ele>
        <time>2018-09-06T07:29:07.000Z</time>
      </trkpt>
      <trkpt lat="43.3852000348269939422607421875" lon="-4.265736602246761322021484375">
        <ele>41.40000152587890625</ele>
        <time>2018-09-06T07:29:08.000Z</time>
      </trkpt>
      <trkpt lat="43.38536038063466548919677734375" lon="-4.26576468162238597869873046875">
        <ele>40.799999237060546875</ele>
        <time>2018-09-06T07:29:10.000Z</time>
      </trkpt>
      <trkpt lat="43.38542215526103973388671875" lon="-4.26577339880168437957763671875">
        <ele>40.200000762939453125</ele>
        <time>2018-09-06T07:29:11.000Z</time>
      </trkpt>
      <trkpt lat="43.38548250496387481689453125" lon="-4.26577373407781124114990234375">
        <ele>40</ele>
        <time>2018-09-06T07:29:12.000Z</time>
      </trkpt>
      <trkpt lat="43.38560110889375209808349609375" lon="-4.26578312180936336517333984375">
        <ele>39</ele>
        <time>2018-09-06T07:29:14.000Z</time>
      </trkpt>
      <trkpt lat="43.385709822177886962890625" lon="-4.26583148539066314697265625">
        <ele>38.200000762939453125</ele>
        <time>2018-09-06T07:29:17.000Z</time>
      </trkpt>
      <trkpt lat="43.385722227394580841064453125" lon="-4.26588253118097782135009765625">
        <ele>38</ele>
        <time>2018-09-06T07:29:18.000Z</time>
      </trkpt>
      <trkpt lat="43.385724239051342010498046875" lon="-4.26594153977930545806884765625">
        <ele>38</ele>
        <time>2018-09-06T07:29:19.000Z</time>
      </trkpt>
      <trkpt lat="43.3857056312263011932373046875" lon="-4.266112782061100006103515625">
        <ele>37.40000152587890625</ele>
        <time>2018-09-06T07:29:22.000Z</time>
      </trkpt>
      <trkpt lat="43.38568392209708690643310546875" lon="-4.2662916518747806549072265625">
        <ele>37.40000152587890625</ele>
        <time>2018-09-06T07:29:25.000Z</time>
      </trkpt>
      <trkpt lat="43.3856674097478389739990234375" lon="-4.26642282865941524505615234375">
        <ele>36.799999237060546875</ele>
        <time>2018-09-06T07:29:27.000Z</time>
      </trkpt>
      <trkpt lat="43.3856563456356525421142578125" lon="-4.26661326549947261810302734375">
        <ele>36.40000152587890625</ele>
        <time>2018-09-06T07:29:31.000Z</time>
      </trkpt>
      <trkpt lat="43.38573974557220935821533203125" lon="-4.26664880476891994476318359375">
        <ele>36.200000762939453125</ele>
        <time>2018-09-06T07:29:34.000Z</time>
      </trkpt>
      <trkpt lat="43.3858115784823894500732421875" lon="-4.266645871102809906005859375">
        <ele>36.40000152587890625</ele>
        <time>2018-09-06T07:29:36.000Z</time>
      </trkpt>
      <trkpt lat="43.38584871031343936920166015625" lon="-4.2666421830654144287109375">
        <ele>36.200000762939453125</ele>
        <time>2018-09-06T07:29:37.000Z</time>
      </trkpt>
      <trkpt lat="43.38592632673680782318115234375" lon="-4.26663673482835292816162109375">
        <ele>36</ele>
        <time>2018-09-06T07:29:39.000Z</time>
      </trkpt>
      <trkpt lat="43.38597812689840793609619140625" lon="-4.26667864434421062469482421875">
        <ele>35.799999237060546875</ele>
        <time>2018-09-06T07:29:41.000Z</time>
      </trkpt>
      <trkpt lat="43.38599204085767269134521484375" lon="-4.2667265050113201141357421875">
        <ele>35.59999847412109375</ele>
        <time>2018-09-06T07:29:42.000Z</time>
      </trkpt>
      <trkpt lat="43.38600411079823970794677734375" lon="-4.26682415418326854705810546875">
        <ele>35.799999237060546875</ele>
        <time>2018-09-06T07:29:44.000Z</time>
      </trkpt>
      <trkpt lat="43.3860100619494915008544921875" lon="-4.26687209866940975189208984375">
        <ele>35.799999237060546875</ele>
        <time>2018-09-06T07:29:45.000Z</time>
      </trkpt>
      <trkpt lat="43.38601517491042613983154296875" lon="-4.266917444765567779541015625">
        <ele>36.200000762939453125</ele>
        <time>2018-09-06T07:29:46.000Z</time>
      </trkpt>
      <trkpt lat="43.38602020405232906341552734375" lon="-4.26696111448109149932861328125">
        <ele>36.40000152587890625</ele>
        <time>2018-09-06T07:29:47.000Z</time>
      </trkpt>
      <trkpt lat="43.3860207907855510711669921875" lon="-4.26700201816856861114501953125">
        <ele>36.799999237060546875</ele>
        <time>2018-09-06T07:29:48.000Z</time>
      </trkpt>
      <trkpt lat="43.3860154263675212860107421875" lon="-4.267037808895111083984375">
        <ele>37.200000762939453125</ele>
        <time>2018-09-06T07:29:49.000Z</time>
      </trkpt>
      <trkpt lat="43.3860103972256183624267578125" lon="-4.2671030201017856597900390625">
        <ele>37.799999237060546875</ele>
        <time>2018-09-06T07:29:51.000Z</time>
      </trkpt>
      <trkpt lat="43.38600880466401576995849609375" lon="-4.2671303451061248779296875">
        <ele>38</ele>
        <time>2018-09-06T07:29:52.000Z</time>
      </trkpt>
      <trkpt lat="43.38601232506334781646728515625" lon="-4.26718608476221561431884765625">
        <ele>38.59999847412109375</ele>
        <time>2018-09-06T07:29:54.000Z</time>
      </trkpt>
      <trkpt lat="43.3860140852630138397216796875" lon="-4.26729856990277767181396484375">
        <ele>39</ele>
        <time>2018-09-06T07:29:57.000Z</time>
      </trkpt>
      <trkpt lat="43.38601014576852321624755859375" lon="-4.26733528263866901397705078125">
        <ele>39.200000762939453125</ele>
        <time>2018-09-06T07:29:58.000Z</time>
      </trkpt>
      <trkpt lat="43.38601048104465007781982421875" lon="-4.2673973925411701202392578125">
        <ele>39.40000152587890625</ele>
        <time>2018-09-06T07:30:00.000Z</time>
      </trkpt>
      <trkpt lat="43.386014588177204132080078125" lon="-4.26745883189141750335693359375">
        <ele>39.59999847412109375</ele>
        <time>2018-09-06T07:30:02.000Z</time>
      </trkpt>
      <trkpt lat="43.38601651601493358612060546875" lon="-4.26761155016720294952392578125">
        <ele>39.799999237060546875</ele>
        <time>2018-09-06T07:30:07.000Z</time>
      </trkpt>
      <trkpt lat="43.38603143580257892608642578125" lon="-4.26776259206235408782958984375">
        <ele>40</ele>
        <time>2018-09-06T07:30:11.000Z</time>
      </trkpt>
      <trkpt lat="43.38603906333446502685546875" lon="-4.2678491771221160888671875">
        <ele>39.799999237060546875</ele>
        <time>2018-09-06T07:30:13.000Z</time>
      </trkpt>
      <trkpt lat="43.38604534976184368133544921875" lon="-4.2679871432483196258544921875">
        <ele>40.200000762939453125</ele>
        <time>2018-09-06T07:30:16.000Z</time>
      </trkpt>
      <trkpt lat="43.38602405972778797149658203125" lon="-4.26818219013512134552001953125">
        <ele>41</ele>
        <time>2018-09-06T07:30:21.000Z</time>
      </trkpt>
      <trkpt lat="43.3859815634787082672119140625" lon="-4.26825276575982570648193359375">
        <ele>41.40000152587890625</ele>
        <time>2018-09-06T07:30:23.000Z</time>
      </trkpt>
      <trkpt lat="43.38591392152011394500732421875" lon="-4.26833054982125759124755859375">
        <ele>42</ele>
        <time>2018-09-06T07:30:26.000Z</time>
      </trkpt>
      <trkpt lat="43.38578668422996997833251953125" lon="-4.2684300430119037628173828125">
        <ele>42.59999847412109375</ele>
        <time>2018-09-06T07:30:32.000Z</time>
      </trkpt>
      <trkpt lat="43.38576338253915309906005859375" lon="-4.26844487898051738739013671875">
        <ele>42.59999847412109375</ele>
        <time>2018-09-06T07:30:33.000Z</time>
      </trkpt>
      <trkpt lat="43.3856301940977573394775390625" lon="-4.2685641534626483917236328125">
        <ele>43.59999847412109375</ele>
        <time>2018-09-06T07:30:40.000Z</time>
      </trkpt>
      <trkpt lat="43.38561552576720714569091796875" lon="-4.26857806742191314697265625">
        <ele>43.799999237060546875</ele>
        <time>2018-09-06T07:30:41.000Z</time>
      </trkpt>
      <trkpt lat="43.38552483357489109039306640625" lon="-4.2686556838452816009521484375">
        <ele>45.40000152587890625</ele>
        <time>2018-09-06T07:30:47.000Z</time>
      </trkpt>
      <trkpt lat="43.38542827405035495758056640625" lon="-4.2687760479748249053955078125">
        <ele>47.40000152587890625</ele>
        <time>2018-09-06T07:30:57.000Z</time>
      </trkpt>
      <trkpt lat="43.38541335426270961761474609375" lon="-4.26878870464861392974853515625">
        <ele>47.40000152587890625</ele>
        <time>2018-09-06T07:30:58.000Z</time>
      </trkpt>
      <trkpt lat="43.3852727897465229034423828125" lon="-4.26886766217648983001708984375">
        <ele>49</ele>
        <time>2018-09-06T07:31:07.000Z</time>
      </trkpt>
      <trkpt lat="43.385165669023990631103515625" lon="-4.2689094878733158111572265625">
        <ele>50.200000762939453125</ele>
        <time>2018-09-06T07:31:12.000Z</time>
      </trkpt>
      <trkpt lat="43.3851333148777484893798828125" lon="-4.26893153227865695953369140625">
        <ele>50.40000152587890625</ele>
        <time>2018-09-06T07:31:14.000Z</time>
      </trkpt>
      <trkpt lat="43.38511948473751544952392578125" lon="-4.26894812844693660736083984375">
        <ele>50.40000152587890625</ele>
        <time>2018-09-06T07:31:15.000Z</time>
      </trkpt>
      <trkpt lat="43.38512451387941837310791015625" lon="-4.269012250006198883056640625">
        <ele>51.40000152587890625</ele>
        <time>2018-09-06T07:31:18.000Z</time>
      </trkpt>
      <trkpt lat="43.38518084026873111724853515625" lon="-4.269093386828899383544921875">
        <ele>52</ele>
        <time>2018-09-06T07:31:23.000Z</time>
      </trkpt>
      <trkpt lat="43.3851909823715686798095703125" lon="-4.26910738460719585418701171875">
        <ele>52.200000762939453125</ele>
        <time>2018-09-06T07:31:24.000Z</time>
      </trkpt>
      <trkpt lat="43.38521302677690982818603515625" lon="-4.2691420018672943115234375">
        <ele>52.59999847412109375</ele>
        <time>2018-09-06T07:31:26.000Z</time>
      </trkpt>
      <trkpt lat="43.3852379210293292999267578125" lon="-4.26921366713941097259521484375">
        <ele>53</ele>
        <time>2018-09-06T07:31:30.000Z</time>
      </trkpt>
      <trkpt lat="43.38526952080428600311279296875" lon="-4.269339479506015777587890625">
        <ele>53.59999847412109375</ele>
        <time>2018-09-06T07:31:34.000Z</time>
      </trkpt>
      <trkpt lat="43.385285697877407073974609375" lon="-4.26939873956143856048583984375">
        <ele>54</ele>
        <time>2018-09-06T07:31:36.000Z</time>
      </trkpt>
      <trkpt lat="43.38532651774585247039794921875" lon="-4.2695559002459049224853515625">
        <ele>54.59999847412109375</ele>
        <time>2018-09-06T07:31:41.000Z</time>
      </trkpt>
      <trkpt lat="43.38533364236354827880859375" lon="-4.26959068514406681060791015625">
        <ele>54.799999237060546875</ele>
        <time>2018-09-06T07:31:42.000Z</time>
      </trkpt>
      <trkpt lat="43.38538460433483123779296875" lon="-4.26983535289764404296875">
        <ele>54.799999237060546875</ele>
        <time>2018-09-06T07:31:48.000Z</time>
      </trkpt>
      <trkpt lat="43.38540312834084033966064453125" lon="-4.2699679546058177947998046875">
        <ele>54.799999237060546875</ele>
        <time>2018-09-06T07:31:51.000Z</time>
      </trkpt>
      <trkpt lat="43.38542190380394458770751953125" lon="-4.2701049149036407470703125">
        <ele>55</ele>
        <time>2018-09-06T07:31:54.000Z</time>
      </trkpt>
      <trkpt lat="43.38543766178190708160400390625" lon="-4.27023877389729022979736328125">
        <ele>55</ele>
        <time>2018-09-06T07:31:57.000Z</time>
      </trkpt>
      <trkpt lat="43.38544537313282489776611328125" lon="-4.27036282606422901153564453125">
        <ele>55.200000762939453125</ele>
        <time>2018-09-06T07:32:00.000Z</time>
      </trkpt>
      <trkpt lat="43.38544621132314205169677734375" lon="-4.27045016549527645111083984375">
        <ele>55</ele>
        <time>2018-09-06T07:32:02.000Z</time>
      </trkpt>
      <trkpt lat="43.38547755964100360870361328125" lon="-4.27068754099309444427490234375">
        <ele>54.200000762939453125</ele>
        <time>2018-09-06T07:32:06.000Z</time>
      </trkpt>
      <trkpt lat="43.3855349756777286529541015625" lon="-4.27096632309257984161376953125">
        <ele>53.59999847412109375</ele>
        <time>2018-09-06T07:32:10.000Z</time>
      </trkpt>
      <trkpt lat="43.38555115275084972381591796875" lon="-4.27103706635534763336181640625">
        <ele>53.40000152587890625</ele>
        <time>2018-09-06T07:32:11.000Z</time>
      </trkpt>
      <trkpt lat="43.38562608696520328521728515625" lon="-4.27128265611827373504638671875">
        <ele>53.200000762939453125</ele>
        <time>2018-09-06T07:32:15.000Z</time>
      </trkpt>
      <trkpt lat="43.38564746081829071044921875" lon="-4.27133646793663501739501953125">
        <ele>53.200000762939453125</ele>
        <time>2018-09-06T07:32:16.000Z</time>
      </trkpt>
      <trkpt lat="43.385712839663028717041015625" lon="-4.27161877043545246124267578125">
        <ele>54.59999847412109375</ele>
        <time>2018-09-06T07:32:22.000Z</time>
      </trkpt>
      <trkpt lat="43.38574008084833621978759765625" lon="-4.27183351479470729827880859375">
        <ele>55.40000152587890625</ele>
        <time>2018-09-06T07:32:27.000Z</time>
      </trkpt>
      <trkpt lat="43.38575684465467929840087890625" lon="-4.2719313316047191619873046875">
        <ele>55.40000152587890625</ele>
        <time>2018-09-06T07:32:29.000Z</time>
      </trkpt>
      <trkpt lat="43.38576170615851879119873046875" lon="-4.27202696911990642547607421875">
        <ele>55.799999237060546875</ele>
        <time>2018-09-06T07:32:31.000Z</time>
      </trkpt>
      <trkpt lat="43.38575315661728382110595703125" lon="-4.27221103571355342864990234375">
        <ele>56.799999237060546875</ele>
        <time>2018-09-06T07:32:35.000Z</time>
      </trkpt>
      <trkpt lat="43.38574745692312717437744140625" lon="-4.27224724553525447845458984375">
        <ele>57</ele>
        <time>2018-09-06T07:32:36.000Z</time>
      </trkpt>
      <trkpt lat="43.38574393652379512786865234375" lon="-4.27232335321605205535888671875">
        <ele>57.40000152587890625</ele>
        <time>2018-09-06T07:32:38.000Z</time>
      </trkpt>
      <trkpt lat="43.3857388235628604888916015625" lon="-4.27241320721805095672607421875">
        <ele>57.59999847412109375</ele>
        <time>2018-09-06T07:32:40.000Z</time>
      </trkpt>
      <trkpt lat="43.38573907501995563507080078125" lon="-4.272501133382320404052734375">
        <ele>57.799999237060546875</ele>
        <time>2018-09-06T07:32:42.000Z</time>
      </trkpt>
      <trkpt lat="43.38579364120960235595703125" lon="-4.27270556800067424774169921875">
        <ele>57.200000762939453125</ele>
        <time>2018-09-06T07:32:46.000Z</time>
      </trkpt>
      <trkpt lat="43.38587754406034946441650390625" lon="-4.2728810012340545654296875">
        <ele>56.59999847412109375</ele>
        <time>2018-09-06T07:32:49.000Z</time>
      </trkpt>
      <trkpt lat="43.38590419851243495941162109375" lon="-4.272958450019359588623046875">
        <ele>56.40000152587890625</ele>
        <time>2018-09-06T07:32:50.000Z</time>
      </trkpt>
      <trkpt lat="43.3859215490520000457763671875" lon="-4.27304520271718502044677734375">
        <ele>55.799999237060546875</ele>
        <time>2018-09-06T07:32:51.000Z</time>
      </trkpt>
      <trkpt lat="43.38593822903931140899658203125" lon="-4.2731316201388835906982421875">
        <ele>55.59999847412109375</ele>
        <time>2018-09-06T07:32:52.000Z</time>
      </trkpt>
      <trkpt lat="43.38596773333847522735595703125" lon="-4.273375533521175384521484375">
        <ele>55.40000152587890625</ele>
        <time>2018-09-06T07:32:55.000Z</time>
      </trkpt>
      <trkpt lat="43.38597678579390048980712890625" lon="-4.27344837225973606109619140625">
        <ele>55.40000152587890625</ele>
        <time>2018-09-06T07:32:56.000Z</time>
      </trkpt>
      <trkpt lat="43.3859808929264545440673828125" lon="-4.2735829018056392669677734375">
        <ele>55.200000762939453125</ele>
        <time>2018-09-06T07:32:58.000Z</time>
      </trkpt>
      <trkpt lat="43.3859812282025814056396484375" lon="-4.27369345910847187042236328125">
        <ele>55.200000762939453125</ele>
        <time>2018-09-06T07:33:00.000Z</time>
      </trkpt>
      <trkpt lat="43.38598365895450115203857421875" lon="-4.273749701678752899169921875">
        <ele>55.40000152587890625</ele>
        <time>2018-09-06T07:33:01.000Z</time>
      </trkpt>
      <trkpt lat="43.3860062062740325927734375" lon="-4.27393686957657337188720703125">
        <ele>54.799999237060546875</ele>
        <time>2018-09-06T07:33:04.000Z</time>
      </trkpt>
      <trkpt lat="43.38602657429873943328857421875" lon="-4.27400526590645313262939453125">
        <ele>54.40000152587890625</ele>
        <time>2018-09-06T07:33:05.000Z</time>
      </trkpt>
      <trkpt lat="43.3860506303608417510986328125" lon="-4.274070225656032562255859375">
        <ele>53.799999237060546875</ele>
        <time>2018-09-06T07:33:06.000Z</time>
      </trkpt>
      <trkpt lat="43.38613964617252349853515625" lon="-4.27423895336687564849853515625">
        <ele>53.40000152587890625</ele>
        <time>2018-09-06T07:33:09.000Z</time>
      </trkpt>
      <trkpt lat="43.38616646826267242431640625" lon="-4.274298213422298431396484375">
        <ele>53.200000762939453125</ele>
        <time>2018-09-06T07:33:10.000Z</time>
      </trkpt>
      <trkpt lat="43.38619119487702846527099609375" lon="-4.27436166442930698394775390625">
        <ele>53.200000762939453125</ele>
        <time>2018-09-06T07:33:11.000Z</time>
      </trkpt>
      <trkpt lat="43.38624618016183376312255859375" lon="-4.27447867579758167266845703125">
        <ele>52.799999237060546875</ele>
        <time>2018-09-06T07:33:13.000Z</time>
      </trkpt>
      <trkpt lat="43.38631876744329929351806640625" lon="-4.27454891614615917205810546875">
        <ele>53.200000762939453125</ele>
        <time>2018-09-06T07:33:15.000Z</time>
      </trkpt>
      <trkpt lat="43.38638775050640106201171875" lon="-4.27456484176218509674072265625">
        <ele>54</ele>
        <time>2018-09-06T07:33:17.000Z</time>
      </trkpt>
      <trkpt lat="43.38641767390072345733642578125" lon="-4.2745726369321346282958984375">
        <ele>54.40000152587890625</ele>
        <time>2018-09-06T07:33:18.000Z</time>
      </trkpt>
      <trkpt lat="43.38644382543861865997314453125" lon="-4.27458261139690876007080078125">
        <ele>54.59999847412109375</ele>
        <time>2018-09-06T07:33:19.000Z</time>
      </trkpt>
      <trkpt lat="43.3865585736930370330810546875" lon="-4.27469828166067600250244140625">
        <ele>55.200000762939453125</ele>
        <time>2018-09-06T07:33:24.000Z</time>
      </trkpt>
      <trkpt lat="43.3865694701671600341796875" lon="-4.2747432924807071685791015625">
        <ele>55.40000152587890625</ele>
        <time>2018-09-06T07:33:25.000Z</time>
      </trkpt>
      <trkpt lat="43.38657022453844547271728515625" lon="-4.2748807556927204132080078125">
        <ele>55.59999847412109375</ele>
        <time>2018-09-06T07:33:28.000Z</time>
      </trkpt>
      <trkpt lat="43.386564441025257110595703125" lon="-4.27492761053144931793212890625">
        <ele>55.40000152587890625</ele>
        <time>2018-09-06T07:33:29.000Z</time>
      </trkpt>
      <trkpt lat="43.3865334279835224151611328125" lon="-4.2752358131110668182373046875">
        <ele>55.40000152587890625</ele>
        <time>2018-09-06T07:33:35.000Z</time>
      </trkpt>
      <trkpt lat="43.38652362115681171417236328125" lon="-4.27535776980221271514892578125">
        <ele>55</ele>
        <time>2018-09-06T07:33:37.000Z</time>
      </trkpt>
      <trkpt lat="43.3865029178559780120849609375" lon="-4.27549238316714763641357421875">
        <ele>54.200000762939453125</ele>
        <time>2018-09-06T07:33:39.000Z</time>
      </trkpt>
      <trkpt lat="43.38649763725697994232177734375" lon="-4.27556999959051609039306640625">
        <ele>53.799999237060546875</ele>
        <time>2018-09-06T07:33:40.000Z</time>
      </trkpt>
      <trkpt lat="43.38649797253310680389404296875" lon="-4.27581022493541240692138671875">
        <ele>53</ele>
        <time>2018-09-06T07:33:43.000Z</time>
      </trkpt>
      <trkpt lat="43.38652261532843112945556640625" lon="-4.27596881054341793060302734375">
        <ele>52.40000152587890625</ele>
        <time>2018-09-06T07:33:45.000Z</time>
      </trkpt>
      <trkpt lat="43.38653518818318843841552734375" lon="-4.2760475166141986846923828125">
        <ele>51.799999237060546875</ele>
        <time>2018-09-06T07:33:46.000Z</time>
      </trkpt>
      <trkpt lat="43.38655731640756130218505859375" lon="-4.27619411610066890716552734375">
        <ele>51</ele>
        <time>2018-09-06T07:33:48.000Z</time>
      </trkpt>
      <trkpt lat="43.386583887040615081787109375" lon="-4.276260919868946075439453125">
        <ele>50.59999847412109375</ele>
        <time>2018-09-06T07:33:49.000Z</time>
      </trkpt>
      <trkpt lat="43.38662185706198215484619140625" lon="-4.27632001228630542755126953125">
        <ele>50.200000762939453125</ele>
        <time>2018-09-06T07:33:50.000Z</time>
      </trkpt>
      <trkpt lat="43.386715985834598541259765625" lon="-4.276397712528705596923828125">
        <ele>49.59999847412109375</ele>
        <time>2018-09-06T07:33:52.000Z</time>
      </trkpt>
      <trkpt lat="43.38675479404628276824951171875" lon="-4.2764210142195224761962890625">
        <ele>49.200000762939453125</ele>
        <time>2018-09-06T07:33:53.000Z</time>
      </trkpt>
      <trkpt lat="43.3868448995053768157958984375" lon="-4.2764347605407238006591796875">
        <ele>48.59999847412109375</ele>
        <time>2018-09-06T07:33:55.000Z</time>
      </trkpt>
      <trkpt lat="43.38689913041889667510986328125" lon="-4.27644498646259307861328125">
        <ele>48.200000762939453125</ele>
        <time>2018-09-06T07:33:56.000Z</time>
      </trkpt>
      <trkpt lat="43.3869503438472747802734375" lon="-4.27647490985691547393798828125">
        <ele>47.59999847412109375</ele>
        <time>2018-09-06T07:33:57.000Z</time>
      </trkpt>
      <trkpt lat="43.38699971325695514678955078125" lon="-4.2765205912292003631591796875">
        <ele>46.40000152587890625</ele>
        <time>2018-09-06T07:33:58.000Z</time>
      </trkpt>
      <trkpt lat="43.3870383538305759429931640625" lon="-4.27658177912235260009765625">
        <ele>44.59999847412109375</ele>
        <time>2018-09-06T07:33:59.000Z</time>
      </trkpt>
      <trkpt lat="43.3870816044509410858154296875" lon="-4.27664221264421939849853515625">
        <ele>43.40000152587890625</ele>
        <time>2018-09-06T07:34:00.000Z</time>
      </trkpt>
      <trkpt lat="43.387184031307697296142578125" lon="-4.27674028091132640838623046875">
        <ele>42</ele>
        <time>2018-09-06T07:34:02.000Z</time>
      </trkpt>
      <trkpt lat="43.38722753338515758514404296875" lon="-4.27679476328194141387939453125">
        <ele>41.40000152587890625</ele>
        <time>2018-09-06T07:34:03.000Z</time>
      </trkpt>
      <trkpt lat="43.38726558722555637359619140625" lon="-4.2768573760986328125">
        <ele>41</ele>
        <time>2018-09-06T07:34:04.000Z</time>
      </trkpt>
      <trkpt lat="43.3872968517243862152099609375" lon="-4.27692434750497341156005859375">
        <ele>40</ele>
        <time>2018-09-06T07:34:05.000Z</time>
      </trkpt>
      <trkpt lat="43.38733448646962642669677734375" lon="-4.277081675827503204345703125">
        <ele>38.200000762939453125</ele>
        <time>2018-09-06T07:34:07.000Z</time>
      </trkpt>
      <trkpt lat="43.38734018616378307342529296875" lon="-4.277162142097949981689453125">
        <ele>37.59999847412109375</ele>
        <time>2018-09-06T07:34:08.000Z</time>
      </trkpt>
      <trkpt lat="43.38733063079416751861572265625" lon="-4.27724839188158512115478515625">
        <ele>36.799999237060546875</ele>
        <time>2018-09-06T07:34:09.000Z</time>
      </trkpt>
      <trkpt lat="43.3873178064823150634765625" lon="-4.27733070217072963714599609375">
        <ele>36</ele>
        <time>2018-09-06T07:34:10.000Z</time>
      </trkpt>
      <trkpt lat="43.38730431161820888519287109375" lon="-4.27741250954568386077880859375">
        <ele>35.200000762939453125</ele>
        <time>2018-09-06T07:34:11.000Z</time>
      </trkpt>
      <trkpt lat="43.3872965164482593536376953125" lon="-4.27749599330127239227294921875">
        <ele>34.200000762939453125</ele>
        <time>2018-09-06T07:34:12.000Z</time>
      </trkpt>
      <trkpt lat="43.38730380870401859283447265625" lon="-4.27766614593565464019775390625">
        <ele>32.200000762939453125</ele>
        <time>2018-09-06T07:34:14.000Z</time>
      </trkpt>
      <trkpt lat="43.3873038925230503082275390625" lon="-4.27774610929191112518310546875">
        <ele>31.799999237060546875</ele>
        <time>2018-09-06T07:34:15.000Z</time>
      </trkpt>
      <trkpt lat="43.38731135241687297821044921875" lon="-4.277897737920284271240234375">
        <ele>30.6000003814697265625</ele>
        <time>2018-09-06T07:34:17.000Z</time>
      </trkpt>
      <trkpt lat="43.387316130101680755615234375" lon="-4.27801919169723987579345703125">
        <ele>28.799999237060546875</ele>
        <time>2018-09-06T07:34:19.000Z</time>
      </trkpt>
      <trkpt lat="43.3873196505010128021240234375" lon="-4.27808691747486591339111328125">
        <ele>28.6000003814697265625</ele>
        <time>2018-09-06T07:34:20.000Z</time>
      </trkpt>
      <trkpt lat="43.387332893908023834228515625" lon="-4.27819387055933475494384765625">
        <ele>27.6000003814697265625</ele>
        <time>2018-09-06T07:34:22.000Z</time>
      </trkpt>
      <trkpt lat="43.38733884505927562713623046875" lon="-4.27822672761976718902587890625">
        <ele>26.3999996185302734375</ele>
        <time>2018-09-06T07:34:23.000Z</time>
      </trkpt>
      <trkpt lat="43.387345634400844573974609375" lon="-4.2782620154321193695068359375">
        <ele>26</ele>
        <time>2018-09-06T07:34:24.000Z</time>
      </trkpt>
      <trkpt lat="43.3873585425317287445068359375" lon="-4.2783166654407978057861328125">
        <ele>25.200000762939453125</ele>
        <time>2018-09-06T07:34:50.000Z</time>
      </trkpt>
      <trkpt lat="43.38737480342388153076171875" lon="-4.278395287692546844482421875">
        <ele>25</ele>
        <time>2018-09-06T07:34:52.000Z</time>
      </trkpt>
      <trkpt lat="43.38739483617246150970458984375" lon="-4.278497882187366485595703125">
        <ele>24.200000762939453125</ele>
        <time>2018-09-06T07:34:54.000Z</time>
      </trkpt>
      <trkpt lat="43.38741512037813663482666015625" lon="-4.27861430682241916656494140625">
        <ele>23.6000003814697265625</ele>
        <time>2018-09-06T07:34:56.000Z</time>
      </trkpt>
      <trkpt lat="43.38741998188197612762451171875" lon="-4.27867867983877658843994140625">
        <ele>23.6000003814697265625</ele>
        <time>2018-09-06T07:34:57.000Z</time>
      </trkpt>
      <trkpt lat="43.3874440379440784454345703125" lon="-4.27888336591422557830810546875">
        <ele>23.200000762939453125</ele>
        <time>2018-09-06T07:35:00.000Z</time>
      </trkpt>
      <trkpt lat="43.38744998909533023834228515625" lon="-4.27895159460604190826416015625">
        <ele>22.799999237060546875</ele>
        <time>2018-09-06T07:35:01.000Z</time>
      </trkpt>
      <trkpt lat="43.387471027672290802001953125" lon="-4.2792369984090328216552734375">
        <ele>22</ele>
        <time>2018-09-06T07:35:05.000Z</time>
      </trkpt>
      <trkpt lat="43.3874899707734584808349609375" lon="-4.2794685065746307373046875">
        <ele>21.6000003814697265625</ele>
        <time>2018-09-06T07:35:08.000Z</time>
      </trkpt>
      <trkpt lat="43.3874866180121898651123046875" lon="-4.27969238720834255218505859375">
        <ele>20.3999996185302734375</ele>
        <time>2018-09-06T07:35:11.000Z</time>
      </trkpt>
      <trkpt lat="43.38747538626194000244140625" lon="-4.27987092174589633941650390625">
        <ele>19.799999237060546875</ele>
        <time>2018-09-06T07:35:14.000Z</time>
      </trkpt>
      <trkpt lat="43.3874765597283840179443359375" lon="-4.27999757230281829833984375">
        <ele>19.200000762939453125</ele>
        <time>2018-09-06T07:35:17.000Z</time>
      </trkpt>
      <trkpt lat="43.38746993802487850189208984375" lon="-4.2800265736877918243408203125">
        <ele>19.200000762939453125</ele>
        <time>2018-09-06T07:35:18.000Z</time>
      </trkpt>
      <trkpt lat="43.387454263865947723388671875" lon="-4.28008784539997577667236328125">
        <ele>19</ele>
        <time>2018-09-06T07:35:20.000Z</time>
      </trkpt>
      <trkpt lat="43.3874483965337276458740234375" lon="-4.2801442556083202362060546875">
        <ele>19</ele>
        <time>2018-09-06T07:35:23.000Z</time>
      </trkpt>
      <trkpt lat="43.38742635212838649749755859375" lon="-4.2801945470273494720458984375">
        <ele>18.6000003814697265625</ele>
        <time>2018-09-06T07:35:53.000Z</time>
      </trkpt>
      <trkpt lat="43.38740992359817028045654296875" lon="-4.2802160046994686126708984375">
        <ele>18.3999996185302734375</ele>
        <time>2018-09-06T07:35:54.000Z</time>
      </trkpt>
      <trkpt lat="43.38737773708999156951904296875" lon="-4.28025774657726287841796875">
        <ele>18.200000762939453125</ele>
        <time>2018-09-06T07:35:56.000Z</time>
      </trkpt>
      <trkpt lat="43.3873593807220458984375" lon="-4.28027694113552570343017578125">
        <ele>18.200000762939453125</ele>
        <time>2018-09-06T07:35:57.000Z</time>
      </trkpt>
      <trkpt lat="43.387277908623218536376953125" lon="-4.28036595694720745086669921875">
        <ele>17.6000003814697265625</ele>
        <time>2018-09-06T07:36:01.000Z</time>
      </trkpt>
      <trkpt lat="43.38716114871203899383544921875" lon="-4.2805422283709049224853515625">
        <ele>17.200000762939453125</ele>
        <time>2018-09-06T07:36:07.000Z</time>
      </trkpt>
      <trkpt lat="43.3871013857424259185791015625" lon="-4.2807370238006114959716796875">
        <ele>17.799999237060546875</ele>
        <time>2018-09-06T07:36:12.000Z</time>
      </trkpt>
      <trkpt lat="43.3870898187160491943359375" lon="-4.28077809512615203857421875">
        <ele>18</ele>
        <time>2018-09-06T07:36:13.000Z</time>
      </trkpt>
      <trkpt lat="43.38706366717815399169921875" lon="-4.28090239875018596649169921875">
        <ele>18.200000762939453125</ele>
        <time>2018-09-06T07:36:16.000Z</time>
      </trkpt>
      <trkpt lat="43.38706224225461483001708984375" lon="-4.2809938453137874603271484375">
        <ele>18.3999996185302734375</ele>
        <time>2018-09-06T07:36:18.000Z</time>
      </trkpt>
      <trkpt lat="43.387079425156116485595703125" lon="-4.28139475174248218536376953125">
        <ele>18.6000003814697265625</ele>
        <time>2018-09-06T07:36:26.000Z</time>
      </trkpt>
      <trkpt lat="43.38712544180452823638916015625" lon="-4.28153657354414463043212890625">
        <ele>18.3999996185302734375</ele>
        <time>2018-09-06T07:36:29.000Z</time>
      </trkpt>
      <trkpt lat="43.38716802187263965606689453125" lon="-4.2816238291561603546142578125">
        <ele>18.3999996185302734375</ele>
        <time>2018-09-06T07:36:31.000Z</time>
      </trkpt>
      <trkpt lat="43.38721144013106822967529296875" lon="-4.28171376697719097137451171875">
        <ele>18.3999996185302734375</ele>
        <time>2018-09-06T07:36:33.000Z</time>
      </trkpt>
      <trkpt lat="43.38732107542455196380615234375" lon="-4.28199447691440582275390625">
        <ele>18.200000762939453125</ele>
        <time>2018-09-06T07:36:39.000Z</time>
      </trkpt>
      <trkpt lat="43.3873649127781391143798828125" lon="-4.2820935510098934173583984375">
        <ele>18.3999996185302734375</ele>
        <time>2018-09-06T07:36:41.000Z</time>
      </trkpt>
      <trkpt lat="43.38737790472805500030517578125" lon="-4.28227099590003490447998046875">
        <ele>18</ele>
        <time>2018-09-06T07:36:44.000Z</time>
      </trkpt>
      <trkpt lat="43.387322165071964263916015625" lon="-4.28244114853441715240478515625">
        <ele>19</ele>
        <time>2018-09-06T07:36:48.000Z</time>
      </trkpt>
      <trkpt lat="43.38730649091303348541259765625" lon="-4.2824791185557842254638671875">
        <ele>19.200000762939453125</ele>
        <time>2018-09-06T07:36:49.000Z</time>
      </trkpt>
      <trkpt lat="43.38729542680084705352783203125" lon="-4.28251708857715129852294921875">
        <ele>19.3999996185302734375</ele>
        <time>2018-09-06T07:36:50.000Z</time>
      </trkpt>
      <trkpt lat="43.3872673474252223968505859375" lon="-4.28264223039150238037109375">
        <ele>20.3999996185302734375</ele>
        <time>2018-09-06T07:36:53.000Z</time>
      </trkpt>
      <trkpt lat="43.38726139627397060394287109375" lon="-4.28268103860318660736083984375">
        <ele>20.3999996185302734375</ele>
        <time>2018-09-06T07:36:54.000Z</time>
      </trkpt>
      <trkpt lat="43.38725519366562366485595703125" lon="-4.28272127173840999603271484375">
        <ele>20.6000003814697265625</ele>
        <time>2018-09-06T07:36:55.000Z</time>
      </trkpt>
      <trkpt lat="43.3872455544769763946533203125" lon="-4.28285219706594944000244140625">
        <ele>21.3999996185302734375</ele>
        <time>2018-09-06T07:36:58.000Z</time>
      </trkpt>
      <trkpt lat="43.38724144734442234039306640625" lon="-4.2828948609530925750732421875">
        <ele>21.6000003814697265625</ele>
        <time>2018-09-06T07:36:59.000Z</time>
      </trkpt>
      <trkpt lat="43.38722351007163524627685546875" lon="-4.28306945599615573883056640625">
        <ele>22.200000762939453125</ele>
        <time>2018-09-06T07:37:03.000Z</time>
      </trkpt>
      <trkpt lat="43.38721194304525852203369140625" lon="-4.2832502536475658416748046875">
        <ele>22.6000003814697265625</ele>
        <time>2018-09-06T07:37:07.000Z</time>
      </trkpt>
      <trkpt lat="43.3871997892856597900390625" lon="-4.2833924107253551483154296875">
        <ele>23</ele>
        <time>2018-09-06T07:37:10.000Z</time>
      </trkpt>
      <trkpt lat="43.38718847371637821197509765625" lon="-4.283578656613826751708984375">
        <ele>24</ele>
        <time>2018-09-06T07:37:14.000Z</time>
      </trkpt>
      <trkpt lat="43.38718310929834842681884765625" lon="-4.28371109068393707275390625">
        <ele>24</ele>
        <time>2018-09-06T07:37:17.000Z</time>
      </trkpt>
      <trkpt lat="43.38719216175377368927001953125" lon="-4.28404075093567371368408203125">
        <ele>24.799999237060546875</ele>
        <time>2018-09-06T07:37:24.000Z</time>
      </trkpt>
      <trkpt lat="43.38719232939183712005615234375" lon="-4.28408903069794178009033203125">
        <ele>25</ele>
        <time>2018-09-06T07:37:25.000Z</time>
      </trkpt>
      <trkpt lat="43.38718025945127010345458984375" lon="-4.284285418689250946044921875">
        <ele>23.3999996185302734375</ele>
        <time>2018-09-06T07:37:29.000Z</time>
      </trkpt>
      <trkpt lat="43.38716919533908367156982421875" lon="-4.28444199264049530029296875">
        <ele>26</ele>
        <time>2018-09-06T07:37:32.000Z</time>
      </trkpt>
      <trkpt lat="43.38716827332973480224609375" lon="-4.28449689410626888275146484375">
        <ele>26.200000762939453125</ele>
        <time>2018-09-06T07:37:33.000Z</time>
      </trkpt>
      <trkpt lat="43.38718880899250507354736328125" lon="-4.28482278250157833099365234375">
        <ele>27</ele>
        <time>2018-09-06T07:37:41.000Z</time>
      </trkpt>
      <trkpt lat="43.38719015009701251983642578125" lon="-4.2852092720568180084228515625">
        <ele>27.6000003814697265625</ele>
        <time>2018-09-06T07:37:49.000Z</time>
      </trkpt>
      <trkpt lat="43.38719299994409084320068359375" lon="-4.285358302295207977294921875">
        <ele>28.6000003814697265625</ele>
        <time>2018-09-06T07:37:52.000Z</time>
      </trkpt>
      <trkpt lat="43.3871925808489322662353515625" lon="-4.285640604794025421142578125">
        <ele>29.200000762939453125</ele>
        <time>2018-09-06T07:37:58.000Z</time>
      </trkpt>
      <trkpt lat="43.38717824779450893402099609375" lon="-4.28576826117932796478271484375">
        <ele>29.799999237060546875</ele>
        <time>2018-09-06T07:38:01.000Z</time>
      </trkpt>
      <trkpt lat="43.3871526829898357391357421875" lon="-4.28595216013491153717041015625">
        <ele>30.6000003814697265625</ele>
        <time>2018-09-06T07:38:05.000Z</time>
      </trkpt>
      <trkpt lat="43.3871510066092014312744140625" lon="-4.28600077517330646514892578125">
        <ele>28.200000762939453125</ele>
        <time>2018-09-06T07:38:06.000Z</time>
      </trkpt>
      <trkpt lat="43.38714103214442729949951171875" lon="-4.2861450277268886566162109375">
        <ele>30.6000003814697265625</ele>
        <time>2018-09-06T07:38:09.000Z</time>
      </trkpt>
      <trkpt lat="43.38712058030068874359130859375" lon="-4.2862969078123569488525390625">
        <ele>30.799999237060546875</ele>
        <time>2018-09-06T07:38:12.000Z</time>
      </trkpt>
      <trkpt lat="43.3870577998459339141845703125" lon="-4.2868253029882907867431640625">
        <ele>31.6000003814697265625</ele>
        <time>2018-09-06T07:38:22.000Z</time>
      </trkpt>
      <trkpt lat="43.38705251924693584442138671875" lon="-4.28687433712184429168701171875">
        <ele>32</ele>
        <time>2018-09-06T07:38:23.000Z</time>
      </trkpt>
      <trkpt lat="43.38704489171504974365234375" lon="-4.2871039174497127532958984375">
        <ele>32.799999237060546875</ele>
        <time>2018-09-06T07:38:28.000Z</time>
      </trkpt>
      <trkpt lat="43.3870386891067028045654296875" lon="-4.2871894128620624542236328125">
        <ele>32.40000152587890625</ele>
        <time>2018-09-06T07:38:30.000Z</time>
      </trkpt>
      <trkpt lat="43.38702343404293060302734375" lon="-4.287310279905796051025390625">
        <ele>34</ele>
        <time>2018-09-06T07:38:33.000Z</time>
      </trkpt>
      <trkpt lat="43.38699149899184703826904296875" lon="-4.28743961267173290252685546875">
        <ele>34.200000762939453125</ele>
        <time>2018-09-06T07:38:36.000Z</time>
      </trkpt>
      <trkpt lat="43.38697892613708972930908203125" lon="-4.28771655075252056121826171875">
        <ele>35.200000762939453125</ele>
        <time>2018-09-06T07:38:41.000Z</time>
      </trkpt>
      <trkpt lat="43.38697783648967742919921875" lon="-4.28782450966536998748779296875">
        <ele>35.40000152587890625</ele>
        <time>2018-09-06T07:38:43.000Z</time>
      </trkpt>
      <trkpt lat="43.38694338686764240264892578125" lon="-4.28804981522262096405029296875">
        <ele>36.200000762939453125</ele>
        <time>2018-09-06T07:38:47.000Z</time>
      </trkpt>
      <trkpt lat="43.3869342505931854248046875" lon="-4.28814612329006195068359375">
        <ele>37</ele>
        <time>2018-09-06T07:38:49.000Z</time>
      </trkpt>
      <trkpt lat="43.3869235217571258544921875" lon="-4.288244359195232391357421875">
        <ele>37.40000152587890625</ele>
        <time>2018-09-06T07:38:51.000Z</time>
      </trkpt>
      <trkpt lat="43.38688555173575878143310546875" lon="-4.288438148796558380126953125">
        <ele>38</ele>
        <time>2018-09-06T07:38:55.000Z</time>
      </trkpt>
      <trkpt lat="43.38686945848166942596435546875" lon="-4.28848098032176494598388671875">
        <ele>38.200000762939453125</ele>
        <time>2018-09-06T07:38:56.000Z</time>
      </trkpt>
      <trkpt lat="43.386850766837596893310546875" lon="-4.28857049904763698577880859375">
        <ele>38.59999847412109375</ele>
        <time>2018-09-06T07:38:58.000Z</time>
      </trkpt>
      <trkpt lat="43.3868324942886829376220703125" lon="-4.2887891829013824462890625">
        <ele>38</ele>
        <time>2018-09-06T07:39:02.000Z</time>
      </trkpt>
      <trkpt lat="43.3867892436683177947998046875" lon="-4.289032928645610809326171875">
        <ele>38.200000762939453125</ele>
        <time>2018-09-06T07:39:06.000Z</time>
      </trkpt>
      <trkpt lat="43.38677859865128993988037109375" lon="-4.289096631109714508056640625">
        <ele>37.799999237060546875</ele>
        <time>2018-09-06T07:39:07.000Z</time>
      </trkpt>
      <trkpt lat="43.3867652714252471923828125" lon="-4.2891620099544525146484375">
        <ele>37.59999847412109375</ele>
        <time>2018-09-06T07:39:08.000Z</time>
      </trkpt>
      <trkpt lat="43.3867456577718257904052734375" lon="-4.289289414882659912109375">
        <ele>37.40000152587890625</ele>
        <time>2018-09-06T07:39:10.000Z</time>
      </trkpt>
      <trkpt lat="43.38674389757215976715087890625" lon="-4.2893559671938419342041015625">
        <ele>37.200000762939453125</ele>
        <time>2018-09-06T07:39:11.000Z</time>
      </trkpt>
      <trkpt lat="43.386746160686016082763671875" lon="-4.28942511789500713348388671875">
        <ele>36.40000152587890625</ele>
        <time>2018-09-06T07:39:12.000Z</time>
      </trkpt>
      <trkpt lat="43.3867446519434452056884765625" lon="-4.2895648442208766937255859375">
        <ele>35.59999847412109375</ele>
        <time>2018-09-06T07:39:14.000Z</time>
      </trkpt>
      <trkpt lat="43.3867399580776691436767578125" lon="-4.289632737636566162109375">
        <ele>35.200000762939453125</ele>
        <time>2018-09-06T07:39:15.000Z</time>
      </trkpt>
      <trkpt lat="43.3867252059280872344970703125" lon="-4.289689399302005767822265625">
        <ele>35.200000762939453125</ele>
        <time>2018-09-06T07:39:16.000Z</time>
      </trkpt>
      <trkpt lat="43.3867169916629791259765625" lon="-4.289789982140064239501953125">
        <ele>35.200000762939453125</ele>
        <time>2018-09-06T07:39:18.000Z</time>
      </trkpt>
      <trkpt lat="43.38670584373176097869873046875" lon="-4.289924763143062591552734375">
        <ele>36</ele>
        <time>2018-09-06T07:39:21.000Z</time>
      </trkpt>
      <trkpt lat="43.38671657256782054901123046875" lon="-4.29001000709831714630126953125">
        <ele>36.40000152587890625</ele>
        <time>2018-09-06T07:39:23.000Z</time>
      </trkpt>
      <trkpt lat="43.38673065416514873504638671875" lon="-4.29008946754038333892822265625">
        <ele>36.40000152587890625</ele>
        <time>2018-09-06T07:39:25.000Z</time>
      </trkpt>
      <trkpt lat="43.3867362700402736663818359375" lon="-4.2901462130248546600341796875">
        <ele>36</ele>
        <time>2018-09-06T07:39:27.000Z</time>
      </trkpt>
      <trkpt lat="43.3867557160556316375732421875" lon="-4.290168844163417816162109375">
        <ele>36</ele>
        <time>2018-09-06T07:39:29.000Z</time>
      </trkpt>
      <trkpt lat="43.38675655424594879150390625" lon="-4.29019776172935962677001953125">
        <ele>36.200000762939453125</ele>
        <time>2018-09-06T07:39:30.000Z</time>
      </trkpt>
      <trkpt lat="43.38671229779720306396484375" lon="-4.29034293629229068756103515625">
        <ele>35.799999237060546875</ele>
        <time>2018-09-06T07:39:34.000Z</time>
      </trkpt>
      <trkpt lat="43.38665421120822429656982421875" lon="-4.29038568399846553802490234375">
        <ele>34.799999237060546875</ele>
        <time>2018-09-06T07:39:36.000Z</time>
      </trkpt>
      <trkpt lat="43.386590592563152313232421875" lon="-4.29042289964854717254638671875">
        <ele>34.200000762939453125</ele>
        <time>2018-09-06T07:39:38.000Z</time>
      </trkpt>
      <trkpt lat="43.3865518681704998016357421875" lon="-4.290439747273921966552734375">
        <ele>33.59999847412109375</ele>
        <time>2018-09-06T07:39:39.000Z</time>
      </trkpt>
      <trkpt lat="43.386459164321422576904296875" lon="-4.2904843389987945556640625">
        <ele>32.200000762939453125</ele>
        <time>2018-09-06T07:39:41.000Z</time>
      </trkpt>
      <trkpt lat="43.38641113601624965667724609375" lon="-4.29051375947892665863037109375">
        <ele>31</ele>
        <time>2018-09-06T07:39:42.000Z</time>
      </trkpt>
      <trkpt lat="43.38636637665331363677978515625" lon="-4.2905482091009616851806640625">
        <ele>30</ele>
        <time>2018-09-06T07:39:43.000Z</time>
      </trkpt>
      <trkpt lat="43.38625053875148296356201171875" lon="-4.2906367219984531402587890625">
        <ele>28.799999237060546875</ele>
        <time>2018-09-06T07:39:46.000Z</time>
      </trkpt>
      <trkpt lat="43.3861860819160938262939453125" lon="-4.29068910889327526092529296875">
        <ele>28.3999996185302734375</ele>
        <time>2018-09-06T07:39:48.000Z</time>
      </trkpt>
      <trkpt lat="43.38609262369573116302490234375" lon="-4.2908103950321674346923828125">
        <ele>27.3999996185302734375</ele>
        <time>2018-09-06T07:39:51.000Z</time>
      </trkpt>
      <trkpt lat="43.3860238082706928253173828125" lon="-4.29090636782348155975341796875">
        <ele>25.799999237060546875</ele>
        <time>2018-09-06T07:39:53.000Z</time>
      </trkpt>
      <trkpt lat="43.38595733977854251861572265625" lon="-4.29097929038107395172119140625">
        <ele>25</ele>
        <time>2018-09-06T07:39:55.000Z</time>
      </trkpt>
      <trkpt lat="43.3859041146934032440185546875" lon="-4.29102103225886821746826171875">
        <ele>25.200000762939453125</ele>
        <time>2018-09-06T07:39:57.000Z</time>
      </trkpt>
      <trkpt lat="43.38587385602295398712158203125" lon="-4.29110015742480754852294921875">
        <ele>24.799999237060546875</ele>
        <time>2018-09-06T07:40:00.000Z</time>
      </trkpt>
      <trkpt lat="43.38587570004165172576904296875" lon="-4.29113234393298625946044921875">
        <ele>24.799999237060546875</ele>
        <time>2018-09-06T07:40:01.000Z</time>
      </trkpt>
      <trkpt lat="43.385848961770534515380859375" lon="-4.29122772999107837677001953125">
        <ele>24</ele>
        <time>2018-09-06T07:40:05.000Z</time>
      </trkpt>
      <trkpt lat="43.38584954850375652313232421875" lon="-4.29130199365317821502685546875">
        <ele>23.6000003814697265625</ele>
        <time>2018-09-06T07:40:08.000Z</time>
      </trkpt>
      <trkpt lat="43.38584669865667819976806640625" lon="-4.291379190981388092041015625">
        <ele>23.3999996185302734375</ele>
        <time>2018-09-06T07:40:11.000Z</time>
      </trkpt>
      <trkpt lat="43.3857783861458301544189453125" lon="-4.29152704775333404541015625">
        <ele>21.799999237060546875</ele>
        <time>2018-09-06T07:40:15.000Z</time>
      </trkpt>
      <trkpt lat="43.3857411704957485198974609375" lon="-4.29158111102879047393798828125">
        <ele>21.799999237060546875</ele>
        <time>2018-09-06T07:40:16.000Z</time>
      </trkpt>
      <trkpt lat="43.38562239892780780792236328125" lon="-4.29176718927919864654541015625">
        <ele>21.6000003814697265625</ele>
        <time>2018-09-06T07:40:20.000Z</time>
      </trkpt>
      <trkpt lat="43.38553958572447299957275390625" lon="-4.29195620119571685791015625">
        <ele>20.799999237060546875</ele>
        <time>2018-09-06T07:40:25.000Z</time>
      </trkpt>
      <trkpt lat="43.38552516885101795196533203125" lon="-4.29201629944145679473876953125">
        <ele>21.3999996185302734375</ele>
        <time>2018-09-06T07:40:27.000Z</time>
      </trkpt>
      <trkpt lat="43.3855446986854076385498046875" lon="-4.29209961555898189544677734375">
        <ele>20.799999237060546875</ele>
        <time>2018-09-06T07:40:31.000Z</time>
      </trkpt>
      <trkpt lat="43.38558099232614040374755859375" lon="-4.29213322699069976806640625">
        <ele>20.6000003814697265625</ele>
        <time>2018-09-06T07:40:33.000Z</time>
      </trkpt>
      <trkpt lat="43.38561837561428546905517578125" lon="-4.29219424724578857421875">
        <ele>20.3999996185302734375</ele>
        <time>2018-09-06T07:40:35.000Z</time>
      </trkpt>
      <trkpt lat="43.38561795651912689208984375" lon="-4.29224210791289806365966796875">
        <ele>20.6000003814697265625</ele>
        <time>2018-09-06T07:40:36.000Z</time>
      </trkpt>
      <trkpt lat="43.3855745382606983184814453125" lon="-4.29234537295997142791748046875">
        <ele>20.799999237060546875</ele>
        <time>2018-09-06T07:40:38.000Z</time>
      </trkpt>
      <trkpt lat="43.385484181344509124755859375" lon="-4.29258727468550205230712890625">
        <ele>20</ele>
        <time>2018-09-06T07:40:43.000Z</time>
      </trkpt>
      <trkpt lat="43.3854672499001026153564453125" lon="-4.2926394939422607421875">
        <ele>19.799999237060546875</ele>
        <time>2018-09-06T07:40:44.000Z</time>
      </trkpt>
      <trkpt lat="43.3854203112423419952392578125" lon="-4.29281123913824558258056640625">
        <ele>19.799999237060546875</ele>
        <time>2018-09-06T07:40:47.000Z</time>
      </trkpt>
      <trkpt lat="43.38541234843432903289794921875" lon="-4.2928634583950042724609375">
        <ele>19.799999237060546875</ele>
        <time>2018-09-06T07:40:48.000Z</time>
      </trkpt>
      <trkpt lat="43.3854027092456817626953125" lon="-4.2929152585566043853759765625">
        <ele>19.3999996185302734375</ele>
        <time>2018-09-06T07:40:49.000Z</time>
      </trkpt>
      <trkpt lat="43.385388292372226715087890625" lon="-4.29297317750751972198486328125">
        <ele>19.200000762939453125</ele>
        <time>2018-09-06T07:40:50.000Z</time>
      </trkpt>
      <trkpt lat="43.38526667095720767974853515625" lon="-4.29337643086910247802734375">
        <ele>19</ele>
        <time>2018-09-06T07:40:56.000Z</time>
      </trkpt>
      <trkpt lat="43.385256193578243255615234375" lon="-4.29344457574188709259033203125">
        <ele>19.200000762939453125</ele>
        <time>2018-09-06T07:40:57.000Z</time>
      </trkpt>
      <trkpt lat="43.38520757853984832763671875" lon="-4.29369016550481319427490234375">
        <ele>19.3999996185302734375</ele>
        <time>2018-09-06T07:41:01.000Z</time>
      </trkpt>
      <trkpt lat="43.385196514427661895751953125" lon="-4.29374984465539455413818359375">
        <ele>19.3999996185302734375</ele>
        <time>2018-09-06T07:41:02.000Z</time>
      </trkpt>
      <trkpt lat="43.38510942645370960235595703125" lon="-4.29418117739260196685791015625">
        <ele>20.6000003814697265625</ele>
        <time>2018-09-06T07:41:10.000Z</time>
      </trkpt>
      <trkpt lat="43.3850461430847644805908203125" lon="-4.29446917958557605743408203125">
        <ele>21.3999996185302734375</ele>
        <time>2018-09-06T07:41:16.000Z</time>
      </trkpt>
      <trkpt lat="43.385035581886768341064453125" lon="-4.294519387185573577880859375">
        <ele>21.6000003814697265625</ele>
        <time>2018-09-06T07:41:17.000Z</time>
      </trkpt>
      <trkpt lat="43.38498218916356563568115234375" lon="-4.29476941935718059539794921875">
        <ele>22.200000762939453125</ele>
        <time>2018-09-06T07:41:22.000Z</time>
      </trkpt>
      <trkpt lat="43.38495251722633838653564453125" lon="-4.29491333663463592529296875">
        <ele>22.3999996185302734375</ele>
        <time>2018-09-06T07:41:25.000Z</time>
      </trkpt>
      <trkpt lat="43.384931981563568115234375" lon="-4.29500453174114227294921875">
        <ele>22.6000003814697265625</ele>
        <time>2018-09-06T07:41:27.000Z</time>
      </trkpt>
      <trkpt lat="43.3848743140697479248046875" lon="-4.2952856607735157012939453125">
        <ele>22</ele>
        <time>2018-09-06T07:41:33.000Z</time>
      </trkpt>
      <trkpt lat="43.38484388776123523712158203125" lon="-4.29542287252843379974365234375">
        <ele>23.799999237060546875</ele>
        <time>2018-09-06T07:41:36.000Z</time>
      </trkpt>
      <trkpt lat="43.3847946859896183013916015625" lon="-4.29563828743994235992431640625">
        <ele>24.6000003814697265625</ele>
        <time>2018-09-06T07:41:41.000Z</time>
      </trkpt>
      <trkpt lat="43.38478152640163898468017578125" lon="-4.29571255110204219818115234375">
        <ele>25</ele>
        <time>2018-09-06T07:41:43.000Z</time>
      </trkpt>
      <trkpt lat="43.38474917225539684295654296875" lon="-4.29587096907198429107666015625">
        <ele>25.200000762939453125</ele>
        <time>2018-09-06T07:41:48.000Z</time>
      </trkpt>
      <trkpt lat="43.38472402654588222503662109375" lon="-4.29604497738182544708251953125">
        <ele>25.6000003814697265625</ele>
        <time>2018-09-06T07:41:54.000Z</time>
      </trkpt>
      <trkpt lat="43.384717404842376708984375" lon="-4.296090491116046905517578125">
        <ele>26</ele>
        <time>2018-09-06T07:41:56.000Z</time>
      </trkpt>
      <trkpt lat="43.384710364043712615966796875" lon="-4.2961349152028560638427734375">
        <ele>26.200000762939453125</ele>
        <time>2018-09-06T07:41:59.000Z</time>
      </trkpt>
      <trkpt lat="43.38470491580665111541748046875" lon="-4.29615075699985027313232421875">
        <ele>26.200000762939453125</ele>
        <time>2018-09-06T07:42:00.000Z</time>
      </trkpt>
      <trkpt lat="43.38469703681766986846923828125" lon="-4.2961721308529376983642578125">
        <ele>26.3999996185302734375</ele>
        <time>2018-09-06T07:42:02.000Z</time>
      </trkpt>
      <trkpt lat="43.38468446396291255950927734375" lon="-4.29617690853774547576904296875">
        <ele>26.3999996185302734375</ele>
        <time>2018-09-06T07:42:03.000Z</time>
      </trkpt>
      <trkpt lat="43.3846428059041500091552734375" lon="-4.29617623798549175262451171875">
        <ele>26.3999996185302734375</ele>
        <time>2018-09-06T07:42:06.000Z</time>
      </trkpt>
      <trkpt lat="43.38458840735256671905517578125" lon="-4.29612779058516025543212890625">
        <ele>27</ele>
        <time>2018-09-06T07:42:10.000Z</time>
      </trkpt>
      <trkpt lat="43.38457700796425342559814453125" lon="-4.296107925474643707275390625">
        <ele>27.200000762939453125</ele>
        <time>2018-09-06T07:42:11.000Z</time>
      </trkpt>
      <trkpt lat="43.38456292636692523956298828125" lon="-4.2960873059928417205810546875">
        <ele>27.200000762939453125</ele>
        <time>2018-09-06T07:42:12.000Z</time>
      </trkpt>
      <trkpt lat="43.38448472321033477783203125" lon="-4.2959347553551197052001953125">
        <ele>27</ele>
        <time>2018-09-06T07:42:18.000Z</time>
      </trkpt>
      <trkpt lat="43.384492099285125732421875" lon="-4.29586350917816162109375">
        <ele>26.799999237060546875</ele>
        <time>2018-09-06T07:42:20.000Z</time>
      </trkpt>
      <trkpt lat="43.38451514951884746551513671875" lon="-4.29577189497649669647216796875">
        <ele>26.6000003814697265625</ele>
        <time>2018-09-06T07:42:23.000Z</time>
      </trkpt>
      <trkpt lat="43.3845180831849575042724609375" lon="-4.29575286805629730224609375">
        <ele>26.6000003814697265625</ele>
        <time>2018-09-06T07:42:24.000Z</time>
      </trkpt>
      <trkpt lat="43.38451565243303775787353515625" lon="-4.2956931889057159423828125">
        <ele>26.6000003814697265625</ele>
        <time>2018-09-06T07:42:27.000Z</time>
      </trkpt>
      <trkpt lat="43.38448396883904933929443359375" lon="-4.295627810060977935791015625">
        <ele>26.200000762939453125</ele>
        <time>2018-09-06T07:42:30.000Z</time>
      </trkpt>
      <trkpt lat="43.38447307236492633819580078125" lon="-4.29560341872274875640869140625">
        <ele>26.200000762939453125</ele>
        <time>2018-09-06T07:42:31.000Z</time>
      </trkpt>
      <trkpt lat="43.3844704739749431610107421875" lon="-4.295573495328426361083984375">
        <ele>26.200000762939453125</ele>
        <time>2018-09-06T07:42:32.000Z</time>
      </trkpt>
      <trkpt lat="43.3844751678407192230224609375" lon="-4.295544326305389404296875">
        <ele>26.3999996185302734375</ele>
        <time>2018-09-06T07:42:33.000Z</time>
      </trkpt>
      <trkpt lat="43.3844827115535736083984375" lon="-4.29544919170439243316650390625">
        <ele>26.3999996185302734375</ele>
        <time>2018-09-06T07:43:51.000Z</time>
      </trkpt>
      <trkpt lat="43.3844719827175140380859375" lon="-4.2954330146312713623046875">
        <ele>26.200000762939453125</ele>
        <time>2018-09-06T07:43:52.000Z</time>
      </trkpt>
      <trkpt lat="43.3844527043402194976806640625" lon="-4.2954194359481334686279296875">
        <ele>26.200000762939453125</ele>
        <time>2018-09-06T07:43:53.000Z</time>
      </trkpt>
      <trkpt lat="43.3844089508056640625" lon="-4.29543309845030307769775390625">
        <ele>26</ele>
        <time>2018-09-06T07:43:55.000Z</time>
      </trkpt>
      <trkpt lat="43.38439746759831905364990234375" lon="-4.29546360857784748077392578125">
        <ele>26</ele>
        <time>2018-09-06T07:43:56.000Z</time>
      </trkpt>
      <trkpt lat="43.384395204484462738037109375" lon="-4.29549763910472393035888671875">
        <ele>26.200000762939453125</ele>
        <time>2018-09-06T07:43:57.000Z</time>
      </trkpt>
      <trkpt lat="43.38440082035958766937255859375" lon="-4.2955805361270904541015625">
        <ele>26.3999996185302734375</ele>
        <time>2018-09-06T07:43:59.000Z</time>
      </trkpt>
      <trkpt lat="43.384409286081790924072265625" lon="-4.29562948644161224365234375">
        <ele>26.3999996185302734375</ele>
        <time>2018-09-06T07:44:00.000Z</time>
      </trkpt>
      <trkpt lat="43.38443250395357608795166015625" lon="-4.29572344757616519927978515625">
        <ele>27</ele>
        <time>2018-09-06T07:44:02.000Z</time>
      </trkpt>
      <trkpt lat="43.3844761736690998077392578125" lon="-4.29583224467933177947998046875">
        <ele>27.200000762939453125</ele>
        <time>2018-09-06T07:44:05.000Z</time>
      </trkpt>
      <trkpt lat="43.38447122834622859954833984375" lon="-4.2959602363407611846923828125">
        <ele>27.799999237060546875</ele>
        <time>2018-09-06T07:44:09.000Z</time>
      </trkpt>
      <trkpt lat="43.38451079092919826507568359375" lon="-4.296080432832241058349609375">
        <ele>27.3999996185302734375</ele>
        <time>2018-09-06T07:44:13.000Z</time>
      </trkpt>
      <trkpt lat="43.38453694246709346771240234375" lon="-4.2960963584482669830322265625">
        <ele>27</ele>
        <time>2018-09-06T07:44:14.000Z</time>
      </trkpt>
      <trkpt lat="43.3846114575862884521484375" lon="-4.296156205236911773681640625">
        <ele>27</ele>
        <time>2018-09-06T07:44:20.000Z</time>
      </trkpt>
      <trkpt lat="43.38463450782001018524169921875" lon="-4.29626391269266605377197265625">
        <ele>27</ele>
        <time>2018-09-06T07:44:23.000Z</time>
      </trkpt>
      <trkpt lat="43.38463434018194675445556640625" lon="-4.29629869759082794189453125">
        <ele>27</ele>
        <time>2018-09-06T07:44:24.000Z</time>
      </trkpt>
      <trkpt lat="43.38462688028812408447265625" lon="-4.29637187160551548004150390625">
        <ele>27.3999996185302734375</ele>
        <time>2018-09-06T07:44:26.000Z</time>
      </trkpt>
      <trkpt lat="43.38461740873754024505615234375" lon="-4.29644915275275707244873046875">
        <ele>27.799999237060546875</ele>
        <time>2018-09-06T07:44:28.000Z</time>
      </trkpt>
      <trkpt lat="43.384609110653400421142578125" lon="-4.2965245060622692108154296875">
        <ele>28.200000762939453125</ele>
        <time>2018-09-06T07:44:30.000Z</time>
      </trkpt>
      <trkpt lat="43.38460433296859264373779296875" lon="-4.2965613864362239837646484375">
        <ele>28.3999996185302734375</ele>
        <time>2018-09-06T07:44:31.000Z</time>
      </trkpt>
      <trkpt lat="43.38460274040699005126953125" lon="-4.296631626784801483154296875">
        <ele>29</ele>
        <time>2018-09-06T07:44:33.000Z</time>
      </trkpt>
      <trkpt lat="43.38460349477827548980712890625" lon="-4.2966680042445659637451171875">
        <ele>29.200000762939453125</ele>
        <time>2018-09-06T07:44:34.000Z</time>
      </trkpt>
      <trkpt lat="43.38462780229747295379638671875" lon="-4.296762384474277496337890625">
        <ele>29.799999237060546875</ele>
        <time>2018-09-06T07:44:37.000Z</time>
      </trkpt>
      <trkpt lat="43.38469033129513263702392578125" lon="-4.29683589376509189605712890625">
        <ele>30.200000762939453125</ele>
        <time>2018-09-06T07:44:40.000Z</time>
      </trkpt>
      <trkpt lat="43.3847080171108245849609375" lon="-4.29685148410499095916748046875">
        <ele>30.6000003814697265625</ele>
        <time>2018-09-06T07:44:41.000Z</time>
      </trkpt>
      <trkpt lat="43.384776413440704345703125" lon="-4.2970208823680877685546875">
        <ele>31.3999996185302734375</ele>
        <time>2018-09-06T07:44:47.000Z</time>
      </trkpt>
      <trkpt lat="43.38476635515689849853515625" lon="-4.29714937694370746612548828125">
        <ele>31.200000762939453125</ele>
        <time>2018-09-06T07:44:50.000Z</time>
      </trkpt>
      <trkpt lat="43.3847393654286861419677734375" lon="-4.2972342856228351593017578125">
        <ele>31.3999996185302734375</ele>
        <time>2018-09-06T07:44:52.000Z</time>
      </trkpt>
      <trkpt lat="43.38466040790081024169921875" lon="-4.29732405580580234527587890625">
        <ele>31.3999996185302734375</ele>
        <time>2018-09-06T07:44:55.000Z</time>
      </trkpt>
      <trkpt lat="43.3846307359635829925537109375" lon="-4.297345764935016632080078125">
        <ele>31.3999996185302734375</ele>
        <time>2018-09-06T07:44:56.000Z</time>
      </trkpt>
      <trkpt lat="43.38450173847377300262451171875" lon="-4.29744542576372623443603515625">
        <ele>31.200000762939453125</ele>
        <time>2018-09-06T07:45:00.000Z</time>
      </trkpt>
      <trkpt lat="43.38444985449314117431640625" lon="-4.29751348681747913360595703125">
        <ele>30.3999996185302734375</ele>
        <time>2018-09-06T07:45:02.000Z</time>
      </trkpt>
      <trkpt lat="43.3843923546373844146728515625" lon="-4.29764089174568653106689453125">
        <ele>30.200000762939453125</ele>
        <time>2018-09-06T07:45:05.000Z</time>
      </trkpt>
      <trkpt lat="43.3843631856143474578857421875" lon="-4.2977304942905902862548828125">
        <ele>30.799999237060546875</ele>
        <time>2018-09-06T07:45:07.000Z</time>
      </trkpt>
      <trkpt lat="43.38433108292520046234130859375" lon="-4.297904670238494873046875">
        <ele>31.3999996185302734375</ele>
        <time>2018-09-06T07:45:11.000Z</time>
      </trkpt>
      <trkpt lat="43.3843202702701091766357421875" lon="-4.2979462444782257080078125">
        <ele>31.6000003814697265625</ele>
        <time>2018-09-06T07:45:12.000Z</time>
      </trkpt>
      <trkpt lat="43.384290598332881927490234375" lon="-4.2980754934251308441162109375">
        <ele>32.200000762939453125</ele>
        <time>2018-09-06T07:45:15.000Z</time>
      </trkpt>
      <trkpt lat="43.38425531052052974700927734375" lon="-4.2982364259660243988037109375">
        <ele>32.59999847412109375</ele>
        <time>2018-09-06T07:45:19.000Z</time>
      </trkpt>
      <trkpt lat="43.3842170052230358123779296875" lon="-4.2983923293650150299072265625">
        <ele>33.799999237060546875</ele>
        <time>2018-09-06T07:45:23.000Z</time>
      </trkpt>
      <trkpt lat="43.38419772684574127197265625" lon="-4.2984692752361297607421875">
        <ele>34.200000762939453125</ele>
        <time>2018-09-06T07:45:25.000Z</time>
      </trkpt>
      <trkpt lat="43.38415942154824733734130859375" lon="-4.29865275509655475616455078125">
        <ele>34.799999237060546875</ele>
        <time>2018-09-06T07:45:30.000Z</time>
      </trkpt>
      <trkpt lat="43.3841261453926563262939453125" lon="-4.29883212782442569732666015625">
        <ele>35.799999237060546875</ele>
        <time>2018-09-06T07:45:35.000Z</time>
      </trkpt>
      <trkpt lat="43.384116254746913909912109375" lon="-4.298869930207729339599609375">
        <ele>36</ele>
        <time>2018-09-06T07:45:36.000Z</time>
      </trkpt>
      <trkpt lat="43.38409488089382648468017578125" lon="-4.29897344671189785003662109375">
        <ele>36.40000152587890625</ele>
        <time>2018-09-06T07:45:39.000Z</time>
      </trkpt>
      <trkpt lat="43.38408130221068859100341796875" lon="-4.2990826629102230072021484375">
        <ele>37.200000762939453125</ele>
        <time>2018-09-06T07:45:43.000Z</time>
      </trkpt>
      <trkpt lat="43.38403947651386260986328125" lon="-4.29928936064243316650390625">
        <ele>38.200000762939453125</ele>
        <time>2018-09-06T07:45:49.000Z</time>
      </trkpt>
      <trkpt lat="43.3839786238968372344970703125" lon="-4.299519360065460205078125">
        <ele>39.40000152587890625</ele>
        <time>2018-09-06T07:45:55.000Z</time>
      </trkpt>
      <trkpt lat="43.383957333862781524658203125" lon="-4.29960007779300212860107421875">
        <ele>39.799999237060546875</ele>
        <time>2018-09-06T07:45:57.000Z</time>
      </trkpt>
      <trkpt lat="43.38391785509884357452392578125" lon="-4.2997310869395732879638671875">
        <ele>40.59999847412109375</ele>
        <time>2018-09-06T07:46:01.000Z</time>
      </trkpt>
      <trkpt lat="43.38391047902405261993408203125" lon="-4.29976654238998889923095703125">
        <ele>40.59999847412109375</ele>
        <time>2018-09-06T07:46:02.000Z</time>
      </trkpt>
      <trkpt lat="43.3838684856891632080078125" lon="-4.3000254593789577484130859375">
        <ele>41.59999847412109375</ele>
        <time>2018-09-06T07:46:09.000Z</time>
      </trkpt>
      <trkpt lat="43.38384124450385570526123046875" lon="-4.300253950059413909912109375">
        <ele>42.799999237060546875</ele>
        <time>2018-09-06T07:46:15.000Z</time>
      </trkpt>
      <trkpt lat="43.3837526477873325347900390625" lon="-4.30044245906174182891845703125">
        <ele>43.799999237060546875</ele>
        <time>2018-09-06T07:46:20.000Z</time>
      </trkpt>
      <trkpt lat="43.38368785567581653594970703125" lon="-4.30062107741832733154296875">
        <ele>43.799999237060546875</ele>
        <time>2018-09-06T07:46:25.000Z</time>
      </trkpt>
      <trkpt lat="43.383689783513545989990234375" lon="-4.3008458800613880157470703125">
        <ele>44</ele>
        <time>2018-09-06T07:46:30.000Z</time>
      </trkpt>
      <trkpt lat="43.38364711962640285491943359375" lon="-4.30117897689342498779296875">
        <ele>44.59999847412109375</ele>
        <time>2018-09-06T07:46:37.000Z</time>
      </trkpt>
      <trkpt lat="43.38360101915895938873291015625" lon="-4.30135575123131275177001953125">
        <ele>44</ele>
        <time>2018-09-06T07:46:40.000Z</time>
      </trkpt>
      <trkpt lat="43.383580148220062255859375" lon="-4.30146639235317707061767578125">
        <ele>44.200000762939453125</ele>
        <time>2018-09-06T07:46:42.000Z</time>
      </trkpt>
      <trkpt lat="43.3835734426975250244140625" lon="-4.3015174381434917449951171875">
        <ele>44</ele>
        <time>2018-09-06T07:46:43.000Z</time>
      </trkpt>
      <trkpt lat="43.38350915350019931793212890625" lon="-4.30171432904899120330810546875">
        <ele>44.200000762939453125</ele>
        <time>2018-09-06T07:46:46.000Z</time>
      </trkpt>
      <trkpt lat="43.3834693394601345062255859375" lon="-4.30184408091008663177490234375">
        <ele>43.59999847412109375</ele>
        <time>2018-09-06T07:46:48.000Z</time>
      </trkpt>
      <trkpt lat="43.3834368176758289337158203125" lon="-4.30198221467435359954833984375">
        <ele>43</ele>
        <time>2018-09-06T07:46:50.000Z</time>
      </trkpt>
      <trkpt lat="43.383420892059803009033203125" lon="-4.30204859934747219085693359375">
        <ele>42.799999237060546875</ele>
        <time>2018-09-06T07:46:51.000Z</time>
      </trkpt>
      <trkpt lat="43.3834042958915233612060546875" lon="-4.30211330763995647430419921875">
        <ele>42.59999847412109375</ele>
        <time>2018-09-06T07:46:52.000Z</time>
      </trkpt>
      <trkpt lat="43.38337068445980548858642578125" lon="-4.302239455282688140869140625">
        <ele>42.40000152587890625</ele>
        <time>2018-09-06T07:46:54.000Z</time>
      </trkpt>
      <trkpt lat="43.3833560161292552947998046875" lon="-4.30230290628969669342041015625">
        <ele>42.200000762939453125</ele>
        <time>2018-09-06T07:46:55.000Z</time>
      </trkpt>
      <trkpt lat="43.38323104195296764373779296875" lon="-4.30271144025027751922607421875">
        <ele>41.59999847412109375</ele>
        <time>2018-09-06T07:47:02.000Z</time>
      </trkpt>
      <trkpt lat="43.38316784240305423736572265625" lon="-4.3028800003230571746826171875">
        <ele>41.59999847412109375</ele>
        <time>2018-09-06T07:47:05.000Z</time>
      </trkpt>
      <trkpt lat="43.38307614438235759735107421875" lon="-4.303108491003513336181640625">
        <ele>41</ele>
        <time>2018-09-06T07:47:09.000Z</time>
      </trkpt>
      <trkpt lat="43.38305921293795108795166015625" lon="-4.30317194201052188873291015625">
        <ele>41.200000762939453125</ele>
        <time>2018-09-06T07:47:10.000Z</time>
      </trkpt>
      <trkpt lat="43.3830257691442966461181640625" lon="-4.30330202914774417877197265625">
        <ele>41.200000762939453125</ele>
        <time>2018-09-06T07:47:12.000Z</time>
      </trkpt>
      <trkpt lat="43.38299333117902278900146484375" lon="-4.30342859588563442230224609375">
        <ele>40.40000152587890625</ele>
        <time>2018-09-06T07:47:14.000Z</time>
      </trkpt>
      <trkpt lat="43.38296533562242984771728515625" lon="-4.30355809628963470458984375">
        <ele>40</ele>
        <time>2018-09-06T07:47:16.000Z</time>
      </trkpt>
      <trkpt lat="43.38293549604713916778564453125" lon="-4.30370050482451915740966796875">
        <ele>39.59999847412109375</ele>
        <time>2018-09-06T07:47:18.000Z</time>
      </trkpt>
      <trkpt lat="43.38290280662477016448974609375" lon="-4.30390804074704647064208984375">
        <ele>39.40000152587890625</ele>
        <time>2018-09-06T07:47:21.000Z</time>
      </trkpt>
      <trkpt lat="43.38287330232560634613037109375" lon="-4.30403762497007846832275390625">
        <ele>39.200000762939453125</ele>
        <time>2018-09-06T07:47:23.000Z</time>
      </trkpt>
      <trkpt lat="43.38284748606383800506591796875" lon="-4.3041641078889369964599609375">
        <ele>38.40000152587890625</ele>
        <time>2018-09-06T07:47:25.000Z</time>
      </trkpt>
      <trkpt lat="43.3828343264758586883544921875" lon="-4.3042348511517047882080078125">
        <ele>38</ele>
        <time>2018-09-06T07:47:26.000Z</time>
      </trkpt>
      <trkpt lat="43.38278981857001781463623046875" lon="-4.3043781816959381103515625">
        <ele>37.40000152587890625</ele>
        <time>2018-09-06T07:47:28.000Z</time>
      </trkpt>
      <trkpt lat="43.38277271948754787445068359375" lon="-4.30445102043449878692626953125">
        <ele>37.200000762939453125</ele>
        <time>2018-09-06T07:47:29.000Z</time>
      </trkpt>
      <trkpt lat="43.38274103589355945587158203125" lon="-4.3045982904732227325439453125">
        <ele>36.59999847412109375</ele>
        <time>2018-09-06T07:47:31.000Z</time>
      </trkpt>
      <trkpt lat="43.38268973864614963531494140625" lon="-4.30479518137872219085693359375">
        <ele>36.40000152587890625</ele>
        <time>2018-09-06T07:47:34.000Z</time>
      </trkpt>
      <trkpt lat="43.38266886770725250244140625" lon="-4.30485703982412815093994140625">
        <ele>36.200000762939453125</ele>
        <time>2018-09-06T07:47:35.000Z</time>
      </trkpt>
      <trkpt lat="43.38261530734598636627197265625" lon="-4.3050002865493297576904296875">
        <ele>35.799999237060546875</ele>
        <time>2018-09-06T07:47:37.000Z</time>
      </trkpt>
      <trkpt lat="43.38250097818672657012939453125" lon="-4.3052507378160953521728515625">
        <ele>34.799999237060546875</ele>
        <time>2018-09-06T07:47:40.000Z</time>
      </trkpt>
      <trkpt lat="43.382421769201755523681640625" lon="-4.30542868562042713165283203125">
        <ele>34.40000152587890625</ele>
        <time>2018-09-06T07:47:42.000Z</time>
      </trkpt>
      <trkpt lat="43.382262848317623138427734375" lon="-4.30576329119503498077392578125">
        <ele>33.59999847412109375</ele>
        <time>2018-09-06T07:47:46.000Z</time>
      </trkpt>
      <trkpt lat="43.3821510337293148040771484375" lon="-4.3060384690761566162109375">
        <ele>33</ele>
        <time>2018-09-06T07:47:49.000Z</time>
      </trkpt>
      <trkpt lat="43.3820807933807373046875" lon="-4.30620602332055568695068359375">
        <ele>32.200000762939453125</ele>
        <time>2018-09-06T07:47:51.000Z</time>
      </trkpt>
      <trkpt lat="43.38195213116705417633056640625" lon="-4.30654213763773441314697265625">
        <ele>30.799999237060546875</ele>
        <time>2018-09-06T07:47:55.000Z</time>
      </trkpt>
      <trkpt lat="43.3819176815450191497802734375" lon="-4.3066277168691158294677734375">
        <ele>30.6000003814697265625</ele>
        <time>2018-09-06T07:47:56.000Z</time>
      </trkpt>
      <trkpt lat="43.38174995966255664825439453125" lon="-4.30705192498862743377685546875">
        <ele>29.200000762939453125</ele>
        <time>2018-09-06T07:48:01.000Z</time>
      </trkpt>
      <trkpt lat="43.38164602406322956085205078125" lon="-4.30730354972183704376220703125">
        <ele>27.799999237060546875</ele>
        <time>2018-09-06T07:48:04.000Z</time>
      </trkpt>
      <trkpt lat="43.38153705932199954986572265625" lon="-4.30756866931915283203125">
        <ele>26.799999237060546875</ele>
        <time>2018-09-06T07:48:07.000Z</time>
      </trkpt>
      <trkpt lat="43.38142390362918376922607421875" lon="-4.30784015916287899017333984375">
        <ele>25.3999996185302734375</ele>
        <time>2018-09-06T07:48:10.000Z</time>
      </trkpt>
      <trkpt lat="43.3813178725540637969970703125" lon="-4.308104105293750762939453125">
        <ele>24</ele>
        <time>2018-09-06T07:48:13.000Z</time>
      </trkpt>
      <trkpt lat="43.3812484703958034515380859375" lon="-4.30827300064265727996826171875">
        <ele>23.6000003814697265625</ele>
        <time>2018-09-06T07:48:15.000Z</time>
      </trkpt>
      <trkpt lat="43.38115073740482330322265625" lon="-4.308519177138805389404296875">
        <ele>24</ele>
        <time>2018-09-06T07:48:18.000Z</time>
      </trkpt>
      <trkpt lat="43.3810670860111713409423828125" lon="-4.3087449856102466583251953125">
        <ele>23.6000003814697265625</ele>
        <time>2018-09-06T07:48:21.000Z</time>
      </trkpt>
      <trkpt lat="43.3810164593160152435302734375" lon="-4.30888119153678417205810546875">
        <ele>24</ele>
        <time>2018-09-06T07:48:23.000Z</time>
      </trkpt>
      <trkpt lat="43.38092786259949207305908203125" lon="-4.30912711657583713531494140625">
        <ele>23.3999996185302734375</ele>
        <time>2018-09-06T07:48:27.000Z</time>
      </trkpt>
      <trkpt lat="43.38075670413672924041748046875" lon="-4.3095436133444309234619140625">
        <ele>24.200000762939453125</ele>
        <time>2018-09-06T07:48:35.000Z</time>
      </trkpt>
      <trkpt lat="43.38064304552972316741943359375" lon="-4.3098128400743007659912109375">
        <ele>24</ele>
        <time>2018-09-06T07:48:41.000Z</time>
      </trkpt>
      <trkpt lat="43.38063097558915615081787109375" lon="-4.309853576123714447021484375">
        <ele>24</ele>
        <time>2018-09-06T07:48:42.000Z</time>
      </trkpt>
      <trkpt lat="43.38054330088198184967041015625" lon="-4.3101001717150211334228515625">
        <ele>23.799999237060546875</ele>
        <time>2018-09-06T07:48:48.000Z</time>
      </trkpt>
      <trkpt lat="43.38051237165927886962890625" lon="-4.31018457747995853424072265625">
        <ele>23.6000003814697265625</ele>
        <time>2018-09-06T07:48:50.000Z</time>
      </trkpt>
      <trkpt lat="43.38043592870235443115234375" lon="-4.31038071401417255401611328125">
        <ele>23.3999996185302734375</ele>
        <time>2018-09-06T07:48:54.000Z</time>
      </trkpt>
      <trkpt lat="43.38038505055010318756103515625" lon="-4.3105028383433818817138671875">
        <ele>22.6000003814697265625</ele>
        <time>2018-09-06T07:48:56.000Z</time>
      </trkpt>
      <trkpt lat="43.380294777452945709228515625" lon="-4.310720264911651611328125">
        <ele>21.799999237060546875</ele>
        <time>2018-09-06T07:48:59.000Z</time>
      </trkpt>
      <trkpt lat="43.3802255429327487945556640625" lon="-4.3108726479113101959228515625">
        <ele>21.6000003814697265625</ele>
        <time>2018-09-06T07:49:01.000Z</time>
      </trkpt>
      <trkpt lat="43.38015940971672534942626953125" lon="-4.311032406985759735107421875">
        <ele>21.200000762939453125</ele>
        <time>2018-09-06T07:49:03.000Z</time>
      </trkpt>
      <trkpt lat="43.38008992373943328857421875" lon="-4.31119660846889019012451171875">
        <ele>20.3999996185302734375</ele>
        <time>2018-09-06T07:49:05.000Z</time>
      </trkpt>
      <trkpt lat="43.38005647994577884674072265625" lon="-4.3112840317189693450927734375">
        <ele>20.200000762939453125</ele>
        <time>2018-09-06T07:49:06.000Z</time>
      </trkpt>
      <trkpt lat="43.37995170615613460540771484375" lon="-4.3115428648889064788818359375">
        <ele>19.3999996185302734375</ele>
        <time>2018-09-06T07:49:09.000Z</time>
      </trkpt>
      <trkpt lat="43.37983913719654083251953125" lon="-4.31179055012762546539306640625">
        <ele>18.3999996185302734375</ele>
        <time>2018-09-06T07:49:12.000Z</time>
      </trkpt>
      <trkpt lat="43.3797742612659931182861328125" lon="-4.31195165030658245086669921875">
        <ele>17.799999237060546875</ele>
        <time>2018-09-06T07:49:14.000Z</time>
      </trkpt>
      <trkpt lat="43.379649706184864044189453125" lon="-4.3122504651546478271484375">
        <ele>17.3999996185302734375</ele>
        <time>2018-09-06T07:49:18.000Z</time>
      </trkpt>
      <trkpt lat="43.3795915357768535614013671875" lon="-4.31239622645080089569091796875">
        <ele>17.3999996185302734375</ele>
        <time>2018-09-06T07:49:20.000Z</time>
      </trkpt>
      <trkpt lat="43.3795311860740184783935546875" lon="-4.31254643015563488006591796875">
        <ele>17.6000003814697265625</ele>
        <time>2018-09-06T07:49:22.000Z</time>
      </trkpt>
      <trkpt lat="43.37944275699555873870849609375" lon="-4.31276117451488971710205078125">
        <ele>17.3999996185302734375</ele>
        <time>2018-09-06T07:49:25.000Z</time>
      </trkpt>
      <trkpt lat="43.37941400706768035888671875" lon="-4.31283543817698955535888671875">
        <ele>17.3999996185302734375</ele>
        <time>2018-09-06T07:49:26.000Z</time>
      </trkpt>
      <trkpt lat="43.37933295406401157379150390625" lon="-4.31305437348783016204833984375">
        <ele>17.200000762939453125</ele>
        <time>2018-09-06T07:49:29.000Z</time>
      </trkpt>
      <trkpt lat="43.3791731111705303192138671875" lon="-4.3135545216500759124755859375">
        <ele>16.3999996185302734375</ele>
        <time>2018-09-06T07:49:36.000Z</time>
      </trkpt>
      <trkpt lat="43.3791486360132694244384765625" lon="-4.31361780501902103424072265625">
        <ele>16.200000762939453125</ele>
        <time>2018-09-06T07:49:37.000Z</time>
      </trkpt>
      <trkpt lat="43.37913162074983119964599609375" lon="-4.31368418969213962554931640625">
        <ele>16.200000762939453125</ele>
        <time>2018-09-06T07:49:38.000Z</time>
      </trkpt>
      <trkpt lat="43.3790592849254608154296875" lon="-4.313938915729522705078125">
        <ele>16.3999996185302734375</ele>
        <time>2018-09-06T07:49:42.000Z</time>
      </trkpt>
      <trkpt lat="43.37899231351912021636962890625" lon="-4.314148463308811187744140625">
        <ele>16.3999996185302734375</ele>
        <time>2018-09-06T07:49:46.000Z</time>
      </trkpt>
      <trkpt lat="43.378957696259021759033203125" lon="-4.3142535723745822906494140625">
        <ele>16.3999996185302734375</ele>
        <time>2018-09-06T07:49:48.000Z</time>
      </trkpt>
      <trkpt lat="43.3789063990116119384765625" lon="-4.3145412392914295196533203125">
        <ele>16.3999996185302734375</ele>
        <time>2018-09-06T07:49:54.000Z</time>
      </trkpt>
      <trkpt lat="43.3788898028433322906494140625" lon="-4.31462396867573261260986328125">
        <ele>16.3999996185302734375</ele>
        <time>2018-09-06T07:49:58.000Z</time>
      </trkpt>
      <trkpt lat="43.3788743801414966583251953125" lon="-4.31468163616955280303955078125">
        <ele>16.6000003814697265625</ele>
        <time>2018-09-06T07:52:07.000Z</time>
      </trkpt>
      <trkpt lat="43.37887681089341640472412109375" lon="-4.3146937899291515350341796875">
        <ele>16.3999996185302734375</ele>
        <time>2018-09-06T07:52:08.000Z</time>
      </trkpt>
      <trkpt lat="43.37887530215084552764892578125" lon="-4.31468264199793338775634765625">
        <ele>16.3999996185302734375</ele>
        <time>2018-09-06T07:52:09.000Z</time>
      </trkpt>
      <trkpt lat="43.37886415421962738037109375" lon="-4.31477283127605915069580078125">
        <ele>16.3999996185302734375</ele>
        <time>2018-09-06T07:53:11.000Z</time>
      </trkpt>
      <trkpt lat="43.3788579516112804412841796875" lon="-4.31481021456420421600341796875">
        <ele>16.200000762939453125</ele>
        <time>2018-09-06T07:53:12.000Z</time>
      </trkpt>
      <trkpt lat="43.3788500726222991943359375" lon="-4.31485597975552082061767578125">
        <ele>16</ele>
        <time>2018-09-06T07:53:13.000Z</time>
      </trkpt>
      <trkpt lat="43.3788321353495121002197265625" lon="-4.3149734102189540863037109375">
        <ele>15.80000019073486328125</ele>
        <time>2018-09-06T07:53:15.000Z</time>
      </trkpt>
      <trkpt lat="43.37880103848874568939208984375" lon="-4.31515269912779331207275390625">
        <ele>15.80000019073486328125</ele>
        <time>2018-09-06T07:53:18.000Z</time>
      </trkpt>
      <trkpt lat="43.37880824692547321319580078125" lon="-4.315336681902408599853515625">
        <ele>15.80000019073486328125</ele>
        <time>2018-09-06T07:53:21.000Z</time>
      </trkpt>
      <trkpt lat="43.37881185114383697509765625" lon="-4.3153901584446430206298828125">
        <ele>15.3999996185302734375</ele>
        <time>2018-09-06T07:53:22.000Z</time>
      </trkpt>
      <trkpt lat="43.37882283143699169158935546875" lon="-4.31549853645265102386474609375">
        <ele>15.19999980926513671875</ele>
        <time>2018-09-06T07:53:24.000Z</time>
      </trkpt>
      <trkpt lat="43.378850407898426055908203125" lon="-4.3157458864152431488037109375">
        <ele>14.80000019073486328125</ele>
        <time>2018-09-06T07:53:28.000Z</time>
      </trkpt>
      <trkpt lat="43.37886281311511993408203125" lon="-4.31588293053209781646728515625">
        <ele>14.80000019073486328125</ele>
        <time>2018-09-06T07:53:30.000Z</time>
      </trkpt>
      <trkpt lat="43.37887748144567012786865234375" lon="-4.31594680063426494598388671875">
        <ele>14.6000003814697265625</ele>
        <time>2018-09-06T07:53:31.000Z</time>
      </trkpt>
      <trkpt lat="43.37892123498022556304931640625" lon="-4.31615299545228481292724609375">
        <ele>14</ele>
        <time>2018-09-06T07:53:34.000Z</time>
      </trkpt>
      <trkpt lat="43.37894168682396411895751953125" lon="-4.31621803902089595794677734375">
        <ele>13.6000003814697265625</ele>
        <time>2018-09-06T07:53:35.000Z</time>
      </trkpt>
      <trkpt lat="43.37901796214282512664794921875" lon="-4.31640160270035266876220703125">
        <ele>12.80000019073486328125</ele>
        <time>2018-09-06T07:53:38.000Z</time>
      </trkpt>
      <trkpt lat="43.37907529436051845550537109375" lon="-4.316519536077976226806640625">
        <ele>12.80000019073486328125</ele>
        <time>2018-09-06T07:53:40.000Z</time>
      </trkpt>
      <trkpt lat="43.37920672260224819183349609375" lon="-4.31675967760384082794189453125">
        <ele>12.19999980926513671875</ele>
        <time>2018-09-06T07:53:44.000Z</time>
      </trkpt>
      <trkpt lat="43.3792931400239467620849609375" lon="-4.3168647028505802154541015625">
        <ele>11.80000019073486328125</ele>
        <time>2018-09-06T07:53:46.000Z</time>
      </trkpt>
      <trkpt lat="43.3795197866857051849365234375" lon="-4.31712470948696136474609375">
        <ele>10.6000003814697265625</ele>
        <time>2018-09-06T07:53:51.000Z</time>
      </trkpt>
      <trkpt lat="43.379610814154148101806640625" lon="-4.3171922676265239715576171875">
        <ele>10.19999980926513671875</ele>
        <time>2018-09-06T07:53:53.000Z</time>
      </trkpt>
      <trkpt lat="43.37970812804996967315673828125" lon="-4.3172371946275234222412109375">
        <ele>10</ele>
        <time>2018-09-06T07:53:55.000Z</time>
      </trkpt>
      <trkpt lat="43.379756323993206024169921875" lon="-4.31727617047727108001708984375">
        <ele>9.80000019073486328125</ele>
        <time>2018-09-06T07:53:56.000Z</time>
      </trkpt>
      <trkpt lat="43.37980351410806179046630859375" lon="-4.317313469946384429931640625">
        <ele>9.19999980926513671875</ele>
        <time>2018-09-06T07:53:57.000Z</time>
      </trkpt>
      <trkpt lat="43.379851877689361572265625" lon="-4.31734959594905376434326171875">
        <ele>8.80000019073486328125</ele>
        <time>2018-09-06T07:53:58.000Z</time>
      </trkpt>
      <trkpt lat="43.38022478856146335601806640625" lon="-4.3176361732184886932373046875">
        <ele>9.19999980926513671875</ele>
        <time>2018-09-06T07:54:06.000Z</time>
      </trkpt>
      <trkpt lat="43.38055520318448543548583984375" lon="-4.31787036359310150146484375">
        <ele>8.80000019073486328125</ele>
        <time>2018-09-06T07:54:13.000Z</time>
      </trkpt>
      <trkpt lat="43.38084387592971324920654296875" lon="-4.31803800165653228759765625">
        <ele>8.6000003814697265625</ele>
        <time>2018-09-06T07:54:19.000Z</time>
      </trkpt>
      <trkpt lat="43.38094311766326427459716796875" lon="-4.31807127781212329864501953125">
        <ele>8.3999996185302734375</ele>
        <time>2018-09-06T07:54:21.000Z</time>
      </trkpt>
      <trkpt lat="43.3810348995029926300048828125" lon="-4.3180971778929233551025390625">
        <ele>8.6000003814697265625</ele>
        <time>2018-09-06T07:54:23.000Z</time>
      </trkpt>
      <trkpt lat="43.38115735910832881927490234375" lon="-4.31813179515302181243896484375">
        <ele>9.19999980926513671875</ele>
        <time>2018-09-06T07:54:26.000Z</time>
      </trkpt>
      <trkpt lat="43.38119390420615673065185546875" lon="-4.31814118288457393646240234375">
        <ele>9.3999996185302734375</ele>
        <time>2018-09-06T07:54:27.000Z</time>
      </trkpt>
      <trkpt lat="43.38129163719713687896728515625" lon="-4.31817521341145038604736328125">
        <ele>10</ele>
        <time>2018-09-06T07:54:30.000Z</time>
      </trkpt>
      <trkpt lat="43.381320722401142120361328125" lon="-4.31819759309291839599609375">
        <ele>10.19999980926513671875</ele>
        <time>2018-09-06T07:54:31.000Z</time>
      </trkpt>
      <trkpt lat="43.3813782222568988800048828125" lon="-4.318238832056522369384765625">
        <ele>10.80000019073486328125</ele>
        <time>2018-09-06T07:54:33.000Z</time>
      </trkpt>
      <trkpt lat="43.38143312372267246246337890625" lon="-4.3182859383523464202880859375">
        <ele>11</ele>
        <time>2018-09-06T07:54:35.000Z</time>
      </trkpt>
      <trkpt lat="43.3814871869981288909912109375" lon="-4.31833329610526561737060546875">
        <ele>11.3999996185302734375</ele>
        <time>2018-09-06T07:54:37.000Z</time>
      </trkpt>
      <trkpt lat="43.3815408311784267425537109375" lon="-4.3183841742575168609619140625">
        <ele>12</ele>
        <time>2018-09-06T07:54:39.000Z</time>
      </trkpt>
      <trkpt lat="43.38161132298409938812255859375" lon="-4.31846539489924907684326171875">
        <ele>11.80000019073486328125</ele>
        <time>2018-09-06T07:54:42.000Z</time>
      </trkpt>
      <trkpt lat="43.38168424554169178009033203125" lon="-4.31854359805583953857421875">
        <ele>12.6000003814697265625</ele>
        <time>2018-09-06T07:54:45.000Z</time>
      </trkpt>
      <trkpt lat="43.3817589282989501953125" lon="-4.318616352975368499755859375">
        <ele>13.19999980926513671875</ele>
        <time>2018-09-06T07:54:48.000Z</time>
      </trkpt>
      <trkpt lat="43.38179086335003376007080078125" lon="-4.31865650229156017303466796875">
        <ele>13.6000003814697265625</ele>
        <time>2018-09-06T07:54:50.000Z</time>
      </trkpt>
      <trkpt lat="43.38186278007924556732177734375" lon="-4.31877351365983486175537109375">
        <ele>14.19999980926513671875</ele>
        <time>2018-09-06T07:54:54.000Z</time>
      </trkpt>
      <trkpt lat="43.3819270692765712738037109375" lon="-4.3188445083796977996826171875">
        <ele>14.3999996185302734375</ele>
        <time>2018-09-06T07:54:57.000Z</time>
      </trkpt>
      <trkpt lat="43.3819508738815784454345703125" lon="-4.31883872486650943756103515625">
        <ele>14.80000019073486328125</ele>
        <time>2018-09-06T07:54:59.000Z</time>
      </trkpt>
      <trkpt lat="43.381961099803447723388671875" lon="-4.318852722644805908203125">
        <ele>14.80000019073486328125</ele>
        <time>2018-09-06T07:55:00.000Z</time>
      </trkpt>
      <trkpt lat="43.38197174482047557830810546875" lon="-4.3188746832311153411865234375">
        <ele>14.80000019073486328125</ele>
        <time>2018-09-06T07:55:02.000Z</time>
      </trkpt>
      <trkpt lat="43.381964452564716339111328125" lon="-4.31889362633228302001953125">
        <ele>15</ele>
        <time>2018-09-06T07:55:04.000Z</time>
      </trkpt>
      <trkpt lat="43.381957076489925384521484375" lon="-4.31890242733061313629150390625">
        <ele>14.80000019073486328125</ele>
        <time>2018-09-06T07:55:05.000Z</time>
      </trkpt>
      <trkpt lat="43.3819341100752353668212890625" lon="-4.318900667130947113037109375">
        <ele>14.80000019073486328125</ele>
        <time>2018-09-06T07:55:07.000Z</time>
      </trkpt>
      <trkpt lat="43.3819173462688922882080078125" lon="-4.31886118836700916290283203125">
        <ele>14.6000003814697265625</ele>
        <time>2018-09-06T07:55:09.000Z</time>
      </trkpt>
      <trkpt lat="43.3819099701941013336181640625" lon="-4.3188138306140899658203125">
        <ele>14.3999996185302734375</ele>
        <time>2018-09-06T07:55:11.000Z</time>
      </trkpt>
      <trkpt lat="43.381890356540679931640625" lon="-4.318751804530620574951171875">
        <ele>14.19999980926513671875</ele>
        <time>2018-09-06T07:55:14.000Z</time>
      </trkpt>
      <trkpt lat="43.3818640373647212982177734375" lon="-4.3186671473085880279541015625">
        <ele>14.19999980926513671875</ele>
        <time>2018-09-06T07:55:19.000Z</time>
      </trkpt>
      <trkpt lat="43.381879627704620361328125" lon="-4.318659938871860504150390625">
        <ele>14.19999980926513671875</ele>
        <time>2018-09-06T07:55:20.000Z</time>
      </trkpt>
      <trkpt lat="43.38194844312965869903564453125" lon="-4.31862129829823970794677734375">
        <ele>14.6000003814697265625</ele>
        <time>2018-09-06T07:55:23.000Z</time>
      </trkpt>
      <trkpt lat="43.3820980601012706756591796875" lon="-4.318561367690563201904296875">
        <ele>15.19999980926513671875</ele>
        <time>2018-09-06T07:55:28.000Z</time>
      </trkpt>
      <trkpt lat="43.38217056356370449066162109375" lon="-4.31856966577470302581787109375">
        <ele>15.6000003814697265625</ele>
        <time>2018-09-06T07:55:30.000Z</time>
      </trkpt>
      <trkpt lat="43.382235355675220489501953125" lon="-4.31859279982745647430419921875">
        <ele>15.80000019073486328125</ele>
        <time>2018-09-06T07:55:32.000Z</time>
      </trkpt>
      <trkpt lat="43.382324874401092529296875" lon="-4.31868382729589939117431640625">
        <ele>16.200000762939453125</ele>
        <time>2018-09-06T07:55:36.000Z</time>
      </trkpt>
      <trkpt lat="43.38237826712429523468017578125" lon="-4.3188803829252719879150390625">
        <ele>15.80000019073486328125</ele>
        <time>2018-09-06T07:55:41.000Z</time>
      </trkpt>
      <trkpt lat="43.38237759657204151153564453125" lon="-4.3190015852451324462890625">
        <ele>15.3999996185302734375</ele>
        <time>2018-09-06T07:55:44.000Z</time>
      </trkpt>
      <trkpt lat="43.38237516582012176513671875" lon="-4.31906386278569698333740234375">
        <ele>15.3999996185302734375</ele>
        <time>2018-09-06T07:55:46.000Z</time>
      </trkpt>
      <trkpt lat="43.38234909810125827789306640625" lon="-4.31917651556432247161865234375">
        <ele>15.6000003814697265625</ele>
        <time>2018-09-06T07:55:50.000Z</time>
      </trkpt>
      <trkpt lat="43.382335603237152099609375" lon="-4.31924440898001194000244140625">
        <ele>15.3999996185302734375</ele>
        <time>2018-09-06T07:55:52.000Z</time>
      </trkpt>
      <trkpt lat="43.38231473229825496673583984375" lon="-4.31933660991489887237548828125">
        <ele>15.3999996185302734375</ele>
        <time>2018-09-06T07:55:55.000Z</time>
      </trkpt>
      <trkpt lat="43.38226712308824062347412109375" lon="-4.31943601928651332855224609375">
        <ele>15</ele>
        <time>2018-09-06T07:55:58.000Z</time>
      </trkpt>
      <trkpt lat="43.382246755063533782958984375" lon="-4.3194781802594661712646484375">
        <ele>14.80000019073486328125</ele>
        <time>2018-09-06T07:55:59.000Z</time>
      </trkpt>
      <trkpt lat="43.38210987858474254608154296875" lon="-4.31971304118633270263671875">
        <ele>13.6000003814697265625</ele>
        <time>2018-09-06T07:56:04.000Z</time>
      </trkpt>
      <trkpt lat="43.38206193409860134124755859375" lon="-4.3198184855282306671142578125">
        <ele>13.19999980926513671875</ele>
        <time>2018-09-06T07:56:06.000Z</time>
      </trkpt>
      <trkpt lat="43.38205187581479549407958984375" lon="-4.3199968524277210235595703125">
        <ele>14.19999980926513671875</ele>
        <time>2018-09-06T07:56:09.000Z</time>
      </trkpt>
      <trkpt lat="43.38202991522848606109619140625" lon="-4.3205577693879604339599609375">
        <ele>13.3999996185302734375</ele>
        <time>2018-09-06T07:56:18.000Z</time>
      </trkpt>
      <trkpt lat="43.38202245533466339111328125" lon="-4.32075046934187412261962890625">
        <ele>13.19999980926513671875</ele>
        <time>2018-09-06T07:56:21.000Z</time>
      </trkpt>
      <trkpt lat="43.3820387162268161773681640625" lon="-4.320943169295787811279296875">
        <ele>12.6000003814697265625</ele>
        <time>2018-09-06T07:56:24.000Z</time>
      </trkpt>
      <trkpt lat="43.3820472657680511474609375" lon="-4.32100863195955753326416015625">
        <ele>12.6000003814697265625</ele>
        <time>2018-09-06T07:56:25.000Z</time>
      </trkpt>
      <trkpt lat="43.38208146393299102783203125" lon="-4.32114391587674617767333984375">
        <ele>12.19999980926513671875</ele>
        <time>2018-09-06T07:56:27.000Z</time>
      </trkpt>
      <trkpt lat="43.3821399696171283721923828125" lon="-4.3212652020156383514404296875">
        <ele>12</ele>
        <time>2018-09-06T07:56:29.000Z</time>
      </trkpt>
      <trkpt lat="43.38225421495735645294189453125" lon="-4.3214133940637111663818359375">
        <ele>11.6000003814697265625</ele>
        <time>2018-09-06T07:56:32.000Z</time>
      </trkpt>
      <trkpt lat="43.3823481760919094085693359375" lon="-4.32148070074617862701416015625">
        <ele>11.80000019073486328125</ele>
        <time>2018-09-06T07:56:34.000Z</time>
      </trkpt>
      <trkpt lat="43.38254758156836032867431640625" lon="-4.321540296077728271484375">
        <ele>12.19999980926513671875</ele>
        <time>2018-09-06T07:56:38.000Z</time>
      </trkpt>
      <trkpt lat="43.382597453892230987548828125" lon="-4.3215444870293140411376953125">
        <ele>12.19999980926513671875</ele>
        <time>2018-09-06T07:56:39.000Z</time>
      </trkpt>
      <trkpt lat="43.382641039788722991943359375" lon="-4.321536608040332794189453125">
        <ele>12.19999980926513671875</ele>
        <time>2018-09-06T07:56:40.000Z</time>
      </trkpt>
      <trkpt lat="43.382765091955661773681640625" lon="-4.32149729691445827484130859375">
        <ele>12.6000003814697265625</ele>
        <time>2018-09-06T07:56:43.000Z</time>
      </trkpt>
      <trkpt lat="43.3828024752438068389892578125" lon="-4.32147064246237277984619140625">
        <ele>12.6000003814697265625</ele>
        <time>2018-09-06T07:56:44.000Z</time>
      </trkpt>
      <trkpt lat="43.38287129066884517669677734375" lon="-4.321424961090087890625">
        <ele>13.19999980926513671875</ele>
        <time>2018-09-06T07:56:46.000Z</time>
      </trkpt>
      <trkpt lat="43.382936753332614898681640625" lon="-4.32137710042297840118408203125">
        <ele>13.6000003814697265625</ele>
        <time>2018-09-06T07:56:48.000Z</time>
      </trkpt>
      <trkpt lat="43.38296617381274700164794921875" lon="-4.3213520385324954986572265625">
        <ele>14</ele>
        <time>2018-09-06T07:56:49.000Z</time>
      </trkpt>
      <trkpt lat="43.3830254338681697845458984375" lon="-4.321306608617305755615234375">
        <ele>14.3999996185302734375</ele>
        <time>2018-09-06T07:56:51.000Z</time>
      </trkpt>
      <trkpt lat="43.3831776492297649383544921875" lon="-4.32120912708342075347900390625">
        <ele>15</ele>
        <time>2018-09-06T07:56:56.000Z</time>
      </trkpt>
      <trkpt lat="43.3832369931042194366455078125" lon="-4.3211730010807514190673828125">
        <ele>15.3999996185302734375</ele>
        <time>2018-09-06T07:56:58.000Z</time>
      </trkpt>
      <trkpt lat="43.38326926343142986297607421875" lon="-4.32115766219794750213623046875">
        <ele>15.3999996185302734375</ele>
        <time>2018-09-06T07:56:59.000Z</time>
      </trkpt>
      <trkpt lat="43.3833385817706584930419921875" lon="-4.32113335467875003814697265625">
        <ele>15.80000019073486328125</ele>
        <time>2018-09-06T07:57:01.000Z</time>
      </trkpt>
      <trkpt lat="43.38340488262474536895751953125" lon="-4.3211139924824237823486328125">
        <ele>15.80000019073486328125</ele>
        <time>2018-09-06T07:57:03.000Z</time>
      </trkpt>
      <trkpt lat="43.383472859859466552734375" lon="-4.3211089633405208587646484375">
        <ele>16</ele>
        <time>2018-09-06T07:57:05.000Z</time>
      </trkpt>
      <trkpt lat="43.383507393300533294677734375" lon="-4.32110770605504512786865234375">
        <ele>16</ele>
        <time>2018-09-06T07:57:06.000Z</time>
      </trkpt>
      <trkpt lat="43.38377796113491058349609375" lon="-4.321134947240352630615234375">
        <ele>16.3999996185302734375</ele>
        <time>2018-09-06T07:57:13.000Z</time>
      </trkpt>
      <trkpt lat="43.38390494696795940399169921875" lon="-4.32116872631013393402099609375">
        <ele>16.200000762939453125</ele>
        <time>2018-09-06T07:57:16.000Z</time>
      </trkpt>
      <trkpt lat="43.38398960418999195098876953125" lon="-4.321187250316143035888671875">
        <ele>16</ele>
        <time>2018-09-06T07:57:18.000Z</time>
      </trkpt>
      <trkpt lat="43.38414902798831462860107421875" lon="-4.3212253041565418243408203125">
        <ele>15.80000019073486328125</ele>
        <time>2018-09-06T07:57:22.000Z</time>
      </trkpt>
      <trkpt lat="43.38426134549081325531005859375" lon="-4.32124533690512180328369140625">
        <ele>15.80000019073486328125</ele>
        <time>2018-09-06T07:57:25.000Z</time>
      </trkpt>
      <trkpt lat="43.38433778844773769378662109375" lon="-4.32124181650578975677490234375">
        <ele>15.80000019073486328125</ele>
        <time>2018-09-06T07:57:27.000Z</time>
      </trkpt>
      <trkpt lat="43.384382463991641998291015625" lon="-4.3212367035448551177978515625">
        <ele>15.6000003814697265625</ele>
        <time>2018-09-06T07:57:28.000Z</time>
      </trkpt>
      <trkpt lat="43.38448069989681243896484375" lon="-4.32123058475553989410400390625">
        <ele>15</ele>
        <time>2018-09-06T07:57:30.000Z</time>
      </trkpt>
      <trkpt lat="43.38457516394555568695068359375" lon="-4.32123946957290172576904296875">
        <ele>14.80000019073486328125</ele>
        <time>2018-09-06T07:57:32.000Z</time>
      </trkpt>
      <trkpt lat="43.384656049311161041259765625" lon="-4.3212880007922649383544921875">
        <ele>14.6000003814697265625</ele>
        <time>2018-09-06T07:57:34.000Z</time>
      </trkpt>
      <trkpt lat="43.38472838513553142547607421875" lon="-4.32144432328641414642333984375">
        <ele>14.3999996185302734375</ele>
        <time>2018-09-06T07:57:37.000Z</time>
      </trkpt>
      <trkpt lat="43.3847375214099884033203125" lon="-4.321640543639659881591796875">
        <ele>13.80000019073486328125</ele>
        <time>2018-09-06T07:57:40.000Z</time>
      </trkpt>
      <trkpt lat="43.38473106734454631805419921875" lon="-4.321710281074047088623046875">
        <ele>13.6000003814697265625</ele>
        <time>2018-09-06T07:57:41.000Z</time>
      </trkpt>
      <trkpt lat="43.38470508344471454620361328125" lon="-4.3218492530286312103271484375">
        <ele>13.3999996185302734375</ele>
        <time>2018-09-06T07:57:43.000Z</time>
      </trkpt>
      <trkpt lat="43.3846713043749332427978515625" lon="-4.32211504317820072174072265625">
        <ele>12.80000019073486328125</ele>
        <time>2018-09-06T07:57:47.000Z</time>
      </trkpt>
      <trkpt lat="43.38466443121433258056640625" lon="-4.32234554551541805267333984375">
        <ele>11.3999996185302734375</ele>
        <time>2018-09-06T07:57:50.000Z</time>
      </trkpt>
      <trkpt lat="43.38463853113353252410888671875" lon="-4.3226066417992115020751953125">
        <ele>10.3999996185302734375</ele>
        <time>2018-09-06T07:57:53.000Z</time>
      </trkpt>
      <trkpt lat="43.38463132269680500030517578125" lon="-4.32269222103059291839599609375">
        <ele>10</ele>
        <time>2018-09-06T07:57:54.000Z</time>
      </trkpt>
      <trkpt lat="43.3845603279769420623779296875" lon="-4.32335757650434970855712890625">
        <ele>9.80000019073486328125</ele>
        <time>2018-09-06T07:58:02.000Z</time>
      </trkpt>
      <trkpt lat="43.38450643233954906463623046875" lon="-4.32389552704989910125732421875">
        <ele>9</ele>
        <time>2018-09-06T07:58:09.000Z</time>
      </trkpt>
      <trkpt lat="43.3844979666173458099365234375" lon="-4.323966689407825469970703125">
        <ele>9</ele>
        <time>2018-09-06T07:58:10.000Z</time>
      </trkpt>
      <trkpt lat="43.3844651095569133758544921875" lon="-4.3243014626204967498779296875">
        <ele>8.6000003814697265625</ele>
        <time>2018-09-06T07:58:15.000Z</time>
      </trkpt>
      <trkpt lat="43.3844684623181819915771484375" lon="-4.32436457835137844085693359375">
        <ele>8.80000019073486328125</ele>
        <time>2018-09-06T07:58:16.000Z</time>
      </trkpt>
      <trkpt lat="43.38445697911083698272705078125" lon="-4.3244935758411884307861328125">
        <ele>8.80000019073486328125</ele>
        <time>2018-09-06T07:58:18.000Z</time>
      </trkpt>
      <trkpt lat="43.38443703018128871917724609375" lon="-4.3247165344655513763427734375">
        <ele>9.19999980926513671875</ele>
        <time>2018-09-06T07:58:21.000Z</time>
      </trkpt>
      <trkpt lat="43.38441875763237476348876953125" lon="-4.3249458633363246917724609375">
        <ele>8.80000019073486328125</ele>
        <time>2018-09-06T07:58:24.000Z</time>
      </trkpt>
      <trkpt lat="43.38440853171050548553466796875" lon="-4.3250953964889049530029296875">
        <ele>9</ele>
        <time>2018-09-06T07:58:26.000Z</time>
      </trkpt>
      <trkpt lat="43.38439260609447956085205078125" lon="-4.3252422474324703216552734375">
        <ele>9.19999980926513671875</ele>
        <time>2018-09-06T07:58:28.000Z</time>
      </trkpt>
      <trkpt lat="43.38437852449715137481689453125" lon="-4.32537560351192951202392578125">
        <ele>9.3999996185302734375</ele>
        <time>2018-09-06T07:58:30.000Z</time>
      </trkpt>
      <trkpt lat="43.384352289140224456787109375" lon="-4.32559051550924777984619140625">
        <ele>9.19999980926513671875</ele>
        <time>2018-09-06T07:58:33.000Z</time>
      </trkpt>
      <trkpt lat="43.3843199349939823150634765625" lon="-4.325802661478519439697265625">
        <ele>9.3999996185302734375</ele>
        <time>2018-09-06T07:58:36.000Z</time>
      </trkpt>
      <trkpt lat="43.38428280316293239593505859375" lon="-4.32622552849352359771728515625">
        <ele>9.3999996185302734375</ele>
        <time>2018-09-06T07:58:42.000Z</time>
      </trkpt>
      <trkpt lat="43.38425195775926113128662109375" lon="-4.3264616467058658599853515625">
        <ele>9.3999996185302734375</ele>
        <time>2018-09-06T07:58:46.000Z</time>
      </trkpt>
      <trkpt lat="43.38424273766577243804931640625" lon="-4.326591230928897857666015625">
        <ele>9.6000003814697265625</ele>
        <time>2018-09-06T07:58:48.000Z</time>
      </trkpt>
      <trkpt lat="43.38421340100467205047607421875" lon="-4.32699389755725860595703125">
        <ele>9.6000003814697265625</ele>
        <time>2018-09-06T07:58:54.000Z</time>
      </trkpt>
      <trkpt lat="43.3842035941779613494873046875" lon="-4.3271885253489017486572265625">
        <ele>9.80000019073486328125</ele>
        <time>2018-09-06T07:58:57.000Z</time>
      </trkpt>
      <trkpt lat="43.38414944708347320556640625" lon="-4.3277849815785884857177734375">
        <ele>9.80000019073486328125</ele>
        <time>2018-09-06T07:59:06.000Z</time>
      </trkpt>
      <trkpt lat="43.3841340243816375732421875" lon="-4.32803484611213207244873046875">
        <ele>10</ele>
        <time>2018-09-06T07:59:10.000Z</time>
      </trkpt>
      <trkpt lat="43.3841120637953281402587890625" lon="-4.3282927572727203369140625">
        <ele>10</ele>
        <time>2018-09-06T07:59:14.000Z</time>
      </trkpt>
      <trkpt lat="43.3841009996831417083740234375" lon="-4.3288226611912250518798828125">
        <ele>10.19999980926513671875</ele>
        <time>2018-09-06T07:59:22.000Z</time>
      </trkpt>
      <trkpt lat="43.3841214515268802642822265625" lon="-4.3289497308433055877685546875">
        <ele>10</ele>
        <time>2018-09-06T07:59:24.000Z</time>
      </trkpt>
      <trkpt lat="43.3841957151889801025390625" lon="-4.32918014936149120330810546875">
        <ele>10.6000003814697265625</ele>
        <time>2018-09-06T07:59:28.000Z</time>
      </trkpt>
      <trkpt lat="43.38428917340934276580810546875" lon="-4.32939740829169750213623046875">
        <ele>11</ele>
        <time>2018-09-06T07:59:32.000Z</time>
      </trkpt>
      <trkpt lat="43.3844319172203540802001953125" lon="-4.32970653288066387176513671875">
        <ele>11.3999996185302734375</ele>
        <time>2018-09-06T07:59:38.000Z</time>
      </trkpt>
      <trkpt lat="43.3846555463969707489013671875" lon="-4.33015982620418071746826171875">
        <ele>11.6000003814697265625</ele>
        <time>2018-09-06T07:59:47.000Z</time>
      </trkpt>
      <trkpt lat="43.38479183614253997802734375" lon="-4.3301778472959995269775390625">
        <ele>12.19999980926513671875</ele>
        <time>2018-09-06T07:59:51.000Z</time>
      </trkpt>
      <trkpt lat="43.38481455110013484954833984375" lon="-4.33016703464090824127197265625">
        <ele>12.19999980926513671875</ele>
        <time>2018-09-06T07:59:52.000Z</time>
      </trkpt>
      <trkpt lat="43.3849066682159900665283203125" lon="-4.33014255948364734649658203125">
        <ele>12</ele>
        <time>2018-09-06T08:00:23.000Z</time>
      </trkpt>
      <trkpt lat="43.38493759743869304656982421875" lon="-4.330142475664615631103515625">
        <ele>12</ele>
        <time>2018-09-06T08:00:24.000Z</time>
      </trkpt>
      <trkpt lat="43.384969197213649749755859375" lon="-4.33012998662889003753662109375">
        <ele>12</ele>
        <time>2018-09-06T08:00:25.000Z</time>
      </trkpt>
      <trkpt lat="43.38517011143267154693603515625" lon="-4.33006192557513713836669921875">
        <ele>12.3999996185302734375</ele>
        <time>2018-09-06T08:00:31.000Z</time>
      </trkpt>
      <trkpt lat="43.38537521660327911376953125" lon="-4.33001431636512279510498046875">
        <ele>13.19999980926513671875</ele>
        <time>2018-09-06T08:00:36.000Z</time>
      </trkpt>
      <trkpt lat="43.38542358018457889556884765625" lon="-4.33000191114842891693115234375">
        <ele>13.3999996185302734375</ele>
        <time>2018-09-06T08:00:37.000Z</time>
      </trkpt>
      <trkpt lat="43.3854722790420055389404296875" lon="-4.329993613064289093017578125">
        <ele>13.3999996185302734375</ele>
        <time>2018-09-06T08:00:38.000Z</time>
      </trkpt>
      <trkpt lat="43.38557898066937923431396484375" lon="-4.3299870751798152923583984375">
        <ele>14</ele>
        <time>2018-09-06T08:00:40.000Z</time>
      </trkpt>
      <trkpt lat="43.3856736123561859130859375" lon="-4.329991601407527923583984375">
        <ele>14.19999980926513671875</ele>
        <time>2018-09-06T08:00:42.000Z</time>
      </trkpt>
      <trkpt lat="43.3857170306146144866943359375" lon="-4.3299974687397480010986328125">
        <ele>14.3999996185302734375</ele>
        <time>2018-09-06T08:00:43.000Z</time>
      </trkpt>
      <trkpt lat="43.38576120324432849884033203125" lon="-4.3300041742622852325439453125">
        <ele>14.6000003814697265625</ele>
        <time>2018-09-06T08:00:44.000Z</time>
      </trkpt>
      <trkpt lat="43.38586647994816303253173828125" lon="-4.33001381345093250274658203125">
        <ele>14.80000019073486328125</ele>
        <time>2018-09-06T08:00:49.000Z</time>
      </trkpt>
      <trkpt lat="43.3859215490520000457763671875" lon="-4.33004348538815975189208984375">
        <ele>14.6000003814697265625</ele>
        <time>2018-09-06T08:01:00.000Z</time>
      </trkpt>
      <trkpt lat="43.38594526983797550201416015625" lon="-4.33006376959383487701416015625">
        <ele>14.3999996185302734375</ele>
        <time>2018-09-06T08:01:01.000Z</time>
      </trkpt>
      <trkpt lat="43.38597058318555355072021484375" lon="-4.330077432096004486083984375">
        <ele>14.3999996185302734375</ele>
        <time>2018-09-06T08:01:02.000Z</time>
      </trkpt>
      <trkpt lat="43.386026658117771148681640625" lon="-4.3301000632345676422119140625">
        <ele>14.3999996185302734375</ele>
        <time>2018-09-06T08:01:04.000Z</time>
      </trkpt>
      <trkpt lat="43.3861565776169300079345703125" lon="-4.33014624752104282379150390625">
        <ele>14</ele>
        <time>2018-09-06T08:01:07.000Z</time>
      </trkpt>
      <trkpt lat="43.38638230226933956146240234375" lon="-4.330221600830554962158203125">
        <ele>13.80000019073486328125</ele>
        <time>2018-09-06T08:01:11.000Z</time>
      </trkpt>
      <trkpt lat="43.3864563144743442535400390625" lon="-4.330224283039569854736328125">
        <ele>13.6000003814697265625</ele>
        <time>2018-09-06T08:01:12.000Z</time>
      </trkpt>
      <trkpt lat="43.38653569109737873077392578125" lon="-4.33023266494274139404296875">
        <ele>13.19999980926513671875</ele>
        <time>2018-09-06T08:01:13.000Z</time>
      </trkpt>
      <trkpt lat="43.38667868636548519134521484375" lon="-4.33023258112370967864990234375">
        <ele>12</ele>
        <time>2018-09-06T08:01:15.000Z</time>
      </trkpt>
      <trkpt lat="43.3867469988763332366943359375" lon="-4.3302143923938274383544921875">
        <ele>11.80000019073486328125</ele>
        <time>2018-09-06T08:01:16.000Z</time>
      </trkpt>
      <trkpt lat="43.38680860586464405059814453125" lon="-4.3301783502101898193359375">
        <ele>11.6000003814697265625</ele>
        <time>2018-09-06T08:01:17.000Z</time>
      </trkpt>
      <trkpt lat="43.386915810406208038330078125" lon="-4.33008673600852489471435546875">
        <ele>11</ele>
        <time>2018-09-06T08:01:19.000Z</time>
      </trkpt>
      <trkpt lat="43.38701044209301471710205078125" lon="-4.3299793638288974761962890625">
        <ele>11.19999980926513671875</ele>
        <time>2018-09-06T08:01:21.000Z</time>
      </trkpt>
      <trkpt lat="43.38705603964626789093017578125" lon="-4.3299203552305698394775390625">
        <ele>11.19999980926513671875</ele>
        <time>2018-09-06T08:01:22.000Z</time>
      </trkpt>
      <trkpt lat="43.387196771800518035888671875" lon="-4.32966026477515697479248046875">
        <ele>11.3999996185302734375</ele>
        <time>2018-09-06T08:01:26.000Z</time>
      </trkpt>
      <trkpt lat="43.38722166605293750762939453125" lon="-4.32958851568400859832763671875">
        <ele>11.3999996185302734375</ele>
        <time>2018-09-06T08:01:27.000Z</time>
      </trkpt>
      <trkpt lat="43.38733348064124584197998046875" lon="-4.32913337834179401397705078125">
        <ele>11.19999980926513671875</ele>
        <time>2018-09-06T08:01:33.000Z</time>
      </trkpt>
      <trkpt lat="43.3874698542058467864990234375" lon="-4.32857799343764781951904296875">
        <ele>10.6000003814697265625</ele>
        <time>2018-09-06T08:01:40.000Z</time>
      </trkpt>
      <trkpt lat="43.38750422000885009765625" lon="-4.328502975404262542724609375">
        <ele>10.6000003814697265625</ele>
        <time>2018-09-06T08:01:41.000Z</time>
      </trkpt>
      <trkpt lat="43.3876301161944866180419921875" lon="-4.3283016420900821685791015625">
        <ele>10.3999996185302734375</ele>
        <time>2018-09-06T08:01:44.000Z</time>
      </trkpt>
      <trkpt lat="43.3876757137477397918701171875" lon="-4.32824120856821537017822265625">
        <ele>10.3999996185302734375</ele>
        <time>2018-09-06T08:01:45.000Z</time>
      </trkpt>
      <trkpt lat="43.3877199701964855194091796875" lon="-4.3281774222850799560546875">
        <ele>10.19999980926513671875</ele>
        <time>2018-09-06T08:01:46.000Z</time>
      </trkpt>
      <trkpt lat="43.38777319528162479400634765625" lon="-4.328128136694431304931640625">
        <ele>10</ele>
        <time>2018-09-06T08:01:47.000Z</time>
      </trkpt>
      <trkpt lat="43.38782885111868381500244140625" lon="-4.328085891902446746826171875">
        <ele>9.80000019073486328125</ele>
        <time>2018-09-06T08:01:48.000Z</time>
      </trkpt>
      <trkpt lat="43.38794452138245105743408203125" lon="-4.3280153162777423858642578125">
        <ele>9.6000003814697265625</ele>
        <time>2018-09-06T08:01:50.000Z</time>
      </trkpt>
      <trkpt lat="43.38820251636207103729248046875" lon="-4.32803652249276638031005859375">
        <ele>9</ele>
        <time>2018-09-06T08:01:54.000Z</time>
      </trkpt>
      <trkpt lat="43.38832321576774120330810546875" lon="-4.328117407858371734619140625">
        <ele>8.80000019073486328125</ele>
        <time>2018-09-06T08:01:56.000Z</time>
      </trkpt>
      <trkpt lat="43.38837082497775554656982421875" lon="-4.3281732313334941864013671875">
        <ele>9.19999980926513671875</ele>
        <time>2018-09-06T08:01:57.000Z</time>
      </trkpt>
      <trkpt lat="43.38848465122282505035400390625" lon="-4.3283733911812305450439453125">
        <ele>9.3999996185302734375</ele>
        <time>2018-09-06T08:02:00.000Z</time>
      </trkpt>
      <trkpt lat="43.38851985521614551544189453125" lon="-4.32844287715852260589599609375">
        <ele>9.19999980926513671875</ele>
        <time>2018-09-06T08:02:01.000Z</time>
      </trkpt>
      <trkpt lat="43.3886734955012798309326171875" lon="-4.32877765037119388580322265625">
        <ele>9</ele>
        <time>2018-09-06T08:02:06.000Z</time>
      </trkpt>
      <trkpt lat="43.3887004852294921875" lon="-4.32884168811142444610595703125">
        <ele>9.19999980926513671875</ele>
        <time>2018-09-06T08:02:07.000Z</time>
      </trkpt>
      <trkpt lat="43.38881271891295909881591796875" lon="-4.32923890650272369384765625">
        <ele>9</ele>
        <time>2018-09-06T08:02:13.000Z</time>
      </trkpt>
      <trkpt lat="43.388855047523975372314453125" lon="-4.3294442631304264068603515625">
        <ele>9</ele>
        <time>2018-09-06T08:02:16.000Z</time>
      </trkpt>
      <trkpt lat="43.38895286433398723602294921875" lon="-4.3299203552305698394775390625">
        <ele>8</ele>
        <time>2018-09-06T08:02:23.000Z</time>
      </trkpt>
      <trkpt lat="43.38899041526019573211669921875" lon="-4.33005002327263355255126953125">
        <ele>7.80000019073486328125</ele>
        <time>2018-09-06T08:02:25.000Z</time>
      </trkpt>
      <trkpt lat="43.38911362923681735992431640625" lon="-4.33041262440383434295654296875">
        <ele>8.6000003814697265625</ele>
        <time>2018-09-06T08:02:31.000Z</time>
      </trkpt>
      <trkpt lat="43.38921505026519298553466796875" lon="-4.3306254409253597259521484375">
        <ele>8.80000019073486328125</ele>
        <time>2018-09-06T08:02:35.000Z</time>
      </trkpt>
      <trkpt lat="43.38932787068188190460205078125" lon="-4.33083658106625080108642578125">
        <ele>9.19999980926513671875</ele>
        <time>2018-09-06T08:02:39.000Z</time>
      </trkpt>
      <trkpt lat="43.389481343328952789306640625" lon="-4.3310938216745853424072265625">
        <ele>9.19999980926513671875</ele>
        <time>2018-09-06T08:02:45.000Z</time>
      </trkpt>
      <trkpt lat="43.38956524617969989776611328125" lon="-4.33127864263951778411865234375">
        <ele>10</ele>
        <time>2018-09-06T08:02:50.000Z</time>
      </trkpt>
      <trkpt lat="43.38958133943378925323486328125" lon="-4.3313167802989482879638671875">
        <ele>10.19999980926513671875</ele>
        <time>2018-09-06T08:02:51.000Z</time>
      </trkpt>
      <trkpt lat="43.38969357311725616455078125" lon="-4.3315145932137966156005859375">
        <ele>11.19999980926513671875</ele>
        <time>2018-09-06T08:02:57.000Z</time>
      </trkpt>
      <trkpt lat="43.38974193669855594635009765625" lon="-4.33161425404250621795654296875">
        <ele>11.6000003814697265625</ele>
        <time>2018-09-06T08:03:00.000Z</time>
      </trkpt>
      <trkpt lat="43.38979843072593212127685546875" lon="-4.3317107297480106353759765625">
        <ele>12</ele>
        <time>2018-09-06T08:03:03.000Z</time>
      </trkpt>
      <trkpt lat="43.3898114226758480072021484375" lon="-4.3317412398755550384521484375">
        <ele>12.19999980926513671875</ele>
        <time>2018-09-06T08:03:04.000Z</time>
      </trkpt>
      <trkpt lat="43.38984855450689792633056640625" lon="-4.3318173475563526153564453125">
        <ele>12.6000003814697265625</ele>
        <time>2018-09-06T08:03:07.000Z</time>
      </trkpt>
      <trkpt lat="43.3898873627185821533203125" lon="-4.33193343691527843475341796875">
        <ele>13</ele>
        <time>2018-09-06T08:03:10.000Z</time>
      </trkpt>
      <trkpt lat="43.38990119285881519317626953125" lon="-4.331963695585727691650390625">
        <ele>13.19999980926513671875</ele>
        <time>2018-09-06T08:03:11.000Z</time>
      </trkpt>
      <trkpt lat="43.389937989413738250732421875" lon="-4.33207073248922824859619140625">
        <ele>14</ele>
        <time>2018-09-06T08:03:14.000Z</time>
      </trkpt>
      <trkpt lat="43.38995031081140041351318359375" lon="-4.33210216462612152099609375">
        <ele>14.19999980926513671875</ele>
        <time>2018-09-06T08:03:15.000Z</time>
      </trkpt>
      <trkpt lat="43.39000848121941089630126953125" lon="-4.3322919309139251708984375">
        <ele>15.3999996185302734375</ele>
        <time>2018-09-06T08:03:20.000Z</time>
      </trkpt>
      <trkpt lat="43.390045277774333953857421875" lon="-4.3323893286287784576416015625">
        <ele>15.80000019073486328125</ele>
        <time>2018-09-06T08:03:23.000Z</time>
      </trkpt>
      <trkpt lat="43.390103280544281005859375" lon="-4.33255135081708431243896484375">
        <ele>16.200000762939453125</ele>
        <time>2018-09-06T08:03:28.000Z</time>
      </trkpt>
      <trkpt lat="43.39011660777032375335693359375" lon="-4.33258219622075557708740234375">
        <ele>16.6000003814697265625</ele>
        <time>2018-09-06T08:03:29.000Z</time>
      </trkpt>
      <trkpt lat="43.39013856835663318634033203125" lon="-4.33265335857868194580078125">
        <ele>17.200000762939453125</ele>
        <time>2018-09-06T08:03:31.000Z</time>
      </trkpt>
      <trkpt lat="43.3901755325496196746826171875" lon="-4.33275553397834300994873046875">
        <ele>17.799999237060546875</ele>
        <time>2018-09-06T08:03:34.000Z</time>
      </trkpt>
      <trkpt lat="43.39022775180637836456298828125" lon="-4.33284739963710308074951171875">
        <ele>18.200000762939453125</ele>
        <time>2018-09-06T08:03:37.000Z</time>
      </trkpt>
      <trkpt lat="43.39025415480136871337890625" lon="-4.33292065747082233428955078125">
        <ele>18.799999237060546875</ele>
        <time>2018-09-06T08:03:39.000Z</time>
      </trkpt>
      <trkpt lat="43.39029648341238498687744140625" lon="-4.33304839767515659332275390625">
        <ele>19.200000762939453125</ele>
        <time>2018-09-06T08:03:43.000Z</time>
      </trkpt>
      <trkpt lat="43.390355743467807769775390625" lon="-4.3332452885806560516357421875">
        <ele>20</ele>
        <time>2018-09-06T08:03:49.000Z</time>
      </trkpt>
      <trkpt lat="43.3903666399419307708740234375" lon="-4.33328099548816680908203125">
        <ele>20.200000762939453125</ele>
        <time>2018-09-06T08:03:50.000Z</time>
      </trkpt>
      <trkpt lat="43.390410728752613067626953125" lon="-4.333411753177642822265625">
        <ele>21</ele>
        <time>2018-09-06T08:03:54.000Z</time>
      </trkpt>
      <trkpt lat="43.3904799632728099822998046875" lon="-4.3336080573499202728271484375">
        <ele>22</ele>
        <time>2018-09-06T08:04:00.000Z</time>
      </trkpt>
      <trkpt lat="43.39048993773758411407470703125" lon="-4.333642423152923583984375">
        <ele>22.200000762939453125</ele>
        <time>2018-09-06T08:04:01.000Z</time>
      </trkpt>
      <trkpt lat="43.390552885830402374267578125" lon="-4.33383260853588581085205078125">
        <ele>23.200000762939453125</ele>
        <time>2018-09-06T08:04:07.000Z</time>
      </trkpt>
      <trkpt lat="43.3905748464167118072509765625" lon="-4.33389647863805294036865234375">
        <ele>23.3999996185302734375</ele>
        <time>2018-09-06T08:04:09.000Z</time>
      </trkpt>
      <trkpt lat="43.39063142426311969757080078125" lon="-4.33405238203704357147216796875">
        <ele>24.200000762939453125</ele>
        <time>2018-09-06T08:04:14.000Z</time>
      </trkpt>
      <trkpt lat="43.39068423025310039520263671875" lon="-4.3342030048370361328125">
        <ele>25</ele>
        <time>2018-09-06T08:04:19.000Z</time>
      </trkpt>
      <trkpt lat="43.3907156623899936676025390625" lon="-4.3342973850667476654052734375">
        <ele>25.3999996185302734375</ele>
        <time>2018-09-06T08:04:22.000Z</time>
      </trkpt>
      <trkpt lat="43.39077718555927276611328125" lon="-4.33445580303668975830078125">
        <ele>26.6000003814697265625</ele>
        <time>2018-09-06T08:04:27.000Z</time>
      </trkpt>
      <trkpt lat="43.390854299068450927734375" lon="-4.3346765823662281036376953125">
        <ele>27.799999237060546875</ele>
        <time>2018-09-06T08:04:34.000Z</time>
      </trkpt>
      <trkpt lat="43.39088740758597850799560546875" lon="-4.33477641083300113677978515625">
        <ele>28</ele>
        <time>2018-09-06T08:04:37.000Z</time>
      </trkpt>
      <trkpt lat="43.390981368720531463623046875" lon="-4.33499626815319061279296875">
        <ele>29</ele>
        <time>2018-09-06T08:04:44.000Z</time>
      </trkpt>
      <trkpt lat="43.391010202467441558837890625" lon="-4.33506206609308719635009765625">
        <ele>29.200000762939453125</ele>
        <time>2018-09-06T08:04:46.000Z</time>
      </trkpt>
      <trkpt lat="43.39109058491885662078857421875" lon="-4.33525250293314456939697265625">
        <ele>30</ele>
        <time>2018-09-06T08:04:52.000Z</time>
      </trkpt>
      <trkpt lat="43.39111925102770328521728515625" lon="-4.33532123453915119171142578125">
        <ele>30.200000762939453125</ele>
        <time>2018-09-06T08:04:54.000Z</time>
      </trkpt>
      <trkpt lat="43.391241542994976043701171875" lon="-4.335606135427951812744140625">
        <ele>30.799999237060546875</ele>
        <time>2018-09-06T08:05:02.000Z</time>
      </trkpt>
      <trkpt lat="43.39127314276993274688720703125" lon="-4.33568769134581089019775390625">
        <ele>31</ele>
        <time>2018-09-06T08:05:04.000Z</time>
      </trkpt>
      <trkpt lat="43.3913389407098293304443359375" lon="-4.3358570896089076995849609375">
        <ele>31.6000003814697265625</ele>
        <time>2018-09-06T08:05:08.000Z</time>
      </trkpt>
      <trkpt lat="43.3914081752300262451171875" lon="-4.33602229692041873931884765625">
        <ele>31.6000003814697265625</ele>
        <time>2018-09-06T08:05:12.000Z</time>
      </trkpt>
      <trkpt lat="43.3915092609822750091552734375" lon="-4.336249530315399169921875">
        <ele>32</ele>
        <time>2018-09-06T08:05:17.000Z</time>
      </trkpt>
      <trkpt lat="43.39153046719729900360107421875" lon="-4.33629604987800121307373046875">
        <ele>32.200000762939453125</ele>
        <time>2018-09-06T08:05:18.000Z</time>
      </trkpt>
      <trkpt lat="43.3916509151458740234375" lon="-4.3365665338933467864990234375">
        <ele>32.799999237060546875</ele>
        <time>2018-09-06T08:05:24.000Z</time>
      </trkpt>
      <trkpt lat="43.39176884852349758148193359375" lon="-4.3368431366980075836181640625">
        <ele>33</ele>
        <time>2018-09-06T08:05:30.000Z</time>
      </trkpt>
      <trkpt lat="43.3918240852653980255126953125" lon="-4.33698202483355998992919921875">
        <ele>33.40000152587890625</ele>
        <time>2018-09-06T08:05:33.000Z</time>
      </trkpt>
      <trkpt lat="43.3918431960046291351318359375" lon="-4.33702393434941768646240234375">
        <ele>33.40000152587890625</ele>
        <time>2018-09-06T08:05:34.000Z</time>
      </trkpt>
      <trkpt lat="43.39198811911046504974365234375" lon="-4.33736256323754787445068359375">
        <ele>34.40000152587890625</ele>
        <time>2018-09-06T08:05:42.000Z</time>
      </trkpt>
      <trkpt lat="43.3920215629041194915771484375" lon="-4.33744453825056552886962890625">
        <ele>35.40000152587890625</ele>
        <time>2018-09-06T08:05:44.000Z</time>
      </trkpt>
      <trkpt lat="43.3920386619865894317626953125" lon="-4.3374838493764400482177734375">
        <ele>35.799999237060546875</ele>
        <time>2018-09-06T08:05:45.000Z</time>
      </trkpt>
      <trkpt lat="43.39207462035119533538818359375" lon="-4.3375624716281890869140625">
        <ele>32.59999847412109375</ele>
        <time>2018-09-06T08:05:47.000Z</time>
      </trkpt>
      <trkpt lat="43.39209205470979213714599609375" lon="-4.33760060928761959075927734375">
        <ele>33.799999237060546875</ele>
        <time>2018-09-06T08:05:48.000Z</time>
      </trkpt>
      <trkpt lat="43.39210764504969120025634765625" lon="-4.3376404233276844024658203125">
        <ele>32.40000152587890625</ele>
        <time>2018-09-06T08:05:49.000Z</time>
      </trkpt>
      <trkpt lat="43.39212365448474884033203125" lon="-4.33767981827259063720703125">
        <ele>36</ele>
        <time>2018-09-06T08:05:50.000Z</time>
      </trkpt>
      <trkpt lat="43.39213999919593334197998046875" lon="-4.33771979995071887969970703125">
        <ele>35</ele>
        <time>2018-09-06T08:05:51.000Z</time>
      </trkpt>
      <trkpt lat="43.392157517373561859130859375" lon="-4.337758608162403106689453125">
        <ele>37.200000762939453125</ele>
        <time>2018-09-06T08:05:52.000Z</time>
      </trkpt>
      <trkpt lat="43.39217402972280979156494140625" lon="-4.337797500193119049072265625">
        <ele>36</ele>
        <time>2018-09-06T08:05:53.000Z</time>
      </trkpt>
      <trkpt lat="43.39228701777756214141845703125" lon="-4.33804669417440891265869140625">
        <ele>37</ele>
        <time>2018-09-06T08:06:00.000Z</time>
      </trkpt>
      <trkpt lat="43.39233160950243473052978515625" lon="-4.33814744465053081512451171875">
        <ele>37.799999237060546875</ele>
        <time>2018-09-06T08:06:03.000Z</time>
      </trkpt>
      <trkpt lat="43.39237234555184841156005859375" lon="-4.33824081905186176300048828125">
        <ele>38</ele>
        <time>2018-09-06T08:06:06.000Z</time>
      </trkpt>
      <trkpt lat="43.39243303053081035614013671875" lon="-4.33838666416704654693603515625">
        <ele>38.799999237060546875</ele>
        <time>2018-09-06T08:06:11.000Z</time>
      </trkpt>
      <trkpt lat="43.39245356619358062744140625" lon="-4.338445253670215606689453125">
        <ele>39</ele>
        <time>2018-09-06T08:06:13.000Z</time>
      </trkpt>
      <trkpt lat="43.39250042103230953216552734375" lon="-4.3385604210197925567626953125">
        <ele>40.200000762939453125</ele>
        <time>2018-09-06T08:06:17.000Z</time>
      </trkpt>
      <trkpt lat="43.39252305217087268829345703125" lon="-4.3386177532374858856201171875">
        <ele>40.40000152587890625</ele>
        <time>2018-09-06T08:06:19.000Z</time>
      </trkpt>
      <trkpt lat="43.3925677277147769927978515625" lon="-4.3387294001877307891845703125">
        <ele>41.200000762939453125</ele>
        <time>2018-09-06T08:06:23.000Z</time>
      </trkpt>
      <trkpt lat="43.39260770939290523529052734375" lon="-4.3388085253536701202392578125">
        <ele>41.59999847412109375</ele>
        <time>2018-09-06T08:06:26.000Z</time>
      </trkpt>
      <trkpt lat="43.39264106936752796173095703125" lon="-4.33889242820441722869873046875">
        <ele>42.200000762939453125</ele>
        <time>2018-09-06T08:06:29.000Z</time>
      </trkpt>
      <trkpt lat="43.39268716983497142791748046875" lon="-4.3390489183366298675537109375">
        <ele>42.59999847412109375</ele>
        <time>2018-09-06T08:06:34.000Z</time>
      </trkpt>
      <trkpt lat="43.392728157341480255126953125" lon="-4.33917255140841007232666015625">
        <ele>43.200000762939453125</ele>
        <time>2018-09-06T08:06:38.000Z</time>
      </trkpt>
      <trkpt lat="43.39274953119456768035888671875" lon="-4.33927573263645172119140625">
        <ele>43.59999847412109375</ele>
        <time>2018-09-06T08:06:41.000Z</time>
      </trkpt>
      <trkpt lat="43.39281440712511539459228515625" lon="-4.3395675905048847198486328125">
        <ele>44</ele>
        <time>2018-09-06T08:06:49.000Z</time>
      </trkpt>
      <trkpt lat="43.392833769321441650390625" lon="-4.33963724412024021148681640625">
        <ele>44.40000152587890625</ele>
        <time>2018-09-06T08:06:51.000Z</time>
      </trkpt>
      <trkpt lat="43.3928952924907207489013671875" lon="-4.33989624492824077606201171875">
        <ele>45.40000152587890625</ele>
        <time>2018-09-06T08:06:58.000Z</time>
      </trkpt>
      <trkpt lat="43.39290560223162174224853515625" lon="-4.33993262238800525665283203125">
        <ele>45.59999847412109375</ele>
        <time>2018-09-06T08:06:59.000Z</time>
      </trkpt>
      <trkpt lat="43.39295706711709499359130859375" lon="-4.34009875170886516571044921875">
        <ele>46.200000762939453125</ele>
        <time>2018-09-06T08:07:04.000Z</time>
      </trkpt>
      <trkpt lat="43.3929670415818691253662109375" lon="-4.34013144113123416900634765625">
        <ele>46.40000152587890625</ele>
        <time>2018-09-06T08:07:05.000Z</time>
      </trkpt>
      <trkpt lat="43.3929985575377941131591796875" lon="-4.34022498317062854766845703125">
        <ele>47</ele>
        <time>2018-09-06T08:07:08.000Z</time>
      </trkpt>
      <trkpt lat="43.393023200333118438720703125" lon="-4.3402820639312267303466796875">
        <ele>47.59999847412109375</ele>
        <time>2018-09-06T08:07:10.000Z</time>
      </trkpt>
      <trkpt lat="43.39308396913111209869384765625" lon="-4.34046269394457340240478515625">
        <ele>48.59999847412109375</ele>
        <time>2018-09-06T08:07:16.000Z</time>
      </trkpt>
      <trkpt lat="43.39309637434780597686767578125" lon="-4.340491779148578643798828125">
        <ele>48.799999237060546875</ele>
        <time>2018-09-06T08:07:17.000Z</time>
      </trkpt>
      <trkpt lat="43.393206931650638580322265625" lon="-4.34071482159197330474853515625">
        <ele>49.59999847412109375</ele>
        <time>2018-09-06T08:07:25.000Z</time>
      </trkpt>
      <trkpt lat="43.39322025887668132781982421875" lon="-4.34074466116726398468017578125">
        <ele>49.799999237060546875</ele>
        <time>2018-09-06T08:07:26.000Z</time>
      </trkpt>
      <trkpt lat="43.3933197520673274993896484375" lon="-4.3409420549869537353515625">
        <ele>50.40000152587890625</ele>
        <time>2018-09-06T08:07:32.000Z</time>
      </trkpt>
      <trkpt lat="43.39336928911507129669189453125" lon="-4.34104087762534618377685546875">
        <ele>51</ele>
        <time>2018-09-06T08:07:35.000Z</time>
      </trkpt>
      <trkpt lat="43.39342989027500152587890625" lon="-4.3411745689809322357177734375">
        <ele>51.59999847412109375</ele>
        <time>2018-09-06T08:07:39.000Z</time>
      </trkpt>
      <trkpt lat="43.39348965324461460113525390625" lon="-4.3412952683866024017333984375">
        <ele>52.200000762939453125</ele>
        <time>2018-09-06T08:07:43.000Z</time>
      </trkpt>
      <trkpt lat="43.393583111464977264404296875" lon="-4.341472126543521881103515625">
        <ele>53</ele>
        <time>2018-09-06T08:07:49.000Z</time>
      </trkpt>
      <trkpt lat="43.3936000429093837738037109375" lon="-4.34149651788175106048583984375">
        <ele>53.200000762939453125</ele>
        <time>2018-09-06T08:07:50.000Z</time>
      </trkpt>
      <trkpt lat="43.39372451417148113250732421875" lon="-4.34162811376154422760009765625">
        <ele>54.40000152587890625</ele>
        <time>2018-09-06T08:07:57.000Z</time>
      </trkpt>
      <trkpt lat="43.3938545174896717071533203125" lon="-4.34170220978558063507080078125">
        <ele>55.40000152587890625</ele>
        <time>2018-09-06T08:08:04.000Z</time>
      </trkpt>
      <trkpt lat="43.39394764043390750885009765625" lon="-4.34173774905502796173095703125">
        <ele>56.59999847412109375</ele>
        <time>2018-09-06T08:08:09.000Z</time>
      </trkpt>
      <trkpt lat="43.3940100856125354766845703125" lon="-4.3417415209114551544189453125">
        <ele>57</ele>
        <time>2018-09-06T08:08:12.000Z</time>
      </trkpt>
      <trkpt lat="43.3940716087818145751953125" lon="-4.34174646623432636260986328125">
        <ele>57.799999237060546875</ele>
        <time>2018-09-06T08:08:15.000Z</time>
      </trkpt>
      <trkpt lat="43.3941455371677875518798828125" lon="-4.34175535105168819427490234375">
        <ele>58.59999847412109375</ele>
        <time>2018-09-06T08:08:19.000Z</time>
      </trkpt>
      <trkpt lat="43.394186608493328094482421875" lon="-4.34176373295485973358154296875">
        <ele>58.799999237060546875</ele>
        <time>2018-09-06T08:08:21.000Z</time>
      </trkpt>
      <trkpt lat="43.3943076431751251220703125" lon="-4.341780580580234527587890625">
        <ele>60</ele>
        <time>2018-09-06T08:08:27.000Z</time>
      </trkpt>
      <trkpt lat="43.39434695430099964141845703125" lon="-4.34179055504500865936279296875">
        <ele>60.40000152587890625</ele>
        <time>2018-09-06T08:08:29.000Z</time>
      </trkpt>
      <trkpt lat="43.39444854296743869781494140625" lon="-4.341823495924472808837890625">
        <ele>61.200000762939453125</ele>
        <time>2018-09-06T08:08:34.000Z</time>
      </trkpt>
      <trkpt lat="43.39450017549097537994384765625" lon="-4.3418602086603641510009765625">
        <ele>61.59999847412109375</ele>
        <time>2018-09-06T08:08:37.000Z</time>
      </trkpt>
      <trkpt lat="43.39458885602653026580810546875" lon="-4.3419343046844005584716796875">
        <ele>62.200000762939453125</ele>
        <time>2018-09-06T08:08:42.000Z</time>
      </trkpt>
      <trkpt lat="43.39464937336742877960205078125" lon="-4.3420141004025936126708984375">
        <ele>63</ele>
        <time>2018-09-06T08:08:46.000Z</time>
      </trkpt>
      <trkpt lat="43.39470318518579006195068359375" lon="-4.3421012721955776214599609375">
        <ele>63.40000152587890625</ele>
        <time>2018-09-06T08:08:50.000Z</time>
      </trkpt>
      <trkpt lat="43.39475263841450214385986328125" lon="-4.34219473041594028472900390625">
        <ele>64</ele>
        <time>2018-09-06T08:08:54.000Z</time>
      </trkpt>
      <trkpt lat="43.3947743475437164306640625" lon="-4.34224938042461872100830078125">
        <ele>64.40000152587890625</ele>
        <time>2018-09-06T08:08:56.000Z</time>
      </trkpt>
      <trkpt lat="43.39483059011399745941162109375" lon="-4.3424026854336261749267578125">
        <ele>65.40000152587890625</ele>
        <time>2018-09-06T08:09:02.000Z</time>
      </trkpt>
      <trkpt lat="43.3948643691837787628173828125" lon="-4.3426506221294403076171875">
        <ele>66.1999969482421875</ele>
        <time>2018-09-06T08:09:11.000Z</time>
      </trkpt>
      <trkpt lat="43.39486428536474704742431640625" lon="-4.342699237167835235595703125">
        <ele>66.40000152587890625</ele>
        <time>2018-09-06T08:09:13.000Z</time>
      </trkpt>
      <trkpt lat="43.39486218988895416259765625" lon="-4.34289562515914440155029296875">
        <ele>67.40000152587890625</ele>
        <time>2018-09-06T08:09:20.000Z</time>
      </trkpt>
      <trkpt lat="43.39486277662217617034912109375" lon="-4.3429498560726642608642578125">
        <ele>67.59999847412109375</ele>
        <time>2018-09-06T08:09:22.000Z</time>
      </trkpt>
      <trkpt lat="43.39485707692801952362060546875" lon="-4.34305957518517971038818359375">
        <ele>68.1999969482421875</ele>
        <time>2018-09-06T08:09:26.000Z</time>
      </trkpt>
      <trkpt lat="43.39485523290932178497314453125" lon="-4.34317155741155147552490234375">
        <ele>68.59999847412109375</ele>
        <time>2018-09-06T08:09:30.000Z</time>
      </trkpt>
      <trkpt lat="43.394854478538036346435546875" lon="-4.34319871477782726287841796875">
        <ele>68.8000030517578125</ele>
        <time>2018-09-06T08:09:31.000Z</time>
      </trkpt>
      <trkpt lat="43.39484534226357936859130859375" lon="-4.34336165897548198699951171875">
        <ele>69.8000030517578125</ele>
        <time>2018-09-06T08:09:37.000Z</time>
      </trkpt>
      <trkpt lat="43.394848443567752838134765625" lon="-4.34341815300285816192626953125">
        <ele>70.40000152587890625</ele>
        <time>2018-09-06T08:09:39.000Z</time>
      </trkpt>
      <trkpt lat="43.3948465995490550994873046875" lon="-4.3434983678162097930908203125">
        <ele>70.8000030517578125</ele>
        <time>2018-09-06T08:09:42.000Z</time>
      </trkpt>
      <trkpt lat="43.39483880437910556793212890625" lon="-4.3436593003571033477783203125">
        <ele>72</ele>
        <time>2018-09-06T08:09:48.000Z</time>
      </trkpt>
      <trkpt lat="43.39483536779880523681640625" lon="-4.34371386654675006866455078125">
        <ele>72.40000152587890625</ele>
        <time>2018-09-06T08:09:50.000Z</time>
      </trkpt>
      <trkpt lat="43.39482195675373077392578125" lon="-4.3438629806041717529296875">
        <ele>73.8000030517578125</ele>
        <time>2018-09-06T08:09:56.000Z</time>
      </trkpt>
      <trkpt lat="43.39481868781149387359619140625" lon="-4.34391335584223270416259765625">
        <ele>75</ele>
        <time>2018-09-06T08:09:58.000Z</time>
      </trkpt>
      <trkpt lat="43.39481717906892299652099609375" lon="-4.34393917210400104522705078125">
        <ele>74.59999847412109375</ele>
        <time>2018-09-06T08:09:59.000Z</time>
      </trkpt>
      <trkpt lat="43.3948221243917942047119140625" lon="-4.344109408557415008544921875">
        <ele>75.1999969482421875</ele>
        <time>2018-09-06T08:10:06.000Z</time>
      </trkpt>
      <trkpt lat="43.39481147937476634979248046875" lon="-4.34428433887660503387451171875">
        <ele>76.1999969482421875</ele>
        <time>2018-09-06T08:10:13.000Z</time>
      </trkpt>
      <trkpt lat="43.3948083780705928802490234375" lon="-4.34433781541883945465087890625">
        <ele>76.40000152587890625</ele>
        <time>2018-09-06T08:10:15.000Z</time>
      </trkpt>
      <trkpt lat="43.39480443857610225677490234375" lon="-4.34446136467158794403076171875">
        <ele>77.40000152587890625</ele>
        <time>2018-09-06T08:10:20.000Z</time>
      </trkpt>
      <trkpt lat="43.39480452239513397216796875" lon="-4.3445544876158237457275390625">
        <ele>78</ele>
        <time>2018-09-06T08:10:24.000Z</time>
      </trkpt>
      <trkpt lat="43.39479790069162845611572265625" lon="-4.3446300923824310302734375">
        <ele>78.59999847412109375</ele>
        <time>2018-09-06T08:10:27.000Z</time>
      </trkpt>
      <trkpt lat="43.39479806832969188690185546875" lon="-4.34475339017808437347412109375">
        <ele>79</ele>
        <time>2018-09-06T08:10:31.000Z</time>
      </trkpt>
      <trkpt lat="43.39479287154972553253173828125" lon="-4.34486411511898040771484375">
        <ele>79.59999847412109375</ele>
        <time>2018-09-06T08:10:35.000Z</time>
      </trkpt>
      <trkpt lat="43.39479169808328151702880859375" lon="-4.3449735827744007110595703125">
        <ele>80.1999969482421875</ele>
        <time>2018-09-06T08:10:39.000Z</time>
      </trkpt>
      <trkpt lat="43.39479220099747180938720703125" lon="-4.3450557254254817962646484375">
        <ele>80.59999847412109375</ele>
        <time>2018-09-06T08:10:42.000Z</time>
      </trkpt>
      <trkpt lat="43.394792117178440093994140625" lon="-4.34519595466554164886474609375">
        <ele>81.40000152587890625</ele>
        <time>2018-09-06T08:10:47.000Z</time>
      </trkpt>
      <trkpt lat="43.39479119516909122467041015625" lon="-4.34530659578740596771240234375">
        <ele>82</ele>
        <time>2018-09-06T08:10:51.000Z</time>
      </trkpt>
      <trkpt lat="43.39479270391166210174560546875" lon="-4.345451183617115020751953125">
        <ele>82.59999847412109375</ele>
        <time>2018-09-06T08:10:56.000Z</time>
      </trkpt>
      <trkpt lat="43.39479085989296436309814453125" lon="-4.34554950334131717681884765625">
        <ele>83</ele>
        <time>2018-09-06T08:10:59.000Z</time>
      </trkpt>
      <trkpt lat="43.39480075053870677947998046875" lon="-4.34579676948487758636474609375">
        <ele>83.8000030517578125</ele>
        <time>2018-09-06T08:11:06.000Z</time>
      </trkpt>
      <trkpt lat="43.39480108581483364105224609375" lon="-4.34586281888186931610107421875">
        <ele>84</ele>
        <time>2018-09-06T08:11:08.000Z</time>
      </trkpt>
      <trkpt lat="43.39480075053870677947998046875" lon="-4.34603221714496612548828125">
        <ele>85</ele>
        <time>2018-09-06T08:11:13.000Z</time>
      </trkpt>
      <trkpt lat="43.394802510738372802734375" lon="-4.3460699357092380523681640625">
        <ele>85</ele>
        <time>2018-09-06T08:11:14.000Z</time>
      </trkpt>
      <trkpt lat="43.39480494149029254913330078125" lon="-4.34610757045447826385498046875">
        <ele>85.1999969482421875</ele>
        <time>2018-09-06T08:11:15.000Z</time>
      </trkpt>
      <trkpt lat="43.394797146320343017578125" lon="-4.34631996788084506988525390625">
        <ele>86</ele>
        <time>2018-09-06T08:11:21.000Z</time>
      </trkpt>
      <trkpt lat="43.39479605667293071746826171875" lon="-4.34635450132191181182861328125">
        <ele>86</ele>
        <time>2018-09-06T08:11:22.000Z</time>
      </trkpt>
      <trkpt lat="43.39480611495673656463623046875" lon="-4.3465022742748260498046875">
        <ele>86.40000152587890625</ele>
        <time>2018-09-06T08:11:26.000Z</time>
      </trkpt>
      <trkpt lat="43.394813239574432373046875" lon="-4.34661886654794216156005859375">
        <ele>87</ele>
        <time>2018-09-06T08:11:29.000Z</time>
      </trkpt>
      <trkpt lat="43.39481466449797153472900390625" lon="-4.34669665060937404632568359375">
        <ele>86.8000030517578125</ele>
        <time>2018-09-06T08:11:31.000Z</time>
      </trkpt>
      <trkpt lat="43.394819609820842742919921875" lon="-4.3468943797051906585693359375">
        <ele>87.59999847412109375</ele>
        <time>2018-09-06T08:11:36.000Z</time>
      </trkpt>
      <trkpt lat="43.39482019655406475067138671875" lon="-4.34705237857997417449951171875">
        <ele>88</ele>
        <time>2018-09-06T08:11:40.000Z</time>
      </trkpt>
      <trkpt lat="43.3948217891156673431396484375" lon="-4.34716947376728057861328125">
        <ele>88.59999847412109375</ele>
        <time>2018-09-06T08:11:43.000Z</time>
      </trkpt>
      <trkpt lat="43.39482463896274566650390625" lon="-4.34737868607044219970703125">
        <ele>89</ele>
        <time>2018-09-06T08:11:48.000Z</time>
      </trkpt>
      <trkpt lat="43.39482019655406475067138671875" lon="-4.34751237742602825164794921875">
        <ele>89.40000152587890625</ele>
        <time>2018-09-06T08:11:51.000Z</time>
      </trkpt>
      <trkpt lat="43.394818603992462158203125" lon="-4.347558058798313140869140625">
        <ele>89.8000030517578125</ele>
        <time>2018-09-06T08:11:52.000Z</time>
      </trkpt>
      <trkpt lat="43.39481701143085956573486328125" lon="-4.347647912800312042236328125">
        <ele>90</ele>
        <time>2018-09-06T08:11:54.000Z</time>
      </trkpt>
      <trkpt lat="43.394817598164081573486328125" lon="-4.3478864617645740509033203125">
        <ele>90.59999847412109375</ele>
        <time>2018-09-06T08:11:59.000Z</time>
      </trkpt>
      <trkpt lat="43.394818603992462158203125" lon="-4.34804814867675304412841796875">
        <ele>90.8000030517578125</ele>
        <time>2018-09-06T08:12:02.000Z</time>
      </trkpt>
      <trkpt lat="43.39483964256942272186279296875" lon="-4.3483749590814113616943359375">
        <ele>91</ele>
        <time>2018-09-06T08:12:08.000Z</time>
      </trkpt>
      <trkpt lat="43.39487970806658267974853515625" lon="-4.34873563237488269805908203125">
        <ele>91.8000030517578125</ele>
        <time>2018-09-06T08:12:14.000Z</time>
      </trkpt>
      <trkpt lat="43.39491139166057109832763671875" lon="-4.34904224239289760589599609375">
        <ele>92</ele>
        <time>2018-09-06T08:12:19.000Z</time>
      </trkpt>
      <trkpt lat="43.39495615102350711822509765625" lon="-4.349453039467334747314453125">
        <ele>91.40000152587890625</ele>
        <time>2018-09-06T08:12:25.000Z</time>
      </trkpt>
      <trkpt lat="43.3950169198215007781982421875" lon="-4.349817149341106414794921875">
        <ele>92.1999969482421875</ele>
        <time>2018-09-06T08:12:30.000Z</time>
      </trkpt>
      <trkpt lat="43.39506980963051319122314453125" lon="-4.3500322289764881134033203125">
        <ele>93.1999969482421875</ele>
        <time>2018-09-06T08:12:33.000Z</time>
      </trkpt>
      <trkpt lat="43.39517927728593349456787109375" lon="-4.3503762222826480865478515625">
        <ele>92</ele>
        <time>2018-09-06T08:12:38.000Z</time>
      </trkpt>
      <trkpt lat="43.39521314017474651336669921875" lon="-4.35049683786928653717041015625">
        <ele>92.1999969482421875</ele>
        <time>2018-09-06T08:12:40.000Z</time>
      </trkpt>
      <trkpt lat="43.39523904025554656982421875" lon="-4.3505931459367275238037109375">
        <ele>92.59999847412109375</ele>
        <time>2018-09-06T08:12:42.000Z</time>
      </trkpt>
      <trkpt lat="43.3952529542148113250732421875" lon="-4.35064855031669139862060546875">
        <ele>92.59999847412109375</ele>
        <time>2018-09-06T08:12:44.000Z</time>
      </trkpt>
      <trkpt lat="43.3952479250729084014892578125" lon="-4.3506974168121814727783203125">
        <ele>92.8000030517578125</ele>
        <time>2018-09-06T08:12:46.000Z</time>
      </trkpt>
      <trkpt lat="43.395255468785762786865234375" lon="-4.350747205317020416259765625">
        <ele>92.8000030517578125</ele>
        <time>2018-09-06T08:12:48.000Z</time>
      </trkpt>
      <trkpt lat="43.39526007883250713348388671875" lon="-4.350772686302661895751953125">
        <ele>93</ele>
        <time>2018-09-06T08:12:49.000Z</time>
      </trkpt>
      <trkpt lat="43.39526527561247348785400390625" lon="-4.35079975984990596771240234375">
        <ele>93.1999969482421875</ele>
        <time>2018-09-06T08:12:50.000Z</time>
      </trkpt>
      <trkpt lat="43.39527080766856670379638671875" lon="-4.35085139237344264984130859375">
        <ele>92.8000030517578125</ele>
        <time>2018-09-06T08:12:52.000Z</time>
      </trkpt>
      <trkpt lat="43.39528723619878292083740234375" lon="-4.35100545175373554229736328125">
        <ele>92.1999969482421875</ele>
        <time>2018-09-06T08:12:56.000Z</time>
      </trkpt>
      <trkpt lat="43.39529268443584442138671875" lon="-4.35105993412435054779052734375">
        <ele>91.8000030517578125</ele>
        <time>2018-09-06T08:12:57.000Z</time>
      </trkpt>
      <trkpt lat="43.39530634693801403045654296875" lon="-4.3511879257857799530029296875">
        <ele>90.59999847412109375</ele>
        <time>2018-09-06T08:12:59.000Z</time>
      </trkpt>
      <trkpt lat="43.39531808160245418548583984375" lon="-4.35133754275739192962646484375">
        <ele>89.59999847412109375</ele>
        <time>2018-09-06T08:13:01.000Z</time>
      </trkpt>
      <trkpt lat="43.39530969969928264617919921875" lon="-4.35152948834002017974853515625">
        <ele>88.1999969482421875</ele>
        <time>2018-09-06T08:13:03.000Z</time>
      </trkpt>
      <trkpt lat="43.39530969969928264617919921875" lon="-4.35174574144184589385986328125">
        <ele>86.8000030517578125</ele>
        <time>2018-09-06T08:13:05.000Z</time>
      </trkpt>
      <trkpt lat="43.3953102864325046539306640625" lon="-4.351863004267215728759765625">
        <ele>85.59999847412109375</ele>
        <time>2018-09-06T08:13:06.000Z</time>
      </trkpt>
      <trkpt lat="43.39530802331864833831787109375" lon="-4.35198831371963024139404296875">
        <ele>84.59999847412109375</ele>
        <time>2018-09-06T08:13:07.000Z</time>
      </trkpt>
      <trkpt lat="43.39528723619878292083740234375" lon="-4.352255277335643768310546875">
        <ele>83</ele>
        <time>2018-09-06T08:13:09.000Z</time>
      </trkpt>
      <trkpt lat="43.3952703885734081268310546875" lon="-4.35239466838538646697998046875">
        <ele>81.40000152587890625</ele>
        <time>2018-09-06T08:13:10.000Z</time>
      </trkpt>
      <trkpt lat="43.3952475897967815399169921875" lon="-4.35253313742578029632568359375">
        <ele>79.8000030517578125</ele>
        <time>2018-09-06T08:13:11.000Z</time>
      </trkpt>
      <trkpt lat="43.395219929516315460205078125" lon="-4.35267076827585697174072265625">
        <ele>78.59999847412109375</ele>
        <time>2018-09-06T08:13:12.000Z</time>
      </trkpt>
      <trkpt lat="43.39515094645321369171142578125" lon="-4.35293831862509250640869140625">
        <ele>76.8000030517578125</ele>
        <time>2018-09-06T08:13:14.000Z</time>
      </trkpt>
      <trkpt lat="43.3951087854802608489990234375" lon="-4.353063963353633880615234375">
        <ele>74.8000030517578125</ele>
        <time>2018-09-06T08:13:15.000Z</time>
      </trkpt>
      <trkpt lat="43.394968807697296142578125" lon="-4.35341809876263141632080078125">
        <ele>74.59999847412109375</ele>
        <time>2018-09-06T08:13:18.000Z</time>
      </trkpt>
      <trkpt lat="43.39486780576407909393310546875" lon="-4.35364223085343837738037109375">
        <ele>74.40000152587890625</ele>
        <time>2018-09-06T08:13:20.000Z</time>
      </trkpt>
      <trkpt lat="43.39481818489730358123779296875" lon="-4.35375421307981014251708984375">
        <ele>73.59999847412109375</ele>
        <time>2018-09-06T08:13:21.000Z</time>
      </trkpt>
      <trkpt lat="43.39472112245857715606689453125" lon="-4.35397826135158538818359375">
        <ele>72</ele>
        <time>2018-09-06T08:13:23.000Z</time>
      </trkpt>
      <trkpt lat="43.39457293041050434112548828125" lon="-4.35431663878262042999267578125">
        <ele>70.8000030517578125</ele>
        <time>2018-09-06T08:13:26.000Z</time>
      </trkpt>
      <trkpt lat="43.3945217169821262359619140625" lon="-4.35442887246608734130859375">
        <ele>69.8000030517578125</ele>
        <time>2018-09-06T08:13:27.000Z</time>
      </trkpt>
      <trkpt lat="43.3943684957921504974365234375" lon="-4.35476356185972690582275390625">
        <ele>69.1999969482421875</ele>
        <time>2018-09-06T08:13:30.000Z</time>
      </trkpt>
      <trkpt lat="43.39432029984891414642333984375" lon="-4.35487587936222553253173828125">
        <ele>68.59999847412109375</ele>
        <time>2018-09-06T08:13:31.000Z</time>
      </trkpt>
      <trkpt lat="43.39416137896478176116943359375" lon="-4.3551971577107906341552734375">
        <ele>67.1999969482421875</ele>
        <time>2018-09-06T08:13:34.000Z</time>
      </trkpt>
      <trkpt lat="43.394098095595836639404296875" lon="-4.3552923761308193206787109375">
        <ele>66.8000030517578125</ele>
        <time>2018-09-06T08:13:35.000Z</time>
      </trkpt>
      <trkpt lat="43.39395501650869846343994140625" lon="-4.35547501780092716217041015625">
        <ele>66</ele>
        <time>2018-09-06T08:13:37.000Z</time>
      </trkpt>
      <trkpt lat="43.39379877783358097076416015625" lon="-4.355632849037647247314453125">
        <ele>63.200000762939453125</ele>
        <time>2018-09-06T08:13:39.000Z</time>
      </trkpt>
      <trkpt lat="43.39371613226830959320068359375" lon="-4.35570417903363704681396484375">
        <ele>62.40000152587890625</ele>
        <time>2018-09-06T08:13:40.000Z</time>
      </trkpt>
      <trkpt lat="43.39363264851272106170654296875" lon="-4.35577190481126308441162109375">
        <ele>61.59999847412109375</ele>
        <time>2018-09-06T08:13:41.000Z</time>
      </trkpt>
      <trkpt lat="43.3934748172760009765625" lon="-4.35592018067836761474609375">
        <ele>60.59999847412109375</ele>
        <time>2018-09-06T08:13:43.000Z</time>
      </trkpt>
      <trkpt lat="43.3934042416512966156005859375" lon="-4.3560034967958927154541015625">
        <ele>60.59999847412109375</ele>
        <time>2018-09-06T08:13:44.000Z</time>
      </trkpt>
      <trkpt lat="43.39334070682525634765625" lon="-4.35609293170273303985595703125">
        <ele>61</ele>
        <time>2018-09-06T08:13:45.000Z</time>
      </trkpt>
      <trkpt lat="43.3932828716933727264404296875" lon="-4.35618630610406398773193359375">
        <ele>61.59999847412109375</ele>
        <time>2018-09-06T08:13:46.000Z</time>
      </trkpt>
      <trkpt lat="43.39322830550372600555419921875" lon="-4.35628035105764865875244140625">
        <ele>62.200000762939453125</ele>
        <time>2018-09-06T08:13:47.000Z</time>
      </trkpt>
      <trkpt lat="43.393074832856655120849609375" lon="-4.35653398744761943817138671875">
        <ele>61</ele>
        <time>2018-09-06T08:13:50.000Z</time>
      </trkpt>
      <trkpt lat="43.39302831329405307769775390625" lon="-4.3566126935184001922607421875">
        <ele>60.200000762939453125</ele>
        <time>2018-09-06T08:13:51.000Z</time>
      </trkpt>
      <trkpt lat="43.39299126528203487396240234375" lon="-4.3566945008933544158935546875">
        <ele>59.59999847412109375</ele>
        <time>2018-09-06T08:13:52.000Z</time>
      </trkpt>
      <trkpt lat="43.3929486013948917388916015625" lon="-4.356865324079990386962890625">
        <ele>59.40000152587890625</ele>
        <time>2018-09-06T08:13:54.000Z</time>
      </trkpt>
      <trkpt lat="43.39294038712978363037109375" lon="-4.35710110701620578765869140625">
        <ele>60</ele>
        <time>2018-09-06T08:13:57.000Z</time>
      </trkpt>
      <trkpt lat="43.392941392958164215087890625" lon="-4.35717704705893993377685546875">
        <ele>60.40000152587890625</ele>
        <time>2018-09-06T08:13:58.000Z</time>
      </trkpt>
      <trkpt lat="43.39293812401592731475830078125" lon="-4.35732658021152019500732421875">
        <ele>60.40000152587890625</ele>
        <time>2018-09-06T08:14:00.000Z</time>
      </trkpt>
      <trkpt lat="43.3929321728646755218505859375" lon="-4.35747527517378330230712890625">
        <ele>60.799999237060546875</ele>
        <time>2018-09-06T08:14:02.000Z</time>
      </trkpt>
      <trkpt lat="43.39292840100824832916259765625" lon="-4.357698149979114532470703125">
        <ele>61</ele>
        <time>2018-09-06T08:14:05.000Z</time>
      </trkpt>
      <trkpt lat="43.39292965829372406005859375" lon="-4.35784977860748767852783203125">
        <ele>60.799999237060546875</ele>
        <time>2018-09-06T08:14:07.000Z</time>
      </trkpt>
      <trkpt lat="43.3929667063057422637939453125" lon="-4.35818136669695377349853515625">
        <ele>59.799999237060546875</ele>
        <time>2018-09-06T08:14:11.000Z</time>
      </trkpt>
      <trkpt lat="43.3929878287017345428466796875" lon="-4.35827457346022129058837890625">
        <ele>59</ele>
        <time>2018-09-06T08:14:12.000Z</time>
      </trkpt>
      <trkpt lat="43.3930367790162563323974609375" lon="-4.35847657732665538787841796875">
        <ele>57.59999847412109375</ele>
        <time>2018-09-06T08:14:14.000Z</time>
      </trkpt>
      <trkpt lat="43.39306368492543697357177734375" lon="-4.3585883080959320068359375">
        <ele>56.40000152587890625</ele>
        <time>2018-09-06T08:14:15.000Z</time>
      </trkpt>
      <trkpt lat="43.39309067465364933013916015625" lon="-4.35870624147355556488037109375">
        <ele>55</ele>
        <time>2018-09-06T08:14:16.000Z</time>
      </trkpt>
      <trkpt lat="43.3931222744286060333251953125" lon="-4.35882811434566974639892578125">
        <ele>54.200000762939453125</ele>
        <time>2018-09-06T08:14:17.000Z</time>
      </trkpt>
      <trkpt lat="43.39325294829905033111572265625" lon="-4.35920043848454952239990234375">
        <ele>53.40000152587890625</ele>
        <time>2018-09-06T08:14:20.000Z</time>
      </trkpt>
      <trkpt lat="43.39330810122191905975341796875" lon="-4.35932046733796596527099609375">
        <ele>52.799999237060546875</ele>
        <time>2018-09-06T08:14:21.000Z</time>
      </trkpt>
      <trkpt lat="43.393364511430263519287109375" lon="-4.3594417534768581390380859375">
        <ele>52.200000762939453125</ele>
        <time>2018-09-06T08:14:22.000Z</time>
      </trkpt>
      <trkpt lat="43.39347280561923980712890625" lon="-4.359683655202388763427734375">
        <ele>50.40000152587890625</ele>
        <time>2018-09-06T08:14:24.000Z</time>
      </trkpt>
      <trkpt lat="43.3935712091624736785888671875" lon="-4.359933771193027496337890625">
        <ele>49</ele>
        <time>2018-09-06T08:14:26.000Z</time>
      </trkpt>
      <trkpt lat="43.39360691606998443603515625" lon="-4.3600662052631378173828125">
        <ele>47.59999847412109375</ele>
        <time>2018-09-06T08:14:27.000Z</time>
      </trkpt>
      <trkpt lat="43.39363239705562591552734375" lon="-4.3602031655609607696533203125">
        <ele>47</ele>
        <time>2018-09-06T08:14:28.000Z</time>
      </trkpt>
      <trkpt lat="43.39365209452807903289794921875" lon="-4.36034138314425945281982421875">
        <ele>46.200000762939453125</ele>
        <time>2018-09-06T08:14:29.000Z</time>
      </trkpt>
      <trkpt lat="43.39366458356380462646484375" lon="-4.36048018746078014373779296875">
        <ele>45</ele>
        <time>2018-09-06T08:14:30.000Z</time>
      </trkpt>
      <trkpt lat="43.39367405511438846588134765625" lon="-4.36061681248247623443603515625">
        <ele>43.59999847412109375</ele>
        <time>2018-09-06T08:14:31.000Z</time>
      </trkpt>
      <trkpt lat="43.393681682646274566650390625" lon="-4.3607528507709503173828125">
        <ele>43</ele>
        <time>2018-09-06T08:14:32.000Z</time>
      </trkpt>
      <trkpt lat="43.3936895616352558135986328125" lon="-4.36088805086910724639892578125">
        <ele>42.40000152587890625</ele>
        <time>2018-09-06T08:14:33.000Z</time>
      </trkpt>
      <trkpt lat="43.39370255358517169952392578125" lon="-4.361156523227691650390625">
        <ele>40.59999847412109375</ele>
        <time>2018-09-06T08:14:35.000Z</time>
      </trkpt>
      <trkpt lat="43.39371420443058013916015625" lon="-4.361423067748546600341796875">
        <ele>40.40000152587890625</ele>
        <time>2018-09-06T08:14:37.000Z</time>
      </trkpt>
      <trkpt lat="43.3937167190015316009521484375" lon="-4.36182363890111446380615234375">
        <ele>39.200000762939453125</ele>
        <time>2018-09-06T08:14:40.000Z</time>
      </trkpt>
      <trkpt lat="43.39370506815612316131591796875" lon="-4.3619573302567005157470703125">
        <ele>38.59999847412109375</ele>
        <time>2018-09-06T08:14:41.000Z</time>
      </trkpt>
      <trkpt lat="43.39368763379752635955810546875" lon="-4.36209152452647686004638671875">
        <ele>37.40000152587890625</ele>
        <time>2018-09-06T08:14:42.000Z</time>
      </trkpt>
      <trkpt lat="43.393670283257961273193359375" lon="-4.36222529970109462738037109375">
        <ele>36.40000152587890625</ele>
        <time>2018-09-06T08:14:43.000Z</time>
      </trkpt>
      <trkpt lat="43.393634743988513946533203125" lon="-4.36249402351677417755126953125">
        <ele>35.200000762939453125</ele>
        <time>2018-09-06T08:14:45.000Z</time>
      </trkpt>
      <trkpt lat="43.39360096491873264312744140625" lon="-4.36276090331375598907470703125">
        <ele>34.200000762939453125</ele>
        <time>2018-09-06T08:14:47.000Z</time>
      </trkpt>
      <trkpt lat="43.39358411729335784912109375" lon="-4.3628947623074054718017578125">
        <ele>33.200000762939453125</ele>
        <time>2018-09-06T08:14:48.000Z</time>
      </trkpt>
      <trkpt lat="43.39356626383960247039794921875" lon="-4.36302845366299152374267578125">
        <ele>32.200000762939453125</ele>
        <time>2018-09-06T08:14:49.000Z</time>
      </trkpt>
      <trkpt lat="43.3935460634529590606689453125" lon="-4.3631616421043872833251953125">
        <ele>31</ele>
        <time>2018-09-06T08:14:50.000Z</time>
      </trkpt>
      <trkpt lat="43.39352519251406192779541015625" lon="-4.3632940761744976043701171875">
        <ele>28.799999237060546875</ele>
        <time>2018-09-06T08:14:51.000Z</time>
      </trkpt>
      <trkpt lat="43.39347003959119319915771484375" lon="-4.3636907078325748443603515625">
        <ele>27.3999996185302734375</ele>
        <time>2018-09-06T08:14:54.000Z</time>
      </trkpt>
      <trkpt lat="43.3934370987117290496826171875" lon="-4.36395079828798770904541015625">
        <ele>26.3999996185302734375</ele>
        <time>2018-09-06T08:14:56.000Z</time>
      </trkpt>
      <trkpt lat="43.3934203349053859710693359375" lon="-4.3640776164829730987548828125">
        <ele>25.799999237060546875</ele>
        <time>2018-09-06T08:14:57.000Z</time>
      </trkpt>
      <trkpt lat="43.3933083526790142059326171875" lon="-4.36481832526624202728271484375">
        <ele>24</ele>
        <time>2018-09-06T08:15:03.000Z</time>
      </trkpt>
      <trkpt lat="43.3932879008352756500244140625" lon="-4.364940114319324493408203125">
        <ele>23.3999996185302734375</ele>
        <time>2018-09-06T08:15:04.000Z</time>
      </trkpt>
      <trkpt lat="43.3932664431631565093994140625" lon="-4.365060813724994659423828125">
        <ele>22.799999237060546875</ele>
        <time>2018-09-06T08:15:05.000Z</time>
      </trkpt>
      <trkpt lat="43.39319108985364437103271484375" lon="-4.36541243456304073333740234375">
        <ele>21.3999996185302734375</ele>
        <time>2018-09-06T08:15:08.000Z</time>
      </trkpt>
      <trkpt lat="43.39309687726199626922607421875" lon="-4.36574653722345829010009765625">
        <ele>20.3999996185302734375</ele>
        <time>2018-09-06T08:15:11.000Z</time>
      </trkpt>
      <trkpt lat="43.39306645095348358154296875" lon="-4.3658596090972423553466796875">
        <ele>20.3999996185302734375</ele>
        <time>2018-09-06T08:15:12.000Z</time>
      </trkpt>
      <trkpt lat="43.39295002631843090057373046875" lon="-4.36618893407285213470458984375">
        <ele>18.799999237060546875</ele>
        <time>2018-09-06T08:15:15.000Z</time>
      </trkpt>
      <trkpt lat="43.3928936161100864410400390625" lon="-4.36628423631191253662109375">
        <ele>18</ele>
        <time>2018-09-06T08:15:16.000Z</time>
      </trkpt>
      <trkpt lat="43.392826057970523834228515625" lon="-4.36636830680072307586669921875">
        <ele>16.799999237060546875</ele>
        <time>2018-09-06T08:15:17.000Z</time>
      </trkpt>
      <trkpt lat="43.39266520924866199493408203125" lon="-4.36651222407817840576171875">
        <ele>14.80000019073486328125</ele>
        <time>2018-09-06T08:15:19.000Z</time>
      </trkpt>
      <trkpt lat="43.3924718387424945831298828125" lon="-4.3666119687259197235107421875">
        <ele>12.80000019073486328125</ele>
        <time>2018-09-06T08:15:21.000Z</time>
      </trkpt>
      <trkpt lat="43.392367064952850341796875" lon="-4.36664633452892303466796875">
        <ele>11.6000003814697265625</ele>
        <time>2018-09-06T08:15:22.000Z</time>
      </trkpt>
      <trkpt lat="43.39226237498223781585693359375" lon="-4.36668128706514835357666015625">
        <ele>10.19999980926513671875</ele>
        <time>2018-09-06T08:15:23.000Z</time>
      </trkpt>
      <trkpt lat="43.39215944521129131317138671875" lon="-4.36672437004745006561279296875">
        <ele>9</ele>
        <time>2018-09-06T08:15:24.000Z</time>
      </trkpt>
      <trkpt lat="43.39196850545704364776611328125" lon="-4.366822354495525360107421875">
        <ele>8</ele>
        <time>2018-09-06T08:15:26.000Z</time>
      </trkpt>
      <trkpt lat="43.3918794058263301849365234375" lon="-4.3668691255152225494384765625">
        <ele>8</ele>
        <time>2018-09-06T08:15:27.000Z</time>
      </trkpt>
      <trkpt lat="43.3917137794196605682373046875" lon="-4.366971217095851898193359375">
        <ele>8.80000019073486328125</ele>
        <time>2018-09-06T08:15:29.000Z</time>
      </trkpt>
      <trkpt lat="43.39163976721465587615966796875" lon="-4.367039613425731658935546875">
        <ele>9.3999996185302734375</ele>
        <time>2018-09-06T08:15:30.000Z</time>
      </trkpt>
      <trkpt lat="43.391585536301136016845703125" lon="-4.36712368391454219818115234375">
        <ele>10</ele>
        <time>2018-09-06T08:15:31.000Z</time>
      </trkpt>
      <trkpt lat="43.39154689572751522064208984375" lon="-4.36721052043139934539794921875">
        <ele>10.80000019073486328125</ele>
        <time>2018-09-06T08:15:32.000Z</time>
      </trkpt>
      <trkpt lat="43.39152325876057147979736328125" lon="-4.3672945909202098846435546875">
        <ele>11.6000003814697265625</ele>
        <time>2018-09-06T08:15:33.000Z</time>
      </trkpt>
      <trkpt lat="43.391515128314495086669921875" lon="-4.36737379990518093109130859375">
        <ele>12.3999996185302734375</ele>
        <time>2018-09-06T08:15:34.000Z</time>
      </trkpt>
      <trkpt lat="43.3915183134377002716064453125" lon="-4.3675105087459087371826171875">
        <ele>13.80000019073486328125</ele>
        <time>2018-09-06T08:15:36.000Z</time>
      </trkpt>
      <trkpt lat="43.3915391005575656890869140625" lon="-4.367609582841396331787109375">
        <ele>14.6000003814697265625</ele>
        <time>2018-09-06T08:15:38.000Z</time>
      </trkpt>
      <trkpt lat="43.39154957793653011322021484375" lon="-4.36765241436660289764404296875">
        <ele>15.3999996185302734375</ele>
        <time>2018-09-06T08:15:39.000Z</time>
      </trkpt>
      <trkpt lat="43.39156835339963436126708984375" lon="-4.367728941142559051513671875">
        <ele>16.200000762939453125</ele>
        <time>2018-09-06T08:15:41.000Z</time>
      </trkpt>
      <trkpt lat="43.39158059097826480865478515625" lon="-4.3677596189081668853759765625">
        <ele>16.3999996185302734375</ele>
        <time>2018-09-06T08:15:42.000Z</time>
      </trkpt>
      <trkpt lat="43.3915900625288486480712890625" lon="-4.3677891232073307037353515625">
        <ele>16.799999237060546875</ele>
        <time>2018-09-06T08:15:43.000Z</time>
      </trkpt>
      <trkpt lat="43.39159785769879817962646484375" lon="-4.36781871132552623748779296875">
        <ele>17</ele>
        <time>2018-09-06T08:15:44.000Z</time>
      </trkpt>
      <trkpt lat="43.39161478914320468902587890625" lon="-4.36787520535290241241455078125">
        <ele>17.6000003814697265625</ele>
        <time>2018-09-06T08:15:46.000Z</time>
      </trkpt>
      <trkpt lat="43.391621746122837066650390625" lon="-4.36790269799530506134033203125">
        <ele>18</ele>
        <time>2018-09-06T08:15:47.000Z</time>
      </trkpt>
      <trkpt lat="43.391634486615657806396484375" lon="-4.36795525252819061279296875">
        <ele>18.3999996185302734375</ele>
        <time>2018-09-06T08:15:49.000Z</time>
      </trkpt>
      <trkpt lat="43.3916490711271762847900390625" lon="-4.3680050410330295562744140625">
        <ele>19</ele>
        <time>2018-09-06T08:15:51.000Z</time>
      </trkpt>
      <trkpt lat="43.3916597999632358551025390625" lon="-4.3680566735565662384033203125">
        <ele>19.3999996185302734375</ele>
        <time>2018-09-06T08:15:53.000Z</time>
      </trkpt>
      <trkpt lat="43.39167430065572261810302734375" lon="-4.3681280873715877532958984375">
        <ele>20</ele>
        <time>2018-09-06T08:15:56.000Z</time>
      </trkpt>
      <trkpt lat="43.3916970156133174896240234375" lon="-4.3682179413735866546630859375">
        <ele>20.799999237060546875</ele>
        <time>2018-09-06T08:16:00.000Z</time>
      </trkpt>
      <trkpt lat="43.39170196093618869781494140625" lon="-4.36826345510780811309814453125">
        <ele>21</ele>
        <time>2018-09-06T08:16:02.000Z</time>
      </trkpt>
      <trkpt lat="43.3917013742029666900634765625" lon="-4.3682860024273395538330078125">
        <ele>21.3999996185302734375</ele>
        <time>2018-09-06T08:16:03.000Z</time>
      </trkpt>
      <trkpt lat="43.39171755127608776092529296875" lon="-4.36837459914386272430419921875">
        <ele>22.200000762939453125</ele>
        <time>2018-09-06T08:16:07.000Z</time>
      </trkpt>
      <trkpt lat="43.39172266423702239990234375" lon="-4.3684432469308376312255859375">
        <ele>23</ele>
        <time>2018-09-06T08:16:10.000Z</time>
      </trkpt>
      <trkpt lat="43.39171537198126316070556640625" lon="-4.36850954778492450714111328125">
        <ele>23.3999996185302734375</ele>
        <time>2018-09-06T08:16:13.000Z</time>
      </trkpt>
      <trkpt lat="43.391688801348209381103515625" lon="-4.36862085945904254913330078125">
        <ele>24.200000762939453125</ele>
        <time>2018-09-06T08:16:18.000Z</time>
      </trkpt>
      <trkpt lat="43.3916701935231685638427734375" lon="-4.368663020431995391845703125">
        <ele>24.6000003814697265625</ele>
        <time>2018-09-06T08:16:20.000Z</time>
      </trkpt>
      <trkpt lat="43.39162476360797882080078125" lon="-4.36876452527940273284912109375">
        <ele>25.6000003814697265625</ele>
        <time>2018-09-06T08:16:25.000Z</time>
      </trkpt>
      <trkpt lat="43.39161328040063381195068359375" lon="-4.36878405511379241943359375">
        <ele>25.799999237060546875</ele>
        <time>2018-09-06T08:16:26.000Z</time>
      </trkpt>
      <trkpt lat="43.3915441296994686126708984375" lon="-4.36888866126537322998046875">
        <ele>26.799999237060546875</ele>
        <time>2018-09-06T08:16:32.000Z</time>
      </trkpt>
      <trkpt lat="43.39150942862033843994140625" lon="-4.36894138343632221221923828125">
        <ele>27.3999996185302734375</ele>
        <time>2018-09-06T08:16:35.000Z</time>
      </trkpt>
      <trkpt lat="43.391458131372928619384765625" lon="-4.36900977976620197296142578125">
        <ele>28</ele>
        <time>2018-09-06T08:16:39.000Z</time>
      </trkpt>
      <trkpt lat="43.3913821913301944732666015625" lon="-4.3690896593034267425537109375">
        <ele>29</ele>
        <time>2018-09-06T08:16:45.000Z</time>
      </trkpt>
      <trkpt lat="43.39137070812284946441650390625" lon="-4.3691052496433258056640625">
        <ele>29.200000762939453125</ele>
        <time>2018-09-06T08:16:46.000Z</time>
      </trkpt>
      <trkpt lat="43.3913164772093296051025390625" lon="-4.36918244697153568267822265625">
        <ele>30.200000762939453125</ele>
        <time>2018-09-06T08:16:51.000Z</time>
      </trkpt>
      <trkpt lat="43.39128957130014896392822265625" lon="-4.36921228654682636260986328125">
        <ele>30.6000003814697265625</ele>
        <time>2018-09-06T08:16:53.000Z</time>
      </trkpt>
      <trkpt lat="43.39124883525073528289794921875" lon="-4.36924715526401996612548828125">
        <ele>30.799999237060546875</ele>
        <time>2018-09-06T08:16:56.000Z</time>
      </trkpt>
      <trkpt lat="43.39122385717928409576416015625" lon="-4.36928269453346729278564453125">
        <ele>31.200000762939453125</ele>
        <time>2018-09-06T08:16:58.000Z</time>
      </trkpt>
      <trkpt lat="43.39121262542903423309326171875" lon="-4.3692995421588420867919921875">
        <ele>31.3999996185302734375</ele>
        <time>2018-09-06T08:16:59.000Z</time>
      </trkpt>
      <trkpt lat="43.3911803551018238067626953125" lon="-4.36937606893479824066162109375">
        <ele>32.40000152587890625</ele>
        <time>2018-09-06T08:17:03.000Z</time>
      </trkpt>
      <trkpt lat="43.3911694586277008056640625" lon="-4.3693860433995723724365234375">
        <ele>32.40000152587890625</ele>
        <time>2018-09-06T08:17:04.000Z</time>
      </trkpt>
      <trkpt lat="43.391157053411006927490234375" lon="-4.36938755214214324951171875">
        <ele>32.40000152587890625</ele>
        <time>2018-09-06T08:17:05.000Z</time>
      </trkpt>
      <trkpt lat="43.39109427295625209808349609375" lon="-4.3694510869681835174560546875">
        <ele>33.40000152587890625</ele>
        <time>2018-09-06T08:17:10.000Z</time>
      </trkpt>
      <trkpt lat="43.39100207202136516571044921875" lon="-4.36953348107635974884033203125">
        <ele>34.40000152587890625</ele>
        <time>2018-09-06T08:17:16.000Z</time>
      </trkpt>
      <trkpt lat="43.39098371565341949462890625" lon="-4.36954035423696041107177734375">
        <ele>34.40000152587890625</ele>
        <time>2018-09-06T08:17:17.000Z</time>
      </trkpt>
      <trkpt lat="43.39084985665977001190185546875" lon="-4.36958109028637409210205078125">
        <ele>35</ele>
        <time>2018-09-06T08:17:23.000Z</time>
      </trkpt>
      <trkpt lat="43.390766121447086334228515625" lon="-4.369578324258327484130859375">
        <ele>35</ele>
        <time>2018-09-06T08:17:26.000Z</time>
      </trkpt>
      <trkpt lat="43.3906774409115314483642578125" lon="-4.36955611221492290496826171875">
        <ele>35</ele>
        <time>2018-09-06T08:17:29.000Z</time>
      </trkpt>
      <trkpt lat="43.39055028744041919708251953125" lon="-4.369509257376194000244140625">
        <ele>34</ele>
        <time>2018-09-06T08:17:33.000Z</time>
      </trkpt>
      <trkpt lat="43.3904789574444293975830078125" lon="-4.36947933398187160491943359375">
        <ele>33.799999237060546875</ele>
        <time>2018-09-06T08:17:35.000Z</time>
      </trkpt>
      <trkpt lat="43.390438221395015716552734375" lon="-4.369469024240970611572265625">
        <ele>33.40000152587890625</ele>
        <time>2018-09-06T08:17:36.000Z</time>
      </trkpt>
      <trkpt lat="43.39039572514593601226806640625" lon="-4.36945318244397640228271484375">
        <ele>33</ele>
        <time>2018-09-06T08:17:37.000Z</time>
      </trkpt>
      <trkpt lat="43.3902962319552898406982421875" lon="-4.36943440698087215423583984375">
        <ele>31.799999237060546875</ele>
        <time>2018-09-06T08:17:39.000Z</time>
      </trkpt>
      <trkpt lat="43.3901782147586345672607421875" lon="-4.3695271946489810943603515625">
        <ele>30.3999996185302734375</ele>
        <time>2018-09-06T08:17:41.000Z</time>
      </trkpt>
      <trkpt lat="43.39009297080338001251220703125" lon="-4.36971520073711872100830078125">
        <ele>29.200000762939453125</ele>
        <time>2018-09-06T08:17:43.000Z</time>
      </trkpt>
      <trkpt lat="43.3900628797709941864013671875" lon="-4.36982131563127040863037109375">
        <ele>28.6000003814697265625</ele>
        <time>2018-09-06T08:17:44.000Z</time>
      </trkpt>
      <trkpt lat="43.39003597386181354522705078125" lon="-4.369932375848293304443359375">
        <ele>28</ele>
        <time>2018-09-06T08:17:45.000Z</time>
      </trkpt>
      <trkpt lat="43.38998216204345226287841796875" lon="-4.3701620399951934814453125">
        <ele>26.799999237060546875</ele>
        <time>2018-09-06T08:17:47.000Z</time>
      </trkpt>
      <trkpt lat="43.38991778902709484100341796875" lon="-4.3703915365040302276611328125">
        <ele>25.3999996185302734375</ele>
        <time>2018-09-06T08:17:49.000Z</time>
      </trkpt>
      <trkpt lat="43.3898788131773471832275390625" lon="-4.37050192616879940032958984375">
        <ele>24.6000003814697265625</ele>
        <time>2018-09-06T08:17:50.000Z</time>
      </trkpt>
      <trkpt lat="43.38983195833861827850341796875" lon="-4.370614327490329742431640625">
        <ele>23.799999237060546875</ele>
        <time>2018-09-06T08:17:51.000Z</time>
      </trkpt>
      <trkpt lat="43.38972835801541805267333984375" lon="-4.37083485536277294158935546875">
        <ele>22</ele>
        <time>2018-09-06T08:17:53.000Z</time>
      </trkpt>
      <trkpt lat="43.38967186398804187774658203125" lon="-4.37091968022286891937255859375">
        <ele>21</ele>
        <time>2018-09-06T08:17:54.000Z</time>
      </trkpt>
      <trkpt lat="43.38955409824848175048828125" lon="-4.37105714343488216400146484375">
        <ele>19</ele>
        <time>2018-09-06T08:17:56.000Z</time>
      </trkpt>
      <trkpt lat="43.38943549431860446929931640625" lon="-4.37115135602653026580810546875">
        <ele>17.6000003814697265625</ele>
        <time>2018-09-06T08:17:58.000Z</time>
      </trkpt>
      <trkpt lat="43.38933256454765796661376953125" lon="-4.37123668380081653594970703125">
        <ele>16</ele>
        <time>2018-09-06T08:18:00.000Z</time>
      </trkpt>
      <trkpt lat="43.38923952542245388031005859375" lon="-4.37131941318511962890625">
        <ele>14.6000003814697265625</ele>
        <time>2018-09-06T08:18:02.000Z</time>
      </trkpt>
      <trkpt lat="43.3891925029456615447998046875" lon="-4.3713658489286899566650390625">
        <ele>13.6000003814697265625</ele>
        <time>2018-09-06T08:18:03.000Z</time>
      </trkpt>
      <trkpt lat="43.38912754319608211517333984375" lon="-4.37150373123586177825927734375">
        <ele>12.3999996185302734375</ele>
        <time>2018-09-06T08:18:05.000Z</time>
      </trkpt>
      <trkpt lat="43.38910910300910472869873046875" lon="-4.371590651571750640869140625">
        <ele>11.6000003814697265625</ele>
        <time>2018-09-06T08:18:06.000Z</time>
      </trkpt>
      <trkpt lat="43.38909015990793704986572265625" lon="-4.37167815864086151123046875">
        <ele>11</ele>
        <time>2018-09-06T08:18:07.000Z</time>
      </trkpt>
      <trkpt lat="43.3890741504728794097900390625" lon="-4.37177605926990509033203125">
        <ele>10.6000003814697265625</ele>
        <time>2018-09-06T08:18:08.000Z</time>
      </trkpt>
      <trkpt lat="43.38904120959341526031494140625" lon="-4.3718838505446910858154296875">
        <ele>10</ele>
        <time>2018-09-06T08:18:09.000Z</time>
      </trkpt>
      <trkpt lat="43.3889943547546863555908203125" lon="-4.3721014447510242462158203125">
        <ele>9</ele>
        <time>2018-09-06T08:18:11.000Z</time>
      </trkpt>
      <trkpt lat="43.388979770243167877197265625" lon="-4.3722067214548587799072265625">
        <ele>8.80000019073486328125</ele>
        <time>2018-09-06T08:18:12.000Z</time>
      </trkpt>
      <trkpt lat="43.38896577246487140655517578125" lon="-4.37249681912362575531005859375">
        <ele>8.19999980926513671875</ele>
        <time>2018-09-06T08:18:15.000Z</time>
      </trkpt>
      <trkpt lat="43.3889712207019329071044921875" lon="-4.37258474528789520263671875">
        <ele>8.19999980926513671875</ele>
        <time>2018-09-06T08:18:16.000Z</time>
      </trkpt>
      <trkpt lat="43.3889822848141193389892578125" lon="-4.372668564319610595703125">
        <ele>8.3999996185302734375</ele>
        <time>2018-09-06T08:18:17.000Z</time>
      </trkpt>
      <trkpt lat="43.38906216435134410858154296875" lon="-4.37285489402711391448974609375">
        <ele>8.6000003814697265625</ele>
        <time>2018-09-06T08:18:20.000Z</time>
      </trkpt>
      <trkpt lat="43.3891358412802219390869140625" lon="-4.37294407747685909271240234375">
        <ele>9</ele>
        <time>2018-09-06T08:18:22.000Z</time>
      </trkpt>
      <trkpt lat="43.3892719633877277374267578125" lon="-4.37303728424012660980224609375">
        <ele>9.19999980926513671875</ele>
        <time>2018-09-06T08:18:25.000Z</time>
      </trkpt>
      <trkpt lat="43.38936232030391693115234375" lon="-4.37310316599905490875244140625">
        <ele>7.599999904632568359375</ele>
        <time>2018-09-06T08:18:27.000Z</time>
      </trkpt>
      <trkpt lat="43.38945091702044010162353515625" lon="-4.37317122705280780792236328125">
        <ele>10.3999996185302734375</ele>
        <time>2018-09-06T08:18:29.000Z</time>
      </trkpt>
      <trkpt lat="43.38949240744113922119140625" lon="-4.37320768833160400390625">
        <ele>9.19999980926513671875</ele>
        <time>2018-09-06T08:18:30.000Z</time>
      </trkpt>
      <trkpt lat="43.389571867883205413818359375" lon="-4.3732816167175769805908203125">
        <ele>9.6000003814697265625</ele>
        <time>2018-09-06T08:18:32.000Z</time>
      </trkpt>
      <trkpt lat="43.3896084129810333251953125" lon="-4.37332235276699066162109375">
        <ele>9.80000019073486328125</ele>
        <time>2018-09-06T08:18:33.000Z</time>
      </trkpt>
      <trkpt lat="43.38964085094630718231201171875" lon="-4.37336719594895839691162109375">
        <ele>10</ele>
        <time>2018-09-06T08:18:34.000Z</time>
      </trkpt>
      <trkpt lat="43.38971913792192935943603515625" lon="-4.3735099397599697113037109375">
        <ele>10</ele>
        <time>2018-09-06T08:18:37.000Z</time>
      </trkpt>
      <trkpt lat="43.38975518010556697845458984375" lon="-4.3736075051128864288330078125">
        <ele>10.3999996185302734375</ele>
        <time>2018-09-06T08:18:39.000Z</time>
      </trkpt>
      <trkpt lat="43.38981854729354381561279296875" lon="-4.37379685230553150177001953125">
        <ele>11</ele>
        <time>2018-09-06T08:18:43.000Z</time>
      </trkpt>
      <trkpt lat="43.389835059642791748046875" lon="-4.37384136021137237548828125">
        <ele>11.19999980926513671875</ele>
        <time>2018-09-06T08:18:44.000Z</time>
      </trkpt>
      <trkpt lat="43.3898670785129070281982421875" lon="-4.3739263527095317840576171875">
        <ele>11.6000003814697265625</ele>
        <time>2018-09-06T08:18:46.000Z</time>
      </trkpt>
      <trkpt lat="43.3898821659386157989501953125" lon="-4.373967088758945465087890625">
        <ele>11.80000019073486328125</ele>
        <time>2018-09-06T08:18:47.000Z</time>
      </trkpt>
      <trkpt lat="43.3899343013763427734375" lon="-4.37407672405242919921875">
        <ele>12.19999980926513671875</ele>
        <time>2018-09-06T08:18:50.000Z</time>
      </trkpt>
      <trkpt lat="43.38994980789721012115478515625" lon="-4.37411469407379627227783203125">
        <ele>12.6000003814697265625</ele>
        <time>2018-09-06T08:18:51.000Z</time>
      </trkpt>
      <trkpt lat="43.3899643085896968841552734375" lon="-4.37415325082838535308837890625">
        <ele>12.80000019073486328125</ele>
        <time>2018-09-06T08:18:52.000Z</time>
      </trkpt>
      <trkpt lat="43.38998970575630664825439453125" lon="-4.37422583810985088348388671875">
        <ele>13.19999980926513671875</ele>
        <time>2018-09-06T08:18:54.000Z</time>
      </trkpt>
      <trkpt lat="43.39002256281673908233642578125" lon="-4.37433077953755855560302734375">
        <ele>13.6000003814697265625</ele>
        <time>2018-09-06T08:18:57.000Z</time>
      </trkpt>
      <trkpt lat="43.39006296359002590179443359375" lon="-4.37445214949548244476318359375">
        <ele>14.6000003814697265625</ele>
        <time>2018-09-06T08:19:01.000Z</time>
      </trkpt>
      <trkpt lat="43.3900722675025463104248046875" lon="-4.37448282726109027862548828125">
        <ele>14.80000019073486328125</ele>
        <time>2018-09-06T08:19:02.000Z</time>
      </trkpt>
      <trkpt lat="43.39013278484344482421875" lon="-4.3746708333492279052734375">
        <ele>15.6000003814697265625</ele>
        <time>2018-09-06T08:19:08.000Z</time>
      </trkpt>
      <trkpt lat="43.390141837298870086669921875" lon="-4.37470427714288234710693359375">
        <ele>16</ele>
        <time>2018-09-06T08:19:09.000Z</time>
      </trkpt>
      <trkpt lat="43.3901636302471160888671875" lon="-4.37476261518895626068115234375">
        <ele>16.3999996185302734375</ele>
        <time>2018-09-06T08:19:11.000Z</time>
      </trkpt>
      <trkpt lat="43.390196822583675384521484375" lon="-4.37487929128110408782958984375">
        <ele>17</ele>
        <time>2018-09-06T08:19:15.000Z</time>
      </trkpt>
      <trkpt lat="43.3902214653789997100830078125" lon="-4.37497048638761043548583984375">
        <ele>17.6000003814697265625</ele>
        <time>2018-09-06T08:19:18.000Z</time>
      </trkpt>
      <trkpt lat="43.3902305178344249725341796875" lon="-4.3750384636223316192626953125">
        <ele>18.200000762939453125</ele>
        <time>2018-09-06T08:19:20.000Z</time>
      </trkpt>
      <trkpt lat="43.39024954475462436676025390625" lon="-4.37513644807040691375732421875">
        <ele>18.799999237060546875</ele>
        <time>2018-09-06T08:19:23.000Z</time>
      </trkpt>
      <trkpt lat="43.39026144705712795257568359375" lon="-4.375238455832004547119140625">
        <ele>19.3999996185302734375</ele>
        <time>2018-09-06T08:19:26.000Z</time>
      </trkpt>
      <trkpt lat="43.3902655541896820068359375" lon="-4.375306181609630584716796875">
        <ele>19.799999237060546875</ele>
        <time>2018-09-06T08:19:28.000Z</time>
      </trkpt>
      <trkpt lat="43.390269577503204345703125" lon="-4.37533929012715816497802734375">
        <ele>20.799999237060546875</ele>
        <time>2018-09-06T08:19:29.000Z</time>
      </trkpt>
      <trkpt lat="43.390273265540599822998046875" lon="-4.37551396898925304412841796875">
        <ele>21</ele>
        <time>2018-09-06T08:19:34.000Z</time>
      </trkpt>
      <trkpt lat="43.39027066715061664581298828125" lon="-4.3757194094359874725341796875">
        <ele>21.799999237060546875</ele>
        <time>2018-09-06T08:19:40.000Z</time>
      </trkpt>
      <trkpt lat="43.3902613632380962371826171875" lon="-4.3758256919682025909423828125">
        <ele>22.200000762939453125</ele>
        <time>2018-09-06T08:19:43.000Z</time>
      </trkpt>
      <trkpt lat="43.3902288414537906646728515625" lon="-4.37602861784398555755615234375">
        <ele>23</ele>
        <time>2018-09-06T08:19:49.000Z</time>
      </trkpt>
      <trkpt lat="43.39019590057432651519775390625" lon="-4.3761656619608402252197265625">
        <ele>23.6000003814697265625</ele>
        <time>2018-09-06T08:19:53.000Z</time>
      </trkpt>
      <trkpt lat="43.3901580981910228729248046875" lon="-4.37630522064864635467529296875">
        <ele>24</ele>
        <time>2018-09-06T08:19:57.000Z</time>
      </trkpt>
      <trkpt lat="43.39009749703109264373779296875" lon="-4.37646984122693538665771484375">
        <ele>24.6000003814697265625</ele>
        <time>2018-09-06T08:20:02.000Z</time>
      </trkpt>
      <trkpt lat="43.39006698690354824066162109375" lon="-4.37657495029270648956298828125">
        <ele>25</ele>
        <time>2018-09-06T08:20:05.000Z</time>
      </trkpt>
      <trkpt lat="43.39000873267650604248046875" lon="-4.37673814594745635986328125">
        <ele>25.3999996185302734375</ele>
        <time>2018-09-06T08:20:10.000Z</time>
      </trkpt>
      <trkpt lat="43.3899515680968761444091796875" lon="-4.37687502242624759674072265625">
        <ele>25.799999237060546875</ele>
        <time>2018-09-06T08:20:14.000Z</time>
      </trkpt>
      <trkpt lat="43.3899294398725032806396484375" lon="-4.3769468553364276885986328125">
        <ele>26</ele>
        <time>2018-09-06T08:20:16.000Z</time>
      </trkpt>
      <trkpt lat="43.389919884502887725830078125" lon="-4.37698046676814556121826171875">
        <ele>26</ele>
        <time>2018-09-06T08:20:17.000Z</time>
      </trkpt>
      <trkpt lat="43.3898659050464630126953125" lon="-4.377150200307369232177734375">
        <ele>26.3999996185302734375</ele>
        <time>2018-09-06T08:20:22.000Z</time>
      </trkpt>
      <trkpt lat="43.38982776738703250885009765625" lon="-4.3772564828395843505859375">
        <ele>26.6000003814697265625</ele>
        <time>2018-09-06T08:20:25.000Z</time>
      </trkpt>
      <trkpt lat="43.38979147374629974365234375" lon="-4.37736117281019687652587890625">
        <ele>26.6000003814697265625</ele>
        <time>2018-09-06T08:20:28.000Z</time>
      </trkpt>
      <trkpt lat="43.389740176498889923095703125" lon="-4.377496205270290374755859375">
        <ele>27</ele>
        <time>2018-09-06T08:20:32.000Z</time>
      </trkpt>
      <trkpt lat="43.38971494697034358978271484375" lon="-4.37755982391536235809326171875">
        <ele>27.3999996185302734375</ele>
        <time>2018-09-06T08:20:34.000Z</time>
      </trkpt>
      <trkpt lat="43.3896620571613311767578125" lon="-4.3777312338352203369140625">
        <ele>28.200000762939453125</ele>
        <time>2018-09-06T08:20:40.000Z</time>
      </trkpt>
      <trkpt lat="43.38965308852493762969970703125" lon="-4.37775671482086181640625">
        <ele>28.3999996185302734375</ele>
        <time>2018-09-06T08:20:41.000Z</time>
      </trkpt>
      <trkpt lat="43.3896240033209323883056640625" lon="-4.37782871536910533905029296875">
        <ele>29.200000762939453125</ele>
        <time>2018-09-06T08:20:44.000Z</time>
      </trkpt>
      <trkpt lat="43.38959022425115108489990234375" lon="-4.37792234122753143310546875">
        <ele>30.200000762939453125</ele>
        <time>2018-09-06T08:20:48.000Z</time>
      </trkpt>
      <trkpt lat="43.38958100415766239166259765625" lon="-4.377968274056911468505859375">
        <ele>30.799999237060546875</ele>
        <time>2018-09-06T08:20:50.000Z</time>
      </trkpt>
      <trkpt lat="43.38955854065716266632080078125" lon="-4.37803675420582294464111328125">
        <ele>31.3999996185302734375</ele>
        <time>2018-09-06T08:20:53.000Z</time>
      </trkpt>
      <trkpt lat="43.3895244263112545013427734375" lon="-4.37811956740915775299072265625">
        <ele>32.40000152587890625</ele>
        <time>2018-09-06T08:20:57.000Z</time>
      </trkpt>
      <trkpt lat="43.38951478712260723114013671875" lon="-4.37814320437610149383544921875">
        <ele>32.40000152587890625</ele>
        <time>2018-09-06T08:20:58.000Z</time>
      </trkpt>
      <trkpt lat="43.38948444463312625885009765625" lon="-4.37823808752000331878662109375">
        <ele>33.200000762939453125</ele>
        <time>2018-09-06T08:21:02.000Z</time>
      </trkpt>
      <trkpt lat="43.3894680999219417572021484375" lon="-4.3782899715006351470947265625">
        <ele>33.59999847412109375</ele>
        <time>2018-09-06T08:21:04.000Z</time>
      </trkpt>
      <trkpt lat="43.38944270275533199310302734375" lon="-4.37835811637341976165771484375">
        <ele>34.40000152587890625</ele>
        <time>2018-09-06T08:21:07.000Z</time>
      </trkpt>
      <trkpt lat="43.389425016939640045166015625" lon="-4.37840136699378490447998046875">
        <ele>34.799999237060546875</ele>
        <time>2018-09-06T08:21:09.000Z</time>
      </trkpt>
      <trkpt lat="43.38938822038471698760986328125" lon="-4.37851938419044017791748046875">
        <ele>36</ele>
        <time>2018-09-06T08:21:14.000Z</time>
      </trkpt>
      <trkpt lat="43.3893752284348011016845703125" lon="-4.37856833450496196746826171875">
        <ele>36.200000762939453125</ele>
        <time>2018-09-06T08:21:16.000Z</time>
      </trkpt>
      <trkpt lat="43.3893561176955699920654296875" lon="-4.37865332700312137603759765625">
        <ele>37.200000762939453125</ele>
        <time>2018-09-06T08:21:20.000Z</time>
      </trkpt>
      <trkpt lat="43.38933818042278289794921875" lon="-4.3787050433456897735595703125">
        <ele>37.59999847412109375</ele>
        <time>2018-09-06T08:21:22.000Z</time>
      </trkpt>
      <trkpt lat="43.3893155492842197418212890625" lon="-4.37879330478608608245849609375">
        <ele>38.200000762939453125</ele>
        <time>2018-09-06T08:21:25.000Z</time>
      </trkpt>
      <trkpt lat="43.3893185667693614959716796875" lon="-4.378825910389423370361328125">
        <ele>38.40000152587890625</ele>
        <time>2018-09-06T08:21:26.000Z</time>
      </trkpt>
      <trkpt lat="43.3893256075680255889892578125" lon="-4.37885650433599948883056640625">
        <ele>38.40000152587890625</ele>
        <time>2018-09-06T08:21:27.000Z</time>
      </trkpt>
      <trkpt lat="43.3893490768969058990478515625" lon="-4.37905532307922840118408203125">
        <ele>38.799999237060546875</ele>
        <time>2018-09-06T08:21:33.000Z</time>
      </trkpt>
      <trkpt lat="43.3893474005162715911865234375" lon="-4.379158504307270050048828125">
        <ele>38</ele>
        <time>2018-09-06T08:21:36.000Z</time>
      </trkpt>
      <trkpt lat="43.389344550669193267822265625" lon="-4.3792227096855640411376953125">
        <ele>39.59999847412109375</ele>
        <time>2018-09-06T08:21:38.000Z</time>
      </trkpt>
      <trkpt lat="43.3893447183072566986083984375" lon="-4.37925917096436023712158203125">
        <ele>39.59999847412109375</ele>
        <time>2018-09-06T08:21:39.000Z</time>
      </trkpt>
      <trkpt lat="43.3893417008221149444580078125" lon="-4.3793306685984134674072265625">
        <ele>38.799999237060546875</ele>
        <time>2018-09-06T08:21:41.000Z</time>
      </trkpt>
      <trkpt lat="43.389322757720947265625" lon="-4.37946352176368236541748046875">
        <ele>39.40000152587890625</ele>
        <time>2018-09-06T08:21:45.000Z</time>
      </trkpt>
      <trkpt lat="43.3893195725977420806884765625" lon="-4.3795019946992397308349609375">
        <ele>39.40000152587890625</ele>
        <time>2018-09-06T08:21:46.000Z</time>
      </trkpt>
      <trkpt lat="43.3893348276615142822265625" lon="-4.37967156060039997100830078125">
        <ele>39.40000152587890625</ele>
        <time>2018-09-06T08:21:50.000Z</time>
      </trkpt>
      <trkpt lat="43.38932334445416927337646484375" lon="-4.37989535741508007049560546875">
        <ele>40.40000152587890625</ele>
        <time>2018-09-06T08:21:56.000Z</time>
      </trkpt>
      <trkpt lat="43.38931228034198284149169921875" lon="-4.3799626640975475311279296875">
        <ele>40.59999847412109375</ele>
        <time>2018-09-06T08:21:58.000Z</time>
      </trkpt>
      <trkpt lat="43.3893028087913990020751953125" lon="-4.380071796476840972900390625">
        <ele>40.40000152587890625</ele>
        <time>2018-09-06T08:22:01.000Z</time>
      </trkpt>
      <trkpt lat="43.3893007971346378326416015625" lon="-4.38011563383042812347412109375">
        <ele>40.200000762939453125</ele>
        <time>2018-09-06T08:22:02.000Z</time>
      </trkpt>
      <trkpt lat="43.38931714184582233428955078125" lon="-4.38020599074661731719970703125">
        <ele>39.59999847412109375</ele>
        <time>2018-09-06T08:22:04.000Z</time>
      </trkpt>
      <trkpt lat="43.3893329836428165435791015625" lon="-4.380257539451122283935546875">
        <ele>39.200000762939453125</ele>
        <time>2018-09-06T08:22:05.000Z</time>
      </trkpt>
      <trkpt lat="43.38935435749590396881103515625" lon="-4.3803142011165618896484375">
        <ele>38.40000152587890625</ele>
        <time>2018-09-06T08:22:06.000Z</time>
      </trkpt>
      <trkpt lat="43.38941060006618499755859375" lon="-4.38043557107448577880859375">
        <ele>36.40000152587890625</ele>
        <time>2018-09-06T08:22:08.000Z</time>
      </trkpt>
      <trkpt lat="43.38944035582244396209716796875" lon="-4.380495585501194000244140625">
        <ele>35.40000152587890625</ele>
        <time>2018-09-06T08:22:09.000Z</time>
      </trkpt>
      <trkpt lat="43.389495424926280975341796875" lon="-4.3806231580674648284912109375">
        <ele>33.59999847412109375</ele>
        <time>2018-09-06T08:22:11.000Z</time>
      </trkpt>
      <trkpt lat="43.389516212046146392822265625" lon="-4.3806969188153743743896484375">
        <ele>32.59999847412109375</ele>
        <time>2018-09-06T08:22:12.000Z</time>
      </trkpt>
      <trkpt lat="43.3895187266170978546142578125" lon="-4.38078417442739009857177734375">
        <ele>31.3999996185302734375</ele>
        <time>2018-09-06T08:22:13.000Z</time>
      </trkpt>
      <trkpt lat="43.3895147033035755157470703125" lon="-4.380876459181308746337890625">
        <ele>29.799999237060546875</ele>
        <time>2018-09-06T08:22:14.000Z</time>
      </trkpt>
      <trkpt lat="43.38949349708855152130126953125" lon="-4.3809859268367290496826171875">
        <ele>28</ele>
        <time>2018-09-06T08:22:15.000Z</time>
      </trkpt>
      <trkpt lat="43.3894716203212738037109375" lon="-4.3810958974063396453857421875">
        <ele>26.3999996185302734375</ele>
        <time>2018-09-06T08:22:16.000Z</time>
      </trkpt>
      <trkpt lat="43.38945351541042327880859375" lon="-4.38119220547378063201904296875">
        <ele>25.200000762939453125</ele>
        <time>2018-09-06T08:22:17.000Z</time>
      </trkpt>
      <trkpt lat="43.38943012990057468414306640625" lon="-4.3813443370163440704345703125">
        <ele>23.3999996185302734375</ele>
        <time>2018-09-06T08:22:19.000Z</time>
      </trkpt>
      <trkpt lat="43.3893983624875545501708984375" lon="-4.3814921937882900238037109375">
        <ele>22.200000762939453125</ele>
        <time>2018-09-06T08:22:21.000Z</time>
      </trkpt>
      <trkpt lat="43.389370031654834747314453125" lon="-4.38162370584905147552490234375">
        <ele>20.3999996185302734375</ele>
        <time>2018-09-06T08:22:23.000Z</time>
      </trkpt>
      <trkpt lat="43.3893567882478237152099609375" lon="-4.3816990591585636138916015625">
        <ele>19.200000762939453125</ele>
        <time>2018-09-06T08:22:24.000Z</time>
      </trkpt>
      <trkpt lat="43.38934480212628841400146484375" lon="-4.38177935779094696044921875">
        <ele>18</ele>
        <time>2018-09-06T08:22:25.000Z</time>
      </trkpt>
      <trkpt lat="43.38933038525283336639404296875" lon="-4.381864853203296661376953125">
        <ele>16.799999237060546875</ele>
        <time>2018-09-06T08:22:26.000Z</time>
      </trkpt>
      <trkpt lat="43.38931529782712459564208984375" lon="-4.3819498457014560699462890625">
        <ele>15.19999980926513671875</ele>
        <time>2018-09-06T08:22:27.000Z</time>
      </trkpt>
      <trkpt lat="43.38930062949657440185546875" lon="-4.382042549550533294677734375">
        <ele>12</ele>
        <time>2018-09-06T08:22:28.000Z</time>
      </trkpt>
      <trkpt lat="43.38927908800542354583740234375" lon="-4.38214355148375034332275390625">
        <ele>11.19999980926513671875</ele>
        <time>2018-09-06T08:22:29.000Z</time>
      </trkpt>
      <trkpt lat="43.38924975134432315826416015625" lon="-4.382244050502777099609375">
        <ele>10.3999996185302734375</ele>
        <time>2018-09-06T08:22:30.000Z</time>
      </trkpt>
      <trkpt lat="43.38919074274599552154541015625" lon="-4.3824453838169574737548828125">
        <ele>9.3999996185302734375</ele>
        <time>2018-09-06T08:22:32.000Z</time>
      </trkpt>
      <trkpt lat="43.38911094702780246734619140625" lon="-4.3827642314136028289794921875">
        <ele>8.19999980926513671875</ele>
        <time>2018-09-06T08:22:35.000Z</time>
      </trkpt>
      <trkpt lat="43.38908697478473186492919921875" lon="-4.38286959193646907806396484375">
        <ele>8.19999980926513671875</ele>
        <time>2018-09-06T08:22:36.000Z</time>
      </trkpt>
      <trkpt lat="43.3890070952475070953369140625" lon="-4.383222721517086029052734375">
        <ele>8.19999980926513671875</ele>
        <time>2018-09-06T08:22:40.000Z</time>
      </trkpt>
      <trkpt lat="43.388971053063869476318359375" lon="-4.3833717517554759979248046875">
        <ele>7.80000019073486328125</ele>
        <time>2018-09-06T08:22:42.000Z</time>
      </trkpt>
      <trkpt lat="43.3888654410839080810546875" lon="-4.3837366998195648193359375">
        <ele>8</ele>
        <time>2018-09-06T08:22:47.000Z</time>
      </trkpt>
      <trkpt lat="43.3888478390872478485107421875" lon="-4.38379235565662384033203125">
        <ele>7.80000019073486328125</ele>
        <time>2018-09-06T08:22:48.000Z</time>
      </trkpt>
      <trkpt lat="43.38871649466454982757568359375" lon="-4.38419711776077747344970703125">
        <ele>8</ele>
        <time>2018-09-06T08:22:55.000Z</time>
      </trkpt>
      <trkpt lat="43.388699479401111602783203125" lon="-4.384262748062610626220703125">
        <ele>8</ele>
        <time>2018-09-06T08:22:56.000Z</time>
      </trkpt>
      <trkpt lat="43.38862312026321887969970703125" lon="-4.38441504724323749542236328125">
        <ele>8.19999980926513671875</ele>
        <time>2018-09-06T08:22:59.000Z</time>
      </trkpt>
      <trkpt lat="43.388409800827503204345703125" lon="-4.3847255967557430267333984375">
        <ele>8</ele>
        <time>2018-09-06T08:23:05.000Z</time>
      </trkpt>
      <trkpt lat="43.3883402310311794281005859375" lon="-4.38483565114438533782958984375">
        <ele>8</ele>
        <time>2018-09-06T08:23:07.000Z</time>
      </trkpt>
      <trkpt lat="43.38812909089028835296630859375" lon="-4.38513153232634067535400390625">
        <ele>8.6000003814697265625</ele>
        <time>2018-09-06T08:23:13.000Z</time>
      </trkpt>
      <trkpt lat="43.38809229433536529541015625" lon="-4.385161958634853363037109375">
        <ele>8.3999996185302734375</ele>
        <time>2018-09-06T08:23:14.000Z</time>
      </trkpt>
      <trkpt lat="43.38799632154405117034912109375" lon="-4.3852959014475345611572265625">
        <ele>8.80000019073486328125</ele>
        <time>2018-09-06T08:23:17.000Z</time>
      </trkpt>
      <trkpt lat="43.38791660964488983154296875" lon="-4.38542422838509082794189453125">
        <ele>9</ele>
        <time>2018-09-06T08:23:20.000Z</time>
      </trkpt>
      <trkpt lat="43.38780320249497890472412109375" lon="-4.38559169881045818328857421875">
        <ele>9.19999980926513671875</ele>
        <time>2018-09-06T08:23:24.000Z</time>
      </trkpt>
      <trkpt lat="43.38771921582520008087158203125" lon="-4.38570418395102024078369140625">
        <ele>9.6000003814697265625</ele>
        <time>2018-09-06T08:23:27.000Z</time>
      </trkpt>
      <trkpt lat="43.387606143951416015625" lon="-4.3858340196311473846435546875">
        <ele>10</ele>
        <time>2018-09-06T08:23:31.000Z</time>
      </trkpt>
      <trkpt lat="43.38746407069265842437744140625" lon="-4.38595212064683437347412109375">
        <ele>10.3999996185302734375</ele>
        <time>2018-09-06T08:23:35.000Z</time>
      </trkpt>
      <trkpt lat="43.3873793296515941619873046875" lon="-4.3859815411269664764404296875">
        <ele>10.6000003814697265625</ele>
        <time>2018-09-06T08:23:37.000Z</time>
      </trkpt>
      <trkpt lat="43.3872599713504314422607421875" lon="-4.38600308261811733245849609375">
        <ele>10.3999996185302734375</ele>
        <time>2018-09-06T08:23:40.000Z</time>
      </trkpt>
      <trkpt lat="43.387142457067966461181640625" lon="-4.38601322472095489501953125">
        <ele>10.3999996185302734375</ele>
        <time>2018-09-06T08:23:43.000Z</time>
      </trkpt>
      <trkpt lat="43.38702301494777202606201171875" lon="-4.3860170803964138031005859375">
        <ele>10.3999996185302734375</ele>
        <time>2018-09-06T08:23:46.000Z</time>
      </trkpt>
      <trkpt lat="43.3869018964469432830810546875" lon="-4.38601724803447723388671875">
        <ele>10</ele>
        <time>2018-09-06T08:23:49.000Z</time>
      </trkpt>
      <trkpt lat="43.3868241123855113983154296875" lon="-4.38601196743547916412353515625">
        <ele>10</ele>
        <time>2018-09-06T08:23:51.000Z</time>
      </trkpt>
      <trkpt lat="43.3867416344583034515380859375" lon="-4.38599788583815097808837890625">
        <ele>10.19999980926513671875</ele>
        <time>2018-09-06T08:23:53.000Z</time>
      </trkpt>
      <trkpt lat="43.3865649439394474029541015625" lon="-4.38597776927053928375244140625">
        <ele>10.3999996185302734375</ele>
        <time>2018-09-06T08:23:57.000Z</time>
      </trkpt>
      <trkpt lat="43.3864771015942096710205078125" lon="-4.3859771825373172760009765625">
        <ele>10.19999980926513671875</ele>
        <time>2018-09-06T08:23:59.000Z</time>
      </trkpt>
      <trkpt lat="43.386359252035617828369140625" lon="-4.38601917587220668792724609375">
        <ele>10.19999980926513671875</ele>
        <time>2018-09-06T08:24:02.000Z</time>
      </trkpt>
      <trkpt lat="43.3861750178039073944091796875" lon="-4.3861796893179416656494140625">
        <ele>11.6000003814697265625</ele>
        <time>2018-09-06T08:24:08.000Z</time>
      </trkpt>
      <trkpt lat="43.3860888518393039703369140625" lon="-4.38630960881710052490234375">
        <ele>11.80000019073486328125</ele>
        <time>2018-09-06T08:24:12.000Z</time>
      </trkpt>
      <trkpt lat="43.385998494923114776611328125" lon="-4.3864242732524871826171875">
        <ele>12.19999980926513671875</ele>
        <time>2018-09-06T08:24:16.000Z</time>
      </trkpt>
      <trkpt lat="43.38594879023730754852294921875" lon="-4.386484622955322265625">
        <ele>12.6000003814697265625</ele>
        <time>2018-09-06T08:24:18.000Z</time>
      </trkpt>
      <trkpt lat="43.38585793040692806243896484375" lon="-4.38661479391157627105712890625">
        <ele>12.80000019073486328125</ele>
        <time>2018-09-06T08:24:22.000Z</time>
      </trkpt>
      <trkpt lat="43.38581216521561145782470703125" lon="-4.3866715393960475921630859375">
        <ele>13</ele>
        <time>2018-09-06T08:24:24.000Z</time>
      </trkpt>
      <trkpt lat="43.38572046719491481781005859375" lon="-4.3867929093539714813232421875">
        <ele>13.80000019073486328125</ele>
        <time>2018-09-06T08:24:28.000Z</time>
      </trkpt>
      <trkpt lat="43.3856011927127838134765625" lon="-4.38695090822875499725341796875">
        <ele>14.3999996185302734375</ele>
        <time>2018-09-06T08:24:33.000Z</time>
      </trkpt>
      <trkpt lat="43.385452330112457275390625" lon="-4.38713732175529003143310546875">
        <ele>15</ele>
        <time>2018-09-06T08:24:39.000Z</time>
      </trkpt>
      <trkpt lat="43.3853817544877529144287109375" lon="-4.3872356414794921875">
        <ele>15</ele>
        <time>2018-09-06T08:24:42.000Z</time>
      </trkpt>
      <trkpt lat="43.38524085469543933868408203125" lon="-4.3874959833920001983642578125">
        <ele>15.19999980926513671875</ele>
        <time>2018-09-06T08:24:49.000Z</time>
      </trkpt>
      <trkpt lat="43.3851128630340099334716796875" lon="-4.38776026479899883270263671875">
        <ele>15.80000019073486328125</ele>
        <time>2018-09-06T08:24:55.000Z</time>
      </trkpt>
      <trkpt lat="43.38506399653851985931396484375" lon="-4.38785179518163204193115234375">
        <ele>15.80000019073486328125</ele>
        <time>2018-09-06T08:24:57.000Z</time>
      </trkpt>
      <trkpt lat="43.38494648225605487823486328125" lon="-4.3880300782620906829833984375">
        <ele>16.200000762939453125</ele>
        <time>2018-09-06T08:25:01.000Z</time>
      </trkpt>
      <trkpt lat="43.38484975509345531463623046875" lon="-4.38817097805440425872802734375">
        <ele>15.6000003814697265625</ele>
        <time>2018-09-06T08:25:04.000Z</time>
      </trkpt>
      <trkpt lat="43.38477934710681438446044921875" lon="-4.3882723152637481689453125">
        <ele>15</ele>
        <time>2018-09-06T08:25:06.000Z</time>
      </trkpt>
      <trkpt lat="43.38462889194488525390625" lon="-4.388494603335857391357421875">
        <ele>14.3999996185302734375</ele>
        <time>2018-09-06T08:25:10.000Z</time>
      </trkpt>
      <trkpt lat="43.38442797772586345672607421875" lon="-4.38862661831080913543701171875">
        <ele>13.80000019073486328125</ele>
        <time>2018-09-06T08:25:14.000Z</time>
      </trkpt>
      <trkpt lat="43.38430744595825672149658203125" lon="-4.38865159638226032257080078125">
        <ele>12.6000003814697265625</ele>
        <time>2018-09-06T08:25:16.000Z</time>
      </trkpt>
      <trkpt lat="43.38418641127645969390869140625" lon="-4.3886674381792545318603515625">
        <ele>12.19999980926513671875</ele>
        <time>2018-09-06T08:25:18.000Z</time>
      </trkpt>
      <trkpt lat="43.3839789591729640960693359375" lon="-4.3887083418667316436767578125">
        <ele>11.3999996185302734375</ele>
        <time>2018-09-06T08:25:21.000Z</time>
      </trkpt>
      <trkpt lat="43.3838228881359100341796875" lon="-4.38873759470880031585693359375">
        <ele>11.19999980926513671875</ele>
        <time>2018-09-06T08:25:23.000Z</time>
      </trkpt>
      <trkpt lat="43.383664973080158233642578125" lon="-4.3887767381966114044189453125">
        <ele>11.6000003814697265625</ele>
        <time>2018-09-06T08:25:25.000Z</time>
      </trkpt>
      <trkpt lat="43.3835135959088802337646484375" lon="-4.38882644288241863250732421875">
        <ele>11.6000003814697265625</ele>
        <time>2018-09-06T08:25:27.000Z</time>
      </trkpt>
      <trkpt lat="43.38336548767983913421630859375" lon="-4.38888721168041229248046875">
        <ele>11.19999980926513671875</ele>
        <time>2018-09-06T08:25:29.000Z</time>
      </trkpt>
      <trkpt lat="43.38329239748418331146240234375" lon="-4.388929791748523712158203125">
        <ele>11</ele>
        <time>2018-09-06T08:25:30.000Z</time>
      </trkpt>
      <trkpt lat="43.383224420249462127685546875" lon="-4.3889822624623775482177734375">
        <ele>10.80000019073486328125</ele>
        <time>2018-09-06T08:25:31.000Z</time>
      </trkpt>
      <trkpt lat="43.383060805499553680419921875" lon="-4.38919055275619029998779296875">
        <ele>10.3999996185302734375</ele>
        <time>2018-09-06T08:25:34.000Z</time>
      </trkpt>
      <trkpt lat="43.38296500034630298614501953125" lon="-4.38946598209440708160400390625">
        <ele>10</ele>
        <time>2018-09-06T08:25:37.000Z</time>
      </trkpt>
      <trkpt lat="43.38293616659939289093017578125" lon="-4.38955776393413543701171875">
        <ele>9.80000019073486328125</ele>
        <time>2018-09-06T08:25:38.000Z</time>
      </trkpt>
      <trkpt lat="43.38286659680306911468505859375" lon="-4.3897208757698535919189453125">
        <ele>9.80000019073486328125</ele>
        <time>2018-09-06T08:25:40.000Z</time>
      </trkpt>
      <trkpt lat="43.382779173552989959716796875" lon="-4.38985842280089855194091796875">
        <ele>9.3999996185302734375</ele>
        <time>2018-09-06T08:25:42.000Z</time>
      </trkpt>
      <trkpt lat="43.382673226296901702880859375" lon="-4.38996537588536739349365234375">
        <ele>9</ele>
        <time>2018-09-06T08:25:44.000Z</time>
      </trkpt>
      <trkpt lat="43.3825597353279590606689453125" lon="-4.39003494568169116973876953125">
        <ele>8.80000019073486328125</ele>
        <time>2018-09-06T08:25:46.000Z</time>
      </trkpt>
      <trkpt lat="43.38250483386218547821044921875" lon="-4.39006478525698184967041015625">
        <ele>8.6000003814697265625</ele>
        <time>2018-09-06T08:25:47.000Z</time>
      </trkpt>
      <trkpt lat="43.382451944053173065185546875" lon="-4.390101246535778045654296875">
        <ele>8.3999996185302734375</ele>
        <time>2018-09-06T08:25:48.000Z</time>
      </trkpt>
      <trkpt lat="43.382367454469203948974609375" lon="-4.39022362232208251953125">
        <ele>8.3999996185302734375</ele>
        <time>2018-09-06T08:25:50.000Z</time>
      </trkpt>
      <trkpt lat="43.38233686052262783050537109375" lon="-4.39030014909803867340087890625">
        <ele>8.3999996185302734375</ele>
        <time>2018-09-06T08:25:51.000Z</time>
      </trkpt>
      <trkpt lat="43.38230920024216175079345703125" lon="-4.39037717878818511962890625">
        <ele>8.3999996185302734375</ele>
        <time>2018-09-06T08:25:52.000Z</time>
      </trkpt>
      <trkpt lat="43.382286988198757171630859375" lon="-4.39045605249702930450439453125">
        <ele>8.3999996185302734375</ele>
        <time>2018-09-06T08:25:53.000Z</time>
      </trkpt>
      <trkpt lat="43.38220811448991298675537109375" lon="-4.390754364430904388427734375">
        <ele>8.6000003814697265625</ele>
        <time>2018-09-06T08:25:57.000Z</time>
      </trkpt>
      <trkpt lat="43.38210049085319042205810546875" lon="-4.39128686673939228057861328125">
        <ele>8.3999996185302734375</ele>
        <time>2018-09-06T08:26:04.000Z</time>
      </trkpt>
      <trkpt lat="43.38199990801513195037841796875" lon="-4.3920138292014598846435546875">
        <ele>8.6000003814697265625</ele>
        <time>2018-09-06T08:26:14.000Z</time>
      </trkpt>
      <trkpt lat="43.3819445036351680755615234375" lon="-4.39243434928357601165771484375">
        <ele>8.6000003814697265625</ele>
        <time>2018-09-06T08:26:21.000Z</time>
      </trkpt>
      <trkpt lat="43.3819086290895938873291015625" lon="-4.39270977862179279327392578125">
        <ele>8.80000019073486328125</ele>
        <time>2018-09-06T08:26:25.000Z</time>
      </trkpt>
      <trkpt lat="43.3818271569907665252685546875" lon="-4.3933385051786899566650390625">
        <ele>9</ele>
        <time>2018-09-06T08:26:34.000Z</time>
      </trkpt>
      <trkpt lat="43.3817544020712375640869140625" lon="-4.39386673271656036376953125">
        <ele>9.19999980926513671875</ele>
        <time>2018-09-06T08:26:42.000Z</time>
      </trkpt>
      <trkpt lat="43.38171710260212421417236328125" lon="-4.3941331095993518829345703125">
        <ele>9</ele>
        <time>2018-09-06T08:26:46.000Z</time>
      </trkpt>
      <trkpt lat="43.38166949339210987091064453125" lon="-4.39446880482137203216552734375">
        <ele>9.19999980926513671875</ele>
        <time>2018-09-06T08:26:51.000Z</time>
      </trkpt>
      <trkpt lat="43.3816098980605602264404296875" lon="-4.394895695149898529052734375">
        <ele>9.3999996185302734375</ele>
        <time>2018-09-06T08:26:57.000Z</time>
      </trkpt>
      <trkpt lat="43.38158198632299900054931640625" lon="-4.39510934986174106597900390625">
        <ele>9.19999980926513671875</ele>
        <time>2018-09-06T08:27:00.000Z</time>
      </trkpt>
      <trkpt lat="43.381507135927677154541015625" lon="-4.39569993875920772552490234375">
        <ele>9.3999996185302734375</ele>
        <time>2018-09-06T08:27:08.000Z</time>
      </trkpt>
      <trkpt lat="43.38145189918577671051025390625" lon="-4.39614795148372650146484375">
        <ele>9.19999980926513671875</ele>
        <time>2018-09-06T08:27:14.000Z</time>
      </trkpt>
      <trkpt lat="43.38142507709562778472900390625" lon="-4.396362192928791046142578125">
        <ele>9.19999980926513671875</ele>
        <time>2018-09-06T08:27:17.000Z</time>
      </trkpt>
      <trkpt lat="43.3813928067684173583984375" lon="-4.3968464992940425872802734375">
        <ele>9.19999980926513671875</ele>
        <time>2018-09-06T08:27:24.000Z</time>
      </trkpt>
      <trkpt lat="43.3814000152051448822021484375" lon="-4.39690542407333850860595703125">
        <ele>9.3999996185302734375</ele>
        <time>2018-09-06T08:27:25.000Z</time>
      </trkpt>
      <trkpt lat="43.38135165162384510040283203125" lon="-4.39717146568000316619873046875">
        <ele>9.3999996185302734375</ele>
        <time>2018-09-06T08:27:30.000Z</time>
      </trkpt>
      <trkpt lat="43.3812424354255199432373046875" lon="-4.39741822890937328338623046875">
        <ele>10</ele>
        <time>2018-09-06T08:27:36.000Z</time>
      </trkpt>
      <trkpt lat="43.38122474960982799530029296875" lon="-4.397482685744762420654296875">
        <ele>10.6000003814697265625</ele>
        <time>2018-09-06T08:27:38.000Z</time>
      </trkpt>
      <trkpt lat="43.38120429776608943939208984375" lon="-4.39758016727864742279052734375">
        <ele>11.6000003814697265625</ele>
        <time>2018-09-06T08:27:42.000Z</time>
      </trkpt>
      <trkpt lat="43.38121511042118072509765625" lon="-4.397602044045925140380859375">
        <ele>12.19999980926513671875</ele>
        <time>2018-09-06T08:27:44.000Z</time>
      </trkpt>
      <trkpt lat="43.3812384121119976043701171875" lon="-4.397621490061283111572265625">
        <ele>12.6000003814697265625</ele>
        <time>2018-09-06T08:27:46.000Z</time>
      </trkpt>
      <trkpt lat="43.38124888949096202850341796875" lon="-4.39763146452605724334716796875">
        <ele>12.80000019073486328125</ele>
        <time>2018-09-06T08:27:47.000Z</time>
      </trkpt>
      <trkpt lat="43.38126816786825656890869140625" lon="-4.3976468034088611602783203125">
        <ele>13.19999980926513671875</ele>
        <time>2018-09-06T08:27:49.000Z</time>
      </trkpt>
      <trkpt lat="43.381273113191127777099609375" lon="-4.3976595439016819000244140625">
        <ele>13.3999996185302734375</ele>
        <time>2018-09-06T08:27:50.000Z</time>
      </trkpt>
      <trkpt lat="43.38127009570598602294921875" lon="-4.39768661744892597198486328125">
        <ele>13.6000003814697265625</ele>
        <time>2018-09-06T08:27:52.000Z</time>
      </trkpt>
      <trkpt lat="43.38125391863286495208740234375" lon="-4.39768158830702304840087890625">
        <ele>13.80000019073486328125</ele>
        <time>2018-09-06T08:27:53.000Z</time>
      </trkpt>
      <trkpt lat="43.38121645152568817138671875" lon="-4.397642277181148529052734375">
        <ele>13.3999996185302734375</ele>
        <time>2018-09-06T08:27:55.000Z</time>
      </trkpt>
      <trkpt lat="43.38117395527660846710205078125" lon="-4.39748209901154041290283203125">
        <ele>11.6000003814697265625</ele>
        <time>2018-09-06T08:27:58.000Z</time>
      </trkpt>
      <trkpt lat="43.381177224218845367431640625" lon="-4.39737983979284763336181640625">
        <ele>11</ele>
        <time>2018-09-06T08:28:00.000Z</time>
      </trkpt>
      <trkpt lat="43.38118434883654117584228515625" lon="-4.39732988364994525909423828125">
        <ele>10.6000003814697265625</ele>
        <time>2018-09-06T08:28:01.000Z</time>
      </trkpt>
      <trkpt lat="43.38118585757911205291748046875" lon="-4.397221505641937255859375">
        <ele>10</ele>
        <time>2018-09-06T08:28:03.000Z</time>
      </trkpt>
      <trkpt lat="43.38119641877710819244384765625" lon="-4.397056885063648223876953125">
        <ele>9.80000019073486328125</ele>
        <time>2018-09-06T08:28:06.000Z</time>
      </trkpt>
      <trkpt lat="43.38122089393436908721923828125" lon="-4.397015981376171112060546875">
        <ele>9.80000019073486328125</ele>
        <time>2018-09-06T08:28:07.000Z</time>
      </trkpt>
      <trkpt lat="43.381250984966754913330078125" lon="-4.39698706381022930145263671875">
        <ele>9.6000003814697265625</ele>
        <time>2018-09-06T08:28:08.000Z</time>
      </trkpt>
      <trkpt lat="43.38132449425756931304931640625" lon="-4.3969702161848545074462890625">
        <ele>9.6000003814697265625</ele>
        <time>2018-09-06T08:28:10.000Z</time>
      </trkpt>
      <trkpt lat="43.3813587762415409088134765625" lon="-4.3969876505434513092041015625">
        <ele>9.6000003814697265625</ele>
        <time>2018-09-06T08:28:11.000Z</time>
      </trkpt>
      <trkpt lat="43.38139222003519535064697265625" lon="-4.3970109522342681884765625">
        <ele>9.6000003814697265625</ele>
        <time>2018-09-06T08:28:12.000Z</time>
      </trkpt>
      <trkpt lat="43.3814585208892822265625" lon="-4.39706736244261264801025390625">
        <ele>9.19999980926513671875</ele>
        <time>2018-09-06T08:28:14.000Z</time>
      </trkpt>
      <trkpt lat="43.381566144526004791259765625" lon="-4.39716358669102191925048828125">
        <ele>8.80000019073486328125</ele>
        <time>2018-09-06T08:28:17.000Z</time>
      </trkpt>
      <trkpt lat="43.3816518075764179229736328125" lon="-4.3972334079444408416748046875">
        <ele>8.3999996185302734375</ele>
        <time>2018-09-06T08:28:19.000Z</time>
      </trkpt>
      <trkpt lat="43.38178248144686222076416015625" lon="-4.39733541570603847503662109375">
        <ele>8.19999980926513671875</ele>
        <time>2018-09-06T08:28:22.000Z</time>
      </trkpt>
      <trkpt lat="43.38186948560178279876708984375" lon="-4.39741152338683605194091796875">
        <ele>7.80000019073486328125</ele>
        <time>2018-09-06T08:28:24.000Z</time>
      </trkpt>
      <trkpt lat="43.38208188302814960479736328125" lon="-4.39760061912238597869873046875">
        <ele>7.19999980926513671875</ele>
        <time>2018-09-06T08:28:29.000Z</time>
      </trkpt>
      <trkpt lat="43.38212379254400730133056640625" lon="-4.397638253867626190185546875">
        <ele>7.19999980926513671875</ele>
        <time>2018-09-06T08:28:30.000Z</time>
      </trkpt>
      <trkpt lat="43.3822462521493434906005859375" lon="-4.39775769598782062530517578125">
        <ele>7.19999980926513671875</ele>
        <time>2018-09-06T08:28:33.000Z</time>
      </trkpt>
      <trkpt lat="43.38238866068422794342041015625" lon="-4.397875964641571044921875">
        <ele>7.19999980926513671875</ele>
        <time>2018-09-06T08:28:37.000Z</time>
      </trkpt>
      <trkpt lat="43.38258974254131317138671875" lon="-4.3980467878282070159912109375">
        <ele>7</ele>
        <time>2018-09-06T08:28:43.000Z</time>
      </trkpt>
      <trkpt lat="43.3826596476137638092041015625" lon="-4.3981079757213592529296875">
        <ele>7.19999980926513671875</ele>
        <time>2018-09-06T08:28:45.000Z</time>
      </trkpt>
      <trkpt lat="43.38269711472094058990478515625" lon="-4.398136474192142486572265625">
        <ele>7</ele>
        <time>2018-09-06T08:28:46.000Z</time>
      </trkpt>
      <trkpt lat="43.3830750547349452972412109375" lon="-4.398455657064914703369140625">
        <ele>6.80000019073486328125</ele>
        <time>2018-09-06T08:28:56.000Z</time>
      </trkpt>
      <trkpt lat="43.383434973657131195068359375" lon="-4.3987476825714111328125">
        <ele>6.80000019073486328125</ele>
        <time>2018-09-06T08:29:05.000Z</time>
      </trkpt>
      <trkpt lat="43.383542262017726898193359375" lon="-4.39884013496339321136474609375">
        <ele>6.599999904632568359375</ele>
        <time>2018-09-06T08:29:08.000Z</time>
      </trkpt>
      <trkpt lat="43.3837546594440937042236328125" lon="-4.39902051351964473724365234375">
        <ele>7</ele>
        <time>2018-09-06T08:29:14.000Z</time>
      </trkpt>
      <trkpt lat="43.38382129557430744171142578125" lon="-4.3990780971944332122802734375">
        <ele>6.19999980926513671875</ele>
        <time>2018-09-06T08:29:16.000Z</time>
      </trkpt>
      <trkpt lat="43.3838877640664577484130859375" lon="-4.39913869835436344146728515625">
        <ele>7.400000095367431640625</ele>
        <time>2018-09-06T08:29:18.000Z</time>
      </trkpt>
      <trkpt lat="43.383992202579975128173828125" lon="-4.399227462708950042724609375">
        <ele>6.80000019073486328125</ele>
        <time>2018-09-06T08:29:21.000Z</time>
      </trkpt>
      <trkpt lat="43.38412530720233917236328125" lon="-4.3993205018341541290283203125">
        <ele>7</ele>
        <time>2018-09-06T08:29:25.000Z</time>
      </trkpt>
      <trkpt lat="43.384130336344242095947265625" lon="-4.3993231840431690216064453125">
        <ele>7</ele>
        <time>2018-09-06T08:29:26.000Z</time>
      </trkpt>
      <trkpt lat="43.38416394777595996856689453125" lon="-4.39934824593365192413330078125">
        <ele>7</ele>
        <time>2018-09-06T08:30:08.000Z</time>
      </trkpt>
      <trkpt lat="43.38418456725776195526123046875" lon="-4.39936199225485324859619140625">
        <ele>6.80000019073486328125</ele>
        <time>2018-09-06T08:30:09.000Z</time>
      </trkpt>
      <trkpt lat="43.38426386006176471710205078125" lon="-4.39943340606987476348876953125">
        <ele>6.599999904632568359375</ele>
        <time>2018-09-06T08:30:12.000Z</time>
      </trkpt>
      <trkpt lat="43.38429068215191364288330078125" lon="-4.39945855177938938140869140625">
        <ele>6.599999904632568359375</ele>
        <time>2018-09-06T08:30:13.000Z</time>
      </trkpt>
      <trkpt lat="43.38445882312953472137451171875" lon="-4.399533234536647796630859375">
        <ele>6.599999904632568359375</ele>
        <time>2018-09-06T08:30:18.000Z</time>
      </trkpt>
      <trkpt lat="43.38460684753954410552978515625" lon="-4.39946525730192661285400390625">
        <ele>6.599999904632568359375</ele>
        <time>2018-09-06T08:30:22.000Z</time>
      </trkpt>
      <trkpt lat="43.3847222663462162017822265625" lon="-4.3993151374161243438720703125">
        <ele>6.599999904632568359375</ele>
        <time>2018-09-06T08:30:26.000Z</time>
      </trkpt>
      <trkpt lat="43.384851850569248199462890625" lon="-4.39912025816738605499267578125">
        <ele>6.80000019073486328125</ele>
        <time>2018-09-06T08:30:32.000Z</time>
      </trkpt>
      <trkpt lat="43.38490239344537258148193359375" lon="-4.39904582686722278594970703125">
        <ele>6.80000019073486328125</ele>
        <time>2018-09-06T08:30:34.000Z</time>
      </trkpt>
      <trkpt lat="43.38492653332650661468505859375" lon="-4.39900316298007965087890625">
        <ele>6.599999904632568359375</ele>
        <time>2018-09-06T08:30:35.000Z</time>
      </trkpt>
      <trkpt lat="43.384986631572246551513671875" lon="-4.39892445690929889678955078125">
        <ele>6.599999904632568359375</ele>
        <time>2018-09-06T08:30:37.000Z</time>
      </trkpt>
      <trkpt lat="43.3850459754467010498046875" lon="-4.39885354600846767425537109375">
        <ele>6.400000095367431640625</ele>
        <time>2018-09-06T08:30:39.000Z</time>
      </trkpt>
      <trkpt lat="43.38523716665804386138916015625" lon="-4.39856202341616153717041015625">
        <ele>6.599999904632568359375</ele>
        <time>2018-09-06T08:30:46.000Z</time>
      </trkpt>
      <trkpt lat="43.38543212972581386566162109375" lon="-4.3982757814228534698486328125">
        <ele>7</ele>
        <time>2018-09-06T08:30:53.000Z</time>
      </trkpt>
      <trkpt lat="43.3856141008436679840087890625" lon="-4.3980719335377216339111328125">
        <ele>7.400000095367431640625</ele>
        <time>2018-09-06T08:30:59.000Z</time>
      </trkpt>
      <trkpt lat="43.38564234785735607147216796875" lon="-4.39804888330399990081787109375">
        <ele>7.599999904632568359375</ele>
        <time>2018-09-06T08:31:00.000Z</time>
      </trkpt>
      <trkpt lat="43.38571292348206043243408203125" lon="-4.39800630323588848114013671875">
        <ele>8.19999980926513671875</ele>
        <time>2018-09-06T08:31:03.000Z</time>
      </trkpt>
      <trkpt lat="43.38573639281094074249267578125" lon="-4.3980015255510807037353515625">
        <ele>8.3999996185302734375</ele>
        <time>2018-09-06T08:31:04.000Z</time>
      </trkpt>
      <trkpt lat="43.38575634174048900604248046875" lon="-4.397996999323368072509765625">
        <ele>8.3999996185302734375</ele>
        <time>2018-09-06T08:31:05.000Z</time>
      </trkpt>
      <trkpt lat="43.385860361158847808837890625" lon="-4.39802859909832477569580078125">
        <ele>9.19999980926513671875</ele>
        <time>2018-09-06T08:31:11.000Z</time>
      </trkpt>
      <trkpt lat="43.3858839981257915496826171875" lon="-4.39804050140082836151123046875">
        <ele>9.3999996185302734375</ele>
        <time>2018-09-06T08:31:12.000Z</time>
      </trkpt>
      <trkpt lat="43.3860030211508274078369140625" lon="-4.39810990355908870697021484375">
        <ele>10.19999980926513671875</ele>
        <time>2018-09-06T08:31:17.000Z</time>
      </trkpt>
      <trkpt lat="43.3860781230032444000244140625" lon="-4.39815298654139041900634765625">
        <ele>10.6000003814697265625</ele>
        <time>2018-09-06T08:31:20.000Z</time>
      </trkpt>
      <trkpt lat="43.38610569946467876434326171875" lon="-4.398168660700321197509765625">
        <ele>10.6000003814697265625</ele>
        <time>2018-09-06T08:31:21.000Z</time>
      </trkpt>
      <trkpt lat="43.38634751737117767333984375" lon="-4.3983010947704315185546875">
        <ele>10.6000003814697265625</ele>
        <time>2018-09-06T08:31:29.000Z</time>
      </trkpt>
      <trkpt lat="43.38662319816648960113525390625" lon="-4.39846194349229335784912109375">
        <ele>11</ele>
        <time>2018-09-06T08:31:37.000Z</time>
      </trkpt>
      <trkpt lat="43.386865518987178802490234375" lon="-4.39859588630497455596923828125">
        <ele>11.3999996185302734375</ele>
        <time>2018-09-06T08:31:44.000Z</time>
      </trkpt>
      <trkpt lat="43.38693651370704174041748046875" lon="-4.39863729290664196014404296875">
        <ele>11.19999980926513671875</ele>
        <time>2018-09-06T08:31:46.000Z</time>
      </trkpt>
      <trkpt lat="43.387136422097682952880859375" lon="-4.398776851594448089599609375">
        <ele>11</ele>
        <time>2018-09-06T08:31:52.000Z</time>
      </trkpt>
      <trkpt lat="43.38719367049634456634521484375" lon="-4.39883409999310970306396484375">
        <ele>10.3999996185302734375</ele>
        <time>2018-09-06T08:31:54.000Z</time>
      </trkpt>
      <trkpt lat="43.38721781037747859954833984375" lon="-4.39887173473834991455078125">
        <ele>11.6000003814697265625</ele>
        <time>2018-09-06T08:31:55.000Z</time>
      </trkpt>
      <trkpt lat="43.3872968517243862152099609375" lon="-4.3990438990294933319091796875">
        <ele>11.19999980926513671875</ele>
        <time>2018-09-06T08:31:59.000Z</time>
      </trkpt>
      <trkpt lat="43.38737589307129383087158203125" lon="-4.3993533588945865631103515625">
        <ele>11.80000019073486328125</ele>
        <time>2018-09-06T08:32:06.000Z</time>
      </trkpt>
      <trkpt lat="43.3873880468308925628662109375" lon="-4.39958780072629451751708984375">
        <ele>12.3999996185302734375</ele>
        <time>2018-09-06T08:32:11.000Z</time>
      </trkpt>
      <trkpt lat="43.3873903937637805938720703125" lon="-4.39967664889991283416748046875">
        <ele>12.6000003814697265625</ele>
        <time>2018-09-06T08:32:13.000Z</time>
      </trkpt>
      <trkpt lat="43.3873917348682880401611328125" lon="-4.39972207881510257720947265625">
        <ele>12.6000003814697265625</ele>
        <time>2018-09-06T08:32:14.000Z</time>
      </trkpt>
      <trkpt lat="43.3873934112489223480224609375" lon="-4.39994168467819690704345703125">
        <ele>12.80000019073486328125</ele>
        <time>2018-09-06T08:32:19.000Z</time>
      </trkpt>
      <trkpt lat="43.38738410733640193939208984375" lon="-4.40003204159438610076904296875">
        <ele>13.19999980926513671875</ele>
        <time>2018-09-06T08:32:21.000Z</time>
      </trkpt>
      <trkpt lat="43.38737790472805500030517578125" lon="-4.40012030303478240966796875">
        <ele>13.80000019073486328125</ele>
        <time>2018-09-06T08:32:23.000Z</time>
      </trkpt>
      <trkpt lat="43.38737170211970806121826171875" lon="-4.4003960676491260528564453125">
        <ele>14.19999980926513671875</ele>
        <time>2018-09-06T08:32:29.000Z</time>
      </trkpt>
      <trkpt lat="43.3873753063380718231201171875" lon="-4.40056881867349147796630859375">
        <ele>14.80000019073486328125</ele>
        <time>2018-09-06T08:32:33.000Z</time>
      </trkpt>
      <trkpt lat="43.3873920701444149017333984375" lon="-4.400767721235752105712890625">
        <ele>15.19999980926513671875</ele>
        <time>2018-09-06T08:32:38.000Z</time>
      </trkpt>
      <trkpt lat="43.3874212391674518585205078125" lon="-4.40097534097731113433837890625">
        <ele>15.80000019073486328125</ele>
        <time>2018-09-06T08:32:43.000Z</time>
      </trkpt>
      <trkpt lat="43.38745133019983768463134765625" lon="-4.40109000541269779205322265625">
        <ele>16.3999996185302734375</ele>
        <time>2018-09-06T08:32:46.000Z</time>
      </trkpt>
      <trkpt lat="43.38746205903589725494384765625" lon="-4.401127807796001434326171875">
        <ele>16.3999996185302734375</ele>
        <time>2018-09-06T08:32:47.000Z</time>
      </trkpt>
      <trkpt lat="43.3874899707734584808349609375" lon="-4.40124146640300750732421875">
        <ele>16.799999237060546875</ele>
        <time>2018-09-06T08:32:50.000Z</time>
      </trkpt>
      <trkpt lat="43.38749952614307403564453125" lon="-4.4012795202434062957763671875">
        <ele>17</ele>
        <time>2018-09-06T08:32:51.000Z</time>
      </trkpt>
      <trkpt lat="43.38756565935909748077392578125" lon="-4.4014582224190235137939453125">
        <ele>17.799999237060546875</ele>
        <time>2018-09-06T08:32:56.000Z</time>
      </trkpt>
      <trkpt lat="43.38759633712470531463623046875" lon="-4.40152318216860294342041015625">
        <ele>18</ele>
        <time>2018-09-06T08:32:58.000Z</time>
      </trkpt>
      <trkpt lat="43.38767127133905887603759765625" lon="-4.40168646164238452911376953125">
        <ele>18.799999237060546875</ele>
        <time>2018-09-06T08:33:03.000Z</time>
      </trkpt>
      <trkpt lat="43.387709073722362518310546875" lon="-4.40174974501132965087890625">
        <ele>19.200000762939453125</ele>
        <time>2018-09-06T08:33:05.000Z</time>
      </trkpt>
      <trkpt lat="43.387858606874942779541015625" lon="-4.4020338915288448333740234375">
        <ele>20</ele>
        <time>2018-09-06T08:33:14.000Z</time>
      </trkpt>
      <trkpt lat="43.38789381086826324462890625" lon="-4.40209885127842426300048828125">
        <ele>20.3999996185302734375</ele>
        <time>2018-09-06T08:33:16.000Z</time>
      </trkpt>
      <trkpt lat="43.3880086429417133331298828125" lon="-4.40232197754085063934326171875">
        <ele>21.6000003814697265625</ele>
        <time>2018-09-06T08:33:23.000Z</time>
      </trkpt>
      <trkpt lat="43.38811484165489673614501953125" lon="-4.40254694782197475433349609375">
        <ele>22.799999237060546875</ele>
        <time>2018-09-06T08:33:30.000Z</time>
      </trkpt>
      <trkpt lat="43.3882272429764270782470703125" lon="-4.40274191088974475860595703125">
        <ele>23.799999237060546875</ele>
        <time>2018-09-06T08:33:37.000Z</time>
      </trkpt>
      <trkpt lat="43.38826990686357021331787109375" lon="-4.402833022177219390869140625">
        <ele>24.200000762939453125</ele>
        <time>2018-09-06T08:33:40.000Z</time>
      </trkpt>
      <trkpt lat="43.3882939629256725311279296875" lon="-4.4028975628316402435302734375">
        <ele>24.799999237060546875</ele>
        <time>2018-09-06T08:33:42.000Z</time>
      </trkpt>
      <trkpt lat="43.3883864991366863250732421875" lon="-4.403187073767185211181640625">
        <ele>25.799999237060546875</ele>
        <time>2018-09-06T08:33:51.000Z</time>
      </trkpt>
      <trkpt lat="43.3884284086525440216064453125" lon="-4.40335236489772796630859375">
        <ele>26.799999237060546875</ele>
        <time>2018-09-06T08:33:56.000Z</time>
      </trkpt>
      <trkpt lat="43.388450033962726593017578125" lon="-4.4034933485090732574462890625">
        <ele>27.3999996185302734375</ele>
        <time>2018-09-06T08:34:00.000Z</time>
      </trkpt>
      <trkpt lat="43.3884686417877674102783203125" lon="-4.40363558940589427947998046875">
        <ele>27.799999237060546875</ele>
        <time>2018-09-06T08:34:04.000Z</time>
      </trkpt>
      <trkpt lat="43.38847895152866840362548828125" lon="-4.40380557440221309661865234375">
        <ele>29</ele>
        <time>2018-09-06T08:34:09.000Z</time>
      </trkpt>
      <trkpt lat="43.3884850703179836273193359375" lon="-4.404058121144771575927734375">
        <ele>30</ele>
        <time>2018-09-06T08:34:16.000Z</time>
      </trkpt>
      <trkpt lat="43.38847987353801727294921875" lon="-4.40415878780186176300048828125">
        <ele>30.6000003814697265625</ele>
        <time>2018-09-06T08:34:19.000Z</time>
      </trkpt>
      <trkpt lat="43.3884582482278347015380859375" lon="-4.4043360650539398193359375">
        <ele>31.200000762939453125</ele>
        <time>2018-09-06T08:34:24.000Z</time>
      </trkpt>
      <trkpt lat="43.388446681201457977294921875" lon="-4.4044468738138675689697265625">
        <ele>31.799999237060546875</ele>
        <time>2018-09-06T08:34:27.000Z</time>
      </trkpt>
      <trkpt lat="43.38842798955738544464111328125" lon="-4.4045506417751312255859375">
        <ele>32.200000762939453125</ele>
        <time>2018-09-06T08:34:30.000Z</time>
      </trkpt>
      <trkpt lat="43.38838406838476657867431640625" lon="-4.40473395399749279022216796875">
        <ele>32.799999237060546875</ele>
        <time>2018-09-06T08:34:35.000Z</time>
      </trkpt>
      <trkpt lat="43.38834450580179691314697265625" lon="-4.404923133552074432373046875">
        <ele>33.40000152587890625</ele>
        <time>2018-09-06T08:34:40.000Z</time>
      </trkpt>
      <trkpt lat="43.38831399567425251007080078125" lon="-4.4050383009016513824462890625">
        <ele>33.40000152587890625</ele>
        <time>2018-09-06T08:34:43.000Z</time>
      </trkpt>
      <trkpt lat="43.38829454965889453887939453125" lon="-4.40511365421116352081298828125">
        <ele>33.799999237060546875</ele>
        <time>2018-09-06T08:34:45.000Z</time>
      </trkpt>
      <trkpt lat="43.388252891600131988525390625" lon="-4.40537265501916408538818359375">
        <ele>34.40000152587890625</ele>
        <time>2018-09-06T08:34:52.000Z</time>
      </trkpt>
      <trkpt lat="43.3882379718124866485595703125" lon="-4.40548882819712162017822265625">
        <ele>34.799999237060546875</ele>
        <time>2018-09-06T08:34:55.000Z</time>
      </trkpt>
      <trkpt lat="43.388229422271251678466796875" lon="-4.4057383574545383453369140625">
        <ele>35.59999847412109375</ele>
        <time>2018-09-06T08:35:02.000Z</time>
      </trkpt>
      <trkpt lat="43.38823336176574230194091796875" lon="-4.405842460691928863525390625">
        <ele>36</ele>
        <time>2018-09-06T08:35:05.000Z</time>
      </trkpt>
      <trkpt lat="43.38824224658310413360595703125" lon="-4.4059810973703861236572265625">
        <ele>36.799999237060546875</ele>
        <time>2018-09-06T08:35:09.000Z</time>
      </trkpt>
      <trkpt lat="43.38825364597141742706298828125" lon="-4.40620112232863903045654296875">
        <ele>37.59999847412109375</ele>
        <time>2018-09-06T08:35:15.000Z</time>
      </trkpt>
      <trkpt lat="43.38825951330363750457763671875" lon="-4.40627303905785083770751953125">
        <ele>38</ele>
        <time>2018-09-06T08:35:17.000Z</time>
      </trkpt>
      <trkpt lat="43.38828264735639095306396484375" lon="-4.40660948865115642547607421875">
        <ele>38.799999237060546875</ele>
        <time>2018-09-06T08:35:26.000Z</time>
      </trkpt>
      <trkpt lat="43.38829505257308483123779296875" lon="-4.40673588775098323822021484375">
        <ele>39.40000152587890625</ele>
        <time>2018-09-06T08:35:29.000Z</time>
      </trkpt>
      <trkpt lat="43.3883053623139858245849609375" lon="-4.40686061047017574310302734375">
        <ele>40</ele>
        <time>2018-09-06T08:35:32.000Z</time>
      </trkpt>
      <trkpt lat="43.3883075416088104248046875" lon="-4.40690184943377971649169921875">
        <ele>40.200000762939453125</ele>
        <time>2018-09-06T08:35:33.000Z</time>
      </trkpt>
      <trkpt lat="43.3883124031126499176025390625" lon="-4.406939484179019927978515625">
        <ele>40.40000152587890625</ele>
        <time>2018-09-06T08:35:34.000Z</time>
      </trkpt>
      <trkpt lat="43.38833645917475223541259765625" lon="-4.4071632809937000274658203125">
        <ele>41</ele>
        <time>2018-09-06T08:35:40.000Z</time>
      </trkpt>
      <trkpt lat="43.38834349997341632843017578125" lon="-4.40723964013159275054931640625">
        <ele>41.200000762939453125</ele>
        <time>2018-09-06T08:35:42.000Z</time>
      </trkpt>
      <trkpt lat="43.388345427811145782470703125" lon="-4.40727836452424526214599609375">
        <ele>41.40000152587890625</ele>
        <time>2018-09-06T08:35:43.000Z</time>
      </trkpt>
      <trkpt lat="43.38837719522416591644287109375" lon="-4.4075374491512775421142578125">
        <ele>42.40000152587890625</ele>
        <time>2018-09-06T08:35:50.000Z</time>
      </trkpt>
      <trkpt lat="43.3883906900882720947265625" lon="-4.40765328705310821533203125">
        <ele>42.799999237060546875</ele>
        <time>2018-09-06T08:35:53.000Z</time>
      </trkpt>
      <trkpt lat="43.3884243853390216827392578125" lon="-4.4078767485916614532470703125">
        <ele>43.59999847412109375</ele>
        <time>2018-09-06T08:35:59.000Z</time>
      </trkpt>
      <trkpt lat="43.3884374611079692840576171875" lon="-4.40794791094958782196044921875">
        <ele>44</ele>
        <time>2018-09-06T08:36:01.000Z</time>
      </trkpt>
      <trkpt lat="43.38845531456172466278076171875" lon="-4.408060647547245025634765625">
        <ele>44.59999847412109375</ele>
        <time>2018-09-06T08:36:04.000Z</time>
      </trkpt>
      <trkpt lat="43.3884840644896030426025390625" lon="-4.40828503109514713287353515625">
        <ele>45.799999237060546875</ele>
        <time>2018-09-06T08:36:10.000Z</time>
      </trkpt>
      <trkpt lat="43.3885031752288341522216796875" lon="-4.40843137912452220916748046875">
        <ele>46.40000152587890625</ele>
        <time>2018-09-06T08:36:14.000Z</time>
      </trkpt>
      <trkpt lat="43.38850443251430988311767578125" lon="-4.40858292393386363983154296875">
        <ele>46.799999237060546875</ele>
        <time>2018-09-06T08:36:18.000Z</time>
      </trkpt>
      <trkpt lat="43.38849135674536228179931640625" lon="-4.4087994284927845001220703125">
        <ele>47.799999237060546875</ele>
        <time>2018-09-06T08:36:24.000Z</time>
      </trkpt>
      <trkpt lat="43.38841441087424755096435546875" lon="-4.409083239734172821044921875">
        <ele>48.59999847412109375</ele>
        <time>2018-09-06T08:36:32.000Z</time>
      </trkpt>
      <trkpt lat="43.38838423602283000946044921875" lon="-4.4091554917395114898681640625">
        <ele>49.40000152587890625</ele>
        <time>2018-09-06T08:36:34.000Z</time>
      </trkpt>
      <trkpt lat="43.388288430869579315185546875" lon="-4.409376271069049835205078125">
        <ele>49.40000152587890625</ele>
        <time>2018-09-06T08:36:40.000Z</time>
      </trkpt>
      <trkpt lat="43.38816027157008647918701171875" lon="-4.409650526940822601318359375">
        <ele>50</ele>
        <time>2018-09-06T08:36:48.000Z</time>
      </trkpt>
      <trkpt lat="43.3881269954144954681396484375" lon="-4.40971800126135349273681640625">
        <ele>50.200000762939453125</ele>
        <time>2018-09-06T08:36:50.000Z</time>
      </trkpt>
      <trkpt lat="43.388110734522342681884765625" lon="-4.40975211560726165771484375">
        <ele>50.40000152587890625</ele>
        <time>2018-09-06T08:36:51.000Z</time>
      </trkpt>
      <trkpt lat="43.38801073841750621795654296875" lon="-4.4100062549114227294921875">
        <ele>51.40000152587890625</ele>
        <time>2018-09-06T08:36:58.000Z</time>
      </trkpt>
      <trkpt lat="43.387998081743717193603515625" lon="-4.410040788352489471435546875">
        <ele>51.59999847412109375</ele>
        <time>2018-09-06T08:36:59.000Z</time>
      </trkpt>
      <trkpt lat="43.38797695934772491455078125" lon="-4.4101160578429698944091796875">
        <ele>51.799999237060546875</ele>
        <time>2018-09-06T08:37:01.000Z</time>
      </trkpt>
      <trkpt lat="43.3879387378692626953125" lon="-4.41027020104229450225830078125">
        <ele>52.59999847412109375</ele>
        <time>2018-09-06T08:37:05.000Z</time>
      </trkpt>
      <trkpt lat="43.38793136179447174072265625" lon="-4.4103088416159152984619140625">
        <ele>52.59999847412109375</ele>
        <time>2018-09-06T08:37:06.000Z</time>
      </trkpt>
      <trkpt lat="43.38789892382919788360595703125" lon="-4.4104969315230846405029296875">
        <ele>53.40000152587890625</ele>
        <time>2018-09-06T08:37:11.000Z</time>
      </trkpt>
      <trkpt lat="43.3878939785063266754150390625" lon="-4.4105334766209125518798828125">
        <ele>53.59999847412109375</ele>
        <time>2018-09-06T08:37:12.000Z</time>
      </trkpt>
      <trkpt lat="43.387857936322689056396484375" lon="-4.41076758317649364471435546875">
        <ele>54.59999847412109375</ele>
        <time>2018-09-06T08:37:18.000Z</time>
      </trkpt>
      <trkpt lat="43.38784796185791492462158203125" lon="-4.410844109952449798583984375">
        <ele>55</ele>
        <time>2018-09-06T08:37:20.000Z</time>
      </trkpt>
      <trkpt lat="43.38780789636075496673583984375" lon="-4.41108383238315582275390625">
        <ele>55.799999237060546875</ele>
        <time>2018-09-06T08:37:26.000Z</time>
      </trkpt>
      <trkpt lat="43.38779389858245849609375" lon="-4.41116631031036376953125">
        <ele>56</ele>
        <time>2018-09-06T08:37:28.000Z</time>
      </trkpt>
      <trkpt lat="43.3877555094659328460693359375" lon="-4.41135071218013763427734375">
        <ele>56.799999237060546875</ele>
        <time>2018-09-06T08:37:33.000Z</time>
      </trkpt>
      <trkpt lat="43.38773178867995738983154296875" lon="-4.411510638892650604248046875">
        <ele>57.200000762939453125</ele>
        <time>2018-09-06T08:37:37.000Z</time>
      </trkpt>
      <trkpt lat="43.38771318085491657257080078125" lon="-4.41162873990833759307861328125">
        <ele>57.799999237060546875</ele>
        <time>2018-09-06T08:37:40.000Z</time>
      </trkpt>
      <trkpt lat="43.38766221888363361358642578125" lon="-4.41189511679112911224365234375">
        <ele>59</ele>
        <time>2018-09-06T08:37:47.000Z</time>
      </trkpt>
      <trkpt lat="43.38758560828864574432373046875" lon="-4.4121967814862728118896484375">
        <ele>60</ele>
        <time>2018-09-06T08:37:55.000Z</time>
      </trkpt>
      <trkpt lat="43.3875645697116851806640625" lon="-4.412272386252880096435546875">
        <ele>60.200000762939453125</ele>
        <time>2018-09-06T08:37:57.000Z</time>
      </trkpt>
      <trkpt lat="43.38742618449032306671142578125" lon="-4.4126021303236484527587890625">
        <ele>61</ele>
        <time>2018-09-06T08:38:06.000Z</time>
      </trkpt>
      <trkpt lat="43.3874078281223773956298828125" lon="-4.4126349873840808868408203125">
        <ele>61.200000762939453125</ele>
        <time>2018-09-06T08:38:07.000Z</time>
      </trkpt>
      <trkpt lat="43.3873263560235500335693359375" lon="-4.41278644837439060211181640625">
        <ele>61.200000762939453125</ele>
        <time>2018-09-06T08:38:13.000Z</time>
      </trkpt>
      <trkpt lat="43.38725368492305278778076171875" lon="-4.4128874503076076507568359375">
        <ele>61.59999847412109375</ele>
        <time>2018-09-06T08:38:17.000Z</time>
      </trkpt>
      <trkpt lat="43.38720875792205333709716796875" lon="-4.41294101066887378692626953125">
        <ele>61.799999237060546875</ele>
        <time>2018-09-06T08:38:19.000Z</time>
      </trkpt>
      <trkpt lat="43.38716366328299045562744140625" lon="-4.41299146972596645355224609375">
        <ele>62.200000762939453125</ele>
        <time>2018-09-06T08:38:21.000Z</time>
      </trkpt>
      <trkpt lat="43.38703491725027561187744140625" lon="-4.41313094459474086761474609375">
        <ele>62.799999237060546875</ele>
        <time>2018-09-06T08:38:27.000Z</time>
      </trkpt>
      <trkpt lat="43.386977501213550567626953125" lon="-4.41318492405116558074951171875">
        <ele>63.200000762939453125</ele>
        <time>2018-09-06T08:38:30.000Z</time>
      </trkpt>
      <trkpt lat="43.38688538409769535064697265625" lon="-4.41324041225016117095947265625">
        <ele>63.799999237060546875</ele>
        <time>2018-09-06T08:38:34.000Z</time>
      </trkpt>
      <trkpt lat="43.386814892292022705078125" lon="-4.4132907874882221221923828125">
        <ele>64.1999969482421875</ele>
        <time>2018-09-06T08:38:37.000Z</time>
      </trkpt>
      <trkpt lat="43.38667013682425022125244140625" lon="-4.41336312331259250640869140625">
        <ele>65.40000152587890625</ele>
        <time>2018-09-06T08:38:43.000Z</time>
      </trkpt>
      <trkpt lat="43.3864422328770160675048828125" lon="-4.41341861151158809661865234375">
        <ele>66.40000152587890625</ele>
        <time>2018-09-06T08:38:52.000Z</time>
      </trkpt>
      <trkpt lat="43.38626076467335224151611328125" lon="-4.4134255684912204742431640625">
        <ele>67.1999969482421875</ele>
        <time>2018-09-06T08:38:59.000Z</time>
      </trkpt>
      <trkpt lat="43.38620259426534175872802734375" lon="-4.413429088890552520751953125">
        <ele>67.59999847412109375</ele>
        <time>2018-09-06T08:39:01.000Z</time>
      </trkpt>
      <trkpt lat="43.38608558289706707000732421875" lon="-4.41343654878437519073486328125">
        <ele>68</ele>
        <time>2018-09-06T08:39:05.000Z</time>
      </trkpt>
      <trkpt lat="43.38600461371243000030517578125" lon="-4.41345180384814739227294921875">
        <ele>68.59999847412109375</ele>
        <time>2018-09-06T08:39:08.000Z</time>
      </trkpt>
      <trkpt lat="43.38586580939590930938720703125" lon="-4.413494803011417388916015625">
        <ele>69.40000152587890625</ele>
        <time>2018-09-06T08:39:14.000Z</time>
      </trkpt>
      <trkpt lat="43.38584326207637786865234375" lon="-4.41350561566650867462158203125">
        <ele>69.59999847412109375</ele>
        <time>2018-09-06T08:39:15.000Z</time>
      </trkpt>
      <trkpt lat="43.38571409694850444793701171875" lon="-4.413604438304901123046875">
        <ele>70.59999847412109375</ele>
        <time>2018-09-06T08:39:21.000Z</time>
      </trkpt>
      <trkpt lat="43.3855832554399967193603515625" lon="-4.41374299116432666778564453125">
        <ele>71.8000030517578125</ele>
        <time>2018-09-06T08:39:28.000Z</time>
      </trkpt>
      <trkpt lat="43.38556724600493907928466796875" lon="-4.41376998089253902435302734375">
        <ele>72</ele>
        <time>2018-09-06T08:39:29.000Z</time>
      </trkpt>
      <trkpt lat="43.3855135180056095123291015625" lon="-4.4138721562922000885009765625">
        <ele>72.8000030517578125</ele>
        <time>2018-09-06T08:39:33.000Z</time>
      </trkpt>
      <trkpt lat="43.38550136424601078033447265625" lon="-4.4138983078300952911376953125">
        <ele>72.8000030517578125</ele>
        <time>2018-09-06T08:39:34.000Z</time>
      </trkpt>
      <trkpt lat="43.38546414859592914581298828125" lon="-4.41397516988217830657958984375">
        <ele>73.1999969482421875</ele>
        <time>2018-09-06T08:39:37.000Z</time>
      </trkpt>
      <trkpt lat="43.385439254343509674072265625" lon="-4.41403065808117389678955078125">
        <ele>74</ele>
        <time>2018-09-06T08:39:39.000Z</time>
      </trkpt>
      <trkpt lat="43.3853965066373348236083984375" lon="-4.4141611643135547637939453125">
        <ele>75</ele>
        <time>2018-09-06T08:39:44.000Z</time>
      </trkpt>
      <trkpt lat="43.38538804091513156890869140625" lon="-4.4141864776611328125">
        <ele>75</ele>
        <time>2018-09-06T08:39:45.000Z</time>
      </trkpt>
      <trkpt lat="43.38531352579593658447265625" lon="-4.414426200091838836669921875">
        <ele>76</ele>
        <time>2018-09-06T08:39:53.000Z</time>
      </trkpt>
      <trkpt lat="43.3853063173592090606689453125" lon="-4.41445805132389068603515625">
        <ele>76.1999969482421875</ele>
        <time>2018-09-06T08:39:54.000Z</time>
      </trkpt>
      <trkpt lat="43.38522425852715969085693359375" lon="-4.41470841877162456512451171875">
        <ele>77</ele>
        <time>2018-09-06T08:40:02.000Z</time>
      </trkpt>
      <trkpt lat="43.3852040581405162811279296875" lon="-4.4147713668644428253173828125">
        <ele>77.1999969482421875</ele>
        <time>2018-09-06T08:40:04.000Z</time>
      </trkpt>
      <trkpt lat="43.385126106441020965576171875" lon="-4.41499759443104267120361328125">
        <ele>78.1999969482421875</ele>
        <time>2018-09-06T08:40:11.000Z</time>
      </trkpt>
      <trkpt lat="43.38510355912148952484130859375" lon="-4.415059871971607208251953125">
        <ele>78.40000152587890625</ele>
        <time>2018-09-06T08:40:13.000Z</time>
      </trkpt>
      <trkpt lat="43.38499777950346469879150390625" lon="-4.41536002792418003082275390625">
        <ele>79.1999969482421875</ele>
        <time>2018-09-06T08:40:22.000Z</time>
      </trkpt>
      <trkpt lat="43.38495352305471897125244140625" lon="-4.415486343204975128173828125">
        <ele>79.1999969482421875</ele>
        <time>2018-09-06T08:40:26.000Z</time>
      </trkpt>
      <trkpt lat="43.38490205816924571990966796875" lon="-4.41561835817992687225341796875">
        <ele>80.1999969482421875</ele>
        <time>2018-09-06T08:40:30.000Z</time>
      </trkpt>
      <trkpt lat="43.3848899044096469879150390625" lon="-4.4156511314213275909423828125">
        <ele>80.40000152587890625</ele>
        <time>2018-09-06T08:40:31.000Z</time>
      </trkpt>
      <trkpt lat="43.38482611812651157379150390625" lon="-4.41580141894519329071044921875">
        <ele>81</ele>
        <time>2018-09-06T08:40:36.000Z</time>
      </trkpt>
      <trkpt lat="43.384789489209651947021484375" lon="-4.41589294932782649993896484375">
        <ele>81.40000152587890625</ele>
        <time>2018-09-06T08:40:39.000Z</time>
      </trkpt>
      <trkpt lat="43.3847755752503871917724609375" lon="-4.41592446528375148773193359375">
        <ele>81.59999847412109375</ele>
        <time>2018-09-06T08:40:40.000Z</time>
      </trkpt>
      <trkpt lat="43.384660743176937103271484375" lon="-4.4161726534366607666015625">
        <ele>82.40000152587890625</ele>
        <time>2018-09-06T08:40:48.000Z</time>
      </trkpt>
      <trkpt lat="43.38463232852518558502197265625" lon="-4.41623258404433727264404296875">
        <ele>82.59999847412109375</ele>
        <time>2018-09-06T08:40:50.000Z</time>
      </trkpt>
      <trkpt lat="43.38459913618862628936767578125" lon="-4.4163000583648681640625">
        <ele>83</ele>
        <time>2018-09-06T08:40:52.000Z</time>
      </trkpt>
      <trkpt lat="43.38452688418328762054443359375" lon="-4.4164547882974147796630859375">
        <ele>83.40000152587890625</ele>
        <time>2018-09-06T08:40:57.000Z</time>
      </trkpt>
      <trkpt lat="43.38449587114155292510986328125" lon="-4.41651421599090099334716796875">
        <ele>83.59999847412109375</ele>
        <time>2018-09-06T08:40:59.000Z</time>
      </trkpt>
      <trkpt lat="43.38440517894923686981201171875" lon="-4.4166968576610088348388671875">
        <ele>84.1999969482421875</ele>
        <time>2018-09-06T08:41:05.000Z</time>
      </trkpt>
      <trkpt lat="43.38439428247511386871337890625" lon="-4.41672879271209239959716796875">
        <ele>84.40000152587890625</ele>
        <time>2018-09-06T08:41:06.000Z</time>
      </trkpt>
      <trkpt lat="43.3843410573899745941162109375" lon="-4.41684328950941562652587890625">
        <ele>84.59999847412109375</ele>
        <time>2018-09-06T08:41:10.000Z</time>
      </trkpt>
      <trkpt lat="43.38429520837962627410888671875" lon="-4.41693347878754138946533203125">
        <ele>85.1999969482421875</ele>
        <time>2018-09-06T08:41:13.000Z</time>
      </trkpt>
      <trkpt lat="43.38426419533789157867431640625" lon="-4.41699399612843990325927734375">
        <ele>85.59999847412109375</ele>
        <time>2018-09-06T08:41:15.000Z</time>
      </trkpt>
      <trkpt lat="43.384247682988643646240234375" lon="-4.4170255959033966064453125">
        <ele>85.8000030517578125</ele>
        <time>2018-09-06T08:41:16.000Z</time>
      </trkpt>
      <trkpt lat="43.38422111235558986663818359375" lon="-4.417086951434612274169921875">
        <ele>86</ele>
        <time>2018-09-06T08:41:18.000Z</time>
      </trkpt>
      <trkpt lat="43.3841499499976634979248046875" lon="-4.41724126227200031280517578125">
        <ele>86.8000030517578125</ele>
        <time>2018-09-06T08:41:23.000Z</time>
      </trkpt>
      <trkpt lat="43.38413611985743045806884765625" lon="-4.41727227531373500823974609375">
        <ele>87</ele>
        <time>2018-09-06T08:41:24.000Z</time>
      </trkpt>
      <trkpt lat="43.3840436674654483795166015625" lon="-4.417490623891353607177734375">
        <ele>88</ele>
        <time>2018-09-06T08:41:31.000Z</time>
      </trkpt>
      <trkpt lat="43.3839945495128631591796875" lon="-4.41761794500052928924560546875">
        <ele>88.1999969482421875</ele>
        <time>2018-09-06T08:41:35.000Z</time>
      </trkpt>
      <trkpt lat="43.38394484482705593109130859375" lon="-4.4178180210292339324951171875">
        <ele>89</ele>
        <time>2018-09-06T08:41:41.000Z</time>
      </trkpt>
      <trkpt lat="43.383935876190662384033203125" lon="-4.41785146482288837432861328125">
        <ele>89.1999969482421875</ele>
        <time>2018-09-06T08:41:42.000Z</time>
      </trkpt>
      <trkpt lat="43.38390595279633998870849609375" lon="-4.41801491193473339080810546875">
        <ele>90.1999969482421875</ele>
        <time>2018-09-06T08:41:47.000Z</time>
      </trkpt>
      <trkpt lat="43.383892290294170379638671875" lon="-4.41818539984524250030517578125">
        <ele>91</ele>
        <time>2018-09-06T08:41:52.000Z</time>
      </trkpt>
      <trkpt lat="43.38388650678098201751708984375" lon="-4.4182579033076763153076171875">
        <ele>91.40000152587890625</ele>
        <time>2018-09-06T08:41:54.000Z</time>
      </trkpt>
      <trkpt lat="43.3838787116110324859619140625" lon="-4.4185046665370464324951171875">
        <ele>92.1999969482421875</ele>
        <time>2018-09-06T08:42:01.000Z</time>
      </trkpt>
      <trkpt lat="43.383879549801349639892578125" lon="-4.418612457811832427978515625">
        <ele>92.40000152587890625</ele>
        <time>2018-09-06T08:42:04.000Z</time>
      </trkpt>
      <trkpt lat="43.383888266980648040771484375" lon="-4.41880197264254093170166015625">
        <ele>93.1999969482421875</ele>
        <time>2018-09-06T08:42:09.000Z</time>
      </trkpt>
      <trkpt lat="43.38388851843774318695068359375" lon="-4.4188798405230045318603515625">
        <ele>93.40000152587890625</ele>
        <time>2018-09-06T08:42:11.000Z</time>
      </trkpt>
      <trkpt lat="43.38388851843774318695068359375" lon="-4.4191165454685688018798828125">
        <ele>94</ele>
        <time>2018-09-06T08:42:17.000Z</time>
      </trkpt>
      <trkpt lat="43.383892290294170379638671875" lon="-4.41919592209160327911376953125">
        <ele>94.1999969482421875</ele>
        <time>2018-09-06T08:42:19.000Z</time>
      </trkpt>
      <trkpt lat="43.38389891199767589569091796875" lon="-4.4194233231246471405029296875">
        <ele>94.40000152587890625</ele>
        <time>2018-09-06T08:42:25.000Z</time>
      </trkpt>
      <trkpt lat="43.38389941491186618804931640625" lon="-4.41945559345185756683349609375">
        <ele>94.40000152587890625</ele>
        <time>2018-09-06T08:42:26.000Z</time>
      </trkpt>
      <trkpt lat="43.383901678025722503662109375" lon="-4.41950068809092044830322265625">
        <ele>94.59999847412109375</ele>
        <time>2018-09-06T08:42:27.000Z</time>
      </trkpt>
      <trkpt lat="43.38390964083373546600341796875" lon="-4.41979967057704925537109375">
        <ele>95</ele>
        <time>2018-09-06T08:42:33.000Z</time>
      </trkpt>
      <trkpt lat="43.38389891199767589569091796875" lon="-4.4201548956334590911865234375">
        <ele>95</ele>
        <time>2018-09-06T08:42:39.000Z</time>
      </trkpt>
      <trkpt lat="43.383907042443752288818359375" lon="-4.4202826358377933502197265625">
        <ele>95.40000152587890625</ele>
        <time>2018-09-06T08:42:41.000Z</time>
      </trkpt>
      <trkpt lat="43.3839129097759723663330078125" lon="-4.42034491337835788726806640625">
        <ele>95.40000152587890625</ele>
        <time>2018-09-06T08:42:42.000Z</time>
      </trkpt>
      <trkpt lat="43.38391953147947788238525390625" lon="-4.4207017309963703155517578125">
        <ele>95.59999847412109375</ele>
        <time>2018-09-06T08:42:48.000Z</time>
      </trkpt>
      <trkpt lat="43.38393512181937694549560546875" lon="-4.42132408730685710906982421875">
        <ele>96</ele>
        <time>2018-09-06T08:42:58.000Z</time>
      </trkpt>
      <trkpt lat="43.3839836530387401580810546875" lon="-4.4219157658517360687255859375">
        <ele>96.1999969482421875</ele>
        <time>2018-09-06T08:43:07.000Z</time>
      </trkpt>
      <trkpt lat="43.3840634487569332122802734375" lon="-4.422513060271739959716796875">
        <ele>96.40000152587890625</ele>
        <time>2018-09-06T08:43:16.000Z</time>
      </trkpt>
      <trkpt lat="43.3840768598020076751708984375" lon="-4.4225752539932727813720703125">
        <ele>96.59999847412109375</ele>
        <time>2018-09-06T08:43:17.000Z</time>
      </trkpt>
      <trkpt lat="43.384149111807346343994140625" lon="-4.4231061637401580810546875">
        <ele>97.1999969482421875</ele>
        <time>2018-09-06T08:43:25.000Z</time>
      </trkpt>
      <trkpt lat="43.38418792001903057098388671875" lon="-4.4233743846416473388671875">
        <ele>97.59999847412109375</ele>
        <time>2018-09-06T08:43:29.000Z</time>
      </trkpt>
      <trkpt lat="43.3842334337532520294189453125" lon="-4.42370840348303318023681640625">
        <ele>97.1999969482421875</ele>
        <time>2018-09-06T08:43:34.000Z</time>
      </trkpt>
      <trkpt lat="43.38430828414857387542724609375" lon="-4.42422674037516117095947265625">
        <ele>97.40000152587890625</ele>
        <time>2018-09-06T08:43:42.000Z</time>
      </trkpt>
      <trkpt lat="43.3843903429806232452392578125" lon="-4.4248356856405735015869140625">
        <ele>97.8000030517578125</ele>
        <time>2018-09-06T08:43:51.000Z</time>
      </trkpt>
      <trkpt lat="43.38441087864339351654052734375" lon="-4.42503157071769237518310546875">
        <ele>98</ele>
        <time>2018-09-06T08:43:54.000Z</time>
      </trkpt>
      <trkpt lat="43.3844312466681003570556640625" lon="-4.42521194927394390106201171875">
        <ele>98</ele>
        <time>2018-09-06T08:43:57.000Z</time>
      </trkpt>
      <trkpt lat="43.38444323278963565826416015625" lon="-4.42526391707360744476318359375">
        <ele>98.1999969482421875</ele>
        <time>2018-09-06T08:43:58.000Z</time>
      </trkpt>
      <trkpt lat="43.384433090686798095703125" lon="-4.42549131810665130615234375">
        <ele>98</ele>
        <time>2018-09-06T08:44:03.000Z</time>
      </trkpt>
      <trkpt lat="43.3844597451388835906982421875" lon="-4.425676055252552032470703125">
        <ele>98.40000152587890625</ele>
        <time>2018-09-06T08:44:07.000Z</time>
      </trkpt>
      <trkpt lat="43.38447399437427520751953125" lon="-4.42583790980279445648193359375">
        <ele>98.59999847412109375</ele>
        <time>2018-09-06T08:44:11.000Z</time>
      </trkpt>
      <trkpt lat="43.38447625748813152313232421875" lon="-4.4258971698582172393798828125">
        <ele>98.59999847412109375</ele>
        <time>2018-09-06T08:44:13.000Z</time>
      </trkpt>
      <trkpt lat="43.38447206653654575347900390625" lon="-4.426076710224151611328125">
        <ele>98.59999847412109375</ele>
        <time>2018-09-06T08:44:20.000Z</time>
      </trkpt>
      <trkpt lat="43.384486399590969085693359375" lon="-4.4261680729687213897705078125">
        <ele>98.40000152587890625</ele>
        <time>2018-09-06T08:44:23.000Z</time>
      </trkpt>
      <trkpt lat="43.384485729038715362548828125" lon="-4.42626019008457660675048828125">
        <ele>98.59999847412109375</ele>
        <time>2018-09-06T08:44:26.000Z</time>
      </trkpt>
      <trkpt lat="43.38447692804038524627685546875" lon="-4.42642363719642162322998046875">
        <ele>98.8000030517578125</ele>
        <time>2018-09-06T08:44:31.000Z</time>
      </trkpt>
      <trkpt lat="43.38446955196559429168701171875" lon="-4.42645699717104434967041015625">
        <ele>98.59999847412109375</ele>
        <time>2018-09-06T08:44:32.000Z</time>
      </trkpt>
      <trkpt lat="43.38442169129848480224609375" lon="-4.4266646169126033782958984375">
        <ele>98</ele>
        <time>2018-09-06T08:44:36.000Z</time>
      </trkpt>
      <trkpt lat="43.3843926899135112762451171875" lon="-4.42686729133129119873046875">
        <ele>98.40000152587890625</ele>
        <time>2018-09-06T08:44:39.000Z</time>
      </trkpt>
      <trkpt lat="43.3843678794801235198974609375" lon="-4.42700785584747791290283203125">
        <ele>98.40000152587890625</ele>
        <time>2018-09-06T08:44:41.000Z</time>
      </trkpt>
      <trkpt lat="43.38435337878763675689697265625" lon="-4.42707843147218227386474609375">
        <ele>98.1999969482421875</ele>
        <time>2018-09-06T08:44:42.000Z</time>
      </trkpt>
      <trkpt lat="43.384205438196659088134765625" lon="-4.42769634537398815155029296875">
        <ele>98.1999969482421875</ele>
        <time>2018-09-06T08:44:51.000Z</time>
      </trkpt>
      <trkpt lat="43.38401860557496547698974609375" lon="-4.42815634422004222869873046875">
        <ele>97.8000030517578125</ele>
        <time>2018-09-06T08:44:58.000Z</time>
      </trkpt>
      <trkpt lat="43.38382649235427379608154296875" lon="-4.42854392342269420623779296875">
        <ele>97.8000030517578125</ele>
        <time>2018-09-06T08:45:04.000Z</time>
      </trkpt>
      <trkpt lat="43.38378776796162128448486328125" lon="-4.42861148156225681304931640625">
        <ele>97.40000152587890625</ele>
        <time>2018-09-06T08:45:05.000Z</time>
      </trkpt>
      <trkpt lat="43.3837129175662994384765625" lon="-4.42874710075557231903076171875">
        <ele>97</ele>
        <time>2018-09-06T08:45:07.000Z</time>
      </trkpt>
      <trkpt lat="43.38358878158032894134521484375" lon="-4.42895539104938507080078125">
        <ele>96.1999969482421875</ele>
        <time>2018-09-06T08:45:10.000Z</time>
      </trkpt>
      <trkpt lat="43.38341376744210720062255859375" lon="-4.42926895804703235626220703125">
        <ele>95.1999969482421875</ele>
        <time>2018-09-06T08:45:14.000Z</time>
      </trkpt>
      <trkpt lat="43.383366577327251434326171875" lon="-4.4293501786887645721435546875">
        <ele>95.1999969482421875</ele>
        <time>2018-09-06T08:45:15.000Z</time>
      </trkpt>
      <trkpt lat="43.38317052461206912994384765625" lon="-4.42968939431011676788330078125">
        <ele>94.59999847412109375</ele>
        <time>2018-09-06T08:45:19.000Z</time>
      </trkpt>
      <trkpt lat="43.3830717019736766815185546875" lon="-4.42986390553414821624755859375">
        <ele>93.8000030517578125</ele>
        <time>2018-09-06T08:45:21.000Z</time>
      </trkpt>
      <trkpt lat="43.382977657020092010498046875" lon="-4.430053420364856719970703125">
        <ele>92.40000152587890625</ele>
        <time>2018-09-06T08:45:23.000Z</time>
      </trkpt>
      <trkpt lat="43.38283122517168521881103515625" lon="-4.4303476251661777496337890625">
        <ele>91.1999969482421875</ele>
        <time>2018-09-06T08:45:26.000Z</time>
      </trkpt>
      <trkpt lat="43.3826965279877185821533203125" lon="-4.43065884523093700408935546875">
        <ele>90</ele>
        <time>2018-09-06T08:45:29.000Z</time>
      </trkpt>
      <trkpt lat="43.382654450833797454833984375" lon="-4.4307630322873592376708984375">
        <ele>89.8000030517578125</ele>
        <time>2018-09-06T08:45:30.000Z</time>
      </trkpt>
      <trkpt lat="43.3825335837900638580322265625" lon="-4.4310696423053741455078125">
        <ele>90</ele>
        <time>2018-09-06T08:45:33.000Z</time>
      </trkpt>
      <trkpt lat="43.38241732679307460784912109375" lon="-4.431369043886661529541015625">
        <ele>89</ele>
        <time>2018-09-06T08:45:36.000Z</time>
      </trkpt>
      <trkpt lat="43.38227231986820697784423828125" lon="-4.43175519816577434539794921875">
        <ele>89.59999847412109375</ele>
        <time>2018-09-06T08:45:40.000Z</time>
      </trkpt>
      <trkpt lat="43.38211792521178722381591796875" lon="-4.43233505822718143463134765625">
        <ele>89</ele>
        <time>2018-09-06T08:45:46.000Z</time>
      </trkpt>
      <trkpt lat="43.3820633590221405029296875" lon="-4.43271274678409099578857421875">
        <ele>88.1999969482421875</ele>
        <time>2018-09-06T08:45:50.000Z</time>
      </trkpt>
      <trkpt lat="43.3820413984358310699462890625" lon="-4.43289094604551792144775390625">
        <ele>88.40000152587890625</ele>
        <time>2018-09-06T08:45:52.000Z</time>
      </trkpt>
      <trkpt lat="43.3819626085460186004638671875" lon="-4.433571808040142059326171875">
        <ele>89</ele>
        <time>2018-09-06T08:46:00.000Z</time>
      </trkpt>
      <trkpt lat="43.3818922005593776702880859375" lon="-4.434235654771327972412109375">
        <ele>88.59999847412109375</ele>
        <time>2018-09-06T08:46:08.000Z</time>
      </trkpt>
      <trkpt lat="43.38181114755570888519287109375" lon="-4.43497602827847003936767578125">
        <ele>88.8000030517578125</ele>
        <time>2018-09-06T08:46:17.000Z</time>
      </trkpt>
      <trkpt lat="43.38180175982415676116943359375" lon="-4.43505339324474334716796875">
        <ele>88.59999847412109375</ele>
        <time>2018-09-06T08:46:18.000Z</time>
      </trkpt>
      <trkpt lat="43.38169631548225879669189453125" lon="-4.43549436517059803009033203125">
        <ele>88.59999847412109375</ele>
        <time>2018-09-06T08:46:24.000Z</time>
      </trkpt>
      <trkpt lat="43.3816685713827610015869140625" lon="-4.4355547986924648284912109375">
        <ele>89</ele>
        <time>2018-09-06T08:46:25.000Z</time>
      </trkpt>
      <trkpt lat="43.38152490556240081787109375" lon="-4.4358032383024692535400390625">
        <ele>88.8000030517578125</ele>
        <time>2018-09-06T08:46:29.000Z</time>
      </trkpt>
      <trkpt lat="43.38134813122451305389404296875" lon="-4.43602661602199077606201171875">
        <ele>88</ele>
        <time>2018-09-06T08:46:33.000Z</time>
      </trkpt>
      <trkpt lat="43.3812142722308635711669921875" lon="-4.436202384531497955322265625">
        <ele>87.59999847412109375</ele>
        <time>2018-09-06T08:46:36.000Z</time>
      </trkpt>
      <trkpt lat="43.38081353344023227691650390625" lon="-4.43677662871778011322021484375">
        <ele>87.59999847412109375</ele>
        <time>2018-09-06T08:46:46.000Z</time>
      </trkpt>
      <trkpt lat="43.38062695227563381195068359375" lon="-4.43725372664630413055419921875">
        <ele>87.8000030517578125</ele>
        <time>2018-09-06T08:46:53.000Z</time>
      </trkpt>
      <trkpt lat="43.38056928478181362152099609375" lon="-4.4374514557421207427978515625">
        <ele>87.59999847412109375</ele>
        <time>2018-09-06T08:46:56.000Z</time>
      </trkpt>
      <trkpt lat="43.380515389144420623779296875" lon="-4.4376542977988719940185546875">
        <ele>85.8000030517578125</ele>
        <time>2018-09-06T08:46:59.000Z</time>
      </trkpt>
      <trkpt lat="43.38049627840518951416015625" lon="-4.43772294558584690093994140625">
        <ele>87</ele>
        <time>2018-09-06T08:47:00.000Z</time>
      </trkpt>
      <trkpt lat="43.3804773353040218353271484375" lon="-4.4377890788018703460693359375">
        <ele>87</ele>
        <time>2018-09-06T08:47:01.000Z</time>
      </trkpt>
      <trkpt lat="43.38045696727931499481201171875" lon="-4.437856636941432952880859375">
        <ele>88.40000152587890625</ele>
        <time>2018-09-06T08:47:02.000Z</time>
      </trkpt>
      <trkpt lat="43.38043861091136932373046875" lon="-4.43792377598583698272705078125">
        <ele>87</ele>
        <time>2018-09-06T08:47:03.000Z</time>
      </trkpt>
      <trkpt lat="43.380268625915050506591796875" lon="-4.438470862805843353271484375">
        <ele>87.1999969482421875</ele>
        <time>2018-09-06T08:47:11.000Z</time>
      </trkpt>
      <trkpt lat="43.38012747466564178466796875" lon="-4.43885869346559047698974609375">
        <ele>86.1999969482421875</ele>
        <time>2018-09-06T08:47:17.000Z</time>
      </trkpt>
      <trkpt lat="43.380105681717395782470703125" lon="-4.4389258325099945068359375">
        <ele>93.40000152587890625</ele>
        <time>2018-09-06T08:47:18.000Z</time>
      </trkpt>
      <trkpt lat="43.38005631230771541595458984375" lon="-4.4390580989420413970947265625">
        <ele>91.59999847412109375</ele>
        <time>2018-09-06T08:47:20.000Z</time>
      </trkpt>
      <trkpt lat="43.3800307475030422210693359375" lon="-4.43912498652935028076171875">
        <ele>86.8000030517578125</ele>
        <time>2018-09-06T08:47:21.000Z</time>
      </trkpt>
      <trkpt lat="43.37989638559520244598388671875" lon="-4.43953402340412139892578125">
        <ele>85.59999847412109375</ele>
        <time>2018-09-06T08:47:27.000Z</time>
      </trkpt>
      <trkpt lat="43.3798480220139026641845703125" lon="-4.4397454150021076202392578125">
        <ele>85.1999969482421875</ele>
        <time>2018-09-06T08:47:30.000Z</time>
      </trkpt>
      <trkpt lat="43.379798233509063720703125" lon="-4.44005705416202545166015625">
        <ele>85.1999969482421875</ele>
        <time>2018-09-06T08:47:34.000Z</time>
      </trkpt>
      <trkpt lat="43.3797769434750080108642578125" lon="-4.44031278602778911590576171875">
        <ele>84.59999847412109375</ele>
        <time>2018-09-06T08:47:37.000Z</time>
      </trkpt>
      <trkpt lat="43.37977803312242031097412109375" lon="-4.44039945490658283233642578125">
        <ele>84.1999969482421875</ele>
        <time>2018-09-06T08:47:38.000Z</time>
      </trkpt>
      <trkpt lat="43.37978951632976531982421875" lon="-4.44066717289388179779052734375">
        <ele>83.40000152587890625</ele>
        <time>2018-09-06T08:47:41.000Z</time>
      </trkpt>
      <trkpt lat="43.37980250827968120574951171875" lon="-4.44084771908819675445556640625">
        <ele>82.8000030517578125</ele>
        <time>2018-09-06T08:47:43.000Z</time>
      </trkpt>
      <trkpt lat="43.37981508113443851470947265625" lon="-4.441024996340274810791015625">
        <ele>82.59999847412109375</ele>
        <time>2018-09-06T08:47:45.000Z</time>
      </trkpt>
      <trkpt lat="43.37982446886599063873291015625" lon="-4.441115856170654296875">
        <ele>82.40000152587890625</ele>
        <time>2018-09-06T08:47:46.000Z</time>
      </trkpt>
      <trkpt lat="43.3798559010028839111328125" lon="-4.4413872621953487396240234375">
        <ele>81.40000152587890625</ele>
        <time>2018-09-06T08:47:49.000Z</time>
      </trkpt>
      <trkpt lat="43.379878364503383636474609375" lon="-4.4415730051696300506591796875">
        <ele>81</ele>
        <time>2018-09-06T08:47:51.000Z</time>
      </trkpt>
      <trkpt lat="43.37989001534879207611083984375" lon="-4.4417647831141948699951171875">
        <ele>79.59999847412109375</ele>
        <time>2018-09-06T08:47:53.000Z</time>
      </trkpt>
      <trkpt lat="43.37991884909570217132568359375" lon="-4.4421630911529064178466796875">
        <ele>78.59999847412109375</ele>
        <time>2018-09-06T08:47:57.000Z</time>
      </trkpt>
      <trkpt lat="43.37992253713309764862060546875" lon="-4.44226451218128204345703125">
        <ele>78.1999969482421875</ele>
        <time>2018-09-06T08:47:58.000Z</time>
      </trkpt>
      <trkpt lat="43.37992387823760509490966796875" lon="-4.44246659986674785614013671875">
        <ele>77.59999847412109375</ele>
        <time>2018-09-06T08:48:00.000Z</time>
      </trkpt>
      <trkpt lat="43.37991650216281414031982421875" lon="-4.44266608916223049163818359375">
        <ele>76.40000152587890625</ele>
        <time>2018-09-06T08:48:02.000Z</time>
      </trkpt>
      <trkpt lat="43.37989412248134613037109375" lon="-4.44296783767640590667724609375">
        <ele>75.1999969482421875</ele>
        <time>2018-09-06T08:48:05.000Z</time>
      </trkpt>
      <trkpt lat="43.37984927929937839508056640625" lon="-4.44327159784734249114990234375">
        <ele>74</ele>
        <time>2018-09-06T08:48:08.000Z</time>
      </trkpt>
      <trkpt lat="43.37978809140622615814208984375" lon="-4.443581141531467437744140625">
        <ele>72.40000152587890625</ele>
        <time>2018-09-06T08:48:11.000Z</time>
      </trkpt>
      <trkpt lat="43.37974115274846553802490234375" lon="-4.4437940418720245361328125">
        <ele>71.1999969482421875</ele>
        <time>2018-09-06T08:48:13.000Z</time>
      </trkpt>
      <trkpt lat="43.379612155258655548095703125" lon="-4.444347918033599853515625">
        <ele>70</ele>
        <time>2018-09-06T08:48:18.000Z</time>
      </trkpt>
      <trkpt lat="43.37954887188971042633056640625" lon="-4.44468428380787372589111328125">
        <ele>68.8000030517578125</ele>
        <time>2018-09-06T08:48:21.000Z</time>
      </trkpt>
      <trkpt lat="43.37953680194914340972900390625" lon="-4.4449098408222198486328125">
        <ele>67.59999847412109375</ele>
        <time>2018-09-06T08:48:23.000Z</time>
      </trkpt>
      <trkpt lat="43.37953764013946056365966796875" lon="-4.44524981081485748291015625">
        <ele>66.8000030517578125</ele>
        <time>2018-09-06T08:48:26.000Z</time>
      </trkpt>
      <trkpt lat="43.37953680194914340972900390625" lon="-4.445364475250244140625">
        <ele>66.40000152587890625</ele>
        <time>2018-09-06T08:48:27.000Z</time>
      </trkpt>
      <trkpt lat="43.379547782242298126220703125" lon="-4.4455919601023197174072265625">
        <ele>65.59999847412109375</ele>
        <time>2018-09-06T08:48:29.000Z</time>
      </trkpt>
      <trkpt lat="43.37955323047935962677001953125" lon="-4.44570553489029407501220703125">
        <ele>65.40000152587890625</ele>
        <time>2018-09-06T08:48:30.000Z</time>
      </trkpt>
      <trkpt lat="43.3795635402202606201171875" lon="-4.44603427313268184661865234375">
        <ele>64.1999969482421875</ele>
        <time>2018-09-06T08:48:33.000Z</time>
      </trkpt>
      <trkpt lat="43.37955758906900882720947265625" lon="-4.44635714404284954071044921875">
        <ele>63.200000762939453125</ele>
        <time>2018-09-06T08:48:36.000Z</time>
      </trkpt>
      <trkpt lat="43.3795432560145854949951171875" lon="-4.44657105021178722381591796875">
        <ele>62</ele>
        <time>2018-09-06T08:48:38.000Z</time>
      </trkpt>
      <trkpt lat="43.3795171044766902923583984375" lon="-4.44679819978773593902587890625">
        <ele>61.59999847412109375</ele>
        <time>2018-09-06T08:48:40.000Z</time>
      </trkpt>
      <trkpt lat="43.37948231957852840423583984375" lon="-4.44702819921076297760009765625">
        <ele>61.40000152587890625</ele>
        <time>2018-09-06T08:48:42.000Z</time>
      </trkpt>
      <trkpt lat="43.3794614486396312713623046875" lon="-4.44714236073195934295654296875">
        <ele>61</ele>
        <time>2018-09-06T08:48:43.000Z</time>
      </trkpt>
      <trkpt lat="43.3793933875858783721923828125" lon="-4.44748953916132450103759765625">
        <ele>59.799999237060546875</ele>
        <time>2018-09-06T08:48:46.000Z</time>
      </trkpt>
      <trkpt lat="43.37933898903429508209228515625" lon="-4.44772758521139621734619140625">
        <ele>58.40000152587890625</ele>
        <time>2018-09-06T08:48:48.000Z</time>
      </trkpt>
      <trkpt lat="43.37930940091609954833984375" lon="-4.44785079918801784515380859375">
        <ele>57.40000152587890625</ele>
        <time>2018-09-06T08:48:49.000Z</time>
      </trkpt>
      <trkpt lat="43.37926086969673633575439453125" lon="-4.44810141809284687042236328125">
        <ele>56</ele>
        <time>2018-09-06T08:48:51.000Z</time>
      </trkpt>
      <trkpt lat="43.37918828241527080535888671875" lon="-4.4484783522784709930419921875">
        <ele>54.40000152587890625</ele>
        <time>2018-09-06T08:48:54.000Z</time>
      </trkpt>
      <trkpt lat="43.3791415952146053314208984375" lon="-4.4487293064594268798828125">
        <ele>53.40000152587890625</ele>
        <time>2018-09-06T08:48:56.000Z</time>
      </trkpt>
      <trkpt lat="43.37907730601727962493896484375" lon="-4.4491150416433811187744140625">
        <ele>51.799999237060546875</ele>
        <time>2018-09-06T08:48:59.000Z</time>
      </trkpt>
      <trkpt lat="43.37902667932212352752685546875" lon="-4.44937094114720821380615234375">
        <ele>50.59999847412109375</ele>
        <time>2018-09-06T08:49:01.000Z</time>
      </trkpt>
      <trkpt lat="43.3789680898189544677734375" lon="-4.44962449371814727783203125">
        <ele>49.799999237060546875</ele>
        <time>2018-09-06T08:49:03.000Z</time>
      </trkpt>
      <trkpt lat="43.3789374120533466339111328125" lon="-4.4497485458850860595703125">
        <ele>49.200000762939453125</ele>
        <time>2018-09-06T08:49:04.000Z</time>
      </trkpt>
      <trkpt lat="43.3788659982383251190185546875" lon="-4.44999187253415584564208984375">
        <ele>47.59999847412109375</ele>
        <time>2018-09-06T08:49:06.000Z</time>
      </trkpt>
      <trkpt lat="43.37874856777489185333251953125" lon="-4.45035262964665889739990234375">
        <ele>46.59999847412109375</ele>
        <time>2018-09-06T08:49:09.000Z</time>
      </trkpt>
      <trkpt lat="43.378708921372890472412109375" lon="-4.450473077595233917236328125">
        <ele>46</ele>
        <time>2018-09-06T08:49:10.000Z</time>
      </trkpt>
      <trkpt lat="43.3785890601575374603271484375" lon="-4.45082972757518291473388671875">
        <ele>45.40000152587890625</ele>
        <time>2018-09-06T08:49:13.000Z</time>
      </trkpt>
      <trkpt lat="43.3784690313041210174560546875" lon="-4.45118579082190990447998046875">
        <ele>43.59999847412109375</ele>
        <time>2018-09-06T08:49:16.000Z</time>
      </trkpt>
      <trkpt lat="43.37838445790112018585205078125" lon="-4.45142249576747417449951171875">
        <ele>42.40000152587890625</ele>
        <time>2018-09-06T08:49:18.000Z</time>
      </trkpt>
      <trkpt lat="43.3783456496894359588623046875" lon="-4.45154235698282718658447265625">
        <ele>41.200000762939453125</ele>
        <time>2018-09-06T08:49:19.000Z</time>
      </trkpt>
      <trkpt lat="43.37826761417090892791748046875" lon="-4.451783001422882080078125">
        <ele>40.200000762939453125</ele>
        <time>2018-09-06T08:49:21.000Z</time>
      </trkpt>
      <trkpt lat="43.37822536937892436981201171875" lon="-4.45190437138080596923828125">
        <ele>39.799999237060546875</ele>
        <time>2018-09-06T08:49:22.000Z</time>
      </trkpt>
      <trkpt lat="43.37800727225840091705322265625" lon="-4.4525073654949665069580078125">
        <ele>37.799999237060546875</ele>
        <time>2018-09-06T08:49:27.000Z</time>
      </trkpt>
      <trkpt lat="43.3779557235538959503173828125" lon="-4.45262211374938488006591796875">
        <ele>36.799999237060546875</ele>
        <time>2018-09-06T08:49:28.000Z</time>
      </trkpt>
      <trkpt lat="43.37789948098361492156982421875" lon="-4.4527343474328517913818359375">
        <ele>35.799999237060546875</ele>
        <time>2018-09-06T08:49:29.000Z</time>
      </trkpt>
      <trkpt lat="43.377843238413333892822265625" lon="-4.45284540764987468719482421875">
        <ele>35.59999847412109375</ele>
        <time>2018-09-06T08:49:30.000Z</time>
      </trkpt>
      <trkpt lat="43.37767467834055423736572265625" lon="-4.45317439734935760498046875">
        <ele>34.40000152587890625</ele>
        <time>2018-09-06T08:49:33.000Z</time>
      </trkpt>
      <trkpt lat="43.3775497041642665863037109375" lon="-4.453386627137660980224609375">
        <ele>33</ele>
        <time>2018-09-06T08:49:35.000Z</time>
      </trkpt>
      <trkpt lat="43.37742875330150127410888671875" lon="-4.45360179059207439422607421875">
        <ele>31.6000003814697265625</ele>
        <time>2018-09-06T08:49:37.000Z</time>
      </trkpt>
      <trkpt lat="43.377250134944915771484375" lon="-4.45392784662544727325439453125">
        <ele>30.200000762939453125</ele>
        <time>2018-09-06T08:49:40.000Z</time>
      </trkpt>
      <trkpt lat="43.37712683714926242828369140625" lon="-4.45413789711892604827880859375">
        <ele>28.6000003814697265625</ele>
        <time>2018-09-06T08:49:42.000Z</time>
      </trkpt>
      <trkpt lat="43.377066738903522491455078125" lon="-4.45424116216599941253662109375">
        <ele>27.3999996185302734375</ele>
        <time>2018-09-06T08:49:43.000Z</time>
      </trkpt>
      <trkpt lat="43.37694645859301090240478515625" lon="-4.4544512964785099029541015625">
        <ele>27.200000762939453125</ele>
        <time>2018-09-06T08:49:45.000Z</time>
      </trkpt>
      <trkpt lat="43.3766545169055461883544921875" lon="-4.45498212240636348724365234375">
        <ele>25.799999237060546875</ele>
        <time>2018-09-06T08:49:50.000Z</time>
      </trkpt>
      <trkpt lat="43.37654094211757183074951171875" lon="-4.4551865570247173309326171875">
        <ele>24.799999237060546875</ele>
        <time>2018-09-06T08:49:52.000Z</time>
      </trkpt>
      <trkpt lat="43.3763738907873630523681640625" lon="-4.45547933690249919891357421875">
        <ele>24.200000762939453125</ele>
        <time>2018-09-06T08:49:55.000Z</time>
      </trkpt>
      <trkpt lat="43.3762161433696746826171875" lon="-4.45576809346675872802734375">
        <ele>23.6000003814697265625</ele>
        <time>2018-09-06T08:49:58.000Z</time>
      </trkpt>
      <trkpt lat="43.37600626051425933837890625" lon="-4.45615223608911037445068359375">
        <ele>22.3999996185302734375</ele>
        <time>2018-09-06T08:50:02.000Z</time>
      </trkpt>
      <trkpt lat="43.375847004354000091552734375" lon="-4.45643487386405467987060546875">
        <ele>21.799999237060546875</ele>
        <time>2018-09-06T08:50:05.000Z</time>
      </trkpt>
      <trkpt lat="43.3757422305643558502197265625" lon="-4.45661860518157482147216796875">
        <ele>20.6000003814697265625</ele>
        <time>2018-09-06T08:50:07.000Z</time>
      </trkpt>
      <trkpt lat="43.37545573711395263671875" lon="-4.45716150104999542236328125">
        <ele>19.200000762939453125</ele>
        <time>2018-09-06T08:50:13.000Z</time>
      </trkpt>
      <trkpt lat="43.3752151764929294586181640625" lon="-4.45769735611975193023681640625">
        <ele>18.6000003814697265625</ele>
        <time>2018-09-06T08:50:19.000Z</time>
      </trkpt>
      <trkpt lat="43.3751796372234821319580078125" lon="-4.457786120474338531494140625">
        <ele>18</ele>
        <time>2018-09-06T08:50:20.000Z</time>
      </trkpt>
      <trkpt lat="43.3750230632722377777099609375" lon="-4.45823899470269680023193359375">
        <ele>16.799999237060546875</ele>
        <time>2018-09-06T08:50:25.000Z</time>
      </trkpt>
      <trkpt lat="43.37498978711664676666259765625" lon="-4.45832557976245880126953125">
        <ele>16.6000003814697265625</ele>
        <time>2018-09-06T08:50:26.000Z</time>
      </trkpt>
      <trkpt lat="43.37484620511531829833984375" lon="-4.4587649591267108917236328125">
        <ele>15.80000019073486328125</ele>
        <time>2018-09-06T08:50:31.000Z</time>
      </trkpt>
      <trkpt lat="43.3746921457350254058837890625" lon="-4.4592122174799442291259765625">
        <ele>15</ele>
        <time>2018-09-06T08:50:36.000Z</time>
      </trkpt>
      <trkpt lat="43.3746281079947948455810546875" lon="-4.459388069808483123779296875">
        <ele>14.3999996185302734375</ele>
        <time>2018-09-06T08:50:38.000Z</time>
      </trkpt>
      <trkpt lat="43.37447731755673885345458984375" lon="-4.45984764955937862396240234375">
        <ele>13.3999996185302734375</ele>
        <time>2018-09-06T08:50:43.000Z</time>
      </trkpt>
      <trkpt lat="43.37438327260315418243408203125" lon="-4.46013229899108409881591796875">
        <ele>12.6000003814697265625</ele>
        <time>2018-09-06T08:50:46.000Z</time>
      </trkpt>
      <trkpt lat="43.374350331723690032958984375" lon="-4.4602247513830661773681640625">
        <ele>12.3999996185302734375</ele>
        <time>2018-09-06T08:50:47.000Z</time>
      </trkpt>
      <trkpt lat="43.3743166364729404449462890625" lon="-4.46031854487955570220947265625">
        <ele>12.19999980926513671875</ele>
        <time>2018-09-06T08:50:48.000Z</time>
      </trkpt>
      <trkpt lat="43.37415981106460094451904296875" lon="-4.4607853330671787261962890625">
        <ele>12.3999996185302734375</ele>
        <time>2018-09-06T08:50:53.000Z</time>
      </trkpt>
      <trkpt lat="43.37412812747061252593994140625" lon="-4.46087694726884365081787109375">
        <ele>12.19999980926513671875</ele>
        <time>2018-09-06T08:50:54.000Z</time>
      </trkpt>
      <trkpt lat="43.374031484127044677734375" lon="-4.4611477665603160858154296875">
        <ele>10.6000003814697265625</ele>
        <time>2018-09-06T08:50:57.000Z</time>
      </trkpt>
      <trkpt lat="43.37397457100450992584228515625" lon="-4.46132755838334560394287109375">
        <ele>10.3999996185302734375</ele>
        <time>2018-09-06T08:50:59.000Z</time>
      </trkpt>
      <trkpt lat="43.3738888241350650787353515625" lon="-4.461579434573650360107421875">
        <ele>10.80000019073486328125</ele>
        <time>2018-09-06T08:51:02.000Z</time>
      </trkpt>
      <trkpt lat="43.37383409030735492706298828125" lon="-4.4617371819913387298583984375">
        <ele>11.19999980926513671875</ele>
        <time>2018-09-06T08:51:04.000Z</time>
      </trkpt>
      <trkpt lat="43.37375613860785961151123046875" lon="-4.46196609176695346832275390625">
        <ele>11.3999996185302734375</ele>
        <time>2018-09-06T08:51:07.000Z</time>
      </trkpt>
      <trkpt lat="43.37368480861186981201171875" lon="-4.4621740467846393585205078125">
        <ele>12</ele>
        <time>2018-09-06T08:51:10.000Z</time>
      </trkpt>
      <trkpt lat="43.37359420023858547210693359375" lon="-4.46243195794522762298583984375">
        <ele>12</ele>
        <time>2018-09-06T08:51:14.000Z</time>
      </trkpt>
      <trkpt lat="43.37357073090970516204833984375" lon="-4.46249373257160186767578125">
        <ele>12.19999980926513671875</ele>
        <time>2018-09-06T08:51:15.000Z</time>
      </trkpt>
      <trkpt lat="43.37349445559084415435791015625" lon="-4.462744854390621185302734375">
        <ele>12.80000019073486328125</ele>
        <time>2018-09-06T08:51:19.000Z</time>
      </trkpt>
      <trkpt lat="43.373452126979827880859375" lon="-4.46286731399595737457275390625">
        <ele>13</ele>
        <time>2018-09-06T08:51:21.000Z</time>
      </trkpt>
      <trkpt lat="43.3733959682285785675048828125" lon="-4.4630440883338451385498046875">
        <ele>13.19999980926513671875</ele>
        <time>2018-09-06T08:51:24.000Z</time>
      </trkpt>
      <trkpt lat="43.3732980675995349884033203125" lon="-4.46335061453282833099365234375">
        <ele>13.6000003814697265625</ele>
        <time>2018-09-06T08:51:29.000Z</time>
      </trkpt>
      <trkpt lat="43.373241238296031951904296875" lon="-4.46353049017488956451416015625">
        <ele>13.80000019073486328125</ele>
        <time>2018-09-06T08:51:32.000Z</time>
      </trkpt>
      <trkpt lat="43.3731723390519618988037109375" lon="-4.46376937441527843475341796875">
        <ele>14</ele>
        <time>2018-09-06T08:51:36.000Z</time>
      </trkpt>
      <trkpt lat="43.37315649725496768951416015625" lon="-4.46382637135684490203857421875">
        <ele>10.6000003814697265625</ele>
        <time>2018-09-06T08:51:37.000Z</time>
      </trkpt>
      <trkpt lat="43.3731476962566375732421875" lon="-4.4638903252780437469482421875">
        <ele>11.6000003814697265625</ele>
        <time>2018-09-06T08:51:38.000Z</time>
      </trkpt>
      <trkpt lat="43.3731311000883579254150390625" lon="-4.4639506749808788299560546875">
        <ele>11.80000019073486328125</ele>
        <time>2018-09-06T08:51:39.000Z</time>
      </trkpt>
      <trkpt lat="43.3731126599013805389404296875" lon="-4.46401119232177734375">
        <ele>15.3999996185302734375</ele>
        <time>2018-09-06T08:51:40.000Z</time>
      </trkpt>
      <trkpt lat="43.373019285500049591064453125" lon="-4.46424387395381927490234375">
        <ele>15</ele>
        <time>2018-09-06T08:51:44.000Z</time>
      </trkpt>
      <trkpt lat="43.37300092913210391998291015625" lon="-4.4643023796379566192626953125">
        <ele>15.19999980926513671875</ele>
        <time>2018-09-06T08:51:45.000Z</time>
      </trkpt>
      <trkpt lat="43.372948206961154937744140625" lon="-4.4645551778376102447509765625">
        <ele>15.3999996185302734375</ele>
        <time>2018-09-06T08:51:49.000Z</time>
      </trkpt>
      <trkpt lat="43.37289330549538135528564453125" lon="-4.4649923779070377349853515625">
        <ele>15.3999996185302734375</ele>
        <time>2018-09-06T08:51:55.000Z</time>
      </trkpt>
      <trkpt lat="43.3728392422199249267578125" lon="-4.4654996506869792938232421875">
        <ele>15.6000003814697265625</ele>
        <time>2018-09-06T08:52:02.000Z</time>
      </trkpt>
      <trkpt lat="43.3727763779461383819580078125" lon="-4.46608730591833591461181640625">
        <ele>15.3999996185302734375</ele>
        <time>2018-09-06T08:52:10.000Z</time>
      </trkpt>
      <trkpt lat="43.37271946482360363006591796875" lon="-4.466635398566722869873046875">
        <ele>15.19999980926513671875</ele>
        <time>2018-09-06T08:52:17.000Z</time>
      </trkpt>
      <trkpt lat="43.37267638184130191802978515625" lon="-4.4670506380498409271240234375">
        <ele>14.19999980926513671875</ele>
        <time>2018-09-06T08:52:22.000Z</time>
      </trkpt>
      <trkpt lat="43.37265894748270511627197265625" lon="-4.46731223724782466888427734375">
        <ele>14.19999980926513671875</ele>
        <time>2018-09-06T08:52:25.000Z</time>
      </trkpt>
      <trkpt lat="43.372572362422943115234375" lon="-4.4680826179683208465576171875">
        <ele>13.6000003814697265625</ele>
        <time>2018-09-06T08:52:34.000Z</time>
      </trkpt>
      <trkpt lat="43.37253472767770290374755859375" lon="-4.468337260186672210693359375">
        <ele>13.19999980926513671875</ele>
        <time>2018-09-06T08:52:37.000Z</time>
      </trkpt>
      <trkpt lat="43.37252140045166015625" lon="-4.468421749770641326904296875">
        <ele>13</ele>
        <time>2018-09-06T08:52:38.000Z</time>
      </trkpt>
      <trkpt lat="43.3725034631788730621337890625" lon="-4.46850816719233989715576171875">
        <ele>13</ele>
        <time>2018-09-06T08:52:39.000Z</time>
      </trkpt>
      <trkpt lat="43.37235501967370510101318359375" lon="-4.46909054182469844818115234375">
        <ele>12.6000003814697265625</ele>
        <time>2018-09-06T08:52:46.000Z</time>
      </trkpt>
      <trkpt lat="43.37226198054850101470947265625" lon="-4.4694440066814422607421875">
        <ele>12.6000003814697265625</ele>
        <time>2018-09-06T08:52:50.000Z</time>
      </trkpt>
      <trkpt lat="43.37223800830543041229248046875" lon="-4.46953578852117061614990234375">
        <ele>12.19999980926513671875</ele>
        <time>2018-09-06T08:52:51.000Z</time>
      </trkpt>
      <trkpt lat="43.37215234525501728057861328125" lon="-4.46980568580329418182373046875">
        <ele>11.6000003814697265625</ele>
        <time>2018-09-06T08:52:54.000Z</time>
      </trkpt>
      <trkpt lat="43.37210674770176410675048828125" lon="-4.46999863721430301666259765625">
        <ele>11.19999980926513671875</ele>
        <time>2018-09-06T08:52:56.000Z</time>
      </trkpt>
      <trkpt lat="43.371990658342838287353515625" lon="-4.47038873098790645599365234375">
        <ele>10.6000003814697265625</ele>
        <time>2018-09-06T08:53:00.000Z</time>
      </trkpt>
      <trkpt lat="43.37176661007106304168701171875" lon="-4.471171014010906219482421875">
        <ele>10</ele>
        <time>2018-09-06T08:53:08.000Z</time>
      </trkpt>
      <trkpt lat="43.37159830145537853240966796875" lon="-4.47176101617515087127685546875">
        <ele>9.80000019073486328125</ele>
        <time>2018-09-06T08:53:14.000Z</time>
      </trkpt>
      <trkpt lat="43.37154113687574863433837890625" lon="-4.4719530455768108367919921875">
        <ele>9.3999996185302734375</ele>
        <time>2018-09-06T08:53:16.000Z</time>
      </trkpt>
      <trkpt lat="43.371467627584934234619140625" lon="-4.4722581468522548675537109375">
        <ele>9</ele>
        <time>2018-09-06T08:53:19.000Z</time>
      </trkpt>
      <trkpt lat="43.3713983930647373199462890625" lon="-4.472685791552066802978515625">
        <ele>8</ele>
        <time>2018-09-06T08:53:23.000Z</time>
      </trkpt>
      <trkpt lat="43.371386826038360595703125" lon="-4.4729094207286834716796875">
        <ele>7.80000019073486328125</ele>
        <time>2018-09-06T08:53:25.000Z</time>
      </trkpt>
      <trkpt lat="43.37139043025672435760498046875" lon="-4.473230950534343719482421875">
        <ele>8</ele>
        <time>2018-09-06T08:53:28.000Z</time>
      </trkpt>
      <trkpt lat="43.37143334560096263885498046875" lon="-4.47402010671794414520263671875">
        <ele>8.3999996185302734375</ele>
        <time>2018-09-06T08:53:36.000Z</time>
      </trkpt>
      <trkpt lat="43.3714718185365200042724609375" lon="-4.47475603781640529632568359375">
        <ele>8</ele>
        <time>2018-09-06T08:53:44.000Z</time>
      </trkpt>
      <trkpt lat="43.3715060167014598846435546875" lon="-4.4752860255539417266845703125">
        <ele>8.19999980926513671875</ele>
        <time>2018-09-06T08:53:50.000Z</time>
      </trkpt>
      <trkpt lat="43.37161011993885040283203125" lon="-4.4760514609515666961669921875">
        <ele>8.19999980926513671875</ele>
        <time>2018-09-06T08:53:59.000Z</time>
      </trkpt>
      <trkpt lat="43.37178857065737247467041015625" lon="-4.47671924717724323272705078125">
        <ele>8.19999980926513671875</ele>
        <time>2018-09-06T08:54:07.000Z</time>
      </trkpt>
      <trkpt lat="43.372073471546173095703125" lon="-4.4773603789508342742919921875">
        <ele>8.6000003814697265625</ele>
        <time>2018-09-06T08:54:16.000Z</time>
      </trkpt>
      <trkpt lat="43.37243028916418552398681640625" lon="-4.4780084677040576934814453125">
        <ele>8.3999996185302734375</ele>
        <time>2018-09-06T08:54:26.000Z</time>
      </trkpt>
      <trkpt lat="43.3727398328483104705810546875" lon="-4.47859377600252628326416015625">
        <ele>8.6000003814697265625</ele>
        <time>2018-09-06T08:54:35.000Z</time>
      </trkpt>
      <trkpt lat="43.37290017865598201751708984375" lon="-4.47887943126261234283447265625">
        <ele>9</ele>
        <time>2018-09-06T08:54:40.000Z</time>
      </trkpt>
      <trkpt lat="43.37296589277684688568115234375" lon="-4.47898537851870059967041015625">
        <ele>9.19999980926513671875</ele>
        <time>2018-09-06T08:54:42.000Z</time>
      </trkpt>
      <trkpt lat="43.3730633743107318878173828125" lon="-4.47913273237645626068115234375">
        <ele>9.6000003814697265625</ele>
        <time>2018-09-06T08:54:45.000Z</time>
      </trkpt>
      <trkpt lat="43.37319203652441501617431640625" lon="-4.47930808179080486297607421875">
        <ele>10.19999980926513671875</ele>
        <time>2018-09-06T08:54:49.000Z</time>
      </trkpt>
      <trkpt lat="43.37333335541188716888427734375" lon="-4.479486532509326934814453125">
        <ele>11.3999996185302734375</ele>
        <time>2018-09-06T08:54:54.000Z</time>
      </trkpt>
      <trkpt lat="43.37335263378918170928955078125" lon="-4.47950857691466808319091796875">
        <ele>11.80000019073486328125</ele>
        <time>2018-09-06T08:54:55.000Z</time>
      </trkpt>
      <trkpt lat="43.3734207786619663238525390625" lon="-4.47957999072968959808349609375">
        <ele>12.3999996185302734375</ele>
        <time>2018-09-06T08:54:58.000Z</time>
      </trkpt>
      <trkpt lat="43.3735545538365840911865234375" lon="-4.47970471344888210296630859375">
        <ele>13.19999980926513671875</ele>
        <time>2018-09-06T08:55:03.000Z</time>
      </trkpt>
      <trkpt lat="43.37360912002623081207275390625" lon="-4.47975483722984790802001953125">
        <ele>13.6000003814697265625</ele>
        <time>2018-09-06T08:55:05.000Z</time>
      </trkpt>
      <trkpt lat="43.37366393767297267913818359375" lon="-4.47980144061148166656494140625">
        <ele>14</ele>
        <time>2018-09-06T08:55:07.000Z</time>
      </trkpt>
      <trkpt lat="43.3738066814839839935302734375" lon="-4.4798858463764190673828125">
        <ele>14.80000019073486328125</ele>
        <time>2018-09-06T08:55:12.000Z</time>
      </trkpt>
      <trkpt lat="43.374007008969783782958984375" lon="-4.4800097309052944183349609375">
        <ele>15.80000019073486328125</ele>
        <time>2018-09-06T08:55:19.000Z</time>
      </trkpt>
      <trkpt lat="43.3740648441016674041748046875" lon="-4.48003563098609447479248046875">
        <ele>16.200000762939453125</ele>
        <time>2018-09-06T08:55:21.000Z</time>
      </trkpt>
      <trkpt lat="43.374180011451244354248046875" lon="-4.48008994571864604949951171875">
        <ele>16.799999237060546875</ele>
        <time>2018-09-06T08:55:25.000Z</time>
      </trkpt>
      <trkpt lat="43.37420624680817127227783203125" lon="-4.48010285384953022003173828125">
        <ele>17</ele>
        <time>2018-09-06T08:55:26.000Z</time>
      </trkpt>
      <trkpt lat="43.3742914907634258270263671875" lon="-4.48013939894735813140869140625">
        <ele>17.3999996185302734375</ele>
        <time>2018-09-06T08:55:29.000Z</time>
      </trkpt>
      <trkpt lat="43.3744624815881252288818359375" lon="-4.48021232150495052337646484375">
        <ele>18</ele>
        <time>2018-09-06T08:55:35.000Z</time>
      </trkpt>
      <trkpt lat="43.3745174668729305267333984375" lon="-4.4802407361567020416259765625">
        <ele>18.200000762939453125</ele>
        <time>2018-09-06T08:55:37.000Z</time>
      </trkpt>
      <trkpt lat="43.374725170433521270751953125" lon="-4.48031776584684848785400390625">
        <ele>19</ele>
        <time>2018-09-06T08:55:44.000Z</time>
      </trkpt>
      <trkpt lat="43.37478593923151493072509765625" lon="-4.4803419895470142364501953125">
        <ele>19.3999996185302734375</ele>
        <time>2018-09-06T08:55:46.000Z</time>
      </trkpt>
      <trkpt lat="43.37487847544252872467041015625" lon="-4.48037660680711269378662109375">
        <ele>20.200000762939453125</ele>
        <time>2018-09-06T08:55:49.000Z</time>
      </trkpt>
      <trkpt lat="43.37505952455103397369384765625" lon="-4.48043410666286945343017578125">
        <ele>20.799999237060546875</ele>
        <time>2018-09-06T08:55:55.000Z</time>
      </trkpt>
      <trkpt lat="43.37514518760144710540771484375" lon="-4.4804683886468410491943359375">
        <ele>21.3999996185302734375</ele>
        <time>2018-09-06T08:55:58.000Z</time>
      </trkpt>
      <trkpt lat="43.37525800801813602447509765625" lon="-4.48050476610660552978515625">
        <ele>22</ele>
        <time>2018-09-06T08:56:02.000Z</time>
      </trkpt>
      <trkpt lat="43.37531181983649730682373046875" lon="-4.4805314205586910247802734375">
        <ele>22.3999996185302734375</ele>
        <time>2018-09-06T08:56:04.000Z</time>
      </trkpt>
      <trkpt lat="43.37541324086487293243408203125" lon="-4.4805797003209590911865234375">
        <ele>23.6000003814697265625</ele>
        <time>2018-09-06T08:56:08.000Z</time>
      </trkpt>
      <trkpt lat="43.37543494999408721923828125" lon="-4.4805944524705410003662109375">
        <ele>23.799999237060546875</ele>
        <time>2018-09-06T08:56:09.000Z</time>
      </trkpt>
      <trkpt lat="43.3755551464855670928955078125" lon="-4.48065496981143951416015625">
        <ele>24.6000003814697265625</ele>
        <time>2018-09-06T08:56:14.000Z</time>
      </trkpt>
      <trkpt lat="43.37567559443414211273193359375" lon="-4.48071205057203769683837890625">
        <ele>25.3999996185302734375</ele>
        <time>2018-09-06T08:56:19.000Z</time>
      </trkpt>
      <trkpt lat="43.3757207728922367095947265625" lon="-4.48073652572929859161376953125">
        <ele>25.799999237060546875</ele>
        <time>2018-09-06T08:56:21.000Z</time>
      </trkpt>
      <trkpt lat="43.37585479952394962310791015625" lon="-4.48084138333797454833984375">
        <ele>26.799999237060546875</ele>
        <time>2018-09-06T08:56:27.000Z</time>
      </trkpt>
      <trkpt lat="43.37596778757870197296142578125" lon="-4.48094196617603302001953125">
        <ele>28</ele>
        <time>2018-09-06T08:56:33.000Z</time>
      </trkpt>
      <trkpt lat="43.376001901924610137939453125" lon="-4.4809823669493198394775390625">
        <ele>28.3999996185302734375</ele>
        <time>2018-09-06T08:56:35.000Z</time>
      </trkpt>
      <trkpt lat="43.376055546104907989501953125" lon="-4.481083787977695465087890625">
        <ele>29</ele>
        <time>2018-09-06T08:56:39.000Z</time>
      </trkpt>
      <trkpt lat="43.3761090226471424102783203125" lon="-4.481183029711246490478515625">
        <ele>29.3999996185302734375</ele>
        <time>2018-09-06T08:56:43.000Z</time>
      </trkpt>
      <trkpt lat="43.3761569671332836151123046875" lon="-4.48128604330122470855712890625">
        <ele>30.200000762939453125</ele>
        <time>2018-09-06T08:56:47.000Z</time>
      </trkpt>
      <trkpt lat="43.37618756107985973358154296875" lon="-4.48141478933393955230712890625">
        <ele>30.6000003814697265625</ele>
        <time>2018-09-06T08:56:51.000Z</time>
      </trkpt>
      <trkpt lat="43.37621740065515041351318359375" lon="-4.481539428234100341796875">
        <ele>31.200000762939453125</ele>
        <time>2018-09-06T08:56:55.000Z</time>
      </trkpt>
      <trkpt lat="43.3762545324862003326416015625" lon="-4.48173296637833118438720703125">
        <ele>32.40000152587890625</ele>
        <time>2018-09-06T08:57:01.000Z</time>
      </trkpt>
      <trkpt lat="43.37624154053628444671630859375" lon="-4.48193371295928955078125">
        <ele>33</ele>
        <time>2018-09-06T08:57:07.000Z</time>
      </trkpt>
      <trkpt lat="43.3762112818658351898193359375" lon="-4.4821236468851566314697265625">
        <ele>33.59999847412109375</ele>
        <time>2018-09-06T08:57:12.000Z</time>
      </trkpt>
      <trkpt lat="43.376190662384033203125" lon="-4.4822346232831478118896484375">
        <ele>34.200000762939453125</ele>
        <time>2018-09-06T08:57:15.000Z</time>
      </trkpt>
      <trkpt lat="43.376165516674518585205078125" lon="-4.482337050139904022216796875">
        <ele>34.59999847412109375</ele>
        <time>2018-09-06T08:57:18.000Z</time>
      </trkpt>
      <trkpt lat="43.376104831695556640625" lon="-4.4826218672096729278564453125">
        <ele>35.799999237060546875</ele>
        <time>2018-09-06T08:57:26.000Z</time>
      </trkpt>
      <trkpt lat="43.37599729187786579132080078125" lon="-4.48297818191349506378173828125">
        <ele>36.799999237060546875</ele>
        <time>2018-09-06T08:57:36.000Z</time>
      </trkpt>
      <trkpt lat="43.37592713534832000732421875" lon="-4.48324556462466716766357421875">
        <ele>37.40000152587890625</ele>
        <time>2018-09-06T08:57:42.000Z</time>
      </trkpt>
      <trkpt lat="43.375908024609088897705078125" lon="-4.48334229178726673126220703125">
        <ele>38.200000762939453125</ele>
        <time>2018-09-06T08:57:44.000Z</time>
      </trkpt>
      <trkpt lat="43.37588665075600147247314453125" lon="-4.48342971503734588623046875">
        <ele>38.59999847412109375</ele>
        <time>2018-09-06T08:57:46.000Z</time>
      </trkpt>
      <trkpt lat="43.37586267851293087005615234375" lon="-4.48351143859326839447021484375">
        <ele>39</ele>
        <time>2018-09-06T08:57:48.000Z</time>
      </trkpt>
      <trkpt lat="43.3758535422384738922119140625" lon="-4.48355175554752349853515625">
        <ele>39.200000762939453125</ele>
        <time>2018-09-06T08:57:49.000Z</time>
      </trkpt>
      <trkpt lat="43.37581180036067962646484375" lon="-4.483760632574558258056640625">
        <ele>40</ele>
        <time>2018-09-06T08:57:54.000Z</time>
      </trkpt>
      <trkpt lat="43.375792689621448516845703125" lon="-4.48388543911278247833251953125">
        <ele>40.200000762939453125</ele>
        <time>2018-09-06T08:57:57.000Z</time>
      </trkpt>
      <trkpt lat="43.37572596967220306396484375" lon="-4.484251476824283599853515625">
        <ele>41.200000762939453125</ele>
        <time>2018-09-06T08:58:06.000Z</time>
      </trkpt>
      <trkpt lat="43.37566872127354145050048828125" lon="-4.4845577515661716461181640625">
        <ele>42.200000762939453125</ele>
        <time>2018-09-06T08:58:13.000Z</time>
      </trkpt>
      <trkpt lat="43.37565891444683074951171875" lon="-4.484604857861995697021484375">
        <ele>42.40000152587890625</ele>
        <time>2018-09-06T08:58:14.000Z</time>
      </trkpt>
      <trkpt lat="43.375553973019123077392578125" lon="-4.4850905053317546844482421875">
        <ele>43.200000762939453125</ele>
        <time>2018-09-06T08:58:24.000Z</time>
      </trkpt>
      <trkpt lat="43.37554265744984149932861328125" lon="-4.4851404614746570587158203125">
        <ele>43.40000152587890625</ele>
        <time>2018-09-06T08:58:25.000Z</time>
      </trkpt>
      <trkpt lat="43.37547518312931060791015625" lon="-4.485452435910701751708984375">
        <ele>44.59999847412109375</ele>
        <time>2018-09-06T08:58:31.000Z</time>
      </trkpt>
      <trkpt lat="43.37546302936971187591552734375" lon="-4.48550817556679248809814453125">
        <ele>44.799999237060546875</ele>
        <time>2018-09-06T08:58:32.000Z</time>
      </trkpt>
      <trkpt lat="43.3753953874111175537109375" lon="-4.48578159324824810028076171875">
        <ele>45.200000762939453125</ele>
        <time>2018-09-06T08:58:37.000Z</time>
      </trkpt>
      <trkpt lat="43.37536814622581005096435546875" lon="-4.48589198291301727294921875">
        <ele>45.59999847412109375</ele>
        <time>2018-09-06T08:58:39.000Z</time>
      </trkpt>
      <trkpt lat="43.375319950282573699951171875" lon="-4.48611619882285594940185546875">
        <ele>46</ele>
        <time>2018-09-06T08:58:43.000Z</time>
      </trkpt>
      <trkpt lat="43.3752651326358318328857421875" lon="-4.48634083382785320281982421875">
        <ele>46.59999847412109375</ele>
        <time>2018-09-06T08:58:47.000Z</time>
      </trkpt>
      <trkpt lat="43.3751942217350006103515625" lon="-4.48662062175571918487548828125">
        <ele>47</ele>
        <time>2018-09-06T08:58:52.000Z</time>
      </trkpt>
      <trkpt lat="43.37515910156071186065673828125" lon="-4.48677350766956806182861328125">
        <ele>47.59999847412109375</ele>
        <time>2018-09-06T08:58:55.000Z</time>
      </trkpt>
      <trkpt lat="43.37512205354869365692138671875" lon="-4.48690962977707386016845703125">
        <ele>48</ele>
        <time>2018-09-06T08:58:58.000Z</time>
      </trkpt>
      <trkpt lat="43.375074863433837890625" lon="-4.48707693256437778472900390625">
        <ele>48.40000152587890625</ele>
        <time>2018-09-06T08:59:02.000Z</time>
      </trkpt>
      <trkpt lat="43.37502717040479183197021484375" lon="-4.4871779344975948333740234375">
        <ele>48.40000152587890625</ele>
        <time>2018-09-06T08:59:05.000Z</time>
      </trkpt>
      <trkpt lat="43.37494502775371074676513671875" lon="-4.4872131384909152984619140625">
        <ele>48.200000762939453125</ele>
        <time>2018-09-06T08:59:08.000Z</time>
      </trkpt>
      <trkpt lat="43.374913595616817474365234375" lon="-4.4872188381850719451904296875">
        <ele>48.200000762939453125</ele>
        <time>2018-09-06T08:59:09.000Z</time>
      </trkpt>
      <trkpt lat="43.374879062175750732421875" lon="-4.48722948320209980010986328125">
        <ele>48.200000762939453125</ele>
        <time>2018-09-06T08:59:10.000Z</time>
      </trkpt>
      <trkpt lat="43.3748148567974567413330078125" lon="-4.4872671179473400115966796875">
        <ele>48</ele>
        <time>2018-09-06T08:59:12.000Z</time>
      </trkpt>
      <trkpt lat="43.3747893758118152618408203125" lon="-4.48728396557271480560302734375">
        <ele>47.799999237060546875</ele>
        <time>2018-09-06T08:59:13.000Z</time>
      </trkpt>
      <trkpt lat="43.3747561834752559661865234375" lon="-4.48730961419641971588134765625">
        <ele>47.799999237060546875</ele>
        <time>2018-09-06T08:59:15.000Z</time>
      </trkpt>
      <trkpt lat="43.3747115917503833770751953125" lon="-4.4873371906578540802001953125">
        <ele>48</ele>
        <time>2018-09-06T08:59:29.000Z</time>
      </trkpt>
      <trkpt lat="43.374656103551387786865234375" lon="-4.48737113736569881439208984375">
        <ele>47.799999237060546875</ele>
        <time>2018-09-06T08:59:31.000Z</time>
      </trkpt>
      <trkpt lat="43.374589718878269195556640625" lon="-4.4873951934278011322021484375">
        <ele>47.40000152587890625</ele>
        <time>2018-09-06T08:59:33.000Z</time>
      </trkpt>
      <trkpt lat="43.37455116212368011474609375" lon="-4.48740550316870212554931640625">
        <ele>47.200000762939453125</ele>
        <time>2018-09-06T08:59:34.000Z</time>
      </trkpt>
      <trkpt lat="43.3744266070425510406494140625" lon="-4.487444646656513214111328125">
        <ele>46.799999237060546875</ele>
        <time>2018-09-06T08:59:37.000Z</time>
      </trkpt>
      <trkpt lat="43.37438327260315418243408203125" lon="-4.48745177127420902252197265625">
        <ele>46.59999847412109375</ele>
        <time>2018-09-06T08:59:38.000Z</time>
      </trkpt>
      <trkpt lat="43.37429811246693134307861328125" lon="-4.4874536991119384765625">
        <ele>46.40000152587890625</ele>
        <time>2018-09-06T08:59:40.000Z</time>
      </trkpt>
      <trkpt lat="43.374257124960422515869140625" lon="-4.48744875378906726837158203125">
        <ele>46.40000152587890625</ele>
        <time>2018-09-06T08:59:41.000Z</time>
      </trkpt>
      <trkpt lat="43.374217562377452850341796875" lon="-4.48744297027587890625">
        <ele>46.40000152587890625</ele>
        <time>2018-09-06T08:59:42.000Z</time>
      </trkpt>
      <trkpt lat="43.37407465092837810516357421875" lon="-4.48742327280342578887939453125">
        <ele>46.799999237060546875</ele>
        <time>2018-09-06T08:59:46.000Z</time>
      </trkpt>
      <trkpt lat="43.37392562068998813629150390625" lon="-4.4874545373022556304931640625">
        <ele>47.59999847412109375</ele>
        <time>2018-09-06T08:59:51.000Z</time>
      </trkpt>
      <trkpt lat="43.3739029057323932647705078125" lon="-4.48746602050960063934326171875">
        <ele>47.799999237060546875</ele>
        <time>2018-09-06T08:59:52.000Z</time>
      </trkpt>
      <trkpt lat="43.37387097068130970001220703125" lon="-4.48748915456235408782958984375">
        <ele>48</ele>
        <time>2018-09-06T08:59:54.000Z</time>
      </trkpt>
      <trkpt lat="43.37385973893105983734130859375" lon="-4.48753508739173412322998046875">
        <ele>48.40000152587890625</ele>
        <time>2018-09-06T08:59:56.000Z</time>
      </trkpt>
      <trkpt lat="43.373860158026218414306640625" lon="-4.48759795166552066802978515625">
        <ele>48.40000152587890625</ele>
        <time>2018-09-06T08:59:58.000Z</time>
      </trkpt>
      <trkpt lat="43.37388823740184307098388671875" lon="-4.48776475153863430023193359375">
        <ele>48</ele>
        <time>2018-09-06T09:00:02.000Z</time>
      </trkpt>
      <trkpt lat="43.3739267103374004364013671875" lon="-4.48786466382443904876708984375">
        <ele>47.799999237060546875</ele>
        <time>2018-09-06T09:00:04.000Z</time>
      </trkpt>
      <trkpt lat="43.37397716939449310302734375" lon="-4.4880442880094051361083984375">
        <ele>44.799999237060546875</ele>
        <time>2018-09-06T09:00:07.000Z</time>
      </trkpt>
      <trkpt lat="43.37401430122554302215576171875" lon="-4.48816917836666107177734375">
        <ele>45</ele>
        <time>2018-09-06T09:00:09.000Z</time>
      </trkpt>
      <trkpt lat="43.374033831059932708740234375" lon="-4.4882370717823505401611328125">
        <ele>46.799999237060546875</ele>
        <time>2018-09-06T09:00:10.000Z</time>
      </trkpt>
      <trkpt lat="43.374085463583469390869140625" lon="-4.4884238205850124359130859375">
        <ele>45.799999237060546875</ele>
        <time>2018-09-06T09:00:13.000Z</time>
      </trkpt>
      <trkpt lat="43.3740963600575923919677734375" lon="-4.48848308064043521881103515625">
        <ele>45.59999847412109375</ele>
        <time>2018-09-06T09:00:14.000Z</time>
      </trkpt>
      <trkpt lat="43.37410968728363513946533203125" lon="-4.48853990994393825531005859375">
        <ele>45.799999237060546875</ele>
        <time>2018-09-06T09:00:15.000Z</time>
      </trkpt>
      <trkpt lat="43.37419887073338031768798828125" lon="-4.48874040506780147552490234375">
        <ele>45.59999847412109375</ele>
        <time>2018-09-06T09:00:19.000Z</time>
      </trkpt>
      <trkpt lat="43.37426642887294292449951171875" lon="-4.4888496212661266326904296875">
        <ele>44.59999847412109375</ele>
        <time>2018-09-06T09:00:21.000Z</time>
      </trkpt>
      <trkpt lat="43.37430213578045368194580078125" lon="-4.4889150001108646392822265625">
        <ele>43.799999237060546875</ele>
        <time>2018-09-06T09:00:22.000Z</time>
      </trkpt>
      <trkpt lat="43.37433851324021816253662109375" lon="-4.4889860786497592926025390625">
        <ele>42.799999237060546875</ele>
        <time>2018-09-06T09:00:23.000Z</time>
      </trkpt>
      <trkpt lat="43.3743692748248577117919921875" lon="-4.48906059376895427703857421875">
        <ele>42.200000762939453125</ele>
        <time>2018-09-06T09:00:24.000Z</time>
      </trkpt>
      <trkpt lat="43.37439827620983123779296875" lon="-4.489137791097164154052734375">
        <ele>41.59999847412109375</ele>
        <time>2018-09-06T09:00:25.000Z</time>
      </trkpt>
      <trkpt lat="43.37442417629063129425048828125" lon="-4.48922135867178440093994140625">
        <ele>41.200000762939453125</ele>
        <time>2018-09-06T09:00:26.000Z</time>
      </trkpt>
      <trkpt lat="43.374446891248226165771484375" lon="-4.48931154794991016387939453125">
        <ele>40.59999847412109375</ele>
        <time>2018-09-06T09:00:27.000Z</time>
      </trkpt>
      <trkpt lat="43.37446608580648899078369140625" lon="-4.4894051738083362579345703125">
        <ele>40.200000762939453125</ele>
        <time>2018-09-06T09:00:28.000Z</time>
      </trkpt>
      <trkpt lat="43.37449056096374988555908203125" lon="-4.48960390873253345489501953125">
        <ele>38.59999847412109375</ele>
        <time>2018-09-06T09:00:30.000Z</time>
      </trkpt>
      <trkpt lat="43.37449827231466770172119140625" lon="-4.48969996534287929534912109375">
        <ele>37.40000152587890625</ele>
        <time>2018-09-06T09:00:31.000Z</time>
      </trkpt>
      <trkpt lat="43.37450715713202953338623046875" lon="-4.48979652486741542816162109375">
        <ele>37.200000762939453125</ele>
        <time>2018-09-06T09:00:32.000Z</time>
      </trkpt>
      <trkpt lat="43.374525345861911773681640625" lon="-4.48998905718326568603515625">
        <ele>36.200000762939453125</ele>
        <time>2018-09-06T09:00:34.000Z</time>
      </trkpt>
      <trkpt lat="43.374540098011493682861328125" lon="-4.49018226005136966705322265625">
        <ele>34.799999237060546875</ele>
        <time>2018-09-06T09:00:36.000Z</time>
      </trkpt>
      <trkpt lat="43.37454269640147686004638671875" lon="-4.490343444049358367919921875">
        <ele>33.799999237060546875</ele>
        <time>2018-09-06T09:00:38.000Z</time>
      </trkpt>
      <trkpt lat="43.374538421630859375" lon="-4.49039985425770282745361328125">
        <ele>33.59999847412109375</ele>
        <time>2018-09-06T09:00:39.000Z</time>
      </trkpt>
      <trkpt lat="43.3745392598211765289306640625" lon="-4.4905789755284786224365234375">
        <ele>32.59999847412109375</ele>
        <time>2018-09-06T09:00:42.000Z</time>
      </trkpt>
      <trkpt lat="43.3745392598211765289306640625" lon="-4.49064628221094608306884765625">
        <ele>32</ele>
        <time>2018-09-06T09:00:43.000Z</time>
      </trkpt>
      <trkpt lat="43.37453599087893962860107421875" lon="-4.49071551673114299774169921875">
        <ele>31.3999996185302734375</ele>
        <time>2018-09-06T09:00:44.000Z</time>
      </trkpt>
      <trkpt lat="43.37452928535640239715576171875" lon="-4.49078500270843505859375">
        <ele>30.799999237060546875</ele>
        <time>2018-09-06T09:00:45.000Z</time>
      </trkpt>
      <trkpt lat="43.3745040558278560638427734375" lon="-4.49094970710575580596923828125">
        <ele>29.799999237060546875</ele>
        <time>2018-09-06T09:00:47.000Z</time>
      </trkpt>
      <trkpt lat="43.37447714991867542266845703125" lon="-4.49121373705565929412841796875">
        <ele>28.3999996185302734375</ele>
        <time>2018-09-06T09:00:50.000Z</time>
      </trkpt>
      <trkpt lat="43.3745181374251842498779296875" lon="-4.49131247587502002716064453125">
        <ele>27.3999996185302734375</ele>
        <time>2018-09-06T09:00:51.000Z</time>
      </trkpt>
      <trkpt lat="43.3745530061423778533935546875" lon="-4.49140870012342929840087890625">
        <ele>26.200000762939453125</ele>
        <time>2018-09-06T09:00:52.000Z</time>
      </trkpt>
      <trkpt lat="43.3745687641203403472900390625" lon="-4.49150593020021915435791015625">
        <ele>25</ele>
        <time>2018-09-06T09:00:53.000Z</time>
      </trkpt>
      <trkpt lat="43.37457974441349506378173828125" lon="-4.491598047316074371337890625">
        <ele>23.799999237060546875</ele>
        <time>2018-09-06T09:00:54.000Z</time>
      </trkpt>
      <trkpt lat="43.3745918981730937957763671875" lon="-4.49175286106765270233154296875">
        <ele>23.200000762939453125</ele>
        <time>2018-09-06T09:00:56.000Z</time>
      </trkpt>
      <trkpt lat="43.37458980269730091094970703125" lon="-4.49189250357449054718017578125">
        <ele>22.799999237060546875</ele>
        <time>2018-09-06T09:00:58.000Z</time>
      </trkpt>
      <trkpt lat="43.3745798282325267791748046875" lon="-4.4919596426188945770263671875">
        <ele>22.799999237060546875</ele>
        <time>2018-09-06T09:00:59.000Z</time>
      </trkpt>
      <trkpt lat="43.37454906664788722991943359375" lon="-4.49215049855411052703857421875">
        <ele>22.3999996185302734375</ele>
        <time>2018-09-06T09:01:02.000Z</time>
      </trkpt>
      <trkpt lat="43.374477736651897430419921875" lon="-4.492608569562435150146484375">
        <ele>22</ele>
        <time>2018-09-06T09:01:10.000Z</time>
      </trkpt>
      <trkpt lat="43.37447497062385082244873046875" lon="-4.4927052967250347137451171875">
        <ele>22</ele>
        <time>2018-09-06T09:01:12.000Z</time>
      </trkpt>
      <trkpt lat="43.37446130812168121337890625" lon="-4.4928373955190181732177734375">
        <ele>21.6000003814697265625</ele>
        <time>2018-09-06T09:01:14.000Z</time>
      </trkpt>
      <trkpt lat="43.37444412522017955780029296875" lon="-4.4929641298949718475341796875">
        <ele>20.200000762939453125</ele>
        <time>2018-09-06T09:01:16.000Z</time>
      </trkpt>
      <trkpt lat="43.3744071610271930694580078125" lon="-4.493051804602146148681640625">
        <ele>19.200000762939453125</ele>
        <time>2018-09-06T09:01:18.000Z</time>
      </trkpt>
      <trkpt lat="43.374390900135040283203125" lon="-4.49309505522251129150390625">
        <ele>18.6000003814697265625</ele>
        <time>2018-09-06T09:01:19.000Z</time>
      </trkpt>
      <trkpt lat="43.37429140694439411163330078125" lon="-4.4933476857841014862060546875">
        <ele>17.799999237060546875</ele>
        <time>2018-09-06T09:01:25.000Z</time>
      </trkpt>
      <trkpt lat="43.3742750622332096099853515625" lon="-4.49338632635772228240966796875">
        <ele>17.3999996185302734375</ele>
        <time>2018-09-06T09:01:26.000Z</time>
      </trkpt>
      <trkpt lat="43.374163918197154998779296875" lon="-4.4935270585119724273681640625">
        <ele>16.200000762939453125</ele>
        <time>2018-09-06T09:01:31.000Z</time>
      </trkpt>
      <trkpt lat="43.37402435950934886932373046875" lon="-4.493642561137676239013671875">
        <ele>15</ele>
        <time>2018-09-06T09:01:35.000Z</time>
      </trkpt>
      <trkpt lat="43.37398362345993518829345703125" lon="-4.49373166076838970184326171875">
        <ele>14.3999996185302734375</ele>
        <time>2018-09-06T09:01:37.000Z</time>
      </trkpt>
      <trkpt lat="43.3739619143307209014892578125" lon="-4.493947327136993408203125">
        <ele>14.6000003814697265625</ele>
        <time>2018-09-06T09:01:42.000Z</time>
      </trkpt>
      <trkpt lat="43.373961411416530609130859375" lon="-4.49402452446520328521728515625">
        <ele>14.80000019073486328125</ele>
        <time>2018-09-06T09:01:44.000Z</time>
      </trkpt>
      <trkpt lat="43.3739632554352283477783203125" lon="-4.494090490043163299560546875">
        <ele>15</ele>
        <time>2018-09-06T09:01:46.000Z</time>
      </trkpt>
      <trkpt lat="43.37396518327295780181884765625" lon="-4.4941453076899051666259765625">
        <ele>15</ele>
        <time>2018-09-06T09:01:48.000Z</time>
      </trkpt>
      <trkpt lat="43.3739684522151947021484375" lon="-4.49417556636035442352294921875">
        <ele>15.19999980926513671875</ele>
        <time>2018-09-06T09:01:49.000Z</time>
      </trkpt>
      <trkpt lat="43.37396778166294097900390625" lon="-4.4942059926688671112060546875">
        <ele>15.19999980926513671875</ele>
        <time>2018-09-06T09:01:50.000Z</time>
      </trkpt>
      <trkpt lat="43.3739696256816387176513671875" lon="-4.494242370128631591796875">
        <ele>15.19999980926513671875</ele>
        <time>2018-09-06T09:01:51.000Z</time>
      </trkpt>
      <trkpt lat="43.37398110888898372650146484375" lon="-4.494317471981048583984375">
        <ele>14.19999980926513671875</ele>
        <time>2018-09-06T09:01:53.000Z</time>
      </trkpt>
      <trkpt lat="43.37398161180317401885986328125" lon="-4.4944128580391407012939453125">
        <ele>14</ele>
        <time>2018-09-06T09:01:55.000Z</time>
      </trkpt>
      <trkpt lat="43.37397356517612934112548828125" lon="-4.49468920938670635223388671875">
        <ele>13.80000019073486328125</ele>
        <time>2018-09-06T09:02:00.000Z</time>
      </trkpt>
      <trkpt lat="43.3739944361150264739990234375" lon="-4.49496455490589141845703125">
        <ele>13</ele>
        <time>2018-09-06T09:02:04.000Z</time>
      </trkpt>
      <trkpt lat="43.37400876916944980621337890625" lon="-4.4950314424932003021240234375">
        <ele>12.6000003814697265625</ele>
        <time>2018-09-06T09:02:05.000Z</time>
      </trkpt>
      <trkpt lat="43.37400441057980060577392578125" lon="-4.4951011799275875091552734375">
        <ele>12.3999996185302734375</ele>
        <time>2018-09-06T09:02:06.000Z</time>
      </trkpt>
      <trkpt lat="43.37398655712604522705078125" lon="-4.49532330036163330078125">
        <ele>11.80000019073486328125</ele>
        <time>2018-09-06T09:02:09.000Z</time>
      </trkpt>
      <trkpt lat="43.37395898066461086273193359375" lon="-4.49548431672155857086181640625">
        <ele>11.80000019073486328125</ele>
        <time>2018-09-06T09:02:11.000Z</time>
      </trkpt>
      <trkpt lat="43.3739478327333927154541015625" lon="-4.49570291675627231597900390625">
        <ele>11.80000019073486328125</ele>
        <time>2018-09-06T09:02:14.000Z</time>
      </trkpt>
      <trkpt lat="43.37394121102988719940185546875" lon="-4.4957814551889896392822265625">
        <ele>11.6000003814697265625</ele>
        <time>2018-09-06T09:02:15.000Z</time>
      </trkpt>
      <trkpt lat="43.37393081746995449066162109375" lon="-4.49593626894056797027587890625">
        <ele>11.19999980926513671875</ele>
        <time>2018-09-06T09:02:17.000Z</time>
      </trkpt>
      <trkpt lat="43.37391841225326061248779296875" lon="-4.49603634886443614959716796875">
        <ele>10.80000019073486328125</ele>
        <time>2018-09-06T09:02:18.000Z</time>
      </trkpt>
      <trkpt lat="43.3739121258258819580078125" lon="-4.4961239397525787353515625">
        <ele>10.3999996185302734375</ele>
        <time>2018-09-06T09:02:19.000Z</time>
      </trkpt>
      <trkpt lat="43.3739255368709564208984375" lon="-4.4962595589458942413330078125">
        <ele>10</ele>
        <time>2018-09-06T09:02:21.000Z</time>
      </trkpt>
      <trkpt lat="43.373925872147083282470703125" lon="-4.49630809016525745391845703125">
        <ele>10</ele>
        <time>2018-09-06T09:02:22.000Z</time>
      </trkpt>
      <trkpt lat="43.373897708952426910400390625" lon="-4.4965183921158313751220703125">
        <ele>9.3999996185302734375</ele>
        <time>2018-09-06T09:02:25.000Z</time>
      </trkpt>
      <trkpt lat="43.37391723878681659698486328125" lon="-4.4966347329318523406982421875">
        <ele>9.19999980926513671875</ele>
        <time>2018-09-06T09:02:27.000Z</time>
      </trkpt>
      <trkpt lat="43.373929560184478759765625" lon="-4.49688275344669818878173828125">
        <ele>8.80000019073486328125</ele>
        <time>2018-09-06T09:02:32.000Z</time>
      </trkpt>
      <trkpt lat="43.37393132038414478302001953125" lon="-4.49712515808641910552978515625">
        <ele>9</ele>
        <time>2018-09-06T09:02:37.000Z</time>
      </trkpt>
      <trkpt lat="43.37395009584724903106689453125" lon="-4.4972684048116207122802734375">
        <ele>8.80000019073486328125</ele>
        <time>2018-09-06T09:02:43.000Z</time>
      </trkpt>
      <trkpt lat="43.37393400259315967559814453125" lon="-4.497392959892749786376953125">
        <ele>9.3999996185302734375</ele>
        <time>2018-09-06T09:02:47.000Z</time>
      </trkpt>
      <trkpt lat="43.37393349967896938323974609375" lon="-4.4975342787802219390869140625">
        <ele>9.6000003814697265625</ele>
        <time>2018-09-06T09:02:50.000Z</time>
      </trkpt>
      <trkpt lat="43.3739518560469150543212890625" lon="-4.49768607504665851593017578125">
        <ele>10.6000003814697265625</ele>
        <time>2018-09-06T09:02:54.000Z</time>
      </trkpt>
      <trkpt lat="43.37395277805626392364501953125" lon="-4.4977639429271221160888671875">
        <ele>11.19999980926513671875</ele>
        <time>2018-09-06T09:02:56.000Z</time>
      </trkpt>
      <trkpt lat="43.37395378388464450836181640625" lon="-4.4978021644055843353271484375">
        <ele>11.3999996185302734375</ele>
        <time>2018-09-06T09:02:57.000Z</time>
      </trkpt>
      <trkpt lat="43.373956717550754547119140625" lon="-4.49788455851376056671142578125">
        <ele>11.3999996185302734375</ele>
        <time>2018-09-06T09:02:59.000Z</time>
      </trkpt>
      <trkpt lat="43.373966105282306671142578125" lon="-4.497975669801235198974609375">
        <ele>11</ele>
        <time>2018-09-06T09:03:01.000Z</time>
      </trkpt>
      <trkpt lat="43.37397356517612934112548828125" lon="-4.49807818047702312469482421875">
        <ele>10.80000019073486328125</ele>
        <time>2018-09-06T09:03:03.000Z</time>
      </trkpt>
      <trkpt lat="43.37397591210901737213134765625" lon="-4.49829577468335628509521484375">
        <ele>10.80000019073486328125</ele>
        <time>2018-09-06T09:03:07.000Z</time>
      </trkpt>
      <trkpt lat="43.37397138588130474090576171875" lon="-4.49848252348601818084716796875">
        <ele>10.6000003814697265625</ele>
        <time>2018-09-06T09:03:10.000Z</time>
      </trkpt>
      <trkpt lat="43.37397540919482707977294921875" lon="-4.4987449608743190765380859375">
        <ele>10</ele>
        <time>2018-09-06T09:03:14.000Z</time>
      </trkpt>
      <trkpt lat="43.37397574447095394134521484375" lon="-4.4988938234746456146240234375">
        <ele>9.80000019073486328125</ele>
        <time>2018-09-06T09:03:16.000Z</time>
      </trkpt>
      <trkpt lat="43.37397792376577854156494140625" lon="-4.4989632256329059600830078125">
        <ele>9.6000003814697265625</ele>
        <time>2018-09-06T09:03:17.000Z</time>
      </trkpt>
      <trkpt lat="43.373983204364776611328125" lon="-4.49930705130100250244140625">
        <ele>9.3999996185302734375</ele>
        <time>2018-09-06T09:03:22.000Z</time>
      </trkpt>
      <trkpt lat="43.37398110888898372650146484375" lon="-4.4995036907494068145751953125">
        <ele>9</ele>
        <time>2018-09-06T09:03:25.000Z</time>
      </trkpt>
      <trkpt lat="43.37398395873606204986572265625" lon="-4.49971097521483898162841796875">
        <ele>8.6000003814697265625</ele>
        <time>2018-09-06T09:03:28.000Z</time>
      </trkpt>
      <trkpt lat="43.3739810250699520111083984375" lon="-4.49977953918278217315673828125">
        <ele>8.80000019073486328125</ele>
        <time>2018-09-06T09:03:29.000Z</time>
      </trkpt>
      <trkpt lat="43.37397222407162189483642578125" lon="-4.500075168907642364501953125">
        <ele>8.6000003814697265625</ele>
        <time>2018-09-06T09:03:33.000Z</time>
      </trkpt>
      <trkpt lat="43.373970128595829010009765625" lon="-4.50015655718743801116943359375">
        <ele>8.19999980926513671875</ele>
        <time>2018-09-06T09:03:34.000Z</time>
      </trkpt>
      <trkpt lat="43.37396753020584583282470703125" lon="-4.50023517943918704986572265625">
        <ele>8</ele>
        <time>2018-09-06T09:03:35.000Z</time>
      </trkpt>
      <trkpt lat="43.37395914830267429351806640625" lon="-4.50045126490294933319091796875">
        <ele>7.599999904632568359375</ele>
        <time>2018-09-06T09:03:38.000Z</time>
      </trkpt>
      <trkpt lat="43.37394808419048786163330078125" lon="-4.5006801746785640716552734375">
        <ele>7.19999980926513671875</ele>
        <time>2018-09-06T09:03:41.000Z</time>
      </trkpt>
      <trkpt lat="43.3739431388676166534423828125" lon="-4.5009242556989192962646484375">
        <ele>6.400000095367431640625</ele>
        <time>2018-09-06T09:03:44.000Z</time>
      </trkpt>
      <trkpt lat="43.37393400259315967559814453125" lon="-4.50107722543179988861083984375">
        <ele>6.19999980926513671875</ele>
        <time>2018-09-06T09:03:46.000Z</time>
      </trkpt>
      <trkpt lat="43.37393098510801792144775390625" lon="-4.5011482201516628265380859375">
        <ele>6.19999980926513671875</ele>
        <time>2018-09-06T09:03:47.000Z</time>
      </trkpt>
      <trkpt lat="43.37392947636544704437255859375" lon="-4.50127654708921909332275390625">
        <ele>5.80000019073486328125</ele>
        <time>2018-09-06T09:03:49.000Z</time>
      </trkpt>
      <trkpt lat="43.3739283867180347442626953125" lon="-4.50139640830457210540771484375">
        <ele>6</ele>
        <time>2018-09-06T09:03:51.000Z</time>
      </trkpt>
      <trkpt lat="43.37392888963222503662109375" lon="-4.5014508068561553955078125">
        <ele>6.19999980926513671875</ele>
        <time>2018-09-06T09:03:52.000Z</time>
      </trkpt>
      <trkpt lat="43.37395696900784969329833984375" lon="-4.50167988426983356475830078125">
        <ele>5.80000019073486328125</ele>
        <time>2018-09-06T09:03:57.000Z</time>
      </trkpt>
      <trkpt lat="43.37401698343455791473388671875" lon="-4.5020020008087158203125">
        <ele>6</ele>
        <time>2018-09-06T09:04:03.000Z</time>
      </trkpt>
      <trkpt lat="43.3740189112722873687744140625" lon="-4.502069056034088134765625">
        <ele>6.19999980926513671875</ele>
        <time>2018-09-06T09:04:04.000Z</time>
      </trkpt>
      <trkpt lat="43.3740262873470783233642578125" lon="-4.50218950398266315460205078125">
        <ele>6</ele>
        <time>2018-09-06T09:04:06.000Z</time>
      </trkpt>
      <trkpt lat="43.3740376867353916168212890625" lon="-4.50231439433991909027099609375">
        <ele>6</ele>
        <time>2018-09-06T09:04:08.000Z</time>
      </trkpt>
      <trkpt lat="43.37406056933104991912841796875" lon="-4.50256182812154293060302734375">
        <ele>6.599999904632568359375</ele>
        <time>2018-09-06T09:04:12.000Z</time>
      </trkpt>
      <trkpt lat="43.37407582439482212066650390625" lon="-4.5026733912527561187744140625">
        <ele>6.19999980926513671875</ele>
        <time>2018-09-06T09:04:14.000Z</time>
      </trkpt>
      <trkpt lat="43.3741329051554203033447265625" lon="-4.50284848921000957489013671875">
        <ele>6</ele>
        <time>2018-09-06T09:04:18.000Z</time>
      </trkpt>
      <trkpt lat="43.3741640858352184295654296875" lon="-4.50289173983037471771240234375">
        <ele>6</ele>
        <time>2018-09-06T09:04:19.000Z</time>
      </trkpt>
      <trkpt lat="43.37425804696977138519287109375" lon="-4.50300757773220539093017578125">
        <ele>6.19999980926513671875</ele>
        <time>2018-09-06T09:04:22.000Z</time>
      </trkpt>
      <trkpt lat="43.37437841109931468963623046875" lon="-4.50325853191316127777099609375">
        <ele>6.400000095367431640625</ele>
        <time>2018-09-06T09:04:27.000Z</time>
      </trkpt>
      <trkpt lat="43.374410681426525115966796875" lon="-4.50330890715122222900390625">
        <ele>6.400000095367431640625</ele>
        <time>2018-09-06T09:04:28.000Z</time>
      </trkpt>
      <trkpt lat="43.374489806592464447021484375" lon="-4.50344435870647430419921875">
        <ele>5.19999980926513671875</ele>
        <time>2018-09-06T09:04:31.000Z</time>
      </trkpt>
      <trkpt lat="43.37453900836408138275146484375" lon="-4.5036341249942779541015625">
        <ele>4.599999904632568359375</ele>
        <time>2018-09-06T09:04:37.000Z</time>
      </trkpt>
      <trkpt lat="43.37455744855105876922607421875" lon="-4.50373814441263675689697265625">
        <ele>4.80000019073486328125</ele>
        <time>2018-09-06T09:04:40.000Z</time>
      </trkpt>
      <trkpt lat="43.374576978385448455810546875" lon="-4.5038594305515289306640625">
        <ele>5.400000095367431640625</ele>
        <time>2018-09-06T09:04:44.000Z</time>
      </trkpt>
      <trkpt lat="43.3745831809937953948974609375" lon="-4.50392606668174266815185546875">
        <ele>5.599999904632568359375</ele>
        <time>2018-09-06T09:04:46.000Z</time>
      </trkpt>
      <trkpt lat="43.37458695285022258758544921875" lon="-4.50402413494884967803955078125">
        <ele>6.19999980926513671875</ele>
        <time>2018-09-06T09:04:49.000Z</time>
      </trkpt>
      <trkpt lat="43.3745865337550640106201171875" lon="-4.5040560699999332427978515625">
        <ele>6.599999904632568359375</ele>
        <time>2018-09-06T09:04:50.000Z</time>
      </trkpt>
      <trkpt lat="43.37459315545856952667236328125" lon="-4.50412052683532238006591796875">
        <ele>7</ele>
        <time>2018-09-06T09:04:52.000Z</time>
      </trkpt>
      <trkpt lat="43.3746250905096530914306640625" lon="-4.50423158705234527587890625">
        <ele>7</ele>
        <time>2018-09-06T09:04:55.000Z</time>
      </trkpt>
      <trkpt lat="43.3746954984962940216064453125" lon="-4.50452126562595367431640625">
        <ele>6.599999904632568359375</ele>
        <time>2018-09-06T09:05:00.000Z</time>
      </trkpt>
      <trkpt lat="43.374728858470916748046875" lon="-4.50466987676918506622314453125">
        <ele>6</ele>
        <time>2018-09-06T09:05:02.000Z</time>
      </trkpt>
      <trkpt lat="43.37474620901048183441162109375" lon="-4.50474648736417293548583984375">
        <ele>5</ele>
        <time>2018-09-06T09:05:03.000Z</time>
      </trkpt>
      <trkpt lat="43.3747984282672405242919921875" lon="-4.50494614429771900177001953125">
        <ele>4.80000019073486328125</ele>
        <time>2018-09-06T09:05:06.000Z</time>
      </trkpt>
      <trkpt lat="43.37483623065054416656494140625" lon="-4.50508880428969860076904296875">
        <ele>6.19999980926513671875</ele>
        <time>2018-09-06T09:05:09.000Z</time>
      </trkpt>
      <trkpt lat="43.37484620511531829833984375" lon="-4.505128450691699981689453125">
        <ele>6.599999904632568359375</ele>
        <time>2018-09-06T09:05:10.000Z</time>
      </trkpt>
      <trkpt lat="43.3748886175453662872314453125" lon="-4.50544604100286960601806640625">
        <ele>7</ele>
        <time>2018-09-06T09:05:17.000Z</time>
      </trkpt>
      <trkpt lat="43.3748956583440303802490234375" lon="-4.50550253503024578094482421875">
        <ele>7</ele>
        <time>2018-09-06T09:05:18.000Z</time>
      </trkpt>
      <trkpt lat="43.37490613572299480438232421875" lon="-4.50562541373074054718017578125">
        <ele>6.400000095367431640625</ele>
        <time>2018-09-06T09:05:20.000Z</time>
      </trkpt>
      <trkpt lat="43.37490521371364593505859375" lon="-4.50577042065560817718505859375">
        <ele>4.80000019073486328125</ele>
        <time>2018-09-06T09:05:22.000Z</time>
      </trkpt>
      <trkpt lat="43.37489808909595012664794921875" lon="-4.50592095963656902313232421875">
        <ele>4.599999904632568359375</ele>
        <time>2018-09-06T09:05:24.000Z</time>
      </trkpt>
      <trkpt lat="43.3749140985310077667236328125" lon="-4.50600679032504558563232421875">
        <ele>5.19999980926513671875</ele>
        <time>2018-09-06T09:05:25.000Z</time>
      </trkpt>
      <trkpt lat="43.3749394118785858154296875" lon="-4.5061797089874744415283203125">
        <ele>4.80000019073486328125</ele>
        <time>2018-09-06T09:05:27.000Z</time>
      </trkpt>
      <trkpt lat="43.374975621700286865234375" lon="-4.50650199316442012786865234375">
        <ele>4.400000095367431640625</ele>
        <time>2018-09-06T09:05:31.000Z</time>
      </trkpt>
      <trkpt lat="43.37499531917273998260498046875" lon="-4.5066514424979686737060546875">
        <ele>4.400000095367431640625</ele>
        <time>2018-09-06T09:05:33.000Z</time>
      </trkpt>
      <trkpt lat="43.37500101886689662933349609375" lon="-4.50678966008126735687255859375">
        <ele>4.19999980926513671875</ele>
        <time>2018-09-06T09:05:35.000Z</time>
      </trkpt>
      <trkpt lat="43.37498894892632961273193359375" lon="-4.507291652262210845947265625">
        <ele>3.599999904632568359375</ele>
        <time>2018-09-06T09:05:42.000Z</time>
      </trkpt>
      <trkpt lat="43.3749764598906040191650390625" lon="-4.507507570087909698486328125">
        <ele>3</ele>
        <time>2018-09-06T09:05:45.000Z</time>
      </trkpt>
      <trkpt lat="43.374971263110637664794921875" lon="-4.50764494948089122772216796875">
        <ele>2.7999999523162841796875</ele>
        <time>2018-09-06T09:05:47.000Z</time>
      </trkpt>
      <trkpt lat="43.37496556341648101806640625" lon="-4.50771267525851726531982421875">
        <ele>2.7999999523162841796875</ele>
        <time>2018-09-06T09:05:48.000Z</time>
      </trkpt>
      <trkpt lat="43.3749555051326751708984375" lon="-4.507905542850494384765625">
        <ele>2.599999904632568359375</ele>
        <time>2018-09-06T09:05:51.000Z</time>
      </trkpt>
      <trkpt lat="43.374946452677249908447265625" lon="-4.50808382593095302581787109375">
        <ele>2.599999904632568359375</ele>
        <time>2018-09-06T09:05:54.000Z</time>
      </trkpt>
      <trkpt lat="43.37495827116072177886962890625" lon="-4.5081796310842037200927734375">
        <ele>2.7999999523162841796875</ele>
        <time>2018-09-06T09:05:57.000Z</time>
      </trkpt>
      <trkpt lat="43.3749630488455295562744140625" lon="-4.5082144998013973236083984375">
        <ele>2.7999999523162841796875</ele>
        <time>2018-09-06T09:05:59.000Z</time>
      </trkpt>
      <trkpt lat="43.37496547959744930267333984375" lon="-4.50824609957635402679443359375">
        <ele>2.7999999523162841796875</ele>
        <time>2018-09-06T09:06:13.000Z</time>
      </trkpt>
      <trkpt lat="43.37495709769427776336669921875" lon="-4.5083254761993885040283203125">
        <ele>2.599999904632568359375</ele>
        <time>2018-09-06T09:06:17.000Z</time>
      </trkpt>
      <trkpt lat="43.3750103227794170379638671875" lon="-4.5083843171596527099609375">
        <ele>3.2000000476837158203125</ele>
        <time>2018-09-06T09:06:31.000Z</time>
      </trkpt>
      <trkpt lat="43.3750294335186481475830078125" lon="-4.5084612630307674407958984375">
        <ele>2.7999999523162841796875</ele>
        <time>2018-09-06T09:06:33.000Z</time>
      </trkpt>
      <trkpt lat="43.37502985261380672454833984375" lon="-4.508559666574001312255859375">
        <ele>2.599999904632568359375</ele>
        <time>2018-09-06T09:06:35.000Z</time>
      </trkpt>
      <trkpt lat="43.375028260052204132080078125" lon="-4.508607275784015655517578125">
        <ele>2.599999904632568359375</ele>
        <time>2018-09-06T09:06:36.000Z</time>
      </trkpt>
      <trkpt lat="43.37501660920679569244384765625" lon="-4.50876376591622829437255859375">
        <ele>2.7999999523162841796875</ele>
        <time>2018-09-06T09:06:39.000Z</time>
      </trkpt>
      <trkpt lat="43.37498928420245647430419921875" lon="-4.50918252579867839813232421875">
        <ele>2.7999999523162841796875</ele>
        <time>2018-09-06T09:06:46.000Z</time>
      </trkpt>
      <trkpt lat="43.37498090229928493499755859375" lon="-4.50936734676361083984375">
        <ele>2.599999904632568359375</ele>
        <time>2018-09-06T09:06:49.000Z</time>
      </trkpt>
      <trkpt lat="43.3749677427113056182861328125" lon="-4.5095596276223659515380859375">
        <ele>2.599999904632568359375</ele>
        <time>2018-09-06T09:06:52.000Z</time>
      </trkpt>
      <trkpt lat="43.3749617077410221099853515625" lon="-4.50962291099131107330322265625">
        <ele>2.599999904632568359375</ele>
        <time>2018-09-06T09:06:53.000Z</time>
      </trkpt>
      <trkpt lat="43.37494603358209133148193359375" lon="-4.50981753878295421600341796875">
        <ele>2.599999904632568359375</ele>
        <time>2018-09-06T09:06:56.000Z</time>
      </trkpt>
      <trkpt lat="43.37494234554469585418701171875" lon="-4.5098865218460559844970703125">
        <ele>2.400000095367431640625</ele>
        <time>2018-09-06T09:06:57.000Z</time>
      </trkpt>
      <trkpt lat="43.37492608465254306793212890625" lon="-4.51015901751816272735595703125">
        <ele>2.400000095367431640625</ele>
        <time>2018-09-06T09:07:01.000Z</time>
      </trkpt>
      <trkpt lat="43.37490026839077472686767578125" lon="-4.5105657912790775299072265625">
        <ele>2.2000000476837158203125</ele>
        <time>2018-09-06T09:07:07.000Z</time>
      </trkpt>
      <trkpt lat="43.3748959936201572418212890625" lon="-4.5106345228850841522216796875">
        <ele>2.400000095367431640625</ele>
        <time>2018-09-06T09:07:08.000Z</time>
      </trkpt>
      <trkpt lat="43.374847881495952606201171875" lon="-4.51127163134515285491943359375">
        <ele>2.599999904632568359375</ele>
        <time>2018-09-06T09:07:17.000Z</time>
      </trkpt>
      <trkpt lat="43.37479935027658939361572265625" lon="-4.5118542574346065521240234375">
        <ele>2.7999999523162841796875</ele>
        <time>2018-09-06T09:07:25.000Z</time>
      </trkpt>
      <trkpt lat="43.37476297281682491302490234375" lon="-4.51236329041421413421630859375">
        <ele>3</ele>
        <time>2018-09-06T09:07:32.000Z</time>
      </trkpt>
      <trkpt lat="43.37473782710731029510498046875" lon="-4.512722790241241455078125">
        <ele>2.599999904632568359375</ele>
        <time>2018-09-06T09:07:37.000Z</time>
      </trkpt>
      <trkpt lat="43.3747199736535549163818359375" lon="-4.51301942579448223114013671875">
        <ele>2.7999999523162841796875</ele>
        <time>2018-09-06T09:07:41.000Z</time>
      </trkpt>
      <trkpt lat="43.37470346130430698394775390625" lon="-4.5134709589183330535888671875">
        <ele>2.599999904632568359375</ele>
        <time>2018-09-06T09:07:47.000Z</time>
      </trkpt>
      <trkpt lat="43.3747001923620700836181640625" lon="-4.51374663971364498138427734375">
        <ele>3.2000000476837158203125</ele>
        <time>2018-09-06T09:07:51.000Z</time>
      </trkpt>
      <trkpt lat="43.3746834285557270050048828125" lon="-4.5139504037797451019287109375">
        <ele>3.400000095367431640625</ele>
        <time>2018-09-06T09:07:54.000Z</time>
      </trkpt>
      <trkpt lat="43.3746685087680816650390625" lon="-4.514078311622142791748046875">
        <ele>3.400000095367431640625</ele>
        <time>2018-09-06T09:07:56.000Z</time>
      </trkpt>
      <trkpt lat="43.3746545948088169097900390625" lon="-4.51417897827923297882080078125">
        <ele>3.2000000476837158203125</ele>
        <time>2018-09-06T09:07:58.000Z</time>
      </trkpt>
      <trkpt lat="43.37464529089629650115966796875" lon="-4.51419909484684467315673828125">
        <ele>3.400000095367431640625</ele>
        <time>2018-09-06T09:07:59.000Z</time>
      </trkpt>
      <trkpt lat="43.3746405132114887237548828125" lon="-4.51420127414166927337646484375">
        <ele>3.400000095367431640625</ele>
        <time>2018-09-06T09:08:01.000Z</time>
      </trkpt>
      <trkpt lat="43.37459768168628215789794921875" lon="-4.5142239890992641448974609375">
        <ele>3.599999904632568359375</ele>
        <time>2018-09-06T09:08:05.000Z</time>
      </trkpt>
      <trkpt lat="43.37459139525890350341796875" lon="-4.5142407529056072235107421875">
        <ele>3.599999904632568359375</ele>
        <time>2018-09-06T09:08:06.000Z</time>
      </trkpt>
      <trkpt lat="43.37459047324955463409423828125" lon="-4.514262713491916656494140625">
        <ele>3.599999904632568359375</ele>
        <time>2018-09-06T09:08:09.000Z</time>
      </trkpt>
      <trkpt lat="43.37457169778645038604736328125" lon="-4.51438215561211109161376953125">
        <ele>3.599999904632568359375</ele>
        <time>2018-09-06T09:08:29.000Z</time>
      </trkpt>
      <trkpt lat="43.37454051710665225982666015625" lon="-4.51438517309725284576416015625">
        <ele>3.599999904632568359375</ele>
        <time>2018-09-06T09:08:31.000Z</time>
      </trkpt>
      <trkpt lat="43.3744861185550689697265625" lon="-4.5143983326852321624755859375">
        <ele>3.400000095367431640625</ele>
        <time>2018-09-06T09:08:37.000Z</time>
      </trkpt>
      <trkpt lat="43.374467007815837860107421875" lon="-4.51441501267254352569580078125">
        <ele>3.400000095367431640625</ele>
        <time>2018-09-06T09:08:40.000Z</time>
      </trkpt>
      <trkpt lat="43.3744584582746028900146484375" lon="-4.51444066129624843597412109375">
        <ele>3.400000095367431640625</ele>
        <time>2018-09-06T09:08:42.000Z</time>
      </trkpt>
      <trkpt lat="43.37448737584054470062255859375" lon="-4.5145837403833866119384765625">
        <ele>3.2000000476837158203125</ele>
        <time>2018-09-06T09:08:48.000Z</time>
      </trkpt>
      <trkpt lat="43.374527357518672943115234375" lon="-4.51471458189189434051513671875">
        <ele>3.400000095367431640625</ele>
        <time>2018-09-06T09:08:53.000Z</time>
      </trkpt>
      <trkpt lat="43.37456616573035717010498046875" lon="-4.514797143638134002685546875">
        <ele>3.400000095367431640625</ele>
        <time>2018-09-06T09:08:57.000Z</time>
      </trkpt>
      <trkpt lat="43.374583013355731964111328125" lon="-4.5148110575973987579345703125">
        <ele>3.400000095367431640625</ele>
        <time>2018-09-06T09:08:58.000Z</time>
      </trkpt>
      <trkpt lat="43.374664485454559326171875" lon="-4.51492429710924625396728515625">
        <ele>3.400000095367431640625</ele>
        <time>2018-09-06T09:09:03.000Z</time>
      </trkpt>
      <trkpt lat="43.37464964948594570159912109375" lon="-4.515083134174346923828125">
        <ele>3.7999999523162841796875</ele>
        <time>2018-09-06T09:11:38.000Z</time>
      </trkpt>
      <trkpt lat="43.3746609650552272796630859375" lon="-4.51509126462042331695556640625">
        <ele>3</ele>
        <time>2018-09-06T09:11:39.000Z</time>
      </trkpt>
      <trkpt lat="43.37473221123218536376953125" lon="-4.5152351818978786468505859375">
        <ele>4.400000095367431640625</ele>
        <time>2018-09-06T09:11:45.000Z</time>
      </trkpt>
      <trkpt lat="43.374747969210147857666015625" lon="-4.51527533121407032012939453125">
        <ele>5.400000095367431640625</ele>
        <time>2018-09-06T09:11:46.000Z</time>
      </trkpt>
      <trkpt lat="43.3747595362365245819091796875" lon="-4.515316821634769439697265625">
        <ele>4.400000095367431640625</ele>
        <time>2018-09-06T09:11:47.000Z</time>
      </trkpt>
      <trkpt lat="43.3747940696775913238525390625" lon="-4.51543509028851985931396484375">
        <ele>3.7999999523162841796875</ele>
        <time>2018-09-06T09:11:50.000Z</time>
      </trkpt>
      <trkpt lat="43.3748376555740833282470703125" lon="-4.51546342112123966217041015625">
        <ele>4.19999980926513671875</ele>
        <time>2018-09-06T09:11:54.000Z</time>
      </trkpt>
      <trkpt lat="43.3748374879360198974609375" lon="-4.51542067341506481170654296875">
        <ele>3.7999999523162841796875</ele>
        <time>2018-09-06T09:11:57.000Z</time>
      </trkpt>
      <trkpt lat="43.374855257570743560791015625" lon="-4.5154480822384357452392578125">
        <ele>3.7999999523162841796875</ele>
        <time>2018-09-06T09:12:00.000Z</time>
      </trkpt>
      <trkpt lat="43.374896831810474395751953125" lon="-4.5155235193669795989990234375">
        <ele>3.599999904632568359375</ele>
        <time>2018-09-06T09:12:04.000Z</time>
      </trkpt>
      <trkpt lat="43.374918289482593536376953125" lon="-4.51556299813091754913330078125">
        <ele>3.599999904632568359375</ele>
        <time>2018-09-06T09:12:06.000Z</time>
      </trkpt>
      <trkpt lat="43.3749322034418582916259765625" lon="-4.5156061649322509765625">
        <ele>3.400000095367431640625</ele>
        <time>2018-09-06T09:12:08.000Z</time>
      </trkpt>
      <trkpt lat="43.37496279738843441009521484375" lon="-4.51565838418900966644287109375">
        <ele>3.599999904632568359375</ele>
        <time>2018-09-06T09:12:11.000Z</time>
      </trkpt>
      <trkpt lat="43.37501862086355686187744140625" lon="-4.5157991163432598114013671875">
        <ele>3.599999904632568359375</ele>
        <time>2018-09-06T09:12:17.000Z</time>
      </trkpt>
      <trkpt lat="43.3750225603580474853515625" lon="-4.51589525677263736724853515625">
        <ele>3.7999999523162841796875</ele>
        <time>2018-09-06T09:12:20.000Z</time>
      </trkpt>
      <trkpt lat="43.3750445209443569183349609375" lon="-4.51628208160400390625">
        <ele>3.599999904632568359375</ele>
        <time>2018-09-06T09:12:30.000Z</time>
      </trkpt>
      <trkpt lat="43.37505382485687732696533203125" lon="-4.5163462869822978973388671875">
        <ele>4.400000095367431640625</ele>
        <time>2018-09-06T09:12:32.000Z</time>
      </trkpt>
      <trkpt lat="43.37505985982716083526611328125" lon="-4.51637704856693744659423828125">
        <ele>5.599999904632568359375</ele>
        <time>2018-09-06T09:12:33.000Z</time>
      </trkpt>
      <trkpt lat="43.3750663138926029205322265625" lon="-4.51640990562736988067626953125">
        <ele>4.400000095367431640625</ele>
        <time>2018-09-06T09:12:34.000Z</time>
      </trkpt>
      <trkpt lat="43.3751216344535350799560546875" lon="-4.51663437299430370330810546875">
        <ele>3.599999904632568359375</ele>
        <time>2018-09-06T09:12:40.000Z</time>
      </trkpt>
      <trkpt lat="43.37516807019710540771484375" lon="-4.5168579183518886566162109375">
        <ele>3.400000095367431640625</ele>
        <time>2018-09-06T09:12:46.000Z</time>
      </trkpt>
      <trkpt lat="43.37512909434735774993896484375" lon="-4.51693410985171794891357421875">
        <ele>3</ele>
        <time>2018-09-06T09:12:51.000Z</time>
      </trkpt>
      <trkpt lat="43.3750713430345058441162109375" lon="-4.516517780721187591552734375">
        <ele>3.7999999523162841796875</ele>
        <time>2018-09-06T09:13:06.000Z</time>
      </trkpt>
      <trkpt lat="43.37506203912198543548583984375" lon="-4.51654837466776371002197265625">
        <ele>3.7999999523162841796875</ele>
        <time>2018-09-06T09:13:07.000Z</time>
      </trkpt>
      <trkpt lat="43.375051729381084442138671875" lon="-4.51657972298562526702880859375">
        <ele>4.19999980926513671875</ele>
        <time>2018-09-06T09:13:08.000Z</time>
      </trkpt>
      <trkpt lat="43.37501107715070247650146484375" lon="-4.5167080499231815338134765625">
        <ele>3.599999904632568359375</ele>
        <time>2018-09-06T09:13:14.000Z</time>
      </trkpt>
      <trkpt lat="43.374989032745361328125" lon="-4.51676596887409687042236328125">
        <ele>3.599999904632568359375</ele>
        <time>2018-09-06T09:13:23.000Z</time>
      </trkpt>
      <trkpt lat="43.37498593144118785858154296875" lon="-4.51678390614688396453857421875">
        <ele>3.599999904632568359375</ele>
        <time>2018-09-06T09:13:27.000Z</time>
      </trkpt>
      <trkpt lat="43.37469876743853092193603515625" lon="-4.5154412090778350830078125">
        <ele>3.7999999523162841796875</ele>
        <time>2018-09-06T09:14:10.000Z</time>
      </trkpt>
      <trkpt lat="43.37469675578176975250244140625" lon="-4.5154400356113910675048828125">
        <ele>3.7999999523162841796875</ele>
        <time>2018-09-06T09:14:11.000Z</time>
      </trkpt>
      <trkpt lat="43.37475241161882877349853515625" lon="-4.51554472558200359344482421875">
        <ele>3.7999999523162841796875</ele>
        <time>2018-09-06T09:14:17.000Z</time>
      </trkpt>
      <trkpt lat="43.37476666085422039031982421875" lon="-4.515648745000362396240234375">
        <ele>3.599999904632568359375</ele>
        <time>2018-09-06T09:14:20.000Z</time>
      </trkpt>
      <trkpt lat="43.37477219291031360626220703125" lon="-4.515756033360958099365234375">
        <ele>3.7999999523162841796875</ele>
        <time>2018-09-06T09:14:23.000Z</time>
      </trkpt>
      <trkpt lat="43.37477470748126506805419921875" lon="-4.5158819295465946197509765625">
        <ele>3.599999904632568359375</ele>
        <time>2018-09-06T09:14:26.000Z</time>
      </trkpt>
      <trkpt lat="43.3747796528041362762451171875" lon="-4.5160448737442493438720703125">
        <ele>3.7999999523162841796875</ele>
        <time>2018-09-06T09:14:30.000Z</time>
      </trkpt>
      <trkpt lat="43.3747783116996288299560546875" lon="-4.5162661559879779815673828125">
        <ele>3.599999904632568359375</ele>
        <time>2018-09-06T09:14:35.000Z</time>
      </trkpt>
      <trkpt lat="43.374782837927341461181640625" lon="-4.516540579497814178466796875">
        <ele>3.599999904632568359375</ele>
        <time>2018-09-06T09:14:40.000Z</time>
      </trkpt>
      <trkpt lat="43.37477906607091426849365234375" lon="-4.51665432192385196685791015625">
        <ele>3.599999904632568359375</ele>
        <time>2018-09-06T09:14:42.000Z</time>
      </trkpt>
      <trkpt lat="43.37480253539979457855224609375" lon="-4.51705330051481723785400390625">
        <ele>3.7999999523162841796875</ele>
        <time>2018-09-06T09:14:49.000Z</time>
      </trkpt>
      <trkpt lat="43.37476867251098155975341796875" lon="-4.51736393384635448455810546875">
        <ele>3.7999999523162841796875</ele>
        <time>2018-09-06T09:14:55.000Z</time>
      </trkpt>
      <trkpt lat="43.374754004180431365966796875" lon="-4.51740567572414875030517578125">
        <ele>3.599999904632568359375</ele>
        <time>2018-09-06T09:14:56.000Z</time>
      </trkpt>
      <trkpt lat="43.37466993369162082672119140625" lon="-4.517739526927471160888671875">
        <ele>3.599999904632568359375</ele>
        <time>2018-09-06T09:15:03.000Z</time>
      </trkpt>
      <trkpt lat="43.37465719319880008697509765625" lon="-4.5178283751010894775390625">
        <ele>3.599999904632568359375</ele>
        <time>2018-09-06T09:15:05.000Z</time>
      </trkpt>
      <trkpt lat="43.37464503943920135498046875" lon="-4.51837998814880847930908203125">
        <ele>3.7999999523162841796875</ele>
        <time>2018-09-06T09:15:13.000Z</time>
      </trkpt>
      <trkpt lat="43.37471209466457366943359375" lon="-4.51877812854945659637451171875">
        <ele>3.599999904632568359375</ele>
        <time>2018-09-06T09:15:22.000Z</time>
      </trkpt>
      <trkpt lat="43.374809324741363525390625" lon="-4.51847017742693424224853515625">
        <ele>3.7999999523162841796875</ele>
        <time>2018-09-06T09:15:28.000Z</time>
      </trkpt>
      <trkpt lat="43.37485064752399921417236328125" lon="-4.51816909946501255035400390625">
        <ele>3.599999904632568359375</ele>
        <time>2018-09-06T09:15:32.000Z</time>
      </trkpt>
      <trkpt lat="43.37487696669995784759521484375" lon="-4.51794597320258617401123046875">
        <ele>3.599999904632568359375</ele>
        <time>2018-09-06T09:15:35.000Z</time>
      </trkpt>
      <trkpt lat="43.3748983405530452728271484375" lon="-4.517708010971546173095703125">
        <ele>3.7999999523162841796875</ele>
        <time>2018-09-06T09:15:38.000Z</time>
      </trkpt>
      <trkpt lat="43.374905548989772796630859375" lon="-4.51753945089876651763916015625">
        <ele>3.7999999523162841796875</ele>
        <time>2018-09-06T09:15:49.000Z</time>
      </trkpt>
      <trkpt lat="43.37491669692099094390869140625" lon="-4.517556130886077880859375">
        <ele>3.599999904632568359375</ele>
        <time>2018-09-06T09:15:51.000Z</time>
      </trkpt>
      <trkpt lat="43.374961204826831817626953125" lon="-4.51763181947171688079833984375">
        <ele>3.599999904632568359375</ele>
        <time>2018-09-06T09:15:57.000Z</time>
      </trkpt>
      <trkpt lat="43.3749784715473651885986328125" lon="-4.51766031794250011444091796875">
        <ele>3.7999999523162841796875</ele>
        <time>2018-09-06T09:15:59.000Z</time>
      </trkpt>
      <trkpt lat="43.37500981986522674560546875" lon="-4.51770038343966007232666015625">
        <ele>3.7999999523162841796875</ele>
        <time>2018-09-06T09:16:02.000Z</time>
      </trkpt>
      <trkpt lat="43.3750244043767452239990234375" lon="-4.51771195046603679656982421875">
        <ele>3.7999999523162841796875</ele>
        <time>2018-09-06T09:16:03.000Z</time>
      </trkpt>
      <trkpt lat="43.37511903606355190277099609375" lon="-4.517749249935150146484375">
        <ele>3.599999904632568359375</ele>
        <time>2018-09-06T09:16:08.000Z</time>
      </trkpt>
      <trkpt lat="43.37520821951329708099365234375" lon="-4.51776710338890552520751953125">
        <ele>3.7999999523162841796875</ele>
        <time>2018-09-06T09:16:13.000Z</time>
      </trkpt>
      <trkpt lat="43.37521693669259548187255859375" lon="-4.51781152747571468353271484375">
        <ele>4.19999980926513671875</ele>
        <time>2018-09-06T09:16:18.000Z</time>
      </trkpt>
      <trkpt lat="43.37508819065988063812255859375" lon="-4.51714240014553070068359375">
        <ele>3.7999999523162841796875</ele>
        <time>2018-09-06T09:16:28.000Z</time>
      </trkpt>
      <trkpt lat="43.3747876994311809539794921875" lon="-4.515625946223735809326171875">
        <ele>3.7999999523162841796875</ele>
        <time>2018-09-06T09:17:49.000Z</time>
      </trkpt>
      <trkpt lat="43.37478493340313434600830078125" lon="-4.51557867228984832763671875">
        <ele>3.7999999523162841796875</ele>
        <time>2018-09-06T09:17:52.000Z</time>
      </trkpt>
      <trkpt lat="43.374782502651214599609375" lon="-4.515576325356960296630859375">
        <ele>4</ele>
        <time>2018-09-06T09:17:53.000Z</time>
      </trkpt>
      <trkpt lat="43.374601788818836212158203125" lon="-4.51511473394930362701416015625">
        <ele>3.7999999523162841796875</ele>
        <time>2018-09-06T09:18:03.000Z</time>
      </trkpt>
      <trkpt lat="43.3746032975614070892333984375" lon="-4.51514457352459430694580078125">
        <ele>4</ele>
        <time>2018-09-06T09:18:04.000Z</time>
      </trkpt>
      <trkpt lat="43.37466783821582794189453125" lon="-4.51558998785912990570068359375">
        <ele>4</ele>
        <time>2018-09-06T09:18:17.000Z</time>
      </trkpt>
      <trkpt lat="43.37475090287625789642333984375" lon="-4.5158730447292327880859375">
        <ele>3.7999999523162841796875</ele>
        <time>2018-09-06T09:18:26.000Z</time>
      </trkpt>
      <trkpt lat="43.37475827895104885101318359375" lon="-4.51589324511587619781494140625">
        <ele>3.7999999523162841796875</ele>
        <time>2018-09-06T09:18:27.000Z</time>
      </trkpt>
      <trkpt lat="43.3748255856335163116455078125" lon="-4.51600086875259876251220703125">
        <ele>3.599999904632568359375</ele>
        <time>2018-09-06T09:18:35.000Z</time>
      </trkpt>
      <trkpt lat="43.37484293617308139801025390625" lon="-4.5159949176013469696044921875">
        <ele>3.599999904632568359375</ele>
        <time>2018-09-06T09:18:37.000Z</time>
      </trkpt>
      <trkpt lat="43.374820388853549957275390625" lon="-4.51547733508050441741943359375">
        <ele>3.599999904632568359375</ele>
        <time>2018-09-06T09:19:00.000Z</time>
      </trkpt>
      <trkpt lat="43.3748343028128147125244140625" lon="-4.51555511914193630218505859375">
        <ele>3.599999904632568359375</ele>
        <time>2018-09-06T09:19:05.000Z</time>
      </trkpt>
      <trkpt lat="43.3748535811901092529296875" lon="-4.5157062448561191558837890625">
        <ele>3.599999904632568359375</ele>
        <time>2018-09-06T09:19:13.000Z</time>
      </trkpt>
      <trkpt lat="43.374863974750041961669921875" lon="-4.515789560973644256591796875">
        <ele>3.599999904632568359375</ele>
        <time>2018-09-06T09:19:17.000Z</time>
      </trkpt>
      <trkpt lat="43.3748909644782543182373046875" lon="-4.51592576690018177032470703125">
        <ele>3.599999904632568359375</ele>
        <time>2018-09-06T09:19:23.000Z</time>
      </trkpt>
      <trkpt lat="43.374902866780757904052734375" lon="-4.51604814268648624420166015625">
        <ele>3.599999904632568359375</ele>
        <time>2018-09-06T09:19:28.000Z</time>
      </trkpt>
      <trkpt lat="43.37489540688693523406982421875" lon="-4.51609055511653423309326171875">
        <ele>3.599999904632568359375</ele>
        <time>2018-09-06T09:19:30.000Z</time>
      </trkpt>
      <trkpt lat="43.3748710155487060546875" lon="-4.51632566750049591064453125">
        <ele>3.599999904632568359375</ele>
        <time>2018-09-06T09:19:41.000Z</time>
      </trkpt>
      <trkpt lat="43.3748929761350154876708984375" lon="-4.516434967517852783203125">
        <ele>3.400000095367431640625</ele>
        <time>2018-09-06T09:19:47.000Z</time>
      </trkpt>
      <trkpt lat="43.374941758811473846435546875" lon="-4.5165813155472278594970703125">
        <ele>3.599999904632568359375</ele>
        <time>2018-09-06T09:19:57.000Z</time>
      </trkpt>
      <trkpt lat="43.3749313652515411376953125" lon="-4.51654870994389057159423828125">
        <ele>3.599999904632568359375</ele>
        <time>2018-09-06T09:20:00.000Z</time>
      </trkpt>
      <trkpt lat="43.37493279017508029937744140625" lon="-4.516582153737545013427734375">
        <ele>3.599999904632568359375</ele>
        <time>2018-09-06T09:20:03.000Z</time>
      </trkpt>
      <trkpt lat="43.3749394118785858154296875" lon="-4.5165994204580783843994140625">
        <ele>3.599999904632568359375</ele>
        <time>2018-09-06T09:20:06.000Z</time>
      </trkpt>
      <trkpt lat="43.37494410574436187744140625" lon="-4.5166094787418842315673828125">
        <ele>3.599999904632568359375</ele>
        <time>2018-09-06T09:20:08.000Z</time>
      </trkpt>
      <trkpt lat="43.37495215237140655517578125" lon="-4.5166654698550701141357421875">
        <ele>3.400000095367431640625</ele>
        <time>2018-09-06T09:20:14.000Z</time>
      </trkpt>
      <trkpt lat="43.37489943020045757293701171875" lon="-4.51686671935021877288818359375">
        <ele>3.400000095367431640625</ele>
        <time>2018-09-06T09:20:29.000Z</time>
      </trkpt>
      <trkpt lat="43.37482784874737262725830078125" lon="-4.51642717234790325164794921875">
        <ele>3.400000095367431640625</ele>
        <time>2018-09-06T09:20:35.000Z</time>
      </trkpt>
      <trkpt lat="43.3747950755059719085693359375" lon="-4.5164653100073337554931640625">
        <ele>3.400000095367431640625</ele>
        <time>2018-09-06T09:20:45.000Z</time>
      </trkpt>
      <trkpt lat="43.37478987872600555419921875" lon="-4.516474194824695587158203125">
        <ele>3.2000000476837158203125</ele>
        <time>2018-09-06T09:20:46.000Z</time>
      </trkpt>
      <trkpt lat="43.37483086623251438140869140625" lon="-4.51536518521606922149658203125">
        <ele>3.400000095367431640625</ele>
        <time>2018-09-06T09:21:33.000Z</time>
      </trkpt>
      <trkpt lat="43.37483790703117847442626953125" lon="-4.51537339948117733001708984375">
        <ele>3.2000000476837158203125</ele>
        <time>2018-09-06T09:21:34.000Z</time>
      </trkpt>
      <trkpt lat="43.37484620511531829833984375" lon="-4.51538245193660259246826171875">
        <ele>3.2000000476837158203125</ele>
        <time>2018-09-06T09:21:35.000Z</time>
      </trkpt>
      <trkpt lat="43.37486632168292999267578125" lon="-4.515395946800708770751953125">
        <ele>3.2000000476837158203125</ele>
        <time>2018-09-06T09:21:37.000Z</time>
      </trkpt>
      <trkpt lat="43.3750022761523723602294921875" lon="-4.51554053463041782379150390625">
        <ele>3.2000000476837158203125</ele>
        <time>2018-09-06T09:21:46.000Z</time>
      </trkpt>
      <trkpt lat="43.3751088939607143402099609375" lon="-4.51574840582907199859619140625">
        <ele>3.2000000476837158203125</ele>
        <time>2018-09-06T09:21:58.000Z</time>
      </trkpt>
      <trkpt lat="43.375199921429157257080078125" lon="-4.51608133502304553985595703125">
        <ele>3.2000000476837158203125</ele>
        <time>2018-09-06T09:22:12.000Z</time>
      </trkpt>
      <trkpt lat="43.37519044987857341766357421875" lon="-4.516264311969280242919921875">
        <ele>3</ele>
        <time>2018-09-06T09:22:20.000Z</time>
      </trkpt>
      <trkpt lat="43.37522330693900585174560546875" lon="-4.51634578406810760498046875">
        <ele>3</ele>
        <time>2018-09-06T09:22:23.000Z</time>
      </trkpt>
      <trkpt lat="43.37523336522281169891357421875" lon="-4.51637168414890766143798828125">
        <ele>3.2000000476837158203125</ele>
        <time>2018-09-06T09:22:24.000Z</time>
      </trkpt>
      <trkpt lat="43.37525264360010623931884765625" lon="-4.5164336264133453369140625">
        <ele>3</ele>
        <time>2018-09-06T09:22:27.000Z</time>
      </trkpt>
      <trkpt lat="43.37527778930962085723876953125" lon="-4.5166386477649211883544921875">
        <ele>3</ele>
        <time>2018-09-06T09:22:34.000Z</time>
      </trkpt>
      <trkpt lat="43.37527778930962085723876953125" lon="-4.51673830859363079071044921875">
        <ele>3</ele>
        <time>2018-09-06T09:22:37.000Z</time>
      </trkpt>
      <trkpt lat="43.375295139849185943603515625" lon="-4.51722010038793087005615234375">
        <ele>3</ele>
        <time>2018-09-06T09:22:51.000Z</time>
      </trkpt>
      <trkpt lat="43.37527074851095676422119140625" lon="-4.517603404819965362548828125">
        <ele>3</ele>
        <time>2018-09-06T09:23:00.000Z</time>
      </trkpt>
      <trkpt lat="43.37528885342180728912353515625" lon="-4.51797983609139919281005859375">
        <ele>3</ele>
        <time>2018-09-06T09:23:09.000Z</time>
      </trkpt>
      <trkpt lat="43.37528265081346035003662109375" lon="-4.5181192271411418914794921875">
        <ele>3</ele>
        <time>2018-09-06T09:23:12.000Z</time>
      </trkpt>
      <trkpt lat="43.37526823394000530242919921875" lon="-4.51880930922925472259521484375">
        <ele>3</ele>
        <time>2018-09-06T09:23:25.000Z</time>
      </trkpt>
      <trkpt lat="43.37530511431396007537841796875" lon="-4.5196174085140228271484375">
        <ele>3</ele>
        <time>2018-09-06T09:23:37.000Z</time>
      </trkpt>
      <trkpt lat="43.37535674683749675750732421875" lon="-4.52017891220748424530029296875">
        <ele>3</ele>
        <time>2018-09-06T09:23:45.000Z</time>
      </trkpt>
      <trkpt lat="43.375366888940334320068359375" lon="-4.52037873677909374237060546875">
        <ele>3</ele>
        <time>2018-09-06T09:23:48.000Z</time>
      </trkpt>
      <trkpt lat="43.375323973596096038818359375" lon="-4.5209263265132904052734375">
        <ele>3</ele>
        <time>2018-09-06T09:23:57.000Z</time>
      </trkpt>
      <trkpt lat="43.37538725696504116058349609375" lon="-4.52131834812462329864501953125">
        <ele>3</ele>
        <time>2018-09-06T09:24:04.000Z</time>
      </trkpt>
      <trkpt lat="43.37550602853298187255859375" lon="-4.51876538805663585662841796875">
        <ele>3</ele>
        <time>2018-09-06T09:24:09.000Z</time>
      </trkpt>
      <trkpt lat="43.3753154240548610687255859375" lon="-4.51759980060160160064697265625">
        <ele>3</ele>
        <time>2018-09-06T09:24:16.000Z</time>
      </trkpt>
      <trkpt lat="43.3753268234431743621826171875" lon="-4.51764070428907871246337890625">
        <ele>3</ele>
        <time>2018-09-06T09:24:17.000Z</time>
      </trkpt>
      <trkpt lat="43.3753854967653751373291015625" lon="-4.517845474183559417724609375">
        <ele>3</ele>
        <time>2018-09-06T09:24:24.000Z</time>
      </trkpt>
      <trkpt lat="43.37539513595402240753173828125" lon="-4.517926611006259918212890625">
        <ele>3</ele>
        <time>2018-09-06T09:24:31.000Z</time>
      </trkpt>
      <trkpt lat="43.37540301494300365447998046875" lon="-4.5179479010403156280517578125">
        <ele>3</ele>
        <time>2018-09-06T09:24:38.000Z</time>
      </trkpt>
      <trkpt lat="43.3749281801283359527587890625" lon="-4.5158577896654605865478515625">
        <ele>2.7999999523162841796875</ele>
        <time>2018-09-06T09:25:30.000Z</time>
      </trkpt>
      <trkpt lat="43.3749420940876007080078125" lon="-4.515848569571971893310546875">
        <ele>2.7999999523162841796875</ele>
        <time>2018-09-06T09:25:31.000Z</time>
      </trkpt>
      <trkpt lat="43.37505147792398929595947265625" lon="-4.5156691968441009521484375">
        <ele>2.7999999523162841796875</ele>
        <time>2018-09-06T09:25:40.000Z</time>
      </trkpt>
      <trkpt lat="43.3745706081390380859375" lon="-4.5152915082871913909912109375">
        <ele>-2</ele>
        <time>2018-09-06T10:04:32.000Z</time>
      </trkpt>
      <trkpt lat="43.37456633336842060089111328125" lon="-4.51531925238668918609619140625">
        <ele>-2</ele>
        <time>2018-09-06T10:04:33.000Z</time>
      </trkpt>
      <trkpt lat="43.37456750683486461639404296875" lon="-4.51535060070455074310302734375">
        <ele>-1.7999999523162841796875</ele>
        <time>2018-09-06T10:04:34.000Z</time>
      </trkpt>
      <trkpt lat="43.37458259426057338714599609375" lon="-4.51553701423108577728271484375">
        <ele>-2</ele>
        <time>2018-09-06T10:04:40.000Z</time>
      </trkpt>
      <trkpt lat="43.374574296176433563232421875" lon="-4.51567548327147960662841796875">
        <ele>-2</ele>
        <time>2018-09-06T10:04:44.000Z</time>
      </trkpt>
      <trkpt lat="43.37455878965556621551513671875" lon="-4.51570515520870685577392578125">
        <ele>-2</ele>
        <time>2018-09-06T10:04:45.000Z</time>
      </trkpt>
      <trkpt lat="43.37451101280748844146728515625" lon="-4.51580607332289218902587890625">
        <ele>-1.7999999523162841796875</ele>
        <time>2018-09-06T10:04:50.000Z</time>
      </trkpt>
      <trkpt lat="43.37450799532234668731689453125" lon="-4.5158919878304004669189453125">
        <ele>-1.7999999523162841796875</ele>
        <time>2018-09-06T10:04:53.000Z</time>
      </trkpt>
      <trkpt lat="43.37450548075139522552490234375" lon="-4.51592710800468921661376953125">
        <ele>-1.7999999523162841796875</ele>
        <time>2018-09-06T10:04:54.000Z</time>
      </trkpt>
      <trkpt lat="43.3745013736188411712646484375" lon="-4.51595820486545562744140625">
        <ele>-1.7999999523162841796875</ele>
        <time>2018-09-06T10:04:55.000Z</time>
      </trkpt>
      <trkpt lat="43.3745084144175052642822265625" lon="-4.51606540940701961517333984375">
        <ele>-1.7999999523162841796875</ele>
        <time>2018-09-06T10:04:59.000Z</time>
      </trkpt>
      <trkpt lat="43.37450464256107807159423828125" lon="-4.51618082821369171142578125">
        <ele>-1.7999999523162841796875</ele>
        <time>2018-09-06T10:05:04.000Z</time>
      </trkpt>
      <trkpt lat="43.37450380437076091766357421875" lon="-4.5162071473896503448486328125">
        <ele>-1.60000002384185791015625</ele>
        <time>2018-09-06T10:05:06.000Z</time>
      </trkpt>
      <trkpt lat="43.37450564838945865631103515625" lon="-4.51622718013823032379150390625">
        <ele>-1.7999999523162841796875</ele>
        <time>2018-09-06T10:05:09.000Z</time>
      </trkpt>
      <trkpt lat="43.3744691871106624603271484375" lon="-4.51632541604340076446533203125">
        <ele>-3</ele>
        <time>2018-09-06T10:08:40.000Z</time>
      </trkpt>
      <trkpt lat="43.37447061203420162200927734375" lon="-4.51636212877929210662841796875">
        <ele>-3.2000000476837158203125</ele>
        <time>2018-09-06T10:08:41.000Z</time>
      </trkpt>
      <trkpt lat="43.37447161786258220672607421875" lon="-4.51639951206743717193603515625">
        <ele>-3.2000000476837158203125</ele>
        <time>2018-09-06T10:08:42.000Z</time>
      </trkpt>
      <trkpt lat="43.3744651637971401214599609375" lon="-4.51657972298562526702880859375">
        <ele>-3.599999904632568359375</ele>
        <time>2018-09-06T10:08:46.000Z</time>
      </trkpt>
      <trkpt lat="43.3744567818939685821533203125" lon="-4.51667577959597110748291015625">
        <ele>-3</ele>
        <time>2018-09-06T10:08:48.000Z</time>
      </trkpt>
      <trkpt lat="43.3744487352669239044189453125" lon="-4.516885913908481597900390625">
        <ele>-2.2000000476837158203125</ele>
        <time>2018-09-06T10:08:53.000Z</time>
      </trkpt>
      <trkpt lat="43.3744450472295284271240234375" lon="-4.51696679927408695220947265625">
        <ele>-2.2000000476837158203125</ele>
        <time>2018-09-06T10:08:55.000Z</time>
      </trkpt>
      <trkpt lat="43.3744363300502300262451171875" lon="-4.5170989818871021270751953125">
        <ele>-2.2000000476837158203125</ele>
        <time>2018-09-06T10:08:58.000Z</time>
      </trkpt>
      <trkpt lat="43.37443037889897823333740234375" lon="-4.51718925498425960540771484375">
        <ele>-2.2000000476837158203125</ele>
        <time>2018-09-06T10:09:00.000Z</time>
      </trkpt>
      <trkpt lat="43.37442534975707530975341796875" lon="-4.5173222757875919342041015625">
        <ele>-2.2000000476837158203125</ele>
        <time>2018-09-06T10:09:03.000Z</time>
      </trkpt>
      <trkpt lat="43.37441504001617431640625" lon="-4.5174067653715610504150390625">
        <ele>-2.400000095367431640625</ele>
        <time>2018-09-06T10:09:05.000Z</time>
      </trkpt>
      <trkpt lat="43.374410681426525115966796875" lon="-4.517495445907115936279296875">
        <ele>-2.400000095367431640625</ele>
        <time>2018-09-06T10:09:07.000Z</time>
      </trkpt>
      <trkpt lat="43.37441177107393741607666015625" lon="-4.5176387764513492584228515625">
        <ele>-2.599999904632568359375</ele>
        <time>2018-09-06T10:09:10.000Z</time>
      </trkpt>
      <trkpt lat="43.374418057501316070556640625" lon="-4.51784069649875164031982421875">
        <ele>-2</ele>
        <time>2018-09-06T10:09:14.000Z</time>
      </trkpt>
      <trkpt lat="43.374438174068927764892578125" lon="-4.517989642918109893798828125">
        <ele>-1.60000002384185791015625</ele>
        <time>2018-09-06T10:09:17.000Z</time>
      </trkpt>
      <trkpt lat="43.37448989041149616241455078125" lon="-4.51820044778287410736083984375">
        <ele>-1.2000000476837158203125</ele>
        <time>2018-09-06T10:09:22.000Z</time>
      </trkpt>
      <trkpt lat="43.3745268546044826507568359375" lon="-4.51826934702694416046142578125">
        <ele>-1</ele>
        <time>2018-09-06T10:09:24.000Z</time>
      </trkpt>
      <trkpt lat="43.3746690116822719573974609375" lon="-4.5185658149421215057373046875">
        <ele>-1</ele>
        <time>2018-09-06T10:09:31.000Z</time>
      </trkpt>
      <trkpt lat="43.37483287788927555084228515625" lon="-4.518883489072322845458984375">
        <ele>-1</ele>
        <time>2018-09-06T10:09:39.000Z</time>
      </trkpt>
      <trkpt lat="43.3748832531273365020751953125" lon="-4.51897627674043178558349609375">
        <ele>-0.20000000298023223876953125</ele>
        <time>2018-09-06T10:09:44.000Z</time>
      </trkpt>
      <trkpt lat="43.37492340244352817535400390625" lon="-4.51902799308300018310546875">
        <ele>-0.800000011920928955078125</ele>
        <time>2018-09-06T10:09:48.000Z</time>
      </trkpt>
      <trkpt lat="43.3749278448522090911865234375" lon="-4.5190341956913471221923828125">
        <ele>-1</ele>
        <time>2018-09-06T10:09:50.000Z</time>
      </trkpt>
      <trkpt lat="43.3750445209443569183349609375" lon="-4.5191300846636295318603515625">
        <ele>-1.7999999523162841796875</ele>
        <time>2018-09-06T10:11:26.000Z</time>
      </trkpt>
      <trkpt lat="43.3750669844448566436767578125" lon="-4.5191418193280696868896484375">
        <ele>-2</ele>
        <time>2018-09-06T10:11:27.000Z</time>
      </trkpt>
      <trkpt lat="43.37509137578308582305908203125" lon="-4.5191512070596218109130859375">
        <ele>-2.400000095367431640625</ele>
        <time>2018-09-06T10:11:28.000Z</time>
      </trkpt>
      <trkpt lat="43.37518441490828990936279296875" lon="-4.5191408134996891021728515625">
        <ele>-3.400000095367431640625</ele>
        <time>2018-09-06T10:11:31.000Z</time>
      </trkpt>
      <trkpt lat="43.37521542795002460479736328125" lon="-4.51913486234843730926513671875">
        <ele>-3.7999999523162841796875</ele>
        <time>2018-09-06T10:11:32.000Z</time>
      </trkpt>
      <trkpt lat="43.37541994638741016387939453125" lon="-4.519101083278656005859375">
        <ele>-3.599999904632568359375</ele>
        <time>2018-09-06T10:11:38.000Z</time>
      </trkpt>
      <trkpt lat="43.37567307986319065093994140625" lon="-4.51903444714844226837158203125">
        <ele>-2.7999999523162841796875</ele>
        <time>2018-09-06T10:11:45.000Z</time>
      </trkpt>
      <trkpt lat="43.3758230321109294891357421875" lon="-4.518919028341770172119140625">
        <ele>-2.400000095367431640625</ele>
        <time>2018-09-06T10:11:50.000Z</time>
      </trkpt>
      <trkpt lat="43.37588715367019176483154296875" lon="-4.51888457871973514556884765625">
        <ele>-2.400000095367431640625</ele>
        <time>2018-09-06T10:11:52.000Z</time>
      </trkpt>
      <trkpt lat="43.37591950781643390655517578125" lon="-4.51886798255145549774169921875">
        <ele>-2.400000095367431640625</ele>
        <time>2018-09-06T10:11:53.000Z</time>
      </trkpt>
      <trkpt lat="43.37605319917201995849609375" lon="-4.518832527101039886474609375">
        <ele>-2</ele>
        <time>2018-09-06T10:11:57.000Z</time>
      </trkpt>
      <trkpt lat="43.376123607158660888671875" lon="-4.5188370533287525177001953125">
        <ele>-2</ele>
        <time>2018-09-06T10:11:59.000Z</time>
      </trkpt>
      <trkpt lat="43.37619074620306491851806640625" lon="-4.518854655325412750244140625">
        <ele>-1.7999999523162841796875</ele>
        <time>2018-09-06T10:12:01.000Z</time>
      </trkpt>
      <trkpt lat="43.376255035400390625" lon="-4.5188833214342594146728515625">
        <ele>-1.60000002384185791015625</ele>
        <time>2018-09-06T10:12:03.000Z</time>
      </trkpt>
      <trkpt lat="43.37631898932158946990966796875" lon="-4.51892112381756305694580078125">
        <ele>-1.39999997615814208984375</ele>
        <time>2018-09-06T10:12:05.000Z</time>
      </trkpt>
      <trkpt lat="43.376348912715911865234375" lon="-4.5189463533461093902587890625">
        <ele>-1.2000000476837158203125</ele>
        <time>2018-09-06T10:12:06.000Z</time>
      </trkpt>
      <trkpt lat="43.3764660917222499847412109375" lon="-4.51904408633708953857421875">
        <ele>-0.800000011920928955078125</ele>
        <time>2018-09-06T10:12:10.000Z</time>
      </trkpt>
      <trkpt lat="43.37656239978969097137451171875" lon="-4.5191619358956813812255859375">
        <ele>-0.60000002384185791015625</ele>
        <time>2018-09-06T10:12:14.000Z</time>
      </trkpt>
      <trkpt lat="43.376657031476497650146484375" lon="-4.51928489841520786285400390625">
        <ele>-0.20000000298023223876953125</ele>
        <time>2018-09-06T10:12:18.000Z</time>
      </trkpt>
      <trkpt lat="43.3767460472881793975830078125" lon="-4.51940861530601978302001953125">
        <ele>0.20000000298023223876953125</ele>
        <time>2018-09-06T10:12:22.000Z</time>
      </trkpt>
      <trkpt lat="43.37682844139635562896728515625" lon="-4.51965101994574069976806640625">
        <ele>0.800000011920928955078125</ele>
        <time>2018-09-06T10:12:29.000Z</time>
      </trkpt>
      <trkpt lat="43.3768318779766559600830078125" lon="-4.51967817731201648712158203125">
        <ele>0.800000011920928955078125</ele>
        <time>2018-09-06T10:12:30.000Z</time>
      </trkpt>
      <trkpt lat="43.37684486992657184600830078125" lon="-4.519701898097991943359375">
        <ele>1</ele>
        <time>2018-09-06T10:12:31.000Z</time>
      </trkpt>
      <trkpt lat="43.3768741227686405181884765625" lon="-4.51975462026894092559814453125">
        <ele>1.2000000476837158203125</ele>
        <time>2018-09-06T10:12:33.000Z</time>
      </trkpt>
      <trkpt lat="43.37695551104843616485595703125" lon="-4.5199427939951419830322265625">
        <ele>1.60000002384185791015625</ele>
        <time>2018-09-06T10:12:39.000Z</time>
      </trkpt>
      <trkpt lat="43.37699842639267444610595703125" lon="-4.52003139071166515350341796875">
        <ele>2</ele>
        <time>2018-09-06T10:12:42.000Z</time>
      </trkpt>
      <trkpt lat="43.377010412514209747314453125" lon="-4.52006198465824127197265625">
        <ele>2</ele>
        <time>2018-09-06T10:12:43.000Z</time>
      </trkpt>
      <trkpt lat="43.3771064691245555877685546875" lon="-4.52028050087392330169677734375">
        <ele>3.2000000476837158203125</ele>
        <time>2018-09-06T10:12:51.000Z</time>
      </trkpt>
      <trkpt lat="43.3771192096173763275146484375" lon="-4.52030246146023273468017578125">
        <ele>3.400000095367431640625</ele>
        <time>2018-09-06T10:12:52.000Z</time>
      </trkpt>
      <trkpt lat="43.3771470375359058380126953125" lon="-4.52037571929395198822021484375">
        <ele>4</ele>
        <time>2018-09-06T10:12:55.000Z</time>
      </trkpt>
      <trkpt lat="43.377153575420379638671875" lon="-4.52040237374603748321533203125">
        <ele>4.19999980926513671875</ele>
        <time>2018-09-06T10:12:56.000Z</time>
      </trkpt>
      <trkpt lat="43.377165310084819793701171875" lon="-4.52048501931130886077880859375">
        <ele>4.80000019073486328125</ele>
        <time>2018-09-06T10:12:59.000Z</time>
      </trkpt>
      <trkpt lat="43.377169668674468994140625" lon="-4.520514272153377532958984375">
        <ele>5</ele>
        <time>2018-09-06T10:13:00.000Z</time>
      </trkpt>
      <trkpt lat="43.377172015607357025146484375" lon="-4.52057252638041973114013671875">
        <ele>5.400000095367431640625</ele>
        <time>2018-09-06T10:13:02.000Z</time>
      </trkpt>
      <trkpt lat="43.37717159651219844818115234375" lon="-4.52068015001714229583740234375">
        <ele>6.19999980926513671875</ele>
        <time>2018-09-06T10:13:07.000Z</time>
      </trkpt>
      <trkpt lat="43.377164304256439208984375" lon="-4.5207695849239826202392578125">
        <ele>6</ele>
        <time>2018-09-06T10:13:12.000Z</time>
      </trkpt>
      <trkpt lat="43.37716053240001201629638671875" lon="-4.52079380862414836883544921875">
        <ele>6</ele>
        <time>2018-09-06T10:13:13.000Z</time>
      </trkpt>
      <trkpt lat="43.37714427150785923004150390625" lon="-4.52094837091863155364990234375">
        <ele>6.400000095367431640625</ele>
        <time>2018-09-06T10:13:20.000Z</time>
      </trkpt>
      <trkpt lat="43.377151228487491607666015625" lon="-4.5209962315857410430908203125">
        <ele>6.80000019073486328125</ele>
        <time>2018-09-06T10:13:22.000Z</time>
      </trkpt>
      <trkpt lat="43.37719313800334930419921875" lon="-4.5211045257747173309326171875">
        <ele>7.599999904632568359375</ele>
        <time>2018-09-06T10:13:26.000Z</time>
      </trkpt>
      <trkpt lat="43.37718785740435123443603515625" lon="-4.521139226853847503662109375">
        <ele>7.599999904632568359375</ele>
        <time>2018-09-06T10:13:27.000Z</time>
      </trkpt>
      <trkpt lat="43.37712013162672519683837890625" lon="-4.5213677175343036651611328125">
        <ele>8</ele>
        <time>2018-09-06T10:13:33.000Z</time>
      </trkpt>
      <trkpt lat="43.3771074749529361724853515625" lon="-4.52140845358371734619140625">
        <ele>8</ele>
        <time>2018-09-06T10:13:34.000Z</time>
      </trkpt>
      <trkpt lat="43.377036564052104949951171875" lon="-4.52160500921308994293212890625">
        <ele>8.6000003814697265625</ele>
        <time>2018-09-06T10:13:39.000Z</time>
      </trkpt>
      <trkpt lat="43.37698602117598056793212890625" lon="-4.5217127166688442230224609375">
        <ele>8.6000003814697265625</ele>
        <time>2018-09-06T10:13:42.000Z</time>
      </trkpt>
      <trkpt lat="43.37683296762406826019287109375" lon="-4.52206132002174854278564453125">
        <ele>9</ele>
        <time>2018-09-06T10:13:51.000Z</time>
      </trkpt>
      <trkpt lat="43.37678401730954647064208984375" lon="-4.5221767388284206390380859375">
        <ele>9.80000019073486328125</ele>
        <time>2018-09-06T10:13:54.000Z</time>
      </trkpt>
      <trkpt lat="43.37665292434394359588623046875" lon="-4.52245946042239665985107421875">
        <ele>10.3999996185302734375</ele>
        <time>2018-09-06T10:14:01.000Z</time>
      </trkpt>
      <trkpt lat="43.3765492402017116546630859375" lon="-4.522726424038410186767578125">
        <ele>10.80000019073486328125</ele>
        <time>2018-09-06T10:14:07.000Z</time>
      </trkpt>
      <trkpt lat="43.37648461572825908660888671875" lon="-4.52291090972721576690673828125">
        <ele>11</ele>
        <time>2018-09-06T10:14:11.000Z</time>
      </trkpt>
      <trkpt lat="43.37639006786048412322998046875" lon="-4.523232690989971160888671875">
        <ele>11</ele>
        <time>2018-09-06T10:14:18.000Z</time>
      </trkpt>
      <trkpt lat="43.376321084797382354736328125" lon="-4.52357567846775054931640625">
        <ele>12</ele>
        <time>2018-09-06T10:14:25.000Z</time>
      </trkpt>
      <trkpt lat="43.37630331516265869140625" lon="-4.52367751859128475189208984375">
        <ele>12.3999996185302734375</ele>
        <time>2018-09-06T10:14:27.000Z</time>
      </trkpt>
      <trkpt lat="43.37627456523478031158447265625" lon="-4.52387876808643341064453125">
        <ele>13</ele>
        <time>2018-09-06T10:14:31.000Z</time>
      </trkpt>
      <trkpt lat="43.37625042535364627838134765625" lon="-4.5241243578493595123291015625">
        <ele>13.6000003814697265625</ele>
        <time>2018-09-06T10:14:36.000Z</time>
      </trkpt>
      <trkpt lat="43.37623651139438152313232421875" lon="-4.5242738910019397735595703125">
        <ele>14</ele>
        <time>2018-09-06T10:14:39.000Z</time>
      </trkpt>
      <trkpt lat="43.376215808093547821044921875" lon="-4.52463238500058650970458984375">
        <ele>14.3999996185302734375</ele>
        <time>2018-09-06T10:14:46.000Z</time>
      </trkpt>
      <trkpt lat="43.37618337012827396392822265625" lon="-4.5250101573765277862548828125">
        <ele>15.19999980926513671875</ele>
        <time>2018-09-06T10:14:54.000Z</time>
      </trkpt>
      <trkpt lat="43.37617523968219757080078125" lon="-4.52510311268270015716552734375">
        <ele>15.19999980926513671875</ele>
        <time>2018-09-06T10:14:56.000Z</time>
      </trkpt>
      <trkpt lat="43.37613408453762531280517578125" lon="-4.52541567385196685791015625">
        <ele>16.200000762939453125</ele>
        <time>2018-09-06T10:15:03.000Z</time>
      </trkpt>
      <trkpt lat="43.3761147223412990570068359375" lon="-4.52554919756948947906494140625">
        <ele>16.3999996185302734375</ele>
        <time>2018-09-06T10:15:06.000Z</time>
      </trkpt>
      <trkpt lat="43.3760309033095836639404296875" lon="-4.52600852586328983306884765625">
        <ele>16.799999237060546875</ele>
        <time>2018-09-06T10:15:16.000Z</time>
      </trkpt>
      <trkpt lat="43.37595387361943721771240234375" lon="-4.52633491717278957366943359375">
        <ele>17.200000762939453125</ele>
        <time>2018-09-06T10:15:23.000Z</time>
      </trkpt>
      <trkpt lat="43.3759313262999057769775390625" lon="-4.52643231488764286041259765625">
        <ele>17.3999996185302734375</ele>
        <time>2018-09-06T10:15:25.000Z</time>
      </trkpt>
      <trkpt lat="43.37585094384849071502685546875" lon="-4.5268179662525653839111328125">
        <ele>18.3999996185302734375</ele>
        <time>2018-09-06T10:15:33.000Z</time>
      </trkpt>
      <trkpt lat="43.3758404664695262908935546875" lon="-4.5268659107387065887451171875">
        <ele>18.3999996185302734375</ele>
        <time>2018-09-06T10:15:34.000Z</time>
      </trkpt>
      <trkpt lat="43.37577416561543941497802734375" lon="-4.52732230536639690399169921875">
        <ele>19</ele>
        <time>2018-09-06T10:15:43.000Z</time>
      </trkpt>
      <trkpt lat="43.37575505487620830535888671875" lon="-4.5275676436722278594970703125">
        <ele>19.6000003814697265625</ele>
        <time>2018-09-06T10:15:48.000Z</time>
      </trkpt>
      <trkpt lat="43.37574700824916362762451171875" lon="-4.5277121476829051971435546875">
        <ele>20.200000762939453125</ele>
        <time>2018-09-06T10:15:51.000Z</time>
      </trkpt>
      <trkpt lat="43.375749103724956512451171875" lon="-4.528025798499584197998046875">
        <ele>20.6000003814697265625</ele>
        <time>2018-09-06T10:15:58.000Z</time>
      </trkpt>
      <trkpt lat="43.37575186975300312042236328125" lon="-4.528137110173702239990234375">
        <ele>21.3999996185302734375</ele>
        <time>2018-09-06T10:16:01.000Z</time>
      </trkpt>
      <trkpt lat="43.37575153447687625885009765625" lon="-4.528173990547657012939453125">
        <ele>22</ele>
        <time>2018-09-06T10:16:02.000Z</time>
      </trkpt>
      <trkpt lat="43.37578187696635723114013671875" lon="-4.528470374643802642822265625">
        <ele>22.3999996185302734375</ele>
        <time>2018-09-06T10:16:10.000Z</time>
      </trkpt>
      <trkpt lat="43.3757938630878925323486328125" lon="-4.52860171906650066375732421875">
        <ele>23.200000762939453125</ele>
        <time>2018-09-06T10:16:14.000Z</time>
      </trkpt>
      <trkpt lat="43.37581850588321685791015625" lon="-4.52879928052425384521484375">
        <ele>24.200000762939453125</ele>
        <time>2018-09-06T10:16:20.000Z</time>
      </trkpt>
      <trkpt lat="43.37582043372094631195068359375" lon="-4.52883389778435230255126953125">
        <ele>24.6000003814697265625</ele>
        <time>2018-09-06T10:16:21.000Z</time>
      </trkpt>
      <trkpt lat="43.37584306485950946807861328125" lon="-4.52910698018968105316162109375">
        <ele>25.3999996185302734375</ele>
        <time>2018-09-06T10:16:29.000Z</time>
      </trkpt>
      <trkpt lat="43.3758488483726978302001953125" lon="-4.5291419327259063720703125">
        <ele>25.6000003814697265625</ele>
        <time>2018-09-06T10:16:30.000Z</time>
      </trkpt>
      <trkpt lat="43.37586301378905773162841796875" lon="-4.52941618859767913818359375">
        <ele>27</ele>
        <time>2018-09-06T10:16:38.000Z</time>
      </trkpt>
      <trkpt lat="43.375869132578372955322265625" lon="-4.529815502464771270751953125">
        <ele>27.799999237060546875</ele>
        <time>2018-09-06T10:16:49.000Z</time>
      </trkpt>
      <trkpt lat="43.37587022222578525543212890625" lon="-4.52985213138163089752197265625">
        <ele>28</ele>
        <time>2018-09-06T10:16:50.000Z</time>
      </trkpt>
      <trkpt lat="43.37587558664381504058837890625" lon="-4.53011230565607547760009765625">
        <ele>28.799999237060546875</ele>
        <time>2018-09-06T10:16:57.000Z</time>
      </trkpt>
      <trkpt lat="43.3758766762912273406982421875" lon="-4.5301512815058231353759765625">
        <ele>28.799999237060546875</ele>
        <time>2018-09-06T10:16:58.000Z</time>
      </trkpt>
      <trkpt lat="43.3758820407092571258544921875" lon="-4.53030156902968883514404296875">
        <ele>29</ele>
        <time>2018-09-06T10:17:02.000Z</time>
      </trkpt>
      <trkpt lat="43.375882208347320556640625" lon="-4.53049468807876110076904296875">
        <ele>29.3999996185302734375</ele>
        <time>2018-09-06T10:17:07.000Z</time>
      </trkpt>
      <trkpt lat="43.3758900873363018035888671875" lon="-4.53061111271381378173828125">
        <ele>29.6000003814697265625</ele>
        <time>2018-09-06T10:17:10.000Z</time>
      </trkpt>
      <trkpt lat="43.37589821778237819671630859375" lon="-4.5308171398937702178955078125">
        <ele>30</ele>
        <time>2018-09-06T10:17:15.000Z</time>
      </trkpt>
      <trkpt lat="43.37590123526751995086669921875" lon="-4.5308585464954376220703125">
        <ele>30.200000762939453125</ele>
        <time>2018-09-06T10:17:16.000Z</time>
      </trkpt>
      <trkpt lat="43.3759266324341297149658203125" lon="-4.531253166496753692626953125">
        <ele>29.6000003814697265625</ele>
        <time>2018-09-06T10:17:25.000Z</time>
      </trkpt>
      <trkpt lat="43.3759323321282863616943359375" lon="-4.53141309320926666259765625">
        <ele>30</ele>
        <time>2018-09-06T10:17:28.000Z</time>
      </trkpt>
      <trkpt lat="43.37594926357269287109375" lon="-4.5316814817488193511962890625">
        <ele>30.200000762939453125</ele>
        <time>2018-09-06T10:17:33.000Z</time>
      </trkpt>
      <trkpt lat="43.375958316028118133544921875" lon="-4.53182481229305267333984375">
        <ele>30</ele>
        <time>2018-09-06T10:17:36.000Z</time>
      </trkpt>
      <trkpt lat="43.37596275843679904937744140625" lon="-4.53203494660556316375732421875">
        <ele>30</ele>
        <time>2018-09-06T10:17:40.000Z</time>
      </trkpt>
      <trkpt lat="43.3759695477783679962158203125" lon="-4.532305933535099029541015625">
        <ele>30.200000762939453125</ele>
        <time>2018-09-06T10:17:45.000Z</time>
      </trkpt>
      <trkpt lat="43.37598622776567935943603515625" lon="-4.53255747444927692413330078125">
        <ele>30.3999996185302734375</ele>
        <time>2018-09-06T10:17:50.000Z</time>
      </trkpt>
      <trkpt lat="43.37602260522544384002685546875" lon="-4.53284581191837787628173828125">
        <ele>31</ele>
        <time>2018-09-06T10:17:56.000Z</time>
      </trkpt>
      <trkpt lat="43.37604104541242122650146484375" lon="-4.5329893939197063446044921875">
        <ele>31.3999996185302734375</ele>
        <time>2018-09-06T10:17:59.000Z</time>
      </trkpt>
      <trkpt lat="43.37605982087552547454833984375" lon="-4.53311738558113574981689453125">
        <ele>32</ele>
        <time>2018-09-06T10:18:02.000Z</time>
      </trkpt>
      <trkpt lat="43.37608312256634235382080078125" lon="-4.5332854427397251129150390625">
        <ele>32.200000762939453125</ele>
        <time>2018-09-06T10:18:06.000Z</time>
      </trkpt>
      <trkpt lat="43.3760946057736873626708984375" lon="-4.53336666338145732879638671875">
        <ele>32.59999847412109375</ele>
        <time>2018-09-06T10:18:08.000Z</time>
      </trkpt>
      <trkpt lat="43.3761140517890453338623046875" lon="-4.53349289484322071075439453125">
        <ele>33</ele>
        <time>2018-09-06T10:18:11.000Z</time>
      </trkpt>
      <trkpt lat="43.3761214278638362884521484375" lon="-4.5335385762155055999755859375">
        <ele>33.200000762939453125</ele>
        <time>2018-09-06T10:18:12.000Z</time>
      </trkpt>
      <trkpt lat="43.3761402033269405364990234375" lon="-4.5336676575243473052978515625">
        <ele>33.799999237060546875</ele>
        <time>2018-09-06T10:18:15.000Z</time>
      </trkpt>
      <trkpt lat="43.376150429248809814453125" lon="-4.53375005163252353668212890625">
        <ele>34</ele>
        <time>2018-09-06T10:18:17.000Z</time>
      </trkpt>
      <trkpt lat="43.37616124190390110015869140625" lon="-4.53383068554103374481201171875">
        <ele>34.40000152587890625</ele>
        <time>2018-09-06T10:18:19.000Z</time>
      </trkpt>
      <trkpt lat="43.3762055821716785430908203125" lon="-4.53407443128526210784912109375">
        <ele>35.59999847412109375</ele>
        <time>2018-09-06T10:18:25.000Z</time>
      </trkpt>
      <trkpt lat="43.37623818777501583099365234375" lon="-4.534276016056537628173828125">
        <ele>36</ele>
        <time>2018-09-06T10:18:30.000Z</time>
      </trkpt>
      <trkpt lat="43.376261405646800994873046875" lon="-4.5344082824885845184326171875">
        <ele>36.59999847412109375</ele>
        <time>2018-09-06T10:18:33.000Z</time>
      </trkpt>
      <trkpt lat="43.37629300542175769805908203125" lon="-4.53457835130393505096435546875">
        <ele>37</ele>
        <time>2018-09-06T10:18:37.000Z</time>
      </trkpt>
      <trkpt lat="43.37630826048552989959716796875" lon="-4.5346604101359844207763671875">
        <ele>37.59999847412109375</ele>
        <time>2018-09-06T10:18:39.000Z</time>
      </trkpt>
      <trkpt lat="43.3763152174651622772216796875" lon="-4.5347023196518421173095703125">
        <ele>37.799999237060546875</ele>
        <time>2018-09-06T10:18:40.000Z</time>
      </trkpt>
      <trkpt lat="43.376378081738948822021484375" lon="-4.5349998772144317626953125">
        <ele>38.40000152587890625</ele>
        <time>2018-09-06T10:18:47.000Z</time>
      </trkpt>
      <trkpt lat="43.37639652192592620849609375" lon="-4.535089395940303802490234375">
        <ele>38.799999237060546875</ele>
        <time>2018-09-06T10:18:49.000Z</time>
      </trkpt>
      <trkpt lat="43.37647187523543834686279296875" lon="-4.53542844392359256744384765625">
        <ele>39.799999237060546875</ele>
        <time>2018-09-06T10:18:57.000Z</time>
      </trkpt>
      <trkpt lat="43.37651613168418407440185546875" lon="-4.53564100898802280426025390625">
        <ele>40.200000762939453125</ele>
        <time>2018-09-06T10:19:02.000Z</time>
      </trkpt>
      <trkpt lat="43.3765809237957000732421875" lon="-4.5359187014400959014892578125">
        <ele>40.59999847412109375</ele>
        <time>2018-09-06T10:19:08.000Z</time>
      </trkpt>
      <trkpt lat="43.376658372581005096435546875" lon="-4.53625070862472057342529296875">
        <ele>41</ele>
        <time>2018-09-06T10:19:15.000Z</time>
      </trkpt>
      <trkpt lat="43.376713693141937255859375" lon="-4.53646126203238964080810546875">
        <ele>40.59999847412109375</ele>
        <time>2018-09-06T10:19:19.000Z</time>
      </trkpt>
      <trkpt lat="43.37676809169352054595947265625" lon="-4.53668137080967426300048828125">
        <ele>40.200000762939453125</ele>
        <time>2018-09-06T10:19:23.000Z</time>
      </trkpt>
      <trkpt lat="43.376826345920562744140625" lon="-4.5369020663201808929443359375">
        <ele>41.40000152587890625</ele>
        <time>2018-09-06T10:19:27.000Z</time>
      </trkpt>
      <trkpt lat="43.37691150605678558349609375" lon="-4.53723373822867870330810546875">
        <ele>41.40000152587890625</ele>
        <time>2018-09-06T10:19:33.000Z</time>
      </trkpt>
      <trkpt lat="43.3770099096000194549560546875" lon="-4.53761595301330089569091796875">
        <ele>41.799999237060546875</ele>
        <time>2018-09-06T10:19:40.000Z</time>
      </trkpt>
      <trkpt lat="43.37705676443874835968017578125" lon="-4.53778828494250774383544921875">
        <ele>42</ele>
        <time>2018-09-06T10:19:43.000Z</time>
      </trkpt>
      <trkpt lat="43.3771748654544353485107421875" lon="-4.5382502116262912750244140625">
        <ele>42.59999847412109375</ele>
        <time>2018-09-06T10:19:51.000Z</time>
      </trkpt>
      <trkpt lat="43.37720076553523540496826171875" lon="-4.53836378641426563262939453125">
        <ele>42.200000762939453125</ele>
        <time>2018-09-06T10:19:53.000Z</time>
      </trkpt>
      <trkpt lat="43.37731140665709972381591796875" lon="-4.53880584798753261566162109375">
        <ele>42.799999237060546875</ele>
        <time>2018-09-06T10:20:01.000Z</time>
      </trkpt>
      <trkpt lat="43.37737762369215488433837890625" lon="-4.53909301199018955230712890625">
        <ele>43</ele>
        <time>2018-09-06T10:20:06.000Z</time>
      </trkpt>
      <trkpt lat="43.377424813807010650634765625" lon="-4.5392590574920177459716796875">
        <ele>43.40000152587890625</ele>
        <time>2018-09-06T10:20:09.000Z</time>
      </trkpt>
      <trkpt lat="43.37747083045542240142822265625" lon="-4.53946516849100589752197265625">
        <ele>43.59999847412109375</ele>
        <time>2018-09-06T10:20:13.000Z</time>
      </trkpt>
      <trkpt lat="43.37750335223972797393798828125" lon="-4.53960766084492206573486328125">
        <ele>44.200000762939453125</ele>
        <time>2018-09-06T10:20:16.000Z</time>
      </trkpt>
      <trkpt lat="43.37753134779632091522216796875" lon="-4.53970304690301418304443359375">
        <ele>44.59999847412109375</ele>
        <time>2018-09-06T10:20:18.000Z</time>
      </trkpt>
      <trkpt lat="43.3775936253368854522705078125" lon="-4.53997529111802577972412109375">
        <ele>45.40000152587890625</ele>
        <time>2018-09-06T10:20:24.000Z</time>
      </trkpt>
      <trkpt lat="43.37762388400733470916748046875" lon="-4.54011292196810245513916015625">
        <ele>45.799999237060546875</ele>
        <time>2018-09-06T10:20:27.000Z</time>
      </trkpt>
      <trkpt lat="43.37767819873988628387451171875" lon="-4.5403352938592433929443359375">
        <ele>46.59999847412109375</ele>
        <time>2018-09-06T10:20:32.000Z</time>
      </trkpt>
      <trkpt lat="43.377686999738216400146484375" lon="-4.5403815619647502899169921875">
        <ele>46.59999847412109375</ele>
        <time>2018-09-06T10:20:33.000Z</time>
      </trkpt>
      <trkpt lat="43.37770384736359119415283203125" lon="-4.54046563245356082916259765625">
        <ele>47</ele>
        <time>2018-09-06T10:20:35.000Z</time>
      </trkpt>
      <trkpt lat="43.37774575687944889068603515625" lon="-4.54067316837608814239501953125">
        <ele>48.200000762939453125</ele>
        <time>2018-09-06T10:20:40.000Z</time>
      </trkpt>
      <trkpt lat="43.37779956869781017303466796875" lon="-4.5409156568348407745361328125">
        <ele>49.40000152587890625</ele>
        <time>2018-09-06T10:20:46.000Z</time>
      </trkpt>
      <trkpt lat="43.3778196014463901519775390625" lon="-4.5409971289336681365966796875">
        <ele>50</ele>
        <time>2018-09-06T10:20:48.000Z</time>
      </trkpt>
      <trkpt lat="43.37789612822234630584716796875" lon="-4.54135964624583721160888671875">
        <ele>50.59999847412109375</ele>
        <time>2018-09-06T10:20:57.000Z</time>
      </trkpt>
      <trkpt lat="43.3779744990170001983642578125" lon="-4.54170933924615383148193359375">
        <ele>51.200000762939453125</ele>
        <time>2018-09-06T10:21:05.000Z</time>
      </trkpt>
      <trkpt lat="43.3780174143612384796142578125" lon="-4.54193615354597568511962890625">
        <ele>51.40000152587890625</ele>
        <time>2018-09-06T10:21:10.000Z</time>
      </trkpt>
      <trkpt lat="43.37804515846073627471923828125" lon="-4.54207981936633586883544921875">
        <ele>51.40000152587890625</ele>
        <time>2018-09-06T10:21:13.000Z</time>
      </trkpt>
      <trkpt lat="43.37806619703769683837890625" lon="-4.54217168502509593963623046875">
        <ele>51.59999847412109375</ele>
        <time>2018-09-06T10:21:15.000Z</time>
      </trkpt>
      <trkpt lat="43.37813249789178371429443359375" lon="-4.54250209964811801910400390625">
        <ele>51.40000152587890625</ele>
        <time>2018-09-06T10:21:22.000Z</time>
      </trkpt>
      <trkpt lat="43.3781741559505462646484375" lon="-4.54277719371020793914794921875">
        <ele>51.59999847412109375</ele>
        <time>2018-09-06T10:21:27.000Z</time>
      </trkpt>
      <trkpt lat="43.378209359943866729736328125" lon="-4.5431589893996715545654296875">
        <ele>52.59999847412109375</ele>
        <time>2018-09-06T10:21:34.000Z</time>
      </trkpt>
      <trkpt lat="43.3782162331044673919677734375" lon="-4.54321682453155517578125">
        <ele>52.59999847412109375</ele>
        <time>2018-09-06T10:21:35.000Z</time>
      </trkpt>
      <trkpt lat="43.3782598190009593963623046875" lon="-4.54360884614288806915283203125">
        <ele>52.59999847412109375</ele>
        <time>2018-09-06T10:21:42.000Z</time>
      </trkpt>
      <trkpt lat="43.37827381677925586700439453125" lon="-4.5438194833695888519287109375">
        <ele>52.40000152587890625</ele>
        <time>2018-09-06T10:21:46.000Z</time>
      </trkpt>
      <trkpt lat="43.37830399163067340850830078125" lon="-4.544019810855388641357421875">
        <ele>53.40000152587890625</ele>
        <time>2018-09-06T10:21:50.000Z</time>
      </trkpt>
      <trkpt lat="43.37831237353384494781494140625" lon="-4.5440672524273395538330078125">
        <ele>54</ele>
        <time>2018-09-06T10:21:51.000Z</time>
      </trkpt>
      <trkpt lat="43.37837926112115383148193359375" lon="-4.54443278722465038299560546875">
        <ele>54.799999237060546875</ele>
        <time>2018-09-06T10:21:59.000Z</time>
      </trkpt>
      <trkpt lat="43.37843810208141803741455078125" lon="-4.54464267008006572723388671875">
        <ele>55</ele>
        <time>2018-09-06T10:22:04.000Z</time>
      </trkpt>
      <trkpt lat="43.37847196497023105621337890625" lon="-4.54476739279925823211669921875">
        <ele>55.200000762939453125</ele>
        <time>2018-09-06T10:22:07.000Z</time>
      </trkpt>
      <trkpt lat="43.37854052893817424774169921875" lon="-4.5450056903064250946044921875">
        <ele>56.200000762939453125</ele>
        <time>2018-09-06T10:22:13.000Z</time>
      </trkpt>
      <trkpt lat="43.37859132327139377593994140625" lon="-4.54517089761793613433837890625">
        <ele>56.40000152587890625</ele>
        <time>2018-09-06T10:22:17.000Z</time>
      </trkpt>
      <trkpt lat="43.37861730717122554779052734375" lon="-4.54525639303028583526611328125">
        <ele>56.200000762939453125</ele>
        <time>2018-09-06T10:22:19.000Z</time>
      </trkpt>
      <trkpt lat="43.37863055057823657989501953125" lon="-4.54529997892677783966064453125">
        <ele>54.59999847412109375</ele>
        <time>2018-09-06T10:22:20.000Z</time>
      </trkpt>
      <trkpt lat="43.3786691911518573760986328125" lon="-4.5454314909875392913818359375">
        <ele>57.200000762939453125</ele>
        <time>2018-09-06T10:22:23.000Z</time>
      </trkpt>
      <trkpt lat="43.37872375734150409698486328125" lon="-4.54564279876649379730224609375">
        <ele>57.200000762939453125</ele>
        <time>2018-09-06T10:22:28.000Z</time>
      </trkpt>
      <trkpt lat="43.37877538986504077911376953125" lon="-4.54581378959119319915771484375">
        <ele>57.40000152587890625</ele>
        <time>2018-09-06T10:22:32.000Z</time>
      </trkpt>
      <trkpt lat="43.37884537875652313232421875" lon="-4.546086452901363372802734375">
        <ele>57.799999237060546875</ele>
        <time>2018-09-06T10:22:38.000Z</time>
      </trkpt>
      <trkpt lat="43.37886692024767398834228515625" lon="-4.5461711101233959197998046875">
        <ele>58.40000152587890625</ele>
        <time>2018-09-06T10:22:40.000Z</time>
      </trkpt>
      <trkpt lat="43.37895375676453113555908203125" lon="-4.5465204678475856781005859375">
        <ele>58.59999847412109375</ele>
        <time>2018-09-06T10:22:48.000Z</time>
      </trkpt>
      <trkpt lat="43.37902450002729892730712890625" lon="-4.546789191663265228271484375">
        <ele>59.40000152587890625</ele>
        <time>2018-09-06T10:22:54.000Z</time>
      </trkpt>
      <trkpt lat="43.379075713455677032470703125" lon="-4.54700502566993236541748046875">
        <ele>59.799999237060546875</ele>
        <time>2018-09-06T10:22:59.000Z</time>
      </trkpt>
      <trkpt lat="43.37910823523998260498046875" lon="-4.54712815582752227783203125">
        <ele>60</ele>
        <time>2018-09-06T10:23:02.000Z</time>
      </trkpt>
      <trkpt lat="43.37916011922061443328857421875" lon="-4.5473459176719188690185546875">
        <ele>60.200000762939453125</ele>
        <time>2018-09-06T10:23:07.000Z</time>
      </trkpt>
      <trkpt lat="43.37920018471777439117431640625" lon="-4.54757499508559703826904296875">
        <ele>60.40000152587890625</ele>
        <time>2018-09-06T10:23:12.000Z</time>
      </trkpt>
      <trkpt lat="43.379236645996570587158203125" lon="-4.54775218851864337921142578125">
        <ele>61.200000762939453125</ele>
        <time>2018-09-06T10:23:16.000Z</time>
      </trkpt>
      <trkpt lat="43.379256762564182281494140625" lon="-4.54784028232097625732421875">
        <ele>61.59999847412109375</ele>
        <time>2018-09-06T10:23:18.000Z</time>
      </trkpt>
      <trkpt lat="43.37931501679122447967529296875" lon="-4.54810204915702342987060546875">
        <ele>62</ele>
        <time>2018-09-06T10:23:24.000Z</time>
      </trkpt>
      <trkpt lat="43.3793538250029087066650390625" lon="-4.5482769794762134552001953125">
        <ele>62.59999847412109375</ele>
        <time>2018-09-06T10:23:28.000Z</time>
      </trkpt>
      <trkpt lat="43.37941057048738002777099609375" lon="-4.54855936579406261444091796875">
        <ele>62.799999237060546875</ele>
        <time>2018-09-06T10:23:34.000Z</time>
      </trkpt>
      <trkpt lat="43.3794658072292804718017578125" lon="-4.5488258264958858489990234375">
        <ele>63.59999847412109375</ele>
        <time>2018-09-06T10:23:40.000Z</time>
      </trkpt>
      <trkpt lat="43.3794929645955562591552734375" lon="-4.548974521458148956298828125">
        <ele>63.59999847412109375</ele>
        <time>2018-09-06T10:23:43.000Z</time>
      </trkpt>
      <trkpt lat="43.37957083247601985931396484375" lon="-4.549419768154621124267578125">
        <ele>64.59999847412109375</ele>
        <time>2018-09-06T10:23:52.000Z</time>
      </trkpt>
      <trkpt lat="43.37966621853411197662353515625" lon="-4.5499171502888202667236328125">
        <ele>65</ele>
        <time>2018-09-06T10:24:02.000Z</time>
      </trkpt>
      <trkpt lat="43.37974484078586101531982421875" lon="-4.5504046417772769927978515625">
        <ele>65.1999969482421875</ele>
        <time>2018-09-06T10:24:12.000Z</time>
      </trkpt>
      <trkpt lat="43.3797642029821872711181640625" lon="-4.550510086119174957275390625">
        <ele>66</ele>
        <time>2018-09-06T10:24:14.000Z</time>
      </trkpt>
      <trkpt lat="43.3798037655651569366455078125" lon="-4.550730027258396148681640625">
        <ele>66.8000030517578125</ele>
        <time>2018-09-06T10:24:18.000Z</time>
      </trkpt>
      <trkpt lat="43.37984710000455379486083984375" lon="-4.55095566809177398681640625">
        <ele>67</ele>
        <time>2018-09-06T10:24:22.000Z</time>
      </trkpt>
      <trkpt lat="43.3798574097454547882080078125" lon="-4.55101660452783107757568359375">
        <ele>67</ele>
        <time>2018-09-06T10:24:23.000Z</time>
      </trkpt>
      <trkpt lat="43.37993645109236240386962890625" lon="-4.55138389952480792999267578125">
        <ele>66.8000030517578125</ele>
        <time>2018-09-06T10:24:29.000Z</time>
      </trkpt>
      <trkpt lat="43.37999512441456317901611328125" lon="-4.55164575017988681793212890625">
        <ele>66</ele>
        <time>2018-09-06T10:24:33.000Z</time>
      </trkpt>
      <trkpt lat="43.38007207028567790985107421875" lon="-4.551910869777202606201171875">
        <ele>66.40000152587890625</ele>
        <time>2018-09-06T10:24:37.000Z</time>
      </trkpt>
      <trkpt lat="43.38013283908367156982421875" lon="-4.5521185733377933502197265625">
        <ele>65.8000030517578125</ele>
        <time>2018-09-06T10:24:40.000Z</time>
      </trkpt>
      <trkpt lat="43.38017030619084835052490234375" lon="-4.55226634629070758819580078125">
        <ele>65.1999969482421875</ele>
        <time>2018-09-06T10:24:42.000Z</time>
      </trkpt>
      <trkpt lat="43.38022009469568729400634765625" lon="-4.552411772310733795166015625">
        <ele>64.8000030517578125</ele>
        <time>2018-09-06T10:24:44.000Z</time>
      </trkpt>
      <trkpt lat="43.3802446536719799041748046875" lon="-4.5524880476295948028564453125">
        <ele>64.40000152587890625</ele>
        <time>2018-09-06T10:24:45.000Z</time>
      </trkpt>
      <trkpt lat="43.3802701346576213836669921875" lon="-4.55256608314812183380126953125">
        <ele>63.799999237060546875</ele>
        <time>2018-09-06T10:24:46.000Z</time>
      </trkpt>
      <trkpt lat="43.380426205694675445556640625" lon="-4.5529425144195556640625">
        <ele>62.799999237060546875</ele>
        <time>2018-09-06T10:24:51.000Z</time>
      </trkpt>
      <trkpt lat="43.38052251376211643218994140625" lon="-4.5530637167394161224365234375">
        <ele>62.40000152587890625</ele>
        <time>2018-09-06T10:24:53.000Z</time>
      </trkpt>
      <trkpt lat="43.38064757175743579864501953125" lon="-4.553124569356441497802734375">
        <ele>61.59999847412109375</ele>
        <time>2018-09-06T10:24:55.000Z</time>
      </trkpt>
      <trkpt lat="43.38077380321919918060302734375" lon="-4.55311627127230167388916015625">
        <ele>60.40000152587890625</ele>
        <time>2018-09-06T10:24:57.000Z</time>
      </trkpt>
      <trkpt lat="43.3808340691030025482177734375" lon="-4.55310571007430553436279296875">
        <ele>60.40000152587890625</ele>
        <time>2018-09-06T10:24:58.000Z</time>
      </trkpt>
      <trkpt lat="43.3808964304625988006591796875" lon="-4.5530942268669605255126953125">
        <ele>60.59999847412109375</ele>
        <time>2018-09-06T10:24:59.000Z</time>
      </trkpt>
      <trkpt lat="43.38107622228562831878662109375" lon="-4.55305960960686206817626953125">
        <ele>61.59999847412109375</ele>
        <time>2018-09-06T10:25:02.000Z</time>
      </trkpt>
      <trkpt lat="43.38125341571867465972900390625" lon="-4.553029350936412811279296875">
        <ele>61.59999847412109375</ele>
        <time>2018-09-06T10:25:05.000Z</time>
      </trkpt>
      <trkpt lat="43.38136305101215839385986328125" lon="-4.5530164428055286407470703125">
        <ele>61.59999847412109375</ele>
        <time>2018-09-06T10:25:07.000Z</time>
      </trkpt>
      <trkpt lat="43.3814140968024730682373046875" lon="-4.5530335418879985809326171875">
        <ele>61.59999847412109375</ele>
        <time>2018-09-06T10:25:08.000Z</time>
      </trkpt>
      <trkpt lat="43.38149280287325382232666015625" lon="-4.55314074642956256866455078125">
        <ele>61.40000152587890625</ele>
        <time>2018-09-06T10:25:10.000Z</time>
      </trkpt>
      <trkpt lat="43.38154636323451995849609375" lon="-4.55334643833339214324951171875">
        <ele>60.799999237060546875</ele>
        <time>2018-09-06T10:25:13.000Z</time>
      </trkpt>
      <trkpt lat="43.38155935518443584442138671875" lon="-4.553419612348079681396484375">
        <ele>60.200000762939453125</ele>
        <time>2018-09-06T10:25:14.000Z</time>
      </trkpt>
      <trkpt lat="43.38165490888059139251708984375" lon="-4.5538093708455562591552734375">
        <ele>59</ele>
        <time>2018-09-06T10:25:19.000Z</time>
      </trkpt>
      <trkpt lat="43.3816984109580516815185546875" lon="-4.55398413352668285369873046875">
        <ele>58</ele>
        <time>2018-09-06T10:25:21.000Z</time>
      </trkpt>
      <trkpt lat="43.381718359887599945068359375" lon="-4.55407683737576007843017578125">
        <ele>57.40000152587890625</ele>
        <time>2018-09-06T10:25:22.000Z</time>
      </trkpt>
      <trkpt lat="43.38177057914435863494873046875" lon="-4.554265849292278289794921875">
        <ele>56.59999847412109375</ele>
        <time>2018-09-06T10:25:24.000Z</time>
      </trkpt>
      <trkpt lat="43.3818174339830875396728515625" lon="-4.55446064472198486328125">
        <ele>56</ele>
        <time>2018-09-06T10:25:26.000Z</time>
      </trkpt>
      <trkpt lat="43.38183595798909664154052734375" lon="-4.5545660890638828277587890625">
        <ele>53.40000152587890625</ele>
        <time>2018-09-06T10:25:27.000Z</time>
      </trkpt>
      <trkpt lat="43.3818821422755718231201171875" lon="-4.55479390919208526611328125">
        <ele>52</ele>
        <time>2018-09-06T10:25:29.000Z</time>
      </trkpt>
      <trkpt lat="43.38190251030027866363525390625" lon="-4.55491033382713794708251953125">
        <ele>51.200000762939453125</ele>
        <time>2018-09-06T10:25:30.000Z</time>
      </trkpt>
      <trkpt lat="43.38194341398775577545166015625" lon="-4.5551447756588459014892578125">
        <ele>51.200000762939453125</ele>
        <time>2018-09-06T10:25:32.000Z</time>
      </trkpt>
      <trkpt lat="43.3820118941366672515869140625" lon="-4.55549262464046478271484375">
        <ele>50.59999847412109375</ele>
        <time>2018-09-06T10:25:35.000Z</time>
      </trkpt>
      <trkpt lat="43.38212060742080211639404296875" lon="-4.5559316687285900115966796875">
        <ele>50</ele>
        <time>2018-09-06T10:25:39.000Z</time>
      </trkpt>
      <trkpt lat="43.38222496211528778076171875" lon="-4.55632905475795269012451171875">
        <ele>49.799999237060546875</ele>
        <time>2018-09-06T10:25:43.000Z</time>
      </trkpt>
      <trkpt lat="43.38227097876369953155517578125" lon="-4.5565056614577770233154296875">
        <ele>50</ele>
        <time>2018-09-06T10:25:45.000Z</time>
      </trkpt>
      <trkpt lat="43.38233870454132556915283203125" lon="-4.55674127675592899322509765625">
        <ele>49.59999847412109375</ele>
        <time>2018-09-06T10:25:48.000Z</time>
      </trkpt>
      <trkpt lat="43.38239620439708232879638671875" lon="-4.5569502376019954681396484375">
        <ele>49.799999237060546875</ele>
        <time>2018-09-06T10:25:51.000Z</time>
      </trkpt>
      <trkpt lat="43.3825188316404819488525390625" lon="-4.55726581625640392303466796875">
        <ele>49.40000152587890625</ele>
        <time>2018-09-06T10:25:56.000Z</time>
      </trkpt>
      <trkpt lat="43.38258245028555393218994140625" lon="-4.55738852731883525848388671875">
        <ele>49.200000762939453125</ele>
        <time>2018-09-06T10:25:58.000Z</time>
      </trkpt>
      <trkpt lat="43.38269610889256000518798828125" lon="-4.5576028525829315185546875">
        <ele>49.59999847412109375</ele>
        <time>2018-09-06T10:26:02.000Z</time>
      </trkpt>
      <trkpt lat="43.3827427960932254791259765625" lon="-4.557681977748870849609375">
        <ele>50</ele>
        <time>2018-09-06T10:26:04.000Z</time>
      </trkpt>
      <trkpt lat="43.38277104310691356658935546875" lon="-4.5577522180974483489990234375">
        <ele>50.799999237060546875</ele>
        <time>2018-09-06T10:26:06.000Z</time>
      </trkpt>
      <trkpt lat="43.3828007988631725311279296875" lon="-4.55780108459293842315673828125">
        <ele>50.799999237060546875</ele>
        <time>2018-09-06T10:26:08.000Z</time>
      </trkpt>
      <trkpt lat="43.3828128688037395477294921875" lon="-4.5578323490917682647705078125">
        <ele>51</ele>
        <time>2018-09-06T10:26:09.000Z</time>
      </trkpt>
      <trkpt lat="43.3828695304691791534423828125" lon="-4.55799940042197704315185546875">
        <ele>51.799999237060546875</ele>
        <time>2018-09-06T10:26:14.000Z</time>
      </trkpt>
      <trkpt lat="43.38288034312427043914794921875" lon="-4.55803058110177516937255859375">
        <ele>52.40000152587890625</ele>
        <time>2018-09-06T10:26:15.000Z</time>
      </trkpt>
      <trkpt lat="43.38291269727051258087158203125" lon="-4.55813082866370677947998046875">
        <ele>52.799999237060546875</ele>
        <time>2018-09-06T10:26:18.000Z</time>
      </trkpt>
      <trkpt lat="43.38292300701141357421875" lon="-4.5581629313528537750244140625">
        <ele>53</ele>
        <time>2018-09-06T10:26:19.000Z</time>
      </trkpt>
      <trkpt lat="43.38295460678637027740478515625" lon="-4.558260999619960784912109375">
        <ele>53.59999847412109375</ele>
        <time>2018-09-06T10:26:22.000Z</time>
      </trkpt>
      <trkpt lat="43.38296282105147838592529296875" lon="-4.5582953654229640960693359375">
        <ele>54</ele>
        <time>2018-09-06T10:26:23.000Z</time>
      </trkpt>
      <trkpt lat="43.38297086767852306365966796875" lon="-4.558330066502094268798828125">
        <ele>53.799999237060546875</ele>
        <time>2018-09-06T10:26:24.000Z</time>
      </trkpt>
      <trkpt lat="43.38300020433962345123291015625" lon="-4.558468200266361236572265625">
        <ele>54.200000762939453125</ele>
        <time>2018-09-06T10:26:28.000Z</time>
      </trkpt>
      <trkpt lat="43.3830358274281024932861328125" lon="-4.5585689507424831390380859375">
        <ele>55</ele>
        <time>2018-09-06T10:26:31.000Z</time>
      </trkpt>
      <trkpt lat="43.38305912911891937255859375" lon="-4.5586795918643474578857421875">
        <ele>55.799999237060546875</ele>
        <time>2018-09-06T10:26:34.000Z</time>
      </trkpt>
      <trkpt lat="43.3830772340297698974609375" lon="-4.5587593875825405120849609375">
        <ele>56.200000762939453125</ele>
        <time>2018-09-06T10:26:36.000Z</time>
      </trkpt>
      <trkpt lat="43.38312677107751369476318359375" lon="-4.55896516330540180206298828125">
        <ele>56.799999237060546875</ele>
        <time>2018-09-06T10:26:41.000Z</time>
      </trkpt>
      <trkpt lat="43.3831742964684963226318359375" lon="-4.55914235673844814300537109375">
        <ele>57.200000762939453125</ele>
        <time>2018-09-06T10:26:45.000Z</time>
      </trkpt>
      <trkpt lat="43.3831840194761753082275390625" lon="-4.55919206142425537109375">
        <ele>57.200000762939453125</ele>
        <time>2018-09-06T10:26:46.000Z</time>
      </trkpt>
      <trkpt lat="43.3832564391195774078369140625" lon="-4.55951250158250331878662109375">
        <ele>57.200000762939453125</ele>
        <time>2018-09-06T10:26:52.000Z</time>
      </trkpt>
      <trkpt lat="43.3833174593746662139892578125" lon="-4.559742249548435211181640625">
        <ele>57.40000152587890625</ele>
        <time>2018-09-06T10:26:56.000Z</time>
      </trkpt>
      <trkpt lat="43.38332558982074260711669921875" lon="-4.5598034374415874481201171875">
        <ele>57.200000762939453125</ele>
        <time>2018-09-06T10:26:57.000Z</time>
      </trkpt>
      <trkpt lat="43.38335207663476467132568359375" lon="-4.5599807985126972198486328125">
        <ele>56.59999847412109375</ele>
        <time>2018-09-06T10:27:00.000Z</time>
      </trkpt>
      <trkpt lat="43.38341963477432727813720703125" lon="-4.56030023284256458282470703125">
        <ele>56.799999237060546875</ele>
        <time>2018-09-06T10:27:06.000Z</time>
      </trkpt>
      <trkpt lat="43.38342734612524509429931640625" lon="-4.56035756506025791168212890625">
        <ele>56.59999847412109375</ele>
        <time>2018-09-06T10:27:07.000Z</time>
      </trkpt>
      <trkpt lat="43.38351133279502391815185546875" lon="-4.560737349092960357666015625">
        <ele>56.40000152587890625</ele>
        <time>2018-09-06T10:27:13.000Z</time>
      </trkpt>
      <trkpt lat="43.38352046906948089599609375" lon="-4.5608082599937915802001953125">
        <ele>56.200000762939453125</ele>
        <time>2018-09-06T10:27:14.000Z</time>
      </trkpt>
      <trkpt lat="43.38353547267615795135498046875" lon="-4.56095938570797443389892578125">
        <ele>55.200000762939453125</ele>
        <time>2018-09-06T10:27:16.000Z</time>
      </trkpt>
      <trkpt lat="43.38354636915028095245361328125" lon="-4.56103800795972347259521484375">
        <ele>54.799999237060546875</ele>
        <time>2018-09-06T10:27:17.000Z</time>
      </trkpt>
      <trkpt lat="43.3835548348724842071533203125" lon="-4.56112367101013660430908203125">
        <ele>54.200000762939453125</ele>
        <time>2018-09-06T10:27:18.000Z</time>
      </trkpt>
      <trkpt lat="43.38356070220470428466796875" lon="-4.5612136088311672210693359375">
        <ele>53.59999847412109375</ele>
        <time>2018-09-06T10:27:19.000Z</time>
      </trkpt>
      <trkpt lat="43.383570425212383270263671875" lon="-4.56140647642314434051513671875">
        <ele>52.59999847412109375</ele>
        <time>2018-09-06T10:27:21.000Z</time>
      </trkpt>
      <trkpt lat="43.38357503525912761688232421875" lon="-4.5616092346608638763427734375">
        <ele>51.59999847412109375</ele>
        <time>2018-09-06T10:27:23.000Z</time>
      </trkpt>
      <trkpt lat="43.38357419706881046295166015625" lon="-4.561707973480224609375">
        <ele>51</ele>
        <time>2018-09-06T10:27:24.000Z</time>
      </trkpt>
      <trkpt lat="43.3835642226040363311767578125" lon="-4.561812914907932281494140625">
        <ele>49.799999237060546875</ele>
        <time>2018-09-06T10:27:25.000Z</time>
      </trkpt>
      <trkpt lat="43.38356070220470428466796875" lon="-4.56192095763981342315673828125">
        <ele>48.799999237060546875</ele>
        <time>2018-09-06T10:27:26.000Z</time>
      </trkpt>
      <trkpt lat="43.3835601992905139923095703125" lon="-4.56203411333262920379638671875">
        <ele>47.59999847412109375</ele>
        <time>2018-09-06T10:27:27.000Z</time>
      </trkpt>
      <trkpt lat="43.38356564752757549285888671875" lon="-4.56226930953562259674072265625">
        <ele>46.799999237060546875</ele>
        <time>2018-09-06T10:27:29.000Z</time>
      </trkpt>
      <trkpt lat="43.38356967084109783172607421875" lon="-4.56238925457000732421875">
        <ele>46.200000762939453125</ele>
        <time>2018-09-06T10:27:30.000Z</time>
      </trkpt>
      <trkpt lat="43.3835886977612972259521484375" lon="-4.5626405440270900726318359375">
        <ele>44.59999847412109375</ele>
        <time>2018-09-06T10:27:32.000Z</time>
      </trkpt>
      <trkpt lat="43.383622057735919952392578125" lon="-4.56289091147482395172119140625">
        <ele>43</ele>
        <time>2018-09-06T10:27:34.000Z</time>
      </trkpt>
      <trkpt lat="43.383636809885501861572265625" lon="-4.563010521233081817626953125">
        <ele>42.200000762939453125</ele>
        <time>2018-09-06T10:27:35.000Z</time>
      </trkpt>
      <trkpt lat="43.38365818373858928680419921875" lon="-4.56335543654859066009521484375">
        <ele>41.40000152587890625</ele>
        <time>2018-09-06T10:27:38.000Z</time>
      </trkpt>
      <trkpt lat="43.38364728726446628570556640625" lon="-4.56355266273021697998046875">
        <ele>41</ele>
        <time>2018-09-06T10:27:40.000Z</time>
      </trkpt>
      <trkpt lat="43.38361543603241443634033203125" lon="-4.5637922175228595733642578125">
        <ele>41.40000152587890625</ele>
        <time>2018-09-06T10:27:43.000Z</time>
      </trkpt>
      <trkpt lat="43.3836068026721477508544921875" lon="-4.56386514008045196533203125">
        <ele>41.200000762939453125</ele>
        <time>2018-09-06T10:27:44.000Z</time>
      </trkpt>
      <trkpt lat="43.38357604108750820159912109375" lon="-4.56406270153820514678955078125">
        <ele>42</ele>
        <time>2018-09-06T10:27:47.000Z</time>
      </trkpt>
      <trkpt lat="43.38356380350887775421142578125" lon="-4.56418256275355815887451171875">
        <ele>42.59999847412109375</ele>
        <time>2018-09-06T10:27:49.000Z</time>
      </trkpt>
      <trkpt lat="43.38355659507215023040771484375" lon="-4.56430024467408657073974609375">
        <ele>43</ele>
        <time>2018-09-06T10:27:51.000Z</time>
      </trkpt>
      <trkpt lat="43.38355173356831073760986328125" lon="-4.5644102990627288818359375">
        <ele>43.40000152587890625</ele>
        <time>2018-09-06T10:27:53.000Z</time>
      </trkpt>
      <trkpt lat="43.38354821316897869110107421875" lon="-4.564461596310138702392578125">
        <ele>43.59999847412109375</ele>
        <time>2018-09-06T10:27:54.000Z</time>
      </trkpt>
      <trkpt lat="43.3835384063422679901123046875" lon="-4.5645593293011188507080078125">
        <ele>44.40000152587890625</ele>
        <time>2018-09-06T10:27:56.000Z</time>
      </trkpt>
      <trkpt lat="43.38353346101939678192138671875" lon="-4.56465060822665691375732421875">
        <ele>44.59999847412109375</ele>
        <time>2018-09-06T10:27:58.000Z</time>
      </trkpt>
      <trkpt lat="43.3835300244390964508056640625" lon="-4.56468262709677219390869140625">
        <ele>44.799999237060546875</ele>
        <time>2018-09-06T10:27:59.000Z</time>
      </trkpt>
      <trkpt lat="43.38353027589619159698486328125" lon="-4.564843140542507171630859375">
        <ele>45</ele>
        <time>2018-09-06T10:28:03.000Z</time>
      </trkpt>
      <trkpt lat="43.38353119790554046630859375" lon="-4.56502259708940982818603515625">
        <ele>45.200000762939453125</ele>
        <time>2018-09-06T10:28:07.000Z</time>
      </trkpt>
      <trkpt lat="43.38353882543742656707763671875" lon="-4.5652191527187824249267578125">
        <ele>45</ele>
        <time>2018-09-06T10:28:11.000Z</time>
      </trkpt>
      <trkpt lat="43.38356682099401950836181640625" lon="-4.5654364116489887237548828125">
        <ele>44.59999847412109375</ele>
        <time>2018-09-06T10:28:15.000Z</time>
      </trkpt>
      <trkpt lat="43.38360403664410114288330078125" lon="-4.56554831005632877349853515625">
        <ele>44.59999847412109375</ele>
        <time>2018-09-06T10:28:17.000Z</time>
      </trkpt>
      <trkpt lat="43.383628427982330322265625" lon="-4.56560882739722728729248046875">
        <ele>44.200000762939453125</ele>
        <time>2018-09-06T10:28:18.000Z</time>
      </trkpt>
      <trkpt lat="43.3836540766060352325439453125" lon="-4.56567387096583843231201171875">
        <ele>43.799999237060546875</ele>
        <time>2018-09-06T10:28:19.000Z</time>
      </trkpt>
      <trkpt lat="43.38372976519167423248291015625" lon="-4.56589532084763050079345703125">
        <ele>42.799999237060546875</ele>
        <time>2018-09-06T10:28:22.000Z</time>
      </trkpt>
      <trkpt lat="43.3837563358247280120849609375" lon="-4.5659752003848552703857421875">
        <ele>42.40000152587890625</ele>
        <time>2018-09-06T10:28:23.000Z</time>
      </trkpt>
      <trkpt lat="43.38378257118165493011474609375" lon="-4.56605927087366580963134765625">
        <ele>42</ele>
        <time>2018-09-06T10:28:24.000Z</time>
      </trkpt>
      <trkpt lat="43.383805789053440093994140625" lon="-4.56614426337182521820068359375">
        <ele>41.40000152587890625</ele>
        <time>2018-09-06T10:28:25.000Z</time>
      </trkpt>
      <trkpt lat="43.38384912349283695220947265625" lon="-4.566308967769145965576171875">
        <ele>40</ele>
        <time>2018-09-06T10:28:27.000Z</time>
      </trkpt>
      <trkpt lat="43.3838984929025173187255859375" lon="-4.566465876996517181396484375">
        <ele>39.59999847412109375</ele>
        <time>2018-09-06T10:28:29.000Z</time>
      </trkpt>
      <trkpt lat="43.3839521370828151702880859375" lon="-4.56661532633006572723388671875">
        <ele>40.40000152587890625</ele>
        <time>2018-09-06T10:28:31.000Z</time>
      </trkpt>
      <trkpt lat="43.3840455114841461181640625" lon="-4.5669733174145221710205078125">
        <ele>40.200000762939453125</ele>
        <time>2018-09-06T10:28:36.000Z</time>
      </trkpt>
      <trkpt lat="43.3840369619429111480712890625" lon="-4.56704079173505306243896484375">
        <ele>39.799999237060546875</ele>
        <time>2018-09-06T10:28:37.000Z</time>
      </trkpt>
      <trkpt lat="43.38403486646711826324462890625" lon="-4.56710566766560077667236328125">
        <ele>39.59999847412109375</ele>
        <time>2018-09-06T10:28:38.000Z</time>
      </trkpt>
      <trkpt lat="43.38404291309416294097900390625" lon="-4.56717255525290966033935546875">
        <ele>39.59999847412109375</ele>
        <time>2018-09-06T10:28:39.000Z</time>
      </trkpt>
      <trkpt lat="43.3841073699295520782470703125" lon="-4.5673783309757709503173828125">
        <ele>39</ele>
        <time>2018-09-06T10:28:42.000Z</time>
      </trkpt>
      <trkpt lat="43.38413142599165439605712890625" lon="-4.56744815222918987274169921875">
        <ele>39</ele>
        <time>2018-09-06T10:28:43.000Z</time>
      </trkpt>
      <trkpt lat="43.38423301465809345245361328125" lon="-4.5677387528121471405029296875">
        <ele>37.799999237060546875</ele>
        <time>2018-09-06T10:28:47.000Z</time>
      </trkpt>
      <trkpt lat="43.38428498245775699615478515625" lon="-4.56788803450763225555419921875">
        <ele>37</ele>
        <time>2018-09-06T10:28:49.000Z</time>
      </trkpt>
      <trkpt lat="43.38431037962436676025390625" lon="-4.56796263344585895538330078125">
        <ele>36.59999847412109375</ele>
        <time>2018-09-06T10:28:50.000Z</time>
      </trkpt>
      <trkpt lat="43.384384810924530029296875" lon="-4.5681816525757312774658203125">
        <ele>36.40000152587890625</ele>
        <time>2018-09-06T10:28:53.000Z</time>
      </trkpt>
      <trkpt lat="43.38448681868612766265869140625" lon="-4.56846739165484905242919921875">
        <ele>35.59999847412109375</ele>
        <time>2018-09-06T10:28:57.000Z</time>
      </trkpt>
      <trkpt lat="43.38451364077627658843994140625" lon="-4.56854048185050487518310546875">
        <ele>35.40000152587890625</ele>
        <time>2018-09-06T10:28:58.000Z</time>
      </trkpt>
      <trkpt lat="43.3846651017665863037109375" lon="-4.5689370296895503997802734375">
        <ele>36</ele>
        <time>2018-09-06T10:29:04.000Z</time>
      </trkpt>
      <trkpt lat="43.3848225139081478118896484375" lon="-4.56939996220171451568603515625">
        <ele>35.200000762939453125</ele>
        <time>2018-09-06T10:29:11.000Z</time>
      </trkpt>
      <trkpt lat="43.38489652611315250396728515625" lon="-4.56967748701572418212890625">
        <ele>34.40000152587890625</ele>
        <time>2018-09-06T10:29:15.000Z</time>
      </trkpt>
      <trkpt lat="43.38496240787208080291748046875" lon="-4.56987739540636539459228515625">
        <ele>34.799999237060546875</ele>
        <time>2018-09-06T10:29:18.000Z</time>
      </trkpt>
      <trkpt lat="43.385023511946201324462890625" lon="-4.570076465606689453125">
        <ele>34.40000152587890625</ele>
        <time>2018-09-06T10:29:21.000Z</time>
      </trkpt>
      <trkpt lat="43.3851105161011219024658203125" lon="-4.5702761225402355194091796875">
        <ele>34.59999847412109375</ele>
        <time>2018-09-06T10:29:24.000Z</time>
      </trkpt>
      <trkpt lat="43.38515519164502620697021484375" lon="-4.570418782532215118408203125">
        <ele>34.200000762939453125</ele>
        <time>2018-09-06T10:29:26.000Z</time>
      </trkpt>
      <trkpt lat="43.38519726879894733428955078125" lon="-4.57056269980967044830322265625">
        <ele>34</ele>
        <time>2018-09-06T10:29:28.000Z</time>
      </trkpt>
      <trkpt lat="43.38524018414318561553955078125" lon="-4.57070888020098209381103515625">
        <ele>34.200000762939453125</ele>
        <time>2018-09-06T10:29:30.000Z</time>
      </trkpt>
      <trkpt lat="43.38528963737189769744873046875" lon="-4.57093150354921817779541015625">
        <ele>33.200000762939453125</ele>
        <time>2018-09-06T10:29:33.000Z</time>
      </trkpt>
      <trkpt lat="43.38537010364234447479248046875" lon="-4.571236856281757354736328125">
        <ele>33</ele>
        <time>2018-09-06T10:29:37.000Z</time>
      </trkpt>
      <trkpt lat="43.3855111710727214813232421875" lon="-4.571790732443332672119140625">
        <ele>31.799999237060546875</ele>
        <time>2018-09-06T10:29:44.000Z</time>
      </trkpt>
      <trkpt lat="43.38554830290377140045166015625" lon="-4.57194889895617961883544921875">
        <ele>31.3999996185302734375</ele>
        <time>2018-09-06T10:29:46.000Z</time>
      </trkpt>
      <trkpt lat="43.38564117439091205596923828125" lon="-4.57232256419956684112548828125">
        <ele>30.799999237060546875</ele>
        <time>2018-09-06T10:29:51.000Z</time>
      </trkpt>
      <trkpt lat="43.3857063017785549163818359375" lon="-4.57260780036449432373046875">
        <ele>29.799999237060546875</ele>
        <time>2018-09-06T10:29:55.000Z</time>
      </trkpt>
      <trkpt lat="43.38572264648973941802978515625" lon="-4.5726768672466278076171875">
        <ele>29.799999237060546875</ele>
        <time>2018-09-06T10:29:56.000Z</time>
      </trkpt>
      <trkpt lat="43.38573840446770191192626953125" lon="-4.57282128743827342987060546875">
        <ele>29.799999237060546875</ele>
        <time>2018-09-06T10:29:58.000Z</time>
      </trkpt>
      <trkpt lat="43.385744355618953704833984375" lon="-4.57302899099886417388916015625">
        <ele>29.200000762939453125</ele>
        <time>2018-09-06T10:30:01.000Z</time>
      </trkpt>
      <trkpt lat="43.3857307769358158111572265625" lon="-4.57309068180620670318603515625">
        <ele>28.6000003814697265625</ele>
        <time>2018-09-06T10:30:02.000Z</time>
      </trkpt>
      <trkpt lat="43.385693393647670745849609375" lon="-4.573429562151432037353515625">
        <ele>28.3999996185302734375</ele>
        <time>2018-09-06T10:30:07.000Z</time>
      </trkpt>
      <trkpt lat="43.38570102117955684661865234375" lon="-4.57350759766995906829833984375">
        <ele>28.3999996185302734375</ele>
        <time>2018-09-06T10:30:08.000Z</time>
      </trkpt>
      <trkpt lat="43.38575013913214206695556640625" lon="-4.5737623237073421478271484375">
        <ele>27.6000003814697265625</ele>
        <time>2018-09-06T10:30:11.000Z</time>
      </trkpt>
      <trkpt lat="43.38589732535183429718017578125" lon="-4.5744835026562213897705078125">
        <ele>27.3999996185302734375</ele>
        <time>2018-09-06T10:30:19.000Z</time>
      </trkpt>
      <trkpt lat="43.38597175665199756622314453125" lon="-4.57505456171929836273193359375">
        <ele>27.200000762939453125</ele>
        <time>2018-09-06T10:30:26.000Z</time>
      </trkpt>
      <trkpt lat="43.3859835751354694366455078125" lon="-4.5752303302288055419921875">
        <ele>26.200000762939453125</ele>
        <time>2018-09-06T10:30:28.000Z</time>
      </trkpt>
      <trkpt lat="43.3860382251441478729248046875" lon="-4.5756019838154315948486328125">
        <ele>25</ele>
        <time>2018-09-06T10:30:32.000Z</time>
      </trkpt>
      <trkpt lat="43.38606261648237705230712890625" lon="-4.5756931789219379425048828125">
        <ele>24.6000003814697265625</ele>
        <time>2018-09-06T10:30:33.000Z</time>
      </trkpt>
      <trkpt lat="43.386102430522441864013671875" lon="-4.57576836459338665008544921875">
        <ele>24.3999996185302734375</ele>
        <time>2018-09-06T10:30:34.000Z</time>
      </trkpt>
      <trkpt lat="43.3861885964870452880859375" lon="-4.575891159474849700927734375">
        <ele>25</ele>
        <time>2018-09-06T10:30:36.000Z</time>
      </trkpt>
      <trkpt lat="43.38629932142794132232666015625" lon="-4.57604236900806427001953125">
        <ele>26.200000762939453125</ele>
        <time>2018-09-06T10:30:39.000Z</time>
      </trkpt>
      <trkpt lat="43.38636050932109355926513671875" lon="-4.576130211353302001953125">
        <ele>26.6000003814697265625</ele>
        <time>2018-09-06T10:30:41.000Z</time>
      </trkpt>
      <trkpt lat="43.38644885458052158355712890625" lon="-4.5762455463409423828125">
        <ele>27.200000762939453125</ele>
        <time>2018-09-06T10:30:44.000Z</time>
      </trkpt>
      <trkpt lat="43.38655061088502407073974609375" lon="-4.57640178501605987548828125">
        <ele>27.6000003814697265625</ele>
        <time>2018-09-06T10:30:48.000Z</time>
      </trkpt>
      <trkpt lat="43.38668036274611949920654296875" lon="-4.57659414969384670257568359375">
        <ele>28.3999996185302734375</ele>
        <time>2018-09-06T10:30:53.000Z</time>
      </trkpt>
      <trkpt lat="43.38677801191806793212890625" lon="-4.57673546858131885528564453125">
        <ele>29.6000003814697265625</ele>
        <time>2018-09-06T10:30:57.000Z</time>
      </trkpt>
      <trkpt lat="43.3868425525724887847900390625" lon="-4.5768478699028491973876953125">
        <ele>30.3999996185302734375</ele>
        <time>2018-09-06T10:31:00.000Z</time>
      </trkpt>
      <trkpt lat="43.38685956783592700958251953125" lon="-4.57688969559967517852783203125">
        <ele>30.6000003814697265625</ele>
        <time>2018-09-06T10:31:01.000Z</time>
      </trkpt>
      <trkpt lat="43.38690767996013164520263671875" lon="-4.57703537307679653167724609375">
        <ele>29.799999237060546875</ele>
        <time>2018-09-06T10:31:04.000Z</time>
      </trkpt>
      <trkpt lat="43.38692477904260158538818359375" lon="-4.57709438167512416839599609375">
        <ele>29.6000003814697265625</ele>
        <time>2018-09-06T10:31:05.000Z</time>
      </trkpt>
      <trkpt lat="43.38700088672339916229248046875" lon="-4.577379785478115081787109375">
        <ele>28.6000003814697265625</ele>
        <time>2018-09-06T10:31:09.000Z</time>
      </trkpt>
      <trkpt lat="43.38702904991805553436279296875" lon="-4.57754767499864101409912109375">
        <ele>27.6000003814697265625</ele>
        <time>2018-09-06T10:31:11.000Z</time>
      </trkpt>
      <trkpt lat="43.3870447240769863128662109375" lon="-4.577638618648052215576171875">
        <ele>27.200000762939453125</ele>
        <time>2018-09-06T10:31:12.000Z</time>
      </trkpt>
      <trkpt lat="43.3870574645698070526123046875" lon="-4.57783483900129795074462890625">
        <ele>26.200000762939453125</ele>
        <time>2018-09-06T10:31:14.000Z</time>
      </trkpt>
      <trkpt lat="43.3870554529130458831787109375" lon="-4.57794045098125934600830078125">
        <ele>25.6000003814697265625</ele>
        <time>2018-09-06T10:31:15.000Z</time>
      </trkpt>
      <trkpt lat="43.38705704547464847564697265625" lon="-4.5781621523201465606689453125">
        <ele>24.3999996185302734375</ele>
        <time>2018-09-06T10:31:17.000Z</time>
      </trkpt>
      <trkpt lat="43.38705159723758697509765625" lon="-4.578504972159862518310546875">
        <ele>23.200000762939453125</ele>
        <time>2018-09-06T10:31:20.000Z</time>
      </trkpt>
      <trkpt lat="43.38704581372439861297607421875" lon="-4.57874343730509281158447265625">
        <ele>21.799999237060546875</ele>
        <time>2018-09-06T10:31:22.000Z</time>
      </trkpt>
      <trkpt lat="43.38706140406429767608642578125" lon="-4.5790888555347919464111328125">
        <ele>20.3999996185302734375</ele>
        <time>2018-09-06T10:31:25.000Z</time>
      </trkpt>
      <trkpt lat="43.3870869688689708709716796875" lon="-4.579292871057987213134765625">
        <ele>19.6000003814697265625</ele>
        <time>2018-09-06T10:31:27.000Z</time>
      </trkpt>
      <trkpt lat="43.38710666634142398834228515625" lon="-4.57938197068870067596435546875">
        <ele>20</ele>
        <time>2018-09-06T10:31:28.000Z</time>
      </trkpt>
      <trkpt lat="43.38713399134576320648193359375" lon="-4.5794636942446231842041015625">
        <ele>20.200000762939453125</ele>
        <time>2018-09-06T10:31:29.000Z</time>
      </trkpt>
      <trkpt lat="43.387196101248264312744140625" lon="-4.5795994810760021209716796875">
        <ele>20.799999237060546875</ele>
        <time>2018-09-06T10:31:31.000Z</time>
      </trkpt>
      <trkpt lat="43.38722635991871356964111328125" lon="-4.57966108806431293487548828125">
        <ele>21.200000762939453125</ele>
        <time>2018-09-06T10:31:32.000Z</time>
      </trkpt>
      <trkpt lat="43.38725737296044826507568359375" lon="-4.57971699535846710205078125">
        <ele>21.6000003814697265625</ele>
        <time>2018-09-06T10:31:33.000Z</time>
      </trkpt>
      <trkpt lat="43.38734823279082775115966796875" lon="-4.579858146607875823974609375">
        <ele>22.799999237060546875</ele>
        <time>2018-09-06T10:31:36.000Z</time>
      </trkpt>
      <trkpt lat="43.38741176761686801910400390625" lon="-4.57994808442890644073486328125">
        <ele>23.6000003814697265625</ele>
        <time>2018-09-06T10:31:38.000Z</time>
      </trkpt>
      <trkpt lat="43.387467674911022186279296875" lon="-4.5800383575260639190673828125">
        <ele>24.200000762939453125</ele>
        <time>2018-09-06T10:31:40.000Z</time>
      </trkpt>
      <trkpt lat="43.3875201456248760223388671875" lon="-4.5801226794719696044921875">
        <ele>24.799999237060546875</ele>
        <time>2018-09-06T10:31:42.000Z</time>
      </trkpt>
      <trkpt lat="43.3875530026853084564208984375" lon="-4.58015997894108295440673828125">
        <ele>24.799999237060546875</ele>
        <time>2018-09-06T10:31:43.000Z</time>
      </trkpt>
      <trkpt lat="43.387576639652252197265625" lon="-4.58019853569567203521728515625">
        <ele>25</ele>
        <time>2018-09-06T10:31:44.000Z</time>
      </trkpt>
      <trkpt lat="43.38762232102453708648681640625" lon="-4.58027414046227931976318359375">
        <ele>25.3999996185302734375</ele>
        <time>2018-09-06T10:31:46.000Z</time>
      </trkpt>
      <trkpt lat="43.3876879513263702392578125" lon="-4.58038411103188991546630859375">
        <ele>26</ele>
        <time>2018-09-06T10:31:49.000Z</time>
      </trkpt>
      <trkpt lat="43.38772675953805446624755859375" lon="-4.5804571174085140228271484375">
        <ele>26.6000003814697265625</ele>
        <time>2018-09-06T10:31:51.000Z</time>
      </trkpt>
      <trkpt lat="43.3877457864582538604736328125" lon="-4.58049206994473934173583984375">
        <ele>27.200000762939453125</ele>
        <time>2018-09-06T10:31:52.000Z</time>
      </trkpt>
      <trkpt lat="43.3877866901457309722900390625" lon="-4.5806311257183551788330078125">
        <ele>27.3999996185302734375</ele>
        <time>2018-09-06T10:31:56.000Z</time>
      </trkpt>
      <trkpt lat="43.38779767043888568878173828125" lon="-4.5806639827787876129150390625">
        <ele>27.6000003814697265625</ele>
        <time>2018-09-06T10:31:57.000Z</time>
      </trkpt>
      <trkpt lat="43.3878059685230255126953125" lon="-4.58069575019180774688720703125">
        <ele>27.799999237060546875</ele>
        <time>2018-09-06T10:31:58.000Z</time>
      </trkpt>
      <trkpt lat="43.38782616890966892242431640625" lon="-4.5809201337397098541259765625">
        <ele>27.6000003814697265625</ele>
        <time>2018-09-06T10:32:04.000Z</time>
      </trkpt>
      <trkpt lat="43.3878676593303680419921875" lon="-4.58105416037142276763916015625">
        <ele>27.3999996185302734375</ele>
        <time>2018-09-06T10:32:07.000Z</time>
      </trkpt>
      <trkpt lat="43.38787880726158618927001953125" lon="-4.5811072178184986114501953125">
        <ele>27.3999996185302734375</ele>
        <time>2018-09-06T10:32:08.000Z</time>
      </trkpt>
      <trkpt lat="43.38795550167560577392578125" lon="-4.58152505569159984588623046875">
        <ele>27.200000762939453125</ele>
        <time>2018-09-06T10:32:15.000Z</time>
      </trkpt>
      <trkpt lat="43.38798961602151393890380859375" lon="-4.5817224495112895965576171875">
        <ele>26.6000003814697265625</ele>
        <time>2018-09-06T10:32:18.000Z</time>
      </trkpt>
      <trkpt lat="43.3880421705543994903564453125" lon="-4.582009613513946533203125">
        <ele>25.6000003814697265625</ele>
        <time>2018-09-06T10:32:22.000Z</time>
      </trkpt>
      <trkpt lat="43.38805650360882282257080078125" lon="-4.582083709537982940673828125">
        <ele>25.200000762939453125</ele>
        <time>2018-09-06T10:32:23.000Z</time>
      </trkpt>
      <trkpt lat="43.38809824548661708831787109375" lon="-4.58230071701109409332275390625">
        <ele>24.799999237060546875</ele>
        <time>2018-09-06T10:32:26.000Z</time>
      </trkpt>
      <trkpt lat="43.38814049027860164642333984375" lon="-4.58250783383846282958984375">
        <ele>25.3999996185302734375</ele>
        <time>2018-09-06T10:32:29.000Z</time>
      </trkpt>
      <trkpt lat="43.38816697709262371063232421875" lon="-4.58265594206750392913818359375">
        <ele>25</ele>
        <time>2018-09-06T10:32:31.000Z</time>
      </trkpt>
      <trkpt lat="43.38825968094170093536376953125" lon="-4.583202190697193145751953125">
        <ele>25</ele>
        <time>2018-09-06T10:32:39.000Z</time>
      </trkpt>
      <trkpt lat="43.388281054794788360595703125" lon="-4.58333772607147693634033203125">
        <ele>24.799999237060546875</ele>
        <time>2018-09-06T10:32:41.000Z</time>
      </trkpt>
      <trkpt lat="43.38829438202083110809326171875" lon="-4.58347971551120281219482421875">
        <ele>24.3999996185302734375</ele>
        <time>2018-09-06T10:32:43.000Z</time>
      </trkpt>
      <trkpt lat="43.38830477558076381683349609375" lon="-4.58355079405009746551513671875">
        <ele>24.200000762939453125</ele>
        <time>2018-09-06T10:32:44.000Z</time>
      </trkpt>
      <trkpt lat="43.3883563242852687835693359375" lon="-4.58379403688013553619384765625">
        <ele>23.200000762939453125</ele>
        <time>2018-09-06T10:32:47.000Z</time>
      </trkpt>
      <trkpt lat="43.38839379139244556427001953125" lon="-4.58396251313388347625732421875">
        <ele>21.799999237060546875</ele>
        <time>2018-09-06T10:32:49.000Z</time>
      </trkpt>
      <trkpt lat="43.3884148299694061279296875" lon="-4.58405974321067333221435546875">
        <ele>20.799999237060546875</ele>
        <time>2018-09-06T10:32:50.000Z</time>
      </trkpt>
      <trkpt lat="43.38846168480813503265380859375" lon="-4.58425437100231647491455078125">
        <ele>19.3999996185302734375</ele>
        <time>2018-09-06T10:32:52.000Z</time>
      </trkpt>
      <trkpt lat="43.388507030904293060302734375" lon="-4.5844546146690845489501953125">
        <ele>17.6000003814697265625</ele>
        <time>2018-09-06T10:32:54.000Z</time>
      </trkpt>
      <trkpt lat="43.38855623267590999603271484375" lon="-4.58465703763067722320556640625">
        <ele>16.200000762939453125</ele>
        <time>2018-09-06T10:32:56.000Z</time>
      </trkpt>
      <trkpt lat="43.38858339004218578338623046875" lon="-4.5847607217729091644287109375">
        <ele>15.6000003814697265625</ele>
        <time>2018-09-06T10:32:57.000Z</time>
      </trkpt>
      <trkpt lat="43.38860987685620784759521484375" lon="-4.58487111143767833709716796875">
        <ele>14.6000003814697265625</ele>
        <time>2018-09-06T10:32:58.000Z</time>
      </trkpt>
      <trkpt lat="43.388637118041515350341796875" lon="-4.58498326130211353302001953125">
        <ele>13.6000003814697265625</ele>
        <time>2018-09-06T10:32:59.000Z</time>
      </trkpt>
      <trkpt lat="43.38866469450294971466064453125" lon="-4.5850928127765655517578125">
        <ele>12.80000019073486328125</ele>
        <time>2018-09-06T10:33:00.000Z</time>
      </trkpt>
      <trkpt lat="43.38869168423116207122802734375" lon="-4.58520068787038326263427734375">
        <ele>11.80000019073486328125</ele>
        <time>2018-09-06T10:33:01.000Z</time>
      </trkpt>
      <trkpt lat="43.38874465785920619964599609375" lon="-4.58542046137154102325439453125">
        <ele>10.19999980926513671875</ele>
        <time>2018-09-06T10:33:03.000Z</time>
      </trkpt>
      <trkpt lat="43.3887697197496891021728515625" lon="-4.58552942611277103424072265625">
        <ele>8.19999980926513671875</ele>
        <time>2018-09-06T10:33:04.000Z</time>
      </trkpt>
      <trkpt lat="43.38882043026387691497802734375" lon="-4.5857370458543300628662109375">
        <ele>6.599999904632568359375</ele>
        <time>2018-09-06T10:33:06.000Z</time>
      </trkpt>
      <trkpt lat="43.38886611163616180419921875" lon="-4.58594097755849361419677734375">
        <ele>5.400000095367431640625</ele>
        <time>2018-09-06T10:33:08.000Z</time>
      </trkpt>
      <trkpt lat="43.388911373913288116455078125" lon="-4.5861363597214221954345703125">
        <ele>3.7999999523162841796875</ele>
        <time>2018-09-06T10:33:10.000Z</time>
      </trkpt>
      <trkpt lat="43.3889561332762241363525390625" lon="-4.586297459900379180908203125">
        <ele>2</ele>
        <time>2018-09-06T10:33:12.000Z</time>
      </trkpt>
      <trkpt lat="43.3890218473970890045166015625" lon="-4.58641271106898784637451171875">
        <ele>0.4000000059604644775390625</ele>
        <time>2018-09-06T10:33:14.000Z</time>
      </trkpt>
      <trkpt lat="43.38906685821712017059326171875" lon="-4.5864441432058811187744140625">
        <ele>0</ele>
        <time>2018-09-06T10:33:15.000Z</time>
      </trkpt>
      <trkpt lat="43.3891619928181171417236328125" lon="-4.586469121277332305908203125">
        <ele>-0.4000000059604644775390625</ele>
        <time>2018-09-06T10:33:17.000Z</time>
      </trkpt>
      <trkpt lat="43.389255367219448089599609375" lon="-4.586483202874660491943359375">
        <ele>-0.60000002384185791015625</ele>
        <time>2018-09-06T10:33:19.000Z</time>
      </trkpt>
      <trkpt lat="43.38938000611960887908935546875" lon="-4.58651329390704631805419921875">
        <ele>-0.60000002384185791015625</ele>
        <time>2018-09-06T10:33:22.000Z</time>
      </trkpt>
      <trkpt lat="43.38941395282745361328125" lon="-4.58651932887732982635498046875">
        <ele>-0.4000000059604644775390625</ele>
        <time>2018-09-06T10:33:23.000Z</time>
      </trkpt>
      <trkpt lat="43.38943130336701869964599609375" lon="-4.58653139881789684295654296875">
        <ele>-0.4000000059604644775390625</ele>
        <time>2018-09-06T10:33:24.000Z</time>
      </trkpt>
      <trkpt lat="43.38944806717336177825927734375" lon="-4.5865410380065441131591796875">
        <ele>0</ele>
        <time>2018-09-06T10:33:25.000Z</time>
      </trkpt>
      <trkpt lat="43.38946030475199222564697265625" lon="-4.58654698915779590606689453125">
        <ele>0.20000000298023223876953125</ele>
        <time>2018-09-06T10:33:26.000Z</time>
      </trkpt>
      <trkpt lat="43.38947153650224208831787109375" lon="-4.58654933609068393707275390625">
        <ele>0.4000000059604644775390625</ele>
        <time>2018-09-06T10:33:27.000Z</time>
      </trkpt>
      <trkpt lat="43.3895064890384674072265625" lon="-4.5865541137754917144775390625">
        <ele>1.2000000476837158203125</ele>
        <time>2018-09-06T10:33:30.000Z</time>
      </trkpt>
      <trkpt lat="43.38952920399606227874755859375" lon="-4.58656358532607555389404296875">
        <ele>1.60000002384185791015625</ele>
        <time>2018-09-06T10:33:32.000Z</time>
      </trkpt>
      <trkpt lat="43.38956139050424098968505859375" lon="-4.58658118732273578643798828125">
        <ele>2.400000095367431640625</ele>
        <time>2018-09-06T10:33:35.000Z</time>
      </trkpt>
      <trkpt lat="43.3895814232528209686279296875" lon="-4.586596190929412841796875">
        <ele>2.599999904632568359375</ele>
        <time>2018-09-06T10:33:37.000Z</time>
      </trkpt>
      <trkpt lat="43.38959139771759510040283203125" lon="-4.58660348318517208099365234375">
        <ele>2.7999999523162841796875</ele>
        <time>2018-09-06T10:33:38.000Z</time>
      </trkpt>
      <trkpt lat="43.389597348868846893310546875" lon="-4.58661840297281742095947265625">
        <ele>3</ele>
        <time>2018-09-06T10:33:39.000Z</time>
      </trkpt>
      <trkpt lat="43.38962073437869548797607421875" lon="-4.58663919009268283843994140625">
        <ele>3.599999904632568359375</ele>
        <time>2018-09-06T10:33:41.000Z</time>
      </trkpt>
      <trkpt lat="43.3896297030150890350341796875" lon="-4.58664380013942718505859375">
        <ele>3.7999999523162841796875</ele>
        <time>2018-09-06T10:33:42.000Z</time>
      </trkpt>
      <trkpt lat="43.38964219205081462860107421875" lon="-4.58666249178349971771240234375">
        <ele>4.400000095367431640625</ele>
        <time>2018-09-06T10:33:45.000Z</time>
      </trkpt>
      <trkpt lat="43.389645628631114959716796875" lon="-4.58669484592974185943603515625">
        <ele>4.80000019073486328125</ele>
        <time>2018-09-06T10:33:47.000Z</time>
      </trkpt>
      <trkpt lat="43.389648310840129852294921875" lon="-4.58670926280319690704345703125">
        <ele>4.80000019073486328125</ele>
        <time>2018-09-06T10:33:48.000Z</time>
      </trkpt>
      <trkpt lat="43.38965375907719135284423828125" lon="-4.586740024387836456298828125">
        <ele>5.19999980926513671875</ele>
        <time>2018-09-06T10:33:50.000Z</time>
      </trkpt>
      <trkpt lat="43.38965308852493762969970703125" lon="-4.58679006434977054595947265625">
        <ele>5.80000019073486328125</ele>
        <time>2018-09-06T10:33:53.000Z</time>
      </trkpt>
      <trkpt lat="43.3896540105342864990234375" lon="-4.58680800162255764007568359375">
        <ele>6</ele>
        <time>2018-09-06T10:33:54.000Z</time>
      </trkpt>
      <trkpt lat="43.3896649070084095001220703125" lon="-4.5869282819330692291259765625">
        <ele>7</ele>
        <time>2018-09-06T10:34:01.000Z</time>
      </trkpt>
      <trkpt lat="43.3896622247993946075439453125" lon="-4.58694378845393657684326171875">
        <ele>7.400000095367431640625</ele>
        <time>2018-09-06T10:34:02.000Z</time>
      </trkpt>
      <trkpt lat="43.3896602131426334381103515625" lon="-4.586994163691997528076171875">
        <ele>8.19999980926513671875</ele>
        <time>2018-09-06T10:34:05.000Z</time>
      </trkpt>
      <trkpt lat="43.38965342380106449127197265625" lon="-4.58705375902354717254638671875">
        <ele>9.3999996185302734375</ele>
        <time>2018-09-06T10:34:09.000Z</time>
      </trkpt>
      <trkpt lat="43.38965208269655704498291015625" lon="-4.5870714448392391204833984375">
        <ele>9.80000019073486328125</ele>
        <time>2018-09-06T10:34:10.000Z</time>
      </trkpt>
      <trkpt lat="43.3896571956574916839599609375" lon="-4.58708561025559902191162109375">
        <ele>10</ele>
        <time>2018-09-06T10:34:11.000Z</time>
      </trkpt>
      <trkpt lat="43.38967144489288330078125" lon="-4.587112180888652801513671875">
        <ele>10.6000003814697265625</ele>
        <time>2018-09-06T10:34:13.000Z</time>
      </trkpt>
      <trkpt lat="43.3897024579346179962158203125" lon="-4.5871344767510890960693359375">
        <ele>11.19999980926513671875</ele>
        <time>2018-09-06T10:34:16.000Z</time>
      </trkpt>
      <trkpt lat="43.38971394114196300506591796875" lon="-4.5871378295123577117919921875">
        <ele>11.3999996185302734375</ele>
        <time>2018-09-06T10:34:17.000Z</time>
      </trkpt>
      <trkpt lat="43.38973506353795528411865234375" lon="-4.587139673531055450439453125">
        <ele>11.80000019073486328125</ele>
        <time>2018-09-06T10:34:19.000Z</time>
      </trkpt>
      <trkpt lat="43.389790467917919158935546875" lon="-4.5871354825794696807861328125">
        <ele>12.80000019073486328125</ele>
        <time>2018-09-06T10:34:25.000Z</time>
      </trkpt>
      <trkpt lat="43.3898476324975490570068359375" lon="-4.5870882086455821990966796875">
        <ele>13.80000019073486328125</ele>
        <time>2018-09-06T10:34:32.000Z</time>
      </trkpt>
      <trkpt lat="43.3898580260574817657470703125" lon="-4.58708510734140872955322265625">
        <ele>14</ele>
        <time>2018-09-06T10:34:33.000Z</time>
      </trkpt>
      <trkpt lat="43.3898793160915374755859375" lon="-4.5870791561901569366455078125">
        <ele>15</ele>
        <time>2018-09-06T10:34:35.000Z</time>
      </trkpt>
      <trkpt lat="43.38990068994462490081787109375" lon="-4.5870727859437465667724609375">
        <ele>16.6000003814697265625</ele>
        <time>2018-09-06T10:34:37.000Z</time>
      </trkpt>
      <trkpt lat="43.3899109996855258941650390625" lon="-4.58706884644925594329833984375">
        <ele>15.19999980926513671875</ele>
        <time>2018-09-06T10:34:38.000Z</time>
      </trkpt>
      <trkpt lat="43.3899425156414508819580078125" lon="-4.5870587043464183807373046875">
        <ele>15.3999996185302734375</ele>
        <time>2018-09-06T10:34:41.000Z</time>
      </trkpt>
      <trkpt lat="43.39003555476665496826171875" lon="-4.5870355702936649322509765625">
        <ele>16.3999996185302734375</ele>
        <time>2018-09-06T10:34:49.000Z</time>
      </trkpt>
      <trkpt lat="43.39005759917199611663818359375" lon="-4.58703313954174518585205078125">
        <ele>16.200000762939453125</ele>
        <time>2018-09-06T10:34:51.000Z</time>
      </trkpt>
      <trkpt lat="43.3901306055486202239990234375" lon="-4.587035067379474639892578125">
        <ele>17.3999996185302734375</ele>
        <time>2018-09-06T10:34:57.000Z</time>
      </trkpt>
      <trkpt lat="43.39014225639402866363525390625" lon="-4.58703280426561832427978515625">
        <ele>17.6000003814697265625</ele>
        <time>2018-09-06T10:34:58.000Z</time>
      </trkpt>
      <trkpt lat="43.39020210318267345428466796875" lon="-4.5870292000472545623779296875">
        <ele>18.6000003814697265625</ele>
        <time>2018-09-06T10:35:03.000Z</time>
      </trkpt>
      <trkpt lat="43.3902454376220703125" lon="-4.58701805211603641510009765625">
        <ele>19.200000762939453125</ele>
        <time>2018-09-06T10:35:07.000Z</time>
      </trkpt>
      <trkpt lat="43.39027670212090015411376953125" lon="-4.58701193332672119140625">
        <ele>19.6000003814697265625</ele>
        <time>2018-09-06T10:35:10.000Z</time>
      </trkpt>
      <trkpt lat="43.39036655612289905548095703125" lon="-4.58700195886194705963134765625">
        <ele>20.6000003814697265625</ele>
        <time>2018-09-06T10:35:17.000Z</time>
      </trkpt>
      <trkpt lat="43.39043159969151020050048828125" lon="-4.58699475042521953582763671875">
        <ele>21.6000003814697265625</ele>
        <time>2018-09-06T10:35:23.000Z</time>
      </trkpt>
      <trkpt lat="43.3904427476227283477783203125" lon="-4.58699458278715610504150390625">
        <ele>21.6000003814697265625</ele>
        <time>2018-09-06T10:35:24.000Z</time>
      </trkpt>
      <trkpt lat="43.3904745988547801971435546875" lon="-4.5869929902255535125732421875">
        <ele>22.200000762939453125</ele>
        <time>2018-09-06T10:35:27.000Z</time>
      </trkpt>
      <trkpt lat="43.39050871320068836212158203125" lon="-4.58698737435042858123779296875">
        <ele>22.799999237060546875</ele>
        <time>2018-09-06T10:35:30.000Z</time>
      </trkpt>
      <trkpt lat="43.39055347256362438201904296875" lon="-4.58698217757046222686767578125">
        <ele>23.3999996185302734375</ele>
        <time>2018-09-06T10:35:34.000Z</time>
      </trkpt>
      <trkpt lat="43.39059253223240375518798828125" lon="-4.58698234520852565765380859375">
        <ele>23.6000003814697265625</ele>
        <time>2018-09-06T10:35:37.000Z</time>
      </trkpt>
      <trkpt lat="43.390615917742252349853515625" lon="-4.58697312511503696441650390625">
        <ele>24</ele>
        <time>2018-09-06T10:35:39.000Z</time>
      </trkpt>
      <trkpt lat="43.3906464278697967529296875" lon="-4.58696491084992885589599609375">
        <ele>24.6000003814697265625</ele>
        <time>2018-09-06T10:35:42.000Z</time>
      </trkpt>
      <trkpt lat="43.3906885050237178802490234375" lon="-4.58696222864091396331787109375">
        <ele>25</ele>
        <time>2018-09-06T10:35:45.000Z</time>
      </trkpt>
      <trkpt lat="43.39075212366878986358642578125" lon="-4.5869784057140350341796875">
        <ele>25.799999237060546875</ele>
        <time>2018-09-06T10:35:49.000Z</time>
      </trkpt>
      <trkpt lat="43.390779197216033935546875" lon="-4.5869899727404117584228515625">
        <ele>26.200000762939453125</ele>
        <time>2018-09-06T10:35:51.000Z</time>
      </trkpt>
      <trkpt lat="43.3908242918550968170166015625" lon="-4.58698485977947711944580078125">
        <ele>27.3999996185302734375</ele>
        <time>2018-09-06T10:35:55.000Z</time>
      </trkpt>
      <trkpt lat="43.39083812199532985687255859375" lon="-4.586983434855937957763671875">
        <ele>27.3999996185302734375</ele>
        <time>2018-09-06T10:35:56.000Z</time>
      </trkpt>
      <trkpt lat="43.39090467430651187896728515625" lon="-4.5869483985006809234619140625">
        <ele>28.3999996185302734375</ele>
        <time>2018-09-06T10:36:01.000Z</time>
      </trkpt>
      <trkpt lat="43.39091808535158634185791015625" lon="-4.58694093860685825347900390625">
        <ele>28.3999996185302734375</ele>
        <time>2018-09-06T10:36:02.000Z</time>
      </trkpt>
      <trkpt lat="43.3910096995532512664794921875" lon="-4.5869249291718006134033203125">
        <ele>29.200000762939453125</ele>
        <time>2018-09-06T10:36:08.000Z</time>
      </trkpt>
      <trkpt lat="43.39104406535625457763671875" lon="-4.5869339816272258758544921875">
        <ele>29.3999996185302734375</ele>
        <time>2018-09-06T10:36:10.000Z</time>
      </trkpt>
      <trkpt lat="43.39111648499965667724609375" lon="-4.5869462192058563232421875">
        <ele>30</ele>
        <time>2018-09-06T10:36:14.000Z</time>
      </trkpt>
      <trkpt lat="43.39114691130816936492919921875" lon="-4.5869514159858226776123046875">
        <ele>30.6000003814697265625</ele>
        <time>2018-09-06T10:36:16.000Z</time>
      </trkpt>
      <trkpt lat="43.39120558463037014007568359375" lon="-4.58695233799517154693603515625">
        <ele>31.200000762939453125</ele>
        <time>2018-09-06T10:36:20.000Z</time>
      </trkpt>
      <trkpt lat="43.39126023463904857635498046875" lon="-4.5869757235050201416015625">
        <ele>31.6000003814697265625</ele>
        <time>2018-09-06T10:36:24.000Z</time>
      </trkpt>
      <trkpt lat="43.39129644446074962615966796875" lon="-4.58699525333940982818603515625">
        <ele>31.799999237060546875</ele>
        <time>2018-09-06T10:36:26.000Z</time>
      </trkpt>
      <trkpt lat="43.39150968007743358612060546875" lon="-4.58714378066360950469970703125">
        <ele>33.200000762939453125</ele>
        <time>2018-09-06T10:36:39.000Z</time>
      </trkpt>
      <trkpt lat="43.3915357477962970733642578125" lon="-4.58716473542153835296630859375">
        <ele>33.40000152587890625</ele>
        <time>2018-09-06T10:36:40.000Z</time>
      </trkpt>
      <trkpt lat="43.39161948300898075103759765625" lon="-4.5872524939477443695068359375">
        <ele>34.200000762939453125</ele>
        <time>2018-09-06T10:36:45.000Z</time>
      </trkpt>
      <trkpt lat="43.3916396833956241607666015625" lon="-4.5872702635824680328369140625">
        <ele>34.40000152587890625</ele>
        <time>2018-09-06T10:36:46.000Z</time>
      </trkpt>
      <trkpt lat="43.391769267618656158447265625" lon="-4.58738484419882297515869140625">
        <ele>35.200000762939453125</ele>
        <time>2018-09-06T10:36:52.000Z</time>
      </trkpt>
      <trkpt lat="43.3917861990630626678466796875" lon="-4.58740646950900554656982421875">
        <ele>35.200000762939453125</ele>
        <time>2018-09-06T10:36:53.000Z</time>
      </trkpt>
      <trkpt lat="43.39191536419093608856201171875" lon="-4.58747771568596363067626953125">
        <ele>35.40000152587890625</ele>
        <time>2018-09-06T10:36:58.000Z</time>
      </trkpt>
      <trkpt lat="43.3921055495738983154296875" lon="-4.58755466155707836151123046875">
        <ele>36.200000762939453125</ele>
        <time>2018-09-06T10:37:05.000Z</time>
      </trkpt>
      <trkpt lat="43.3922542445361614227294921875" lon="-4.58759170956909656524658203125">
        <ele>37.40000152587890625</ele>
        <time>2018-09-06T10:37:11.000Z</time>
      </trkpt>
      <trkpt lat="43.3924037776887416839599609375" lon="-4.5876326970756053924560546875">
        <ele>38.40000152587890625</ele>
        <time>2018-09-06T10:37:18.000Z</time>
      </trkpt>
      <trkpt lat="43.392421714961528778076171875" lon="-4.58764334209263324737548828125">
        <ele>38.40000152587890625</ele>
        <time>2018-09-06T10:37:19.000Z</time>
      </trkpt>
      <trkpt lat="43.39253897778689861297607421875" lon="-4.587692208588123321533203125">
        <ele>39.40000152587890625</ele>
        <time>2018-09-06T10:37:25.000Z</time>
      </trkpt>
      <trkpt lat="43.39255792088806629180908203125" lon="-4.58770235069096088409423828125">
        <ele>39.59999847412109375</ele>
        <time>2018-09-06T10:37:26.000Z</time>
      </trkpt>
      <trkpt lat="43.39266839437186717987060546875" lon="-4.5877430029213428497314453125">
        <ele>40.59999847412109375</ele>
        <time>2018-09-06T10:37:32.000Z</time>
      </trkpt>
      <trkpt lat="43.392782472074031829833984375" lon="-4.587745852768421173095703125">
        <ele>41.40000152587890625</ele>
        <time>2018-09-06T10:37:38.000Z</time>
      </trkpt>
      <trkpt lat="43.392821364104747772216796875" lon="-4.587737806141376495361328125">
        <ele>41.799999237060546875</ele>
        <time>2018-09-06T10:37:40.000Z</time>
      </trkpt>
      <trkpt lat="43.39290811680257320404052734375" lon="-4.5876970700919628143310546875">
        <ele>42.40000152587890625</ele>
        <time>2018-09-06T10:37:45.000Z</time>
      </trkpt>
      <trkpt lat="43.39296310208737850189208984375" lon="-4.58765675313770771026611328125">
        <ele>42.799999237060546875</ele>
        <time>2018-09-06T10:37:48.000Z</time>
      </trkpt>
      <trkpt lat="43.3930067718029022216796875" lon="-4.58761283196508884429931640625">
        <ele>43.40000152587890625</ele>
        <time>2018-09-06T10:37:51.000Z</time>
      </trkpt>
      <trkpt lat="43.393032252788543701171875" lon="-4.58757452666759490966796875">
        <ele>44</ele>
        <time>2018-09-06T10:37:53.000Z</time>
      </trkpt>
      <trkpt lat="43.393077850341796875" lon="-4.58751677535474300384521484375">
        <ele>44.59999847412109375</ele>
        <time>2018-09-06T10:37:57.000Z</time>
      </trkpt>
      <trkpt lat="43.39310945011675357818603515625" lon="-4.5874985866248607635498046875">
        <ele>45</ele>
        <time>2018-09-06T10:37:59.000Z</time>
      </trkpt>
      <trkpt lat="43.393127806484699249267578125" lon="-4.58749129436910152435302734375">
        <ele>45.200000762939453125</ele>
        <time>2018-09-06T10:38:00.000Z</time>
      </trkpt>
      <trkpt lat="43.3931940235197544097900390625" lon="-4.58747821860015392303466796875">
        <ele>45.799999237060546875</ele>
        <time>2018-09-06T10:38:04.000Z</time>
      </trkpt>
      <trkpt lat="43.39321506209671497344970703125" lon="-4.587480984628200531005859375">
        <ele>46</ele>
        <time>2018-09-06T10:38:05.000Z</time>
      </trkpt>
      <trkpt lat="43.39330089278519153594970703125" lon="-4.58748676814138889312744140625">
        <ele>46.40000152587890625</ele>
        <time>2018-09-06T10:38:09.000Z</time>
      </trkpt>
      <trkpt lat="43.39339560829102993011474609375" lon="-4.58747838623821735382080078125">
        <ele>46.40000152587890625</ele>
        <time>2018-09-06T10:38:14.000Z</time>
      </trkpt>
      <trkpt lat="43.39352586306631565093994140625" lon="-4.58746229298412799835205078125">
        <ele>46.59999847412109375</ele>
        <time>2018-09-06T10:38:19.000Z</time>
      </trkpt>
      <trkpt lat="43.3936375938355922698974609375" lon="-4.58749699406325817108154296875">
        <ele>46.40000152587890625</ele>
        <time>2018-09-06T10:38:22.000Z</time>
      </trkpt>
      <trkpt lat="43.393657207489013671875" lon="-4.587505124509334564208984375">
        <ele>46.200000762939453125</ele>
        <time>2018-09-06T10:38:24.000Z</time>
      </trkpt>
      <trkpt lat="43.3937281183898448944091796875" lon="-4.58754057995975017547607421875">
        <ele>46</ele>
        <time>2018-09-06T10:38:29.000Z</time>
      </trkpt>
      <trkpt lat="43.39376491494476795196533203125" lon="-4.587568826973438262939453125">
        <ele>45.799999237060546875</ele>
        <time>2018-09-06T10:38:30.000Z</time>
      </trkpt>
      <trkpt lat="43.39393439702689647674560546875" lon="-4.58777359686791896820068359375">
        <ele>44.799999237060546875</ele>
        <time>2018-09-06T10:38:35.000Z</time>
      </trkpt>
      <trkpt lat="43.39396297931671142578125" lon="-4.58782263100147247314453125">
        <ele>44.200000762939453125</ele>
        <time>2018-09-06T10:38:36.000Z</time>
      </trkpt>
      <trkpt lat="43.393984101712703704833984375" lon="-4.58786294795572757720947265625">
        <ele>43.799999237060546875</ele>
        <time>2018-09-06T10:38:37.000Z</time>
      </trkpt>
      <trkpt lat="43.39399944059550762176513671875" lon="-4.58788407035171985626220703125">
        <ele>43.59999847412109375</ele>
        <time>2018-09-06T10:38:38.000Z</time>
      </trkpt>
      <trkpt lat="43.3940110914409160614013671875" lon="-4.5878922007977962493896484375">
        <ele>43.59999847412109375</ele>
        <time>2018-09-06T10:38:39.000Z</time>
      </trkpt>
      <trkpt lat="43.39403347112238407135009765625" lon="-4.58793670870363712310791015625">
        <ele>43.59999847412109375</ele>
        <time>2018-09-06T10:38:47.000Z</time>
      </trkpt>
      <trkpt lat="43.39404679834842681884765625" lon="-4.58796168677508831024169921875">
        <ele>43.200000762939453125</ele>
        <time>2018-09-06T10:38:48.000Z</time>
      </trkpt>
      <trkpt lat="43.39409315027296543121337890625" lon="-4.588052965700626373291015625">
        <ele>43</ele>
        <time>2018-09-06T10:38:51.000Z</time>
      </trkpt>
      <trkpt lat="43.39413623325526714324951171875" lon="-4.5881262235343456268310546875">
        <ele>42.40000152587890625</ele>
        <time>2018-09-06T10:38:53.000Z</time>
      </trkpt>
      <trkpt lat="43.3941562660038471221923828125" lon="-4.5881758444011211395263671875">
        <ele>42.200000762939453125</ele>
        <time>2018-09-06T10:38:54.000Z</time>
      </trkpt>
      <trkpt lat="43.39420965872704982757568359375" lon="-4.58835295401513576507568359375">
        <ele>41.200000762939453125</ele>
        <time>2018-09-06T10:38:57.000Z</time>
      </trkpt>
      <trkpt lat="43.3942441083490848541259765625" lon="-4.58842453546822071075439453125">
        <ele>40.200000762939453125</ele>
        <time>2018-09-06T10:38:59.000Z</time>
      </trkpt>
      <trkpt lat="43.39430160820484161376953125" lon="-4.58845873363316059112548828125">
        <ele>39.40000152587890625</ele>
        <time>2018-09-06T10:39:01.000Z</time>
      </trkpt>
      <trkpt lat="43.39436455629765987396240234375" lon="-4.58851204253733158111572265625">
        <ele>39</ele>
        <time>2018-09-06T10:39:03.000Z</time>
      </trkpt>
      <trkpt lat="43.394420631229877471923828125" lon="-4.58859250880777835845947265625">
        <ele>38.59999847412109375</ele>
        <time>2018-09-06T10:39:05.000Z</time>
      </trkpt>
      <trkpt lat="43.39446916244924068450927734375" lon="-4.58870415575802326202392578125">
        <ele>38.200000762939453125</ele>
        <time>2018-09-06T10:39:07.000Z</time>
      </trkpt>
      <trkpt lat="43.39449531398713588714599609375" lon="-4.588759727776050567626953125">
        <ele>38.200000762939453125</ele>
        <time>2018-09-06T10:39:08.000Z</time>
      </trkpt>
      <trkpt lat="43.394522555172443389892578125" lon="-4.5888157188892364501953125">
        <ele>38</ele>
        <time>2018-09-06T10:39:09.000Z</time>
      </trkpt>
      <trkpt lat="43.39463688433170318603515625" lon="-4.58905250765383243560791015625">
        <ele>37.200000762939453125</ele>
        <time>2018-09-06T10:39:13.000Z</time>
      </trkpt>
      <trkpt lat="43.39471609331667423248291015625" lon="-4.58924361504614353179931640625">
        <ele>37.200000762939453125</ele>
        <time>2018-09-06T10:39:16.000Z</time>
      </trkpt>
      <trkpt lat="43.39474073611199855804443359375" lon="-4.58930295892059803009033203125">
        <ele>36.799999237060546875</ele>
        <time>2018-09-06T10:39:17.000Z</time>
      </trkpt>
      <trkpt lat="43.394789434969425201416015625" lon="-4.58942248485982418060302734375">
        <ele>36.40000152587890625</ele>
        <time>2018-09-06T10:39:19.000Z</time>
      </trkpt>
      <trkpt lat="43.394820280373096466064453125" lon="-4.58954703994095325469970703125">
        <ele>36.200000762939453125</ele>
        <time>2018-09-06T10:39:21.000Z</time>
      </trkpt>
      <trkpt lat="43.394837044179439544677734375" lon="-4.5897801406681537628173828125">
        <ele>37.59999847412109375</ele>
        <time>2018-09-06T10:39:25.000Z</time>
      </trkpt>
      <trkpt lat="43.3948647044599056243896484375" lon="-4.5898723416030406951904296875">
        <ele>37</ele>
        <time>2018-09-06T10:39:27.000Z</time>
      </trkpt>
      <trkpt lat="43.3949069492518901824951171875" lon="-4.590024389326572418212890625">
        <ele>37</ele>
        <time>2018-09-06T10:39:31.000Z</time>
      </trkpt>
      <trkpt lat="43.394925892353057861328125" lon="-4.59016956388950347900390625">
        <ele>37.200000762939453125</ele>
        <time>2018-09-06T10:39:36.000Z</time>
      </trkpt>
      <trkpt lat="43.3949475176632404327392578125" lon="-4.59017434157431125640869140625">
        <ele>36.59999847412109375</ele>
        <time>2018-09-06T10:39:40.000Z</time>
      </trkpt>
      <trkpt lat="43.3950142376124858856201171875" lon="-4.59018557332456111907958984375">
        <ele>36.799999237060546875</ele>
        <time>2018-09-06T10:39:49.000Z</time>
      </trkpt>
      <trkpt lat="43.39503074996173381805419921875" lon="-4.590206108987331390380859375">
        <ele>36.59999847412109375</ele>
        <time>2018-09-06T10:39:50.000Z</time>
      </trkpt>
      <trkpt lat="43.39505933225154876708984375" lon="-4.5902622677385807037353515625">
        <ele>36.799999237060546875</ele>
        <time>2018-09-06T10:39:52.000Z</time>
      </trkpt>
      <trkpt lat="43.3950745873153209686279296875" lon="-4.59034985862672328948974609375">
        <ele>37</ele>
        <time>2018-09-06T10:39:55.000Z</time>
      </trkpt>
      <trkpt lat="43.3950799517333507537841796875" lon="-4.59037450142204761505126953125">
        <ele>37</ele>
        <time>2018-09-06T10:39:56.000Z</time>
      </trkpt>
      <trkpt lat="43.39508288539946079254150390625" lon="-4.5903970487415790557861328125">
        <ele>34.200000762939453125</ele>
        <time>2018-09-06T10:39:57.000Z</time>
      </trkpt>
      <trkpt lat="43.39508472941815853118896484375" lon="-4.5904654450714588165283203125">
        <ele>38.200000762939453125</ele>
        <time>2018-09-06T10:40:00.000Z</time>
      </trkpt>
      <trkpt lat="43.3950863219797611236572265625" lon="-4.5904926024377346038818359375">
        <ele>37.40000152587890625</ele>
        <time>2018-09-06T10:40:01.000Z</time>
      </trkpt>
      <trkpt lat="43.39509378187358379364013671875" lon="-4.59053677506744861602783203125">
        <ele>37.59999847412109375</ele>
        <time>2018-09-06T10:40:03.000Z</time>
      </trkpt>
      <trkpt lat="43.3950792811810970306396484375" lon="-4.5905435644090175628662109375">
        <ele>37.59999847412109375</ele>
        <time>2018-09-06T10:40:05.000Z</time>
      </trkpt>
      <trkpt lat="43.3950873278081417083740234375" lon="-4.59045588970184326171875">
        <ele>37.40000152587890625</ele>
        <time>2018-09-06T10:40:08.000Z</time>
      </trkpt>
      <trkpt lat="43.3951027505099773406982421875" lon="-4.59027090109884738922119140625">
        <ele>37.200000762939453125</ele>
        <time>2018-09-06T10:40:14.000Z</time>
      </trkpt>
      <trkpt lat="43.39511892758309841156005859375" lon="-4.590257070958614349365234375">
        <ele>37.200000762939453125</ele>
        <time>2018-09-06T10:40:15.000Z</time>
      </trkpt>
      <trkpt lat="43.3951704762876033782958984375" lon="-4.590224213898181915283203125">
        <ele>36</ele>
        <time>2018-09-06T10:40:18.000Z</time>
      </trkpt>
      <trkpt lat="43.39520911686122417449951171875" lon="-4.59020015783607959747314453125">
        <ele>35.200000762939453125</ele>
        <time>2018-09-06T10:40:20.000Z</time>
      </trkpt>
      <trkpt lat="43.3952311612665653228759765625" lon="-4.590188004076480865478515625">
        <ele>34.59999847412109375</ele>
        <time>2018-09-06T10:40:21.000Z</time>
      </trkpt>
      <trkpt lat="43.3952786028385162353515625" lon="-4.59015573374927043914794921875">
        <ele>33.59999847412109375</ele>
        <time>2018-09-06T10:40:23.000Z</time>
      </trkpt>
      <trkpt lat="43.395298384130001068115234375" lon="-4.5901395566761493682861328125">
        <ele>33.200000762939453125</ele>
        <time>2018-09-06T10:40:24.000Z</time>
      </trkpt>
      <trkpt lat="43.3950950391590595245361328125" lon="-4.59034080617129802703857421875">
        <ele>37.200000762939453125</ele>
        <time>2018-09-06T10:41:44.000Z</time>
      </trkpt>
      <trkpt lat="43.3950908482074737548828125" lon="-4.59036746062338352203369140625">
        <ele>37.200000762939453125</ele>
        <time>2018-09-06T10:41:45.000Z</time>
      </trkpt>
      <trkpt lat="43.39508942328393459320068359375" lon="-4.59039880894124507904052734375">
        <ele>37.200000762939453125</ele>
        <time>2018-09-06T10:41:46.000Z</time>
      </trkpt>
      <trkpt lat="43.39509629644453525543212890625" lon="-4.59047340787947177886962890625">
        <ele>37.200000762939453125</ele>
        <time>2018-09-06T10:41:48.000Z</time>
      </trkpt>
      <trkpt lat="43.39511037804186344146728515625" lon="-4.5906478352844715118408203125">
        <ele>37.59999847412109375</ele>
        <time>2018-09-06T10:41:52.000Z</time>
      </trkpt>
      <trkpt lat="43.39511968195438385009765625" lon="-4.590968526899814605712890625">
        <ele>37.59999847412109375</ele>
        <time>2018-09-06T10:41:59.000Z</time>
      </trkpt>
      <trkpt lat="43.39511658065021038055419921875" lon="-4.5910112746059894561767578125">
        <ele>37.59999847412109375</ele>
        <time>2018-09-06T10:42:00.000Z</time>
      </trkpt>
      <trkpt lat="43.3951144851744174957275390625" lon="-4.5911309681832790374755859375">
        <ele>38.40000152587890625</ele>
        <time>2018-09-06T10:42:03.000Z</time>
      </trkpt>
      <trkpt lat="43.3951161615550518035888671875" lon="-4.5912543497979640960693359375">
        <ele>39</ele>
        <time>2018-09-06T10:42:06.000Z</time>
      </trkpt>
      <trkpt lat="43.39511306025087833404541015625" lon="-4.5914474688470363616943359375">
        <ele>39.200000762939453125</ele>
        <time>2018-09-06T10:42:10.000Z</time>
      </trkpt>
      <trkpt lat="43.39511021040380001068115234375" lon="-4.59159784018993377685546875">
        <ele>39.40000152587890625</ele>
        <time>2018-09-06T10:42:13.000Z</time>
      </trkpt>
      <trkpt lat="43.39510568417608737945556640625" lon="-4.591648466885089874267578125">
        <ele>39.59999847412109375</ele>
        <time>2018-09-06T10:42:14.000Z</time>
      </trkpt>
      <trkpt lat="43.3950739167630672454833984375" lon="-4.59205104969441890716552734375">
        <ele>40.59999847412109375</ele>
        <time>2018-09-06T10:42:22.000Z</time>
      </trkpt>
      <trkpt lat="43.39506628923118114471435546875" lon="-4.5920989103615283966064453125">
        <ele>40.799999237060546875</ele>
        <time>2018-09-06T10:42:23.000Z</time>
      </trkpt>
      <trkpt lat="43.39500627480447292327880859375" lon="-4.59256486035883426666259765625">
        <ele>41</ele>
        <time>2018-09-06T10:42:32.000Z</time>
      </trkpt>
      <trkpt lat="43.3949361182749271392822265625" lon="-4.5930536091327667236328125">
        <ele>41.59999847412109375</ele>
        <time>2018-09-06T10:42:41.000Z</time>
      </trkpt>
      <trkpt lat="43.39490569196641445159912109375" lon="-4.5932118594646453857421875">
        <ele>41.59999847412109375</ele>
        <time>2018-09-06T10:42:44.000Z</time>
      </trkpt>
      <trkpt lat="43.3948747627437114715576171875" lon="-4.59337069652974605560302734375">
        <ele>41.200000762939453125</ele>
        <time>2018-09-06T10:42:47.000Z</time>
      </trkpt>
      <trkpt lat="43.39483612217009067535400390625" lon="-4.59358577616512775421142578125">
        <ele>41.200000762939453125</ele>
        <time>2018-09-06T10:42:51.000Z</time>
      </trkpt>
      <trkpt lat="43.39480276219546794891357421875" lon="-4.5938027836382389068603515625">
        <ele>42.200000762939453125</ele>
        <time>2018-09-06T10:42:55.000Z</time>
      </trkpt>
      <trkpt lat="43.3947770297527313232421875" lon="-4.59399347193539142608642578125">
        <ele>41.59999847412109375</ele>
        <time>2018-09-06T10:42:59.000Z</time>
      </trkpt>
      <trkpt lat="43.3947520516812801361083984375" lon="-4.5940968208014965057373046875">
        <ele>41.200000762939453125</ele>
        <time>2018-09-06T10:43:01.000Z</time>
      </trkpt>
      <trkpt lat="43.39470922015607357025146484375" lon="-4.5943331904709339141845703125">
        <ele>41.59999847412109375</ele>
        <time>2018-09-06T10:43:05.000Z</time>
      </trkpt>
      <trkpt lat="43.3946839906275272369384765625" lon="-4.594458080828189849853515625">
        <ele>41.59999847412109375</ele>
        <time>2018-09-06T10:43:07.000Z</time>
      </trkpt>
      <trkpt lat="43.39458097703754901885986328125" lon="-4.59490072913467884063720703125">
        <ele>41.200000762939453125</ele>
        <time>2018-09-06T10:43:14.000Z</time>
      </trkpt>
      <trkpt lat="43.3945069648325443267822265625" lon="-4.5952297188341617584228515625">
        <ele>41.40000152587890625</ele>
        <time>2018-09-06T10:43:19.000Z</time>
      </trkpt>
      <trkpt lat="43.39445340447127819061279296875" lon="-4.59542476572096347808837890625">
        <ele>40.799999237060546875</ele>
        <time>2018-09-06T10:43:22.000Z</time>
      </trkpt>
      <trkpt lat="43.39441560208797454833984375" lon="-4.59555787034332752227783203125">
        <ele>40.59999847412109375</ele>
        <time>2018-09-06T10:43:24.000Z</time>
      </trkpt>
      <trkpt lat="43.39426749385893344879150390625" lon="-4.59610504098236560821533203125">
        <ele>40.200000762939453125</ele>
        <time>2018-09-06T10:43:32.000Z</time>
      </trkpt>
      <trkpt lat="43.3941602893173694610595703125" lon="-4.59654022939503192901611328125">
        <ele>40.40000152587890625</ele>
        <time>2018-09-06T10:43:38.000Z</time>
      </trkpt>
      <trkpt lat="43.39414201676845550537109375" lon="-4.596615247428417205810546875">
        <ele>40.59999847412109375</ele>
        <time>2018-09-06T10:43:39.000Z</time>
      </trkpt>
      <trkpt lat="43.3940429426729679107666015625" lon="-4.59699586965143680572509765625">
        <ele>39.59999847412109375</ele>
        <time>2018-09-06T10:43:44.000Z</time>
      </trkpt>
      <trkpt lat="43.3939535915851593017578125" lon="-4.59738194011151790618896484375">
        <ele>40</ele>
        <time>2018-09-06T10:43:49.000Z</time>
      </trkpt>
      <trkpt lat="43.39383146725594997406005859375" lon="-4.59789843298494815826416015625">
        <ele>40</ele>
        <time>2018-09-06T10:43:56.000Z</time>
      </trkpt>
      <trkpt lat="43.39374027214944362640380859375" lon="-4.59835943765938282012939453125">
        <ele>39.59999847412109375</ele>
        <time>2018-09-06T10:44:02.000Z</time>
      </trkpt>
      <trkpt lat="43.3936084248125553131103515625" lon="-4.5991531200706958770751953125">
        <ele>40</ele>
        <time>2018-09-06T10:44:12.000Z</time>
      </trkpt>
      <trkpt lat="43.3935014717280864715576171875" lon="-4.5998853631317615509033203125">
        <ele>39.40000152587890625</ele>
        <time>2018-09-06T10:44:21.000Z</time>
      </trkpt>
      <trkpt lat="43.3934116177260875701904296875" lon="-4.600629508495330810546875">
        <ele>38.59999847412109375</ele>
        <time>2018-09-06T10:44:30.000Z</time>
      </trkpt>
      <trkpt lat="43.39335705153644084930419921875" lon="-4.60115631110966205596923828125">
        <ele>38.40000152587890625</ele>
        <time>2018-09-06T10:44:36.000Z</time>
      </trkpt>
      <trkpt lat="43.3933438919484615325927734375" lon="-4.60133425891399383544921875">
        <ele>38.40000152587890625</ele>
        <time>2018-09-06T10:44:38.000Z</time>
      </trkpt>
      <trkpt lat="43.3933264575898647308349609375" lon="-4.60168956778943538665771484375">
        <ele>37.59999847412109375</ele>
        <time>2018-09-06T10:44:42.000Z</time>
      </trkpt>
      <trkpt lat="43.39330692775547504425048828125" lon="-4.601947478950023651123046875">
        <ele>37.59999847412109375</ele>
        <time>2018-09-06T10:44:45.000Z</time>
      </trkpt>
      <trkpt lat="43.3932889066636562347412109375" lon="-4.60231184028089046478271484375">
        <ele>37.40000152587890625</ele>
        <time>2018-09-06T10:44:49.000Z</time>
      </trkpt>
      <trkpt lat="43.39327859692275524139404296875" lon="-4.60258978419005870819091796875">
        <ele>37.200000762939453125</ele>
        <time>2018-09-06T10:44:52.000Z</time>
      </trkpt>
      <trkpt lat="43.3932669460773468017578125" lon="-4.60277703590691089630126953125">
        <ele>36.799999237060546875</ele>
        <time>2018-09-06T10:44:54.000Z</time>
      </trkpt>
      <trkpt lat="43.3932594023644924163818359375" lon="-4.6030714921653270721435546875">
        <ele>36.200000762939453125</ele>
        <time>2018-09-06T10:44:57.000Z</time>
      </trkpt>
      <trkpt lat="43.393259234726428985595703125" lon="-4.603688903152942657470703125">
        <ele>35</ele>
        <time>2018-09-06T10:45:03.000Z</time>
      </trkpt>
      <trkpt lat="43.3932620845735073089599609375" lon="-4.60390540771186351776123046875">
        <ele>34.200000762939453125</ele>
        <time>2018-09-06T10:45:05.000Z</time>
      </trkpt>
      <trkpt lat="43.39326937682926654815673828125" lon="-4.60411964915692806243896484375">
        <ele>34</ele>
        <time>2018-09-06T10:45:07.000Z</time>
      </trkpt>
      <trkpt lat="43.393286056816577911376953125" lon="-4.60443363524973392486572265625">
        <ele>33.40000152587890625</ele>
        <time>2018-09-06T10:45:10.000Z</time>
      </trkpt>
      <trkpt lat="43.393306173384189605712890625" lon="-4.60485993884503841400146484375">
        <ele>32.799999237060546875</ele>
        <time>2018-09-06T10:45:14.000Z</time>
      </trkpt>
      <trkpt lat="43.393321931362152099609375" lon="-4.605566449463367462158203125">
        <ele>32.200000762939453125</ele>
        <time>2018-09-06T10:45:21.000Z</time>
      </trkpt>
      <trkpt lat="43.39329888112843036651611328125" lon="-4.60621311329305171966552734375">
        <ele>32.40000152587890625</ele>
        <time>2018-09-06T10:45:28.000Z</time>
      </trkpt>
      <trkpt lat="43.3932349272072315216064453125" lon="-4.60672809742391109466552734375">
        <ele>32.40000152587890625</ele>
        <time>2018-09-06T10:45:34.000Z</time>
      </trkpt>
      <trkpt lat="43.3932054229080677032470703125" lon="-4.606900848448276519775390625">
        <ele>31.799999237060546875</ele>
        <time>2018-09-06T10:45:36.000Z</time>
      </trkpt>
      <trkpt lat="43.39318974874913692474365234375" lon="-4.606988690793514251708984375">
        <ele>31.6000003814697265625</ele>
        <time>2018-09-06T10:45:37.000Z</time>
      </trkpt>
      <trkpt lat="43.39310073293745517730712890625" lon="-4.607426226139068603515625">
        <ele>31.3999996185302734375</ele>
        <time>2018-09-06T10:45:42.000Z</time>
      </trkpt>
      <trkpt lat="43.392946757376194000244140625" lon="-4.6081160567700862884521484375">
        <ele>30.6000003814697265625</ele>
        <time>2018-09-06T10:45:50.000Z</time>
      </trkpt>
      <trkpt lat="43.39292756281793117523193359375" lon="-4.6082042343914508819580078125">
        <ele>30.6000003814697265625</ele>
        <time>2018-09-06T10:45:51.000Z</time>
      </trkpt>
      <trkpt lat="43.3927541412413120269775390625" lon="-4.6088814921677112579345703125">
        <ele>31</ele>
        <time>2018-09-06T10:45:59.000Z</time>
      </trkpt>
      <trkpt lat="43.39273293502628803253173828125" lon="-4.60896438919007778167724609375">
        <ele>31</ele>
        <time>2018-09-06T10:46:00.000Z</time>
      </trkpt>
      <trkpt lat="43.3926424942910671234130859375" lon="-4.6093964762985706329345703125">
        <ele>30.6000003814697265625</ele>
        <time>2018-09-06T10:46:05.000Z</time>
      </trkpt>
      <trkpt lat="43.3925512991845607757568359375" lon="-4.60989763028919696807861328125">
        <ele>30.200000762939453125</ele>
        <time>2018-09-06T10:46:11.000Z</time>
      </trkpt>
      <trkpt lat="43.39249019511044025421142578125" lon="-4.610391743481159210205078125">
        <ele>29.6000003814697265625</ele>
        <time>2018-09-06T10:46:17.000Z</time>
      </trkpt>
      <trkpt lat="43.39241509325802326202392578125" lon="-4.61115793325006961822509765625">
        <ele>29.6000003814697265625</ele>
        <time>2018-09-06T10:46:26.000Z</time>
      </trkpt>
      <trkpt lat="43.39240369386970996856689453125" lon="-4.61124259047210216522216796875">
        <ele>29.3999996185302734375</ele>
        <time>2018-09-06T10:46:27.000Z</time>
      </trkpt>
      <trkpt lat="43.3923249877989292144775390625" lon="-4.6120060980319976806640625">
        <ele>29.3999996185302734375</ele>
        <time>2018-09-06T10:46:36.000Z</time>
      </trkpt>
      <trkpt lat="43.39231518097221851348876953125" lon="-4.61209285072982311248779296875">
        <ele>29.3999996185302734375</ele>
        <time>2018-09-06T10:46:37.000Z</time>
      </trkpt>
      <trkpt lat="43.3922800607979297637939453125" lon="-4.61244665086269378662109375">
        <ele>29.3999996185302734375</ele>
        <time>2018-09-06T10:46:41.000Z</time>
      </trkpt>
      <trkpt lat="43.39223672635853290557861328125" lon="-4.612875469028949737548828125">
        <ele>29.3999996185302734375</ele>
        <time>2018-09-06T10:46:46.000Z</time>
      </trkpt>
      <trkpt lat="43.3921774663031101226806640625" lon="-4.61348122917115688323974609375">
        <ele>30.3999996185302734375</ele>
        <time>2018-09-06T10:46:54.000Z</time>
      </trkpt>
      <trkpt lat="43.39217319153249263763427734375" lon="-4.61354861967265605926513671875">
        <ele>30.799999237060546875</ele>
        <time>2018-09-06T10:46:55.000Z</time>
      </trkpt>
      <trkpt lat="43.39214511215686798095703125" lon="-4.6138274855911731719970703125">
        <ele>31.799999237060546875</ele>
        <time>2018-09-06T10:47:00.000Z</time>
      </trkpt>
      <trkpt lat="43.39211720041930675506591796875" lon="-4.614075757563114166259765625">
        <ele>33</ele>
        <time>2018-09-06T10:47:05.000Z</time>
      </trkpt>
      <trkpt lat="43.392109572887420654296875" lon="-4.61421824991703033447265625">
        <ele>33.40000152587890625</ele>
        <time>2018-09-06T10:47:08.000Z</time>
      </trkpt>
      <trkpt lat="43.3921047113835811614990234375" lon="-4.61441312916576862335205078125">
        <ele>34</ele>
        <time>2018-09-06T10:47:12.000Z</time>
      </trkpt>
      <trkpt lat="43.39211024343967437744140625" lon="-4.61461463011801242828369140625">
        <ele>34.59999847412109375</ele>
        <time>2018-09-06T10:47:16.000Z</time>
      </trkpt>
      <trkpt lat="43.3921127580106258392333984375" lon="-4.61466274224221706390380859375">
        <ele>34.799999237060546875</ele>
        <time>2018-09-06T10:47:17.000Z</time>
      </trkpt>
      <trkpt lat="43.392117954790592193603515625" lon="-4.6147612296044826507568359375">
        <ele>35.200000762939453125</ele>
        <time>2018-09-06T10:47:19.000Z</time>
      </trkpt>
      <trkpt lat="43.39212658815085887908935546875" lon="-4.61491160094738006591796875">
        <ele>35.799999237060546875</ele>
        <time>2018-09-06T10:47:22.000Z</time>
      </trkpt>
      <trkpt lat="43.39213681407272815704345703125" lon="-4.615009166300296783447265625">
        <ele>36.40000152587890625</ele>
        <time>2018-09-06T10:47:24.000Z</time>
      </trkpt>
      <trkpt lat="43.3921710960566997528076171875" lon="-4.61526523344218730926513671875">
        <ele>36.799999237060546875</ele>
        <time>2018-09-06T10:47:29.000Z</time>
      </trkpt>
      <trkpt lat="43.39220219291746616363525390625" lon="-4.61553026922047138214111328125">
        <ele>37</ele>
        <time>2018-09-06T10:47:34.000Z</time>
      </trkpt>
      <trkpt lat="43.39220923371613025665283203125" lon="-4.61558056063950061798095703125">
        <ele>37.40000152587890625</ele>
        <time>2018-09-06T10:47:35.000Z</time>
      </trkpt>
      <trkpt lat="43.3922277577221393585205078125" lon="-4.61584903299808502197265625">
        <ele>37.799999237060546875</ele>
        <time>2018-09-06T10:47:40.000Z</time>
      </trkpt>
      <trkpt lat="43.39222264476120471954345703125" lon="-4.61615589447319507598876953125">
        <ele>38</ele>
        <time>2018-09-06T10:47:46.000Z</time>
      </trkpt>
      <trkpt lat="43.39221443049609661102294921875" lon="-4.6163071878254413604736328125">
        <ele>38</ele>
        <time>2018-09-06T10:47:49.000Z</time>
      </trkpt>
      <trkpt lat="43.392188362777233123779296875" lon="-4.61652402766048908233642578125">
        <ele>38</ele>
        <time>2018-09-06T10:47:53.000Z</time>
      </trkpt>
      <trkpt lat="43.39215961284935474395751953125" lon="-4.6167058311402797698974609375">
        <ele>38</ele>
        <time>2018-09-06T10:47:56.000Z</time>
      </trkpt>
      <trkpt lat="43.3921224810183048248291015625" lon="-4.61695569567382335662841796875">
        <ele>37.799999237060546875</ele>
        <time>2018-09-06T10:48:00.000Z</time>
      </trkpt>
      <trkpt lat="43.39208182878792285919189453125" lon="-4.6172194741666316986083984375">
        <ele>37.799999237060546875</ele>
        <time>2018-09-06T10:48:04.000Z</time>
      </trkpt>
      <trkpt lat="43.39206866919994354248046875" lon="-4.61742742918431758880615234375">
        <ele>37.799999237060546875</ele>
        <time>2018-09-06T10:48:07.000Z</time>
      </trkpt>
      <trkpt lat="43.39206104166805744171142578125" lon="-4.61771425791084766387939453125">
        <ele>37.59999847412109375</ele>
        <time>2018-09-06T10:48:11.000Z</time>
      </trkpt>
      <trkpt lat="43.39207277633249759674072265625" lon="-4.6178554929792881011962890625">
        <ele>37.59999847412109375</ele>
        <time>2018-09-06T10:48:13.000Z</time>
      </trkpt>
      <trkpt lat="43.392084427177906036376953125" lon="-4.61799588985741138458251953125">
        <ele>37.59999847412109375</ele>
        <time>2018-09-06T10:48:15.000Z</time>
      </trkpt>
      <trkpt lat="43.3920866064727306365966796875" lon="-4.6180650405585765838623046875">
        <ele>37.40000152587890625</ele>
        <time>2018-09-06T10:48:16.000Z</time>
      </trkpt>
      <trkpt lat="43.39211619459092617034912109375" lon="-4.61861883290112018585205078125">
        <ele>38</ele>
        <time>2018-09-06T10:48:24.000Z</time>
      </trkpt>
      <trkpt lat="43.39212139137089252471923828125" lon="-4.6188940107822418212890625">
        <ele>38.200000762939453125</ele>
        <time>2018-09-06T10:48:28.000Z</time>
      </trkpt>
      <trkpt lat="43.39213312603533267974853515625" lon="-4.61931989528238773345947265625">
        <ele>38.40000152587890625</ele>
        <time>2018-09-06T10:48:34.000Z</time>
      </trkpt>
      <trkpt lat="43.39213346131145954132080078125" lon="-4.619766734540462493896484375">
        <ele>37.799999237060546875</ele>
        <time>2018-09-06T10:48:40.000Z</time>
      </trkpt>
      <trkpt lat="43.39213631115853786468505859375" lon="-4.61984217166900634765625">
        <ele>37.59999847412109375</ele>
        <time>2018-09-06T10:48:41.000Z</time>
      </trkpt>
      <trkpt lat="43.39214771054685115814208984375" lon="-4.6204354427754878997802734375">
        <ele>37.799999237060546875</ele>
        <time>2018-09-06T10:48:49.000Z</time>
      </trkpt>
      <trkpt lat="43.39214050211012363433837890625" lon="-4.62108948267996311187744140625">
        <ele>38</ele>
        <time>2018-09-06T10:48:58.000Z</time>
      </trkpt>
      <trkpt lat="43.39213614352047443389892578125" lon="-4.62128075771033763885498046875">
        <ele>37.799999237060546875</ele>
        <time>2018-09-06T10:49:01.000Z</time>
      </trkpt>
      <trkpt lat="43.3921352215111255645751953125" lon="-4.62139852344989776611328125">
        <ele>37.799999237060546875</ele>
        <time>2018-09-06T10:49:03.000Z</time>
      </trkpt>
      <trkpt lat="43.39213832281529903411865234375" lon="-4.6215281076729297637939453125">
        <ele>37.59999847412109375</ele>
        <time>2018-09-06T10:49:05.000Z</time>
      </trkpt>
      <trkpt lat="43.3921425975859165191650390625" lon="-4.62167018093168735504150390625">
        <ele>37.799999237060546875</ele>
        <time>2018-09-06T10:49:07.000Z</time>
      </trkpt>
      <trkpt lat="43.39214234612882137298583984375" lon="-4.6218969114124774932861328125">
        <ele>37.59999847412109375</ele>
        <time>2018-09-06T10:49:10.000Z</time>
      </trkpt>
      <trkpt lat="43.39214201085269451141357421875" lon="-4.622123725712299346923828125">
        <ele>37.59999847412109375</ele>
        <time>2018-09-06T10:49:13.000Z</time>
      </trkpt>
      <trkpt lat="43.392138741910457611083984375" lon="-4.62242312729358673095703125">
        <ele>37.59999847412109375</ele>
        <time>2018-09-06T10:49:17.000Z</time>
      </trkpt>
      <trkpt lat="43.39214586652815341949462890625" lon="-4.62293249554932117462158203125">
        <ele>37.40000152587890625</ele>
        <time>2018-09-06T10:49:24.000Z</time>
      </trkpt>
      <trkpt lat="43.39220101945102214813232421875" lon="-4.6233654208481311798095703125">
        <ele>36.799999237060546875</ele>
        <time>2018-09-06T10:49:30.000Z</time>
      </trkpt>
      <trkpt lat="43.39221082627773284912109375" lon="-4.62352509610354900360107421875">
        <ele>36.200000762939453125</ele>
        <time>2018-09-06T10:49:32.000Z</time>
      </trkpt>
      <trkpt lat="43.3922307752072811126708984375" lon="-4.623790048062801361083984375">
        <ele>35</ele>
        <time>2018-09-06T10:49:35.000Z</time>
      </trkpt>
      <trkpt lat="43.39223789982497692108154296875" lon="-4.623886607587337493896484375">
        <ele>34.59999847412109375</ele>
        <time>2018-09-06T10:49:36.000Z</time>
      </trkpt>
      <trkpt lat="43.392246700823307037353515625" lon="-4.62409120984375476837158203125">
        <ele>34</ele>
        <time>2018-09-06T10:49:38.000Z</time>
      </trkpt>
      <trkpt lat="43.392249047756195068359375" lon="-4.62431031279265880584716796875">
        <ele>33.200000762939453125</ele>
        <time>2018-09-06T10:49:40.000Z</time>
      </trkpt>
      <trkpt lat="43.392253406345844268798828125" lon="-4.62442430667579174041748046875">
        <ele>32.59999847412109375</ele>
        <time>2018-09-06T10:49:41.000Z</time>
      </trkpt>
      <trkpt lat="43.39225902222096920013427734375" lon="-4.6245405636727809906005859375">
        <ele>32</ele>
        <time>2018-09-06T10:49:42.000Z</time>
      </trkpt>
      <trkpt lat="43.3922646380960941314697265625" lon="-4.624654389917850494384765625">
        <ele>31.3999996185302734375</ele>
        <time>2018-09-06T10:49:43.000Z</time>
      </trkpt>
      <trkpt lat="43.39227654039859771728515625" lon="-4.62498622946441173553466796875">
        <ele>30</ele>
        <time>2018-09-06T10:49:46.000Z</time>
      </trkpt>
      <trkpt lat="43.392292968928813934326171875" lon="-4.625209607183933258056640625">
        <ele>28.799999237060546875</ele>
        <time>2018-09-06T10:49:48.000Z</time>
      </trkpt>
      <trkpt lat="43.39233060367405414581298828125" lon="-4.625426195561885833740234375">
        <ele>27.6000003814697265625</ele>
        <time>2018-09-06T10:49:50.000Z</time>
      </trkpt>
      <trkpt lat="43.3923876844346523284912109375" lon="-4.62563683278858661651611328125">
        <ele>27</ele>
        <time>2018-09-06T10:49:52.000Z</time>
      </trkpt>
      <trkpt lat="43.392410986125469207763671875" lon="-4.6257344819605350494384765625">
        <ele>26.200000762939453125</ele>
        <time>2018-09-06T10:49:53.000Z</time>
      </trkpt>
      <trkpt lat="43.3924622833728790283203125" lon="-4.6258749626576900482177734375">
        <ele>26.3999996185302734375</ele>
        <time>2018-09-06T10:49:55.000Z</time>
      </trkpt>
      <trkpt lat="43.39254400692880153656005859375" lon="-4.625978730618953704833984375">
        <ele>26.3999996185302734375</ele>
        <time>2018-09-06T10:49:57.000Z</time>
      </trkpt>
      <trkpt lat="43.3926391415297985076904296875" lon="-4.62613455019891262054443359375">
        <ele>24.799999237060546875</ele>
        <time>2018-09-06T10:49:59.000Z</time>
      </trkpt>
      <trkpt lat="43.39271918870508670806884765625" lon="-4.6263130009174346923828125">
        <ele>23.3999996185302734375</ele>
        <time>2018-09-06T10:50:01.000Z</time>
      </trkpt>
      <trkpt lat="43.3928634412586688995361328125" lon="-4.62663494981825351715087890625">
        <ele>21.799999237060546875</ele>
        <time>2018-09-06T10:50:05.000Z</time>
      </trkpt>
      <trkpt lat="43.3929338492453098297119140625" lon="-4.6267354488372802734375">
        <ele>20.6000003814697265625</ele>
        <time>2018-09-06T10:50:07.000Z</time>
      </trkpt>
      <trkpt lat="43.3929811231791973114013671875" lon="-4.626765288412570953369140625">
        <ele>20</ele>
        <time>2018-09-06T10:50:08.000Z</time>
      </trkpt>
      <trkpt lat="43.3930294029414653778076171875" lon="-4.626799486577510833740234375">
        <ele>19.3999996185302734375</ele>
        <time>2018-09-06T10:50:09.000Z</time>
      </trkpt>
      <trkpt lat="43.393120430409908294677734375" lon="-4.62690568529069423675537109375">
        <ele>18.200000762939453125</ele>
        <time>2018-09-06T10:50:11.000Z</time>
      </trkpt>
      <trkpt lat="43.3931677043437957763671875" lon="-4.62696586735546588897705078125">
        <ele>18</ele>
        <time>2018-09-06T10:50:12.000Z</time>
      </trkpt>
      <trkpt lat="43.393311537802219390869140625" lon="-4.62712193839251995086669921875">
        <ele>18</ele>
        <time>2018-09-06T10:50:15.000Z</time>
      </trkpt>
      <trkpt lat="43.39337834157049655914306640625" lon="-4.6271952800452709197998046875">
        <ele>19.3999996185302734375</ele>
        <time>2018-09-06T10:50:17.000Z</time>
      </trkpt>
      <trkpt lat="43.39339409954845905303955078125" lon="-4.62723291479051113128662109375">
        <ele>19.799999237060546875</ele>
        <time>2018-09-06T10:50:18.000Z</time>
      </trkpt>
      <trkpt lat="43.39338990859687328338623046875" lon="-4.6272656880319118499755859375">
        <ele>20.3999996185302734375</ele>
        <time>2018-09-06T10:50:19.000Z</time>
      </trkpt>
      <trkpt lat="43.3933787606656551361083984375" lon="-4.62730080820620059967041015625">
        <ele>20.799999237060546875</ele>
        <time>2018-09-06T10:50:20.000Z</time>
      </trkpt>
      <trkpt lat="43.3933526091277599334716796875" lon="-4.62737943045794963836669921875">
        <ele>21.200000762939453125</ele>
        <time>2018-09-06T10:50:22.000Z</time>
      </trkpt>
      <trkpt lat="43.393340371549129486083984375" lon="-4.6274209208786487579345703125">
        <ele>21.200000762939453125</ele>
        <time>2018-09-06T10:50:23.000Z</time>
      </trkpt>
      <trkpt lat="43.3933358453214168548583984375" lon="-4.62756584398448467254638671875">
        <ele>21.200000762939453125</ele>
        <time>2018-09-06T10:50:26.000Z</time>
      </trkpt>
      <trkpt lat="43.39339242316782474517822265625" lon="-4.627685956656932830810546875">
        <ele>21.3999996185302734375</ele>
        <time>2018-09-06T10:50:29.000Z</time>
      </trkpt>
      <trkpt lat="43.39342477731406688690185546875" lon="-4.62772711180150508880615234375">
        <ele>21.3999996185302734375</ele>
        <time>2018-09-06T10:50:30.000Z</time>
      </trkpt>
      <trkpt lat="43.3934605680406093597412109375" lon="-4.6277612261474132537841796875">
        <ele>21.3999996185302734375</ele>
        <time>2018-09-06T10:50:31.000Z</time>
      </trkpt>
      <trkpt lat="43.3935356698930263519287109375" lon="-4.62782643735408782958984375">
        <ele>21.200000762939453125</ele>
        <time>2018-09-06T10:50:33.000Z</time>
      </trkpt>
      <trkpt lat="43.3936117775738239288330078125" lon="-4.627905897796154022216796875">
        <ele>21</ele>
        <time>2018-09-06T10:50:35.000Z</time>
      </trkpt>
      <trkpt lat="43.39372359216213226318359375" lon="-4.62802818976342678070068359375">
        <ele>20.6000003814697265625</ele>
        <time>2018-09-06T10:50:38.000Z</time>
      </trkpt>
      <trkpt lat="43.393790312111377716064453125" lon="-4.6281223185360431671142578125">
        <ele>20.3999996185302734375</ele>
        <time>2018-09-06T10:50:40.000Z</time>
      </trkpt>
      <trkpt lat="43.39386306703090667724609375" lon="-4.628243185579776763916015625">
        <ele>19.3999996185302734375</ele>
        <time>2018-09-06T10:50:42.000Z</time>
      </trkpt>
      <trkpt lat="43.39390405453741550445556640625" lon="-4.6283127553761005401611328125">
        <ele>19</ele>
        <time>2018-09-06T10:50:43.000Z</time>
      </trkpt>
      <trkpt lat="43.39398913085460662841796875" lon="-4.6284559182822704315185546875">
        <ele>17.6000003814697265625</ele>
        <time>2018-09-06T10:50:45.000Z</time>
      </trkpt>
      <trkpt lat="43.39407638646662235260009765625" lon="-4.62861626408994197845458984375">
        <ele>16.3999996185302734375</ele>
        <time>2018-09-06T10:50:47.000Z</time>
      </trkpt>
      <trkpt lat="43.3941167034208774566650390625" lon="-4.628704525530338287353515625">
        <ele>16</ele>
        <time>2018-09-06T10:50:48.000Z</time>
      </trkpt>
      <trkpt lat="43.39418669231235980987548828125" lon="-4.62888188660144805908203125">
        <ele>15.19999980926513671875</ele>
        <time>2018-09-06T10:50:50.000Z</time>
      </trkpt>
      <trkpt lat="43.39428593404591083526611328125" lon="-4.6291325055062770843505859375">
        <ele>14.80000019073486328125</ele>
        <time>2018-09-06T10:50:53.000Z</time>
      </trkpt>
      <trkpt lat="43.39431275613605976104736328125" lon="-4.62921573780477046966552734375">
        <ele>14.80000019073486328125</ele>
        <time>2018-09-06T10:50:54.000Z</time>
      </trkpt>
      <trkpt lat="43.39436187408864498138427734375" lon="-4.62937809526920318603515625">
        <ele>14.19999980926513671875</ele>
        <time>2018-09-06T10:50:56.000Z</time>
      </trkpt>
      <trkpt lat="43.394388444721698760986328125" lon="-4.6295509301126003265380859375">
        <ele>13.80000019073486328125</ele>
        <time>2018-09-06T10:50:58.000Z</time>
      </trkpt>
      <trkpt lat="43.3944627083837985992431640625" lon="-4.62988905608654022216796875">
        <ele>12.80000019073486328125</ele>
        <time>2018-09-06T10:51:02.000Z</time>
      </trkpt>
      <trkpt lat="43.39451408945024013519287109375" lon="-4.6300685964524745941162109375">
        <ele>12.19999980926513671875</ele>
        <time>2018-09-06T10:51:04.000Z</time>
      </trkpt>
      <trkpt lat="43.3945421688258647918701171875" lon="-4.6301621384918689727783203125">
        <ele>11.80000019073486328125</ele>
        <time>2018-09-06T10:51:05.000Z</time>
      </trkpt>
      <trkpt lat="43.39456052519381046295166015625" lon="-4.6302513219416141510009765625">
        <ele>11.6000003814697265625</ele>
        <time>2018-09-06T10:51:06.000Z</time>
      </trkpt>
      <trkpt lat="43.39460226707160472869873046875" lon="-4.6304280124604701995849609375">
        <ele>11.3999996185302734375</ele>
        <time>2018-09-06T10:51:08.000Z</time>
      </trkpt>
      <trkpt lat="43.3946290053427219390869140625" lon="-4.630515016615390777587890625">
        <ele>11.3999996185302734375</ele>
        <time>2018-09-06T10:51:09.000Z</time>
      </trkpt>
      <trkpt lat="43.39473872445523738861083984375" lon="-4.630843587219715118408203125">
        <ele>11.19999980926513671875</ele>
        <time>2018-09-06T10:51:13.000Z</time>
      </trkpt>
      <trkpt lat="43.39480611495673656463623046875" lon="-4.630987755954265594482421875">
        <ele>11.6000003814697265625</ele>
        <time>2018-09-06T10:51:15.000Z</time>
      </trkpt>
      <trkpt lat="43.39497484266757965087890625" lon="-4.6313704736530780792236328125">
        <ele>12.19999980926513671875</ele>
        <time>2018-09-06T10:51:21.000Z</time>
      </trkpt>
      <trkpt lat="43.39500996284186840057373046875" lon="-4.63149108923971652984619140625">
        <ele>12.19999980926513671875</ele>
        <time>2018-09-06T10:51:23.000Z</time>
      </trkpt>
      <trkpt lat="43.3950330130755901336669921875" lon="-4.6316132135689258575439453125">
        <ele>12.19999980926513671875</ele>
        <time>2018-09-06T10:51:25.000Z</time>
      </trkpt>
      <trkpt lat="43.39505271054804325103759765625" lon="-4.63173232041299343109130859375">
        <ele>12.3999996185302734375</ele>
        <time>2018-09-06T10:51:27.000Z</time>
      </trkpt>
      <trkpt lat="43.3950749225914478302001953125" lon="-4.6318479068577289581298828125">
        <ele>13</ele>
        <time>2018-09-06T10:51:29.000Z</time>
      </trkpt>
      <trkpt lat="43.39509696699678897857666015625" lon="-4.631951339542865753173828125">
        <ele>13.3999996185302734375</ele>
        <time>2018-09-06T10:51:31.000Z</time>
      </trkpt>
      <trkpt lat="43.3951148204505443572998046875" lon="-4.632048904895782470703125">
        <ele>13.80000019073486328125</ele>
        <time>2018-09-06T10:51:33.000Z</time>
      </trkpt>
      <trkpt lat="43.3951221965253353118896484375" lon="-4.63209441863000392913818359375">
        <ele>14.19999980926513671875</ele>
        <time>2018-09-06T10:51:34.000Z</time>
      </trkpt>
      <trkpt lat="43.39513703249394893646240234375" lon="-4.6322245895862579345703125">
        <ele>15</ele>
        <time>2018-09-06T10:51:37.000Z</time>
      </trkpt>
      <trkpt lat="43.39512596838176250457763671875" lon="-4.63230949826538562774658203125">
        <ele>15.3999996185302734375</ele>
        <time>2018-09-06T10:51:39.000Z</time>
      </trkpt>
      <trkpt lat="43.39512160979211330413818359375" lon="-4.632458277046680450439453125">
        <ele>15.80000019073486328125</ele>
        <time>2018-09-06T10:51:42.000Z</time>
      </trkpt>
      <trkpt lat="43.395128734409809112548828125" lon="-4.6325576864182949066162109375">
        <ele>16.200000762939453125</ele>
        <time>2018-09-06T10:51:44.000Z</time>
      </trkpt>
      <trkpt lat="43.39512881822884082794189453125" lon="-4.63260873220860958099365234375">
        <ele>16.3999996185302734375</ele>
        <time>2018-09-06T10:51:45.000Z</time>
      </trkpt>
      <trkpt lat="43.395126052200794219970703125" lon="-4.63271283544600009918212890625">
        <ele>16.200000762939453125</ele>
        <time>2018-09-06T10:51:47.000Z</time>
      </trkpt>
      <trkpt lat="43.39513711631298065185546875" lon="-4.63287779130041599273681640625">
        <ele>16.200000762939453125</ele>
        <time>2018-09-06T10:51:50.000Z</time>
      </trkpt>
      <trkpt lat="43.39514206163585186004638671875" lon="-4.63303939439356327056884765625">
        <ele>16.200000762939453125</ele>
        <time>2018-09-06T10:51:53.000Z</time>
      </trkpt>
      <trkpt lat="43.39510518126189708709716796875" lon="-4.6334431506693363189697265625">
        <ele>16.6000003814697265625</ele>
        <time>2018-09-06T10:52:01.000Z</time>
      </trkpt>
      <trkpt lat="43.39508120901882648468017578125" lon="-4.6337609924376010894775390625">
        <ele>17</ele>
        <time>2018-09-06T10:52:07.000Z</time>
      </trkpt>
      <trkpt lat="43.3950688876211643218994140625" lon="-4.6340216696262359619140625">
        <ele>17.3999996185302734375</ele>
        <time>2018-09-06T10:52:12.000Z</time>
      </trkpt>
      <trkpt lat="43.395067043602466583251953125" lon="-4.63407087139785289764404296875">
        <ele>17.3999996185302734375</ele>
        <time>2018-09-06T10:52:13.000Z</time>
      </trkpt>
      <trkpt lat="43.3950598351657390594482421875" lon="-4.6341975219547748565673828125">
        <ele>18.6000003814697265625</ele>
        <time>2018-09-06T10:52:17.000Z</time>
      </trkpt>
      <trkpt lat="43.3950491063296794891357421875" lon="-4.63426013477146625518798828125">
        <ele>19.6000003814697265625</ele>
        <time>2018-09-06T10:52:20.000Z</time>
      </trkpt>
      <trkpt lat="43.395043909549713134765625" lon="-4.6342984400689601898193359375">
        <ele>20.200000762939453125</ele>
        <time>2018-09-06T10:52:22.000Z</time>
      </trkpt>
      <trkpt lat="43.39504332281649112701416015625" lon="-4.63434060104191303253173828125">
        <ele>20.6000003814697265625</ele>
        <time>2018-09-06T10:52:24.000Z</time>
      </trkpt>
      <trkpt lat="43.3950417302548885345458984375" lon="-4.634363315999507904052734375">
        <ele>20.799999237060546875</ele>
        <time>2018-09-06T10:52:25.000Z</time>
      </trkpt>
      <trkpt lat="43.39503795839846134185791015625" lon="-4.6344387531280517578125">
        <ele>21.799999237060546875</ele>
        <time>2018-09-06T10:52:29.000Z</time>
      </trkpt>
      <trkpt lat="43.3950393833220005035400390625" lon="-4.63445526547729969024658203125">
        <ele>22</ele>
        <time>2018-09-06T10:52:30.000Z</time>
      </trkpt>
      <trkpt lat="43.395048268139362335205078125" lon="-4.6344908885657787322998046875">
        <ele>22.3999996185302734375</ele>
        <time>2018-09-06T10:52:32.000Z</time>
      </trkpt>
      <trkpt lat="43.3950720727443695068359375" lon="-4.6345626376569271087646484375">
        <ele>23.200000762939453125</ele>
        <time>2018-09-06T10:52:36.000Z</time>
      </trkpt>
      <trkpt lat="43.39511054567992687225341796875" lon="-4.63459708727896213531494140625">
        <ele>23.799999237060546875</ele>
        <time>2018-09-06T10:52:39.000Z</time>
      </trkpt>
      <trkpt lat="43.39516217820346355438232421875" lon="-4.634612761437892913818359375">
        <ele>24.3999996185302734375</ele>
        <time>2018-09-06T10:52:42.000Z</time>
      </trkpt>
      <trkpt lat="43.3952345140278339385986328125" lon="-4.6346377395093441009521484375">
        <ele>25</ele>
        <time>2018-09-06T10:52:46.000Z</time>
      </trkpt>
      <trkpt lat="43.3953072689473628997802734375" lon="-4.6347332932054996490478515625">
        <ele>25.3999996185302734375</ele>
        <time>2018-09-06T10:52:51.000Z</time>
      </trkpt>
      <trkpt lat="43.3953183330595493316650390625" lon="-4.63475852273404598236083984375">
        <ele>25.6000003814697265625</ele>
        <time>2018-09-06T10:52:52.000Z</time>
      </trkpt>
      <trkpt lat="43.39542620815336704254150390625" lon="-4.63496337644755840301513671875">
        <ele>26</ele>
        <time>2018-09-06T10:52:59.000Z</time>
      </trkpt>
      <trkpt lat="43.39549561031162738800048828125" lon="-4.63499221019446849822998046875">
        <ele>26.3999996185302734375</ele>
        <time>2018-09-06T10:53:02.000Z</time>
      </trkpt>
      <trkpt lat="43.395545482635498046875" lon="-4.63498516939580440521240234375">
        <ele>26.3999996185302734375</ele>
        <time>2018-09-06T10:53:04.000Z</time>
      </trkpt>
      <trkpt lat="43.39557230472564697265625" lon="-4.6349844150245189666748046875">
        <ele>26.6000003814697265625</ele>
        <time>2018-09-06T10:53:05.000Z</time>
      </trkpt>
      <trkpt lat="43.3957565389573574066162109375" lon="-4.6349927969276905059814453125">
        <ele>27.6000003814697265625</ele>
        <time>2018-09-06T10:53:12.000Z</time>
      </trkpt>
      <trkpt lat="43.3959489874541759490966796875" lon="-4.63510402478277683258056640625">
        <ele>28.3999996185302734375</ele>
        <time>2018-09-06T10:53:19.000Z</time>
      </trkpt>
      <trkpt lat="43.39599986560642719268798828125" lon="-4.635153226554393768310546875">
        <ele>28.799999237060546875</ele>
        <time>2018-09-06T10:53:21.000Z</time>
      </trkpt>
      <trkpt lat="43.39614336378872394561767578125" lon="-4.63534609414637088775634765625">
        <ele>30</ele>
        <time>2018-09-06T10:53:28.000Z</time>
      </trkpt>
      <trkpt lat="43.39624981395900249481201171875" lon="-4.63551389984786510467529296875">
        <ele>31</ele>
        <time>2018-09-06T10:53:34.000Z</time>
      </trkpt>
      <trkpt lat="43.39628283865749835968017578125" lon="-4.63557064533233642578125">
        <ele>31.3999996185302734375</ele>
        <time>2018-09-06T10:53:36.000Z</time>
      </trkpt>
      <trkpt lat="43.39638342149555683135986328125" lon="-4.6357639320194721221923828125">
        <ele>31.799999237060546875</ele>
        <time>2018-09-06T10:53:42.000Z</time>
      </trkpt>
      <trkpt lat="43.39644041843712329864501953125" lon="-4.63587574660778045654296875">
        <ele>32.200000762939453125</ele>
        <time>2018-09-06T10:53:45.000Z</time>
      </trkpt>
      <trkpt lat="43.39649473316967487335205078125" lon="-4.6359930932521820068359375">
        <ele>32.59999847412109375</ele>
        <time>2018-09-06T10:53:48.000Z</time>
      </trkpt>
      <trkpt lat="43.39657452888786792755126953125" lon="-4.63618897832930088043212890625">
        <ele>33.200000762939453125</ele>
        <time>2018-09-06T10:53:53.000Z</time>
      </trkpt>
      <trkpt lat="43.39661744423210620880126953125" lon="-4.63630758225917816162109375">
        <ele>33.799999237060546875</ele>
        <time>2018-09-06T10:53:56.000Z</time>
      </trkpt>
      <trkpt lat="43.39665633626282215118408203125" lon="-4.6364190615713596343994140625">
        <ele>34.200000762939453125</ele>
        <time>2018-09-06T10:53:59.000Z</time>
      </trkpt>
      <trkpt lat="43.3967033587396144866943359375" lon="-4.63661913760006427764892578125">
        <ele>34.799999237060546875</ele>
        <time>2018-09-06T10:54:04.000Z</time>
      </trkpt>
      <trkpt lat="43.39674015529453754425048828125" lon="-4.636885933578014373779296875">
        <ele>34.799999237060546875</ele>
        <time>2018-09-06T10:54:10.000Z</time>
      </trkpt>
      <trkpt lat="43.39675406925380229949951171875" lon="-4.63698743842542171478271484375">
        <ele>34.799999237060546875</ele>
        <time>2018-09-06T10:54:12.000Z</time>
      </trkpt>
      <trkpt lat="43.39676446281373500823974609375" lon="-4.6370954811573028564453125">
        <ele>35</ele>
        <time>2018-09-06T10:54:14.000Z</time>
      </trkpt>
      <trkpt lat="43.39674778282642364501953125" lon="-4.63739496655762195587158203125">
        <ele>34.799999237060546875</ele>
        <time>2018-09-06T10:54:19.000Z</time>
      </trkpt>
      <trkpt lat="43.39673412032425403594970703125" lon="-4.63752052746713161468505859375">
        <ele>34.40000152587890625</ele>
        <time>2018-09-06T10:54:21.000Z</time>
      </trkpt>
      <trkpt lat="43.39672942645847797393798828125" lon="-4.637582302093505859375">
        <ele>34</ele>
        <time>2018-09-06T10:54:23.000Z</time>
      </trkpt>
      <trkpt lat="43.396814167499542236328125" lon="-4.63755036704242229461669921875">
        <ele>34.40000152587890625</ele>
        <time>2018-09-06T10:54:36.000Z</time>
      </trkpt>
      <trkpt lat="43.39685113169252872467041015625" lon="-4.63755656965076923370361328125">
        <ele>34.799999237060546875</ele>
        <time>2018-09-06T10:54:39.000Z</time>
      </trkpt>
      <trkpt lat="43.3968743495643138885498046875" lon="-4.63755606673657894134521484375">
        <ele>35.200000762939453125</ele>
        <time>2018-09-06T10:54:41.000Z</time>
      </trkpt>
      <trkpt lat="43.39689421467483043670654296875" lon="-4.63756411336362361907958984375">
        <ele>35.59999847412109375</ele>
        <time>2018-09-06T10:54:43.000Z</time>
      </trkpt>
      <trkpt lat="43.396927826106548309326171875" lon="-4.6375702321529388427734375">
        <ele>36</ele>
        <time>2018-09-06T10:54:45.000Z</time>
      </trkpt>
      <trkpt lat="43.39696328155696392059326171875" lon="-4.63757869787514209747314453125">
        <ele>36.40000152587890625</ele>
        <time>2018-09-06T10:54:47.000Z</time>
      </trkpt>
      <trkpt lat="43.39699379168450832366943359375" lon="-4.637586660683155059814453125">
        <ele>36.799999237060546875</ele>
        <time>2018-09-06T10:54:49.000Z</time>
      </trkpt>
      <trkpt lat="43.397055231034755706787109375" lon="-4.63761323131620883941650390625">
        <ele>37.40000152587890625</ele>
        <time>2018-09-06T10:54:53.000Z</time>
      </trkpt>
      <trkpt lat="43.3970906026661396026611328125" lon="-4.63764131069183349609375">
        <ele>38.200000762939453125</ele>
        <time>2018-09-06T10:54:56.000Z</time>
      </trkpt>
      <trkpt lat="43.39710644446313381195068359375" lon="-4.6376683004200458526611328125">
        <ele>38.59999847412109375</ele>
        <time>2018-09-06T10:54:58.000Z</time>
      </trkpt>
      <trkpt lat="43.397113569080829620361328125" lon="-4.63768783025443553924560546875">
        <ele>38.799999237060546875</ele>
        <time>2018-09-06T10:54:59.000Z</time>
      </trkpt>
      <trkpt lat="43.39712798595428466796875" lon="-4.63774750940501689910888671875">
        <ele>39.40000152587890625</ele>
        <time>2018-09-06T10:55:02.000Z</time>
      </trkpt>
      <trkpt lat="43.39713041670620441436767578125" lon="-4.63776460848748683929443359375">
        <ele>39.59999847412109375</ele>
        <time>2018-09-06T10:55:03.000Z</time>
      </trkpt>
      <trkpt lat="43.39714600704610347747802734375" lon="-4.63781992904841899871826171875">
        <ele>40.40000152587890625</ele>
        <time>2018-09-06T10:55:07.000Z</time>
      </trkpt>
      <trkpt lat="43.39716620743274688720703125" lon="-4.6378543786704540252685546875">
        <ele>40.799999237060546875</ele>
        <time>2018-09-06T10:55:09.000Z</time>
      </trkpt>
      <trkpt lat="43.39717400260269641876220703125" lon="-4.63786820881068706512451171875">
        <ele>41</ele>
        <time>2018-09-06T10:55:10.000Z</time>
      </trkpt>
      <trkpt lat="43.3972113020718097686767578125" lon="-4.63795940391719341278076171875">
        <ele>41.799999237060546875</ele>
        <time>2018-09-06T10:55:15.000Z</time>
      </trkpt>
      <trkpt lat="43.39722965843975543975830078125" lon="-4.6379864774644374847412109375">
        <ele>42.40000152587890625</ele>
        <time>2018-09-06T10:55:17.000Z</time>
      </trkpt>
      <trkpt lat="43.39725329540669918060302734375" lon="-4.63802729733288288116455078125">
        <ele>42.59999847412109375</ele>
        <time>2018-09-06T10:55:20.000Z</time>
      </trkpt>
      <trkpt lat="43.3972662873566150665283203125" lon="-4.638054370880126953125">
        <ele>42.799999237060546875</ele>
        <time>2018-09-06T10:55:22.000Z</time>
      </trkpt>
      <trkpt lat="43.39727106504142284393310546875" lon="-4.63806568644940853118896484375">
        <ele>43</ele>
        <time>2018-09-06T10:55:23.000Z</time>
      </trkpt>
      <trkpt lat="43.39729093015193939208984375" lon="-4.63811966590583324432373046875">
        <ele>43.59999847412109375</ele>
        <time>2018-09-06T10:55:27.000Z</time>
      </trkpt>
      <trkpt lat="43.397305347025394439697265625" lon="-4.6381648443639278411865234375">
        <ele>44</ele>
        <time>2018-09-06T10:55:30.000Z</time>
      </trkpt>
      <trkpt lat="43.39731372892856597900390625" lon="-4.6381772495806217193603515625">
        <ele>44.200000762939453125</ele>
        <time>2018-09-06T10:55:31.000Z</time>
      </trkpt>
      <trkpt lat="43.397323787212371826171875" lon="-4.63818336836993694305419921875">
        <ele>44.200000762939453125</ele>
        <time>2018-09-06T10:55:32.000Z</time>
      </trkpt>
      <trkpt lat="43.39731984771788120269775390625" lon="-4.63816358707845211029052734375">
        <ele>44.200000762939453125</ele>
        <time>2018-09-06T10:55:36.000Z</time>
      </trkpt>
      <trkpt lat="43.397313393652439117431640625" lon="-4.6382104419171810150146484375">
        <ele>44.200000762939453125</ele>
        <time>2018-09-06T10:55:38.000Z</time>
      </trkpt>
      <trkpt lat="43.39731766842305660247802734375" lon="-4.63823315687477588653564453125">
        <ele>44.200000762939453125</ele>
        <time>2018-09-06T10:55:39.000Z</time>
      </trkpt>
      <trkpt lat="43.39732890017330646514892578125" lon="-4.63837782852351665496826171875">
        <ele>44.200000762939453125</ele>
        <time>2018-09-06T10:55:44.000Z</time>
      </trkpt>
      <trkpt lat="43.39733845554292201995849609375" lon="-4.638471119105815887451171875">
        <ele>44</ele>
        <time>2018-09-06T10:55:47.000Z</time>
      </trkpt>
      <trkpt lat="43.39734717272222042083740234375" lon="-4.63854529894888401031494140625">
        <ele>44</ele>
        <time>2018-09-06T10:55:49.000Z</time>
      </trkpt>
      <trkpt lat="43.39735236950218677520751953125" lon="-4.63863263837993144989013671875">
        <ele>43.59999847412109375</ele>
        <time>2018-09-06T10:55:51.000Z</time>
      </trkpt>
      <trkpt lat="43.39735555462539196014404296875" lon="-4.6386794932186603546142578125">
        <ele>43.40000152587890625</ele>
        <time>2018-09-06T10:55:52.000Z</time>
      </trkpt>
      <trkpt lat="43.397361673414707183837890625" lon="-4.63876557536423206329345703125">
        <ele>43</ele>
        <time>2018-09-06T10:55:54.000Z</time>
      </trkpt>
      <trkpt lat="43.3973638527095317840576171875" lon="-4.63881201110780239105224609375">
        <ele>42.59999847412109375</ele>
        <time>2018-09-06T10:55:55.000Z</time>
      </trkpt>
      <trkpt lat="43.39736879803240299224853515625" lon="-4.63886079378426074981689453125">
        <ele>42.200000762939453125</ele>
        <time>2018-09-06T10:55:56.000Z</time>
      </trkpt>
      <trkpt lat="43.39737818576395511627197265625" lon="-4.63897646404802799224853515625">
        <ele>41.40000152587890625</ele>
        <time>2018-09-06T10:55:58.000Z</time>
      </trkpt>
      <trkpt lat="43.397500477731227874755859375" lon="-4.63927905075252056121826171875">
        <ele>40.40000152587890625</ele>
        <time>2018-09-06T10:56:03.000Z</time>
      </trkpt>
      <trkpt lat="43.3975262939929962158203125" lon="-4.63933822698891162872314453125">
        <ele>40.40000152587890625</ele>
        <time>2018-09-06T10:56:04.000Z</time>
      </trkpt>
      <trkpt lat="43.39755118824541568756103515625" lon="-4.6395009197294712066650390625">
        <ele>40.40000152587890625</ele>
        <time>2018-09-06T10:56:07.000Z</time>
      </trkpt>
      <trkpt lat="43.3975462429225444793701171875" lon="-4.63959119282662868499755859375">
        <ele>40.200000762939453125</ele>
        <time>2018-09-06T10:56:09.000Z</time>
      </trkpt>
      <trkpt lat="43.3975254558026790618896484375" lon="-4.63968406431376934051513671875">
        <ele>40</ele>
        <time>2018-09-06T10:56:11.000Z</time>
      </trkpt>
      <trkpt lat="43.39751229621469974517822265625" lon="-4.63972848840057849884033203125">
        <ele>40</ele>
        <time>2018-09-06T10:56:12.000Z</time>
      </trkpt>
      <trkpt lat="43.39750257320702075958251953125" lon="-4.63977165520191192626953125">
        <ele>39.799999237060546875</ele>
        <time>2018-09-06T10:56:13.000Z</time>
      </trkpt>
      <trkpt lat="43.3974832110106945037841796875" lon="-4.6398787759244441986083984375">
        <ele>40.200000762939453125</ele>
        <time>2018-09-06T10:56:16.000Z</time>
      </trkpt>
      <trkpt lat="43.3974604122340679168701171875" lon="-4.63992445729672908782958984375">
        <ele>40.200000762939453125</ele>
        <time>2018-09-06T10:56:18.000Z</time>
      </trkpt>
      <trkpt lat="43.3974111266434192657470703125" lon="-4.6400504373013973236083984375">
        <ele>40.200000762939453125</ele>
        <time>2018-09-06T10:56:22.000Z</time>
      </trkpt>
      <trkpt lat="43.3974047563970088958740234375" lon="-4.64008606038987636566162109375">
        <ele>40.40000152587890625</ele>
        <time>2018-09-06T10:56:23.000Z</time>
      </trkpt>
      <trkpt lat="43.3973943628370761871337890625" lon="-4.640122689306735992431640625">
        <ele>40.59999847412109375</ele>
        <time>2018-09-06T10:56:24.000Z</time>
      </trkpt>
      <trkpt lat="43.3973799459636211395263671875" lon="-4.64015747420489788055419921875">
        <ele>40.59999847412109375</ele>
        <time>2018-09-06T10:56:25.000Z</time>
      </trkpt>
      <trkpt lat="43.39734901674091815948486328125" lon="-4.64023165404796600341796875">
        <ele>40.59999847412109375</ele>
        <time>2018-09-06T10:56:27.000Z</time>
      </trkpt>
      <trkpt lat="43.39732219465076923370361328125" lon="-4.64030466042459011077880859375">
        <ele>41.200000762939453125</ele>
        <time>2018-09-06T10:56:29.000Z</time>
      </trkpt>
      <trkpt lat="43.39729839004576206207275390625" lon="-4.64037439785897731781005859375">
        <ele>41</ele>
        <time>2018-09-06T10:56:31.000Z</time>
      </trkpt>
      <trkpt lat="43.3972830511629581451416015625" lon="-4.64040624909102916717529296875">
        <ele>40.799999237060546875</ele>
        <time>2018-09-06T10:56:32.000Z</time>
      </trkpt>
      <trkpt lat="43.397253043949604034423828125" lon="-4.6404675208032131195068359375">
        <ele>41.59999847412109375</ele>
        <time>2018-09-06T10:56:34.000Z</time>
      </trkpt>
      <trkpt lat="43.39722655713558197021484375" lon="-4.64053465984761714935302734375">
        <ele>42.799999237060546875</ele>
        <time>2018-09-06T10:56:36.000Z</time>
      </trkpt>
      <trkpt lat="43.3971660397946834564208984375" lon="-4.64067815802991390228271484375">
        <ele>43</ele>
        <time>2018-09-06T10:56:40.000Z</time>
      </trkpt>
      <trkpt lat="43.39714986272156238555908203125" lon="-4.64083657599985599517822265625">
        <ele>43</ele>
        <time>2018-09-06T10:56:43.000Z</time>
      </trkpt>
      <trkpt lat="43.397155143320560455322265625" lon="-4.64090111665427684783935546875">
        <ele>42.799999237060546875</ele>
        <time>2018-09-06T10:56:44.000Z</time>
      </trkpt>
      <trkpt lat="43.397189676761627197265625" lon="-4.6411967463791370391845703125">
        <ele>41.40000152587890625</ele>
        <time>2018-09-06T10:56:48.000Z</time>
      </trkpt>
      <trkpt lat="43.3972170017659664154052734375" lon="-4.641349129378795623779296875">
        <ele>41.200000762939453125</ele>
        <time>2018-09-06T10:56:50.000Z</time>
      </trkpt>
      <trkpt lat="43.3972485177218914031982421875" lon="-4.6416594274342060089111328125">
        <ele>41</ele>
        <time>2018-09-06T10:56:54.000Z</time>
      </trkpt>
      <trkpt lat="43.3972314186394214630126953125" lon="-4.64181155897676944732666015625">
        <ele>40.59999847412109375</ele>
        <time>2018-09-06T10:56:56.000Z</time>
      </trkpt>
      <trkpt lat="43.3972045965492725372314453125" lon="-4.64204792864620685577392578125">
        <ele>40.40000152587890625</ele>
        <time>2018-09-06T10:56:59.000Z</time>
      </trkpt>
      <trkpt lat="43.3971543051302433013916015625" lon="-4.6424483321607112884521484375">
        <ele>40</ele>
        <time>2018-09-06T10:57:04.000Z</time>
      </trkpt>
      <trkpt lat="43.39710409753024578094482421875" lon="-4.6429200656712055206298828125">
        <ele>39.59999847412109375</ele>
        <time>2018-09-06T10:57:10.000Z</time>
      </trkpt>
      <trkpt lat="43.39710409753024578094482421875" lon="-4.64300229214131832122802734375">
        <ele>39.40000152587890625</ele>
        <time>2018-09-06T10:57:11.000Z</time>
      </trkpt>
      <trkpt lat="43.397106193006038665771484375" lon="-4.643084518611431121826171875">
        <ele>39.40000152587890625</ele>
        <time>2018-09-06T10:57:12.000Z</time>
      </trkpt>
      <trkpt lat="43.39711449109017848968505859375" lon="-4.64316389523446559906005859375">
        <ele>39.200000762939453125</ele>
        <time>2018-09-06T10:57:13.000Z</time>
      </trkpt>
      <trkpt lat="43.397162519395351409912109375" lon="-4.64337143115699291229248046875">
        <ele>39.59999847412109375</ele>
        <time>2018-09-06T10:57:16.000Z</time>
      </trkpt>
      <trkpt lat="43.3971828036010265350341796875" lon="-4.64342289604246616363525390625">
        <ele>40</ele>
        <time>2018-09-06T10:57:17.000Z</time>
      </trkpt>
      <trkpt lat="43.397204093635082244873046875" lon="-4.64347184635698795318603515625">
        <ele>40.40000152587890625</ele>
        <time>2018-09-06T10:57:18.000Z</time>
      </trkpt>
      <trkpt lat="43.3972726576030254364013671875" lon="-4.6436285041272640228271484375">
        <ele>41</ele>
        <time>2018-09-06T10:57:21.000Z</time>
      </trkpt>
      <trkpt lat="43.39742713607847690582275390625" lon="-4.6441550552845001220703125">
        <ele>41</ele>
        <time>2018-09-06T10:57:30.000Z</time>
      </trkpt>
      <trkpt lat="43.39743669144809246063232421875" lon="-4.6442179195582866668701171875">
        <ele>41</ele>
        <time>2018-09-06T10:57:31.000Z</time>
      </trkpt>
      <trkpt lat="43.39748673141002655029296875" lon="-4.64448706246912479400634765625">
        <ele>40</ele>
        <time>2018-09-06T10:57:35.000Z</time>
      </trkpt>
      <trkpt lat="43.39753408916294574737548828125" lon="-4.644749164581298828125">
        <ele>39.59999847412109375</ele>
        <time>2018-09-06T10:57:39.000Z</time>
      </trkpt>
      <trkpt lat="43.3975673653185367584228515625" lon="-4.64495837688446044921875">
        <ele>39.200000762939453125</ele>
        <time>2018-09-06T10:57:42.000Z</time>
      </trkpt>
      <trkpt lat="43.3976166509091854095458984375" lon="-4.64520103298127651214599609375">
        <ele>39</ele>
        <time>2018-09-06T10:57:46.000Z</time>
      </trkpt>
      <trkpt lat="43.39762159623205661773681640625" lon="-4.64530731551349163055419921875">
        <ele>39.200000762939453125</ele>
        <time>2018-09-06T10:57:48.000Z</time>
      </trkpt>
      <trkpt lat="43.3976300619542598724365234375" lon="-4.64540387503802776336669921875">
        <ele>39</ele>
        <time>2018-09-06T10:57:50.000Z</time>
      </trkpt>
      <trkpt lat="43.3976689539849758148193359375" lon="-4.64561157859861850738525390625">
        <ele>39.200000762939453125</ele>
        <time>2018-09-06T10:57:54.000Z</time>
      </trkpt>
      <trkpt lat="43.397674821317195892333984375" lon="-4.64566849172115325927734375">
        <ele>39.200000762939453125</ele>
        <time>2018-09-06T10:57:55.000Z</time>
      </trkpt>
      <trkpt lat="43.3977048285305500030517578125" lon="-4.64599094353616237640380859375">
        <ele>38</ele>
        <time>2018-09-06T10:58:00.000Z</time>
      </trkpt>
      <trkpt lat="43.39771664701402187347412109375" lon="-4.646061770617961883544921875">
        <ele>37.799999237060546875</ele>
        <time>2018-09-06T10:58:01.000Z</time>
      </trkpt>
      <trkpt lat="43.3977567963302135467529296875" lon="-4.6461980603635311126708984375">
        <ele>37.59999847412109375</ele>
        <time>2018-09-06T10:58:03.000Z</time>
      </trkpt>
      <trkpt lat="43.3978070877492427825927734375" lon="-4.6463278122246265411376953125">
        <ele>37.59999847412109375</ele>
        <time>2018-09-06T10:58:05.000Z</time>
      </trkpt>
      <trkpt lat="43.3978402800858020782470703125" lon="-4.6463871560990810394287109375">
        <ele>37.59999847412109375</ele>
        <time>2018-09-06T10:58:06.000Z</time>
      </trkpt>
      <trkpt lat="43.39793256483972072601318359375" lon="-4.6464870683848857879638671875">
        <ele>37.799999237060546875</ele>
        <time>2018-09-06T10:58:08.000Z</time>
      </trkpt>
      <trkpt lat="43.39798470027744770050048828125" lon="-4.64652403257787227630615234375">
        <ele>38</ele>
        <time>2018-09-06T10:58:09.000Z</time>
      </trkpt>
      <trkpt lat="43.39808930642902851104736328125" lon="-4.64657750912010669708251953125">
        <ele>38</ele>
        <time>2018-09-06T10:58:11.000Z</time>
      </trkpt>
      <trkpt lat="43.3981410227715969085693359375" lon="-4.64659997262060642242431640625">
        <ele>38</ele>
        <time>2018-09-06T10:58:12.000Z</time>
      </trkpt>
      <trkpt lat="43.39823833666741847991943359375" lon="-4.64663685299456119537353515625">
        <ele>38</ele>
        <time>2018-09-06T10:58:14.000Z</time>
      </trkpt>
      <trkpt lat="43.39836607687175273895263671875" lon="-4.64670089073479175567626953125">
        <ele>38</ele>
        <time>2018-09-06T10:58:17.000Z</time>
      </trkpt>
      <trkpt lat="43.3984521590173244476318359375" lon="-4.64676895178854465484619140625">
        <ele>38.59999847412109375</ele>
        <time>2018-09-06T10:58:20.000Z</time>
      </trkpt>
      <trkpt lat="43.3984786458313465118408203125" lon="-4.64680348522961139678955078125">
        <ele>39.200000762939453125</ele>
        <time>2018-09-06T10:58:22.000Z</time>
      </trkpt>
      <trkpt lat="43.398485518991947174072265625" lon="-4.6468324027955532073974609375">
        <ele>39.40000152587890625</ele>
        <time>2018-09-06T10:58:24.000Z</time>
      </trkpt>
      <trkpt lat="43.39850638993084430694580078125" lon="-4.646897949278354644775390625">
        <ele>39.799999237060546875</ele>
        <time>2018-09-06T10:58:28.000Z</time>
      </trkpt>
      <trkpt lat="43.398541510105133056640625" lon="-4.6469708718359470367431640625">
        <ele>39.59999847412109375</ele>
        <time>2018-09-06T10:58:30.000Z</time>
      </trkpt>
      <trkpt lat="43.39868777431547641754150390625" lon="-4.6472618915140628814697265625">
        <ele>38.40000152587890625</ele>
        <time>2018-09-06T10:58:36.000Z</time>
      </trkpt>
      <trkpt lat="43.398729264736175537109375" lon="-4.647370688617229461669921875">
        <ele>38.40000152587890625</ele>
        <time>2018-09-06T10:58:38.000Z</time>
      </trkpt>
      <trkpt lat="43.3987254090607166290283203125" lon="-4.64750370942056179046630859375">
        <ele>38.200000762939453125</ele>
        <time>2018-09-06T10:58:40.000Z</time>
      </trkpt>
      <trkpt lat="43.39868743903934955596923828125" lon="-4.64774326421320438385009765625">
        <ele>35.59999847412109375</ele>
        <time>2018-09-06T10:58:43.000Z</time>
      </trkpt>
      <trkpt lat="43.39867855422198772430419921875" lon="-4.64781333692371845245361328125">
        <ele>34.59999847412109375</ele>
        <time>2018-09-06T10:58:44.000Z</time>
      </trkpt>
      <trkpt lat="43.3986576832830905914306640625" lon="-4.64789547957479953765869140625">
        <ele>33.799999237060546875</ele>
        <time>2018-09-06T10:58:45.000Z</time>
      </trkpt>
      <trkpt lat="43.39859758503735065460205078125" lon="-4.6480283327400684356689453125">
        <ele>32.40000152587890625</ele>
        <time>2018-09-06T10:58:47.000Z</time>
      </trkpt>
      <trkpt lat="43.39857528917491436004638671875" lon="-4.6481024287641048431396484375">
        <ele>31.3999996185302734375</ele>
        <time>2018-09-06T10:58:48.000Z</time>
      </trkpt>
      <trkpt lat="43.398576714098453521728515625" lon="-4.64826109819114208221435546875">
        <ele>29.3999996185302734375</ele>
        <time>2018-09-06T10:58:50.000Z</time>
      </trkpt>
      <trkpt lat="43.398610912263393402099609375" lon="-4.648389257490634918212890625">
        <ele>29</ele>
        <time>2018-09-06T10:58:52.000Z</time>
      </trkpt>
      <trkpt lat="43.39861971326172351837158203125" lon="-4.648446254432201385498046875">
        <ele>29</ele>
        <time>2018-09-06T10:58:53.000Z</time>
      </trkpt>
      <trkpt lat="43.39861853979527950286865234375" lon="-4.6485050953924655914306640625">
        <ele>29.200000762939453125</ele>
        <time>2018-09-06T10:58:54.000Z</time>
      </trkpt>
      <trkpt lat="43.39858719147741794586181640625" lon="-4.64863769710063934326171875">
        <ele>29</ele>
        <time>2018-09-06T10:58:56.000Z</time>
      </trkpt>
      <trkpt lat="43.39856036938726902008056640625" lon="-4.6487042494118213653564453125">
        <ele>28.6000003814697265625</ele>
        <time>2018-09-06T10:58:57.000Z</time>
      </trkpt>
      <trkpt lat="43.39844570495188236236572265625" lon="-4.648772142827510833740234375">
        <ele>28.799999237060546875</ele>
        <time>2018-09-06T10:59:00.000Z</time>
      </trkpt>
      <trkpt lat="43.3984089083969593048095703125" lon="-4.6487833745777606964111328125">
        <ele>28.799999237060546875</ele>
        <time>2018-09-06T10:59:01.000Z</time>
      </trkpt>
      <trkpt lat="43.39829332195222377777099609375" lon="-4.64881095103919506072998046875">
        <ele>28</ele>
        <time>2018-09-06T10:59:04.000Z</time>
      </trkpt>
      <trkpt lat="43.39825694449245929718017578125" lon="-4.6488594822585582733154296875">
        <ele>27.3999996185302734375</ele>
        <time>2018-09-06T10:59:05.000Z</time>
      </trkpt>
      <trkpt lat="43.39822408743202686309814453125" lon="-4.64893366210162639617919921875">
        <ele>26.6000003814697265625</ele>
        <time>2018-09-06T10:59:06.000Z</time>
      </trkpt>
      <trkpt lat="43.39820514433085918426513671875" lon="-4.649032317101955413818359375">
        <ele>24.799999237060546875</ele>
        <time>2018-09-06T10:59:07.000Z</time>
      </trkpt>
      <trkpt lat="43.398179076611995697021484375" lon="-4.6491354145109653472900390625">
        <ele>23.6000003814697265625</ele>
        <time>2018-09-06T10:59:08.000Z</time>
      </trkpt>
      <trkpt lat="43.398150913417339324951171875" lon="-4.64923054911196231842041015625">
        <ele>22.6000003814697265625</ele>
        <time>2018-09-06T10:59:09.000Z</time>
      </trkpt>
      <trkpt lat="43.39813138358294963836669921875" lon="-4.64931906200945377349853515625">
        <ele>21.3999996185302734375</ele>
        <time>2018-09-06T10:59:10.000Z</time>
      </trkpt>
      <trkpt lat="43.39812568388879299163818359375" lon="-4.64947161264717578887939453125">
        <ele>21.200000762939453125</ele>
        <time>2018-09-06T10:59:12.000Z</time>
      </trkpt>
      <trkpt lat="43.3981262706220149993896484375" lon="-4.64960723184049129486083984375">
        <ele>22.3999996185302734375</ele>
        <time>2018-09-06T10:59:15.000Z</time>
      </trkpt>
      <trkpt lat="43.3981292881071567535400390625" lon="-4.649644531309604644775390625">
        <ele>22.6000003814697265625</ele>
        <time>2018-09-06T10:59:16.000Z</time>
      </trkpt>
      <trkpt lat="43.39810489676892757415771484375" lon="-4.64982734061777591705322265625">
        <ele>22</ele>
        <time>2018-09-06T10:59:21.000Z</time>
      </trkpt>
      <trkpt lat="43.3981011249125003814697265625" lon="-4.6499005146324634552001953125">
        <ele>21.6000003814697265625</ele>
        <time>2018-09-06T10:59:23.000Z</time>
      </trkpt>
      <trkpt lat="43.39811168611049652099609375" lon="-4.6499394066631793975830078125">
        <ele>21.200000762939453125</ele>
        <time>2018-09-06T10:59:24.000Z</time>
      </trkpt>
      <trkpt lat="43.39813205413520336151123046875" lon="-4.64997746050357818603515625">
        <ele>20.6000003814697265625</ele>
        <time>2018-09-06T10:59:25.000Z</time>
      </trkpt>
      <trkpt lat="43.39815502054989337921142578125" lon="-4.65001165866851806640625">
        <ele>20</ele>
        <time>2018-09-06T10:59:26.000Z</time>
      </trkpt>
      <trkpt lat="43.39818888343870639801025390625" lon="-4.65006689541041851043701171875">
        <ele>18.200000762939453125</ele>
        <time>2018-09-06T10:59:28.000Z</time>
      </trkpt>
      <trkpt lat="43.39822023175656795501708984375" lon="-4.65014166198670864105224609375">
        <ele>16</ele>
        <time>2018-09-06T10:59:30.000Z</time>
      </trkpt>
      <trkpt lat="43.3982375822961330413818359375" lon="-4.6501784585416316986083984375">
        <ele>14</ele>
        <time>2018-09-06T10:59:31.000Z</time>
      </trkpt>
      <trkpt lat="43.398252837359905242919921875" lon="-4.65021324343979358673095703125">
        <ele>13</ele>
        <time>2018-09-06T10:59:32.000Z</time>
      </trkpt>
      <trkpt lat="43.3982623927295207977294921875" lon="-4.65024693869054317474365234375">
        <ele>11.80000019073486328125</ele>
        <time>2018-09-06T10:59:33.000Z</time>
      </trkpt>
      <trkpt lat="43.39827773161232471466064453125" lon="-4.650287590920925140380859375">
        <ele>10.80000019073486328125</ele>
        <time>2018-09-06T10:59:34.000Z</time>
      </trkpt>
      <trkpt lat="43.39828737080097198486328125" lon="-4.6503430791199207305908203125">
        <ele>9.6000003814697265625</ele>
        <time>2018-09-06T10:59:35.000Z</time>
      </trkpt>
      <trkpt lat="43.39829047210514545440673828125" lon="-4.650408960878849029541015625">
        <ele>8.6000003814697265625</ele>
        <time>2018-09-06T10:59:36.000Z</time>
      </trkpt>
      <trkpt lat="43.39827002026140689849853515625" lon="-4.65055723674595355987548828125">
        <ele>8.19999980926513671875</ele>
        <time>2018-09-06T10:59:39.000Z</time>
      </trkpt>
      <trkpt lat="43.3982717804610729217529296875" lon="-4.65064574964344501495361328125">
        <ele>8.19999980926513671875</ele>
        <time>2018-09-06T10:59:41.000Z</time>
      </trkpt>
      <trkpt lat="43.39828209020197391510009765625" lon="-4.65067994780838489532470703125">
        <ele>8.3999996185302734375</ele>
        <time>2018-09-06T10:59:42.000Z</time>
      </trkpt>
      <trkpt lat="43.39829265139997005462646484375" lon="-4.6507149003446102142333984375">
        <ele>8.6000003814697265625</ele>
        <time>2018-09-06T10:59:43.000Z</time>
      </trkpt>
      <trkpt lat="43.39834637939929962158203125" lon="-4.65080064721405506134033203125">
        <ele>9.6000003814697265625</ele>
        <time>2018-09-06T10:59:46.000Z</time>
      </trkpt>
      <trkpt lat="43.39840631000697612762451171875" lon="-4.65084515511989593505859375">
        <ele>8.6000003814697265625</ele>
        <time>2018-09-06T10:59:48.000Z</time>
      </trkpt>
      <trkpt lat="43.39850035496056079864501953125" lon="-4.6509596519172191619873046875">
        <ele>7.80000019073486328125</ele>
        <time>2018-09-06T10:59:51.000Z</time>
      </trkpt>
      <trkpt lat="43.3985021151602268218994140625" lon="-4.6510300599038600921630859375">
        <ele>7.599999904632568359375</ele>
        <time>2018-09-06T10:59:52.000Z</time>
      </trkpt>
      <trkpt lat="43.39846330694854259490966796875" lon="-4.65118135325610637664794921875">
        <ele>6.599999904632568359375</ele>
        <time>2018-09-06T10:59:54.000Z</time>
      </trkpt>
      <trkpt lat="43.3984622173011302947998046875" lon="-4.6512530185282230377197265625">
        <ele>5.19999980926513671875</ele>
        <time>2018-09-06T10:59:55.000Z</time>
      </trkpt>
      <trkpt lat="43.398493230342864990234375" lon="-4.65148343704640865325927734375">
        <ele>4</ele>
        <time>2018-09-06T10:59:58.000Z</time>
      </trkpt>
      <trkpt lat="43.3985037915408611297607421875" lon="-4.65155485086143016815185546875">
        <ele>4</ele>
        <time>2018-09-06T10:59:59.000Z</time>
      </trkpt>
      <trkpt lat="43.3985463716089725494384765625" lon="-4.65188006870448589324951171875">
        <ele>3</ele>
        <time>2018-09-06T11:00:03.000Z</time>
      </trkpt>
      <trkpt lat="43.39856229722499847412109375" lon="-4.651968665421009063720703125">
        <ele>2.599999904632568359375</ele>
        <time>2018-09-06T11:00:04.000Z</time>
      </trkpt>
      <trkpt lat="43.39860261417925357818603515625" lon="-4.65212859213352203369140625">
        <ele>2</ele>
        <time>2018-09-06T11:00:06.000Z</time>
      </trkpt>
      <trkpt lat="43.39863496832549571990966796875" lon="-4.6521948091685771942138671875">
        <ele>1.60000002384185791015625</ele>
        <time>2018-09-06T11:00:07.000Z</time>
      </trkpt>
      <trkpt lat="43.39867033995687961578369140625" lon="-4.65224702842533588409423828125">
        <ele>1.39999997615814208984375</ele>
        <time>2018-09-06T11:00:08.000Z</time>
      </trkpt>
      <trkpt lat="43.39874627999961376190185546875" lon="-4.65236806310713291168212890625">
        <ele>1.2000000476837158203125</ele>
        <time>2018-09-06T11:00:10.000Z</time>
      </trkpt>
      <trkpt lat="43.398817442357540130615234375" lon="-4.65249328874051570892333984375">
        <ele>0.60000002384185791015625</ele>
        <time>2018-09-06T11:00:12.000Z</time>
      </trkpt>
      <trkpt lat="43.3988457731902599334716796875" lon="-4.6525525487959384918212890625">
        <ele>0.60000002384185791015625</ele>
        <time>2018-09-06T11:00:13.000Z</time>
      </trkpt>
      <trkpt lat="43.3989872597157955169677734375" lon="-4.65278707444667816162109375">
        <ele>-0.20000000298023223876953125</ele>
        <time>2018-09-06T11:00:18.000Z</time>
      </trkpt>
      <trkpt lat="43.39900226332247257232666015625" lon="-4.65283627621829509735107421875">
        <ele>-0.60000002384185791015625</ele>
        <time>2018-09-06T11:00:19.000Z</time>
      </trkpt>
      <trkpt lat="43.39904417283833026885986328125" lon="-4.65292998589575290679931640625">
        <ele>-0.800000011920928955078125</ele>
        <time>2018-09-06T11:00:21.000Z</time>
      </trkpt>
      <trkpt lat="43.39909479953348636627197265625" lon="-4.65298882685601711273193359375">
        <ele>-0.800000011920928955078125</ele>
        <time>2018-09-06T11:00:23.000Z</time>
      </trkpt>
      <trkpt lat="43.39917643927037715911865234375" lon="-4.65303945355117321014404296875">
        <ele>-1.39999997615814208984375</ele>
        <time>2018-09-06T11:00:26.000Z</time>
      </trkpt>
      <trkpt lat="43.39923511259257793426513671875" lon="-4.653081111609935760498046875">
        <ele>-1.39999997615814208984375</ele>
        <time>2018-09-06T11:00:28.000Z</time>
      </trkpt>
      <trkpt lat="43.399371989071369171142578125" lon="-4.65311120264232158660888671875">
        <ele>-1.7999999523162841796875</ele>
        <time>2018-09-06T11:00:32.000Z</time>
      </trkpt>
      <trkpt lat="43.3994177542626857757568359375" lon="-4.6531013958156108856201171875">
        <ele>-2.2000000476837158203125</ele>
        <time>2018-09-06T11:00:33.000Z</time>
      </trkpt>
      <trkpt lat="43.39949034154415130615234375" lon="-4.65312100946903228759765625">
        <ele>-2.599999904632568359375</ele>
        <time>2018-09-06T11:00:35.000Z</time>
      </trkpt>
      <trkpt lat="43.3995143137872219085693359375" lon="-4.65315110050141811370849609375">
        <ele>-2.7999999523162841796875</ele>
        <time>2018-09-06T11:00:36.000Z</time>
      </trkpt>
      <trkpt lat="43.39956200681626796722412109375" lon="-4.6532780863344669342041015625">
        <ele>-3.7999999523162841796875</ele>
        <time>2018-09-06T11:00:39.000Z</time>
      </trkpt>
      <trkpt lat="43.399560414254665374755859375" lon="-4.65332041494548320770263671875">
        <ele>-3.599999904632568359375</ele>
        <time>2018-09-06T11:00:40.000Z</time>
      </trkpt>
      <trkpt lat="43.39954021386802196502685546875" lon="-4.6534289605915546417236328125">
        <ele>-2.599999904632568359375</ele>
        <time>2018-09-06T11:00:43.000Z</time>
      </trkpt>
      <trkpt lat="43.39954943396151065826416015625" lon="-4.65349207632243633270263671875">
        <ele>-2.2000000476837158203125</ele>
        <time>2018-09-06T11:00:45.000Z</time>
      </trkpt>
      <trkpt lat="43.39956183917820453643798828125" lon="-4.6535486541688442230224609375">
        <ele>-1.7999999523162841796875</ele>
        <time>2018-09-06T11:00:47.000Z</time>
      </trkpt>
      <trkpt lat="43.39955999515950679779052734375" lon="-4.6536059863865375518798828125">
        <ele>-1.39999997615814208984375</ele>
        <time>2018-09-06T11:00:49.000Z</time>
      </trkpt>
      <trkpt lat="43.39955605566501617431640625" lon="-4.6536576189100742340087890625">
        <ele>-0.800000011920928955078125</ele>
        <time>2018-09-06T11:00:51.000Z</time>
      </trkpt>
      <trkpt lat="43.39954524300992488861083984375" lon="-4.6537010371685028076171875">
        <ele>-0.20000000298023223876953125</ele>
        <time>2018-09-06T11:00:53.000Z</time>
      </trkpt>
      <trkpt lat="43.39953057467937469482421875" lon="-4.65374118648469448089599609375">
        <ele>0.20000000298023223876953125</ele>
        <time>2018-09-06T11:00:55.000Z</time>
      </trkpt>
      <trkpt lat="43.3995218575000762939453125" lon="-4.65375669300556182861328125">
        <ele>0.60000002384185791015625</ele>
        <time>2018-09-06T11:00:56.000Z</time>
      </trkpt>
      <trkpt lat="43.39950853027403354644775390625" lon="-4.65376599691808223724365234375">
        <ele>0.800000011920928955078125</ele>
        <time>2018-09-06T11:00:57.000Z</time>
      </trkpt>
      <trkpt lat="43.3994864858686923980712890625" lon="-4.65378175489604473114013671875">
        <ele>1.2000000476837158203125</ele>
        <time>2018-09-06T11:00:59.000Z</time>
      </trkpt>
      <trkpt lat="43.39943376369774341583251953125" lon="-4.65379466302692890167236328125">
        <ele>1.60000002384185791015625</ele>
        <time>2018-09-06T11:01:02.000Z</time>
      </trkpt>
      <trkpt lat="43.39941280893981456756591796875" lon="-4.65377655811607837677001953125">
        <ele>1.7999999523162841796875</ele>
        <time>2018-09-06T11:01:04.000Z</time>
      </trkpt>
      <trkpt lat="43.39940593577921390533447265625" lon="-4.65376432053744792938232421875">
        <ele>1.7999999523162841796875</ele>
        <time>2018-09-06T11:01:05.000Z</time>
      </trkpt>
      <trkpt lat="43.399383388459682464599609375" lon="-4.65376767329871654510498046875">
        <ele>2</ele>
        <time>2018-09-06T11:01:07.000Z</time>
      </trkpt>
      <trkpt lat="43.3993775211274623870849609375" lon="-4.65378711931407451629638671875">
        <ele>2.2000000476837158203125</ele>
        <time>2018-09-06T11:01:09.000Z</time>
      </trkpt>
      <trkpt lat="43.39939034543931484222412109375" lon="-4.65381226502358913421630859375">
        <ele>2.2000000476837158203125</ele>
        <time>2018-09-06T11:01:11.000Z</time>
      </trkpt>
      <trkpt lat="43.39942655526101589202880859375" lon="-4.65385450981557369232177734375">
        <ele>2.599999904632568359375</ele>
        <time>2018-09-06T11:01:14.000Z</time>
      </trkpt>
      <trkpt lat="43.39943443424999713897705078125" lon="-4.65385861694812774658203125">
        <ele>2.7999999523162841796875</ele>
        <time>2018-09-06T11:01:15.000Z</time>
      </trkpt>
      <trkpt lat="43.3994462527334690093994140625" lon="-4.6538601256906986236572265625">
        <ele>3.2000000476837158203125</ele>
        <time>2018-09-06T11:01:16.000Z</time>
      </trkpt>
      <trkpt lat="43.399464525282382965087890625" lon="-4.65385534800589084625244140625">
        <ele>3.7999999523162841796875</ele>
        <time>2018-09-06T11:01:18.000Z</time>
      </trkpt>
      <trkpt lat="43.39949612505733966827392578125" lon="-4.6538487263023853302001953125">
        <ele>4.599999904632568359375</ele>
        <time>2018-09-06T11:01:21.000Z</time>
      </trkpt>
      <trkpt lat="43.39951045811176300048828125" lon="-4.65384612791240215301513671875">
        <ele>4.80000019073486328125</ele>
        <time>2018-09-06T11:01:22.000Z</time>
      </trkpt>
      <trkpt lat="43.3995760045945644378662109375" lon="-4.65383288450539112091064453125">
        <ele>5.599999904632568359375</ele>
        <time>2018-09-06T11:01:27.000Z</time>
      </trkpt>
      <trkpt lat="43.39958564378321170806884765625" lon="-4.65384059585630893707275390625">
        <ele>5.80000019073486328125</ele>
        <time>2018-09-06T11:01:28.000Z</time>
      </trkpt>
      <trkpt lat="43.399615399539470672607421875" lon="-4.653900526463985443115234375">
        <ele>7.19999980926513671875</ele>
        <time>2018-09-06T11:01:32.000Z</time>
      </trkpt>
      <trkpt lat="43.399636186659336090087890625" lon="-4.65394285507500171661376953125">
        <ele>8</ele>
        <time>2018-09-06T11:01:35.000Z</time>
      </trkpt>
      <trkpt lat="43.3996398746967315673828125" lon="-4.65396054089069366455078125">
        <ele>8</ele>
        <time>2018-09-06T11:01:36.000Z</time>
      </trkpt>
      <trkpt lat="43.3996457420289516448974609375" lon="-4.653975628316402435302734375">
        <ele>8.19999980926513671875</ele>
        <time>2018-09-06T11:01:37.000Z</time>
      </trkpt>
      <trkpt lat="43.39965437538921833038330078125" lon="-4.65402483008801937103271484375">
        <ele>9.19999980926513671875</ele>
        <time>2018-09-06T11:01:40.000Z</time>
      </trkpt>
      <trkpt lat="43.39965621940791606903076171875" lon="-4.65404327027499675750732421875">
        <ele>9.3999996185302734375</ele>
        <time>2018-09-06T11:01:41.000Z</time>
      </trkpt>
      <trkpt lat="43.3996574766933917999267578125" lon="-4.654060788452625274658203125">
        <ele>9.3999996185302734375</ele>
        <time>2018-09-06T11:01:42.000Z</time>
      </trkpt>
      <trkpt lat="43.3996692113578319549560546875" lon="-4.65411074459552764892578125">
        <ele>10.3999996185302734375</ele>
        <time>2018-09-06T11:01:45.000Z</time>
      </trkpt>
      <trkpt lat="43.39967046864330768585205078125" lon="-4.65417671017348766326904296875">
        <ele>11</ele>
        <time>2018-09-06T11:01:49.000Z</time>
      </trkpt>
      <trkpt lat="43.399665355682373046875" lon="-4.65419230051338672637939453125">
        <ele>11.3999996185302734375</ele>
        <time>2018-09-06T11:01:50.000Z</time>
      </trkpt>
      <trkpt lat="43.3996541239321231842041015625" lon="-4.65426119975745677947998046875">
        <ele>12.6000003814697265625</ele>
        <time>2018-09-06T11:01:55.000Z</time>
      </trkpt>
      <trkpt lat="43.39964817278087139129638671875" lon="-4.65428634546697139739990234375">
        <ele>13.19999980926513671875</ele>
        <time>2018-09-06T11:01:57.000Z</time>
      </trkpt>
      <trkpt lat="43.3996497653424739837646484375" lon="-4.65432666242122650146484375">
        <ele>13.80000019073486328125</ele>
        <time>2018-09-06T11:02:00.000Z</time>
      </trkpt>
      <trkpt lat="43.39965672232210636138916015625" lon="-4.6543663926422595977783203125">
        <ele>14.6000003814697265625</ele>
        <time>2018-09-06T11:02:03.000Z</time>
      </trkpt>
      <trkpt lat="43.399657644331455230712890625" lon="-4.65438592247664928436279296875">
        <ele>15</ele>
        <time>2018-09-06T11:02:04.000Z</time>
      </trkpt>
      <trkpt lat="43.39967407286167144775390625" lon="-4.6544448472559452056884765625">
        <ele>16.200000762939453125</ele>
        <time>2018-09-06T11:02:08.000Z</time>
      </trkpt>
      <trkpt lat="43.399675078690052032470703125" lon="-4.6544619463384151458740234375">
        <ele>16.3999996185302734375</ele>
        <time>2018-09-06T11:02:09.000Z</time>
      </trkpt>
      <trkpt lat="43.39968387968838214874267578125" lon="-4.65452003292739391326904296875">
        <ele>17.3999996185302734375</ele>
        <time>2018-09-06T11:02:12.000Z</time>
      </trkpt>
      <trkpt lat="43.399694524705410003662109375" lon="-4.6546171791851520538330078125">
        <ele>18.3999996185302734375</ele>
        <time>2018-09-06T11:02:17.000Z</time>
      </trkpt>
      <trkpt lat="43.39970315806567668914794921875" lon="-4.6547174267470836639404296875">
        <ele>19.6000003814697265625</ele>
        <time>2018-09-06T11:02:23.000Z</time>
      </trkpt>
      <trkpt lat="43.3997117914259433746337890625" lon="-4.654747433960437774658203125">
        <ele>20</ele>
        <time>2018-09-06T11:02:25.000Z</time>
      </trkpt>
      <trkpt lat="43.39976216666400432586669921875" lon="-4.65483049862086772918701171875">
        <ele>20.6000003814697265625</ele>
        <time>2018-09-06T11:02:30.000Z</time>
      </trkpt>
      <trkpt lat="43.39979032985866069793701171875" lon="-4.65485036373138427734375">
        <ele>20.6000003814697265625</ele>
        <time>2018-09-06T11:02:32.000Z</time>
      </trkpt>
      <trkpt lat="43.39984430931508541107177734375" lon="-4.65495572425425052642822265625">
        <ele>21</ele>
        <time>2018-09-06T11:02:37.000Z</time>
      </trkpt>
      <trkpt lat="43.39984615333378314971923828125" lon="-4.65498254634439945220947265625">
        <ele>21.200000762939453125</ele>
        <time>2018-09-06T11:02:38.000Z</time>
      </trkpt>
      <trkpt lat="43.39984062127768993377685546875" lon="-4.65509972535073757171630859375">
        <ele>21.200000762939453125</ele>
        <time>2018-09-06T11:02:42.000Z</time>
      </trkpt>
      <trkpt lat="43.3998169004917144775390625" lon="-4.6551633439958095550537109375">
        <ele>21.3999996185302734375</ele>
        <time>2018-09-06T11:02:44.000Z</time>
      </trkpt>
      <trkpt lat="43.399760909378528594970703125" lon="-4.6552956104278564453125">
        <ele>21.799999237060546875</ele>
        <time>2018-09-06T11:02:48.000Z</time>
      </trkpt>
      <trkpt lat="43.3997101150453090667724609375" lon="-4.65541563928127288818359375">
        <ele>22.3999996185302734375</ele>
        <time>2018-09-06T11:02:52.000Z</time>
      </trkpt>
      <trkpt lat="43.3996926806867122650146484375" lon="-4.6554909087717533111572265625">
        <ele>23</ele>
        <time>2018-09-06T11:02:55.000Z</time>
      </trkpt>
      <trkpt lat="43.3996910043060779571533203125" lon="-4.6555606462061405181884765625">
        <ele>23.799999237060546875</ele>
        <time>2018-09-06T11:02:58.000Z</time>
      </trkpt>
      <trkpt lat="43.3996916748583316802978515625" lon="-4.65558654628694057464599609375">
        <ele>24</ele>
        <time>2018-09-06T11:02:59.000Z</time>
      </trkpt>
      <trkpt lat="43.39968991465866565704345703125" lon="-4.655693583190441131591796875">
        <ele>25</ele>
        <time>2018-09-06T11:03:03.000Z</time>
      </trkpt>
      <trkpt lat="43.399691842496395111083984375" lon="-4.6557272784411907196044921875">
        <ele>25.3999996185302734375</ele>
        <time>2018-09-06T11:03:04.000Z</time>
      </trkpt>
      <trkpt lat="43.39967901818454265594482421875" lon="-4.655832387506961822509765625">
        <ele>26</ele>
        <time>2018-09-06T11:03:07.000Z</time>
      </trkpt>
      <trkpt lat="43.39965035207569599151611328125" lon="-4.6559596247971057891845703125">
        <ele>26</ele>
        <time>2018-09-06T11:03:10.000Z</time>
      </trkpt>
      <trkpt lat="43.399646580219268798828125" lon="-4.6561859361827373504638671875">
        <ele>25.799999237060546875</ele>
        <time>2018-09-06T11:03:15.000Z</time>
      </trkpt>
      <trkpt lat="43.399658985435962677001953125" lon="-4.6562332101166248321533203125">
        <ele>26</ele>
        <time>2018-09-06T11:03:16.000Z</time>
      </trkpt>
      <trkpt lat="43.39971640147268772125244140625" lon="-4.65637293644249439239501953125">
        <ele>26</ele>
        <time>2018-09-06T11:03:19.000Z</time>
      </trkpt>
      <trkpt lat="43.39978278614580631256103515625" lon="-4.65655582956969738006591796875">
        <ele>26.200000762939453125</ele>
        <time>2018-09-06T11:03:23.000Z</time>
      </trkpt>
      <trkpt lat="43.399831317365169525146484375" lon="-4.65677191503345966339111328125">
        <ele>26.6000003814697265625</ele>
        <time>2018-09-06T11:03:28.000Z</time>
      </trkpt>
      <trkpt lat="43.399878256022930145263671875" lon="-4.656874425709247589111328125">
        <ele>26.3999996185302734375</ele>
        <time>2018-09-06T11:03:30.000Z</time>
      </trkpt>
      <trkpt lat="43.399941287934780120849609375" lon="-4.65705120004713535308837890625">
        <ele>26.200000762939453125</ele>
        <time>2018-09-06T11:03:33.000Z</time>
      </trkpt>
      <trkpt lat="43.40001446194946765899658203125" lon="-4.65732545591890811920166015625">
        <ele>26.200000762939453125</ele>
        <time>2018-09-06T11:03:38.000Z</time>
      </trkpt>
      <trkpt lat="43.40003156103193759918212890625" lon="-4.65737767517566680908203125">
        <ele>26</ele>
        <time>2018-09-06T11:03:39.000Z</time>
      </trkpt>
      <trkpt lat="43.40006961487233638763427734375" lon="-4.65747498907148838043212890625">
        <ele>25.799999237060546875</ele>
        <time>2018-09-06T11:03:41.000Z</time>
      </trkpt>
      <trkpt lat="43.400123007595539093017578125" lon="-4.657610692083835601806640625">
        <ele>25.6000003814697265625</ele>
        <time>2018-09-06T11:03:44.000Z</time>
      </trkpt>
      <trkpt lat="43.40016868896782398223876953125" lon="-4.65770314447581768035888671875">
        <ele>25.799999237060546875</ele>
        <time>2018-09-06T11:03:46.000Z</time>
      </trkpt>
      <trkpt lat="43.40025619603693485260009765625" lon="-4.6578509174287319183349609375">
        <ele>25.3999996185302734375</ele>
        <time>2018-09-06T11:03:49.000Z</time>
      </trkpt>
      <trkpt lat="43.40032878331840038299560546875" lon="-4.65795896016061305999755859375">
        <ele>24.799999237060546875</ele>
        <time>2018-09-06T11:03:51.000Z</time>
      </trkpt>
      <trkpt lat="43.40037220157682895660400390625" lon="-4.65800958685576915740966796875">
        <ele>24.6000003814697265625</ele>
        <time>2018-09-06T11:03:52.000Z</time>
      </trkpt>
      <trkpt lat="43.40053145773708820343017578125" lon="-4.65808535926043987274169921875">
        <ele>23.6000003814697265625</ele>
        <time>2018-09-06T11:03:55.000Z</time>
      </trkpt>
      <trkpt lat="43.4005845151841640472412109375" lon="-4.65810044668614864349365234375">
        <ele>24</ele>
        <time>2018-09-06T11:03:56.000Z</time>
      </trkpt>
      <trkpt lat="43.40063421986997127532958984375" lon="-4.6581298671662807464599609375">
        <ele>24</ele>
        <time>2018-09-06T11:03:57.000Z</time>
      </trkpt>
      <trkpt lat="43.400790877640247344970703125" lon="-4.65822885744273662567138671875">
        <ele>22.799999237060546875</ele>
        <time>2018-09-06T11:04:00.000Z</time>
      </trkpt>
      <trkpt lat="43.400894813239574432373046875" lon="-4.6582988463342189788818359375">
        <ele>22.6000003814697265625</ele>
        <time>2018-09-06T11:04:02.000Z</time>
      </trkpt>
      <trkpt lat="43.40099095366895198822021484375" lon="-4.65838593430817127227783203125">
        <ele>22.6000003814697265625</ele>
        <time>2018-09-06T11:04:04.000Z</time>
      </trkpt>
      <trkpt lat="43.4010217152535915374755859375" lon="-4.6584353037178516387939453125">
        <ele>23</ele>
        <time>2018-09-06T11:04:05.000Z</time>
      </trkpt>
      <trkpt lat="43.401041328907012939453125" lon="-4.65853094123303890228271484375">
        <ele>23.799999237060546875</ele>
        <time>2018-09-06T11:04:07.000Z</time>
      </trkpt>
      <trkpt lat="43.4010384790599346160888671875" lon="-4.6585786342620849609375">
        <ele>24</ele>
        <time>2018-09-06T11:04:08.000Z</time>
      </trkpt>
      <trkpt lat="43.40103135444223880767822265625" lon="-4.65867041610181331634521484375">
        <ele>24.799999237060546875</ele>
        <time>2018-09-06T11:04:10.000Z</time>
      </trkpt>
      <trkpt lat="43.40102414600551128387451171875" lon="-4.6587082184851169586181640625">
        <ele>25</ele>
        <time>2018-09-06T11:04:11.000Z</time>
      </trkpt>
      <trkpt lat="43.40101207606494426727294921875" lon="-4.6587943844497203826904296875">
        <ele>26</ele>
        <time>2018-09-06T11:04:14.000Z</time>
      </trkpt>
      <trkpt lat="43.40100847184658050537109375" lon="-4.65881609357893466949462890625">
        <ele>26.200000762939453125</ele>
        <time>2018-09-06T11:04:15.000Z</time>
      </trkpt>
      <trkpt lat="43.40100386179983615875244140625" lon="-4.65892422012984752655029296875">
        <ele>26.200000762939453125</ele>
        <time>2018-09-06T11:04:19.000Z</time>
      </trkpt>
      <trkpt lat="43.400993384420871734619140625" lon="-4.658958502113819122314453125">
        <ele>26</ele>
        <time>2018-09-06T11:04:20.000Z</time>
      </trkpt>
      <trkpt lat="43.40094686485826969146728515625" lon="-4.65920048765838146209716796875">
        <ele>25.3999996185302734375</ele>
        <time>2018-09-06T11:04:25.000Z</time>
      </trkpt>
      <trkpt lat="43.40092557482421398162841796875" lon="-4.65932361781597137451171875">
        <ele>25.200000762939453125</ele>
        <time>2018-09-06T11:04:27.000Z</time>
      </trkpt>
      <trkpt lat="43.4008468687534332275390625" lon="-4.6595853008329868316650390625">
        <ele>24.6000003814697265625</ele>
        <time>2018-09-06T11:04:31.000Z</time>
      </trkpt>
      <trkpt lat="43.400825746357440948486328125" lon="-4.65966283343732357025146484375">
        <ele>24</ele>
        <time>2018-09-06T11:04:32.000Z</time>
      </trkpt>
      <trkpt lat="43.40077637694776058197021484375" lon="-4.65982208959758281707763671875">
        <ele>23</ele>
        <time>2018-09-06T11:04:34.000Z</time>
      </trkpt>
      <trkpt lat="43.40070663951337337493896484375" lon="-4.65996961109340190887451171875">
        <ele>22.200000762939453125</ele>
        <time>2018-09-06T11:04:36.000Z</time>
      </trkpt>
      <trkpt lat="43.40065249241888523101806640625" lon="-4.6600241772830486297607421875">
        <ele>22</ele>
        <time>2018-09-06T11:04:37.000Z</time>
      </trkpt>
      <trkpt lat="43.40052123181521892547607421875" lon="-4.66009064577519893646240234375">
        <ele>21</ele>
        <time>2018-09-06T11:04:39.000Z</time>
      </trkpt>
      <trkpt lat="43.400446884334087371826171875" lon="-4.66011042706668376922607421875">
        <ele>20.6000003814697265625</ele>
        <time>2018-09-06T11:04:40.000Z</time>
      </trkpt>
      <trkpt lat="43.40037471614778041839599609375" lon="-4.660129286348819732666015625">
        <ele>20.6000003814697265625</ele>
        <time>2018-09-06T11:04:41.000Z</time>
      </trkpt>
      <trkpt lat="43.400238342583179473876953125" lon="-4.6601844392716884613037109375">
        <ele>20.200000762939453125</ele>
        <time>2018-09-06T11:04:43.000Z</time>
      </trkpt>
      <trkpt lat="43.40017673559486865997314453125" lon="-4.66023112647235393524169921875">
        <ele>19.799999237060546875</ele>
        <time>2018-09-06T11:04:44.000Z</time>
      </trkpt>
      <trkpt lat="43.4000685252249240875244140625" lon="-4.660339169204235076904296875">
        <ele>19.6000003814697265625</ele>
        <time>2018-09-06T11:04:46.000Z</time>
      </trkpt>
      <trkpt lat="43.3999883942306041717529296875" lon="-4.66044218279421329498291015625">
        <ele>19.6000003814697265625</ele>
        <time>2018-09-06T11:04:48.000Z</time>
      </trkpt>
      <trkpt lat="43.3999575488269329071044921875" lon="-4.66056011617183685302734375">
        <ele>21.200000762939453125</ele>
        <time>2018-09-06T11:04:51.000Z</time>
      </trkpt>
      <trkpt lat="43.39995193295180797576904296875" lon="-4.66058450751006603240966796875">
        <ele>21.3999996185302734375</ele>
        <time>2018-09-06T11:04:52.000Z</time>
      </trkpt>
      <trkpt lat="43.399943299591541290283203125" lon="-4.66061049140989780426025390625">
        <ele>21.6000003814697265625</ele>
        <time>2018-09-06T11:04:53.000Z</time>
      </trkpt>
      <trkpt lat="43.3999099396169185638427734375" lon="-4.660673104226589202880859375">
        <ele>21.6000003814697265625</ele>
        <time>2018-09-06T11:04:55.000Z</time>
      </trkpt>
      <trkpt lat="43.3998874761164188385009765625" lon="-4.66070420108735561370849609375">
        <ele>21.799999237060546875</ele>
        <time>2018-09-06T11:04:56.000Z</time>
      </trkpt>
      <trkpt lat="43.3998660184442996978759765625" lon="-4.6607346273958683013916015625">
        <ele>22</ele>
        <time>2018-09-06T11:04:57.000Z</time>
      </trkpt>
      <trkpt lat="43.3998425491154193878173828125" lon="-4.66077058576047420501708984375">
        <ele>22.3999996185302734375</ele>
        <time>2018-09-06T11:04:58.000Z</time>
      </trkpt>
      <trkpt lat="43.3997972868382930755615234375" lon="-4.66090905480086803436279296875">
        <ele>22.3999996185302734375</ele>
        <time>2018-09-06T11:05:01.000Z</time>
      </trkpt>
      <trkpt lat="43.39979074895381927490234375" lon="-4.66096001677215099334716796875">
        <ele>22.3999996185302734375</ele>
        <time>2018-09-06T11:05:02.000Z</time>
      </trkpt>
      <trkpt lat="43.39981748722493648529052734375" lon="-4.6612264774739742279052734375">
        <ele>22.799999237060546875</ele>
        <time>2018-09-06T11:05:07.000Z</time>
      </trkpt>
      <trkpt lat="43.39982419274747371673583984375" lon="-4.66147567145526409149169921875">
        <ele>23.6000003814697265625</ele>
        <time>2018-09-06T11:05:12.000Z</time>
      </trkpt>
      <trkpt lat="43.39982737787067890167236328125" lon="-4.66151523403823375701904296875">
        <ele>23.799999237060546875</ele>
        <time>2018-09-06T11:05:13.000Z</time>
      </trkpt>
      <trkpt lat="43.399831317365169525146484375" lon="-4.66163107194006443023681640625">
        <ele>24.6000003814697265625</ele>
        <time>2018-09-06T11:05:16.000Z</time>
      </trkpt>
      <trkpt lat="43.3998552896082401275634765625" lon="-4.66177557595074176788330078125">
        <ele>24.799999237060546875</ele>
        <time>2018-09-06T11:05:19.000Z</time>
      </trkpt>
      <trkpt lat="43.3998678624629974365234375" lon="-4.6618319861590862274169921875">
        <ele>24.3999996185302734375</ele>
        <time>2018-09-06T11:05:20.000Z</time>
      </trkpt>
      <trkpt lat="43.39995595626533031463623046875" lon="-4.66227966360747814178466796875">
        <ele>23.799999237060546875</ele>
        <time>2018-09-06T11:05:28.000Z</time>
      </trkpt>
      <trkpt lat="43.4000212512910366058349609375" lon="-4.66252240352332592010498046875">
        <ele>24.799999237060546875</ele>
        <time>2018-09-06T11:05:33.000Z</time>
      </trkpt>
      <trkpt lat="43.400029130280017852783203125" lon="-4.662565402686595916748046875">
        <ele>25</ele>
        <time>2018-09-06T11:05:34.000Z</time>
      </trkpt>
      <trkpt lat="43.40005804784595966339111328125" lon="-4.66266439296305179595947265625">
        <ele>25.799999237060546875</ele>
        <time>2018-09-06T11:05:37.000Z</time>
      </trkpt>
      <trkpt lat="43.40008470229804515838623046875" lon="-4.66275005601346492767333984375">
        <ele>26.6000003814697265625</ele>
        <time>2018-09-06T11:05:40.000Z</time>
      </trkpt>
      <trkpt lat="43.400088809430599212646484375" lon="-4.662776626646518707275390625">
        <ele>27</ele>
        <time>2018-09-06T11:05:41.000Z</time>
      </trkpt>
      <trkpt lat="43.40011127293109893798828125" lon="-4.66289154253900051116943359375">
        <ele>28</ele>
        <time>2018-09-06T11:05:46.000Z</time>
      </trkpt>
      <trkpt lat="43.4001097641885280609130859375" lon="-4.66291098855435848236083984375">
        <ele>28.200000762939453125</ele>
        <time>2018-09-06T11:05:47.000Z</time>
      </trkpt>
      <trkpt lat="43.40009543113410472869873046875" lon="-4.6630701608955860137939453125">
        <ele>29.200000762939453125</ele>
        <time>2018-09-06T11:05:54.000Z</time>
      </trkpt>
      <trkpt lat="43.40010113082826137542724609375" lon="-4.66311031021177768707275390625">
        <ele>29.799999237060546875</ele>
        <time>2018-09-06T11:05:56.000Z</time>
      </trkpt>
      <trkpt lat="43.40010113082826137542724609375" lon="-4.66314936988055706024169921875">
        <ele>30.200000762939453125</ele>
        <time>2018-09-06T11:05:58.000Z</time>
      </trkpt>
      <trkpt lat="43.4001054055988788604736328125" lon="-4.66324894689023494720458984375">
        <ele>31.3999996185302734375</ele>
        <time>2018-09-06T11:06:03.000Z</time>
      </trkpt>
      <trkpt lat="43.4001043997704982757568359375" lon="-4.6633382141590118408203125">
        <ele>32.59999847412109375</ele>
        <time>2018-09-06T11:06:07.000Z</time>
      </trkpt>
      <trkpt lat="43.400118649005889892578125" lon="-4.66340987943112850189208984375">
        <ele>33.40000152587890625</ele>
        <time>2018-09-06T11:06:10.000Z</time>
      </trkpt>
      <trkpt lat="43.4001288749277591705322265625" lon="-4.6634292416274547576904296875">
        <ele>33.799999237060546875</ele>
        <time>2018-09-06T11:06:11.000Z</time>
      </trkpt>
      <trkpt lat="43.40014220215380191802978515625" lon="-4.66353594325482845306396484375">
        <ele>34.40000152587890625</ele>
        <time>2018-09-06T11:06:15.000Z</time>
      </trkpt>
      <trkpt lat="43.40015276335179805755615234375" lon="-4.66358874924480915069580078125">
        <ele>34.799999237060546875</ele>
        <time>2018-09-06T11:06:17.000Z</time>
      </trkpt>
      <trkpt lat="43.40019500814378261566162109375" lon="-4.6637366898357868194580078125">
        <ele>35.799999237060546875</ele>
        <time>2018-09-06T11:06:23.000Z</time>
      </trkpt>
      <trkpt lat="43.40019953437149524688720703125" lon="-4.66376225464046001434326171875">
        <ele>35.799999237060546875</ele>
        <time>2018-09-06T11:06:24.000Z</time>
      </trkpt>
      <trkpt lat="43.40024228207767009735107421875" lon="-4.6639603190124034881591796875">
        <ele>36.40000152587890625</ele>
        <time>2018-09-06T11:06:31.000Z</time>
      </trkpt>
      <trkpt lat="43.40028083883225917816162109375" lon="-4.66418285854160785675048828125">
        <ele>36.40000152587890625</ele>
        <time>2018-09-06T11:06:37.000Z</time>
      </trkpt>
      <trkpt lat="43.40028821490705013275146484375" lon="-4.6642204932868480682373046875">
        <ele>36.200000762939453125</ele>
        <time>2018-09-06T11:06:38.000Z</time>
      </trkpt>
      <trkpt lat="43.40031838975846767425537109375" lon="-4.664339013397693634033203125">
        <ele>36.200000762939453125</ele>
        <time>2018-09-06T11:06:41.000Z</time>
      </trkpt>
      <trkpt lat="43.400375135242938995361328125" lon="-4.664573036134243011474609375">
        <ele>35.59999847412109375</ele>
        <time>2018-09-06T11:06:46.000Z</time>
      </trkpt>
      <trkpt lat="43.40042081661522388458251953125" lon="-4.6647381596267223358154296875">
        <ele>35.200000762939453125</ele>
        <time>2018-09-06T11:06:49.000Z</time>
      </trkpt>
      <trkpt lat="43.40045518241822719573974609375" lon="-4.66485877521336078643798828125">
        <ele>35.200000762939453125</ele>
        <time>2018-09-06T11:06:51.000Z</time>
      </trkpt>
      <trkpt lat="43.40048720128834247589111328125" lon="-4.66498835943639278411865234375">
        <ele>34.40000152587890625</ele>
        <time>2018-09-06T11:06:53.000Z</time>
      </trkpt>
      <trkpt lat="43.400506563484668731689453125" lon="-4.6650553308427333831787109375">
        <ele>34.200000762939453125</ele>
        <time>2018-09-06T11:06:54.000Z</time>
      </trkpt>
      <trkpt lat="43.40054671280086040496826171875" lon="-4.6652068756520748138427734375">
        <ele>33.40000152587890625</ele>
        <time>2018-09-06T11:06:56.000Z</time>
      </trkpt>
      <trkpt lat="43.40060739777982234954833984375" lon="-4.665464870631694793701171875">
        <ele>31.799999237060546875</ele>
        <time>2018-09-06T11:06:59.000Z</time>
      </trkpt>
      <trkpt lat="43.400625921785831451416015625" lon="-4.665568806231021881103515625">
        <ele>31</ele>
        <time>2018-09-06T11:07:00.000Z</time>
      </trkpt>
      <trkpt lat="43.40064880438148975372314453125" lon="-4.66568070463836193084716796875">
        <ele>29.799999237060546875</ele>
        <time>2018-09-06T11:07:01.000Z</time>
      </trkpt>
      <trkpt lat="43.40067881159484386444091796875" lon="-4.6657902561128139495849609375">
        <ele>28.6000003814697265625</ele>
        <time>2018-09-06T11:07:02.000Z</time>
      </trkpt>
      <trkpt lat="43.4007152728736400604248046875" lon="-4.665898382663726806640625">
        <ele>27.6000003814697265625</ele>
        <time>2018-09-06T11:07:03.000Z</time>
      </trkpt>
      <trkpt lat="43.400760032236576080322265625" lon="-4.66600005514919757843017578125">
        <ele>26.799999237060546875</ele>
        <time>2018-09-06T11:07:04.000Z</time>
      </trkpt>
      <trkpt lat="43.400867320597171783447265625" lon="-4.6661813557147979736328125">
        <ele>25.6000003814697265625</ele>
        <time>2018-09-06T11:07:06.000Z</time>
      </trkpt>
      <trkpt lat="43.40092155151069164276123046875" lon="-4.66626140289008617401123046875">
        <ele>25.200000762939453125</ele>
        <time>2018-09-06T11:07:07.000Z</time>
      </trkpt>
      <trkpt lat="43.40097117237746715545654296875" lon="-4.6663401089608669281005859375">
        <ele>25.200000762939453125</ele>
        <time>2018-09-06T11:07:08.000Z</time>
      </trkpt>
      <trkpt lat="43.40113512240350246429443359375" lon="-4.666656441986560821533203125">
        <ele>24.3999996185302734375</ele>
        <time>2018-09-06T11:07:12.000Z</time>
      </trkpt>
      <trkpt lat="43.4011564962565898895263671875" lon="-4.66670514084398746490478515625">
        <ele>24</ele>
        <time>2018-09-06T11:07:13.000Z</time>
      </trkpt>
      <trkpt lat="43.401184491813182830810546875" lon="-4.66680740006268024444580078125">
        <ele>23.3999996185302734375</ele>
        <time>2018-09-06T11:07:15.000Z</time>
      </trkpt>
      <trkpt lat="43.40122497640550136566162109375" lon="-4.666941426694393157958984375">
        <ele>22.3999996185302734375</ele>
        <time>2018-09-06T11:07:17.000Z</time>
      </trkpt>
      <trkpt lat="43.4012409858405590057373046875" lon="-4.6670203842222690582275390625">
        <ele>22.200000762939453125</ele>
        <time>2018-09-06T11:07:18.000Z</time>
      </trkpt>
      <trkpt lat="43.40125766582787036895751953125" lon="-4.6670968271791934967041015625">
        <ele>22.200000762939453125</ele>
        <time>2018-09-06T11:07:19.000Z</time>
      </trkpt>
      <trkpt lat="43.40127442963421344757080078125" lon="-4.66717318631708621978759765625">
        <ele>22.3999996185302734375</ele>
        <time>2018-09-06T11:07:20.000Z</time>
      </trkpt>
      <trkpt lat="43.401323296129703521728515625" lon="-4.6673938818275928497314453125">
        <ele>22.3999996185302734375</ele>
        <time>2018-09-06T11:07:23.000Z</time>
      </trkpt>
      <trkpt lat="43.40132773853838443756103515625" lon="-4.6674629487097263336181640625">
        <ele>22.3999996185302734375</ele>
        <time>2018-09-06T11:07:24.000Z</time>
      </trkpt>
      <trkpt lat="43.4013650380074977874755859375" lon="-4.66774567030370235443115234375">
        <ele>22.3999996185302734375</ele>
        <time>2018-09-06T11:07:28.000Z</time>
      </trkpt>
      <trkpt lat="43.40145112015306949615478515625" lon="-4.668273814022541046142578125">
        <ele>21.6000003814697265625</ele>
        <time>2018-09-06T11:07:36.000Z</time>
      </trkpt>
      <trkpt lat="43.40152806602418422698974609375" lon="-4.66832578182220458984375">
        <ele>22.200000762939453125</ele>
        <time>2018-09-06T11:07:38.000Z</time>
      </trkpt>
      <trkpt lat="43.401568047702312469482421875" lon="-4.6683417074382305145263671875">
        <ele>22.3999996185302734375</ele>
        <time>2018-09-06T11:07:39.000Z</time>
      </trkpt>
      <trkpt lat="43.40170274488627910614013671875" lon="-4.66834967024624347686767578125">
        <ele>22.3999996185302734375</ele>
        <time>2018-09-06T11:07:42.000Z</time>
      </trkpt>
      <trkpt lat="43.4017955325543880462646484375" lon="-4.66835193336009979248046875">
        <ele>22.3999996185302734375</ele>
        <time>2018-09-06T11:07:44.000Z</time>
      </trkpt>
      <trkpt lat="43.4019293077290058135986328125" lon="-4.66835285536944866180419921875">
        <ele>22.3999996185302734375</ele>
        <time>2018-09-06T11:07:47.000Z</time>
      </trkpt>
      <trkpt lat="43.40209820307791233062744140625" lon="-4.6683494187891483306884765625">
        <ele>23</ele>
        <time>2018-09-06T11:07:51.000Z</time>
      </trkpt>
      <trkpt lat="43.40215243399143218994140625" lon="-4.6683638356626033782958984375">
        <ele>23.200000762939453125</ele>
        <time>2018-09-06T11:07:53.000Z</time>
      </trkpt>
      <trkpt lat="43.40224119834601879119873046875" lon="-4.66837565414607524871826171875">
        <ele>23.3999996185302734375</ele>
        <time>2018-09-06T11:07:56.000Z</time>
      </trkpt>
      <trkpt lat="43.4024561941623687744140625" lon="-4.66844924725592136383056640625">
        <ele>22.6000003814697265625</ele>
        <time>2018-09-06T11:08:01.000Z</time>
      </trkpt>
      <trkpt lat="43.402517549693584442138671875" lon="-4.668558798730373382568359375">
        <ele>22</ele>
        <time>2018-09-06T11:08:03.000Z</time>
      </trkpt>
      <trkpt lat="43.40252257883548736572265625" lon="-4.66862124390900135040283203125">
        <ele>21.799999237060546875</ele>
        <time>2018-09-06T11:08:04.000Z</time>
      </trkpt>
      <trkpt lat="43.4025281108915805816650390625" lon="-4.66871864162385463714599609375">
        <ele>22.3999996185302734375</ele>
        <time>2018-09-06T11:08:06.000Z</time>
      </trkpt>
      <trkpt lat="43.40254194103181362152099609375" lon="-4.6687825955450534820556640625">
        <ele>23.200000762939453125</ele>
        <time>2018-09-06T11:08:08.000Z</time>
      </trkpt>
      <trkpt lat="43.4025807492434978485107421875" lon="-4.66887303628027439117431640625">
        <ele>24.3999996185302734375</ele>
        <time>2018-09-06T11:08:11.000Z</time>
      </trkpt>
      <trkpt lat="43.402624838054180145263671875" lon="-4.6689656563103199005126953125">
        <ele>24.799999237060546875</ele>
        <time>2018-09-06T11:08:14.000Z</time>
      </trkpt>
      <trkpt lat="43.402637578547000885009765625" lon="-4.66899524442851543426513671875">
        <ele>25</ele>
        <time>2018-09-06T11:08:15.000Z</time>
      </trkpt>
      <trkpt lat="43.40268887579441070556640625" lon="-4.6691121719777584075927734375">
        <ele>25.3999996185302734375</ele>
        <time>2018-09-06T11:08:19.000Z</time>
      </trkpt>
      <trkpt lat="43.40277160517871379852294921875" lon="-4.66923731379210948944091796875">
        <ele>25.6000003814697265625</ele>
        <time>2018-09-06T11:08:23.000Z</time>
      </trkpt>
      <trkpt lat="43.40292130596935749053955078125" lon="-4.66926950030028820037841796875">
        <ele>25.3999996185302734375</ele>
        <time>2018-09-06T11:08:27.000Z</time>
      </trkpt>
      <trkpt lat="43.4031544066965579986572265625" lon="-4.6692516468465328216552734375">
        <ele>24.200000762939453125</ele>
        <time>2018-09-06T11:08:32.000Z</time>
      </trkpt>
      <trkpt lat="43.4032033570110797882080078125" lon="-4.66924083419144153594970703125">
        <ele>24.200000762939453125</ele>
        <time>2018-09-06T11:08:33.000Z</time>
      </trkpt>
      <trkpt lat="43.4033994935452938079833984375" lon="-4.66915952973067760467529296875">
        <ele>24.799999237060546875</ele>
        <time>2018-09-06T11:08:38.000Z</time>
      </trkpt>
      <trkpt lat="43.403463698923587799072265625" lon="-4.66915902681648731231689453125">
        <ele>25.200000762939453125</ele>
        <time>2018-09-06T11:08:40.000Z</time>
      </trkpt>
      <trkpt lat="43.40359889902174472808837890625" lon="-4.6691668219864368438720703125">
        <ele>26</ele>
        <time>2018-09-06T11:08:44.000Z</time>
      </trkpt>
      <trkpt lat="43.4038159064948558807373046875" lon="-4.6692479588091373443603515625">
        <ele>25.799999237060546875</ele>
        <time>2018-09-06T11:08:50.000Z</time>
      </trkpt>
      <trkpt lat="43.4039104543626308441162109375" lon="-4.6693837456405162811279296875">
        <ele>26.3999996185302734375</ele>
        <time>2018-09-06T11:08:54.000Z</time>
      </trkpt>
      <trkpt lat="43.40392964892089366912841796875" lon="-4.66941501013934612274169921875">
        <ele>26.799999237060546875</ele>
        <time>2018-09-06T11:08:55.000Z</time>
      </trkpt>
      <trkpt lat="43.4039966203272342681884765625" lon="-4.66949455440044403076171875">
        <ele>27.3999996185302734375</ele>
        <time>2018-09-06T11:08:58.000Z</time>
      </trkpt>
      <trkpt lat="43.40408085845410823822021484375" lon="-4.66951022855937480926513671875">
        <ele>28.200000762939453125</ele>
        <time>2018-09-06T11:09:01.000Z</time>
      </trkpt>
      <trkpt lat="43.40417004190385341644287109375" lon="-4.66949145309627056121826171875">
        <ele>28.200000762939453125</ele>
        <time>2018-09-06T11:09:04.000Z</time>
      </trkpt>
      <trkpt lat="43.40428152121603488922119140625" lon="-4.6694769524037837982177734375">
        <ele>28.6000003814697265625</ele>
        <time>2018-09-06T11:09:08.000Z</time>
      </trkpt>
      <trkpt lat="43.40435964055359363555908203125" lon="-4.6694893576204776763916015625">
        <ele>29.799999237060546875</ele>
        <time>2018-09-06T11:09:12.000Z</time>
      </trkpt>
      <trkpt lat="43.40440507046878337860107421875" lon="-4.66948650777339935302734375">
        <ele>30.200000762939453125</ele>
        <time>2018-09-06T11:09:14.000Z</time>
      </trkpt>
      <trkpt lat="43.40458109043538570404052734375" lon="-4.6695537306368350982666015625">
        <ele>30.200000762939453125</ele>
        <time>2018-09-06T11:09:20.000Z</time>
      </trkpt>
      <trkpt lat="43.40470078401267528533935546875" lon="-4.66970100067555904388427734375">
        <ele>29.799999237060546875</ele>
        <time>2018-09-06T11:09:24.000Z</time>
      </trkpt>
      <trkpt lat="43.40472224168479442596435546875" lon="-4.66975984163582324981689453125">
        <ele>29.6000003814697265625</ele>
        <time>2018-09-06T11:09:25.000Z</time>
      </trkpt>
      <trkpt lat="43.4048200584948062896728515625" lon="-4.66990283690392971038818359375">
        <ele>28.799999237060546875</ele>
        <time>2018-09-06T11:09:28.000Z</time>
      </trkpt>
      <trkpt lat="43.40490169823169708251953125" lon="-4.66993133537471294403076171875">
        <ele>29.3999996185302734375</ele>
        <time>2018-09-06T11:09:30.000Z</time>
      </trkpt>
      <trkpt lat="43.40494335629045963287353515625" lon="-4.669932760298252105712890625">
        <ele>29.799999237060546875</ele>
        <time>2018-09-06T11:09:31.000Z</time>
      </trkpt>
      <trkpt lat="43.405055589973926544189453125" lon="-4.66989294625818729400634765625">
        <ele>30.3999996185302734375</ele>
        <time>2018-09-06T11:09:34.000Z</time>
      </trkpt>
      <trkpt lat="43.4051368944346904754638671875" lon="-4.6698568202555179595947265625">
        <ele>30.200000762939453125</ele>
        <time>2018-09-06T11:09:36.000Z</time>
      </trkpt>
      <trkpt lat="43.4052646346390247344970703125" lon="-4.6698356978595256805419921875">
        <ele>29.799999237060546875</ele>
        <time>2018-09-06T11:09:39.000Z</time>
      </trkpt>
      <trkpt lat="43.405370414257049560546875" lon="-4.669824130833148956298828125">
        <ele>29</ele>
        <time>2018-09-06T11:09:41.000Z</time>
      </trkpt>
      <trkpt lat="43.40543688274919986724853515625" lon="-4.66981113888323307037353515625">
        <ele>28.200000762939453125</ele>
        <time>2018-09-06T11:09:42.000Z</time>
      </trkpt>
      <trkpt lat="43.4055031836032867431640625" lon="-4.66980191878974437713623046875">
        <ele>27.3999996185302734375</ele>
        <time>2018-09-06T11:09:43.000Z</time>
      </trkpt>
      <trkpt lat="43.405573256313800811767578125" lon="-4.669812060892581939697265625">
        <ele>27</ele>
        <time>2018-09-06T11:09:44.000Z</time>
      </trkpt>
      <trkpt lat="43.4056877531111240386962890625" lon="-4.66987299732863903045654296875">
        <ele>26.6000003814697265625</ele>
        <time>2018-09-06T11:09:46.000Z</time>
      </trkpt>
      <trkpt lat="43.4057856537401676177978515625" lon="-4.67000124044716358184814453125">
        <ele>28</ele>
        <time>2018-09-06T11:09:49.000Z</time>
      </trkpt>
      <trkpt lat="43.40580786578357219696044921875" lon="-4.67003560625016689300537109375">
        <ele>28.200000762939453125</ele>
        <time>2018-09-06T11:09:50.000Z</time>
      </trkpt>
      <trkpt lat="43.40583913028240203857421875" lon="-4.67008841224014759063720703125">
        <ele>29</ele>
        <time>2018-09-06T11:09:52.000Z</time>
      </trkpt>
      <trkpt lat="43.40585011057555675506591796875" lon="-4.6701089479029178619384765625">
        <ele>29.3999996185302734375</ele>
        <time>2018-09-06T11:09:53.000Z</time>
      </trkpt>
      <trkpt lat="43.40589436702430248260498046875" lon="-4.6701501868665218353271484375">
        <ele>30.200000762939453125</ele>
        <time>2018-09-06T11:09:56.000Z</time>
      </trkpt>
      <trkpt lat="43.40592856518924236297607421875" lon="-4.67018656432628631591796875">
        <ele>30.200000762939453125</ele>
        <time>2018-09-06T11:09:59.000Z</time>
      </trkpt>
      <trkpt lat="43.40597030706703662872314453125" lon="-4.6702413819730281829833984375">
        <ele>30.3999996185302734375</ele>
        <time>2018-09-06T11:10:05.000Z</time>
      </trkpt>
      <trkpt lat="43.4060032479465007781982421875" lon="-4.670298881828784942626953125">
        <ele>30.6000003814697265625</ele>
        <time>2018-09-06T11:10:09.000Z</time>
      </trkpt>
      <trkpt lat="43.406009785830974578857421875" lon="-4.67031924985349178314208984375">
        <ele>30.799999237060546875</ele>
        <time>2018-09-06T11:10:10.000Z</time>
      </trkpt>
      <trkpt lat="43.4060396254062652587890625" lon="-4.67047079466283321380615234375">
        <ele>31.200000762939453125</ele>
        <time>2018-09-06T11:10:15.000Z</time>
      </trkpt>
      <trkpt lat="43.40604297816753387451171875" lon="-4.67050331644713878631591796875">
        <ele>31.3999996185302734375</ele>
        <time>2018-09-06T11:10:16.000Z</time>
      </trkpt>
      <trkpt lat="43.40606636367738246917724609375" lon="-4.6706001274287700653076171875">
        <ele>32.200000762939453125</ele>
        <time>2018-09-06T11:10:19.000Z</time>
      </trkpt>
      <trkpt lat="43.40607927180826663970947265625" lon="-4.670627117156982421875">
        <ele>32.59999847412109375</ele>
        <time>2018-09-06T11:10:20.000Z</time>
      </trkpt>
      <trkpt lat="43.40613693930208683013916015625" lon="-4.67070414684712886810302734375">
        <ele>33.200000762939453125</ele>
        <time>2018-09-06T11:10:23.000Z</time>
      </trkpt>
      <trkpt lat="43.4061789326369762420654296875" lon="-4.67089257203042507171630859375">
        <ele>32.200000762939453125</ele>
        <time>2018-09-06T11:10:27.000Z</time>
      </trkpt>
      <trkpt lat="43.40617239475250244140625" lon="-4.67097421176731586456298828125">
        <ele>31.3999996185302734375</ele>
        <time>2018-09-06T11:10:28.000Z</time>
      </trkpt>
      <trkpt lat="43.40615160763263702392578125" lon="-4.671139083802700042724609375">
        <ele>29.799999237060546875</ele>
        <time>2018-09-06T11:10:30.000Z</time>
      </trkpt>
      <trkpt lat="43.40610860846936702728271484375" lon="-4.67138224281370639801025390625">
        <ele>29.6000003814697265625</ele>
        <time>2018-09-06T11:10:33.000Z</time>
      </trkpt>
      <trkpt lat="43.40609016828238964080810546875" lon="-4.6715965680778026580810546875">
        <ele>28.3999996185302734375</ele>
        <time>2018-09-06T11:10:35.000Z</time>
      </trkpt>
      <trkpt lat="43.4060879051685333251953125" lon="-4.671712405979633331298828125">
        <ele>27.3999996185302734375</ele>
        <time>2018-09-06T11:10:36.000Z</time>
      </trkpt>
      <trkpt lat="43.40608857572078704833984375" lon="-4.67182748951017856597900390625">
        <ele>26.6000003814697265625</ele>
        <time>2018-09-06T11:10:37.000Z</time>
      </trkpt>
      <trkpt lat="43.40609016828238964080810546875" lon="-4.67193159274756908416748046875">
        <ele>26</ele>
        <time>2018-09-06T11:10:38.000Z</time>
      </trkpt>
      <trkpt lat="43.406100310385227203369140625" lon="-4.67206704430282115936279296875">
        <ele>26.799999237060546875</ele>
        <time>2018-09-06T11:10:40.000Z</time>
      </trkpt>
      <trkpt lat="43.406100980937480926513671875" lon="-4.67211306095123291015625">
        <ele>27.799999237060546875</ele>
        <time>2018-09-06T11:10:41.000Z</time>
      </trkpt>
      <trkpt lat="43.40611196123063564300537109375" lon="-4.67217785306274890899658203125">
        <ele>29.200000762939453125</ele>
        <time>2018-09-06T11:10:43.000Z</time>
      </trkpt>
      <trkpt lat="43.406110703945159912109375" lon="-4.672201573848724365234375">
        <ele>30.200000762939453125</ele>
        <time>2018-09-06T11:10:44.000Z</time>
      </trkpt>
      <trkpt lat="43.40612067840993404388427734375" lon="-4.67225111089646816253662109375">
        <ele>30.3999996185302734375</ele>
        <time>2018-09-06T11:10:46.000Z</time>
      </trkpt>
      <trkpt lat="43.4061336703598499298095703125" lon="-4.6723707206547260284423828125">
        <ele>30.799999237060546875</ele>
        <time>2018-09-06T11:10:49.000Z</time>
      </trkpt>
      <trkpt lat="43.4062057547271251678466796875" lon="-4.6725876443088054656982421875">
        <ele>30.799999237060546875</ele>
        <time>2018-09-06T11:10:55.000Z</time>
      </trkpt>
      <trkpt lat="43.40631631202995777130126953125" lon="-4.67275570146739482879638671875">
        <ele>29.6000003814697265625</ele>
        <time>2018-09-06T11:10:59.000Z</time>
      </trkpt>
      <trkpt lat="43.40635168366134166717529296875" lon="-4.67280029319226741790771484375">
        <ele>29.3999996185302734375</ele>
        <time>2018-09-06T11:11:00.000Z</time>
      </trkpt>
      <trkpt lat="43.4064042381942272186279296875" lon="-4.67289282940328121185302734375">
        <ele>29.3999996185302734375</ele>
        <time>2018-09-06T11:11:02.000Z</time>
      </trkpt>
      <trkpt lat="43.40642494149506092071533203125" lon="-4.6729856170713901519775390625">
        <ele>29.799999237060546875</ele>
        <time>2018-09-06T11:11:04.000Z</time>
      </trkpt>
      <trkpt lat="43.40651228092610836029052734375" lon="-4.673329107463359832763671875">
        <ele>29.799999237060546875</ele>
        <time>2018-09-06T11:11:11.000Z</time>
      </trkpt>
      <trkpt lat="43.4065356664359569549560546875" lon="-4.67347084544599056243896484375">
        <ele>29</ele>
        <time>2018-09-06T11:11:13.000Z</time>
      </trkpt>
      <trkpt lat="43.40651881881058216094970703125" lon="-4.67365139164030551910400390625">
        <ele>28</ele>
        <time>2018-09-06T11:11:15.000Z</time>
      </trkpt>
      <trkpt lat="43.40652284212410449981689453125" lon="-4.67384107410907745361328125">
        <ele>26</ele>
        <time>2018-09-06T11:11:17.000Z</time>
      </trkpt>
      <trkpt lat="43.40658721514046192169189453125" lon="-4.67402212321758270263671875">
        <ele>24.799999237060546875</ele>
        <time>2018-09-06T11:11:19.000Z</time>
      </trkpt>
      <trkpt lat="43.40673096477985382080078125" lon="-4.67419914901256561279296875">
        <ele>24.799999237060546875</ele>
        <time>2018-09-06T11:11:22.000Z</time>
      </trkpt>
      <trkpt lat="43.4067941643297672271728515625" lon="-4.6743947826325893402099609375">
        <ele>25</ele>
        <time>2018-09-06T11:11:25.000Z</time>
      </trkpt>
      <trkpt lat="43.40682425536215305328369140625" lon="-4.6745298989117145538330078125">
        <ele>25.200000762939453125</ele>
        <time>2018-09-06T11:11:27.000Z</time>
      </trkpt>
      <trkpt lat="43.4068632312119007110595703125" lon="-4.6747257001698017120361328125">
        <ele>25</ele>
        <time>2018-09-06T11:11:30.000Z</time>
      </trkpt>
      <trkpt lat="43.4068655781447887420654296875" lon="-4.67479300685226917266845703125">
        <ele>25.200000762939453125</ele>
        <time>2018-09-06T11:11:31.000Z</time>
      </trkpt>
      <trkpt lat="43.40685593895614147186279296875" lon="-4.675222747027873992919921875">
        <ele>24.3999996185302734375</ele>
        <time>2018-09-06T11:11:37.000Z</time>
      </trkpt>
      <trkpt lat="43.4068662486970424652099609375" lon="-4.675480909645557403564453125">
        <ele>23.200000762939453125</ele>
        <time>2018-09-06T11:11:40.000Z</time>
      </trkpt>
      <trkpt lat="43.4068644046783447265625" lon="-4.6756785549223423004150390625">
        <ele>21.6000003814697265625</ele>
        <time>2018-09-06T11:11:42.000Z</time>
      </trkpt>
      <trkpt lat="43.40687706135213375091552734375" lon="-4.67594786547124385833740234375">
        <ele>21.6000003814697265625</ele>
        <time>2018-09-06T11:11:45.000Z</time>
      </trkpt>
      <trkpt lat="43.40691913850605487823486328125" lon="-4.6760594286024570465087890625">
        <ele>22</ele>
        <time>2018-09-06T11:11:47.000Z</time>
      </trkpt>
      <trkpt lat="43.40693925507366657257080078125" lon="-4.67609354294836521148681640625">
        <ele>22.6000003814697265625</ele>
        <time>2018-09-06T11:11:48.000Z</time>
      </trkpt>
      <trkpt lat="43.4069596230983734130859375" lon="-4.67615104280412197113037109375">
        <ele>23.799999237060546875</ele>
        <time>2018-09-06T11:11:50.000Z</time>
      </trkpt>
      <trkpt lat="43.40696641243994235992431640625" lon="-4.67617702670395374298095703125">
        <ele>24</ele>
        <time>2018-09-06T11:11:51.000Z</time>
      </trkpt>
      <trkpt lat="43.4069832600653171539306640625" lon="-4.676252044737339019775390625">
        <ele>24.799999237060546875</ele>
        <time>2018-09-06T11:11:54.000Z</time>
      </trkpt>
      <trkpt lat="43.40699172578752040863037109375" lon="-4.67636444605886936187744140625">
        <ele>25.200000762939453125</ele>
        <time>2018-09-06T11:11:59.000Z</time>
      </trkpt>
      <trkpt lat="43.40692332945764064788818359375" lon="-4.676521606743335723876953125">
        <ele>25.200000762939453125</ele>
        <time>2018-09-06T11:12:04.000Z</time>
      </trkpt>
      <trkpt lat="43.40684336610138416290283203125" lon="-4.6766817010939121246337890625">
        <ele>25.799999237060546875</ele>
        <time>2018-09-06T11:12:09.000Z</time>
      </trkpt>
      <trkpt lat="43.406747393310070037841796875" lon="-4.67678479850292205810546875">
        <ele>26.3999996185302734375</ele>
        <time>2018-09-06T11:12:13.000Z</time>
      </trkpt>
      <trkpt lat="43.40664337389171123504638671875" lon="-4.67694464139640331268310546875">
        <ele>26.799999237060546875</ele>
        <time>2018-09-06T11:12:18.000Z</time>
      </trkpt>
      <trkpt lat="43.40663013048470020294189453125" lon="-4.6769777499139308929443359375">
        <ele>27.200000762939453125</ele>
        <time>2018-09-06T11:12:19.000Z</time>
      </trkpt>
      <trkpt lat="43.40660163201391696929931640625" lon="-4.67704103328287601470947265625">
        <ele>28.200000762939453125</ele>
        <time>2018-09-06T11:12:21.000Z</time>
      </trkpt>
      <trkpt lat="43.40657497756183147430419921875" lon="-4.6771608106791973114013671875">
        <ele>28.200000762939453125</ele>
        <time>2018-09-06T11:12:24.000Z</time>
      </trkpt>
      <trkpt lat="43.40657137334346771240234375" lon="-4.677206911146640777587890625">
        <ele>28</ele>
        <time>2018-09-06T11:12:25.000Z</time>
      </trkpt>
      <trkpt lat="43.4065101854503154754638671875" lon="-4.67745543457567691802978515625">
        <ele>28.200000762939453125</ele>
        <time>2018-09-06T11:12:31.000Z</time>
      </trkpt>
      <trkpt lat="43.4064153023064136505126953125" lon="-4.67755258083343505859375">
        <ele>28.3999996185302734375</ele>
        <time>2018-09-06T11:12:36.000Z</time>
      </trkpt>
      <trkpt lat="43.4063465707004070281982421875" lon="-4.67766967602074146270751953125">
        <ele>28.200000762939453125</ele>
        <time>2018-09-06T11:12:40.000Z</time>
      </trkpt>
      <trkpt lat="43.40634799562394618988037109375" lon="-4.67784158885478973388671875">
        <ele>28.6000003814697265625</ele>
        <time>2018-09-06T11:12:44.000Z</time>
      </trkpt>
      <trkpt lat="43.40642242692410945892333984375" lon="-4.67813168652355670928955078125">
        <ele>27.6000003814697265625</ele>
        <time>2018-09-06T11:12:50.000Z</time>
      </trkpt>
      <trkpt lat="43.40646064840257167816162109375" lon="-4.67826546169817447662353515625">
        <ele>27</ele>
        <time>2018-09-06T11:12:52.000Z</time>
      </trkpt>
      <trkpt lat="43.40651948936283588409423828125" lon="-4.67841289937496185302734375">
        <ele>26</ele>
        <time>2018-09-06T11:12:54.000Z</time>
      </trkpt>
      <trkpt lat="43.40655502863228321075439453125" lon="-4.67847920022904872894287109375">
        <ele>25.3999996185302734375</ele>
        <time>2018-09-06T11:12:55.000Z</time>
      </trkpt>
      <trkpt lat="43.4066711179912090301513671875" lon="-4.67867173254489898681640625">
        <ele>25.200000762939453125</ele>
        <time>2018-09-06T11:12:58.000Z</time>
      </trkpt>
      <trkpt lat="43.4066922403872013092041015625" lon="-4.6787488460540771484375">
        <ele>24.799999237060546875</ele>
        <time>2018-09-06T11:12:59.000Z</time>
      </trkpt>
      <trkpt lat="43.40669048018753528594970703125" lon="-4.67890349216759204864501953125">
        <ele>24</ele>
        <time>2018-09-06T11:13:01.000Z</time>
      </trkpt>
      <trkpt lat="43.40667673386633396148681640625" lon="-4.6789729781448841094970703125">
        <ele>23.6000003814697265625</ele>
        <time>2018-09-06T11:13:02.000Z</time>
      </trkpt>
      <trkpt lat="43.4066456370055675506591796875" lon="-4.67910080216825008392333984375">
        <ele>23.6000003814697265625</ele>
        <time>2018-09-06T11:13:04.000Z</time>
      </trkpt>
      <trkpt lat="43.406645469367504119873046875" lon="-4.6791578829288482666015625">
        <ele>24</ele>
        <time>2018-09-06T11:13:05.000Z</time>
      </trkpt>
      <trkpt lat="43.40667170472443103790283203125" lon="-4.67926542274653911590576171875">
        <ele>24.6000003814697265625</ele>
        <time>2018-09-06T11:13:07.000Z</time>
      </trkpt>
      <trkpt lat="43.4066940844058990478515625" lon="-4.67937170527875423431396484375">
        <ele>24.799999237060546875</ele>
        <time>2018-09-06T11:13:09.000Z</time>
      </trkpt>
      <trkpt lat="43.40669701807200908660888671875" lon="-4.67942903749644756317138671875">
        <ele>24.799999237060546875</ele>
        <time>2018-09-06T11:13:10.000Z</time>
      </trkpt>
      <trkpt lat="43.40671462006866931915283203125" lon="-4.6797682531177997589111328125">
        <ele>24.799999237060546875</ele>
        <time>2018-09-06T11:13:16.000Z</time>
      </trkpt>
      <trkpt lat="43.4066028892993927001953125" lon="-4.6800505556166172027587890625">
        <ele>24.3999996185302734375</ele>
        <time>2018-09-06T11:13:21.000Z</time>
      </trkpt>
      <trkpt lat="43.4064595587551593780517578125" lon="-4.680109731853008270263671875">
        <ele>23.6000003814697265625</ele>
        <time>2018-09-06T11:13:24.000Z</time>
      </trkpt>
      <trkpt lat="43.40640817768871784210205078125" lon="-4.68012792058289051055908203125">
        <ele>23.3999996185302734375</ele>
        <time>2018-09-06T11:13:25.000Z</time>
      </trkpt>
      <trkpt lat="43.40625286102294921875" lon="-4.680231772363185882568359375">
        <ele>22.3999996185302734375</ele>
        <time>2018-09-06T11:13:28.000Z</time>
      </trkpt>
      <trkpt lat="43.4062141366302967071533203125" lon="-4.68027242459356784820556640625">
        <ele>22</ele>
        <time>2018-09-06T11:13:29.000Z</time>
      </trkpt>
      <trkpt lat="43.40615219436585903167724609375" lon="-4.6803541481494903564453125">
        <ele>21.6000003814697265625</ele>
        <time>2018-09-06T11:13:32.000Z</time>
      </trkpt>
      <trkpt lat="43.40615621767938137054443359375" lon="-4.68039966188371181488037109375">
        <ele>21.6000003814697265625</ele>
        <time>2018-09-06T11:13:33.000Z</time>
      </trkpt>
      <trkpt lat="43.40618723072111606597900390625" lon="-4.68046923168003559112548828125">
        <ele>21.799999237060546875</ele>
        <time>2018-09-06T11:13:35.000Z</time>
      </trkpt>
      <trkpt lat="43.40623483993113040924072265625" lon="-4.6805420704185962677001953125">
        <ele>22</ele>
        <time>2018-09-06T11:13:37.000Z</time>
      </trkpt>
      <trkpt lat="43.4063160605728626251220703125" lon="-4.68065681867301464080810546875">
        <ele>22.200000762939453125</ele>
        <time>2018-09-06T11:13:40.000Z</time>
      </trkpt>
      <trkpt lat="43.40634061954915523529052734375" lon="-4.68069420196115970611572265625">
        <ele>22.3999996185302734375</ele>
        <time>2018-09-06T11:13:41.000Z</time>
      </trkpt>
      <trkpt lat="43.40641806833446025848388671875" lon="-4.68086871318519115447998046875">
        <ele>22.200000762939453125</ele>
        <time>2018-09-06T11:13:45.000Z</time>
      </trkpt>
      <trkpt lat="43.40643818490207195281982421875" lon="-4.68100097961723804473876953125">
        <ele>21.6000003814697265625</ele>
        <time>2018-09-06T11:13:47.000Z</time>
      </trkpt>
      <trkpt lat="43.40643726289272308349609375" lon="-4.6811375208199024200439453125">
        <ele>21.3999996185302734375</ele>
        <time>2018-09-06T11:13:49.000Z</time>
      </trkpt>
      <trkpt lat="43.406431563198566436767578125" lon="-4.68120348639786243438720703125">
        <ele>21.3999996185302734375</ele>
        <time>2018-09-06T11:13:50.000Z</time>
      </trkpt>
      <trkpt lat="43.40641236864030361175537109375" lon="-4.68133206479251384735107421875">
        <ele>21.3999996185302734375</ele>
        <time>2018-09-06T11:13:52.000Z</time>
      </trkpt>
      <trkpt lat="43.406368196010589599609375" lon="-4.68152384273707866668701171875">
        <ele>22.200000762939453125</ele>
        <time>2018-09-06T11:13:56.000Z</time>
      </trkpt>
      <trkpt lat="43.40635235421359539031982421875" lon="-4.6815646626055240631103515625">
        <ele>22.799999237060546875</ele>
        <time>2018-09-06T11:13:57.000Z</time>
      </trkpt>
      <trkpt lat="43.40632201172411441802978515625" lon="-4.68164102174341678619384765625">
        <ele>23.200000762939453125</ele>
        <time>2018-09-06T11:13:59.000Z</time>
      </trkpt>
      <trkpt lat="43.40628731064498424530029296875" lon="-4.68176758848130702972412109375">
        <ele>23.799999237060546875</ele>
        <time>2018-09-06T11:14:02.000Z</time>
      </trkpt>
      <trkpt lat="43.406281359493732452392578125" lon="-4.68180899508297443389892578125">
        <ele>24.200000762939453125</ele>
        <time>2018-09-06T11:14:03.000Z</time>
      </trkpt>
      <trkpt lat="43.40627557598054409027099609375" lon="-4.68185140751302242279052734375">
        <ele>24.3999996185302734375</ele>
        <time>2018-09-06T11:14:04.000Z</time>
      </trkpt>
      <trkpt lat="43.4062329120934009552001953125" lon="-4.68205709941685199737548828125">
        <ele>24.799999237060546875</ele>
        <time>2018-09-06T11:14:09.000Z</time>
      </trkpt>
      <trkpt lat="43.4062288887798786163330078125" lon="-4.68214427120983600616455078125">
        <ele>25</ele>
        <time>2018-09-06T11:14:11.000Z</time>
      </trkpt>
      <trkpt lat="43.406233079731464385986328125" lon="-4.6822275035083293914794921875">
        <ele>25.200000762939453125</ele>
        <time>2018-09-06T11:14:13.000Z</time>
      </trkpt>
      <trkpt lat="43.40619510971009731292724609375" lon="-4.68238634057343006134033203125">
        <ele>25.6000003814697265625</ele>
        <time>2018-09-06T11:14:17.000Z</time>
      </trkpt>
      <trkpt lat="43.406146578490734100341796875" lon="-4.68249413184821605682373046875">
        <ele>26.200000762939453125</ele>
        <time>2018-09-06T11:14:20.000Z</time>
      </trkpt>
      <trkpt lat="43.40611833147704601287841796875" lon="-4.68262120150029659271240234375">
        <ele>27.200000762939453125</ele>
        <time>2018-09-06T11:14:23.000Z</time>
      </trkpt>
      <trkpt lat="43.40611062012612819671630859375" lon="-4.6828460879623889923095703125">
        <ele>26.799999237060546875</ele>
        <time>2018-09-06T11:14:28.000Z</time>
      </trkpt>
      <trkpt lat="43.4061120450496673583984375" lon="-4.68288858421146869659423828125">
        <ele>27.799999237060546875</ele>
        <time>2018-09-06T11:14:29.000Z</time>
      </trkpt>
      <trkpt lat="43.40609385631978511810302734375" lon="-4.68312914483249187469482421875">
        <ele>27.200000762939453125</ele>
        <time>2018-09-06T11:14:34.000Z</time>
      </trkpt>
      <trkpt lat="43.40608798898756504058837890625" lon="-4.6832053363323211669921875">
        <ele>26.799999237060546875</ele>
        <time>2018-09-06T11:14:35.000Z</time>
      </trkpt>
      <trkpt lat="43.40607491321861743927001953125" lon="-4.68335880897939205169677734375">
        <ele>25.6000003814697265625</ele>
        <time>2018-09-06T11:14:37.000Z</time>
      </trkpt>
      <trkpt lat="43.40607172809541225433349609375" lon="-4.683507420122623443603515625">
        <ele>25.3999996185302734375</ele>
        <time>2018-09-06T11:14:39.000Z</time>
      </trkpt>
      <trkpt lat="43.40604775585234165191650390625" lon="-4.6839947439730167388916015625">
        <ele>26</ele>
        <time>2018-09-06T11:14:46.000Z</time>
      </trkpt>
      <trkpt lat="43.40607407502830028533935546875" lon="-4.6841268427670001983642578125">
        <ele>26</ele>
        <time>2018-09-06T11:14:48.000Z</time>
      </trkpt>
      <trkpt lat="43.4061413817107677459716796875" lon="-4.68422214500606060028076171875">
        <ele>26</ele>
        <time>2018-09-06T11:14:50.000Z</time>
      </trkpt>
      <trkpt lat="43.4062622487545013427734375" lon="-4.68428693711757659912109375">
        <ele>26.799999237060546875</ele>
        <time>2018-09-06T11:14:53.000Z</time>
      </trkpt>
      <trkpt lat="43.406290076673030853271484375" lon="-4.6843186207115650177001953125">
        <ele>27</ele>
        <time>2018-09-06T11:14:54.000Z</time>
      </trkpt>
      <trkpt lat="43.4063673578202724456787109375" lon="-4.6844822354614734649658203125">
        <ele>27.3999996185302734375</ele>
        <time>2018-09-06T11:14:58.000Z</time>
      </trkpt>
      <trkpt lat="43.40639962814748287200927734375" lon="-4.6845893561840057373046875">
        <ele>27.3999996185302734375</ele>
        <time>2018-09-06T11:15:00.000Z</time>
      </trkpt>
      <trkpt lat="43.4064826928079128265380859375" lon="-4.684715755283832550048828125">
        <ele>27.6000003814697265625</ele>
        <time>2018-09-06T11:15:03.000Z</time>
      </trkpt>
      <trkpt lat="43.4065178968012332916259765625" lon="-4.68473260290920734405517578125">
        <ele>27.799999237060546875</ele>
        <time>2018-09-06T11:15:04.000Z</time>
      </trkpt>
      <trkpt lat="43.406556285917758941650390625" lon="-4.68475691042840480804443359375">
        <ele>27.799999237060546875</ele>
        <time>2018-09-06T11:15:05.000Z</time>
      </trkpt>
      <trkpt lat="43.40658604167401790618896484375" lon="-4.68480284325778484344482421875">
        <ele>27.6000003814697265625</ele>
        <time>2018-09-06T11:15:06.000Z</time>
      </trkpt>
      <trkpt lat="43.40660766698420047760009765625" lon="-4.6848657913506031036376953125">
        <ele>27.200000762939453125</ele>
        <time>2018-09-06T11:15:07.000Z</time>
      </trkpt>
      <trkpt lat="43.4066255204379558563232421875" lon="-4.68494114466011524200439453125">
        <ele>26.6000003814697265625</ele>
        <time>2018-09-06T11:15:08.000Z</time>
      </trkpt>
      <trkpt lat="43.40663884766399860382080078125" lon="-4.68501892872154712677001953125">
        <ele>25.3999996185302734375</ele>
        <time>2018-09-06T11:15:09.000Z</time>
      </trkpt>
      <trkpt lat="43.4066565334796905517578125" lon="-4.6851024962961673736572265625">
        <ele>24.6000003814697265625</ele>
        <time>2018-09-06T11:15:10.000Z</time>
      </trkpt>
      <trkpt lat="43.40667924843728542327880859375" lon="-4.6851879917085170745849609375">
        <ele>23.799999237060546875</ele>
        <time>2018-09-06T11:15:11.000Z</time>
      </trkpt>
      <trkpt lat="43.40673071332275867462158203125" lon="-4.685360826551914215087890625">
        <ele>22.6000003814697265625</ele>
        <time>2018-09-06T11:15:13.000Z</time>
      </trkpt>
      <trkpt lat="43.40678234584629535675048828125" lon="-4.68555285595357418060302734375">
        <ele>21.200000762939453125</ele>
        <time>2018-09-06T11:15:15.000Z</time>
      </trkpt>
      <trkpt lat="43.40682618319988250732421875" lon="-4.68573130667209625244140625">
        <ele>20.200000762939453125</ele>
        <time>2018-09-06T11:15:17.000Z</time>
      </trkpt>
      <trkpt lat="43.40690664947032928466796875" lon="-4.685878492891788482666015625">
        <ele>19.6000003814697265625</ele>
        <time>2018-09-06T11:15:19.000Z</time>
      </trkpt>
      <trkpt lat="43.40695451013743877410888671875" lon="-4.68591369688510894775390625">
        <ele>19.799999237060546875</ele>
        <time>2018-09-06T11:15:20.000Z</time>
      </trkpt>
      <trkpt lat="43.4070221520960330963134765625" lon="-4.6859638206660747528076171875">
        <ele>19.6000003814697265625</ele>
        <time>2018-09-06T11:15:22.000Z</time>
      </trkpt>
      <trkpt lat="43.40704536996781826019287109375" lon="-4.68598485924303531646728515625">
        <ele>19.200000762939453125</ele>
        <time>2018-09-06T11:15:23.000Z</time>
      </trkpt>
      <trkpt lat="43.40706649236381053924560546875" lon="-4.68600028194487094879150390625">
        <ele>18.799999237060546875</ele>
        <time>2018-09-06T11:15:24.000Z</time>
      </trkpt>
      <trkpt lat="43.4071435220539569854736328125" lon="-4.6860794909298419952392578125">
        <ele>18</ele>
        <time>2018-09-06T11:15:28.000Z</time>
      </trkpt>
      <trkpt lat="43.407171182334423065185546875" lon="-4.6861074864864349365234375">
        <ele>17.799999237060546875</ele>
        <time>2018-09-06T11:15:29.000Z</time>
      </trkpt>
      <trkpt lat="43.40727411210536956787109375" lon="-4.6862243302166461944580078125">
        <ele>16.799999237060546875</ele>
        <time>2018-09-06T11:15:32.000Z</time>
      </trkpt>
      <trkpt lat="43.40731032192707061767578125" lon="-4.6862746216356754302978515625">
        <ele>16</ele>
        <time>2018-09-06T11:15:33.000Z</time>
      </trkpt>
      <trkpt lat="43.4073378145694732666015625" lon="-4.6863383240997791290283203125">
        <ele>15.6000003814697265625</ele>
        <time>2018-09-06T11:15:34.000Z</time>
      </trkpt>
      <trkpt lat="43.40736622922122478485107421875" lon="-4.6865327842533588409423828125">
        <ele>14.3999996185302734375</ele>
        <time>2018-09-06T11:15:37.000Z</time>
      </trkpt>
      <trkpt lat="43.40737109072506427764892578125" lon="-4.68659766018390655517578125">
        <ele>14.19999980926513671875</ele>
        <time>2018-09-06T11:15:38.000Z</time>
      </trkpt>
      <trkpt lat="43.40739749372005462646484375" lon="-4.686969816684722900390625">
        <ele>13.3999996185302734375</ele>
        <time>2018-09-06T11:15:44.000Z</time>
      </trkpt>
      <trkpt lat="43.4074080549180507659912109375" lon="-4.68702555634081363677978515625">
        <ele>13.3999996185302734375</ele>
        <time>2018-09-06T11:15:45.000Z</time>
      </trkpt>
      <trkpt lat="43.4074155986309051513671875" lon="-4.68729830347001552581787109375">
        <ele>13.3999996185302734375</ele>
        <time>2018-09-06T11:15:50.000Z</time>
      </trkpt>
      <trkpt lat="43.40738131664693355560302734375" lon="-4.68752897344529628753662109375">
        <ele>13</ele>
        <time>2018-09-06T11:15:55.000Z</time>
      </trkpt>
      <trkpt lat="43.4073473699390888214111328125" lon="-4.68760793097317218780517578125">
        <ele>12.80000019073486328125</ele>
        <time>2018-09-06T11:15:57.000Z</time>
      </trkpt>
      <trkpt lat="43.4073413349688053131103515625" lon="-4.68765713274478912353515625">
        <ele>12.80000019073486328125</ele>
        <time>2018-09-06T11:15:58.000Z</time>
      </trkpt>
      <trkpt lat="43.40726631693542003631591796875" lon="-4.6877836994826793670654296875">
        <ele>13</ele>
        <time>2018-09-06T11:16:01.000Z</time>
      </trkpt>
      <trkpt lat="43.40724251233041286468505859375" lon="-4.687823764979839324951171875">
        <ele>13</ele>
        <time>2018-09-06T11:16:02.000Z</time>
      </trkpt>
      <trkpt lat="43.4071862697601318359375" lon="-4.6879677660763263702392578125">
        <ele>13</ele>
        <time>2018-09-06T11:16:05.000Z</time>
      </trkpt>
      <trkpt lat="43.407167829573154449462890625" lon="-4.688095338642597198486328125">
        <ele>12.80000019073486328125</ele>
        <time>2018-09-06T11:16:07.000Z</time>
      </trkpt>
      <trkpt lat="43.40712030418217182159423828125" lon="-4.68830228783190250396728515625">
        <ele>12.19999980926513671875</ele>
        <time>2018-09-06T11:16:10.000Z</time>
      </trkpt>
      <trkpt lat="43.40708862058818340301513671875" lon="-4.68845718540251255035400390625">
        <ele>11.19999980926513671875</ele>
        <time>2018-09-06T11:16:12.000Z</time>
      </trkpt>
      <trkpt lat="43.4070965833961963653564453125" lon="-4.68853890895843505859375">
        <ele>11</ele>
        <time>2018-09-06T11:16:13.000Z</time>
      </trkpt>
      <trkpt lat="43.40711678378283977508544921875" lon="-4.68868500553071498870849609375">
        <ele>10.80000019073486328125</ele>
        <time>2018-09-06T11:16:15.000Z</time>
      </trkpt>
      <trkpt lat="43.40710253454744815826416015625" lon="-4.6888683177530765533447265625">
        <ele>11</ele>
        <time>2018-09-06T11:16:18.000Z</time>
      </trkpt>
      <trkpt lat="43.40709800831973552703857421875" lon="-4.688908047974109649658203125">
        <ele>11.19999980926513671875</ele>
        <time>2018-09-06T11:16:19.000Z</time>
      </trkpt>
      <trkpt lat="43.40708660893142223358154296875" lon="-4.68896563164889812469482421875">
        <ele>12.6000003814697265625</ele>
        <time>2018-09-06T11:16:21.000Z</time>
      </trkpt>
      <trkpt lat="43.40708157978951930999755859375" lon="-4.6889943815767765045166015625">
        <ele>13.19999980926513671875</ele>
        <time>2018-09-06T11:16:23.000Z</time>
      </trkpt>
      <trkpt lat="43.40706096030771732330322265625" lon="-4.68904006294906139373779296875">
        <ele>13.80000019073486328125</ele>
        <time>2018-09-06T11:16:26.000Z</time>
      </trkpt>
      <trkpt lat="43.40706615708768367767333984375" lon="-4.689078368246555328369140625">
        <ele>14.19999980926513671875</ele>
        <time>2018-09-06T11:16:28.000Z</time>
      </trkpt>
      <trkpt lat="43.40705542825162410736083984375" lon="-4.6891142427921295166015625">
        <ele>14.6000003814697265625</ele>
        <time>2018-09-06T11:16:31.000Z</time>
      </trkpt>
      <trkpt lat="43.407041765749454498291015625" lon="-4.6891442500054836273193359375">
        <ele>14.80000019073486328125</ele>
        <time>2018-09-06T11:16:33.000Z</time>
      </trkpt>
      <trkpt lat="43.40704419650137424468994140625" lon="-4.68920267187058925628662109375">
        <ele>15.3999996185302734375</ele>
        <time>2018-09-06T11:16:36.000Z</time>
      </trkpt>
      <trkpt lat="43.40702106244862079620361328125" lon="-4.6892277337610721588134765625">
        <ele>15.6000003814697265625</ele>
        <time>2018-09-06T11:16:38.000Z</time>
      </trkpt>
      <trkpt lat="43.40702458284795284271240234375" lon="-4.68924659304320812225341796875">
        <ele>15.80000019073486328125</ele>
        <time>2018-09-06T11:16:39.000Z</time>
      </trkpt>
      <trkpt lat="43.40702868998050689697265625" lon="-4.68925715424120426177978515625">
        <ele>16</ele>
        <time>2018-09-06T11:16:40.000Z</time>
      </trkpt>
      <trkpt lat="43.407028354704380035400390625" lon="-4.6892887540161609649658203125">
        <ele>16.200000762939453125</ele>
        <time>2018-09-06T11:16:42.000Z</time>
      </trkpt>
      <trkpt lat="43.40700882486999034881591796875" lon="-4.6893578208982944488525390625">
        <ele>16.799999237060546875</ele>
        <time>2018-09-06T11:16:47.000Z</time>
      </trkpt>
      <trkpt lat="43.4070070646703243255615234375" lon="-4.68937617726624011993408203125">
        <ele>17</ele>
        <time>2018-09-06T11:16:48.000Z</time>
      </trkpt>
      <trkpt lat="43.407004214823246002197265625" lon="-4.68943418003618717193603515625">
        <ele>17.3999996185302734375</ele>
        <time>2018-09-06T11:16:52.000Z</time>
      </trkpt>
      <trkpt lat="43.40700924396514892578125" lon="-4.68945077620446681976318359375">
        <ele>17.3999996185302734375</ele>
        <time>2018-09-06T11:16:53.000Z</time>
      </trkpt>
      <trkpt lat="43.40700916014611721038818359375" lon="-4.6894674561917781829833984375">
        <ele>17.3999996185302734375</ele>
        <time>2018-09-06T11:16:54.000Z</time>
      </trkpt>
      <trkpt lat="43.40699390508234500885009765625" lon="-4.6895492635667324066162109375">
        <ele>18</ele>
        <time>2018-09-06T11:16:59.000Z</time>
      </trkpt>
      <trkpt lat="43.4069931507110595703125" lon="-4.68958220444619655609130859375">
        <ele>18.200000762939453125</ele>
        <time>2018-09-06T11:17:01.000Z</time>
      </trkpt>
      <trkpt lat="43.40699256397783756256103515625" lon="-4.6895975433290004730224609375">
        <ele>18.200000762939453125</ele>
        <time>2018-09-06T11:17:02.000Z</time>
      </trkpt>
      <trkpt lat="43.40698803775012493133544921875" lon="-4.68972570262849330902099609375">
        <ele>19.200000762939453125</ele>
        <time>2018-09-06T11:17:11.000Z</time>
      </trkpt>
      <trkpt lat="43.4069758839905261993408203125" lon="-4.689770042896270751953125">
        <ele>19.200000762939453125</ele>
        <time>2018-09-06T11:17:14.000Z</time>
      </trkpt>
      <trkpt lat="43.406975381076335906982421875" lon="-4.68978722579777240753173828125">
        <ele>19.200000762939453125</ele>
        <time>2018-09-06T11:17:15.000Z</time>
      </trkpt>
      <trkpt lat="43.40698041021823883056640625" lon="-4.68980901874601840972900390625">
        <ele>19</ele>
        <time>2018-09-06T11:17:19.000Z</time>
      </trkpt>
      <trkpt lat="43.406970016658306121826171875" lon="-4.68985847197473049163818359375">
        <ele>18.6000003814697265625</ele>
        <time>2018-09-06T11:17:37.000Z</time>
      </trkpt>
      <trkpt lat="43.4069443680346012115478515625" lon="-4.68991848640143871307373046875">
        <ele>18.3999996185302734375</ele>
        <time>2018-09-06T11:17:39.000Z</time>
      </trkpt>
      <trkpt lat="43.4069286100566387176513671875" lon="-4.68995369039475917816162109375">
        <ele>18.200000762939453125</ele>
        <time>2018-09-06T11:17:40.000Z</time>
      </trkpt>
      <trkpt lat="43.40684822760522365570068359375" lon="-4.690060727298259735107421875">
        <ele>16.6000003814697265625</ele>
        <time>2018-09-06T11:17:43.000Z</time>
      </trkpt>
      <trkpt lat="43.4068102575838565826416015625" lon="-4.6901014633476734161376953125">
        <ele>16.200000762939453125</ele>
        <time>2018-09-06T11:17:44.000Z</time>
      </trkpt>
      <trkpt lat="43.406699113547801971435546875" lon="-4.69021889381110668182373046875">
        <ele>15.6000003814697265625</ele>
        <time>2018-09-06T11:17:47.000Z</time>
      </trkpt>
      <trkpt lat="43.4066694416105747222900390625" lon="-4.69028259627521038055419921875">
        <ele>16.200000762939453125</ele>
        <time>2018-09-06T11:17:49.000Z</time>
      </trkpt>
      <trkpt lat="43.40666751377284526824951171875" lon="-4.69036473892629146575927734375">
        <ele>17.3999996185302734375</ele>
        <time>2018-09-06T11:17:52.000Z</time>
      </trkpt>
      <trkpt lat="43.4066712856292724609375" lon="-4.69039709307253360748291015625">
        <ele>17.3999996185302734375</ele>
        <time>2018-09-06T11:17:53.000Z</time>
      </trkpt>
      <trkpt lat="43.40667463839054107666015625" lon="-4.6905889548361301422119140625">
        <ele>16.200000762939453125</ele>
        <time>2018-09-06T11:17:57.000Z</time>
      </trkpt>
      <trkpt lat="43.40667556039988994598388671875" lon="-4.69065642915666103363037109375">
        <ele>15.3999996185302734375</ele>
        <time>2018-09-06T11:17:58.000Z</time>
      </trkpt>
      <trkpt lat="43.40668897144496440887451171875" lon="-4.69081367366015911102294921875">
        <ele>14.19999980926513671875</ele>
        <time>2018-09-06T11:18:00.000Z</time>
      </trkpt>
      <trkpt lat="43.40671126730740070343017578125" lon="-4.6909483708441257476806640625">
        <ele>14.19999980926513671875</ele>
        <time>2018-09-06T11:18:02.000Z</time>
      </trkpt>
      <trkpt lat="43.40670489706099033355712890625" lon="-4.69100679270923137664794921875">
        <ele>14.3999996185302734375</ele>
        <time>2018-09-06T11:18:03.000Z</time>
      </trkpt>
      <trkpt lat="43.4066463075578212738037109375" lon="-4.69108759425580501556396484375">
        <ele>14.6000003814697265625</ele>
        <time>2018-09-06T11:18:05.000Z</time>
      </trkpt>
      <trkpt lat="43.406495936214923858642578125" lon="-4.69129211269319057464599609375">
        <ele>15</ele>
        <time>2018-09-06T11:18:11.000Z</time>
      </trkpt>
      <trkpt lat="43.40644220821559429168701171875" lon="-4.69127417542040348052978515625">
        <ele>15.3999996185302734375</ele>
        <time>2018-09-06T11:18:13.000Z</time>
      </trkpt>
      <trkpt lat="43.4064270369708538055419921875" lon="-4.69123922288417816162109375">
        <ele>15.80000019073486328125</ele>
        <time>2018-09-06T11:18:14.000Z</time>
      </trkpt>
      <trkpt lat="43.40637196786701679229736328125" lon="-4.6910875104367733001708984375">
        <ele>16.6000003814697265625</ele>
        <time>2018-09-06T11:18:18.000Z</time>
      </trkpt>
      <trkpt lat="43.40633399784564971923828125" lon="-4.691009223461151123046875">
        <ele>16.3999996185302734375</ele>
        <time>2018-09-06T11:18:20.000Z</time>
      </trkpt>
      <trkpt lat="43.40630072169005870819091796875" lon="-4.6909349597990512847900390625">
        <ele>16.799999237060546875</ele>
        <time>2018-09-06T11:18:22.000Z</time>
      </trkpt>
      <trkpt lat="43.406255207955837249755859375" lon="-4.69089045189321041107177734375">
        <ele>17.3999996185302734375</ele>
        <time>2018-09-06T11:18:24.000Z</time>
      </trkpt>
      <trkpt lat="43.40622226707637310028076171875" lon="-4.69088274054229259490966796875">
        <ele>17.3999996185302734375</ele>
        <time>2018-09-06T11:18:25.000Z</time>
      </trkpt>
      <trkpt lat="43.4061283059418201446533203125" lon="-4.69090838916599750518798828125">
        <ele>17.6000003814697265625</ele>
        <time>2018-09-06T11:18:28.000Z</time>
      </trkpt>
      <trkpt lat="43.40609930455684661865234375" lon="-4.69092565588653087615966796875">
        <ele>17.6000003814697265625</ele>
        <time>2018-09-06T11:18:29.000Z</time>
      </trkpt>
      <trkpt lat="43.406032584607601165771484375" lon="-4.690988771617412567138671875">
        <ele>18.200000762939453125</ele>
        <time>2018-09-06T11:18:32.000Z</time>
      </trkpt>
      <trkpt lat="43.405994363129138946533203125" lon="-4.69103135168552398681640625">
        <ele>18.799999237060546875</ele>
        <time>2018-09-06T11:18:34.000Z</time>
      </trkpt>
      <trkpt lat="43.40597416274249553680419921875" lon="-4.691047780215740203857421875">
        <ele>19</ele>
        <time>2018-09-06T11:18:35.000Z</time>
      </trkpt>
      <trkpt lat="43.40592227876186370849609375" lon="-4.69109396450221538543701171875">
        <ele>19.799999237060546875</ele>
        <time>2018-09-06T11:18:38.000Z</time>
      </trkpt>
      <trkpt lat="43.40586385689675807952880859375" lon="-4.69116487540304660797119140625">
        <ele>20.799999237060546875</ele>
        <time>2018-09-06T11:18:42.000Z</time>
      </trkpt>
      <trkpt lat="43.40583167038857936859130859375" lon="-4.69122053124010562896728515625">
        <ele>21</ele>
        <time>2018-09-06T11:18:44.000Z</time>
      </trkpt>
      <trkpt lat="43.405767381191253662109375" lon="-4.6913346089422702789306640625">
        <ele>20.200000762939453125</ele>
        <time>2018-09-06T11:18:47.000Z</time>
      </trkpt>
      <trkpt lat="43.4057122282683849334716796875" lon="-4.69144248403608798980712890625">
        <ele>19.799999237060546875</ele>
        <time>2018-09-06T11:18:49.000Z</time>
      </trkpt>
      <trkpt lat="43.40561407618224620819091796875" lon="-4.69159520231187343597412109375">
        <ele>19</ele>
        <time>2018-09-06T11:18:52.000Z</time>
      </trkpt>
      <trkpt lat="43.40556554496288299560546875" lon="-4.691674746572971343994140625">
        <ele>19</ele>
        <time>2018-09-06T11:18:54.000Z</time>
      </trkpt>
      <trkpt lat="43.40542967431247234344482421875" lon="-4.691841043531894683837890625">
        <ele>20.6000003814697265625</ele>
        <time>2018-09-06T11:19:00.000Z</time>
      </trkpt>
      <trkpt lat="43.40541089884936809539794921875" lon="-4.69185772351920604705810546875">
        <ele>21</ele>
        <time>2018-09-06T11:19:01.000Z</time>
      </trkpt>
      <trkpt lat="43.405346609652042388916015625" lon="-4.69191648066043853759765625">
        <ele>22</ele>
        <time>2018-09-06T11:19:04.000Z</time>
      </trkpt>
      <trkpt lat="43.40526572428643703460693359375" lon="-4.69199853949248790740966796875">
        <ele>23</ele>
        <time>2018-09-06T11:19:08.000Z</time>
      </trkpt>
      <trkpt lat="43.40524594299495220184326171875" lon="-4.6920217573642730712890625">
        <ele>23.3999996185302734375</ele>
        <time>2018-09-06T11:19:09.000Z</time>
      </trkpt>
      <trkpt lat="43.40518391691148281097412109375" lon="-4.69207783229649066925048828125">
        <ele>24</ele>
        <time>2018-09-06T11:19:13.000Z</time>
      </trkpt>
      <trkpt lat="43.4051603637635707855224609375" lon="-4.69208504073321819305419921875">
        <ele>24.200000762939453125</ele>
        <time>2018-09-06T11:19:14.000Z</time>
      </trkpt>
      <trkpt lat="43.40512289665639400482177734375" lon="-4.6920832805335521697998046875">
        <ele>24.200000762939453125</ele>
        <time>2018-09-06T11:19:16.000Z</time>
      </trkpt>
      <trkpt lat="43.4050524048507213592529296875" lon="-4.692059643566608428955078125">
        <ele>24</ele>
        <time>2018-09-06T11:19:19.000Z</time>
      </trkpt>
      <trkpt lat="43.404978476464748382568359375" lon="-4.6920329891145229339599609375">
        <ele>24.200000762939453125</ele>
        <time>2018-09-06T11:19:22.000Z</time>
      </trkpt>
      <trkpt lat="43.404930531978607177734375" lon="-4.692002646625041961669921875">
        <ele>24.3999996185302734375</ele>
        <time>2018-09-06T11:19:24.000Z</time>
      </trkpt>
      <trkpt lat="43.4049142710864543914794921875" lon="-4.69199401326477527618408203125">
        <ele>24.6000003814697265625</ele>
        <time>2018-09-06T11:19:25.000Z</time>
      </trkpt>
      <trkpt lat="43.40486188419163227081298828125" lon="-4.69197289086878299713134765625">
        <ele>25.3999996185302734375</ele>
        <time>2018-09-06T11:19:27.000Z</time>
      </trkpt>
      <trkpt lat="43.404776640236377716064453125" lon="-4.69194724224507808685302734375">
        <ele>26</ele>
        <time>2018-09-06T11:19:31.000Z</time>
      </trkpt>
      <trkpt lat="43.404737077653408050537109375" lon="-4.691952355206012725830078125">
        <ele>26.3999996185302734375</ele>
        <time>2018-09-06T11:19:33.000Z</time>
      </trkpt>
      <trkpt lat="43.40465703047811985015869140625" lon="-4.6919937618076801300048828125">
        <ele>27.200000762939453125</ele>
        <time>2018-09-06T11:19:37.000Z</time>
      </trkpt>
      <trkpt lat="43.404630124568939208984375" lon="-4.69200591556727886199951171875">
        <ele>27.6000003814697265625</ele>
        <time>2018-09-06T11:19:38.000Z</time>
      </trkpt>
      <trkpt lat="43.404520489275455474853515625" lon="-4.692163579165935516357421875">
        <ele>28.3999996185302734375</ele>
        <time>2018-09-06T11:19:45.000Z</time>
      </trkpt>
      <trkpt lat="43.4045152924954891204833984375" lon="-4.6921935863792896270751953125">
        <ele>28.6000003814697265625</ele>
        <time>2018-09-06T11:19:46.000Z</time>
      </trkpt>
      <trkpt lat="43.404476232826709747314453125" lon="-4.69239332713186740875244140625">
        <ele>28.6000003814697265625</ele>
        <time>2018-09-06T11:19:52.000Z</time>
      </trkpt>
      <trkpt lat="43.4044758975505828857421875" lon="-4.69248636625707149505615234375">
        <ele>29.799999237060546875</ele>
        <time>2018-09-06T11:19:55.000Z</time>
      </trkpt>
      <trkpt lat="43.4043981134891510009765625" lon="-4.69264830462634563446044921875">
        <ele>30</ele>
        <time>2018-09-06T11:20:00.000Z</time>
      </trkpt>
      <trkpt lat="43.4043617360293865203857421875" lon="-4.6928574331104755401611328125">
        <ele>30.3999996185302734375</ele>
        <time>2018-09-06T11:20:05.000Z</time>
      </trkpt>
      <trkpt lat="43.404416553676128387451171875" lon="-4.69309036619961261749267578125">
        <ele>30.200000762939453125</ele>
        <time>2018-09-06T11:20:10.000Z</time>
      </trkpt>
      <trkpt lat="43.40438310988247394561767578125" lon="-4.69332841224968433380126953125">
        <ele>30.6000003814697265625</ele>
        <time>2018-09-06T11:20:15.000Z</time>
      </trkpt>
      <trkpt lat="43.4043498337268829345703125" lon="-4.69341524876654148101806640625">
        <ele>30.799999237060546875</ele>
        <time>2018-09-06T11:20:17.000Z</time>
      </trkpt>
      <trkpt lat="43.40428319759666919708251953125" lon="-4.69362429343163967132568359375">
        <ele>31.799999237060546875</ele>
        <time>2018-09-06T11:20:22.000Z</time>
      </trkpt>
      <trkpt lat="43.4042702056467533111572265625" lon="-4.6938485093414783477783203125">
        <ele>33</ele>
        <time>2018-09-06T11:20:27.000Z</time>
      </trkpt>
      <trkpt lat="43.404269702732563018798828125" lon="-4.6938900835812091827392578125">
        <ele>33.200000762939453125</ele>
        <time>2018-09-06T11:20:28.000Z</time>
      </trkpt>
      <trkpt lat="43.40426526032388210296630859375" lon="-4.69418068416416645050048828125">
        <ele>32.799999237060546875</ele>
        <time>2018-09-06T11:20:34.000Z</time>
      </trkpt>
      <trkpt lat="43.40425788424909114837646484375" lon="-4.69424857757985591888427734375">
        <ele>32.40000152587890625</ele>
        <time>2018-09-06T11:20:35.000Z</time>
      </trkpt>
      <trkpt lat="43.40425570495426654815673828125" lon="-4.694383442401885986328125">
        <ele>31.799999237060546875</ele>
        <time>2018-09-06T11:20:37.000Z</time>
      </trkpt>
      <trkpt lat="43.40424120426177978515625" lon="-4.6945234201848506927490234375">
        <ele>31</ele>
        <time>2018-09-06T11:20:39.000Z</time>
      </trkpt>
      <trkpt lat="43.40421639382839202880859375" lon="-4.69459600746631622314453125">
        <ele>30.799999237060546875</ele>
        <time>2018-09-06T11:20:40.000Z</time>
      </trkpt>
      <trkpt lat="43.4041857160627841949462890625" lon="-4.69466297887265682220458984375">
        <ele>30.3999996185302734375</ele>
        <time>2018-09-06T11:20:41.000Z</time>
      </trkpt>
      <trkpt lat="43.40412913821637630462646484375" lon="-4.69476423226296901702880859375">
        <ele>30.200000762939453125</ele>
        <time>2018-09-06T11:20:43.000Z</time>
      </trkpt>
      <trkpt lat="43.404078595340251922607421875" lon="-4.69485006295144557952880859375">
        <ele>30.200000762939453125</ele>
        <time>2018-09-06T11:20:45.000Z</time>
      </trkpt>
      <trkpt lat="43.404050767421722412109375" lon="-4.69494595192372798919677734375">
        <ele>29.3999996185302734375</ele>
        <time>2018-09-06T11:20:47.000Z</time>
      </trkpt>
      <trkpt lat="43.40408035553991794586181640625" lon="-4.69504150561988353729248046875">
        <ele>29</ele>
        <time>2018-09-06T11:20:49.000Z</time>
      </trkpt>
      <trkpt lat="43.40416534803807735443115234375" lon="-4.695105962455272674560546875">
        <ele>28.799999237060546875</ele>
        <time>2018-09-06T11:20:51.000Z</time>
      </trkpt>
      <trkpt lat="43.40420055203139781951904296875" lon="-4.69516103155910968780517578125">
        <ele>28.3999996185302734375</ele>
        <time>2018-09-06T11:20:52.000Z</time>
      </trkpt>
      <trkpt lat="43.40422804467380046844482421875" lon="-4.695226661860942840576171875">
        <ele>27.799999237060546875</ele>
        <time>2018-09-06T11:20:53.000Z</time>
      </trkpt>
      <trkpt lat="43.4042505919933319091796875" lon="-4.69529413618147373199462890625">
        <ele>27.3999996185302734375</ele>
        <time>2018-09-06T11:20:54.000Z</time>
      </trkpt>
      <trkpt lat="43.40425738133490085601806640625" lon="-4.695376195013523101806640625">
        <ele>27.3999996185302734375</ele>
        <time>2018-09-06T11:20:55.000Z</time>
      </trkpt>
      <trkpt lat="43.40425503440201282501220703125" lon="-4.69552514143288135528564453125">
        <ele>27.3999996185302734375</ele>
        <time>2018-09-06T11:20:57.000Z</time>
      </trkpt>
      <trkpt lat="43.4042618237435817718505859375" lon="-4.69566478393971920013427734375">
        <ele>27.200000762939453125</ele>
        <time>2018-09-06T11:20:59.000Z</time>
      </trkpt>
      <trkpt lat="43.404306583106517791748046875" lon="-4.69592076726257801055908203125">
        <ele>27</ele>
        <time>2018-09-06T11:21:03.000Z</time>
      </trkpt>
      <trkpt lat="43.40442837215960025787353515625" lon="-4.6960853040218353271484375">
        <ele>26.3999996185302734375</ele>
        <time>2018-09-06T11:21:06.000Z</time>
      </trkpt>
      <trkpt lat="43.40448067523539066314697265625" lon="-4.6961401216685771942138671875">
        <ele>25.799999237060546875</ele>
        <time>2018-09-06T11:21:07.000Z</time>
      </trkpt>
      <trkpt lat="43.40453666634857654571533203125" lon="-4.696194268763065338134765625">
        <ele>25.3999996185302734375</ele>
        <time>2018-09-06T11:21:08.000Z</time>
      </trkpt>
      <trkpt lat="43.40458896942436695098876953125" lon="-4.69625604338943958282470703125">
        <ele>24.200000762939453125</ele>
        <time>2018-09-06T11:21:09.000Z</time>
      </trkpt>
      <trkpt lat="43.4046691842377185821533203125" lon="-4.696402139961719512939453125">
        <ele>23.799999237060546875</ele>
        <time>2018-09-06T11:21:11.000Z</time>
      </trkpt>
      <trkpt lat="43.40468536131083965301513671875" lon="-4.69660699367523193359375">
        <ele>24.6000003814697265625</ele>
        <time>2018-09-06T11:21:14.000Z</time>
      </trkpt>
      <trkpt lat="43.40468703769147396087646484375" lon="-4.69667203724384307861328125">
        <ele>24.6000003814697265625</ele>
        <time>2018-09-06T11:21:15.000Z</time>
      </trkpt>
      <trkpt lat="43.40468837879598140716552734375" lon="-4.69679818488657474517822265625">
        <ele>24.6000003814697265625</ele>
        <time>2018-09-06T11:21:17.000Z</time>
      </trkpt>
      <trkpt lat="43.404695503413677215576171875" lon="-4.69696439802646636962890625">
        <ele>25</ele>
        <time>2018-09-06T11:21:20.000Z</time>
      </trkpt>
      <trkpt lat="43.40470011346042156219482421875" lon="-4.69701242633163928985595703125">
        <ele>25.200000762939453125</ele>
        <time>2018-09-06T11:21:21.000Z</time>
      </trkpt>
      <trkpt lat="43.4047146141529083251953125" lon="-4.6970463730394840240478515625">
        <ele>25.6000003814697265625</ele>
        <time>2018-09-06T11:21:22.000Z</time>
      </trkpt>
      <trkpt lat="43.40475208126008510589599609375" lon="-4.6970859356224536895751953125">
        <ele>26.3999996185302734375</ele>
        <time>2018-09-06T11:21:24.000Z</time>
      </trkpt>
      <trkpt lat="43.40477739460766315460205078125" lon="-4.697080068290233612060546875">
        <ele>26.6000003814697265625</ele>
        <time>2018-09-06T11:21:25.000Z</time>
      </trkpt>
      <trkpt lat="43.4048542566597461700439453125" lon="-4.69707612879574298858642578125">
        <ele>27</ele>
        <time>2018-09-06T11:21:28.000Z</time>
      </trkpt>
      <trkpt lat="43.4049471281468868255615234375" lon="-4.6971375681459903717041015625">
        <ele>27.200000762939453125</ele>
        <time>2018-09-06T11:21:32.000Z</time>
      </trkpt>
      <trkpt lat="43.4049565158784389495849609375" lon="-4.69717570580542087554931640625">
        <ele>27</ele>
        <time>2018-09-06T11:21:33.000Z</time>
      </trkpt>
      <trkpt lat="43.40495492331683635711669921875" lon="-4.69730059616267681121826171875">
        <ele>27.3999996185302734375</ele>
        <time>2018-09-06T11:21:36.000Z</time>
      </trkpt>
      <trkpt lat="43.404924832284450531005859375" lon="-4.6975395642220973968505859375">
        <ele>27</ele>
        <time>2018-09-06T11:22:30.000Z</time>
      </trkpt>
      <trkpt lat="43.40491779148578643798828125" lon="-4.69758390448987483978271484375">
        <ele>26.799999237060546875</ele>
        <time>2018-09-06T11:22:31.000Z</time>
      </trkpt>
      <trkpt lat="43.404914103448390960693359375" lon="-4.69763671047985553741455078125">
        <ele>26.6000003814697265625</ele>
        <time>2018-09-06T11:22:32.000Z</time>
      </trkpt>
      <trkpt lat="43.40488300658762454986572265625" lon="-4.697828404605388641357421875">
        <ele>25.3999996185302734375</ele>
        <time>2018-09-06T11:22:36.000Z</time>
      </trkpt>
      <trkpt lat="43.40485283173620700836181640625" lon="-4.697853215038776397705078125">
        <ele>25.200000762939453125</ele>
        <time>2018-09-06T11:22:37.000Z</time>
      </trkpt>
      <trkpt lat="43.40481360442936420440673828125" lon="-4.697870314121246337890625">
        <ele>24.799999237060546875</ele>
        <time>2018-09-06T11:22:38.000Z</time>
      </trkpt>
      <trkpt lat="43.40472810901701450347900390625" lon="-4.6978976391255855560302734375">
        <ele>24.3999996185302734375</ele>
        <time>2018-09-06T11:22:40.000Z</time>
      </trkpt>
      <trkpt lat="43.404655270278453826904296875" lon="-4.6979180909693241119384765625">
        <ele>24.200000762939453125</ele>
        <time>2018-09-06T11:22:42.000Z</time>
      </trkpt>
      <trkpt lat="43.40450012125074863433837890625" lon="-4.69796352088451385498046875">
        <ele>24.3999996185302734375</ele>
        <time>2018-09-06T11:22:47.000Z</time>
      </trkpt>
      <trkpt lat="43.4043955989181995391845703125" lon="-4.6980709768831729888916015625">
        <ele>23.6000003814697265625</ele>
        <time>2018-09-06T11:22:50.000Z</time>
      </trkpt>
      <trkpt lat="43.404364921152591705322265625" lon="-4.69811347313225269317626953125">
        <ele>23.3999996185302734375</ele>
        <time>2018-09-06T11:22:51.000Z</time>
      </trkpt>
      <trkpt lat="43.40433835051953792572021484375" lon="-4.69815261662006378173828125">
        <ele>23.3999996185302734375</ele>
        <time>2018-09-06T11:22:52.000Z</time>
      </trkpt>
      <trkpt lat="43.404247574508190155029296875" lon="-4.6982845477759838104248046875">
        <ele>23.6000003814697265625</ele>
        <time>2018-09-06T11:22:56.000Z</time>
      </trkpt>
      <trkpt lat="43.40410751290619373321533203125" lon="-4.69853022135794162750244140625">
        <ele>22.799999237060546875</ele>
        <time>2018-09-06T11:23:02.000Z</time>
      </trkpt>
      <trkpt lat="43.40404749847948551177978515625" lon="-4.69862359575927257537841796875">
        <ele>22.3999996185302734375</ele>
        <time>2018-09-06T11:23:04.000Z</time>
      </trkpt>
      <trkpt lat="43.40397340245544910430908203125" lon="-4.6987219154834747314453125">
        <ele>21.200000762939453125</ele>
        <time>2018-09-06T11:23:06.000Z</time>
      </trkpt>
      <trkpt lat="43.4038983844220638275146484375" lon="-4.69882878474891185760498046875">
        <ele>20.200000762939453125</ele>
        <time>2018-09-06T11:23:08.000Z</time>
      </trkpt>
      <trkpt lat="43.40383979491889476776123046875" lon="-4.69903430901467800140380859375">
        <ele>19.799999237060546875</ele>
        <time>2018-09-06T11:23:11.000Z</time>
      </trkpt>
      <trkpt lat="43.403843902051448822021484375" lon="-4.69932164065539836883544921875">
        <ele>19.3999996185302734375</ele>
        <time>2018-09-06T11:23:15.000Z</time>
      </trkpt>
      <trkpt lat="43.40384230948984622955322265625" lon="-4.69944267533719539642333984375">
        <ele>19.6000003814697265625</ele>
        <time>2018-09-06T11:23:17.000Z</time>
      </trkpt>
      <trkpt lat="43.40380526147782802581787109375" lon="-4.699561111629009246826171875">
        <ele>20.3999996185302734375</ele>
        <time>2018-09-06T11:23:20.000Z</time>
      </trkpt>
      <trkpt lat="43.40378967113792896270751953125" lon="-4.69959153793752193450927734375">
        <ele>20.6000003814697265625</ele>
        <time>2018-09-06T11:23:21.000Z</time>
      </trkpt>
      <trkpt lat="43.40375362895429134368896484375" lon="-4.6996336989104747772216796875">
        <ele>21</ele>
        <time>2018-09-06T11:23:23.000Z</time>
      </trkpt>
      <trkpt lat="43.403712809085845947265625" lon="-4.69966211356222629547119140625">
        <ele>21.200000762939453125</ele>
        <time>2018-09-06T11:23:25.000Z</time>
      </trkpt>
      <trkpt lat="43.40369378216564655303955078125" lon="-4.69967284239828586578369140625">
        <ele>21.6000003814697265625</ele>
        <time>2018-09-06T11:23:26.000Z</time>
      </trkpt>
      <trkpt lat="43.40354382991790771484375" lon="-4.69972983933985233306884765625">
        <ele>21</ele>
        <time>2018-09-06T11:23:31.000Z</time>
      </trkpt>
      <trkpt lat="43.40344551019370555877685546875" lon="-4.6997614391148090362548828125">
        <ele>19.3999996185302734375</ele>
        <time>2018-09-06T11:23:33.000Z</time>
      </trkpt>
      <trkpt lat="43.4033921174705028533935546875" lon="-4.699780382215976715087890625">
        <ele>18.200000762939453125</ele>
        <time>2018-09-06T11:23:34.000Z</time>
      </trkpt>
      <trkpt lat="43.4032794646918773651123046875" lon="-4.699838720262050628662109375">
        <ele>17.799999237060546875</ele>
        <time>2018-09-06T11:23:36.000Z</time>
      </trkpt>
      <trkpt lat="43.40316488407552242279052734375" lon="-4.6998952142894268035888671875">
        <ele>15.6000003814697265625</ele>
        <time>2018-09-06T11:23:38.000Z</time>
      </trkpt>
      <trkpt lat="43.4031061269342899322509765625" lon="-4.69990619458258152008056640625">
        <ele>13.3999996185302734375</ele>
        <time>2018-09-06T11:23:39.000Z</time>
      </trkpt>
      <trkpt lat="43.4030464477837085723876953125" lon="-4.6998992376029491424560546875">
        <ele>11.3999996185302734375</ele>
        <time>2018-09-06T11:23:40.000Z</time>
      </trkpt>
      <trkpt lat="43.4029847569763660430908203125" lon="-4.699880294501781463623046875">
        <ele>10.3999996185302734375</ele>
        <time>2018-09-06T11:23:41.000Z</time>
      </trkpt>
      <trkpt lat="43.40292482636868953704833984375" lon="-4.69985959120094776153564453125">
        <ele>9.3999996185302734375</ele>
        <time>2018-09-06T11:23:42.000Z</time>
      </trkpt>
      <trkpt lat="43.4028731100261211395263671875" lon="-4.699842073023319244384765625">
        <ele>8.6000003814697265625</ele>
        <time>2018-09-06T11:23:43.000Z</time>
      </trkpt>
      <trkpt lat="43.402830697596073150634765625" lon="-4.69983142800629138946533203125">
        <ele>7.80000019073486328125</ele>
        <time>2018-09-06T11:23:44.000Z</time>
      </trkpt>
      <trkpt lat="43.40279239229857921600341796875" lon="-4.69982874579727649688720703125">
        <ele>6.80000019073486328125</ele>
        <time>2018-09-06T11:23:45.000Z</time>
      </trkpt>
      <trkpt lat="43.40274813584983348846435546875" lon="-4.699842743575572967529296875">
        <ele>5.599999904632568359375</ele>
        <time>2018-09-06T11:23:47.000Z</time>
      </trkpt>
      <trkpt lat="43.4027445316314697265625" lon="-4.69986260868608951568603515625">
        <ele>5.19999980926513671875</ele>
        <time>2018-09-06T11:23:48.000Z</time>
      </trkpt>
      <trkpt lat="43.40275861322879791259765625" lon="-4.69991482794284820556640625">
        <ele>4.400000095367431640625</ele>
        <time>2018-09-06T11:23:50.000Z</time>
      </trkpt>
      <trkpt lat="43.40278468094766139984130859375" lon="-4.6999743394553661346435546875">
        <ele>3.2000000476837158203125</ele>
        <time>2018-09-06T11:23:52.000Z</time>
      </trkpt>
      <trkpt lat="43.40279876254498958587646484375" lon="-4.7000061906874179840087890625">
        <ele>2.400000095367431640625</ele>
        <time>2018-09-06T11:23:53.000Z</time>
      </trkpt>
      <trkpt lat="43.40281351469457149505615234375" lon="-4.700039215385913848876953125">
        <ele>1.60000002384185791015625</ele>
        <time>2018-09-06T11:23:54.000Z</time>
      </trkpt>
      <trkpt lat="43.4028472937643527984619140625" lon="-4.70010819844901561737060546875">
        <ele>-0.4000000059604644775390625</ele>
        <time>2018-09-06T11:23:56.000Z</time>
      </trkpt>
      <trkpt lat="43.4028719365596771240234375" lon="-4.700176678597927093505859375">
        <ele>-3</ele>
        <time>2018-09-06T11:23:58.000Z</time>
      </trkpt>
      <trkpt lat="43.402864895761013031005859375" lon="-4.70021498389542102813720703125">
        <ele>-3.7999999523162841796875</ele>
        <time>2018-09-06T11:23:59.000Z</time>
      </trkpt>
      <trkpt lat="43.4028513170778751373291015625" lon="-4.7002496011555194854736328125">
        <ele>-4.19999980926513671875</ele>
        <time>2018-09-06T11:24:00.000Z</time>
      </trkpt>
      <trkpt lat="43.40281737037003040313720703125" lon="-4.70033057034015655517578125">
        <ele>-3.7999999523162841796875</ele>
        <time>2018-09-06T11:24:03.000Z</time>
      </trkpt>
      <trkpt lat="43.4028097428381443023681640625" lon="-4.70035932026803493499755859375">
        <ele>-3.599999904632568359375</ele>
        <time>2018-09-06T11:24:04.000Z</time>
      </trkpt>
      <trkpt lat="43.4027815796434879302978515625" lon="-4.70042553730309009552001953125">
        <ele>-3.599999904632568359375</ele>
        <time>2018-09-06T11:24:06.000Z</time>
      </trkpt>
      <trkpt lat="43.4027346409857273101806640625" lon="-4.70054875127971172332763671875">
        <ele>-4</ele>
        <time>2018-09-06T11:24:09.000Z</time>
      </trkpt>
      <trkpt lat="43.4026987664401531219482421875" lon="-4.7005882300436496734619140625">
        <ele>-4.400000095367431640625</ele>
        <time>2018-09-06T11:24:10.000Z</time>
      </trkpt>
      <trkpt lat="43.402610085904598236083984375" lon="-4.7006469033658504486083984375">
        <ele>-5.19999980926513671875</ele>
        <time>2018-09-06T11:24:12.000Z</time>
      </trkpt>
      <trkpt lat="43.4025214053690433502197265625" lon="-4.70067364163696765899658203125">
        <ele>-5.80000019073486328125</ele>
        <time>2018-09-06T11:24:14.000Z</time>
      </trkpt>
      <trkpt lat="43.402475975453853607177734375" lon="-4.70067598856985569000244140625">
        <ele>-6</ele>
        <time>2018-09-06T11:24:15.000Z</time>
      </trkpt>
      <trkpt lat="43.402425348758697509765625" lon="-4.70067129470407962799072265625">
        <ele>-5.80000019073486328125</ele>
        <time>2018-09-06T11:24:16.000Z</time>
      </trkpt>
      <trkpt lat="43.40237212367355823516845703125" lon="-4.70067313872277736663818359375">
        <ele>-6</ele>
        <time>2018-09-06T11:24:17.000Z</time>
      </trkpt>
      <trkpt lat="43.40224220417439937591552734375" lon="-4.7007380984723567962646484375">
        <ele>-6.19999980926513671875</ele>
        <time>2018-09-06T11:24:20.000Z</time>
      </trkpt>
      <trkpt lat="43.40216425247490406036376953125" lon="-4.7007991187274456024169921875">
        <ele>-5.599999904632568359375</ele>
        <time>2018-09-06T11:24:22.000Z</time>
      </trkpt>
      <trkpt lat="43.40213424526154994964599609375" lon="-4.70082384534180164337158203125">
        <ele>-5.19999980926513671875</ele>
        <time>2018-09-06T11:24:23.000Z</time>
      </trkpt>
      <trkpt lat="43.402084372937679290771484375" lon="-4.70085837878286838531494140625">
        <ele>-4.599999904632568359375</ele>
        <time>2018-09-06T11:24:25.000Z</time>
      </trkpt>
      <trkpt lat="43.402032740414142608642578125" lon="-4.70087497495114803314208984375">
        <ele>-4.19999980926513671875</ele>
        <time>2018-09-06T11:24:27.000Z</time>
      </trkpt>
      <trkpt lat="43.4020029008388519287109375" lon="-4.70088033936917781829833984375">
        <ele>-4.19999980926513671875</ele>
        <time>2018-09-06T11:24:28.000Z</time>
      </trkpt>
      <trkpt lat="43.40191380120813846588134765625" lon="-4.70091856084764003753662109375">
        <ele>-3.400000095367431640625</ele>
        <time>2018-09-06T11:24:31.000Z</time>
      </trkpt>
      <trkpt lat="43.40182746760547161102294921875" lon="-4.70094253309071063995361328125">
        <ele>-2.7999999523162841796875</ele>
        <time>2018-09-06T11:24:34.000Z</time>
      </trkpt>
      <trkpt lat="43.40176242403686046600341796875" lon="-4.70097723416984081268310546875">
        <ele>-2.2000000476837158203125</ele>
        <time>2018-09-06T11:24:37.000Z</time>
      </trkpt>
      <trkpt lat="43.40173258446156978607177734375" lon="-4.70100875012576580047607421875">
        <ele>-1.60000002384185791015625</ele>
        <time>2018-09-06T11:24:39.000Z</time>
      </trkpt>
      <trkpt lat="43.40171196497976779937744140625" lon="-4.701040349900722503662109375">
        <ele>-1</ele>
        <time>2018-09-06T11:24:41.000Z</time>
      </trkpt>
      <trkpt lat="43.4016972966492176055908203125" lon="-4.70108200795948505401611328125">
        <ele>-0.60000002384185791015625</ele>
        <time>2018-09-06T11:24:43.000Z</time>
      </trkpt>
      <trkpt lat="43.40168899856507778167724609375" lon="-4.7010988555848598480224609375">
        <ele>-0.20000000298023223876953125</ele>
        <time>2018-09-06T11:24:44.000Z</time>
      </trkpt>
      <trkpt lat="43.4016748331487178802490234375" lon="-4.701153673231601715087890625">
        <ele>0.60000002384185791015625</ele>
        <time>2018-09-06T11:24:47.000Z</time>
      </trkpt>
      <trkpt lat="43.40166938491165637969970703125" lon="-4.70119155943393707275390625">
        <ele>1.39999997615814208984375</ele>
        <time>2018-09-06T11:24:49.000Z</time>
      </trkpt>
      <trkpt lat="43.401666618883609771728515625" lon="-4.70121343620121479034423828125">
        <ele>1.60000002384185791015625</ele>
        <time>2018-09-06T11:24:50.000Z</time>
      </trkpt>
      <trkpt lat="43.40166452340781688690185546875" lon="-4.70125727355480194091796875">
        <ele>2.2000000476837158203125</ele>
        <time>2018-09-06T11:24:52.000Z</time>
      </trkpt>
      <trkpt lat="43.4016553871333599090576171875" lon="-4.7012966684997081756591796875">
        <ele>2.7999999523162841796875</ele>
        <time>2018-09-06T11:24:54.000Z</time>
      </trkpt>
      <trkpt lat="43.4016408026218414306640625" lon="-4.70133229158818721771240234375">
        <ele>3.400000095367431640625</ele>
        <time>2018-09-06T11:24:56.000Z</time>
      </trkpt>
      <trkpt lat="43.4016221947968006134033203125" lon="-4.70136816613376140594482421875">
        <ele>4</ele>
        <time>2018-09-06T11:24:58.000Z</time>
      </trkpt>
      <trkpt lat="43.4015970490872859954833984375" lon="-4.701395072042942047119140625">
        <ele>4.400000095367431640625</ele>
        <time>2018-09-06T11:25:00.000Z</time>
      </trkpt>
      <trkpt lat="43.4015722386538982391357421875" lon="-4.701417870819568634033203125">
        <ele>5</ele>
        <time>2018-09-06T11:25:02.000Z</time>
      </trkpt>
      <trkpt lat="43.401560671627521514892578125" lon="-4.7014254145324230194091796875">
        <ele>5.19999980926513671875</ele>
        <time>2018-09-06T11:25:03.000Z</time>
      </trkpt>
      <trkpt lat="43.40154089033603668212890625" lon="-4.70144712366163730621337890625">
        <ele>5.80000019073486328125</ele>
        <time>2018-09-06T11:25:05.000Z</time>
      </trkpt>
      <trkpt lat="43.401531167328357696533203125" lon="-4.7014592774212360382080078125">
        <ele>6.19999980926513671875</ele>
        <time>2018-09-06T11:25:06.000Z</time>
      </trkpt>
      <trkpt lat="43.401503004133701324462890625" lon="-4.7015270031988620758056640625">
        <ele>7.19999980926513671875</ele>
        <time>2018-09-06T11:25:10.000Z</time>
      </trkpt>
      <trkpt lat="43.401485569775104522705078125" lon="-4.70155742950737476348876953125">
        <ele>7.80000019073486328125</ele>
        <time>2018-09-06T11:25:12.000Z</time>
      </trkpt>
      <trkpt lat="43.40146939270198345184326171875" lon="-4.701609648764133453369140625">
        <ele>8.3999996185302734375</ele>
        <time>2018-09-06T11:25:15.000Z</time>
      </trkpt>
      <trkpt lat="43.4014512039721012115478515625" lon="-4.7016805596649646759033203125">
        <ele>9</ele>
        <time>2018-09-06T11:25:19.000Z</time>
      </trkpt>
      <trkpt lat="43.40144542045891284942626953125" lon="-4.70171752385795116424560546875">
        <ele>9.6000003814697265625</ele>
        <time>2018-09-06T11:25:21.000Z</time>
      </trkpt>
      <trkpt lat="43.4014262259006500244140625" lon="-4.70180083997547626495361328125">
        <ele>10.6000003814697265625</ele>
        <time>2018-09-06T11:25:26.000Z</time>
      </trkpt>
      <trkpt lat="43.4014263935387134552001953125" lon="-4.7018193639814853668212890625">
        <ele>10.80000019073486328125</ele>
        <time>2018-09-06T11:25:27.000Z</time>
      </trkpt>
      <trkpt lat="43.40142061002552509307861328125" lon="-4.7019286639988422393798828125">
        <ele>11.80000019073486328125</ele>
        <time>2018-09-06T11:25:33.000Z</time>
      </trkpt>
      <trkpt lat="43.40142128057777881622314453125" lon="-4.7019678913056850433349609375">
        <ele>12</ele>
        <time>2018-09-06T11:25:35.000Z</time>
      </trkpt>
      <trkpt lat="43.40142823755741119384765625" lon="-4.70204986631870269775390625">
        <ele>12.80000019073486328125</ele>
        <time>2018-09-06T11:25:39.000Z</time>
      </trkpt>
      <trkpt lat="43.40144206769764423370361328125" lon="-4.70211365260183811187744140625">
        <ele>13.19999980926513671875</ele>
        <time>2018-09-06T11:25:42.000Z</time>
      </trkpt>
      <trkpt lat="43.40144977904856204986572265625" lon="-4.70216897316277027130126953125">
        <ele>13.80000019073486328125</ele>
        <time>2018-09-06T11:25:45.000Z</time>
      </trkpt>
      <trkpt lat="43.40144030749797821044921875" lon="-4.70221616327762603759765625">
        <ele>14.3999996185302734375</ele>
        <time>2018-09-06T11:25:48.000Z</time>
      </trkpt>
      <trkpt lat="43.40142781846225261688232421875" lon="-4.7022602520883083343505859375">
        <ele>15</ele>
        <time>2018-09-06T11:25:51.000Z</time>
      </trkpt>
      <trkpt lat="43.40141692198812961578369140625" lon="-4.70234734006226062774658203125">
        <ele>16</ele>
        <time>2018-09-06T11:25:57.000Z</time>
      </trkpt>
      <trkpt lat="43.4013724140822887420654296875" lon="-4.70250022597610950469970703125">
        <ele>17.200000762939453125</ele>
        <time>2018-09-06T11:26:05.000Z</time>
      </trkpt>
      <trkpt lat="43.40129320509731769561767578125" lon="-4.70259209163486957550048828125">
        <ele>17.799999237060546875</ele>
        <time>2018-09-06T11:26:11.000Z</time>
      </trkpt>
      <trkpt lat="43.40128130279481410980224609375" lon="-4.702608101069927215576171875">
        <ele>17.799999237060546875</ele>
        <time>2018-09-06T11:26:12.000Z</time>
      </trkpt>
      <trkpt lat="43.40123972855508327484130859375" lon="-4.70266501419246196746826171875">
        <ele>18.200000762939453125</ele>
        <time>2018-09-06T11:26:15.000Z</time>
      </trkpt>
      <trkpt lat="43.4012238867580890655517578125" lon="-4.7026840411126613616943359375">
        <ele>18.200000762939453125</ele>
        <time>2018-09-06T11:26:16.000Z</time>
      </trkpt>
      <trkpt lat="43.40118843130767345428466796875" lon="-4.70271178521215915679931640625">
        <ele>18.3999996185302734375</ele>
        <time>2018-09-06T11:26:18.000Z</time>
      </trkpt>
      <trkpt lat="43.401101343333721160888671875" lon="-4.7028067521750926971435546875">
        <ele>18.200000762939453125</ele>
        <time>2018-09-06T11:26:24.000Z</time>
      </trkpt>
      <trkpt lat="43.4010813944041728973388671875" lon="-4.70283064059913158416748046875">
        <ele>18.200000762939453125</ele>
        <time>2018-09-06T11:26:25.000Z</time>
      </trkpt>
      <trkpt lat="43.40106119401752948760986328125" lon="-4.7028610669076442718505859375">
        <ele>18.200000762939453125</ele>
        <time>2018-09-06T11:26:26.000Z</time>
      </trkpt>
      <trkpt lat="43.40099581517279148101806640625" lon="-4.70297933556139469146728515625">
        <ele>17.6000003814697265625</ele>
        <time>2018-09-06T11:26:29.000Z</time>
      </trkpt>
      <trkpt lat="43.40094183571636676788330078125" lon="-4.70311579294502735137939453125">
        <ele>17.200000762939453125</ele>
        <time>2018-09-06T11:26:32.000Z</time>
      </trkpt>
      <trkpt lat="43.40092272497713565826416015625" lon="-4.7031993605196475982666015625">
        <ele>17.200000762939453125</ele>
        <time>2018-09-06T11:26:34.000Z</time>
      </trkpt>
      <trkpt lat="43.40090923011302947998046875" lon="-4.70327152870595455169677734375">
        <ele>17.3999996185302734375</ele>
        <time>2018-09-06T11:26:36.000Z</time>
      </trkpt>
      <trkpt lat="43.40089204721152782440185546875" lon="-4.70335266552865505218505859375">
        <ele>17.200000762939453125</ele>
        <time>2018-09-06T11:26:38.000Z</time>
      </trkpt>
      <trkpt lat="43.40087159536778926849365234375" lon="-4.70345123670995235443115234375">
        <ele>17</ele>
        <time>2018-09-06T11:26:40.000Z</time>
      </trkpt>
      <trkpt lat="43.40084351599216461181640625" lon="-4.7035597823560237884521484375">
        <ele>16.3999996185302734375</ele>
        <time>2018-09-06T11:26:42.000Z</time>
      </trkpt>
      <trkpt lat="43.4008151851594448089599609375" lon="-4.70368308015167713165283203125">
        <ele>16</ele>
        <time>2018-09-06T11:26:44.000Z</time>
      </trkpt>
      <trkpt lat="43.40076346881687641143798828125" lon="-4.703923054039478302001953125">
        <ele>15.6000003814697265625</ele>
        <time>2018-09-06T11:26:48.000Z</time>
      </trkpt>
      <trkpt lat="43.40074854902923107147216796875" lon="-4.70409563742578029632568359375">
        <ele>15.3999996185302734375</ele>
        <time>2018-09-06T11:26:51.000Z</time>
      </trkpt>
      <trkpt lat="43.40075257234275341033935546875" lon="-4.70424064435064792633056640625">
        <ele>15.6000003814697265625</ele>
        <time>2018-09-06T11:26:54.000Z</time>
      </trkpt>
      <trkpt lat="43.4007625468075275421142578125" lon="-4.704452790319919586181640625">
        <ele>16.6000003814697265625</ele>
        <time>2018-09-06T11:26:59.000Z</time>
      </trkpt>
      <trkpt lat="43.4007571823894977569580078125" lon="-4.70453233458101749420166015625">
        <ele>17.200000762939453125</ele>
        <time>2018-09-06T11:27:01.000Z</time>
      </trkpt>
      <trkpt lat="43.40075374580919742584228515625" lon="-4.7045713104307651519775390625">
        <ele>17.200000762939453125</ele>
        <time>2018-09-06T11:27:02.000Z</time>
      </trkpt>
      <trkpt lat="43.40076397173106670379638671875" lon="-4.70464800484478473663330078125">
        <ele>17.6000003814697265625</ele>
        <time>2018-09-06T11:27:04.000Z</time>
      </trkpt>
      <trkpt lat="43.40080060064792633056640625" lon="-4.70470299012959003448486328125">
        <ele>18</ele>
        <time>2018-09-06T11:27:06.000Z</time>
      </trkpt>
      <trkpt lat="43.40089003555476665496826171875" lon="-4.70476836897432804107666015625">
        <ele>17.6000003814697265625</ele>
        <time>2018-09-06T11:27:09.000Z</time>
      </trkpt>
      <trkpt lat="43.400949127972126007080078125" lon="-4.7048261202871799468994140625">
        <ele>17.3999996185302734375</ele>
        <time>2018-09-06T11:27:11.000Z</time>
      </trkpt>
      <trkpt lat="43.401107378304004669189453125" lon="-4.705016054213047027587890625">
        <ele>17.3999996185302734375</ele>
        <time>2018-09-06T11:27:17.000Z</time>
      </trkpt>
      <trkpt lat="43.40115289203822612762451171875" lon="-4.70506525598466396331787109375">
        <ele>18.200000762939453125</ele>
        <time>2018-09-06T11:27:19.000Z</time>
      </trkpt>
      <trkpt lat="43.40122598223388195037841796875" lon="-4.7051365859806537628173828125">
        <ele>18.6000003814697265625</ele>
        <time>2018-09-06T11:27:23.000Z</time>
      </trkpt>
      <trkpt lat="43.40127845294773578643798828125" lon="-4.70520758070051670074462890625">
        <ele>19</ele>
        <time>2018-09-06T11:27:29.000Z</time>
      </trkpt>
      <trkpt lat="43.40130896307528018951416015625" lon="-4.70526181161403656005859375">
        <ele>19.200000762939453125</ele>
        <time>2018-09-06T11:27:47.000Z</time>
      </trkpt>
      <trkpt lat="43.4013216197490692138671875" lon="-4.7052857838571071624755859375">
        <ele>19.200000762939453125</ele>
        <time>2018-09-06T11:27:48.000Z</time>
      </trkpt>
      <trkpt lat="43.4013365395367145538330078125" lon="-4.7053142823278903961181640625">
        <ele>19.200000762939453125</ele>
        <time>2018-09-06T11:27:49.000Z</time>
      </trkpt>
      <trkpt lat="43.40142262168228626251220703125" lon="-4.7054933197796344757080078125">
        <ele>19.200000762939453125</ele>
        <time>2018-09-06T11:27:55.000Z</time>
      </trkpt>
      <trkpt lat="43.40149001218378543853759765625" lon="-4.70561577938497066497802734375">
        <ele>20.3999996185302734375</ele>
        <time>2018-09-06T11:27:59.000Z</time>
      </trkpt>
      <trkpt lat="43.40152370743453502655029296875" lon="-4.7056674957275390625">
        <ele>20.799999237060546875</ele>
        <time>2018-09-06T11:28:01.000Z</time>
      </trkpt>
      <trkpt lat="43.401568718254566192626953125" lon="-4.70576128922402858734130859375">
        <ele>21.799999237060546875</ele>
        <time>2018-09-06T11:28:05.000Z</time>
      </trkpt>
      <trkpt lat="43.40159998275339603424072265625" lon="-4.70581493340432643890380859375">
        <ele>22</ele>
        <time>2018-09-06T11:28:07.000Z</time>
      </trkpt>
      <trkpt lat="43.40162596665322780609130859375" lon="-4.70588752068579196929931640625">
        <ele>20.6000003814697265625</ele>
        <time>2018-09-06T11:28:09.000Z</time>
      </trkpt>
      <trkpt lat="43.4016882441937923431396484375" lon="-4.706029258668422698974609375">
        <ele>20.200000762939453125</ele>
        <time>2018-09-06T11:28:12.000Z</time>
      </trkpt>
      <trkpt lat="43.40171179734170436859130859375" lon="-4.7060783766210079193115234375">
        <ele>20.200000762939453125</ele>
        <time>2018-09-06T11:28:13.000Z</time>
      </trkpt>
      <trkpt lat="43.40181221254169940948486328125" lon="-4.7062295861542224884033203125">
        <ele>19.6000003814697265625</ele>
        <time>2018-09-06T11:28:16.000Z</time>
      </trkpt>
      <trkpt lat="43.4018515236675739288330078125" lon="-4.706290103495121002197265625">
        <ele>19</ele>
        <time>2018-09-06T11:28:17.000Z</time>
      </trkpt>
      <trkpt lat="43.4018907509744167327880859375" lon="-4.706359170377254486083984375">
        <ele>18.3999996185302734375</ele>
        <time>2018-09-06T11:28:18.000Z</time>
      </trkpt>
      <trkpt lat="43.40196643956005573272705078125" lon="-4.7065128944814205169677734375">
        <ele>17.200000762939453125</ele>
        <time>2018-09-06T11:28:20.000Z</time>
      </trkpt>
      <trkpt lat="43.40201203711330890655517578125" lon="-4.70658950507640838623046875">
        <ele>16.6000003814697265625</ele>
        <time>2018-09-06T11:28:21.000Z</time>
      </trkpt>
      <trkpt lat="43.40206660330295562744140625" lon="-4.70666167326271533966064453125">
        <ele>16.200000762939453125</ele>
        <time>2018-09-06T11:28:22.000Z</time>
      </trkpt>
      <trkpt lat="43.402125276625156402587890625" lon="-4.70672923140227794647216796875">
        <ele>15.19999980926513671875</ele>
        <time>2018-09-06T11:28:23.000Z</time>
      </trkpt>
      <trkpt lat="43.40224002487957477569580078125" lon="-4.70686133019626140594482421875">
        <ele>14.19999980926513671875</ele>
        <time>2018-09-06T11:28:25.000Z</time>
      </trkpt>
      <trkpt lat="43.40229199267923831939697265625" lon="-4.7069249488413333892822265625">
        <ele>13.80000019073486328125</ele>
        <time>2018-09-06T11:28:26.000Z</time>
      </trkpt>
      <trkpt lat="43.402397520840167999267578125" lon="-4.70704942010343074798583984375">
        <ele>12.80000019073486328125</ele>
        <time>2018-09-06T11:28:28.000Z</time>
      </trkpt>
      <trkpt lat="43.4024401009082794189453125" lon="-4.70712318085134029388427734375">
        <ele>12.19999980926513671875</ele>
        <time>2018-09-06T11:28:29.000Z</time>
      </trkpt>
      <trkpt lat="43.402478992938995361328125" lon="-4.707204736769199371337890625">
        <ele>11.6000003814697265625</ele>
        <time>2018-09-06T11:28:30.000Z</time>
      </trkpt>
      <trkpt lat="43.40250573121011257171630859375" lon="-4.7072957642376422882080078125">
        <ele>11.19999980926513671875</ele>
        <time>2018-09-06T11:28:31.000Z</time>
      </trkpt>
      <trkpt lat="43.40253976173698902130126953125" lon="-4.70748879946768283843994140625">
        <ele>10.6000003814697265625</ele>
        <time>2018-09-06T11:28:33.000Z</time>
      </trkpt>
      <trkpt lat="43.40255635790526866912841796875" lon="-4.70756943337619304656982421875">
        <ele>10.19999980926513671875</ele>
        <time>2018-09-06T11:28:34.000Z</time>
      </trkpt>
      <trkpt lat="43.40257898904383182525634765625" lon="-4.7076407633721828460693359375">
        <ele>10</ele>
        <time>2018-09-06T11:28:35.000Z</time>
      </trkpt>
      <trkpt lat="43.40263749472796916961669921875" lon="-4.70775735564529895782470703125">
        <ele>10.19999980926513671875</ele>
        <time>2018-09-06T11:28:37.000Z</time>
      </trkpt>
      <trkpt lat="43.40278937481343746185302734375" lon="-4.70787084661424160003662109375">
        <ele>10</ele>
        <time>2018-09-06T11:28:41.000Z</time>
      </trkpt>
      <trkpt lat="43.4028684161603450775146484375" lon="-4.70793236978352069854736328125">
        <ele>10.6000003814697265625</ele>
        <time>2018-09-06T11:28:44.000Z</time>
      </trkpt>
      <trkpt lat="43.40290077030658721923828125" lon="-4.70797075890004634857177734375">
        <ele>11</ele>
        <time>2018-09-06T11:28:46.000Z</time>
      </trkpt>
      <trkpt lat="43.402914516627788543701171875" lon="-4.707989282906055450439453125">
        <ele>11.3999996185302734375</ele>
        <time>2018-09-06T11:28:47.000Z</time>
      </trkpt>
      <trkpt lat="43.402937315404415130615234375" lon="-4.70802691765129566192626953125">
        <ele>11.80000019073486328125</ele>
        <time>2018-09-06T11:28:49.000Z</time>
      </trkpt>
      <trkpt lat="43.4029416739940643310546875" lon="-4.70804753713309764862060546875">
        <ele>12.19999980926513671875</ele>
        <time>2018-09-06T11:28:50.000Z</time>
      </trkpt>
      <trkpt lat="43.402942679822444915771484375" lon="-4.708091206848621368408203125">
        <ele>12.6000003814697265625</ele>
        <time>2018-09-06T11:28:52.000Z</time>
      </trkpt>
      <trkpt lat="43.4029327891767024993896484375" lon="-4.70814007334411144256591796875">
        <ele>12.80000019073486328125</ele>
        <time>2018-09-06T11:28:54.000Z</time>
      </trkpt>
      <trkpt lat="43.40292214415967464447021484375" lon="-4.70818868838250637054443359375">
        <ele>13.19999980926513671875</ele>
        <time>2018-09-06T11:28:56.000Z</time>
      </trkpt>
      <trkpt lat="43.4029163606464862823486328125" lon="-4.70823772251605987548828125">
        <ele>13.6000003814697265625</ele>
        <time>2018-09-06T11:28:58.000Z</time>
      </trkpt>
      <trkpt lat="43.40291594155132770538330078125" lon="-4.70828868448734283447265625">
        <ele>13.80000019073486328125</ele>
        <time>2018-09-06T11:29:00.000Z</time>
      </trkpt>
      <trkpt lat="43.40291560627520084381103515625" lon="-4.7083709947764873504638671875">
        <ele>14.19999980926513671875</ele>
        <time>2018-09-06T11:29:03.000Z</time>
      </trkpt>
      <trkpt lat="43.4029197134077548980712890625" lon="-4.7083971463143825531005859375">
        <ele>14.19999980926513671875</ele>
        <time>2018-09-06T11:29:04.000Z</time>
      </trkpt>
      <trkpt lat="43.402926586568355560302734375" lon="-4.7084239684045314788818359375">
        <ele>14.3999996185302734375</ele>
        <time>2018-09-06T11:29:05.000Z</time>
      </trkpt>
      <trkpt lat="43.4029716812074184417724609375" lon="-4.7085211984813213348388671875">
        <ele>14.80000019073486328125</ele>
        <time>2018-09-06T11:29:09.000Z</time>
      </trkpt>
      <trkpt lat="43.40302457101643085479736328125" lon="-4.7085993178188800811767578125">
        <ele>15.3999996185302734375</ele>
        <time>2018-09-06T11:29:13.000Z</time>
      </trkpt>
      <trkpt lat="43.403035886585712432861328125" lon="-4.70861993730068206787109375">
        <ele>15.6000003814697265625</ele>
        <time>2018-09-06T11:29:14.000Z</time>
      </trkpt>
      <trkpt lat="43.40304770506918430328369140625" lon="-4.70864139497280120849609375">
        <ele>16</ele>
        <time>2018-09-06T11:29:15.000Z</time>
      </trkpt>
      <trkpt lat="43.40307000093162059783935546875" lon="-4.7087528742849826812744140625">
        <ele>17</ele>
        <time>2018-09-06T11:29:20.000Z</time>
      </trkpt>
      <trkpt lat="43.40307083912193775177001953125" lon="-4.7087739966809749603271484375">
        <ele>17.200000762939453125</ele>
        <time>2018-09-06T11:29:21.000Z</time>
      </trkpt>
      <trkpt lat="43.40307368896901607513427734375" lon="-4.70883577130734920501708984375">
        <ele>17.6000003814697265625</ele>
        <time>2018-09-06T11:29:24.000Z</time>
      </trkpt>
      <trkpt lat="43.40307712554931640625" lon="-4.70887466333806514739990234375">
        <ele>18</ele>
        <time>2018-09-06T11:29:26.000Z</time>
      </trkpt>
      <trkpt lat="43.4030917100608348846435546875" lon="-4.7089506871998310089111328125">
        <ele>18.799999237060546875</ele>
        <time>2018-09-06T11:29:30.000Z</time>
      </trkpt>
      <trkpt lat="43.4030945599079132080078125" lon="-4.70899100415408611297607421875">
        <ele>19.200000762939453125</ele>
        <time>2018-09-06T11:29:32.000Z</time>
      </trkpt>
      <trkpt lat="43.40309925377368927001953125" lon="-4.7091127932071685791015625">
        <ele>20.3999996185302734375</ele>
        <time>2018-09-06T11:29:38.000Z</time>
      </trkpt>
      <trkpt lat="43.40309414081275463104248046875" lon="-4.70922318287193775177001953125">
        <ele>21.3999996185302734375</ele>
        <time>2018-09-06T11:29:44.000Z</time>
      </trkpt>
      <trkpt lat="43.4030878543853759765625" lon="-4.70926006324589252471923828125">
        <ele>21.799999237060546875</ele>
        <time>2018-09-06T11:29:46.000Z</time>
      </trkpt>
      <trkpt lat="43.4030731022357940673828125" lon="-4.70929409377276897430419921875">
        <ele>22</ele>
        <time>2018-09-06T11:29:48.000Z</time>
      </trkpt>
      <trkpt lat="43.40307385660707950592041015625" lon="-4.70932678319513797760009765625">
        <ele>22.3999996185302734375</ele>
        <time>2018-09-06T11:29:50.000Z</time>
      </trkpt>
      <trkpt lat="43.4030759520828723907470703125" lon="-4.709341786801815032958984375">
        <ele>22.6000003814697265625</ele>
        <time>2018-09-06T11:29:51.000Z</time>
      </trkpt>
      <trkpt lat="43.40307503007352352142333984375" lon="-4.7094536013901233673095703125">
        <ele>23.6000003814697265625</ele>
        <time>2018-09-06T11:29:57.000Z</time>
      </trkpt>
      <trkpt lat="43.40306438505649566650390625" lon="-4.7095347382128238677978515625">
        <ele>24.200000762939453125</ele>
        <time>2018-09-06T11:30:01.000Z</time>
      </trkpt>
      <trkpt lat="43.40306329540908336639404296875" lon="-4.7095957584679126739501953125">
        <ele>24.799999237060546875</ele>
        <time>2018-09-06T11:30:04.000Z</time>
      </trkpt>
      <trkpt lat="43.40307603590190410614013671875" lon="-4.70968234352767467498779296875">
        <ele>25.3999996185302734375</ele>
        <time>2018-09-06T11:30:08.000Z</time>
      </trkpt>
      <trkpt lat="43.4030813165009021759033203125" lon="-4.70977035351097583770751953125">
        <ele>25.799999237060546875</ele>
        <time>2018-09-06T11:30:12.000Z</time>
      </trkpt>
      <trkpt lat="43.40308290906250476837158203125" lon="-4.70983103848993778228759765625">
        <ele>26</ele>
        <time>2018-09-06T11:30:15.000Z</time>
      </trkpt>
      <trkpt lat="43.4030964039266109466552734375" lon="-4.7099156118929386138916015625">
        <ele>26.6000003814697265625</ele>
        <time>2018-09-06T11:30:19.000Z</time>
      </trkpt>
      <trkpt lat="43.403098247945308685302734375" lon="-4.7099387459456920623779296875">
        <ele>26.799999237060546875</ele>
        <time>2018-09-06T11:30:20.000Z</time>
      </trkpt>
      <trkpt lat="43.4031034447252750396728515625" lon="-4.7099603712558746337890625">
        <ele>26.799999237060546875</ele>
        <time>2018-09-06T11:30:21.000Z</time>
      </trkpt>
      <trkpt lat="43.40317946858704090118408203125" lon="-4.7101020254194736480712890625">
        <ele>28</ele>
        <time>2018-09-06T11:30:28.000Z</time>
      </trkpt>
      <trkpt lat="43.40323395095765590667724609375" lon="-4.71018877811729907989501953125">
        <ele>28</ele>
        <time>2018-09-06T11:30:33.000Z</time>
      </trkpt>
      <trkpt lat="43.4032513014972209930419921875" lon="-4.71021442674100399017333984375">
        <ele>27.6000003814697265625</ele>
        <time>2018-09-06T11:30:34.000Z</time>
      </trkpt>
      <trkpt lat="43.40328692458570003509521484375" lon="-4.7102545760571956634521484375">
        <ele>27.200000762939453125</ele>
        <time>2018-09-06T11:30:36.000Z</time>
      </trkpt>
      <trkpt lat="43.4033428318798542022705078125" lon="-4.71029187552630901336669921875">
        <ele>26.799999237060546875</ele>
        <time>2018-09-06T11:30:38.000Z</time>
      </trkpt>
      <trkpt lat="43.40338222682476043701171875" lon="-4.71031232737004756927490234375">
        <ele>26.6000003814697265625</ele>
        <time>2018-09-06T11:30:39.000Z</time>
      </trkpt>
      <trkpt lat="43.4034960530698299407958984375" lon="-4.71040938980877399444580078125">
        <ele>26.6000003814697265625</ele>
        <time>2018-09-06T11:30:42.000Z</time>
      </trkpt>
      <trkpt lat="43.40355330146849155426025390625" lon="-4.7104818932712078094482421875">
        <ele>26.6000003814697265625</ele>
        <time>2018-09-06T11:30:44.000Z</time>
      </trkpt>
      <trkpt lat="43.40359202586114406585693359375" lon="-4.71059965901076793670654296875">
        <ele>27</ele>
        <time>2018-09-06T11:30:47.000Z</time>
      </trkpt>
      <trkpt lat="43.40359839610755443572998046875" lon="-4.71068683080375194549560546875">
        <ele>27.3999996185302734375</ele>
        <time>2018-09-06T11:30:49.000Z</time>
      </trkpt>
      <trkpt lat="43.4035852365195751190185546875" lon="-4.7108379565179347991943359375">
        <ele>27.799999237060546875</ele>
        <time>2018-09-06T11:30:53.000Z</time>
      </trkpt>
      <trkpt lat="43.40360292233526706695556640625" lon="-4.71095748245716094970703125">
        <ele>28.200000762939453125</ele>
        <time>2018-09-06T11:30:56.000Z</time>
      </trkpt>
      <trkpt lat="43.4036231227219104766845703125" lon="-4.71123333089053630828857421875">
        <ele>28.6000003814697265625</ele>
        <time>2018-09-06T11:31:03.000Z</time>
      </trkpt>
      <trkpt lat="43.40361633338034152984619140625" lon="-4.71130290068686008453369140625">
        <ele>29.200000762939453125</ele>
        <time>2018-09-06T11:31:05.000Z</time>
      </trkpt>
      <trkpt lat="43.40360241942107677459716796875" lon="-4.71141957677900791168212890625">
        <ele>29.6000003814697265625</ele>
        <time>2018-09-06T11:31:08.000Z</time>
      </trkpt>
      <trkpt lat="43.40359504334628582000732421875" lon="-4.71150859259068965911865234375">
        <ele>29.799999237060546875</ele>
        <time>2018-09-06T11:31:10.000Z</time>
      </trkpt>
      <trkpt lat="43.4035778604447841644287109375" lon="-4.7117815911769866943359375">
        <ele>28.799999237060546875</ele>
        <time>2018-09-06T11:31:15.000Z</time>
      </trkpt>
      <trkpt lat="43.40357308275997638702392578125" lon="-4.711842276155948638916015625">
        <ele>28.3999996185302734375</ele>
        <time>2018-09-06T11:31:16.000Z</time>
      </trkpt>
      <trkpt lat="43.40356721542775630950927734375" lon="-4.71190824173390865325927734375">
        <ele>28</ele>
        <time>2018-09-06T11:31:17.000Z</time>
      </trkpt>
      <trkpt lat="43.4035731665790081024169921875" lon="-4.7121519036591053009033203125">
        <ele>27</ele>
        <time>2018-09-06T11:31:20.000Z</time>
      </trkpt>
      <trkpt lat="43.403590433299541473388671875" lon="-4.7122296877205371856689453125">
        <ele>26.799999237060546875</ele>
        <time>2018-09-06T11:31:21.000Z</time>
      </trkpt>
      <trkpt lat="43.4036496095359325408935546875" lon="-4.712353236973285675048828125">
        <ele>26.200000762939453125</ele>
        <time>2018-09-06T11:31:23.000Z</time>
      </trkpt>
      <trkpt lat="43.40368238277733325958251953125" lon="-4.71241149120032787322998046875">
        <ele>26.200000762939453125</ele>
        <time>2018-09-06T11:31:24.000Z</time>
      </trkpt>
      <trkpt lat="43.4037133120000362396240234375" lon="-4.71247754059731960296630859375">
        <ele>26</ele>
        <time>2018-09-06T11:31:25.000Z</time>
      </trkpt>
      <trkpt lat="43.40375530533492565155029296875" lon="-4.7126092202961444854736328125">
        <ele>25.799999237060546875</ele>
        <time>2018-09-06T11:31:27.000Z</time>
      </trkpt>
      <trkpt lat="43.4037731587886810302734375" lon="-4.71267032437026500701904296875">
        <ele>25.799999237060546875</ele>
        <time>2018-09-06T11:31:28.000Z</time>
      </trkpt>
      <trkpt lat="43.40383543632924556732177734375" lon="-4.71280292607843875885009765625">
        <ele>26.3999996185302734375</ele>
        <time>2018-09-06T11:31:31.000Z</time>
      </trkpt>
      <trkpt lat="43.40389561839401721954345703125" lon="-4.7128781117498874664306640625">
        <ele>27.6000003814697265625</ele>
        <time>2018-09-06T11:31:34.000Z</time>
      </trkpt>
      <trkpt lat="43.403921015560626983642578125" lon="-4.71289093606173992156982421875">
        <ele>28</ele>
        <time>2018-09-06T11:31:35.000Z</time>
      </trkpt>
      <trkpt lat="43.40394658036530017852783203125" lon="-4.71289797686040401458740234375">
        <ele>28.200000762939453125</ele>
        <time>2018-09-06T11:31:36.000Z</time>
      </trkpt>
      <trkpt lat="43.40403375215828418731689453125" lon="-4.71293427050113677978515625">
        <ele>29</ele>
        <time>2018-09-06T11:31:40.000Z</time>
      </trkpt>
      <trkpt lat="43.4040516056120395660400390625" lon="-4.712941311299800872802734375">
        <ele>29.200000762939453125</ele>
        <time>2018-09-06T11:31:41.000Z</time>
      </trkpt>
      <trkpt lat="43.40417389757931232452392578125" lon="-4.71305304206907749176025390625">
        <ele>28.6000003814697265625</ele>
        <time>2018-09-06T11:31:46.000Z</time>
      </trkpt>
      <trkpt lat="43.40426475740969181060791015625" lon="-4.71330684609711170196533203125">
        <ele>28.3999996185302734375</ele>
        <time>2018-09-06T11:31:51.000Z</time>
      </trkpt>
      <trkpt lat="43.40431119315326213836669921875" lon="-4.71343810670077800750732421875">
        <ele>28.799999237060546875</ele>
        <time>2018-09-06T11:31:54.000Z</time>
      </trkpt>
      <trkpt lat="43.4043416194617748260498046875" lon="-4.7134687006473541259765625">
        <ele>28.799999237060546875</ele>
        <time>2018-09-06T11:31:55.000Z</time>
      </trkpt>
      <trkpt lat="43.40437606908380985260009765625" lon="-4.7134866379201412200927734375">
        <ele>29</ele>
        <time>2018-09-06T11:31:56.000Z</time>
      </trkpt>
      <trkpt lat="43.40457287617027759552001953125" lon="-4.71357255242764949798583984375">
        <ele>29.3999996185302734375</ele>
        <time>2018-09-06T11:32:02.000Z</time>
      </trkpt>
      <trkpt lat="43.40474721975624561309814453125" lon="-4.7137154638767242431640625">
        <ele>29.799999237060546875</ele>
        <time>2018-09-06T11:32:08.000Z</time>
      </trkpt>
      <trkpt lat="43.40482265688478946685791015625" lon="-4.71389559097588062286376953125">
        <ele>30.200000762939453125</ele>
        <time>2018-09-06T11:32:12.000Z</time>
      </trkpt>
      <trkpt lat="43.4048596210777759552001953125" lon="-4.713994748890399932861328125">
        <ele>30.3999996185302734375</ele>
        <time>2018-09-06T11:32:14.000Z</time>
      </trkpt>
      <trkpt lat="43.4049628861248493194580078125" lon="-4.7141766361892223358154296875">
        <ele>31.200000762939453125</ele>
        <time>2018-09-06T11:32:19.000Z</time>
      </trkpt>
      <trkpt lat="43.4050767123699188232421875" lon="-4.71445432864129543304443359375">
        <ele>31.200000762939453125</ele>
        <time>2018-09-06T11:32:26.000Z</time>
      </trkpt>
      <trkpt lat="43.4051553346216678619384765625" lon="-4.7147060371935367584228515625">
        <ele>32</ele>
        <time>2018-09-06T11:32:32.000Z</time>
      </trkpt>
      <trkpt lat="43.40521509759128093719482421875" lon="-4.7148954682052135467529296875">
        <ele>32.200000762939453125</ele>
        <time>2018-09-06T11:32:37.000Z</time>
      </trkpt>
      <trkpt lat="43.40527720749378204345703125" lon="-4.71508163027465343475341796875">
        <ele>32</ele>
        <time>2018-09-06T11:32:42.000Z</time>
      </trkpt>
      <trkpt lat="43.40529003180563449859619140625" lon="-4.715122617781162261962890625">
        <ele>32</ele>
        <time>2018-09-06T11:32:43.000Z</time>
      </trkpt>
      <trkpt lat="43.40540997684001922607421875" lon="-4.71528246067464351654052734375">
        <ele>32.40000152587890625</ele>
        <time>2018-09-06T11:32:48.000Z</time>
      </trkpt>
      <trkpt lat="43.40562581084668636322021484375" lon="-4.7153755836188793182373046875">
        <ele>33.40000152587890625</ele>
        <time>2018-09-06T11:32:55.000Z</time>
      </trkpt>
      <trkpt lat="43.40586729347705841064453125" lon="-4.7155381925404071807861328125">
        <ele>34.59999847412109375</ele>
        <time>2018-09-06T11:33:03.000Z</time>
      </trkpt>
      <trkpt lat="43.4058966301381587982177734375" lon="-4.71555621363222599029541015625">
        <ele>34.799999237060546875</ele>
        <time>2018-09-06T11:33:04.000Z</time>
      </trkpt>
      <trkpt lat="43.40601339004933834075927734375" lon="-4.71562561579048633575439453125">
        <ele>35.40000152587890625</ele>
        <time>2018-09-06T11:33:08.000Z</time>
      </trkpt>
      <trkpt lat="43.40604088269174098968505859375" lon="-4.7156505100429058074951171875">
        <ele>35.59999847412109375</ele>
        <time>2018-09-06T11:33:09.000Z</time>
      </trkpt>
      <trkpt lat="43.40609402395784854888916015625" lon="-4.71570323221385478973388671875">
        <ele>36.200000762939453125</ele>
        <time>2018-09-06T11:33:11.000Z</time>
      </trkpt>
      <trkpt lat="43.40619695372879505157470703125" lon="-4.715771377086639404296875">
        <ele>36.59999847412109375</ele>
        <time>2018-09-06T11:33:15.000Z</time>
      </trkpt>
      <trkpt lat="43.4062476642429828643798828125" lon="-4.7157888114452362060546875">
        <ele>37.200000762939453125</ele>
        <time>2018-09-06T11:33:17.000Z</time>
      </trkpt>
      <trkpt lat="43.40633139945566654205322265625" lon="-4.71580959856510162353515625">
        <ele>37.799999237060546875</ele>
        <time>2018-09-06T11:33:20.000Z</time>
      </trkpt>
      <trkpt lat="43.40643483214080333709716796875" lon="-4.7158292122185230255126953125">
        <ele>38.40000152587890625</ele>
        <time>2018-09-06T11:33:24.000Z</time>
      </trkpt>
      <trkpt lat="43.4064857102930545806884765625" lon="-4.7158424556255340576171875">
        <ele>39</ele>
        <time>2018-09-06T11:33:26.000Z</time>
      </trkpt>
      <trkpt lat="43.4066107682883739471435546875" lon="-4.715866930782794952392578125">
        <ele>39.799999237060546875</ele>
        <time>2018-09-06T11:33:31.000Z</time>
      </trkpt>
      <trkpt lat="43.40663549490272998809814453125" lon="-4.715872295200824737548828125">
        <ele>40</ele>
        <time>2018-09-06T11:33:32.000Z</time>
      </trkpt>
      <trkpt lat="43.4067106805741786956787109375" lon="-4.71589014865458011627197265625">
        <ele>40.799999237060546875</ele>
        <time>2018-09-06T11:33:35.000Z</time>
      </trkpt>
      <trkpt lat="43.4067368321120738983154296875" lon="-4.7159016318619251251220703125">
        <ele>41</ele>
        <time>2018-09-06T11:33:36.000Z</time>
      </trkpt>
      <trkpt lat="43.406781256198883056640625" lon="-4.71594412811100482940673828125">
        <ele>41.40000152587890625</ele>
        <time>2018-09-06T11:33:38.000Z</time>
      </trkpt>
      <trkpt lat="43.40683464892208576202392578125" lon="-4.71603834070265293121337890625">
        <ele>42.200000762939453125</ele>
        <time>2018-09-06T11:33:42.000Z</time>
      </trkpt>
      <trkpt lat="43.40686415322124958038330078125" lon="-4.71608393825590610504150390625">
        <ele>42.59999847412109375</ele>
        <time>2018-09-06T11:33:44.000Z</time>
      </trkpt>
      <trkpt lat="43.4069141931831836700439453125" lon="-4.7161540947854518890380859375">
        <ele>43.40000152587890625</ele>
        <time>2018-09-06T11:33:48.000Z</time>
      </trkpt>
      <trkpt lat="43.40692567639052867889404296875" lon="-4.7161711938679218292236328125">
        <ele>43.40000152587890625</ele>
        <time>2018-09-06T11:33:49.000Z</time>
      </trkpt>
      <trkpt lat="43.4070124290883541107177734375" lon="-4.71630220301449298858642578125">
        <ele>44.59999847412109375</ele>
        <time>2018-09-06T11:33:55.000Z</time>
      </trkpt>
      <trkpt lat="43.40702508576214313507080078125" lon="-4.71632852219045162200927734375">
        <ele>44.59999847412109375</ele>
        <time>2018-09-06T11:33:56.000Z</time>
      </trkpt>
      <trkpt lat="43.40709616430103778839111328125" lon="-4.716554246842861175537109375">
        <ele>45.59999847412109375</ele>
        <time>2018-09-06T11:34:04.000Z</time>
      </trkpt>
      <trkpt lat="43.40710186399519443511962890625" lon="-4.71658249385654926300048828125">
        <ele>45.59999847412109375</ele>
        <time>2018-09-06T11:34:05.000Z</time>
      </trkpt>
      <trkpt lat="43.4071364812552928924560546875" lon="-4.71676588989794254302978515625">
        <ele>46.200000762939453125</ele>
        <time>2018-09-06T11:34:11.000Z</time>
      </trkpt>
      <trkpt lat="43.4071441926062107086181640625" lon="-4.716855324804782867431640625">
        <ele>46.59999847412109375</ele>
        <time>2018-09-06T11:34:14.000Z</time>
      </trkpt>
      <trkpt lat="43.40714477933943271636962890625" lon="-4.7169171832501888275146484375">
        <ele>47</ele>
        <time>2018-09-06T11:34:16.000Z</time>
      </trkpt>
      <trkpt lat="43.40713555924594402313232421875" lon="-4.7170650400221347808837890625">
        <ele>47.799999237060546875</ele>
        <time>2018-09-06T11:34:21.000Z</time>
      </trkpt>
      <trkpt lat="43.40713019482791423797607421875" lon="-4.71715531311929225921630859375">
        <ele>48.40000152587890625</ele>
        <time>2018-09-06T11:34:24.000Z</time>
      </trkpt>
      <trkpt lat="43.40712726116180419921875" lon="-4.71721784211695194244384765625">
        <ele>48.799999237060546875</ele>
        <time>2018-09-06T11:34:26.000Z</time>
      </trkpt>
      <trkpt lat="43.4071291051805019378662109375" lon="-4.71736972220242023468017578125">
        <ele>49.59999847412109375</ele>
        <time>2018-09-06T11:34:31.000Z</time>
      </trkpt>
      <trkpt lat="43.407128937542438507080078125" lon="-4.71740006469190120697021484375">
        <ele>50</ele>
        <time>2018-09-06T11:34:32.000Z</time>
      </trkpt>
      <trkpt lat="43.407129608094692230224609375" lon="-4.71758513711392879486083984375">
        <ele>51</ele>
        <time>2018-09-06T11:34:38.000Z</time>
      </trkpt>
      <trkpt lat="43.4071301110088825225830078125" lon="-4.71764699555933475494384765625">
        <ele>51.40000152587890625</ele>
        <time>2018-09-06T11:34:40.000Z</time>
      </trkpt>
      <trkpt lat="43.40712583623826503753662109375" lon="-4.71773517318069934844970703125">
        <ele>52</ele>
        <time>2018-09-06T11:34:43.000Z</time>
      </trkpt>
      <trkpt lat="43.40710303746163845062255859375" lon="-4.71787481568753719329833984375">
        <ele>52.40000152587890625</ele>
        <time>2018-09-06T11:34:48.000Z</time>
      </trkpt>
      <trkpt lat="43.40708677656948566436767578125" lon="-4.71811830997467041015625">
        <ele>52.200000762939453125</ele>
        <time>2018-09-06T11:34:54.000Z</time>
      </trkpt>
      <trkpt lat="43.40708392672240734100341796875" lon="-4.71842550672590732574462890625">
        <ele>52</ele>
        <time>2018-09-06T11:35:00.000Z</time>
      </trkpt>
      <trkpt lat="43.40708007104694843292236328125" lon="-4.71853128634393215179443359375">
        <ele>52.200000762939453125</ele>
        <time>2018-09-06T11:35:02.000Z</time>
      </trkpt>
      <trkpt lat="43.40704604052007198333740234375" lon="-4.71888986416161060333251953125">
        <ele>52.59999847412109375</ele>
        <time>2018-09-06T11:35:09.000Z</time>
      </trkpt>
      <trkpt lat="43.40703916735947132110595703125" lon="-4.71891827881336212158203125">
        <ele>52.799999237060546875</ele>
        <time>2018-09-06T11:35:10.000Z</time>
      </trkpt>
      <trkpt lat="43.407043777406215667724609375" lon="-4.71897133626043796539306640625">
        <ele>53.40000152587890625</ele>
        <time>2018-09-06T11:35:12.000Z</time>
      </trkpt>
      <trkpt lat="43.407067246735095977783203125" lon="-4.71898323856294155120849609375">
        <ele>53.59999847412109375</ele>
        <time>2018-09-06T11:35:14.000Z</time>
      </trkpt>
      <trkpt lat="43.40707738883793354034423828125" lon="-4.71894451417028903961181640625">
        <ele>54</ele>
        <time>2018-09-06T11:35:16.000Z</time>
      </trkpt>
      <trkpt lat="43.4070825017988681793212890625" lon="-4.71888248808681964874267578125">
        <ele>54</ele>
        <time>2018-09-06T11:35:18.000Z</time>
      </trkpt>
      <trkpt lat="43.4071156941354274749755859375" lon="-4.71880964934825897216796875">
        <ele>54.40000152587890625</ele>
        <time>2018-09-06T11:35:21.000Z</time>
      </trkpt>
      <trkpt lat="43.40713371522724628448486328125" lon="-4.7187645547091960906982421875">
        <ele>54.799999237060546875</ele>
        <time>2018-09-06T11:35:23.000Z</time>
      </trkpt>
      <trkpt lat="43.4071787260472774505615234375" lon="-4.71864209510385990142822265625">
        <ele>55.59999847412109375</ele>
        <time>2018-09-06T11:35:28.000Z</time>
      </trkpt>
      <trkpt lat="43.407200016081333160400390625" lon="-4.71860303543508052825927734375">
        <ele>56</ele>
        <time>2018-09-06T11:35:30.000Z</time>
      </trkpt>
      <trkpt lat="43.40726028196513652801513671875" lon="-4.71850362606346607208251953125">
        <ele>56.59999847412109375</ele>
        <time>2018-09-06T11:35:35.000Z</time>
      </trkpt>
      <trkpt lat="43.407271765172481536865234375" lon="-4.71848376095294952392578125">
        <ele>57</ele>
        <time>2018-09-06T11:35:36.000Z</time>
      </trkpt>
      <trkpt lat="43.40728241018950939178466796875" lon="-4.71846221946179866790771484375">
        <ele>57.200000762939453125</ele>
        <time>2018-09-06T11:35:37.000Z</time>
      </trkpt>
      <trkpt lat="43.4073560871183872222900390625" lon="-4.71834805794060230255126953125">
        <ele>58.200000762939453125</ele>
        <time>2018-09-06T11:35:43.000Z</time>
      </trkpt>
      <trkpt lat="43.40736924670636653900146484375" lon="-4.71832961775362491607666015625">
        <ele>58.200000762939453125</ele>
        <time>2018-09-06T11:35:44.000Z</time>
      </trkpt>
      <trkpt lat="43.40742942877113819122314453125" lon="-4.71820992417633533477783203125">
        <ele>59.200000762939453125</ele>
        <time>2018-09-06T11:35:50.000Z</time>
      </trkpt>
      <trkpt lat="43.4074717573821544647216796875" lon="-4.71812929026782512664794921875">
        <ele>60</ele>
        <time>2018-09-06T11:35:54.000Z</time>
      </trkpt>
      <trkpt lat="43.4074828214943408966064453125" lon="-4.718112610280513763427734375">
        <ele>60.200000762939453125</ele>
        <time>2018-09-06T11:35:55.000Z</time>
      </trkpt>
      <trkpt lat="43.40752917341887950897216796875" lon="-4.71801571547985076904296875">
        <ele>61.200000762939453125</ele>
        <time>2018-09-06T11:36:00.000Z</time>
      </trkpt>
      <trkpt lat="43.407570831477642059326171875" lon="-4.7179464809596538543701171875">
        <ele>62</ele>
        <time>2018-09-06T11:36:04.000Z</time>
      </trkpt>
      <trkpt lat="43.407583571970462799072265625" lon="-4.71793935634195804595947265625">
        <ele>62.200000762939453125</ele>
        <time>2018-09-06T11:36:05.000Z</time>
      </trkpt>
      <trkpt lat="43.40760746039450168609619140625" lon="-4.71792644821107387542724609375">
        <ele>62.59999847412109375</ele>
        <time>2018-09-06T11:36:07.000Z</time>
      </trkpt>
      <trkpt lat="43.407660685479640960693359375" lon="-4.71794840879738330841064453125">
        <ele>63.40000152587890625</ele>
        <time>2018-09-06T11:36:11.000Z</time>
      </trkpt>
      <trkpt lat="43.4076749347150325775146484375" lon="-4.71796282567083835601806640625">
        <ele>63.59999847412109375</ele>
        <time>2018-09-06T11:36:12.000Z</time>
      </trkpt>
      <trkpt lat="43.40768993832170963287353515625" lon="-4.71798160113394260406494140625">
        <ele>63.799999237060546875</ele>
        <time>2018-09-06T11:36:13.000Z</time>
      </trkpt>
      <trkpt lat="43.40769865550100803375244140625" lon="-4.71800356172025203704833984375">
        <ele>63.799999237060546875</ele>
        <time>2018-09-06T11:36:14.000Z</time>
      </trkpt>
      <trkpt lat="43.4077057801187038421630859375" lon="-4.71807061694562435150146484375">
        <ele>64.40000152587890625</ele>
        <time>2018-09-06T11:36:17.000Z</time>
      </trkpt>
      <trkpt lat="43.4077030979096889495849609375" lon="-4.7180955111980438232421875">
        <ele>64.59999847412109375</ele>
        <time>2018-09-06T11:36:18.000Z</time>
      </trkpt>
      <trkpt lat="43.40769094415009021759033203125" lon="-4.71814714372158050537109375">
        <ele>65</ele>
        <time>2018-09-06T11:36:20.000Z</time>
      </trkpt>
      <trkpt lat="43.4076474420726299285888671875" lon="-4.7182435356080532073974609375">
        <ele>65.59999847412109375</ele>
        <time>2018-09-06T11:36:24.000Z</time>
      </trkpt>
      <trkpt lat="43.40764291584491729736328125" lon="-4.71826876513659954071044921875">
        <ele>65.8000030517578125</ele>
        <time>2018-09-06T11:36:25.000Z</time>
      </trkpt>
      <trkpt lat="43.40760896913707256317138671875" lon="-4.71842215396463871002197265625">
        <ele>66.40000152587890625</ele>
        <time>2018-09-06T11:36:31.000Z</time>
      </trkpt>
      <trkpt lat="43.40759639628231525421142578125" lon="-4.71848501823842525482177734375">
        <ele>66.8000030517578125</ele>
        <time>2018-09-06T11:36:34.000Z</time>
      </trkpt>
      <trkpt lat="43.40758633799850940704345703125" lon="-4.71850463189184665679931640625">
        <ele>67</ele>
        <time>2018-09-06T11:36:35.000Z</time>
      </trkpt>
      <trkpt lat="43.40756538324058055877685546875" lon="-4.71855324693024158477783203125">
        <ele>67.1999969482421875</ele>
        <time>2018-09-06T11:36:37.000Z</time>
      </trkpt>
      <trkpt lat="43.407560102641582489013671875" lon="-4.718594066798686981201171875">
        <ele>67.59999847412109375</ele>
        <time>2018-09-06T11:36:39.000Z</time>
      </trkpt>
      <trkpt lat="43.40755976736545562744140625" lon="-4.7186153568327426910400390625">
        <ele>67.8000030517578125</ele>
        <time>2018-09-06T11:36:40.000Z</time>
      </trkpt>
      <trkpt lat="43.40755700133740901947021484375" lon="-4.71864025108516216278076171875">
        <ele>67.8000030517578125</ele>
        <time>2018-09-06T11:36:41.000Z</time>
      </trkpt>
      <trkpt lat="43.4075522236526012420654296875" lon="-4.7186931408941745758056640625">
        <ele>68.1999969482421875</ele>
        <time>2018-09-06T11:36:43.000Z</time>
      </trkpt>
      <trkpt lat="43.4075535647571086883544921875" lon="-4.71881442703306674957275390625">
        <ele>69</ele>
        <time>2018-09-06T11:36:48.000Z</time>
      </trkpt>
      <trkpt lat="43.4075465239584445953369140625" lon="-4.71886505372822284698486328125">
        <ele>69.1999969482421875</ele>
        <time>2018-09-06T11:36:50.000Z</time>
      </trkpt>
      <trkpt lat="43.40754979290068149566650390625" lon="-4.718889109790325164794921875">
        <ele>69.40000152587890625</ele>
        <time>2018-09-06T11:36:51.000Z</time>
      </trkpt>
      <trkpt lat="43.40755213983356952667236328125" lon="-4.718995727598667144775390625">
        <ele>70</ele>
        <time>2018-09-06T11:36:55.000Z</time>
      </trkpt>
      <trkpt lat="43.4075515531003475189208984375" lon="-4.71901877783238887786865234375">
        <ele>70.1999969482421875</ele>
        <time>2018-09-06T11:36:56.000Z</time>
      </trkpt>
      <trkpt lat="43.40756705962121486663818359375" lon="-4.7191786207258701324462890625">
        <ele>71</ele>
        <time>2018-09-06T11:37:03.000Z</time>
      </trkpt>
      <trkpt lat="43.40754392556846141815185546875" lon="-4.719359837472438812255859375">
        <ele>72.1999969482421875</ele>
        <time>2018-09-06T11:37:10.000Z</time>
      </trkpt>
      <trkpt lat="43.4075438417494297027587890625" lon="-4.719501323997974395751953125">
        <ele>73.40000152587890625</ele>
        <time>2018-09-06T11:37:16.000Z</time>
      </trkpt>
      <trkpt lat="43.4075416624546051025390625" lon="-4.71952378749847412109375">
        <ele>73.59999847412109375</ele>
        <time>2018-09-06T11:37:17.000Z</time>
      </trkpt>
      <trkpt lat="43.4075391478836536407470703125" lon="-4.7195457480847835540771484375">
        <ele>73.8000030517578125</ele>
        <time>2018-09-06T11:37:18.000Z</time>
      </trkpt>
      <trkpt lat="43.4075354598462581634521484375" lon="-4.7196024097502231597900390625">
        <ele>74.40000152587890625</ele>
        <time>2018-09-06T11:37:21.000Z</time>
      </trkpt>
      <trkpt lat="43.407531268894672393798828125" lon="-4.71963719464838504791259765625">
        <ele>75</ele>
        <time>2018-09-06T11:37:23.000Z</time>
      </trkpt>
      <trkpt lat="43.40753487311303615570068359375" lon="-4.71964825876057147979736328125">
        <ele>75</ele>
        <time>2018-09-06T11:37:24.000Z</time>
      </trkpt>
      <trkpt lat="43.40754828415811061859130859375" lon="-4.71969050355255603790283203125">
        <ele>75.40000152587890625</ele>
        <time>2018-09-06T11:37:27.000Z</time>
      </trkpt>
      <trkpt lat="43.40755767188966274261474609375" lon="-4.71970282495021820068359375">
        <ele>75.59999847412109375</ele>
        <time>2018-09-06T11:37:28.000Z</time>
      </trkpt>
      <trkpt lat="43.40757183730602264404296875" lon="-4.7196902520954608917236328125">
        <ele>76</ele>
        <time>2018-09-06T11:37:30.000Z</time>
      </trkpt>
      <trkpt lat="43.407623134553432464599609375" lon="-4.7195601649582386016845703125">
        <ele>76.59999847412109375</ele>
        <time>2018-09-06T11:37:36.000Z</time>
      </trkpt>
      <trkpt lat="43.40768314898014068603515625" lon="-4.7194004058837890625">
        <ele>77.59999847412109375</ele>
        <time>2018-09-06T11:37:44.000Z</time>
      </trkpt>
      <trkpt lat="43.40773637406527996063232421875" lon="-4.7192326001822948455810546875">
        <ele>78.8000030517578125</ele>
        <time>2018-09-06T11:37:52.000Z</time>
      </trkpt>
      <trkpt lat="43.407743163406848907470703125" lon="-4.71919613890349864959716796875">
        <ele>79</ele>
        <time>2018-09-06T11:37:54.000Z</time>
      </trkpt>
      <trkpt lat="43.4077540598809719085693359375" lon="-4.7191132418811321258544921875">
        <ele>79.59999847412109375</ele>
        <time>2018-09-06T11:37:58.000Z</time>
      </trkpt>
      <trkpt lat="43.407768644392490386962890625" lon="-4.71907409839332103729248046875">
        <ele>80</ele>
        <time>2018-09-06T11:38:00.000Z</time>
      </trkpt>
      <trkpt lat="43.40777677483856678009033203125" lon="-4.719056077301502227783203125">
        <ele>80.1999969482421875</ele>
        <time>2018-09-06T11:38:01.000Z</time>
      </trkpt>
      <trkpt lat="43.407810889184474945068359375" lon="-4.718958176672458648681640625">
        <ele>81.1999969482421875</ele>
        <time>2018-09-06T11:38:07.000Z</time>
      </trkpt>
      <trkpt lat="43.40785858221352100372314453125" lon="-4.71882800571620464324951171875">
        <ele>82</ele>
        <time>2018-09-06T11:38:14.000Z</time>
      </trkpt>
      <trkpt lat="43.40786260552704334259033203125" lon="-4.718807302415370941162109375">
        <ele>82.1999969482421875</ele>
        <time>2018-09-06T11:38:15.000Z</time>
      </trkpt>
      <trkpt lat="43.40792798437178134918212890625" lon="-4.7187199629843235015869140625">
        <ele>82.8000030517578125</ele>
        <time>2018-09-06T11:38:19.000Z</time>
      </trkpt>
      <trkpt lat="43.40794558636844158172607421875" lon="-4.71869959495961666107177734375">
        <ele>82.8000030517578125</ele>
        <time>2018-09-06T11:38:20.000Z</time>
      </trkpt>
      <trkpt lat="43.4079679660499095916748046875" lon="-4.71866036765277385711669921875">
        <ele>83.1999969482421875</ele>
        <time>2018-09-06T11:38:22.000Z</time>
      </trkpt>
      <trkpt lat="43.4079761803150177001953125" lon="-4.718646705150604248046875">
        <ele>83.40000152587890625</ele>
        <time>2018-09-06T11:38:23.000Z</time>
      </trkpt>
      <trkpt lat="43.40802110731601715087890625" lon="-4.718592055141925811767578125">
        <ele>83.8000030517578125</ele>
        <time>2018-09-06T11:38:26.000Z</time>
      </trkpt>
      <trkpt lat="43.40804122388362884521484375" lon="-4.71855794079601764678955078125">
        <ele>84.1999969482421875</ele>
        <time>2018-09-06T11:38:28.000Z</time>
      </trkpt>
      <trkpt lat="43.4080883301794528961181640625" lon="-4.71848200075328350067138671875">
        <ele>84.59999847412109375</ele>
        <time>2018-09-06T11:38:32.000Z</time>
      </trkpt>
      <trkpt lat="43.4081506915390491485595703125" lon="-4.71838896162807941436767578125">
        <ele>85.40000152587890625</ele>
        <time>2018-09-06T11:38:37.000Z</time>
      </trkpt>
      <trkpt lat="43.40821833349764347076416015625" lon="-4.71827949397265911102294921875">
        <ele>86.40000152587890625</ele>
        <time>2018-09-06T11:38:43.000Z</time>
      </trkpt>
      <trkpt lat="43.4082512743771076202392578125" lon="-4.71822886727750301361083984375">
        <ele>86.8000030517578125</ele>
        <time>2018-09-06T11:38:46.000Z</time>
      </trkpt>
      <trkpt lat="43.4082858078181743621826171875" lon="-4.7181875444948673248291015625">
        <ele>87.40000152587890625</ele>
        <time>2018-09-06T11:38:49.000Z</time>
      </trkpt>
      <trkpt lat="43.40831690467894077301025390625" lon="-4.7181409411132335662841796875">
        <ele>87.8000030517578125</ele>
        <time>2018-09-06T11:38:52.000Z</time>
      </trkpt>
      <trkpt lat="43.40833635069429874420166015625" lon="-4.7180705331265926361083984375">
        <ele>88.40000152587890625</ele>
        <time>2018-09-06T11:38:56.000Z</time>
      </trkpt>
      <trkpt lat="43.4083463251590728759765625" lon="-4.7180338203907012939453125">
        <ele>88.8000030517578125</ele>
        <time>2018-09-06T11:38:58.000Z</time>
      </trkpt>
      <trkpt lat="43.40837641619145870208740234375" lon="-4.71796584315598011016845703125">
        <ele>89.59999847412109375</ele>
        <time>2018-09-06T11:39:02.000Z</time>
      </trkpt>
      <trkpt lat="43.40839066542685031890869140625" lon="-4.7179050743579864501953125">
        <ele>90.1999969482421875</ele>
        <time>2018-09-06T11:39:05.000Z</time>
      </trkpt>
      <trkpt lat="43.4083944372832775115966796875" lon="-4.71786727197468280792236328125">
        <ele>90.59999847412109375</ele>
        <time>2018-09-06T11:39:07.000Z</time>
      </trkpt>
      <trkpt lat="43.4084004722535610198974609375" lon="-4.71784732304513454437255859375">
        <ele>90.59999847412109375</ele>
        <time>2018-09-06T11:39:08.000Z</time>
      </trkpt>
      <trkpt lat="43.4084004722535610198974609375" lon="-4.717806838452816009521484375">
        <ele>91</ele>
        <time>2018-09-06T11:39:10.000Z</time>
      </trkpt>
      <trkpt lat="43.408402986824512481689453125" lon="-4.7177634201943874359130859375">
        <ele>91.59999847412109375</ele>
        <time>2018-09-06T11:39:12.000Z</time>
      </trkpt>
      <trkpt lat="43.40840877033770084381103515625" lon="-4.71774489618837833404541015625">
        <ele>91.8000030517578125</ele>
        <time>2018-09-06T11:39:13.000Z</time>
      </trkpt>
      <trkpt lat="43.4084370173513889312744140625" lon="-4.7176665253937244415283203125">
        <ele>92.40000152587890625</ele>
        <time>2018-09-06T11:39:17.000Z</time>
      </trkpt>
      <trkpt lat="43.40846073813736438751220703125" lon="-4.71760039217770099639892578125">
        <ele>92.8000030517578125</ele>
        <time>2018-09-06T11:39:20.000Z</time>
      </trkpt>
      <trkpt lat="43.4084940142929553985595703125" lon="-4.71749293617904186248779296875">
        <ele>93.59999847412109375</ele>
        <time>2018-09-06T11:39:25.000Z</time>
      </trkpt>
      <trkpt lat="43.408500887453556060791015625" lon="-4.71745739690959453582763671875">
        <ele>94</ele>
        <time>2018-09-06T11:39:27.000Z</time>
      </trkpt>
      <trkpt lat="43.4085255302488803863525390625" lon="-4.717375673353672027587890625">
        <ele>94.40000152587890625</ele>
        <time>2018-09-06T11:39:31.000Z</time>
      </trkpt>
      <trkpt lat="43.40853952802717685699462890625" lon="-4.717320688068866729736328125">
        <ele>95</ele>
        <time>2018-09-06T11:39:34.000Z</time>
      </trkpt>
      <trkpt lat="43.40857204981148242950439453125" lon="-4.71725438721477985382080078125">
        <ele>95.8000030517578125</ele>
        <time>2018-09-06T11:39:38.000Z</time>
      </trkpt>
      <trkpt lat="43.40858562849462032318115234375" lon="-4.7172145731747150421142578125">
        <ele>96.1999969482421875</ele>
        <time>2018-09-06T11:39:40.000Z</time>
      </trkpt>
      <trkpt lat="43.4086254425346851348876953125" lon="-4.7171300835907459259033203125">
        <ele>97</ele>
        <time>2018-09-06T11:39:45.000Z</time>
      </trkpt>
      <trkpt lat="43.40862452052533626556396484375" lon="-4.71711709164083003997802734375">
        <ele>97.1999969482421875</ele>
        <time>2018-09-06T11:39:46.000Z</time>
      </trkpt>
      <trkpt lat="43.40864329598844051361083984375" lon="-4.7170507907867431640625">
        <ele>97.8000030517578125</ele>
        <time>2018-09-06T11:39:50.000Z</time>
      </trkpt>
      <trkpt lat="43.4086413681507110595703125" lon="-4.71696621738374233245849609375">
        <ele>98.1999969482421875</ele>
        <time>2018-09-06T11:39:54.000Z</time>
      </trkpt>
      <trkpt lat="43.40863977558910846710205078125" lon="-4.71693344414234161376953125">
        <ele>98.59999847412109375</ele>
        <time>2018-09-06T11:39:56.000Z</time>
      </trkpt>
      <trkpt lat="43.40871655382215976715087890625" lon="-4.7164115868508815765380859375">
        <ele>102.8000030517578125</ele>
        <time>2018-09-06T11:40:23.000Z</time>
      </trkpt>
      <trkpt lat="43.40871906839311122894287109375" lon="-4.71636339090764522552490234375">
        <ele>103.40000152587890625</ele>
        <time>2018-09-06T11:40:25.000Z</time>
      </trkpt>
      <trkpt lat="43.4087213315069675445556640625" lon="-4.7163395024836063385009765625">
        <ele>103.59999847412109375</ele>
        <time>2018-09-06T11:40:26.000Z</time>
      </trkpt>
      <trkpt lat="43.40872359462082386016845703125" lon="-4.7163193859159946441650390625">
        <ele>103.8000030517578125</ele>
        <time>2018-09-06T11:40:27.000Z</time>
      </trkpt>
      <trkpt lat="43.40874270536005496978759765625" lon="-4.71617035567760467529296875">
        <ele>105</ele>
        <time>2018-09-06T11:40:33.000Z</time>
      </trkpt>
      <trkpt lat="43.40875745750963687896728515625" lon="-4.71604437567293643951416015625">
        <ele>106</ele>
        <time>2018-09-06T11:40:39.000Z</time>
      </trkpt>
      <trkpt lat="43.4087612293660640716552734375" lon="-4.71602551639080047607421875">
        <ele>106.1999969482421875</ele>
        <time>2018-09-06T11:40:40.000Z</time>
      </trkpt>
      <trkpt lat="43.40878729708492755889892578125" lon="-4.715945385396480560302734375">
        <ele>106.8000030517578125</ele>
        <time>2018-09-06T11:40:44.000Z</time>
      </trkpt>
      <trkpt lat="43.4087977744638919830322265625" lon="-4.7158989496529102325439453125">
        <ele>107.1999969482421875</ele>
        <time>2018-09-06T11:40:46.000Z</time>
      </trkpt>
      <trkpt lat="43.40879852883517742156982421875" lon="-4.7158848680555820465087890625">
        <ele>107.40000152587890625</ele>
        <time>2018-09-06T11:40:47.000Z</time>
      </trkpt>
      <trkpt lat="43.40882250107824802398681640625" lon="-4.71581772901117801666259765625">
        <ele>108.1999969482421875</ele>
        <time>2018-09-06T11:40:50.000Z</time>
      </trkpt>
      <trkpt lat="43.4088484011590480804443359375" lon="-4.71575729548931121826171875">
        <ele>108.8000030517578125</ele>
        <time>2018-09-06T11:40:53.000Z</time>
      </trkpt>
      <trkpt lat="43.4088876284658908843994140625" lon="-4.71567473374307155609130859375">
        <ele>109.1999969482421875</ele>
        <time>2018-09-06T11:40:57.000Z</time>
      </trkpt>
      <trkpt lat="43.40891637839376926422119140625" lon="-4.715597368776798248291015625">
        <ele>109.8000030517578125</ele>
        <time>2018-09-06T11:41:01.000Z</time>
      </trkpt>
      <trkpt lat="43.4089486487209796905517578125" lon="-4.715532995760440826416015625">
        <ele>110.40000152587890625</ele>
        <time>2018-09-06T11:41:05.000Z</time>
      </trkpt>
      <trkpt lat="43.40899064205586910247802734375" lon="-4.71545747481286525726318359375">
        <ele>110.8000030517578125</ele>
        <time>2018-09-06T11:41:09.000Z</time>
      </trkpt>
      <trkpt lat="43.40903406031429767608642578125" lon="-4.7153826244175434112548828125">
        <ele>111.59999847412109375</ele>
        <time>2018-09-06T11:41:13.000Z</time>
      </trkpt>
      <trkpt lat="43.4090676717460155487060546875" lon="-4.71531179733574390411376953125">
        <ele>112.1999969482421875</ele>
        <time>2018-09-06T11:41:16.000Z</time>
      </trkpt>
      <trkpt lat="43.40908686630427837371826171875" lon="-4.7152505256235599517822265625">
        <ele>112.59999847412109375</ele>
        <time>2018-09-06T11:41:19.000Z</time>
      </trkpt>
      <trkpt lat="43.4091018699109554290771484375" lon="-4.71519411541521549224853515625">
        <ele>113.1999969482421875</ele>
        <time>2018-09-06T11:41:22.000Z</time>
      </trkpt>
      <trkpt lat="43.409107737243175506591796875" lon="-4.7151745855808258056640625">
        <ele>113.59999847412109375</ele>
        <time>2018-09-06T11:41:23.000Z</time>
      </trkpt>
      <trkpt lat="43.409113101661205291748046875" lon="-4.71515438519418239593505859375">
        <ele>113.59999847412109375</ele>
        <time>2018-09-06T11:41:24.000Z</time>
      </trkpt>
      <trkpt lat="43.40914319269359111785888671875" lon="-4.715060926973819732666015625">
        <ele>114.40000152587890625</ele>
        <time>2018-09-06T11:41:29.000Z</time>
      </trkpt>
      <trkpt lat="43.40916163288056850433349609375" lon="-4.71502563916146755218505859375">
        <ele>114.8000030517578125</ele>
        <time>2018-09-06T11:41:31.000Z</time>
      </trkpt>
      <trkpt lat="43.40920203365385532379150390625" lon="-4.71488197334110736846923828125">
        <ele>115.8000030517578125</ele>
        <time>2018-09-06T11:41:37.000Z</time>
      </trkpt>
      <trkpt lat="43.4092094935476779937744140625" lon="-4.71485339105129241943359375">
        <ele>116</ele>
        <time>2018-09-06T11:41:38.000Z</time>
      </trkpt>
      <trkpt lat="43.4092475473880767822265625" lon="-4.714709557592868804931640625">
        <ele>117</ele>
        <time>2018-09-06T11:41:44.000Z</time>
      </trkpt>
      <trkpt lat="43.40925601311028003692626953125" lon="-4.714687764644622802734375">
        <ele>117.40000152587890625</ele>
        <time>2018-09-06T11:41:45.000Z</time>
      </trkpt>
      <trkpt lat="43.409288115799427032470703125" lon="-4.714597575366497039794921875">
        <ele>118.1999969482421875</ele>
        <time>2018-09-06T11:41:49.000Z</time>
      </trkpt>
      <trkpt lat="43.40931368060410022735595703125" lon="-4.71454770304262638092041015625">
        <ele>118.8000030517578125</ele>
        <time>2018-09-06T11:41:52.000Z</time>
      </trkpt>
      <trkpt lat="43.40935089625418186187744140625" lon="-4.71449204720556735992431640625">
        <ele>119.40000152587890625</ele>
        <time>2018-09-06T11:41:55.000Z</time>
      </trkpt>
      <trkpt lat="43.40939884074032306671142578125" lon="-4.71440336667001247406005859375">
        <ele>120.1999969482421875</ele>
        <time>2018-09-06T11:41:59.000Z</time>
      </trkpt>
      <trkpt lat="43.40941183269023895263671875" lon="-4.71439263783395290374755859375">
        <ele>120.40000152587890625</ele>
        <time>2018-09-06T11:42:00.000Z</time>
      </trkpt>
      <trkpt lat="43.4094260819256305694580078125" lon="-4.7143784724175930023193359375">
        <ele>121.59999847412109375</ele>
        <time>2018-09-06T11:42:03.000Z</time>
      </trkpt>
      <trkpt lat="43.4094579331576824188232421875" lon="-4.71433329395949840545654296875">
        <ele>122.40000152587890625</ele>
        <time>2018-09-06T11:42:06.000Z</time>
      </trkpt>
      <trkpt lat="43.4094755351543426513671875" lon="-4.714315272867679595947265625">
        <ele>122.8000030517578125</ele>
        <time>2018-09-06T11:42:08.000Z</time>
      </trkpt>
      <trkpt lat="43.40955055318772792816162109375" lon="-4.7142762131989002227783203125">
        <ele>123.1999969482421875</ele>
        <time>2018-09-06T11:42:13.000Z</time>
      </trkpt>
      <trkpt lat="43.40963839553296566009521484375" lon="-4.7142483852803707122802734375">
        <ele>122.8000030517578125</ele>
        <time>2018-09-06T11:42:17.000Z</time>
      </trkpt>
      <trkpt lat="43.409671671688556671142578125" lon="-4.71424662508070468902587890625">
        <ele>122.8000030517578125</ele>
        <time>2018-09-06T11:42:19.000Z</time>
      </trkpt>
      <trkpt lat="43.4096973203122615814208984375" lon="-4.71426355652511119842529296875">
        <ele>122.59999847412109375</ele>
        <time>2018-09-06T11:42:22.000Z</time>
      </trkpt>
      <trkpt lat="43.40971224009990692138671875" lon="-4.71429892815649509429931640625">
        <ele>122.1999969482421875</ele>
        <time>2018-09-06T11:42:24.000Z</time>
      </trkpt>
      <trkpt lat="43.4097402356564998626708984375" lon="-4.714368917047977447509765625">
        <ele>121.59999847412109375</ele>
        <time>2018-09-06T11:42:27.000Z</time>
      </trkpt>
      <trkpt lat="43.40977116487920284271240234375" lon="-4.7144396603107452392578125">
        <ele>120.59999847412109375</ele>
        <time>2018-09-06T11:42:29.000Z</time>
      </trkpt>
      <trkpt lat="43.40978600084781646728515625" lon="-4.7144787199795246124267578125">
        <ele>120.1999969482421875</ele>
        <time>2018-09-06T11:42:30.000Z</time>
      </trkpt>
      <trkpt lat="43.409817852079868316650390625" lon="-4.7145679034292697906494140625">
        <ele>119.8000030517578125</ele>
        <time>2018-09-06T11:42:32.000Z</time>
      </trkpt>
      <trkpt lat="43.40984500944614410400390625" lon="-4.71466655842959880828857421875">
        <ele>118.40000152587890625</ele>
        <time>2018-09-06T11:42:34.000Z</time>
      </trkpt>
      <trkpt lat="43.4098698198795318603515625" lon="-4.71479379571974277496337890625">
        <ele>117.40000152587890625</ele>
        <time>2018-09-06T11:42:37.000Z</time>
      </trkpt>
      <trkpt lat="43.40986822731792926788330078125" lon="-4.71482799388468265533447265625">
        <ele>117.40000152587890625</ele>
        <time>2018-09-06T11:42:38.000Z</time>
      </trkpt>
      <trkpt lat="43.40986588038504123687744140625" lon="-4.71486504189670085906982421875">
        <ele>117</ele>
        <time>2018-09-06T11:42:39.000Z</time>
      </trkpt>
      <trkpt lat="43.40984769165515899658203125" lon="-4.71507710404694080352783203125">
        <ele>117</ele>
        <time>2018-09-06T11:42:45.000Z</time>
      </trkpt>
      <trkpt lat="43.40984710492193698883056640625" lon="-4.71531808376312255859375">
        <ele>116.59999847412109375</ele>
        <time>2018-09-06T11:42:51.000Z</time>
      </trkpt>
      <trkpt lat="43.40983587317168712615966796875" lon="-4.71548547036945819854736328125">
        <ele>117.1999969482421875</ele>
        <time>2018-09-06T11:42:56.000Z</time>
      </trkpt>
      <trkpt lat="43.40984559617936611175537109375" lon="-4.71555436961352825164794921875">
        <ele>117.40000152587890625</ele>
        <time>2018-09-06T11:42:58.000Z</time>
      </trkpt>
      <trkpt lat="43.409892953932285308837890625" lon="-4.715715385973453521728515625">
        <ele>117.1999969482421875</ele>
        <time>2018-09-06T11:43:02.000Z</time>
      </trkpt>
      <trkpt lat="43.4099234640598297119140625" lon="-4.7158204950392246246337890625">
        <ele>116.59999847412109375</ele>
        <time>2018-09-06T11:43:04.000Z</time>
      </trkpt>
      <trkpt lat="43.4099578298628330230712890625" lon="-4.71594831906259059906005859375">
        <ele>116.1999969482421875</ele>
        <time>2018-09-06T11:43:06.000Z</time>
      </trkpt>
      <trkpt lat="43.40997903607785701751708984375" lon="-4.716017805039882659912109375">
        <ele>115.8000030517578125</ele>
        <time>2018-09-06T11:43:07.000Z</time>
      </trkpt>
      <trkpt lat="43.4100205264985561370849609375" lon="-4.7161711938679218292236328125">
        <ele>114.59999847412109375</ele>
        <time>2018-09-06T11:43:09.000Z</time>
      </trkpt>
      <trkpt lat="43.410061262547969818115234375" lon="-4.71632952801883220672607421875">
        <ele>113.59999847412109375</ele>
        <time>2018-09-06T11:43:11.000Z</time>
      </trkpt>
      <trkpt lat="43.41007576324045658111572265625" lon="-4.71640613861382007598876953125">
        <ele>113.1999969482421875</ele>
        <time>2018-09-06T11:43:12.000Z</time>
      </trkpt>
      <trkpt lat="43.4100667946040630340576171875" lon="-4.71645827405154705047607421875">
        <ele>113.40000152587890625</ele>
        <time>2018-09-06T11:43:14.000Z</time>
      </trkpt>
      <trkpt lat="43.4100470133125782012939453125" lon="-4.7164987586438655853271484375">
        <ele>114</ele>
        <time>2018-09-06T11:43:16.000Z</time>
      </trkpt>
      <trkpt lat="43.4100416488945484161376953125" lon="-4.716514684259891510009765625">
        <ele>114.40000152587890625</ele>
        <time>2018-09-06T11:43:17.000Z</time>
      </trkpt>
      <trkpt lat="43.41004055924713611602783203125" lon="-4.71655215136706829071044921875">
        <ele>114.59999847412109375</ele>
        <time>2018-09-06T11:43:19.000Z</time>
      </trkpt>
      <trkpt lat="43.4100615978240966796875" lon="-4.7166114114224910736083984375">
        <ele>114.40000152587890625</ele>
        <time>2018-09-06T11:43:23.000Z</time>
      </trkpt>
      <trkpt lat="43.41007408685982227325439453125" lon="-4.7166881896555423736572265625">
        <ele>114.1999969482421875</ele>
        <time>2018-09-06T11:43:28.000Z</time>
      </trkpt>
      <trkpt lat="43.41006419621407985687255859375" lon="-4.716703779995441436767578125">
        <ele>114.1999969482421875</ele>
        <time>2018-09-06T11:43:29.000Z</time>
      </trkpt>
      <trkpt lat="43.41004424728453159332275390625" lon="-4.716722555458545684814453125">
        <ele>114</ele>
        <time>2018-09-06T11:43:31.000Z</time>
      </trkpt>
      <trkpt lat="43.41002178378403186798095703125" lon="-4.716675616800785064697265625">
        <ele>114.1999969482421875</ele>
        <time>2018-09-06T11:43:34.000Z</time>
      </trkpt>
      <trkpt lat="43.4099930338561534881591796875" lon="-4.716618955135345458984375">
        <ele>113.59999847412109375</ele>
        <time>2018-09-06T11:43:38.000Z</time>
      </trkpt>
      <trkpt lat="43.4099672175943851470947265625" lon="-4.716621972620487213134765625">
        <ele>114.8000030517578125</ele>
        <time>2018-09-06T11:43:40.000Z</time>
      </trkpt>
      <trkpt lat="43.4099574945867061614990234375" lon="-4.716667234897613525390625">
        <ele>114.59999847412109375</ele>
        <time>2018-09-06T11:43:42.000Z</time>
      </trkpt>
      <trkpt lat="43.40995020233094692230224609375" lon="-4.71670654602348804473876953125">
        <ele>115</ele>
        <time>2018-09-06T11:43:44.000Z</time>
      </trkpt>
      <trkpt lat="43.409939892590045928955078125" lon="-4.716753400862216949462890625">
        <ele>115.59999847412109375</ele>
        <time>2018-09-06T11:43:47.000Z</time>
      </trkpt>
      <trkpt lat="43.40993762947618961334228515625" lon="-4.716772176325321197509765625">
        <ele>116</ele>
        <time>2018-09-06T11:43:48.000Z</time>
      </trkpt>
      <trkpt lat="43.4099333547055721282958984375" lon="-4.71681249327957630157470703125">
        <ele>116.40000152587890625</ele>
        <time>2018-09-06T11:43:50.000Z</time>
      </trkpt>
      <trkpt lat="43.409931175410747528076171875" lon="-4.71685943193733692169189453125">
        <ele>116.40000152587890625</ele>
        <time>2018-09-06T11:43:52.000Z</time>
      </trkpt>
      <trkpt lat="43.40993561781942844390869140625" lon="-4.71693688072264194488525390625">
        <ele>117</ele>
        <time>2018-09-06T11:43:55.000Z</time>
      </trkpt>
      <trkpt lat="43.40994215570390224456787109375" lon="-4.7171126492321491241455078125">
        <ele>117.40000152587890625</ele>
        <time>2018-09-06T11:44:01.000Z</time>
      </trkpt>
      <trkpt lat="43.40996411629021167755126953125" lon="-4.71739134751260280609130859375">
        <ele>117.59999847412109375</ele>
        <time>2018-09-06T11:44:08.000Z</time>
      </trkpt>
      <trkpt lat="43.4099786169826984405517578125" lon="-4.7175796888768672943115234375">
        <ele>117.40000152587890625</ele>
        <time>2018-09-06T11:44:12.000Z</time>
      </trkpt>
      <trkpt lat="43.40997601859271526336669921875" lon="-4.7178133763372898101806640625">
        <ele>117.40000152587890625</ele>
        <time>2018-09-06T11:44:17.000Z</time>
      </trkpt>
      <trkpt lat="43.40997065417468547821044921875" lon="-4.71796316094696521759033203125">
        <ele>117.1999969482421875</ele>
        <time>2018-09-06T11:44:20.000Z</time>
      </trkpt>
      <trkpt lat="43.4099615179002285003662109375" lon="-4.718149490654468536376953125">
        <ele>116.8000030517578125</ele>
        <time>2018-09-06T11:44:23.000Z</time>
      </trkpt>
      <trkpt lat="43.409959338605403900146484375" lon="-4.71820992417633533477783203125">
        <ele>116.40000152587890625</ele>
        <time>2018-09-06T11:44:24.000Z</time>
      </trkpt>
      <trkpt lat="43.40996277518570423126220703125" lon="-4.71843573264777660369873046875">
        <ele>117.40000152587890625</ele>
        <time>2018-09-06T11:44:29.000Z</time>
      </trkpt>
      <trkpt lat="43.40996327809989452362060546875" lon="-4.71856288611888885498046875">
        <ele>118</ele>
        <time>2018-09-06T11:44:32.000Z</time>
      </trkpt>
      <trkpt lat="43.4099524654448032379150390625" lon="-4.7188463620841503143310546875">
        <ele>118.1999969482421875</ele>
        <time>2018-09-06T11:44:39.000Z</time>
      </trkpt>
      <trkpt lat="43.410011641681194305419921875" lon="-4.71902900375425815582275390625">
        <ele>116.8000030517578125</ele>
        <time>2018-09-06T11:44:43.000Z</time>
      </trkpt>
      <trkpt lat="43.4100916050374507904052734375" lon="-4.7190723381936550140380859375">
        <ele>115.40000152587890625</ele>
        <time>2018-09-06T11:44:45.000Z</time>
      </trkpt>
      <trkpt lat="43.4101368673145771026611328125" lon="-4.719059430062770843505859375">
        <ele>115</ele>
        <time>2018-09-06T11:44:46.000Z</time>
      </trkpt>
      <trkpt lat="43.4101938642561435699462890625" lon="-4.719034619629383087158203125">
        <ele>115.1999969482421875</ele>
        <time>2018-09-06T11:44:48.000Z</time>
      </trkpt>
      <trkpt lat="43.410221524536609649658203125" lon="-4.719032607972621917724609375">
        <ele>116.8000030517578125</ele>
        <time>2018-09-06T11:44:50.000Z</time>
      </trkpt>
      <trkpt lat="43.41026552952826023101806640625" lon="-4.71903084777295589447021484375">
        <ele>117.59999847412109375</ele>
        <time>2018-09-06T11:44:53.000Z</time>
      </trkpt>
      <trkpt lat="43.4102828800678253173828125" lon="-4.7190316021442413330078125">
        <ele>117.8000030517578125</ele>
        <time>2018-09-06T11:44:54.000Z</time>
      </trkpt>
      <trkpt lat="43.4103091992437839508056640625" lon="-4.71904157660901546478271484375">
        <ele>118.59999847412109375</ele>
        <time>2018-09-06T11:44:56.000Z</time>
      </trkpt>
      <trkpt lat="43.41033451259136199951171875" lon="-4.719064794480800628662109375">
        <ele>119.1999969482421875</ele>
        <time>2018-09-06T11:44:58.000Z</time>
      </trkpt>
      <trkpt lat="43.41035907156765460968017578125" lon="-4.7190892696380615234375">
        <ele>119.59999847412109375</ele>
        <time>2018-09-06T11:45:00.000Z</time>
      </trkpt>
      <trkpt lat="43.4103705547749996185302734375" lon="-4.7191269882023334503173828125">
        <ele>120.1999969482421875</ele>
        <time>2018-09-06T11:45:02.000Z</time>
      </trkpt>
      <trkpt lat="43.4103708900511264801025390625" lon="-4.7191481105983257293701171875">
        <ele>120.40000152587890625</ele>
        <time>2018-09-06T11:45:03.000Z</time>
      </trkpt>
      <trkpt lat="43.4103729017078876495361328125" lon="-4.71919060684740543365478515625">
        <ele>120.8000030517578125</ele>
        <time>2018-09-06T11:45:05.000Z</time>
      </trkpt>
      <trkpt lat="43.41037382371723651885986328125" lon="-4.71921457909047603607177734375">
        <ele>121.1999969482421875</ele>
        <time>2018-09-06T11:45:06.000Z</time>
      </trkpt>
      <trkpt lat="43.41037533245980739593505859375" lon="-4.71924207173287868499755859375">
        <ele>121.1999969482421875</ele>
        <time>2018-09-06T11:45:07.000Z</time>
      </trkpt>
      <trkpt lat="43.41038145124912261962890625" lon="-4.7192936204373836517333984375">
        <ele>121.59999847412109375</ele>
        <time>2018-09-06T11:45:09.000Z</time>
      </trkpt>
      <trkpt lat="43.4103879891335964202880859375" lon="-4.71931834705173969268798828125">
        <ele>121.8000030517578125</ele>
        <time>2018-09-06T11:45:10.000Z</time>
      </trkpt>
      <trkpt lat="43.4104020707309246063232421875" lon="-4.71948481164872646331787109375">
        <ele>122.40000152587890625</ele>
        <time>2018-09-06T11:45:15.000Z</time>
      </trkpt>
      <trkpt lat="43.41040902771055698394775390625" lon="-4.71955136395990848541259765625">
        <ele>122.59999847412109375</ele>
        <time>2018-09-06T11:45:17.000Z</time>
      </trkpt>
      <trkpt lat="43.4104218520224094390869140625" lon="-4.7197677008807659149169921875">
        <ele>122.40000152587890625</ele>
        <time>2018-09-06T11:45:23.000Z</time>
      </trkpt>
      <trkpt lat="43.41043249703943729400634765625" lon="-4.71984095871448516845703125">
        <ele>122.59999847412109375</ele>
        <time>2018-09-06T11:45:25.000Z</time>
      </trkpt>
      <trkpt lat="43.41047088615596294403076171875" lon="-4.7200669348239898681640625">
        <ele>122</ele>
        <time>2018-09-06T11:45:30.000Z</time>
      </trkpt>
      <trkpt lat="43.4104788489639759063720703125" lon="-4.72012124955654144287109375">
        <ele>122</ele>
        <time>2018-09-06T11:45:31.000Z</time>
      </trkpt>
      <trkpt lat="43.41048412956297397613525390625" lon="-4.72017849795520305633544921875">
        <ele>121.8000030517578125</ele>
        <time>2018-09-06T11:45:32.000Z</time>
      </trkpt>
      <trkpt lat="43.410503827035427093505859375" lon="-4.720308668911457061767578125">
        <ele>121.40000152587890625</ele>
        <time>2018-09-06T11:45:34.000Z</time>
      </trkpt>
      <trkpt lat="43.41051463969051837921142578125" lon="-4.72037983126938343048095703125">
        <ele>121.1999969482421875</ele>
        <time>2018-09-06T11:45:35.000Z</time>
      </trkpt>
      <trkpt lat="43.4105231054127216339111328125" lon="-4.72045392729341983795166015625">
        <ele>121</ele>
        <time>2018-09-06T11:45:36.000Z</time>
      </trkpt>
      <trkpt lat="43.4105351753532886505126953125" lon="-4.72060178406536579132080078125">
        <ele>120.1999969482421875</ele>
        <time>2018-09-06T11:45:38.000Z</time>
      </trkpt>
      <trkpt lat="43.41053894720971584320068359375" lon="-4.72067403607070446014404296875">
        <ele>120.1999969482421875</ele>
        <time>2018-09-06T11:45:39.000Z</time>
      </trkpt>
      <trkpt lat="43.41053945012390613555908203125" lon="-4.72081468440592288970947265625">
        <ele>120</ele>
        <time>2018-09-06T11:45:41.000Z</time>
      </trkpt>
      <trkpt lat="43.41054079122841358184814453125" lon="-4.72095315344631671905517578125">
        <ele>120</ele>
        <time>2018-09-06T11:45:43.000Z</time>
      </trkpt>
      <trkpt lat="43.410548083484172821044921875" lon="-4.7210848331451416015625">
        <ele>120</ele>
        <time>2018-09-06T11:45:45.000Z</time>
      </trkpt>
      <trkpt lat="43.41056660749018192291259765625" lon="-4.7212804667651653289794921875">
        <ele>119.8000030517578125</ele>
        <time>2018-09-06T11:45:48.000Z</time>
      </trkpt>
      <trkpt lat="43.41058085672557353973388671875" lon="-4.72141952253878116607666015625">
        <ele>119.59999847412109375</ele>
        <time>2018-09-06T11:45:50.000Z</time>
      </trkpt>
      <trkpt lat="43.4105770848691463470458984375" lon="-4.7214755974709987640380859375">
        <ele>119</ele>
        <time>2018-09-06T11:45:51.000Z</time>
      </trkpt>
      <trkpt lat="43.41056375764310359954833984375" lon="-4.721527062356472015380859375">
        <ele>118.59999847412109375</ele>
        <time>2018-09-06T11:45:52.000Z</time>
      </trkpt>
      <trkpt lat="43.41053961776196956634521484375" lon="-4.72157768905162811279296875">
        <ele>118</ele>
        <time>2018-09-06T11:45:53.000Z</time>
      </trkpt>
      <trkpt lat="43.41041321866214275360107421875" lon="-4.721774496138095855712890625">
        <ele>117</ele>
        <time>2018-09-06T11:45:57.000Z</time>
      </trkpt>
      <trkpt lat="43.41038404963910579681396484375" lon="-4.7218318283557891845703125">
        <ele>116.8000030517578125</ele>
        <time>2018-09-06T11:45:58.000Z</time>
      </trkpt>
      <trkpt lat="43.4102870710194110870361328125" lon="-4.72201681695878505706787109375">
        <ele>116.40000152587890625</ele>
        <time>2018-09-06T11:46:02.000Z</time>
      </trkpt>
      <trkpt lat="43.4103298187255859375" lon="-4.722128212451934814453125">
        <ele>117.1999969482421875</ele>
        <time>2018-09-06T11:46:05.000Z</time>
      </trkpt>
      <trkpt lat="43.4103660285472869873046875" lon="-4.7221786715090274810791015625">
        <ele>117.8000030517578125</ele>
        <time>2018-09-06T11:46:07.000Z</time>
      </trkpt>
      <trkpt lat="43.4103816188871860504150390625" lon="-4.72220524214208126068115234375">
        <ele>118</ele>
        <time>2018-09-06T11:46:08.000Z</time>
      </trkpt>
      <trkpt lat="43.4104144759476184844970703125" lon="-4.72226592712104320526123046875">
        <ele>118.40000152587890625</ele>
        <time>2018-09-06T11:46:10.000Z</time>
      </trkpt>
      <trkpt lat="43.4104443155229091644287109375" lon="-4.72233080305159091949462890625">
        <ele>119</ele>
        <time>2018-09-06T11:46:12.000Z</time>
      </trkpt>
      <trkpt lat="43.41045579873025417327880859375" lon="-4.7223640792071819305419921875">
        <ele>119.1999969482421875</ele>
        <time>2018-09-06T11:46:13.000Z</time>
      </trkpt>
      <trkpt lat="43.4105028212070465087890625" lon="-4.7224639914929866790771484375">
        <ele>119.40000152587890625</ele>
        <time>2018-09-06T11:46:16.000Z</time>
      </trkpt>
      <trkpt lat="43.41052955947816371917724609375" lon="-4.72253800369799137115478515625">
        <ele>119.8000030517578125</ele>
        <time>2018-09-06T11:46:18.000Z</time>
      </trkpt>
      <trkpt lat="43.4105516038835048675537109375" lon="-4.72265970893204212188720703125">
        <ele>120</ele>
        <time>2018-09-06T11:46:21.000Z</time>
      </trkpt>
      <trkpt lat="43.41055872850120067596435546875" lon="-4.72274151630699634552001953125">
        <ele>120.40000152587890625</ele>
        <time>2018-09-06T11:46:23.000Z</time>
      </trkpt>
      <trkpt lat="43.41056677512824535369873046875" lon="-4.72282097674906253814697265625">
        <ele>120.59999847412109375</ele>
        <time>2018-09-06T11:46:25.000Z</time>
      </trkpt>
      <trkpt lat="43.410612456500530242919921875" lon="-4.72320470027625560760498046875">
        <ele>120.8000030517578125</ele>
        <time>2018-09-06T11:46:34.000Z</time>
      </trkpt>
      <trkpt lat="43.410686217248439788818359375" lon="-4.72338415682315826416015625">
        <ele>120.40000152587890625</ele>
        <time>2018-09-06T11:46:38.000Z</time>
      </trkpt>
      <trkpt lat="43.4107179008424282073974609375" lon="-4.72341902554035186767578125">
        <ele>120</ele>
        <time>2018-09-06T11:46:39.000Z</time>
      </trkpt>
      <trkpt lat="43.4107933379709720611572265625" lon="-4.72345196641981601715087890625">
        <ele>119.8000030517578125</ele>
        <time>2018-09-06T11:46:41.000Z</time>
      </trkpt>
      <trkpt lat="43.41085963882505893707275390625" lon="-4.7234440036118030548095703125">
        <ele>119.8000030517578125</ele>
        <time>2018-09-06T11:46:43.000Z</time>
      </trkpt>
      <trkpt lat="43.41094471514225006103515625" lon="-4.72343570552766323089599609375">
        <ele>121</ele>
        <time>2018-09-06T11:47:23.000Z</time>
      </trkpt>
      <trkpt lat="43.41096458025276660919189453125" lon="-4.72343838773667812347412109375">
        <ele>121</ele>
        <time>2018-09-06T11:47:24.000Z</time>
      </trkpt>
      <trkpt lat="43.41107002459466457366943359375" lon="-4.72351885400712490081787109375">
        <ele>121</ele>
        <time>2018-09-06T11:47:29.000Z</time>
      </trkpt>
      <trkpt lat="43.41109265573322772979736328125" lon="-4.723623879253864288330078125">
        <ele>121.59999847412109375</ele>
        <time>2018-09-06T11:47:32.000Z</time>
      </trkpt>
      <trkpt lat="43.41110003180801868438720703125" lon="-4.72368900664150714874267578125">
        <ele>122</ele>
        <time>2018-09-06T11:47:34.000Z</time>
      </trkpt>
      <trkpt lat="43.41110036708414554595947265625" lon="-4.72375296056270599365234375">
        <ele>122.1999969482421875</ele>
        <time>2018-09-06T11:47:36.000Z</time>
      </trkpt>
      <trkpt lat="43.41110019944608211517333984375" lon="-4.7238205187022686004638671875">
        <ele>122.59999847412109375</ele>
        <time>2018-09-06T11:47:38.000Z</time>
      </trkpt>
      <trkpt lat="43.41109064407646656036376953125" lon="-4.723921604454517364501953125">
        <ele>123.40000152587890625</ele>
        <time>2018-09-06T11:47:41.000Z</time>
      </trkpt>
      <trkpt lat="43.4110763110220432281494140625" lon="-4.72407474182546138763427734375">
        <ele>122.40000152587890625</ele>
        <time>2018-09-06T11:47:46.000Z</time>
      </trkpt>
      <trkpt lat="43.41107337735593318939208984375" lon="-4.7241018153727054595947265625">
        <ele>124.1999969482421875</ele>
        <time>2018-09-06T11:47:47.000Z</time>
      </trkpt>
      <trkpt lat="43.4110615588724613189697265625" lon="-4.7241571359336376190185546875">
        <ele>125.8000030517578125</ele>
        <time>2018-09-06T11:47:49.000Z</time>
      </trkpt>
      <trkpt lat="43.41105426661670207977294921875" lon="-4.72418471239507198333740234375">
        <ele>124.40000152587890625</ele>
        <time>2018-09-06T11:47:50.000Z</time>
      </trkpt>
      <trkpt lat="43.41103381477296352386474609375" lon="-4.72427573986351490020751953125">
        <ele>124</ele>
        <time>2018-09-06T11:47:53.000Z</time>
      </trkpt>
      <trkpt lat="43.4110038913786411285400390625" lon="-4.72447891719639301300048828125">
        <ele>124.59999847412109375</ele>
        <time>2018-09-06T11:47:59.000Z</time>
      </trkpt>
      <trkpt lat="43.41101713478565216064453125" lon="-4.7246749699115753173828125">
        <ele>124.1999969482421875</ele>
        <time>2018-09-06T11:48:04.000Z</time>
      </trkpt>
      <trkpt lat="43.4110250137746334075927734375" lon="-4.72472886554896831512451171875">
        <ele>123.8000030517578125</ele>
        <time>2018-09-06T11:48:05.000Z</time>
      </trkpt>
      <trkpt lat="43.4110317192971706390380859375" lon="-4.72478603012859821319580078125">
        <ele>123.1999969482421875</ele>
        <time>2018-09-06T11:48:06.000Z</time>
      </trkpt>
      <trkpt lat="43.411042280495166778564453125" lon="-4.72491578198969364166259765625">
        <ele>122</ele>
        <time>2018-09-06T11:48:08.000Z</time>
      </trkpt>
      <trkpt lat="43.41103917919099330902099609375" lon="-4.724987782537937164306640625">
        <ele>121.1999969482421875</ele>
        <time>2018-09-06T11:48:09.000Z</time>
      </trkpt>
      <trkpt lat="43.41102652251720428466796875" lon="-4.7250610403716564178466796875">
        <ele>120.59999847412109375</ele>
        <time>2018-09-06T11:48:10.000Z</time>
      </trkpt>
      <trkpt lat="43.4109649993479251861572265625" lon="-4.72518584690988063812255859375">
        <ele>119.1999969482421875</ele>
        <time>2018-09-06T11:48:12.000Z</time>
      </trkpt>
      <trkpt lat="43.410918898880481719970703125" lon="-4.7252447716891765594482421875">
        <ele>118.8000030517578125</ele>
        <time>2018-09-06T11:48:13.000Z</time>
      </trkpt>
      <trkpt lat="43.41087020002305507659912109375" lon="-4.72530151717364788055419921875">
        <ele>117.8000030517578125</ele>
        <time>2018-09-06T11:48:14.000Z</time>
      </trkpt>
      <trkpt lat="43.4107665158808231353759765625" lon="-4.72539572976529598236083984375">
        <ele>116</ele>
        <time>2018-09-06T11:48:16.000Z</time>
      </trkpt>
      <trkpt lat="43.4107138775289058685302734375" lon="-4.72543646581470966339111328125">
        <ele>115</ele>
        <time>2018-09-06T11:48:17.000Z</time>
      </trkpt>
      <trkpt lat="43.410670794546604156494140625" lon="-4.725477956235408782958984375">
        <ele>114</ele>
        <time>2018-09-06T11:48:18.000Z</time>
      </trkpt>
      <trkpt lat="43.41064321808516979217529296875" lon="-4.72552011720836162567138671875">
        <ele>113.1999969482421875</ele>
        <time>2018-09-06T11:48:19.000Z</time>
      </trkpt>
      <trkpt lat="43.4106337465345859527587890625" lon="-4.7255746833980083465576171875">
        <ele>112.40000152587890625</ele>
        <time>2018-09-06T11:48:20.000Z</time>
      </trkpt>
      <trkpt lat="43.41063885949552059173583984375" lon="-4.72562790848314762115478515625">
        <ele>112</ele>
        <time>2018-09-06T11:48:21.000Z</time>
      </trkpt>
      <trkpt lat="43.41072318144142627716064453125" lon="-4.7257201932370662689208984375">
        <ele>111.59999847412109375</ele>
        <time>2018-09-06T11:48:24.000Z</time>
      </trkpt>
      <trkpt lat="43.4107531048357486724853515625" lon="-4.72573804669082164764404296875">
        <ele>111.59999847412109375</ele>
        <time>2018-09-06T11:48:25.000Z</time>
      </trkpt>
      <trkpt lat="43.41080465354025363922119140625" lon="-4.7257785312831401824951171875">
        <ele>112.40000152587890625</ele>
        <time>2018-09-06T11:48:27.000Z</time>
      </trkpt>
      <trkpt lat="43.41085360385477542877197265625" lon="-4.7258261404931545257568359375">
        <ele>112.8000030517578125</ele>
        <time>2018-09-06T11:48:29.000Z</time>
      </trkpt>
      <trkpt lat="43.41089777648448944091796875" lon="-4.725876934826374053955078125">
        <ele>113</ele>
        <time>2018-09-06T11:48:31.000Z</time>
      </trkpt>
      <trkpt lat="43.41093926690518856048583984375" lon="-4.72592378966510295867919921875">
        <ele>113.1999969482421875</ele>
        <time>2018-09-06T11:48:33.000Z</time>
      </trkpt>
      <trkpt lat="43.4109820984303951263427734375" lon="-4.72596720792353153228759765625">
        <ele>113.59999847412109375</ele>
        <time>2018-09-06T11:48:35.000Z</time>
      </trkpt>
      <trkpt lat="43.411007411777973175048828125" lon="-4.726025126874446868896484375">
        <ele>113.8000030517578125</ele>
        <time>2018-09-06T11:48:37.000Z</time>
      </trkpt>
      <trkpt lat="43.41100313700735569000244140625" lon="-4.72605957649648189544677734375">
        <ele>113.8000030517578125</ele>
        <time>2018-09-06T11:48:38.000Z</time>
      </trkpt>
      <trkpt lat="43.41095921583473682403564453125" lon="-4.72616158425807952880859375">
        <ele>113.8000030517578125</ele>
        <time>2018-09-06T11:48:41.000Z</time>
      </trkpt>
      <trkpt lat="43.41094077564775943756103515625" lon="-4.72619435749948024749755859375">
        <ele>113.8000030517578125</ele>
        <time>2018-09-06T11:48:42.000Z</time>
      </trkpt>
      <trkpt lat="43.410922586917877197265625" lon="-4.72622369416058063507080078125">
        <ele>113.8000030517578125</ele>
        <time>2018-09-06T11:48:43.000Z</time>
      </trkpt>
      <trkpt lat="43.41080532409250736236572265625" lon="-4.72640055231750011444091796875">
        <ele>113.40000152587890625</ele>
        <time>2018-09-06T11:48:48.000Z</time>
      </trkpt>
      <trkpt lat="43.4107795916497707366943359375" lon="-4.7264410369098186492919921875">
        <ele>113.1999969482421875</ele>
        <time>2018-09-06T11:48:49.000Z</time>
      </trkpt>
      <trkpt lat="43.41075268574059009552001953125" lon="-4.72648085094988346099853515625">
        <ele>112.40000152587890625</ele>
        <time>2018-09-06T11:48:50.000Z</time>
      </trkpt>
      <trkpt lat="43.410687558352947235107421875" lon="-4.72657472826540470123291015625">
        <ele>111.1999969482421875</ele>
        <time>2018-09-06T11:48:52.000Z</time>
      </trkpt>
      <trkpt lat="43.410610444843769073486328125" lon="-4.72667782567441463470458984375">
        <ele>110</ele>
        <time>2018-09-06T11:48:54.000Z</time>
      </trkpt>
      <trkpt lat="43.41056920588016510009765625" lon="-4.72673230804502964019775390625">
        <ele>109</ele>
        <time>2018-09-06T11:48:55.000Z</time>
      </trkpt>
      <trkpt lat="43.410529978573322296142578125" lon="-4.7267917357385158538818359375">
        <ele>108</ele>
        <time>2018-09-06T11:48:56.000Z</time>
      </trkpt>
      <trkpt lat="43.41049485839903354644775390625" lon="-4.72686038352549076080322265625">
        <ele>107.1999969482421875</ele>
        <time>2018-09-06T11:48:57.000Z</time>
      </trkpt>
      <trkpt lat="43.41046619229018688201904296875" lon="-4.72693766467273235321044921875">
        <ele>106.8000030517578125</ele>
        <time>2018-09-06T11:48:58.000Z</time>
      </trkpt>
      <trkpt lat="43.41041606850922107696533203125" lon="-4.7270924784243106842041015625">
        <ele>106.1999969482421875</ele>
        <time>2018-09-06T11:49:00.000Z</time>
      </trkpt>
      <trkpt lat="43.41037566773593425750732421875" lon="-4.72723186947405338287353515625">
        <ele>105.40000152587890625</ele>
        <time>2018-09-06T11:49:02.000Z</time>
      </trkpt>
      <trkpt lat="43.41035655699670314788818359375" lon="-4.72735944204032421112060546875">
        <ele>104.8000030517578125</ele>
        <time>2018-09-06T11:49:04.000Z</time>
      </trkpt>
      <trkpt lat="43.41040768660604953765869140625" lon="-4.72743454389274120330810546875">
        <ele>104.1999969482421875</ele>
        <time>2018-09-06T11:49:06.000Z</time>
      </trkpt>
      <trkpt lat="43.410438783466815948486328125" lon="-4.727431274950504302978515625">
        <ele>104.1999969482421875</ele>
        <time>2018-09-06T11:49:07.000Z</time>
      </trkpt>
      <trkpt lat="43.41048345901072025299072265625" lon="-4.7274223901331424713134765625">
        <ele>104.59999847412109375</ele>
        <time>2018-09-06T11:49:09.000Z</time>
      </trkpt>
      <trkpt lat="43.4105391986668109893798828125" lon="-4.72741325385868549346923828125">
        <ele>105</ele>
        <time>2018-09-06T11:49:12.000Z</time>
      </trkpt>
      <trkpt lat="43.4105566330254077911376953125" lon="-4.72741040401160717010498046875">
        <ele>105.1999969482421875</ele>
        <time>2018-09-06T11:49:13.000Z</time>
      </trkpt>
      <trkpt lat="43.41060952283442020416259765625" lon="-4.7274032793939113616943359375">
        <ele>106.40000152587890625</ele>
        <time>2018-09-06T11:49:16.000Z</time>
      </trkpt>
      <trkpt lat="43.41064237989485263824462890625" lon="-4.72740554250776767730712890625">
        <ele>106.40000152587890625</ele>
        <time>2018-09-06T11:49:18.000Z</time>
      </trkpt>
      <trkpt lat="43.4106719680130481719970703125" lon="-4.7274126671254634857177734375">
        <ele>107</ele>
        <time>2018-09-06T11:49:20.000Z</time>
      </trkpt>
      <trkpt lat="43.4106853790581226348876953125" lon="-4.7274187020957469940185546875">
        <ele>107.40000152587890625</ele>
        <time>2018-09-06T11:49:21.000Z</time>
      </trkpt>
      <trkpt lat="43.41071446426212787628173828125" lon="-4.727428257465362548828125">
        <ele>107.8000030517578125</ele>
        <time>2018-09-06T11:49:23.000Z</time>
      </trkpt>
      <trkpt lat="43.41074195690453052520751953125" lon="-4.727443344891071319580078125">
        <ele>108.1999969482421875</ele>
        <time>2018-09-06T11:49:25.000Z</time>
      </trkpt>
      <trkpt lat="43.410756289958953857421875" lon="-4.72744678147137165069580078125">
        <ele>108.40000152587890625</ele>
        <time>2018-09-06T11:49:26.000Z</time>
      </trkpt>
      <trkpt lat="43.410784788429737091064453125" lon="-4.7274539060890674591064453125">
        <ele>108.8000030517578125</ele>
        <time>2018-09-06T11:49:28.000Z</time>
      </trkpt>
      <trkpt lat="43.41079694218933582305908203125" lon="-4.72745767794549465179443359375">
        <ele>109</ele>
        <time>2018-09-06T11:49:29.000Z</time>
      </trkpt>
      <trkpt lat="43.4108204953372478485107421875" lon="-4.72746941260993480682373046875">
        <ele>109.59999847412109375</ele>
        <time>2018-09-06T11:49:31.000Z</time>
      </trkpt>
      <trkpt lat="43.41085745953023433685302734375" lon="-4.7274884395301342010498046875">
        <ele>110.1999969482421875</ele>
        <time>2018-09-06T11:49:34.000Z</time>
      </trkpt>
      <trkpt lat="43.4108852036297321319580078125" lon="-4.727516435086727142333984375">
        <ele>110.59999847412109375</ele>
        <time>2018-09-06T11:49:37.000Z</time>
      </trkpt>
      <trkpt lat="43.4109096787869930267333984375" lon="-4.7275635413825511932373046875">
        <ele>111.8000030517578125</ele>
        <time>2018-09-06T11:49:41.000Z</time>
      </trkpt>
      <trkpt lat="43.41090808622539043426513671875" lon="-4.7276155091822147369384765625">
        <ele>112.1999969482421875</ele>
        <time>2018-09-06T11:49:44.000Z</time>
      </trkpt>
      <trkpt lat="43.41090741567313671112060546875" lon="-4.72763277590274810791015625">
        <ele>112.40000152587890625</ele>
        <time>2018-09-06T11:49:45.000Z</time>
      </trkpt>
      <trkpt lat="43.410908840596675872802734375" lon="-4.72766202874481678009033203125">
        <ele>112.8000030517578125</ele>
        <time>2018-09-06T11:49:47.000Z</time>
      </trkpt>
      <trkpt lat="43.41090003959834575653076171875" lon="-4.72769086249172687530517578125">
        <ele>113.1999969482421875</ele>
        <time>2018-09-06T11:49:49.000Z</time>
      </trkpt>
      <trkpt lat="43.41087589971721172332763671875" lon="-4.727723300457000732421875">
        <ele>113.8000030517578125</ele>
        <time>2018-09-06T11:49:52.000Z</time>
      </trkpt>
      <trkpt lat="43.410859890282154083251953125" lon="-4.7277997434139251708984375">
        <ele>115</ele>
        <time>2018-09-06T11:49:57.000Z</time>
      </trkpt>
      <trkpt lat="43.41085712425410747528076171875" lon="-4.72781709395349025726318359375">
        <ele>115.1999969482421875</ele>
        <time>2018-09-06T11:49:58.000Z</time>
      </trkpt>
      <trkpt lat="43.41082979924976825714111328125" lon="-4.72787643782794475555419921875">
        <ele>116</ele>
        <time>2018-09-06T11:50:02.000Z</time>
      </trkpt>
      <trkpt lat="43.41080649755895137786865234375" lon="-4.7279373742640018463134765625">
        <ele>116.59999847412109375</ele>
        <time>2018-09-06T11:50:06.000Z</time>
      </trkpt>
      <trkpt lat="43.41080096550285816192626953125" lon="-4.727954976260662078857421875">
        <ele>116.8000030517578125</ele>
        <time>2018-09-06T11:50:07.000Z</time>
      </trkpt>
      <trkpt lat="43.41079652309417724609375" lon="-4.72797333262860774993896484375">
        <ele>117</ele>
        <time>2018-09-06T11:50:08.000Z</time>
      </trkpt>
      <trkpt lat="43.4107557870447635650634765625" lon="-4.72809143364429473876953125">
        <ele>117</ele>
        <time>2018-09-06T11:50:14.000Z</time>
      </trkpt>
      <trkpt lat="43.41073625721037387847900390625" lon="-4.7281459160149097442626953125">
        <ele>118.8000030517578125</ele>
        <time>2018-09-06T11:50:17.000Z</time>
      </trkpt>
      <trkpt lat="43.41073391027748584747314453125" lon="-4.728168211877346038818359375">
        <ele>117.59999847412109375</ele>
        <time>2018-09-06T11:50:18.000Z</time>
      </trkpt>
      <trkpt lat="43.410721085965633392333984375" lon="-4.728209115564823150634765625">
        <ele>118.1999969482421875</ele>
        <time>2018-09-06T11:50:20.000Z</time>
      </trkpt>
      <trkpt lat="43.4107132069766521453857421875" lon="-4.72823048941791057586669921875">
        <ele>119.1999969482421875</ele>
        <time>2018-09-06T11:50:21.000Z</time>
      </trkpt>
      <trkpt lat="43.4106850437819957733154296875" lon="-4.72837063483893871307373046875">
        <ele>119</ele>
        <time>2018-09-06T11:50:27.000Z</time>
      </trkpt>
      <trkpt lat="43.4106810204684734344482421875" lon="-4.72839645110070705413818359375">
        <ele>119.1999969482421875</ele>
        <time>2018-09-06T11:50:28.000Z</time>
      </trkpt>
      <trkpt lat="43.41067356057465076446533203125" lon="-4.72849619574844837188720703125">
        <ele>119</ele>
        <time>2018-09-06T11:50:31.000Z</time>
      </trkpt>
      <trkpt lat="43.41066149063408374786376953125" lon="-4.7286179848015308380126953125">
        <ele>118.40000152587890625</ele>
        <time>2018-09-06T11:50:34.000Z</time>
      </trkpt>
      <trkpt lat="43.41065947897732257843017578125" lon="-4.728671796619892120361328125">
        <ele>118.1999969482421875</ele>
        <time>2018-09-06T11:50:35.000Z</time>
      </trkpt>
      <trkpt lat="43.41064975596964359283447265625" lon="-4.7288657538592815399169921875">
        <ele>117.1999969482421875</ele>
        <time>2018-09-06T11:50:38.000Z</time>
      </trkpt>
      <trkpt lat="43.41064137406647205352783203125" lon="-4.72894077189266681671142578125">
        <ele>116.8000030517578125</ele>
        <time>2018-09-06T11:50:39.000Z</time>
      </trkpt>
      <trkpt lat="43.41061186976730823516845703125" lon="-4.72909986041486263275146484375">
        <ele>116</ele>
        <time>2018-09-06T11:50:41.000Z</time>
      </trkpt>
      <trkpt lat="43.41059242375195026397705078125" lon="-4.72918309271335601806640625">
        <ele>115.59999847412109375</ele>
        <time>2018-09-06T11:50:42.000Z</time>
      </trkpt>
      <trkpt lat="43.41054883785545825958251953125" lon="-4.7293606214225292205810546875">
        <ele>114.59999847412109375</ele>
        <time>2018-09-06T11:50:44.000Z</time>
      </trkpt>
      <trkpt lat="43.41052553616464138031005859375" lon="-4.72945374436676502227783203125">
        <ele>114</ele>
        <time>2018-09-06T11:50:45.000Z</time>
      </trkpt>
      <trkpt lat="43.410487063229084014892578125" lon="-4.72961853258311748504638671875">
        <ele>113.40000152587890625</ele>
        <time>2018-09-06T11:50:47.000Z</time>
      </trkpt>
      <trkpt lat="43.4104580618441104888916015625" lon="-4.7297341190278530120849609375">
        <ele>113.40000152587890625</ele>
        <time>2018-09-06T11:50:49.000Z</time>
      </trkpt>
      <trkpt lat="43.4104062616825103759765625" lon="-4.72995883785188198089599609375">
        <ele>114.1999969482421875</ele>
        <time>2018-09-06T11:50:54.000Z</time>
      </trkpt>
      <trkpt lat="43.410371728241443634033203125" lon="-4.730104096233844757080078125">
        <ele>115</ele>
        <time>2018-09-06T11:50:58.000Z</time>
      </trkpt>
      <trkpt lat="43.41035136021673679351806640625" lon="-4.73018045537173748016357421875">
        <ele>115.40000152587890625</ele>
        <time>2018-09-06T11:51:01.000Z</time>
      </trkpt>
      <trkpt lat="43.4103249572217464447021484375" lon="-4.73029076121747493743896484375">
        <ele>116</ele>
        <time>2018-09-06T11:51:05.000Z</time>
      </trkpt>
      <trkpt lat="43.410318084061145782470703125" lon="-4.7303151525557041168212890625">
        <ele>116.1999969482421875</ele>
        <time>2018-09-06T11:51:06.000Z</time>
      </trkpt>
      <trkpt lat="43.4103045053780078887939453125" lon="-4.73036234267055988311767578125">
        <ele>116.59999847412109375</ele>
        <time>2018-09-06T11:51:08.000Z</time>
      </trkpt>
      <trkpt lat="43.4102917648851871490478515625" lon="-4.73041246645152568817138671875">
        <ele>117</ele>
        <time>2018-09-06T11:51:10.000Z</time>
      </trkpt>
      <trkpt lat="43.41028329916298389434814453125" lon="-4.73043677397072315216064453125">
        <ele>117.1999969482421875</ele>
        <time>2018-09-06T11:51:11.000Z</time>
      </trkpt>
      <trkpt lat="43.41025882400572299957275390625" lon="-4.730504415929317474365234375">
        <ele>118</ele>
        <time>2018-09-06T11:51:14.000Z</time>
      </trkpt>
      <trkpt lat="43.41023862361907958984375" lon="-4.73054992966353893280029296875">
        <ele>118.40000152587890625</ele>
        <time>2018-09-06T11:51:16.000Z</time>
      </trkpt>
      <trkpt lat="43.41020501218736171722412109375" lon="-4.73062050528824329376220703125">
        <ele>118.8000030517578125</ele>
        <time>2018-09-06T11:51:19.000Z</time>
      </trkpt>
      <trkpt lat="43.4101606719195842742919921875" lon="-4.7307144664227962493896484375">
        <ele>119.1999969482421875</ele>
        <time>2018-09-06T11:51:23.000Z</time>
      </trkpt>
      <trkpt lat="43.41015019454061985015869140625" lon="-4.73073877394199371337890625">
        <ele>119.40000152587890625</ele>
        <time>2018-09-06T11:51:24.000Z</time>
      </trkpt>
      <trkpt lat="43.4100936166942119598388671875" lon="-4.73084094934165477752685546875">
        <ele>119.40000152587890625</ele>
        <time>2018-09-06T11:51:28.000Z</time>
      </trkpt>
      <trkpt lat="43.4100039303302764892578125" lon="-4.73102753050625324249267578125">
        <ele>120.59999847412109375</ele>
        <time>2018-09-06T11:51:36.000Z</time>
      </trkpt>
      <trkpt lat="43.4099943749606609344482421875" lon="-4.73105334676802158355712890625">
        <ele>120.8000030517578125</ele>
        <time>2018-09-06T11:51:37.000Z</time>
      </trkpt>
      <trkpt lat="43.40994617901742458343505859375" lon="-4.731199108064174652099609375">
        <ele>121.8000030517578125</ele>
        <time>2018-09-06T11:51:43.000Z</time>
      </trkpt>
      <trkpt lat="43.4099343605339527130126953125" lon="-4.7312515787780284881591796875">
        <ele>122.1999969482421875</ele>
        <time>2018-09-06T11:51:45.000Z</time>
      </trkpt>
      <trkpt lat="43.40990133583545684814453125" lon="-4.73135023377835750579833984375">
        <ele>122.8000030517578125</ele>
        <time>2018-09-06T11:51:49.000Z</time>
      </trkpt>
      <trkpt lat="43.4098750166594982147216796875" lon="-4.73142550326883792877197265625">
        <ele>123.40000152587890625</ele>
        <time>2018-09-06T11:51:52.000Z</time>
      </trkpt>
      <trkpt lat="43.4098451770842075347900390625" lon="-4.7314976714551448822021484375">
        <ele>123.8000030517578125</ele>
        <time>2018-09-06T11:51:55.000Z</time>
      </trkpt>
      <trkpt lat="43.40983151458203792572021484375" lon="-4.7315177880227565765380859375">
        <ele>124</ele>
        <time>2018-09-06T11:51:56.000Z</time>
      </trkpt>
      <trkpt lat="43.409784324467182159423828125" lon="-4.7315737791359424591064453125">
        <ele>124.40000152587890625</ele>
        <time>2018-09-06T11:51:59.000Z</time>
      </trkpt>
      <trkpt lat="43.40974685736000537872314453125" lon="-4.7316019423305988311767578125">
        <ele>124.8000030517578125</ele>
        <time>2018-09-06T11:52:01.000Z</time>
      </trkpt>
      <trkpt lat="43.40958525426685810089111328125" lon="-4.73166388459503650665283203125">
        <ele>124.40000152587890625</ele>
        <time>2018-09-06T11:52:07.000Z</time>
      </trkpt>
      <trkpt lat="43.409471176564693450927734375" lon="-4.73180822096765041351318359375">
        <ele>124</ele>
        <time>2018-09-06T11:52:11.000Z</time>
      </trkpt>
      <trkpt lat="43.409391380846500396728515625" lon="-4.73195775412023067474365234375">
        <ele>124.59999847412109375</ele>
        <time>2018-09-06T11:52:15.000Z</time>
      </trkpt>
      <trkpt lat="43.40937872417271137237548828125" lon="-4.7320475243031978607177734375">
        <ele>124.8000030517578125</ele>
        <time>2018-09-06T11:52:17.000Z</time>
      </trkpt>
      <trkpt lat="43.409404791891574859619140625" lon="-4.73214684985578060150146484375">
        <ele>124.59999847412109375</ele>
        <time>2018-09-06T11:52:19.000Z</time>
      </trkpt>
      <trkpt lat="43.40943085961043834686279296875" lon="-4.732200913131237030029296875">
        <ele>124.1999969482421875</ele>
        <time>2018-09-06T11:52:20.000Z</time>
      </trkpt>
      <trkpt lat="43.409457094967365264892578125" lon="-4.7322642803192138671875">
        <ele>123.8000030517578125</ele>
        <time>2018-09-06T11:52:21.000Z</time>
      </trkpt>
      <trkpt lat="43.409477211534976959228515625" lon="-4.7323355264961719512939453125">
        <ele>123.1999969482421875</ele>
        <time>2018-09-06T11:52:22.000Z</time>
      </trkpt>
      <trkpt lat="43.40948961675167083740234375" lon="-4.73241238854825496673583984375">
        <ele>122.59999847412109375</ele>
        <time>2018-09-06T11:52:23.000Z</time>
      </trkpt>
      <trkpt lat="43.40951316989958286285400390625" lon="-4.732579104602336883544921875">
        <ele>121.59999847412109375</ele>
        <time>2018-09-06T11:52:25.000Z</time>
      </trkpt>
      <trkpt lat="43.40952624566853046417236328125" lon="-4.7326580621302127838134765625">
        <ele>120.1999969482421875</ele>
        <time>2018-09-06T11:52:26.000Z</time>
      </trkpt>
      <trkpt lat="43.40954770334064960479736328125" lon="-4.7327891550958156585693359375">
        <ele>118.59999847412109375</ele>
        <time>2018-09-06T11:52:28.000Z</time>
      </trkpt>
      <trkpt lat="43.40956731699407100677490234375" lon="-4.73288747482001781463623046875">
        <ele>117</ele>
        <time>2018-09-06T11:52:30.000Z</time>
      </trkpt>
      <trkpt lat="43.40957519598305225372314453125" lon="-4.7329484112560749053955078125">
        <ele>115.8000030517578125</ele>
        <time>2018-09-06T11:52:32.000Z</time>
      </trkpt>
      <trkpt lat="43.40959061868488788604736328125" lon="-4.73302862606942653656005859375">
        <ele>114.8000030517578125</ele>
        <time>2018-09-06T11:52:34.000Z</time>
      </trkpt>
      <trkpt lat="43.40960034169256687164306640625" lon="-4.73308009095489978790283203125">
        <ele>114.40000152587890625</ele>
        <time>2018-09-06T11:52:35.000Z</time>
      </trkpt>
      <trkpt lat="43.40960285626351833343505859375" lon="-4.73314027301967144012451171875">
        <ele>114</ele>
        <time>2018-09-06T11:52:36.000Z</time>
      </trkpt>
      <trkpt lat="43.4096067957580089569091796875" lon="-4.73326834850013256072998046875">
        <ele>113.1999969482421875</ele>
        <time>2018-09-06T11:52:38.000Z</time>
      </trkpt>
      <trkpt lat="43.40960755012929439544677734375" lon="-4.73333917558193206787109375">
        <ele>112.59999847412109375</ele>
        <time>2018-09-06T11:52:39.000Z</time>
      </trkpt>
      <trkpt lat="43.40960939414799213409423828125" lon="-4.73338921554386615753173828125">
        <ele>112</ele>
        <time>2018-09-06T11:52:40.000Z</time>
      </trkpt>
      <trkpt lat="43.4096155129373073577880859375" lon="-4.73350522108376026153564453125">
        <ele>111.40000152587890625</ele>
        <time>2018-09-06T11:52:42.000Z</time>
      </trkpt>
      <trkpt lat="43.40961693786084651947021484375" lon="-4.73357160575687885284423828125">
        <ele>110.8000030517578125</ele>
        <time>2018-09-06T11:52:43.000Z</time>
      </trkpt>
      <trkpt lat="43.409629762172698974609375" lon="-4.733790457248687744140625">
        <ele>109</ele>
        <time>2018-09-06T11:52:46.000Z</time>
      </trkpt>
      <trkpt lat="43.4096364676952362060546875" lon="-4.7338603623211383819580078125">
        <ele>108</ele>
        <time>2018-09-06T11:52:47.000Z</time>
      </trkpt>
      <trkpt lat="43.4096456877887248992919921875" lon="-4.73393269814550876617431640625">
        <ele>107</ele>
        <time>2018-09-06T11:52:48.000Z</time>
      </trkpt>
      <trkpt lat="43.40966169722378253936767578125" lon="-4.73400964401662349700927734375">
        <ele>106</ele>
        <time>2018-09-06T11:52:49.000Z</time>
      </trkpt>
      <trkpt lat="43.40967544354498386383056640625" lon="-4.734085500240325927734375">
        <ele>103.40000152587890625</ele>
        <time>2018-09-06T11:52:50.000Z</time>
      </trkpt>
      <trkpt lat="43.4096855856478214263916015625" lon="-4.7341614402830600738525390625">
        <ele>102.1999969482421875</ele>
        <time>2018-09-06T11:52:51.000Z</time>
      </trkpt>
      <trkpt lat="43.40968466363847255706787109375" lon="-4.73423159681260585784912109375">
        <ele>101.1999969482421875</ele>
        <time>2018-09-06T11:52:52.000Z</time>
      </trkpt>
      <trkpt lat="43.4096741862595081329345703125" lon="-4.73428976722061634063720703125">
        <ele>100.1999969482421875</ele>
        <time>2018-09-06T11:52:53.000Z</time>
      </trkpt>
      <trkpt lat="43.4096604399383068084716796875" lon="-4.73433268256485462188720703125">
        <ele>99.8000030517578125</ele>
        <time>2018-09-06T11:52:54.000Z</time>
      </trkpt>
      <trkpt lat="43.40962749905884265899658203125" lon="-4.73441331647336483001708984375">
        <ele>99.8000030517578125</ele>
        <time>2018-09-06T11:52:56.000Z</time>
      </trkpt>
      <trkpt lat="43.40961626730859279632568359375" lon="-4.7344501130282878875732421875">
        <ele>100</ele>
        <time>2018-09-06T11:52:57.000Z</time>
      </trkpt>
      <trkpt lat="43.4095950610935688018798828125" lon="-4.73451524041593074798583984375">
        <ele>100.1999969482421875</ele>
        <time>2018-09-06T11:52:59.000Z</time>
      </trkpt>
      <trkpt lat="43.40957318432629108428955078125" lon="-4.73457927815616130828857421875">
        <ele>100.40000152587890625</ele>
        <time>2018-09-06T11:53:01.000Z</time>
      </trkpt>
      <trkpt lat="43.40953261591494083404541015625" lon="-4.73470467142760753631591796875">
        <ele>100.8000030517578125</ele>
        <time>2018-09-06T11:53:05.000Z</time>
      </trkpt>
      <trkpt lat="43.40951333753764629364013671875" lon="-4.73475429229438304901123046875">
        <ele>101.40000152587890625</ele>
        <time>2018-09-06T11:53:07.000Z</time>
      </trkpt>
      <trkpt lat="43.409496657550334930419921875" lon="-4.73480500280857086181640625">
        <ele>101.59999847412109375</ele>
        <time>2018-09-06T11:53:09.000Z</time>
      </trkpt>
      <trkpt lat="43.409491293132305145263671875" lon="-4.73482687957584857940673828125">
        <ele>102</ele>
        <time>2018-09-06T11:53:10.000Z</time>
      </trkpt>
      <trkpt lat="43.40947620570659637451171875" lon="-4.734874069690704345703125">
        <ele>102.40000152587890625</ele>
        <time>2018-09-06T11:53:12.000Z</time>
      </trkpt>
      <trkpt lat="43.40946103446185588836669921875" lon="-4.7349205054342746734619140625">
        <ele>102.8000030517578125</ele>
        <time>2018-09-06T11:53:14.000Z</time>
      </trkpt>
      <trkpt lat="43.40944846160709857940673828125" lon="-4.7349666059017181396484375">
        <ele>103</ele>
        <time>2018-09-06T11:53:16.000Z</time>
      </trkpt>
      <trkpt lat="43.40943153016269207000732421875" lon="-4.735043048858642578125">
        <ele>103.40000152587890625</ele>
        <time>2018-09-06T11:53:19.000Z</time>
      </trkpt>
      <trkpt lat="43.4094317816197872161865234375" lon="-4.73506978712975978851318359375">
        <ele>103.40000152587890625</ele>
        <time>2018-09-06T11:53:20.000Z</time>
      </trkpt>
      <trkpt lat="43.4094197116792201995849609375" lon="-4.7351488284766674041748046875">
        <ele>103.8000030517578125</ele>
        <time>2018-09-06T11:53:23.000Z</time>
      </trkpt>
      <trkpt lat="43.409406132996082305908203125" lon="-4.73525268025696277618408203125">
        <ele>104</ele>
        <time>2018-09-06T11:53:27.000Z</time>
      </trkpt>
      <trkpt lat="43.40940202586352825164794921875" lon="-4.73527212627232074737548828125">
        <ele>104</ele>
        <time>2018-09-06T11:53:31.000Z</time>
      </trkpt>
      <trkpt lat="43.40940110385417938232421875" lon="-4.73529274575412273406982421875">
        <ele>104</ele>
        <time>2018-09-06T11:53:32.000Z</time>
      </trkpt>
      <trkpt lat="43.4093923866748809814453125" lon="-4.73532577045261859893798828125">
        <ele>104</ele>
        <time>2018-09-06T11:53:34.000Z</time>
      </trkpt>
      <trkpt lat="43.409374617040157318115234375" lon="-4.7353623993694782257080078125">
        <ele>104.1999969482421875</ele>
        <time>2018-09-06T11:53:36.000Z</time>
      </trkpt>
      <trkpt lat="43.4093523211777210235595703125" lon="-4.73541780374944210052490234375">
        <ele>104.59999847412109375</ele>
        <time>2018-09-06T11:53:39.000Z</time>
      </trkpt>
      <trkpt lat="43.40933010913431644439697265625" lon="-4.73546423949301242828369140625">
        <ele>105.1999969482421875</ele>
        <time>2018-09-06T11:53:42.000Z</time>
      </trkpt>
      <trkpt lat="43.40930328704416751861572265625" lon="-4.73552894778549671173095703125">
        <ele>105.8000030517578125</ele>
        <time>2018-09-06T11:53:46.000Z</time>
      </trkpt>
      <trkpt lat="43.4092892892658710479736328125" lon="-4.7355823405086994171142578125">
        <ele>106.1999969482421875</ele>
        <time>2018-09-06T11:53:49.000Z</time>
      </trkpt>
      <trkpt lat="43.40924813412129878997802734375" lon="-4.73564830608665943145751953125">
        <ele>107.40000152587890625</ele>
        <time>2018-09-06T11:53:54.000Z</time>
      </trkpt>
      <trkpt lat="43.409224413335323333740234375" lon="-4.73571561276912689208984375">
        <ele>108</ele>
        <time>2018-09-06T11:53:58.000Z</time>
      </trkpt>
      <trkpt lat="43.4092172048985958099365234375" lon="-4.73574352450668811798095703125">
        <ele>108.40000152587890625</ele>
        <time>2018-09-06T11:54:00.000Z</time>
      </trkpt>
      <trkpt lat="43.4092094935476779937744140625" lon="-4.735752157866954803466796875">
        <ele>108.59999847412109375</ele>
        <time>2018-09-06T11:54:01.000Z</time>
      </trkpt>
      <trkpt lat="43.40920253656804561614990234375" lon="-4.73576431162655353546142578125">
        <ele>108.8000030517578125</ele>
        <time>2018-09-06T11:54:02.000Z</time>
      </trkpt>
      <trkpt lat="43.40918459929525852203369140625" lon="-4.7358063049614429473876953125">
        <ele>109.40000152587890625</ele>
        <time>2018-09-06T11:54:05.000Z</time>
      </trkpt>
      <trkpt lat="43.40917848050594329833984375" lon="-4.7358230687677860260009765625">
        <ele>109.59999847412109375</ele>
        <time>2018-09-06T11:54:06.000Z</time>
      </trkpt>
      <trkpt lat="43.40915744192898273468017578125" lon="-4.7359035350382328033447265625">
        <ele>110.1999969482421875</ele>
        <time>2018-09-06T11:54:11.000Z</time>
      </trkpt>
      <trkpt lat="43.40913095511496067047119140625" lon="-4.735957682132720947265625">
        <ele>110.8000030517578125</ele>
        <time>2018-09-06T11:54:15.000Z</time>
      </trkpt>
      <trkpt lat="43.409098684787750244140625" lon="-4.73602096550166606903076171875">
        <ele>111.40000152587890625</ele>
        <time>2018-09-06T11:54:20.000Z</time>
      </trkpt>
      <trkpt lat="43.40908586047589778900146484375" lon="-4.736045859754085540771484375">
        <ele>112</ele>
        <time>2018-09-06T11:54:22.000Z</time>
      </trkpt>
      <trkpt lat="43.40905350632965564727783203125" lon="-4.73610780201852321624755859375">
        <ele>113</ele>
        <time>2018-09-06T11:54:27.000Z</time>
      </trkpt>
      <trkpt lat="43.4090472199022769927978515625" lon="-4.73611668683588504791259765625">
        <ele>113.1999969482421875</ele>
        <time>2018-09-06T11:54:28.000Z</time>
      </trkpt>
      <trkpt lat="43.409027270972728729248046875" lon="-4.73616161383688449859619140625">
        <ele>114.1999969482421875</ele>
        <time>2018-09-06T11:54:31.000Z</time>
      </trkpt>
      <trkpt lat="43.4089992754161357879638671875" lon="-4.73621257580816745758056640625">
        <ele>115.1999969482421875</ele>
        <time>2018-09-06T11:54:35.000Z</time>
      </trkpt>
      <trkpt lat="43.40899215079843997955322265625" lon="-4.73622783087193965911865234375">
        <ele>115.40000152587890625</ele>
        <time>2018-09-06T11:54:36.000Z</time>
      </trkpt>
      <trkpt lat="43.4089677594602108001708984375" lon="-4.73626202903687953948974609375">
        <ele>116.1999969482421875</ele>
        <time>2018-09-06T11:54:39.000Z</time>
      </trkpt>
      <trkpt lat="43.40896113775670528411865234375" lon="-4.73627493716776371002197265625">
        <ele>116.59999847412109375</ele>
        <time>2018-09-06T11:54:40.000Z</time>
      </trkpt>
      <trkpt lat="43.4089372493326663970947265625" lon="-4.73631282337009906768798828125">
        <ele>117.1999969482421875</ele>
        <time>2018-09-06T11:54:43.000Z</time>
      </trkpt>
      <trkpt lat="43.40892098844051361083984375" lon="-4.73633796907961368560791015625">
        <ele>117.8000030517578125</ele>
        <time>2018-09-06T11:54:45.000Z</time>
      </trkpt>
      <trkpt lat="43.4088960103690624237060546875" lon="-4.73636931739747524261474609375">
        <ele>118.59999847412109375</ele>
        <time>2018-09-06T11:54:48.000Z</time>
      </trkpt>
      <trkpt lat="43.40888855047523975372314453125" lon="-4.7363828122615814208984375">
        <ele>118.8000030517578125</ele>
        <time>2018-09-06T11:54:49.000Z</time>
      </trkpt>
      <trkpt lat="43.40886642225086688995361328125" lon="-4.73642296157777309417724609375">
        <ele>119.8000030517578125</ele>
        <time>2018-09-06T11:54:52.000Z</time>
      </trkpt>
      <trkpt lat="43.40884077362716197967529296875" lon="-4.736475013196468353271484375">
        <ele>121</ele>
        <time>2018-09-06T11:54:56.000Z</time>
      </trkpt>
      <trkpt lat="43.4088138677179813385009765625" lon="-4.73652270622551441192626953125">
        <ele>122.1999969482421875</ele>
        <time>2018-09-06T11:55:00.000Z</time>
      </trkpt>
      <trkpt lat="43.408811353147029876708984375" lon="-4.736540056765079498291015625">
        <ele>122.59999847412109375</ele>
        <time>2018-09-06T11:55:01.000Z</time>
      </trkpt>
      <trkpt lat="43.40878210030496120452880859375" lon="-4.73658892326056957244873046875">
        <ele>123.40000152587890625</ele>
        <time>2018-09-06T11:55:05.000Z</time>
      </trkpt>
      <trkpt lat="43.40875980444252490997314453125" lon="-4.7366215288639068603515625">
        <ele>124.40000152587890625</ele>
        <time>2018-09-06T11:55:08.000Z</time>
      </trkpt>
      <trkpt lat="43.40872116386890411376953125" lon="-4.7366884164512157440185546875">
        <ele>125.40000152587890625</ele>
        <time>2018-09-06T11:55:13.000Z</time>
      </trkpt>
      <trkpt lat="43.4086867980659008026123046875" lon="-4.73675136454403400421142578125">
        <ele>126.59999847412109375</ele>
        <time>2018-09-06T11:55:17.000Z</time>
      </trkpt>
      <trkpt lat="43.40864061377942562103271484375" lon="-4.73682940006256103515625">
        <ele>127.8000030517578125</ele>
        <time>2018-09-06T11:55:22.000Z</time>
      </trkpt>
      <trkpt lat="43.40858948417007923126220703125" lon="-4.7369138896465301513671875">
        <ele>128.8000030517578125</ele>
        <time>2018-09-06T11:55:27.000Z</time>
      </trkpt>
      <trkpt lat="43.40858303010463714599609375" lon="-4.73693509586155414581298828125">
        <ele>129</ele>
        <time>2018-09-06T11:55:28.000Z</time>
      </trkpt>
      <trkpt lat="43.40852796100080013275146484375" lon="-4.7370542027056217193603515625">
        <ele>129.8000030517578125</ele>
        <time>2018-09-06T11:55:34.000Z</time>
      </trkpt>
      <trkpt lat="43.40852226130664348602294921875" lon="-4.73707943223416805267333984375">
        <ele>130</ele>
        <time>2018-09-06T11:55:35.000Z</time>
      </trkpt>
      <trkpt lat="43.40849426575005054473876953125" lon="-4.73725209943950176239013671875">
        <ele>130</ele>
        <time>2018-09-06T11:55:41.000Z</time>
      </trkpt>
      <trkpt lat="43.40843978337943553924560546875" lon="-4.73737548105418682098388671875">
        <ele>129.8000030517578125</ele>
        <time>2018-09-06T11:55:45.000Z</time>
      </trkpt>
      <trkpt lat="43.40840189717710018157958984375" lon="-4.73742912523448467254638671875">
        <ele>130.1999969482421875</ele>
        <time>2018-09-06T11:55:47.000Z</time>
      </trkpt>
      <trkpt lat="43.40827281586825847625732421875" lon="-4.737549237906932830810546875">
        <ele>130.8000030517578125</ele>
        <time>2018-09-06T11:55:54.000Z</time>
      </trkpt>
      <trkpt lat="43.40825236402451992034912109375" lon="-4.73755963146686553955078125">
        <ele>131.1999969482421875</ele>
        <time>2018-09-06T11:55:55.000Z</time>
      </trkpt>
      <trkpt lat="43.40816284529864788055419921875" lon="-4.73762559704482555389404296875">
        <ele>132.1999969482421875</ele>
        <time>2018-09-06T11:56:00.000Z</time>
      </trkpt>
      <trkpt lat="43.40813652612268924713134765625" lon="-4.737643115222454071044921875">
        <ele>132.1999969482421875</ele>
        <time>2018-09-06T11:56:01.000Z</time>
      </trkpt>
      <trkpt lat="43.40807734988629817962646484375" lon="-4.7376835159957408905029296875">
        <ele>133.1999969482421875</ele>
        <time>2018-09-06T11:56:04.000Z</time>
      </trkpt>
      <trkpt lat="43.40805195271968841552734375" lon="-4.7376997768878936767578125">
        <ele>133.600006103515625</ele>
        <time>2018-09-06T11:56:06.000Z</time>
      </trkpt>
      <trkpt lat="43.40796268545091152191162109375" lon="-4.73776884377002716064453125">
        <ele>134.1999969482421875</ele>
        <time>2018-09-06T11:56:11.000Z</time>
      </trkpt>
      <trkpt lat="43.4079265594482421875" lon="-4.73780144937336444854736328125">
        <ele>134.1999969482421875</ele>
        <time>2018-09-06T11:56:13.000Z</time>
      </trkpt>
      <trkpt lat="43.40791189111769199371337890625" lon="-4.7378317080438137054443359375">
        <ele>134.1999969482421875</ele>
        <time>2018-09-06T11:56:14.000Z</time>
      </trkpt>
      <trkpt lat="43.40785187669098377227783203125" lon="-4.73797730170190334320068359375">
        <ele>133.8000030517578125</ele>
        <time>2018-09-06T11:56:18.000Z</time>
      </trkpt>
      <trkpt lat="43.40785305015742778778076171875" lon="-4.73816203884780406951904296875">
        <ele>133.600006103515625</ele>
        <time>2018-09-06T11:56:22.000Z</time>
      </trkpt>
      <trkpt lat="43.40783813036978244781494140625" lon="-4.7383604384958744049072265625">
        <ele>133.1999969482421875</ele>
        <time>2018-09-06T11:56:26.000Z</time>
      </trkpt>
      <trkpt lat="43.4078137390315532684326171875" lon="-4.73843880929052829742431640625">
        <ele>133.1999969482421875</ele>
        <time>2018-09-06T11:56:28.000Z</time>
      </trkpt>
      <trkpt lat="43.40778918005526065826416015625" lon="-4.738511145114898681640625">
        <ele>133.399993896484375</ele>
        <time>2018-09-06T11:56:30.000Z</time>
      </trkpt>
      <trkpt lat="43.4077413193881511688232421875" lon="-4.73861642181873321533203125">
        <ele>133.600006103515625</ele>
        <time>2018-09-06T11:56:33.000Z</time>
      </trkpt>
      <trkpt lat="43.40770821087062358856201171875" lon="-4.73867568187415599822998046875">
        <ele>133.399993896484375</ele>
        <time>2018-09-06T11:56:35.000Z</time>
      </trkpt>
      <trkpt lat="43.4076487831771373748779296875" lon="-4.73872714675962924957275390625">
        <ele>134.399993896484375</ele>
        <time>2018-09-06T11:56:38.000Z</time>
      </trkpt>
      <trkpt lat="43.407613076269626617431640625" lon="-4.7387530468404293060302734375">
        <ele>134</ele>
        <time>2018-09-06T11:56:40.000Z</time>
      </trkpt>
      <trkpt lat="43.407593630254268646240234375" lon="-4.73875983618199825286865234375">
        <ele>134.1999969482421875</ele>
        <time>2018-09-06T11:56:41.000Z</time>
      </trkpt>
      <trkpt lat="43.40756052173674106597900390625" lon="-4.7387704811990261077880859375">
        <ele>135.399993896484375</ele>
        <time>2018-09-06T11:56:43.000Z</time>
      </trkpt>
      <trkpt lat="43.4074719250202178955078125" lon="-4.738805852830410003662109375">
        <ele>135.8000030517578125</ele>
        <time>2018-09-06T11:56:48.000Z</time>
      </trkpt>
      <trkpt lat="43.40743328444659709930419921875" lon="-4.7388263046741485595703125">
        <ele>136</ele>
        <time>2018-09-06T11:56:50.000Z</time>
      </trkpt>
      <trkpt lat="43.40738282538950443267822265625" lon="-4.73887902684509754180908203125">
        <ele>136.399993896484375</ele>
        <time>2018-09-06T11:56:53.000Z</time>
      </trkpt>
      <trkpt lat="43.4073512256145477294921875" lon="-4.73891708068549633026123046875">
        <ele>136.8000030517578125</ele>
        <time>2018-09-06T11:56:55.000Z</time>
      </trkpt>
      <trkpt lat="43.407248966395854949951171875" lon="-4.7391355969011783599853515625">
        <ele>137.1999969482421875</ele>
        <time>2018-09-06T11:57:03.000Z</time>
      </trkpt>
      <trkpt lat="43.40726296417415142059326171875" lon="-4.739353358745574951171875">
        <ele>136.8000030517578125</ele>
        <time>2018-09-06T11:57:09.000Z</time>
      </trkpt>
      <trkpt lat="43.40727956034243106842041015625" lon="-4.73956265486776828765869140625">
        <ele>136.1999969482421875</ele>
        <time>2018-09-06T11:57:14.000Z</time>
      </trkpt>
      <trkpt lat="43.40727872215211391448974609375" lon="-4.73961646668612957000732421875">
        <ele>135.8000030517578125</ele>
        <time>2018-09-06T11:57:15.000Z</time>
      </trkpt>
      <trkpt lat="43.40726883150637149810791015625" lon="-4.73973951302468776702880859375">
        <ele>135.1999969482421875</ele>
        <time>2018-09-06T11:57:17.000Z</time>
      </trkpt>
      <trkpt lat="43.40726095251739025115966796875" lon="-4.739806316792964935302734375">
        <ele>135</ele>
        <time>2018-09-06T11:57:18.000Z</time>
      </trkpt>
      <trkpt lat="43.4072518162429332733154296875" lon="-4.7399265132844448089599609375">
        <ele>134.399993896484375</ele>
        <time>2018-09-06T11:57:20.000Z</time>
      </trkpt>
      <trkpt lat="43.407249636948108673095703125" lon="-4.739976637065410614013671875">
        <ele>134.1999969482421875</ele>
        <time>2018-09-06T11:57:21.000Z</time>
      </trkpt>
      <trkpt lat="43.4072544984519481658935546875" lon="-4.74016196094453334808349609375">
        <ele>133.1999969482421875</ele>
        <time>2018-09-06T11:57:25.000Z</time>
      </trkpt>
      <trkpt lat="43.40725324116647243499755859375" lon="-4.7402312792837619781494140625">
        <ele>132.8000030517578125</ele>
        <time>2018-09-06T11:57:26.000Z</time>
      </trkpt>
      <trkpt lat="43.40725391171872615814208984375" lon="-4.74040285684168338775634765625">
        <ele>131.600006103515625</ele>
        <time>2018-09-06T11:57:28.000Z</time>
      </trkpt>
      <trkpt lat="43.407263047993183135986328125" lon="-4.74049489013850688934326171875">
        <ele>130.8000030517578125</ele>
        <time>2018-09-06T11:57:29.000Z</time>
      </trkpt>
      <trkpt lat="43.40727184899151325225830078125" lon="-4.74058994092047214508056640625">
        <ele>129.8000030517578125</ele>
        <time>2018-09-06T11:57:30.000Z</time>
      </trkpt>
      <trkpt lat="43.40728777460753917694091796875" lon="-4.74078339524567127227783203125">
        <ele>128.399993896484375</ele>
        <time>2018-09-06T11:57:32.000Z</time>
      </trkpt>
      <trkpt lat="43.4072910435497760772705078125" lon="-4.740878529846668243408203125">
        <ele>127.59999847412109375</ele>
        <time>2018-09-06T11:57:33.000Z</time>
      </trkpt>
      <trkpt lat="43.4072920493781566619873046875" lon="-4.740970395505428314208984375">
        <ele>126.59999847412109375</ele>
        <time>2018-09-06T11:57:34.000Z</time>
      </trkpt>
      <trkpt lat="43.407291881740093231201171875" lon="-4.74106217734515666961669921875">
        <ele>125.40000152587890625</ele>
        <time>2018-09-06T11:57:35.000Z</time>
      </trkpt>
      <trkpt lat="43.4072922170162200927734375" lon="-4.7411620058119297027587890625">
        <ele>124.40000152587890625</ele>
        <time>2018-09-06T11:57:36.000Z</time>
      </trkpt>
      <trkpt lat="43.4072893671691417694091796875" lon="-4.741364680230617523193359375">
        <ele>123</ele>
        <time>2018-09-06T11:57:38.000Z</time>
      </trkpt>
      <trkpt lat="43.4072726033627986907958984375" lon="-4.74155344069004058837890625">
        <ele>122</ele>
        <time>2018-09-06T11:57:40.000Z</time>
      </trkpt>
      <trkpt lat="43.40725223533809185028076171875" lon="-4.74171931855380535125732421875">
        <ele>121.59999847412109375</ele>
        <time>2018-09-06T11:57:42.000Z</time>
      </trkpt>
      <trkpt lat="43.40724133886396884918212890625" lon="-4.741872288286685943603515625">
        <ele>121.59999847412109375</ele>
        <time>2018-09-06T11:57:44.000Z</time>
      </trkpt>
      <trkpt lat="43.40723647736012935638427734375" lon="-4.74193758331239223480224609375">
        <ele>121.8000030517578125</ele>
        <time>2018-09-06T11:57:45.000Z</time>
      </trkpt>
      <trkpt lat="43.40722256340086460113525390625" lon="-4.74222608841955661773681640625">
        <ele>122.59999847412109375</ele>
        <time>2018-09-06T11:57:50.000Z</time>
      </trkpt>
      <trkpt lat="43.4072171151638031005859375" lon="-4.74227897822856903076171875">
        <ele>122.8000030517578125</ele>
        <time>2018-09-06T11:57:51.000Z</time>
      </trkpt>
      <trkpt lat="43.40720831416547298431396484375" lon="-4.74237964488565921783447265625">
        <ele>123.1999969482421875</ele>
        <time>2018-09-06T11:57:53.000Z</time>
      </trkpt>
      <trkpt lat="43.407197333872318267822265625" lon="-4.74247469566762447357177734375">
        <ele>123.59999847412109375</ele>
        <time>2018-09-06T11:57:55.000Z</time>
      </trkpt>
      <trkpt lat="43.40718694031238555908203125" lon="-4.7425741888582706451416015625">
        <ele>123.8000030517578125</ele>
        <time>2018-09-06T11:57:57.000Z</time>
      </trkpt>
      <trkpt lat="43.40717461891472339630126953125" lon="-4.7426164336502552032470703125">
        <ele>124</ele>
        <time>2018-09-06T11:57:58.000Z</time>
      </trkpt>
      <trkpt lat="43.4071636386215686798095703125" lon="-4.74265775643289089202880859375">
        <ele>124.40000152587890625</ele>
        <time>2018-09-06T11:57:59.000Z</time>
      </trkpt>
      <trkpt lat="43.40714310295879840850830078125" lon="-4.742747358977794647216796875">
        <ele>125</ele>
        <time>2018-09-06T11:58:01.000Z</time>
      </trkpt>
      <trkpt lat="43.40712013654410839080810546875" lon="-4.742840230464935302734375">
        <ele>126</ele>
        <time>2018-09-06T11:58:03.000Z</time>
      </trkpt>
      <trkpt lat="43.40710722841322422027587890625" lon="-4.742884151637554168701171875">
        <ele>126.40000152587890625</ele>
        <time>2018-09-06T11:58:04.000Z</time>
      </trkpt>
      <trkpt lat="43.4070885367691516876220703125" lon="-4.7429698146879673004150390625">
        <ele>126.8000030517578125</ele>
        <time>2018-09-06T11:58:06.000Z</time>
      </trkpt>
      <trkpt lat="43.4070789813995361328125" lon="-4.74300459958612918853759765625">
        <ele>127.40000152587890625</ele>
        <time>2018-09-06T11:58:07.000Z</time>
      </trkpt>
      <trkpt lat="43.40705291368067264556884765625" lon="-4.743063189089298248291015625">
        <ele>128.399993896484375</ele>
        <time>2018-09-06T11:58:09.000Z</time>
      </trkpt>
      <trkpt lat="43.4070426039397716522216796875" lon="-4.74309076555073261260986328125">
        <ele>128.8000030517578125</ele>
        <time>2018-09-06T11:58:10.000Z</time>
      </trkpt>
      <trkpt lat="43.4070079028606414794921875" lon="-4.7432035021483898162841796875">
        <ele>129.399993896484375</ele>
        <time>2018-09-06T11:58:13.000Z</time>
      </trkpt>
      <trkpt lat="43.40697345323860645294189453125" lon="-4.743523187935352325439453125">
        <ele>128.399993896484375</ele>
        <time>2018-09-06T11:58:19.000Z</time>
      </trkpt>
      <trkpt lat="43.40694813989102840423583984375" lon="-4.7436893172562122344970703125">
        <ele>128.1999969482421875</ele>
        <time>2018-09-06T11:58:22.000Z</time>
      </trkpt>
      <trkpt lat="43.4069225750863552093505859375" lon="-4.74390833638608455657958984375">
        <ele>128</ele>
        <time>2018-09-06T11:58:26.000Z</time>
      </trkpt>
      <trkpt lat="43.406911008059978485107421875" lon="-4.74410958588123321533203125">
        <ele>127.40000152587890625</ele>
        <time>2018-09-06T11:58:29.000Z</time>
      </trkpt>
      <trkpt lat="43.40689885430037975311279296875" lon="-4.74432189948856830596923828125">
        <ele>126.8000030517578125</ele>
        <time>2018-09-06T11:58:32.000Z</time>
      </trkpt>
      <trkpt lat="43.40689734555780887603759765625" lon="-4.74439281038939952850341796875">
        <ele>126.59999847412109375</ele>
        <time>2018-09-06T11:58:33.000Z</time>
      </trkpt>
      <trkpt lat="43.40689902193844318389892578125" lon="-4.74447025917470455169677734375">
        <ele>126.40000152587890625</ele>
        <time>2018-09-06T11:58:34.000Z</time>
      </trkpt>
      <trkpt lat="43.4068964235484600067138671875" lon="-4.74476949311792850494384765625">
        <ele>125.8000030517578125</ele>
        <time>2018-09-06T11:58:38.000Z</time>
      </trkpt>
      <trkpt lat="43.4068930707871913909912109375" lon="-4.74482883699238300323486328125">
        <ele>125.8000030517578125</ele>
        <time>2018-09-06T11:58:39.000Z</time>
      </trkpt>
      <trkpt lat="43.40689122676849365234375" lon="-4.74493746645748615264892578125">
        <ele>125.8000030517578125</ele>
        <time>2018-09-06T11:58:41.000Z</time>
      </trkpt>
      <trkpt lat="43.40688996948301792144775390625" lon="-4.74511516280472278594970703125">
        <ele>125.8000030517578125</ele>
        <time>2018-09-06T11:58:44.000Z</time>
      </trkpt>
      <trkpt lat="43.40689348988234996795654296875" lon="-4.7451752610504627227783203125">
        <ele>126</ele>
        <time>2018-09-06T11:58:45.000Z</time>
      </trkpt>
      <trkpt lat="43.40687706135213375091552734375" lon="-4.74548798985779285430908203125">
        <ele>126</ele>
        <time>2018-09-06T11:58:50.000Z</time>
      </trkpt>
      <trkpt lat="43.4068468026816844940185546875" lon="-4.74566769786179065704345703125">
        <ele>126.59999847412109375</ele>
        <time>2018-09-06T11:58:53.000Z</time>
      </trkpt>
      <trkpt lat="43.4068136103451251983642578125" lon="-4.74583969451487064361572265625">
        <ele>126.8000030517578125</ele>
        <time>2018-09-06T11:58:56.000Z</time>
      </trkpt>
      <trkpt lat="43.4067629836499691009521484375" lon="-4.7460147924721240997314453125">
        <ele>127.1999969482421875</ele>
        <time>2018-09-06T11:58:59.000Z</time>
      </trkpt>
      <trkpt lat="43.4067428670823574066162109375" lon="-4.7460691072046756744384765625">
        <ele>127.1999969482421875</ele>
        <time>2018-09-06T11:59:00.000Z</time>
      </trkpt>
      <trkpt lat="43.40672065503895282745361328125" lon="-4.74612057209014892578125">
        <ele>127.40000152587890625</ele>
        <time>2018-09-06T11:59:01.000Z</time>
      </trkpt>
      <trkpt lat="43.406572379171848297119140625" lon="-4.74642827175557613372802734375">
        <ele>126.8000030517578125</ele>
        <time>2018-09-06T11:59:07.000Z</time>
      </trkpt>
      <trkpt lat="43.40654161758720874786376953125" lon="-4.746481664478778839111328125">
        <ele>126.59999847412109375</ele>
        <time>2018-09-06T11:59:08.000Z</time>
      </trkpt>
      <trkpt lat="43.406470119953155517578125" lon="-4.746592305600643157958984375">
        <ele>126.1999969482421875</ele>
        <time>2018-09-06T11:59:10.000Z</time>
      </trkpt>
      <trkpt lat="43.4064365923404693603515625" lon="-4.7466558404266834259033203125">
        <ele>125.8000030517578125</ele>
        <time>2018-09-06T11:59:11.000Z</time>
      </trkpt>
      <trkpt lat="43.40636886656284332275390625" lon="-4.74679472856223583221435546875">
        <ele>125.1999969482421875</ele>
        <time>2018-09-06T11:59:13.000Z</time>
      </trkpt>
      <trkpt lat="43.40628295205533504486083984375" lon="-4.7469596005976200103759765625">
        <ele>122.59999847412109375</ele>
        <time>2018-09-06T11:59:15.000Z</time>
      </trkpt>
      <trkpt lat="43.4062329120934009552001953125" lon="-4.74704216234385967254638671875">
        <ele>121.1999969482421875</ele>
        <time>2018-09-06T11:59:16.000Z</time>
      </trkpt>
      <trkpt lat="43.40618312358856201171875" lon="-4.7471292503178119659423828125">
        <ele>119.8000030517578125</ele>
        <time>2018-09-06T11:59:17.000Z</time>
      </trkpt>
      <trkpt lat="43.40608815662562847137451171875" lon="-4.74729093722999095916748046875">
        <ele>117.59999847412109375</ele>
        <time>2018-09-06T11:59:19.000Z</time>
      </trkpt>
      <trkpt lat="43.4060438163578510284423828125" lon="-4.74736285395920276641845703125">
        <ele>116.40000152587890625</ele>
        <time>2018-09-06T11:59:20.000Z</time>
      </trkpt>
      <trkpt lat="43.4059965424239635467529296875" lon="-4.74743795581161975860595703125">
        <ele>115</ele>
        <time>2018-09-06T11:59:21.000Z</time>
      </trkpt>
      <trkpt lat="43.4059492684900760650634765625" lon="-4.74751171655952930450439453125">
        <ele>114.1999969482421875</ele>
        <time>2018-09-06T11:59:22.000Z</time>
      </trkpt>
      <trkpt lat="43.40590459294617176055908203125" lon="-4.7475835494697093963623046875">
        <ele>113.1999969482421875</ele>
        <time>2018-09-06T11:59:23.000Z</time>
      </trkpt>
      <trkpt lat="43.40586327016353607177734375" lon="-4.74764741957187652587890625">
        <ele>112.1999969482421875</ele>
        <time>2018-09-06T11:59:24.000Z</time>
      </trkpt>
      <trkpt lat="43.40582664124667644500732421875" lon="-4.74770315922796726226806640625">
        <ele>110.8000030517578125</ele>
        <time>2018-09-06T11:59:25.000Z</time>
      </trkpt>
      <trkpt lat="43.40579244308173656463623046875" lon="-4.74775135517120361328125">
        <ele>109.40000152587890625</ele>
        <time>2018-09-06T11:59:26.000Z</time>
      </trkpt>
      <trkpt lat="43.40571449138224124908447265625" lon="-4.74784900434315204620361328125">
        <ele>107.40000152587890625</ele>
        <time>2018-09-06T11:59:28.000Z</time>
      </trkpt>
      <trkpt lat="43.4056679718196392059326171875" lon="-4.7478832863271236419677734375">
        <ele>106.40000152587890625</ele>
        <time>2018-09-06T11:59:29.000Z</time>
      </trkpt>
      <trkpt lat="43.40561558492481708526611328125" lon="-4.7479094378650188446044921875">
        <ele>105</ele>
        <time>2018-09-06T11:59:30.000Z</time>
      </trkpt>
      <trkpt lat="43.40557199902832508087158203125" lon="-4.74792913533747196197509765625">
        <ele>103.59999847412109375</ele>
        <time>2018-09-06T11:59:31.000Z</time>
      </trkpt>
      <trkpt lat="43.40553210116922855377197265625" lon="-4.74795545451343059539794921875">
        <ele>102.40000152587890625</ele>
        <time>2018-09-06T11:59:32.000Z</time>
      </trkpt>
      <trkpt lat="43.40550477616488933563232421875" lon="-4.74801194854080677032470703125">
        <ele>101</ele>
        <time>2018-09-06T11:59:33.000Z</time>
      </trkpt>
      <trkpt lat="43.40548918582499027252197265625" lon="-4.74806978367269039154052734375">
        <ele>99.8000030517578125</ele>
        <time>2018-09-06T11:59:34.000Z</time>
      </trkpt>
      <trkpt lat="43.405476696789264678955078125" lon="-4.74812158383429050445556640625">
        <ele>98.59999847412109375</ele>
        <time>2018-09-06T11:59:35.000Z</time>
      </trkpt>
      <trkpt lat="43.405475355684757232666015625" lon="-4.74821445532143115997314453125">
        <ele>96.59999847412109375</ele>
        <time>2018-09-06T11:59:37.000Z</time>
      </trkpt>
      <trkpt lat="43.40551181696355342864990234375" lon="-4.74826374091207981109619140625">
        <ele>94.8000030517578125</ele>
        <time>2018-09-06T11:59:39.000Z</time>
      </trkpt>
      <trkpt lat="43.40559010393917560577392578125" lon="-4.7482530958950519561767578125">
        <ele>93.8000030517578125</ele>
        <time>2018-09-06T11:59:42.000Z</time>
      </trkpt>
      <trkpt lat="43.40565782971680164337158203125" lon="-4.7482400201261043548583984375">
        <ele>92.1999969482421875</ele>
        <time>2018-09-06T11:59:44.000Z</time>
      </trkpt>
      <trkpt lat="43.40573326684534549713134765625" lon="-4.748239181935787200927734375">
        <ele>90.8000030517578125</ele>
        <time>2018-09-06T11:59:46.000Z</time>
      </trkpt>
      <trkpt lat="43.405766375362873077392578125" lon="-4.74824555218219757080078125">
        <ele>90</ele>
        <time>2018-09-06T11:59:47.000Z</time>
      </trkpt>
      <trkpt lat="43.4058064408600330352783203125" lon="-4.7482393495738506317138671875">
        <ele>89.1999969482421875</ele>
        <time>2018-09-06T11:59:48.000Z</time>
      </trkpt>
      <trkpt lat="43.4058773517608642578125" lon="-4.74824647419154644012451171875">
        <ele>87.59999847412109375</ele>
        <time>2018-09-06T11:59:50.000Z</time>
      </trkpt>
      <trkpt lat="43.40594314970076084136962890625" lon="-4.748245887458324432373046875">
        <ele>86.59999847412109375</ele>
        <time>2018-09-06T11:59:52.000Z</time>
      </trkpt>
      <trkpt lat="43.40600383467972278594970703125" lon="-4.748244546353816986083984375">
        <ele>84.59999847412109375</ele>
        <time>2018-09-06T11:59:54.000Z</time>
      </trkpt>
      <trkpt lat="43.406063430011272430419921875" lon="-4.74824228323996067047119140625">
        <ele>83</ele>
        <time>2018-09-06T11:59:56.000Z</time>
      </trkpt>
      <trkpt lat="43.4061108715832233428955078125" lon="-4.74823306314647197723388671875">
        <ele>81.59999847412109375</ele>
        <time>2018-09-06T11:59:58.000Z</time>
      </trkpt>
      <trkpt lat="43.40616208501160144805908203125" lon="-4.7482269443571567535400390625">
        <ele>80.1999969482421875</ele>
        <time>2018-09-06T12:00:00.000Z</time>
      </trkpt>
      <trkpt lat="43.4062117896974086761474609375" lon="-4.7482148744165897369384765625">
        <ele>78.40000152587890625</ele>
        <time>2018-09-06T12:00:02.000Z</time>
      </trkpt>
      <trkpt lat="43.4062473289668560028076171875" lon="-4.74820288829505443572998046875">
        <ele>77</ele>
        <time>2018-09-06T12:00:03.000Z</time>
      </trkpt>
      <trkpt lat="43.406284712255001068115234375" lon="-4.7481903992593288421630859375">
        <ele>76.40000152587890625</ele>
        <time>2018-09-06T12:00:04.000Z</time>
      </trkpt>
      <trkpt lat="43.406316228210926055908203125" lon="-4.74818813614547252655029296875">
        <ele>75.59999847412109375</ele>
        <time>2018-09-06T12:00:05.000Z</time>
      </trkpt>
      <trkpt lat="43.406369201838970184326171875" lon="-4.7481810115277767181396484375">
        <ele>74.1999969482421875</ele>
        <time>2018-09-06T12:00:07.000Z</time>
      </trkpt>
      <trkpt lat="43.4064231812953948974609375" lon="-4.7481738030910491943359375">
        <ele>73.40000152587890625</ele>
        <time>2018-09-06T12:00:09.000Z</time>
      </trkpt>
      <trkpt lat="43.4064692817628383636474609375" lon="-4.74816483445465564727783203125">
        <ele>72.8000030517578125</ele>
        <time>2018-09-06T12:00:10.000Z</time>
      </trkpt>
      <trkpt lat="43.406548909842967987060546875" lon="-4.74814094603061676025390625">
        <ele>71.8000030517578125</ele>
        <time>2018-09-06T12:00:12.000Z</time>
      </trkpt>
      <trkpt lat="43.40662258677184581756591796875" lon="-4.74811940453946590423583984375">
        <ele>70.8000030517578125</ele>
        <time>2018-09-06T12:00:15.000Z</time>
      </trkpt>
      <trkpt lat="43.40663172304630279541015625" lon="-4.74811772815883159637451171875">
        <ele>70.40000152587890625</ele>
        <time>2018-09-06T12:00:16.000Z</time>
      </trkpt>
      <trkpt lat="43.4066261909902095794677734375" lon="-4.7481189854443073272705078125">
        <ele>70.1999969482421875</ele>
        <time>2018-09-06T12:00:17.000Z</time>
      </trkpt>
      <trkpt lat="43.40680900029838085174560546875" lon="-4.7481226734817028045654296875">
        <ele>69.1999969482421875</ele>
        <time>2018-09-06T12:00:30.000Z</time>
      </trkpt>
      <trkpt lat="43.40685644187033176422119140625" lon="-4.748151339590549468994140625">
        <ele>68.8000030517578125</ele>
        <time>2018-09-06T12:00:31.000Z</time>
      </trkpt>
      <trkpt lat="43.40691042132675647735595703125" lon="-4.74817589856684207916259765625">
        <ele>68</ele>
        <time>2018-09-06T12:00:32.000Z</time>
      </trkpt>
      <trkpt lat="43.40696490369737148284912109375" lon="-4.748190231621265411376953125">
        <ele>67.59999847412109375</ele>
        <time>2018-09-06T12:00:33.000Z</time>
      </trkpt>
      <trkpt lat="43.40700111351907253265380859375" lon="-4.7482004575431346893310546875">
        <ele>67</ele>
        <time>2018-09-06T12:00:34.000Z</time>
      </trkpt>
      <trkpt lat="43.40701997280120849609375" lon="-4.7482168860733509063720703125">
        <ele>66.59999847412109375</ele>
        <time>2018-09-06T12:00:35.000Z</time>
      </trkpt>
      <trkpt lat="43.40703866444528102874755859375" lon="-4.74822007119655609130859375">
        <ele>66</ele>
        <time>2018-09-06T12:00:36.000Z</time>
      </trkpt>
      <trkpt lat="43.4070513211190700531005859375" lon="-4.74821495823562145233154296875">
        <ele>65.59999847412109375</ele>
        <time>2018-09-06T12:00:37.000Z</time>
      </trkpt>
      <trkpt lat="43.40708635747432708740234375" lon="-4.74823390133678913116455078125">
        <ele>65</ele>
        <time>2018-09-06T12:00:39.000Z</time>
      </trkpt>
      <trkpt lat="43.407165817916393280029296875" lon="-4.74826742894947528839111328125">
        <ele>63.799999237060546875</ele>
        <time>2018-09-06T12:00:42.000Z</time>
      </trkpt>
      <trkpt lat="43.4072224795818328857421875" lon="-4.74825938232243061065673828125">
        <ele>62.59999847412109375</ele>
        <time>2018-09-06T12:00:44.000Z</time>
      </trkpt>
      <trkpt lat="43.40728827752172946929931640625" lon="-4.74821470677852630615234375">
        <ele>61</ele>
        <time>2018-09-06T12:00:46.000Z</time>
      </trkpt>
      <trkpt lat="43.407361619174480438232421875" lon="-4.74814941175282001495361328125">
        <ele>59.59999847412109375</ele>
        <time>2018-09-06T12:00:48.000Z</time>
      </trkpt>
      <trkpt lat="43.4074451029300689697265625" lon="-4.74808403290808200836181640625">
        <ele>58.59999847412109375</ele>
        <time>2018-09-06T12:00:50.000Z</time>
      </trkpt>
      <trkpt lat="43.407489024102687835693359375" lon="-4.74805637262761592864990234375">
        <ele>57.200000762939453125</ele>
        <time>2018-09-06T12:00:51.000Z</time>
      </trkpt>
      <trkpt lat="43.4075807221233844757080078125" lon="-4.74804296158254146575927734375">
        <ele>55.799999237060546875</ele>
        <time>2018-09-06T12:00:53.000Z</time>
      </trkpt>
      <trkpt lat="43.40767267160117626190185546875" lon="-4.74807791411876678466796875">
        <ele>54.799999237060546875</ele>
        <time>2018-09-06T12:00:55.000Z</time>
      </trkpt>
      <trkpt lat="43.40772078372538089752197265625" lon="-4.74814538843929767608642578125">
        <ele>53.799999237060546875</ele>
        <time>2018-09-06T12:00:57.000Z</time>
      </trkpt>
      <trkpt lat="43.40775045566260814666748046875" lon="-4.74817623384296894073486328125">
        <ele>53.200000762939453125</ele>
        <time>2018-09-06T12:00:58.000Z</time>
      </trkpt>
      <trkpt lat="43.40780409984290599822998046875" lon="-4.7483224980533123016357421875">
        <ele>52.40000152587890625</ele>
        <time>2018-09-06T12:01:01.000Z</time>
      </trkpt>
      <trkpt lat="43.40782941319048404693603515625" lon="-4.74836491048336029052734375">
        <ele>51.799999237060546875</ele>
        <time>2018-09-06T12:01:02.000Z</time>
      </trkpt>
      <trkpt lat="43.4078938700258731842041015625" lon="-4.7484502382576465606689453125">
        <ele>50.799999237060546875</ele>
        <time>2018-09-06T12:01:04.000Z</time>
      </trkpt>
      <trkpt lat="43.40792949311435222625732421875" lon="-4.748484604060649871826171875">
        <ele>50.200000762939453125</ele>
        <time>2018-09-06T12:01:05.000Z</time>
      </trkpt>
      <trkpt lat="43.40797291137278079986572265625" lon="-4.74851511418819427490234375">
        <ele>49.799999237060546875</ele>
        <time>2018-09-06T12:01:06.000Z</time>
      </trkpt>
      <trkpt lat="43.4080132283270359039306640625" lon="-4.74854956381022930145263671875">
        <ele>49.40000152587890625</ele>
        <time>2018-09-06T12:01:07.000Z</time>
      </trkpt>
      <trkpt lat="43.408078439533710479736328125" lon="-4.7486034594476222991943359375">
        <ele>48.200000762939453125</ele>
        <time>2018-09-06T12:01:09.000Z</time>
      </trkpt>
      <trkpt lat="43.40816435404121875762939453125" lon="-4.748660959303379058837890625">
        <ele>47.40000152587890625</ele>
        <time>2018-09-06T12:01:12.000Z</time>
      </trkpt>
      <trkpt lat="43.4081922657787799835205078125" lon="-4.74867613054811954498291015625">
        <ele>47.200000762939453125</ele>
        <time>2018-09-06T12:01:13.000Z</time>
      </trkpt>
      <trkpt lat="43.4082945249974727630615234375" lon="-4.74880102090537548065185546875">
        <ele>46.59999847412109375</ele>
        <time>2018-09-06T12:01:17.000Z</time>
      </trkpt>
      <trkpt lat="43.40843039564788341522216796875" lon="-4.7489826567471027374267578125">
        <ele>46.40000152587890625</ele>
        <time>2018-09-06T12:01:22.000Z</time>
      </trkpt>
      <trkpt lat="43.4084601514041423797607421875" lon="-4.7490151785314083099365234375">
        <ele>46.40000152587890625</ele>
        <time>2018-09-06T12:01:23.000Z</time>
      </trkpt>
      <trkpt lat="43.408529721200466156005859375" lon="-4.7490775398910045623779296875">
        <ele>46.200000762939453125</ele>
        <time>2018-09-06T12:01:25.000Z</time>
      </trkpt>
      <trkpt lat="43.40856584720313549041748046875" lon="-4.74911131896078586578369140625">
        <ele>46.200000762939453125</ele>
        <time>2018-09-06T12:01:26.000Z</time>
      </trkpt>
      <trkpt lat="43.408643044531345367431640625" lon="-4.74916689097881317138671875">
        <ele>46</ele>
        <time>2018-09-06T12:01:28.000Z</time>
      </trkpt>
      <trkpt lat="43.4086861275136470794677734375" lon="-4.74919505417346954345703125">
        <ele>45.799999237060546875</ele>
        <time>2018-09-06T12:01:29.000Z</time>
      </trkpt>
      <trkpt lat="43.40886742807924747467041015625" lon="-4.74929823540151119232177734375">
        <ele>45</ele>
        <time>2018-09-06T12:01:33.000Z</time>
      </trkpt>
      <trkpt lat="43.408991061151027679443359375" lon="-4.74935506470501422882080078125">
        <ele>44.40000152587890625</ele>
        <time>2018-09-06T12:01:35.000Z</time>
      </trkpt>
      <trkpt lat="43.40905736200511455535888671875" lon="-4.74939286708831787109375">
        <ele>43.799999237060546875</ele>
        <time>2018-09-06T12:01:36.000Z</time>
      </trkpt>
      <trkpt lat="43.4092500619590282440185546875" lon="-4.74953510798513889312744140625">
        <ele>42</ele>
        <time>2018-09-06T12:01:39.000Z</time>
      </trkpt>
      <trkpt lat="43.409300856292247772216796875" lon="-4.749604426324367523193359375">
        <ele>41.40000152587890625</ele>
        <time>2018-09-06T12:01:40.000Z</time>
      </trkpt>
      <trkpt lat="43.40934838168323040008544921875" lon="-4.74968430586159229278564453125">
        <ele>40.799999237060546875</ele>
        <time>2018-09-06T12:01:41.000Z</time>
      </trkpt>
      <trkpt lat="43.40941862203180789947509765625" lon="-4.74986560642719268798828125">
        <ele>39</ele>
        <time>2018-09-06T12:01:43.000Z</time>
      </trkpt>
      <trkpt lat="43.409449048340320587158203125" lon="-4.7499668598175048828125">
        <ele>38</ele>
        <time>2018-09-06T12:01:44.000Z</time>
      </trkpt>
      <trkpt lat="43.40947712771594524383544921875" lon="-4.75007222034037113189697265625">
        <ele>37.200000762939453125</ele>
        <time>2018-09-06T12:01:45.000Z</time>
      </trkpt>
      <trkpt lat="43.409538567066192626953125" lon="-4.7502872161567211151123046875">
        <ele>36</ele>
        <time>2018-09-06T12:01:47.000Z</time>
      </trkpt>
      <trkpt lat="43.40959464199841022491455078125" lon="-4.75050573237240314483642578125">
        <ele>34.200000762939453125</ele>
        <time>2018-09-06T12:01:49.000Z</time>
      </trkpt>
      <trkpt lat="43.4096232242882251739501953125" lon="-4.75060849450528621673583984375">
        <ele>33.40000152587890625</ele>
        <time>2018-09-06T12:01:50.000Z</time>
      </trkpt>
      <trkpt lat="43.40964979492127895355224609375" lon="-4.75070036016404628753662109375">
        <ele>32.799999237060546875</ele>
        <time>2018-09-06T12:01:51.000Z</time>
      </trkpt>
      <trkpt lat="43.40967510826885700225830078125" lon="-4.75078853778541088104248046875">
        <ele>31.799999237060546875</ele>
        <time>2018-09-06T12:01:52.000Z</time>
      </trkpt>
      <trkpt lat="43.409707546234130859375" lon="-4.75088560022413730621337890625">
        <ele>31</ele>
        <time>2018-09-06T12:01:53.000Z</time>
      </trkpt>
      <trkpt lat="43.4097462706267833709716796875" lon="-4.75097277201712131500244140625">
        <ele>30.3999996185302734375</ele>
        <time>2018-09-06T12:01:54.000Z</time>
      </trkpt>
      <trkpt lat="43.4097901917994022369384765625" lon="-4.75106245838105678558349609375">
        <ele>29.799999237060546875</ele>
        <time>2018-09-06T12:01:55.000Z</time>
      </trkpt>
      <trkpt lat="43.40987979434430599212646484375" lon="-4.751236550509929656982421875">
        <ele>28.3999996185302734375</ele>
        <time>2018-09-06T12:01:57.000Z</time>
      </trkpt>
      <trkpt lat="43.40997333638370037078857421875" lon="-4.75139287300407886505126953125">
        <ele>27.200000762939453125</ele>
        <time>2018-09-06T12:01:59.000Z</time>
      </trkpt>
      <trkpt lat="43.410071320831775665283203125" lon="-4.7515257261693477630615234375">
        <ele>25.6000003814697265625</ele>
        <time>2018-09-06T12:02:01.000Z</time>
      </trkpt>
      <trkpt lat="43.41019663028419017791748046875" lon="-4.7516625188291072845458984375">
        <ele>24.200000762939453125</ele>
        <time>2018-09-06T12:02:03.000Z</time>
      </trkpt>
      <trkpt lat="43.41030727140605449676513671875" lon="-4.7517701424658298492431640625">
        <ele>22.799999237060546875</ele>
        <time>2018-09-06T12:02:05.000Z</time>
      </trkpt>
      <trkpt lat="43.410410620272159576416015625" lon="-4.75184775888919830322265625">
        <ele>21.3999996185302734375</ele>
        <time>2018-09-06T12:02:07.000Z</time>
      </trkpt>
      <trkpt lat="43.4106196649372577667236328125" lon="-4.7518940269947052001953125">
        <ele>20.3999996185302734375</ele>
        <time>2018-09-06T12:02:10.000Z</time>
      </trkpt>
      <trkpt lat="43.41069501824676990509033203125" lon="-4.75190618075430393218994140625">
        <ele>20</ele>
        <time>2018-09-06T12:02:11.000Z</time>
      </trkpt>
      <trkpt lat="43.410852514207363128662109375" lon="-4.7519377805292606353759765625">
        <ele>18.6000003814697265625</ele>
        <time>2018-09-06T12:02:13.000Z</time>
      </trkpt>
      <trkpt lat="43.41110564768314361572265625" lon="-4.75198279134929180145263671875">
        <ele>17.3999996185302734375</ele>
        <time>2018-09-06T12:02:16.000Z</time>
      </trkpt>
      <trkpt lat="43.411192484200000762939453125" lon="-4.75199067033827304840087890625">
        <ele>16.799999237060546875</ele>
        <time>2018-09-06T12:02:17.000Z</time>
      </trkpt>
      <trkpt lat="43.41128191910684108734130859375" lon="-4.75200022570788860321044921875">
        <ele>16.200000762939453125</ele>
        <time>2018-09-06T12:02:18.000Z</time>
      </trkpt>
      <trkpt lat="43.41146397404372692108154296875" lon="-4.7520242817699909210205078125">
        <ele>15.19999980926513671875</ele>
        <time>2018-09-06T12:02:20.000Z</time>
      </trkpt>
      <trkpt lat="43.4117294289171695709228515625" lon="-4.75206593982875347137451171875">
        <ele>14</ele>
        <time>2018-09-06T12:02:23.000Z</time>
      </trkpt>
      <trkpt lat="43.41181232593953609466552734375" lon="-4.7520809434354305267333984375">
        <ele>13.6000003814697265625</ele>
        <time>2018-09-06T12:02:24.000Z</time>
      </trkpt>
      <trkpt lat="43.41197661124169826507568359375" lon="-4.75210927426815032958984375">
        <ele>12.6000003814697265625</ele>
        <time>2018-09-06T12:02:26.000Z</time>
      </trkpt>
      <trkpt lat="43.41206210665404796600341796875" lon="-4.75212528370320796966552734375">
        <ele>11.19999980926513671875</ele>
        <time>2018-09-06T12:02:27.000Z</time>
      </trkpt>
      <trkpt lat="43.4122323431074619293212890625" lon="-4.75214573554694652557373046875">
        <ele>10.19999980926513671875</ele>
        <time>2018-09-06T12:02:29.000Z</time>
      </trkpt>
      <trkpt lat="43.4124070219695568084716796875" lon="-4.7521811909973621368408203125">
        <ele>9.19999980926513671875</ele>
        <time>2018-09-06T12:02:31.000Z</time>
      </trkpt>
      <trkpt lat="43.412565104663372039794921875" lon="-4.7522163949906826019287109375">
        <ele>9</ele>
        <time>2018-09-06T12:02:33.000Z</time>
      </trkpt>
      <trkpt lat="43.4126749075949192047119140625" lon="-4.75223005749285221099853515625">
        <ele>8.6000003814697265625</ele>
        <time>2018-09-06T12:02:35.000Z</time>
      </trkpt>
      <trkpt lat="43.412720672786235809326171875" lon="-4.75221329368650913238525390625">
        <ele>8.3999996185302734375</ele>
        <time>2018-09-06T12:02:36.000Z</time>
      </trkpt>
      <trkpt lat="43.412783704698085784912109375" lon="-4.75217876024544239044189453125">
        <ele>8.3999996185302734375</ele>
        <time>2018-09-06T12:02:38.000Z</time>
      </trkpt>
      <trkpt lat="43.4128200821578502655029296875" lon="-4.7521915845572948455810546875">
        <ele>8.3999996185302734375</ele>
        <time>2018-09-06T12:02:39.000Z</time>
      </trkpt>
      <trkpt lat="43.41289342381060123443603515625" lon="-4.75224749185144901275634765625">
        <ele>8</ele>
        <time>2018-09-06T12:02:41.000Z</time>
      </trkpt>
      <trkpt lat="43.41297841630876064300537109375" lon="-4.752279259264469146728515625">
        <ele>8</ele>
        <time>2018-09-06T12:02:43.000Z</time>
      </trkpt>
      <trkpt lat="43.41302317567169666290283203125" lon="-4.7522888146340847015380859375">
        <ele>8</ele>
        <time>2018-09-06T12:02:44.000Z</time>
      </trkpt>
      <trkpt lat="43.41306827031075954437255859375" lon="-4.75230197422206401824951171875">
        <ele>7.80000019073486328125</ele>
        <time>2018-09-06T12:02:45.000Z</time>
      </trkpt>
      <trkpt lat="43.41311386786401271820068359375" lon="-4.7523156367242336273193359375">
        <ele>7.80000019073486328125</ele>
        <time>2018-09-06T12:02:46.000Z</time>
      </trkpt>
      <trkpt lat="43.4132029674947261810302734375" lon="-4.7523526847362518310546875">
        <ele>7.80000019073486328125</ele>
        <time>2018-09-06T12:02:48.000Z</time>
      </trkpt>
      <trkpt lat="43.413340263068675994873046875" lon="-4.752449579536914825439453125">
        <ele>8</ele>
        <time>2018-09-06T12:02:52.000Z</time>
      </trkpt>
      <trkpt lat="43.4134577773511409759521484375" lon="-4.752446226775646209716796875">
        <ele>8</ele>
        <time>2018-09-06T12:02:55.000Z</time>
      </trkpt>
      <trkpt lat="43.41349859721958637237548828125" lon="-4.752447567880153656005859375">
        <ele>8</ele>
        <time>2018-09-06T12:02:56.000Z</time>
      </trkpt>
      <trkpt lat="43.41354243457317352294921875" lon="-4.7524591349065303802490234375">
        <ele>8</ele>
        <time>2018-09-06T12:02:57.000Z</time>
      </trkpt>
      <trkpt lat="43.413728512823581695556640625" lon="-4.752512611448764801025390625">
        <ele>7.400000095367431640625</ele>
        <time>2018-09-06T12:03:01.000Z</time>
      </trkpt>
      <trkpt lat="43.41394082643091678619384765625" lon="-4.75254689343273639678955078125">
        <ele>7.19999980926513671875</ele>
        <time>2018-09-06T12:03:05.000Z</time>
      </trkpt>
      <trkpt lat="43.41404400765895843505859375" lon="-4.75257304497063159942626953125">
        <ele>7.19999980926513671875</ele>
        <time>2018-09-06T12:03:07.000Z</time>
      </trkpt>
      <trkpt lat="43.41430895961821079254150390625" lon="-4.75266776047646999359130859375">
        <ele>6.80000019073486328125</ele>
        <time>2018-09-06T12:03:12.000Z</time>
      </trkpt>
      <trkpt lat="43.4144170023500919342041015625" lon="-4.752719141542911529541015625">
        <ele>6.599999904632568359375</ele>
        <time>2018-09-06T12:03:14.000Z</time>
      </trkpt>
      <trkpt lat="43.414527140557765960693359375" lon="-4.75275610573589801788330078125">
        <ele>6.400000095367431640625</ele>
        <time>2018-09-06T12:03:16.000Z</time>
      </trkpt>
      <trkpt lat="43.4146352671086788177490234375" lon="-4.7527925670146942138671875">
        <ele>6.400000095367431640625</ele>
        <time>2018-09-06T12:03:18.000Z</time>
      </trkpt>
      <trkpt lat="43.4147874824702739715576171875" lon="-4.75285249762237071990966796875">
        <ele>6.400000095367431640625</ele>
        <time>2018-09-06T12:03:21.000Z</time>
      </trkpt>
      <trkpt lat="43.415015302598476409912109375" lon="-4.7529332153499126434326171875">
        <ele>6.19999980926513671875</ele>
        <time>2018-09-06T12:03:26.000Z</time>
      </trkpt>
      <trkpt lat="43.415059559047222137451171875" lon="-4.75293614901602268218994140625">
        <ele>6.19999980926513671875</ele>
        <time>2018-09-06T12:03:27.000Z</time>
      </trkpt>
      <trkpt lat="43.41510079801082611083984375" lon="-4.752943105995655059814453125">
        <ele>6.19999980926513671875</ele>
        <time>2018-09-06T12:03:28.000Z</time>
      </trkpt>
      <trkpt lat="43.41514061205089092254638671875" lon="-4.7529650665819644927978515625">
        <ele>6.19999980926513671875</ele>
        <time>2018-09-06T12:03:29.000Z</time>
      </trkpt>
      <trkpt lat="43.4152246825397014617919921875" lon="-4.75302281789481639862060546875">
        <ele>6</ele>
        <time>2018-09-06T12:03:31.000Z</time>
      </trkpt>
      <trkpt lat="43.41526977717876434326171875" lon="-4.75305081345140933990478515625">
        <ele>6</ele>
        <time>2018-09-06T12:03:32.000Z</time>
      </trkpt>
      <trkpt lat="43.4153120219707489013671875" lon="-4.75306891836225986480712890625">
        <ele>6</ele>
        <time>2018-09-06T12:03:33.000Z</time>
      </trkpt>
      <trkpt lat="43.41544554568827152252197265625" lon="-4.7531149350106716156005859375">
        <ele>5.80000019073486328125</ele>
        <time>2018-09-06T12:03:36.000Z</time>
      </trkpt>
      <trkpt lat="43.415539003908634185791015625" lon="-4.7531518153846263885498046875">
        <ele>5.80000019073486328125</ele>
        <time>2018-09-06T12:03:38.000Z</time>
      </trkpt>
      <trkpt lat="43.4157832525670528411865234375" lon="-4.75324158556759357452392578125">
        <ele>5.400000095367431640625</ele>
        <time>2018-09-06T12:03:43.000Z</time>
      </trkpt>
      <trkpt lat="43.41594141907989978790283203125" lon="-4.7533114068210124969482421875">
        <ele>5</ele>
        <time>2018-09-06T12:03:46.000Z</time>
      </trkpt>
      <trkpt lat="43.415997326374053955078125" lon="-4.75333278067409992218017578125">
        <ele>4.80000019073486328125</ele>
        <time>2018-09-06T12:03:47.000Z</time>
      </trkpt>
      <trkpt lat="43.4163461811840534210205078125" lon="-4.7534760273993015289306640625">
        <ele>3.7999999523162841796875</ele>
        <time>2018-09-06T12:03:53.000Z</time>
      </trkpt>
      <trkpt lat="43.4163991548120975494384765625" lon="-4.7534961439669132232666015625">
        <ele>3.599999904632568359375</ele>
        <time>2018-09-06T12:03:54.000Z</time>
      </trkpt>
      <trkpt lat="43.41645590029656887054443359375" lon="-4.75352455861866474151611328125">
        <ele>3.400000095367431640625</ele>
        <time>2018-09-06T12:03:55.000Z</time>
      </trkpt>
      <trkpt lat="43.41670819558203220367431640625" lon="-4.7535645402967929840087890625">
        <ele>2.599999904632568359375</ele>
        <time>2018-09-06T12:04:00.000Z</time>
      </trkpt>
      <trkpt lat="43.416723869740962982177734375" lon="-4.7535404004156589508056640625">
        <ele>2.2000000476837158203125</ele>
        <time>2018-09-06T12:04:01.000Z</time>
      </trkpt>
      <trkpt lat="43.41676033101975917816162109375" lon="-4.75354157388210296630859375">
        <ele>2.2000000476837158203125</ele>
        <time>2018-09-06T12:04:03.000Z</time>
      </trkpt>
      <trkpt lat="43.41680668294429779052734375" lon="-4.7535487823188304901123046875">
        <ele>2.2000000476837158203125</ele>
        <time>2018-09-06T12:05:31.000Z</time>
      </trkpt>
      <trkpt lat="43.41699318028986454010009765625" lon="-4.75356210954487323760986328125">
        <ele>1.60000002384185791015625</ele>
        <time>2018-09-06T12:05:37.000Z</time>
      </trkpt>
      <trkpt lat="43.4170328266918659210205078125" lon="-4.7535564936697483062744140625">
        <ele>1.39999997615814208984375</ele>
        <time>2018-09-06T12:05:38.000Z</time>
      </trkpt>
      <trkpt lat="43.41707515530288219451904296875" lon="-4.75354383699595928192138671875">
        <ele>1.39999997615814208984375</ele>
        <time>2018-09-06T12:05:39.000Z</time>
      </trkpt>
      <trkpt lat="43.4171632491052150726318359375" lon="-4.75352589972317218780517578125">
        <ele>1</ele>
        <time>2018-09-06T12:05:41.000Z</time>
      </trkpt>
      <trkpt lat="43.4172075055539608001708984375" lon="-4.75351609289646148681640625">
        <ele>1</ele>
        <time>2018-09-06T12:05:42.000Z</time>
      </trkpt>
      <trkpt lat="43.4172517620027065277099609375" lon="-4.7535159252583980560302734375">
        <ele>1</ele>
        <time>2018-09-06T12:05:43.000Z</time>
      </trkpt>
      <trkpt lat="43.41743842698633670806884765625" lon="-4.753478206694126129150390625">
        <ele>0.60000002384185791015625</ele>
        <time>2018-09-06T12:05:47.000Z</time>
      </trkpt>
      <trkpt lat="43.41753666289150714874267578125" lon="-4.75345850922167301177978515625">
        <ele>0.20000000298023223876953125</ele>
        <time>2018-09-06T12:05:49.000Z</time>
      </trkpt>
      <trkpt lat="43.4178907983005046844482421875" lon="-4.75341291166841983795166015625">
        <ele>-0.4000000059604644775390625</ele>
        <time>2018-09-06T12:05:56.000Z</time>
      </trkpt>
      <trkpt lat="43.41804108582437038421630859375" lon="-4.7533851675689220428466796875">
        <ele>-0.800000011920928955078125</ele>
        <time>2018-09-06T12:05:59.000Z</time>
      </trkpt>
      <trkpt lat="43.41808886267244815826416015625" lon="-4.753389023244380950927734375">
        <ele>-1</ele>
        <time>2018-09-06T12:06:00.000Z</time>
      </trkpt>
      <trkpt lat="43.41815910302102565765380859375" lon="-4.75339413620531558990478515625">
        <ele>-1.39999997615814208984375</ele>
        <time>2018-09-06T12:06:02.000Z</time>
      </trkpt>
      <trkpt lat="43.4183256514370441436767578125" lon="-4.75343185476958751678466796875">
        <ele>-1.60000002384185791015625</ele>
        <time>2018-09-06T12:06:08.000Z</time>
      </trkpt>
      <trkpt lat="43.418399579823017120361328125" lon="-4.75343688391149044036865234375">
        <ele>-1.7999999523162841796875</ele>
        <time>2018-09-06T12:06:10.000Z</time>
      </trkpt>
      <trkpt lat="43.4185073710978031158447265625" lon="-4.75346504710614681243896484375">
        <ele>-2.2000000476837158203125</ele>
        <time>2018-09-06T12:06:13.000Z</time>
      </trkpt>
      <trkpt lat="43.4185928665101528167724609375" lon="-4.75342850200831890106201171875">
        <ele>-2.400000095367431640625</ele>
        <time>2018-09-06T12:06:16.000Z</time>
      </trkpt>
      <trkpt lat="43.4185955487191677093505859375" lon="-4.75339673459529876708984375">
        <ele>-2.400000095367431640625</ele>
        <time>2018-09-06T12:06:17.000Z</time>
      </trkpt>
      <trkpt lat="43.4185764379799365997314453125" lon="-4.7533073835074901580810546875">
        <ele>-1.39999997615814208984375</ele>
        <time>2018-09-06T12:06:21.000Z</time>
      </trkpt>
      <trkpt lat="43.41858054511249065399169921875" lon="-4.75327360443770885467529296875">
        <ele>-1</ele>
        <time>2018-09-06T12:06:23.000Z</time>
      </trkpt>
      <trkpt lat="43.41855640523135662078857421875" lon="-4.753247536718845367431640625">
        <ele>-0.60000002384185791015625</ele>
        <time>2018-09-06T12:06:25.000Z</time>
      </trkpt>
      <trkpt lat="43.41854274272918701171875" lon="-4.753257930278778076171875">
        <ele>-0.4000000059604644775390625</ele>
        <time>2018-09-06T12:06:26.000Z</time>
      </trkpt>
      <trkpt lat="43.41854743659496307373046875" lon="-4.753281064331531524658203125">
        <ele>-0.4000000059604644775390625</ele>
        <time>2018-09-06T12:06:29.000Z</time>
      </trkpt>
      <trkpt lat="43.41856562532484531402587890625" lon="-4.75336412899196147918701171875">
        <ele>-0.800000011920928955078125</ele>
        <time>2018-09-06T12:07:40.000Z</time>
      </trkpt>
      <trkpt lat="43.4185814671218395233154296875" lon="-4.7533861733973026275634765625">
        <ele>-1.2000000476837158203125</ele>
        <time>2018-09-06T12:07:41.000Z</time>
      </trkpt>
      <trkpt lat="43.4185744263231754302978515625" lon="-4.7534009255468845367431640625">
        <ele>-1.39999997615814208984375</ele>
        <time>2018-09-06T12:07:42.000Z</time>
      </trkpt>
      <trkpt lat="43.41856746934354305267333984375" lon="-4.7534166835248470306396484375">
        <ele>-1.7999999523162841796875</ele>
        <time>2018-09-06T12:07:43.000Z</time>
      </trkpt>
      <trkpt lat="43.418529666960239410400390625" lon="-4.7534408234059810638427734375">
        <ele>-1.7999999523162841796875</ele>
        <time>2018-09-06T12:07:47.000Z</time>
      </trkpt>
      <trkpt lat="43.418493457138538360595703125" lon="-4.753434956073760986328125">
        <ele>-1.7999999523162841796875</ele>
        <time>2018-09-06T12:07:51.000Z</time>
      </trkpt>
      <trkpt lat="43.41848172247409820556640625" lon="-4.75343470461666584014892578125">
        <ele>-1.7999999523162841796875</ele>
        <time>2018-09-06T12:07:54.000Z</time>
      </trkpt>
      <trkpt lat="43.4184419922530651092529296875" lon="-4.75344643928110599517822265625">
        <ele>-2</ele>
        <time>2018-09-06T12:11:47.000Z</time>
      </trkpt>
      <trkpt lat="43.4184047766029834747314453125" lon="-4.75345700047910213470458984375">
        <ele>-2</ele>
        <time>2018-09-06T12:11:49.000Z</time>
      </trkpt>
      <trkpt lat="43.41833294369280338287353515625" lon="-4.75352087058126926422119140625">
        <ele>-1.60000002384185791015625</ele>
        <time>2018-09-06T12:11:55.000Z</time>
      </trkpt>
      <trkpt lat="43.4182046167552471160888671875" lon="-4.7535769455134868621826171875">
        <ele>-1.39999997615814208984375</ele>
        <time>2018-09-06T12:12:02.000Z</time>
      </trkpt>
      <trkpt lat="43.41814904473721981048583984375" lon="-4.7536037676036357879638671875">
        <ele>-1</ele>
        <time>2018-09-06T12:12:05.000Z</time>
      </trkpt>
      <trkpt lat="43.4180929698050022125244140625" lon="-4.7536476887762546539306640625">
        <ele>-0.800000011920928955078125</ele>
        <time>2018-09-06T12:12:09.000Z</time>
      </trkpt>
      <trkpt lat="43.41805650852620601654052734375" lon="-4.75365196354687213897705078125">
        <ele>-0.800000011920928955078125</ele>
        <time>2018-09-06T12:12:11.000Z</time>
      </trkpt>
      <trkpt lat="43.4179987572133541107177734375" lon="-4.7536755166947841644287109375">
        <ele>-0.800000011920928955078125</ele>
        <time>2018-09-06T12:12:15.000Z</time>
      </trkpt>
      <trkpt lat="43.4179846756160259246826171875" lon="-4.75367140956223011016845703125">
        <ele>-0.60000002384185791015625</ele>
        <time>2018-09-06T12:12:16.000Z</time>
      </trkpt>
      <trkpt lat="43.41794318519532680511474609375" lon="-4.75366671569645404815673828125">
        <ele>-0.4000000059604644775390625</ele>
        <time>2018-09-06T12:12:19.000Z</time>
      </trkpt>
      <trkpt lat="43.41790094040334224700927734375" lon="-4.753668308258056640625">
        <ele>-0.4000000059604644775390625</ele>
        <time>2018-09-06T12:12:22.000Z</time>
      </trkpt>
      <trkpt lat="43.4178599528968334197998046875" lon="-4.753664620220661163330078125">
        <ele>-0.20000000298023223876953125</ele>
        <time>2018-09-06T12:12:25.000Z</time>
      </trkpt>
      <trkpt lat="43.417813517153263092041015625" lon="-4.7536535561084747314453125">
        <ele>-0.20000000298023223876953125</ele>
        <time>2018-09-06T12:12:28.000Z</time>
      </trkpt>
      <trkpt lat="43.41770748607814311981201171875" lon="-4.75364341400563716888427734375">
        <ele>0.20000000298023223876953125</ele>
        <time>2018-09-06T12:12:35.000Z</time>
      </trkpt>
      <trkpt lat="43.4190107882022857666015625" lon="-4.7537569887936115264892578125">
        <ele>0</ele>
        <time>2018-09-07T06:16:07.000Z</time>
      </trkpt>
      <trkpt lat="43.41909460723400115966796875" lon="-4.75382161326706409454345703125">
        <ele>0.20000000298023223876953125</ele>
        <time>2018-09-07T06:16:38.000Z</time>
      </trkpt>
      <trkpt lat="43.41911799274384975433349609375" lon="-4.75384407676756381988525390625">
        <ele>-0.4000000059604644775390625</ele>
        <time>2018-09-07T06:16:40.000Z</time>
      </trkpt>
      <trkpt lat="43.41915898025035858154296875" lon="-4.75388598628342151641845703125">
        <ele>0</ele>
        <time>2018-09-07T06:16:42.000Z</time>
      </trkpt>
      <trkpt lat="43.419182784855365753173828125" lon="-4.75390124134719371795654296875">
        <ele>1</ele>
        <time>2018-09-07T06:16:44.000Z</time>
      </trkpt>
      <trkpt lat="43.41921304352581501007080078125" lon="-4.7539192624390125274658203125">
        <ele>1.2000000476837158203125</ele>
        <time>2018-09-07T06:16:46.000Z</time>
      </trkpt>
      <trkpt lat="43.41929376125335693359375" lon="-4.7540047578513622283935546875">
        <ele>1</ele>
        <time>2018-09-07T06:16:51.000Z</time>
      </trkpt>
      <trkpt lat="43.41937087476253509521484375" lon="-4.754087738692760467529296875">
        <ele>0.60000002384185791015625</ele>
        <time>2018-09-07T06:16:55.000Z</time>
      </trkpt>
      <trkpt lat="43.41944689862430095672607421875" lon="-4.75415823049843311309814453125">
        <ele>1</ele>
        <time>2018-09-07T06:16:59.000Z</time>
      </trkpt>
      <trkpt lat="43.41957832686603069305419921875" lon="-4.75428530015051364898681640625">
        <ele>1.60000002384185791015625</ele>
        <time>2018-09-07T06:17:06.000Z</time>
      </trkpt>
      <trkpt lat="43.41963465325534343719482421875" lon="-4.75432821549475193023681640625">
        <ele>1.7999999523162841796875</ele>
        <time>2018-09-07T06:17:09.000Z</time>
      </trkpt>
      <trkpt lat="43.4196872077882289886474609375" lon="-4.7543578036129474639892578125">
        <ele>2</ele>
        <time>2018-09-07T06:17:12.000Z</time>
      </trkpt>
      <trkpt lat="43.4197012893855571746826171875" lon="-4.754377417266368865966796875">
        <ele>2</ele>
        <time>2018-09-07T06:17:13.000Z</time>
      </trkpt>
      <trkpt lat="43.41971394605934619903564453125" lon="-4.75446425378322601318359375">
        <ele>2</ele>
        <time>2018-09-07T06:17:18.000Z</time>
      </trkpt>
      <trkpt lat="43.41971629299223423004150390625" lon="-4.754502475261688232421875">
        <ele>2</ele>
        <time>2018-09-07T06:17:20.000Z</time>
      </trkpt>
      <trkpt lat="43.4197539277374744415283203125" lon="-4.75455938838422298431396484375">
        <ele>2.2000000476837158203125</ele>
        <time>2018-09-07T06:17:23.000Z</time>
      </trkpt>
      <trkpt lat="43.4197698533535003662109375" lon="-4.754577577114105224609375">
        <ele>2.2000000476837158203125</ele>
        <time>2018-09-07T06:17:24.000Z</time>
      </trkpt>
      <trkpt lat="43.41981436125934123992919921875" lon="-4.75463926792144775390625">
        <ele>2.400000095367431640625</ele>
        <time>2018-09-07T06:17:27.000Z</time>
      </trkpt>
      <trkpt lat="43.419886194169521331787109375" lon="-4.75473188795149326324462890625">
        <ele>2.7999999523162841796875</ele>
        <time>2018-09-07T06:17:32.000Z</time>
      </trkpt>
      <trkpt lat="43.4199549257755279541015625" lon="-4.75476759485900402069091796875">
        <ele>3</ele>
        <time>2018-09-07T06:17:35.000Z</time>
      </trkpt>
      <trkpt lat="43.4200214780867099761962890625" lon="-4.75479709915816783905029296875">
        <ele>3.2000000476837158203125</ele>
        <time>2018-09-07T06:17:38.000Z</time>
      </trkpt>
      <trkpt lat="43.420046456158161163330078125" lon="-4.75479014217853546142578125">
        <ele>3.400000095367431640625</ele>
        <time>2018-09-07T06:17:40.000Z</time>
      </trkpt>
      <trkpt lat="43.42011426575481891632080078125" lon="-4.75478234700858592987060546875">
        <ele>3.599999904632568359375</ele>
        <time>2018-09-07T06:17:43.000Z</time>
      </trkpt>
      <trkpt lat="43.42017562128603458404541015625" lon="-4.75477295927703380584716796875">
        <ele>3.7999999523162841796875</ele>
        <time>2018-09-07T06:17:48.000Z</time>
      </trkpt>
      <trkpt lat="43.420228175818920135498046875" lon="-4.754787124693393707275390625">
        <ele>4.19999980926513671875</ele>
        <time>2018-09-07T06:17:52.000Z</time>
      </trkpt>
      <trkpt lat="43.42030520550906658172607421875" lon="-4.75482727400958538055419921875">
        <ele>4.19999980926513671875</ele>
        <time>2018-09-07T06:17:54.000Z</time>
      </trkpt>
      <trkpt lat="43.4203252382576465606689453125" lon="-4.75482040084898471832275390625">
        <ele>4.19999980926513671875</ele>
        <time>2018-09-07T06:17:55.000Z</time>
      </trkpt>
      <trkpt lat="43.42036337591707706451416015625" lon="-4.754815287888050079345703125">
        <ele>4.400000095367431640625</ele>
        <time>2018-09-07T06:17:58.000Z</time>
      </trkpt>
      <trkpt lat="43.420391790568828582763671875" lon="-4.75484856404364109039306640625">
        <ele>4.400000095367431640625</ele>
        <time>2018-09-07T06:17:59.000Z</time>
      </trkpt>
      <trkpt lat="43.42047619633376598358154296875" lon="-4.75493137724697589874267578125">
        <ele>4.400000095367431640625</ele>
        <time>2018-09-07T06:18:02.000Z</time>
      </trkpt>
      <trkpt lat="43.4206457622349262237548828125" lon="-4.7550551779568195343017578125">
        <ele>4.599999904632568359375</ele>
        <time>2018-09-07T06:18:09.000Z</time>
      </trkpt>
      <trkpt lat="43.42078112997114658355712890625" lon="-4.75516791455447673797607421875">
        <ele>5.19999980926513671875</ele>
        <time>2018-09-07T06:18:14.000Z</time>
      </trkpt>
      <trkpt lat="43.4208053536713123321533203125" lon="-4.75519389845430850982666015625">
        <ele>5.19999980926513671875</ele>
        <time>2018-09-07T06:18:15.000Z</time>
      </trkpt>
      <trkpt lat="43.42083225958049297332763671875" lon="-4.75520445965230464935302734375">
        <ele>5.19999980926513671875</ele>
        <time>2018-09-07T06:18:16.000Z</time>
      </trkpt>
      <trkpt lat="43.42090467922389507293701171875" lon="-4.75539942272007465362548828125">
        <ele>5.400000095367431640625</ele>
        <time>2018-09-07T06:18:23.000Z</time>
      </trkpt>
      <trkpt lat="43.4209652803838253021240234375" lon="-4.7556120716035366058349609375">
        <ele>5.599999904632568359375</ele>
        <time>2018-09-07T06:18:29.000Z</time>
      </trkpt>
      <trkpt lat="43.42103124596178531646728515625" lon="-4.75578884594142436981201171875">
        <ele>6.19999980926513671875</ele>
        <time>2018-09-07T06:18:36.000Z</time>
      </trkpt>
      <trkpt lat="43.42104817740619182586669921875" lon="-4.75586746819317340850830078125">
        <ele>6.400000095367431640625</ele>
        <time>2018-09-07T06:18:41.000Z</time>
      </trkpt>
      <trkpt lat="43.42104147188365459442138671875" lon="-4.7558662109076976776123046875">
        <ele>6.400000095367431640625</ele>
        <time>2018-09-07T06:18:42.000Z</time>
      </trkpt>
      <trkpt lat="43.42100928537547588348388671875" lon="-4.75581474602222442626953125">
        <ele>6.19999980926513671875</ele>
        <time>2018-09-07T06:18:46.000Z</time>
      </trkpt>
      <trkpt lat="43.4209964610636234283447265625" lon="-4.7557978145778179168701171875">
        <ele>6.19999980926513671875</ele>
        <time>2018-09-07T06:18:47.000Z</time>
      </trkpt>
      <trkpt lat="43.42098112218081951141357421875" lon="-4.755782224237918853759765625">
        <ele>6.19999980926513671875</ele>
        <time>2018-09-07T06:18:48.000Z</time>
      </trkpt>
      <trkpt lat="43.420949690043926239013671875" lon="-4.7556358762085437774658203125">
        <ele>6</ele>
        <time>2018-09-07T06:18:53.000Z</time>
      </trkpt>
      <trkpt lat="43.420944996178150177001953125" lon="-4.7555993311107158660888671875">
        <ele>6</ele>
        <time>2018-09-07T06:18:54.000Z</time>
      </trkpt>
      <trkpt lat="43.42092228122055530548095703125" lon="-4.7554675675928592681884765625">
        <ele>5.80000019073486328125</ele>
        <time>2018-09-07T06:18:58.000Z</time>
      </trkpt>
      <trkpt lat="43.42091155238449573516845703125" lon="-4.75530914962291717529296875">
        <ele>5.599999904632568359375</ele>
        <time>2018-09-07T06:19:03.000Z</time>
      </trkpt>
      <trkpt lat="43.42093351297080516815185546875" lon="-4.75529171526432037353515625">
        <ele>5.599999904632568359375</ele>
        <time>2018-09-07T06:19:05.000Z</time>
      </trkpt>
      <trkpt lat="43.4209572337567806243896484375" lon="-4.75530018098652362823486328125">
        <ele>5.599999904632568359375</ele>
        <time>2018-09-07T06:19:06.000Z</time>
      </trkpt>
      <trkpt lat="43.42098313383758068084716796875" lon="-4.755302108824253082275390625">
        <ele>5.599999904632568359375</ele>
        <time>2018-09-07T06:19:07.000Z</time>
      </trkpt>
      <trkpt lat="43.42103778384625911712646484375" lon="-4.75537159480154514312744140625">
        <ele>5.80000019073486328125</ele>
        <time>2018-09-07T06:19:10.000Z</time>
      </trkpt>
      <trkpt lat="43.4210444055497646331787109375" lon="-4.7554038651287555694580078125">
        <ele>5.80000019073486328125</ele>
        <time>2018-09-07T06:19:11.000Z</time>
      </trkpt>
      <trkpt lat="43.42103677801787853240966796875" lon="-4.75544015876948833465576171875">
        <ele>5.80000019073486328125</ele>
        <time>2018-09-07T06:19:12.000Z</time>
      </trkpt>
      <trkpt lat="43.42104465700685977935791015625" lon="-4.755539484322071075439453125">
        <ele>5.80000019073486328125</ele>
        <time>2018-09-07T06:19:15.000Z</time>
      </trkpt>
      <trkpt lat="43.421067036688327789306640625" lon="-4.75572648458182811737060546875">
        <ele>5.80000019073486328125</ele>
        <time>2018-09-07T06:19:20.000Z</time>
      </trkpt>
      <trkpt lat="43.4210680425167083740234375" lon="-4.7558033466339111328125">
        <ele>6</ele>
        <time>2018-09-07T06:19:22.000Z</time>
      </trkpt>
      <trkpt lat="43.4210896678268909454345703125" lon="-4.7559158317744731903076171875">
        <ele>6.19999980926513671875</ele>
        <time>2018-09-07T06:19:25.000Z</time>
      </trkpt>
      <trkpt lat="43.4211020730435848236083984375" lon="-4.7560237906873226165771484375">
        <ele>6.19999980926513671875</ele>
        <time>2018-09-07T06:19:28.000Z</time>
      </trkpt>
      <trkpt lat="43.42113451100885868072509765625" lon="-4.7562373615801334381103515625">
        <ele>6.599999904632568359375</ele>
        <time>2018-09-07T06:19:34.000Z</time>
      </trkpt>
      <trkpt lat="43.42114138416945934295654296875" lon="-4.756322018802165985107421875">
        <ele>6.599999904632568359375</ele>
        <time>2018-09-07T06:19:36.000Z</time>
      </trkpt>
      <trkpt lat="43.42116066254675388336181640625" lon="-4.75658328272402286529541015625">
        <ele>7</ele>
        <time>2018-09-07T06:19:42.000Z</time>
      </trkpt>
      <trkpt lat="43.42116418294608592987060546875" lon="-4.7566254436969757080078125">
        <ele>7</ele>
        <time>2018-09-07T06:19:43.000Z</time>
      </trkpt>
      <trkpt lat="43.4211795218288898468017578125" lon="-4.756715297698974609375">
        <ele>7.19999980926513671875</ele>
        <time>2018-09-07T06:19:46.000Z</time>
      </trkpt>
      <trkpt lat="43.4211949445307254791259765625" lon="-4.756780005991458892822265625">
        <ele>7.400000095367431640625</ele>
        <time>2018-09-07T06:19:48.000Z</time>
      </trkpt>
      <trkpt lat="43.42121430672705173492431640625" lon="-4.75695895962417125701904296875">
        <ele>7.599999904632568359375</ele>
        <time>2018-09-07T06:19:53.000Z</time>
      </trkpt>
      <trkpt lat="43.4212331660091876983642578125" lon="-4.757046885788440704345703125">
        <ele>7.599999904632568359375</ele>
        <time>2018-09-07T06:19:55.000Z</time>
      </trkpt>
      <trkpt lat="43.42125722207129001617431640625" lon="-4.7571791522204875946044921875">
        <ele>7.80000019073486328125</ele>
        <time>2018-09-07T06:19:58.000Z</time>
      </trkpt>
      <trkpt lat="43.421269543468952178955078125" lon="-4.75725836120545864105224609375">
        <ele>7.80000019073486328125</ele>
        <time>2018-09-07T06:20:00.000Z</time>
      </trkpt>
      <trkpt lat="43.4213166497647762298583984375" lon="-4.75749473087489604949951171875">
        <ele>8.19999980926513671875</ele>
        <time>2018-09-07T06:20:06.000Z</time>
      </trkpt>
      <trkpt lat="43.421324193477630615234375" lon="-4.757534377276897430419921875">
        <ele>8.19999980926513671875</ele>
        <time>2018-09-07T06:20:07.000Z</time>
      </trkpt>
      <trkpt lat="43.4213672764599323272705078125" lon="-4.75785599090158939361572265625">
        <ele>7.80000019073486328125</ele>
        <time>2018-09-07T06:20:15.000Z</time>
      </trkpt>
      <trkpt lat="43.4213736467063426971435546875" lon="-4.7578966431319713592529296875">
        <ele>6.80000019073486328125</ele>
        <time>2018-09-07T06:20:16.000Z</time>
      </trkpt>
      <trkpt lat="43.4213897399604320526123046875" lon="-4.7579667158424854278564453125">
        <ele>8.3999996185302734375</ele>
        <time>2018-09-07T06:20:18.000Z</time>
      </trkpt>
      <trkpt lat="43.42141647823154926300048828125" lon="-4.75813376717269420623779296875">
        <ele>9.19999980926513671875</ele>
        <time>2018-09-07T06:20:22.000Z</time>
      </trkpt>
      <trkpt lat="43.4214584715664386749267578125" lon="-4.758306182920932769775390625">
        <ele>9.80000019073486328125</ele>
        <time>2018-09-07T06:20:26.000Z</time>
      </trkpt>
      <trkpt lat="43.42150482349097728729248046875" lon="-4.7584307380020618438720703125">
        <ele>9.6000003814697265625</ele>
        <time>2018-09-07T06:20:29.000Z</time>
      </trkpt>
      <trkpt lat="43.42163977213203907012939453125" lon="-4.7588169761002063751220703125">
        <ele>10</ele>
        <time>2018-09-07T06:20:38.000Z</time>
      </trkpt>
      <trkpt lat="43.42170783318579196929931640625" lon="-4.75903247483074665069580078125">
        <ele>10</ele>
        <time>2018-09-07T06:20:43.000Z</time>
      </trkpt>
      <trkpt lat="43.4217424504458904266357421875" lon="-4.75915971212089061737060546875">
        <ele>10</ele>
        <time>2018-09-07T06:20:46.000Z</time>
      </trkpt>
      <trkpt lat="43.42177522368729114532470703125" lon="-4.759244620800018310546875">
        <ele>10.19999980926513671875</ele>
        <time>2018-09-07T06:20:49.000Z</time>
      </trkpt>
      <trkpt lat="43.42178779654204845428466796875" lon="-4.7592861950397491455078125">
        <ele>10.3999996185302734375</ele>
        <time>2018-09-07T06:20:51.000Z</time>
      </trkpt>
      <trkpt lat="43.421803303062915802001953125" lon="-4.75936423055827617645263671875">
        <ele>10.3999996185302734375</ele>
        <time>2018-09-07T06:20:53.000Z</time>
      </trkpt>
      <trkpt lat="43.4218319691717624664306640625" lon="-4.759445451200008392333984375">
        <ele>10.19999980926513671875</ele>
        <time>2018-09-07T06:20:55.000Z</time>
      </trkpt>
      <trkpt lat="43.4218698553740978240966796875" lon="-4.75956849753856658935546875">
        <ele>10.3999996185302734375</ele>
        <time>2018-09-07T06:20:58.000Z</time>
      </trkpt>
      <trkpt lat="43.42192375101149082183837890625" lon="-4.75972716696560382843017578125">
        <ele>10.6000003814697265625</ele>
        <time>2018-09-07T06:21:02.000Z</time>
      </trkpt>
      <trkpt lat="43.42201427556574344635009765625" lon="-4.7599743492901325225830078125">
        <ele>10.80000019073486328125</ele>
        <time>2018-09-07T06:21:08.000Z</time>
      </trkpt>
      <trkpt lat="43.42207278124988079071044921875" lon="-4.7601349465548992156982421875">
        <ele>10.80000019073486328125</ele>
        <time>2018-09-07T06:21:12.000Z</time>
      </trkpt>
      <trkpt lat="43.42214100994169712066650390625" lon="-4.7603250481188297271728515625">
        <ele>11</ele>
        <time>2018-09-07T06:21:17.000Z</time>
      </trkpt>
      <trkpt lat="43.42223103158175945281982421875" lon="-4.76065705530345439910888671875">
        <ele>11.3999996185302734375</ele>
        <time>2018-09-07T06:21:25.000Z</time>
      </trkpt>
      <trkpt lat="43.42230378650128841400146484375" lon="-4.7609064169228076934814453125">
        <ele>11.80000019073486328125</ele>
        <time>2018-09-07T06:21:31.000Z</time>
      </trkpt>
      <trkpt lat="43.4223328717052936553955078125" lon="-4.76099006831645965576171875">
        <ele>12</ele>
        <time>2018-09-07T06:21:33.000Z</time>
      </trkpt>
      <trkpt lat="43.42244711704552173614501953125" lon="-4.76133339107036590576171875">
        <ele>12.19999980926513671875</ele>
        <time>2018-09-07T06:21:41.000Z</time>
      </trkpt>
      <trkpt lat="43.4224938042461872100830078125" lon="-4.7614582814276218414306640625">
        <ele>12.3999996185302734375</ele>
        <time>2018-09-07T06:21:44.000Z</time>
      </trkpt>
      <trkpt lat="43.422569073736667633056640625" lon="-4.7617067210376262664794921875">
        <ele>12.6000003814697265625</ele>
        <time>2018-09-07T06:21:50.000Z</time>
      </trkpt>
      <trkpt lat="43.42267560772597789764404296875" lon="-4.7620175220072269439697265625">
        <ele>12.80000019073486328125</ele>
        <time>2018-09-07T06:21:57.000Z</time>
      </trkpt>
      <trkpt lat="43.42280946671962738037109375" lon="-4.76250845007598400115966796875">
        <ele>12.80000019073486328125</ele>
        <time>2018-09-07T06:22:07.000Z</time>
      </trkpt>
      <trkpt lat="43.42282983474433422088623046875" lon="-4.762758314609527587890625">
        <ele>12.80000019073486328125</ele>
        <time>2018-09-07T06:22:12.000Z</time>
      </trkpt>
      <trkpt lat="43.42283402569591999053955078125" lon="-4.762808270752429962158203125">
        <ele>13</ele>
        <time>2018-09-07T06:22:13.000Z</time>
      </trkpt>
      <trkpt lat="43.42288029380142688751220703125" lon="-4.76323080249130725860595703125">
        <ele>13.3999996185302734375</ele>
        <time>2018-09-07T06:22:21.000Z</time>
      </trkpt>
      <trkpt lat="43.4229192696511745452880859375" lon="-4.76349784992635250091552734375">
        <ele>13.6000003814697265625</ele>
        <time>2018-09-07T06:22:26.000Z</time>
      </trkpt>
      <trkpt lat="43.42293092049658298492431640625" lon="-4.7636610455811023712158203125">
        <ele>13.6000003814697265625</ele>
        <time>2018-09-07T06:22:29.000Z</time>
      </trkpt>
      <trkpt lat="43.42293796129524707794189453125" lon="-4.7637118399143218994140625">
        <ele>13.6000003814697265625</ele>
        <time>2018-09-07T06:22:30.000Z</time>
      </trkpt>
      <trkpt lat="43.42295187525451183319091796875" lon="-4.76391778327524662017822265625">
        <ele>14</ele>
        <time>2018-09-07T06:22:34.000Z</time>
      </trkpt>
      <trkpt lat="43.42298221774399280548095703125" lon="-4.76412146352231502532958984375">
        <ele>14.6000003814697265625</ele>
        <time>2018-09-07T06:22:38.000Z</time>
      </trkpt>
      <trkpt lat="43.42300937511026859283447265625" lon="-4.7645404748618602752685546875">
        <ele>14.80000019073486328125</ele>
        <time>2018-09-07T06:22:46.000Z</time>
      </trkpt>
      <trkpt lat="43.4230154938995838165283203125" lon="-4.764592610299587249755859375">
        <ele>15</ele>
        <time>2018-09-07T06:22:47.000Z</time>
      </trkpt>
      <trkpt lat="43.42305354773998260498046875" lon="-4.7649716399610042572021484375">
        <ele>15.3999996185302734375</ele>
        <time>2018-09-07T06:22:54.000Z</time>
      </trkpt>
      <trkpt lat="43.4231033362448215484619140625" lon="-4.7653434611856937408447265625">
        <ele>15.6000003814697265625</ele>
        <time>2018-09-07T06:23:01.000Z</time>
      </trkpt>
      <trkpt lat="43.42314499430358409881591796875" lon="-4.76586355827748775482177734375">
        <ele>15.6000003814697265625</ele>
        <time>2018-09-07T06:23:09.000Z</time>
      </trkpt>
      <trkpt lat="43.42317533679306507110595703125" lon="-4.766041673719882965087890625">
        <ele>15.80000019073486328125</ele>
        <time>2018-09-07T06:23:12.000Z</time>
      </trkpt>
      <trkpt lat="43.4232126362621784210205078125" lon="-4.76620838977396488189697265625">
        <ele>15.80000019073486328125</ele>
        <time>2018-09-07T06:23:15.000Z</time>
      </trkpt>
      <trkpt lat="43.423237614333629608154296875" lon="-4.76632037200033664703369140625">
        <ele>15.80000019073486328125</ele>
        <time>2018-09-07T06:23:17.000Z</time>
      </trkpt>
      <trkpt lat="43.42328866012394428253173828125" lon="-4.76653017103672027587890625">
        <ele>16</ele>
        <time>2018-09-07T06:23:21.000Z</time>
      </trkpt>
      <trkpt lat="43.4233340062201023101806640625" lon="-4.76678657345473766326904296875">
        <ele>16</ele>
        <time>2018-09-07T06:23:26.000Z</time>
      </trkpt>
      <trkpt lat="43.423363678157329559326171875" lon="-4.7669061832129955291748046875">
        <ele>16.200000762939453125</ele>
        <time>2018-09-07T06:23:29.000Z</time>
      </trkpt>
      <trkpt lat="43.423390500247478485107421875" lon="-4.76694147102534770965576171875">
        <ele>16.200000762939453125</ele>
        <time>2018-09-07T06:23:30.000Z</time>
      </trkpt>
      <trkpt lat="43.423413969576358795166015625" lon="-4.76699461229145526885986328125">
        <ele>16</ele>
        <time>2018-09-07T06:23:31.000Z</time>
      </trkpt>
      <trkpt lat="43.42346484772861003875732421875" lon="-4.76716878823935985565185546875">
        <ele>16.200000762939453125</ele>
        <time>2018-09-07T06:23:34.000Z</time>
      </trkpt>
      <trkpt lat="43.4234785102307796478271484375" lon="-4.76722779683768749237060546875">
        <ele>16.3999996185302734375</ele>
        <time>2018-09-07T06:23:35.000Z</time>
      </trkpt>
      <trkpt lat="43.4235034883022308349609375" lon="-4.76735067553818225860595703125">
        <ele>16.200000762939453125</ele>
        <time>2018-09-07T06:23:37.000Z</time>
      </trkpt>
      <trkpt lat="43.4235475771129131317138671875" lon="-4.7675385139882564544677734375">
        <ele>16.200000762939453125</ele>
        <time>2018-09-07T06:23:40.000Z</time>
      </trkpt>
      <trkpt lat="43.4235754050314426422119140625" lon="-4.76765728555619716644287109375">
        <ele>16.200000762939453125</ele>
        <time>2018-09-07T06:23:42.000Z</time>
      </trkpt>
      <trkpt lat="43.423613794147968292236328125" lon="-4.7678382508456707000732421875">
        <ele>16</ele>
        <time>2018-09-07T06:23:45.000Z</time>
      </trkpt>
      <trkpt lat="43.4236619062721729278564453125" lon="-4.76809264160692691802978515625">
        <ele>15.80000019073486328125</ele>
        <time>2018-09-07T06:23:49.000Z</time>
      </trkpt>
      <trkpt lat="43.42365629039704799652099609375" lon="-4.76828961633145809173583984375">
        <ele>15.6000003814697265625</ele>
        <time>2018-09-07T06:23:52.000Z</time>
      </trkpt>
      <trkpt lat="43.42365126125514507293701171875" lon="-4.7683560848236083984375">
        <ele>15.80000019073486328125</ele>
        <time>2018-09-07T06:23:53.000Z</time>
      </trkpt>
      <trkpt lat="43.42365344054996967315673828125" lon="-4.76842137984931468963623046875">
        <ele>15.80000019073486328125</ele>
        <time>2018-09-07T06:23:54.000Z</time>
      </trkpt>
      <trkpt lat="43.42364966869354248046875" lon="-4.768686331808567047119140625">
        <ele>15.6000003814697265625</ele>
        <time>2018-09-07T06:23:58.000Z</time>
      </trkpt>
      <trkpt lat="43.4236565418541431427001953125" lon="-4.768738634884357452392578125">
        <ele>15.80000019073486328125</ele>
        <time>2018-09-07T06:23:59.000Z</time>
      </trkpt>
      <trkpt lat="43.423668108880519866943359375" lon="-4.76883293129503726959228515625">
        <ele>16.200000762939453125</ele>
        <time>2018-09-07T06:24:02.000Z</time>
      </trkpt>
      <trkpt lat="43.423673808574676513671875" lon="-4.768863357603549957275390625">
        <ele>16.3999996185302734375</ele>
        <time>2018-09-07T06:24:03.000Z</time>
      </trkpt>
      <trkpt lat="43.42366215772926807403564453125" lon="-4.76888774894177913665771484375">
        <ele>16.3999996185302734375</ele>
        <time>2018-09-07T06:24:04.000Z</time>
      </trkpt>
      <trkpt lat="43.4236169792711734771728515625" lon="-4.7689314186573028564453125">
        <ele>16.3999996185302734375</ele>
        <time>2018-09-07T06:24:06.000Z</time>
      </trkpt>
      <trkpt lat="43.42361672781407833099365234375" lon="-4.769035689532756805419921875">
        <ele>16.6000003814697265625</ele>
        <time>2018-09-07T06:24:10.000Z</time>
      </trkpt>
      <trkpt lat="43.4236226789653301239013671875" lon="-4.76907835341989994049072265625">
        <ele>16.6000003814697265625</ele>
        <time>2018-09-07T06:24:11.000Z</time>
      </trkpt>
      <trkpt lat="43.42365226708352565765380859375" lon="-4.76924364455044269561767578125">
        <ele>16.799999237060546875</ele>
        <time>2018-09-07T06:24:15.000Z</time>
      </trkpt>
      <trkpt lat="43.42366115190088748931884765625" lon="-4.76932159624993801116943359375">
        <ele>16.799999237060546875</ele>
        <time>2018-09-07T06:24:17.000Z</time>
      </trkpt>
      <trkpt lat="43.42367121018469333648681640625" lon="-4.76937557570636272430419921875">
        <ele>16.799999237060546875</ele>
        <time>2018-09-07T06:24:19.000Z</time>
      </trkpt>
      <trkpt lat="43.42367959208786487579345703125" lon="-4.76942603476345539093017578125">
        <ele>17</ele>
        <time>2018-09-07T06:24:21.000Z</time>
      </trkpt>
      <trkpt lat="43.42367112636566162109375" lon="-4.76945369504392147064208984375">
        <ele>17</ele>
        <time>2018-09-07T06:24:22.000Z</time>
      </trkpt>
      <trkpt lat="43.4236054122447967529296875" lon="-4.7695434652268886566162109375">
        <ele>17.799999237060546875</ele>
        <time>2018-09-07T06:24:25.000Z</time>
      </trkpt>
      <trkpt lat="43.423570208251476287841796875" lon="-4.76961948908865451812744140625">
        <ele>18.200000762939453125</ele>
        <time>2018-09-07T06:24:27.000Z</time>
      </trkpt>
      <trkpt lat="43.42352586798369884490966796875" lon="-4.76973867975175380706787109375">
        <ele>18.799999237060546875</ele>
        <time>2018-09-07T06:24:30.000Z</time>
      </trkpt>
      <trkpt lat="43.423481024801731109619140625" lon="-4.7698415257036685943603515625">
        <ele>18.6000003814697265625</ele>
        <time>2018-09-07T06:24:32.000Z</time>
      </trkpt>
      <trkpt lat="43.42335957102477550506591796875" lon="-4.7701392509043216705322265625">
        <ele>17.200000762939453125</ele>
        <time>2018-09-07T06:24:38.000Z</time>
      </trkpt>
      <trkpt lat="43.4233477525413036346435546875" lon="-4.77019163779914379119873046875">
        <ele>17.200000762939453125</ele>
        <time>2018-09-07T06:24:39.000Z</time>
      </trkpt>
      <trkpt lat="43.4233497641980648040771484375" lon="-4.77033429779112339019775390625">
        <ele>16.799999237060546875</ele>
        <time>2018-09-07T06:24:42.000Z</time>
      </trkpt>
      <trkpt lat="43.42334079556167125701904296875" lon="-4.77055306546390056610107421875">
        <ele>16</ele>
        <time>2018-09-07T06:24:46.000Z</time>
      </trkpt>
      <trkpt lat="43.42333861626684665679931640625" lon="-4.77061525918543338775634765625">
        <ele>15.6000003814697265625</ele>
        <time>2018-09-07T06:24:47.000Z</time>
      </trkpt>
      <trkpt lat="43.4233420528471469879150390625" lon="-4.77067820727825164794921875">
        <ele>15.3999996185302734375</ele>
        <time>2018-09-07T06:24:48.000Z</time>
      </trkpt>
      <trkpt lat="43.42333576641976833343505859375" lon="-4.77087761275470256805419921875">
        <ele>15</ele>
        <time>2018-09-07T06:24:51.000Z</time>
      </trkpt>
      <trkpt lat="43.4233273006975650787353515625" lon="-4.7709365375339984893798828125">
        <ele>14.80000019073486328125</ele>
        <time>2018-09-07T06:24:52.000Z</time>
      </trkpt>
      <trkpt lat="43.42332168482244014739990234375" lon="-4.7709911875426769256591796875">
        <ele>14.80000019073486328125</ele>
        <time>2018-09-07T06:24:53.000Z</time>
      </trkpt>
      <trkpt lat="43.42325345613062381744384765625" lon="-4.77116326801478862762451171875">
        <ele>14.80000019073486328125</ele>
        <time>2018-09-07T06:24:57.000Z</time>
      </trkpt>
      <trkpt lat="43.4232340939342975616455078125" lon="-4.7712097875773906707763671875">
        <ele>14.80000019073486328125</ele>
        <time>2018-09-07T06:24:58.000Z</time>
      </trkpt>
      <trkpt lat="43.42319780029356479644775390625" lon="-4.77128765545785427093505859375">
        <ele>14.80000019073486328125</ele>
        <time>2018-09-07T06:25:00.000Z</time>
      </trkpt>
      <trkpt lat="43.42312890104949474334716796875" lon="-4.77138002403080463409423828125">
        <ele>14.80000019073486328125</ele>
        <time>2018-09-07T06:25:03.000Z</time>
      </trkpt>
      <trkpt lat="43.42299328185617923736572265625" lon="-4.7715940140187740325927734375">
        <ele>15</ele>
        <time>2018-09-07T06:25:09.000Z</time>
      </trkpt>
      <trkpt lat="43.422831930220127105712890625" lon="-4.77182242088019847869873046875">
        <ele>14.80000019073486328125</ele>
        <time>2018-09-07T06:25:14.000Z</time>
      </trkpt>
      <trkpt lat="43.4228029288351535797119140625" lon="-4.77187355048954486846923828125">
        <ele>14.80000019073486328125</ele>
        <time>2018-09-07T06:25:15.000Z</time>
      </trkpt>
      <trkpt lat="43.42267678119242191314697265625" lon="-4.7721066512167453765869140625">
        <ele>15.3999996185302734375</ele>
        <time>2018-09-07T06:25:20.000Z</time>
      </trkpt>
      <trkpt lat="43.42265683226287364959716796875" lon="-4.772201366722583770751953125">
        <ele>15.80000019073486328125</ele>
        <time>2018-09-07T06:25:22.000Z</time>
      </trkpt>
      <trkpt lat="43.42263252474367618560791015625" lon="-4.77228510193526744842529296875">
        <ele>16.3999996185302734375</ele>
        <time>2018-09-07T06:25:24.000Z</time>
      </trkpt>
      <trkpt lat="43.42262481339275836944580078125" lon="-4.77232835255563259124755859375">
        <ele>16.6000003814697265625</ele>
        <time>2018-09-07T06:25:25.000Z</time>
      </trkpt>
      <trkpt lat="43.4226071275770664215087890625" lon="-4.77246363647282123565673828125">
        <ele>17.200000762939453125</ele>
        <time>2018-09-07T06:25:28.000Z</time>
      </trkpt>
      <trkpt lat="43.42258843593299388885498046875" lon="-4.77268793620169162750244140625">
        <ele>17.799999237060546875</ele>
        <time>2018-09-07T06:25:33.000Z</time>
      </trkpt>
      <trkpt lat="43.4225829876959323883056640625" lon="-4.77288491092622280120849609375">
        <ele>18.200000762939453125</ele>
        <time>2018-09-07T06:25:37.000Z</time>
      </trkpt>
      <trkpt lat="43.42257904820144176483154296875" lon="-4.772990606725215911865234375">
        <ele>18.200000762939453125</ele>
        <time>2018-09-07T06:25:39.000Z</time>
      </trkpt>
      <trkpt lat="43.42259430326521396636962890625" lon="-4.77339855395257472991943359375">
        <ele>18.6000003814697265625</ele>
        <time>2018-09-07T06:25:48.000Z</time>
      </trkpt>
      <trkpt lat="43.4226584248244762420654296875" lon="-4.77373617701232433319091796875">
        <ele>18.3999996185302734375</ele>
        <time>2018-09-07T06:25:55.000Z</time>
      </trkpt>
      <trkpt lat="43.4226773679256439208984375" lon="-4.77392007596790790557861328125">
        <ele>18.200000762939453125</ele>
        <time>2018-09-07T06:25:58.000Z</time>
      </trkpt>
      <trkpt lat="43.42267560772597789764404296875" lon="-4.77412484586238861083984375">
        <ele>17.799999237060546875</ele>
        <time>2018-09-07T06:26:01.000Z</time>
      </trkpt>
      <trkpt lat="43.42265616171061992645263671875" lon="-4.77456129156053066253662109375">
        <ele>17.200000762939453125</ele>
        <time>2018-09-07T06:26:07.000Z</time>
      </trkpt>
      <trkpt lat="43.4226631186902523040771484375" lon="-4.7746339626610279083251953125">
        <ele>17.200000762939453125</ele>
        <time>2018-09-07T06:26:08.000Z</time>
      </trkpt>
      <trkpt lat="43.42266923747956752777099609375" lon="-4.7747060470283031463623046875">
        <ele>17.200000762939453125</ele>
        <time>2018-09-07T06:26:09.000Z</time>
      </trkpt>
      <trkpt lat="43.4226845763623714447021484375" lon="-4.7748428396880626678466796875">
        <ele>17.200000762939453125</ele>
        <time>2018-09-07T06:26:11.000Z</time>
      </trkpt>
      <trkpt lat="43.42272371985018253326416015625" lon="-4.77510963566601276397705078125">
        <ele>17</ele>
        <time>2018-09-07T06:26:15.000Z</time>
      </trkpt>
      <trkpt lat="43.42272070236504077911376953125" lon="-4.7751791216433048248291015625">
        <ele>16.6000003814697265625</ele>
        <time>2018-09-07T06:26:16.000Z</time>
      </trkpt>
      <trkpt lat="43.4226688183844089508056640625" lon="-4.7756729833781719207763671875">
        <ele>16.3999996185302734375</ele>
        <time>2018-09-07T06:26:23.000Z</time>
      </trkpt>
      <trkpt lat="43.42260436154901981353759765625" lon="-4.77585763670504093170166015625">
        <ele>16.3999996185302734375</ele>
        <time>2018-09-07T06:26:26.000Z</time>
      </trkpt>
      <trkpt lat="43.42252842150628566741943359375" lon="-4.77609434165060520172119140625">
        <ele>16.799999237060546875</ele>
        <time>2018-09-07T06:26:30.000Z</time>
      </trkpt>
      <trkpt lat="43.4224931336939334869384765625" lon="-4.77627840824425220489501953125">
        <ele>17</ele>
        <time>2018-09-07T06:26:33.000Z</time>
      </trkpt>
      <trkpt lat="43.4224855899810791015625" lon="-4.77646482177078723907470703125">
        <ele>17.3999996185302734375</ele>
        <time>2018-09-07T06:26:36.000Z</time>
      </trkpt>
      <trkpt lat="43.42248634435236454010009765625" lon="-4.7765245847404003143310546875">
        <ele>17.6000003814697265625</ele>
        <time>2018-09-07T06:26:37.000Z</time>
      </trkpt>
      <trkpt lat="43.42250193469226360321044921875" lon="-4.77664151228964328765869140625">
        <ele>17.799999237060546875</ele>
        <time>2018-09-07T06:26:39.000Z</time>
      </trkpt>
      <trkpt lat="43.4225457720458507537841796875" lon="-4.7767451964318752288818359375">
        <ele>18.200000762939453125</ele>
        <time>2018-09-07T06:26:41.000Z</time>
      </trkpt>
      <trkpt lat="43.42256806790828704833984375" lon="-4.776799678802490234375">
        <ele>18.200000762939453125</ele>
        <time>2018-09-07T06:26:42.000Z</time>
      </trkpt>
      <trkpt lat="43.4226108156144618988037109375" lon="-4.77691568434238433837890625">
        <ele>17.799999237060546875</ele>
        <time>2018-09-07T06:26:44.000Z</time>
      </trkpt>
      <trkpt lat="43.42265389859676361083984375" lon="-4.7771029360592365264892578125">
        <ele>18</ele>
        <time>2018-09-07T06:26:47.000Z</time>
      </trkpt>
      <trkpt lat="43.42266286723315715789794921875" lon="-4.77716538123786449432373046875">
        <ele>18</ele>
        <time>2018-09-07T06:26:48.000Z</time>
      </trkpt>
      <trkpt lat="43.4227543137967586517333984375" lon="-4.77773635648190975189208984375">
        <ele>17.6000003814697265625</ele>
        <time>2018-09-07T06:26:57.000Z</time>
      </trkpt>
      <trkpt lat="43.42276277951896190643310546875" lon="-4.77793668396770954132080078125">
        <ele>17.3999996185302734375</ele>
        <time>2018-09-07T06:27:00.000Z</time>
      </trkpt>
      <trkpt lat="43.422753475606441497802734375" lon="-4.7781345807015895843505859375">
        <ele>17.200000762939453125</ele>
        <time>2018-09-07T06:27:03.000Z</time>
      </trkpt>
      <trkpt lat="43.42275473289191722869873046875" lon="-4.7782629914581775665283203125">
        <ele>17</ele>
        <time>2018-09-07T06:27:05.000Z</time>
      </trkpt>
      <trkpt lat="43.4227497875690460205078125" lon="-4.7783873789012432098388671875">
        <ele>16.799999237060546875</ele>
        <time>2018-09-07T06:27:07.000Z</time>
      </trkpt>
      <trkpt lat="43.4227559901773929595947265625" lon="-4.77852643467485904693603515625">
        <ele>16.799999237060546875</ele>
        <time>2018-09-07T06:27:09.000Z</time>
      </trkpt>
      <trkpt lat="43.42277317307889461517333984375" lon="-4.778665490448474884033203125">
        <ele>16.6000003814697265625</ele>
        <time>2018-09-07T06:27:11.000Z</time>
      </trkpt>
      <trkpt lat="43.42285699211061000823974609375" lon="-4.778931699693202972412109375">
        <ele>16</ele>
        <time>2018-09-07T06:27:15.000Z</time>
      </trkpt>
      <trkpt lat="43.42291851527988910675048828125" lon="-4.77905985899269580841064453125">
        <ele>15.80000019073486328125</ele>
        <time>2018-09-07T06:27:17.000Z</time>
      </trkpt>
      <trkpt lat="43.42297316528856754302978515625" lon="-4.7791880182921886444091796875">
        <ele>15.3999996185302734375</ele>
        <time>2018-09-07T06:27:19.000Z</time>
      </trkpt>
      <trkpt lat="43.42301842756569385528564453125" lon="-4.77931969799101352691650390625">
        <ele>15.19999980926513671875</ele>
        <time>2018-09-07T06:27:21.000Z</time>
      </trkpt>
      <trkpt lat="43.42303334735333919525146484375" lon="-4.7793891839683055877685546875">
        <ele>15.19999980926513671875</ele>
        <time>2018-09-07T06:27:22.000Z</time>
      </trkpt>
      <trkpt lat="43.4230649471282958984375" lon="-4.779618345201015472412109375">
        <ele>15</ele>
        <time>2018-09-07T06:27:25.000Z</time>
      </trkpt>
      <trkpt lat="43.42306293547153472900390625" lon="-4.7796993143856525421142578125">
        <ele>14.80000019073486328125</ele>
        <time>2018-09-07T06:27:26.000Z</time>
      </trkpt>
      <trkpt lat="43.423055224120616912841796875" lon="-4.77985781617462635040283203125">
        <ele>14.80000019073486328125</ele>
        <time>2018-09-07T06:27:28.000Z</time>
      </trkpt>
      <trkpt lat="43.423060588538646697998046875" lon="-4.780016653239727020263671875">
        <ele>14.80000019073486328125</ele>
        <time>2018-09-07T06:27:30.000Z</time>
      </trkpt>
      <trkpt lat="43.42307592742145061492919921875" lon="-4.780177585780620574951171875">
        <ele>14.6000003814697265625</ele>
        <time>2018-09-07T06:27:32.000Z</time>
      </trkpt>
      <trkpt lat="43.42312806285917758941650390625" lon="-4.78039911948144435882568359375">
        <ele>14.6000003814697265625</ele>
        <time>2018-09-07T06:27:35.000Z</time>
      </trkpt>
      <trkpt lat="43.42319495044648647308349609375" lon="-4.780512191355228424072265625">
        <ele>14.6000003814697265625</ele>
        <time>2018-09-07T06:27:37.000Z</time>
      </trkpt>
      <trkpt lat="43.42334565706551074981689453125" lon="-4.780592657625675201416015625">
        <ele>14.19999980926513671875</ele>
        <time>2018-09-07T06:27:40.000Z</time>
      </trkpt>
      <trkpt lat="43.4234003908932209014892578125" lon="-4.7806025482714176177978515625">
        <ele>13.80000019073486328125</ele>
        <time>2018-09-07T06:27:41.000Z</time>
      </trkpt>
      <trkpt lat="43.4235147200524806976318359375" lon="-4.7806065715849399566650390625">
        <ele>13.3999996185302734375</ele>
        <time>2018-09-07T06:27:43.000Z</time>
      </trkpt>
      <trkpt lat="43.42357280664145946502685546875" lon="-4.78059626184403896331787109375">
        <ele>13.19999980926513671875</ele>
        <time>2018-09-07T06:27:44.000Z</time>
      </trkpt>
      <trkpt lat="43.42368562705814838409423828125" lon="-4.780575893819332122802734375">
        <ele>12.80000019073486328125</ele>
        <time>2018-09-07T06:27:46.000Z</time>
      </trkpt>
      <trkpt lat="43.423846475780010223388671875" lon="-4.78053356520831584930419921875">
        <ele>12.80000019073486328125</ele>
        <time>2018-09-07T06:27:50.000Z</time>
      </trkpt>
      <trkpt lat="43.42389307916164398193359375" lon="-4.78057698346674442291259765625">
        <ele>12.6000003814697265625</ele>
        <time>2018-09-07T06:27:52.000Z</time>
      </trkpt>
      <trkpt lat="43.42390171252191066741943359375" lon="-4.780639596283435821533203125">
        <ele>12.3999996185302734375</ele>
        <time>2018-09-07T06:27:53.000Z</time>
      </trkpt>
      <trkpt lat="43.42391227371990680694580078125" lon="-4.7806991077959537506103515625">
        <ele>12.3999996185302734375</ele>
        <time>2018-09-07T06:27:54.000Z</time>
      </trkpt>
      <trkpt lat="43.4239150397479534149169921875" lon="-4.780811257660388946533203125">
        <ele>12.3999996185302734375</ele>
        <time>2018-09-07T06:27:56.000Z</time>
      </trkpt>
      <trkpt lat="43.42391931451857089996337890625" lon="-4.780872948467731475830078125">
        <ele>12.3999996185302734375</ele>
        <time>2018-09-07T06:27:57.000Z</time>
      </trkpt>
      <trkpt lat="43.423955105245113372802734375" lon="-4.781385920941829681396484375">
        <ele>12.3999996185302734375</ele>
        <time>2018-09-07T06:28:05.000Z</time>
      </trkpt>
      <trkpt lat="43.4239787422120571136474609375" lon="-4.7817347757518291473388671875">
        <ele>12.6000003814697265625</ele>
        <time>2018-09-07T06:28:11.000Z</time>
      </trkpt>
      <trkpt lat="43.42398536391556262969970703125" lon="-4.78179235942661762237548828125">
        <ele>12.80000019073486328125</ele>
        <time>2018-09-07T06:28:12.000Z</time>
      </trkpt>
      <trkpt lat="43.42401503585278987884521484375" lon="-4.78208622895181179046630859375">
        <ele>13</ele>
        <time>2018-09-07T06:28:17.000Z</time>
      </trkpt>
      <trkpt lat="43.42402894981205463409423828125" lon="-4.782311283051967620849609375">
        <ele>13.3999996185302734375</ele>
        <time>2018-09-07T06:28:21.000Z</time>
      </trkpt>
      <trkpt lat="43.42403791844844818115234375" lon="-4.78241153061389923095703125">
        <ele>13.6000003814697265625</ele>
        <time>2018-09-07T06:28:23.000Z</time>
      </trkpt>
      <trkpt lat="43.42405007220804691314697265625" lon="-4.78250482119619846343994140625">
        <ele>14</ele>
        <time>2018-09-07T06:28:25.000Z</time>
      </trkpt>
      <trkpt lat="43.424055017530918121337890625" lon="-4.78258595801889896392822265625">
        <ele>14</ele>
        <time>2018-09-07T06:28:27.000Z</time>
      </trkpt>
      <trkpt lat="43.4240944124758243560791015625" lon="-4.78276499547064304351806640625">
        <ele>14.6000003814697265625</ele>
        <time>2018-09-07T06:28:32.000Z</time>
      </trkpt>
      <trkpt lat="43.4241016209125518798828125" lon="-4.7829092480242252349853515625">
        <ele>14.6000003814697265625</ele>
        <time>2018-09-07T06:28:36.000Z</time>
      </trkpt>
      <trkpt lat="43.424134813249111175537109375" lon="-4.783074371516704559326171875">
        <ele>15</ele>
        <time>2018-09-07T06:28:41.000Z</time>
      </trkpt>
      <trkpt lat="43.42412634752690792083740234375" lon="-4.7831063903868198394775390625">
        <ele>15</ele>
        <time>2018-09-07T06:28:42.000Z</time>
      </trkpt>
      <trkpt lat="43.42414864338934421539306640625" lon="-4.783293306827545166015625">
        <ele>15.19999980926513671875</ele>
        <time>2018-09-07T06:28:48.000Z</time>
      </trkpt>
      <trkpt lat="43.42421829700469970703125" lon="-4.78352741338312625885009765625">
        <ele>15</ele>
        <time>2018-09-07T06:28:55.000Z</time>
      </trkpt>
      <trkpt lat="43.42424402944743633270263671875" lon="-4.78365733288228511810302734375">
        <ele>14.80000019073486328125</ele>
        <time>2018-09-07T06:28:59.000Z</time>
      </trkpt>
      <trkpt lat="43.42424738220870494842529296875" lon="-4.78370561264455318450927734375">
        <ele>14.80000019073486328125</ele>
        <time>2018-09-07T06:29:00.000Z</time>
      </trkpt>
      <trkpt lat="43.4242491424083709716796875" lon="-4.78384860791265964508056640625">
        <ele>14.3999996185302734375</ele>
        <time>2018-09-07T06:29:03.000Z</time>
      </trkpt>
      <trkpt lat="43.424249477684497833251953125" lon="-4.78395908139646053314208984375">
        <ele>14.19999980926513671875</ele>
        <time>2018-09-07T06:29:05.000Z</time>
      </trkpt>
      <trkpt lat="43.42424704693257808685302734375" lon="-4.78407374583184719085693359375">
        <ele>14</ele>
        <time>2018-09-07T06:29:07.000Z</time>
      </trkpt>
      <trkpt lat="43.42424788512289524078369140625" lon="-4.78413476608693599700927734375">
        <ele>13.80000019073486328125</ele>
        <time>2018-09-07T06:29:08.000Z</time>
      </trkpt>
      <trkpt lat="43.42423916794359683990478515625" lon="-4.78446342051029205322265625">
        <ele>12.80000019073486328125</ele>
        <time>2018-09-07T06:29:13.000Z</time>
      </trkpt>
      <trkpt lat="43.42423598282039165496826171875" lon="-4.78461286984384059906005859375">
        <ele>12.19999980926513671875</ele>
        <time>2018-09-07T06:29:15.000Z</time>
      </trkpt>
      <trkpt lat="43.42422290705144405364990234375" lon="-4.78478101082146167755126953125">
        <ele>11.80000019073486328125</ele>
        <time>2018-09-07T06:29:17.000Z</time>
      </trkpt>
      <trkpt lat="43.42420614324510097503662109375" lon="-4.78487120009958744049072265625">
        <ele>11.3999996185302734375</ele>
        <time>2018-09-07T06:29:18.000Z</time>
      </trkpt>
      <trkpt lat="43.42417999170720577239990234375" lon="-4.78505208157002925872802734375">
        <ele>10.3999996185302734375</ele>
        <time>2018-09-07T06:29:20.000Z</time>
      </trkpt>
      <trkpt lat="43.42411997728049755096435546875" lon="-4.78533656336367130279541015625">
        <ele>9.19999980926513671875</ele>
        <time>2018-09-07T06:29:23.000Z</time>
      </trkpt>
      <trkpt lat="43.4240934066474437713623046875" lon="-4.7854348830878734588623046875">
        <ele>8.6000003814697265625</ele>
        <time>2018-09-07T06:29:24.000Z</time>
      </trkpt>
      <trkpt lat="43.42406348325312137603759765625" lon="-4.785535968840122222900390625">
        <ele>8</ele>
        <time>2018-09-07T06:29:25.000Z</time>
      </trkpt>
      <trkpt lat="43.424031548202037811279296875" lon="-4.7856420837342739105224609375">
        <ele>7.400000095367431640625</ele>
        <time>2018-09-07T06:29:26.000Z</time>
      </trkpt>
      <trkpt lat="43.424001373350620269775390625" lon="-4.7857460193336009979248046875">
        <ele>7</ele>
        <time>2018-09-07T06:29:27.000Z</time>
      </trkpt>
      <trkpt lat="43.42396683990955352783203125" lon="-4.7858626954257488250732421875">
        <ele>5.80000019073486328125</ele>
        <time>2018-09-07T06:29:28.000Z</time>
      </trkpt>
      <trkpt lat="43.42386650852859020233154296875" lon="-4.78620157577097415924072265625">
        <ele>4.599999904632568359375</ele>
        <time>2018-09-07T06:29:31.000Z</time>
      </trkpt>
      <trkpt lat="43.4238412790000438690185546875" lon="-4.7863176651298999786376953125">
        <ele>4.400000095367431640625</ele>
        <time>2018-09-07T06:29:32.000Z</time>
      </trkpt>
      <trkpt lat="43.4238231740891933441162109375" lon="-4.7864350117743015289306640625">
        <ele>4.19999980926513671875</ele>
        <time>2018-09-07T06:29:33.000Z</time>
      </trkpt>
      <trkpt lat="43.4238157980144023895263671875" lon="-4.78666408918797969818115234375">
        <ele>4</ele>
        <time>2018-09-07T06:29:35.000Z</time>
      </trkpt>
      <trkpt lat="43.4238235093653202056884765625" lon="-4.7867739759385585784912109375">
        <ele>4.19999980926513671875</ele>
        <time>2018-09-07T06:29:36.000Z</time>
      </trkpt>
      <trkpt lat="43.423835746943950653076171875" lon="-4.78687816299498081207275390625">
        <ele>4.400000095367431640625</ele>
        <time>2018-09-07T06:29:37.000Z</time>
      </trkpt>
      <trkpt lat="43.42391160316765308380126953125" lon="-4.78721897117793560028076171875">
        <ele>5.599999904632568359375</ele>
        <time>2018-09-07T06:29:41.000Z</time>
      </trkpt>
      <trkpt lat="43.42393389903008937835693359375" lon="-4.787286110222339630126953125">
        <ele>6</ele>
        <time>2018-09-07T06:29:42.000Z</time>
      </trkpt>
      <trkpt lat="43.423975221812725067138671875" lon="-4.78740521706640720367431640625">
        <ele>6.80000019073486328125</ele>
        <time>2018-09-07T06:29:44.000Z</time>
      </trkpt>
      <trkpt lat="43.42400464229285717010498046875" lon="-4.7874522395431995391845703125">
        <ele>7</ele>
        <time>2018-09-07T06:29:45.000Z</time>
      </trkpt>
      <trkpt lat="43.42405610717833042144775390625" lon="-4.78751602582633495330810546875">
        <ele>7.400000095367431640625</ele>
        <time>2018-09-07T06:29:47.000Z</time>
      </trkpt>
      <trkpt lat="43.424092233180999755859375" lon="-4.7875987552106380462646484375">
        <ele>8</ele>
        <time>2018-09-07T06:29:50.000Z</time>
      </trkpt>
      <trkpt lat="43.42408292926847934722900390625" lon="-4.7876151837408542633056640625">
        <ele>8.19999980926513671875</ele>
        <time>2018-09-07T06:29:51.000Z</time>
      </trkpt>
      <trkpt lat="43.4240018762648105621337890625" lon="-4.78758291341364383697509765625">
        <ele>8.3999996185302734375</ele>
        <time>2018-09-07T06:29:56.000Z</time>
      </trkpt>
      <trkpt lat="43.42394177801907062530517578125" lon="-4.787415526807308197021484375">
        <ele>7.80000019073486328125</ele>
        <time>2018-09-07T06:30:00.000Z</time>
      </trkpt>
      <trkpt lat="43.42384387739002704620361328125" lon="-4.78709659539163112640380859375">
        <ele>6.599999904632568359375</ele>
        <time>2018-09-07T06:30:05.000Z</time>
      </trkpt>
      <trkpt lat="43.42382510192692279815673828125" lon="-4.7870230861008167266845703125">
        <ele>6.400000095367431640625</ele>
        <time>2018-09-07T06:30:06.000Z</time>
      </trkpt>
      <trkpt lat="43.42379760928452014923095703125" lon="-4.78686944581568241119384765625">
        <ele>6</ele>
        <time>2018-09-07T06:30:08.000Z</time>
      </trkpt>
      <trkpt lat="43.42378319241106510162353515625" lon="-4.78670767508447170257568359375">
        <ele>5.400000095367431640625</ele>
        <time>2018-09-07T06:30:10.000Z</time>
      </trkpt>
      <trkpt lat="43.42377933673560619354248046875" lon="-4.78662653826177120208740234375">
        <ele>5.19999980926513671875</ele>
        <time>2018-09-07T06:30:11.000Z</time>
      </trkpt>
      <trkpt lat="43.42378151603043079376220703125" lon="-4.7864661924540996551513671875">
        <ele>5</ele>
        <time>2018-09-07T06:30:13.000Z</time>
      </trkpt>
      <trkpt lat="43.4237956814467906951904296875" lon="-4.7863139770925045013427734375">
        <ele>5</ele>
        <time>2018-09-07T06:30:15.000Z</time>
      </trkpt>
      <trkpt lat="43.4238080866634845733642578125" lon="-4.78624281473457813262939453125">
        <ele>5</ele>
        <time>2018-09-07T06:30:16.000Z</time>
      </trkpt>
      <trkpt lat="43.42387656681239604949951171875" lon="-4.78599839843809604644775390625">
        <ele>5.400000095367431640625</ele>
        <time>2018-09-07T06:30:20.000Z</time>
      </trkpt>
      <trkpt lat="43.42391260899603366851806640625" lon="-4.78589630685746669769287109375">
        <ele>5.599999904632568359375</ele>
        <time>2018-09-07T06:30:22.000Z</time>
      </trkpt>
      <trkpt lat="43.4239683486521244049072265625" lon="-4.78578549809753894805908203125">
        <ele>6.19999980926513671875</ele>
        <time>2018-09-07T06:30:25.000Z</time>
      </trkpt>
      <trkpt lat="43.4239921532571315765380859375" lon="-4.78578113950788974761962890625">
        <ele>6.19999980926513671875</ele>
        <time>2018-09-07T06:30:26.000Z</time>
      </trkpt>
      <trkpt lat="43.4240665845572948455810546875" lon="-4.78585590608417987823486328125">
        <ele>6.19999980926513671875</ele>
        <time>2018-09-07T06:30:29.000Z</time>
      </trkpt>
      <trkpt lat="43.4241403453052043914794921875" lon="-4.7858801297843456268310546875">
        <ele>5.80000019073486328125</ele>
        <time>2018-09-07T06:30:31.000Z</time>
      </trkpt>
      <trkpt lat="43.4242177940905094146728515625" lon="-4.78589932434260845184326171875">
        <ele>5.400000095367431640625</ele>
        <time>2018-09-07T06:30:33.000Z</time>
      </trkpt>
      <trkpt lat="43.42426012270152568817138671875" lon="-4.78591240011155605316162109375">
        <ele>5</ele>
        <time>2018-09-07T06:30:34.000Z</time>
      </trkpt>
      <trkpt lat="43.42439792118966579437255859375" lon="-4.7859528847038745880126953125">
        <ele>4.400000095367431640625</ele>
        <time>2018-09-07T06:30:37.000Z</time>
      </trkpt>
      <trkpt lat="43.42444066889584064483642578125" lon="-4.78596855886280536651611328125">
        <ele>4.19999980926513671875</ele>
        <time>2018-09-07T06:30:38.000Z</time>
      </trkpt>
      <trkpt lat="43.4245228953659534454345703125" lon="-4.78599965572357177734375">
        <ele>3.7999999523162841796875</ele>
        <time>2018-09-07T06:30:40.000Z</time>
      </trkpt>
      <trkpt lat="43.42456405051052570343017578125" lon="-4.78600979782640933990478515625">
        <ele>3.599999904632568359375</ele>
        <time>2018-09-07T06:30:41.000Z</time>
      </trkpt>
      <trkpt lat="43.42466161586344242095947265625" lon="-4.786002337932586669921875">
        <ele>3.2000000476837158203125</ele>
        <time>2018-09-07T06:30:43.000Z</time>
      </trkpt>
      <trkpt lat="43.42477980069816112518310546875" lon="-4.7859894298017024993896484375">
        <ele>2.2000000476837158203125</ele>
        <time>2018-09-07T06:30:45.000Z</time>
      </trkpt>
      <trkpt lat="43.42483545653522014617919921875" lon="-4.78599454276263713836669921875">
        <ele>1.60000002384185791015625</ele>
        <time>2018-09-07T06:30:46.000Z</time>
      </trkpt>
      <trkpt lat="43.4249245561659336090087890625" lon="-4.786033518612384796142578125">
        <ele>0.20000000298023223876953125</ele>
        <time>2018-09-07T06:30:48.000Z</time>
      </trkpt>
      <trkpt lat="43.42496420256793498992919921875" lon="-4.7861540503799915313720703125">
        <ele>-1.60000002384185791015625</ele>
        <time>2018-09-07T06:30:50.000Z</time>
      </trkpt>
      <trkpt lat="43.42502572573721408843994140625" lon="-4.78628874756395816802978515625">
        <ele>-1.7999999523162841796875</ele>
        <time>2018-09-07T06:30:53.000Z</time>
      </trkpt>
      <trkpt lat="43.42508129775524139404296875" lon="-4.78634892962872982025146484375">
        <ele>-1.2000000476837158203125</ele>
        <time>2018-09-07T06:30:55.000Z</time>
      </trkpt>
      <trkpt lat="43.4251652844250202178955078125" lon="-4.7864360176026821136474609375">
        <ele>-1.39999997615814208984375</ele>
        <time>2018-09-07T06:30:58.000Z</time>
      </trkpt>
      <trkpt lat="43.4252128936350345611572265625" lon="-4.786472730338573455810546875">
        <ele>-1</ele>
        <time>2018-09-07T06:31:00.000Z</time>
      </trkpt>
      <trkpt lat="43.425229154527187347412109375" lon="-4.78648371063172817230224609375">
        <ele>-0.4000000059604644775390625</ele>
        <time>2018-09-07T06:31:01.000Z</time>
      </trkpt>
      <trkpt lat="43.42524281702935695648193359375" lon="-4.78649142198264598846435546875">
        <ele>-0.20000000298023223876953125</ele>
        <time>2018-09-07T06:31:02.000Z</time>
      </trkpt>
      <trkpt lat="43.4252678789198398590087890625" lon="-4.78650064207613468170166015625">
        <ele>0.60000002384185791015625</ele>
        <time>2018-09-07T06:31:04.000Z</time>
      </trkpt>
      <trkpt lat="43.42528003267943859100341796875" lon="-4.7865017317235469818115234375">
        <ele>1.7999999523162841796875</ele>
        <time>2018-09-07T06:31:05.000Z</time>
      </trkpt>
      <trkpt lat="43.42529411427676677703857421875" lon="-4.78649787604808807373046875">
        <ele>2.2000000476837158203125</ele>
        <time>2018-09-07T06:31:06.000Z</time>
      </trkpt>
      <trkpt lat="43.42530936934053897857666015625" lon="-4.78649393655359745025634765625">
        <ele>2.7999999523162841796875</ele>
        <time>2018-09-07T06:31:07.000Z</time>
      </trkpt>
      <trkpt lat="43.42532462440431118011474609375" lon="-4.7864893265068531036376953125">
        <ele>3.400000095367431640625</ele>
        <time>2018-09-07T06:31:08.000Z</time>
      </trkpt>
      <trkpt lat="43.425341807305812835693359375" lon="-4.786482788622379302978515625">
        <ele>3.7999999523162841796875</ele>
        <time>2018-09-07T06:31:09.000Z</time>
      </trkpt>
      <trkpt lat="43.42535748146474361419677734375" lon="-4.78647700510919094085693359375">
        <ele>4.19999980926513671875</ele>
        <time>2018-09-07T06:31:10.000Z</time>
      </trkpt>
      <trkpt lat="43.42538396827876567840576171875" lon="-4.786464683711528778076171875">
        <ele>5</ele>
        <time>2018-09-07T06:31:12.000Z</time>
      </trkpt>
      <trkpt lat="43.42539587058126926422119140625" lon="-4.7864569723606109619140625">
        <ele>5.400000095367431640625</ele>
        <time>2018-09-07T06:31:13.000Z</time>
      </trkpt>
      <trkpt lat="43.42542185448110103607177734375" lon="-4.78643828071653842926025390625">
        <ele>6.19999980926513671875</ele>
        <time>2018-09-07T06:31:15.000Z</time>
      </trkpt>
      <trkpt lat="43.42543761245906352996826171875" lon="-4.7864274680614471435546875">
        <ele>6.599999904632568359375</ele>
        <time>2018-09-07T06:31:16.000Z</time>
      </trkpt>
      <trkpt lat="43.4254546277225017547607421875" lon="-4.78642386384308338165283203125">
        <ele>6.80000019073486328125</ele>
        <time>2018-09-07T06:31:17.000Z</time>
      </trkpt>
      <trkpt lat="43.425487317144870758056640625" lon="-4.78641229681670665740966796875">
        <ele>7.400000095367431640625</ele>
        <time>2018-09-07T06:31:19.000Z</time>
      </trkpt>
      <trkpt lat="43.42550466768443584442138671875" lon="-4.7864086925983428955078125">
        <ele>8</ele>
        <time>2018-09-07T06:31:20.000Z</time>
      </trkpt>
      <trkpt lat="43.42552042566239833831787109375" lon="-4.78640458546578884124755859375">
        <ele>8.19999980926513671875</ele>
        <time>2018-09-07T06:31:21.000Z</time>
      </trkpt>
      <trkpt lat="43.425572477281093597412109375" lon="-4.78639000095427036285400390625">
        <ele>9.19999980926513671875</ele>
        <time>2018-09-07T06:31:24.000Z</time>
      </trkpt>
      <trkpt lat="43.42566811479628086090087890625" lon="-4.7864011488854885101318359375">
        <ele>10.19999980926513671875</ele>
        <time>2018-09-07T06:31:29.000Z</time>
      </trkpt>
      <trkpt lat="43.42568705789744853973388671875" lon="-4.786408357322216033935546875">
        <ele>10.3999996185302734375</ele>
        <time>2018-09-07T06:31:30.000Z</time>
      </trkpt>
      <trkpt lat="43.42576618306338787078857421875" lon="-4.78649259544909000396728515625">
        <ele>11</ele>
        <time>2018-09-07T06:31:36.000Z</time>
      </trkpt>
      <trkpt lat="43.42584597878158092498779296875" lon="-4.78655328042805194854736328125">
        <ele>10.6000003814697265625</ele>
        <time>2018-09-07T06:31:41.000Z</time>
      </trkpt>
      <trkpt lat="43.42587414197623729705810546875" lon="-4.78656417690217494964599609375">
        <ele>9.80000019073486328125</ele>
        <time>2018-09-07T06:31:42.000Z</time>
      </trkpt>
      <trkpt lat="43.42597992159426212310791015625" lon="-4.78658999316394329071044921875">
        <ele>9.19999980926513671875</ele>
        <time>2018-09-07T06:31:45.000Z</time>
      </trkpt>
      <trkpt lat="43.42601361684501171112060546875" lon="-4.7865949384868144989013671875">
        <ele>9.19999980926513671875</ele>
        <time>2018-09-07T06:31:46.000Z</time>
      </trkpt>
      <trkpt lat="43.4260473959147930145263671875" lon="-4.7865996323525905609130859375">
        <ele>9.19999980926513671875</ele>
        <time>2018-09-07T06:31:47.000Z</time>
      </trkpt>
      <trkpt lat="43.4261684305965900421142578125" lon="-4.78661530651152133941650390625">
        <ele>9</ele>
        <time>2018-09-07T06:31:51.000Z</time>
      </trkpt>
      <trkpt lat="43.426198102533817291259765625" lon="-4.7866254486143589019775390625">
        <ele>8.80000019073486328125</ele>
        <time>2018-09-07T06:31:52.000Z</time>
      </trkpt>
      <trkpt lat="43.4263105876743793487548828125" lon="-4.7866921685636043548583984375">
        <ele>8</ele>
        <time>2018-09-07T06:31:55.000Z</time>
      </trkpt>
      <trkpt lat="43.4263602085411548614501953125" lon="-4.78673047386109828948974609375">
        <ele>7.80000019073486328125</ele>
        <time>2018-09-07T06:31:56.000Z</time>
      </trkpt>
      <trkpt lat="43.426448889076709747314453125" lon="-4.78684698231518268585205078125">
        <ele>6.80000019073486328125</ele>
        <time>2018-09-07T06:31:58.000Z</time>
      </trkpt>
      <trkpt lat="43.426481075584888458251953125" lon="-4.78692711330950260162353515625">
        <ele>6.19999980926513671875</ele>
        <time>2018-09-07T06:31:59.000Z</time>
      </trkpt>
      <trkpt lat="43.42649943195283412933349609375" lon="-4.7870121896266937255859375">
        <ele>5.80000019073486328125</ele>
        <time>2018-09-07T06:32:00.000Z</time>
      </trkpt>
      <trkpt lat="43.4265110827982425689697265625" lon="-4.7870981879532337188720703125">
        <ele>5.599999904632568359375</ele>
        <time>2018-09-07T06:32:01.000Z</time>
      </trkpt>
      <trkpt lat="43.4265372343361377716064453125" lon="-4.78726305998861789703369140625">
        <ele>5.400000095367431640625</ele>
        <time>2018-09-07T06:32:03.000Z</time>
      </trkpt>
      <trkpt lat="43.42656263150274753570556640625" lon="-4.78740471415221691131591796875">
        <ele>6</ele>
        <time>2018-09-07T06:32:05.000Z</time>
      </trkpt>
      <trkpt lat="43.4265638887882232666015625" lon="-4.78753161616623401641845703125">
        <ele>6.599999904632568359375</ele>
        <time>2018-09-07T06:32:07.000Z</time>
      </trkpt>
      <trkpt lat="43.426554165780544281005859375" lon="-4.7875883616507053375244140625">
        <ele>7</ele>
        <time>2018-09-07T06:32:08.000Z</time>
      </trkpt>
      <trkpt lat="43.42654570005834102630615234375" lon="-4.7876371443271636962890625">
        <ele>7.400000095367431640625</ele>
        <time>2018-09-07T06:32:09.000Z</time>
      </trkpt>
      <trkpt lat="43.4265409223735332489013671875" lon="-4.78768047876656055450439453125">
        <ele>8</ele>
        <time>2018-09-07T06:32:10.000Z</time>
      </trkpt>
      <trkpt lat="43.42653949744999408721923828125" lon="-4.78775725699961185455322265625">
        <ele>8.80000019073486328125</ele>
        <time>2018-09-07T06:32:12.000Z</time>
      </trkpt>
      <trkpt lat="43.42654402367770671844482421875" lon="-4.787792377173900604248046875">
        <ele>9.19999980926513671875</ele>
        <time>2018-09-07T06:32:13.000Z</time>
      </trkpt>
      <trkpt lat="43.42655458487570285797119140625" lon="-4.78782062418758869171142578125">
        <ele>9.6000003814697265625</ele>
        <time>2018-09-07T06:32:14.000Z</time>
      </trkpt>
      <trkpt lat="43.42659766785800457000732421875" lon="-4.78782816790044307708740234375">
        <ele>10.19999980926513671875</ele>
        <time>2018-09-07T06:32:16.000Z</time>
      </trkpt>
      <trkpt lat="43.42661526985466480255126953125" lon="-4.7878036089241504669189453125">
        <ele>10.80000019073486328125</ele>
        <time>2018-09-07T06:32:17.000Z</time>
      </trkpt>
      <trkpt lat="43.426631279289722442626953125" lon="-4.787736721336841583251953125">
        <ele>11.3999996185302734375</ele>
        <time>2018-09-07T06:32:19.000Z</time>
      </trkpt>
      <trkpt lat="43.42664527706801891326904296875" lon="-4.78767259977757930755615234375">
        <ele>12</ele>
        <time>2018-09-07T06:32:21.000Z</time>
      </trkpt>
      <trkpt lat="43.426672853529453277587890625" lon="-4.78760504163801670074462890625">
        <ele>12.19999980926513671875</ele>
        <time>2018-09-07T06:32:23.000Z</time>
      </trkpt>
      <trkpt lat="43.426703028380870819091796875" lon="-4.7875457815825939178466796875">
        <ele>12.3999996185302734375</ele>
        <time>2018-09-07T06:32:25.000Z</time>
      </trkpt>
      <trkpt lat="43.42675055377185344696044921875" lon="-4.78749071247875690460205078125">
        <ele>13</ele>
        <time>2018-09-07T06:32:27.000Z</time>
      </trkpt>
      <trkpt lat="43.4268145076930522918701171875" lon="-4.78740504942834377288818359375">
        <ele>13.6000003814697265625</ele>
        <time>2018-09-07T06:32:30.000Z</time>
      </trkpt>
      <trkpt lat="43.426833786070346832275390625" lon="-4.78737588040530681610107421875">
        <ele>14</ele>
        <time>2018-09-07T06:32:31.000Z</time>
      </trkpt>
      <trkpt lat="43.4269018471240997314453125" lon="-4.78728032670915126800537109375">
        <ele>15.19999980926513671875</ele>
        <time>2018-09-07T06:32:35.000Z</time>
      </trkpt>
      <trkpt lat="43.42694518156349658966064453125" lon="-4.7872048057615756988525390625">
        <ele>15.6000003814697265625</ele>
        <time>2018-09-07T06:32:38.000Z</time>
      </trkpt>
      <trkpt lat="43.4270723350346088409423828125" lon="-4.7870348207652568817138671875">
        <ele>16.3999996185302734375</ele>
        <time>2018-09-07T06:32:45.000Z</time>
      </trkpt>
      <trkpt lat="43.42719345353543758392333984375" lon="-4.78698679246008396148681640625">
        <ele>17.3999996185302734375</ele>
        <time>2018-09-07T06:32:50.000Z</time>
      </trkpt>
      <trkpt lat="43.42724609188735485076904296875" lon="-4.786971621215343475341796875">
        <ele>17.6000003814697265625</ele>
        <time>2018-09-07T06:32:52.000Z</time>
      </trkpt>
      <trkpt lat="43.4273787774145603179931640625" lon="-4.78692845441401004791259765625">
        <ele>18.3999996185302734375</ele>
        <time>2018-09-07T06:32:57.000Z</time>
      </trkpt>
      <trkpt lat="43.42740618623793125152587890625" lon="-4.78691898286342620849609375">
        <ele>18.6000003814697265625</ele>
        <time>2018-09-07T06:32:58.000Z</time>
      </trkpt>
      <trkpt lat="43.4274807013571262359619140625" lon="-4.786876402795314788818359375">
        <ele>19.3999996185302734375</ele>
        <time>2018-09-07T06:33:01.000Z</time>
      </trkpt>
      <trkpt lat="43.4275534562766551971435546875" lon="-4.78681982494890689849853515625">
        <ele>19.6000003814697265625</ele>
        <time>2018-09-07T06:33:04.000Z</time>
      </trkpt>
      <trkpt lat="43.42765479348599910736083984375" lon="-4.78673717938363552093505859375">
        <ele>18.799999237060546875</ele>
        <time>2018-09-07T06:33:07.000Z</time>
      </trkpt>
      <trkpt lat="43.42773534357547760009765625" lon="-4.78668789379298686981201171875">
        <ele>18.3999996185302734375</ele>
        <time>2018-09-07T06:33:09.000Z</time>
      </trkpt>
      <trkpt lat="43.4278137981891632080078125" lon="-4.7866393625736236572265625">
        <ele>18.3999996185302734375</ele>
        <time>2018-09-07T06:33:11.000Z</time>
      </trkpt>
      <trkpt lat="43.42797582037746906280517578125" lon="-4.7864878177642822265625">
        <ele>19.200000762939453125</ele>
        <time>2018-09-07T06:33:16.000Z</time>
      </trkpt>
      <trkpt lat="43.42800247482955455780029296875" lon="-4.7864569723606109619140625">
        <ele>19.6000003814697265625</ele>
        <time>2018-09-07T06:33:17.000Z</time>
      </trkpt>
      <trkpt lat="43.428097777068614959716796875" lon="-4.7864138893783092498779296875">
        <ele>20.3999996185302734375</ele>
        <time>2018-09-07T06:33:20.000Z</time>
      </trkpt>
      <trkpt lat="43.42819358222186565399169921875" lon="-4.78647532872855663299560546875">
        <ele>20.799999237060546875</ele>
        <time>2018-09-07T06:33:23.000Z</time>
      </trkpt>
      <trkpt lat="43.4282209910452365875244140625" lon="-4.78651321493089199066162109375">
        <ele>20.799999237060546875</ele>
        <time>2018-09-07T06:33:24.000Z</time>
      </trkpt>
      <trkpt lat="43.42824630439281463623046875" lon="-4.78655797429382801055908203125">
        <ele>20.799999237060546875</ele>
        <time>2018-09-07T06:33:25.000Z</time>
      </trkpt>
      <trkpt lat="43.4283108450472354888916015625" lon="-4.7867102734744548797607421875">
        <ele>20.200000762939453125</ele>
        <time>2018-09-07T06:33:28.000Z</time>
      </trkpt>
      <trkpt lat="43.42833557166159152984619140625" lon="-4.786758720874786376953125">
        <ele>20</ele>
        <time>2018-09-07T06:33:29.000Z</time>
      </trkpt>
      <trkpt lat="43.42839290387928485870361328125" lon="-4.7868494130671024322509765625">
        <ele>19.799999237060546875</ele>
        <time>2018-09-07T06:33:31.000Z</time>
      </trkpt>
      <trkpt lat="43.4284633956849575042724609375" lon="-4.78693348355591297149658203125">
        <ele>19.6000003814697265625</ele>
        <time>2018-09-07T06:33:33.000Z</time>
      </trkpt>
      <trkpt lat="43.428545035421848297119140625" lon="-4.787005819380283355712890625">
        <ele>19.3999996185302734375</ele>
        <time>2018-09-07T06:33:35.000Z</time>
      </trkpt>
      <trkpt lat="43.4286291897296905517578125" lon="-4.7870767302811145782470703125">
        <ele>19.3999996185302734375</ele>
        <time>2018-09-07T06:33:37.000Z</time>
      </trkpt>
      <trkpt lat="43.42871577478945255279541015625" lon="-4.78713967837393283843994140625">
        <ele>19.200000762939453125</ele>
        <time>2018-09-07T06:33:39.000Z</time>
      </trkpt>
      <trkpt lat="43.4288868494331836700439453125" lon="-4.7872561030089855194091796875">
        <ele>19</ele>
        <time>2018-09-07T06:33:43.000Z</time>
      </trkpt>
      <trkpt lat="43.429091870784759521484375" lon="-4.78745701722800731658935546875">
        <ele>20.6000003814697265625</ele>
        <time>2018-09-07T06:33:49.000Z</time>
      </trkpt>
      <trkpt lat="43.42911374755203723907470703125" lon="-4.78748819790780544281005859375">
        <ele>20.799999237060546875</ele>
        <time>2018-09-07T06:33:50.000Z</time>
      </trkpt>
      <trkpt lat="43.42914191074669361114501953125" lon="-4.78754234500229358673095703125">
        <ele>21.799999237060546875</ele>
        <time>2018-09-07T06:33:52.000Z</time>
      </trkpt>
      <trkpt lat="43.42915565706789493560791015625" lon="-4.7875689156353473663330078125">
        <ele>22.3999996185302734375</ele>
        <time>2018-09-07T06:33:53.000Z</time>
      </trkpt>
      <trkpt lat="43.42916965484619140625" lon="-4.78759489953517913818359375">
        <ele>22.3999996185302734375</ele>
        <time>2018-09-07T06:33:54.000Z</time>
      </trkpt>
      <trkpt lat="43.42920519411563873291015625" lon="-4.7876319475471973419189453125">
        <ele>23</ele>
        <time>2018-09-07T06:33:56.000Z</time>
      </trkpt>
      <trkpt lat="43.42922405339777469635009765625" lon="-4.78763957507908344268798828125">
        <ele>23.3999996185302734375</ele>
        <time>2018-09-07T06:33:57.000Z</time>
      </trkpt>
      <trkpt lat="43.42923947609961032867431640625" lon="-4.78764577768743038177490234375">
        <ele>23.799999237060546875</ele>
        <time>2018-09-07T06:33:58.000Z</time>
      </trkpt>
      <trkpt lat="43.42928431928157806396484375" lon="-4.78766405023634433746337890625">
        <ele>24.200000762939453125</ele>
        <time>2018-09-07T06:34:02.000Z</time>
      </trkpt>
      <trkpt lat="43.4292831458151340484619140625" lon="-4.78766421787440776824951171875">
        <ele>24.3999996185302734375</ele>
        <time>2018-09-07T06:34:03.000Z</time>
      </trkpt>
      <trkpt lat="43.4293213672935962677001953125" lon="-4.787672348320484161376953125">
        <ele>24.3999996185302734375</ele>
        <time>2018-09-07T06:34:26.000Z</time>
      </trkpt>
      <trkpt lat="43.429353050887584686279296875" lon="-4.78768450208008289337158203125">
        <ele>23.200000762939453125</ele>
        <time>2018-09-07T06:34:28.000Z</time>
      </trkpt>
      <trkpt lat="43.42936906032264232635498046875" lon="-4.7876876033842563629150390625">
        <ele>23.200000762939453125</ele>
        <time>2018-09-07T06:34:29.000Z</time>
      </trkpt>
      <trkpt lat="43.42939839698374271392822265625" lon="-4.7876933030784130096435546875">
        <ele>24</ele>
        <time>2018-09-07T06:34:31.000Z</time>
      </trkpt>
      <trkpt lat="43.4293431602418422698974609375" lon="-4.7877016849815845489501953125">
        <ele>23.799999237060546875</ele>
        <time>2018-09-07T06:36:55.000Z</time>
      </trkpt>
      <trkpt lat="43.42933134175837039947509765625" lon="-4.7877109050750732421875">
        <ele>23.799999237060546875</ele>
        <time>2018-09-07T06:36:56.000Z</time>
      </trkpt>
      <trkpt lat="43.4293052740395069122314453125" lon="-4.7877321951091289520263671875">
        <ele>23.799999237060546875</ele>
        <time>2018-09-07T06:36:58.000Z</time>
      </trkpt>
      <trkpt lat="43.42926898039877414703369140625" lon="-4.7877858392894268035888671875">
        <ele>24</ele>
        <time>2018-09-07T06:37:01.000Z</time>
      </trkpt>
      <trkpt lat="43.429231680929660797119140625" lon="-4.78788860142230987548828125">
        <ele>23.6000003814697265625</ele>
        <time>2018-09-07T06:37:05.000Z</time>
      </trkpt>
      <trkpt lat="43.42923360876739025115966796875" lon="-4.78791542351245880126953125">
        <ele>23.6000003814697265625</ele>
        <time>2018-09-07T06:37:06.000Z</time>
      </trkpt>
      <trkpt lat="43.42923712916672229766845703125" lon="-4.78809823282063007354736328125">
        <ele>23.799999237060546875</ele>
        <time>2018-09-07T06:37:11.000Z</time>
      </trkpt>
      <trkpt lat="43.42928909696638584136962890625" lon="-4.78834248147904872894287109375">
        <ele>24.200000762939453125</ele>
        <time>2018-09-07T06:37:17.000Z</time>
      </trkpt>
      <trkpt lat="43.42937358655035495758056640625" lon="-4.78859377093613147735595703125">
        <ele>25</ele>
        <time>2018-09-07T06:37:24.000Z</time>
      </trkpt>
      <trkpt lat="43.42940661124885082244873046875" lon="-4.788673482835292816162109375">
        <ele>25.200000762939453125</ele>
        <time>2018-09-07T06:37:26.000Z</time>
      </trkpt>
      <trkpt lat="43.42943846248090267181396484375" lon="-4.7887531109154224395751953125">
        <ele>25.3999996185302734375</ele>
        <time>2018-09-07T06:37:28.000Z</time>
      </trkpt>
      <trkpt lat="43.4294987283647060394287109375" lon="-4.78886283002793788909912109375">
        <ele>25.6000003814697265625</ele>
        <time>2018-09-07T06:37:31.000Z</time>
      </trkpt>
      <trkpt lat="43.429520018398761749267578125" lon="-4.7888966090977191925048828125">
        <ele>25.6000003814697265625</ele>
        <time>2018-09-07T06:37:32.000Z</time>
      </trkpt>
      <trkpt lat="43.42958548106253147125244140625" lon="-4.7889965213835239410400390625">
        <ele>26.200000762939453125</ele>
        <time>2018-09-07T06:37:35.000Z</time>
      </trkpt>
      <trkpt lat="43.42960350215435028076171875" lon="-4.7890307195484638214111328125">
        <ele>26.3999996185302734375</ele>
        <time>2018-09-07T06:37:36.000Z</time>
      </trkpt>
      <trkpt lat="43.42962118797004222869873046875" lon="-4.7891074977815151214599609375">
        <ele>26.6000003814697265625</ele>
        <time>2018-09-07T06:37:38.000Z</time>
      </trkpt>
      <trkpt lat="43.42963895760476589202880859375" lon="-4.7893710248172283172607421875">
        <ele>27</ele>
        <time>2018-09-07T06:37:44.000Z</time>
      </trkpt>
      <trkpt lat="43.4296422265470027923583984375" lon="-4.78941670618951320648193359375">
        <ele>27.200000762939453125</ele>
        <time>2018-09-07T06:37:45.000Z</time>
      </trkpt>
      <trkpt lat="43.42964633367955684661865234375" lon="-4.78945895098149776458740234375">
        <ele>27.6000003814697265625</ele>
        <time>2018-09-07T06:37:46.000Z</time>
      </trkpt>
      <trkpt lat="43.42965991236269474029541015625" lon="-4.78968291543424129486083984375">
        <ele>27.799999237060546875</ele>
        <time>2018-09-07T06:37:51.000Z</time>
      </trkpt>
      <trkpt lat="43.42966561205685138702392578125" lon="-4.7897388227283954620361328125">
        <ele>27.6000003814697265625</ele>
        <time>2018-09-07T06:37:52.000Z</time>
      </trkpt>
      <trkpt lat="43.42968606390058994293212890625" lon="-4.7898553311824798583984375">
        <ele>27.200000762939453125</ele>
        <time>2018-09-07T06:37:54.000Z</time>
      </trkpt>
      <trkpt lat="43.42973954044282436370849609375" lon="-4.790023975074291229248046875">
        <ele>27.200000762939453125</ele>
        <time>2018-09-07T06:37:57.000Z</time>
      </trkpt>
      <trkpt lat="43.42976468615233898162841796875" lon="-4.79007703252136707305908203125">
        <ele>27.200000762939453125</ele>
        <time>2018-09-07T06:37:58.000Z</time>
      </trkpt>
      <trkpt lat="43.42988940887153148651123046875" lon="-4.7903245501220226287841796875">
        <ele>27.3999996185302734375</ele>
        <time>2018-09-07T06:38:03.000Z</time>
      </trkpt>
      <trkpt lat="43.4299245290458202362060546875" lon="-4.790431670844554901123046875">
        <ele>27.3999996185302734375</ele>
        <time>2018-09-07T06:38:05.000Z</time>
      </trkpt>
      <trkpt lat="43.4299649298191070556640625" lon="-4.790729396045207977294921875">
        <ele>27.200000762939453125</ele>
        <time>2018-09-07T06:38:10.000Z</time>
      </trkpt>
      <trkpt lat="43.43000927008688449859619140625" lon="-4.79097859002649784088134765625">
        <ele>26.799999237060546875</ele>
        <time>2018-09-07T06:38:14.000Z</time>
      </trkpt>
      <trkpt lat="43.43002636916935443878173828125" lon="-4.79109375737607479095458984375">
        <ele>26.799999237060546875</ele>
        <time>2018-09-07T06:38:16.000Z</time>
      </trkpt>
      <trkpt lat="43.4300314821302890777587890625" lon="-4.791145138442516326904296875">
        <ele>26.799999237060546875</ele>
        <time>2018-09-07T06:38:17.000Z</time>
      </trkpt>
      <trkpt lat="43.43003340996801853179931640625" lon="-4.79123641736805438995361328125">
        <ele>27</ele>
        <time>2018-09-07T06:38:19.000Z</time>
      </trkpt>
      <trkpt lat="43.43002553097903728485107421875" lon="-4.7913095913827419281005859375">
        <ele>27.200000762939453125</ele>
        <time>2018-09-07T06:38:21.000Z</time>
      </trkpt>
      <trkpt lat="43.43002821318805217742919921875" lon="-4.79133549146354198455810546875">
        <ele>27.200000762939453125</ele>
        <time>2018-09-07T06:38:22.000Z</time>
      </trkpt>
      <trkpt lat="43.43003994785249233245849609375" lon="-4.7913531772792339324951171875">
        <ele>27.200000762939453125</ele>
        <time>2018-09-07T06:38:23.000Z</time>
      </trkpt>
      <trkpt lat="43.43007364310324192047119140625" lon="-4.79141277261078357696533203125">
        <ele>26.6000003814697265625</ele>
        <time>2018-09-07T06:38:25.000Z</time>
      </trkpt>
      <trkpt lat="43.43008571304380893707275390625" lon="-4.7914651595056056976318359375">
        <ele>26.200000762939453125</ele>
        <time>2018-09-07T06:38:26.000Z</time>
      </trkpt>
      <trkpt lat="43.43009543605148792266845703125" lon="-4.79160069487988948822021484375">
        <ele>25.200000762939453125</ele>
        <time>2018-09-07T06:38:28.000Z</time>
      </trkpt>
      <trkpt lat="43.4300921671092510223388671875" lon="-4.79172055609524250030517578125">
        <ele>23.799999237060546875</ele>
        <time>2018-09-07T06:38:30.000Z</time>
      </trkpt>
      <trkpt lat="43.4300985373556613922119140625" lon="-4.7917665727436542510986328125">
        <ele>23.3999996185302734375</ele>
        <time>2018-09-07T06:38:31.000Z</time>
      </trkpt>
      <trkpt lat="43.43010884709656238555908203125" lon="-4.79180370457470417022705078125">
        <ele>23</ele>
        <time>2018-09-07T06:38:32.000Z</time>
      </trkpt>
      <trkpt lat="43.43012519180774688720703125" lon="-4.7918383218348026275634765625">
        <ele>22.799999237060546875</ele>
        <time>2018-09-07T06:38:33.000Z</time>
      </trkpt>
      <trkpt lat="43.43014522455632686614990234375" lon="-4.79187344200909137725830078125">
        <ele>22.3999996185302734375</ele>
        <time>2018-09-07T06:38:34.000Z</time>
      </trkpt>
      <trkpt lat="43.4301955997943878173828125" lon="-4.791962206363677978515625">
        <ele>21.200000762939453125</ele>
        <time>2018-09-07T06:38:36.000Z</time>
      </trkpt>
      <trkpt lat="43.43021999113261699676513671875" lon="-4.7920629568397998809814453125">
        <ele>19.6000003814697265625</ele>
        <time>2018-09-07T06:38:38.000Z</time>
      </trkpt>
      <trkpt lat="43.43022971414029598236083984375" lon="-4.792175777256488800048828125">
        <ele>17.799999237060546875</ele>
        <time>2018-09-07T06:38:40.000Z</time>
      </trkpt>
      <trkpt lat="43.43023239634931087493896484375" lon="-4.792238809168338775634765625">
        <ele>16</ele>
        <time>2018-09-07T06:38:41.000Z</time>
      </trkpt>
      <trkpt lat="43.43024027533829212188720703125" lon="-4.79237451218068599700927734375">
        <ele>14.3999996185302734375</ele>
        <time>2018-09-07T06:38:43.000Z</time>
      </trkpt>
      <trkpt lat="43.4302484057843685150146484375" lon="-4.79250610806047916412353515625">
        <ele>14</ele>
        <time>2018-09-07T06:38:45.000Z</time>
      </trkpt>
      <trkpt lat="43.43022200278937816619873046875" lon="-4.79268615134060382843017578125">
        <ele>14.80000019073486328125</ele>
        <time>2018-09-07T06:38:49.000Z</time>
      </trkpt>
      <trkpt lat="43.43020004220306873321533203125" lon="-4.792713224887847900390625">
        <ele>15.19999980926513671875</ele>
        <time>2018-09-07T06:38:50.000Z</time>
      </trkpt>
      <trkpt lat="43.43018244020640850067138671875" lon="-4.79275052435696125030517578125">
        <ele>15.6000003814697265625</ele>
        <time>2018-09-07T06:38:51.000Z</time>
      </trkpt>
      <trkpt lat="43.43017070554196834564208984375" lon="-4.79284641332924365997314453125">
        <ele>16.200000762939453125</ele>
        <time>2018-09-07T06:38:53.000Z</time>
      </trkpt>
      <trkpt lat="43.4301756508648395538330078125" lon="-4.79294322431087493896484375">
        <ele>16.6000003814697265625</ele>
        <time>2018-09-07T06:38:55.000Z</time>
      </trkpt>
      <trkpt lat="43.4301796741783618927001953125" lon="-4.7929910011589527130126953125">
        <ele>16.6000003814697265625</ele>
        <time>2018-09-07T06:38:56.000Z</time>
      </trkpt>
      <trkpt lat="43.4301836974918842315673828125" lon="-4.79309854097664356231689453125">
        <ele>16.799999237060546875</ele>
        <time>2018-09-07T06:38:58.000Z</time>
      </trkpt>
      <trkpt lat="43.43018344603478908538818359375" lon="-4.793152101337909698486328125">
        <ele>16.6000003814697265625</ele>
        <time>2018-09-07T06:38:59.000Z</time>
      </trkpt>
      <trkpt lat="43.4301687777042388916015625" lon="-4.7933748923242092132568359375">
        <ele>16.3999996185302734375</ele>
        <time>2018-09-07T06:39:03.000Z</time>
      </trkpt>
      <trkpt lat="43.4301531873643398284912109375" lon="-4.79348645545542240142822265625">
        <ele>16.3999996185302734375</ele>
        <time>2018-09-07T06:39:05.000Z</time>
      </trkpt>
      <trkpt lat="43.4301364235579967498779296875" lon="-4.79372433386743068695068359375">
        <ele>15.6000003814697265625</ele>
        <time>2018-09-07T06:39:09.000Z</time>
      </trkpt>
      <trkpt lat="43.430135250091552734375" lon="-4.793781079351902008056640625">
        <ele>15.3999996185302734375</ele>
        <time>2018-09-07T06:39:10.000Z</time>
      </trkpt>
      <trkpt lat="43.4301344119012355804443359375" lon="-4.79383463971316814422607421875">
        <ele>15.19999980926513671875</ele>
        <time>2018-09-07T06:39:11.000Z</time>
      </trkpt>
      <trkpt lat="43.430148996412754058837890625" lon="-4.7940288484096527099609375">
        <ele>14.3999996185302734375</ele>
        <time>2018-09-07T06:39:15.000Z</time>
      </trkpt>
      <trkpt lat="43.43016433529555797576904296875" lon="-4.79412138462066650390625">
        <ele>14.19999980926513671875</ele>
        <time>2018-09-07T06:39:17.000Z</time>
      </trkpt>
      <trkpt lat="43.43016668222844600677490234375" lon="-4.79433151893317699432373046875">
        <ele>13.3999996185302734375</ele>
        <time>2018-09-07T06:39:21.000Z</time>
      </trkpt>
      <trkpt lat="43.43016182072460651397705078125" lon="-4.7943948023021221160888671875">
        <ele>13.19999980926513671875</ele>
        <time>2018-09-07T06:39:22.000Z</time>
      </trkpt>
      <trkpt lat="43.43016140162944793701171875" lon="-4.79452849365770816802978515625">
        <ele>13</ele>
        <time>2018-09-07T06:39:24.000Z</time>
      </trkpt>
      <trkpt lat="43.43018285930156707763671875" lon="-4.794639050960540771484375">
        <ele>12.80000019073486328125</ele>
        <time>2018-09-07T06:39:26.000Z</time>
      </trkpt>
      <trkpt lat="43.430217392742633819580078125" lon="-4.7948415577411651611328125">
        <ele>12.6000003814697265625</ele>
        <time>2018-09-07T06:39:30.000Z</time>
      </trkpt>
      <trkpt lat="43.43021580018103122711181640625" lon="-4.79490031488239765167236328125">
        <ele>12.6000003814697265625</ele>
        <time>2018-09-07T06:39:31.000Z</time>
      </trkpt>
      <trkpt lat="43.43014991842210292816162109375" lon="-4.79511338286101818084716796875">
        <ele>13.19999980926513671875</ele>
        <time>2018-09-07T06:39:35.000Z</time>
      </trkpt>
      <trkpt lat="43.43010666780173778533935546875" lon="-4.79518848471343517303466796875">
        <ele>13.80000019073486328125</ele>
        <time>2018-09-07T06:39:37.000Z</time>
      </trkpt>
      <trkpt lat="43.43003877438604831695556640625" lon="-4.7953211702406406402587890625">
        <ele>14.19999980926513671875</ele>
        <time>2018-09-07T06:39:40.000Z</time>
      </trkpt>
      <trkpt lat="43.430018238723278045654296875" lon="-4.7953701205551624298095703125">
        <ele>14.6000003814697265625</ele>
        <time>2018-09-07T06:39:41.000Z</time>
      </trkpt>
      <trkpt lat="43.42998496256768703460693359375" lon="-4.7954633273184299468994140625">
        <ele>15.6000003814697265625</ele>
        <time>2018-09-07T06:39:43.000Z</time>
      </trkpt>
      <trkpt lat="43.42997171916067600250244140625" lon="-4.795549996197223663330078125">
        <ele>16.3999996185302734375</ele>
        <time>2018-09-07T06:39:45.000Z</time>
      </trkpt>
      <trkpt lat="43.4299862198531627655029296875" lon="-4.79558478109538555145263671875">
        <ele>16.799999237060546875</ele>
        <time>2018-09-07T06:39:46.000Z</time>
      </trkpt>
      <trkpt lat="43.4300502575933933258056640625" lon="-4.79562342166900634765625">
        <ele>17.200000762939453125</ele>
        <time>2018-09-07T06:39:48.000Z</time>
      </trkpt>
      <trkpt lat="43.4300975315272808074951171875" lon="-4.7956356592476367950439453125">
        <ele>16.799999237060546875</ele>
        <time>2018-09-07T06:39:49.000Z</time>
      </trkpt>
      <trkpt lat="43.43019937165081501007080078125" lon="-4.79567044414579868316650390625">
        <ele>15.80000019073486328125</ele>
        <time>2018-09-07T06:39:51.000Z</time>
      </trkpt>
      <trkpt lat="43.4303104318678379058837890625" lon="-4.795720316469669342041015625">
        <ele>14.6000003814697265625</ele>
        <time>2018-09-07T06:39:53.000Z</time>
      </trkpt>
      <trkpt lat="43.430421240627765655517578125" lon="-4.7957714460790157318115234375">
        <ele>13.3999996185302734375</ele>
        <time>2018-09-07T06:39:55.000Z</time>
      </trkpt>
      <trkpt lat="43.4305873699486255645751953125" lon="-4.79585216380655765533447265625">
        <ele>12.80000019073486328125</ele>
        <time>2018-09-07T06:39:59.000Z</time>
      </trkpt>
      <trkpt lat="43.43069373629987239837646484375" lon="-4.795900024473667144775390625">
        <ele>13</ele>
        <time>2018-09-07T06:40:02.000Z</time>
      </trkpt>
      <trkpt lat="43.4308210574090480804443359375" lon="-4.79595392011106014251708984375">
        <ele>13</ele>
        <time>2018-09-07T06:40:06.000Z</time>
      </trkpt>
      <trkpt lat="43.4309410862624645233154296875" lon="-4.79607026092708110809326171875">
        <ele>13.19999980926513671875</ele>
        <time>2018-09-07T06:40:12.000Z</time>
      </trkpt>
      <trkpt lat="43.43097922392189502716064453125" lon="-4.79612692259252071380615234375">
        <ele>13.19999980926513671875</ele>
        <time>2018-09-07T06:40:14.000Z</time>
      </trkpt>
      <trkpt lat="43.43108005821704864501953125" lon="-4.79630026035010814666748046875">
        <ele>13.19999980926513671875</ele>
        <time>2018-09-07T06:40:19.000Z</time>
      </trkpt>
      <trkpt lat="43.4311531484127044677734375" lon="-4.79641408659517765045166015625">
        <ele>12.6000003814697265625</ele>
        <time>2018-09-07T06:40:22.000Z</time>
      </trkpt>
      <trkpt lat="43.431175611913204193115234375" lon="-4.79645566083490848541259765625">
        <ele>12.6000003814697265625</ele>
        <time>2018-09-07T06:40:23.000Z</time>
      </trkpt>
      <trkpt lat="43.4312032721936702728271484375" lon="-4.79653537273406982421875">
        <ele>12.3999996185302734375</ele>
        <time>2018-09-07T06:40:25.000Z</time>
      </trkpt>
      <trkpt lat="43.431221880018711090087890625" lon="-4.79660636745393276214599609375">
        <ele>12.6000003814697265625</ele>
        <time>2018-09-07T06:40:27.000Z</time>
      </trkpt>
      <trkpt lat="43.43124593608081340789794921875" lon="-4.796749614179134368896484375">
        <ele>12.3999996185302734375</ele>
        <time>2018-09-07T06:40:31.000Z</time>
      </trkpt>
      <trkpt lat="43.431248702108860015869140625" lon="-4.7967888414859771728515625">
        <ele>12.3999996185302734375</ele>
        <time>2018-09-07T06:40:32.000Z</time>
      </trkpt>
      <trkpt lat="43.43125599436461925506591796875" lon="-4.7969382070004940032958984375">
        <ele>12.80000019073486328125</ele>
        <time>2018-09-07T06:40:37.000Z</time>
      </trkpt>
      <trkpt lat="43.43125616200268268585205078125" lon="-4.797052703797817230224609375">
        <ele>12.6000003814697265625</ele>
        <time>2018-09-07T06:40:40.000Z</time>
      </trkpt>
      <trkpt lat="43.43125171959400177001953125" lon="-4.7971423901617527008056640625">
        <ele>11.80000019073486328125</ele>
        <time>2018-09-07T06:40:42.000Z</time>
      </trkpt>
      <trkpt lat="43.43123856000602245330810546875" lon="-4.797314889729022979736328125">
        <ele>11.6000003814697265625</ele>
        <time>2018-09-07T06:40:46.000Z</time>
      </trkpt>
      <trkpt lat="43.4312260709702968597412109375" lon="-4.797365851700305938720703125">
        <ele>11.6000003814697265625</ele>
        <time>2018-09-07T06:40:48.000Z</time>
      </trkpt>
      <trkpt lat="43.431226573884487152099609375" lon="-4.797407090663909912109375">
        <ele>11.6000003814697265625</ele>
        <time>2018-09-07T06:40:50.000Z</time>
      </trkpt>
      <trkpt lat="43.43122422695159912109375" lon="-4.79747037403285503387451171875">
        <ele>11.80000019073486328125</ele>
        <time>2018-09-07T06:40:53.000Z</time>
      </trkpt>
      <trkpt lat="43.43121827580034732818603515625" lon="-4.79749082587659358978271484375">
        <ele>11.6000003814697265625</ele>
        <time>2018-09-07T06:40:54.000Z</time>
      </trkpt>
      <trkpt lat="43.43119673430919647216796875" lon="-4.79758922941982746124267578125">
        <ele>11.80000019073486328125</ele>
        <time>2018-09-07T06:40:59.000Z</time>
      </trkpt>
      <trkpt lat="43.43119279481470584869384765625" lon="-4.7976084239780902862548828125">
        <ele>11.80000019073486328125</ele>
        <time>2018-09-07T06:41:00.000Z</time>
      </trkpt>
      <trkpt lat="43.43118072487413883209228515625" lon="-4.7976613976061344146728515625">
        <ele>11.80000019073486328125</ele>
        <time>2018-09-07T06:41:03.000Z</time>
      </trkpt>
      <trkpt lat="43.4311653859913349151611328125" lon="-4.79775703512132167816162109375">
        <ele>11.80000019073486328125</ele>
        <time>2018-09-07T06:41:07.000Z</time>
      </trkpt>
      <trkpt lat="43.43115373514592647552490234375" lon="-4.7978957556188106536865234375">
        <ele>11.6000003814697265625</ele>
        <time>2018-09-07T06:41:11.000Z</time>
      </trkpt>
      <trkpt lat="43.43115541152656078338623046875" lon="-4.7979688458144664764404296875">
        <ele>11.80000019073486328125</ele>
        <time>2018-09-07T06:41:13.000Z</time>
      </trkpt>
      <trkpt lat="43.4311543218791484832763671875" lon="-4.798046462237834930419921875">
        <ele>11.80000019073486328125</ele>
        <time>2018-09-07T06:41:15.000Z</time>
      </trkpt>
      <trkpt lat="43.4311492927372455596923828125" lon="-4.79811812750995159149169921875">
        <ele>12.19999980926513671875</ele>
        <time>2018-09-07T06:41:17.000Z</time>
      </trkpt>
      <trkpt lat="43.43114116229116916656494140625" lon="-4.798190630972385406494140625">
        <ele>12.3999996185302734375</ele>
        <time>2018-09-07T06:41:19.000Z</time>
      </trkpt>
      <trkpt lat="43.43113026581704616546630859375" lon="-4.79830361902713775634765625">
        <ele>13.3999996185302734375</ele>
        <time>2018-09-07T06:41:23.000Z</time>
      </trkpt>
      <trkpt lat="43.43112791888415813446044921875" lon="-4.79832868091762065887451171875">
        <ele>13.80000019073486328125</ele>
        <time>2018-09-07T06:41:24.000Z</time>
      </trkpt>
      <trkpt lat="43.4311248175799846649169921875" lon="-4.79835667647421360015869140625">
        <ele>14</ele>
        <time>2018-09-07T06:41:25.000Z</time>
      </trkpt>
      <trkpt lat="43.43112020753324031829833984375" lon="-4.79838115163147449493408203125">
        <ele>14.19999980926513671875</ele>
        <time>2018-09-07T06:41:26.000Z</time>
      </trkpt>
      <trkpt lat="43.43110796995460987091064453125" lon="-4.79842943139374256134033203125">
        <ele>14.6000003814697265625</ele>
        <time>2018-09-07T06:41:28.000Z</time>
      </trkpt>
      <trkpt lat="43.43110327608883380889892578125" lon="-4.7984543256461620330810546875">
        <ele>14.80000019073486328125</ele>
        <time>2018-09-07T06:41:29.000Z</time>
      </trkpt>
      <trkpt lat="43.4310943074524402618408203125" lon="-4.798502437770366668701171875">
        <ele>15.19999980926513671875</ele>
        <time>2018-09-07T06:41:31.000Z</time>
      </trkpt>
      <trkpt lat="43.43108600936830043792724609375" lon="-4.7985483705997467041015625">
        <ele>15.80000019073486328125</ele>
        <time>2018-09-07T06:41:33.000Z</time>
      </trkpt>
      <trkpt lat="43.4310812316834926605224609375" lon="-4.798564799129962921142578125">
        <ele>16.200000762939453125</ele>
        <time>2018-09-07T06:41:34.000Z</time>
      </trkpt>
      <trkpt lat="43.43107142485678195953369140625" lon="-4.79860209859907627105712890625">
        <ele>16.3999996185302734375</ele>
        <time>2018-09-07T06:41:36.000Z</time>
      </trkpt>
      <trkpt lat="43.431054912507534027099609375" lon="-4.798655994236469268798828125">
        <ele>17</ele>
        <time>2018-09-07T06:41:39.000Z</time>
      </trkpt>
      <trkpt lat="43.431047536432743072509765625" lon="-4.79867778718471527099609375">
        <ele>17.200000762939453125</ele>
        <time>2018-09-07T06:41:40.000Z</time>
      </trkpt>
      <trkpt lat="43.43102012760937213897705078125" lon="-4.7987486980855464935302734375">
        <ele>17.6000003814697265625</ele>
        <time>2018-09-07T06:41:43.000Z</time>
      </trkpt>
      <trkpt lat="43.4310057945549488067626953125" lon="-4.7988016717135906219482421875">
        <ele>18</ele>
        <time>2018-09-07T06:41:45.000Z</time>
      </trkpt>
      <trkpt lat="43.430996239185333251953125" lon="-4.7988251410424709320068359375">
        <ele>18.200000762939453125</ele>
        <time>2018-09-07T06:41:46.000Z</time>
      </trkpt>
      <trkpt lat="43.43095592223107814788818359375" lon="-4.79893804527819156646728515625">
        <ele>19.200000762939453125</ele>
        <time>2018-09-07T06:41:51.000Z</time>
      </trkpt>
      <trkpt lat="43.430950306355953216552734375" lon="-4.79895983822643756866455078125">
        <ele>19.3999996185302734375</ele>
        <time>2018-09-07T06:41:52.000Z</time>
      </trkpt>
      <trkpt lat="43.43093278817832469940185546875" lon="-4.799047596752643585205078125">
        <ele>20.200000762939453125</ele>
        <time>2018-09-07T06:41:56.000Z</time>
      </trkpt>
      <trkpt lat="43.4309172816574573516845703125" lon="-4.79916863143444061279296875">
        <ele>21.3999996185302734375</ele>
        <time>2018-09-07T06:42:01.000Z</time>
      </trkpt>
      <trkpt lat="43.43091585673391819000244140625" lon="-4.7991926036775112152099609375">
        <ele>21.799999237060546875</ele>
        <time>2018-09-07T06:42:02.000Z</time>
      </trkpt>
      <trkpt lat="43.43091451562941074371337890625" lon="-4.79926510713994503021240234375">
        <ele>22.799999237060546875</ele>
        <time>2018-09-07T06:42:06.000Z</time>
      </trkpt>
      <trkpt lat="43.4309065528213977813720703125" lon="-4.7993262112140655517578125">
        <ele>23.6000003814697265625</ele>
        <time>2018-09-07T06:42:09.000Z</time>
      </trkpt>
      <trkpt lat="43.4309025295078754425048828125" lon="-4.7993485070765018463134765625">
        <ele>23.799999237060546875</ele>
        <time>2018-09-07T06:42:10.000Z</time>
      </trkpt>
      <trkpt lat="43.43089557252824306488037109375" lon="-4.7994195856153964996337890625">
        <ele>24.799999237060546875</ele>
        <time>2018-09-07T06:42:13.000Z</time>
      </trkpt>
      <trkpt lat="43.4308938123285770416259765625" lon="-4.799443222582340240478515625">
        <ele>25</ele>
        <time>2018-09-07T06:42:14.000Z</time>
      </trkpt>
      <trkpt lat="43.43088668771088123321533203125" lon="-4.79953684844076633453369140625">
        <ele>26.3999996185302734375</ele>
        <time>2018-09-07T06:42:18.000Z</time>
      </trkpt>
      <trkpt lat="43.4308589436113834381103515625" lon="-4.7996304742991924285888671875">
        <ele>27.200000762939453125</ele>
        <time>2018-09-07T06:42:22.000Z</time>
      </trkpt>
      <trkpt lat="43.4308498911559581756591796875" lon="-4.79965000413358211517333984375">
        <ele>28.3999996185302734375</ele>
        <time>2018-09-07T06:42:23.000Z</time>
      </trkpt>
      <trkpt lat="43.4308120049536228179931640625" lon="-4.7997857071459293365478515625">
        <ele>29.3999996185302734375</ele>
        <time>2018-09-07T06:42:29.000Z</time>
      </trkpt>
      <trkpt lat="43.430777303874492645263671875" lon="-4.79992945678532123565673828125">
        <ele>30.3999996185302734375</ele>
        <time>2018-09-07T06:42:35.000Z</time>
      </trkpt>
      <trkpt lat="43.430766575038433074951171875" lon="-4.7999520041048526763916015625">
        <ele>30.6000003814697265625</ele>
        <time>2018-09-07T06:42:36.000Z</time>
      </trkpt>
      <trkpt lat="43.43068845570087432861328125" lon="-4.800090305507183074951171875">
        <ele>31.6000003814697265625</ele>
        <time>2018-09-07T06:42:42.000Z</time>
      </trkpt>
      <trkpt lat="43.43065115623176097869873046875" lon="-4.80013615451753139495849609375">
        <ele>31.6000003814697265625</ele>
        <time>2018-09-07T06:42:44.000Z</time>
      </trkpt>
      <trkpt lat="43.43052442185580730438232421875" lon="-4.80030186474323272705078125">
        <ele>31.6000003814697265625</ele>
        <time>2018-09-07T06:42:50.000Z</time>
      </trkpt>
      <trkpt lat="43.43048603273928165435791015625" lon="-4.80036648921668529510498046875">
        <ele>31.799999237060546875</ele>
        <time>2018-09-07T06:42:52.000Z</time>
      </trkpt>
      <trkpt lat="43.43046491034328937530517578125" lon="-4.8005209676921367645263671875">
        <ele>32.200000762939453125</ele>
        <time>2018-09-07T06:42:56.000Z</time>
      </trkpt>
      <trkpt lat="43.430392742156982421875" lon="-4.800709895789623260498046875">
        <ele>32.40000152587890625</ele>
        <time>2018-09-07T06:43:02.000Z</time>
      </trkpt>
      <trkpt lat="43.43032510019838809967041015625" lon="-4.80079195462167263031005859375">
        <ele>31.6000003814697265625</ele>
        <time>2018-09-07T06:43:04.000Z</time>
      </trkpt>
      <trkpt lat="43.43028000555932521820068359375" lon="-4.8008347861468791961669921875">
        <ele>31</ele>
        <time>2018-09-07T06:43:05.000Z</time>
      </trkpt>
      <trkpt lat="43.4302313067018985748291015625" lon="-4.80087627656757831573486328125">
        <ele>29.799999237060546875</ele>
        <time>2018-09-07T06:43:06.000Z</time>
      </trkpt>
      <trkpt lat="43.4301451407372951507568359375" lon="-4.80094333179295063018798828125">
        <ele>29</ele>
        <time>2018-09-07T06:43:08.000Z</time>
      </trkpt>
      <trkpt lat="43.43010163865983486175537109375" lon="-4.80097786523401737213134765625">
        <ele>28.6000003814697265625</ele>
        <time>2018-09-07T06:43:09.000Z</time>
      </trkpt>
      <trkpt lat="43.4300529398024082183837890625" lon="-4.80102195404469966888427734375">
        <ele>27.799999237060546875</ele>
        <time>2018-09-07T06:43:10.000Z</time>
      </trkpt>
      <trkpt lat="43.43000021763145923614501953125" lon="-4.80107157491147518157958984375">
        <ele>27</ele>
        <time>2018-09-07T06:43:11.000Z</time>
      </trkpt>
      <trkpt lat="43.4299007244408130645751953125" lon="-4.8011715710163116455078125">
        <ele>26.200000762939453125</ele>
        <time>2018-09-07T06:43:13.000Z</time>
      </trkpt>
      <trkpt lat="43.42982151545584201812744140625" lon="-4.801252372562885284423828125">
        <ele>26.3999996185302734375</ele>
        <time>2018-09-07T06:43:15.000Z</time>
      </trkpt>
      <trkpt lat="43.42971791513264179229736328125" lon="-4.8013484291732311248779296875">
        <ele>27</ele>
        <time>2018-09-07T06:43:18.000Z</time>
      </trkpt>
      <trkpt lat="43.42967416159808635711669921875" lon="-4.80143065564334392547607421875">
        <ele>27</ele>
        <time>2018-09-07T06:43:20.000Z</time>
      </trkpt>
      <trkpt lat="43.42965907417237758636474609375" lon="-4.80147021822631359100341796875">
        <ele>27</ele>
        <time>2018-09-07T06:43:21.000Z</time>
      </trkpt>
      <trkpt lat="43.42961112968623638153076171875" lon="-4.80167993344366550445556640625">
        <ele>26</ele>
        <time>2018-09-07T06:43:26.000Z</time>
      </trkpt>
      <trkpt lat="43.4295805357396602630615234375" lon="-4.80184354819357395172119140625">
        <ele>24.799999237060546875</ele>
        <time>2018-09-07T06:43:29.000Z</time>
      </trkpt>
      <trkpt lat="43.4295691363513469696044921875" lon="-4.801909513771533966064453125">
        <ele>23.3999996185302734375</ele>
        <time>2018-09-07T06:43:30.000Z</time>
      </trkpt>
      <trkpt lat="43.429555557668209075927734375" lon="-4.80197514407336711883544921875">
        <ele>22.799999237060546875</ele>
        <time>2018-09-07T06:43:31.000Z</time>
      </trkpt>
      <trkpt lat="43.42953979969024658203125" lon="-4.80204085819423198699951171875">
        <ele>22.200000762939453125</ele>
        <time>2018-09-07T06:43:32.000Z</time>
      </trkpt>
      <trkpt lat="43.42951289378106594085693359375" lon="-4.80209785513579845428466796875">
        <ele>21.6000003814697265625</ele>
        <time>2018-09-07T06:43:33.000Z</time>
      </trkpt>
      <trkpt lat="43.42947148717939853668212890625" lon="-4.8021326400339603424072265625">
        <ele>21.200000762939453125</ele>
        <time>2018-09-07T06:43:34.000Z</time>
      </trkpt>
      <trkpt lat="43.4294226206839084625244140625" lon="-4.80214320123195648193359375">
        <ele>20.799999237060546875</ele>
        <time>2018-09-07T06:43:35.000Z</time>
      </trkpt>
      <trkpt lat="43.4293163381516933441162109375" lon="-4.80216457508504390716552734375">
        <ele>20.200000762939453125</ele>
        <time>2018-09-07T06:43:37.000Z</time>
      </trkpt>
      <trkpt lat="43.42926344834268093109130859375" lon="-4.80218670330941677093505859375">
        <ele>19.799999237060546875</ele>
        <time>2018-09-07T06:43:38.000Z</time>
      </trkpt>
      <trkpt lat="43.4291634522378444671630859375" lon="-4.80222961865365505218505859375">
        <ele>19</ele>
        <time>2018-09-07T06:43:40.000Z</time>
      </trkpt>
      <trkpt lat="43.42911936342716217041015625" lon="-4.802267588675022125244140625">
        <ele>18.6000003814697265625</ele>
        <time>2018-09-07T06:43:41.000Z</time>
      </trkpt>
      <trkpt lat="43.4290771186351776123046875" lon="-4.802315197885036468505859375">
        <ele>18.200000762939453125</ele>
        <time>2018-09-07T06:43:42.000Z</time>
      </trkpt>
      <trkpt lat="43.428976200520992279052734375" lon="-4.80242072604596614837646484375">
        <ele>17.200000762939453125</ele>
        <time>2018-09-07T06:43:44.000Z</time>
      </trkpt>
      <trkpt lat="43.42888391576707363128662109375" lon="-4.8025322891771793365478515625">
        <ele>15.3999996185302734375</ele>
        <time>2018-09-07T06:43:46.000Z</time>
      </trkpt>
      <trkpt lat="43.42883161269128322601318359375" lon="-4.80262708850204944610595703125">
        <ele>14.3999996185302734375</ele>
        <time>2018-09-07T06:43:48.000Z</time>
      </trkpt>
      <trkpt lat="43.428802192211151123046875" lon="-4.80269967578351497650146484375">
        <ele>13.6000003814697265625</ele>
        <time>2018-09-07T06:43:50.000Z</time>
      </trkpt>
      <trkpt lat="43.42878668569028377532958984375" lon="-4.802738316357135772705078125">
        <ele>13.19999980926513671875</ele>
        <time>2018-09-07T06:43:51.000Z</time>
      </trkpt>
      <trkpt lat="43.428736142814159393310546875" lon="-4.80288022197782993316650390625">
        <ele>11.6000003814697265625</ele>
        <time>2018-09-07T06:43:54.000Z</time>
      </trkpt>
      <trkpt lat="43.428720049560070037841796875" lon="-4.8029466904699802398681640625">
        <ele>11.19999980926513671875</ele>
        <time>2018-09-07T06:43:55.000Z</time>
      </trkpt>
      <trkpt lat="43.4286908805370330810546875" lon="-4.80309714563190937042236328125">
        <ele>10.3999996185302734375</ele>
        <time>2018-09-07T06:43:57.000Z</time>
      </trkpt>
      <trkpt lat="43.4286840073764324188232421875" lon="-4.8031783662736415863037109375">
        <ele>9.80000019073486328125</ele>
        <time>2018-09-07T06:43:58.000Z</time>
      </trkpt>
      <trkpt lat="43.42867068015038967132568359375" lon="-4.8035706393420696258544921875">
        <ele>9.19999980926513671875</ele>
        <time>2018-09-07T06:44:03.000Z</time>
      </trkpt>
      <trkpt lat="43.42866414226591587066650390625" lon="-4.80365588329732418060302734375">
        <ele>9</ele>
        <time>2018-09-07T06:44:04.000Z</time>
      </trkpt>
      <trkpt lat="43.42864871956408023834228515625" lon="-4.80382989160716533660888671875">
        <ele>8.6000003814697265625</ele>
        <time>2018-09-07T06:44:06.000Z</time>
      </trkpt>
      <trkpt lat="43.42863547615706920623779296875" lon="-4.80397070758044719696044921875">
        <ele>8.19999980926513671875</ele>
        <time>2018-09-07T06:44:08.000Z</time>
      </trkpt>
      <trkpt lat="43.428622819483280181884765625" lon="-4.80403256602585315704345703125">
        <ele>8.19999980926513671875</ele>
        <time>2018-09-07T06:44:09.000Z</time>
      </trkpt>
      <trkpt lat="43.42860245145857334136962890625" lon="-4.80421478860080242156982421875">
        <ele>8.6000003814697265625</ele>
        <time>2018-09-07T06:44:12.000Z</time>
      </trkpt>
      <trkpt lat="43.42858426272869110107421875" lon="-4.804270528256893157958984375">
        <ele>8.6000003814697265625</ele>
        <time>2018-09-07T06:44:13.000Z</time>
      </trkpt>
      <trkpt lat="43.4285301156342029571533203125" lon="-4.8043729551136493682861328125">
        <ele>8.80000019073486328125</ele>
        <time>2018-09-07T06:44:15.000Z</time>
      </trkpt>
      <trkpt lat="43.4284607134759426116943359375" lon="-4.8044601269066333770751953125">
        <ele>8.80000019073486328125</ele>
        <time>2018-09-07T06:44:17.000Z</time>
      </trkpt>
      <trkpt lat="43.42838502489030361175537109375" lon="-4.804544784128665924072265625">
        <ele>7.80000019073486328125</ele>
        <time>2018-09-07T06:44:19.000Z</time>
      </trkpt>
      <trkpt lat="43.42829458415508270263671875" lon="-4.8046291060745716094970703125">
        <ele>6.80000019073486328125</ele>
        <time>2018-09-07T06:44:21.000Z</time>
      </trkpt>
      <trkpt lat="43.4282535128295421600341796875" lon="-4.80468166060745716094970703125">
        <ele>6.400000095367431640625</ele>
        <time>2018-09-07T06:44:22.000Z</time>
      </trkpt>
      <trkpt lat="43.42813977040350437164306640625" lon="-4.80484812520444393157958984375">
        <ele>5.599999904632568359375</ele>
        <time>2018-09-07T06:44:25.000Z</time>
      </trkpt>
      <trkpt lat="43.42804891057312488555908203125" lon="-4.8049848340451717376708984375">
        <ele>5.400000095367431640625</ele>
        <time>2018-09-07T06:44:28.000Z</time>
      </trkpt>
      <trkpt lat="43.4280003793537616729736328125" lon="-4.8050458543002605438232421875">
        <ele>5.400000095367431640625</ele>
        <time>2018-09-07T06:44:31.000Z</time>
      </trkpt>
      <trkpt lat="43.4280134551227092742919921875" lon="-4.80505364947021007537841796875">
        <ele>5.400000095367431640625</ele>
        <time>2018-09-07T06:44:32.000Z</time>
      </trkpt>
      <trkpt lat="43.4280954301357269287109375" lon="-4.80509740300476551055908203125">
        <ele>5.400000095367431640625</ele>
        <time>2018-09-07T06:44:36.000Z</time>
      </trkpt>
      <trkpt lat="43.42811563052237033843994140625" lon="-4.80512489564716815948486328125">
        <ele>5.400000095367431640625</ele>
        <time>2018-09-07T06:44:37.000Z</time>
      </trkpt>
      <trkpt lat="43.42817598022520542144775390625" lon="-4.8051989078521728515625">
        <ele>5.599999904632568359375</ele>
        <time>2018-09-07T06:44:40.000Z</time>
      </trkpt>
      <trkpt lat="43.42821839265525341033935546875" lon="-4.80524157173931598663330078125">
        <ele>5.599999904632568359375</ele>
        <time>2018-09-07T06:44:42.000Z</time>
      </trkpt>
      <trkpt lat="43.4282791614532470703125" lon="-4.80532698333263397216796875">
        <ele>5.599999904632568359375</ele>
        <time>2018-09-07T06:44:46.000Z</time>
      </trkpt>
      <trkpt lat="43.42829483561217784881591796875" lon="-4.80534433387219905853271484375">
        <ele>5.599999904632568359375</ele>
        <time>2018-09-07T06:44:47.000Z</time>
      </trkpt>
      <trkpt lat="43.4283095039427280426025390625" lon="-4.805362522602081298828125">
        <ele>5.80000019073486328125</ele>
        <time>2018-09-07T06:44:48.000Z</time>
      </trkpt>
      <trkpt lat="43.4283326379954814910888671875" lon="-4.8053935356438159942626953125">
        <ele>6</ele>
        <time>2018-09-07T06:44:50.000Z</time>
      </trkpt>
      <trkpt lat="43.428366668522357940673828125" lon="-4.80542345903813838958740234375">
        <ele>6</ele>
        <time>2018-09-07T06:44:52.000Z</time>
      </trkpt>
      <trkpt lat="43.428506813943386077880859375" lon="-4.8055316694080829620361328125">
        <ele>5.80000019073486328125</ele>
        <time>2018-09-07T06:44:57.000Z</time>
      </trkpt>
      <trkpt lat="43.42855199240148067474365234375" lon="-4.80554080568253993988037109375">
        <ele>5.599999904632568359375</ele>
        <time>2018-09-07T06:44:58.000Z</time>
      </trkpt>
      <trkpt lat="43.42868928797543048858642578125" lon="-4.80559998191893100738525390625">
        <ele>4.599999904632568359375</ele>
        <time>2018-09-07T06:45:01.000Z</time>
      </trkpt>
      <trkpt lat="43.4287701733410358428955078125" lon="-4.8057167418301105499267578125">
        <ele>3.400000095367431640625</ele>
        <time>2018-09-07T06:45:03.000Z</time>
      </trkpt>
      <trkpt lat="43.4288067184388637542724609375" lon="-4.80578220449388027191162109375">
        <ele>3</ele>
        <time>2018-09-07T06:45:04.000Z</time>
      </trkpt>
      <trkpt lat="43.42883982695639133453369140625" lon="-4.80585269629955291748046875">
        <ele>2.7999999523162841796875</ele>
        <time>2018-09-07T06:45:05.000Z</time>
      </trkpt>
      <trkpt lat="43.4288989193737506866455078125" lon="-4.8059977032244205474853515625">
        <ele>2.599999904632568359375</ele>
        <time>2018-09-07T06:45:07.000Z</time>
      </trkpt>
      <trkpt lat="43.42895633541047573089599609375" lon="-4.806221164762973785400390625">
        <ele>2.599999904632568359375</ele>
        <time>2018-09-07T06:45:10.000Z</time>
      </trkpt>
      <trkpt lat="43.42897318303585052490234375" lon="-4.80629215948283672332763671875">
        <ele>2.599999904632568359375</ele>
        <time>2018-09-07T06:45:11.000Z</time>
      </trkpt>
      <trkpt lat="43.4290809743106365203857421875" lon="-4.8067115060985088348388671875">
        <ele>2.599999904632568359375</ele>
        <time>2018-09-07T06:45:17.000Z</time>
      </trkpt>
      <trkpt lat="43.42916118912398815155029296875" lon="-4.80699121020734310150146484375">
        <ele>2.599999904632568359375</ele>
        <time>2018-09-07T06:45:21.000Z</time>
      </trkpt>
      <trkpt lat="43.42924349941313266754150390625" lon="-4.80719053186476230621337890625">
        <ele>2.400000095367431640625</ele>
        <time>2018-09-07T06:45:24.000Z</time>
      </trkpt>
      <trkpt lat="43.4292744286358356475830078125" lon="-4.80724568478763103485107421875">
        <ele>2.400000095367431640625</ele>
        <time>2018-09-07T06:45:25.000Z</time>
      </trkpt>
      <trkpt lat="43.42933519743382930755615234375" lon="-4.807326905429363250732421875">
        <ele>2.599999904632568359375</ele>
        <time>2018-09-07T06:45:27.000Z</time>
      </trkpt>
      <trkpt lat="43.42947467230260372161865234375" lon="-4.80736303143203258514404296875">
        <ele>2.2000000476837158203125</ele>
        <time>2018-09-07T06:45:30.000Z</time>
      </trkpt>
      <trkpt lat="43.42958833090960979461669921875" lon="-4.8073609359562397003173828125">
        <ele>1.60000002384185791015625</ele>
        <time>2018-09-07T06:45:32.000Z</time>
      </trkpt>
      <trkpt lat="43.42971146106719970703125" lon="-4.807351715862751007080078125">
        <ele>1</ele>
        <time>2018-09-07T06:45:34.000Z</time>
      </trkpt>
      <trkpt lat="43.4297763369977474212646484375" lon="-4.8073414899408817291259765625">
        <ele>0.60000002384185791015625</ele>
        <time>2018-09-07T06:45:35.000Z</time>
      </trkpt>
      <trkpt lat="43.42996425926685333251953125" lon="-4.807285331189632415771484375">
        <ele>-0.20000000298023223876953125</ele>
        <time>2018-09-07T06:45:38.000Z</time>
      </trkpt>
      <trkpt lat="43.43013918958604335784912109375" lon="-4.807229004800319671630859375">
        <ele>-0.4000000059604644775390625</ele>
        <time>2018-09-07T06:45:41.000Z</time>
      </trkpt>
      <trkpt lat="43.4302551113069057464599609375" lon="-4.807191453874111175537109375">
        <ele>-0.4000000059604644775390625</ele>
        <time>2018-09-07T06:45:43.000Z</time>
      </trkpt>
      <trkpt lat="43.4304606355726718902587890625" lon="-4.80708139948546886444091796875">
        <ele>0</ele>
        <time>2018-09-07T06:45:47.000Z</time>
      </trkpt>
      <trkpt lat="43.43063757754862308502197265625" lon="-4.807013086974620819091796875">
        <ele>0.800000011920928955078125</ele>
        <time>2018-09-07T06:45:51.000Z</time>
      </trkpt>
      <trkpt lat="43.43068283982574939727783203125" lon="-4.8070085607469081878662109375">
        <ele>1</ele>
        <time>2018-09-07T06:45:52.000Z</time>
      </trkpt>
      <trkpt lat="43.430725000798702239990234375" lon="-4.80700747109949588775634765625">
        <ele>1</ele>
        <time>2018-09-07T06:45:53.000Z</time>
      </trkpt>
      <trkpt lat="43.43090428970754146575927734375" lon="-4.8069894500076770782470703125">
        <ele>1.60000002384185791015625</ele>
        <time>2018-09-07T06:45:58.000Z</time>
      </trkpt>
      <trkpt lat="43.4309303574264049530029296875" lon="-4.8069981671869754791259765625">
        <ele>1.60000002384185791015625</ele>
        <time>2018-09-07T06:45:59.000Z</time>
      </trkpt>
      <trkpt lat="43.4310249052941799163818359375" lon="-4.80707301758229732513427734375">
        <ele>2</ele>
        <time>2018-09-07T06:46:05.000Z</time>
      </trkpt>
      <trkpt lat="43.43101811595261096954345703125" lon="-4.80709581635892391204833984375">
        <ele>2</ele>
        <time>2018-09-07T06:46:06.000Z</time>
      </trkpt>
      <trkpt lat="43.43102616257965564727783203125" lon="-4.80713881552219390869140625">
        <ele>1.7999999523162841796875</ele>
        <time>2018-09-07T06:46:08.000Z</time>
      </trkpt>
      <trkpt lat="43.4310393221676349639892578125" lon="-4.8071668110787868499755859375">
        <ele>1.60000002384185791015625</ele>
        <time>2018-09-07T06:46:09.000Z</time>
      </trkpt>
      <trkpt lat="43.43109254725277423858642578125" lon="-4.8073004186153411865234375">
        <ele>0.800000011920928955078125</ele>
        <time>2018-09-07T06:46:12.000Z</time>
      </trkpt>
      <trkpt lat="43.43111014924943447113037109375" lon="-4.80736068449914455413818359375">
        <ele>0.4000000059604644775390625</ele>
        <time>2018-09-07T06:46:13.000Z</time>
      </trkpt>
      <trkpt lat="43.431164212524890899658203125" lon="-4.80760174803435802459716796875">
        <ele>0.4000000059604644775390625</ele>
        <time>2018-09-07T06:46:18.000Z</time>
      </trkpt>
      <trkpt lat="43.4311611950397491455078125" lon="-4.80773217044770717620849609375">
        <ele>1</ele>
        <time>2018-09-07T06:46:21.000Z</time>
      </trkpt>
      <trkpt lat="43.43115591444075107574462890625" lon="-4.80781716294586658477783203125">
        <ele>1.2000000476837158203125</ele>
        <time>2018-09-07T06:46:23.000Z</time>
      </trkpt>
      <trkpt lat="43.431143425405025482177734375" lon="-4.80797776021063327789306640625">
        <ele>2</ele>
        <time>2018-09-07T06:46:27.000Z</time>
      </trkpt>
      <trkpt lat="43.43114334158599376678466796875" lon="-4.8080539517104625701904296875">
        <ele>2.400000095367431640625</ele>
        <time>2018-09-07T06:46:29.000Z</time>
      </trkpt>
      <trkpt lat="43.4311476163566112518310546875" lon="-4.808130227029323577880859375">
        <ele>2.599999904632568359375</ele>
        <time>2018-09-07T06:46:31.000Z</time>
      </trkpt>
      <trkpt lat="43.431137390434741973876953125" lon="-4.80832912959158420562744140625">
        <ele>2.7999999523162841796875</ele>
        <time>2018-09-07T06:46:36.000Z</time>
      </trkpt>
      <trkpt lat="43.4310426749289035797119140625" lon="-4.8085892200469970703125">
        <ele>2.400000095367431640625</ele>
        <time>2018-09-07T06:46:43.000Z</time>
      </trkpt>
      <trkpt lat="43.43089766800403594970703125" lon="-4.80872400104999542236328125">
        <ele>2.7999999523162841796875</ele>
        <time>2018-09-07T06:46:49.000Z</time>
      </trkpt>
      <trkpt lat="43.43081854283809661865234375" lon="-4.8087784834206104278564453125">
        <ele>3</ele>
        <time>2018-09-07T06:46:52.000Z</time>
      </trkpt>
      <trkpt lat="43.4307063929736614227294921875" lon="-4.8088641464710235595703125">
        <ele>3</ele>
        <time>2018-09-07T06:46:56.000Z</time>
      </trkpt>
      <trkpt lat="43.4304656647145748138427734375" lon="-4.809037484228610992431640625">
        <ele>3.599999904632568359375</ele>
        <time>2018-09-07T06:47:04.000Z</time>
      </trkpt>
      <trkpt lat="43.43022602610290050506591796875" lon="-4.80924275703728199005126953125">
        <ele>3.7999999523162841796875</ele>
        <time>2018-09-07T06:47:12.000Z</time>
      </trkpt>
      <trkpt lat="43.4301682747900485992431640625" lon="-4.80929807759821414947509765625">
        <ele>4</ele>
        <time>2018-09-07T06:47:14.000Z</time>
      </trkpt>
      <trkpt lat="43.43003156594932079315185546875" lon="-4.80941735208034515380859375">
        <ele>4.400000095367431640625</ele>
        <time>2018-09-07T06:47:19.000Z</time>
      </trkpt>
      <trkpt lat="43.4298876486718654632568359375" lon="-4.80950578115880489349365234375">
        <ele>4.599999904632568359375</ele>
        <time>2018-09-07T06:47:24.000Z</time>
      </trkpt>
      <trkpt lat="43.42962672002613544464111328125" lon="-4.8095945455133914947509765625">
        <ele>4.80000019073486328125</ele>
        <time>2018-09-07T06:47:32.000Z</time>
      </trkpt>
      <trkpt lat="43.4293461777269840240478515625" lon="-4.809621870517730712890625">
        <ele>4.80000019073486328125</ele>
        <time>2018-09-07T06:47:39.000Z</time>
      </trkpt>
      <trkpt lat="43.4292214550077915191650390625" lon="-4.80962899513542652130126953125">
        <ele>4.80000019073486328125</ele>
        <time>2018-09-07T06:47:43.000Z</time>
      </trkpt>
      <trkpt lat="43.42915347777307033538818359375" lon="-4.80964022688567638397216796875">
        <ele>4.80000019073486328125</ele>
        <time>2018-09-07T06:47:45.000Z</time>
      </trkpt>
      <trkpt lat="43.42908181250095367431640625" lon="-4.8096515424549579620361328125">
        <ele>5</ele>
        <time>2018-09-07T06:47:47.000Z</time>
      </trkpt>
      <trkpt lat="43.42886723577976226806640625" lon="-4.80967660434544086456298828125">
        <ele>5.400000095367431640625</ele>
        <time>2018-09-07T06:47:53.000Z</time>
      </trkpt>
      <trkpt lat="43.4286010265350341796875" lon="-4.80969420634210109710693359375">
        <ele>5.80000019073486328125</ele>
        <time>2018-09-07T06:48:00.000Z</time>
      </trkpt>
      <trkpt lat="43.42829525470733642578125" lon="-4.80968548916280269622802734375">
        <ele>6</ele>
        <time>2018-09-07T06:48:08.000Z</time>
      </trkpt>
      <trkpt lat="43.428142704069614410400390625" lon="-4.809662438929080963134765625">
        <ele>6.19999980926513671875</ele>
        <time>2018-09-07T06:48:12.000Z</time>
      </trkpt>
      <trkpt lat="43.4279236011207103729248046875" lon="-4.8096527159214019775390625">
        <ele>6.80000019073486328125</ele>
        <time>2018-09-07T06:48:18.000Z</time>
      </trkpt>
      <trkpt lat="43.42783483676612377166748046875" lon="-4.80969320051372051239013671875">
        <ele>7.19999980926513671875</ele>
        <time>2018-09-07T06:48:21.000Z</time>
      </trkpt>
      <trkpt lat="43.42778773047029972076416015625" lon="-4.809731505811214447021484375">
        <ele>7.400000095367431640625</ele>
        <time>2018-09-07T06:48:23.000Z</time>
      </trkpt>
      <trkpt lat="43.427683375775814056396484375" lon="-4.80984625406563282012939453125">
        <ele>8</ele>
        <time>2018-09-07T06:48:29.000Z</time>
      </trkpt>
      <trkpt lat="43.42755001969635486602783203125" lon="-4.8099754191935062408447265625">
        <ele>8.19999980926513671875</ele>
        <time>2018-09-07T06:48:35.000Z</time>
      </trkpt>
      <trkpt lat="43.427396379411220550537109375" lon="-4.810140542685985565185546875">
        <ele>8.80000019073486328125</ele>
        <time>2018-09-07T06:48:42.000Z</time>
      </trkpt>
      <trkpt lat="43.42730820178985595703125" lon="-4.81023785658180713653564453125">
        <ele>9.19999980926513671875</ele>
        <time>2018-09-07T06:48:46.000Z</time>
      </trkpt>
      <trkpt lat="43.42723972164094448089599609375" lon="-4.8103626631200313568115234375">
        <ele>9.80000019073486328125</ele>
        <time>2018-09-07T06:48:50.000Z</time>
      </trkpt>
      <trkpt lat="43.4271762706339359283447265625" lon="-4.81048478744924068450927734375">
        <ele>10.3999996185302734375</ele>
        <time>2018-09-07T06:48:54.000Z</time>
      </trkpt>
      <trkpt lat="43.42713360674679279327392578125" lon="-4.81057782657444477081298828125">
        <ele>10.80000019073486328125</ele>
        <time>2018-09-07T06:48:57.000Z</time>
      </trkpt>
      <trkpt lat="43.42707325704395771026611328125" lon="-4.8107069917023181915283203125">
        <ele>11.3999996185302734375</ele>
        <time>2018-09-07T06:49:01.000Z</time>
      </trkpt>
      <trkpt lat="43.42702682130038738250732421875" lon="-4.81079977937042713165283203125">
        <ele>12</ele>
        <time>2018-09-07T06:49:04.000Z</time>
      </trkpt>
      <trkpt lat="43.4269871748983860015869140625" lon="-4.81087923981249332427978515625">
        <ele>12.3999996185302734375</ele>
        <time>2018-09-07T06:49:07.000Z</time>
      </trkpt>
      <trkpt lat="43.42694266699254512786865234375" lon="-4.81095065362751483917236328125">
        <ele>12.80000019073486328125</ele>
        <time>2018-09-07T06:49:10.000Z</time>
      </trkpt>
      <trkpt lat="43.42684091068804264068603515625" lon="-4.81106263585388660430908203125">
        <ele>13.19999980926513671875</ele>
        <time>2018-09-07T06:49:18.000Z</time>
      </trkpt>
      <trkpt lat="43.42686035670340061187744140625" lon="-4.8109892942011356353759765625">
        <ele>13.19999980926513671875</ele>
        <time>2018-09-07T06:49:21.000Z</time>
      </trkpt>
      <trkpt lat="43.4269637055695056915283203125" lon="-4.8108642362058162689208984375">
        <ele>12.80000019073486328125</ele>
        <time>2018-09-07T06:49:25.000Z</time>
      </trkpt>
      <trkpt lat="43.42698994092643260955810546875" lon="-4.81082190759479999542236328125">
        <ele>12.6000003814697265625</ele>
        <time>2018-09-07T06:49:26.000Z</time>
      </trkpt>
      <trkpt lat="43.4271058626472949981689453125" lon="-4.81060766614973545074462890625">
        <ele>11.3999996185302734375</ele>
        <time>2018-09-07T06:49:30.000Z</time>
      </trkpt>
      <trkpt lat="43.42713863588869571685791015625" lon="-4.8105447180569171905517578125">
        <ele>11.19999980926513671875</ele>
        <time>2018-09-07T06:49:31.000Z</time>
      </trkpt>
      <trkpt lat="43.42717350460588932037353515625" lon="-4.81047992594540119171142578125">
        <ele>10.80000019073486328125</ele>
        <time>2018-09-07T06:49:32.000Z</time>
      </trkpt>
      <trkpt lat="43.4272077865898609161376953125" lon="-4.8104109428822994232177734375">
        <ele>10.3999996185302734375</ele>
        <time>2018-09-07T06:49:33.000Z</time>
      </trkpt>
      <trkpt lat="43.4272800385951995849609375" lon="-4.81026484631001949310302734375">
        <ele>9.6000003814697265625</ele>
        <time>2018-09-07T06:49:35.000Z</time>
      </trkpt>
      <trkpt lat="43.42732538469135761260986328125" lon="-4.81019678525626659393310546875">
        <ele>9.3999996185302734375</ele>
        <time>2018-09-07T06:49:36.000Z</time>
      </trkpt>
      <trkpt lat="43.42737668193876743316650390625" lon="-4.81013190932571887969970703125">
        <ele>9</ele>
        <time>2018-09-07T06:49:37.000Z</time>
      </trkpt>
      <trkpt lat="43.4274833835661411285400390625" lon="-4.8100126348435878753662109375">
        <ele>8.19999980926513671875</ele>
        <time>2018-09-07T06:49:39.000Z</time>
      </trkpt>
      <trkpt lat="43.42765194363892078399658203125" lon="-4.809852875769138336181640625">
        <ele>7.80000019073486328125</ele>
        <time>2018-09-07T06:49:42.000Z</time>
      </trkpt>
      <trkpt lat="43.4277038276195526123046875" lon="-4.80979981832206249237060546875">
        <ele>7.599999904632568359375</ele>
        <time>2018-09-07T06:49:43.000Z</time>
      </trkpt>
      <trkpt lat="43.42780080623924732208251953125" lon="-4.8097095452249050140380859375">
        <ele>7.400000095367431640625</ele>
        <time>2018-09-07T06:49:45.000Z</time>
      </trkpt>
      <trkpt lat="43.42784757725894451141357421875" lon="-4.80967476032674312591552734375">
        <ele>7.400000095367431640625</ele>
        <time>2018-09-07T06:49:46.000Z</time>
      </trkpt>
      <trkpt lat="43.42789585702121257781982421875" lon="-4.809647016227245330810546875">
        <ele>7.19999980926513671875</ele>
        <time>2018-09-07T06:49:47.000Z</time>
      </trkpt>
      <trkpt lat="43.42794346623122692108154296875" lon="-4.8096324317157268524169921875">
        <ele>7</ele>
        <time>2018-09-07T06:49:48.000Z</time>
      </trkpt>
      <trkpt lat="43.42799677513539791107177734375" lon="-4.8096277378499507904052734375">
        <ele>7</ele>
        <time>2018-09-07T06:49:49.000Z</time>
      </trkpt>
      <trkpt lat="43.4281088411808013916015625" lon="-4.8096243850886821746826171875">
        <ele>6.599999904632568359375</ele>
        <time>2018-09-07T06:49:51.000Z</time>
      </trkpt>
      <trkpt lat="43.42822928912937641143798828125" lon="-4.8096205294132232666015625">
        <ele>6</ele>
        <time>2018-09-07T06:49:53.000Z</time>
      </trkpt>
      <trkpt lat="43.42835434712469577789306640625" lon="-4.80962212197482585906982421875">
        <ele>5.400000095367431640625</ele>
        <time>2018-09-07T06:49:55.000Z</time>
      </trkpt>
      <trkpt lat="43.4286451153457164764404296875" lon="-4.8096354492008686065673828125">
        <ele>5.400000095367431640625</ele>
        <time>2018-09-07T06:50:00.000Z</time>
      </trkpt>
      <trkpt lat="43.428699262440204620361328125" lon="-4.809638299047946929931640625">
        <ele>5.400000095367431640625</ele>
        <time>2018-09-07T06:50:01.000Z</time>
      </trkpt>
      <trkpt lat="43.42886547558009624481201171875" lon="-4.80963519774377346038818359375">
        <ele>5.19999980926513671875</ele>
        <time>2018-09-07T06:50:04.000Z</time>
      </trkpt>
      <trkpt lat="43.4289203770458698272705078125" lon="-4.80963670648634433746337890625">
        <ele>5</ele>
        <time>2018-09-07T06:50:05.000Z</time>
      </trkpt>
      <trkpt lat="43.42902506701648235321044921875" lon="-4.80962614528834819793701171875">
        <ele>5</ele>
        <time>2018-09-07T06:50:07.000Z</time>
      </trkpt>
      <trkpt lat="43.42922338284552097320556640625" lon="-4.80960435234010219573974609375">
        <ele>5</ele>
        <time>2018-09-07T06:50:11.000Z</time>
      </trkpt>
      <trkpt lat="43.42936453409492969512939453125" lon="-4.80958892963826656341552734375">
        <ele>5</ele>
        <time>2018-09-07T06:50:14.000Z</time>
      </trkpt>
      <trkpt lat="43.42945732176303863525390625" lon="-4.80957300402224063873291015625">
        <ele>4.80000019073486328125</ele>
        <time>2018-09-07T06:50:16.000Z</time>
      </trkpt>
      <trkpt lat="43.4295540489256381988525390625" lon="-4.80956076644361019134521484375">
        <ele>4.80000019073486328125</ele>
        <time>2018-09-07T06:50:18.000Z</time>
      </trkpt>
      <trkpt lat="43.42960325069725513458251953125" lon="-4.80955624021589756011962890625">
        <ele>4.80000019073486328125</ele>
        <time>2018-09-07T06:50:19.000Z</time>
      </trkpt>
      <trkpt lat="43.429697714745998382568359375" lon="-4.8095429129898548126220703125">
        <ele>4.80000019073486328125</ele>
        <time>2018-09-07T06:50:21.000Z</time>
      </trkpt>
      <trkpt lat="43.42987130396068096160888671875" lon="-4.8094953037798404693603515625">
        <ele>4.599999904632568359375</ele>
        <time>2018-09-07T06:50:25.000Z</time>
      </trkpt>
      <trkpt lat="43.42991656623780727386474609375" lon="-4.80947007425129413604736328125">
        <ele>4.400000095367431640625</ele>
        <time>2018-09-07T06:50:26.000Z</time>
      </trkpt>
      <trkpt lat="43.42996132560074329376220703125" lon="-4.8094396479427814483642578125">
        <ele>4.599999904632568359375</ele>
        <time>2018-09-07T06:50:27.000Z</time>
      </trkpt>
      <trkpt lat="43.43008034862577915191650390625" lon="-4.80934132821857929229736328125">
        <ele>4.400000095367431640625</ele>
        <time>2018-09-07T06:50:30.000Z</time>
      </trkpt>
      <trkpt lat="43.43010666780173778533935546875" lon="-4.80935054831206798553466796875">
        <ele>4.400000095367431640625</ele>
        <time>2018-09-07T06:50:31.000Z</time>
      </trkpt>
      <trkpt lat="43.4301303885877132415771484375" lon="-4.8094520531594753265380859375">
        <ele>4.400000095367431640625</ele>
        <time>2018-09-07T06:50:34.000Z</time>
      </trkpt>
      <trkpt lat="43.4301330707967281341552734375" lon="-4.8094738461077213287353515625">
        <ele>4.599999904632568359375</ele>
        <time>2018-09-07T06:50:35.000Z</time>
      </trkpt>
      <trkpt lat="43.43013851903378963470458984375" lon="-4.80948650278151035308837890625">
        <ele>4.80000019073486328125</ele>
        <time>2018-09-07T06:50:36.000Z</time>
      </trkpt>
      <trkpt lat="43.43015729449689388275146484375" lon="-4.8094979859888553619384765625">
        <ele>5</ele>
        <time>2018-09-07T06:50:38.000Z</time>
      </trkpt>
      <trkpt lat="43.4301669336855411529541015625" lon="-4.8094299249351024627685546875">
        <ele>4.80000019073486328125</ele>
        <time>2018-09-07T06:50:42.000Z</time>
      </trkpt>
      <trkpt lat="43.43010130338370800018310546875" lon="-4.8094274103641510009765625">
        <ele>4.599999904632568359375</ele>
        <time>2018-09-07T06:50:45.000Z</time>
      </trkpt>
      <trkpt lat="43.4301334060728549957275390625" lon="-4.80947971343994140625">
        <ele>5</ele>
        <time>2018-09-07T06:50:48.000Z</time>
      </trkpt>
      <trkpt lat="43.43018612824380397796630859375" lon="-4.80947845615446567535400390625">
        <ele>5</ele>
        <time>2018-09-07T06:50:50.000Z</time>
      </trkpt>
      <trkpt lat="43.43025016598403453826904296875" lon="-4.80948750860989093780517578125">
        <ele>5.19999980926513671875</ele>
        <time>2018-09-07T06:50:52.000Z</time>
      </trkpt>
      <trkpt lat="43.43028151430189609527587890625" lon="-4.8094976507127285003662109375">
        <ele>5.400000095367431640625</ele>
        <time>2018-09-07T06:50:53.000Z</time>
      </trkpt>
      <trkpt lat="43.4303382597863674163818359375" lon="-4.80953997932374477386474609375">
        <ele>5.400000095367431640625</ele>
        <time>2018-09-07T06:50:55.000Z</time>
      </trkpt>
      <trkpt lat="43.43045242130756378173828125" lon="-4.80964005924761295318603515625">
        <ele>5.400000095367431640625</ele>
        <time>2018-09-07T06:50:59.000Z</time>
      </trkpt>
      <trkpt lat="43.430710919201374053955078125" lon="-4.8099325038492679595947265625">
        <ele>5.80000019073486328125</ele>
        <time>2018-09-07T06:51:08.000Z</time>
      </trkpt>
      <trkpt lat="43.430915437638759613037109375" lon="-4.810168705880641937255859375">
        <ele>6</ele>
        <time>2018-09-07T06:51:16.000Z</time>
      </trkpt>
      <trkpt lat="43.43095005489885807037353515625" lon="-4.81019653379917144775390625">
        <ele>6</ele>
        <time>2018-09-07T06:51:17.000Z</time>
      </trkpt>
      <trkpt lat="43.43098458833992481231689453125" lon="-4.8102218471467494964599609375">
        <ele>6</ele>
        <time>2018-09-07T06:51:18.000Z</time>
      </trkpt>
      <trkpt lat="43.4311194531619548797607421875" lon="-4.810310862958431243896484375">
        <ele>6.599999904632568359375</ele>
        <time>2018-09-07T06:51:22.000Z</time>
      </trkpt>
      <trkpt lat="43.4312133304774761199951171875" lon="-4.81037615798413753509521484375">
        <ele>7</ele>
        <time>2018-09-07T06:51:25.000Z</time>
      </trkpt>
      <trkpt lat="43.43124342150986194610595703125" lon="-4.810400716960430145263671875">
        <ele>7.19999980926513671875</ele>
        <time>2018-09-07T06:51:26.000Z</time>
      </trkpt>
      <trkpt lat="43.4313574992120265960693359375" lon="-4.81047355569899082183837890625">
        <ele>7.80000019073486328125</ele>
        <time>2018-09-07T06:51:30.000Z</time>
      </trkpt>
      <trkpt lat="43.4314171783626079559326171875" lon="-4.8105056583881378173828125">
        <ele>8.6000003814697265625</ele>
        <time>2018-09-07T06:51:32.000Z</time>
      </trkpt>
      <trkpt lat="43.4314667992293834686279296875" lon="-4.810538850724697113037109375">
        <ele>9</ele>
        <time>2018-09-07T06:51:34.000Z</time>
      </trkpt>
      <trkpt lat="43.431524969637393951416015625" lon="-4.81057070195674896240234375">
        <ele>9.6000003814697265625</ele>
        <time>2018-09-07T06:51:36.000Z</time>
      </trkpt>
      <trkpt lat="43.43155480921268463134765625" lon="-4.81058503501117229461669921875">
        <ele>10</ele>
        <time>2018-09-07T06:51:37.000Z</time>
      </trkpt>
      <trkpt lat="43.431610800325870513916015625" lon="-4.81060900725424289703369140625">
        <ele>10.6000003814697265625</ele>
        <time>2018-09-07T06:51:39.000Z</time>
      </trkpt>
      <trkpt lat="43.4316558949649333953857421875" lon="-4.810646809637546539306640625">
        <ele>11.19999980926513671875</ele>
        <time>2018-09-07T06:51:41.000Z</time>
      </trkpt>
      <trkpt lat="43.43170358799397945404052734375" lon="-4.81068410910665988922119140625">
        <ele>12</ele>
        <time>2018-09-07T06:51:43.000Z</time>
      </trkpt>
      <trkpt lat="43.4317635186016559600830078125" lon="-4.8107197321951389312744140625">
        <ele>12.6000003814697265625</ele>
        <time>2018-09-07T06:51:45.000Z</time>
      </trkpt>
      <trkpt lat="43.43182512558996677398681640625" lon="-4.81075468473136425018310546875">
        <ele>13.19999980926513671875</ele>
        <time>2018-09-07T06:51:47.000Z</time>
      </trkpt>
      <trkpt lat="43.4318738244473934173583984375" lon="-4.81077714823186397552490234375">
        <ele>13.6000003814697265625</ele>
        <time>2018-09-07T06:51:49.000Z</time>
      </trkpt>
      <trkpt lat="43.43202545307576656341552734375" lon="-4.81085225008428096771240234375">
        <ele>13.3999996185302734375</ele>
        <time>2018-09-07T06:51:54.000Z</time>
      </trkpt>
      <trkpt lat="43.43212746083736419677734375" lon="-4.81090673245489597320556640625">
        <ele>13.3999996185302734375</ele>
        <time>2018-09-07T06:51:57.000Z</time>
      </trkpt>
      <trkpt lat="43.43222226016223430633544921875" lon="-4.810986109077930450439453125">
        <ele>13</ele>
        <time>2018-09-07T06:52:00.000Z</time>
      </trkpt>
      <trkpt lat="43.43225008808076381683349609375" lon="-4.81102466583251953125">
        <ele>13</ele>
        <time>2018-09-07T06:52:01.000Z</time>
      </trkpt>
      <trkpt lat="43.43228378333151340484619140625" lon="-4.81105442158877849578857421875">
        <ele>12.80000019073486328125</ele>
        <time>2018-09-07T06:52:02.000Z</time>
      </trkpt>
      <trkpt lat="43.4323743917047977447509765625" lon="-4.811121560633182525634765625">
        <ele>11.80000019073486328125</ele>
        <time>2018-09-07T06:52:04.000Z</time>
      </trkpt>
      <trkpt lat="43.432433567941188812255859375" lon="-4.8111519031226634979248046875">
        <ele>11</ele>
        <time>2018-09-07T06:52:05.000Z</time>
      </trkpt>
      <trkpt lat="43.4325007908046245574951171875" lon="-4.81117914430797100067138671875">
        <ele>9.80000019073486328125</ele>
        <time>2018-09-07T06:52:06.000Z</time>
      </trkpt>
      <trkpt lat="43.43256868422031402587890625" lon="-4.8112119175493717193603515625">
        <ele>8.6000003814697265625</ele>
        <time>2018-09-07T06:52:07.000Z</time>
      </trkpt>
      <trkpt lat="43.43263548798859119415283203125" lon="-4.81124619953334331512451171875">
        <ele>7.599999904632568359375</ele>
        <time>2018-09-07T06:52:08.000Z</time>
      </trkpt>
      <trkpt lat="43.43276557512581348419189453125" lon="-4.8113292641937732696533203125">
        <ele>5.599999904632568359375</ele>
        <time>2018-09-07T06:52:10.000Z</time>
      </trkpt>
      <trkpt lat="43.4328313730657100677490234375" lon="-4.81138483621180057525634765625">
        <ele>4.599999904632568359375</ele>
        <time>2018-09-07T06:52:11.000Z</time>
      </trkpt>
      <trkpt lat="43.4328987635672092437744140625" lon="-4.8114509694278240203857421875">
        <ele>3.599999904632568359375</ele>
        <time>2018-09-07T06:52:12.000Z</time>
      </trkpt>
      <trkpt lat="43.4330144338309764862060546875" lon="-4.811608381569385528564453125">
        <ele>1.7999999523162841796875</ele>
        <time>2018-09-07T06:52:14.000Z</time>
      </trkpt>
      <trkpt lat="43.43309934251010417938232421875" lon="-4.81179102323949337005615234375">
        <ele>1</ele>
        <time>2018-09-07T06:52:16.000Z</time>
      </trkpt>
      <trkpt lat="43.43313471414148807525634765625" lon="-4.811887331306934356689453125">
        <ele>1</ele>
        <time>2018-09-07T06:52:17.000Z</time>
      </trkpt>
      <trkpt lat="43.4331706725060939788818359375" lon="-4.8119817115366458892822265625">
        <ele>1</ele>
        <time>2018-09-07T06:52:18.000Z</time>
      </trkpt>
      <trkpt lat="43.433205373585224151611328125" lon="-4.8120747506618499755859375">
        <ele>0.800000011920928955078125</ele>
        <time>2018-09-07T06:52:19.000Z</time>
      </trkpt>
      <trkpt lat="43.4333091415464878082275390625" lon="-4.812352694571018218994140625">
        <ele>0.20000000298023223876953125</ele>
        <time>2018-09-07T06:52:22.000Z</time>
      </trkpt>
      <trkpt lat="43.43333772383630275726318359375" lon="-4.81244330294430255889892578125">
        <ele>0.20000000298023223876953125</ele>
        <time>2018-09-07T06:52:23.000Z</time>
      </trkpt>
      <trkpt lat="43.43340142630040645599365234375" lon="-4.8127233423292636871337890625">
        <ele>0</ele>
        <time>2018-09-07T06:52:26.000Z</time>
      </trkpt>
      <trkpt lat="43.43342338688671588897705078125" lon="-4.812814034521579742431640625">
        <ele>-0.20000000298023223876953125</ele>
        <time>2018-09-07T06:52:27.000Z</time>
      </trkpt>
      <trkpt lat="43.43346898443996906280517578125" lon="-4.812999106943607330322265625">
        <ele>-0.4000000059604644775390625</ele>
        <time>2018-09-07T06:52:29.000Z</time>
      </trkpt>
      <trkpt lat="43.4335233829915523529052734375" lon="-4.81318040750920772552490234375">
        <ele>-0.4000000059604644775390625</ele>
        <time>2018-09-07T06:52:31.000Z</time>
      </trkpt>
      <trkpt lat="43.433597981929779052734375" lon="-4.81334452517330646514892578125">
        <ele>-0.60000002384185791015625</ele>
        <time>2018-09-07T06:52:33.000Z</time>
      </trkpt>
      <trkpt lat="43.43388254754245281219482421875" lon="-4.8138438351452350616455078125">
        <ele>-0.800000011920928955078125</ele>
        <time>2018-09-07T06:52:40.000Z</time>
      </trkpt>
      <trkpt lat="43.43402772210538387298583984375" lon="-4.8141107149422168731689453125">
        <ele>-0.800000011920928955078125</ele>
        <time>2018-09-07T06:52:44.000Z</time>
      </trkpt>
      <trkpt lat="43.43405320309102535247802734375" lon="-4.81425664387643337249755859375">
        <ele>-0.800000011920928955078125</ele>
        <time>2018-09-07T06:52:46.000Z</time>
      </trkpt>
      <trkpt lat="43.43404901213943958282470703125" lon="-4.81439980678260326385498046875">
        <ele>-0.60000002384185791015625</ele>
        <time>2018-09-07T06:52:48.000Z</time>
      </trkpt>
      <trkpt lat="43.43403627164661884307861328125" lon="-4.8146045766770839691162109375">
        <ele>-0.4000000059604644775390625</ele>
        <time>2018-09-07T06:52:51.000Z</time>
      </trkpt>
      <trkpt lat="43.4340222738683223724365234375" lon="-4.81520463712513446807861328125">
        <ele>0.20000000298023223876953125</ele>
        <time>2018-09-07T06:53:00.000Z</time>
      </trkpt>
      <trkpt lat="43.43406133353710174560546875" lon="-4.81544637121260166168212890625">
        <ele>0.4000000059604644775390625</ele>
        <time>2018-09-07T06:53:04.000Z</time>
      </trkpt>
      <trkpt lat="43.43408773653209209442138671875" lon="-4.815557934343814849853515625">
        <ele>0.800000011920928955078125</ele>
        <time>2018-09-07T06:53:06.000Z</time>
      </trkpt>
      <trkpt lat="43.43410433270037174224853515625" lon="-4.815613925457000732421875">
        <ele>1</ele>
        <time>2018-09-07T06:53:07.000Z</time>
      </trkpt>
      <trkpt lat="43.4341599047183990478515625" lon="-4.8157740198075771331787109375">
        <ele>1.39999997615814208984375</ele>
        <time>2018-09-07T06:53:10.000Z</time>
      </trkpt>
      <trkpt lat="43.4342516027390956878662109375" lon="-4.815975688397884368896484375">
        <ele>1.7999999523162841796875</ele>
        <time>2018-09-07T06:53:14.000Z</time>
      </trkpt>
      <trkpt lat="43.43427733518183231353759765625" lon="-4.8160234652459621429443359375">
        <ele>2</ele>
        <time>2018-09-07T06:53:15.000Z</time>
      </trkpt>
      <trkpt lat="43.4343528561294078826904296875" lon="-4.8161678016185760498046875">
        <ele>2.400000095367431640625</ele>
        <time>2018-09-07T06:53:18.000Z</time>
      </trkpt>
      <trkpt lat="43.43443843536078929901123046875" lon="-4.8163533769547939300537109375">
        <ele>3</ele>
        <time>2018-09-07T06:53:22.000Z</time>
      </trkpt>
      <trkpt lat="43.43445654027163982391357421875" lon="-4.81640023179352283477783203125">
        <ele>3</ele>
        <time>2018-09-07T06:53:23.000Z</time>
      </trkpt>
      <trkpt lat="43.43452862463891506195068359375" lon="-4.81664397753775119781494140625">
        <ele>4</ele>
        <time>2018-09-07T06:53:28.000Z</time>
      </trkpt>
      <trkpt lat="43.43455796130001544952392578125" lon="-4.81679141521453857421875">
        <ele>4.400000095367431640625</ele>
        <time>2018-09-07T06:53:31.000Z</time>
      </trkpt>
      <trkpt lat="43.43456516973674297332763671875" lon="-4.816890656948089599609375">
        <ele>5</ele>
        <time>2018-09-07T06:53:33.000Z</time>
      </trkpt>
      <trkpt lat="43.43456818722188472747802734375" lon="-4.8170416988432407379150390625">
        <ele>5.599999904632568359375</ele>
        <time>2018-09-07T06:53:36.000Z</time>
      </trkpt>
      <trkpt lat="43.43457489274442195892333984375" lon="-4.817192740738391876220703125">
        <ele>6.19999980926513671875</ele>
        <time>2018-09-07T06:53:39.000Z</time>
      </trkpt>
      <trkpt lat="43.43457338400185108184814453125" lon="-4.8174936510622501373291015625">
        <ele>7.19999980926513671875</ele>
        <time>2018-09-07T06:53:45.000Z</time>
      </trkpt>
      <trkpt lat="43.43456852249801158905029296875" lon="-4.8175902105867862701416015625">
        <ele>7.400000095367431640625</ele>
        <time>2018-09-07T06:53:47.000Z</time>
      </trkpt>
      <trkpt lat="43.43457254581153392791748046875" lon="-4.81799430213868618011474609375">
        <ele>8</ele>
        <time>2018-09-07T06:53:55.000Z</time>
      </trkpt>
      <trkpt lat="43.43458763323724269866943359375" lon="-4.8181058652698993682861328125">
        <ele>8</ele>
        <time>2018-09-07T06:53:57.000Z</time>
      </trkpt>
      <trkpt lat="43.43460003845393657684326171875" lon="-4.8182168416678905487060546875">
        <ele>8.19999980926513671875</ele>
        <time>2018-09-07T06:53:59.000Z</time>
      </trkpt>
      <trkpt lat="43.4346110187470912933349609375" lon="-4.818272329866886138916015625">
        <ele>8.19999980926513671875</ele>
        <time>2018-09-07T06:54:00.000Z</time>
      </trkpt>
      <trkpt lat="43.43470598571002483367919921875" lon="-4.8187257908284664154052734375">
        <ele>8.3999996185302734375</ele>
        <time>2018-09-07T06:54:08.000Z</time>
      </trkpt>
      <trkpt lat="43.43472777865827083587646484375" lon="-4.81883718632161617279052734375">
        <ele>8.6000003814697265625</ele>
        <time>2018-09-07T06:54:10.000Z</time>
      </trkpt>
      <trkpt lat="43.43475409783422946929931640625" lon="-4.81901689432561397552490234375">
        <ele>8.6000003814697265625</ele>
        <time>2018-09-07T06:54:13.000Z</time>
      </trkpt>
      <trkpt lat="43.43476952053606510162353515625" lon="-4.81913759373128414154052734375">
        <ele>8.80000019073486328125</ele>
        <time>2018-09-07T06:54:15.000Z</time>
      </trkpt>
      <trkpt lat="43.4347699396312236785888671875" lon="-4.819441102445125579833984375">
        <ele>8.80000019073486328125</ele>
        <time>2018-09-07T06:54:20.000Z</time>
      </trkpt>
      <trkpt lat="43.43476147390902042388916015625" lon="-4.81956305913627147674560546875">
        <ele>8.80000019073486328125</ele>
        <time>2018-09-07T06:54:22.000Z</time>
      </trkpt>
      <trkpt lat="43.43469299376010894775390625" lon="-4.82001467607915401458740234375">
        <ele>8.80000019073486328125</ele>
        <time>2018-09-07T06:54:29.000Z</time>
      </trkpt>
      <trkpt lat="43.43461764045059680938720703125" lon="-4.82040074653923511505126953125">
        <ele>9</ele>
        <time>2018-09-07T06:54:35.000Z</time>
      </trkpt>
      <trkpt lat="43.43458562158048152923583984375" lon="-4.82060509733855724334716796875">
        <ele>9</ele>
        <time>2018-09-07T06:54:38.000Z</time>
      </trkpt>
      <trkpt lat="43.43455829657614231109619140625" lon="-4.82074390165507793426513671875">
        <ele>9</ele>
        <time>2018-09-07T06:54:40.000Z</time>
      </trkpt>
      <trkpt lat="43.434464000165462493896484375" lon="-4.821243546903133392333984375">
        <ele>8</ele>
        <time>2018-09-07T06:54:47.000Z</time>
      </trkpt>
      <trkpt lat="43.43442267738282680511474609375" lon="-4.8215072415769100189208984375">
        <ele>7.599999904632568359375</ele>
        <time>2018-09-07T06:54:51.000Z</time>
      </trkpt>
      <trkpt lat="43.434401638805866241455078125" lon="-4.8216354846954345703125">
        <ele>7.599999904632568359375</ele>
        <time>2018-09-07T06:54:53.000Z</time>
      </trkpt>
      <trkpt lat="43.43438780866563320159912109375" lon="-4.82169927097856998443603515625">
        <ele>7.599999904632568359375</ele>
        <time>2018-09-07T06:54:54.000Z</time>
      </trkpt>
      <trkpt lat="43.43435662798583507537841796875" lon="-4.821893982589244842529296875">
        <ele>7.19999980926513671875</ele>
        <time>2018-09-07T06:54:57.000Z</time>
      </trkpt>
      <trkpt lat="43.434333913028240203857421875" lon="-4.8220316134393215179443359375">
        <ele>7.19999980926513671875</ele>
        <time>2018-09-07T06:54:59.000Z</time>
      </trkpt>
      <trkpt lat="43.4343020617961883544921875" lon="-4.82230192981660366058349609375">
        <ele>7</ele>
        <time>2018-09-07T06:55:03.000Z</time>
      </trkpt>
      <trkpt lat="43.4342859685420989990234375" lon="-4.82251063920557498931884765625">
        <ele>6.599999904632568359375</ele>
        <time>2018-09-07T06:55:06.000Z</time>
      </trkpt>
      <trkpt lat="43.43428672291338443756103515625" lon="-4.82258121483027935028076171875">
        <ele>6.400000095367431640625</ele>
        <time>2018-09-07T06:55:07.000Z</time>
      </trkpt>
      <trkpt lat="43.43429627828299999237060546875" lon="-4.8227266408503055572509765625">
        <ele>6</ele>
        <time>2018-09-07T06:55:09.000Z</time>
      </trkpt>
      <trkpt lat="43.43432377092540264129638671875" lon="-4.82295270077884197235107421875">
        <ele>5.80000019073486328125</ele>
        <time>2018-09-07T06:55:12.000Z</time>
      </trkpt>
      <trkpt lat="43.434339277446269989013671875" lon="-4.82302411459386348724365234375">
        <ele>5.599999904632568359375</ele>
        <time>2018-09-07T06:55:13.000Z</time>
      </trkpt>
      <trkpt lat="43.43438797630369663238525390625" lon="-4.82323450036346912384033203125">
        <ele>5.400000095367431640625</ele>
        <time>2018-09-07T06:55:16.000Z</time>
      </trkpt>
      <trkpt lat="43.43442535959184169769287109375" lon="-4.82336693443357944488525390625">
        <ele>5.400000095367431640625</ele>
        <time>2018-09-07T06:55:18.000Z</time>
      </trkpt>
      <trkpt lat="43.43445586971938610076904296875" lon="-4.8235051520168781280517578125">
        <ele>5</ele>
        <time>2018-09-07T06:55:20.000Z</time>
      </trkpt>
      <trkpt lat="43.434501551091670989990234375" lon="-4.8237036354839801788330078125">
        <ele>4.80000019073486328125</ele>
        <time>2018-09-07T06:55:23.000Z</time>
      </trkpt>
      <trkpt lat="43.43453398905694484710693359375" lon="-4.82382542453706264495849609375">
        <ele>4.599999904632568359375</ele>
        <time>2018-09-07T06:55:25.000Z</time>
      </trkpt>
      <trkpt lat="43.4346562810242176055908203125" lon="-4.82420763932168483734130859375">
        <ele>4.400000095367431640625</ele>
        <time>2018-09-07T06:55:31.000Z</time>
      </trkpt>
      <trkpt lat="43.43470112420618534088134765625" lon="-4.8243329487740993499755859375">
        <ele>4</ele>
        <time>2018-09-07T06:55:33.000Z</time>
      </trkpt>
      <trkpt lat="43.43472694046795368194580078125" lon="-4.82438743114471435546875">
        <ele>4</ele>
        <time>2018-09-07T06:55:34.000Z</time>
      </trkpt>
      <trkpt lat="43.4347987733781337738037109375" lon="-4.8245394788682460784912109375">
        <ele>3.7999999523162841796875</ele>
        <time>2018-09-07T06:55:37.000Z</time>
      </trkpt>
      <trkpt lat="43.4348487295210361480712890625" lon="-4.824646599590778350830078125">
        <ele>3.2000000476837158203125</ele>
        <time>2018-09-07T06:55:39.000Z</time>
      </trkpt>
      <trkpt lat="43.43486599624156951904296875" lon="-4.82470753602683544158935546875">
        <ele>2.7999999523162841796875</ele>
        <time>2018-09-07T06:55:40.000Z</time>
      </trkpt>
      <trkpt lat="43.43488745391368865966796875" lon="-4.82484634034335613250732421875">
        <ele>2.400000095367431640625</ele>
        <time>2018-09-07T06:55:42.000Z</time>
      </trkpt>
      <trkpt lat="43.43490664847195148468017578125" lon="-4.82499830424785614013671875">
        <ele>2.2000000476837158203125</ele>
        <time>2018-09-07T06:55:44.000Z</time>
      </trkpt>
      <trkpt lat="43.43491838313639163970947265625" lon="-4.82516267336905002593994140625">
        <ele>1.7999999523162841796875</ele>
        <time>2018-09-07T06:55:46.000Z</time>
      </trkpt>
      <trkpt lat="43.43491804786026477813720703125" lon="-4.82533684931695461273193359375">
        <ele>1.2000000476837158203125</ele>
        <time>2018-09-07T06:55:48.000Z</time>
      </trkpt>
      <trkpt lat="43.43490798957645893096923828125" lon="-4.8255121149122714996337890625">
        <ele>1</ele>
        <time>2018-09-07T06:55:50.000Z</time>
      </trkpt>
      <trkpt lat="43.43489323742687702178955078125" lon="-4.82568805105984210968017578125">
        <ele>0.4000000059604644775390625</ele>
        <time>2018-09-07T06:55:52.000Z</time>
      </trkpt>
      <trkpt lat="43.43485970981419086456298828125" lon="-4.8258564434945583343505859375">
        <ele>0.20000000298023223876953125</ele>
        <time>2018-09-07T06:55:54.000Z</time>
      </trkpt>
      <trkpt lat="43.43483590520918369293212890625" lon="-4.8259337246417999267578125">
        <ele>0.4000000059604644775390625</ele>
        <time>2018-09-07T06:55:55.000Z</time>
      </trkpt>
      <trkpt lat="43.43475409783422946929931640625" lon="-4.82614469714462757110595703125">
        <ele>0.60000002384185791015625</ele>
        <time>2018-09-07T06:55:58.000Z</time>
      </trkpt>
      <trkpt lat="43.4346730448305606842041015625" lon="-4.82634116895496845245361328125">
        <ele>0.800000011920928955078125</ele>
        <time>2018-09-07T06:56:01.000Z</time>
      </trkpt>
      <trkpt lat="43.43462032265961170196533203125" lon="-4.82653093524277210235595703125">
        <ele>1.39999997615814208984375</ele>
        <time>2018-09-07T06:56:04.000Z</time>
      </trkpt>
      <trkpt lat="43.434609510004520416259765625" lon="-4.8265900276601314544677734375">
        <ele>1.60000002384185791015625</ele>
        <time>2018-09-07T06:56:05.000Z</time>
      </trkpt>
      <trkpt lat="43.4346059896051883697509765625" lon="-4.8266487009823322296142578125">
        <ele>1.7999999523162841796875</ele>
        <time>2018-09-07T06:56:06.000Z</time>
      </trkpt>
      <trkpt lat="43.4345919080078601837158203125" lon="-4.82676110230386257171630859375">
        <ele>2.2000000476837158203125</ele>
        <time>2018-09-07T06:56:08.000Z</time>
      </trkpt>
      <trkpt lat="43.43458411283791065216064453125" lon="-4.826868474483489990234375">
        <ele>2.7999999523162841796875</ele>
        <time>2018-09-07T06:56:10.000Z</time>
      </trkpt>
      <trkpt lat="43.43458277173340320587158203125" lon="-4.82697869651019573211669921875">
        <ele>3.2000000476837158203125</ele>
        <time>2018-09-07T06:56:12.000Z</time>
      </trkpt>
      <trkpt lat="43.43457757495343685150146484375" lon="-4.82703544199466705322265625">
        <ele>3.2000000476837158203125</ele>
        <time>2018-09-07T06:56:13.000Z</time>
      </trkpt>
      <trkpt lat="43.4345674328505992889404296875" lon="-4.827149100601673126220703125">
        <ele>3.599999904632568359375</ele>
        <time>2018-09-07T06:56:15.000Z</time>
      </trkpt>
      <trkpt lat="43.43456215225160121917724609375" lon="-4.8272066004574298858642578125">
        <ele>3.7999999523162841796875</ele>
        <time>2018-09-07T06:56:16.000Z</time>
      </trkpt>
      <trkpt lat="43.434543795883655548095703125" lon="-4.827314727008342742919921875">
        <ele>4.19999980926513671875</ele>
        <time>2018-09-07T06:56:18.000Z</time>
      </trkpt>
      <trkpt lat="43.43452510423958301544189453125" lon="-4.8274252004921436309814453125">
        <ele>4.400000095367431640625</ele>
        <time>2018-09-07T06:56:20.000Z</time>
      </trkpt>
      <trkpt lat="43.43451236374676227569580078125" lon="-4.8275361768901348114013671875">
        <ele>4.80000019073486328125</ele>
        <time>2018-09-07T06:56:22.000Z</time>
      </trkpt>
      <trkpt lat="43.43450649641454219818115234375" lon="-4.82759241946041584014892578125">
        <ele>5</ele>
        <time>2018-09-07T06:56:23.000Z</time>
      </trkpt>
      <trkpt lat="43.4344936721026897430419921875" lon="-4.8276981152594089508056640625">
        <ele>5.19999980926513671875</ele>
        <time>2018-09-07T06:56:25.000Z</time>
      </trkpt>
      <trkpt lat="43.43448168598115444183349609375" lon="-4.8278023861348628997802734375">
        <ele>5.599999904632568359375</ele>
        <time>2018-09-07T06:56:27.000Z</time>
      </trkpt>
      <trkpt lat="43.43446006067097187042236328125" lon="-4.8280186392366886138916015625">
        <ele>6</ele>
        <time>2018-09-07T06:56:31.000Z</time>
      </trkpt>
      <trkpt lat="43.43443156220018863677978515625" lon="-4.82811477966606616973876953125">
        <ele>6.400000095367431640625</ele>
        <time>2018-09-07T06:56:33.000Z</time>
      </trkpt>
      <trkpt lat="43.4343342483043670654296875" lon="-4.8284216411411762237548828125">
        <ele>6</ele>
        <time>2018-09-07T06:56:39.000Z</time>
      </trkpt>
      <trkpt lat="43.43422570265829563140869140625" lon="-4.82868240214884281158447265625">
        <ele>5</ele>
        <time>2018-09-07T06:56:44.000Z</time>
      </trkpt>
      <trkpt lat="43.4340866468846797943115234375" lon="-4.8289651237428188323974609375">
        <ele>4.599999904632568359375</ele>
        <time>2018-09-07T06:56:49.000Z</time>
      </trkpt>
      <trkpt lat="43.434014059603214263916015625" lon="-4.82914089225232601165771484375">
        <ele>4.400000095367431640625</ele>
        <time>2018-09-07T06:56:52.000Z</time>
      </trkpt>
      <trkpt lat="43.43399017117917537689208984375" lon="-4.8291961289942264556884765625">
        <ele>4.19999980926513671875</ele>
        <time>2018-09-07T06:56:53.000Z</time>
      </trkpt>
      <trkpt lat="43.43394138850271701812744140625" lon="-4.829313643276691436767578125">
        <ele>4</ele>
        <time>2018-09-07T06:56:55.000Z</time>
      </trkpt>
      <trkpt lat="43.43391423113644123077392578125" lon="-4.8293731547892093658447265625">
        <ele>3.7999999523162841796875</ele>
        <time>2018-09-07T06:56:56.000Z</time>
      </trkpt>
      <trkpt lat="43.43388740904629230499267578125" lon="-4.8294393718242645263671875">
        <ele>3.599999904632568359375</ele>
        <time>2018-09-07T06:56:57.000Z</time>
      </trkpt>
      <trkpt lat="43.4338407218456268310546875" lon="-4.82957205735146999359130859375">
        <ele>3.2000000476837158203125</ele>
        <time>2018-09-07T06:56:59.000Z</time>
      </trkpt>
      <trkpt lat="43.43381046317517757415771484375" lon="-4.8297171480953693389892578125">
        <ele>2.7999999523162841796875</ele>
        <time>2018-09-07T06:57:01.000Z</time>
      </trkpt>
      <trkpt lat="43.43378950841724872589111328125" lon="-4.82986517250537872314453125">
        <ele>2.400000095367431640625</ele>
        <time>2018-09-07T06:57:03.000Z</time>
      </trkpt>
      <trkpt lat="43.43377525918185710906982421875" lon="-4.82994035817682743072509765625">
        <ele>2.2000000476837158203125</ele>
        <time>2018-09-07T06:57:04.000Z</time>
      </trkpt>
      <trkpt lat="43.43371071852743625640869140625" lon="-4.83006189577281475067138671875">
        <ele>1.60000002384185791015625</ele>
        <time>2018-09-07T06:57:06.000Z</time>
      </trkpt>
      <trkpt lat="43.43366662971675395965576171875" lon="-4.83012073673307895660400390625">
        <ele>1.39999997615814208984375</ele>
        <time>2018-09-07T06:57:07.000Z</time>
      </trkpt>
      <trkpt lat="43.43362304382026195526123046875" lon="-4.83017890714108943939208984375">
        <ele>1.2000000476837158203125</ele>
        <time>2018-09-07T06:57:08.000Z</time>
      </trkpt>
      <trkpt lat="43.43353134579956531524658203125" lon="-4.83029340393841266632080078125">
        <ele>0.4000000059604644775390625</ele>
        <time>2018-09-07T06:57:10.000Z</time>
      </trkpt>
      <trkpt lat="43.43344132415950298309326171875" lon="-4.83042843639850616455078125">
        <ele>-0.20000000298023223876953125</ele>
        <time>2018-09-07T06:57:13.000Z</time>
      </trkpt>
      <trkpt lat="43.43344249762594699859619140625" lon="-4.83048132620751857757568359375">
        <ele>0</ele>
        <time>2018-09-07T06:57:14.000Z</time>
      </trkpt>
      <trkpt lat="43.433475606143474578857421875" lon="-4.8306029476225376129150390625">
        <ele>-0.20000000298023223876953125</ele>
        <time>2018-09-07T06:57:16.000Z</time>
      </trkpt>
      <trkpt lat="43.4335052780807018280029296875" lon="-4.8307404108345508575439453125">
        <ele>-0.4000000059604644775390625</ele>
        <time>2018-09-07T06:57:18.000Z</time>
      </trkpt>
      <trkpt lat="43.43351894058287143707275390625" lon="-4.83081358484923839569091796875">
        <ele>-0.60000002384185791015625</ele>
        <time>2018-09-07T06:57:19.000Z</time>
      </trkpt>
      <trkpt lat="43.43352631665766239166259765625" lon="-4.8308949731290340423583984375">
        <ele>-0.800000011920928955078125</ele>
        <time>2018-09-07T06:57:20.000Z</time>
      </trkpt>
      <trkpt lat="43.43354106880724430084228515625" lon="-4.83105582185089588165283203125">
        <ele>-1.2000000476837158203125</ele>
        <time>2018-09-07T06:57:22.000Z</time>
      </trkpt>
      <trkpt lat="43.43354157172143459320068359375" lon="-4.83145731501281261444091796875">
        <ele>-1.60000002384185791015625</ele>
        <time>2018-09-07T06:57:27.000Z</time>
      </trkpt>
      <trkpt lat="43.43353302218019962310791015625" lon="-4.83153484761714935302734375">
        <ele>-1.60000002384185791015625</ele>
        <time>2018-09-07T06:57:28.000Z</time>
      </trkpt>
      <trkpt lat="43.433502428233623504638671875" lon="-4.83184455893933773040771484375">
        <ele>-2.2000000476837158203125</ele>
        <time>2018-09-07T06:57:32.000Z</time>
      </trkpt>
      <trkpt lat="43.433465547859668731689453125" lon="-4.83213172294199466705322265625">
        <ele>-2.400000095367431640625</ele>
        <time>2018-09-07T06:57:36.000Z</time>
      </trkpt>
      <trkpt lat="43.4334549866616725921630859375" lon="-4.83226600103080272674560546875">
        <ele>-2.2000000476837158203125</ele>
        <time>2018-09-07T06:57:38.000Z</time>
      </trkpt>
      <trkpt lat="43.43345439992845058441162109375" lon="-4.8323319666087627410888671875">
        <ele>-2.400000095367431640625</ele>
        <time>2018-09-07T06:57:39.000Z</time>
      </trkpt>
      <trkpt lat="43.43348574824631214141845703125" lon="-4.8325200565159320831298828125">
        <ele>-2.2000000476837158203125</ele>
        <time>2018-09-07T06:57:42.000Z</time>
      </trkpt>
      <trkpt lat="43.4335230477154254913330078125" lon="-4.832706637680530548095703125">
        <ele>-2.400000095367431640625</ele>
        <time>2018-09-07T06:57:45.000Z</time>
      </trkpt>
      <trkpt lat="43.43357694335281848907470703125" lon="-4.83303059823811054229736328125">
        <ele>-2.599999904632568359375</ele>
        <time>2018-09-07T06:57:50.000Z</time>
      </trkpt>
      <trkpt lat="43.43358130194246768951416015625" lon="-4.83310016803443431854248046875">
        <ele>-2.599999904632568359375</ele>
        <time>2018-09-07T06:57:51.000Z</time>
      </trkpt>
      <trkpt lat="43.43357325531542301177978515625" lon="-4.83330401591956615447998046875">
        <ele>-2.7999999523162841796875</ele>
        <time>2018-09-07T06:57:54.000Z</time>
      </trkpt>
      <trkpt lat="43.43354023061692714691162109375" lon="-4.83343653380870819091796875">
        <ele>-3</ele>
        <time>2018-09-07T06:57:56.000Z</time>
      </trkpt>
      <trkpt lat="43.43351441435515880584716796875" lon="-4.83357508666813373565673828125">
        <ele>-3</ele>
        <time>2018-09-07T06:57:58.000Z</time>
      </trkpt>
      <trkpt lat="43.43350519426167011260986328125" lon="-4.83370500616729259490966796875">
        <ele>-2.7999999523162841796875</ele>
        <time>2018-09-07T06:58:00.000Z</time>
      </trkpt>
      <trkpt lat="43.4335119836032390594482421875" lon="-4.83376954682171344757080078125">
        <ele>-2.7999999523162841796875</ele>
        <time>2018-09-07T06:58:01.000Z</time>
      </trkpt>
      <trkpt lat="43.43355984427034854888916015625" lon="-4.83408671803772449493408203125">
        <ele>-2.7999999523162841796875</ele>
        <time>2018-09-07T06:58:06.000Z</time>
      </trkpt>
      <trkpt lat="43.43353830277919769287109375" lon="-4.83421177603304386138916015625">
        <ele>-2.7999999523162841796875</ele>
        <time>2018-09-07T06:58:08.000Z</time>
      </trkpt>
      <trkpt lat="43.43348625116050243377685546875" lon="-4.8343201540410518646240234375">
        <ele>-2.599999904632568359375</ele>
        <time>2018-09-07T06:58:10.000Z</time>
      </trkpt>
      <trkpt lat="43.43337728641927242279052734375" lon="-4.834459125995635986328125">
        <ele>-2.7999999523162841796875</ele>
        <time>2018-09-07T06:58:13.000Z</time>
      </trkpt>
      <trkpt lat="43.43334459699690341949462890625" lon="-4.834511093795299530029296875">
        <ele>-2.7999999523162841796875</ele>
        <time>2018-09-07T06:58:14.000Z</time>
      </trkpt>
      <trkpt lat="43.4333165176212787628173828125" lon="-4.8345685936510562896728515625">
        <ele>-2.7999999523162841796875</ele>
        <time>2018-09-07T06:58:15.000Z</time>
      </trkpt>
      <trkpt lat="43.43322171829640865325927734375" lon="-4.83481158502399921417236328125">
        <ele>-3</ele>
        <time>2018-09-07T06:58:19.000Z</time>
      </trkpt>
      <trkpt lat="43.43317762948572635650634765625" lon="-4.8349333740770816802978515625">
        <ele>-2.7999999523162841796875</ele>
        <time>2018-09-07T06:58:21.000Z</time>
      </trkpt>
      <trkpt lat="43.433158099651336669921875" lon="-4.8349923826754093170166015625">
        <ele>-2.599999904632568359375</ele>
        <time>2018-09-07T06:58:22.000Z</time>
      </trkpt>
      <trkpt lat="43.43299909494817256927490234375" lon="-4.83548196963965892791748046875">
        <ele>-2.599999904632568359375</ele>
        <time>2018-09-07T06:58:30.000Z</time>
      </trkpt>
      <trkpt lat="43.43300261534750461578369140625" lon="-4.83569771982729434967041015625">
        <ele>-2.599999904632568359375</ele>
        <time>2018-09-07T06:58:33.000Z</time>
      </trkpt>
      <trkpt lat="43.43300521373748779296875" lon="-4.83576963655650615692138671875">
        <ele>-2.599999904632568359375</ele>
        <time>2018-09-07T06:58:34.000Z</time>
      </trkpt>
      <trkpt lat="43.43303061090409755706787109375" lon="-4.836073815822601318359375">
        <ele>-2.2000000476837158203125</ele>
        <time>2018-09-07T06:58:39.000Z</time>
      </trkpt>
      <trkpt lat="43.4330389089882373809814453125" lon="-4.83613123185932636260986328125">
        <ele>-2</ele>
        <time>2018-09-07T06:58:40.000Z</time>
      </trkpt>
      <trkpt lat="43.43307553790509700775146484375" lon="-4.83640666119754314422607421875">
        <ele>-1.7999999523162841796875</ele>
        <time>2018-09-07T06:58:44.000Z</time>
      </trkpt>
      <trkpt lat="43.43308911658823490142822265625" lon="-4.836480505764484405517578125">
        <ele>-2</ele>
        <time>2018-09-07T06:58:45.000Z</time>
      </trkpt>
      <trkpt lat="43.433132283389568328857421875" lon="-4.8366975970566272735595703125">
        <ele>-2.2000000476837158203125</ele>
        <time>2018-09-07T06:58:48.000Z</time>
      </trkpt>
      <trkpt lat="43.4332109056413173675537109375" lon="-4.8369866050779819488525390625">
        <ele>-2.2000000476837158203125</ele>
        <time>2018-09-07T06:58:52.000Z</time>
      </trkpt>
      <trkpt lat="43.4332581795752048492431640625" lon="-4.8371280916035175323486328125">
        <ele>-2.400000095367431640625</ele>
        <time>2018-09-07T06:58:54.000Z</time>
      </trkpt>
      <trkpt lat="43.43335457146167755126953125" lon="-4.83729757368564605712890625">
        <ele>-2.2000000476837158203125</ele>
        <time>2018-09-07T06:58:57.000Z</time>
      </trkpt>
      <trkpt lat="43.4333932958543300628662109375" lon="-4.837334454059600830078125">
        <ele>-2.2000000476837158203125</ele>
        <time>2018-09-07T06:58:58.000Z</time>
      </trkpt>
      <trkpt lat="43.4334759414196014404296875" lon="-4.8373775370419025421142578125">
        <ele>-2.2000000476837158203125</ele>
        <time>2018-09-07T06:59:00.000Z</time>
      </trkpt>
      <trkpt lat="43.4335599280893802642822265625" lon="-4.8373949714004993438720703125">
        <ele>-2</ele>
        <time>2018-09-07T06:59:02.000Z</time>
      </trkpt>
      <trkpt lat="43.4336745925247669219970703125" lon="-4.837330095469951629638671875">
        <ele>-1.60000002384185791015625</ele>
        <time>2018-09-07T06:59:05.000Z</time>
      </trkpt>
      <trkpt lat="43.43370049260556697845458984375" lon="-4.837288521230220794677734375">
        <ele>-1.60000002384185791015625</ele>
        <time>2018-09-07T06:59:06.000Z</time>
      </trkpt>
      <trkpt lat="43.433747850358486175537109375" lon="-4.8371924646198749542236328125">
        <ele>-1.2000000476837158203125</ele>
        <time>2018-09-07T06:59:08.000Z</time>
      </trkpt>
      <trkpt lat="43.433775343000888824462890625" lon="-4.83714359812438488006591796875">
        <ele>-1.2000000476837158203125</ele>
        <time>2018-09-07T06:59:09.000Z</time>
      </trkpt>
      <trkpt lat="43.43398028053343296051025390625" lon="-4.83675115741789340972900390625">
        <ele>-0.800000011920928955078125</ele>
        <time>2018-09-07T06:59:17.000Z</time>
      </trkpt>
      <trkpt lat="43.4340031631290912628173828125" lon="-4.83670287765562534332275390625">
        <ele>-0.800000011920928955078125</ele>
        <time>2018-09-07T06:59:18.000Z</time>
      </trkpt>
      <trkpt lat="43.4341409616172313690185546875" lon="-4.83651026152074337005615234375">
        <ele>-1.2000000476837158203125</ele>
        <time>2018-09-07T06:59:22.000Z</time>
      </trkpt>
      <trkpt lat="43.43436081893742084503173828125" lon="-4.83641252852976322174072265625">
        <ele>-1.60000002384185791015625</ele>
        <time>2018-09-07T06:59:26.000Z</time>
      </trkpt>
      <trkpt lat="43.4345929138362407684326171875" lon="-4.83648712746798992156982421875">
        <ele>-2</ele>
        <time>2018-09-07T06:59:30.000Z</time>
      </trkpt>
      <trkpt lat="43.434641361236572265625" lon="-4.8365192301571369171142578125">
        <ele>-2</ele>
        <time>2018-09-07T06:59:31.000Z</time>
      </trkpt>
      <trkpt lat="43.43481411226093769073486328125" lon="-4.83664940111339092254638671875">
        <ele>-2.2000000476837158203125</ele>
        <time>2018-09-07T06:59:35.000Z</time>
      </trkpt>
      <trkpt lat="43.434858955442905426025390625" lon="-4.83667488209903240203857421875">
        <ele>-2.2000000476837158203125</ele>
        <time>2018-09-07T06:59:36.000Z</time>
      </trkpt>
      <trkpt lat="43.43497739173471927642822265625" lon="-4.83675442636013031005859375">
        <ele>-2</ele>
        <time>2018-09-07T06:59:39.000Z</time>
      </trkpt>
      <trkpt lat="43.4351192973554134368896484375" lon="-4.83685743995010852813720703125">
        <ele>-2</ele>
        <time>2018-09-07T06:59:43.000Z</time>
      </trkpt>
      <trkpt lat="43.435301519930362701416015625" lon="-4.8369671590626239776611328125">
        <ele>-2</ele>
        <time>2018-09-07T06:59:48.000Z</time>
      </trkpt>
      <trkpt lat="43.4354052878916263580322265625" lon="-4.83706950210034847259521484375">
        <ele>-1.7999999523162841796875</ele>
        <time>2018-09-07T06:59:51.000Z</time>
      </trkpt>
      <trkpt lat="43.43548022210597991943359375" lon="-4.83718751929700374603271484375">
        <ele>-1.7999999523162841796875</ele>
        <time>2018-09-07T06:59:54.000Z</time>
      </trkpt>
      <trkpt lat="43.43552875332534313201904296875" lon="-4.83725197613239288330078125">
        <ele>-2</ele>
        <time>2018-09-07T06:59:56.000Z</time>
      </trkpt>
      <trkpt lat="43.435576446354389190673828125" lon="-4.8373067937791347503662109375">
        <ele>-1.7999999523162841796875</ele>
        <time>2018-09-07T06:59:58.000Z</time>
      </trkpt>
      <trkpt lat="43.43563101254403591156005859375" lon="-4.8374026827514171600341796875">
        <ele>-2</ele>
        <time>2018-09-07T07:00:01.000Z</time>
      </trkpt>
      <trkpt lat="43.435758166015148162841796875" lon="-4.83760929666459560394287109375">
        <ele>-2.2000000476837158203125</ele>
        <time>2018-09-07T07:00:08.000Z</time>
      </trkpt>
      <trkpt lat="43.4358926117420196533203125" lon="-4.83783577568829059600830078125">
        <ele>-2.2000000476837158203125</ele>
        <time>2018-09-07T07:00:14.000Z</time>
      </trkpt>
      <trkpt lat="43.43591365031898021697998046875" lon="-4.83787919394671916961669921875">
        <ele>-2.2000000476837158203125</ele>
        <time>2018-09-07T07:00:15.000Z</time>
      </trkpt>
      <trkpt lat="43.4361157380044460296630859375" lon="-4.83826987445354461669921875">
        <ele>-1.60000002384185791015625</ele>
        <time>2018-09-07T07:00:24.000Z</time>
      </trkpt>
      <trkpt lat="43.4362290613353252410888671875" lon="-4.8384886421263217926025390625">
        <ele>-1.2000000476837158203125</ele>
        <time>2018-09-07T07:00:29.000Z</time>
      </trkpt>
      <trkpt lat="43.43627105467021465301513671875" lon="-4.83856986276805400848388671875">
        <ele>-1.2000000476837158203125</ele>
        <time>2018-09-07T07:00:31.000Z</time>
      </trkpt>
      <trkpt lat="43.43642561696469783782958984375" lon="-4.83887379057705402374267578125">
        <ele>-0.800000011920928955078125</ele>
        <time>2018-09-07T07:00:38.000Z</time>
      </trkpt>
      <trkpt lat="43.43651312403380870819091796875" lon="-4.8390341363847255706787109375">
        <ele>-0.4000000059604644775390625</ele>
        <time>2018-09-07T07:00:42.000Z</time>
      </trkpt>
      <trkpt lat="43.436630554497241973876953125" lon="-4.83927109278738498687744140625">
        <ele>0</ele>
        <time>2018-09-07T07:00:48.000Z</time>
      </trkpt>
      <trkpt lat="43.43674697913229465484619140625" lon="-4.83951852656900882720947265625">
        <ele>0.4000000059604644775390625</ele>
        <time>2018-09-07T07:00:54.000Z</time>
      </trkpt>
      <trkpt lat="43.4367490746080875396728515625" lon="-4.8396131582558155059814453125">
        <ele>0.60000002384185791015625</ele>
        <time>2018-09-07T07:00:56.000Z</time>
      </trkpt>
      <trkpt lat="43.4367306344211101531982421875" lon="-4.8397201113402843475341796875">
        <ele>0.60000002384185791015625</ele>
        <time>2018-09-07T07:00:58.000Z</time>
      </trkpt>
      <trkpt lat="43.43665360473096370697021484375" lon="-4.8400114662945270538330078125">
        <ele>1.2000000476837158203125</ele>
        <time>2018-09-07T07:01:04.000Z</time>
      </trkpt>
      <trkpt lat="43.43664404936134815216064453125" lon="-4.840058572590351104736328125">
        <ele>1.2000000476837158203125</ele>
        <time>2018-09-07T07:01:05.000Z</time>
      </trkpt>
      <trkpt lat="43.436580933630466461181640625" lon="-4.840320087969303131103515625">
        <ele>1.60000002384185791015625</ele>
        <time>2018-09-07T07:01:10.000Z</time>
      </trkpt>
      <trkpt lat="43.43655436299741268157958984375" lon="-4.840426035225391387939453125">
        <ele>1.7999999523162841796875</ele>
        <time>2018-09-07T07:01:12.000Z</time>
      </trkpt>
      <trkpt lat="43.43645545653998851776123046875" lon="-4.8408469744026660919189453125">
        <ele>2.2000000476837158203125</ele>
        <time>2018-09-07T07:01:20.000Z</time>
      </trkpt>
      <trkpt lat="43.436407931149005889892578125" lon="-4.84104269184172153472900390625">
        <ele>2.7999999523162841796875</ele>
        <time>2018-09-07T07:01:24.000Z</time>
      </trkpt>
      <trkpt lat="43.4363712184131145477294921875" lon="-4.8411919735372066497802734375">
        <ele>3</ele>
        <time>2018-09-07T07:01:27.000Z</time>
      </trkpt>
      <trkpt lat="43.4363048337399959564208984375" lon="-4.84148408286273479461669921875">
        <ele>4</ele>
        <time>2018-09-07T07:01:33.000Z</time>
      </trkpt>
      <trkpt lat="43.43626284040510654449462890625" lon="-4.8416730947792530059814453125">
        <ele>4.599999904632568359375</ele>
        <time>2018-09-07T07:01:37.000Z</time>
      </trkpt>
      <trkpt lat="43.43621690757572650909423828125" lon="-4.84186311252415180206298828125">
        <ele>5</ele>
        <time>2018-09-07T07:01:41.000Z</time>
      </trkpt>
      <trkpt lat="43.43615354038774967193603515625" lon="-4.84213518910109996795654296875">
        <ele>5.80000019073486328125</ele>
        <time>2018-09-07T07:01:47.000Z</time>
      </trkpt>
      <trkpt lat="43.4361090324819087982177734375" lon="-4.842314980924129486083984375">
        <ele>6.19999980926513671875</ele>
        <time>2018-09-07T07:01:51.000Z</time>
      </trkpt>
      <trkpt lat="43.43607374466955661773681640625" lon="-4.8424817807972431182861328125">
        <ele>6.599999904632568359375</ele>
        <time>2018-09-07T07:01:55.000Z</time>
      </trkpt>
      <trkpt lat="43.436044491827487945556640625" lon="-4.84260088764131069183349609375">
        <ele>7.19999980926513671875</ele>
        <time>2018-09-07T07:01:58.000Z</time>
      </trkpt>
      <trkpt lat="43.43599461950361728668212890625" lon="-4.84281194396317005157470703125">
        <ele>8</ele>
        <time>2018-09-07T07:02:03.000Z</time>
      </trkpt>
      <trkpt lat="43.435970731079578399658203125" lon="-4.84289668500423431396484375">
        <ele>8.19999980926513671875</ele>
        <time>2018-09-07T07:02:05.000Z</time>
      </trkpt>
      <trkpt lat="43.43592337332665920257568359375" lon="-4.84311670996248722076416015625">
        <ele>9.19999980926513671875</ele>
        <time>2018-09-07T07:02:10.000Z</time>
      </trkpt>
      <trkpt lat="43.43591515906155109405517578125" lon="-4.8431590385735034942626953125">
        <ele>9.3999996185302734375</ele>
        <time>2018-09-07T07:02:11.000Z</time>
      </trkpt>
      <trkpt lat="43.4358411468565464019775390625" lon="-4.8434524051845073699951171875">
        <ele>10.6000003814697265625</ele>
        <time>2018-09-07T07:02:18.000Z</time>
      </trkpt>
      <trkpt lat="43.43582983128726482391357421875" lon="-4.8434968292713165283203125">
        <ele>10.80000019073486328125</ele>
        <time>2018-09-07T07:02:19.000Z</time>
      </trkpt>
      <trkpt lat="43.43579529784619808197021484375" lon="-4.84367041848599910736083984375">
        <ele>11.6000003814697265625</ele>
        <time>2018-09-07T07:02:23.000Z</time>
      </trkpt>
      <trkpt lat="43.435747437179088592529296875" lon="-4.843874014914035797119140625">
        <ele>12.3999996185302734375</ele>
        <time>2018-09-07T07:02:28.000Z</time>
      </trkpt>
      <trkpt lat="43.4357301704585552215576171875" lon="-4.84395305626094341278076171875">
        <ele>12.80000019073486328125</ele>
        <time>2018-09-07T07:02:30.000Z</time>
      </trkpt>
      <trkpt lat="43.4356668032705783843994140625" lon="-4.84423468820750713348388671875">
        <ele>13.80000019073486328125</ele>
        <time>2018-09-07T07:02:37.000Z</time>
      </trkpt>
      <trkpt lat="43.4355977363884449005126953125" lon="-4.8445454053580760955810546875">
        <ele>15</ele>
        <time>2018-09-07T07:02:45.000Z</time>
      </trkpt>
      <trkpt lat="43.4355799667537212371826171875" lon="-4.84462025575339794158935546875">
        <ele>15.3999996185302734375</ele>
        <time>2018-09-07T07:02:47.000Z</time>
      </trkpt>
      <trkpt lat="43.4355420805513858795166015625" lon="-4.8447754047811031341552734375">
        <ele>16</ele>
        <time>2018-09-07T07:02:51.000Z</time>
      </trkpt>
      <trkpt lat="43.4354934655129909515380859375" lon="-4.8450080864131450653076171875">
        <ele>17</ele>
        <time>2018-09-07T07:02:57.000Z</time>
      </trkpt>
      <trkpt lat="43.43548357486724853515625" lon="-4.845046810805797576904296875">
        <ele>17.200000762939453125</ele>
        <time>2018-09-07T07:02:58.000Z</time>
      </trkpt>
      <trkpt lat="43.43543789349496364593505859375" lon="-4.8453279398381710052490234375">
        <ele>17.799999237060546875</ele>
        <time>2018-09-07T07:03:05.000Z</time>
      </trkpt>
      <trkpt lat="43.43547611497342586517333984375" lon="-4.84552793204784393310546875">
        <ele>18.200000762939453125</ele>
        <time>2018-09-07T07:03:10.000Z</time>
      </trkpt>
      <trkpt lat="43.4354934655129909515380859375" lon="-4.84555701725184917449951171875">
        <ele>18.6000003814697265625</ele>
        <time>2018-09-07T07:03:11.000Z</time>
      </trkpt>
      <trkpt lat="43.435577787458896636962890625" lon="-4.845665059983730316162109375">
        <ele>19.3999996185302734375</ele>
        <time>2018-09-07T07:03:15.000Z</time>
      </trkpt>
      <trkpt lat="43.43565054237842559814453125" lon="-4.845743514597415924072265625">
        <ele>19.6000003814697265625</ele>
        <time>2018-09-07T07:03:18.000Z</time>
      </trkpt>
      <trkpt lat="43.43575741164386272430419921875" lon="-4.84583479352295398712158203125">
        <ele>19.799999237060546875</ele>
        <time>2018-09-07T07:03:22.000Z</time>
      </trkpt>
      <trkpt lat="43.43586905859410762786865234375" lon="-4.84588307328522205352783203125">
        <ele>20</ele>
        <time>2018-09-07T07:03:26.000Z</time>
      </trkpt>
      <trkpt lat="43.43591348268091678619384765625" lon="-4.84589279629290103912353515625">
        <ele>20.200000762939453125</ele>
        <time>2018-09-07T07:03:28.000Z</time>
      </trkpt>
      <trkpt lat="43.43595027923583984375" lon="-4.84593923203647136688232421875">
        <ele>20.3999996185302734375</ele>
        <time>2018-09-07T07:03:30.000Z</time>
      </trkpt>
      <trkpt lat="43.43594969250261783599853515625" lon="-4.84597326256334781646728515625">
        <ele>20.3999996185302734375</ele>
        <time>2018-09-07T07:03:31.000Z</time>
      </trkpt>
      <trkpt lat="43.435893617570400238037109375" lon="-4.846164286136627197265625">
        <ele>21.200000762939453125</ele>
        <time>2018-09-07T07:03:36.000Z</time>
      </trkpt>
      <trkpt lat="43.4358899295330047607421875" lon="-4.84619672410190105438232421875">
        <ele>21.6000003814697265625</ele>
        <time>2018-09-07T07:03:37.000Z</time>
      </trkpt>
      <trkpt lat="43.4358703158795833587646484375" lon="-4.8463277332484722137451171875">
        <ele>22.6000003814697265625</ele>
        <time>2018-09-07T07:03:41.000Z</time>
      </trkpt>
      <trkpt lat="43.43586771748960018157958984375" lon="-4.8463669605553150177001953125">
        <ele>22.799999237060546875</ele>
        <time>2018-09-07T07:03:42.000Z</time>
      </trkpt>
      <trkpt lat="43.4358253888785839080810546875" lon="-4.84657977707684040069580078125">
        <ele>23.3999996185302734375</ele>
        <time>2018-09-07T07:03:48.000Z</time>
      </trkpt>
      <trkpt lat="43.43583050183951854705810546875" lon="-4.846677593886852264404296875">
        <ele>23.6000003814697265625</ele>
        <time>2018-09-07T07:03:51.000Z</time>
      </trkpt>
      <trkpt lat="43.43584240414202213287353515625" lon="-4.84678144566714763641357421875">
        <ele>23.6000003814697265625</ele>
        <time>2018-09-07T07:03:54.000Z</time>
      </trkpt>
      <trkpt lat="43.4358475171029567718505859375" lon="-4.84681539237499237060546875">
        <ele>23.799999237060546875</ele>
        <time>2018-09-07T07:03:55.000Z</time>
      </trkpt>
      <trkpt lat="43.43586855567991733551025390625" lon="-4.847037680447101593017578125">
        <ele>23.799999237060546875</ele>
        <time>2018-09-07T07:04:00.000Z</time>
      </trkpt>
      <trkpt lat="43.43585581518709659576416015625" lon="-4.84739433042705059051513671875">
        <ele>23.799999237060546875</ele>
        <time>2018-09-07T07:04:07.000Z</time>
      </trkpt>
      <trkpt lat="43.43583134002983570098876953125" lon="-4.847556017339229583740234375">
        <ele>23.799999237060546875</ele>
        <time>2018-09-07T07:04:10.000Z</time>
      </trkpt>
      <trkpt lat="43.43579060398042201995849609375" lon="-4.8477043770253658294677734375">
        <ele>23.6000003814697265625</ele>
        <time>2018-09-07T07:04:13.000Z</time>
      </trkpt>
      <trkpt lat="43.43577551655471324920654296875" lon="-4.8477513156831264495849609375">
        <ele>23.6000003814697265625</ele>
        <time>2018-09-07T07:04:14.000Z</time>
      </trkpt>
      <trkpt lat="43.43566152267158031463623046875" lon="-4.8479333706200122833251953125">
        <ele>24</ele>
        <time>2018-09-07T07:04:19.000Z</time>
      </trkpt>
      <trkpt lat="43.4356351196765899658203125" lon="-4.84796413220465183258056640625">
        <ele>24</ele>
        <time>2018-09-07T07:04:20.000Z</time>
      </trkpt>
      <trkpt lat="43.43545482493937015533447265625" lon="-4.8482156731188297271728515625">
        <ele>24.3999996185302734375</ele>
        <time>2018-09-07T07:04:27.000Z</time>
      </trkpt>
      <trkpt lat="43.43542255461215972900390625" lon="-4.84829622320830821990966796875">
        <ele>24.799999237060546875</ele>
        <time>2018-09-07T07:04:29.000Z</time>
      </trkpt>
      <trkpt lat="43.43539045192301273345947265625" lon="-4.84842874109745025634765625">
        <ele>25.200000762939453125</ele>
        <time>2018-09-07T07:04:32.000Z</time>
      </trkpt>
      <trkpt lat="43.43537452630698680877685546875" lon="-4.84852639026939868927001953125">
        <ele>25.6000003814697265625</ele>
        <time>2018-09-07T07:04:34.000Z</time>
      </trkpt>
      <trkpt lat="43.435370922088623046875" lon="-4.8485750891268253326416015625">
        <ele>25.799999237060546875</ele>
        <time>2018-09-07T07:04:35.000Z</time>
      </trkpt>
      <trkpt lat="43.4353704191744327545166015625" lon="-4.84872085042297840118408203125">
        <ele>26.6000003814697265625</ele>
        <time>2018-09-07T07:04:38.000Z</time>
      </trkpt>
      <trkpt lat="43.43537938781082630157470703125" lon="-4.84891631640493869781494140625">
        <ele>27</ele>
        <time>2018-09-07T07:04:42.000Z</time>
      </trkpt>
      <trkpt lat="43.4353838302195072174072265625" lon="-4.8490704596042633056640625">
        <ele>27.200000762939453125</ele>
        <time>2018-09-07T07:04:45.000Z</time>
      </trkpt>
      <trkpt lat="43.4354071319103240966796875" lon="-4.849404059350490570068359375">
        <ele>26.6000003814697265625</ele>
        <time>2018-09-07T07:04:51.000Z</time>
      </trkpt>
      <trkpt lat="43.435437642037868499755859375" lon="-4.849774204194545745849609375">
        <ele>26</ele>
        <time>2018-09-07T07:04:57.000Z</time>
      </trkpt>
      <trkpt lat="43.435440324246883392333984375" lon="-4.850089363753795623779296875">
        <ele>25.799999237060546875</ele>
        <time>2018-09-07T07:05:02.000Z</time>
      </trkpt>
      <trkpt lat="43.43543102033436298370361328125" lon="-4.85020712949335575103759765625">
        <ele>25.799999237060546875</ele>
        <time>2018-09-07T07:05:04.000Z</time>
      </trkpt>
      <trkpt lat="43.43539162538945674896240234375" lon="-4.85042690299451351165771484375">
        <ele>25.799999237060546875</ele>
        <time>2018-09-07T07:05:09.000Z</time>
      </trkpt>
      <trkpt lat="43.43538123182952404022216796875" lon="-4.85051809810101985931396484375">
        <ele>26</ele>
        <time>2018-09-07T07:05:12.000Z</time>
      </trkpt>
      <trkpt lat="43.435354493558406829833984375" lon="-4.8506236262619495391845703125">
        <ele>25.799999237060546875</ele>
        <time>2018-09-07T07:05:15.000Z</time>
      </trkpt>
      <trkpt lat="43.4353157691657543182373046875" lon="-4.85076687298715114593505859375">
        <ele>26</ele>
        <time>2018-09-07T07:05:18.000Z</time>
      </trkpt>
      <trkpt lat="43.435279391705989837646484375" lon="-4.8509257100522518157958984375">
        <ele>25.799999237060546875</ele>
        <time>2018-09-07T07:05:21.000Z</time>
      </trkpt>
      <trkpt lat="43.435233794152736663818359375" lon="-4.85107398591935634613037109375">
        <ele>26</ele>
        <time>2018-09-07T07:05:24.000Z</time>
      </trkpt>
      <trkpt lat="43.43519456684589385986328125" lon="-4.8511491715908050537109375">
        <ele>25.799999237060546875</ele>
        <time>2018-09-07T07:05:26.000Z</time>
      </trkpt>
      <trkpt lat="43.4351762942969799041748046875" lon="-4.851181022822856903076171875">
        <ele>25.799999237060546875</ele>
        <time>2018-09-07T07:05:27.000Z</time>
      </trkpt>
      <trkpt lat="43.435037992894649505615234375" lon="-4.85135377384722232818603515625">
        <ele>26.3999996185302734375</ele>
        <time>2018-09-07T07:05:33.000Z</time>
      </trkpt>
      <trkpt lat="43.4348949976265430450439453125" lon="-4.8515442945063114166259765625">
        <ele>26.799999237060546875</ele>
        <time>2018-09-07T07:05:39.000Z</time>
      </trkpt>
      <trkpt lat="43.434883765876293182373046875" lon="-4.85157229006290435791015625">
        <ele>27.200000762939453125</ele>
        <time>2018-09-07T07:05:40.000Z</time>
      </trkpt>
      <trkpt lat="43.4348799102008342742919921875" lon="-4.8516991920769214630126953125">
        <ele>28</ele>
        <time>2018-09-07T07:05:43.000Z</time>
      </trkpt>
      <trkpt lat="43.43487915582954883575439453125" lon="-4.8518438637256622314453125">
        <ele>28.200000762939453125</ele>
        <time>2018-09-07T07:05:46.000Z</time>
      </trkpt>
      <trkpt lat="43.43486892990767955780029296875" lon="-4.85198937356472015380859375">
        <ele>28.3999996185302734375</ele>
        <time>2018-09-07T07:05:49.000Z</time>
      </trkpt>
      <trkpt lat="43.434870354831218719482421875" lon="-4.852316267788410186767578125">
        <ele>29</ele>
        <time>2018-09-07T07:05:56.000Z</time>
      </trkpt>
      <trkpt lat="43.43485786579549312591552734375" lon="-4.85259764827787876129150390625">
        <ele>29.200000762939453125</ele>
        <time>2018-09-07T07:06:01.000Z</time>
      </trkpt>
      <trkpt lat="43.43485535122454166412353515625" lon="-4.8526543937623500823974609375">
        <ele>29.3999996185302734375</ele>
        <time>2018-09-07T07:06:02.000Z</time>
      </trkpt>
      <trkpt lat="43.43478896655142307281494140625" lon="-4.85309637151658535003662109375">
        <ele>29.799999237060546875</ele>
        <time>2018-09-07T07:06:10.000Z</time>
      </trkpt>
      <trkpt lat="43.4346807561814785003662109375" lon="-4.85327976755797863006591796875">
        <ele>29.799999237060546875</ele>
        <time>2018-09-07T07:06:14.000Z</time>
      </trkpt>
      <trkpt lat="43.43464613892138004302978515625" lon="-4.85331564210355281829833984375">
        <ele>29.799999237060546875</ele>
        <time>2018-09-07T07:06:15.000Z</time>
      </trkpt>
      <trkpt lat="43.43461160548031330108642578125" lon="-4.85335017554461956024169921875">
        <ele>30</ele>
        <time>2018-09-07T07:06:16.000Z</time>
      </trkpt>
      <trkpt lat="43.43436777591705322265625" lon="-4.8535341583192348480224609375">
        <ele>30.200000762939453125</ele>
        <time>2018-09-07T07:06:23.000Z</time>
      </trkpt>
      <trkpt lat="43.43436366878449916839599609375" lon="-4.85354145057499408721923828125">
        <ele>30.3999996185302734375</ele>
        <time>2018-09-07T07:06:24.000Z</time>
      </trkpt>
      <trkpt lat="43.43432578258216381072998046875" lon="-4.85357346944510936737060546875">
        <ele>30.200000762939453125</ele>
        <time>2018-09-07T07:06:26.000Z</time>
      </trkpt>
      <trkpt lat="43.43423441983759403228759765625" lon="-4.85371495597064495086669921875">
        <ele>30.200000762939453125</ele>
        <time>2018-09-07T07:06:30.000Z</time>
      </trkpt>
      <trkpt lat="43.43423743732273578643798828125" lon="-4.85376910306513309478759765625">
        <ele>30.3999996185302734375</ele>
        <time>2018-09-07T07:06:32.000Z</time>
      </trkpt>
      <trkpt lat="43.434250764548778533935546875" lon="-4.85379005782306194305419921875">
        <ele>30.3999996185302734375</ele>
        <time>2018-09-07T07:06:33.000Z</time>
      </trkpt>
      <trkpt lat="43.434329889714717864990234375" lon="-4.8537842743098735809326171875">
        <ele>31.200000762939453125</ele>
        <time>2018-09-07T07:06:37.000Z</time>
      </trkpt>
      <trkpt lat="43.43435009010136127471923828125" lon="-4.8537782393395900726318359375">
        <ele>31.3999996185302734375</ele>
        <time>2018-09-07T07:06:38.000Z</time>
      </trkpt>
      <trkpt lat="43.434405662119388580322265625" lon="-4.85381084494292736053466796875">
        <ele>32.200000762939453125</ele>
        <time>2018-09-07T07:06:42.000Z</time>
      </trkpt>
      <trkpt lat="43.434409014880657196044921875" lon="-4.85384185798466205596923828125">
        <ele>32.40000152587890625</ele>
        <time>2018-09-07T07:06:43.000Z</time>
      </trkpt>
      <trkpt lat="43.43441932462155818939208984375" lon="-4.85392014496028423309326171875">
        <ele>32.59999847412109375</ele>
        <time>2018-09-07T07:06:45.000Z</time>
      </trkpt>
      <trkpt lat="43.43444061465561389923095703125" lon="-4.8540486395359039306640625">
        <ele>33</ele>
        <time>2018-09-07T07:06:49.000Z</time>
      </trkpt>
      <trkpt lat="43.43444966711103916168212890625" lon="-4.8541076481342315673828125">
        <ele>33.59999847412109375</ele>
        <time>2018-09-07T07:06:51.000Z</time>
      </trkpt>
      <trkpt lat="43.4344576299190521240234375" lon="-4.8542077280580997467041015625">
        <ele>34.200000762939453125</ele>
        <time>2018-09-07T07:06:55.000Z</time>
      </trkpt>
      <trkpt lat="43.4344618208706378936767578125" lon="-4.85422491095960140228271484375">
        <ele>34.59999847412109375</ele>
        <time>2018-09-07T07:06:56.000Z</time>
      </trkpt>
      <trkpt lat="43.4344805963337421417236328125" lon="-4.854309149086475372314453125">
        <ele>35.200000762939453125</ele>
        <time>2018-09-07T07:07:00.000Z</time>
      </trkpt>
      <trkpt lat="43.4345030598342418670654296875" lon="-4.85441006720066070556640625">
        <ele>35.40000152587890625</ele>
        <time>2018-09-07T07:07:03.000Z</time>
      </trkpt>
      <trkpt lat="43.43451219610869884490966796875" lon="-4.8544464446604251861572265625">
        <ele>35.799999237060546875</ele>
        <time>2018-09-07T07:07:04.000Z</time>
      </trkpt>
      <trkpt lat="43.434548489749431610107421875" lon="-4.854561947286128997802734375">
        <ele>36.799999237060546875</ele>
        <time>2018-09-07T07:07:08.000Z</time>
      </trkpt>
      <trkpt lat="43.4345647506415843963623046875" lon="-4.8546197824180126190185546875">
        <ele>37.40000152587890625</ele>
        <time>2018-09-07T07:07:10.000Z</time>
      </trkpt>
      <trkpt lat="43.43459241092205047607421875" lon="-4.85471877269446849822998046875">
        <ele>38</ele>
        <time>2018-09-07T07:07:13.000Z</time>
      </trkpt>
      <trkpt lat="43.43464161269366741180419921875" lon="-4.8548266477882862091064453125">
        <ele>38.59999847412109375</ele>
        <time>2018-09-07T07:07:17.000Z</time>
      </trkpt>
      <trkpt lat="43.43467078171670436859130859375" lon="-4.85487249679863452911376953125">
        <ele>39</ele>
        <time>2018-09-07T07:07:19.000Z</time>
      </trkpt>
      <trkpt lat="43.43473565764725208282470703125" lon="-4.855017252266407012939453125">
        <ele>39</ele>
        <time>2018-09-07T07:07:24.000Z</time>
      </trkpt>
      <trkpt lat="43.4347987733781337738037109375" lon="-4.85526577569544315338134765625">
        <ele>38.799999237060546875</ele>
        <time>2018-09-07T07:07:29.000Z</time>
      </trkpt>
      <trkpt lat="43.4348626434803009033203125" lon="-4.8555211722850799560546875">
        <ele>38.59999847412109375</ele>
        <time>2018-09-07T07:07:34.000Z</time>
      </trkpt>
      <trkpt lat="43.4348903037607669830322265625" lon="-4.855552017688751220703125">
        <ele>38.799999237060546875</ele>
        <time>2018-09-07T07:07:35.000Z</time>
      </trkpt>
      <trkpt lat="43.43502298928797245025634765625" lon="-4.85563407652080059051513671875">
        <ele>39</ele>
        <time>2018-09-07T07:07:40.000Z</time>
      </trkpt>
      <trkpt lat="43.4350649826228618621826171875" lon="-4.855725355446338653564453125">
        <ele>39.40000152587890625</ele>
        <time>2018-09-07T07:07:43.000Z</time>
      </trkpt>
      <trkpt lat="43.43507009558379650115966796875" lon="-4.85579500906169414520263671875">
        <ele>39.799999237060546875</ele>
        <time>2018-09-07T07:07:45.000Z</time>
      </trkpt>
      <trkpt lat="43.4350726939737796783447265625" lon="-4.85583029687404632568359375">
        <ele>40</ele>
        <time>2018-09-07T07:07:46.000Z</time>
      </trkpt>
      <trkpt lat="43.4350857697427272796630859375" lon="-4.85596599988639354705810546875">
        <ele>40.59999847412109375</ele>
        <time>2018-09-07T07:07:50.000Z</time>
      </trkpt>
      <trkpt lat="43.43509742058813571929931640625" lon="-4.85608502291142940521240234375">
        <ele>41.200000762939453125</ele>
        <time>2018-09-07T07:07:55.000Z</time>
      </trkpt>
      <trkpt lat="43.435107730329036712646484375" lon="-4.85610924661159515380859375">
        <ele>41.200000762939453125</ele>
        <time>2018-09-07T07:07:56.000Z</time>
      </trkpt>
      <trkpt lat="43.4351203031837940216064453125" lon="-4.85620287247002124786376953125">
        <ele>42.200000762939453125</ele>
        <time>2018-09-07T07:08:00.000Z</time>
      </trkpt>
      <trkpt lat="43.4351256676018238067626953125" lon="-4.85626280307769775390625">
        <ele>42.40000152587890625</ele>
        <time>2018-09-07T07:08:03.000Z</time>
      </trkpt>
      <trkpt lat="43.4351538307964801788330078125" lon="-4.85644930042326450347900390625">
        <ele>43</ele>
        <time>2018-09-07T07:08:10.000Z</time>
      </trkpt>
      <trkpt lat="43.43515559099614620208740234375" lon="-4.85647696070373058319091796875">
        <ele>43.200000762939453125</ele>
        <time>2018-09-07T07:08:11.000Z</time>
      </trkpt>
      <trkpt lat="43.43517436645925045013427734375" lon="-4.856589026749134063720703125">
        <ele>43.799999237060546875</ele>
        <time>2018-09-07T07:08:16.000Z</time>
      </trkpt>
      <trkpt lat="43.4352319501340389251708984375" lon="-4.85676177777349948883056640625">
        <ele>44.200000762939453125</ele>
        <time>2018-09-07T07:08:22.000Z</time>
      </trkpt>
      <trkpt lat="43.435239158570766448974609375" lon="-4.85679346136748790740966796875">
        <ele>44.40000152587890625</ele>
        <time>2018-09-07T07:08:23.000Z</time>
      </trkpt>
      <trkpt lat="43.435253240168094635009765625" lon="-4.8569657094776630401611328125">
        <ele>44.200000762939453125</ele>
        <time>2018-09-07T07:08:28.000Z</time>
      </trkpt>
      <trkpt lat="43.43528081662952899932861328125" lon="-4.8571269772946834564208984375">
        <ele>44.59999847412109375</ele>
        <time>2018-09-07T07:08:34.000Z</time>
      </trkpt>
      <trkpt lat="43.43528601340949535369873046875" lon="-4.85715237446129322052001953125">
        <ele>44.59999847412109375</ele>
        <time>2018-09-07T07:08:35.000Z</time>
      </trkpt>
      <trkpt lat="43.43529573641717433929443359375" lon="-4.857246838510036468505859375">
        <ele>45</ele>
        <time>2018-09-07T07:08:38.000Z</time>
      </trkpt>
      <trkpt lat="43.435308225452899932861328125" lon="-4.8573221080005168914794921875">
        <ele>45.200000762939453125</ele>
        <time>2018-09-07T07:08:41.000Z</time>
      </trkpt>
      <trkpt lat="43.43531602062284946441650390625" lon="-4.85736963339149951934814453125">
        <ele>45.59999847412109375</ele>
        <time>2018-09-07T07:08:43.000Z</time>
      </trkpt>
      <trkpt lat="43.435336388647556304931640625" lon="-4.85750106163322925567626953125">
        <ele>46</ele>
        <time>2018-09-07T07:08:48.000Z</time>
      </trkpt>
      <trkpt lat="43.4353633783757686614990234375" lon="-4.8576238565146923065185546875">
        <ele>46.59999847412109375</ele>
        <time>2018-09-07T07:08:52.000Z</time>
      </trkpt>
      <trkpt lat="43.43536530621349811553955078125" lon="-4.8577452264726161956787109375">
        <ele>47</ele>
        <time>2018-09-07T07:08:56.000Z</time>
      </trkpt>
      <trkpt lat="43.43539011664688587188720703125" lon="-4.8578655906021595001220703125">
        <ele>47.200000762939453125</ele>
        <time>2018-09-07T07:09:02.000Z</time>
      </trkpt>
      <trkpt lat="43.43542255461215972900390625" lon="-4.8580084182322025299072265625">
        <ele>47.799999237060546875</ele>
        <time>2018-09-07T07:09:09.000Z</time>
      </trkpt>
      <trkpt lat="43.435459770262241363525390625" lon="-4.85817161388695240020751953125">
        <ele>48.799999237060546875</ele>
        <time>2018-09-07T07:09:16.000Z</time>
      </trkpt>
      <trkpt lat="43.43546857126057147979736328125" lon="-4.8581991903483867645263671875">
        <ele>48.799999237060546875</ele>
        <time>2018-09-07T07:09:17.000Z</time>
      </trkpt>
      <trkpt lat="43.43552154488861560821533203125" lon="-4.8583343066275119781494140625">
        <ele>49.799999237060546875</ele>
        <time>2018-09-07T07:09:23.000Z</time>
      </trkpt>
      <trkpt lat="43.435534201562404632568359375" lon="-4.858366660773754119873046875">
        <ele>50</ele>
        <time>2018-09-07T07:09:24.000Z</time>
      </trkpt>
      <trkpt lat="43.4355621971189975738525390625" lon="-4.85844369046390056610107421875">
        <ele>50.200000762939453125</ele>
        <time>2018-09-07T07:09:27.000Z</time>
      </trkpt>
      <trkpt lat="43.4355746023356914520263671875" lon="-4.85851074568927288055419921875">
        <ele>50.40000152587890625</ele>
        <time>2018-09-07T07:09:29.000Z</time>
      </trkpt>
      <trkpt lat="43.43557267449796199798583984375" lon="-4.8585985042154788970947265625">
        <ele>50.200000762939453125</ele>
        <time>2018-09-07T07:09:31.000Z</time>
      </trkpt>
      <trkpt lat="43.43559597618877887725830078125" lon="-4.85866128467023372650146484375">
        <ele>49.799999237060546875</ele>
        <time>2018-09-07T07:09:33.000Z</time>
      </trkpt>
      <trkpt lat="43.43563050962984561920166015625" lon="-4.858770333230495452880859375">
        <ele>50.200000762939453125</ele>
        <time>2018-09-07T07:09:36.000Z</time>
      </trkpt>
      <trkpt lat="43.43568147160112857818603515625" lon="-4.8590259812772274017333984375">
        <ele>50.799999237060546875</ele>
        <time>2018-09-07T07:09:44.000Z</time>
      </trkpt>
      <trkpt lat="43.43568415381014347076416015625" lon="-4.85905908979475498199462890625">
        <ele>51</ele>
        <time>2018-09-07T07:09:45.000Z</time>
      </trkpt>
      <trkpt lat="43.43568331561982631683349609375" lon="-4.859249107539653778076171875">
        <ele>51.59999847412109375</ele>
        <time>2018-09-07T07:09:51.000Z</time>
      </trkpt>
      <trkpt lat="43.435676358640193939208984375" lon="-4.85934440977871417999267578125">
        <ele>52</ele>
        <time>2018-09-07T07:09:54.000Z</time>
      </trkpt>
      <trkpt lat="43.4356456808745861053466796875" lon="-4.85950014553964138031005859375">
        <ele>52.59999847412109375</ele>
        <time>2018-09-07T07:09:59.000Z</time>
      </trkpt>
      <trkpt lat="43.43563453294336795806884765625" lon="-4.85959268175065517425537109375">
        <ele>53.200000762939453125</ele>
        <time>2018-09-07T07:10:02.000Z</time>
      </trkpt>
      <trkpt lat="43.4356295876204967498779296875" lon="-4.85972997732460498809814453125">
        <ele>54</ele>
        <time>2018-09-07T07:10:07.000Z</time>
      </trkpt>
      <trkpt lat="43.43561575748026371002197265625" lon="-4.85978445969521999359130859375">
        <ele>54.200000762939453125</ele>
        <time>2018-09-07T07:10:09.000Z</time>
      </trkpt>
      <trkpt lat="43.43560586683452129364013671875" lon="-4.85992192290723323822021484375">
        <ele>55</ele>
        <time>2018-09-07T07:10:14.000Z</time>
      </trkpt>
      <trkpt lat="43.4356061182916164398193359375" lon="-4.85997539944946765899658203125">
        <ele>55.200000762939453125</ele>
        <time>2018-09-07T07:10:16.000Z</time>
      </trkpt>
      <trkpt lat="43.43557217158377170562744140625" lon="-4.860087297856807708740234375">
        <ele>55.799999237060546875</ele>
        <time>2018-09-07T07:10:20.000Z</time>
      </trkpt>
      <trkpt lat="43.43555775471031665802001953125" lon="-4.8601293750107288360595703125">
        <ele>56.200000762939453125</ele>
        <time>2018-09-07T07:10:22.000Z</time>
      </trkpt>
      <trkpt lat="43.43555306084454059600830078125" lon="-4.8602333106100559234619140625">
        <ele>56.59999847412109375</ele>
        <time>2018-09-07T07:10:26.000Z</time>
      </trkpt>
      <trkpt lat="43.43553579412400722503662109375" lon="-4.86043489538133144378662109375">
        <ele>57.200000762939453125</ele>
        <time>2018-09-07T07:10:33.000Z</time>
      </trkpt>
      <trkpt lat="43.43550343997776508331298828125" lon="-4.86062063835561275482177734375">
        <ele>58</ele>
        <time>2018-09-07T07:10:39.000Z</time>
      </trkpt>
      <trkpt lat="43.4354978241026401519775390625" lon="-4.86070211045444011688232421875">
        <ele>58.40000152587890625</ele>
        <time>2018-09-07T07:10:41.000Z</time>
      </trkpt>
      <trkpt lat="43.4354941360652446746826171875" lon="-4.86082297749817371368408203125">
        <ele>59.40000152587890625</ele>
        <time>2018-09-07T07:10:45.000Z</time>
      </trkpt>
      <trkpt lat="43.43546622432768344879150390625" lon="-4.8609900288283824920654296875">
        <ele>60.59999847412109375</ele>
        <time>2018-09-07T07:10:51.000Z</time>
      </trkpt>
      <trkpt lat="43.4354629553854465484619140625" lon="-4.86103110015392303466796875">
        <ele>60.799999237060546875</ele>
        <time>2018-09-07T07:10:53.000Z</time>
      </trkpt>
      <trkpt lat="43.43547544442117214202880859375" lon="-4.861073680222034454345703125">
        <ele>61.200000762939453125</ele>
        <time>2018-09-07T07:10:55.000Z</time>
      </trkpt>
      <trkpt lat="43.4354854188859462738037109375" lon="-4.861125983297824859619140625">
        <ele>61.40000152587890625</ele>
        <time>2018-09-07T07:10:57.000Z</time>
      </trkpt>
      <trkpt lat="43.43547577969729900360107421875" lon="-4.861173927783966064453125">
        <ele>61.59999847412109375</ele>
        <time>2018-09-07T07:10:59.000Z</time>
      </trkpt>
      <trkpt lat="43.43544728122651576995849609375" lon="-4.8613236285746097564697265625">
        <ele>62.40000152587890625</ele>
        <time>2018-09-07T07:11:03.000Z</time>
      </trkpt>
      <trkpt lat="43.43543956987559795379638671875" lon="-4.86138674430549144744873046875">
        <ele>62.799999237060546875</ele>
        <time>2018-09-07T07:11:05.000Z</time>
      </trkpt>
      <trkpt lat="43.43541375361382961273193359375" lon="-4.86153359524905681610107421875">
        <ele>64.59999847412109375</ele>
        <time>2018-09-07T07:11:09.000Z</time>
      </trkpt>
      <trkpt lat="43.435407467186450958251953125" lon="-4.8615700565278530120849609375">
        <ele>64.8000030517578125</ele>
        <time>2018-09-07T07:11:10.000Z</time>
      </trkpt>
      <trkpt lat="43.4353808127343654632568359375" lon="-4.8616796918213367462158203125">
        <ele>65.59999847412109375</ele>
        <time>2018-09-07T07:11:13.000Z</time>
      </trkpt>
      <trkpt lat="43.43534854240715503692626953125" lon="-4.86179678700864315032958984375">
        <ele>65.8000030517578125</ele>
        <time>2018-09-07T07:11:16.000Z</time>
      </trkpt>
      <trkpt lat="43.435325324535369873046875" lon="-4.861872978508472442626953125">
        <ele>65.59999847412109375</ele>
        <time>2018-09-07T07:11:18.000Z</time>
      </trkpt>
      <trkpt lat="43.4352701716125011444091796875" lon="-4.86207992769777774810791015625">
        <ele>65.59999847412109375</ele>
        <time>2018-09-07T07:11:23.000Z</time>
      </trkpt>
      <trkpt lat="43.435249216854572296142578125" lon="-4.86216709949076175689697265625">
        <ele>65.59999847412109375</ele>
        <time>2018-09-07T07:11:25.000Z</time>
      </trkpt>
      <trkpt lat="43.43518710695207118988037109375" lon="-4.86233507283031940460205078125">
        <ele>65.40000152587890625</ele>
        <time>2018-09-07T07:11:29.000Z</time>
      </trkpt>
      <trkpt lat="43.4351699240505695343017578125" lon="-4.86241185106337070465087890625">
        <ele>65.40000152587890625</ele>
        <time>2018-09-07T07:11:31.000Z</time>
      </trkpt>
      <trkpt lat="43.43514905311167240142822265625" lon="-4.86259072087705135345458984375">
        <ele>65.59999847412109375</ele>
        <time>2018-09-07T07:11:35.000Z</time>
      </trkpt>
      <trkpt lat="43.43514536507427692413330078125" lon="-4.8626912198960781097412109375">
        <ele>65.8000030517578125</ele>
        <time>2018-09-07T07:11:37.000Z</time>
      </trkpt>
      <trkpt lat="43.4351249970495700836181640625" lon="-4.86292113550007343292236328125">
        <ele>66.40000152587890625</ele>
        <time>2018-09-07T07:11:42.000Z</time>
      </trkpt>
      <trkpt lat="43.43513597734272480010986328125" lon="-4.86303077079355716705322265625">
        <ele>66.40000152587890625</ele>
        <time>2018-09-07T07:11:45.000Z</time>
      </trkpt>
      <trkpt lat="43.4351270087063312530517578125" lon="-4.86308072693645954132080078125">
        <ele>66.40000152587890625</ele>
        <time>2018-09-07T07:11:46.000Z</time>
      </trkpt>
      <trkpt lat="43.43511954881250858306884765625" lon="-4.8633835650980472564697265625">
        <ele>66.59999847412109375</ele>
        <time>2018-09-07T07:11:52.000Z</time>
      </trkpt>
      <trkpt lat="43.43511787243187427520751953125" lon="-4.86342019401490688323974609375">
        <ele>66.8000030517578125</ele>
        <time>2018-09-07T07:11:53.000Z</time>
      </trkpt>
      <trkpt lat="43.43509934842586517333984375" lon="-4.86353569664061069488525390625">
        <ele>68</ele>
        <time>2018-09-07T07:11:56.000Z</time>
      </trkpt>
      <trkpt lat="43.435094319283962249755859375" lon="-4.86359755508601665496826171875">
        <ele>69.40000152587890625</ele>
        <time>2018-09-07T07:11:58.000Z</time>
      </trkpt>
      <trkpt lat="43.43509021215140819549560546875" lon="-4.86362387426197528839111328125">
        <ele>69.59999847412109375</ele>
        <time>2018-09-07T07:11:59.000Z</time>
      </trkpt>
      <trkpt lat="43.43508618883788585662841796875" lon="-4.8636812902987003326416015625">
        <ele>70.40000152587890625</ele>
        <time>2018-09-07T07:12:01.000Z</time>
      </trkpt>
      <trkpt lat="43.435076884925365447998046875" lon="-4.8637966252863407135009765625">
        <ele>71.59999847412109375</ele>
        <time>2018-09-07T07:12:05.000Z</time>
      </trkpt>
      <trkpt lat="43.4350602887570858001708984375" lon="-4.86389175988733768463134765625">
        <ele>71.8000030517578125</ele>
        <time>2018-09-07T07:12:07.000Z</time>
      </trkpt>
      <trkpt lat="43.4350361488759517669677734375" lon="-4.8641201667487621307373046875">
        <ele>72.40000152587890625</ele>
        <time>2018-09-07T07:12:12.000Z</time>
      </trkpt>
      <trkpt lat="43.4350264258682727813720703125" lon="-4.864162914454936981201171875">
        <ele>72.59999847412109375</ele>
        <time>2018-09-07T07:12:13.000Z</time>
      </trkpt>
      <trkpt lat="43.434987366199493408203125" lon="-4.86441328190267086029052734375">
        <ele>72.8000030517578125</ele>
        <time>2018-09-07T07:12:19.000Z</time>
      </trkpt>
      <trkpt lat="43.43496381305158138275146484375" lon="-4.86469944007694721221923828125">
        <ele>72.1999969482421875</ele>
        <time>2018-09-07T07:12:25.000Z</time>
      </trkpt>
      <trkpt lat="43.4349707700312137603759765625" lon="-4.86486263573169708251953125">
        <ele>72.40000152587890625</ele>
        <time>2018-09-07T07:12:28.000Z</time>
      </trkpt>
      <trkpt lat="43.434968255460262298583984375" lon="-4.86504041589796543121337890625">
        <ele>73</ele>
        <time>2018-09-07T07:12:32.000Z</time>
      </trkpt>
      <trkpt lat="43.434954844415187835693359375" lon="-4.8652736842632293701171875">
        <ele>73.40000152587890625</ele>
        <time>2018-09-07T07:12:38.000Z</time>
      </trkpt>
      <trkpt lat="43.4349456243216991424560546875" lon="-4.86535909585654735565185546875">
        <ele>73.40000152587890625</ele>
        <time>2018-09-07T07:12:40.000Z</time>
      </trkpt>
      <trkpt lat="43.43493950553238391876220703125" lon="-4.8654947988688945770263671875">
        <ele>73.1999969482421875</ele>
        <time>2018-09-07T07:12:43.000Z</time>
      </trkpt>
      <trkpt lat="43.43493129126727581024169921875" lon="-4.8655876703560352325439453125">
        <ele>73</ele>
        <time>2018-09-07T07:12:45.000Z</time>
      </trkpt>
      <trkpt lat="43.43493548221886157989501953125" lon="-4.865744076669216156005859375">
        <ele>72.8000030517578125</ele>
        <time>2018-09-07T07:12:48.000Z</time>
      </trkpt>
      <trkpt lat="43.43493841588497161865234375" lon="-4.86586603336036205291748046875">
        <ele>72</ele>
        <time>2018-09-07T07:12:50.000Z</time>
      </trkpt>
      <trkpt lat="43.434938080608844757080078125" lon="-4.86592370085418224334716796875">
        <ele>71.8000030517578125</ele>
        <time>2018-09-07T07:12:51.000Z</time>
      </trkpt>
      <trkpt lat="43.43493615277111530303955078125" lon="-4.865980446338653564453125">
        <ele>71.8000030517578125</ele>
        <time>2018-09-07T07:12:52.000Z</time>
      </trkpt>
      <trkpt lat="43.4349613822996616363525390625" lon="-4.86607641912996768951416015625">
        <ele>72</ele>
        <time>2018-09-07T07:12:54.000Z</time>
      </trkpt>
      <trkpt lat="43.434971272945404052734375" lon="-4.86617264337837696075439453125">
        <ele>72</ele>
        <time>2018-09-07T07:12:56.000Z</time>
      </trkpt>
      <trkpt lat="43.43498594127595424652099609375" lon="-4.8662984557449817657470703125">
        <ele>72</ele>
        <time>2018-09-07T07:12:59.000Z</time>
      </trkpt>
      <trkpt lat="43.43498644419014453887939453125" lon="-4.8663923330605030059814453125">
        <ele>71.8000030517578125</ele>
        <time>2018-09-07T07:13:01.000Z</time>
      </trkpt>
      <trkpt lat="43.434982001781463623046875" lon="-4.86644119955599308013916015625">
        <ele>71.59999847412109375</ele>
        <time>2018-09-07T07:13:02.000Z</time>
      </trkpt>
      <trkpt lat="43.43499013222754001617431640625" lon="-4.86666097305715084075927734375">
        <ele>71.1999969482421875</ele>
        <time>2018-09-07T07:13:07.000Z</time>
      </trkpt>
      <trkpt lat="43.43499817885458469390869140625" lon="-4.86675770021975040435791015625">
        <ele>70.1999969482421875</ele>
        <time>2018-09-07T07:13:09.000Z</time>
      </trkpt>
      <trkpt lat="43.43503891490399837493896484375" lon="-4.8669535852968692779541015625">
        <ele>69.40000152587890625</ele>
        <time>2018-09-07T07:13:11.000Z</time>
      </trkpt>
      <trkpt lat="43.43507386744022369384765625" lon="-4.86703664995729923248291015625">
        <ele>68.8000030517578125</ele>
        <time>2018-09-07T07:13:12.000Z</time>
      </trkpt>
      <trkpt lat="43.43518660403788089752197265625" lon="-4.8672476224601268768310546875">
        <ele>67.59999847412109375</ele>
        <time>2018-09-07T07:13:15.000Z</time>
      </trkpt>
      <trkpt lat="43.43522633425891399383544921875" lon="-4.867298416793346405029296875">
        <ele>67.1999969482421875</ele>
        <time>2018-09-07T07:13:16.000Z</time>
      </trkpt>
      <trkpt lat="43.43526338227093219757080078125" lon="-4.86734367907047271728515625">
        <ele>66.1999969482421875</ele>
        <time>2018-09-07T07:13:17.000Z</time>
      </trkpt>
      <trkpt lat="43.43530914746224880218505859375" lon="-4.867426492273807525634765625">
        <ele>64.8000030517578125</ele>
        <time>2018-09-07T07:13:19.000Z</time>
      </trkpt>
      <trkpt lat="43.4353320300579071044921875" lon="-4.86747385002672672271728515625">
        <ele>64.40000152587890625</ele>
        <time>2018-09-07T07:13:20.000Z</time>
      </trkpt>
      <trkpt lat="43.435360528528690338134765625" lon="-4.86751827411353588104248046875">
        <ele>63.59999847412109375</ele>
        <time>2018-09-07T07:13:21.000Z</time>
      </trkpt>
      <trkpt lat="43.43542163260281085968017578125" lon="-4.86759907566010951995849609375">
        <ele>62</ele>
        <time>2018-09-07T07:13:23.000Z</time>
      </trkpt>
      <trkpt lat="43.435454405844211578369140625" lon="-4.867632351815700531005859375">
        <ele>61.40000152587890625</ele>
        <time>2018-09-07T07:13:24.000Z</time>
      </trkpt>
      <trkpt lat="43.4354844130575656890869140625" lon="-4.86767149530351161956787109375">
        <ele>60.40000152587890625</ele>
        <time>2018-09-07T07:13:25.000Z</time>
      </trkpt>
      <trkpt lat="43.435537554323673248291015625" lon="-4.86777341924607753753662109375">
        <ele>58.799999237060546875</ele>
        <time>2018-09-07T07:13:27.000Z</time>
      </trkpt>
      <trkpt lat="43.4355960600078105926513671875" lon="-4.8679164983332157135009765625">
        <ele>57</ele>
        <time>2018-09-07T07:13:29.000Z</time>
      </trkpt>
      <trkpt lat="43.43564542941749095916748046875" lon="-4.8679853975772857666015625">
        <ele>56</ele>
        <time>2018-09-07T07:13:30.000Z</time>
      </trkpt>
      <trkpt lat="43.4357063658535480499267578125" lon="-4.868041388690471649169921875">
        <ele>54.799999237060546875</ele>
        <time>2018-09-07T07:13:31.000Z</time>
      </trkpt>
      <trkpt lat="43.4357683919370174407958984375" lon="-4.8680841363966464996337890625">
        <ele>53.40000152587890625</ele>
        <time>2018-09-07T07:13:32.000Z</time>
      </trkpt>
      <trkpt lat="43.4358250536024570465087890625" lon="-4.8681168258190155029296875">
        <ele>50.799999237060546875</ele>
        <time>2018-09-07T07:13:33.000Z</time>
      </trkpt>
      <trkpt lat="43.4358820505440235137939453125" lon="-4.86815345473587512969970703125">
        <ele>49.799999237060546875</ele>
        <time>2018-09-07T07:13:34.000Z</time>
      </trkpt>
      <trkpt lat="43.43592253513634204864501953125" lon="-4.868201315402984619140625">
        <ele>48.799999237060546875</ele>
        <time>2018-09-07T07:13:35.000Z</time>
      </trkpt>
      <trkpt lat="43.43596712686121463775634765625" lon="-4.8682497628033161163330078125">
        <ele>47.59999847412109375</ele>
        <time>2018-09-07T07:13:36.000Z</time>
      </trkpt>
      <trkpt lat="43.43601121567189693450927734375" lon="-4.86830265261232852935791015625">
        <ele>46.40000152587890625</ele>
        <time>2018-09-07T07:13:37.000Z</time>
      </trkpt>
      <trkpt lat="43.43606586568057537078857421875" lon="-4.86836082302033901214599609375">
        <ele>45</ele>
        <time>2018-09-07T07:13:38.000Z</time>
      </trkpt>
      <trkpt lat="43.43612956814467906951904296875" lon="-4.8684237711131572723388671875">
        <ele>43.59999847412109375</ele>
        <time>2018-09-07T07:13:39.000Z</time>
      </trkpt>
      <trkpt lat="43.43618354760110378265380859375" lon="-4.86848219297826290130615234375">
        <ele>42.40000152587890625</ele>
        <time>2018-09-07T07:13:40.000Z</time>
      </trkpt>
      <trkpt lat="43.4362203441560268402099609375" lon="-4.86853248439729213714599609375">
        <ele>41</ele>
        <time>2018-09-07T07:13:41.000Z</time>
      </trkpt>
      <trkpt lat="43.4362614154815673828125" lon="-4.86858822405338287353515625">
        <ele>40</ele>
        <time>2018-09-07T07:13:42.000Z</time>
      </trkpt>
      <trkpt lat="43.4363011457026004791259765625" lon="-4.868641197681427001953125">
        <ele>39</ele>
        <time>2018-09-07T07:13:43.000Z</time>
      </trkpt>
      <trkpt lat="43.436326123774051666259765625" lon="-4.8687111027538776397705078125">
        <ele>38.200000762939453125</ele>
        <time>2018-09-07T07:13:44.000Z</time>
      </trkpt>
      <trkpt lat="43.43634313903748989105224609375" lon="-4.86878997646272182464599609375">
        <ele>37.40000152587890625</ele>
        <time>2018-09-07T07:13:45.000Z</time>
      </trkpt>
      <trkpt lat="43.4363591484725475311279296875" lon="-4.8688770644366741180419921875">
        <ele>36.200000762939453125</ele>
        <time>2018-09-07T07:13:46.000Z</time>
      </trkpt>
      <trkpt lat="43.43637230806052684783935546875" lon="-4.86894856207072734832763671875">
        <ele>35.200000762939453125</ele>
        <time>2018-09-07T07:13:47.000Z</time>
      </trkpt>
      <trkpt lat="43.4363765828311443328857421875" lon="-4.8690135218203067779541015625">
        <ele>34.200000762939453125</ele>
        <time>2018-09-07T07:13:48.000Z</time>
      </trkpt>
      <trkpt lat="43.436387814581394195556640625" lon="-4.86912558786571025848388671875">
        <ele>32.40000152587890625</ele>
        <time>2018-09-07T07:13:50.000Z</time>
      </trkpt>
      <trkpt lat="43.43645243905484676361083984375" lon="-4.86920085735619068145751953125">
        <ele>31.3999996185302734375</ele>
        <time>2018-09-07T07:13:52.000Z</time>
      </trkpt>
      <trkpt lat="43.43649518676102161407470703125" lon="-4.86919700168073177337646484375">
        <ele>31</ele>
        <time>2018-09-07T07:13:53.000Z</time>
      </trkpt>
      <trkpt lat="43.43657162971794605255126953125" lon="-4.86911904998123645782470703125">
        <ele>30.200000762939453125</ele>
        <time>2018-09-07T07:13:55.000Z</time>
      </trkpt>
      <trkpt lat="43.4366039000451564788818359375" lon="-4.86906272359192371368408203125">
        <ele>29.799999237060546875</ele>
        <time>2018-09-07T07:13:56.000Z</time>
      </trkpt>
      <trkpt lat="43.43665779568254947662353515625" lon="-4.86896867863833904266357421875">
        <ele>28.3999996185302734375</ele>
        <time>2018-09-07T07:13:58.000Z</time>
      </trkpt>
      <trkpt lat="43.436671458184719085693359375" lon="-4.86891788430511951446533203125">
        <ele>27.799999237060546875</ele>
        <time>2018-09-07T07:13:59.000Z</time>
      </trkpt>
      <trkpt lat="43.4366860426962375640869140625" lon="-4.86886457540094852447509765625">
        <ele>27.200000762939453125</ele>
        <time>2018-09-07T07:14:00.000Z</time>
      </trkpt>
      <trkpt lat="43.43674060888588428497314453125" lon="-4.86877103336155414581298828125">
        <ele>26</ele>
        <time>2018-09-07T07:14:02.000Z</time>
      </trkpt>
      <trkpt lat="43.43676961027085781097412109375" lon="-4.8687268607318401336669921875">
        <ele>25.3999996185302734375</ele>
        <time>2018-09-07T07:14:03.000Z</time>
      </trkpt>
      <trkpt lat="43.43679827637970447540283203125" lon="-4.86870062537491321563720703125">
        <ele>25</ele>
        <time>2018-09-07T07:14:04.000Z</time>
      </trkpt>
      <trkpt lat="43.43685812316834926605224609375" lon="-4.86866491846740245819091796875">
        <ele>23.799999237060546875</ele>
        <time>2018-09-07T07:14:06.000Z</time>
      </trkpt>
      <trkpt lat="43.4368959255516529083251953125" lon="-4.86867581494152545928955078125">
        <ele>23.200000762939453125</ele>
        <time>2018-09-07T07:14:07.000Z</time>
      </trkpt>
      <trkpt lat="43.4369364939630031585693359375" lon="-4.86869609914720058441162109375">
        <ele>22.3999996185302734375</ele>
        <time>2018-09-07T07:14:08.000Z</time>
      </trkpt>
      <trkpt lat="43.4369815886020660400390625" lon="-4.868739433586597442626953125">
        <ele>21.3999996185302734375</ele>
        <time>2018-09-07T07:14:09.000Z</time>
      </trkpt>
      <trkpt lat="43.43704520724713802337646484375" lon="-4.86885149963200092315673828125">
        <ele>19.3999996185302734375</ele>
        <time>2018-09-07T07:14:11.000Z</time>
      </trkpt>
      <trkpt lat="43.4370659105479717254638671875" lon="-4.8689193092286586761474609375">
        <ele>18.200000762939453125</ele>
        <time>2018-09-07T07:14:12.000Z</time>
      </trkpt>
      <trkpt lat="43.43707722611725330352783203125" lon="-4.868987537920475006103515625">
        <ele>17</ele>
        <time>2018-09-07T07:14:13.000Z</time>
      </trkpt>
      <trkpt lat="43.43708426691591739654541015625" lon="-4.86907462589442729949951171875">
        <ele>16</ele>
        <time>2018-09-07T07:14:14.000Z</time>
      </trkpt>
      <trkpt lat="43.43708510510623455047607421875" lon="-4.8691660724580287933349609375">
        <ele>15</ele>
        <time>2018-09-07T07:14:15.000Z</time>
      </trkpt>
      <trkpt lat="43.4370813332498073577880859375" lon="-4.8692522384226322174072265625">
        <ele>13.80000019073486328125</ele>
        <time>2018-09-07T07:14:16.000Z</time>
      </trkpt>
      <trkpt lat="43.437077812850475311279296875" lon="-4.8693387396633625030517578125">
        <ele>12.3999996185302734375</ele>
        <time>2018-09-07T07:14:17.000Z</time>
      </trkpt>
      <trkpt lat="43.4370682574808597564697265625" lon="-4.869430772960186004638671875">
        <ele>10.80000019073486328125</ele>
        <time>2018-09-07T07:14:18.000Z</time>
      </trkpt>
      <trkpt lat="43.4370608814060688018798828125" lon="-4.86952389590442180633544921875">
        <ele>9.6000003814697265625</ele>
        <time>2018-09-07T07:14:19.000Z</time>
      </trkpt>
      <trkpt lat="43.4370565228164196014404296875" lon="-4.8696257360279560089111328125">
        <ele>8.3999996185302734375</ele>
        <time>2018-09-07T07:14:20.000Z</time>
      </trkpt>
      <trkpt lat="43.43705275095999240875244140625" lon="-4.86972087062895298004150390625">
        <ele>6.400000095367431640625</ele>
        <time>2018-09-07T07:14:21.000Z</time>
      </trkpt>
      <trkpt lat="43.43705291859805583953857421875" lon="-4.8698188550770282745361328125">
        <ele>5.19999980926513671875</ele>
        <time>2018-09-07T07:14:22.000Z</time>
      </trkpt>
      <trkpt lat="43.43704788945615291595458984375" lon="-4.86991147510707378387451171875">
        <ele>4.19999980926513671875</ele>
        <time>2018-09-07T07:14:23.000Z</time>
      </trkpt>
      <trkpt lat="43.4370454587042331695556640625" lon="-4.87000116147100925445556640625">
        <ele>3.2000000476837158203125</ele>
        <time>2018-09-07T07:14:24.000Z</time>
      </trkpt>
      <trkpt lat="43.4370444528758525848388671875" lon="-4.87019243650138378143310546875">
        <ele>2</ele>
        <time>2018-09-07T07:14:26.000Z</time>
      </trkpt>
      <trkpt lat="43.437041938304901123046875" lon="-4.87026602961122989654541015625">
        <ele>1.39999997615814208984375</ele>
        <time>2018-09-07T07:14:27.000Z</time>
      </trkpt>
      <trkpt lat="43.437038250267505645751953125" lon="-4.8703532852232456207275390625">
        <ele>1.2000000476837158203125</ele>
        <time>2018-09-07T07:14:29.000Z</time>
      </trkpt>
      <trkpt lat="43.4370354004204273223876953125" lon="-4.87037549726665019989013671875">
        <ele>1.2000000476837158203125</ele>
        <time>2018-09-07T07:14:30.000Z</time>
      </trkpt>
      <trkpt lat="43.43704420141875743865966796875" lon="-4.870413802564144134521484375">
        <ele>1</ele>
        <time>2018-09-07T07:14:32.000Z</time>
      </trkpt>
      <trkpt lat="43.43707169406116008758544921875" lon="-4.87046820111572742462158203125">
        <ele>1</ele>
        <time>2018-09-07T07:14:35.000Z</time>
      </trkpt>
      <trkpt lat="43.43710572458803653717041015625" lon="-4.8704656027257442474365234375">
        <ele>0.800000011920928955078125</ele>
        <time>2018-09-07T07:14:38.000Z</time>
      </trkpt>
      <trkpt lat="43.43718317337334156036376953125" lon="-4.87044607289135456085205078125">
        <ele>0.60000002384185791015625</ele>
        <time>2018-09-07T07:14:40.000Z</time>
      </trkpt>
      <trkpt lat="43.43732046894729137420654296875" lon="-4.8704075999557971954345703125">
        <ele>0.4000000059604644775390625</ele>
        <time>2018-09-07T07:14:43.000Z</time>
      </trkpt>
      <trkpt lat="43.437455333769321441650390625" lon="-4.870397038757801055908203125">
        <ele>0.4000000059604644775390625</ele>
        <time>2018-09-07T07:14:46.000Z</time>
      </trkpt>
      <trkpt lat="43.4376553259789943695068359375" lon="-4.870416820049285888671875">
        <ele>0.60000002384185791015625</ele>
        <time>2018-09-07T07:14:51.000Z</time>
      </trkpt>
      <trkpt lat="43.43772715888917446136474609375" lon="-4.8704324103891849517822265625">
        <ele>0.60000002384185791015625</ele>
        <time>2018-09-07T07:14:53.000Z</time>
      </trkpt>
      <trkpt lat="43.438023291528224945068359375" lon="-4.870568700134754180908203125">
        <ele>1</ele>
        <time>2018-09-07T07:15:01.000Z</time>
      </trkpt>
      <trkpt lat="43.43817575834691524505615234375" lon="-4.8706543631851673126220703125">
        <ele>1.39999997615814208984375</ele>
        <time>2018-09-07T07:15:05.000Z</time>
      </trkpt>
      <trkpt lat="43.438215740025043487548828125" lon="-4.87068160437047481536865234375">
        <ele>1.39999997615814208984375</ele>
        <time>2018-09-07T07:15:06.000Z</time>
      </trkpt>
      <trkpt lat="43.438330404460430145263671875" lon="-4.87074664793908596038818359375">
        <ele>1.60000002384185791015625</ele>
        <time>2018-09-07T07:15:09.000Z</time>
      </trkpt>
      <trkpt lat="43.43844783492386341094970703125" lon="-4.8708038963377475738525390625">
        <ele>2</ele>
        <time>2018-09-07T07:15:12.000Z</time>
      </trkpt>
      <trkpt lat="43.43852997757494449615478515625" lon="-4.8708357475697994232177734375">
        <ele>2.2000000476837158203125</ele>
        <time>2018-09-07T07:15:14.000Z</time>
      </trkpt>
      <trkpt lat="43.4386088512837886810302734375" lon="-4.87086684443056583404541015625">
        <ele>2.400000095367431640625</ele>
        <time>2018-09-07T07:15:16.000Z</time>
      </trkpt>
      <trkpt lat="43.43876232393085956573486328125" lon="-4.8709460534155368804931640625">
        <ele>2.400000095367431640625</ele>
        <time>2018-09-07T07:15:20.000Z</time>
      </trkpt>
      <trkpt lat="43.4389561973512172698974609375" lon="-4.87104739062488079071044921875">
        <ele>2.599999904632568359375</ele>
        <time>2018-09-07T07:15:25.000Z</time>
      </trkpt>
      <trkpt lat="43.43910983763635158538818359375" lon="-4.87113389186561107635498046875">
        <ele>2.599999904632568359375</ele>
        <time>2018-09-07T07:15:29.000Z</time>
      </trkpt>
      <trkpt lat="43.4391939081251621246337890625" lon="-4.8711770586669445037841796875">
        <ele>2.400000095367431640625</ele>
        <time>2018-09-07T07:15:31.000Z</time>
      </trkpt>
      <trkpt lat="43.4392720274627208709716796875" lon="-4.87122257240116596221923828125">
        <ele>2.2000000476837158203125</ele>
        <time>2018-09-07T07:15:33.000Z</time>
      </trkpt>
      <trkpt lat="43.43948484398424625396728515625" lon="-4.87137009389698505401611328125">
        <ele>1.7999999523162841796875</ele>
        <time>2018-09-07T07:15:38.000Z</time>
      </trkpt>
      <trkpt lat="43.43956748954951763153076171875" lon="-4.87145391292870044708251953125">
        <ele>1.60000002384185791015625</ele>
        <time>2018-09-07T07:15:40.000Z</time>
      </trkpt>
      <trkpt lat="43.43965885229408740997314453125" lon="-4.871532618999481201171875">
        <ele>1.60000002384185791015625</ele>
        <time>2018-09-07T07:15:42.000Z</time>
      </trkpt>
      <trkpt lat="43.43980167992413043975830078125" lon="-4.8716632090508937835693359375">
        <ele>1</ele>
        <time>2018-09-07T07:15:45.000Z</time>
      </trkpt>
      <trkpt lat="43.439947105944156646728515625" lon="-4.87179991789162158966064453125">
        <ele>0.800000011920928955078125</ele>
        <time>2018-09-07T07:15:48.000Z</time>
      </trkpt>
      <trkpt lat="43.44012589193880558013916015625" lon="-4.8719736747443675994873046875">
        <ele>0.800000011920928955078125</ele>
        <time>2018-09-07T07:15:52.000Z</time>
      </trkpt>
      <trkpt lat="43.44030174426734447479248046875" lon="-4.87211893312633037567138671875">
        <ele>0.800000011920928955078125</ele>
        <time>2018-09-07T07:15:56.000Z</time>
      </trkpt>
      <trkpt lat="43.44043032266199588775634765625" lon="-4.8722247965633869171142578125">
        <ele>1.39999997615814208984375</ele>
        <time>2018-09-07T07:15:59.000Z</time>
      </trkpt>
      <trkpt lat="43.440627045929431915283203125" lon="-4.87239218316972255706787109375">
        <ele>2.2000000476837158203125</ele>
        <time>2018-09-07T07:16:04.000Z</time>
      </trkpt>
      <trkpt lat="43.440666608512401580810546875" lon="-4.8724232800304889678955078125">
        <ele>2.400000095367431640625</ele>
        <time>2018-09-07T07:16:05.000Z</time>
      </trkpt>
      <trkpt lat="43.44074212945997714996337890625" lon="-4.87248790450394153594970703125">
        <ele>3</ele>
        <time>2018-09-07T07:16:07.000Z</time>
      </trkpt>
      <trkpt lat="43.440781943500041961669921875" lon="-4.87251992337405681610107421875">
        <ele>3.400000095367431640625</ele>
        <time>2018-09-07T07:16:08.000Z</time>
      </trkpt>
      <trkpt lat="43.44085939228534698486328125" lon="-4.8725785128772258758544921875">
        <ele>4</ele>
        <time>2018-09-07T07:16:10.000Z</time>
      </trkpt>
      <trkpt lat="43.44091144390404224395751953125" lon="-4.87262302078306674957275390625">
        <ele>4.599999904632568359375</ele>
        <time>2018-09-07T07:16:12.000Z</time>
      </trkpt>
      <trkpt lat="43.44096022658050060272216796875" lon="-4.872667528688907623291015625">
        <ele>5.19999980926513671875</ele>
        <time>2018-09-07T07:16:14.000Z</time>
      </trkpt>
      <trkpt lat="43.4410117752850055694580078125" lon="-4.872715808451175689697265625">
        <ele>5.400000095367431640625</ele>
        <time>2018-09-07T07:16:16.000Z</time>
      </trkpt>
      <trkpt lat="43.441029377281665802001953125" lon="-4.8727360926568508148193359375">
        <ele>5.80000019073486328125</ele>
        <time>2018-09-07T07:16:17.000Z</time>
      </trkpt>
      <trkpt lat="43.441065251827239990234375" lon="-4.87276718951761722564697265625">
        <ele>6.19999980926513671875</ele>
        <time>2018-09-07T07:16:19.000Z</time>
      </trkpt>
      <trkpt lat="43.44111110083758831024169921875" lon="-4.8728306405246257781982421875">
        <ele>6.599999904632568359375</ele>
        <time>2018-09-07T07:16:22.000Z</time>
      </trkpt>
      <trkpt lat="43.44112761318683624267578125" lon="-4.87285335548222064971923828125">
        <ele>6.80000019073486328125</ele>
        <time>2018-09-07T07:16:23.000Z</time>
      </trkpt>
      <trkpt lat="43.44116960652172565460205078125" lon="-4.87292795442044734954833984375">
        <ele>7</ele>
        <time>2018-09-07T07:16:26.000Z</time>
      </trkpt>
      <trkpt lat="43.44124152325093746185302734375" lon="-4.87304680980741977691650390625">
        <ele>7.80000019073486328125</ele>
        <time>2018-09-07T07:16:32.000Z</time>
      </trkpt>
      <trkpt lat="43.44123716466128826141357421875" lon="-4.8730800859630107879638671875">
        <ele>8</ele>
        <time>2018-09-07T07:18:32.000Z</time>
      </trkpt>
      <trkpt lat="43.441227190196514129638671875" lon="-4.8730695247650146484375">
        <ele>7.80000019073486328125</ele>
        <time>2018-09-07T07:18:33.000Z</time>
      </trkpt>
      <trkpt lat="43.4412146173417568206787109375" lon="-4.8730308003723621368408203125">
        <ele>7.400000095367431640625</ele>
        <time>2018-09-07T07:18:35.000Z</time>
      </trkpt>
      <trkpt lat="43.44120900146663188934326171875" lon="-4.873010180890560150146484375">
        <ele>7.19999980926513671875</ele>
        <time>2018-09-07T07:18:36.000Z</time>
      </trkpt>
      <trkpt lat="43.441184274852275848388671875" lon="-4.87295628525316715240478515625">
        <ele>7.400000095367431640625</ele>
        <time>2018-09-07T07:18:39.000Z</time>
      </trkpt>
      <trkpt lat="43.44118083827197551727294921875" lon="-4.87295041792094707489013671875">
        <ele>7.400000095367431640625</ele>
        <time>2018-09-07T07:18:41.000Z</time>
      </trkpt>
      <trkpt lat="43.44124940223991870880126953125" lon="-4.87313582561910152435302734375">
        <ele>8.19999980926513671875</ele>
        <time>2018-09-07T07:22:04.000Z</time>
      </trkpt>
      <trkpt lat="43.4412639029324054718017578125" lon="-4.8732182197272777557373046875">
        <ele>8.19999980926513671875</ele>
        <time>2018-09-07T07:22:06.000Z</time>
      </trkpt>
      <trkpt lat="43.44128158874809741973876953125" lon="-4.8732939921319484710693359375">
        <ele>8.3999996185302734375</ele>
        <time>2018-09-07T07:22:08.000Z</time>
      </trkpt>
      <trkpt lat="43.44130598008632659912109375" lon="-4.873363561928272247314453125">
        <ele>8.6000003814697265625</ele>
        <time>2018-09-07T07:22:11.000Z</time>
      </trkpt>
      <trkpt lat="43.44132651574909687042236328125" lon="-4.8735330440104007720947265625">
        <ele>8.80000019073486328125</ele>
        <time>2018-09-07T07:22:18.000Z</time>
      </trkpt>
      <trkpt lat="43.4413289465010166168212890625" lon="-4.87356816418468952178955078125">
        <ele>8.80000019073486328125</ele>
        <time>2018-09-07T07:22:19.000Z</time>
      </trkpt>
      <trkpt lat="43.4413339756429195404052734375" lon="-4.87372641451656818389892578125">
        <ele>9</ele>
        <time>2018-09-07T07:22:23.000Z</time>
      </trkpt>
      <trkpt lat="43.44133489765226840972900390625" lon="-4.8738138377666473388671875">
        <ele>9</ele>
        <time>2018-09-07T07:22:25.000Z</time>
      </trkpt>
      <trkpt lat="43.441335819661617279052734375" lon="-4.874104522168636322021484375">
        <ele>9.19999980926513671875</ele>
        <time>2018-09-07T07:22:32.000Z</time>
      </trkpt>
      <trkpt lat="43.44133271835744380950927734375" lon="-4.87430744804441928863525390625">
        <ele>9.19999980926513671875</ele>
        <time>2018-09-07T07:22:36.000Z</time>
      </trkpt>
      <trkpt lat="43.44133523292839527130126953125" lon="-4.87445916049182415008544921875">
        <ele>9.19999980926513671875</ele>
        <time>2018-09-07T07:22:39.000Z</time>
      </trkpt>
      <trkpt lat="43.441347219049930572509765625" lon="-4.8746158182621002197265625">
        <ele>9.19999980926513671875</ele>
        <time>2018-09-07T07:22:42.000Z</time>
      </trkpt>
      <trkpt lat="43.44135702587664127349853515625" lon="-4.87472084350883960723876953125">
        <ele>9.19999980926513671875</ele>
        <time>2018-09-07T07:22:44.000Z</time>
      </trkpt>
      <trkpt lat="43.44138049520552158355712890625" lon="-4.87489166669547557830810546875">
        <ele>8.6000003814697265625</ele>
        <time>2018-09-07T07:22:47.000Z</time>
      </trkpt>
      <trkpt lat="43.44145216047763824462890625" lon="-4.87515293061733245849609375">
        <ele>7.599999904632568359375</ele>
        <time>2018-09-07T07:22:51.000Z</time>
      </trkpt>
      <trkpt lat="43.44149918295443058013916015625" lon="-4.87530807964503765106201171875">
        <ele>6.599999904632568359375</ele>
        <time>2018-09-07T07:22:53.000Z</time>
      </trkpt>
      <trkpt lat="43.441523574292659759521484375" lon="-4.87539055757224559783935546875">
        <ele>6.400000095367431640625</ele>
        <time>2018-09-07T07:22:54.000Z</time>
      </trkpt>
      <trkpt lat="43.44160211272537708282470703125" lon="-4.8756536655128002166748046875">
        <ele>5.19999980926513671875</ele>
        <time>2018-09-07T07:22:57.000Z</time>
      </trkpt>
      <trkpt lat="43.44165827147662639617919921875" lon="-4.87584225833415985107421875">
        <ele>4.19999980926513671875</ele>
        <time>2018-09-07T07:22:59.000Z</time>
      </trkpt>
      <trkpt lat="43.4416866861283779144287109375" lon="-4.87594091333448886871337890625">
        <ele>3.599999904632568359375</ele>
        <time>2018-09-07T07:23:00.000Z</time>
      </trkpt>
      <trkpt lat="43.44174544326961040496826171875" lon="-4.8761435039341449737548828125">
        <ele>2.7999999523162841796875</ele>
        <time>2018-09-07T07:23:02.000Z</time>
      </trkpt>
      <trkpt lat="43.44183194451034069061279296875" lon="-4.8764536343514919281005859375">
        <ele>1.60000002384185791015625</ele>
        <time>2018-09-07T07:23:05.000Z</time>
      </trkpt>
      <trkpt lat="43.44190637581050395965576171875" lon="-4.87671908922493457794189453125">
        <ele>0.800000011920928955078125</ele>
        <time>2018-09-07T07:23:08.000Z</time>
      </trkpt>
      <trkpt lat="43.4419425018131732940673828125" lon="-4.87683677114546298980712890625">
        <ele>0.800000011920928955078125</ele>
        <time>2018-09-07T07:23:10.000Z</time>
      </trkpt>
      <trkpt lat="43.4419686533510684967041015625" lon="-4.8769159801304340362548828125">
        <ele>0.800000011920928955078125</ele>
        <time>2018-09-07T07:23:12.000Z</time>
      </trkpt>
      <trkpt lat="43.44199572689831256866455078125" lon="-4.877046905457973480224609375">
        <ele>0.60000002384185791015625</ele>
        <time>2018-09-07T07:23:16.000Z</time>
      </trkpt>
      <trkpt lat="43.4420055337250232696533203125" lon="-4.8770852945744991302490234375">
        <ele>0.60000002384185791015625</ele>
        <time>2018-09-07T07:23:17.000Z</time>
      </trkpt>
      <trkpt lat="43.442017771303653717041015625" lon="-4.87712494097650051116943359375">
        <ele>0.60000002384185791015625</ele>
        <time>2018-09-07T07:23:18.000Z</time>
      </trkpt>
      <trkpt lat="43.44204233027994632720947265625" lon="-4.877210520207881927490234375">
        <ele>0.60000002384185791015625</ele>
        <time>2018-09-07T07:23:20.000Z</time>
      </trkpt>
      <trkpt lat="43.44206982292234897613525390625" lon="-4.877302385866641998291015625">
        <ele>0.60000002384185791015625</ele>
        <time>2018-09-07T07:23:22.000Z</time>
      </trkpt>
      <trkpt lat="43.44209681265056133270263671875" lon="-4.87740104086697101593017578125">
        <ele>0.800000011920928955078125</ele>
        <time>2018-09-07T07:23:24.000Z</time>
      </trkpt>
      <trkpt lat="43.442139141261577606201171875" lon="-4.8775503225624561309814453125">
        <ele>1</ele>
        <time>2018-09-07T07:23:27.000Z</time>
      </trkpt>
      <trkpt lat="43.44219337217509746551513671875" lon="-4.8777521587908267974853515625">
        <ele>1.2000000476837158203125</ele>
        <time>2018-09-07T07:23:31.000Z</time>
      </trkpt>
      <trkpt lat="43.4422248043119907379150390625" lon="-4.87786187790334224700927734375">
        <ele>1.2000000476837158203125</ele>
        <time>2018-09-07T07:23:33.000Z</time>
      </trkpt>
      <trkpt lat="43.44225414097309112548828125" lon="-4.87797461450099945068359375">
        <ele>1.39999997615814208984375</ele>
        <time>2018-09-07T07:23:35.000Z</time>
      </trkpt>
      <trkpt lat="43.44231189228594303131103515625" lon="-4.87819857895374298095703125">
        <ele>1.60000002384185791015625</ele>
        <time>2018-09-07T07:23:39.000Z</time>
      </trkpt>
      <trkpt lat="43.44239604659378528594970703125" lon="-4.8784830607473850250244140625">
        <ele>1.60000002384185791015625</ele>
        <time>2018-09-07T07:23:44.000Z</time>
      </trkpt>
      <trkpt lat="43.4425278939306735992431640625" lon="-4.87895429134368896484375">
        <ele>2</ele>
        <time>2018-09-07T07:23:52.000Z</time>
      </trkpt>
      <trkpt lat="43.44265513122081756591796875" lon="-4.87942024134099483489990234375">
        <ele>2.2000000476837158203125</ele>
        <time>2018-09-07T07:24:00.000Z</time>
      </trkpt>
      <trkpt lat="43.44276652671396732330322265625" lon="-4.87981620244681835174560546875">
        <ele>2.599999904632568359375</ele>
        <time>2018-09-07T07:24:06.000Z</time>
      </trkpt>
      <trkpt lat="43.44280399382114410400390625" lon="-4.87994427792727947235107421875">
        <ele>2.7999999523162841796875</ele>
        <time>2018-09-07T07:24:08.000Z</time>
      </trkpt>
      <trkpt lat="43.44287985004484653472900390625" lon="-4.88020353019237518310546875">
        <ele>3.2000000476837158203125</ele>
        <time>2018-09-07T07:24:12.000Z</time>
      </trkpt>
      <trkpt lat="43.44294372014701366424560546875" lon="-4.88040276803076267242431640625">
        <ele>3.400000095367431640625</ele>
        <time>2018-09-07T07:24:15.000Z</time>
      </trkpt>
      <trkpt lat="43.442965261638164520263671875" lon="-4.880469404160976409912109375">
        <ele>3.599999904632568359375</ele>
        <time>2018-09-07T07:24:16.000Z</time>
      </trkpt>
      <trkpt lat="43.4430415369570255279541015625" lon="-4.8807545565068721771240234375">
        <ele>4.400000095367431640625</ele>
        <time>2018-09-07T07:24:21.000Z</time>
      </trkpt>
      <trkpt lat="43.44305343925952911376953125" lon="-4.880810715258121490478515625">
        <ele>4.80000019073486328125</ele>
        <time>2018-09-07T07:24:22.000Z</time>
      </trkpt>
      <trkpt lat="43.44307380728423595428466796875" lon="-4.881105087697505950927734375">
        <ele>5.19999980926513671875</ele>
        <time>2018-09-07T07:24:27.000Z</time>
      </trkpt>
      <trkpt lat="43.443067856132984161376953125" lon="-4.88116803579032421112060546875">
        <ele>5.400000095367431640625</ele>
        <time>2018-09-07T07:24:28.000Z</time>
      </trkpt>
      <trkpt lat="43.44302653335034847259521484375" lon="-4.8813989572227001190185546875">
        <ele>5.80000019073486328125</ele>
        <time>2018-09-07T07:24:32.000Z</time>
      </trkpt>
      <trkpt lat="43.44300918281078338623046875" lon="-4.88148822449147701263427734375">
        <ele>6</ele>
        <time>2018-09-07T07:24:34.000Z</time>
      </trkpt>
      <trkpt lat="43.4429620765149593353271484375" lon="-4.8816484026610851287841796875">
        <ele>6.19999980926513671875</ele>
        <time>2018-09-07T07:24:38.000Z</time>
      </trkpt>
      <trkpt lat="43.44293232075870037078857421875" lon="-4.881813861429691314697265625">
        <ele>6.599999904632568359375</ele>
        <time>2018-09-07T07:24:42.000Z</time>
      </trkpt>
      <trkpt lat="43.44289845786988735198974609375" lon="-4.88190195523202419281005859375">
        <ele>6.80000019073486328125</ele>
        <time>2018-09-07T07:24:44.000Z</time>
      </trkpt>
      <trkpt lat="43.44283509068191051483154296875" lon="-4.8820993490517139434814453125">
        <ele>7.400000095367431640625</ele>
        <time>2018-09-07T07:24:48.000Z</time>
      </trkpt>
      <trkpt lat="43.44277440570294857025146484375" lon="-4.88230495713651180267333984375">
        <ele>8</ele>
        <time>2018-09-07T07:24:52.000Z</time>
      </trkpt>
      <trkpt lat="43.44273651950061321258544921875" lon="-4.88244719803333282470703125">
        <ele>8.3999996185302734375</ele>
        <time>2018-09-07T07:24:55.000Z</time>
      </trkpt>
      <trkpt lat="43.44268287532031536102294921875" lon="-4.8826532252132892608642578125">
        <ele>9</ele>
        <time>2018-09-07T07:24:59.000Z</time>
      </trkpt>
      <trkpt lat="43.44265236519277095794677734375" lon="-4.88280150108039379119873046875">
        <ele>9.6000003814697265625</ele>
        <time>2018-09-07T07:25:02.000Z</time>
      </trkpt>
      <trkpt lat="43.4426330029964447021484375" lon="-4.88294198177754878997802734375">
        <ele>10.19999980926513671875</ele>
        <time>2018-09-07T07:25:05.000Z</time>
      </trkpt>
      <trkpt lat="43.44260710291564464569091796875" lon="-4.8831759206950664520263671875">
        <ele>11</ele>
        <time>2018-09-07T07:25:10.000Z</time>
      </trkpt>
      <trkpt lat="43.44260140322148799896240234375" lon="-4.8832205124199390411376953125">
        <ele>11.19999980926513671875</ele>
        <time>2018-09-07T07:25:11.000Z</time>
      </trkpt>
      <trkpt lat="43.44258631579577922821044921875" lon="-4.88347657956182956695556640625">
        <ele>11.80000019073486328125</ele>
        <time>2018-09-07T07:25:17.000Z</time>
      </trkpt>
      <trkpt lat="43.4425708092749118804931640625" lon="-4.883693419396877288818359375">
        <ele>12.19999980926513671875</ele>
        <time>2018-09-07T07:25:22.000Z</time>
      </trkpt>
      <trkpt lat="43.44256469048559665679931640625" lon="-4.88373306579887866973876953125">
        <ele>12.19999980926513671875</ele>
        <time>2018-09-07T07:25:23.000Z</time>
      </trkpt>
      <trkpt lat="43.44250199384987354278564453125" lon="-4.88392869941890239715576171875">
        <ele>12.80000019073486328125</ele>
        <time>2018-09-07T07:25:28.000Z</time>
      </trkpt>
      <trkpt lat="43.44237492419779300689697265625" lon="-4.88427520729601383209228515625">
        <ele>13.19999980926513671875</ele>
        <time>2018-09-07T07:25:36.000Z</time>
      </trkpt>
      <trkpt lat="43.4422596730291843414306640625" lon="-4.8846062086522579193115234375">
        <ele>14.19999980926513671875</ele>
        <time>2018-09-07T07:25:44.000Z</time>
      </trkpt>
      <trkpt lat="43.4422405622899532318115234375" lon="-4.884646274149417877197265625">
        <ele>14.3999996185302734375</ele>
        <time>2018-09-07T07:25:45.000Z</time>
      </trkpt>
      <trkpt lat="43.44215950928628444671630859375" lon="-4.88483847118914127349853515625">
        <ele>15.19999980926513671875</ele>
        <time>2018-09-07T07:25:50.000Z</time>
      </trkpt>
      <trkpt lat="43.4421215392649173736572265625" lon="-4.8849220387637615203857421875">
        <ele>15.6000003814697265625</ele>
        <time>2018-09-07T07:25:52.000Z</time>
      </trkpt>
      <trkpt lat="43.4420417435467243194580078125" lon="-4.88509529270231723785400390625">
        <ele>16</ele>
        <time>2018-09-07T07:25:56.000Z</time>
      </trkpt>
      <trkpt lat="43.441906459629535675048828125" lon="-4.8853545449674129486083984375">
        <ele>16.3999996185302734375</ele>
        <time>2018-09-07T07:26:02.000Z</time>
      </trkpt>
      <trkpt lat="43.44185994006693363189697265625" lon="-4.88544967956840991973876953125">
        <ele>16.6000003814697265625</ele>
        <time>2018-09-07T07:26:04.000Z</time>
      </trkpt>
      <trkpt lat="43.4417671523988246917724609375" lon="-4.88573650829493999481201171875">
        <ele>17.200000762939453125</ele>
        <time>2018-09-07T07:26:10.000Z</time>
      </trkpt>
      <trkpt lat="43.44173940829932689666748046875" lon="-4.88589492626488208770751953125">
        <ele>17.6000003814697265625</ele>
        <time>2018-09-07T07:26:13.000Z</time>
      </trkpt>
      <trkpt lat="43.4416860155761241912841796875" lon="-4.88614420406520366668701171875">
        <ele>18</ele>
        <time>2018-09-07T07:26:18.000Z</time>
      </trkpt>
      <trkpt lat="43.4416137635707855224609375" lon="-4.886454753577709197998046875">
        <ele>18.6000003814697265625</ele>
        <time>2018-09-07T07:26:24.000Z</time>
      </trkpt>
      <trkpt lat="43.44156506471335887908935546875" lon="-4.88666086457669734954833984375">
        <ele>18.799999237060546875</ele>
        <time>2018-09-07T07:26:28.000Z</time>
      </trkpt>
      <trkpt lat="43.4414689242839813232421875" lon="-4.8870312608778476715087890625">
        <ele>19.3999996185302734375</ele>
        <time>2018-09-07T07:26:35.000Z</time>
      </trkpt>
      <trkpt lat="43.44142424874007701873779296875" lon="-4.8871771059930324554443359375">
        <ele>19.799999237060546875</ele>
        <time>2018-09-07T07:26:38.000Z</time>
      </trkpt>
      <trkpt lat="43.441388122737407684326171875" lon="-4.88732487894594669342041015625">
        <ele>20.200000762939453125</ele>
        <time>2018-09-07T07:26:41.000Z</time>
      </trkpt>
      <trkpt lat="43.4413205645978450775146484375" lon="-4.88755571655929088592529296875">
        <ele>21</ele>
        <time>2018-09-07T07:26:46.000Z</time>
      </trkpt>
      <trkpt lat="43.44130329787731170654296875" lon="-4.88760919310152530670166015625">
        <ele>21</ele>
        <time>2018-09-07T07:26:47.000Z</time>
      </trkpt>
      <trkpt lat="43.44116591848433017730712890625" lon="-4.8880005441606044769287109375">
        <ele>21.6000003814697265625</ele>
        <time>2018-09-07T07:26:54.000Z</time>
      </trkpt>
      <trkpt lat="43.4411157108843326568603515625" lon="-4.88815150223672389984130859375">
        <ele>22</ele>
        <time>2018-09-07T07:26:57.000Z</time>
      </trkpt>
      <trkpt lat="43.441042117774486541748046875" lon="-4.8883411847054958343505859375">
        <ele>22.3999996185302734375</ele>
        <time>2018-09-07T07:27:01.000Z</time>
      </trkpt>
      <trkpt lat="43.4409705363214015960693359375" lon="-4.8885272629559040069580078125">
        <ele>23</ele>
        <time>2018-09-07T07:27:05.000Z</time>
      </trkpt>
      <trkpt lat="43.440952934324741363525390625" lon="-4.88857202231884002685546875">
        <ele>23.200000762939453125</ele>
        <time>2018-09-07T07:27:06.000Z</time>
      </trkpt>
      <trkpt lat="43.4408652596175670623779296875" lon="-4.888787604868412017822265625">
        <ele>24.200000762939453125</ele>
        <time>2018-09-07T07:27:11.000Z</time>
      </trkpt>
      <trkpt lat="43.4408474899828433990478515625" lon="-4.888881482183933258056640625">
        <ele>24.3999996185302734375</ele>
        <time>2018-09-07T07:27:13.000Z</time>
      </trkpt>
      <trkpt lat="43.44074673950672149658203125" lon="-4.88925154320895671844482421875">
        <ele>24.6000003814697265625</ele>
        <time>2018-09-07T07:27:20.000Z</time>
      </trkpt>
      <trkpt lat="43.44065998680889606475830078125" lon="-4.88948640413582324981689453125">
        <ele>25.3999996185302734375</ele>
        <time>2018-09-07T07:27:25.000Z</time>
      </trkpt>
      <trkpt lat="43.440641127526760101318359375" lon="-4.88953334279358386993408203125">
        <ele>25.6000003814697265625</ele>
        <time>2018-09-07T07:27:26.000Z</time>
      </trkpt>
      <trkpt lat="43.44051984138786792755126953125" lon="-4.8897944390773773193359375">
        <ele>26.6000003814697265625</ele>
        <time>2018-09-07T07:27:32.000Z</time>
      </trkpt>
      <trkpt lat="43.4404967911541461944580078125" lon="-4.88983123563230037689208984375">
        <ele>26.799999237060546875</ele>
        <time>2018-09-07T07:27:33.000Z</time>
      </trkpt>
      <trkpt lat="43.44044876284897327423095703125" lon="-4.88989996723830699920654296875">
        <ele>27.6000003814697265625</ele>
        <time>2018-09-07T07:27:35.000Z</time>
      </trkpt>
      <trkpt lat="43.44034499488770961761474609375" lon="-4.890105910599231719970703125">
        <ele>28.6000003814697265625</ele>
        <time>2018-09-07T07:27:40.000Z</time>
      </trkpt>
      <trkpt lat="43.44032571651041507720947265625" lon="-4.89014857448637485504150390625">
        <ele>28.799999237060546875</ele>
        <time>2018-09-07T07:27:41.000Z</time>
      </trkpt>
      <trkpt lat="43.44019562937319278717041015625" lon="-4.89028637297451496124267578125">
        <ele>29.200000762939453125</ele>
        <time>2018-09-07T07:27:46.000Z</time>
      </trkpt>
      <trkpt lat="43.44012153334915637969970703125" lon="-4.89044428803026676177978515625">
        <ele>29.6000003814697265625</ele>
        <time>2018-09-07T07:27:50.000Z</time>
      </trkpt>
      <trkpt lat="43.43997501768171787261962890625" lon="-4.89072659052908420562744140625">
        <ele>30</ele>
        <time>2018-09-07T07:27:57.000Z</time>
      </trkpt>
      <trkpt lat="43.43990377150475978851318359375" lon="-4.890820719301700592041015625">
        <ele>30.799999237060546875</ele>
        <time>2018-09-07T07:28:00.000Z</time>
      </trkpt>
      <trkpt lat="43.4397890232503414154052734375" lon="-4.8910032771527767181396484375">
        <ele>31.6000003814697265625</ele>
        <time>2018-09-07T07:28:05.000Z</time>
      </trkpt>
      <trkpt lat="43.439763374626636505126953125" lon="-4.8910948075354099273681640625">
        <ele>32</ele>
        <time>2018-09-07T07:28:07.000Z</time>
      </trkpt>
      <trkpt lat="43.43973361887037754058837890625" lon="-4.8912875913083553314208984375">
        <ele>32.59999847412109375</ele>
        <time>2018-09-07T07:28:11.000Z</time>
      </trkpt>
      <trkpt lat="43.43972305767238140106201171875" lon="-4.89138624630868434906005859375">
        <ele>33</ele>
        <time>2018-09-07T07:28:13.000Z</time>
      </trkpt>
      <trkpt lat="43.43971165828406810760498046875" lon="-4.8915702290832996368408203125">
        <ele>33.40000152587890625</ele>
        <time>2018-09-07T07:28:17.000Z</time>
      </trkpt>
      <trkpt lat="43.43966756947338581085205078125" lon="-4.89191003143787384033203125">
        <ele>32.799999237060546875</ele>
        <time>2018-09-07T07:28:23.000Z</time>
      </trkpt>
      <trkpt lat="43.43965667299926280975341796875" lon="-4.89196904003620147705078125">
        <ele>32.799999237060546875</ele>
        <time>2018-09-07T07:28:24.000Z</time>
      </trkpt>
      <trkpt lat="43.43963756226003170013427734375" lon="-4.8920823633670806884765625">
        <ele>32.799999237060546875</ele>
        <time>2018-09-07T07:28:26.000Z</time>
      </trkpt>
      <trkpt lat="43.4396046213805675506591796875" lon="-4.89225075580179691314697265625">
        <ele>33</ele>
        <time>2018-09-07T07:28:29.000Z</time>
      </trkpt>
      <trkpt lat="43.43959414400160312652587890625" lon="-4.892303645610809326171875">
        <ele>33</ele>
        <time>2018-09-07T07:28:30.000Z</time>
      </trkpt>
      <trkpt lat="43.43956765718758106231689453125" lon="-4.89247472025454044342041015625">
        <ele>32.200000762939453125</ele>
        <time>2018-09-07T07:28:33.000Z</time>
      </trkpt>
      <trkpt lat="43.4395536594092845916748046875" lon="-4.8925395123660564422607421875">
        <ele>31.6000003814697265625</ele>
        <time>2018-09-07T07:28:34.000Z</time>
      </trkpt>
      <trkpt lat="43.43954913318157196044921875" lon="-4.89261436276137828826904296875">
        <ele>31</ele>
        <time>2018-09-07T07:28:35.000Z</time>
      </trkpt>
      <trkpt lat="43.4395345486700534820556640625" lon="-4.89271025173366069793701171875">
        <ele>30.3999996185302734375</ele>
        <time>2018-09-07T07:28:36.000Z</time>
      </trkpt>
      <trkpt lat="43.4395083971321582794189453125" lon="-4.89289733581244945526123046875">
        <ele>29.6000003814697265625</ele>
        <time>2018-09-07T07:28:38.000Z</time>
      </trkpt>
      <trkpt lat="43.439439833164215087890625" lon="-4.8931376449763774871826171875">
        <ele>30</ele>
        <time>2018-09-07T07:28:41.000Z</time>
      </trkpt>
      <trkpt lat="43.439399935305118560791015625" lon="-4.8932660557329654693603515625">
        <ele>30.6000003814697265625</ele>
        <time>2018-09-07T07:28:43.000Z</time>
      </trkpt>
      <trkpt lat="43.4393357299268245697021484375" lon="-4.89348725415766239166259765625">
        <ele>30.6000003814697265625</ele>
        <time>2018-09-07T07:28:47.000Z</time>
      </trkpt>
      <trkpt lat="43.43933497555553913116455078125" lon="-4.89360325969755649566650390625">
        <ele>30.200000762939453125</ele>
        <time>2018-09-07T07:28:49.000Z</time>
      </trkpt>
      <trkpt lat="43.439417369663715362548828125" lon="-4.89377391524612903594970703125">
        <ele>29.3999996185302734375</ele>
        <time>2018-09-07T07:28:52.000Z</time>
      </trkpt>
      <trkpt lat="43.43945148400962352752685546875" lon="-4.89381800405681133270263671875">
        <ele>29</ele>
        <time>2018-09-07T07:28:53.000Z</time>
      </trkpt>
      <trkpt lat="43.4395211376249790191650390625" lon="-4.89391364157199859619140625">
        <ele>28.3999996185302734375</ele>
        <time>2018-09-07T07:28:55.000Z</time>
      </trkpt>
      <trkpt lat="43.43954921700060367584228515625" lon="-4.8939734883606433868408203125">
        <ele>28</ele>
        <time>2018-09-07T07:28:56.000Z</time>
      </trkpt>
      <trkpt lat="43.4395788051187992095947265625" lon="-4.89403358660638332366943359375">
        <ele>27.6000003814697265625</ele>
        <time>2018-09-07T07:28:57.000Z</time>
      </trkpt>
      <trkpt lat="43.43963756226003170013427734375" lon="-4.89415026269853115081787109375">
        <ele>27.200000762939453125</ele>
        <time>2018-09-07T07:28:59.000Z</time>
      </trkpt>
      <trkpt lat="43.43972506932914257049560546875" lon="-4.8943101055920124053955078125">
        <ele>26.799999237060546875</ele>
        <time>2018-09-07T07:29:02.000Z</time>
      </trkpt>
      <trkpt lat="43.4398896060883998870849609375" lon="-4.894577153027057647705078125">
        <ele>26.6000003814697265625</ele>
        <time>2018-09-07T07:29:08.000Z</time>
      </trkpt>
      <trkpt lat="43.4399083815515041351318359375" lon="-4.894673041999340057373046875">
        <ele>26.799999237060546875</ele>
        <time>2018-09-07T07:29:10.000Z</time>
      </trkpt>
      <trkpt lat="43.4398912824690341949462890625" lon="-4.8947758041322231292724609375">
        <ele>26.799999237060546875</ele>
        <time>2018-09-07T07:29:12.000Z</time>
      </trkpt>
      <trkpt lat="43.43979899771511554718017578125" lon="-4.8950084857642650604248046875">
        <ele>27</ele>
        <time>2018-09-07T07:29:18.000Z</time>
      </trkpt>
      <trkpt lat="43.4396575950086116790771484375" lon="-4.8952170275151729583740234375">
        <ele>27</ele>
        <time>2018-09-07T07:29:24.000Z</time>
      </trkpt>
      <trkpt lat="43.4395873546600341796875" lon="-4.8953923769295215606689453125">
        <ele>27.3999996185302734375</ele>
        <time>2018-09-07T07:29:28.000Z</time>
      </trkpt>
      <trkpt lat="43.43955374322831630706787109375" lon="-4.89563855342566967010498046875">
        <ele>27.3999996185302734375</ele>
        <time>2018-09-07T07:29:33.000Z</time>
      </trkpt>
      <trkpt lat="43.4395362250506877899169921875" lon="-4.89581189118325710296630859375">
        <ele>27.3999996185302734375</ele>
        <time>2018-09-07T07:29:36.000Z</time>
      </trkpt>
      <trkpt lat="43.4395315311849117279052734375" lon="-4.89596578292548656463623046875">
        <ele>27.3999996185302734375</ele>
        <time>2018-09-07T07:29:38.000Z</time>
      </trkpt>
      <trkpt lat="43.439534045755863189697265625" lon="-4.8960961215198040008544921875">
        <ele>27.6000003814697265625</ele>
        <time>2018-09-07T07:29:40.000Z</time>
      </trkpt>
      <trkpt lat="43.4395174495875835418701171875" lon="-4.89624590612947940826416015625">
        <ele>27.6000003814697265625</ele>
        <time>2018-09-07T07:29:43.000Z</time>
      </trkpt>
      <trkpt lat="43.43947528861463069915771484375" lon="-4.89647791720926761627197265625">
        <ele>28.200000762939453125</ele>
        <time>2018-09-07T07:29:48.000Z</time>
      </trkpt>
      <trkpt lat="43.43938895501196384429931640625" lon="-4.89665159024298191070556640625">
        <ele>28.3999996185302734375</ele>
        <time>2018-09-07T07:29:53.000Z</time>
      </trkpt>
      <trkpt lat="43.43926188535988330841064453125" lon="-4.89682442508637905120849609375">
        <ele>29</ele>
        <time>2018-09-07T07:29:58.000Z</time>
      </trkpt>
      <trkpt lat="43.43923187814652919769287109375" lon="-4.8969089984893798828125">
        <ele>29.200000762939453125</ele>
        <time>2018-09-07T07:30:00.000Z</time>
      </trkpt>
      <trkpt lat="43.4391530044376850128173828125" lon="-4.8970050550997257232666015625">
        <ele>29.799999237060546875</ele>
        <time>2018-09-07T07:30:03.000Z</time>
      </trkpt>
      <trkpt lat="43.43904546461999416351318359375" lon="-4.89712952636182308197021484375">
        <ele>30.200000762939453125</ele>
        <time>2018-09-07T07:30:07.000Z</time>
      </trkpt>
      <trkpt lat="43.43902383930981159210205078125" lon="-4.89716489799320697784423828125">
        <ele>30.3999996185302734375</ele>
        <time>2018-09-07T07:30:08.000Z</time>
      </trkpt>
      <trkpt lat="43.43892979435622692108154296875" lon="-4.8974093981087207794189453125">
        <ele>30.6000003814697265625</ele>
        <time>2018-09-07T07:30:14.000Z</time>
      </trkpt>
      <trkpt lat="43.4387909062206745147705078125" lon="-4.89769262261688709259033203125">
        <ele>31.200000762939453125</ele>
        <time>2018-09-07T07:30:21.000Z</time>
      </trkpt>
      <trkpt lat="43.43876014463603496551513671875" lon="-4.897771663963794708251953125">
        <ele>31.200000762939453125</ele>
        <time>2018-09-07T07:30:23.000Z</time>
      </trkpt>
      <trkpt lat="43.43873198144137859344482421875" lon="-4.897891692817211151123046875">
        <ele>31.6000003814697265625</ele>
        <time>2018-09-07T07:30:26.000Z</time>
      </trkpt>
      <trkpt lat="43.43869778327643871307373046875" lon="-4.89814021624624729156494140625">
        <ele>31.799999237060546875</ele>
        <time>2018-09-07T07:30:32.000Z</time>
      </trkpt>
      <trkpt lat="43.43876349739730358123779296875" lon="-4.8984517715871334075927734375">
        <ele>32.40000152587890625</ele>
        <time>2018-09-07T07:30:38.000Z</time>
      </trkpt>
      <trkpt lat="43.438780009746551513671875" lon="-4.898600466549396514892578125">
        <ele>33.40000152587890625</ele>
        <time>2018-09-07T07:30:41.000Z</time>
      </trkpt>
      <trkpt lat="43.4387842006981372833251953125" lon="-4.89864950068295001983642578125">
        <ele>33.799999237060546875</ele>
        <time>2018-09-07T07:30:42.000Z</time>
      </trkpt>
      <trkpt lat="43.438784368336200714111328125" lon="-4.89873717539012432098388671875">
        <ele>34.40000152587890625</ele>
        <time>2018-09-07T07:30:44.000Z</time>
      </trkpt>
      <trkpt lat="43.4387798421084880828857421875" lon="-4.89881529472768306732177734375">
        <ele>34.799999237060546875</ele>
        <time>2018-09-07T07:30:46.000Z</time>
      </trkpt>
      <trkpt lat="43.43878059647977352142333984375" lon="-4.89896046929061412811279296875">
        <ele>35.59999847412109375</ele>
        <time>2018-09-07T07:30:50.000Z</time>
      </trkpt>
      <trkpt lat="43.4387798421084880828857421875" lon="-4.8990663327276706695556640625">
        <ele>35.799999237060546875</ele>
        <time>2018-09-07T07:30:53.000Z</time>
      </trkpt>
      <trkpt lat="43.43877120874822139739990234375" lon="-4.89924746565520763397216796875">
        <ele>36</ele>
        <time>2018-09-07T07:30:56.000Z</time>
      </trkpt>
      <trkpt lat="43.4387545287609100341796875" lon="-4.89944125525653362274169921875">
        <ele>36.799999237060546875</ele>
        <time>2018-09-07T07:31:00.000Z</time>
      </trkpt>
      <trkpt lat="43.4387479908764362335205078125" lon="-4.899553991854190826416015625">
        <ele>37.40000152587890625</ele>
        <time>2018-09-07T07:31:03.000Z</time>
      </trkpt>
      <trkpt lat="43.43874840997159481048583984375" lon="-4.89961643703281879425048828125">
        <ele>38</ele>
        <time>2018-09-07T07:31:05.000Z</time>
      </trkpt>
      <trkpt lat="43.43875394202768802642822265625" lon="-4.89975155331194400787353515625">
        <ele>39</ele>
        <time>2018-09-07T07:31:09.000Z</time>
      </trkpt>
      <trkpt lat="43.43875880353152751922607421875" lon="-4.89978038705885410308837890625">
        <ele>39.40000152587890625</ele>
        <time>2018-09-07T07:31:10.000Z</time>
      </trkpt>
      <trkpt lat="43.43876735307276248931884765625" lon="-4.8998062871396541595458984375">
        <ele>40.40000152587890625</ele>
        <time>2018-09-07T07:31:11.000Z</time>
      </trkpt>
      <trkpt lat="43.43878512270748615264892578125" lon="-4.8998847417533397674560546875">
        <ele>41.200000762939453125</ele>
        <time>2018-09-07T07:31:14.000Z</time>
      </trkpt>
      <trkpt lat="43.43879266642034053802490234375" lon="-4.8999144136905670166015625">
        <ele>41.40000152587890625</ele>
        <time>2018-09-07T07:31:15.000Z</time>
      </trkpt>
      <trkpt lat="43.43882518820464611053466796875" lon="-4.900016002357006072998046875">
        <ele>42.59999847412109375</ele>
        <time>2018-09-07T07:31:19.000Z</time>
      </trkpt>
      <trkpt lat="43.43883968889713287353515625" lon="-4.90005883388221263885498046875">
        <ele>43.200000762939453125</ele>
        <time>2018-09-07T07:31:21.000Z</time>
      </trkpt>
      <trkpt lat="43.43884446658194065093994140625" lon="-4.90011834539473056793212890625">
        <ele>43.799999237060546875</ele>
        <time>2018-09-07T07:31:23.000Z</time>
      </trkpt>
      <trkpt lat="43.4388609789311885833740234375" lon="-4.90029319189488887786865234375">
        <ele>43.59999847412109375</ele>
        <time>2018-09-07T07:31:28.000Z</time>
      </trkpt>
      <trkpt lat="43.438879586756229400634765625" lon="-4.90051464177668094635009765625">
        <ele>42.799999237060546875</ele>
        <time>2018-09-07T07:31:32.000Z</time>
      </trkpt>
      <trkpt lat="43.43887967057526111602783203125" lon="-4.9005824513733386993408203125">
        <ele>42.40000152587890625</ele>
        <time>2018-09-07T07:31:33.000Z</time>
      </trkpt>
      <trkpt lat="43.4388911537826061248779296875" lon="-4.9007128737866878509521484375">
        <ele>42</ele>
        <time>2018-09-07T07:31:35.000Z</time>
      </trkpt>
      <trkpt lat="43.43889995478093624114990234375" lon="-4.9008308909833431243896484375">
        <ele>42</ele>
        <time>2018-09-07T07:31:37.000Z</time>
      </trkpt>
      <trkpt lat="43.43890448100864887237548828125" lon="-4.90094999782741069793701171875">
        <ele>41.799999237060546875</ele>
        <time>2018-09-07T07:31:39.000Z</time>
      </trkpt>
      <trkpt lat="43.43889928422868251800537109375" lon="-4.90114814601838588714599609375">
        <ele>41.200000762939453125</ele>
        <time>2018-09-07T07:31:42.000Z</time>
      </trkpt>
      <trkpt lat="43.43888805247843265533447265625" lon="-4.90129952318966388702392578125">
        <ele>40.40000152587890625</ele>
        <time>2018-09-07T07:31:44.000Z</time>
      </trkpt>
      <trkpt lat="43.43887816183269023895263671875" lon="-4.9013767205178737640380859375">
        <ele>40</ele>
        <time>2018-09-07T07:31:45.000Z</time>
      </trkpt>
      <trkpt lat="43.43886206857860088348388671875" lon="-4.90145090036094188690185546875">
        <ele>39.799999237060546875</ele>
        <time>2018-09-07T07:31:46.000Z</time>
      </trkpt>
      <trkpt lat="43.43882569111883640289306640625" lon="-4.9015959911048412322998046875">
        <ele>39.59999847412109375</ele>
        <time>2018-09-07T07:31:48.000Z</time>
      </trkpt>
      <trkpt lat="43.4387935884296894073486328125" lon="-4.90173764526844024658203125">
        <ele>39.40000152587890625</ele>
        <time>2018-09-07T07:31:50.000Z</time>
      </trkpt>
      <trkpt lat="43.43873868696391582489013671875" lon="-4.9019681476056575775146484375">
        <ele>39</ele>
        <time>2018-09-07T07:31:53.000Z</time>
      </trkpt>
      <trkpt lat="43.43869510106742382049560546875" lon="-4.902122877538204193115234375">
        <ele>38.799999237060546875</ele>
        <time>2018-09-07T07:31:55.000Z</time>
      </trkpt>
      <trkpt lat="43.4386437200009822845458984375" lon="-4.902275092899799346923828125">
        <ele>38.799999237060546875</ele>
        <time>2018-09-07T07:31:57.000Z</time>
      </trkpt>
      <trkpt lat="43.438592590391635894775390625" lon="-4.90242169238626956939697265625">
        <ele>38.799999237060546875</ele>
        <time>2018-09-07T07:31:59.000Z</time>
      </trkpt>
      <trkpt lat="43.4385236911475658416748046875" lon="-4.90262570790946483612060546875">
        <ele>38.40000152587890625</ele>
        <time>2018-09-07T07:32:02.000Z</time>
      </trkpt>
      <trkpt lat="43.4385065920650959014892578125" lon="-4.9026967026293277740478515625">
        <ele>38.40000152587890625</ele>
        <time>2018-09-07T07:32:03.000Z</time>
      </trkpt>
      <trkpt lat="43.438457809388637542724609375" lon="-4.90293047390878200531005859375">
        <ele>39.40000152587890625</ele>
        <time>2018-09-07T07:32:07.000Z</time>
      </trkpt>
      <trkpt lat="43.438448421657085418701171875" lon="-4.90302518941462039947509765625">
        <ele>40.200000762939453125</ele>
        <time>2018-09-07T07:32:09.000Z</time>
      </trkpt>
      <trkpt lat="43.43844515271484851837158203125" lon="-4.9031935818493366241455078125">
        <ele>41.200000762939453125</ele>
        <time>2018-09-07T07:32:13.000Z</time>
      </trkpt>
      <trkpt lat="43.438447751104831695556640625" lon="-4.90323037840425968170166015625">
        <ele>41.59999847412109375</ele>
        <time>2018-09-07T07:32:14.000Z</time>
      </trkpt>
      <trkpt lat="43.438471890985965728759765625" lon="-4.90336700342595577239990234375">
        <ele>42.40000152587890625</ele>
        <time>2018-09-07T07:32:18.000Z</time>
      </trkpt>
      <trkpt lat="43.43849502503871917724609375" lon="-4.9035939015448093414306640625">
        <ele>43.200000762939453125</ele>
        <time>2018-09-07T07:32:25.000Z</time>
      </trkpt>
      <trkpt lat="43.43849259428679943084716796875" lon="-4.90361007861793041229248046875">
        <ele>43.40000152587890625</ele>
        <time>2018-09-07T07:32:27.000Z</time>
      </trkpt>
      <trkpt lat="43.43850684352219104766845703125" lon="-4.903711415827274322509765625">
        <ele>43.40000152587890625</ele>
        <time>2018-09-07T07:33:16.000Z</time>
      </trkpt>
      <trkpt lat="43.43851572833955287933349609375" lon="-4.90373463369905948638916015625">
        <ele>43.40000152587890625</ele>
        <time>2018-09-07T07:33:17.000Z</time>
      </trkpt>
      <trkpt lat="43.43855126760900020599365234375" lon="-4.90381392650306224822998046875">
        <ele>43.59999847412109375</ele>
        <time>2018-09-07T07:33:21.000Z</time>
      </trkpt>
      <trkpt lat="43.43857674859464168548583984375" lon="-4.90389187820255756378173828125">
        <ele>43.40000152587890625</ele>
        <time>2018-09-07T07:34:04.000Z</time>
      </trkpt>
      <trkpt lat="43.4385828673839569091796875" lon="-4.90392507053911685943603515625">
        <ele>43.40000152587890625</ele>
        <time>2018-09-07T07:34:05.000Z</time>
      </trkpt>
      <trkpt lat="43.4386360086500644683837890625" lon="-4.90407762117683887481689453125">
        <ele>43.200000762939453125</ele>
        <time>2018-09-07T07:34:09.000Z</time>
      </trkpt>
      <trkpt lat="43.43868336640298366546630859375" lon="-4.90422899834811687469482421875">
        <ele>42.799999237060546875</ele>
        <time>2018-09-07T07:34:13.000Z</time>
      </trkpt>
      <trkpt lat="43.43869744800031185150146484375" lon="-4.9042738415300846099853515625">
        <ele>42.799999237060546875</ele>
        <time>2018-09-07T07:34:14.000Z</time>
      </trkpt>
      <trkpt lat="43.4387238509953022003173828125" lon="-4.9043546430766582489013671875">
        <ele>42.59999847412109375</ele>
        <time>2018-09-07T07:34:16.000Z</time>
      </trkpt>
      <trkpt lat="43.4387652575969696044921875" lon="-4.9044693075120449066162109375">
        <ele>42.40000152587890625</ele>
        <time>2018-09-07T07:34:19.000Z</time>
      </trkpt>
      <trkpt lat="43.4388696961104869842529296875" lon="-4.904717244207859039306640625">
        <ele>42.200000762939453125</ele>
        <time>2018-09-07T07:34:25.000Z</time>
      </trkpt>
      <trkpt lat="43.4389069117605686187744140625" lon="-4.90496576763689517974853515625">
        <ele>42.200000762939453125</ele>
        <time>2018-09-07T07:34:30.000Z</time>
      </trkpt>
      <trkpt lat="43.438907749950885772705078125" lon="-4.905013628304004669189453125">
        <ele>42.40000152587890625</ele>
        <time>2018-09-07T07:34:31.000Z</time>
      </trkpt>
      <trkpt lat="43.4389052353799343109130859375" lon="-4.905112870037555694580078125">
        <ele>42.59999847412109375</ele>
        <time>2018-09-07T07:34:33.000Z</time>
      </trkpt>
      <trkpt lat="43.438895009458065032958984375" lon="-4.905200041830539703369140625">
        <ele>43.200000762939453125</ele>
        <time>2018-09-07T07:34:35.000Z</time>
      </trkpt>
      <trkpt lat="43.4388914890587329864501953125" lon="-4.905242957174777984619140625">
        <ele>43.200000762939453125</ele>
        <time>2018-09-07T07:34:36.000Z</time>
      </trkpt>
      <trkpt lat="43.4388961829245090484619140625" lon="-4.90528310649096965789794921875">
        <ele>43.40000152587890625</ele>
        <time>2018-09-07T07:34:37.000Z</time>
      </trkpt>
      <trkpt lat="43.43890137970447540283203125" lon="-4.90537228994071483612060546875">
        <ele>44</ele>
        <time>2018-09-07T07:34:39.000Z</time>
      </trkpt>
      <trkpt lat="43.43889123760163784027099609375" lon="-4.9054634012281894683837890625">
        <ele>44.40000152587890625</ele>
        <time>2018-09-07T07:34:41.000Z</time>
      </trkpt>
      <trkpt lat="43.43889039941132068634033203125" lon="-4.90551545284688472747802734375">
        <ele>44.59999847412109375</ele>
        <time>2018-09-07T07:34:42.000Z</time>
      </trkpt>
      <trkpt lat="43.438898026943206787109375" lon="-4.905664734542369842529296875">
        <ele>44.40000152587890625</ele>
        <time>2018-09-07T07:34:45.000Z</time>
      </trkpt>
      <trkpt lat="43.4388951770961284637451171875" lon="-4.90577210672199726104736328125">
        <ele>44.799999237060546875</ele>
        <time>2018-09-07T07:34:47.000Z</time>
      </trkpt>
      <trkpt lat="43.4388958476483821868896484375" lon="-4.90581602789461612701416015625">
        <ele>44.799999237060546875</ele>
        <time>2018-09-07T07:34:48.000Z</time>
      </trkpt>
      <trkpt lat="43.43888252042233943939208984375" lon="-4.905902780592441558837890625">
        <ele>45.200000762939453125</ele>
        <time>2018-09-07T07:34:50.000Z</time>
      </trkpt>
      <trkpt lat="43.43887195922434329986572265625" lon="-4.90601752884685993194580078125">
        <ele>45.59999847412109375</ele>
        <time>2018-09-07T07:34:52.000Z</time>
      </trkpt>
      <trkpt lat="43.438875563442707061767578125" lon="-4.90611878223717212677001953125">
        <ele>45.59999847412109375</ele>
        <time>2018-09-07T07:34:54.000Z</time>
      </trkpt>
      <trkpt lat="43.43887430615723133087158203125" lon="-4.90625155158340930938720703125">
        <ele>45.59999847412109375</ele>
        <time>2018-09-07T07:34:57.000Z</time>
      </trkpt>
      <trkpt lat="43.43887983821332454681396484375" lon="-4.90653485991060733795166015625">
        <ele>45.200000762939453125</ele>
        <time>2018-09-07T07:35:03.000Z</time>
      </trkpt>
      <trkpt lat="43.4389074146747589111328125" lon="-4.9066891707479953765869140625">
        <ele>45.200000762939453125</ele>
        <time>2018-09-07T07:35:06.000Z</time>
      </trkpt>
      <trkpt lat="43.438914120197296142578125" lon="-4.9067915976047515869140625">
        <ele>45</ele>
        <time>2018-09-07T07:35:08.000Z</time>
      </trkpt>
      <trkpt lat="43.4389152936637401580810546875" lon="-4.90684323012828826904296875">
        <ele>45</ele>
        <time>2018-09-07T07:35:09.000Z</time>
      </trkpt>
      <trkpt lat="43.43893901444971561431884765625" lon="-4.9070814438164234161376953125">
        <ele>44.40000152587890625</ele>
        <time>2018-09-07T07:35:13.000Z</time>
      </trkpt>
      <trkpt lat="43.438947312533855438232421875" lon="-4.907141290605068206787109375">
        <ele>44.200000762939453125</ele>
        <time>2018-09-07T07:35:14.000Z</time>
      </trkpt>
      <trkpt lat="43.438956700265407562255859375" lon="-4.907260648906230926513671875">
        <ele>44.200000762939453125</ele>
        <time>2018-09-07T07:35:16.000Z</time>
      </trkpt>
      <trkpt lat="43.438989557325839996337890625" lon="-4.90749106742441654205322265625">
        <ele>44</ele>
        <time>2018-09-07T07:35:20.000Z</time>
      </trkpt>
      <trkpt lat="43.43903012573719024658203125" lon="-4.90775920450687408447265625">
        <ele>44.59999847412109375</ele>
        <time>2018-09-07T07:35:25.000Z</time>
      </trkpt>
      <trkpt lat="43.43906675465404987335205078125" lon="-4.907998256385326385498046875">
        <ele>44.200000762939453125</ele>
        <time>2018-09-07T07:35:29.000Z</time>
      </trkpt>
      <trkpt lat="43.4390737116336822509765625" lon="-4.908198751509189605712890625">
        <ele>44</ele>
        <time>2018-09-07T07:35:32.000Z</time>
      </trkpt>
      <trkpt lat="43.439082093536853790283203125" lon="-4.9084094725549221038818359375">
        <ele>43.40000152587890625</ele>
        <time>2018-09-07T07:35:35.000Z</time>
      </trkpt>
      <trkpt lat="43.43908670358359813690185546875" lon="-4.90848205983638763427734375">
        <ele>43.200000762939453125</ele>
        <time>2018-09-07T07:35:36.000Z</time>
      </trkpt>
      <trkpt lat="43.4390909783542156219482421875" lon="-4.9086867459118366241455078125">
        <ele>43</ele>
        <time>2018-09-07T07:35:39.000Z</time>
      </trkpt>
      <trkpt lat="43.4390859492123126983642578125" lon="-4.90875321440398693084716796875">
        <ele>42.799999237060546875</ele>
        <time>2018-09-07T07:35:40.000Z</time>
      </trkpt>
      <trkpt lat="43.43907278962433338165283203125" lon="-4.90889386273920536041259765625">
        <ele>42.40000152587890625</ele>
        <time>2018-09-07T07:35:42.000Z</time>
      </trkpt>
      <trkpt lat="43.43906365334987640380859375" lon="-4.90895689465105533599853515625">
        <ele>42.200000762939453125</ele>
        <time>2018-09-07T07:35:43.000Z</time>
      </trkpt>
      <trkpt lat="43.4390054829418659210205078125" lon="-4.90911397151648998260498046875">
        <ele>42</ele>
        <time>2018-09-07T07:35:46.000Z</time>
      </trkpt>
      <trkpt lat="43.43890632502734661102294921875" lon="-4.90930926986038684844970703125">
        <ele>41.200000762939453125</ele>
        <time>2018-09-07T07:35:50.000Z</time>
      </trkpt>
      <trkpt lat="43.43887967057526111602783203125" lon="-4.90934304893016815185546875">
        <ele>41</ele>
        <time>2018-09-07T07:35:51.000Z</time>
      </trkpt>
      <trkpt lat="43.4388365037739276885986328125" lon="-4.90939845331013202667236328125">
        <ele>41</ele>
        <time>2018-09-07T07:35:53.000Z</time>
      </trkpt>
      <trkpt lat="43.4388157166540622711181640625" lon="-4.90942887961864471435546875">
        <ele>41.200000762939453125</ele>
        <time>2018-09-07T07:35:55.000Z</time>
      </trkpt>
      <trkpt lat="43.43874237500131130218505859375" lon="-4.90959023125469684600830078125">
        <ele>41.200000762939453125</ele>
        <time>2018-09-07T07:36:03.000Z</time>
      </trkpt>
      <trkpt lat="43.4387288801372051239013671875" lon="-4.90961755625903606414794921875">
        <ele>41.200000762939453125</ele>
        <time>2018-09-07T07:36:04.000Z</time>
      </trkpt>
      <trkpt lat="43.4385810233652591705322265625" lon="-4.909814111888408660888671875">
        <ele>41.200000762939453125</ele>
        <time>2018-09-07T07:36:10.000Z</time>
      </trkpt>
      <trkpt lat="43.43840374611318111419677734375" lon="-4.9101247452199459075927734375">
        <ele>41.40000152587890625</ele>
        <time>2018-09-07T07:36:18.000Z</time>
      </trkpt>
      <trkpt lat="43.43829494901001453399658203125" lon="-4.9103614501655101776123046875">
        <ele>41.799999237060546875</ele>
        <time>2018-09-07T07:36:23.000Z</time>
      </trkpt>
      <trkpt lat="43.43827919103205204010009765625" lon="-4.910403192043304443359375">
        <ele>41.799999237060546875</ele>
        <time>2018-09-07T07:36:24.000Z</time>
      </trkpt>
      <trkpt lat="43.438238538801670074462890625" lon="-4.91049162112176418304443359375">
        <ele>42</ele>
        <time>2018-09-07T07:36:26.000Z</time>
      </trkpt>
      <trkpt lat="43.438215740025043487548828125" lon="-4.910538308322429656982421875">
        <ele>42.200000762939453125</ele>
        <time>2018-09-07T07:36:27.000Z</time>
      </trkpt>
      <trkpt lat="43.438168130815029144287109375" lon="-4.9106316827237606048583984375">
        <ele>42.59999847412109375</ele>
        <time>2018-09-07T07:36:29.000Z</time>
      </trkpt>
      <trkpt lat="43.4381458349525928497314453125" lon="-4.91068138740956783294677734375">
        <ele>42.59999847412109375</ele>
        <time>2018-09-07T07:36:30.000Z</time>
      </trkpt>
      <trkpt lat="43.43811255879700183868408203125" lon="-4.91076520644128322601318359375">
        <ele>43</ele>
        <time>2018-09-07T07:36:32.000Z</time>
      </trkpt>
      <trkpt lat="43.43809378333389759063720703125" lon="-4.9108083732426166534423828125">
        <ele>43.200000762939453125</ele>
        <time>2018-09-07T07:36:33.000Z</time>
      </trkpt>
      <trkpt lat="43.4380678832530975341796875" lon="-4.9108873307704925537109375">
        <ele>43.799999237060546875</ele>
        <time>2018-09-07T07:36:35.000Z</time>
      </trkpt>
      <trkpt lat="43.43805220909416675567626953125" lon="-4.910922534763813018798828125">
        <ele>44.200000762939453125</ele>
        <time>2018-09-07T07:36:36.000Z</time>
      </trkpt>
      <trkpt lat="43.43801784329116344451904296875" lon="-4.91099503822624683380126953125">
        <ele>44.59999847412109375</ele>
        <time>2018-09-07T07:36:38.000Z</time>
      </trkpt>
      <trkpt lat="43.43798230402171611785888671875" lon="-4.91109377704560756683349609375">
        <ele>45.200000762939453125</ele>
        <time>2018-09-07T07:36:41.000Z</time>
      </trkpt>
      <trkpt lat="43.437966965138912200927734375" lon="-4.91115245036780834197998046875">
        <ele>45.59999847412109375</ele>
        <time>2018-09-07T07:36:43.000Z</time>
      </trkpt>
      <trkpt lat="43.437943495810031890869140625" lon="-4.91124548949301242828369140625">
        <ele>46</ele>
        <time>2018-09-07T07:36:46.000Z</time>
      </trkpt>
      <trkpt lat="43.43793268315494060516357421875" lon="-4.91128186695277690887451171875">
        <ele>46.40000152587890625</ele>
        <time>2018-09-07T07:36:47.000Z</time>
      </trkpt>
      <trkpt lat="43.43791407532989978790283203125" lon="-4.9113575555384159088134765625">
        <ele>46.799999237060546875</ele>
        <time>2018-09-07T07:36:49.000Z</time>
      </trkpt>
      <trkpt lat="43.437871746718883514404296875" lon="-4.91151253692805767059326171875">
        <ele>47.59999847412109375</ele>
        <time>2018-09-07T07:36:53.000Z</time>
      </trkpt>
      <trkpt lat="43.43782313168048858642578125" lon="-4.91166005842387676239013671875">
        <ele>48</ele>
        <time>2018-09-07T07:36:57.000Z</time>
      </trkpt>
      <trkpt lat="43.437789939343929290771484375" lon="-4.91176298819482326507568359375">
        <ele>48.799999237060546875</ele>
        <time>2018-09-07T07:37:00.000Z</time>
      </trkpt>
      <trkpt lat="43.43772883526980876922607421875" lon="-4.91190765984356403350830078125">
        <ele>49.59999847412109375</ele>
        <time>2018-09-07T07:37:04.000Z</time>
      </trkpt>
      <trkpt lat="43.4377082996070384979248046875" lon="-4.91197253577411174774169921875">
        <ele>50</ele>
        <time>2018-09-07T07:37:06.000Z</time>
      </trkpt>
      <trkpt lat="43.43766261823475360870361328125" lon="-4.9121052213013172149658203125">
        <ele>50.799999237060546875</ele>
        <time>2018-09-07T07:37:11.000Z</time>
      </trkpt>
      <trkpt lat="43.4376459382474422454833984375" lon="-4.91213480941951274871826171875">
        <ele>51</ele>
        <time>2018-09-07T07:37:12.000Z</time>
      </trkpt>
      <trkpt lat="43.437588773667812347412109375" lon="-4.91229289211332798004150390625">
        <ele>51.59999847412109375</ele>
        <time>2018-09-07T07:37:17.000Z</time>
      </trkpt>
      <trkpt lat="43.437559604644775390625" lon="-4.91238408721983432769775390625">
        <ele>52.200000762939453125</ele>
        <time>2018-09-07T07:37:20.000Z</time>
      </trkpt>
      <trkpt lat="43.43750336207449436187744140625" lon="-4.9125306867063045501708984375">
        <ele>52.59999847412109375</ele>
        <time>2018-09-07T07:37:24.000Z</time>
      </trkpt>
      <trkpt lat="43.43746262602508068084716796875" lon="-4.912640489637851715087890625">
        <ele>53.200000762939453125</ele>
        <time>2018-09-07T07:37:27.000Z</time>
      </trkpt>
      <trkpt lat="43.43738769181072711944580078125" lon="-4.91280041635036468505859375">
        <ele>54.200000762939453125</ele>
        <time>2018-09-07T07:37:32.000Z</time>
      </trkpt>
      <trkpt lat="43.43737679533660411834716796875" lon="-4.912826232612133026123046875">
        <ele>54.40000152587890625</ele>
        <time>2018-09-07T07:37:33.000Z</time>
      </trkpt>
      <trkpt lat="43.43731074593961238861083984375" lon="-4.91298548877239227294921875">
        <ele>55.40000152587890625</ele>
        <time>2018-09-07T07:37:39.000Z</time>
      </trkpt>
      <trkpt lat="43.43730085529386997222900390625" lon="-4.91301155649125576019287109375">
        <ele>55.40000152587890625</ele>
        <time>2018-09-07T07:37:40.000Z</time>
      </trkpt>
      <trkpt lat="43.43724670819938182830810546875" lon="-4.91317181847989559173583984375">
        <ele>56.40000152587890625</ele>
        <time>2018-09-07T07:37:46.000Z</time>
      </trkpt>
      <trkpt lat="43.43723480589687824249267578125" lon="-4.9131995625793933868408203125">
        <ele>56.59999847412109375</ele>
        <time>2018-09-07T07:37:47.000Z</time>
      </trkpt>
      <trkpt lat="43.4371644817292690277099609375" lon="-4.91337650455534458160400390625">
        <ele>57.40000152587890625</ele>
        <time>2018-09-07T07:37:53.000Z</time>
      </trkpt>
      <trkpt lat="43.4371571056544780731201171875" lon="-4.91340332664549350738525390625">
        <ele>57.59999847412109375</ele>
        <time>2018-09-07T07:37:54.000Z</time>
      </trkpt>
      <trkpt lat="43.437066413462162017822265625" lon="-4.91358487866818904876708984375">
        <ele>58.59999847412109375</ele>
        <time>2018-09-07T07:38:00.000Z</time>
      </trkpt>
      <trkpt lat="43.4370035491883754730224609375" lon="-4.91374664939939975738525390625">
        <ele>59.40000152587890625</ele>
        <time>2018-09-07T07:38:05.000Z</time>
      </trkpt>
      <trkpt lat="43.43697194941341876983642578125" lon="-4.91384924389421939849853515625">
        <ele>59.59999847412109375</ele>
        <time>2018-09-07T07:38:08.000Z</time>
      </trkpt>
      <trkpt lat="43.43691386282444000244140625" lon="-4.913955442607402801513671875">
        <ele>59.799999237060546875</ele>
        <time>2018-09-07T07:38:11.000Z</time>
      </trkpt>
      <trkpt lat="43.43681864440441131591796875" lon="-4.914108999073505401611328125">
        <ele>60</ele>
        <time>2018-09-07T07:38:15.000Z</time>
      </trkpt>
      <trkpt lat="43.43674379400908946990966796875" lon="-4.91422877646982669830322265625">
        <ele>60</ele>
        <time>2018-09-07T07:38:18.000Z</time>
      </trkpt>
      <trkpt lat="43.436674140393733978271484375" lon="-4.914351738989353179931640625">
        <ele>60</ele>
        <time>2018-09-07T07:38:21.000Z</time>
      </trkpt>
      <trkpt lat="43.436605744063854217529296875" lon="-4.9145041219890117645263671875">
        <ele>59.59999847412109375</ele>
        <time>2018-09-07T07:38:24.000Z</time>
      </trkpt>
      <trkpt lat="43.4365157224237918853759765625" lon="-4.914714507758617401123046875">
        <ele>59.40000152587890625</ele>
        <time>2018-09-07T07:38:28.000Z</time>
      </trkpt>
      <trkpt lat="43.43647372908890247344970703125" lon="-4.91481802426278591156005859375">
        <ele>59.200000762939453125</ele>
        <time>2018-09-07T07:38:30.000Z</time>
      </trkpt>
      <trkpt lat="43.43645512126386165618896484375" lon="-4.91487585939466953277587890625">
        <ele>59.200000762939453125</ele>
        <time>2018-09-07T07:38:31.000Z</time>
      </trkpt>
      <trkpt lat="43.43641698360443115234375" lon="-4.91499823518097400665283203125">
        <ele>59.200000762939453125</ele>
        <time>2018-09-07T07:38:33.000Z</time>
      </trkpt>
      <trkpt lat="43.43637499026954174041748046875" lon="-4.91512681357562541961669921875">
        <ele>58.799999237060546875</ele>
        <time>2018-09-07T07:38:35.000Z</time>
      </trkpt>
      <trkpt lat="43.436340205371379852294921875" lon="-4.91526268422603607177734375">
        <ele>58.40000152587890625</ele>
        <time>2018-09-07T07:38:37.000Z</time>
      </trkpt>
      <trkpt lat="43.43626803718507289886474609375" lon="-4.91555026732385158538818359375">
        <ele>57.799999237060546875</ele>
        <time>2018-09-07T07:38:42.000Z</time>
      </trkpt>
      <trkpt lat="43.43621891923248767852783203125" lon="-4.915806166827678680419921875">
        <ele>57.799999237060546875</ele>
        <time>2018-09-07T07:38:47.000Z</time>
      </trkpt>
      <trkpt lat="43.4362106211483478546142578125" lon="-4.91586358286440372467041015625">
        <ele>57.799999237060546875</ele>
        <time>2018-09-07T07:38:48.000Z</time>
      </trkpt>
      <trkpt lat="43.436179943382740020751953125" lon="-4.91617061197757720947265625">
        <ele>57.40000152587890625</ele>
        <time>2018-09-07T07:38:53.000Z</time>
      </trkpt>
      <trkpt lat="43.43617851845920085906982421875" lon="-4.9162361584603786468505859375">
        <ele>57.40000152587890625</ele>
        <time>2018-09-07T07:38:54.000Z</time>
      </trkpt>
      <trkpt lat="43.43615270219743251800537109375" lon="-4.9167023599147796630859375">
        <ele>57.200000762939453125</ele>
        <time>2018-09-07T07:39:01.000Z</time>
      </trkpt>
      <trkpt lat="43.436130993068218231201171875" lon="-4.91709488444030284881591796875">
        <ele>57</ele>
        <time>2018-09-07T07:39:07.000Z</time>
      </trkpt>
      <trkpt lat="43.43610978685319423675537109375" lon="-4.9175796099007129669189453125">
        <ele>56.799999237060546875</ele>
        <time>2018-09-07T07:39:14.000Z</time>
      </trkpt>
      <trkpt lat="43.43608346767723560333251953125" lon="-4.91796140559017658233642578125">
        <ele>57.59999847412109375</ele>
        <time>2018-09-07T07:39:20.000Z</time>
      </trkpt>
      <trkpt lat="43.436077348887920379638671875" lon="-4.91809467785060405731201171875">
        <ele>57.799999237060546875</ele>
        <time>2018-09-07T07:39:22.000Z</time>
      </trkpt>
      <trkpt lat="43.4360734932124614715576171875" lon="-4.91821873001754283905029296875">
        <ele>58.200000762939453125</ele>
        <time>2018-09-07T07:39:24.000Z</time>
      </trkpt>
      <trkpt lat="43.4360704757273197174072265625" lon="-4.9182800017297267913818359375">
        <ele>58.40000152587890625</ele>
        <time>2018-09-07T07:39:26.000Z</time>
      </trkpt>
      <trkpt lat="43.4360694698989391326904296875" lon="-4.91840128786861896514892578125">
        <ele>59</ele>
        <time>2018-09-07T07:39:28.000Z</time>
      </trkpt>
      <trkpt lat="43.436057567596435546875" lon="-4.91857278160750865936279296875">
        <ele>59.59999847412109375</ele>
        <time>2018-09-07T07:39:31.000Z</time>
      </trkpt>
      <trkpt lat="43.43604776076972484588623046875" lon="-4.91872080601751804351806640625">
        <ele>60.200000762939453125</ele>
        <time>2018-09-07T07:39:34.000Z</time>
      </trkpt>
      <trkpt lat="43.43604507856070995330810546875" lon="-4.918819963932037353515625">
        <ele>60.59999847412109375</ele>
        <time>2018-09-07T07:39:36.000Z</time>
      </trkpt>
      <trkpt lat="43.43603870831429958343505859375" lon="-4.91900612600147724151611328125">
        <ele>61.59999847412109375</ele>
        <time>2018-09-07T07:39:40.000Z</time>
      </trkpt>
      <trkpt lat="43.436037115752696990966796875" lon="-4.9190538190305233001708984375">
        <ele>61.799999237060546875</ele>
        <time>2018-09-07T07:39:41.000Z</time>
      </trkpt>
      <trkpt lat="43.4360349364578723907470703125" lon="-4.9192248098552227020263671875">
        <ele>62.200000762939453125</ele>
        <time>2018-09-07T07:39:45.000Z</time>
      </trkpt>
      <trkpt lat="43.43603854067623615264892578125" lon="-4.919270239770412445068359375">
        <ele>62.200000762939453125</ele>
        <time>2018-09-07T07:39:46.000Z</time>
      </trkpt>
      <trkpt lat="43.43605848960578441619873046875" lon="-4.919468723237514495849609375">
        <ele>62.799999237060546875</ele>
        <time>2018-09-07T07:39:50.000Z</time>
      </trkpt>
      <trkpt lat="43.436076007783412933349609375" lon="-4.9196251295506954193115234375">
        <ele>63.200000762939453125</ele>
        <time>2018-09-07T07:39:53.000Z</time>
      </trkpt>
      <trkpt lat="43.43608397059142589569091796875" lon="-4.91983258165419101715087890625">
        <ele>63.799999237060546875</ele>
        <time>2018-09-07T07:39:57.000Z</time>
      </trkpt>
      <trkpt lat="43.4360902570188045501708984375" lon="-4.9199986271560192108154296875">
        <ele>64.40000152587890625</ele>
        <time>2018-09-07T07:40:01.000Z</time>
      </trkpt>
      <trkpt lat="43.436091430485248565673828125" lon="-4.92014002986252307891845703125">
        <ele>64</ele>
        <time>2018-09-07T07:40:04.000Z</time>
      </trkpt>
      <trkpt lat="43.436096124351024627685546875" lon="-4.92023952305316925048828125">
        <ele>63.40000152587890625</ele>
        <time>2018-09-07T07:40:06.000Z</time>
      </trkpt>
      <trkpt lat="43.4360972978174686431884765625" lon="-4.92028377950191497802734375">
        <ele>63.200000762939453125</ele>
        <time>2018-09-07T07:40:07.000Z</time>
      </trkpt>
      <trkpt lat="43.43611598946154117584228515625" lon="-4.9205038882791996002197265625">
        <ele>63</ele>
        <time>2018-09-07T07:40:12.000Z</time>
      </trkpt>
      <trkpt lat="43.4361187554895877838134765625" lon="-4.920555688440799713134765625">
        <ele>63</ele>
        <time>2018-09-07T07:40:13.000Z</time>
      </trkpt>
      <trkpt lat="43.4361157380044460296630859375" lon="-4.9206076562404632568359375">
        <ele>62.799999237060546875</ele>
        <time>2018-09-07T07:40:14.000Z</time>
      </trkpt>
      <trkpt lat="43.43608983792364597320556640625" lon="-4.92086925543844699859619140625">
        <ele>61.59999847412109375</ele>
        <time>2018-09-07T07:40:18.000Z</time>
      </trkpt>
      <trkpt lat="43.43606603331863880157470703125" lon="-4.92110587656497955322265625">
        <ele>60.40000152587890625</ele>
        <time>2018-09-07T07:40:21.000Z</time>
      </trkpt>
      <trkpt lat="43.43602479435503482818603515625" lon="-4.92135188542306423187255859375">
        <ele>59.200000762939453125</ele>
        <time>2018-09-07T07:40:24.000Z</time>
      </trkpt>
      <trkpt lat="43.436011634767055511474609375" lon="-4.9214349500834941864013671875">
        <ele>58.40000152587890625</ele>
        <time>2018-09-07T07:40:25.000Z</time>
      </trkpt>
      <trkpt lat="43.43598070554435253143310546875" lon="-4.92159546352922916412353515625">
        <ele>58</ele>
        <time>2018-09-07T07:40:27.000Z</time>
      </trkpt>
      <trkpt lat="43.4359140694141387939453125" lon="-4.92183049209415912628173828125">
        <ele>56.59999847412109375</ele>
        <time>2018-09-07T07:40:30.000Z</time>
      </trkpt>
      <trkpt lat="43.43588179908692836761474609375" lon="-4.92191062308847904205322265625">
        <ele>55.799999237060546875</ele>
        <time>2018-09-07T07:40:31.000Z</time>
      </trkpt>
      <trkpt lat="43.43584273941814899444580078125" lon="-4.9219943583011627197265625">
        <ele>55</ele>
        <time>2018-09-07T07:40:32.000Z</time>
      </trkpt>
      <trkpt lat="43.4357496164739131927490234375" lon="-4.92216375656425952911376953125">
        <ele>53.59999847412109375</ele>
        <time>2018-09-07T07:40:34.000Z</time>
      </trkpt>
      <trkpt lat="43.435650877654552459716796875" lon="-4.92233156226575374603271484375">
        <ele>52.59999847412109375</ele>
        <time>2018-09-07T07:40:36.000Z</time>
      </trkpt>
      <trkpt lat="43.4355450980365276336669921875" lon="-4.9225031398236751556396484375">
        <ele>51.59999847412109375</ele>
        <time>2018-09-07T07:40:38.000Z</time>
      </trkpt>
      <trkpt lat="43.4354438446462154388427734375" lon="-4.9226959235966205596923828125">
        <ele>50.799999237060546875</ele>
        <time>2018-09-07T07:40:40.000Z</time>
      </trkpt>
      <trkpt lat="43.43539816327393054962158203125" lon="-4.92280346341431140899658203125">
        <ele>50.799999237060546875</ele>
        <time>2018-09-07T07:40:41.000Z</time>
      </trkpt>
      <trkpt lat="43.43536731787025928497314453125" lon="-4.9229172058403491973876953125">
        <ele>50.40000152587890625</ele>
        <time>2018-09-07T07:40:42.000Z</time>
      </trkpt>
      <trkpt lat="43.43532239086925983428955078125" lon="-4.92314108647406101226806640625">
        <ele>49.59999847412109375</ele>
        <time>2018-09-07T07:40:44.000Z</time>
      </trkpt>
      <trkpt lat="43.43531451188027858734130859375" lon="-4.92324971593916416168212890625">
        <ele>49.40000152587890625</ele>
        <time>2018-09-07T07:40:45.000Z</time>
      </trkpt>
      <trkpt lat="43.43530780635774135589599609375" lon="-4.92335759103298187255859375">
        <ele>49.200000762939453125</ele>
        <time>2018-09-07T07:40:46.000Z</time>
      </trkpt>
      <trkpt lat="43.43531216494739055633544921875" lon="-4.92345943115651607513427734375">
        <ele>49.200000762939453125</ele>
        <time>2018-09-07T07:40:47.000Z</time>
      </trkpt>
      <trkpt lat="43.43531551770865917205810546875" lon="-4.92355833761394023895263671875">
        <ele>49.200000762939453125</ele>
        <time>2018-09-07T07:40:48.000Z</time>
      </trkpt>
      <trkpt lat="43.43533295206725597381591796875" lon="-4.9238204397261142730712890625">
        <ele>50.40000152587890625</ele>
        <time>2018-09-07T07:40:51.000Z</time>
      </trkpt>
      <trkpt lat="43.43534317798912525177001953125" lon="-4.92389805614948272705078125">
        <ele>50.799999237060546875</ele>
        <time>2018-09-07T07:40:52.000Z</time>
      </trkpt>
      <trkpt lat="43.43535072170197963714599609375" lon="-4.9239642731845378875732421875">
        <ele>51.40000152587890625</ele>
        <time>2018-09-07T07:40:53.000Z</time>
      </trkpt>
      <trkpt lat="43.435359187424182891845703125" lon="-4.92402277886867523193359375">
        <ele>51.799999237060546875</ele>
        <time>2018-09-07T07:40:54.000Z</time>
      </trkpt>
      <trkpt lat="43.43539162538945674896240234375" lon="-4.9242630042135715484619140625">
        <ele>52.200000762939453125</ele>
        <time>2018-09-07T07:40:58.000Z</time>
      </trkpt>
      <trkpt lat="43.43543118797242641448974609375" lon="-4.9245516769587993621826171875">
        <ele>51.200000762939453125</ele>
        <time>2018-09-07T07:41:02.000Z</time>
      </trkpt>
      <trkpt lat="43.435446359217166900634765625" lon="-4.92461957037448883056640625">
        <ele>51.40000152587890625</ele>
        <time>2018-09-07T07:41:03.000Z</time>
      </trkpt>
      <trkpt lat="43.435463793575763702392578125" lon="-4.92474353872239589691162109375">
        <ele>52</ele>
        <time>2018-09-07T07:41:05.000Z</time>
      </trkpt>
      <trkpt lat="43.435475863516330718994140625" lon="-4.9249204806983470916748046875">
        <ele>52.59999847412109375</ele>
        <time>2018-09-07T07:41:08.000Z</time>
      </trkpt>
      <trkpt lat="43.43548298813402652740478515625" lon="-4.92497035302221775054931640625">
        <ele>53</ele>
        <time>2018-09-07T07:41:09.000Z</time>
      </trkpt>
      <trkpt lat="43.43550561927258968353271484375" lon="-4.9250400066375732421875">
        <ele>54</ele>
        <time>2018-09-07T07:41:11.000Z</time>
      </trkpt>
      <trkpt lat="43.4355115704238414764404296875" lon="-4.9250663258135318756103515625">
        <ele>54.40000152587890625</ele>
        <time>2018-09-07T07:41:12.000Z</time>
      </trkpt>
      <trkpt lat="43.435521461069583892822265625" lon="-4.9251199699938297271728515625">
        <ele>55.200000762939453125</ele>
        <time>2018-09-07T07:41:14.000Z</time>
      </trkpt>
      <trkpt lat="43.43552808277308940887451171875" lon="-4.92514126002788543701171875">
        <ele>55.59999847412109375</ele>
        <time>2018-09-07T07:41:15.000Z</time>
      </trkpt>
      <trkpt lat="43.4355397336184978485107421875" lon="-4.9251803196966648101806640625">
        <ele>55.799999237060546875</ele>
        <time>2018-09-07T07:41:17.000Z</time>
      </trkpt>
      <trkpt lat="43.43554853461682796478271484375" lon="-4.92522181011736392974853515625">
        <ele>56.200000762939453125</ele>
        <time>2018-09-07T07:41:19.000Z</time>
      </trkpt>
      <trkpt lat="43.43554819934070110321044921875" lon="-4.9252819083631038665771484375">
        <ele>56.59999847412109375</ele>
        <time>2018-09-07T07:41:22.000Z</time>
      </trkpt>
      <trkpt lat="43.43555741943418979644775390625" lon="-4.925340749323368072509765625">
        <ele>57.200000762939453125</ele>
        <time>2018-09-07T07:41:25.000Z</time>
      </trkpt>
      <trkpt lat="43.4355940483510494232177734375" lon="-4.9254341237246990203857421875">
        <ele>57.799999237060546875</ele>
        <time>2018-09-07T07:41:29.000Z</time>
      </trkpt>
      <trkpt lat="43.4356098063290119171142578125" lon="-4.9254733510315418243408203125">
        <ele>58.200000762939453125</ele>
        <time>2018-09-07T07:41:31.000Z</time>
      </trkpt>
      <trkpt lat="43.43563687987625598907470703125" lon="-4.92554719559848308563232421875">
        <ele>59</ele>
        <time>2018-09-07T07:41:35.000Z</time>
      </trkpt>
      <trkpt lat="43.43565523624420166015625" lon="-4.925653897225856781005859375">
        <ele>59.799999237060546875</ele>
        <time>2018-09-07T07:41:40.000Z</time>
      </trkpt>
      <trkpt lat="43.43565682880580425262451171875" lon="-4.925674013793468475341796875">
        <ele>60</ele>
        <time>2018-09-07T07:41:41.000Z</time>
      </trkpt>
      <trkpt lat="43.43566420488059520721435546875" lon="-4.92578524164855480194091796875">
        <ele>61.200000762939453125</ele>
        <time>2018-09-07T07:41:47.000Z</time>
      </trkpt>
      <trkpt lat="43.435668312013149261474609375" lon="-4.92593251168727874755859375">
        <ele>62.200000762939453125</ele>
        <time>2018-09-07T07:41:55.000Z</time>
      </trkpt>
      <trkpt lat="43.43566621653735637664794921875" lon="-4.9262283928692340850830078125">
        <ele>64</ele>
        <time>2018-09-07T07:42:06.000Z</time>
      </trkpt>
      <trkpt lat="43.43567107804119586944580078125" lon="-4.9262954480946063995361328125">
        <ele>64.1999969482421875</ele>
        <time>2018-09-07T07:42:08.000Z</time>
      </trkpt>
      <trkpt lat="43.43565448187291622161865234375" lon="-4.92680582217872142791748046875">
        <ele>67.40000152587890625</ele>
        <time>2018-09-07T07:42:26.000Z</time>
      </trkpt>
      <trkpt lat="43.43565448187291622161865234375" lon="-4.9268687702715396881103515625">
        <ele>67.8000030517578125</ele>
        <time>2018-09-07T07:42:28.000Z</time>
      </trkpt>
      <trkpt lat="43.43567275442183017730712890625" lon="-4.9269773997366428375244140625">
        <ele>68.40000152587890625</ele>
        <time>2018-09-07T07:42:32.000Z</time>
      </trkpt>
      <trkpt lat="43.4356694854795932769775390625" lon="-4.92704168893396854400634765625">
        <ele>69</ele>
        <time>2018-09-07T07:42:34.000Z</time>
      </trkpt>
      <trkpt lat="43.435658924281597137451171875" lon="-4.92717680521309375762939453125">
        <ele>69.59999847412109375</ele>
        <time>2018-09-07T07:42:39.000Z</time>
      </trkpt>
      <trkpt lat="43.435662277042865753173828125" lon="-4.92723598144948482513427734375">
        <ele>70</ele>
        <time>2018-09-07T07:42:41.000Z</time>
      </trkpt>
      <trkpt lat="43.43562950380146503448486328125" lon="-4.92742113769054412841796875">
        <ele>70.59999847412109375</ele>
        <time>2018-09-07T07:42:47.000Z</time>
      </trkpt>
      <trkpt lat="43.43562279827892780303955078125" lon="-4.9274565093219280242919921875">
        <ele>70.8000030517578125</ele>
        <time>2018-09-07T07:42:48.000Z</time>
      </trkpt>
      <trkpt lat="43.4356056153774261474609375" lon="-4.927676618099212646484375">
        <ele>71.40000152587890625</ele>
        <time>2018-09-07T07:42:54.000Z</time>
      </trkpt>
      <trkpt lat="43.43561508692800998687744140625" lon="-4.9278712458908557891845703125">
        <ele>71.59999847412109375</ele>
        <time>2018-09-07T07:43:00.000Z</time>
      </trkpt>
      <trkpt lat="43.435616008937358856201171875" lon="-4.92815346457064151763916015625">
        <ele>72.40000152587890625</ele>
        <time>2018-09-07T07:43:08.000Z</time>
      </trkpt>
      <trkpt lat="43.43560385517776012420654296875" lon="-4.92829880677163600921630859375">
        <ele>72.8000030517578125</ele>
        <time>2018-09-07T07:43:12.000Z</time>
      </trkpt>
      <trkpt lat="43.4355977363884449005126953125" lon="-4.92840626277029514312744140625">
        <ele>73.1999969482421875</ele>
        <time>2018-09-07T07:43:15.000Z</time>
      </trkpt>
      <trkpt lat="43.43558826483786106109619140625" lon="-4.9285438098013401031494140625">
        <ele>73.40000152587890625</ele>
        <time>2018-09-07T07:43:19.000Z</time>
      </trkpt>
      <trkpt lat="43.4355860017240047454833984375" lon="-4.928670711815357208251953125">
        <ele>73.8000030517578125</ele>
        <time>2018-09-07T07:43:23.000Z</time>
      </trkpt>
      <trkpt lat="43.435569740831851959228515625" lon="-4.92891387082636356353759765625">
        <ele>74.40000152587890625</ele>
        <time>2018-09-07T07:43:31.000Z</time>
      </trkpt>
      <trkpt lat="43.43555876053869724273681640625" lon="-4.9290825985372066497802734375">
        <ele>75</ele>
        <time>2018-09-07T07:43:37.000Z</time>
      </trkpt>
      <trkpt lat="43.4355538152158260345458984375" lon="-4.92914236150681972503662109375">
        <ele>75</ele>
        <time>2018-09-07T07:43:39.000Z</time>
      </trkpt>
      <trkpt lat="43.4355504624545574188232421875" lon="-4.9292095005512237548828125">
        <ele>75.1999969482421875</ele>
        <time>2018-09-07T07:43:41.000Z</time>
      </trkpt>
      <trkpt lat="43.4355434216558933258056640625" lon="-4.929311759769916534423828125">
        <ele>75.40000152587890625</ele>
        <time>2018-09-07T07:43:44.000Z</time>
      </trkpt>
      <trkpt lat="43.435546942055225372314453125" lon="-4.9293370731174945831298828125">
        <ele>75.59999847412109375</ele>
        <time>2018-09-07T07:43:45.000Z</time>
      </trkpt>
      <trkpt lat="43.43554618768393993377685546875" lon="-4.92949758656322956085205078125">
        <ele>75.40000152587890625</ele>
        <time>2018-09-07T07:43:50.000Z</time>
      </trkpt>
      <trkpt lat="43.43554082326591014862060546875" lon="-4.929579980671405792236328125">
        <ele>75</ele>
        <time>2018-09-07T07:43:52.000Z</time>
      </trkpt>
      <trkpt lat="43.43550360761582851409912109375" lon="-4.9299010075628757476806640625">
        <ele>75.1999969482421875</ele>
        <time>2018-09-07T07:43:58.000Z</time>
      </trkpt>
      <trkpt lat="43.43547527678310871124267578125" lon="-4.93015925399959087371826171875">
        <ele>76</ele>
        <time>2018-09-07T07:44:04.000Z</time>
      </trkpt>
      <trkpt lat="43.43547326512634754180908203125" lon="-4.93020401336252689361572265625">
        <ele>76</ele>
        <time>2018-09-07T07:44:05.000Z</time>
      </trkpt>
      <trkpt lat="43.4354938007891178131103515625" lon="-4.930432923138141632080078125">
        <ele>76.1999969482421875</ele>
        <time>2018-09-07T07:44:11.000Z</time>
      </trkpt>
      <trkpt lat="43.43549639917910099029541015625" lon="-4.93054767139256000518798828125">
        <ele>76</ele>
        <time>2018-09-07T07:44:13.000Z</time>
      </trkpt>
      <trkpt lat="43.435513079166412353515625" lon="-4.93073006160557270050048828125">
        <ele>75.59999847412109375</ele>
        <time>2018-09-07T07:44:16.000Z</time>
      </trkpt>
      <trkpt lat="43.435528166592121124267578125" lon="-4.93086115457117557525634765625">
        <ele>75</ele>
        <time>2018-09-07T07:44:18.000Z</time>
      </trkpt>
      <trkpt lat="43.435533531010150909423828125" lon="-4.93110875599086284637451171875">
        <ele>74.8000030517578125</ele>
        <time>2018-09-07T07:44:21.000Z</time>
      </trkpt>
      <trkpt lat="43.43553260900080204010009765625" lon="-4.9311965145170688629150390625">
        <ele>74.59999847412109375</ele>
        <time>2018-09-07T07:44:22.000Z</time>
      </trkpt>
      <trkpt lat="43.43551198951900005340576171875" lon="-4.9314737878739833831787109375">
        <ele>73.59999847412109375</ele>
        <time>2018-09-07T07:44:25.000Z</time>
      </trkpt>
      <trkpt lat="43.4355103969573974609375" lon="-4.93162826634943485260009765625">
        <ele>73.1999969482421875</ele>
        <time>2018-09-07T07:44:27.000Z</time>
      </trkpt>
      <trkpt lat="43.43551240861415863037109375" lon="-4.9317683279514312744140625">
        <ele>73</ele>
        <time>2018-09-07T07:44:29.000Z</time>
      </trkpt>
      <trkpt lat="43.4355165995657444000244140625" lon="-4.93193923495709896087646484375">
        <ele>72.40000152587890625</ele>
        <time>2018-09-07T07:44:31.000Z</time>
      </trkpt>
      <trkpt lat="43.4355229698121547698974609375" lon="-4.93210569955408573150634765625">
        <ele>71.8000030517578125</ele>
        <time>2018-09-07T07:44:33.000Z</time>
      </trkpt>
      <trkpt lat="43.4355353750288486480712890625" lon="-4.93226110003888607025146484375">
        <ele>71.40000152587890625</ele>
        <time>2018-09-07T07:44:35.000Z</time>
      </trkpt>
      <trkpt lat="43.435601927340030670166015625" lon="-4.9326157383620738983154296875">
        <ele>70.1999969482421875</ele>
        <time>2018-09-07T07:44:39.000Z</time>
      </trkpt>
      <trkpt lat="43.435628749430179595947265625" lon="-4.93271305225789546966552734375">
        <ele>70</ele>
        <time>2018-09-07T07:44:40.000Z</time>
      </trkpt>
      <trkpt lat="43.43570074997842311859130859375" lon="-4.93291673250496387481689453125">
        <ele>68.8000030517578125</ele>
        <time>2018-09-07T07:44:42.000Z</time>
      </trkpt>
      <trkpt lat="43.43578171916306018829345703125" lon="-4.933113120496273040771484375">
        <ele>67.40000152587890625</ele>
        <time>2018-09-07T07:44:44.000Z</time>
      </trkpt>
      <trkpt lat="43.435824215412139892578125" lon="-4.93321009911596775054931640625">
        <ele>66.8000030517578125</ele>
        <time>2018-09-07T07:44:45.000Z</time>
      </trkpt>
      <trkpt lat="43.4358716569840908050537109375" lon="-4.9333060719072818756103515625">
        <ele>66.40000152587890625</ele>
        <time>2018-09-07T07:44:46.000Z</time>
      </trkpt>
      <trkpt lat="43.4359762631356716156005859375" lon="-4.9334894679486751556396484375">
        <ele>65</ele>
        <time>2018-09-07T07:44:48.000Z</time>
      </trkpt>
      <trkpt lat="43.436025716364383697509765625" lon="-4.93358175270259380340576171875">
        <ele>64</ele>
        <time>2018-09-07T07:44:49.000Z</time>
      </trkpt>
      <trkpt lat="43.43612621538341045379638671875" lon="-4.93377788923680782318115234375">
        <ele>63</ele>
        <time>2018-09-07T07:44:51.000Z</time>
      </trkpt>
      <trkpt lat="43.4361780993640422821044921875" lon="-4.9338780529797077178955078125">
        <ele>62</ele>
        <time>2018-09-07T07:44:52.000Z</time>
      </trkpt>
      <trkpt lat="43.43628882430493831634521484375" lon="-4.9340802244842052459716796875">
        <ele>60.59999847412109375</ele>
        <time>2018-09-07T07:44:54.000Z</time>
      </trkpt>
      <trkpt lat="43.43640156090259552001953125" lon="-4.93428281508386135101318359375">
        <ele>59.59999847412109375</ele>
        <time>2018-09-07T07:44:56.000Z</time>
      </trkpt>
      <trkpt lat="43.4364550374448299407958984375" lon="-4.93437870405614376068115234375">
        <ele>59.200000762939453125</ele>
        <time>2018-09-07T07:44:57.000Z</time>
      </trkpt>
      <trkpt lat="43.4365043230354785919189453125" lon="-4.9344731681048870086669921875">
        <ele>58.40000152587890625</ele>
        <time>2018-09-07T07:44:58.000Z</time>
      </trkpt>
      <trkpt lat="43.43655453063547611236572265625" lon="-4.9345633573830127716064453125">
        <ele>58</ele>
        <time>2018-09-07T07:44:59.000Z</time>
      </trkpt>
      <trkpt lat="43.43669098801910877227783203125" lon="-4.93484792299568653106689453125">
        <ele>56.40000152587890625</ele>
        <time>2018-09-07T07:45:02.000Z</time>
      </trkpt>
      <trkpt lat="43.436778746545314788818359375" lon="-4.93501774035394191741943359375">
        <ele>55.59999847412109375</ele>
        <time>2018-09-07T07:45:04.000Z</time>
      </trkpt>
      <trkpt lat="43.4368235059082508087158203125" lon="-4.93509502150118350982666015625">
        <ele>55.40000152587890625</ele>
        <time>2018-09-07T07:45:05.000Z</time>
      </trkpt>
      <trkpt lat="43.4369576163589954376220703125" lon="-4.93534027598798274993896484375">
        <ele>53.59999847412109375</ele>
        <time>2018-09-07T07:45:08.000Z</time>
      </trkpt>
      <trkpt lat="43.4370588697493076324462890625" lon="-4.93550456129014492034912109375">
        <ele>52.40000152587890625</ele>
        <time>2018-09-07T07:45:10.000Z</time>
      </trkpt>
      <trkpt lat="43.43710958026349544525146484375" lon="-4.93558309972286224365234375">
        <ele>52.200000762939453125</ele>
        <time>2018-09-07T07:45:11.000Z</time>
      </trkpt>
      <trkpt lat="43.43722944147884845733642578125" lon="-4.93575735948979854583740234375">
        <ele>51.40000152587890625</ele>
        <time>2018-09-07T07:45:14.000Z</time>
      </trkpt>
      <trkpt lat="43.4372576884925365447998046875" lon="-4.93580169975757598876953125">
        <ele>51.200000762939453125</ele>
        <time>2018-09-07T07:45:15.000Z</time>
      </trkpt>
      <trkpt lat="43.4373465366661548614501953125" lon="-4.93588442914187908172607421875">
        <ele>51.40000152587890625</ele>
        <time>2018-09-07T07:45:19.000Z</time>
      </trkpt>
      <trkpt lat="43.43750797212123870849609375" lon="-4.93595902808010578155517578125">
        <ele>51</ele>
        <time>2018-09-07T07:45:24.000Z</time>
      </trkpt>
      <trkpt lat="43.43765809200704097747802734375" lon="-4.9360358901321887969970703125">
        <ele>50.799999237060546875</ele>
        <time>2018-09-07T07:45:29.000Z</time>
      </trkpt>
      <trkpt lat="43.43765205703675746917724609375" lon="-4.93621132336556911468505859375">
        <ele>50.59999847412109375</ele>
        <time>2018-09-07T07:45:33.000Z</time>
      </trkpt>
      <trkpt lat="43.43765155412256717681884765625" lon="-4.9362806417047977447509765625">
        <ele>50.200000762939453125</ele>
        <time>2018-09-07T07:45:35.000Z</time>
      </trkpt>
      <trkpt lat="43.43764149583876132965087890625" lon="-4.936370663344860076904296875">
        <ele>49.799999237060546875</ele>
        <time>2018-09-07T07:45:38.000Z</time>
      </trkpt>
      <trkpt lat="43.4376221336424350738525390625" lon="-4.936501085758209228515625">
        <ele>49.200000762939453125</ele>
        <time>2018-09-07T07:45:41.000Z</time>
      </trkpt>
      <trkpt lat="43.437608890235424041748046875" lon="-4.93660242296755313873291015625">
        <ele>49</ele>
        <time>2018-09-07T07:45:43.000Z</time>
      </trkpt>
      <trkpt lat="43.4375728480517864227294921875" lon="-4.9368757568299770355224609375">
        <ele>48</ele>
        <time>2018-09-07T07:45:48.000Z</time>
      </trkpt>
      <trkpt lat="43.43757963739335536956787109375" lon="-4.9369932711124420166015625">
        <ele>47.799999237060546875</ele>
        <time>2018-09-07T07:45:50.000Z</time>
      </trkpt>
      <trkpt lat="43.43761718831956386566162109375" lon="-4.93718630634248256683349609375">
        <ele>46.799999237060546875</ele>
        <time>2018-09-07T07:45:53.000Z</time>
      </trkpt>
      <trkpt lat="43.437648117542266845703125" lon="-4.93731991387903690338134765625">
        <ele>46.200000762939453125</ele>
        <time>2018-09-07T07:45:55.000Z</time>
      </trkpt>
      <trkpt lat="43.437676616013050079345703125" lon="-4.93744312785565853118896484375">
        <ele>45.799999237060546875</ele>
        <time>2018-09-07T07:45:57.000Z</time>
      </trkpt>
      <trkpt lat="43.43768843449652194976806640625" lon="-4.9375064112246036529541015625">
        <ele>45.59999847412109375</ele>
        <time>2018-09-07T07:45:58.000Z</time>
      </trkpt>
      <trkpt lat="43.43774576671421527862548828125" lon="-4.93770816363394260406494140625">
        <ele>44.40000152587890625</ele>
        <time>2018-09-07T07:46:01.000Z</time>
      </trkpt>
      <trkpt lat="43.437793292105197906494140625" lon="-4.9378960020840167999267578125">
        <ele>44</ele>
        <time>2018-09-07T07:46:04.000Z</time>
      </trkpt>
      <trkpt lat="43.43780628405511379241943359375" lon="-4.938034974038600921630859375">
        <ele>43.40000152587890625</ele>
        <time>2018-09-07T07:46:06.000Z</time>
      </trkpt>
      <trkpt lat="43.4378699027001857757568359375" lon="-4.9384391494095325469970703125">
        <ele>42.799999237060546875</ele>
        <time>2018-09-07T07:46:12.000Z</time>
      </trkpt>
      <trkpt lat="43.43787551857531070709228515625" lon="-4.93850142695009708404541015625">
        <ele>42.59999847412109375</ele>
        <time>2018-09-07T07:46:13.000Z</time>
      </trkpt>
      <trkpt lat="43.437872417271137237548828125" lon="-4.93855993263423442840576171875">
        <ele>42.59999847412109375</ele>
        <time>2018-09-07T07:46:14.000Z</time>
      </trkpt>
      <trkpt lat="43.43782640062272548675537109375" lon="-4.938727654516696929931640625">
        <ele>42.799999237060546875</ele>
        <time>2018-09-07T07:46:17.000Z</time>
      </trkpt>
      <trkpt lat="43.43774777837097644805908203125" lon="-4.93898305110633373260498046875">
        <ele>42.799999237060546875</ele>
        <time>2018-09-07T07:46:22.000Z</time>
      </trkpt>
      <trkpt lat="43.43772229738533496856689453125" lon="-4.9390344321727752685546875">
        <ele>42.799999237060546875</ele>
        <time>2018-09-07T07:46:23.000Z</time>
      </trkpt>
      <trkpt lat="43.43760721385478973388671875" lon="-4.93941203691065311431884765625">
        <ele>43</ele>
        <time>2018-09-07T07:46:30.000Z</time>
      </trkpt>
      <trkpt lat="43.43761215917766094207763671875" lon="-4.9394691176712512969970703125">
        <ele>43</ele>
        <time>2018-09-07T07:46:31.000Z</time>
      </trkpt>
      <trkpt lat="43.43762489967048168182373046875" lon="-4.9395787529647350311279296875">
        <ele>42.799999237060546875</ele>
        <time>2018-09-07T07:46:33.000Z</time>
      </trkpt>
      <trkpt lat="43.4377113170921802520751953125" lon="-4.9398345686495304107666015625">
        <ele>43</ele>
        <time>2018-09-07T07:46:38.000Z</time>
      </trkpt>
      <trkpt lat="43.43772782944142818450927734375" lon="-4.9398845247924327850341796875">
        <ele>43</ele>
        <time>2018-09-07T07:46:39.000Z</time>
      </trkpt>
      <trkpt lat="43.43776839785277843475341796875" lon="-4.94004897773265838623046875">
        <ele>43</ele>
        <time>2018-09-07T07:46:42.000Z</time>
      </trkpt>
      <trkpt lat="43.4378105588257312774658203125" lon="-4.9402154423296451568603515625">
        <ele>42.799999237060546875</ele>
        <time>2018-09-07T07:46:45.000Z</time>
      </trkpt>
      <trkpt lat="43.4378291666507720947265625" lon="-4.9402674101293087005615234375">
        <ele>42.59999847412109375</ele>
        <time>2018-09-07T07:46:46.000Z</time>
      </trkpt>
      <trkpt lat="43.43785188160836696624755859375" lon="-4.94031694717705249786376953125">
        <ele>42.59999847412109375</ele>
        <time>2018-09-07T07:46:47.000Z</time>
      </trkpt>
      <trkpt lat="43.437919355928897857666015625" lon="-4.94046748615801334381103515625">
        <ele>42.40000152587890625</ele>
        <time>2018-09-07T07:46:50.000Z</time>
      </trkpt>
      <trkpt lat="43.43794114887714385986328125" lon="-4.94052238762378692626953125">
        <ele>42.40000152587890625</ele>
        <time>2018-09-07T07:46:51.000Z</time>
      </trkpt>
      <trkpt lat="43.437997810542583465576171875" lon="-4.94069413281977176666259765625">
        <ele>42</ele>
        <time>2018-09-07T07:46:54.000Z</time>
      </trkpt>
      <trkpt lat="43.4381029196083545684814453125" lon="-4.94110333733260631561279296875">
        <ele>41.799999237060546875</ele>
        <time>2018-09-07T07:47:01.000Z</time>
      </trkpt>
      <trkpt lat="43.43813150189816951751708984375" lon="-4.9412284791469573974609375">
        <ele>41.200000762939453125</ele>
        <time>2018-09-07T07:47:03.000Z</time>
      </trkpt>
      <trkpt lat="43.43816905282437801361083984375" lon="-4.941466860473155975341796875">
        <ele>41.40000152587890625</ele>
        <time>2018-09-07T07:47:07.000Z</time>
      </trkpt>
      <trkpt lat="43.43818229623138904571533203125" lon="-4.9415196664631366729736328125">
        <ele>41.40000152587890625</ele>
        <time>2018-09-07T07:47:08.000Z</time>
      </trkpt>
      <trkpt lat="43.4381941147148609161376953125" lon="-4.941574819386005401611328125">
        <ele>41.40000152587890625</ele>
        <time>2018-09-07T07:47:09.000Z</time>
      </trkpt>
      <trkpt lat="43.4382035024464130401611328125" lon="-4.941631145775318145751953125">
        <ele>41.40000152587890625</ele>
        <time>2018-09-07T07:47:10.000Z</time>
      </trkpt>
      <trkpt lat="43.43822722323238849639892578125" lon="-4.9417520128190517425537109375">
        <ele>41.200000762939453125</ele>
        <time>2018-09-07T07:47:12.000Z</time>
      </trkpt>
      <trkpt lat="43.43824331648647785186767578125" lon="-4.94181479327380657196044921875">
        <ele>41</ele>
        <time>2018-09-07T07:47:13.000Z</time>
      </trkpt>
      <trkpt lat="43.43828354962170124053955078125" lon="-4.94192342273890972137451171875">
        <ele>41</ele>
        <time>2018-09-07T07:47:15.000Z</time>
      </trkpt>
      <trkpt lat="43.43837742693722248077392578125" lon="-4.94211922399699687957763671875">
        <ele>41.799999237060546875</ele>
        <time>2018-09-07T07:47:20.000Z</time>
      </trkpt>
      <trkpt lat="43.438396118581295013427734375" lon="-4.9421580322086811065673828125">
        <ele>42</ele>
        <time>2018-09-07T07:47:21.000Z</time>
      </trkpt>
      <trkpt lat="43.4384187497198581695556640625" lon="-4.942195415496826171875">
        <ele>42.200000762939453125</ele>
        <time>2018-09-07T07:47:22.000Z</time>
      </trkpt>
      <trkpt lat="43.43844029121100902557373046875" lon="-4.94222232140600681304931640625">
        <ele>42.40000152587890625</ele>
        <time>2018-09-07T07:47:23.000Z</time>
      </trkpt>
      <trkpt lat="43.43847666867077350616455078125" lon="-4.94227646850049495697021484375">
        <ele>42.799999237060546875</ele>
        <time>2018-09-07T07:47:25.000Z</time>
      </trkpt>
      <trkpt lat="43.43850851990282535552978515625" lon="-4.942329861223697662353515625">
        <ele>43.200000762939453125</ele>
        <time>2018-09-07T07:47:27.000Z</time>
      </trkpt>
      <trkpt lat="43.4385381080210208892822265625" lon="-4.94237319566309452056884765625">
        <ele>43.59999847412109375</ele>
        <time>2018-09-07T07:47:29.000Z</time>
      </trkpt>
      <trkpt lat="43.43858261592686176300048828125" lon="-4.9425345472991466522216796875">
        <ele>44</ele>
        <time>2018-09-07T07:47:33.000Z</time>
      </trkpt>
      <trkpt lat="43.43859217129647731781005859375" lon="-4.9426753632724285125732421875">
        <ele>44.40000152587890625</ele>
        <time>2018-09-07T07:47:36.000Z</time>
      </trkpt>
      <trkpt lat="43.438593260943889617919921875" lon="-4.94271752424538135528564453125">
        <ele>44.799999237060546875</ele>
        <time>2018-09-07T07:47:37.000Z</time>
      </trkpt>
      <trkpt lat="43.43858647160232067108154296875" lon="-4.94284895248711109161376953125">
        <ele>45.200000762939453125</ele>
        <time>2018-09-07T07:47:40.000Z</time>
      </trkpt>
      <trkpt lat="43.43857825733721256256103515625" lon="-4.94301139377057552337646484375">
        <ele>45.799999237060546875</ele>
        <time>2018-09-07T07:47:44.000Z</time>
      </trkpt>
      <trkpt lat="43.43855612911283969879150390625" lon="-4.9431140720844268798828125">
        <ele>46.40000152587890625</ele>
        <time>2018-09-07T07:47:47.000Z</time>
      </trkpt>
      <trkpt lat="43.438540957868099212646484375" lon="-4.94318691082298755645751953125">
        <ele>46.799999237060546875</ele>
        <time>2018-09-07T07:47:49.000Z</time>
      </trkpt>
      <trkpt lat="43.43853601254522800445556640625" lon="-4.943221025168895721435546875">
        <ele>46.799999237060546875</ele>
        <time>2018-09-07T07:47:50.000Z</time>
      </trkpt>
      <trkpt lat="43.43851069919764995574951171875" lon="-4.943346083164215087890625">
        <ele>47.40000152587890625</ele>
        <time>2018-09-07T07:47:54.000Z</time>
      </trkpt>
      <trkpt lat="43.43851153738796710968017578125" lon="-4.94340115226805210113525390625">
        <ele>47.59999847412109375</ele>
        <time>2018-09-07T07:47:56.000Z</time>
      </trkpt>
      <trkpt lat="43.4385743178427219390869140625" lon="-4.94348094798624515533447265625">
        <ele>47.40000152587890625</ele>
        <time>2018-09-07T07:48:00.000Z</time>
      </trkpt>
      <trkpt lat="43.43870423734188079833984375" lon="-4.94342898018658161163330078125">
        <ele>45.799999237060546875</ele>
        <time>2018-09-07T07:48:03.000Z</time>
      </trkpt>
      <trkpt lat="43.438789732754230499267578125" lon="-4.943383969366550445556640625">
        <ele>45.799999237060546875</ele>
        <time>2018-09-07T07:48:05.000Z</time>
      </trkpt>
      <trkpt lat="43.43892225064337253570556640625" lon="-4.94330995716154575347900390625">
        <ele>46.200000762939453125</ele>
        <time>2018-09-07T07:48:09.000Z</time>
      </trkpt>
      <trkpt lat="43.43916348181664943695068359375" lon="-4.94322278536856174468994140625">
        <ele>46</ele>
        <time>2018-09-07T07:48:16.000Z</time>
      </trkpt>
      <trkpt lat="43.43926456756889820098876953125" lon="-4.943199567496776580810546875">
        <ele>46.200000762939453125</ele>
        <time>2018-09-07T07:48:19.000Z</time>
      </trkpt>
      <trkpt lat="43.43940923921763896942138671875" lon="-4.94315187446773052215576171875">
        <ele>46.59999847412109375</ele>
        <time>2018-09-07T07:48:23.000Z</time>
      </trkpt>
      <trkpt lat="43.43950428999960422515869140625" lon="-4.9431286565959453582763671875">
        <ele>46.799999237060546875</ele>
        <time>2018-09-07T07:48:26.000Z</time>
      </trkpt>
      <trkpt lat="43.4395831637084484100341796875" lon="-4.94312186725437641143798828125">
        <ele>47.200000762939453125</ele>
        <time>2018-09-07T07:48:29.000Z</time>
      </trkpt>
      <trkpt lat="43.4397568367421627044677734375" lon="-4.94310024194419384002685546875">
        <ele>47.40000152587890625</ele>
        <time>2018-09-07T07:48:34.000Z</time>
      </trkpt>
      <trkpt lat="43.4398339502513408660888671875" lon="-4.94308984838426113128662109375">
        <ele>47.40000152587890625</ele>
        <time>2018-09-07T07:48:36.000Z</time>
      </trkpt>
      <trkpt lat="43.44000603072345256805419921875" lon="-4.943082220852375030517578125">
        <ele>47.799999237060546875</ele>
        <time>2018-09-07T07:48:40.000Z</time>
      </trkpt>
      <trkpt lat="43.44011583365499973297119140625" lon="-4.94305841624736785888671875">
        <ele>48.40000152587890625</ele>
        <time>2018-09-07T07:48:43.000Z</time>
      </trkpt>
      <trkpt lat="43.44026084057986736297607421875" lon="-4.943017177283763885498046875">
        <ele>49.200000762939453125</ele>
        <time>2018-09-07T07:48:48.000Z</time>
      </trkpt>
      <trkpt lat="43.44031088054180145263671875" lon="-4.9430109746754169464111328125">
        <ele>49.799999237060546875</ele>
        <time>2018-09-07T07:48:50.000Z</time>
      </trkpt>
      <trkpt lat="43.44037123024463653564453125" lon="-4.94300234131515026092529296875">
        <ele>50.200000762939453125</ele>
        <time>2018-09-07T07:48:52.000Z</time>
      </trkpt>
      <trkpt lat="43.44045815058052539825439453125" lon="-4.94299136102199554443359375">
        <ele>50.59999847412109375</ele>
        <time>2018-09-07T07:48:55.000Z</time>
      </trkpt>
      <trkpt lat="43.44048145227134227752685546875" lon="-4.942987002432346343994140625">
        <ele>50.59999847412109375</ele>
        <time>2018-09-07T07:48:56.000Z</time>
      </trkpt>
      <trkpt lat="43.44060315750539302825927734375" lon="-4.9429787881672382354736328125">
        <ele>51.40000152587890625</ele>
        <time>2018-09-07T07:49:00.000Z</time>
      </trkpt>
      <trkpt lat="43.440678678452968597412109375" lon="-4.94296194054186344146728515625">
        <ele>52</ele>
        <time>2018-09-07T07:49:03.000Z</time>
      </trkpt>
      <trkpt lat="43.44070809893310070037841796875" lon="-4.94295783340930938720703125">
        <ele>52.40000152587890625</ele>
        <time>2018-09-07T07:49:04.000Z</time>
      </trkpt>
      <trkpt lat="43.44084086827933788299560546875" lon="-4.9429660476744174957275390625">
        <ele>52.799999237060546875</ele>
        <time>2018-09-07T07:49:09.000Z</time>
      </trkpt>
      <trkpt lat="43.44097665511071681976318359375" lon="-4.94303352199494838714599609375">
        <ele>53.40000152587890625</ele>
        <time>2018-09-07T07:49:15.000Z</time>
      </trkpt>
      <trkpt lat="43.44100154936313629150390625" lon="-4.9430498667061328887939453125">
        <ele>53.40000152587890625</ele>
        <time>2018-09-07T07:49:16.000Z</time>
      </trkpt>
      <trkpt lat="43.441118560731410980224609375" lon="-4.94311549700796604156494140625">
        <ele>54</ele>
        <time>2018-09-07T07:49:21.000Z</time>
      </trkpt>
      <trkpt lat="43.441254012286663055419921875" lon="-4.94318339042365550994873046875">
        <ele>54.40000152587890625</ele>
        <time>2018-09-07T07:49:27.000Z</time>
      </trkpt>
      <trkpt lat="43.44131679274141788482666015625" lon="-4.9432128109037876129150390625">
        <ele>54.40000152587890625</ele>
        <time>2018-09-07T07:49:30.000Z</time>
      </trkpt>
      <trkpt lat="43.44138552434742450714111328125" lon="-4.94324751198291778564453125">
        <ele>55</ele>
        <time>2018-09-07T07:49:34.000Z</time>
      </trkpt>
      <trkpt lat="43.44144034199416637420654296875" lon="-4.94327609427273273468017578125">
        <ele>55.799999237060546875</ele>
        <time>2018-09-07T07:49:37.000Z</time>
      </trkpt>
      <trkpt lat="43.4415250830352306365966796875" lon="-4.9433603323996067047119140625">
        <ele>56.40000152587890625</ele>
        <time>2018-09-07T07:49:41.000Z</time>
      </trkpt>
      <trkpt lat="43.441583923995494842529296875" lon="-4.9434277229011058807373046875">
        <ele>56.799999237060546875</ele>
        <time>2018-09-07T07:49:44.000Z</time>
      </trkpt>
      <trkpt lat="43.4416306950151920318603515625" lon="-4.943474829196929931640625">
        <ele>57</ele>
        <time>2018-09-07T07:49:46.000Z</time>
      </trkpt>
      <trkpt lat="43.44171702861785888671875" lon="-4.9436060898005962371826171875">
        <ele>56.799999237060546875</ele>
        <time>2018-09-07T07:49:50.000Z</time>
      </trkpt>
      <trkpt lat="43.44173639081418514251708984375" lon="-4.9436402879655361175537109375">
        <ele>56.40000152587890625</ele>
        <time>2018-09-07T07:49:51.000Z</time>
      </trkpt>
      <trkpt lat="43.4417530708014965057373046875" lon="-4.9436718039214611053466796875">
        <ele>55.799999237060546875</ele>
        <time>2018-09-07T07:49:52.000Z</time>
      </trkpt>
      <trkpt lat="43.44179908744990825653076171875" lon="-4.94380465708673000335693359375">
        <ele>54.799999237060546875</ele>
        <time>2018-09-07T07:49:54.000Z</time>
      </trkpt>
      <trkpt lat="43.4418187849223613739013671875" lon="-4.9438830278813838958740234375">
        <ele>54.40000152587890625</ele>
        <time>2018-09-07T07:49:55.000Z</time>
      </trkpt>
      <trkpt lat="43.44186723232269287109375" lon="-4.94407304562628269195556640625">
        <ele>53.200000762939453125</ele>
        <time>2018-09-07T07:49:57.000Z</time>
      </trkpt>
      <trkpt lat="43.4419123269617557525634765625" lon="-4.94424738921225070953369140625">
        <ele>52.200000762939453125</ele>
        <time>2018-09-07T07:49:59.000Z</time>
      </trkpt>
      <trkpt lat="43.4419275820255279541015625" lon="-4.94431662373244762420654296875">
        <ele>51.59999847412109375</ele>
        <time>2018-09-07T07:50:00.000Z</time>
      </trkpt>
      <trkpt lat="43.44194032251834869384765625" lon="-4.94438367895781993865966796875">
        <ele>51.200000762939453125</ele>
        <time>2018-09-07T07:50:01.000Z</time>
      </trkpt>
      <trkpt lat="43.44196102581918239593505859375" lon="-4.94451125152409076690673828125">
        <ele>50.799999237060546875</ele>
        <time>2018-09-07T07:50:03.000Z</time>
      </trkpt>
      <trkpt lat="43.44197452068328857421875" lon="-4.94464469142258167266845703125">
        <ele>50</ele>
        <time>2018-09-07T07:50:05.000Z</time>
      </trkpt>
      <trkpt lat="43.4419839084148406982421875" lon="-4.94471602141857147216796875">
        <ele>49.59999847412109375</ele>
        <time>2018-09-07T07:50:06.000Z</time>
      </trkpt>
      <trkpt lat="43.44199438579380512237548828125" lon="-4.94495130144059658050537109375">
        <ele>48.799999237060546875</ele>
        <time>2018-09-07T07:50:09.000Z</time>
      </trkpt>
      <trkpt lat="43.44201249070465564727783203125" lon="-4.94511298835277557373046875">
        <ele>47.59999847412109375</ele>
        <time>2018-09-07T07:50:11.000Z</time>
      </trkpt>
      <trkpt lat="43.4420269913971424102783203125" lon="-4.94526796974241733551025390625">
        <ele>46.59999847412109375</ele>
        <time>2018-09-07T07:50:13.000Z</time>
      </trkpt>
      <trkpt lat="43.4420360438525676727294921875" lon="-4.94533837772905826568603515625">
        <ele>46.40000152587890625</ele>
        <time>2018-09-07T07:50:14.000Z</time>
      </trkpt>
      <trkpt lat="43.44206412322819232940673828125" lon="-4.94545404799282550811767578125">
        <ele>45.799999237060546875</ele>
        <time>2018-09-07T07:50:16.000Z</time>
      </trkpt>
      <trkpt lat="43.44208918511867523193359375" lon="-4.94550727307796478271484375">
        <ele>45.200000762939453125</ele>
        <time>2018-09-07T07:50:17.000Z</time>
      </trkpt>
      <trkpt lat="43.44216101802885532379150390625" lon="-4.94559578597545623779296875">
        <ele>43.40000152587890625</ele>
        <time>2018-09-07T07:50:19.000Z</time>
      </trkpt>
      <trkpt lat="43.442200832068920135498046875" lon="-4.9456251226365566253662109375">
        <ele>43.200000762939453125</ele>
        <time>2018-09-07T07:50:20.000Z</time>
      </trkpt>
      <trkpt lat="43.44223595224320888519287109375" lon="-4.94565336965024471282958984375">
        <ele>42.40000152587890625</ele>
        <time>2018-09-07T07:50:21.000Z</time>
      </trkpt>
      <trkpt lat="43.44232731498777866363525390625" lon="-4.945724196732044219970703125">
        <ele>41</ele>
        <time>2018-09-07T07:50:23.000Z</time>
      </trkpt>
      <trkpt lat="43.442401997745037078857421875" lon="-4.9457806907594203948974609375">
        <ele>40.200000762939453125</ele>
        <time>2018-09-07T07:50:25.000Z</time>
      </trkpt>
      <trkpt lat="43.442570306360721588134765625" lon="-4.9458806030452251434326171875">
        <ele>40.40000152587890625</ele>
        <time>2018-09-07T07:50:30.000Z</time>
      </trkpt>
      <trkpt lat="43.44277524389326572418212890625" lon="-4.94598261080682277679443359375">
        <ele>40.799999237060546875</ele>
        <time>2018-09-07T07:50:37.000Z</time>
      </trkpt>
      <trkpt lat="43.4427910856902599334716796875" lon="-4.94601295329630374908447265625">
        <ele>40.799999237060546875</ele>
        <time>2018-09-07T07:50:38.000Z</time>
      </trkpt>
      <trkpt lat="43.44279670156538486480712890625" lon="-4.9460764043033123016357421875">
        <ele>41</ele>
        <time>2018-09-07T07:50:39.000Z</time>
      </trkpt>
      <trkpt lat="43.4427780099213123321533203125" lon="-4.94617405347526073455810546875">
        <ele>41.59999847412109375</ele>
        <time>2018-09-07T07:50:41.000Z</time>
      </trkpt>
      <trkpt lat="43.44276870600879192352294921875" lon="-4.94625653140246868133544921875">
        <ele>42</ele>
        <time>2018-09-07T07:50:43.000Z</time>
      </trkpt>
      <trkpt lat="43.4427592344582080841064453125" lon="-4.94628888554871082305908203125">
        <ele>42.200000762939453125</ele>
        <time>2018-09-07T07:50:44.000Z</time>
      </trkpt>
      <trkpt lat="43.44274775125086307525634765625" lon="-4.946325011551380157470703125">
        <ele>42.40000152587890625</ele>
        <time>2018-09-07T07:50:45.000Z</time>
      </trkpt>
      <trkpt lat="43.44273651950061321258544921875" lon="-4.946355856955051422119140625">
        <ele>43</ele>
        <time>2018-09-07T07:50:46.000Z</time>
      </trkpt>
      <trkpt lat="43.44272461719810962677001953125" lon="-4.94638309814035892486572265625">
        <ele>43.200000762939453125</ele>
        <time>2018-09-07T07:50:47.000Z</time>
      </trkpt>
      <trkpt lat="43.4427149780094623565673828125" lon="-4.94640220887959003448486328125">
        <ele>43.59999847412109375</ele>
        <time>2018-09-07T07:50:48.000Z</time>
      </trkpt>
      <trkpt lat="43.44268673099577426910400390625" lon="-4.94643774814903736114501953125">
        <ele>44.200000762939453125</ele>
        <time>2018-09-07T07:50:50.000Z</time>
      </trkpt>
      <trkpt lat="43.442672900855541229248046875" lon="-4.94645803235471248626708984375">
        <ele>44.40000152587890625</ele>
        <time>2018-09-07T07:50:51.000Z</time>
      </trkpt>
      <trkpt lat="43.4426288120448589324951171875" lon="-4.94653095491230487823486328125">
        <ele>44.799999237060546875</ele>
        <time>2018-09-07T07:50:54.000Z</time>
      </trkpt>
      <trkpt lat="43.44261699356138706207275390625" lon="-4.9465558491647243499755859375">
        <ele>45</ele>
        <time>2018-09-07T07:50:55.000Z</time>
      </trkpt>
      <trkpt lat="43.4425820410251617431640625" lon="-4.94666598737239837646484375">
        <ele>45.40000152587890625</ele>
        <time>2018-09-07T07:50:59.000Z</time>
      </trkpt>
      <trkpt lat="43.4425446577370166778564453125" lon="-4.9467975832521915435791015625">
        <ele>46.200000762939453125</ele>
        <time>2018-09-07T07:51:04.000Z</time>
      </trkpt>
      <trkpt lat="43.44253803603351116180419921875" lon="-4.9468233995139598846435546875">
        <ele>46.40000152587890625</ele>
        <time>2018-09-07T07:51:05.000Z</time>
      </trkpt>
      <trkpt lat="43.4425164945423603057861328125" lon="-4.94692213833332061767578125">
        <ele>47.200000762939453125</ele>
        <time>2018-09-07T07:51:09.000Z</time>
      </trkpt>
      <trkpt lat="43.44250249676406383514404296875" lon="-4.9469635449349880218505859375">
        <ele>47.59999847412109375</ele>
        <time>2018-09-07T07:51:11.000Z</time>
      </trkpt>
      <trkpt lat="43.44249696470797061920166015625" lon="-4.9469863437116146087646484375">
        <ele>47.799999237060546875</ele>
        <time>2018-09-07T07:51:12.000Z</time>
      </trkpt>
      <trkpt lat="43.4424675442278385162353515625" lon="-4.947060607373714447021484375">
        <ele>48.799999237060546875</ele>
        <time>2018-09-07T07:51:16.000Z</time>
      </trkpt>
      <trkpt lat="43.44245371408760547637939453125" lon="-4.94714132510125637054443359375">
        <ele>49.59999847412109375</ele>
        <time>2018-09-07T07:51:20.000Z</time>
      </trkpt>
      <trkpt lat="43.44244734384119510650634765625" lon="-4.94717971421778202056884765625">
        <ele>50</ele>
        <time>2018-09-07T07:51:22.000Z</time>
      </trkpt>
      <trkpt lat="43.44243175350129604339599609375" lon="-4.94726470671594142913818359375">
        <ele>51</ele>
        <time>2018-09-07T07:51:27.000Z</time>
      </trkpt>
      <trkpt lat="43.44243510626256465911865234375" lon="-4.94728750549256801605224609375">
        <ele>51.200000762939453125</ele>
        <time>2018-09-07T07:51:28.000Z</time>
      </trkpt>
      <trkpt lat="43.44242689199745655059814453125" lon="-4.947390854358673095703125">
        <ele>52.200000762939453125</ele>
        <time>2018-09-07T07:51:33.000Z</time>
      </trkpt>
      <trkpt lat="43.442414738237857818603515625" lon="-4.94744692929089069366455078125">
        <ele>52.59999847412109375</ele>
        <time>2018-09-07T07:51:35.000Z</time>
      </trkpt>
      <trkpt lat="43.4423840604722499847412109375" lon="-4.94760937057435512542724609375">
        <ele>53.200000762939453125</ele>
        <time>2018-09-07T07:51:41.000Z</time>
      </trkpt>
      <trkpt lat="43.4423783607780933380126953125" lon="-4.9476448260247707366943359375">
        <ele>53.200000762939453125</ele>
        <time>2018-09-07T07:51:42.000Z</time>
      </trkpt>
      <trkpt lat="43.442322872579097747802734375" lon="-4.94786384515464305877685546875">
        <ele>53.200000762939453125</ele>
        <time>2018-09-07T07:51:48.000Z</time>
      </trkpt>
      <trkpt lat="43.4423092938959598541259765625" lon="-4.9479039944708347320556640625">
        <ele>53.200000762939453125</ele>
        <time>2018-09-07T07:51:49.000Z</time>
      </trkpt>
      <trkpt lat="43.4422588348388671875" lon="-4.9480605684220790863037109375">
        <ele>52.59999847412109375</ele>
        <time>2018-09-07T07:51:52.000Z</time>
      </trkpt>
      <trkpt lat="43.44223192892968654632568359375" lon="-4.94817062281072139739990234375">
        <ele>52</ele>
        <time>2018-09-07T07:51:54.000Z</time>
      </trkpt>
      <trkpt lat="43.4422066994011402130126953125" lon="-4.9483053199946880340576171875">
        <ele>51.200000762939453125</ele>
        <time>2018-09-07T07:51:56.000Z</time>
      </trkpt>
      <trkpt lat="43.44217509962618350982666015625" lon="-4.948407746851444244384765625">
        <ele>51.59999847412109375</ele>
        <time>2018-09-07T07:51:58.000Z</time>
      </trkpt>
      <trkpt lat="43.44210234470665454864501953125" lon="-4.94871410541236400604248046875">
        <ele>53</ele>
        <time>2018-09-07T07:52:04.000Z</time>
      </trkpt>
      <trkpt lat="43.44206144101917743682861328125" lon="-4.9488142691552639007568359375">
        <ele>53</ele>
        <time>2018-09-07T07:52:06.000Z</time>
      </trkpt>
      <trkpt lat="43.4420013427734375" lon="-4.94898349978029727935791015625">
        <ele>52.40000152587890625</ele>
        <time>2018-09-07T07:52:09.000Z</time>
      </trkpt>
      <trkpt lat="43.44197544269263744354248046875" lon="-4.9490459449589252471923828125">
        <ele>52.200000762939453125</ele>
        <time>2018-09-07T07:52:10.000Z</time>
      </trkpt>
      <trkpt lat="43.44195373356342315673828125" lon="-4.94911140762269496917724609375">
        <ele>52</ele>
        <time>2018-09-07T07:52:11.000Z</time>
      </trkpt>
      <trkpt lat="43.44191408716142177581787109375" lon="-4.94926177896559238433837890625">
        <ele>51.40000152587890625</ele>
        <time>2018-09-07T07:52:14.000Z</time>
      </trkpt>
      <trkpt lat="43.44189212657511234283447265625" lon="-4.94933537207543849945068359375">
        <ele>51.40000152587890625</ele>
        <time>2018-09-07T07:52:16.000Z</time>
      </trkpt>
      <trkpt lat="43.44184585846960544586181640625" lon="-4.949454478919506072998046875">
        <ele>51.200000762939453125</ele>
        <time>2018-09-07T07:52:19.000Z</time>
      </trkpt>
      <trkpt lat="43.44182725064456462860107421875" lon="-4.9495092965662479400634765625">
        <ele>51</ele>
        <time>2018-09-07T07:52:20.000Z</time>
      </trkpt>
      <trkpt lat="43.44179942272603511810302734375" lon="-4.9495854042470455169677734375">
        <ele>51</ele>
        <time>2018-09-07T07:52:21.000Z</time>
      </trkpt>
      <trkpt lat="43.4417725168168544769287109375" lon="-4.94966528378427028656005859375">
        <ele>50.799999237060546875</ele>
        <time>2018-09-07T07:52:22.000Z</time>
      </trkpt>
      <trkpt lat="43.4416907094419002532958984375" lon="-4.9498898349702358245849609375">
        <ele>50.200000762939453125</ele>
        <time>2018-09-07T07:52:25.000Z</time>
      </trkpt>
      <trkpt lat="43.44154846854507923126220703125" lon="-4.950300045311450958251953125">
        <ele>50.40000152587890625</ele>
        <time>2018-09-07T07:52:31.000Z</time>
      </trkpt>
      <trkpt lat="43.44151007942855358123779296875" lon="-4.95043021626770496368408203125">
        <ele>50.40000152587890625</ele>
        <time>2018-09-07T07:52:33.000Z</time>
      </trkpt>
      <trkpt lat="43.4414501488208770751953125" lon="-4.95061713270843029022216796875">
        <ele>50.799999237060546875</ele>
        <time>2018-09-07T07:52:36.000Z</time>
      </trkpt>
      <trkpt lat="43.44136255793273448944091796875" lon="-4.95092441327869892120361328125">
        <ele>50.799999237060546875</ele>
        <time>2018-09-07T07:52:41.000Z</time>
      </trkpt>
      <trkpt lat="43.4413390047848224639892578125" lon="-4.95106472633779048919677734375">
        <ele>51.59999847412109375</ele>
        <time>2018-09-07T07:52:44.000Z</time>
      </trkpt>
      <trkpt lat="43.44132785685360431671142578125" lon="-4.95110026560723781585693359375">
        <ele>51.799999237060546875</ele>
        <time>2018-09-07T07:52:45.000Z</time>
      </trkpt>
      <trkpt lat="43.44131939113140106201171875" lon="-4.9511327035725116729736328125">
        <ele>51.799999237060546875</ele>
        <time>2018-09-07T07:52:46.000Z</time>
      </trkpt>
      <trkpt lat="43.4412833489477634429931640625" lon="-4.95124661363661289215087890625">
        <ele>52</ele>
        <time>2018-09-07T07:52:49.000Z</time>
      </trkpt>
      <trkpt lat="43.44126499257981777191162109375" lon="-4.95131383650004863739013671875">
        <ele>53</ele>
        <time>2018-09-07T07:52:51.000Z</time>
      </trkpt>
      <trkpt lat="43.44126038253307342529296875" lon="-4.95135138742625713348388671875">
        <ele>53.40000152587890625</ele>
        <time>2018-09-07T07:52:52.000Z</time>
      </trkpt>
      <trkpt lat="43.4412474744021892547607421875" lon="-4.9514208734035491943359375">
        <ele>54.200000762939453125</ele>
        <time>2018-09-07T07:52:54.000Z</time>
      </trkpt>
      <trkpt lat="43.44123079441487789154052734375" lon="-4.95148197747766971588134765625">
        <ele>54.59999847412109375</ele>
        <time>2018-09-07T07:52:56.000Z</time>
      </trkpt>
      <trkpt lat="43.4412075765430927276611328125" lon="-4.95154316537082195281982421875">
        <ele>54.40000152587890625</ele>
        <time>2018-09-07T07:52:58.000Z</time>
      </trkpt>
      <trkpt lat="43.44113507308065891265869140625" lon="-4.95171046815812587738037109375">
        <ele>53.200000762939453125</ele>
        <time>2018-09-07T07:53:01.000Z</time>
      </trkpt>
      <trkpt lat="43.4411163814365863800048828125" lon="-4.95178230106830596923828125">
        <ele>52.59999847412109375</ele>
        <time>2018-09-07T07:53:02.000Z</time>
      </trkpt>
      <trkpt lat="43.44107170589268207550048828125" lon="-4.9519814550876617431640625">
        <ele>52.40000152587890625</ele>
        <time>2018-09-07T07:53:05.000Z</time>
      </trkpt>
      <trkpt lat="43.4410168044269084930419921875" lon="-4.95220365934073925018310546875">
        <ele>53.200000762939453125</ele>
        <time>2018-09-07T07:53:09.000Z</time>
      </trkpt>
      <trkpt lat="43.44098838977515697479248046875" lon="-4.95234698988497257232666015625">
        <ele>53.799999237060546875</ele>
        <time>2018-09-07T07:53:12.000Z</time>
      </trkpt>
      <trkpt lat="43.44098143279552459716796875" lon="-4.95238454081118106842041015625">
        <ele>54.200000762939453125</ele>
        <time>2018-09-07T07:53:13.000Z</time>
      </trkpt>
      <trkpt lat="43.44097782857716083526611328125" lon="-4.95241790078580379486083984375">
        <ele>55</ele>
        <time>2018-09-07T07:53:14.000Z</time>
      </trkpt>
      <trkpt lat="43.44095150940120220184326171875" lon="-4.95253357104957103729248046875">
        <ele>55.799999237060546875</ele>
        <time>2018-09-07T07:53:18.000Z</time>
      </trkpt>
      <trkpt lat="43.4408981166779994964599609375" lon="-4.952776730060577392578125">
        <ele>55.59999847412109375</ele>
        <time>2018-09-07T07:53:24.000Z</time>
      </trkpt>
      <trkpt lat="43.44085075892508029937744140625" lon="-4.95295115746557712554931640625">
        <ele>55</ele>
        <time>2018-09-07T07:53:27.000Z</time>
      </trkpt>
      <trkpt lat="43.44081505201756954193115234375" lon="-4.9530863575637340545654296875">
        <ele>54.40000152587890625</ele>
        <time>2018-09-07T07:53:29.000Z</time>
      </trkpt>
      <trkpt lat="43.4407710470259189605712890625" lon="-4.953269921243190765380859375">
        <ele>54.200000762939453125</ele>
        <time>2018-09-07T07:53:32.000Z</time>
      </trkpt>
      <trkpt lat="43.44070977531373500823974609375" lon="-4.95355985127389430999755859375">
        <ele>54.200000762939453125</ele>
        <time>2018-09-07T07:53:37.000Z</time>
      </trkpt>
      <trkpt lat="43.44068027101457118988037109375" lon="-4.9537314288318157196044921875">
        <ele>54.40000152587890625</ele>
        <time>2018-09-07T07:53:40.000Z</time>
      </trkpt>
      <trkpt lat="43.44062997959554195404052734375" lon="-4.95400249958038330078125">
        <ele>54.799999237060546875</ele>
        <time>2018-09-07T07:53:45.000Z</time>
      </trkpt>
      <trkpt lat="43.4405728988349437713623046875" lon="-4.95432964526116847991943359375">
        <ele>55.200000762939453125</ele>
        <time>2018-09-07T07:53:52.000Z</time>
      </trkpt>
      <trkpt lat="43.440537862479686737060546875" lon="-4.95462032966315746307373046875">
        <ele>55</ele>
        <time>2018-09-07T07:53:59.000Z</time>
      </trkpt>
      <trkpt lat="43.4405447356402873992919921875" lon="-4.954927861690521240234375">
        <ele>53.799999237060546875</ele>
        <time>2018-09-07T07:54:05.000Z</time>
      </trkpt>
      <trkpt lat="43.44055957160890102386474609375" lon="-4.9550772272050380706787109375">
        <ele>53</ele>
        <time>2018-09-07T07:54:07.000Z</time>
      </trkpt>
      <trkpt lat="43.44055638648569583892822265625" lon="-4.9551462940871715545654296875">
        <ele>52.59999847412109375</ele>
        <time>2018-09-07T07:54:08.000Z</time>
      </trkpt>
      <trkpt lat="43.44053911976516246795654296875" lon="-4.9552001059055328369140625">
        <ele>52.59999847412109375</ele>
        <time>2018-09-07T07:54:09.000Z</time>
      </trkpt>
      <trkpt lat="43.44049285165965557098388671875" lon="-4.9554396606981754302978515625">
        <ele>53.200000762939453125</ele>
        <time>2018-09-07T07:54:13.000Z</time>
      </trkpt>
      <trkpt lat="43.4404820390045642852783203125" lon="-4.955571256577968597412109375">
        <ele>52.799999237060546875</ele>
        <time>2018-09-07T07:54:15.000Z</time>
      </trkpt>
      <trkpt lat="43.44046452082693576812744140625" lon="-4.9559028446674346923828125">
        <ele>52.40000152587890625</ele>
        <time>2018-09-07T07:54:21.000Z</time>
      </trkpt>
      <trkpt lat="43.44044373370707035064697265625" lon="-4.956282041966915130615234375">
        <ele>52</ele>
        <time>2018-09-07T07:54:28.000Z</time>
      </trkpt>
      <trkpt lat="43.44044473953545093536376953125" lon="-4.9563881568610668182373046875">
        <ele>51.40000152587890625</ele>
        <time>2018-09-07T07:54:30.000Z</time>
      </trkpt>
      <trkpt lat="43.44043049030005931854248046875" lon="-4.95650743134319782257080078125">
        <ele>51</ele>
        <time>2018-09-07T07:54:32.000Z</time>
      </trkpt>
      <trkpt lat="43.44042219221591949462890625" lon="-4.95660415850579738616943359375">
        <ele>50.799999237060546875</ele>
        <time>2018-09-07T07:54:34.000Z</time>
      </trkpt>
      <trkpt lat="43.440420515835285186767578125" lon="-4.95677523314952850341796875">
        <ele>50.59999847412109375</ele>
        <time>2018-09-07T07:54:39.000Z</time>
      </trkpt>
      <trkpt lat="43.44042344950139522552490234375" lon="-4.9568223394453525543212890625">
        <ele>50.40000152587890625</ele>
        <time>2018-09-07T07:54:40.000Z</time>
      </trkpt>
      <trkpt lat="43.44040350057184696197509765625" lon="-4.95705594308674335479736328125">
        <ele>50.200000762939453125</ele>
        <time>2018-09-07T07:54:44.000Z</time>
      </trkpt>
      <trkpt lat="43.44030761159956455230712890625" lon="-4.957471601665019989013671875">
        <ele>49.799999237060546875</ele>
        <time>2018-09-07T07:54:50.000Z</time>
      </trkpt>
      <trkpt lat="43.44030124135315418243408203125" lon="-4.95760948397219181060791015625">
        <ele>49.799999237060546875</ele>
        <time>2018-09-07T07:54:52.000Z</time>
      </trkpt>
      <trkpt lat="43.44030777923762798309326171875" lon="-4.95781601406633853912353515625">
        <ele>49.59999847412109375</ele>
        <time>2018-09-07T07:54:55.000Z</time>
      </trkpt>
      <trkpt lat="43.4403623454272747039794921875" lon="-4.958358071744441986083984375">
        <ele>49.799999237060546875</ele>
        <time>2018-09-07T07:55:03.000Z</time>
      </trkpt>
      <trkpt lat="43.440393023192882537841796875" lon="-4.9587272107601165771484375">
        <ele>50.200000762939453125</ele>
        <time>2018-09-07T07:55:09.000Z</time>
      </trkpt>
      <trkpt lat="43.440399728715419769287109375" lon="-4.95878060348331928253173828125">
        <ele>50.40000152587890625</ele>
        <time>2018-09-07T07:55:10.000Z</time>
      </trkpt>
      <trkpt lat="43.44042294658720493316650390625" lon="-4.95895779691636562347412109375">
        <ele>51.200000762939453125</ele>
        <time>2018-09-07T07:55:14.000Z</time>
      </trkpt>
      <trkpt lat="43.44042093493044376373291015625" lon="-4.95902803726494312286376953125">
        <ele>51.40000152587890625</ele>
        <time>2018-09-07T07:55:16.000Z</time>
      </trkpt>
      <trkpt lat="43.4404283948242664337158203125" lon="-4.95905988849699497222900390625">
        <ele>51.59999847412109375</ele>
        <time>2018-09-07T07:55:17.000Z</time>
      </trkpt>
      <trkpt lat="43.4404578991234302520751953125" lon="-4.959159381687641143798828125">
        <ele>52.200000762939453125</ele>
        <time>2018-09-07T07:55:20.000Z</time>
      </trkpt>
      <trkpt lat="43.440466783940792083740234375" lon="-4.95919726788997650146484375">
        <ele>52.200000762939453125</ele>
        <time>2018-09-07T07:55:21.000Z</time>
      </trkpt>
      <trkpt lat="43.44050257466733455657958984375" lon="-4.959305226802825927734375">
        <ele>52.59999847412109375</ele>
        <time>2018-09-07T07:55:24.000Z</time>
      </trkpt>
      <trkpt lat="43.44051347114145755767822265625" lon="-4.959339760243892669677734375">
        <ele>52.799999237060546875</ele>
        <time>2018-09-07T07:55:25.000Z</time>
      </trkpt>
      <trkpt lat="43.44055772759020328521728515625" lon="-4.95949557982385158538818359375">
        <ele>53.200000762939453125</ele>
        <time>2018-09-07T07:55:30.000Z</time>
      </trkpt>
      <trkpt lat="43.440615646541118621826171875" lon="-4.959746785461902618408203125">
        <ele>52.799999237060546875</ele>
        <time>2018-09-07T07:55:36.000Z</time>
      </trkpt>
      <trkpt lat="43.440674655139446258544921875" lon="-4.959960021078586578369140625">
        <ele>52</ele>
        <time>2018-09-07T07:55:40.000Z</time>
      </trkpt>
      <trkpt lat="43.44070072285830974578857421875" lon="-4.9600802175700664520263671875">
        <ele>51.59999847412109375</ele>
        <time>2018-09-07T07:55:42.000Z</time>
      </trkpt>
      <trkpt lat="43.4407110325992107391357421875" lon="-4.96014140546321868896484375">
        <ele>51.40000152587890625</ele>
        <time>2018-09-07T07:55:43.000Z</time>
      </trkpt>
      <trkpt lat="43.44075839035212993621826171875" lon="-4.96032890863716602325439453125">
        <ele>50.200000762939453125</ele>
        <time>2018-09-07T07:55:46.000Z</time>
      </trkpt>
      <trkpt lat="43.440802060067653656005859375" lon="-4.96046637184917926788330078125">
        <ele>49.799999237060546875</ele>
        <time>2018-09-07T07:55:48.000Z</time>
      </trkpt>
      <trkpt lat="43.44086785800755023956298828125" lon="-4.96058237738907337188720703125">
        <ele>49.200000762939453125</ele>
        <time>2018-09-07T07:55:50.000Z</time>
      </trkpt>
      <trkpt lat="43.44095821492373943328857421875" lon="-4.96067290194332599639892578125">
        <ele>48.799999237060546875</ele>
        <time>2018-09-07T07:55:52.000Z</time>
      </trkpt>
      <trkpt lat="43.44100750051438808441162109375" lon="-4.9607132188975811004638671875">
        <ele>48.40000152587890625</ele>
        <time>2018-09-07T07:55:53.000Z</time>
      </trkpt>
      <trkpt lat="43.4410597197711467742919921875" lon="-4.960745237767696380615234375">
        <ele>48.200000762939453125</ele>
        <time>2018-09-07T07:55:54.000Z</time>
      </trkpt>
      <trkpt lat="43.4411120228469371795654296875" lon="-4.96077884919941425323486328125">
        <ele>48.200000762939453125</ele>
        <time>2018-09-07T07:55:55.000Z</time>
      </trkpt>
      <trkpt lat="43.44121285714209079742431640625" lon="-4.9608543701469898223876953125">
        <ele>48.200000762939453125</ele>
        <time>2018-09-07T07:55:57.000Z</time>
      </trkpt>
      <trkpt lat="43.44126566313207149505615234375" lon="-4.9608868919312953948974609375">
        <ele>48.200000762939453125</ele>
        <time>2018-09-07T07:55:58.000Z</time>
      </trkpt>
      <trkpt lat="43.44142793677747249603271484375" lon="-4.9609857983887195587158203125">
        <ele>48</ele>
        <time>2018-09-07T07:56:01.000Z</time>
      </trkpt>
      <trkpt lat="43.441639579832553863525390625" lon="-4.96108554303646087646484375">
        <ele>48</ele>
        <time>2018-09-07T07:56:05.000Z</time>
      </trkpt>
      <trkpt lat="43.4417373128235340118408203125" lon="-4.9611333198845386505126953125">
        <ele>47.799999237060546875</ele>
        <time>2018-09-07T07:56:07.000Z</time>
      </trkpt>
      <trkpt lat="43.44183848239481449127197265625" lon="-4.96117782779037952423095703125">
        <ele>47.799999237060546875</ele>
        <time>2018-09-07T07:56:09.000Z</time>
      </trkpt>
      <trkpt lat="43.44193520955741405487060546875" lon="-4.96121889911592006683349609375">
        <ele>47.799999237060546875</ele>
        <time>2018-09-07T07:56:11.000Z</time>
      </trkpt>
      <trkpt lat="43.4420772828161716461181640625" lon="-4.96126315556466579437255859375">
        <ele>47.799999237060546875</ele>
        <time>2018-09-07T07:56:14.000Z</time>
      </trkpt>
      <trkpt lat="43.4422241337597370147705078125" lon="-4.96130154468119144439697265625">
        <ele>47.799999237060546875</ele>
        <time>2018-09-07T07:56:17.000Z</time>
      </trkpt>
      <trkpt lat="43.44242203049361705780029296875" lon="-4.9613532610237598419189453125">
        <ele>47.799999237060546875</ele>
        <time>2018-09-07T07:56:21.000Z</time>
      </trkpt>
      <trkpt lat="43.442559577524662017822265625" lon="-4.9614276923239231109619140625">
        <ele>47.799999237060546875</ele>
        <time>2018-09-07T07:56:24.000Z</time>
      </trkpt>
      <trkpt lat="43.4426432289183139801025390625" lon="-4.9614880420267581939697265625">
        <ele>47.799999237060546875</ele>
        <time>2018-09-07T07:56:26.000Z</time>
      </trkpt>
      <trkpt lat="43.4428360126912593841552734375" lon="-4.96165609918534755706787109375">
        <ele>47.40000152587890625</ele>
        <time>2018-09-07T07:56:31.000Z</time>
      </trkpt>
      <trkpt lat="43.44290792942047119140625" lon="-4.96173170395195484161376953125">
        <ele>47.40000152587890625</ele>
        <time>2018-09-07T07:56:33.000Z</time>
      </trkpt>
      <trkpt lat="43.44307732768356800079345703125" lon="-4.9619591049849987030029296875">
        <ele>47.40000152587890625</ele>
        <time>2018-09-07T07:56:38.000Z</time>
      </trkpt>
      <trkpt lat="43.44313197769224643707275390625" lon="-4.96205491013824939727783203125">
        <ele>47.200000762939453125</ele>
        <time>2018-09-07T07:56:40.000Z</time>
      </trkpt>
      <trkpt lat="43.4432150423526763916015625" lon="-4.96224182657897472381591796875">
        <ele>47.200000762939453125</ele>
        <time>2018-09-07T07:56:44.000Z</time>
      </trkpt>
      <trkpt lat="43.44332576729357242584228515625" lon="-4.96231726370751857757568359375">
        <ele>47.200000762939453125</ele>
        <time>2018-09-07T07:56:48.000Z</time>
      </trkpt>
      <trkpt lat="43.44331000931560993194580078125" lon="-4.96233218349516391754150390625">
        <ele>47.200000762939453125</ele>
        <time>2018-09-07T07:56:50.000Z</time>
      </trkpt>
      <trkpt lat="43.443295843899250030517578125" lon="-4.96232380159199237823486328125">
        <ele>47</ele>
        <time>2018-09-07T07:56:51.000Z</time>
      </trkpt>
      <trkpt lat="43.4432500787079334259033203125" lon="-4.962266385555267333984375">
        <ele>47</ele>
        <time>2018-09-07T07:56:53.000Z</time>
      </trkpt>
      <trkpt lat="43.44322568736970424652099609375" lon="-4.96223076246678829193115234375">
        <ele>47</ele>
        <time>2018-09-07T07:56:54.000Z</time>
      </trkpt>
      <trkpt lat="43.4432021342217922210693359375" lon="-4.962191283702850341796875">
        <ele>47</ele>
        <time>2018-09-07T07:56:55.000Z</time>
      </trkpt>
      <trkpt lat="43.4431038983166217803955078125" lon="-4.96208290569484233856201171875">
        <ele>47.40000152587890625</ele>
        <time>2018-09-07T07:57:00.000Z</time>
      </trkpt>
      <trkpt lat="43.44306961633265018463134765625" lon="-4.9621478654444217681884765625">
        <ele>47.200000762939453125</ele>
        <time>2018-09-07T07:57:03.000Z</time>
      </trkpt>
      <trkpt lat="43.4430586360394954681396484375" lon="-4.96217451989650726318359375">
        <ele>47</ele>
        <time>2018-09-07T07:57:04.000Z</time>
      </trkpt>
      <trkpt lat="43.4430331550538539886474609375" lon="-4.96226546354591846466064453125">
        <ele>46.59999847412109375</ele>
        <time>2018-09-07T07:57:07.000Z</time>
      </trkpt>
      <trkpt lat="43.443005494773387908935546875" lon="-4.962401501834392547607421875">
        <ele>46.40000152587890625</ele>
        <time>2018-09-07T07:57:11.000Z</time>
      </trkpt>
      <trkpt lat="43.44298831187188625335693359375" lon="-4.9625815451145172119140625">
        <ele>46</ele>
        <time>2018-09-07T07:57:15.000Z</time>
      </trkpt>
      <trkpt lat="43.4430006332695484161376953125" lon="-4.96268288232386112213134765625">
        <ele>45.799999237060546875</ele>
        <time>2018-09-07T07:57:17.000Z</time>
      </trkpt>
      <trkpt lat="43.4430056624114513397216796875" lon="-4.96282235719263553619384765625">
        <ele>45.799999237060546875</ele>
        <time>2018-09-07T07:57:20.000Z</time>
      </trkpt>
      <trkpt lat="43.443028964102268218994140625" lon="-4.9629555456340312957763671875">
        <ele>45.799999237060546875</ele>
        <time>2018-09-07T07:57:23.000Z</time>
      </trkpt>
      <trkpt lat="43.4430780820548534393310546875" lon="-4.96308253146708011627197265625">
        <ele>45.59999847412109375</ele>
        <time>2018-09-07T07:57:26.000Z</time>
      </trkpt>
      <trkpt lat="43.44313298352062702178955078125" lon="-4.96318361721932888031005859375">
        <ele>45.59999847412109375</ele>
        <time>2018-09-07T07:57:29.000Z</time>
      </trkpt>
      <trkpt lat="43.44322501681745052337646484375" lon="-4.96337212622165679931640625">
        <ele>45.40000152587890625</ele>
        <time>2018-09-07T07:57:34.000Z</time>
      </trkpt>
      <trkpt lat="43.44325787387788295745849609375" lon="-4.96345460414886474609375">
        <ele>45.59999847412109375</ele>
        <time>2018-09-07T07:57:36.000Z</time>
      </trkpt>
      <trkpt lat="43.4432738833129405975341796875" lon="-4.9634960107505321502685546875">
        <ele>45.799999237060546875</ele>
        <time>2018-09-07T07:57:37.000Z</time>
      </trkpt>
      <trkpt lat="43.443404138088226318359375" lon="-4.96374336071312427520751953125">
        <ele>46.200000762939453125</ele>
        <time>2018-09-07T07:57:44.000Z</time>
      </trkpt>
      <trkpt lat="43.443466834723949432373046875" lon="-4.96382768265902996063232421875">
        <ele>46.40000152587890625</ele>
        <time>2018-09-07T07:57:47.000Z</time>
      </trkpt>
      <trkpt lat="43.4435530006885528564453125" lon="-4.96392600238323211669921875">
        <ele>47.200000762939453125</ele>
        <time>2018-09-07T07:57:51.000Z</time>
      </trkpt>
      <trkpt lat="43.4435866959393024444580078125" lon="-4.9639747850596904754638671875">
        <ele>47.59999847412109375</ele>
        <time>2018-09-07T07:57:53.000Z</time>
      </trkpt>
      <trkpt lat="43.44361242838203907012939453125" lon="-4.96403102762997150421142578125">
        <ele>47.799999237060546875</ele>
        <time>2018-09-07T07:57:55.000Z</time>
      </trkpt>
      <trkpt lat="43.44363103620707988739013671875" lon="-4.96408768929541110992431640625">
        <ele>48.200000762939453125</ele>
        <time>2018-09-07T07:57:57.000Z</time>
      </trkpt>
      <trkpt lat="43.443635813891887664794921875" lon="-4.96411602012813091278076171875">
        <ele>48.40000152587890625</ele>
        <time>2018-09-07T07:57:58.000Z</time>
      </trkpt>
      <trkpt lat="43.44365634955465793609619140625" lon="-4.964168407022953033447265625">
        <ele>49</ele>
        <time>2018-09-07T07:58:00.000Z</time>
      </trkpt>
      <trkpt lat="43.44366707839071750640869140625" lon="-4.9642203748226165771484375">
        <ele>49.59999847412109375</ele>
        <time>2018-09-07T07:58:02.000Z</time>
      </trkpt>
      <trkpt lat="43.443676717579364776611328125" lon="-4.9642686545848846435546875">
        <ele>50</ele>
        <time>2018-09-07T07:58:04.000Z</time>
      </trkpt>
      <trkpt lat="43.44368786551058292388916015625" lon="-4.9643140845000743865966796875">
        <ele>50.59999847412109375</ele>
        <time>2018-09-07T07:58:06.000Z</time>
      </trkpt>
      <trkpt lat="43.44369339756667613983154296875" lon="-4.9643399007618427276611328125">
        <ele>50.799999237060546875</ele>
        <time>2018-09-07T07:58:07.000Z</time>
      </trkpt>
      <trkpt lat="43.4437085688114166259765625" lon="-4.96438910253345966339111328125">
        <ele>51.200000762939453125</ele>
        <time>2018-09-07T07:58:09.000Z</time>
      </trkpt>
      <trkpt lat="43.4437300264835357666015625" lon="-4.96444174088537693023681640625">
        <ele>51.59999847412109375</ele>
        <time>2018-09-07T07:58:11.000Z</time>
      </trkpt>
      <trkpt lat="43.44373849220573902130126953125" lon="-4.964466132223606109619140625">
        <ele>51.799999237060546875</ele>
        <time>2018-09-07T07:58:12.000Z</time>
      </trkpt>
      <trkpt lat="43.44376824796199798583984375" lon="-4.96455204673111438751220703125">
        <ele>52.59999847412109375</ele>
        <time>2018-09-07T07:58:16.000Z</time>
      </trkpt>
      <trkpt lat="43.44378576613962650299072265625" lon="-4.96462848968803882598876953125">
        <ele>52.799999237060546875</ele>
        <time>2018-09-07T07:58:19.000Z</time>
      </trkpt>
      <trkpt lat="43.44379532150924205780029296875" lon="-4.9646460078656673431396484375">
        <ele>53</ele>
        <time>2018-09-07T07:58:20.000Z</time>
      </trkpt>
      <trkpt lat="43.4438130073249340057373046875" lon="-4.96473209001123905181884765625">
        <ele>53.799999237060546875</ele>
        <time>2018-09-07T07:58:24.000Z</time>
      </trkpt>
      <trkpt lat="43.4438373148441314697265625" lon="-4.9648629315197467803955078125">
        <ele>54.59999847412109375</ele>
        <time>2018-09-07T07:58:28.000Z</time>
      </trkpt>
      <trkpt lat="43.4438472054898738861083984375" lon="-4.96491598896682262420654296875">
        <ele>55</ele>
        <time>2018-09-07T07:58:30.000Z</time>
      </trkpt>
      <trkpt lat="43.44386992044746875762939453125" lon="-4.96506216935813426971435546875">
        <ele>56</ele>
        <time>2018-09-07T07:58:36.000Z</time>
      </trkpt>
      <trkpt lat="43.44387126155197620391845703125" lon="-4.96508178301155567169189453125">
        <ele>56.200000762939453125</ele>
        <time>2018-09-07T07:58:37.000Z</time>
      </trkpt>
      <trkpt lat="43.44389171339571475982666015625" lon="-4.965198040008544921875">
        <ele>57.200000762939453125</ele>
        <time>2018-09-07T07:58:41.000Z</time>
      </trkpt>
      <trkpt lat="43.44388852827250957489013671875" lon="-4.96527875773608684539794921875">
        <ele>57.799999237060546875</ele>
        <time>2018-09-07T07:58:44.000Z</time>
      </trkpt>
      <trkpt lat="43.44390478916466236114501953125" lon="-4.96532921679317951202392578125">
        <ele>58.200000762939453125</ele>
        <time>2018-09-07T07:58:46.000Z</time>
      </trkpt>
      <trkpt lat="43.44395357184112071990966796875" lon="-4.9654139578342437744140625">
        <ele>58.59999847412109375</ele>
        <time>2018-09-07T07:58:50.000Z</time>
      </trkpt>
      <trkpt lat="43.4440124966204166412353515625" lon="-4.965524934232234954833984375">
        <ele>59.40000152587890625</ele>
        <time>2018-09-07T07:58:55.000Z</time>
      </trkpt>
      <trkpt lat="43.44403906725347042083740234375" lon="-4.96555418707430362701416015625">
        <ele>59.799999237060546875</ele>
        <time>2018-09-07T07:58:57.000Z</time>
      </trkpt>
      <trkpt lat="43.44406236894428730010986328125" lon="-4.96561202220618724822998046875">
        <ele>60.59999847412109375</ele>
        <time>2018-09-07T07:59:00.000Z</time>
      </trkpt>
      <trkpt lat="43.44406731426715850830078125" lon="-4.96572081930935382843017578125">
        <ele>61.59999847412109375</ele>
        <time>2018-09-07T07:59:04.000Z</time>
      </trkpt>
      <trkpt lat="43.44407410360872745513916015625" lon="-4.96581167913973331451416015625">
        <ele>62.799999237060546875</ele>
        <time>2018-09-07T07:59:08.000Z</time>
      </trkpt>
      <trkpt lat="43.4440755285322666168212890625" lon="-4.96587772853672504425048828125">
        <ele>63.799999237060546875</ele>
        <time>2018-09-07T07:59:11.000Z</time>
      </trkpt>
      <trkpt lat="43.44407343305647373199462890625" lon="-4.96589968912303447723388671875">
        <ele>64.1999969482421875</ele>
        <time>2018-09-07T07:59:12.000Z</time>
      </trkpt>
      <trkpt lat="43.44407360069453716278076171875" lon="-4.965918548405170440673828125">
        <ele>64.40000152587890625</ele>
        <time>2018-09-07T07:59:13.000Z</time>
      </trkpt>
      <trkpt lat="43.44406940974295139312744140625" lon="-4.96596121229231357574462890625">
        <ele>65.1999969482421875</ele>
        <time>2018-09-07T07:59:15.000Z</time>
      </trkpt>
      <trkpt lat="43.44406739808619022369384765625" lon="-4.9660323746502399444580078125">
        <ele>66.1999969482421875</ele>
        <time>2018-09-07T07:59:19.000Z</time>
      </trkpt>
      <trkpt lat="43.4440621174871921539306640625" lon="-4.9660860188305377960205078125">
        <ele>66.8000030517578125</ele>
        <time>2018-09-07T07:59:22.000Z</time>
      </trkpt>
      <trkpt lat="43.44405658543109893798828125" lon="-4.96617059223353862762451171875">
        <ele>67.40000152587890625</ele>
        <time>2018-09-07T07:59:26.000Z</time>
      </trkpt>
      <trkpt lat="43.444045521318912506103515625" lon="-4.96625441126525402069091796875">
        <ele>68.59999847412109375</ele>
        <time>2018-09-07T07:59:31.000Z</time>
      </trkpt>
      <trkpt lat="43.44402280636131763458251953125" lon="-4.966477788984775543212890625">
        <ele>71.40000152587890625</ele>
        <time>2018-09-07T07:59:43.000Z</time>
      </trkpt>
      <trkpt lat="43.444019369781017303466796875" lon="-4.96653201989829540252685546875">
        <ele>72.40000152587890625</ele>
        <time>2018-09-07T07:59:46.000Z</time>
      </trkpt>
      <trkpt lat="43.44402045942842960357666015625" lon="-4.9665217101573944091796875">
        <ele>72.59999847412109375</ele>
        <time>2018-09-07T07:59:47.000Z</time>
      </trkpt>
      <trkpt lat="43.4439712576568126678466796875" lon="-4.96689965017139911651611328125">
        <ele>76</ele>
        <time>2018-09-07T08:00:03.000Z</time>
      </trkpt>
      <trkpt lat="43.4439588524401187896728515625" lon="-4.96696603484451770782470703125">
        <ele>76.59999847412109375</ele>
        <time>2018-09-07T08:00:06.000Z</time>
      </trkpt>
      <trkpt lat="43.443949632346630096435546875" lon="-4.96701322495937347412109375">
        <ele>77.1999969482421875</ele>
        <time>2018-09-07T08:00:08.000Z</time>
      </trkpt>
      <trkpt lat="43.4439477883279323577880859375" lon="-4.96713015250861644744873046875">
        <ele>78.1999969482421875</ele>
        <time>2018-09-07T08:00:13.000Z</time>
      </trkpt>
      <trkpt lat="43.443949632346630096435546875" lon="-4.96715211309492588043212890625">
        <ele>78.40000152587890625</ele>
        <time>2018-09-07T08:00:14.000Z</time>
      </trkpt>
      <trkpt lat="43.4439410828053951263427734375" lon="-4.967245571315288543701171875">
        <ele>79.1999969482421875</ele>
        <time>2018-09-07T08:00:18.000Z</time>
      </trkpt>
      <trkpt lat="43.44393982551991939544677734375" lon="-4.96731095016002655029296875">
        <ele>80</ele>
        <time>2018-09-07T08:00:21.000Z</time>
      </trkpt>
      <trkpt lat="43.44392708502709865570068359375" lon="-4.9673558771610260009765625">
        <ele>80.40000152587890625</ele>
        <time>2018-09-07T08:00:23.000Z</time>
      </trkpt>
      <trkpt lat="43.44388064928352832794189453125" lon="-4.96745553798973560333251953125">
        <ele>81.1999969482421875</ele>
        <time>2018-09-07T08:00:28.000Z</time>
      </trkpt>
      <trkpt lat="43.4438740275800228118896484375" lon="-4.96747230179607868194580078125">
        <ele>81.40000152587890625</ele>
        <time>2018-09-07T08:00:29.000Z</time>
      </trkpt>
      <trkpt lat="43.44382415525615215301513671875" lon="-4.96758612804114818572998046875">
        <ele>82.40000152587890625</ele>
        <time>2018-09-07T08:00:36.000Z</time>
      </trkpt>
      <trkpt lat="43.44380118884146213531494140625" lon="-4.96763683855533599853515625">
        <ele>82.59999847412109375</ele>
        <time>2018-09-07T08:00:39.000Z</time>
      </trkpt>
      <trkpt lat="43.443795740604400634765625" lon="-4.96765938587486743927001953125">
        <ele>83.40000152587890625</ele>
        <time>2018-09-07T08:00:42.000Z</time>
      </trkpt>
      <trkpt lat="43.44372256658971309661865234375" lon="-4.96798158623278141021728515625">
        <ele>85</ele>
        <time>2018-09-07T08:01:01.000Z</time>
      </trkpt>
      <trkpt lat="43.4437120892107486724853515625" lon="-4.96800689958035945892333984375">
        <ele>85.1999969482421875</ele>
        <time>2018-09-07T08:01:02.000Z</time>
      </trkpt>
      <trkpt lat="43.4436966665089130401611328125" lon="-4.96805769391357898712158203125">
        <ele>85.40000152587890625</ele>
        <time>2018-09-07T08:01:04.000Z</time>
      </trkpt>
      <trkpt lat="43.4436629712581634521484375" lon="-4.96814302168786525726318359375">
        <ele>85.1999969482421875</ele>
        <time>2018-09-07T08:01:07.000Z</time>
      </trkpt>
      <trkpt lat="43.44362449832260608673095703125" lon="-4.96822583489120006561279296875">
        <ele>85.1999969482421875</ele>
        <time>2018-09-07T08:01:10.000Z</time>
      </trkpt>
      <trkpt lat="43.44360639341175556182861328125" lon="-4.96826673857867717742919921875">
        <ele>85.1999969482421875</ele>
        <time>2018-09-07T08:01:12.000Z</time>
      </trkpt>
      <trkpt lat="43.4435967542231082916259765625" lon="-4.96828861534595489501953125">
        <ele>85.1999969482421875</ele>
        <time>2018-09-07T08:01:15.000Z</time>
      </trkpt>
      <trkpt lat="43.44357219524681568145751953125" lon="-4.96843705885112285614013671875">
        <ele>85.8000030517578125</ele>
        <time>2018-09-07T08:02:25.000Z</time>
      </trkpt>
      <trkpt lat="43.443574793636798858642578125" lon="-4.96846354566514492034912109375">
        <ele>86</ele>
        <time>2018-09-07T08:02:26.000Z</time>
      </trkpt>
      <trkpt lat="43.44358175061643123626708984375" lon="-4.9684845842421054840087890625">
        <ele>86.40000152587890625</ele>
        <time>2018-09-07T08:02:27.000Z</time>
      </trkpt>
      <trkpt lat="43.4435893781483173370361328125" lon="-4.9685132503509521484375">
        <ele>86.59999847412109375</ele>
        <time>2018-09-07T08:02:28.000Z</time>
      </trkpt>
      <trkpt lat="43.443619050085544586181640625" lon="-4.9685821495950222015380859375">
        <ele>86.8000030517578125</ele>
        <time>2018-09-07T08:02:31.000Z</time>
      </trkpt>
      <trkpt lat="43.44366003759205341339111328125" lon="-4.9686334468424320220947265625">
        <ele>87.40000152587890625</ele>
        <time>2018-09-07T08:02:34.000Z</time>
      </trkpt>
      <trkpt lat="43.44368685968220233917236328125" lon="-4.96866739355027675628662109375">
        <ele>87.8000030517578125</ele>
        <time>2018-09-07T08:02:36.000Z</time>
      </trkpt>
      <trkpt lat="43.4437275119125843048095703125" lon="-4.96875054202973842620849609375">
        <ele>88.1999969482421875</ele>
        <time>2018-09-07T08:02:40.000Z</time>
      </trkpt>
      <trkpt lat="43.443763554096221923828125" lon="-4.96880586259067058563232421875">
        <ele>88.40000152587890625</ele>
        <time>2018-09-07T08:02:43.000Z</time>
      </trkpt>
      <trkpt lat="43.4437741152942180633544921875" lon="-4.96881977654993534088134765625">
        <ele>88.59999847412109375</ele>
        <time>2018-09-07T08:02:44.000Z</time>
      </trkpt>
      <trkpt lat="43.44382189214229583740234375" lon="-4.968905858695507049560546875">
        <ele>89.1999969482421875</ele>
        <time>2018-09-07T08:02:49.000Z</time>
      </trkpt>
      <trkpt lat="43.44384108670055866241455078125" lon="-4.96893444098532199859619140625">
        <ele>89.8000030517578125</ele>
        <time>2018-09-07T08:02:51.000Z</time>
      </trkpt>
      <trkpt lat="43.44384393654763698577880859375" lon="-4.96895112097263336181640625">
        <ele>90</ele>
        <time>2018-09-07T08:02:52.000Z</time>
      </trkpt>
      <trkpt lat="43.443890623748302459716796875" lon="-4.96902379207313060760498046875">
        <ele>90.8000030517578125</ele>
        <time>2018-09-07T08:02:57.000Z</time>
      </trkpt>
      <trkpt lat="43.443895317614078521728515625" lon="-4.96903753839433193206787109375">
        <ele>91</ele>
        <time>2018-09-07T08:02:58.000Z</time>
      </trkpt>
      <trkpt lat="43.44394351355731487274169921875" lon="-4.969167374074459075927734375">
        <ele>92</ele>
        <time>2018-09-07T08:03:05.000Z</time>
      </trkpt>
      <trkpt lat="43.44396647997200489044189453125" lon="-4.96926016174256801605224609375">
        <ele>93</ele>
        <time>2018-09-07T08:03:10.000Z</time>
      </trkpt>
      <trkpt lat="43.44397209584712982177734375" lon="-4.96929285116493701934814453125">
        <ele>93.1999969482421875</ele>
        <time>2018-09-07T08:03:12.000Z</time>
      </trkpt>
      <trkpt lat="43.44397477805614471435546875" lon="-4.9693143926560878753662109375">
        <ele>93.40000152587890625</ele>
        <time>2018-09-07T08:03:13.000Z</time>
      </trkpt>
      <trkpt lat="43.443979807198047637939453125" lon="-4.9693546257913112640380859375">
        <ele>94</ele>
        <time>2018-09-07T08:03:15.000Z</time>
      </trkpt>
      <trkpt lat="43.44398106448352336883544921875" lon="-4.96935253031551837921142578125">
        <ele>94.59999847412109375</ele>
        <time>2018-09-07T08:03:17.000Z</time>
      </trkpt>
      <trkpt lat="43.44404661096632480621337890625" lon="-4.969616644084453582763671875">
        <ele>98</ele>
        <time>2018-09-07T08:03:44.000Z</time>
      </trkpt>
      <trkpt lat="43.444047532975673675537109375" lon="-4.9696342460811138153076171875">
        <ele>98</ele>
        <time>2018-09-07T08:03:45.000Z</time>
      </trkpt>
      <trkpt lat="43.44404912553727626800537109375" lon="-4.96967188082635402679443359375">
        <ele>98.40000152587890625</ele>
        <time>2018-09-07T08:03:47.000Z</time>
      </trkpt>
      <trkpt lat="43.444077037274837493896484375" lon="-4.96979123912751674652099609375">
        <ele>99</ele>
        <time>2018-09-07T08:03:53.000Z</time>
      </trkpt>
      <trkpt lat="43.44410008750855922698974609375" lon="-4.96986466459929943084716796875">
        <ele>99.59999847412109375</ele>
        <time>2018-09-07T08:03:57.000Z</time>
      </trkpt>
      <trkpt lat="43.44410427846014499664306640625" lon="-4.96990322135388851165771484375">
        <ele>100</ele>
        <time>2018-09-07T08:03:59.000Z</time>
      </trkpt>
      <trkpt lat="43.4441419132053852081298828125" lon="-4.97003766708076000213623046875">
        <ele>101.1999969482421875</ele>
        <time>2018-09-07T08:04:06.000Z</time>
      </trkpt>
      <trkpt lat="43.444147445261478424072265625" lon="-4.97008192352950572967529296875">
        <ele>101.40000152587890625</ele>
        <time>2018-09-07T08:04:08.000Z</time>
      </trkpt>
      <trkpt lat="43.44415490515530109405517578125" lon="-4.9701669998466968536376953125">
        <ele>102.1999969482421875</ele>
        <time>2018-09-07T08:04:12.000Z</time>
      </trkpt>
      <trkpt lat="43.44417301006615161895751953125" lon="-4.97023724019527435302734375">
        <ele>102.8000030517578125</ele>
        <time>2018-09-07T08:04:16.000Z</time>
      </trkpt>
      <trkpt lat="43.4441940486431121826171875" lon="-4.970306642353534698486328125">
        <ele>103.1999969482421875</ele>
        <time>2018-09-07T08:04:20.000Z</time>
      </trkpt>
      <trkpt lat="43.44419446773827075958251953125" lon="-4.970326758921146392822265625">
        <ele>103.40000152587890625</ele>
        <time>2018-09-07T08:04:21.000Z</time>
      </trkpt>
      <trkpt lat="43.44421274028718471527099609375" lon="-4.97040353715419769287109375">
        <ele>103.8000030517578125</ele>
        <time>2018-09-07T08:04:24.000Z</time>
      </trkpt>
      <trkpt lat="43.44422799535095691680908203125" lon="-4.9704808183014392852783203125">
        <ele>104.59999847412109375</ele>
        <time>2018-09-07T08:04:27.000Z</time>
      </trkpt>
      <trkpt lat="43.44427174888551235198974609375" lon="-4.9705438502132892608642578125">
        <ele>105.8000030517578125</ele>
        <time>2018-09-07T08:04:31.000Z</time>
      </trkpt>
      <trkpt lat="43.44428499229252338409423828125" lon="-4.9705517292022705078125">
        <ele>106.59999847412109375</ele>
        <time>2018-09-07T08:04:34.000Z</time>
      </trkpt>
      <trkpt lat="43.4442766942083835601806640625" lon="-4.97067435644567012786865234375">
        <ele>106.59999847412109375</ele>
        <time>2018-09-07T08:11:40.000Z</time>
      </trkpt>
      <trkpt lat="43.4442730061709880828857421875" lon="-4.97070101089775562286376953125">
        <ele>106.59999847412109375</ele>
        <time>2018-09-07T08:11:41.000Z</time>
      </trkpt>
      <trkpt lat="43.4442696534097194671630859375" lon="-4.9707569181919097900390625">
        <ele>106.40000152587890625</ele>
        <time>2018-09-07T08:11:43.000Z</time>
      </trkpt>
      <trkpt lat="43.4442632831633090972900390625" lon="-4.9708710797131061553955078125">
        <ele>106.1999969482421875</ele>
        <time>2018-09-07T08:11:46.000Z</time>
      </trkpt>
      <trkpt lat="43.4442207030951976776123046875" lon="-4.9712117202579975128173828125">
        <ele>104.59999847412109375</ele>
        <time>2018-09-07T08:11:52.000Z</time>
      </trkpt>
      <trkpt lat="43.44420737586915493011474609375" lon="-4.9712740816175937652587890625">
        <ele>104.40000152587890625</ele>
        <time>2018-09-07T08:11:53.000Z</time>
      </trkpt>
      <trkpt lat="43.4441610239446163177490234375" lon="-4.97149695642292499542236328125">
        <ele>103.40000152587890625</ele>
        <time>2018-09-07T08:11:56.000Z</time>
      </trkpt>
      <trkpt lat="43.4441409073770046234130859375" lon="-4.9715872295200824737548828125">
        <ele>102.8000030517578125</ele>
        <time>2018-09-07T08:11:57.000Z</time>
      </trkpt>
      <trkpt lat="43.44411802478134632110595703125" lon="-4.971686638891696929931640625">
        <ele>101.8000030517578125</ele>
        <time>2018-09-07T08:11:58.000Z</time>
      </trkpt>
      <trkpt lat="43.44406505115330219268798828125" lon="-4.97189660556614398956298828125">
        <ele>99.8000030517578125</ele>
        <time>2018-09-07T08:12:00.000Z</time>
      </trkpt>
      <trkpt lat="43.444020710885524749755859375" lon="-4.9721028842031955718994140625">
        <ele>98.8000030517578125</ele>
        <time>2018-09-07T08:12:02.000Z</time>
      </trkpt>
      <trkpt lat="43.44399145804345607757568359375" lon="-4.972304217517375946044921875">
        <ele>98.59999847412109375</ele>
        <time>2018-09-07T08:12:04.000Z</time>
      </trkpt>
      <trkpt lat="43.44397737644612789154052734375" lon="-4.97267981059849262237548828125">
        <ele>98.1999969482421875</ele>
        <time>2018-09-07T08:12:08.000Z</time>
      </trkpt>
      <trkpt lat="43.4439715929329395294189453125" lon="-4.97286119498312473297119140625">
        <ele>97.59999847412109375</ele>
        <time>2018-09-07T08:12:10.000Z</time>
      </trkpt>
      <trkpt lat="43.44395122490823268890380859375" lon="-4.97315523214638233184814453125">
        <ele>96.1999969482421875</ele>
        <time>2018-09-07T08:12:13.000Z</time>
      </trkpt>
      <trkpt lat="43.44393446110188961029052734375" lon="-4.9732505343854427337646484375">
        <ele>95.40000152587890625</ele>
        <time>2018-09-07T08:12:14.000Z</time>
      </trkpt>
      <trkpt lat="43.4439139254391193389892578125" lon="-4.9733403883874416351318359375">
        <ele>94.59999847412109375</ele>
        <time>2018-09-07T08:12:15.000Z</time>
      </trkpt>
      <trkpt lat="43.443855755031108856201171875" lon="-4.97348883189260959625244140625">
        <ele>93.1999969482421875</ele>
        <time>2018-09-07T08:12:17.000Z</time>
      </trkpt>
      <trkpt lat="43.44381040893495082855224609375" lon="-4.97354582883417606353759765625">
        <ele>92.8000030517578125</ele>
        <time>2018-09-07T08:12:18.000Z</time>
      </trkpt>
      <trkpt lat="43.443759866058826446533203125" lon="-4.9736000597476959228515625">
        <ele>91.8000030517578125</ele>
        <time>2018-09-07T08:12:19.000Z</time>
      </trkpt>
      <trkpt lat="43.4436307847499847412109375" lon="-4.97371564619243144989013671875">
        <ele>90.40000152587890625</ele>
        <time>2018-09-07T08:12:21.000Z</time>
      </trkpt>
      <trkpt lat="43.44357152469456195831298828125" lon="-4.97378471307456493377685546875">
        <ele>90</ele>
        <time>2018-09-07T08:12:22.000Z</time>
      </trkpt>
      <trkpt lat="43.44351402483880519866943359375" lon="-4.97385847382247447967529296875">
        <ele>89.40000152587890625</ele>
        <time>2018-09-07T08:12:23.000Z</time>
      </trkpt>
      <trkpt lat="43.44346641562879085540771484375" lon="-4.97394631616771221160888671875">
        <ele>88.59999847412109375</ele>
        <time>2018-09-07T08:12:24.000Z</time>
      </trkpt>
      <trkpt lat="43.44342987053096294403076171875" lon="-4.97404304333031177520751953125">
        <ele>88.1999969482421875</ele>
        <time>2018-09-07T08:12:25.000Z</time>
      </trkpt>
      <trkpt lat="43.44339902512729167938232421875" lon="-4.97414178214967250823974609375">
        <ele>87.40000152587890625</ele>
        <time>2018-09-07T08:12:26.000Z</time>
      </trkpt>
      <trkpt lat="43.44336901791393756866455078125" lon="-4.9742369167506694793701171875">
        <ele>87</ele>
        <time>2018-09-07T08:12:27.000Z</time>
      </trkpt>
      <trkpt lat="43.443282432854175567626953125" lon="-4.974572695791721343994140625">
        <ele>88.1999969482421875</ele>
        <time>2018-09-07T08:12:31.000Z</time>
      </trkpt>
      <trkpt lat="43.443267345428466796875" lon="-4.97471359558403491973876953125">
        <ele>88.40000152587890625</ele>
        <time>2018-09-07T08:12:33.000Z</time>
      </trkpt>
      <trkpt lat="43.4432564489543437957763671875" lon="-4.97485692612826824188232421875">
        <ele>88.1999969482421875</ele>
        <time>2018-09-07T08:12:35.000Z</time>
      </trkpt>
      <trkpt lat="43.44324178062379360198974609375" lon="-4.9750107340514659881591796875">
        <ele>87.59999847412109375</ele>
        <time>2018-09-07T08:12:37.000Z</time>
      </trkpt>
      <trkpt lat="43.44322686083614826202392578125" lon="-4.97516118921339511871337890625">
        <ele>87.1999969482421875</ele>
        <time>2018-09-07T08:12:39.000Z</time>
      </trkpt>
      <trkpt lat="43.443229459226131439208984375" lon="-4.97524333186447620391845703125">
        <ele>86.8000030517578125</ele>
        <time>2018-09-07T08:12:40.000Z</time>
      </trkpt>
      <trkpt lat="43.4432497434318065643310546875" lon="-4.97542153112590312957763671875">
        <ele>86.1999969482421875</ele>
        <time>2018-09-07T08:12:42.000Z</time>
      </trkpt>
      <trkpt lat="43.44326072372496128082275390625" lon="-4.97551054693758487701416015625">
        <ele>85.8000030517578125</ele>
        <time>2018-09-07T08:12:43.000Z</time>
      </trkpt>
      <trkpt lat="43.44331336207687854766845703125" lon="-4.97586510144174098968505859375">
        <ele>84.59999847412109375</ele>
        <time>2018-09-07T08:12:47.000Z</time>
      </trkpt>
      <trkpt lat="43.44333280809223651885986328125" lon="-4.97595839202404022216796875">
        <ele>84.40000152587890625</ele>
        <time>2018-09-07T08:12:48.000Z</time>
      </trkpt>
      <trkpt lat="43.44339651055634021759033203125" lon="-4.97623474337160587310791015625">
        <ele>83.40000152587890625</ele>
        <time>2018-09-07T08:12:51.000Z</time>
      </trkpt>
      <trkpt lat="43.44342894852161407470703125" lon="-4.9764056503772735595703125">
        <ele>83.1999969482421875</ele>
        <time>2018-09-07T08:12:53.000Z</time>
      </trkpt>
      <trkpt lat="43.44344294629991054534912109375" lon="-4.9765707738697528839111328125">
        <ele>83.40000152587890625</ele>
        <time>2018-09-07T08:12:55.000Z</time>
      </trkpt>
      <trkpt lat="43.4434401802718639373779296875" lon="-4.97673145495355129241943359375">
        <ele>83.8000030517578125</ele>
        <time>2018-09-07T08:12:57.000Z</time>
      </trkpt>
      <trkpt lat="43.4434157051146030426025390625" lon="-4.97706622816622257232666015625">
        <ele>83.1999969482421875</ele>
        <time>2018-09-07T08:13:01.000Z</time>
      </trkpt>
      <trkpt lat="43.44340153969824314117431640625" lon="-4.97714233584702014923095703125">
        <ele>83.1999969482421875</ele>
        <time>2018-09-07T08:13:02.000Z</time>
      </trkpt>
      <trkpt lat="43.443327359855175018310546875" lon="-4.9773231334984302520751953125">
        <ele>83.1999969482421875</ele>
        <time>2018-09-07T08:13:05.000Z</time>
      </trkpt>
      <trkpt lat="43.44329349696636199951171875" lon="-4.97737862169742584228515625">
        <ele>83.1999969482421875</ele>
        <time>2018-09-07T08:13:06.000Z</time>
      </trkpt>
      <trkpt lat="43.4432591311633586883544921875" lon="-4.9774344451725482940673828125">
        <ele>83.40000152587890625</ele>
        <time>2018-09-07T08:13:07.000Z</time>
      </trkpt>
      <trkpt lat="43.4432257711887359619140625" lon="-4.977490939199924468994140625">
        <ele>83.8000030517578125</ele>
        <time>2018-09-07T08:13:08.000Z</time>
      </trkpt>
      <trkpt lat="43.44315829686820507049560546875" lon="-4.97762010432779788970947265625">
        <ele>84</ele>
        <time>2018-09-07T08:13:10.000Z</time>
      </trkpt>
      <trkpt lat="43.44312854111194610595703125" lon="-4.97768883593380451202392578125">
        <ele>83.8000030517578125</ele>
        <time>2018-09-07T08:13:11.000Z</time>
      </trkpt>
      <trkpt lat="43.4430782496929168701171875" lon="-4.9778340943157672882080078125">
        <ele>84</ele>
        <time>2018-09-07T08:13:13.000Z</time>
      </trkpt>
      <trkpt lat="43.44305737875401973724365234375" lon="-4.977991171181201934814453125">
        <ele>83.59999847412109375</ele>
        <time>2018-09-07T08:13:15.000Z</time>
      </trkpt>
      <trkpt lat="43.443028628826141357421875" lon="-4.97832275927066802978515625">
        <ele>82.8000030517578125</ele>
        <time>2018-09-07T08:13:19.000Z</time>
      </trkpt>
      <trkpt lat="43.44300993718206882476806640625" lon="-4.97840649448335170745849609375">
        <ele>82.40000152587890625</ele>
        <time>2018-09-07T08:13:20.000Z</time>
      </trkpt>
      <trkpt lat="43.4429895691573619842529296875" lon="-4.97849232517182826995849609375">
        <ele>82.1999969482421875</ele>
        <time>2018-09-07T08:13:21.000Z</time>
      </trkpt>
      <trkpt lat="43.4429476596415042877197265625" lon="-4.97865200042724609375">
        <ele>82</ele>
        <time>2018-09-07T08:13:24.000Z</time>
      </trkpt>
      <trkpt lat="43.44293005764484405517578125" lon="-4.97872333042323589324951171875">
        <ele>81.8000030517578125</ele>
        <time>2018-09-07T08:13:27.000Z</time>
      </trkpt>
      <trkpt lat="43.44293282367289066314697265625" lon="-4.9787413515150547027587890625">
        <ele>81.59999847412109375</ele>
        <time>2018-09-07T08:13:28.000Z</time>
      </trkpt>
      <trkpt lat="43.44293751753866672515869140625" lon="-4.97875249944627285003662109375">
        <ele>81.40000152587890625</ele>
        <time>2018-09-07T08:13:29.000Z</time>
      </trkpt>
      <trkpt lat="43.4429369308054447174072265625" lon="-4.9787504039704799652099609375">
        <ele>81.1999969482421875</ele>
        <time>2018-09-07T08:13:30.000Z</time>
      </trkpt>
      <trkpt lat="43.4429454803466796875" lon="-4.9787282757461071014404296875">
        <ele>81.59999847412109375</ele>
        <time>2018-09-07T08:17:27.000Z</time>
      </trkpt>
      <trkpt lat="43.4429439716041088104248046875" lon="-4.97877345420420169830322265625">
        <ele>81.59999847412109375</ele>
        <time>2018-09-07T08:17:29.000Z</time>
      </trkpt>
      <trkpt lat="43.4429131262004375457763671875" lon="-4.9789338000118732452392578125">
        <ele>81.40000152587890625</ele>
        <time>2018-09-07T08:17:35.000Z</time>
      </trkpt>
      <trkpt lat="43.4428745694458484649658203125" lon="-4.9790320359170436859130859375">
        <ele>81.40000152587890625</ele>
        <time>2018-09-07T08:17:39.000Z</time>
      </trkpt>
      <trkpt lat="43.44285453669726848602294921875" lon="-4.979094900190830230712890625">
        <ele>81.1999969482421875</ele>
        <time>2018-09-07T08:17:41.000Z</time>
      </trkpt>
      <trkpt lat="43.44278144650161266326904296875" lon="-4.97917461208999156951904296875">
        <ele>81.59999847412109375</ele>
        <time>2018-09-07T08:17:46.000Z</time>
      </trkpt>
      <trkpt lat="43.44273685477674007415771484375" lon="-4.97918643057346343994140625">
        <ele>81.40000152587890625</ele>
        <time>2018-09-07T08:17:48.000Z</time>
      </trkpt>
      <trkpt lat="43.4426787681877613067626953125" lon="-4.9792167730629444122314453125">
        <ele>81.1999969482421875</ele>
        <time>2018-09-07T08:17:50.000Z</time>
      </trkpt>
      <trkpt lat="43.44262269325554370880126953125" lon="-4.97927435673773288726806640625">
        <ele>80.59999847412109375</ele>
        <time>2018-09-07T08:19:54.000Z</time>
      </trkpt>
      <trkpt lat="43.4426066838204860687255859375" lon="-4.97931676916778087615966796875">
        <ele>80.40000152587890625</ele>
        <time>2018-09-07T08:19:57.000Z</time>
      </trkpt>
      <trkpt lat="43.44260148704051971435546875" lon="-4.97933805920183658599853515625">
        <ele>80.1999969482421875</ele>
        <time>2018-09-07T08:19:58.000Z</time>
      </trkpt>
      <trkpt lat="43.44257709570229053497314453125" lon="-4.97942590154707431793212890625">
        <ele>79.40000152587890625</ele>
        <time>2018-09-07T08:20:02.000Z</time>
      </trkpt>
      <trkpt lat="43.44257240183651447296142578125" lon="-4.979445599019527435302734375">
        <ele>79.1999969482421875</ele>
        <time>2018-09-07T08:20:03.000Z</time>
      </trkpt>
      <trkpt lat="43.44257290475070476531982421875" lon="-4.97947216965258121490478515625">
        <ele>78.59999847412109375</ele>
        <time>2018-09-07T08:20:04.000Z</time>
      </trkpt>
      <trkpt lat="43.4425758384168148040771484375" lon="-4.97952313162386417388916015625">
        <ele>78</ele>
        <time>2018-09-07T08:20:06.000Z</time>
      </trkpt>
      <trkpt lat="43.44257106073200702667236328125" lon="-4.979552216827869415283203125">
        <ele>77.59999847412109375</ele>
        <time>2018-09-07T08:20:07.000Z</time>
      </trkpt>
      <trkpt lat="43.4425644390285015106201171875" lon="-4.97958146966993808746337890625">
        <ele>77.40000152587890625</ele>
        <time>2018-09-07T08:20:08.000Z</time>
      </trkpt>
      <trkpt lat="43.44254775904119014739990234375" lon="-4.979613907635211944580078125">
        <ele>77</ele>
        <time>2018-09-07T08:20:09.000Z</time>
      </trkpt>
      <trkpt lat="43.442526720464229583740234375" lon="-4.9796529673039913177490234375">
        <ele>76.59999847412109375</ele>
        <time>2018-09-07T08:20:12.000Z</time>
      </trkpt>
      <trkpt lat="43.44239118508994579315185546875" lon="-4.97978992760181427001953125">
        <ele>75.40000152587890625</ele>
        <time>2018-09-07T08:22:06.000Z</time>
      </trkpt>
      <trkpt lat="43.4423620998859405517578125" lon="-4.9798816256225109100341796875">
        <ele>74.40000152587890625</ele>
        <time>2018-09-07T08:22:09.000Z</time>
      </trkpt>
      <trkpt lat="43.4423183463513851165771484375" lon="-4.980077929794788360595703125">
        <ele>73</ele>
        <time>2018-09-07T08:22:13.000Z</time>
      </trkpt>
      <trkpt lat="43.4423084557056427001953125" lon="-4.98012788593769073486328125">
        <ele>72.59999847412109375</ele>
        <time>2018-09-07T08:22:14.000Z</time>
      </trkpt>
      <trkpt lat="43.44226880930364131927490234375" lon="-4.98034992255270481109619140625">
        <ele>72</ele>
        <time>2018-09-07T08:22:18.000Z</time>
      </trkpt>
      <trkpt lat="43.44225036911666393280029296875" lon="-4.98040423728525638580322265625">
        <ele>72</ele>
        <time>2018-09-07T08:22:19.000Z</time>
      </trkpt>
      <trkpt lat="43.44216805882751941680908203125" lon="-4.98064915649592876434326171875">
        <ele>70.59999847412109375</ele>
        <time>2018-09-07T08:22:24.000Z</time>
      </trkpt>
      <trkpt lat="43.44212715514004230499267578125" lon="-4.98078041709959506988525390625">
        <ele>69.59999847412109375</ele>
        <time>2018-09-07T08:22:26.000Z</time>
      </trkpt>
      <trkpt lat="43.44209857285022735595703125" lon="-4.980911426246166229248046875">
        <ele>68.40000152587890625</ele>
        <time>2018-09-07T08:22:29.000Z</time>
      </trkpt>
      <trkpt lat="43.44209111295640468597412109375" lon="-4.98095132410526275634765625">
        <ele>68</ele>
        <time>2018-09-07T08:22:30.000Z</time>
      </trkpt>
      <trkpt lat="43.44208373688161373138427734375" lon="-4.9810275994241237640380859375">
        <ele>67.1999969482421875</ele>
        <time>2018-09-07T08:22:32.000Z</time>
      </trkpt>
      <trkpt lat="43.44206579960882663726806640625" lon="-4.98111971653997898101806640625">
        <ele>66.1999969482421875</ele>
        <time>2018-09-07T08:22:34.000Z</time>
      </trkpt>
      <trkpt lat="43.4420514665544033050537109375" lon="-4.98121418058872222900390625">
        <ele>65.1999969482421875</ele>
        <time>2018-09-07T08:22:36.000Z</time>
      </trkpt>
      <trkpt lat="43.44205054454505443572998046875" lon="-4.9812686629593372344970703125">
        <ele>64.8000030517578125</ele>
        <time>2018-09-07T08:22:37.000Z</time>
      </trkpt>
      <trkpt lat="43.44203327782452106475830078125" lon="-4.9814093112945556640625">
        <ele>63.59999847412109375</ele>
        <time>2018-09-07T08:22:39.000Z</time>
      </trkpt>
      <trkpt lat="43.4420058690011501312255859375" lon="-4.98156747780740261077880859375">
        <ele>62.40000152587890625</ele>
        <time>2018-09-07T08:22:41.000Z</time>
      </trkpt>
      <trkpt lat="43.44197678379714488983154296875" lon="-4.981701672077178955078125">
        <ele>61.59999847412109375</ele>
        <time>2018-09-07T08:22:43.000Z</time>
      </trkpt>
      <trkpt lat="43.44196152873337268829345703125" lon="-4.98175322078168392181396484375">
        <ele>61.40000152587890625</ele>
        <time>2018-09-07T08:22:44.000Z</time>
      </trkpt>
      <trkpt lat="43.44192045740783214569091796875" lon="-4.98184793628752231597900390625">
        <ele>60.799999237060546875</ele>
        <time>2018-09-07T08:22:46.000Z</time>
      </trkpt>
      <trkpt lat="43.4418901987373828887939453125" lon="-4.98189386911690235137939453125">
        <ele>60.40000152587890625</ele>
        <time>2018-09-07T08:22:47.000Z</time>
      </trkpt>
      <trkpt lat="43.441799171268939971923828125" lon="-4.98200769536197185516357421875">
        <ele>59</ele>
        <time>2018-09-07T08:22:49.000Z</time>
      </trkpt>
      <trkpt lat="43.4417641349136829376220703125" lon="-4.982066787779331207275390625">
        <ele>58.59999847412109375</ele>
        <time>2018-09-07T08:22:50.000Z</time>
      </trkpt>
      <trkpt lat="43.44173253513872623443603515625" lon="-4.9821256287395954132080078125">
        <ele>58</ele>
        <time>2018-09-07T08:22:51.000Z</time>
      </trkpt>
      <trkpt lat="43.441701270639896392822265625" lon="-4.9821876548230648040771484375">
        <ele>57.59999847412109375</ele>
        <time>2018-09-07T08:22:52.000Z</time>
      </trkpt>
      <trkpt lat="43.441575206816196441650390625" lon="-4.98240700922906398773193359375">
        <ele>56.59999847412109375</ele>
        <time>2018-09-07T08:22:56.000Z</time>
      </trkpt>
      <trkpt lat="43.4415386617183685302734375" lon="-4.9824598990380764007568359375">
        <ele>56.40000152587890625</ele>
        <time>2018-09-07T08:22:57.000Z</time>
      </trkpt>
      <trkpt lat="43.4414271824061870574951171875" lon="-4.9826241843402385711669921875">
        <ele>55.59999847412109375</ele>
        <time>2018-09-07T08:23:00.000Z</time>
      </trkpt>
      <trkpt lat="43.44139960594475269317626953125" lon="-4.982689730823040008544921875">
        <ele>55.200000762939453125</ele>
        <time>2018-09-07T08:23:01.000Z</time>
      </trkpt>
      <trkpt lat="43.44137982465326786041259765625" lon="-4.98275787569582462310791015625">
        <ele>54.799999237060546875</ele>
        <time>2018-09-07T08:23:02.000Z</time>
      </trkpt>
      <trkpt lat="43.44135333783924579620361328125" lon="-4.9828907288610935211181640625">
        <ele>54.200000762939453125</ele>
        <time>2018-09-07T08:23:04.000Z</time>
      </trkpt>
      <trkpt lat="43.4413440339267253875732421875" lon="-4.9829608015716075897216796875">
        <ele>54</ele>
        <time>2018-09-07T08:23:05.000Z</time>
      </trkpt>
      <trkpt lat="43.44133087433874607086181640625" lon="-4.98309499584138393402099609375">
        <ele>53</ele>
        <time>2018-09-07T08:23:07.000Z</time>
      </trkpt>
      <trkpt lat="43.441327102482318878173828125" lon="-4.98315501026809215545654296875">
        <ele>52.59999847412109375</ele>
        <time>2018-09-07T08:23:08.000Z</time>
      </trkpt>
      <trkpt lat="43.44132534228265285491943359375" lon="-4.98321703635156154632568359375">
        <ele>52.200000762939453125</ele>
        <time>2018-09-07T08:23:09.000Z</time>
      </trkpt>
      <trkpt lat="43.44131964258849620819091796875" lon="-4.98332331888377666473388671875">
        <ele>51</ele>
        <time>2018-09-07T08:23:11.000Z</time>
      </trkpt>
      <trkpt lat="43.4413121826946735382080078125" lon="-4.98335458338260650634765625">
        <ele>50.59999847412109375</ele>
        <time>2018-09-07T08:23:12.000Z</time>
      </trkpt>
      <trkpt lat="43.44130757264792919158935546875" lon="-4.98338148929178714752197265625">
        <ele>50</ele>
        <time>2018-09-07T08:23:13.000Z</time>
      </trkpt>
      <trkpt lat="43.441323079168796539306640625" lon="-4.98344787396490573883056640625">
        <ele>48.799999237060546875</ele>
        <time>2018-09-07T08:23:16.000Z</time>
      </trkpt>
      <trkpt lat="43.4413480572402477264404296875" lon="-4.9834663979709148406982421875">
        <ele>48.40000152587890625</ele>
        <time>2018-09-07T08:23:17.000Z</time>
      </trkpt>
      <trkpt lat="43.4414077363908290863037109375" lon="-4.98350420035421848297119140625">
        <ele>47.40000152587890625</ele>
        <time>2018-09-07T08:23:19.000Z</time>
      </trkpt>
      <trkpt lat="43.4415274299681186676025390625" lon="-4.9835767038166522979736328125">
        <ele>46.40000152587890625</ele>
        <time>2018-09-07T08:23:22.000Z</time>
      </trkpt>
      <trkpt lat="43.44157311134040355682373046875" lon="-4.983605705201625823974609375">
        <ele>46.200000762939453125</ele>
        <time>2018-09-07T08:23:23.000Z</time>
      </trkpt>
      <trkpt lat="43.44167436473071575164794921875" lon="-4.9836910329759120941162109375">
        <ele>45.200000762939453125</ele>
        <time>2018-09-07T08:23:25.000Z</time>
      </trkpt>
      <trkpt lat="43.44178752042353153228759765625" lon="-4.9837889336049556732177734375">
        <ele>44.59999847412109375</ele>
        <time>2018-09-07T08:23:27.000Z</time>
      </trkpt>
      <trkpt lat="43.44184242188930511474609375" lon="-4.98382690362632274627685546875">
        <ele>44.40000152587890625</ele>
        <time>2018-09-07T08:23:28.000Z</time>
      </trkpt>
      <trkpt lat="43.44189363531768321990966796875" lon="-4.9838576652109622955322265625">
        <ele>44</ele>
        <time>2018-09-07T08:23:29.000Z</time>
      </trkpt>
      <trkpt lat="43.44198323786258697509765625" lon="-4.9838995747268199920654296875">
        <ele>43.40000152587890625</ele>
        <time>2018-09-07T08:23:31.000Z</time>
      </trkpt>
      <trkpt lat="43.44208524562418460845947265625" lon="-4.98389865271747112274169921875">
        <ele>43.40000152587890625</ele>
        <time>2018-09-07T08:23:33.000Z</time>
      </trkpt>
      <trkpt lat="43.44220049679279327392578125" lon="-4.98388758860528469085693359375">
        <ele>42.40000152587890625</ele>
        <time>2018-09-07T08:23:35.000Z</time>
      </trkpt>
      <trkpt lat="43.44234609045088291168212890625" lon="-4.9839404784142971038818359375">
        <ele>40.59999847412109375</ele>
        <time>2018-09-07T08:23:37.000Z</time>
      </trkpt>
      <trkpt lat="43.4424232877790927886962890625" lon="-4.9839860759675502777099609375">
        <ele>39.40000152587890625</ele>
        <time>2018-09-07T08:23:38.000Z</time>
      </trkpt>
      <trkpt lat="43.44250065274536609649658203125" lon="-4.9840333499014377593994140625">
        <ele>38.200000762939453125</ele>
        <time>2018-09-07T08:23:39.000Z</time>
      </trkpt>
      <trkpt lat="43.4425781853497028350830078125" lon="-4.984073750674724578857421875">
        <ele>37.200000762939453125</ele>
        <time>2018-09-07T08:23:40.000Z</time>
      </trkpt>
      <trkpt lat="43.4427260421216487884521484375" lon="-4.98415815643966197967529296875">
        <ele>37.200000762939453125</ele>
        <time>2018-09-07T08:23:42.000Z</time>
      </trkpt>
      <trkpt lat="43.44294656999409198760986328125" lon="-4.98428891412913799285888671875">
        <ele>36.200000762939453125</ele>
        <time>2018-09-07T08:23:45.000Z</time>
      </trkpt>
      <trkpt lat="43.44315812923014163970947265625" lon="-4.98437105678021907806396484375">
        <ele>35.59999847412109375</ele>
        <time>2018-09-07T08:23:48.000Z</time>
      </trkpt>
      <trkpt lat="43.4432175569236278533935546875" lon="-4.98439586721360683441162109375">
        <ele>36</ele>
        <time>2018-09-07T08:23:49.000Z</time>
      </trkpt>
      <trkpt lat="43.44331897795200347900390625" lon="-4.98445420525968074798583984375">
        <ele>37.200000762939453125</ele>
        <time>2018-09-07T08:23:51.000Z</time>
      </trkpt>
      <trkpt lat="43.44336323440074920654296875" lon="-4.984476752579212188720703125">
        <ele>37.59999847412109375</ele>
        <time>2018-09-07T08:23:52.000Z</time>
      </trkpt>
      <trkpt lat="43.4434049762785434722900390625" lon="-4.9844960309565067291259765625">
        <ele>38.200000762939453125</ele>
        <time>2018-09-07T08:23:53.000Z</time>
      </trkpt>
      <trkpt lat="43.4434462152421474456787109375" lon="-4.98451891355216503143310546875">
        <ele>38.59999847412109375</ele>
        <time>2018-09-07T08:23:54.000Z</time>
      </trkpt>
      <trkpt lat="43.44348502345383167266845703125" lon="-4.984544813632965087890625">
        <ele>38.799999237060546875</ele>
        <time>2018-09-07T08:23:55.000Z</time>
      </trkpt>
      <trkpt lat="43.44355442561209201812744140625" lon="-4.98459099791944026947021484375">
        <ele>39.200000762939453125</ele>
        <time>2018-09-07T08:23:57.000Z</time>
      </trkpt>
      <trkpt lat="43.4435840137302875518798828125" lon="-4.98460591770708560943603515625">
        <ele>39.59999847412109375</ele>
        <time>2018-09-07T08:23:58.000Z</time>
      </trkpt>
      <trkpt lat="43.4436120092868804931640625" lon="-4.98461714945733547210693359375">
        <ele>40</ele>
        <time>2018-09-07T08:23:59.000Z</time>
      </trkpt>
      <trkpt lat="43.4436835907399654388427734375" lon="-4.98466174118220806121826171875">
        <ele>40.799999237060546875</ele>
        <time>2018-09-07T08:24:02.000Z</time>
      </trkpt>
      <trkpt lat="43.44370814971625804901123046875" lon="-4.9846737273037433624267578125">
        <ele>41</ele>
        <time>2018-09-07T08:24:03.000Z</time>
      </trkpt>
      <trkpt lat="43.4437338821589946746826171875" lon="-4.98468789272010326385498046875">
        <ele>41.59999847412109375</ele>
        <time>2018-09-07T08:24:04.000Z</time>
      </trkpt>
      <trkpt lat="43.4437863528728485107421875" lon="-4.98471119441092014312744140625">
        <ele>42</ele>
        <time>2018-09-07T08:24:06.000Z</time>
      </trkpt>
      <trkpt lat="43.4438133426010608673095703125" lon="-4.984714798629283905029296875">
        <ele>42.200000762939453125</ele>
        <time>2018-09-07T08:24:07.000Z</time>
      </trkpt>
      <trkpt lat="43.4438614547252655029296875" lon="-4.9847350828349590301513671875">
        <ele>42.799999237060546875</ele>
        <time>2018-09-07T08:24:09.000Z</time>
      </trkpt>
      <trkpt lat="43.44388492405414581298828125" lon="-4.984751679003238677978515625">
        <ele>42.799999237060546875</ele>
        <time>2018-09-07T08:24:10.000Z</time>
      </trkpt>
      <trkpt lat="43.44392306171357631683349609375" lon="-4.984778501093387603759765625">
        <ele>43.200000762939453125</ele>
        <time>2018-09-07T08:24:12.000Z</time>
      </trkpt>
      <trkpt lat="43.44397268258035182952880859375" lon="-4.984806664288043975830078125">
        <ele>43.799999237060546875</ele>
        <time>2018-09-07T08:24:15.000Z</time>
      </trkpt>
      <trkpt lat="43.44398944638669490814208984375" lon="-4.98481127433478832244873046875">
        <ele>44</ele>
        <time>2018-09-07T08:24:16.000Z</time>
      </trkpt>
      <trkpt lat="43.4440225549042224884033203125" lon="-4.98482636176049709320068359375">
        <ele>44.40000152587890625</ele>
        <time>2018-09-07T08:24:18.000Z</time>
      </trkpt>
      <trkpt lat="43.44407401978969573974609375" lon="-4.9848728813230991363525390625">
        <ele>45</ele>
        <time>2018-09-07T08:24:21.000Z</time>
      </trkpt>
      <trkpt lat="43.444100506603717803955078125" lon="-4.984905906021595001220703125">
        <ele>45.40000152587890625</ele>
        <time>2018-09-07T08:24:23.000Z</time>
      </trkpt>
      <trkpt lat="43.44411601312458515167236328125" lon="-4.98494689352810382843017578125">
        <ele>46</ele>
        <time>2018-09-07T08:24:25.000Z</time>
      </trkpt>
      <trkpt lat="43.4441036917269229888916015625" lon="-4.9850247614085674285888671875">
        <ele>46</ele>
        <time>2018-09-07T08:24:27.000Z</time>
      </trkpt>
      <trkpt lat="43.44404426403343677520751953125" lon="-4.9851434491574764251708984375">
        <ele>46</ele>
        <time>2018-09-07T08:24:30.000Z</time>
      </trkpt>
      <trkpt lat="43.44400855712592601776123046875" lon="-4.98527781106531620025634765625">
        <ele>46.200000762939453125</ele>
        <time>2018-09-07T08:24:33.000Z</time>
      </trkpt>
      <trkpt lat="43.44401140697300434112548828125" lon="-4.98546070419251918792724609375">
        <ele>46.59999847412109375</ele>
        <time>2018-09-07T08:24:37.000Z</time>
      </trkpt>
      <trkpt lat="43.44401643611490726470947265625" lon="-4.98550076968967914581298828125">
        <ele>46.799999237060546875</ele>
        <time>2018-09-07T08:24:38.000Z</time>
      </trkpt>
      <trkpt lat="43.444050215184688568115234375" lon="-4.98565466143190860748291015625">
        <ele>47.59999847412109375</ele>
        <time>2018-09-07T08:24:42.000Z</time>
      </trkpt>
      <trkpt lat="43.44408885575830936431884765625" lon="-4.985857419669628143310546875">
        <ele>48.200000762939453125</ele>
        <time>2018-09-07T08:24:47.000Z</time>
      </trkpt>
      <trkpt lat="43.444106876850128173828125" lon="-4.98612287454307079315185546875">
        <ele>48.200000762939453125</ele>
        <time>2018-09-07T08:24:53.000Z</time>
      </trkpt>
      <trkpt lat="43.4441097266972064971923828125" lon="-4.9865014851093292236328125">
        <ele>48</ele>
        <time>2018-09-07T08:24:59.000Z</time>
      </trkpt>
      <trkpt lat="43.44410243444144725799560546875" lon="-4.98685142956674098968505859375">
        <ele>47.799999237060546875</ele>
        <time>2018-09-07T08:25:04.000Z</time>
      </trkpt>
      <trkpt lat="43.444093801081180572509765625" lon="-4.98698503710329532623291015625">
        <ele>48</ele>
        <time>2018-09-07T08:25:06.000Z</time>
      </trkpt>
      <trkpt lat="43.4440916217863559722900390625" lon="-4.98718368820846080780029296875">
        <ele>48</ele>
        <time>2018-09-07T08:25:09.000Z</time>
      </trkpt>
      <trkpt lat="43.4441100619733333587646484375" lon="-4.9873183853924274444580078125">
        <ele>48</ele>
        <time>2018-09-07T08:25:11.000Z</time>
      </trkpt>
      <trkpt lat="43.444128334522247314453125" lon="-4.9873824231326580047607421875">
        <ele>48</ele>
        <time>2018-09-07T08:25:12.000Z</time>
      </trkpt>
      <trkpt lat="43.44424006529152393341064453125" lon="-4.98761854134500026702880859375">
        <ele>48</ele>
        <time>2018-09-07T08:25:16.000Z</time>
      </trkpt>
      <trkpt lat="43.44426705501973628997802734375" lon="-4.98767822049558162689208984375">
        <ele>48</ele>
        <time>2018-09-07T08:25:17.000Z</time>
      </trkpt>
      <trkpt lat="43.44446964561939239501953125" lon="-4.9881532229483127593994140625">
        <ele>46.799999237060546875</ele>
        <time>2018-09-07T08:25:24.000Z</time>
      </trkpt>
      <trkpt lat="43.44449588097631931304931640625" lon="-4.98823611997067928314208984375">
        <ele>46.40000152587890625</ele>
        <time>2018-09-07T08:25:25.000Z</time>
      </trkpt>
      <trkpt lat="43.44454734586179256439208984375" lon="-4.98842270113527774810791015625">
        <ele>45</ele>
        <time>2018-09-07T08:25:27.000Z</time>
      </trkpt>
      <trkpt lat="43.44463057816028594970703125" lon="-4.9887181632220745086669921875">
        <ele>43.799999237060546875</ele>
        <time>2018-09-07T08:25:30.000Z</time>
      </trkpt>
      <trkpt lat="43.44465010799467563629150390625" lon="-4.98882587067782878875732421875">
        <ele>43.40000152587890625</ele>
        <time>2018-09-07T08:25:31.000Z</time>
      </trkpt>
      <trkpt lat="43.44468782655894756317138671875" lon="-4.9890420399606227874755859375">
        <ele>42.799999237060546875</ele>
        <time>2018-09-07T08:25:33.000Z</time>
      </trkpt>
      <trkpt lat="43.444710038602352142333984375" lon="-4.989147149026393890380859375">
        <ele>42.799999237060546875</ele>
        <time>2018-09-07T08:25:34.000Z</time>
      </trkpt>
      <trkpt lat="43.4447358548641204833984375" lon="-4.98924815095961093902587890625">
        <ele>42.59999847412109375</ele>
        <time>2018-09-07T08:25:35.000Z</time>
      </trkpt>
      <trkpt lat="43.4449075162410736083984375" lon="-4.9898041225969791412353515625">
        <ele>42.799999237060546875</ele>
        <time>2018-09-07T08:25:41.000Z</time>
      </trkpt>
      <trkpt lat="43.44498186372220516204833984375" lon="-4.99028281308710575103759765625">
        <ele>42.40000152587890625</ele>
        <time>2018-09-07T08:25:46.000Z</time>
      </trkpt>
      <trkpt lat="43.44497549347579479217529296875" lon="-4.9906910955905914306640625">
        <ele>41.40000152587890625</ele>
        <time>2018-09-07T08:25:50.000Z</time>
      </trkpt>
      <trkpt lat="43.4449710510671138763427734375" lon="-4.99090097844600677490234375">
        <ele>40.799999237060546875</ele>
        <time>2018-09-07T08:25:52.000Z</time>
      </trkpt>
      <trkpt lat="43.444974236190319061279296875" lon="-4.9913205765187740325927734375">
        <ele>40.200000762939453125</ele>
        <time>2018-09-07T08:25:56.000Z</time>
      </trkpt>
      <trkpt lat="43.444988988339900970458984375" lon="-4.99142409302294254302978515625">
        <ele>40</ele>
        <time>2018-09-07T08:25:57.000Z</time>
      </trkpt>
      <trkpt lat="43.4450089372694492340087890625" lon="-4.99152668751776218414306640625">
        <ele>39.799999237060546875</ele>
        <time>2018-09-07T08:25:58.000Z</time>
      </trkpt>
      <trkpt lat="43.44512552954256534576416015625" lon="-4.9919222295284271240234375">
        <ele>39</ele>
        <time>2018-09-07T08:26:02.000Z</time>
      </trkpt>
      <trkpt lat="43.44516123645007610321044921875" lon="-4.9920156039297580718994140625">
        <ele>38.59999847412109375</ele>
        <time>2018-09-07T08:26:03.000Z</time>
      </trkpt>
      <trkpt lat="43.44520046375691890716552734375" lon="-4.9920967407524585723876953125">
        <ele>38</ele>
        <time>2018-09-07T08:26:04.000Z</time>
      </trkpt>
      <trkpt lat="43.44524187035858631134033203125" lon="-4.9921661429107189178466796875">
        <ele>37.799999237060546875</ele>
        <time>2018-09-07T08:26:05.000Z</time>
      </trkpt>
      <trkpt lat="43.4452845342457294464111328125" lon="-4.99221534468233585357666015625">
        <ele>37.59999847412109375</ele>
        <time>2018-09-07T08:26:06.000Z</time>
      </trkpt>
      <trkpt lat="43.44539810903370380401611328125" lon="-4.99223403632640838623046875">
        <ele>36.799999237060546875</ele>
        <time>2018-09-07T08:26:08.000Z</time>
      </trkpt>
      <trkpt lat="43.44546583481132984161376953125" lon="-4.99223001301288604736328125">
        <ele>36.200000762939453125</ele>
        <time>2018-09-07T08:26:09.000Z</time>
      </trkpt>
      <trkpt lat="43.445673286914825439453125" lon="-4.99216924421489238739013671875">
        <ele>35.200000762939453125</ele>
        <time>2018-09-07T08:26:11.000Z</time>
      </trkpt>
      <trkpt lat="43.44576238654553890228271484375" lon="-4.992146193981170654296875">
        <ele>34.799999237060546875</ele>
        <time>2018-09-07T08:26:12.000Z</time>
      </trkpt>
      <trkpt lat="43.44592340290546417236328125" lon="-4.99211375601589679718017578125">
        <ele>34</ele>
        <time>2018-09-07T08:26:14.000Z</time>
      </trkpt>
      <trkpt lat="43.44614476896822452545166015625" lon="-4.9920907057821750640869140625">
        <ele>33</ele>
        <time>2018-09-07T08:26:17.000Z</time>
      </trkpt>
      <trkpt lat="43.4462031908333301544189453125" lon="-4.9920990876853466033935546875">
        <ele>32.799999237060546875</ele>
        <time>2018-09-07T08:26:18.000Z</time>
      </trkpt>
      <trkpt lat="43.4463446773588657379150390625" lon="-4.99220998026430606842041015625">
        <ele>32.40000152587890625</ele>
        <time>2018-09-07T08:26:21.000Z</time>
      </trkpt>
      <trkpt lat="43.446395136415958404541015625" lon="-4.99236085452139377593994140625">
        <ele>31.799999237060546875</ele>
        <time>2018-09-07T08:26:23.000Z</time>
      </trkpt>
      <trkpt lat="43.4464090503752231597900390625" lon="-4.99244836159050464630126953125">
        <ele>31.3999996185302734375</ele>
        <time>2018-09-07T08:26:24.000Z</time>
      </trkpt>
      <trkpt lat="43.44642606563866138458251953125" lon="-4.99253519810736179351806640625">
        <ele>31.200000762939453125</ele>
        <time>2018-09-07T08:26:25.000Z</time>
      </trkpt>
      <trkpt lat="43.44647954218089580535888671875" lon="-4.99279051087796688079833984375">
        <ele>31.200000762939453125</ele>
        <time>2018-09-07T08:26:28.000Z</time>
      </trkpt>
      <trkpt lat="43.4465217031538486480712890625" lon="-4.99296083115041255950927734375">
        <ele>31</ele>
        <time>2018-09-07T08:26:30.000Z</time>
      </trkpt>
      <trkpt lat="43.44657090492546558380126953125" lon="-4.993129558861255645751953125">
        <ele>31</ele>
        <time>2018-09-07T08:26:32.000Z</time>
      </trkpt>
      <trkpt lat="43.44670065678656101226806640625" lon="-4.993693828582763671875">
        <ele>31.200000762939453125</ele>
        <time>2018-09-07T08:26:39.000Z</time>
      </trkpt>
      <trkpt lat="43.446729071438312530517578125" lon="-4.99384470283985137939453125">
        <ele>31.3999996185302734375</ele>
        <time>2018-09-07T08:26:41.000Z</time>
      </trkpt>
      <trkpt lat="43.4467513673007488250732421875" lon="-4.99399700202047824859619140625">
        <ele>31.799999237060546875</ele>
        <time>2018-09-07T08:26:43.000Z</time>
      </trkpt>
      <trkpt lat="43.44676083885133266448974609375" lon="-4.99415039084851741790771484375">
        <ele>32.200000762939453125</ele>
        <time>2018-09-07T08:26:45.000Z</time>
      </trkpt>
      <trkpt lat="43.44676285050809383392333984375" lon="-4.9942933022975921630859375">
        <ele>32.799999237060546875</ele>
        <time>2018-09-07T08:26:47.000Z</time>
      </trkpt>
      <trkpt lat="43.4467624314129352569580078125" lon="-4.99436329118907451629638671875">
        <ele>33.200000762939453125</ele>
        <time>2018-09-07T08:26:48.000Z</time>
      </trkpt>
      <trkpt lat="43.446760587394237518310546875" lon="-4.9944998323917388916015625">
        <ele>33.799999237060546875</ele>
        <time>2018-09-07T08:26:50.000Z</time>
      </trkpt>
      <trkpt lat="43.4467553906142711639404296875" lon="-4.99469269998371601104736328125">
        <ele>35</ele>
        <time>2018-09-07T08:26:53.000Z</time>
      </trkpt>
      <trkpt lat="43.44675480388104915618896484375" lon="-4.994809627532958984375">
        <ele>35.59999847412109375</ele>
        <time>2018-09-07T08:26:55.000Z</time>
      </trkpt>
      <trkpt lat="43.4467530436813831329345703125" lon="-4.994919262826442718505859375">
        <ele>36</ele>
        <time>2018-09-07T08:26:57.000Z</time>
      </trkpt>
      <trkpt lat="43.446745164692401885986328125" lon="-4.9950736574828624725341796875">
        <ele>36.59999847412109375</ele>
        <time>2018-09-07T08:27:00.000Z</time>
      </trkpt>
      <trkpt lat="43.44673234038054943084716796875" lon="-4.995226375758647918701171875">
        <ele>37</ele>
        <time>2018-09-07T08:27:03.000Z</time>
      </trkpt>
      <trkpt lat="43.44670283608138561248779296875" lon="-4.995430894196033477783203125">
        <ele>37</ele>
        <time>2018-09-07T08:27:07.000Z</time>
      </trkpt>
      <trkpt lat="43.4466836415231227874755859375" lon="-4.9955983646214008331298828125">
        <ele>36.40000152587890625</ele>
        <time>2018-09-07T08:27:10.000Z</time>
      </trkpt>
      <trkpt lat="43.44667844474315643310546875" lon="-4.99566055834293365478515625">
        <ele>36.40000152587890625</ele>
        <time>2018-09-07T08:27:11.000Z</time>
      </trkpt>
      <trkpt lat="43.4466688893735408782958984375" lon="-4.99579575844109058380126953125">
        <ele>36</ele>
        <time>2018-09-07T08:27:13.000Z</time>
      </trkpt>
      <trkpt lat="43.44666302204132080078125" lon="-4.99604880809783935546875">
        <ele>34.40000152587890625</ele>
        <time>2018-09-07T08:27:16.000Z</time>
      </trkpt>
      <trkpt lat="43.4466695599257946014404296875" lon="-4.9962585233151912689208984375">
        <ele>33</ele>
        <time>2018-09-07T08:27:18.000Z</time>
      </trkpt>
      <trkpt lat="43.44667718745768070220947265625" lon="-4.99637226574122905731201171875">
        <ele>32</ele>
        <time>2018-09-07T08:27:19.000Z</time>
      </trkpt>
      <trkpt lat="43.446687497198581695556640625" lon="-4.99649246223270893096923828125">
        <ele>31.200000762939453125</ele>
        <time>2018-09-07T08:27:20.000Z</time>
      </trkpt>
      <trkpt lat="43.44669898040592670440673828125" lon="-4.99661408364772796630859375">
        <ele>30.3999996185302734375</ele>
        <time>2018-09-07T08:27:21.000Z</time>
      </trkpt>
      <trkpt lat="43.44672848470509052276611328125" lon="-4.99686361290514469146728515625">
        <ele>29.3999996185302734375</ele>
        <time>2018-09-07T08:27:23.000Z</time>
      </trkpt>
      <trkpt lat="43.446773327887058258056640625" lon="-4.997100569307804107666015625">
        <ele>28.799999237060546875</ele>
        <time>2018-09-07T08:27:25.000Z</time>
      </trkpt>
      <trkpt lat="43.4468009881675243377685546875" lon="-4.99721380881965160369873046875">
        <ele>28.799999237060546875</ele>
        <time>2018-09-07T08:27:26.000Z</time>
      </trkpt>
      <trkpt lat="43.44685555435717105865478515625" lon="-4.99743282794952392578125">
        <ele>28.3999996185302734375</ele>
        <time>2018-09-07T08:27:28.000Z</time>
      </trkpt>
      <trkpt lat="43.4468804486095905303955078125" lon="-4.997541122138500213623046875">
        <ele>28.200000762939453125</ele>
        <time>2018-09-07T08:27:29.000Z</time>
      </trkpt>
      <trkpt lat="43.4469138085842132568359375" lon="-4.99786642380058765411376953125">
        <ele>28</ele>
        <time>2018-09-07T08:27:32.000Z</time>
      </trkpt>
      <trkpt lat="43.44693819992244243621826171875" lon="-4.99816414900124073028564453125">
        <ele>27.799999237060546875</ele>
        <time>2018-09-07T08:27:35.000Z</time>
      </trkpt>
      <trkpt lat="43.44697575084865093231201171875" lon="-4.998331703245639801025390625">
        <ele>28</ele>
        <time>2018-09-07T08:27:37.000Z</time>
      </trkpt>
      <trkpt lat="43.44702285714447498321533203125" lon="-4.99846908263862133026123046875">
        <ele>29.200000762939453125</ele>
        <time>2018-09-07T08:27:39.000Z</time>
      </trkpt>
      <trkpt lat="43.4470420517027378082275390625" lon="-4.99852792359888553619384765625">
        <ele>29.799999237060546875</ele>
        <time>2018-09-07T08:27:40.000Z</time>
      </trkpt>
      <trkpt lat="43.447065018117427825927734375" lon="-4.998591877520084381103515625">
        <ele>29.799999237060546875</ele>
        <time>2018-09-07T08:27:41.000Z</time>
      </trkpt>
      <trkpt lat="43.447089828550815582275390625" lon="-4.99865231104195117950439453125">
        <ele>30</ele>
        <time>2018-09-07T08:27:42.000Z</time>
      </trkpt>
      <trkpt lat="43.4471479989588260650634765625" lon="-4.998754151165485382080078125">
        <ele>30</ele>
        <time>2018-09-07T08:27:44.000Z</time>
      </trkpt>
      <trkpt lat="43.44723089598119258880615234375" lon="-4.99882414005696773529052734375">
        <ele>30.3999996185302734375</ele>
        <time>2018-09-07T08:27:47.000Z</time>
      </trkpt>
      <trkpt lat="43.44727917574346065521240234375" lon="-4.99885196797549724578857421875">
        <ele>30.6000003814697265625</ele>
        <time>2018-09-07T08:27:48.000Z</time>
      </trkpt>
      <trkpt lat="43.4473283775150775909423828125" lon="-4.99887895770370960235595703125">
        <ele>30.799999237060546875</ele>
        <time>2018-09-07T08:27:49.000Z</time>
      </trkpt>
      <trkpt lat="43.447505570948123931884765625" lon="-4.99895908869802951812744140625">
        <ele>32.200000762939453125</ele>
        <time>2018-09-07T08:27:53.000Z</time>
      </trkpt>
      <trkpt lat="43.4475441277027130126953125" lon="-4.998983480036258697509765625">
        <ele>32.40000152587890625</ele>
        <time>2018-09-07T08:27:54.000Z</time>
      </trkpt>
      <trkpt lat="43.447615206241607666015625" lon="-4.99902798794209957122802734375">
        <ele>32.799999237060546875</ele>
        <time>2018-09-07T08:27:56.000Z</time>
      </trkpt>
      <trkpt lat="43.447684943675994873046875" lon="-4.999072663486003875732421875">
        <ele>33</ele>
        <time>2018-09-07T08:27:58.000Z</time>
      </trkpt>
      <trkpt lat="43.44771905802190303802490234375" lon="-4.9991003237664699554443359375">
        <ele>33.200000762939453125</ele>
        <time>2018-09-07T08:27:59.000Z</time>
      </trkpt>
      <trkpt lat="43.4478319622576236724853515625" lon="-4.99917098321020603179931640625">
        <ele>33.200000762939453125</ele>
        <time>2018-09-07T08:28:02.000Z</time>
      </trkpt>
      <trkpt lat="43.44792324118316173553466796875" lon="-4.9992833845317363739013671875">
        <ele>33.40000152587890625</ele>
        <time>2018-09-07T08:28:05.000Z</time>
      </trkpt>
      <trkpt lat="43.44797487370669841766357421875" lon="-4.999382458627223968505859375">
        <ele>33.200000762939453125</ele>
        <time>2018-09-07T08:28:07.000Z</time>
      </trkpt>
      <trkpt lat="43.448038995265960693359375" lon="-4.9996900744736194610595703125">
        <ele>33.200000762939453125</ele>
        <time>2018-09-07T08:28:12.000Z</time>
      </trkpt>
      <trkpt lat="43.44808517955243587493896484375" lon="-5.00035316683351993560791015625">
        <ele>33</ele>
        <time>2018-09-07T08:28:22.000Z</time>
      </trkpt>
      <trkpt lat="43.44813488423824310302734375" lon="-5.00079338438808917999267578125">
        <ele>34.59999847412109375</ele>
        <time>2018-09-07T08:28:29.000Z</time>
      </trkpt>
      <trkpt lat="43.44816036522388458251953125" lon="-5.00096823088824748992919921875">
        <ele>35</ele>
        <time>2018-09-07T08:28:32.000Z</time>
      </trkpt>
      <trkpt lat="43.4481712616980075836181640625" lon="-5.0010900199413299560546875">
        <ele>34.799999237060546875</ele>
        <time>2018-09-07T08:28:34.000Z</time>
      </trkpt>
      <trkpt lat="43.4481715969741344451904296875" lon="-5.0012266449630260467529296875">
        <ele>34.40000152587890625</ele>
        <time>2018-09-07T08:28:36.000Z</time>
      </trkpt>
      <trkpt lat="43.4481642208993434906005859375" lon="-5.001453123986721038818359375">
        <ele>33.40000152587890625</ele>
        <time>2018-09-07T08:28:39.000Z</time>
      </trkpt>
      <trkpt lat="43.44816832803189754486083984375" lon="-5.00153593719005584716796875">
        <ele>33.200000762939453125</ele>
        <time>2018-09-07T08:28:40.000Z</time>
      </trkpt>
      <trkpt lat="43.44818584620952606201171875" lon="-5.0017067603766918182373046875">
        <ele>32.59999847412109375</ele>
        <time>2018-09-07T08:28:42.000Z</time>
      </trkpt>
      <trkpt lat="43.4481970779597759246826171875" lon="-5.00179099850356578826904296875">
        <ele>32.200000762939453125</ele>
        <time>2018-09-07T08:28:43.000Z</time>
      </trkpt>
      <trkpt lat="43.4482671506702899932861328125" lon="-5.00212560407817363739013671875">
        <ele>31</ele>
        <time>2018-09-07T08:28:47.000Z</time>
      </trkpt>
      <trkpt lat="43.44829070381820201873779296875" lon="-5.00220892019569873809814453125">
        <ele>30.799999237060546875</ele>
        <time>2018-09-07T08:28:48.000Z</time>
      </trkpt>
      <trkpt lat="43.4483782947063446044921875" lon="-5.00265844166278839111328125">
        <ele>30.200000762939453125</ele>
        <time>2018-09-07T08:28:53.000Z</time>
      </trkpt>
      <trkpt lat="43.448383323848247528076171875" lon="-5.00275307334959506988525390625">
        <ele>30.200000762939453125</ele>
        <time>2018-09-07T08:28:54.000Z</time>
      </trkpt>
      <trkpt lat="43.4484341181814670562744140625" lon="-5.0034049339592456817626953125">
        <ele>30</ele>
        <time>2018-09-07T08:29:01.000Z</time>
      </trkpt>
      <trkpt lat="43.4484552405774593353271484375" lon="-5.00367642380297183990478515625">
        <ele>30</ele>
        <time>2018-09-07T08:29:04.000Z</time>
      </trkpt>
      <trkpt lat="43.44850460998713970184326171875" lon="-5.00411312095820903778076171875">
        <ele>29.6000003814697265625</ele>
        <time>2018-09-07T08:29:09.000Z</time>
      </trkpt>
      <trkpt lat="43.448542244732379913330078125" lon="-5.004520900547504425048828125">
        <ele>30.200000762939453125</ele>
        <time>2018-09-07T08:29:14.000Z</time>
      </trkpt>
      <trkpt lat="43.44854953698813915252685546875" lon="-5.00459901988506317138671875">
        <ele>30.3999996185302734375</ele>
        <time>2018-09-07T08:29:15.000Z</time>
      </trkpt>
      <trkpt lat="43.4485548175871372222900390625" lon="-5.004756934940814971923828125">
        <ele>30.6000003814697265625</ele>
        <time>2018-09-07T08:29:17.000Z</time>
      </trkpt>
      <trkpt lat="43.448588512837886810302734375" lon="-5.00507871620357036590576171875">
        <ele>30.3999996185302734375</ele>
        <time>2018-09-07T08:29:21.000Z</time>
      </trkpt>
      <trkpt lat="43.4486781992018222808837890625" lon="-5.00549211166799068450927734375">
        <ele>30.200000762939453125</ele>
        <time>2018-09-07T08:29:27.000Z</time>
      </trkpt>
      <trkpt lat="43.4488066099584102630615234375" lon="-5.00579067505896091461181640625">
        <ele>29.6000003814697265625</ele>
        <time>2018-09-07T08:29:32.000Z</time>
      </trkpt>
      <trkpt lat="43.44884122721850872039794921875" lon="-5.0058564729988574981689453125">
        <ele>29.200000762939453125</ele>
        <time>2018-09-07T08:29:33.000Z</time>
      </trkpt>
      <trkpt lat="43.44887115061283111572265625" lon="-5.0059262104332447052001953125">
        <ele>28.799999237060546875</ele>
        <time>2018-09-07T08:29:34.000Z</time>
      </trkpt>
      <trkpt lat="43.44896963797509670257568359375" lon="-5.00612461008131504058837890625">
        <ele>28.799999237060546875</ele>
        <time>2018-09-07T08:29:38.000Z</time>
      </trkpt>
      <trkpt lat="43.44904423691332340240478515625" lon="-5.00621144659817218780517578125">
        <ele>28.6000003814697265625</ele>
        <time>2018-09-07T08:29:41.000Z</time>
      </trkpt>
      <trkpt lat="43.4491180814802646636962890625" lon="-5.00627213157713413238525390625">
        <ele>28.6000003814697265625</ele>
        <time>2018-09-07T08:29:44.000Z</time>
      </trkpt>
      <trkpt lat="43.4492998011410236358642578125" lon="-5.0063613988459110260009765625">
        <ele>28.3999996185302734375</ele>
        <time>2018-09-07T08:29:49.000Z</time>
      </trkpt>
      <trkpt lat="43.4495173953473567962646484375" lon="-5.00646474771201610565185546875">
        <ele>28.6000003814697265625</ele>
        <time>2018-09-07T08:29:54.000Z</time>
      </trkpt>
      <trkpt lat="43.44956710003316402435302734375" lon="-5.00649374909698963165283203125">
        <ele>28.6000003814697265625</ele>
        <time>2018-09-07T08:29:55.000Z</time>
      </trkpt>
      <trkpt lat="43.4496511705219745635986328125" lon="-5.00655443407595157623291015625">
        <ele>29.200000762939453125</ele>
        <time>2018-09-07T08:29:57.000Z</time>
      </trkpt>
      <trkpt lat="43.44968562014400959014892578125" lon="-5.00657974742352962493896484375">
        <ele>29.6000003814697265625</ele>
        <time>2018-09-07T08:29:58.000Z</time>
      </trkpt>
      <trkpt lat="43.4497182257473468780517578125" lon="-5.0066027976572513580322265625">
        <ele>30</ele>
        <time>2018-09-07T08:29:59.000Z</time>
      </trkpt>
      <trkpt lat="43.44974731095135211944580078125" lon="-5.006630457937717437744140625">
        <ele>30.3999996185302734375</ele>
        <time>2018-09-07T08:30:00.000Z</time>
      </trkpt>
      <trkpt lat="43.44981453381478786468505859375" lon="-5.0067333877086639404296875">
        <ele>31.200000762939453125</ele>
        <time>2018-09-07T08:30:03.000Z</time>
      </trkpt>
      <trkpt lat="43.44985158182680606842041015625" lon="-5.00681125558912754058837890625">
        <ele>31.799999237060546875</ele>
        <time>2018-09-07T08:30:05.000Z</time>
      </trkpt>
      <trkpt lat="43.44988611526787281036376953125" lon="-5.00688954256474971771240234375">
        <ele>32.200000762939453125</ele>
        <time>2018-09-07T08:30:07.000Z</time>
      </trkpt>
      <trkpt lat="43.44994965009391307830810546875" lon="-5.00700957141816616058349609375">
        <ele>32</ele>
        <time>2018-09-07T08:30:10.000Z</time>
      </trkpt>
      <trkpt lat="43.44997563399374485015869140625" lon="-5.00705366022884845733642578125">
        <ele>32</ele>
        <time>2018-09-07T08:30:11.000Z</time>
      </trkpt>
      <trkpt lat="43.45012919045984745025634765625" lon="-5.00727075152099132537841796875">
        <ele>31</ele>
        <time>2018-09-07T08:30:16.000Z</time>
      </trkpt>
      <trkpt lat="43.45015785656869411468505859375" lon="-5.0073046982288360595703125">
        <ele>31</ele>
        <time>2018-09-07T08:30:17.000Z</time>
      </trkpt>
      <trkpt lat="43.45022298395633697509765625" lon="-5.00737921334803104400634765625">
        <ele>31</ele>
        <time>2018-09-07T08:30:19.000Z</time>
      </trkpt>
      <trkpt lat="43.45028744079172611236572265625" lon="-5.0074704922735691070556640625">
        <ele>31</ele>
        <time>2018-09-07T08:30:21.000Z</time>
      </trkpt>
      <trkpt lat="43.4503512270748615264892578125" lon="-5.0075636990368366241455078125">
        <ele>30.799999237060546875</ele>
        <time>2018-09-07T08:30:23.000Z</time>
      </trkpt>
      <trkpt lat="43.45052816905081272125244140625" lon="-5.0077980570495128631591796875">
        <ele>30.799999237060546875</ele>
        <time>2018-09-07T08:30:29.000Z</time>
      </trkpt>
      <trkpt lat="43.450555242598056793212890625" lon="-5.0078376196324825286865234375">
        <ele>30.799999237060546875</ele>
        <time>2018-09-07T08:30:30.000Z</time>
      </trkpt>
      <trkpt lat="43.450596146285533905029296875" lon="-5.0079046748578548431396484375">
        <ele>30.799999237060546875</ele>
        <time>2018-09-07T08:30:32.000Z</time>
      </trkpt>
      <trkpt lat="43.45063361339271068572998046875" lon="-5.00797214917838573455810546875">
        <ele>30.799999237060546875</ele>
        <time>2018-09-07T08:30:34.000Z</time>
      </trkpt>
      <trkpt lat="43.45066747628152370452880859375" lon="-5.008049346506595611572265625">
        <ele>30.3999996185302734375</ele>
        <time>2018-09-07T08:30:36.000Z</time>
      </trkpt>
      <trkpt lat="43.4507488645613193511962890625" lon="-5.0082312338054180145263671875">
        <ele>30.3999996185302734375</ele>
        <time>2018-09-07T08:30:41.000Z</time>
      </trkpt>
      <trkpt lat="43.45077794976532459259033203125" lon="-5.00831228680908679962158203125">
        <ele>30.200000762939453125</ele>
        <time>2018-09-07T08:30:43.000Z</time>
      </trkpt>
      <trkpt lat="43.450801670551300048828125" lon="-5.00843189656734466552734375">
        <ele>29.799999237060546875</ele>
        <time>2018-09-07T08:30:46.000Z</time>
      </trkpt>
      <trkpt lat="43.45083855092525482177734375" lon="-5.00855863094329833984375">
        <ele>29.6000003814697265625</ele>
        <time>2018-09-07T08:30:50.000Z</time>
      </trkpt>
      <trkpt lat="43.45089043490588665008544921875" lon="-5.00862308777868747711181640625">
        <ele>29.6000003814697265625</ele>
        <time>2018-09-07T08:30:58.000Z</time>
      </trkpt>
      <trkpt lat="43.45093586482107639312744140625" lon="-5.00867488794028759002685546875">
        <ele>30</ele>
        <time>2018-09-07T08:31:01.000Z</time>
      </trkpt>
      <trkpt lat="43.4509909339249134063720703125" lon="-5.0087670050561428070068359375">
        <ele>29.200000762939453125</ele>
        <time>2018-09-07T08:31:04.000Z</time>
      </trkpt>
      <trkpt lat="43.45102136023342609405517578125" lon="-5.0088531710207462310791015625">
        <ele>28.799999237060546875</ele>
        <time>2018-09-07T08:31:06.000Z</time>
      </trkpt>
      <trkpt lat="43.45109411515295505523681640625" lon="-5.00910454429686069488525390625">
        <ele>28</ele>
        <time>2018-09-07T08:31:11.000Z</time>
      </trkpt>
      <trkpt lat="43.45112093724310398101806640625" lon="-5.009199678897857666015625">
        <ele>28</ele>
        <time>2018-09-07T08:31:13.000Z</time>
      </trkpt>
      <trkpt lat="43.45117391087114810943603515625" lon="-5.00938969664275646209716796875">
        <ele>27.6000003814697265625</ele>
        <time>2018-09-07T08:31:17.000Z</time>
      </trkpt>
      <trkpt lat="43.45122772268950939178466796875" lon="-5.00952749513089656829833984375">
        <ele>27.3999996185302734375</ele>
        <time>2018-09-07T08:31:20.000Z</time>
      </trkpt>
      <trkpt lat="43.45124423503875732421875" lon="-5.00958113931119441986083984375">
        <ele>27.200000762939453125</ele>
        <time>2018-09-07T08:31:21.000Z</time>
      </trkpt>
      <trkpt lat="43.4512658603489398956298828125" lon="-5.00963754951953887939453125">
        <ele>26.799999237060546875</ele>
        <time>2018-09-07T08:31:22.000Z</time>
      </trkpt>
      <trkpt lat="43.4513252042233943939208984375" lon="-5.00975959002971649169921875">
        <ele>25.799999237060546875</ele>
        <time>2018-09-07T08:31:24.000Z</time>
      </trkpt>
      <trkpt lat="43.45136501826345920562744140625" lon="-5.0098224543035030364990234375">
        <ele>25.200000762939453125</ele>
        <time>2018-09-07T08:31:25.000Z</time>
      </trkpt>
      <trkpt lat="43.45141380093991756439208984375" lon="-5.00988624058663845062255859375">
        <ele>24.6000003814697265625</ele>
        <time>2018-09-07T08:31:26.000Z</time>
      </trkpt>
      <trkpt lat="43.451514802873134613037109375" lon="-5.01002286560833454132080078125">
        <ele>23.200000762939453125</ele>
        <time>2018-09-07T08:31:28.000Z</time>
      </trkpt>
      <trkpt lat="43.4515565447509288787841796875" lon="-5.0100936926901340484619140625">
        <ele>22.6000003814697265625</ele>
        <time>2018-09-07T08:31:29.000Z</time>
      </trkpt>
      <trkpt lat="43.4516058303415775299072265625" lon="-5.0103173218667507171630859375">
        <ele>22.799999237060546875</ele>
        <time>2018-09-07T08:31:32.000Z</time>
      </trkpt>
      <trkpt lat="43.45157909207046031951904296875" lon="-5.01048537902534008026123046875">
        <ele>23.200000762939453125</ele>
        <time>2018-09-07T08:31:35.000Z</time>
      </trkpt>
      <trkpt lat="43.451567105948925018310546875" lon="-5.01053751446306705474853515625">
        <ele>23.3999996185302734375</ele>
        <time>2018-09-07T08:31:36.000Z</time>
      </trkpt>
      <trkpt lat="43.451504744589328765869140625" lon="-5.01072107814252376556396484375">
        <ele>22.799999237060546875</ele>
        <time>2018-09-07T08:31:40.000Z</time>
      </trkpt>
      <trkpt lat="43.4514874778687953948974609375" lon="-5.0107726268470287322998046875">
        <ele>22.6000003814697265625</ele>
        <time>2018-09-07T08:31:41.000Z</time>
      </trkpt>
      <trkpt lat="43.451411537826061248779296875" lon="-5.01104981638491153717041015625">
        <ele>23</ele>
        <time>2018-09-07T08:31:45.000Z</time>
      </trkpt>
      <trkpt lat="43.45138479955494403839111328125" lon="-5.011131204664707183837890625">
        <ele>23</ele>
        <time>2018-09-07T08:31:46.000Z</time>
      </trkpt>
      <trkpt lat="43.45128924585878849029541015625" lon="-5.011341087520122528076171875">
        <ele>23.200000762939453125</ele>
        <time>2018-09-07T08:31:49.000Z</time>
      </trkpt>
      <trkpt lat="43.45123258419334888458251953125" lon="-5.011464469134807586669921875">
        <ele>23.3999996185302734375</ele>
        <time>2018-09-07T08:31:51.000Z</time>
      </trkpt>
      <trkpt lat="43.45120643265545368194580078125" lon="-5.0115219689905643463134765625">
        <ele>23.3999996185302734375</ele>
        <time>2018-09-07T08:31:52.000Z</time>
      </trkpt>
      <trkpt lat="43.4511843882501125335693359375" lon="-5.0115806423127651214599609375">
        <ele>23.6000003814697265625</ele>
        <time>2018-09-07T08:31:53.000Z</time>
      </trkpt>
      <trkpt lat="43.451143316924571990966796875" lon="-5.0116936303675174713134765625">
        <ele>24.200000762939453125</ele>
        <time>2018-09-07T08:31:55.000Z</time>
      </trkpt>
      <trkpt lat="43.4511263854801654815673828125" lon="-5.0117482803761959075927734375">
        <ele>24.3999996185302734375</ele>
        <time>2018-09-07T08:31:56.000Z</time>
      </trkpt>
      <trkpt lat="43.4510814584791660308837890625" lon="-5.01185439527034759521484375">
        <ele>24.6000003814697265625</ele>
        <time>2018-09-07T08:31:58.000Z</time>
      </trkpt>
      <trkpt lat="43.4510331787168979644775390625" lon="-5.01194986514747142791748046875">
        <ele>24.799999237060546875</ele>
        <time>2018-09-07T08:32:00.000Z</time>
      </trkpt>
      <trkpt lat="43.4509765170514583587646484375" lon="-5.012094117701053619384765625">
        <ele>25.200000762939453125</ele>
        <time>2018-09-07T08:32:03.000Z</time>
      </trkpt>
      <trkpt lat="43.45095816068351268768310546875" lon="-5.0121459178626537322998046875">
        <ele>25.200000762939453125</ele>
        <time>2018-09-07T08:32:04.000Z</time>
      </trkpt>
      <trkpt lat="43.4509315900504589080810546875" lon="-5.01224893145263195037841796875">
        <ele>25.6000003814697265625</ele>
        <time>2018-09-07T08:32:06.000Z</time>
      </trkpt>
      <trkpt lat="43.45092547126114368438720703125" lon="-5.01240081153810024261474609375">
        <ele>26.6000003814697265625</ele>
        <time>2018-09-07T08:32:09.000Z</time>
      </trkpt>
      <trkpt lat="43.45092597417533397674560546875" lon="-5.012446828186511993408203125">
        <ele>26.799999237060546875</ele>
        <time>2018-09-07T08:32:10.000Z</time>
      </trkpt>
      <trkpt lat="43.4509540535509586334228515625" lon="-5.0126220099627971649169921875">
        <ele>27.799999237060546875</ele>
        <time>2018-09-07T08:32:14.000Z</time>
      </trkpt>
      <trkpt lat="43.45096469856798648834228515625" lon="-5.01266081817448139190673828125">
        <ele>28</ele>
        <time>2018-09-07T08:32:15.000Z</time>
      </trkpt>
      <trkpt lat="43.450988419353961944580078125" lon="-5.0127544440329074859619140625">
        <ele>29</ele>
        <time>2018-09-07T08:32:18.000Z</time>
      </trkpt>
      <trkpt lat="43.45100392587482929229736328125" lon="-5.0128409452736377716064453125">
        <ele>29.6000003814697265625</ele>
        <time>2018-09-07T08:32:21.000Z</time>
      </trkpt>
      <trkpt lat="43.45101934857666492462158203125" lon="-5.01293440349400043487548828125">
        <ele>30.200000762939453125</ele>
        <time>2018-09-07T08:32:24.000Z</time>
      </trkpt>
      <trkpt lat="43.45105220563709735870361328125" lon="-5.01311293803155422210693359375">
        <ele>31.3999996185302734375</ele>
        <time>2018-09-07T08:32:30.000Z</time>
      </trkpt>
      <trkpt lat="43.451054804027080535888671875" lon="-5.0131440348923206329345703125">
        <ele>31.6000003814697265625</ele>
        <time>2018-09-07T08:32:31.000Z</time>
      </trkpt>
      <trkpt lat="43.4510643593966960906982421875" lon="-5.013298094272613525390625">
        <ele>32.40000152587890625</ele>
        <time>2018-09-07T08:32:36.000Z</time>
      </trkpt>
      <trkpt lat="43.45106578432023525238037109375" lon="-5.013463385403156280517578125">
        <ele>33</ele>
        <time>2018-09-07T08:32:41.000Z</time>
      </trkpt>
      <trkpt lat="43.451058827340602874755859375" lon="-5.01375180669128894805908203125">
        <ele>33.200000762939453125</ele>
        <time>2018-09-07T08:32:48.000Z</time>
      </trkpt>
      <trkpt lat="43.451052121818065643310546875" lon="-5.0139413215219974517822265625">
        <ele>33.40000152587890625</ele>
        <time>2018-09-07T08:32:52.000Z</time>
      </trkpt>
      <trkpt lat="43.45104717649519443511962890625" lon="-5.0140838138759136199951171875">
        <ele>33.59999847412109375</ele>
        <time>2018-09-07T08:32:55.000Z</time>
      </trkpt>
      <trkpt lat="43.451028652489185333251953125" lon="-5.014436356723308563232421875">
        <ele>34.40000152587890625</ele>
        <time>2018-09-07T08:33:02.000Z</time>
      </trkpt>
      <trkpt lat="43.4510227851569652557373046875" lon="-5.01465185545384883880615234375">
        <ele>34.59999847412109375</ele>
        <time>2018-09-07T08:33:06.000Z</time>
      </trkpt>
      <trkpt lat="43.45102756284177303314208984375" lon="-5.0147478282451629638671875">
        <ele>35</ele>
        <time>2018-09-07T08:33:08.000Z</time>
      </trkpt>
      <trkpt lat="43.45104130916297435760498046875" lon="-5.015015713870525360107421875">
        <ele>35.799999237060546875</ele>
        <time>2018-09-07T08:33:14.000Z</time>
      </trkpt>
      <trkpt lat="43.4511149860918521881103515625" lon="-5.01533187925815582275390625">
        <ele>35</ele>
        <time>2018-09-07T08:33:19.000Z</time>
      </trkpt>
      <trkpt lat="43.45113535411655902862548828125" lon="-5.01539918594062328338623046875">
        <ele>34.59999847412109375</ele>
        <time>2018-09-07T08:33:20.000Z</time>
      </trkpt>
      <trkpt lat="43.45117173157632350921630859375" lon="-5.0155342184007167816162109375">
        <ele>34</ele>
        <time>2018-09-07T08:33:22.000Z</time>
      </trkpt>
      <trkpt lat="43.4511853940784931182861328125" lon="-5.015675537288188934326171875">
        <ele>33.59999847412109375</ele>
        <time>2018-09-07T08:33:24.000Z</time>
      </trkpt>
      <trkpt lat="43.45121204853057861328125" lon="-5.0157806463539600372314453125">
        <ele>34.200000762939453125</ele>
        <time>2018-09-07T08:33:26.000Z</time>
      </trkpt>
      <trkpt lat="43.45124683342874050140380859375" lon="-5.0158875994384288787841796875">
        <ele>33.799999237060546875</ele>
        <time>2018-09-07T08:33:28.000Z</time>
      </trkpt>
      <trkpt lat="43.4512943588197231292724609375" lon="-5.0160378031432628631591796875">
        <ele>33.200000762939453125</ele>
        <time>2018-09-07T08:33:31.000Z</time>
      </trkpt>
      <trkpt lat="43.4513154812157154083251953125" lon="-5.0161430798470973968505859375">
        <ele>33</ele>
        <time>2018-09-07T08:33:33.000Z</time>
      </trkpt>
      <trkpt lat="43.45132243819534778594970703125" lon="-5.0161806307733058929443359375">
        <ele>33.200000762939453125</ele>
        <time>2018-09-07T08:33:34.000Z</time>
      </trkpt>
      <trkpt lat="43.45136518590152263641357421875" lon="-5.016274340450763702392578125">
        <ele>33.40000152587890625</ele>
        <time>2018-09-07T08:33:38.000Z</time>
      </trkpt>
      <trkpt lat="43.45138647593557834625244140625" lon="-5.01630744896829128265380859375">
        <ele>33.59999847412109375</ele>
        <time>2018-09-07T08:33:40.000Z</time>
      </trkpt>
      <trkpt lat="43.45142687670886516571044921875" lon="-5.016398392617702484130859375">
        <ele>33.200000762939453125</ele>
        <time>2018-09-07T08:33:43.000Z</time>
      </trkpt>
      <trkpt lat="43.451477587223052978515625" lon="-5.01656167209148406982421875">
        <ele>32.59999847412109375</ele>
        <time>2018-09-07T08:33:46.000Z</time>
      </trkpt>
      <trkpt lat="43.45149426721036434173583984375" lon="-5.016619674861431121826171875">
        <ele>32.59999847412109375</ele>
        <time>2018-09-07T08:33:47.000Z</time>
      </trkpt>
      <trkpt lat="43.45158143900334835052490234375" lon="-5.0169128738343715667724609375">
        <ele>32</ele>
        <time>2018-09-07T08:33:52.000Z</time>
      </trkpt>
      <trkpt lat="43.451622761785984039306640625" lon="-5.01703348942101001739501953125">
        <ele>31.3999996185302734375</ele>
        <time>2018-09-07T08:33:54.000Z</time>
      </trkpt>
      <trkpt lat="43.4516702033579349517822265625" lon="-5.01715100370347499847412109375">
        <ele>31</ele>
        <time>2018-09-07T08:33:56.000Z</time>
      </trkpt>
      <trkpt lat="43.4517149627208709716796875" lon="-5.01727337948977947235107421875">
        <ele>31</ele>
        <time>2018-09-07T08:33:58.000Z</time>
      </trkpt>
      <trkpt lat="43.45177422277629375457763671875" lon="-5.01746314577758312225341796875">
        <ele>30.3999996185302734375</ele>
        <time>2018-09-07T08:34:01.000Z</time>
      </trkpt>
      <trkpt lat="43.4517992846667766571044921875" lon="-5.01752215437591075897216796875">
        <ele>30.6000003814697265625</ele>
        <time>2018-09-07T08:34:02.000Z</time>
      </trkpt>
      <trkpt lat="43.45182216726243495941162109375" lon="-5.01757781021296977996826171875">
        <ele>30.3999996185302734375</ele>
        <time>2018-09-07T08:34:03.000Z</time>
      </trkpt>
      <trkpt lat="43.451994918286800384521484375" lon="-5.01788257621228694915771484375">
        <ele>29.799999237060546875</ele>
        <time>2018-09-07T08:34:09.000Z</time>
      </trkpt>
      <trkpt lat="43.4520636498928070068359375" lon="-5.0179961510002613067626953125">
        <ele>29.3999996185302734375</ele>
        <time>2018-09-07T08:34:11.000Z</time>
      </trkpt>
      <trkpt lat="43.45217227935791015625" lon="-5.01817057840526103973388671875">
        <ele>28.3999996185302734375</ele>
        <time>2018-09-07T08:34:14.000Z</time>
      </trkpt>
      <trkpt lat="43.45224000513553619384765625" lon="-5.0182771123945713043212890625">
        <ele>28.3999996185302734375</ele>
        <time>2018-09-07T08:34:16.000Z</time>
      </trkpt>
      <trkpt lat="43.45231384970247745513916015625" lon="-5.01842446625232696533203125">
        <ele>28.200000762939453125</ele>
        <time>2018-09-07T08:34:19.000Z</time>
      </trkpt>
      <trkpt lat="43.45234067179262638092041015625" lon="-5.01849428750574588775634765625">
        <ele>28.3999996185302734375</ele>
        <time>2018-09-07T08:34:21.000Z</time>
      </trkpt>
      <trkpt lat="43.45236950553953647613525390625" lon="-5.01857592724263668060302734375">
        <ele>28.6000003814697265625</ele>
        <time>2018-09-07T08:34:26.000Z</time>
      </trkpt>
      <trkpt lat="43.45239825546741485595703125" lon="-5.01866879872977733612060546875">
        <ele>28.6000003814697265625</ele>
        <time>2018-09-07T08:34:30.000Z</time>
      </trkpt>
      <trkpt lat="43.45243035815656185150146484375" lon="-5.0187200121581554412841796875">
        <ele>28.6000003814697265625</ele>
        <time>2018-09-07T08:34:33.000Z</time>
      </trkpt>
      <trkpt lat="43.45245533622801303863525390625" lon="-5.01876913011074066162109375">
        <ele>28.6000003814697265625</ele>
        <time>2018-09-07T08:34:36.000Z</time>
      </trkpt>
      <trkpt lat="43.45252859406173229217529296875" lon="-5.01887449063360691070556640625">
        <ele>28.3999996185302734375</ele>
        <time>2018-09-07T08:34:49.000Z</time>
      </trkpt>
      <trkpt lat="43.4525429271161556243896484375" lon="-5.01889024861156940460205078125">
        <ele>28.6000003814697265625</ele>
        <time>2018-09-07T08:34:50.000Z</time>
      </trkpt>
      <trkpt lat="43.452636636793613433837890625" lon="-5.01901497133076190948486328125">
        <ele>28.6000003814697265625</ele>
        <time>2018-09-07T08:34:57.000Z</time>
      </trkpt>
      <trkpt lat="43.4526958130300045013427734375" lon="-5.01908588223159313201904296875">
        <ele>28.799999237060546875</ele>
        <time>2018-09-07T08:35:01.000Z</time>
      </trkpt>
      <trkpt lat="43.4527273289859294891357421875" lon="-5.0191216729581356048583984375">
        <ele>28.799999237060546875</ele>
        <time>2018-09-07T08:35:03.000Z</time>
      </trkpt>
      <trkpt lat="43.45279547385871410369873046875" lon="-5.01925754360854625701904296875">
        <ele>29.200000762939453125</ele>
        <time>2018-09-07T08:35:09.000Z</time>
      </trkpt>
      <trkpt lat="43.452823050320148468017578125" lon="-5.0193017162382602691650390625">
        <ele>29.3999996185302734375</ele>
        <time>2018-09-07T08:35:11.000Z</time>
      </trkpt>
      <trkpt lat="43.4528911113739013671875" lon="-5.019389726221561431884765625">
        <ele>29.799999237060546875</ele>
        <time>2018-09-07T08:35:15.000Z</time>
      </trkpt>
      <trkpt lat="43.452922962605953216552734375" lon="-5.01944261603057384490966796875">
        <ele>30.200000762939453125</ele>
        <time>2018-09-07T08:35:17.000Z</time>
      </trkpt>
      <trkpt lat="43.4529338590800762176513671875" lon="-5.01947186887264251708984375">
        <ele>30.6000003814697265625</ele>
        <time>2018-09-07T08:35:18.000Z</time>
      </trkpt>
      <trkpt lat="43.45296864397823810577392578125" lon="-5.01955568790435791015625">
        <ele>31.3999996185302734375</ele>
        <time>2018-09-07T08:35:21.000Z</time>
      </trkpt>
      <trkpt lat="43.452985994517803192138671875" lon="-5.0196115113794803619384765625">
        <ele>31.6000003814697265625</ele>
        <time>2018-09-07T08:35:23.000Z</time>
      </trkpt>
      <trkpt lat="43.45299714244902133941650390625" lon="-5.01963841728866100311279296875">
        <ele>31.799999237060546875</ele>
        <time>2018-09-07T08:35:24.000Z</time>
      </trkpt>
      <trkpt lat="43.45302463509142398834228515625" lon="-5.0197603739798069000244140625">
        <ele>32.200000762939453125</ele>
        <time>2018-09-07T08:35:28.000Z</time>
      </trkpt>
      <trkpt lat="43.45304659567773342132568359375" lon="-5.0198539160192012786865234375">
        <ele>32.59999847412109375</ele>
        <time>2018-09-07T08:35:31.000Z</time>
      </trkpt>
      <trkpt lat="43.45305330120027065277099609375" lon="-5.01988585107028484344482421875">
        <ele>32.799999237060546875</ele>
        <time>2018-09-07T08:35:32.000Z</time>
      </trkpt>
      <trkpt lat="43.45309487544000148773193359375" lon="-5.020005293190479278564453125">
        <ele>34</ele>
        <time>2018-09-07T08:35:36.000Z</time>
      </trkpt>
      <trkpt lat="43.45313410274684429168701171875" lon="-5.02009523101150989532470703125">
        <ele>34.59999847412109375</ele>
        <time>2018-09-07T08:35:39.000Z</time>
      </trkpt>
      <trkpt lat="43.453165031969547271728515625" lon="-5.020194388926029205322265625">
        <ele>35.200000762939453125</ele>
        <time>2018-09-07T08:35:42.000Z</time>
      </trkpt>
      <trkpt lat="43.45320417545735836029052734375" lon="-5.02035657875239849090576171875">
        <ele>34.59999847412109375</ele>
        <time>2018-09-07T08:35:46.000Z</time>
      </trkpt>
      <trkpt lat="43.45324792899191379547119140625" lon="-5.020451210439205169677734375">
        <ele>34.200000762939453125</ele>
        <time>2018-09-07T08:35:49.000Z</time>
      </trkpt>
      <trkpt lat="43.4532791934907436370849609375" lon="-5.0204996578395366668701171875">
        <ele>34</ele>
        <time>2018-09-07T08:35:51.000Z</time>
      </trkpt>
      <trkpt lat="43.45329352654516696929931640625" lon="-5.0205224566161632537841796875">
        <ele>33.799999237060546875</ele>
        <time>2018-09-07T08:35:52.000Z</time>
      </trkpt>
      <trkpt lat="43.4533348493278026580810546875" lon="-5.0205921940505504608154296875">
        <ele>33.799999237060546875</ele>
        <time>2018-09-07T08:35:55.000Z</time>
      </trkpt>
      <trkpt lat="43.45338664948940277099609375" lon="-5.0206770189106464385986328125">
        <ele>33.59999847412109375</ele>
        <time>2018-09-07T08:35:58.000Z</time>
      </trkpt>
      <trkpt lat="43.45348966307938098907470703125" lon="-5.02085748128592967987060546875">
        <ele>33.200000762939453125</ele>
        <time>2018-09-07T08:36:03.000Z</time>
      </trkpt>
      <trkpt lat="43.45351497642695903778076171875" lon="-5.0208905898034572601318359375">
        <ele>33</ele>
        <time>2018-09-07T08:36:04.000Z</time>
      </trkpt>
      <trkpt lat="43.45354112796485424041748046875" lon="-5.02092286013066768646240234375">
        <ele>33</ele>
        <time>2018-09-07T08:36:05.000Z</time>
      </trkpt>
      <trkpt lat="43.453564345836639404296875" lon="-5.02094884403049945831298828125">
        <ele>32.799999237060546875</ele>
        <time>2018-09-07T08:36:06.000Z</time>
      </trkpt>
      <trkpt lat="43.45360432751476764678955078125" lon="-5.02098505385220050811767578125">
        <ele>32.799999237060546875</ele>
        <time>2018-09-07T08:36:08.000Z</time>
      </trkpt>
      <trkpt lat="43.45363140106201171875" lon="-5.021031908690929412841796875">
        <ele>32.59999847412109375</ele>
        <time>2018-09-07T08:36:10.000Z</time>
      </trkpt>
      <trkpt lat="43.453728966414928436279296875" lon="-5.02115252427756786346435546875">
        <ele>32.40000152587890625</ele>
        <time>2018-09-07T08:36:16.000Z</time>
      </trkpt>
      <trkpt lat="43.45379761420190334320068359375" lon="-5.0212158076465129852294921875">
        <ele>32.200000762939453125</ele>
        <time>2018-09-07T08:36:20.000Z</time>
      </trkpt>
      <trkpt lat="43.45381873659789562225341796875" lon="-5.02123986370861530303955078125">
        <ele>32.200000762939453125</ele>
        <time>2018-09-07T08:36:22.000Z</time>
      </trkpt>
      <trkpt lat="43.4538424573838710784912109375" lon="-5.02124791033565998077392578125">
        <ele>32.200000762939453125</ele>
        <time>2018-09-07T08:36:24.000Z</time>
      </trkpt>
      <trkpt lat="43.45386081375181674957275390625" lon="-5.02125545404851436614990234375">
        <ele>32.200000762939453125</ele>
        <time>2018-09-07T08:36:27.000Z</time>
      </trkpt>
      <trkpt lat="43.454063236713409423828125" lon="-5.0215175561606884002685546875">
        <ele>32</ele>
        <time>2018-09-07T08:37:44.000Z</time>
      </trkpt>
      <trkpt lat="43.454068601131439208984375" lon="-5.0215343199670314788818359375">
        <ele>32</ele>
        <time>2018-09-07T08:37:45.000Z</time>
      </trkpt>
      <trkpt lat="43.45407639630138874053955078125" lon="-5.0215470604598522186279296875">
        <ele>32</ele>
        <time>2018-09-07T08:37:46.000Z</time>
      </trkpt>
      <trkpt lat="43.45408025197684764862060546875" lon="-5.021562986075878143310546875">
        <ele>32</ele>
        <time>2018-09-07T08:37:47.000Z</time>
      </trkpt>
      <trkpt lat="43.45410950481891632080078125" lon="-5.021624006330966949462890625">
        <ele>32.200000762939453125</ele>
        <time>2018-09-07T08:37:51.000Z</time>
      </trkpt>
      <trkpt lat="43.4541338123381137847900390625" lon="-5.02164035104215145111083984375">
        <ele>32</ele>
        <time>2018-09-07T08:37:53.000Z</time>
      </trkpt>
      <trkpt lat="43.4541649930179119110107421875" lon="-5.02169466577470302581787109375">
        <ele>32.200000762939453125</ele>
        <time>2018-09-07T08:37:57.000Z</time>
      </trkpt>
      <trkpt lat="43.4541720338165760040283203125" lon="-5.02171025611460208892822265625">
        <ele>32.200000762939453125</ele>
        <time>2018-09-07T08:37:58.000Z</time>
      </trkpt>
      <trkpt lat="43.4541887976229190826416015625" lon="-5.0217753835022449493408203125">
        <ele>32.40000152587890625</ele>
        <time>2018-09-07T08:38:04.000Z</time>
      </trkpt>
      <trkpt lat="43.45426415093243122100830078125" lon="-5.02194444648921489715576171875">
        <ele>32.59999847412109375</ele>
        <time>2018-09-07T08:38:23.000Z</time>
      </trkpt>
      <trkpt lat="43.454284183681011199951171875" lon="-5.02198384143412113189697265625">
        <ele>32.59999847412109375</ele>
        <time>2018-09-07T08:38:25.000Z</time>
      </trkpt>
      <trkpt lat="43.45433472655713558197021484375" lon="-5.02214577980339527130126953125">
        <ele>32.799999237060546875</ele>
        <time>2018-09-07T08:38:31.000Z</time>
      </trkpt>
      <trkpt lat="43.45436909236013889312744140625" lon="-5.022252313792705535888671875">
        <ele>33</ele>
        <time>2018-09-07T08:38:34.000Z</time>
      </trkpt>
      <trkpt lat="43.4544449485838413238525390625" lon="-5.02243612892925739288330078125">
        <ele>34</ele>
        <time>2018-09-07T08:38:39.000Z</time>
      </trkpt>
      <trkpt lat="43.45450186170637607574462890625" lon="-5.02254928462207317352294921875">
        <ele>34</ele>
        <time>2018-09-07T08:38:43.000Z</time>
      </trkpt>
      <trkpt lat="43.45455047674477100372314453125" lon="-5.0225854106247425079345703125">
        <ele>34.200000762939453125</ele>
        <time>2018-09-07T08:38:46.000Z</time>
      </trkpt>
      <trkpt lat="43.45462574623525142669677734375" lon="-5.02268322743475437164306640625">
        <ele>34.40000152587890625</ele>
        <time>2018-09-07T08:38:51.000Z</time>
      </trkpt>
      <trkpt lat="43.45470135100185871124267578125" lon="-5.02283493988215923309326171875">
        <ele>34</ele>
        <time>2018-09-07T08:38:56.000Z</time>
      </trkpt>
      <trkpt lat="43.454711996018886566162109375" lon="-5.02289797179400920867919921875">
        <ele>33.799999237060546875</ele>
        <time>2018-09-07T08:38:58.000Z</time>
      </trkpt>
      <trkpt lat="43.4547306038439273834228515625" lon="-5.02301481552422046661376953125">
        <ele>33.200000762939453125</ele>
        <time>2018-09-07T08:39:01.000Z</time>
      </trkpt>
      <trkpt lat="43.454761616885662078857421875" lon="-5.0231245346367359161376953125">
        <ele>32.799999237060546875</ele>
        <time>2018-09-07T08:39:03.000Z</time>
      </trkpt>
      <trkpt lat="43.4547943063080310821533203125" lon="-5.02324305474758148193359375">
        <ele>31.799999237060546875</ele>
        <time>2018-09-07T08:39:05.000Z</time>
      </trkpt>
      <trkpt lat="43.45481350086629390716552734375" lon="-5.0233136303722858428955078125">
        <ele>31</ele>
        <time>2018-09-07T08:39:06.000Z</time>
      </trkpt>
      <trkpt lat="43.4548476152122020721435546875" lon="-5.0234542787075042724609375">
        <ele>29.799999237060546875</ele>
        <time>2018-09-07T08:39:08.000Z</time>
      </trkpt>
      <trkpt lat="43.4548747725784778594970703125" lon="-5.02351588569581508636474609375">
        <ele>29.3999996185302734375</ele>
        <time>2018-09-07T08:39:09.000Z</time>
      </trkpt>
      <trkpt lat="43.454908467829227447509765625" lon="-5.0235771574079990386962890625">
        <ele>28.799999237060546875</ele>
        <time>2018-09-07T08:39:10.000Z</time>
      </trkpt>
      <trkpt lat="43.454989604651927947998046875" lon="-5.023702718317508697509765625">
        <ele>27.3999996185302734375</ele>
        <time>2018-09-07T08:39:12.000Z</time>
      </trkpt>
      <trkpt lat="43.45501818694174289703369140625" lon="-5.02377656288444995880126953125">
        <ele>26.799999237060546875</ele>
        <time>2018-09-07T08:39:13.000Z</time>
      </trkpt>
      <trkpt lat="43.4550662152469158172607421875" lon="-5.0239305384457111358642578125">
        <ele>26.200000762939453125</ele>
        <time>2018-09-07T08:39:15.000Z</time>
      </trkpt>
      <trkpt lat="43.455096893012523651123046875" lon="-5.02409708686172962188720703125">
        <ele>25.799999237060546875</ele>
        <time>2018-09-07T08:39:17.000Z</time>
      </trkpt>
      <trkpt lat="43.4551054425537586212158203125" lon="-5.02418057061731815338134765625">
        <ele>25.200000762939453125</ele>
        <time>2018-09-07T08:39:18.000Z</time>
      </trkpt>
      <trkpt lat="43.45511022023856639862060546875" lon="-5.02426086924970149993896484375">
        <ele>25.200000762939453125</ele>
        <time>2018-09-07T08:39:19.000Z</time>
      </trkpt>
      <trkpt lat="43.4551374614238739013671875" lon="-5.02464853227138519287109375">
        <ele>24.3999996185302734375</ele>
        <time>2018-09-07T08:39:24.000Z</time>
      </trkpt>
      <trkpt lat="43.4551830589771270751953125" lon="-5.02508975565433502197265625">
        <ele>24</ele>
        <time>2018-09-07T08:39:31.000Z</time>
      </trkpt>
      <trkpt lat="43.4551999904215335845947265625" lon="-5.0251754187047481536865234375">
        <ele>24</ele>
        <time>2018-09-07T08:39:34.000Z</time>
      </trkpt>
      <trkpt lat="43.45521080307662487030029296875" lon="-5.025196038186550140380859375">
        <ele>24.200000762939453125</ele>
        <time>2018-09-07T08:39:35.000Z</time>
      </trkpt>
      <trkpt lat="43.45522957853972911834716796875" lon="-5.025280527770519256591796875">
        <ele>24.200000762939453125</ele>
        <time>2018-09-07T08:39:40.000Z</time>
      </trkpt>
      <trkpt lat="43.4552398882806301116943359375" lon="-5.0253373570740222930908203125">
        <ele>24.200000762939453125</ele>
        <time>2018-09-07T08:39:43.000Z</time>
      </trkpt>
      <trkpt lat="43.4552408941090106964111328125" lon="-5.0253427214920520782470703125">
        <ele>24.3999996185302734375</ele>
        <time>2018-09-07T08:39:45.000Z</time>
      </trkpt>
      <trkpt lat="43.45522488467395305633544921875" lon="-5.02555151470005512237548828125">
        <ele>24</ele>
        <time>2018-09-07T08:40:37.000Z</time>
      </trkpt>
      <trkpt lat="43.4552305005490779876708984375" lon="-5.02557179890573024749755859375">
        <ele>24</ele>
        <time>2018-09-07T08:40:38.000Z</time>
      </trkpt>
      <trkpt lat="43.4552348591387271881103515625" lon="-5.0255888141691684722900390625">
        <ele>24.200000762939453125</ele>
        <time>2018-09-07T08:40:39.000Z</time>
      </trkpt>
      <trkpt lat="43.455289341509342193603515625" lon="-5.025701634585857391357421875">
        <ele>24.3999996185302734375</ele>
        <time>2018-09-07T08:40:49.000Z</time>
      </trkpt>
      <trkpt lat="43.45530803315341472625732421875" lon="-5.0257758982479572296142578125">
        <ele>24.200000762939453125</ele>
        <time>2018-09-07T08:40:51.000Z</time>
      </trkpt>
      <trkpt lat="43.4553468413650989532470703125" lon="-5.02588008530437946319580078125">
        <ele>25</ele>
        <time>2018-09-07T08:40:54.000Z</time>
      </trkpt>
      <trkpt lat="43.45535480417311191558837890625" lon="-5.0259063206613063812255859375">
        <ele>25.200000762939453125</ele>
        <time>2018-09-07T08:40:55.000Z</time>
      </trkpt>
      <trkpt lat="43.455359078943729400634765625" lon="-5.0259703584015369415283203125">
        <ele>25.799999237060546875</ele>
        <time>2018-09-07T08:40:57.000Z</time>
      </trkpt>
      <trkpt lat="43.45535128377377986907958984375" lon="-5.026052333414554595947265625">
        <ele>26.3999996185302734375</ele>
        <time>2018-09-07T08:41:00.000Z</time>
      </trkpt>
      <trkpt lat="43.455361090600490570068359375" lon="-5.02611645497381687164306640625">
        <ele>26.6000003814697265625</ele>
        <time>2018-09-07T08:41:03.000Z</time>
      </trkpt>
      <trkpt lat="43.45537014305591583251953125" lon="-5.02617965452373027801513671875">
        <ele>26.799999237060546875</ele>
        <time>2018-09-07T08:41:06.000Z</time>
      </trkpt>
      <trkpt lat="43.4553830511868000030517578125" lon="-5.02629750408232212066650390625">
        <ele>26.799999237060546875</ele>
        <time>2018-09-07T08:41:11.000Z</time>
      </trkpt>
      <trkpt lat="43.45540274865925312042236328125" lon="-5.02641141414642333984375">
        <ele>26.6000003814697265625</ele>
        <time>2018-09-07T08:41:17.000Z</time>
      </trkpt>
      <trkpt lat="43.455420099198818206787109375" lon="-5.02650001086294651031494140625">
        <ele>26.6000003814697265625</ele>
        <time>2018-09-07T08:41:47.000Z</time>
      </trkpt>
      <trkpt lat="43.4554346837103366851806640625" lon="-5.0265356339514255523681640625">
        <ele>26.3999996185302734375</ele>
        <time>2018-09-07T08:41:49.000Z</time>
      </trkpt>
      <trkpt lat="43.45547030679881572723388671875" lon="-5.026676617562770843505859375">
        <ele>26.3999996185302734375</ele>
        <time>2018-09-07T08:41:54.000Z</time>
      </trkpt>
      <trkpt lat="43.4554853104054927825927734375" lon="-5.02673185430467128753662109375">
        <ele>26.200000762939453125</ele>
        <time>2018-09-07T08:41:56.000Z</time>
      </trkpt>
      <trkpt lat="43.45549629069864749908447265625" lon="-5.02679186873137950897216796875">
        <ele>26.3999996185302734375</ele>
        <time>2018-09-07T08:41:58.000Z</time>
      </trkpt>
      <trkpt lat="43.45550299622118473052978515625" lon="-5.0268809683620929718017578125">
        <ele>26.3999996185302734375</ele>
        <time>2018-09-07T08:42:01.000Z</time>
      </trkpt>
      <trkpt lat="43.45551406033337116241455078125" lon="-5.027000494301319122314453125">
        <ele>26</ele>
        <time>2018-09-07T08:42:05.000Z</time>
      </trkpt>
      <trkpt lat="43.4555210173130035400390625" lon="-5.0270283222198486328125">
        <ele>26.200000762939453125</ele>
        <time>2018-09-07T08:42:06.000Z</time>
      </trkpt>
      <trkpt lat="43.4555195085704326629638671875" lon="-5.027178861200809478759765625">
        <ele>26.3999996185302734375</ele>
        <time>2018-09-07T08:42:11.000Z</time>
      </trkpt>
      <trkpt lat="43.45551171340048313140869140625" lon="-5.0272031687200069427490234375">
        <ele>26.3999996185302734375</ele>
        <time>2018-09-07T08:42:12.000Z</time>
      </trkpt>
      <trkpt lat="43.45549075864255428314208984375" lon="-5.02727449871599674224853515625">
        <ele>26.6000003814697265625</ele>
        <time>2018-09-07T08:42:15.000Z</time>
      </trkpt>
      <trkpt lat="43.4554997272789478302001953125" lon="-5.02736703492701053619384765625">
        <ele>26.799999237060546875</ele>
        <time>2018-09-07T08:42:18.000Z</time>
      </trkpt>
      <trkpt lat="43.45549914054572582244873046875" lon="-5.02744632773101329803466796875">
        <ele>26.799999237060546875</ele>
        <time>2018-09-07T08:42:20.000Z</time>
      </trkpt>
      <trkpt lat="43.4554869867861270904541015625" lon="-5.02755872905254364013671875">
        <ele>27.3999996185302734375</ele>
        <time>2018-09-07T08:42:23.000Z</time>
      </trkpt>
      <trkpt lat="43.45548413693904876708984375" lon="-5.0276303105056285858154296875">
        <ele>27.3999996185302734375</ele>
        <time>2018-09-07T08:42:25.000Z</time>
      </trkpt>
      <trkpt lat="43.455498218536376953125" lon="-5.02776324748992919921875">
        <ele>28.200000762939453125</ele>
        <time>2018-09-07T08:42:29.000Z</time>
      </trkpt>
      <trkpt lat="43.4555030800402164459228515625" lon="-5.02778864465653896331787109375">
        <ele>28.3999996185302734375</ele>
        <time>2018-09-07T08:42:30.000Z</time>
      </trkpt>
      <trkpt lat="43.45551230013370513916015625" lon="-5.02783365547657012939453125">
        <ele>29.200000762939453125</ele>
        <time>2018-09-07T08:42:32.000Z</time>
      </trkpt>
      <trkpt lat="43.45550685189664363861083984375" lon="-5.02784966491162776947021484375">
        <ele>29.200000762939453125</ele>
        <time>2018-09-07T08:42:33.000Z</time>
      </trkpt>
      <trkpt lat="43.45548640005290508270263671875" lon="-5.02786860801279544830322265625">
        <ele>29.3999996185302734375</ele>
        <time>2018-09-07T08:42:35.000Z</time>
      </trkpt>
      <trkpt lat="43.45546812750399112701416015625" lon="-5.02786290831863880157470703125">
        <ele>29.799999237060546875</ele>
        <time>2018-09-07T08:42:36.000Z</time>
      </trkpt>
      <trkpt lat="43.4553505294024944305419921875" lon="-5.0278075039386749267578125">
        <ele>30</ele>
        <time>2018-09-07T08:42:41.000Z</time>
      </trkpt>
      <trkpt lat="43.4551589190959930419921875" lon="-5.02768521197140216827392578125">
        <ele>29</ele>
        <time>2018-09-07T08:42:47.000Z</time>
      </trkpt>
      <trkpt lat="43.45513016916811466217041015625" lon="-5.02764590084552764892578125">
        <ele>28.799999237060546875</ele>
        <time>2018-09-07T08:42:48.000Z</time>
      </trkpt>
      <trkpt lat="43.45506395213305950164794921875" lon="-5.027534924447536468505859375">
        <ele>28.799999237060546875</ele>
        <time>2018-09-07T08:42:51.000Z</time>
      </trkpt>
      <trkpt lat="43.4550460986793041229248046875" lon="-5.02750416286289691925048828125">
        <ele>28.6000003814697265625</ele>
        <time>2018-09-07T08:42:52.000Z</time>
      </trkpt>
      <trkpt lat="43.454965464770793914794921875" lon="-5.0274023227393627166748046875">
        <ele>28.6000003814697265625</ele>
        <time>2018-09-07T08:42:57.000Z</time>
      </trkpt>
      <trkpt lat="43.45492397435009479522705078125" lon="-5.0273885764181613922119140625">
        <ele>28.6000003814697265625</ele>
        <time>2018-09-07T08:42:59.000Z</time>
      </trkpt>
      <trkpt lat="43.45488256774842739105224609375" lon="-5.0274132192134857177734375">
        <ele>28.799999237060546875</ele>
        <time>2018-09-07T08:43:01.000Z</time>
      </trkpt>
      <trkpt lat="43.45475784502923488616943359375" lon="-5.0274626724421977996826171875">
        <ele>28.799999237060546875</ele>
        <time>2018-09-07T08:43:05.000Z</time>
      </trkpt>
      <trkpt lat="43.454722054302692413330078125" lon="-5.0274760834872722625732421875">
        <ele>28.799999237060546875</ele>
        <time>2018-09-07T08:43:06.000Z</time>
      </trkpt>
      <trkpt lat="43.45458182506263256072998046875" lon="-5.02753417007625102996826171875">
        <ele>31</ele>
        <time>2018-09-07T08:43:11.000Z</time>
      </trkpt>
      <trkpt lat="43.45454963855445384979248046875" lon="-5.027553029358386993408203125">
        <ele>30.3999996185302734375</ele>
        <time>2018-09-07T08:43:13.000Z</time>
      </trkpt>
      <trkpt lat="43.454531617462635040283203125" lon="-5.0275619141757488250732421875">
        <ele>30</ele>
        <time>2018-09-07T08:43:14.000Z</time>
      </trkpt>
      <trkpt lat="43.45439373515546321868896484375" lon="-5.02755336463451385498046875">
        <ele>30.200000762939453125</ele>
        <time>2018-09-07T08:43:19.000Z</time>
      </trkpt>
      <trkpt lat="43.4543078206479549407958984375" lon="-5.0274767540395259857177734375">
        <ele>30.200000762939453125</ele>
        <time>2018-09-07T08:43:23.000Z</time>
      </trkpt>
      <trkpt lat="43.4542843513190746307373046875" lon="-5.02741062082350254058837890625">
        <ele>30.200000762939453125</ele>
        <time>2018-09-07T08:43:26.000Z</time>
      </trkpt>
      <trkpt lat="43.45428778789937496185302734375" lon="-5.0273892469704151153564453125">
        <ele>30.200000762939453125</ele>
        <time>2018-09-07T08:43:27.000Z</time>
      </trkpt>
      <trkpt lat="43.45428409986197948455810546875" lon="-5.02736016176640987396240234375">
        <ele>30.200000762939453125</ele>
        <time>2018-09-07T08:43:28.000Z</time>
      </trkpt>
      <trkpt lat="43.4542032144963741302490234375" lon="-5.02718321979045867919921875">
        <ele>30</ele>
        <time>2018-09-07T08:43:33.000Z</time>
      </trkpt>
      <trkpt lat="43.45414177514612674713134765625" lon="-5.02710987813770771026611328125">
        <ele>29.200000762939453125</ele>
        <time>2018-09-07T08:43:35.000Z</time>
      </trkpt>
      <trkpt lat="43.45410942099988460540771484375" lon="-5.027080290019512176513671875">
        <ele>29</ele>
        <time>2018-09-07T08:43:36.000Z</time>
      </trkpt>
      <trkpt lat="43.45406633801758289337158203125" lon="-5.0270465947687625885009765625">
        <ele>28.3999996185302734375</ele>
        <time>2018-09-07T08:43:38.000Z</time>
      </trkpt>
      <trkpt lat="43.454023338854312896728515625" lon="-5.0270080380141735076904296875">
        <ele>28.200000762939453125</ele>
        <time>2018-09-07T08:43:43.000Z</time>
      </trkpt>
      <trkpt lat="43.45393658615648746490478515625" lon="-5.02698197029531002044677734375">
        <ele>28</ele>
        <time>2018-09-07T08:43:48.000Z</time>
      </trkpt>
      <trkpt lat="43.45388780348002910614013671875" lon="-5.0269862450659275054931640625">
        <ele>28</ele>
        <time>2018-09-07T08:43:50.000Z</time>
      </trkpt>
      <trkpt lat="43.45379970967769622802734375" lon="-5.02699722535908222198486328125">
        <ele>27.6000003814697265625</ele>
        <time>2018-09-07T08:43:53.000Z</time>
      </trkpt>
      <trkpt lat="43.453623689711093902587890625" lon="-5.02703779377043247222900390625">
        <ele>27.799999237060546875</ele>
        <time>2018-09-07T08:43:59.000Z</time>
      </trkpt>
      <trkpt lat="43.4535192511975765228271484375" lon="-5.027127563953399658203125">
        <ele>28.6000003814697265625</ele>
        <time>2018-09-07T08:44:04.000Z</time>
      </trkpt>
      <trkpt lat="43.4534210152924060821533203125" lon="-5.0272496044635772705078125">
        <ele>27.3999996185302734375</ele>
        <time>2018-09-07T08:44:08.000Z</time>
      </trkpt>
      <trkpt lat="43.4534012340009212493896484375" lon="-5.0273027457296848297119140625">
        <ele>26.799999237060546875</ele>
        <time>2018-09-07T08:44:09.000Z</time>
      </trkpt>
      <trkpt lat="43.45335773192346096038818359375" lon="-5.02744381316006183624267578125">
        <ele>26.200000762939453125</ele>
        <time>2018-09-07T08:44:12.000Z</time>
      </trkpt>
      <trkpt lat="43.453342057764530181884765625" lon="-5.02750650979578495025634765625">
        <ele>26.200000762939453125</ele>
        <time>2018-09-07T08:44:14.000Z</time>
      </trkpt>
      <trkpt lat="43.45332252793014049530029296875" lon="-5.02755210734903812408447265625">
        <ele>26.200000762939453125</ele>
        <time>2018-09-07T08:44:16.000Z</time>
      </trkpt>
      <trkpt lat="43.45329503528773784637451171875" lon="-5.0276648439466953277587890625">
        <ele>25.799999237060546875</ele>
        <time>2018-09-07T08:44:19.000Z</time>
      </trkpt>
      <trkpt lat="43.4532654471695423126220703125" lon="-5.02776215784251689910888671875">
        <ele>25.3999996185302734375</ele>
        <time>2018-09-07T08:44:21.000Z</time>
      </trkpt>
      <trkpt lat="43.45324742607772350311279296875" lon="-5.02794153057038784027099609375">
        <ele>24.6000003814697265625</ele>
        <time>2018-09-07T08:44:24.000Z</time>
      </trkpt>
      <trkpt lat="43.45320987515151500701904296875" lon="-5.02808787859976291656494140625">
        <ele>23</ele>
        <time>2018-09-07T08:44:26.000Z</time>
      </trkpt>
      <trkpt lat="43.453177772462368011474609375" lon="-5.02816197462379932403564453125">
        <ele>22.3999996185302734375</ele>
        <time>2018-09-07T08:44:27.000Z</time>
      </trkpt>
      <trkpt lat="43.45313410274684429168701171875" lon="-5.02822634764015674591064453125">
        <ele>21.6000003814697265625</ele>
        <time>2018-09-07T08:44:28.000Z</time>
      </trkpt>
      <trkpt lat="43.4530807100236415863037109375" lon="-5.02826557494699954986572265625">
        <ele>21</ele>
        <time>2018-09-07T08:44:29.000Z</time>
      </trkpt>
      <trkpt lat="43.4530143253505229949951171875" lon="-5.02829658798873424530029296875">
        <ele>20.3999996185302734375</ele>
        <time>2018-09-07T08:44:30.000Z</time>
      </trkpt>
      <trkpt lat="43.45295003615319728851318359375" lon="-5.02833095379173755645751953125">
        <ele>19.6000003814697265625</ele>
        <time>2018-09-07T08:44:31.000Z</time>
      </trkpt>
      <trkpt lat="43.45282749272882938385009765625" lon="-5.02840094268321990966796875">
        <ele>19.3999996185302734375</ele>
        <time>2018-09-07T08:44:33.000Z</time>
      </trkpt>
      <trkpt lat="43.4527638740837574005126953125" lon="-5.02842047251760959625244140625">
        <ele>19.200000762939453125</ele>
        <time>2018-09-07T08:44:34.000Z</time>
      </trkpt>
      <trkpt lat="43.45258341170847415924072265625" lon="-5.02847361378371715545654296875">
        <ele>19</ele>
        <time>2018-09-07T08:44:37.000Z</time>
      </trkpt>
      <trkpt lat="43.45253261737525463104248046875" lon="-5.02847948111593723297119140625">
        <ele>19</ele>
        <time>2018-09-07T08:44:38.000Z</time>
      </trkpt>
      <trkpt lat="43.45242147333920001983642578125" lon="-5.0285452790558338165283203125">
        <ele>19.6000003814697265625</ele>
        <time>2018-09-07T08:44:42.000Z</time>
      </trkpt>
      <trkpt lat="43.45244376920163631439208984375" lon="-5.028594397008419036865234375">
        <ele>19.799999237060546875</ele>
        <time>2018-09-07T08:44:44.000Z</time>
      </trkpt>
      <trkpt lat="43.4524520672857761383056640625" lon="-5.02862616442143917083740234375">
        <ele>19.799999237060546875</ele>
        <time>2018-09-07T08:44:45.000Z</time>
      </trkpt>
      <trkpt lat="43.45249640755355358123779296875" lon="-5.02872976474463939666748046875">
        <ele>19.799999237060546875</ele>
        <time>2018-09-07T08:44:48.000Z</time>
      </trkpt>
      <trkpt lat="43.45253211446106433868408203125" lon="-5.0288396514952182769775390625">
        <ele>19.6000003814697265625</ele>
        <time>2018-09-07T08:44:50.000Z</time>
      </trkpt>
      <trkpt lat="43.4525536559522151947021484375" lon="-5.02889974974095821380615234375">
        <ele>19.6000003814697265625</ele>
        <time>2018-09-07T08:44:51.000Z</time>
      </trkpt>
      <trkpt lat="43.45258173532783985137939453125" lon="-5.0290144979953765869140625">
        <ele>19.6000003814697265625</ele>
        <time>2018-09-07T08:44:53.000Z</time>
      </trkpt>
      <trkpt lat="43.4526163525879383087158203125" lon="-5.0291199423372745513916015625">
        <ele>20</ele>
        <time>2018-09-07T08:44:55.000Z</time>
      </trkpt>
      <trkpt lat="43.452635966241359710693359375" lon="-5.029159002006053924560546875">
        <ele>20.200000762939453125</ele>
        <time>2018-09-07T08:44:56.000Z</time>
      </trkpt>
      <trkpt lat="43.45272573642432689666748046875" lon="-5.02943359315395355224609375">
        <ele>20.200000762939453125</ele>
        <time>2018-09-07T08:45:02.000Z</time>
      </trkpt>
      <trkpt lat="43.4527474455535411834716796875" lon="-5.02954834140837192535400390625">
        <ele>20.200000762939453125</ele>
        <time>2018-09-07T08:45:04.000Z</time>
      </trkpt>
      <trkpt lat="43.45278851687908172607421875" lon="-5.02964272163808345794677734375">
        <ele>20</ele>
        <time>2018-09-07T08:45:06.000Z</time>
      </trkpt>
      <trkpt lat="43.45280192792415618896484375" lon="-5.02969670109450817108154296875">
        <ele>21</ele>
        <time>2018-09-07T08:45:07.000Z</time>
      </trkpt>
      <trkpt lat="43.4528295882046222686767578125" lon="-5.02980734221637248992919921875">
        <ele>21.3999996185302734375</ele>
        <time>2018-09-07T08:45:09.000Z</time>
      </trkpt>
      <trkpt lat="43.45290862955152988433837890625" lon="-5.0300624035298824310302734375">
        <ele>20.6000003814697265625</ele>
        <time>2018-09-07T08:45:14.000Z</time>
      </trkpt>
      <trkpt lat="43.45292589627206325531005859375" lon="-5.03011512570083141326904296875">
        <ele>20.6000003814697265625</ele>
        <time>2018-09-07T08:45:15.000Z</time>
      </trkpt>
      <trkpt lat="43.4530331008136272430419921875" lon="-5.03051578067243099212646484375">
        <ele>20.799999237060546875</ele>
        <time>2018-09-07T08:45:22.000Z</time>
      </trkpt>
      <trkpt lat="43.4531987272202968597412109375" lon="-5.03113285638391971588134765625">
        <ele>21</ele>
        <time>2018-09-07T08:45:32.000Z</time>
      </trkpt>
      <trkpt lat="43.45334381796419620513916015625" lon="-5.03165253438055515289306640625">
        <ele>21</ele>
        <time>2018-09-07T08:45:40.000Z</time>
      </trkpt>
      <trkpt lat="43.45340098254382610321044921875" lon="-5.031852610409259796142578125">
        <ele>21</ele>
        <time>2018-09-07T08:45:43.000Z</time>
      </trkpt>
      <trkpt lat="43.45356845296919345855712890625" lon="-5.0324351526796817779541015625">
        <ele>20.6000003814697265625</ele>
        <time>2018-09-07T08:45:51.000Z</time>
      </trkpt>
      <trkpt lat="43.4537807665765285491943359375" lon="-5.0331348739564418792724609375">
        <ele>20.6000003814697265625</ele>
        <time>2018-09-07T08:46:00.000Z</time>
      </trkpt>
      <trkpt lat="43.45396139658987522125244140625" lon="-5.03376829437911510467529296875">
        <ele>20.200000762939453125</ele>
        <time>2018-09-07T08:46:08.000Z</time>
      </trkpt>
      <trkpt lat="43.45412559807300567626953125" lon="-5.034375227987766265869140625">
        <ele>21</ele>
        <time>2018-09-07T08:46:16.000Z</time>
      </trkpt>
      <trkpt lat="43.45421637408435344696044921875" lon="-5.03470941446721553802490234375">
        <ele>22</ele>
        <time>2018-09-07T08:46:21.000Z</time>
      </trkpt>
      <trkpt lat="43.4542538411915302276611328125" lon="-5.03483782522380352020263671875">
        <ele>22.3999996185302734375</ele>
        <time>2018-09-07T08:46:23.000Z</time>
      </trkpt>
      <trkpt lat="43.45431477762758731842041015625" lon="-5.03502993844449520111083984375">
        <ele>23.200000762939453125</ele>
        <time>2018-09-07T08:46:26.000Z</time>
      </trkpt>
      <trkpt lat="43.45437428914010524749755859375" lon="-5.03522741608321666717529296875">
        <ele>23.799999237060546875</ele>
        <time>2018-09-07T08:46:29.000Z</time>
      </trkpt>
      <trkpt lat="43.45441452227532863616943359375" lon="-5.03536102361977100372314453125">
        <ele>24.3999996185302734375</ele>
        <time>2018-09-07T08:46:31.000Z</time>
      </trkpt>
      <trkpt lat="43.4544355608522891998291015625" lon="-5.03542564809322357177734375">
        <ele>24.6000003814697265625</ele>
        <time>2018-09-07T08:46:32.000Z</time>
      </trkpt>
      <trkpt lat="43.45450873486697673797607421875" lon="-5.03567911684513092041015625">
        <ele>25.200000762939453125</ele>
        <time>2018-09-07T08:46:36.000Z</time>
      </trkpt>
      <trkpt lat="43.45452792942523956298828125" lon="-5.0357406400144100189208984375">
        <ele>25.3999996185302734375</ele>
        <time>2018-09-07T08:46:37.000Z</time>
      </trkpt>
      <trkpt lat="43.454597331583499908447265625" lon="-5.03598363138735294342041015625">
        <ele>26.200000762939453125</ele>
        <time>2018-09-07T08:46:41.000Z</time>
      </trkpt>
      <trkpt lat="43.45463454723358154296875" lon="-5.036103911697864532470703125">
        <ele>26.3999996185302734375</ele>
        <time>2018-09-07T08:46:43.000Z</time>
      </trkpt>
      <trkpt lat="43.454706966876983642578125" lon="-5.0363521836698055267333984375">
        <ele>26.799999237060546875</ele>
        <time>2018-09-07T08:46:47.000Z</time>
      </trkpt>
      <trkpt lat="43.45475055277347564697265625" lon="-5.036480426788330078125">
        <ele>27.200000762939453125</ele>
        <time>2018-09-07T08:46:49.000Z</time>
      </trkpt>
      <trkpt lat="43.4549512155354022979736328125" lon="-5.0371011905372142791748046875">
        <ele>27.200000762939453125</ele>
        <time>2018-09-07T08:46:58.000Z</time>
      </trkpt>
      <trkpt lat="43.45512396655976772308349609375" lon="-5.037593208253383636474609375">
        <ele>26</ele>
        <time>2018-09-07T08:47:05.000Z</time>
      </trkpt>
      <trkpt lat="43.4551785327494144439697265625" lon="-5.03773930482566356658935546875">
        <ele>26.6000003814697265625</ele>
        <time>2018-09-07T08:47:07.000Z</time>
      </trkpt>
      <trkpt lat="43.4552861563861370086669921875" lon="-5.03803837113082408905029296875">
        <ele>26.3999996185302734375</ele>
        <time>2018-09-07T08:47:11.000Z</time>
      </trkpt>
      <trkpt lat="43.45543040893971920013427734375" lon="-5.03841362893581390380859375">
        <ele>26.3999996185302734375</ele>
        <time>2018-09-07T08:47:16.000Z</time>
      </trkpt>
      <trkpt lat="43.45548556186258792877197265625" lon="-5.03856475464999675750732421875">
        <ele>26.200000762939453125</ele>
        <time>2018-09-07T08:47:18.000Z</time>
      </trkpt>
      <trkpt lat="43.45564775168895721435546875" lon="-5.03893724642693996429443359375">
        <ele>25.799999237060546875</ele>
        <time>2018-09-07T08:47:23.000Z</time>
      </trkpt>
      <trkpt lat="43.45574967563152313232421875" lon="-5.03917965106666088104248046875">
        <ele>25.3999996185302734375</ele>
        <time>2018-09-07T08:47:26.000Z</time>
      </trkpt>
      <trkpt lat="43.45586040057241916656494140625" lon="-5.0394321978092193603515625">
        <ele>24.6000003814697265625</ele>
        <time>2018-09-07T08:47:29.000Z</time>
      </trkpt>
      <trkpt lat="43.45589929260313510894775390625" lon="-5.03952004015445709228515625">
        <ele>24.200000762939453125</ele>
        <time>2018-09-07T08:47:30.000Z</time>
      </trkpt>
      <trkpt lat="43.4559402801096439361572265625" lon="-5.03960712812840938568115234375">
        <ele>24</ele>
        <time>2018-09-07T08:47:31.000Z</time>
      </trkpt>
      <trkpt lat="43.4559791721403598785400390625" lon="-5.03969949670135974884033203125">
        <ele>23.3999996185302734375</ele>
        <time>2018-09-07T08:47:32.000Z</time>
      </trkpt>
      <trkpt lat="43.456021584570407867431640625" lon="-5.03979085944592952728271484375">
        <ele>22.799999237060546875</ele>
        <time>2018-09-07T08:47:33.000Z</time>
      </trkpt>
      <trkpt lat="43.45610314048826694488525390625" lon="-5.03997559659183025360107421875">
        <ele>21.799999237060546875</ele>
        <time>2018-09-07T08:47:35.000Z</time>
      </trkpt>
      <trkpt lat="43.45614404417574405670166015625" lon="-5.040069557726383209228515625">
        <ele>21.6000003814697265625</ele>
        <time>2018-09-07T08:47:36.000Z</time>
      </trkpt>
      <trkpt lat="43.456189893186092376708984375" lon="-5.04016108810901641845703125">
        <ele>21.200000762939453125</ele>
        <time>2018-09-07T08:47:37.000Z</time>
      </trkpt>
      <trkpt lat="43.45623783767223358154296875" lon="-5.0402571447193622589111328125">
        <ele>21</ele>
        <time>2018-09-07T08:47:38.000Z</time>
      </trkpt>
      <trkpt lat="43.45632777549326419830322265625" lon="-5.0404566340148448944091796875">
        <ele>20.6000003814697265625</ele>
        <time>2018-09-07T08:47:40.000Z</time>
      </trkpt>
      <trkpt lat="43.45647110603749752044677734375" lon="-5.04076232202351093292236328125">
        <ele>18.6000003814697265625</ele>
        <time>2018-09-07T08:47:43.000Z</time>
      </trkpt>
      <trkpt lat="43.45657453872263431549072265625" lon="-5.04097086377441883087158203125">
        <ele>17.799999237060546875</ele>
        <time>2018-09-07T08:47:45.000Z</time>
      </trkpt>
      <trkpt lat="43.4566272608935832977294921875" lon="-5.04107572138309478759765625">
        <ele>17.3999996185302734375</ele>
        <time>2018-09-07T08:47:46.000Z</time>
      </trkpt>
      <trkpt lat="43.45677855424582958221435546875" lon="-5.0413920544087886810302734375">
        <ele>16.3999996185302734375</ele>
        <time>2018-09-07T08:47:49.000Z</time>
      </trkpt>
      <trkpt lat="43.4570282511413097381591796875" lon="-5.0419030152261257171630859375">
        <ele>15.6000003814697265625</ele>
        <time>2018-09-07T08:47:54.000Z</time>
      </trkpt>
      <trkpt lat="43.457349278032779693603515625" lon="-5.04257599823176860809326171875">
        <ele>15.80000019073486328125</ele>
        <time>2018-09-07T08:48:01.000Z</time>
      </trkpt>
      <trkpt lat="43.45739160664379596710205078125" lon="-5.04266317002475261688232421875">
        <ele>15.6000003814697265625</ele>
        <time>2018-09-07T08:48:02.000Z</time>
      </trkpt>
      <trkpt lat="43.45758925192058086395263671875" lon="-5.04307891242206096649169921875">
        <ele>16.799999237060546875</ele>
        <time>2018-09-07T08:48:07.000Z</time>
      </trkpt>
      <trkpt lat="43.45766066573560237884521484375" lon="-5.043231882154941558837890625">
        <ele>17.200000762939453125</ele>
        <time>2018-09-07T08:48:09.000Z</time>
      </trkpt>
      <trkpt lat="43.45769570209085941314697265625" lon="-5.0433037988841533660888671875">
        <ele>17.3999996185302734375</ele>
        <time>2018-09-07T08:48:10.000Z</time>
      </trkpt>
      <trkpt lat="43.45779729075729846954345703125" lon="-5.0434915535151958465576171875">
        <ele>18.3999996185302734375</ele>
        <time>2018-09-07T08:48:13.000Z</time>
      </trkpt>
      <trkpt lat="43.457828722894191741943359375" lon="-5.04355802200734615325927734375">
        <ele>18.6000003814697265625</ele>
        <time>2018-09-07T08:48:14.000Z</time>
      </trkpt>
      <trkpt lat="43.4579234384000301361083984375" lon="-5.0437574274837970733642578125">
        <ele>19.200000762939453125</ele>
        <time>2018-09-07T08:48:17.000Z</time>
      </trkpt>
      <trkpt lat="43.45798186026513576507568359375" lon="-5.0438952259719371795654296875">
        <ele>19.6000003814697265625</ele>
        <time>2018-09-07T08:48:19.000Z</time>
      </trkpt>
      <trkpt lat="43.45801438204944133758544921875" lon="-5.043960772454738616943359375">
        <ele>19.799999237060546875</ele>
        <time>2018-09-07T08:48:20.000Z</time>
      </trkpt>
      <trkpt lat="43.45808059908449649810791015625" lon="-5.0440927036106586456298828125">
        <ele>20</ele>
        <time>2018-09-07T08:48:22.000Z</time>
      </trkpt>
      <trkpt lat="43.4581098519265651702880859375" lon="-5.04415632225573062896728515625">
        <ele>20.200000762939453125</ele>
        <time>2018-09-07T08:48:23.000Z</time>
      </trkpt>
      <trkpt lat="43.4582292102277278900146484375" lon="-5.04439872689545154571533203125">
        <ele>20.6000003814697265625</ele>
        <time>2018-09-07T08:48:27.000Z</time>
      </trkpt>
      <trkpt lat="43.45831730403006076812744140625" lon="-5.04458698444068431854248046875">
        <ele>20.6000003814697265625</ele>
        <time>2018-09-07T08:48:30.000Z</time>
      </trkpt>
      <trkpt lat="43.45860681496560573577880859375" lon="-5.0450948439538478851318359375">
        <ele>20.6000003814697265625</ele>
        <time>2018-09-07T08:48:38.000Z</time>
      </trkpt>
      <trkpt lat="43.4587772190570831298828125" lon="-5.0453174673020839691162109375">
        <ele>20.799999237060546875</ele>
        <time>2018-09-07T08:48:42.000Z</time>
      </trkpt>
      <trkpt lat="43.458899594843387603759765625" lon="-5.04547680728137493133544921875">
        <ele>21</ele>
        <time>2018-09-07T08:48:45.000Z</time>
      </trkpt>
      <trkpt lat="43.459167145192623138427734375" lon="-5.04586086608469486236572265625">
        <ele>21.3999996185302734375</ele>
        <time>2018-09-07T08:48:52.000Z</time>
      </trkpt>
      <trkpt lat="43.4592370502650737762451171875" lon="-5.0459813140332698822021484375">
        <ele>21.3999996185302734375</ele>
        <time>2018-09-07T08:48:54.000Z</time>
      </trkpt>
      <trkpt lat="43.45944718457758426666259765625" lon="-5.04647073335945606231689453125">
        <ele>21.799999237060546875</ele>
        <time>2018-09-07T08:49:01.000Z</time>
      </trkpt>
      <trkpt lat="43.45953200943768024444580078125" lon="-5.046948753297328948974609375">
        <ele>21.6000003814697265625</ele>
        <time>2018-09-07T08:49:07.000Z</time>
      </trkpt>
      <trkpt lat="43.4595498628914356231689453125" lon="-5.04745963029563426971435546875">
        <ele>21.6000003814697265625</ele>
        <time>2018-09-07T08:49:13.000Z</time>
      </trkpt>
      <trkpt lat="43.4595468454062938690185546875" lon="-5.0480647198855876922607421875">
        <ele>21.200000762939453125</ele>
        <time>2018-09-07T08:49:20.000Z</time>
      </trkpt>
      <trkpt lat="43.45954231917858123779296875" lon="-5.0485947914421558380126953125">
        <ele>21.799999237060546875</ele>
        <time>2018-09-07T08:49:26.000Z</time>
      </trkpt>
      <trkpt lat="43.45955665223300457000732421875" lon="-5.0488596595823764801025390625">
        <ele>21.6000003814697265625</ele>
        <time>2018-09-07T08:49:29.000Z</time>
      </trkpt>
      <trkpt lat="43.45965589396655559539794921875" lon="-5.04935042001307010650634765625">
        <ele>21.6000003814697265625</ele>
        <time>2018-09-07T08:49:35.000Z</time>
      </trkpt>
      <trkpt lat="43.4596970491111278533935546875" lon="-5.04950297065079212188720703125">
        <ele>21.799999237060546875</ele>
        <time>2018-09-07T08:49:37.000Z</time>
      </trkpt>
      <trkpt lat="43.45983526669442653656005859375" lon="-5.050014518201351165771484375">
        <ele>22.799999237060546875</ele>
        <time>2018-09-07T08:49:44.000Z</time>
      </trkpt>
      <trkpt lat="43.45987164415419101715087890625" lon="-5.0501503050327301025390625">
        <ele>23</ele>
        <time>2018-09-07T08:49:46.000Z</time>
      </trkpt>
      <trkpt lat="43.459928892552852630615234375" lon="-5.05039983429014682769775390625">
        <ele>24</ele>
        <time>2018-09-07T08:49:50.000Z</time>
      </trkpt>
      <trkpt lat="43.45994087867438793182373046875" lon="-5.050455741584300994873046875">
        <ele>24.200000762939453125</ele>
        <time>2018-09-07T08:49:51.000Z</time>
      </trkpt>
      <trkpt lat="43.459973149001598358154296875" lon="-5.0506688095629215240478515625">
        <ele>25.200000762939453125</ele>
        <time>2018-09-07T08:49:55.000Z</time>
      </trkpt>
      <trkpt lat="43.459982536733150482177734375" lon="-5.05081591196358203887939453125">
        <ele>26</ele>
        <time>2018-09-07T08:49:58.000Z</time>
      </trkpt>
      <trkpt lat="43.45998697914183139801025390625" lon="-5.05089973099529743194580078125">
        <ele>26.3999996185302734375</ele>
        <time>2018-09-07T08:50:00.000Z</time>
      </trkpt>
      <trkpt lat="43.459972478449344635009765625" lon="-5.051114894449710845947265625">
        <ele>27.3999996185302734375</ele>
        <time>2018-09-07T08:50:05.000Z</time>
      </trkpt>
      <trkpt lat="43.45994490198791027069091796875" lon="-5.05127389915287494659423828125">
        <ele>28.6000003814697265625</ele>
        <time>2018-09-07T08:50:09.000Z</time>
      </trkpt>
      <trkpt lat="43.4599364362657070159912109375" lon="-5.05134950391948223114013671875">
        <ele>29</ele>
        <time>2018-09-07T08:50:11.000Z</time>
      </trkpt>
      <trkpt lat="43.45992386341094970703125" lon="-5.05150004290044307708740234375">
        <ele>29.799999237060546875</ele>
        <time>2018-09-07T08:50:15.000Z</time>
      </trkpt>
      <trkpt lat="43.45990651287138462066650390625" lon="-5.051653683185577392578125">
        <ele>30.6000003814697265625</ele>
        <time>2018-09-07T08:50:19.000Z</time>
      </trkpt>
      <trkpt lat="43.45989813096821308135986328125" lon="-5.05181654356420040130615234375">
        <ele>31</ele>
        <time>2018-09-07T08:50:23.000Z</time>
      </trkpt>
      <trkpt lat="43.459877260029315948486328125" lon="-5.05197747610509395599365234375">
        <ele>31.6000003814697265625</ele>
        <time>2018-09-07T08:50:27.000Z</time>
      </trkpt>
      <trkpt lat="43.45984867773950099945068359375" lon="-5.0523054599761962890625">
        <ele>32</ele>
        <time>2018-09-07T08:50:34.000Z</time>
      </trkpt>
      <trkpt lat="43.45984809100627899169921875" lon="-5.05235499702394008636474609375">
        <ele>32</ele>
        <time>2018-09-07T08:50:35.000Z</time>
      </trkpt>
      <trkpt lat="43.4598422236740589141845703125" lon="-5.052694715559482574462890625">
        <ele>32</ele>
        <time>2018-09-07T08:50:41.000Z</time>
      </trkpt>
      <trkpt lat="43.459850437939167022705078125" lon="-5.0528732500970363616943359375">
        <ele>32</ele>
        <time>2018-09-07T08:50:44.000Z</time>
      </trkpt>
      <trkpt lat="43.4598593227565288543701171875" lon="-5.05293385125696659088134765625">
        <ele>31.799999237060546875</ele>
        <time>2018-09-07T08:50:45.000Z</time>
      </trkpt>
      <trkpt lat="43.45987298525869846343994140625" lon="-5.0530573166906833648681640625">
        <ele>31.3999996185302734375</ele>
        <time>2018-09-07T08:50:47.000Z</time>
      </trkpt>
      <trkpt lat="43.45990768633782863616943359375" lon="-5.0532495975494384765625">
        <ele>30.799999237060546875</ele>
        <time>2018-09-07T08:50:50.000Z</time>
      </trkpt>
      <trkpt lat="43.4599230252206325531005859375" lon="-5.05331975407898426055908203125">
        <ele>30.6000003814697265625</ele>
        <time>2018-09-07T08:50:51.000Z</time>
      </trkpt>
      <trkpt lat="43.45997356809675693511962890625" lon="-5.053547658026218414306640625">
        <ele>29.6000003814697265625</ele>
        <time>2018-09-07T08:50:54.000Z</time>
      </trkpt>
      <trkpt lat="43.45999485813081264495849609375" lon="-5.0536296330392360687255859375">
        <ele>29</ele>
        <time>2018-09-07T08:50:55.000Z</time>
      </trkpt>
      <trkpt lat="43.46002352423965930938720703125" lon="-5.053708590567111968994140625">
        <ele>28.6000003814697265625</ele>
        <time>2018-09-07T08:50:56.000Z</time>
      </trkpt>
      <trkpt lat="43.46004950813949108123779296875" lon="-5.05379785783588886260986328125">
        <ele>28.200000762939453125</ele>
        <time>2018-09-07T08:50:57.000Z</time>
      </trkpt>
      <trkpt lat="43.4601022303104400634765625" lon="-5.05398879759013652801513671875">
        <ele>27</ele>
        <time>2018-09-07T08:50:59.000Z</time>
      </trkpt>
      <trkpt lat="43.4601490013301372528076171875" lon="-5.05419708788394927978515625">
        <ele>25.799999237060546875</ele>
        <time>2018-09-07T08:51:01.000Z</time>
      </trkpt>
      <trkpt lat="43.4601835347712039947509765625" lon="-5.05442817695438861846923828125">
        <ele>24.3999996185302734375</ele>
        <time>2018-09-07T08:51:03.000Z</time>
      </trkpt>
      <trkpt lat="43.46019300632178783416748046875" lon="-5.05466069094836711883544921875">
        <ele>23.200000762939453125</ele>
        <time>2018-09-07T08:51:05.000Z</time>
      </trkpt>
      <trkpt lat="43.4601795114576816558837890625" lon="-5.054866969585418701171875">
        <ele>22.3999996185302734375</ele>
        <time>2018-09-07T08:51:07.000Z</time>
      </trkpt>
      <trkpt lat="43.46013014204800128936767578125" lon="-5.0551445782184600830078125">
        <ele>22.3999996185302734375</ele>
        <time>2018-09-07T08:51:11.000Z</time>
      </trkpt>
      <trkpt lat="43.4601255320012569427490234375" lon="-5.05518388934433460235595703125">
        <ele>22.3999996185302734375</ele>
        <time>2018-09-07T08:51:14.000Z</time>
      </trkpt>
      <trkpt lat="43.4600916691124439239501953125" lon="-5.05522663705050945281982421875">
        <ele>22.200000762939453125</ele>
        <time>2018-09-07T08:52:18.000Z</time>
      </trkpt>
      <trkpt lat="43.4600792638957500457763671875" lon="-5.0552634336054325103759765625">
        <ele>22</ele>
        <time>2018-09-07T08:52:19.000Z</time>
      </trkpt>
      <trkpt lat="43.46000072546303272247314453125" lon="-5.0554210133850574493408203125">
        <ele>21.200000762939453125</ele>
        <time>2018-09-07T08:52:23.000Z</time>
      </trkpt>
      <trkpt lat="43.45997407101094722747802734375" lon="-5.0554689578711986541748046875">
        <ele>21</ele>
        <time>2018-09-07T08:52:24.000Z</time>
      </trkpt>
      <trkpt lat="43.45994867384433746337890625" lon="-5.0555241107940673828125">
        <ele>20.799999237060546875</ele>
        <time>2018-09-07T08:52:25.000Z</time>
      </trkpt>
      <trkpt lat="43.45985337160527706146240234375" lon="-5.0557448901236057281494140625">
        <ele>20</ele>
        <time>2018-09-07T08:52:29.000Z</time>
      </trkpt>
      <trkpt lat="43.45983199775218963623046875" lon="-5.05580415017902851104736328125">
        <ele>19.799999237060546875</ele>
        <time>2018-09-07T08:52:30.000Z</time>
      </trkpt>
      <trkpt lat="43.4597875736653804779052734375" lon="-5.05593423731625080108642578125">
        <ele>18.799999237060546875</ele>
        <time>2018-09-07T08:52:32.000Z</time>
      </trkpt>
      <trkpt lat="43.45977273769676685333251953125" lon="-5.0560043938457965850830078125">
        <ele>18.6000003814697265625</ele>
        <time>2018-09-07T08:52:33.000Z</time>
      </trkpt>
      <trkpt lat="43.45973887480795383453369140625" lon="-5.0562404282391071319580078125">
        <ele>18</ele>
        <time>2018-09-07T08:52:36.000Z</time>
      </trkpt>
      <trkpt lat="43.45972998999059200286865234375" lon="-5.05632466636598110198974609375">
        <ele>17.6000003814697265625</ele>
        <time>2018-09-07T08:52:37.000Z</time>
      </trkpt>
      <trkpt lat="43.45970191061496734619140625" lon="-5.056745521724224090576171875">
        <ele>16.3999996185302734375</ele>
        <time>2018-09-07T08:52:42.000Z</time>
      </trkpt>
      <trkpt lat="43.4596947021782398223876953125" lon="-5.05683361552655696868896484375">
        <ele>16</ele>
        <time>2018-09-07T08:52:43.000Z</time>
      </trkpt>
      <trkpt lat="43.45968254841864109039306640625" lon="-5.0571114756166934967041015625">
        <ele>15.19999980926513671875</ele>
        <time>2018-09-07T08:52:46.000Z</time>
      </trkpt>
      <trkpt lat="43.459666706621646881103515625" lon="-5.05748002789914608001708984375">
        <ele>14.3999996185302734375</ele>
        <time>2018-09-07T08:52:50.000Z</time>
      </trkpt>
      <trkpt lat="43.45966796390712261199951171875" lon="-5.05757206119596958160400390625">
        <ele>14.19999980926513671875</ele>
        <time>2018-09-07T08:52:51.000Z</time>
      </trkpt>
      <trkpt lat="43.4596571512520313262939453125" lon="-5.0579466484487056732177734375">
        <ele>13</ele>
        <time>2018-09-07T08:52:55.000Z</time>
      </trkpt>
      <trkpt lat="43.45965790562331676483154296875" lon="-5.05813666619360446929931640625">
        <ele>12.80000019073486328125</ele>
        <time>2018-09-07T08:52:57.000Z</time>
      </trkpt>
      <trkpt lat="43.45967601053416728973388671875" lon="-5.058433972299098968505859375">
        <ele>11.80000019073486328125</ele>
        <time>2018-09-07T08:53:00.000Z</time>
      </trkpt>
      <trkpt lat="43.45973141491413116455078125" lon="-5.05871183238923549652099609375">
        <ele>11</ele>
        <time>2018-09-07T08:53:03.000Z</time>
      </trkpt>
      <trkpt lat="43.45975312404334545135498046875" lon="-5.05880369804799556732177734375">
        <ele>10.6000003814697265625</ele>
        <time>2018-09-07T08:53:04.000Z</time>
      </trkpt>
      <trkpt lat="43.45982235856354236602783203125" lon="-5.05907292477786540985107421875">
        <ele>9.6000003814697265625</ele>
        <time>2018-09-07T08:53:07.000Z</time>
      </trkpt>
      <trkpt lat="43.45986058004200458526611328125" lon="-5.05915624089539051055908203125">
        <ele>9</ele>
        <time>2018-09-07T08:53:08.000Z</time>
      </trkpt>
      <trkpt lat="43.459894359111785888671875" lon="-5.05924458615481853485107421875">
        <ele>8.3999996185302734375</ele>
        <time>2018-09-07T08:53:09.000Z</time>
      </trkpt>
      <trkpt lat="43.459923528134822845458984375" lon="-5.05933477543294429779052734375">
        <ele>8.19999980926513671875</ele>
        <time>2018-09-07T08:53:10.000Z</time>
      </trkpt>
      <trkpt lat="43.460007347166538238525390625" lon="-5.05951263941824436187744140625">
        <ele>7.400000095367431640625</ele>
        <time>2018-09-07T08:53:12.000Z</time>
      </trkpt>
      <trkpt lat="43.46011455170810222625732421875" lon="-5.05977080203592777252197265625">
        <ele>6</ele>
        <time>2018-09-07T08:53:15.000Z</time>
      </trkpt>
      <trkpt lat="43.460141457617282867431640625" lon="-5.0598573870956897735595703125">
        <ele>5.599999904632568359375</ele>
        <time>2018-09-07T08:53:16.000Z</time>
      </trkpt>
      <trkpt lat="43.46017532050609588623046875" lon="-5.06004639901220798492431640625">
        <ele>4.599999904632568359375</ele>
        <time>2018-09-07T08:53:18.000Z</time>
      </trkpt>
      <trkpt lat="43.4601902402937412261962890625" lon="-5.06014916114509105682373046875">
        <ele>3.7999999523162841796875</ele>
        <time>2018-09-07T08:53:19.000Z</time>
      </trkpt>
      <trkpt lat="43.46018948592245578765869140625" lon="-5.0602479837834835052490234375">
        <ele>3.400000095367431640625</ele>
        <time>2018-09-07T08:53:20.000Z</time>
      </trkpt>
      <trkpt lat="43.46013802103698253631591796875" lon="-5.06043188273906707763671875">
        <ele>2.7999999523162841796875</ele>
        <time>2018-09-07T08:53:22.000Z</time>
      </trkpt>
      <trkpt lat="43.46004129387438297271728515625" lon="-5.0605706870555877685546875">
        <ele>2.2000000476837158203125</ele>
        <time>2018-09-07T08:53:24.000Z</time>
      </trkpt>
      <trkpt lat="43.459982536733150482177734375" lon="-5.06063195876777172088623046875">
        <ele>2</ele>
        <time>2018-09-07T08:53:25.000Z</time>
      </trkpt>
      <trkpt lat="43.45986594446003437042236328125" lon="-5.06073740310966968536376953125">
        <ele>1.2000000476837158203125</ele>
        <time>2018-09-07T08:53:27.000Z</time>
      </trkpt>
      <trkpt lat="43.45980727113783359527587890625" lon="-5.06080261431634426116943359375">
        <ele>0.60000002384185791015625</ele>
        <time>2018-09-07T08:53:28.000Z</time>
      </trkpt>
      <trkpt lat="43.45967383123934268951416015625" lon="-5.06092130206525325775146484375">
        <ele>-0.20000000298023223876953125</ele>
        <time>2018-09-07T08:53:30.000Z</time>
      </trkpt>
      <trkpt lat="43.4596014954149723052978515625" lon="-5.06096807308495044708251953125">
        <ele>-0.60000002384185791015625</ele>
        <time>2018-09-07T08:53:31.000Z</time>
      </trkpt>
      <trkpt lat="43.459381721913814544677734375" lon="-5.0610663928091526031494140625">
        <ele>-2</ele>
        <time>2018-09-07T08:53:34.000Z</time>
      </trkpt>
      <trkpt lat="43.4593054465949535369873046875" lon="-5.061089359223842620849609375">
        <ele>-2.400000095367431640625</ele>
        <time>2018-09-07T08:53:35.000Z</time>
      </trkpt>
      <trkpt lat="43.45915549434721469879150390625" lon="-5.06113805808126926422119140625">
        <ele>-3.2000000476837158203125</ele>
        <time>2018-09-07T08:53:37.000Z</time>
      </trkpt>
      <trkpt lat="43.45891593955457210540771484375" lon="-5.0611652992665767669677734375">
        <ele>-4.19999980926513671875</ele>
        <time>2018-09-07T08:53:41.000Z</time>
      </trkpt>
      <trkpt lat="43.4588561765849590301513671875" lon="-5.06121818907558917999267578125">
        <ele>-4.400000095367431640625</ele>
        <time>2018-09-07T08:53:44.000Z</time>
      </trkpt>
      <trkpt lat="43.45894552767276763916015625" lon="-5.061256326735019683837890625">
        <ele>-4.599999904632568359375</ele>
        <time>2018-09-07T08:53:47.000Z</time>
      </trkpt>
      <trkpt lat="43.45898039638996124267578125" lon="-5.06124987266957759857177734375">
        <ele>-4.80000019073486328125</ele>
        <time>2018-09-07T08:53:48.000Z</time>
      </trkpt>
      <trkpt lat="43.45923378132283687591552734375" lon="-5.06119153462350368499755859375">
        <ele>-5</ele>
        <time>2018-09-07T08:53:54.000Z</time>
      </trkpt>
      <trkpt lat="43.45937677659094333648681640625" lon="-5.06113118492066860198974609375">
        <ele>-5.19999980926513671875</ele>
        <time>2018-09-07T08:53:57.000Z</time>
      </trkpt>
      <trkpt lat="43.45947802998125553131103515625" lon="-5.0611005909740924835205078125">
        <ele>-5.19999980926513671875</ele>
        <time>2018-09-07T08:53:59.000Z</time>
      </trkpt>
      <trkpt lat="43.4595760144293308258056640625" lon="-5.06106966175138950347900390625">
        <ele>-5.19999980926513671875</ele>
        <time>2018-09-07T08:54:01.000Z</time>
      </trkpt>
      <trkpt lat="43.4596665389835834503173828125" lon="-5.06103328429162502288818359375">
        <ele>-5.400000095367431640625</ele>
        <time>2018-09-07T08:54:03.000Z</time>
      </trkpt>
      <trkpt lat="43.459711968898773193359375" lon="-5.0610087253153324127197265625">
        <ele>-5.400000095367431640625</ele>
        <time>2018-09-07T08:54:04.000Z</time>
      </trkpt>
      <trkpt lat="43.45975329168140888214111328125" lon="-5.06098232232034206390380859375">
        <ele>-5.400000095367431640625</ele>
        <time>2018-09-07T08:54:05.000Z</time>
      </trkpt>
      <trkpt lat="43.45979285426437854766845703125" lon="-5.0609567575156688690185546875">
        <ele>-5.400000095367431640625</ele>
        <time>2018-09-07T08:54:06.000Z</time>
      </trkpt>
      <trkpt lat="43.45988103188574314117431640625" lon="-5.06090126931667327880859375">
        <ele>-5.400000095367431640625</ele>
        <time>2018-09-07T08:54:08.000Z</time>
      </trkpt>
      <trkpt lat="43.46006627194583415985107421875" lon="-5.06078668870031833648681640625">
        <ele>-5.599999904632568359375</ele>
        <time>2018-09-07T08:54:12.000Z</time>
      </trkpt>
      <trkpt lat="43.46026475541293621063232421875" lon="-5.06068727932870388031005859375">
        <ele>-6.400000095367431640625</ele>
        <time>2018-09-07T08:54:16.000Z</time>
      </trkpt>
      <trkpt lat="43.4603826887905597686767578125" lon="-5.060638748109340667724609375">
        <ele>-6.400000095367431640625</ele>
        <time>2018-09-07T08:54:18.000Z</time>
      </trkpt>
      <trkpt lat="43.4604919888079166412353515625" lon="-5.06060597486793994903564453125">
        <ele>-6</ele>
        <time>2018-09-07T08:54:20.000Z</time>
      </trkpt>
      <trkpt lat="43.46068988554179668426513671875" lon="-5.0605438649654388427734375">
        <ele>-6.19999980926513671875</ele>
        <time>2018-09-07T08:54:24.000Z</time>
      </trkpt>
      <trkpt lat="43.4607327170670032501220703125" lon="-5.06053707562386989593505859375">
        <ele>-6.19999980926513671875</ele>
        <time>2018-09-07T08:54:25.000Z</time>
      </trkpt>
      <trkpt lat="43.46090354025363922119140625" lon="-5.0604830123484134674072265625">
        <ele>-6.400000095367431640625</ele>
        <time>2018-09-07T08:54:29.000Z</time>
      </trkpt>
      <trkpt lat="43.46102667041122913360595703125" lon="-5.06045074202120304107666015625">
        <ele>-6</ele>
        <time>2018-09-07T08:54:32.000Z</time>
      </trkpt>
      <trkpt lat="43.46134602092206478118896484375" lon="-5.06035284139215946197509765625">
        <ele>-5.599999904632568359375</ele>
        <time>2018-09-07T08:54:40.000Z</time>
      </trkpt>
      <trkpt lat="43.4614602662622928619384765625" lon="-5.060312859714031219482421875">
        <ele>-5.80000019073486328125</ele>
        <time>2018-09-07T08:54:43.000Z</time>
      </trkpt>
      <trkpt lat="43.46162815578281879425048828125" lon="-5.06025996990501880645751953125">
        <ele>-6</ele>
        <time>2018-09-07T08:54:47.000Z</time>
      </trkpt>
      <trkpt lat="43.46179160289466381072998046875" lon="-5.06019609980285167694091796875">
        <ele>-5.599999904632568359375</ele>
        <time>2018-09-07T08:54:51.000Z</time>
      </trkpt>
      <trkpt lat="43.46186905167996883392333984375" lon="-5.06017397157847881317138671875">
        <ele>-5.599999904632568359375</ele>
        <time>2018-09-07T08:54:53.000Z</time>
      </trkpt>
      <trkpt lat="43.462063930928707122802734375" lon="-5.06010440178215503692626953125">
        <ele>-5.599999904632568359375</ele>
        <time>2018-09-07T08:54:59.000Z</time>
      </trkpt>
      <trkpt lat="43.46202646382153034210205078125" lon="-5.060041286051273345947265625">
        <ele>-5.80000019073486328125</ele>
        <time>2018-09-07T08:55:02.000Z</time>
      </trkpt>
      <trkpt lat="43.4619073569774627685546875" lon="-5.05994581617414951324462890625">
        <ele>-6</ele>
        <time>2018-09-07T08:55:07.000Z</time>
      </trkpt>
      <trkpt lat="43.4618458338081836700439453125" lon="-5.059877671301364898681640625">
        <ele>-6</ele>
        <time>2018-09-07T08:55:12.000Z</time>
      </trkpt>
      <trkpt lat="43.46180451102554798126220703125" lon="-5.059860236942768096923828125">
        <ele>-6.19999980926513671875</ele>
        <time>2018-09-07T08:55:14.000Z</time>
      </trkpt>
      <trkpt lat="43.46174214966595172882080078125" lon="-5.0598178245127201080322265625">
        <ele>-6</ele>
        <time>2018-09-07T08:55:17.000Z</time>
      </trkpt>
      <trkpt lat="43.46161290071904659271240234375" lon="-5.059768371284008026123046875">
        <ele>-6</ele>
        <time>2018-09-07T08:55:24.000Z</time>
      </trkpt>
      <trkpt lat="43.4615973941981792449951171875" lon="-5.05977482534945011138916015625">
        <ele>-5.80000019073486328125</ele>
        <time>2018-09-07T08:55:27.000Z</time>
      </trkpt>
      <trkpt lat="43.461599908769130706787109375" lon="-5.05975269712507724761962890625">
        <ele>-6</ele>
        <time>2018-09-07T08:55:28.000Z</time>
      </trkpt>
      <trkpt lat="43.4616071172058582305908203125" lon="-5.0597252883017063140869140625">
        <ele>-6</ele>
        <time>2018-09-07T08:55:29.000Z</time>
      </trkpt>
      <trkpt lat="43.46166168339550495147705078125" lon="-5.05962562747299671173095703125">
        <ele>-6.19999980926513671875</ele>
        <time>2018-09-07T08:55:33.000Z</time>
      </trkpt>
      <trkpt lat="43.4616798721253871917724609375" lon="-5.05959511734545230865478515625">
        <ele>-6.19999980926513671875</ele>
        <time>2018-09-07T08:55:34.000Z</time>
      </trkpt>
      <trkpt lat="43.46182177774608135223388671875" lon="-5.05941054783761501312255859375">
        <ele>-6</ele>
        <time>2018-09-07T08:55:41.000Z</time>
      </trkpt>
      <trkpt lat="43.4619380347430706024169921875" lon="-5.05929487757384777069091796875">
        <ele>-5.80000019073486328125</ele>
        <time>2018-09-07T08:55:48.000Z</time>
      </trkpt>
      <trkpt lat="43.46198178827762603759765625" lon="-5.05930644460022449493408203125">
        <ele>-5.80000019073486328125</ele>
        <time>2018-09-07T08:55:51.000Z</time>
      </trkpt>
      <trkpt lat="43.46200047992169857025146484375" lon="-5.05969050340354442596435546875">
        <ele>-5.599999904632568359375</ele>
        <time>2018-09-07T08:56:29.000Z</time>
      </trkpt>
      <trkpt lat="43.4620084427297115325927734375" lon="-5.05971246398985385894775390625">
        <ele>-5.599999904632568359375</ele>
        <time>2018-09-07T08:56:30.000Z</time>
      </trkpt>
      <trkpt lat="43.46208564005792140960693359375" lon="-5.06003818474709987640380859375">
        <ele>-5.599999904632568359375</ele>
        <time>2018-09-07T08:56:42.000Z</time>
      </trkpt>
      <trkpt lat="43.46210357733070850372314453125" lon="-5.060193501412868499755859375">
        <ele>-5.599999904632568359375</ele>
        <time>2018-09-07T08:56:47.000Z</time>
      </trkpt>
      <trkpt lat="43.462107516825199127197265625" lon="-5.060294754803180694580078125">
        <ele>-5.80000019073486328125</ele>
        <time>2018-09-07T08:56:50.000Z</time>
      </trkpt>
      <trkpt lat="43.46209854818880558013916015625" lon="-5.060399360954761505126953125">
        <ele>-5.599999904632568359375</ele>
        <time>2018-09-07T08:56:53.000Z</time>
      </trkpt>
      <trkpt lat="43.46210290677845478057861328125" lon="-5.06048376671969890594482421875">
        <ele>-5.80000019073486328125</ele>
        <time>2018-09-07T08:57:02.000Z</time>
      </trkpt>
      <trkpt lat="43.4621070139110088348388671875" lon="-5.0604615546762943267822265625">
        <ele>-5.80000019073486328125</ele>
        <time>2018-09-07T08:57:03.000Z</time>
      </trkpt>
      <trkpt lat="43.46201959066092967987060546875" lon="-5.06032836623489856719970703125">
        <ele>-5.80000019073486328125</ele>
        <time>2018-09-07T08:57:44.000Z</time>
      </trkpt>
      <trkpt lat="43.4620225243270397186279296875" lon="-5.06033926270902156829833984375">
        <ele>-5.80000019073486328125</ele>
        <time>2018-09-07T08:57:45.000Z</time>
      </trkpt>
      <trkpt lat="43.46202336251735687255859375" lon="-5.06041201762855052947998046875">
        <ele>-5.80000019073486328125</ele>
        <time>2018-09-07T08:57:49.000Z</time>
      </trkpt>
      <trkpt lat="43.46203677356243133544921875" lon="-5.0605081580579280853271484375">
        <ele>-5.80000019073486328125</ele>
        <time>2018-09-07T08:57:54.000Z</time>
      </trkpt>
      <trkpt lat="43.46216845326125621795654296875" lon="-5.06058745086193084716796875">
        <ele>-5.80000019073486328125</ele>
        <time>2018-09-07T08:58:04.000Z</time>
      </trkpt>
      <trkpt lat="43.46219426952302455902099609375" lon="-5.0605939887464046478271484375">
        <ele>-5.80000019073486328125</ele>
        <time>2018-09-07T08:58:06.000Z</time>
      </trkpt>
      <trkpt lat="43.46227842383086681365966796875" lon="-5.06057403981685638427734375">
        <ele>-5.80000019073486328125</ele>
        <time>2018-09-07T08:58:13.000Z</time>
      </trkpt>
      <trkpt lat="43.462325446307659149169921875" lon="-5.06059876643121242523193359375">
        <ele>-5.80000019073486328125</ele>
        <time>2018-09-07T08:58:16.000Z</time>
      </trkpt>
      <trkpt lat="43.46243508160114288330078125" lon="-5.060794316232204437255859375">
        <ele>-5.80000019073486328125</ele>
        <time>2018-09-07T08:58:26.000Z</time>
      </trkpt>
      <trkpt lat="43.4626230038702487945556640625" lon="-5.06103093735873699188232421875">
        <ele>-5.80000019073486328125</ele>
        <time>2018-09-07T08:58:37.000Z</time>
      </trkpt>
      <trkpt lat="43.4627463854849338531494140625" lon="-5.06115431897342205047607421875">
        <ele>-5.80000019073486328125</ele>
        <time>2018-09-07T08:58:42.000Z</time>
      </trkpt>
      <trkpt lat="43.462801873683929443359375" lon="-5.06121776998043060302734375">
        <ele>-5.80000019073486328125</ele>
        <time>2018-09-07T08:58:44.000Z</time>
      </trkpt>
      <trkpt lat="43.46285291947424411773681640625" lon="-5.06128625012934207916259765625">
        <ele>-5.80000019073486328125</ele>
        <time>2018-09-07T08:58:46.000Z</time>
      </trkpt>
      <trkpt lat="43.46287286840379238128662109375" lon="-5.061322040855884552001953125">
        <ele>-5.80000019073486328125</ele>
        <time>2018-09-07T08:58:47.000Z</time>
      </trkpt>
      <trkpt lat="43.4629891254007816314697265625" lon="-5.061812214553356170654296875">
        <ele>-5.80000019073486328125</ele>
        <time>2018-09-07T08:58:58.000Z</time>
      </trkpt>
      <trkpt lat="43.46299105323851108551025390625" lon="-5.0618613325059413909912109375">
        <ele>-5.80000019073486328125</ele>
        <time>2018-09-07T08:58:59.000Z</time>
      </trkpt>
      <trkpt lat="43.462981916964054107666015625" lon="-5.0619582273066043853759765625">
        <ele>-5.80000019073486328125</ele>
        <time>2018-09-07T08:59:01.000Z</time>
      </trkpt>
      <trkpt lat="43.46294470131397247314453125" lon="-5.06211723200976848602294921875">
        <ele>-5.80000019073486328125</ele>
        <time>2018-09-07T08:59:05.000Z</time>
      </trkpt>
      <trkpt lat="43.462951071560382843017578125" lon="-5.06230331026017665863037109375">
        <ele>-6</ele>
        <time>2018-09-07T08:59:14.000Z</time>
      </trkpt>
      <trkpt lat="43.4629545919597148895263671875" lon="-5.0623173080384731292724609375">
        <ele>-5.80000019073486328125</ele>
        <time>2018-09-07T08:59:15.000Z</time>
      </trkpt>
      <trkpt lat="43.46295752562582492828369140625" lon="-5.06235561333596706390380859375">
        <ele>-5.80000019073486328125</ele>
        <time>2018-09-07T08:59:17.000Z</time>
      </trkpt>
      <trkpt lat="43.46298183314502239227294921875" lon="-5.062370784580707550048828125">
        <ele>-5.80000019073486328125</ele>
        <time>2018-09-07T08:59:19.000Z</time>
      </trkpt>
      <trkpt lat="43.4630065597593784332275390625" lon="-5.0623706169426441192626953125">
        <ele>-5.80000019073486328125</ele>
        <time>2018-09-07T08:59:20.000Z</time>
      </trkpt>
      <trkpt lat="43.46303455531597137451171875" lon="-5.06245284341275691986083984375">
        <ele>-5.80000019073486328125</ele>
        <time>2018-09-07T08:59:24.000Z</time>
      </trkpt>
      <trkpt lat="43.46300932578742504119873046875" lon="-5.06264713592827320098876953125">
        <ele>-5.80000019073486328125</ele>
        <time>2018-09-07T08:59:32.000Z</time>
      </trkpt>
      <trkpt lat="43.46301150508224964141845703125" lon="-5.062701366841793060302734375">
        <ele>-5.80000019073486328125</ele>
        <time>2018-09-07T08:59:34.000Z</time>
      </trkpt>
      <trkpt lat="43.46306296996772289276123046875" lon="-5.0627414323389530181884765625">
        <ele>-5.80000019073486328125</ele>
        <time>2018-09-07T08:59:40.000Z</time>
      </trkpt>
      <trkpt lat="43.46296372823417186737060546875" lon="-5.06282617338001728057861328125">
        <ele>-6</ele>
        <time>2018-09-07T08:59:47.000Z</time>
      </trkpt>
      <trkpt lat="43.46284822560846805572509765625" lon="-5.06295047700405120849609375">
        <ele>-6</ele>
        <time>2018-09-07T08:59:55.000Z</time>
      </trkpt>
      <trkpt lat="43.4628063999116420745849609375" lon="-5.063049383461475372314453125">
        <ele>-5.80000019073486328125</ele>
        <time>2018-09-07T08:59:58.000Z</time>
      </trkpt>
      <trkpt lat="43.46275736577808856964111328125" lon="-5.06315843202173709869384765625">
        <ele>-5.80000019073486328125</ele>
        <time>2018-09-07T09:00:02.000Z</time>
      </trkpt>
      <trkpt lat="43.4627115167677402496337890625" lon="-5.06330628879368305206298828125">
        <ele>-5.80000019073486328125</ele>
        <time>2018-09-07T09:00:09.000Z</time>
      </trkpt>
      <trkpt lat="43.4627071581780910491943359375" lon="-5.063453055918216705322265625">
        <ele>-6</ele>
        <time>2018-09-07T09:00:17.000Z</time>
      </trkpt>
      <trkpt lat="43.4627162106335163116455078125" lon="-5.06353318691253662109375">
        <ele>-6</ele>
        <time>2018-09-07T09:00:21.000Z</time>
      </trkpt>
      <trkpt lat="43.4627242572605609893798828125" lon="-5.06357803009450435638427734375">
        <ele>-6</ele>
        <time>2018-09-07T09:00:23.000Z</time>
      </trkpt>
      <trkpt lat="43.4627453796565532684326171875" lon="-5.06365589797496795654296875">
        <ele>-5.80000019073486328125</ele>
        <time>2018-09-07T09:00:26.000Z</time>
      </trkpt>
      <trkpt lat="43.46278569661080837249755859375" lon="-5.06378690712153911590576171875">
        <ele>-6</ele>
        <time>2018-09-07T09:00:31.000Z</time>
      </trkpt>
      <trkpt lat="43.46283129416406154632568359375" lon="-5.0639122165739536285400390625">
        <ele>-6</ele>
        <time>2018-09-07T09:00:36.000Z</time>
      </trkpt>
      <trkpt lat="43.461884893476963043212890625" lon="-5.05936260335147380828857421875">
        <ele>-6.400000095367431640625</ele>
        <time>2018-09-07T10:32:33.000Z</time>
      </trkpt>
      <trkpt lat="43.4618625976145267486572265625" lon="-5.0593843124806880950927734375">
        <ele>-6.400000095367431640625</ele>
        <time>2018-09-07T10:32:35.000Z</time>
      </trkpt>
      <trkpt lat="43.46185061149299144744873046875" lon="-5.05939831025898456573486328125">
        <ele>-6.400000095367431640625</ele>
        <time>2018-09-07T10:32:36.000Z</time>
      </trkpt>
      <trkpt lat="43.46176746301352977752685546875" lon="-5.0594885833561420440673828125">
        <ele>-6.599999904632568359375</ele>
        <time>2018-09-07T10:32:41.000Z</time>
      </trkpt>
      <trkpt lat="43.4617459215223789215087890625" lon="-5.05952739156782627105712890625">
        <ele>-6.599999904632568359375</ele>
        <time>2018-09-07T10:32:42.000Z</time>
      </trkpt>
      <trkpt lat="43.4616000764071941375732421875" lon="-5.05975755862891674041748046875">
        <ele>-6.400000095367431640625</ele>
        <time>2018-09-07T10:32:49.000Z</time>
      </trkpt>
      <trkpt lat="43.46157836727797985076904296875" lon="-5.0598107837140560150146484375">
        <ele>-6.599999904632568359375</ele>
        <time>2018-09-07T10:32:51.000Z</time>
      </trkpt>
      <trkpt lat="43.46154718659818172454833984375" lon="-5.0598751567304134368896484375">
        <ele>-6.400000095367431640625</ele>
        <time>2018-09-07T10:32:54.000Z</time>
      </trkpt>
      <trkpt lat="43.4615269862115383148193359375" lon="-5.0598835386335849761962890625">
        <ele>-6.599999904632568359375</ele>
        <time>2018-09-07T10:32:55.000Z</time>
      </trkpt>
      <trkpt lat="43.46148767508566379547119140625" lon="-5.0599184073507785797119140625">
        <ele>-6.599999904632568359375</ele>
        <time>2018-09-07T10:32:58.000Z</time>
      </trkpt>
      <trkpt lat="43.4613989107310771942138671875" lon="-5.0600541941821575164794921875">
        <ele>-6.400000095367431640625</ele>
        <time>2018-09-07T10:33:05.000Z</time>
      </trkpt>
      <trkpt lat="43.46136949025094509124755859375" lon="-5.06018377840518951416015625">
        <ele>-6.400000095367431640625</ele>
        <time>2018-09-07T10:33:10.000Z</time>
      </trkpt>
      <trkpt lat="43.4613771177828311920166015625" lon="-5.06019760854542255401611328125">
        <ele>-6.400000095367431640625</ele>
        <time>2018-09-07T10:33:11.000Z</time>
      </trkpt>
      <trkpt lat="43.46142112277448177337646484375" lon="-5.06026097573339939117431640625">
        <ele>-6.19999980926513671875</ele>
        <time>2018-09-07T10:33:42.000Z</time>
      </trkpt>
      <trkpt lat="43.46144677139818668365478515625" lon="-5.06026022136211395263671875">
        <ele>-6.19999980926513671875</ele>
        <time>2018-09-07T10:33:43.000Z</time>
      </trkpt>
      <trkpt lat="43.46153478138148784637451171875" lon="-5.06026064045727252960205078125">
        <ele>-6.400000095367431640625</ele>
        <time>2018-09-07T10:33:46.000Z</time>
      </trkpt>
      <trkpt lat="43.46165263094007968902587890625" lon="-5.06027874536812305450439453125">
        <ele>-6.19999980926513671875</ele>
        <time>2018-09-07T10:33:50.000Z</time>
      </trkpt>
      <trkpt lat="43.46176318824291229248046875" lon="-5.06034848280251026153564453125">
        <ele>-6</ele>
        <time>2018-09-07T10:33:55.000Z</time>
      </trkpt>
      <trkpt lat="43.46179981715977191925048828125" lon="-5.06053171120584011077880859375">
        <ele>-5.599999904632568359375</ele>
        <time>2018-09-07T10:34:00.000Z</time>
      </trkpt>
      <trkpt lat="43.4617920219898223876953125" lon="-5.06060756742954254150390625">
        <ele>-5.400000095367431640625</ele>
        <time>2018-09-07T10:34:02.000Z</time>
      </trkpt>
      <trkpt lat="43.46175849437713623046875" lon="-5.060672275722026824951171875">
        <ele>-5.19999980926513671875</ele>
        <time>2018-09-07T10:34:04.000Z</time>
      </trkpt>
      <trkpt lat="43.46173502504825592041015625" lon="-5.060695074498653411865234375">
        <ele>-5.19999980926513671875</ele>
        <time>2018-09-07T10:34:05.000Z</time>
      </trkpt>
      <trkpt lat="43.46161172725260257720947265625" lon="-5.06082943640649318695068359375">
        <ele>-5</ele>
        <time>2018-09-07T10:34:11.000Z</time>
      </trkpt>
      <trkpt lat="43.4615900181233882904052734375" lon="-5.06091065704822540283203125">
        <ele>-4.599999904632568359375</ele>
        <time>2018-09-07T10:34:15.000Z</time>
      </trkpt>
      <trkpt lat="43.46159278415143489837646484375" lon="-5.06094016134738922119140625">
        <ele>-4.400000095367431640625</ele>
        <time>2018-09-07T10:34:27.000Z</time>
      </trkpt>
      <trkpt lat="43.4615989029407501220703125" lon="-5.0609637983143329620361328125">
        <ele>-4.400000095367431640625</ele>
        <time>2018-09-07T10:34:28.000Z</time>
      </trkpt>
      <trkpt lat="43.46163184382021427154541015625" lon="-5.06107083521783351898193359375">
        <ele>-4.19999980926513671875</ele>
        <time>2018-09-07T10:34:32.000Z</time>
      </trkpt>
      <trkpt lat="43.461662940680980682373046875" lon="-5.061169154942035675048828125">
        <ele>-4.19999980926513671875</ele>
        <time>2018-09-07T10:34:35.000Z</time>
      </trkpt>
      <trkpt lat="43.46170828677713871002197265625" lon="-5.06131240166723728179931640625">
        <ele>-4</ele>
        <time>2018-09-07T10:34:39.000Z</time>
      </trkpt>
      <trkpt lat="43.46178330481052398681640625" lon="-5.0615330971777439117431640625">
        <ele>-4</ele>
        <time>2018-09-07T10:34:45.000Z</time>
      </trkpt>
      <trkpt lat="43.46186754293739795684814453125" lon="-5.06177977658808231353759765625">
        <ele>-4</ele>
        <time>2018-09-07T10:34:52.000Z</time>
      </trkpt>
      <trkpt lat="43.461900651454925537109375" lon="-5.06187667138874530792236328125">
        <ele>-4</ele>
        <time>2018-09-07T10:34:55.000Z</time>
      </trkpt>
      <trkpt lat="43.4619883261620998382568359375" lon="-5.06215226836502552032470703125">
        <ele>-4.19999980926513671875</ele>
        <time>2018-09-07T10:35:03.000Z</time>
      </trkpt>
      <trkpt lat="43.46211045049130916595458984375" lon="-5.062530376017093658447265625">
        <ele>-4</ele>
        <time>2018-09-07T10:35:12.000Z</time>
      </trkpt>
      <trkpt lat="43.46216359175741672515869140625" lon="-5.0627055577933788299560546875">
        <ele>-4.19999980926513671875</ele>
        <time>2018-09-07T10:35:16.000Z</time>
      </trkpt>
      <trkpt lat="43.46222310326993465423583984375" lon="-5.06291451863944530487060546875">
        <ele>-4.19999980926513671875</ele>
        <time>2018-09-07T10:35:21.000Z</time>
      </trkpt>
      <trkpt lat="43.4623175673186779022216796875" lon="-5.06319464184343814849853515625">
        <ele>-4.19999980926513671875</ele>
        <time>2018-09-07T10:35:27.000Z</time>
      </trkpt>
      <trkpt lat="43.46237867139279842376708984375" lon="-5.06335951387882232666015625">
        <ele>-4.400000095367431640625</ele>
        <time>2018-09-07T10:35:30.000Z</time>
      </trkpt>
      <trkpt lat="43.462506830692291259765625" lon="-5.063740722835063934326171875">
        <ele>-4.400000095367431640625</ele>
        <time>2018-09-07T10:35:37.000Z</time>
      </trkpt>
      <trkpt lat="43.4626333974301815032958984375" lon="-5.06412318907678127288818359375">
        <ele>-4.400000095367431640625</ele>
        <time>2018-09-07T10:35:45.000Z</time>
      </trkpt>
      <trkpt lat="43.46279391087591648101806640625" lon="-5.06461369805037975311279296875">
        <ele>-4.19999980926513671875</ele>
        <time>2018-09-07T10:35:56.000Z</time>
      </trkpt>
      <trkpt lat="43.4628416039049625396728515625" lon="-5.06474764086306095123291015625">
        <ele>-4.19999980926513671875</ele>
        <time>2018-09-07T10:35:59.000Z</time>
      </trkpt>
      <trkpt lat="43.4628905542194843292236328125" lon="-5.06490522064268589019775390625">
        <ele>-4</ele>
        <time>2018-09-07T10:36:03.000Z</time>
      </trkpt>
      <trkpt lat="43.46287018619477748870849609375" lon="-5.0650514848530292510986328125">
        <ele>-3.599999904632568359375</ele>
        <time>2018-09-07T10:36:08.000Z</time>
      </trkpt>
      <trkpt lat="43.4628607146441936492919921875" lon="-5.0650749541819095611572265625">
        <ele>-3.7999999523162841796875</ele>
        <time>2018-09-07T10:36:11.000Z</time>
      </trkpt>
      <trkpt lat="43.46283531747758388519287109375" lon="-5.06506900303065776824951171875">
        <ele>-3.7999999523162841796875</ele>
        <time>2018-09-07T10:36:18.000Z</time>
      </trkpt>
      <trkpt lat="43.4627842716872692108154296875" lon="-5.06502541713416576385498046875">
        <ele>-3.7999999523162841796875</ele>
        <time>2018-09-07T10:36:22.000Z</time>
      </trkpt>
      <trkpt lat="43.4627817571163177490234375" lon="-5.0650139339268207550048828125">
        <ele>-3.7999999523162841796875</ele>
        <time>2018-09-07T10:36:23.000Z</time>
      </trkpt>
      <trkpt lat="43.462774716317653656005859375" lon="-5.06499088369309902191162109375">
        <ele>-3.7999999523162841796875</ele>
        <time>2018-09-07T10:36:28.000Z</time>
      </trkpt>
      <trkpt lat="43.46276105381548404693603515625" lon="-5.06496842019259929656982421875">
        <ele>-3.7999999523162841796875</ele>
        <time>2018-09-07T10:36:30.000Z</time>
      </trkpt>
      <trkpt lat="43.46279223449528217315673828125" lon="-5.06491653621196746826171875">
        <ele>-3.7999999523162841796875</ele>
        <time>2018-09-07T10:41:59.000Z</time>
      </trkpt>
      <trkpt lat="43.46279508434236049652099609375" lon="-5.0648949109017848968505859375">
        <ele>-3.7999999523162841796875</ele>
        <time>2018-09-07T10:42:00.000Z</time>
      </trkpt>
      <trkpt lat="43.46279625780880451202392578125" lon="-5.06484503857791423797607421875">
        <ele>-3.7999999523162841796875</ele>
        <time>2018-09-07T10:42:02.000Z</time>
      </trkpt>
      <trkpt lat="43.46279583871364593505859375" lon="-5.0648110918700695037841796875">
        <ele>-3.7999999523162841796875</ele>
        <time>2018-09-07T10:42:03.000Z</time>
      </trkpt>
      <trkpt lat="43.46279055811464786529541015625" lon="-5.06477027200162410736083984375">
        <ele>-3.7999999523162841796875</ele>
        <time>2018-09-07T10:42:04.000Z</time>
      </trkpt>
      <trkpt lat="43.4627815894782543182373046875" lon="-5.06472819484770298004150390625">
        <ele>-3.7999999523162841796875</ele>
        <time>2018-09-07T10:42:05.000Z</time>
      </trkpt>
      <trkpt lat="43.46270598471164703369140625" lon="-5.06446232087910175323486328125">
        <ele>-3.7999999523162841796875</ele>
        <time>2018-09-07T10:42:12.000Z</time>
      </trkpt>
      <trkpt lat="43.46266985870897769927978515625" lon="-5.064344890415668487548828125">
        <ele>-3.7999999523162841796875</ele>
        <time>2018-09-07T10:42:15.000Z</time>
      </trkpt>
      <trkpt lat="43.46263264305889606475830078125" lon="-5.064220838248729705810546875">
        <ele>-4</ele>
        <time>2018-09-07T10:42:18.000Z</time>
      </trkpt>
      <trkpt lat="43.4625606425106525421142578125" lon="-5.06400684826076030731201171875">
        <ele>-4</ele>
        <time>2018-09-07T10:42:23.000Z</time>
      </trkpt>
      <trkpt lat="43.46244421787559986114501953125" lon="-5.0636337697505950927734375">
        <ele>-4.19999980926513671875</ele>
        <time>2018-09-07T10:42:31.000Z</time>
      </trkpt>
      <trkpt lat="43.46241169609129428863525390625" lon="-5.063540227711200714111328125">
        <ele>-5.19999980926513671875</ele>
        <time>2018-09-07T10:42:33.000Z</time>
      </trkpt>
      <trkpt lat="43.4623973630368709564208984375" lon="-5.06349672563374042510986328125">
        <ele>-5.599999904632568359375</ele>
        <time>2018-09-07T10:42:34.000Z</time>
      </trkpt>
      <trkpt lat="43.4623675234615802764892578125" lon="-5.0634079612791538238525390625">
        <ele>-3.7999999523162841796875</ele>
        <time>2018-09-07T10:42:36.000Z</time>
      </trkpt>
      <trkpt lat="43.46231010742485523223876953125" lon="-5.06322615779936313629150390625">
        <ele>-4</ele>
        <time>2018-09-07T10:42:40.000Z</time>
      </trkpt>
      <trkpt lat="43.46225076355040073394775390625" lon="-5.0630383193492889404296875">
        <ele>-4</ele>
        <time>2018-09-07T10:42:44.000Z</time>
      </trkpt>
      <trkpt lat="43.46220633946359157562255859375" lon="-5.0628929771482944488525390625">
        <ele>-4</ele>
        <time>2018-09-07T10:42:47.000Z</time>
      </trkpt>
      <trkpt lat="43.46210592426359653472900390625" lon="-5.06259751506149768829345703125">
        <ele>-4</ele>
        <time>2018-09-07T10:42:53.000Z</time>
      </trkpt>
      <trkpt lat="43.46204406581819057464599609375" lon="-5.062404982745647430419921875">
        <ele>-4</ele>
        <time>2018-09-07T10:42:57.000Z</time>
      </trkpt>
      <trkpt lat="43.46191967837512493133544921875" lon="-5.0620165653526782989501953125">
        <ele>-4</ele>
        <time>2018-09-07T10:43:05.000Z</time>
      </trkpt>
      <trkpt lat="43.46175505779683589935302734375" lon="-5.061525888741016387939453125">
        <ele>-3.7999999523162841796875</ele>
        <time>2018-09-07T10:43:15.000Z</time>
      </trkpt>
      <trkpt lat="43.4617231227457523345947265625" lon="-5.06143276579678058624267578125">
        <ele>-4</ele>
        <time>2018-09-07T10:43:17.000Z</time>
      </trkpt>
      <trkpt lat="43.46162547357380390167236328125" lon="-5.06112313829362392425537109375">
        <ele>-4</ele>
        <time>2018-09-07T10:43:24.000Z</time>
      </trkpt>
      <trkpt lat="43.46158658154308795928955078125" lon="-5.060992129147052764892578125">
        <ele>-4</ele>
        <time>2018-09-07T10:43:27.000Z</time>
      </trkpt>
      <trkpt lat="43.461528830230236053466796875" lon="-5.06087788380682468414306640625">
        <ele>-4.400000095367431640625</ele>
        <time>2018-09-07T10:43:30.000Z</time>
      </trkpt>
      <trkpt lat="43.4615031816065311431884765625" lon="-5.06084100343286991119384765625">
        <ele>-4.599999904632568359375</ele>
        <time>2018-09-07T10:43:31.000Z</time>
      </trkpt>
      <trkpt lat="43.46144107170403003692626953125" lon="-5.0607636384665966033935546875">
        <ele>-4.80000019073486328125</ele>
        <time>2018-09-07T10:43:33.000Z</time>
      </trkpt>
      <trkpt lat="43.46137099899351596832275390625" lon="-5.0606871955096721649169921875">
        <ele>-5.19999980926513671875</ele>
        <time>2018-09-07T10:43:35.000Z</time>
      </trkpt>
      <trkpt lat="43.46133847720921039581298828125" lon="-5.06064134649932384490966796875">
        <ele>-5.400000095367431640625</ele>
        <time>2018-09-07T10:43:36.000Z</time>
      </trkpt>
      <trkpt lat="43.461188189685344696044921875" lon="-5.06046633236110210418701171875">
        <ele>-5.80000019073486328125</ele>
        <time>2018-09-07T10:43:41.000Z</time>
      </trkpt>
      <trkpt lat="43.46099699847400188446044921875" lon="-5.0604836829006671905517578125">
        <ele>-6</ele>
        <time>2018-09-07T10:43:47.000Z</time>
      </trkpt>
      <trkpt lat="43.4609285183250904083251953125" lon="-5.06050522439181804656982421875">
        <ele>-6</ele>
        <time>2018-09-07T10:43:49.000Z</time>
      </trkpt>
      <trkpt lat="43.46079432405531406402587890625" lon="-5.0605255924165248870849609375">
        <ele>-6.19999980926513671875</ele>
        <time>2018-09-07T10:43:53.000Z</time>
      </trkpt>
      <trkpt lat="43.46057924441993236541748046875" lon="-5.0605802424252033233642578125">
        <ele>-6</ele>
        <time>2018-09-07T10:43:59.000Z</time>
      </trkpt>
      <trkpt lat="43.46054303459823131561279296875" lon="-5.06058468483388423919677734375">
        <ele>-6</ele>
        <time>2018-09-07T10:44:00.000Z</time>
      </trkpt>
      <trkpt lat="43.46043557859957218170166015625" lon="-5.060619302093982696533203125">
        <ele>-6</ele>
        <time>2018-09-07T10:44:03.000Z</time>
      </trkpt>
      <trkpt lat="43.4603142924606800079345703125" lon="-5.06066414527595043182373046875">
        <ele>-6</ele>
        <time>2018-09-07T10:44:06.000Z</time>
      </trkpt>
      <trkpt lat="43.46015947870910167694091796875" lon="-5.06074243225157260894775390625">
        <ele>-5.80000019073486328125</ele>
        <time>2018-09-07T10:44:10.000Z</time>
      </trkpt>
      <trkpt lat="43.4600926749408245086669921875" lon="-5.06078920327126979827880859375">
        <ele>-5.80000019073486328125</ele>
        <time>2018-09-07T10:44:12.000Z</time>
      </trkpt>
      <trkpt lat="43.4600038267672061920166015625" lon="-5.0608551688492298126220703125">
        <ele>-5.80000019073486328125</ele>
        <time>2018-09-07T10:44:15.000Z</time>
      </trkpt>
      <trkpt lat="43.4597801975905895233154296875" lon="-5.060993134975433349609375">
        <ele>-5.80000019073486328125</ele>
        <time>2018-09-07T10:44:22.000Z</time>
      </trkpt>
      <trkpt lat="43.45974809490144252777099609375" lon="-5.06101098842918872833251953125">
        <ele>-5.599999904632568359375</ele>
        <time>2018-09-07T10:44:23.000Z</time>
      </trkpt>
      <trkpt lat="43.459463529288768768310546875" lon="-5.0611485354602336883544921875">
        <ele>-5.599999904632568359375</ele>
        <time>2018-09-07T10:44:31.000Z</time>
      </trkpt>
      <trkpt lat="43.45922447741031646728515625" lon="-5.0611847452819347381591796875">
        <ele>-5.599999904632568359375</ele>
        <time>2018-09-07T10:44:37.000Z</time>
      </trkpt>
      <trkpt lat="43.45909380353987216949462890625" lon="-5.06121584214270114898681640625">
        <ele>-5.599999904632568359375</ele>
        <time>2018-09-07T10:44:40.000Z</time>
      </trkpt>
      <trkpt lat="43.45876489765942096710205078125" lon="-5.06130628287792205810546875">
        <ele>-5.599999904632568359375</ele>
        <time>2018-09-07T10:44:48.000Z</time>
      </trkpt>
      <trkpt lat="43.4584853611886501312255859375" lon="-5.06136084906756877899169921875">
        <ele>-5.400000095367431640625</ele>
        <time>2018-09-07T10:44:55.000Z</time>
      </trkpt>
      <trkpt lat="43.45815989188849925994873046875" lon="-5.06137912161648273468017578125">
        <ele>-5.19999980926513671875</ele>
        <time>2018-09-07T10:45:03.000Z</time>
      </trkpt>
      <trkpt lat="43.4578718058764934539794921875" lon="-5.06128842942416667938232421875">
        <ele>-5.400000095367431640625</ele>
        <time>2018-09-07T10:45:10.000Z</time>
      </trkpt>
      <trkpt lat="43.4576139785349369049072265625" lon="-5.0611875951290130615234375">
        <ele>-5.599999904632568359375</ele>
        <time>2018-09-07T10:45:16.000Z</time>
      </trkpt>
      <trkpt lat="43.45752906985580921173095703125" lon="-5.061158426105976104736328125">
        <ele>-5.599999904632568359375</ele>
        <time>2018-09-07T10:45:18.000Z</time>
      </trkpt>
      <trkpt lat="43.45713797025382518768310546875" lon="-5.0610197894275188446044921875">
        <ele>-5.599999904632568359375</ele>
        <time>2018-09-07T10:45:27.000Z</time>
      </trkpt>
      <trkpt lat="43.4569585137069225311279296875" lon="-5.06095734424889087677001953125">
        <ele>-5.599999904632568359375</ele>
        <time>2018-09-07T10:45:31.000Z</time>
      </trkpt>
      <trkpt lat="43.45682314597070217132568359375" lon="-5.060906298458576202392578125">
        <ele>-5.599999904632568359375</ele>
        <time>2018-09-07T10:45:34.000Z</time>
      </trkpt>
      <trkpt lat="43.45664511434733867645263671875" lon="-5.060841254889965057373046875">
        <ele>-5.599999904632568359375</ele>
        <time>2018-09-07T10:45:38.000Z</time>
      </trkpt>
      <trkpt lat="43.45641930587589740753173828125" lon="-5.06075651384890079498291015625">
        <ele>-5.80000019073486328125</ele>
        <time>2018-09-07T10:45:43.000Z</time>
      </trkpt>
      <trkpt lat="43.45623842440545558929443359375" lon="-5.0606855191290378570556640625">
        <ele>-5.80000019073486328125</ele>
        <time>2018-09-07T10:45:47.000Z</time>
      </trkpt>
      <trkpt lat="43.4561458043754100799560546875" lon="-5.06065911613404750823974609375">
        <ele>-5.80000019073486328125</ele>
        <time>2018-09-07T10:45:49.000Z</time>
      </trkpt>
      <trkpt lat="43.45609760843217372894287109375" lon="-5.060651488602161407470703125">
        <ele>-5.80000019073486328125</ele>
        <time>2018-09-07T10:45:50.000Z</time>
      </trkpt>
      <trkpt lat="43.4560485742986202239990234375" lon="-5.06064654327929019927978515625">
        <ele>-5.80000019073486328125</ele>
        <time>2018-09-07T10:45:51.000Z</time>
      </trkpt>
      <trkpt lat="43.45590214245021343231201171875" lon="-5.060642100870609283447265625">
        <ele>-5.80000019073486328125</ele>
        <time>2018-09-07T10:45:54.000Z</time>
      </trkpt>
      <trkpt lat="43.45571086741983890533447265625" lon="-5.0606251694262027740478515625">
        <ele>-5.80000019073486328125</ele>
        <time>2018-09-07T10:45:58.000Z</time>
      </trkpt>
      <trkpt lat="43.45539000816643238067626953125" lon="-5.0606162846088409423828125">
        <ele>-5.599999904632568359375</ele>
        <time>2018-09-07T10:46:05.000Z</time>
      </trkpt>
      <trkpt lat="43.45529814250767230987548828125" lon="-5.06061838008463382720947265625">
        <ele>-5.599999904632568359375</ele>
        <time>2018-09-07T10:46:07.000Z</time>
      </trkpt>
      <trkpt lat="43.45496973954141139984130859375" lon="-5.06062366068363189697265625">
        <ele>-5.400000095367431640625</ele>
        <time>2018-09-07T10:46:14.000Z</time>
      </trkpt>
      <trkpt lat="43.45459925942122936248779296875" lon="-5.06055534817278385162353515625">
        <ele>-5.19999980926513671875</ele>
        <time>2018-09-07T10:46:22.000Z</time>
      </trkpt>
      <trkpt lat="43.454467914998531341552734375" lon="-5.06049047224223613739013671875">
        <ele>-5.400000095367431640625</ele>
        <time>2018-09-07T10:46:25.000Z</time>
      </trkpt>
      <trkpt lat="43.45429591834545135498046875" lon="-5.0603867881000041961669921875">
        <ele>-5.19999980926513671875</ele>
        <time>2018-09-07T10:46:29.000Z</time>
      </trkpt>
      <trkpt lat="43.45393960364162921905517578125" lon="-5.06004874594509601593017578125">
        <ele>-5.19999980926513671875</ele>
        <time>2018-09-07T10:46:38.000Z</time>
      </trkpt>
      <trkpt lat="43.4536738134920597076416015625" lon="-5.0597688741981983184814453125">
        <ele>-5.400000095367431640625</ele>
        <time>2018-09-07T10:46:45.000Z</time>
      </trkpt>
      <trkpt lat="43.45327408052980899810791015625" lon="-5.05936696194112300872802734375">
        <ele>-5.599999904632568359375</ele>
        <time>2018-09-07T10:46:55.000Z</time>
      </trkpt>
      <trkpt lat="43.45291969366371631622314453125" lon="-5.0590242259204387664794921875">
        <ele>-5.400000095367431640625</ele>
        <time>2018-09-07T10:47:04.000Z</time>
      </trkpt>
      <trkpt lat="43.4526341222226619720458984375" lon="-5.05878190509974956512451171875">
        <ele>-5.599999904632568359375</ele>
        <time>2018-09-07T10:47:11.000Z</time>
      </trkpt>
      <trkpt lat="43.45225249417126178741455078125" lon="-5.05848887376487255096435546875">
        <ele>-5.400000095367431640625</ele>
        <time>2018-09-07T10:47:20.000Z</time>
      </trkpt>
      <trkpt lat="43.4520851075649261474609375" lon="-5.0583660788834095001220703125">
        <ele>-5.400000095367431640625</ele>
        <time>2018-09-07T10:47:24.000Z</time>
      </trkpt>
      <trkpt lat="43.45192241482436656951904296875" lon="-5.05825250409543514251708984375">
        <ele>-5.19999980926513671875</ele>
        <time>2018-09-07T10:47:28.000Z</time>
      </trkpt>
      <trkpt lat="43.45171269960701465606689453125" lon="-5.0581084191799163818359375">
        <ele>-5</ele>
        <time>2018-09-07T10:47:33.000Z</time>
      </trkpt>
      <trkpt lat="43.4516333229839801788330078125" lon="-5.05804781801998615264892578125">
        <ele>-5</ele>
        <time>2018-09-07T10:47:35.000Z</time>
      </trkpt>
      <trkpt lat="43.4514187462627887725830078125" lon="-5.057837180793285369873046875">
        <ele>-4.80000019073486328125</ele>
        <time>2018-09-07T10:47:41.000Z</time>
      </trkpt>
      <trkpt lat="43.45135462470352649688720703125" lon="-5.05775411613285541534423828125">
        <ele>-4.599999904632568359375</ele>
        <time>2018-09-07T10:47:43.000Z</time>
      </trkpt>
      <trkpt lat="43.45120810903608798980712890625" lon="-5.0575138069689273834228515625">
        <ele>-4.599999904632568359375</ele>
        <time>2018-09-07T10:47:48.000Z</time>
      </trkpt>
      <trkpt lat="43.4511820413172245025634765625" lon="-5.05746510811150074005126953125">
        <ele>-5</ele>
        <time>2018-09-07T10:47:49.000Z</time>
      </trkpt>
      <trkpt lat="43.45099437050521373748779296875" lon="-5.05709714256227016448974609375">
        <ele>-4.19999980926513671875</ele>
        <time>2018-09-07T10:47:56.000Z</time>
      </trkpt>
      <trkpt lat="43.450969643890857696533203125" lon="-5.05704416893422603607177734375">
        <ele>-4.19999980926513671875</ele>
        <time>2018-09-07T10:47:57.000Z</time>
      </trkpt>
      <trkpt lat="43.4507582522928714752197265625" lon="-5.0565679930150508880615234375">
        <ele>-4</ele>
        <time>2018-09-07T10:48:06.000Z</time>
      </trkpt>
      <trkpt lat="43.45067317597568035125732421875" lon="-5.05628862418234348297119140625">
        <ele>-4</ele>
        <time>2018-09-07T10:48:11.000Z</time>
      </trkpt>
      <trkpt lat="43.45065205357968807220458984375" lon="-5.0562320463359355926513671875">
        <ele>-4</ele>
        <time>2018-09-07T10:48:12.000Z</time>
      </trkpt>
      <trkpt lat="43.4506045281887054443359375" lon="-5.05611889064311981201171875">
        <ele>-4.19999980926513671875</ele>
        <time>2018-09-07T10:48:14.000Z</time>
      </trkpt>
      <trkpt lat="43.4504434280097484588623046875" lon="-5.05581202916800975799560546875">
        <ele>-4</ele>
        <time>2018-09-07T10:48:20.000Z</time>
      </trkpt>
      <trkpt lat="43.450383245944976806640625" lon="-5.0557254441082477569580078125">
        <ele>-4</ele>
        <time>2018-09-07T10:48:22.000Z</time>
      </trkpt>
      <trkpt lat="43.450350724160671234130859375" lon="-5.05568395368754863739013671875">
        <ele>-4</ele>
        <time>2018-09-07T10:48:23.000Z</time>
      </trkpt>
      <trkpt lat="43.450186438858509063720703125" lon="-5.0554833747446537017822265625">
        <ele>-4</ele>
        <time>2018-09-07T10:48:28.000Z</time>
      </trkpt>
      <trkpt lat="43.4500427730381488800048828125" lon="-5.0552768446505069732666015625">
        <ele>-3.7999999523162841796875</ele>
        <time>2018-09-07T10:48:33.000Z</time>
      </trkpt>
      <trkpt lat="43.44998560845851898193359375" lon="-5.0551893375813961029052734375">
        <ele>-3.7999999523162841796875</ele>
        <time>2018-09-07T10:48:35.000Z</time>
      </trkpt>
      <trkpt lat="43.4499602951109409332275390625" lon="-5.05514114163815975189208984375">
        <ele>-3.7999999523162841796875</ele>
        <time>2018-09-07T10:48:36.000Z</time>
      </trkpt>
      <trkpt lat="43.44981604255735874176025390625" lon="-5.0548936240375041961669921875">
        <ele>-3.7999999523162841796875</ele>
        <time>2018-09-07T10:48:41.000Z</time>
      </trkpt>
      <trkpt lat="43.44966650940477848052978515625" lon="-5.0546230562031269073486328125">
        <ele>-4</ele>
        <time>2018-09-07T10:48:46.000Z</time>
      </trkpt>
      <trkpt lat="43.449588306248188018798828125" lon="-5.05447796545922756195068359375">
        <ele>-3.599999904632568359375</ele>
        <time>2018-09-07T10:48:49.000Z</time>
      </trkpt>
      <trkpt lat="43.44953876920044422149658203125" lon="-5.054378807544708251953125">
        <ele>-3.599999904632568359375</ele>
        <time>2018-09-07T10:48:51.000Z</time>
      </trkpt>
      <trkpt lat="43.44943047501146793365478515625" lon="-5.05417319945991039276123046875">
        <ele>-3.599999904632568359375</ele>
        <time>2018-09-07T10:48:55.000Z</time>
      </trkpt>
      <trkpt lat="43.44937565736472606658935546875" lon="-5.05406909622251987457275390625">
        <ele>-3.400000095367431640625</ele>
        <time>2018-09-07T10:48:57.000Z</time>
      </trkpt>
      <trkpt lat="43.44917382113635540008544921875" lon="-5.0536889769136905670166015625">
        <ele>-3.599999904632568359375</ele>
        <time>2018-09-07T10:49:04.000Z</time>
      </trkpt>
      <trkpt lat="43.44902864657342433929443359375" lon="-5.053420923650264739990234375">
        <ele>-3.400000095367431640625</ele>
        <time>2018-09-07T10:49:09.000Z</time>
      </trkpt>
      <trkpt lat="43.44891414977610111236572265625" lon="-5.05320961587131023406982421875">
        <ele>-3.400000095367431640625</ele>
        <time>2018-09-07T10:49:13.000Z</time>
      </trkpt>
      <trkpt lat="43.448747433722019195556640625" lon="-5.05288724787533283233642578125">
        <ele>-3.2000000476837158203125</ele>
        <time>2018-09-07T10:49:19.000Z</time>
      </trkpt>
      <trkpt lat="43.44866101630032062530517578125" lon="-5.052721537649631500244140625">
        <ele>-3.2000000476837158203125</ele>
        <time>2018-09-07T10:49:22.000Z</time>
      </trkpt>
      <trkpt lat="43.44849421642720699310302734375" lon="-5.05229246802628040313720703125">
        <ele>-3.400000095367431640625</ele>
        <time>2018-09-07T10:49:29.000Z</time>
      </trkpt>
      <trkpt lat="43.44843395054340362548828125" lon="-5.0520997680723667144775390625">
        <ele>-3.599999904632568359375</ele>
        <time>2018-09-07T10:49:32.000Z</time>
      </trkpt>
      <trkpt lat="43.44839396886527538299560546875" lon="-5.0519693456590175628662109375">
        <ele>-3.599999904632568359375</ele>
        <time>2018-09-07T10:49:34.000Z</time>
      </trkpt>
      <trkpt lat="43.44832439906895160675048828125" lon="-5.051758624613285064697265625">
        <ele>-4</ele>
        <time>2018-09-07T10:49:37.000Z</time>
      </trkpt>
      <trkpt lat="43.4482299350202083587646484375" lon="-5.051544047892093658447265625">
        <ele>-4</ele>
        <time>2018-09-07T10:49:40.000Z</time>
      </trkpt>
      <trkpt lat="43.448146283626556396484375" lon="-5.05141085945069789886474609375">
        <ele>-4.400000095367431640625</ele>
        <time>2018-09-07T10:49:42.000Z</time>
      </trkpt>
      <trkpt lat="43.4480978362262248992919921875" lon="-5.05135302431881427764892578125">
        <ele>-4.400000095367431640625</ele>
        <time>2018-09-07T10:49:43.000Z</time>
      </trkpt>
      <trkpt lat="43.44793229363858699798583984375" lon="-5.05121774040162563323974609375">
        <ele>-4.599999904632568359375</ele>
        <time>2018-09-07T10:49:46.000Z</time>
      </trkpt>
      <trkpt lat="43.44781192950904369354248046875" lon="-5.0511586479842662811279296875">
        <ele>-4.80000019073486328125</ele>
        <time>2018-09-07T10:49:48.000Z</time>
      </trkpt>
      <trkpt lat="43.4475593827664852142333984375" lon="-5.0511247850954532623291015625">
        <ele>-4.599999904632568359375</ele>
        <time>2018-09-07T10:49:52.000Z</time>
      </trkpt>
      <trkpt lat="43.44750096090137958526611328125" lon="-5.051130987703800201416015625">
        <ele>-4.599999904632568359375</ele>
        <time>2018-09-07T10:49:53.000Z</time>
      </trkpt>
      <trkpt lat="43.4472006373107433319091796875" lon="-5.05123668350279331207275390625">
        <ele>-3.599999904632568359375</ele>
        <time>2018-09-07T10:49:59.000Z</time>
      </trkpt>
      <trkpt lat="43.4467473439872264862060546875" lon="-5.05141220055520534515380859375">
        <ele>-3.7999999523162841796875</ele>
        <time>2018-09-07T10:50:08.000Z</time>
      </trkpt>
      <trkpt lat="43.44653855077922344207763671875" lon="-5.051486380398273468017578125">
        <ele>-3.599999904632568359375</ele>
        <time>2018-09-07T10:50:12.000Z</time>
      </trkpt>
      <trkpt lat="43.4463932923972606658935546875" lon="-5.0515504181385040283203125">
        <ele>-3.400000095367431640625</ele>
        <time>2018-09-07T10:50:15.000Z</time>
      </trkpt>
      <trkpt lat="43.44629849307239055633544921875" lon="-5.05160096101462841033935546875">
        <ele>-3.599999904632568359375</ele>
        <time>2018-09-07T10:50:17.000Z</time>
      </trkpt>
      <trkpt lat="43.445937819778919219970703125" lon="-5.05182391963899135589599609375">
        <ele>-3.400000095367431640625</ele>
        <time>2018-09-07T10:50:25.000Z</time>
      </trkpt>
      <trkpt lat="43.44554345123469829559326171875" lon="-5.0520974211394786834716796875">
        <ele>-3.400000095367431640625</ele>
        <time>2018-09-07T10:50:34.000Z</time>
      </trkpt>
      <trkpt lat="43.44518420286476612091064453125" lon="-5.052335299551486968994140625">
        <ele>-3</ele>
        <time>2018-09-07T10:50:42.000Z</time>
      </trkpt>
      <trkpt lat="43.4450075961649417877197265625" lon="-5.05247469060122966766357421875">
        <ele>-3</ele>
        <time>2018-09-07T10:50:46.000Z</time>
      </trkpt>
      <trkpt lat="43.4448091126978397369384765625" lon="-5.05267065949738025665283203125">
        <ele>-3</ele>
        <time>2018-09-07T10:50:51.000Z</time>
      </trkpt>
      <trkpt lat="43.44473627395927906036376953125" lon="-5.05274794064462184906005859375">
        <ele>-3.2000000476837158203125</ele>
        <time>2018-09-07T10:50:53.000Z</time>
      </trkpt>
      <trkpt lat="43.4444889239966869354248046875" lon="-5.05301155149936676025390625">
        <ele>-3</ele>
        <time>2018-09-07T10:51:00.000Z</time>
      </trkpt>
      <trkpt lat="43.44434492290019989013671875" lon="-5.05316401831805706024169921875">
        <ele>-2.599999904632568359375</ele>
        <time>2018-09-07T10:51:04.000Z</time>
      </trkpt>
      <trkpt lat="43.4441700764000415802001953125" lon="-5.05334171466529369354248046875">
        <ele>-2.400000095367431640625</ele>
        <time>2018-09-07T10:51:09.000Z</time>
      </trkpt>
      <trkpt lat="43.44410327263176441192626953125" lon="-5.0534177385270595550537109375">
        <ele>-2.400000095367431640625</ele>
        <time>2018-09-07T10:51:11.000Z</time>
      </trkpt>
      <trkpt lat="43.44396480359137058258056640625" lon="-5.05356735549867153167724609375">
        <ele>-2.2000000476837158203125</ele>
        <time>2018-09-07T10:51:15.000Z</time>
      </trkpt>
      <trkpt lat="43.44385701231658458709716796875" lon="-5.05368386395275592803955078125">
        <ele>-2.2000000476837158203125</ele>
        <time>2018-09-07T10:51:18.000Z</time>
      </trkpt>
      <trkpt lat="43.443440012633800506591796875" lon="-5.0541248358786106109619140625">
        <ele>-2</ele>
        <time>2018-09-07T10:51:29.000Z</time>
      </trkpt>
      <trkpt lat="43.443403132259845733642578125" lon="-5.0541680864989757537841796875">
        <ele>-1.7999999523162841796875</ele>
        <time>2018-09-07T10:51:30.000Z</time>
      </trkpt>
      <trkpt lat="43.44329710118472576141357421875" lon="-5.0542934797704219818115234375">
        <ele>-1.39999997615814208984375</ele>
        <time>2018-09-07T10:51:33.000Z</time>
      </trkpt>
      <trkpt lat="43.44314220361411571502685546875" lon="-5.05446338094770908355712890625">
        <ele>-0.4000000059604644775390625</ele>
        <time>2018-09-07T10:51:38.000Z</time>
      </trkpt>
      <trkpt lat="43.44306173734366893768310546875" lon="-5.0545549951493740081787109375">
        <ele>0.4000000059604644775390625</ele>
        <time>2018-09-07T10:51:41.000Z</time>
      </trkpt>
      <trkpt lat="43.44301077537238597869873046875" lon="-5.054617859423160552978515625">
        <ele>0.800000011920928955078125</ele>
        <time>2018-09-07T10:51:43.000Z</time>
      </trkpt>
      <trkpt lat="43.44293550588190555572509765625" lon="-5.05470025353133678436279296875">
        <ele>1.39999997615814208984375</ele>
        <time>2018-09-07T10:51:46.000Z</time>
      </trkpt>
      <trkpt lat="43.44285470433533191680908203125" lon="-5.054781138896942138671875">
        <ele>2</ele>
        <time>2018-09-07T10:51:49.000Z</time>
      </trkpt>
      <trkpt lat="43.44276065938174724578857421875" lon="-5.05487392656505107879638671875">
        <ele>2.7999999523162841796875</ele>
        <time>2018-09-07T10:51:53.000Z</time>
      </trkpt>
      <trkpt lat="43.44273417256772518157958984375" lon="-5.0548906065523624420166015625">
        <ele>3</ele>
        <time>2018-09-07T10:51:54.000Z</time>
      </trkpt>
      <trkpt lat="43.442597799003124237060546875" lon="-5.0549690611660480499267578125">
        <ele>3.400000095367431640625</ele>
        <time>2018-09-07T10:51:59.000Z</time>
      </trkpt>
      <trkpt lat="43.44242538325488567352294921875" lon="-5.05502765066921710968017578125">
        <ele>3.7999999523162841796875</ele>
        <time>2018-09-07T10:52:04.000Z</time>
      </trkpt>
      <trkpt lat="43.44238280318677425384521484375" lon="-5.05503267981112003326416015625">
        <ele>3.599999904632568359375</ele>
        <time>2018-09-07T10:52:05.000Z</time>
      </trkpt>
      <trkpt lat="43.4421406500041484832763671875" lon="-5.05503527820110321044921875">
        <ele>2.7999999523162841796875</ele>
        <time>2018-09-07T10:52:10.000Z</time>
      </trkpt>
      <trkpt lat="43.4420870058238506317138671875" lon="-5.0550300814211368560791015625">
        <ele>2.599999904632568359375</ele>
        <time>2018-09-07T10:52:11.000Z</time>
      </trkpt>
      <trkpt lat="43.441984914243221282958984375" lon="-5.05502186715602874755859375">
        <ele>2.2000000476837158203125</ele>
        <time>2018-09-07T10:52:13.000Z</time>
      </trkpt>
      <trkpt lat="43.44187838025391101837158203125" lon="-5.055022872984409332275390625">
        <ele>2</ele>
        <time>2018-09-07T10:52:15.000Z</time>
      </trkpt>
      <trkpt lat="43.44176371581852436065673828125" lon="-5.05502111278474330902099609375">
        <ele>1.2000000476837158203125</ele>
        <time>2018-09-07T10:52:17.000Z</time>
      </trkpt>
      <trkpt lat="43.441703952848911285400390625" lon="-5.05502496846020221710205078125">
        <ele>1</ele>
        <time>2018-09-07T10:52:18.000Z</time>
      </trkpt>
      <trkpt lat="43.4415793977677822113037109375" lon="-5.0550424866378307342529296875">
        <ele>0.4000000059604644775390625</ele>
        <time>2018-09-07T10:52:20.000Z</time>
      </trkpt>
      <trkpt lat="43.4414499811828136444091796875" lon="-5.0550870783627033233642578125">
        <ele>-0.4000000059604644775390625</ele>
        <time>2018-09-07T10:52:22.000Z</time>
      </trkpt>
      <trkpt lat="43.4413856081664562225341796875" lon="-5.0551098771393299102783203125">
        <ele>-1</ele>
        <time>2018-09-07T10:52:23.000Z</time>
      </trkpt>
      <trkpt lat="43.441257365047931671142578125" lon="-5.05515086464583873748779296875">
        <ele>-1.39999997615814208984375</ele>
        <time>2018-09-07T10:52:25.000Z</time>
      </trkpt>
      <trkpt lat="43.440995179116725921630859375" lon="-5.05525731481611728668212890625">
        <ele>-2.400000095367431640625</ele>
        <time>2018-09-07T10:52:29.000Z</time>
      </trkpt>
      <trkpt lat="43.4409272857010364532470703125" lon="-5.05527223460376262664794921875">
        <ele>-2.7999999523162841796875</ele>
        <time>2018-09-07T10:52:30.000Z</time>
      </trkpt>
      <trkpt lat="43.44065286219120025634765625" lon="-5.05535471253097057342529296875">
        <ele>-3.599999904632568359375</ele>
        <time>2018-09-07T10:52:34.000Z</time>
      </trkpt>
      <trkpt lat="43.44059276394546031951904296875" lon="-5.0554012320935726165771484375">
        <ele>-4</ele>
        <time>2018-09-07T10:52:35.000Z</time>
      </trkpt>
      <trkpt lat="43.44047583639621734619140625" lon="-5.055497623980045318603515625">
        <ele>-4</ele>
        <time>2018-09-07T10:52:37.000Z</time>
      </trkpt>
      <trkpt lat="43.44041682779788970947265625" lon="-5.05553609691560268402099609375">
        <ele>-3.7999999523162841796875</ele>
        <time>2018-09-07T10:52:38.000Z</time>
      </trkpt>
      <trkpt lat="43.44024575315415859222412109375" lon="-5.0556493364274501800537109375">
        <ele>-4.19999980926513671875</ele>
        <time>2018-09-07T10:52:41.000Z</time>
      </trkpt>
      <trkpt lat="43.4401390515267848968505859375" lon="-5.05574547685682773590087890625">
        <ele>-4.599999904632568359375</ele>
        <time>2018-09-07T10:52:43.000Z</time>
      </trkpt>
      <trkpt lat="43.4400341100990772247314453125" lon="-5.05585242994129657745361328125">
        <ele>-5</ele>
        <time>2018-09-07T10:52:45.000Z</time>
      </trkpt>
      <trkpt lat="43.43987862579524517059326171875" lon="-5.056024678051471710205078125">
        <ele>-4.80000019073486328125</ele>
        <time>2018-09-07T10:52:48.000Z</time>
      </trkpt>
      <trkpt lat="43.43976999633014202117919921875" lon="-5.05612827837467193603515625">
        <ele>-5</ele>
        <time>2018-09-07T10:52:50.000Z</time>
      </trkpt>
      <trkpt lat="43.43953932635486125946044921875" lon="-5.056283511221408843994140625">
        <ele>-4.80000019073486328125</ele>
        <time>2018-09-07T10:52:54.000Z</time>
      </trkpt>
      <trkpt lat="43.439424745738506317138671875" lon="-5.05634830333292484283447265625">
        <ele>-4.80000019073486328125</ele>
        <time>2018-09-07T10:52:56.000Z</time>
      </trkpt>
      <trkpt lat="43.43926389701664447784423828125" lon="-5.05643899552524089813232421875">
        <ele>-4.80000019073486328125</ele>
        <time>2018-09-07T10:52:59.000Z</time>
      </trkpt>
      <trkpt lat="43.4391622245311737060546875" lon="-5.05650001578032970428466796875">
        <ele>-4.80000019073486328125</ele>
        <time>2018-09-07T10:53:01.000Z</time>
      </trkpt>
      <trkpt lat="43.4390188939869403839111328125" lon="-5.05659104324877262115478515625">
        <ele>-4.80000019073486328125</ele>
        <time>2018-09-07T10:53:04.000Z</time>
      </trkpt>
      <trkpt lat="43.4388606436550617218017578125" lon="-5.05669347010552883148193359375">
        <ele>-5</ele>
        <time>2018-09-07T10:53:07.000Z</time>
      </trkpt>
      <trkpt lat="43.4387520141899585723876953125" lon="-5.05676337517797946929931640625">
        <ele>-5.19999980926513671875</ele>
        <time>2018-09-07T10:53:09.000Z</time>
      </trkpt>
      <trkpt lat="43.4385944344103336334228515625" lon="-5.056867562234401702880859375">
        <ele>-5</ele>
        <time>2018-09-07T10:53:12.000Z</time>
      </trkpt>
      <trkpt lat="43.4380885027348995208740234375" lon="-5.0572150759398937225341796875">
        <ele>-5.19999980926513671875</ele>
        <time>2018-09-07T10:53:22.000Z</time>
      </trkpt>
      <trkpt lat="43.43770469538867473602294921875" lon="-5.05747550167143344879150390625">
        <ele>-4.80000019073486328125</ele>
        <time>2018-09-07T10:53:30.000Z</time>
      </trkpt>
      <trkpt lat="43.43748056329786777496337890625" lon="-5.057640038430690765380859375">
        <ele>-4.599999904632568359375</ele>
        <time>2018-09-07T10:53:35.000Z</time>
      </trkpt>
      <trkpt lat="43.43734427355229854583740234375" lon="-5.057749338448047637939453125">
        <ele>-4.599999904632568359375</ele>
        <time>2018-09-07T10:53:38.000Z</time>
      </trkpt>
      <trkpt lat="43.436982929706573486328125" lon="-5.058022253215312957763671875">
        <ele>-4.599999904632568359375</ele>
        <time>2018-09-07T10:53:46.000Z</time>
      </trkpt>
      <trkpt lat="43.43653994612395763397216796875" lon="-5.05834805779159069061279296875">
        <ele>-4.19999980926513671875</ele>
        <time>2018-09-07T10:53:56.000Z</time>
      </trkpt>
      <trkpt lat="43.43649418093264102935791015625" lon="-5.058383010327816009521484375">
        <ele>-4.19999980926513671875</ele>
        <time>2018-09-07T10:53:57.000Z</time>
      </trkpt>
      <trkpt lat="43.435996212065219879150390625" lon="-5.05874636583030223846435546875">
        <ele>-4.19999980926513671875</ele>
        <time>2018-09-07T10:54:08.000Z</time>
      </trkpt>
      <trkpt lat="43.43572254292666912078857421875" lon="-5.05894702859222888946533203125">
        <ele>-4.19999980926513671875</ele>
        <time>2018-09-07T10:54:14.000Z</time>
      </trkpt>
      <trkpt lat="43.43550276942551136016845703125" lon="-5.05911181680858135223388671875">
        <ele>-4.19999980926513671875</ele>
        <time>2018-09-07T10:54:19.000Z</time>
      </trkpt>
      <trkpt lat="43.43523806892335414886474609375" lon="-5.05931013263761997222900390625">
        <ele>-4.19999980926513671875</ele>
        <time>2018-09-07T10:54:25.000Z</time>
      </trkpt>
      <trkpt lat="43.43510731123387813568115234375" lon="-5.05940149538218975067138671875">
        <ele>-4.19999980926513671875</ele>
        <time>2018-09-07T10:54:28.000Z</time>
      </trkpt>
      <trkpt lat="43.434676565229892730712890625" lon="-5.059713385999202728271484375">
        <ele>-4</ele>
        <time>2018-09-07T10:54:38.000Z</time>
      </trkpt>
      <trkpt lat="43.43463256023824214935302734375" lon="-5.0597417168319225311279296875">
        <ele>-3.7999999523162841796875</ele>
        <time>2018-09-07T10:54:39.000Z</time>
      </trkpt>
      <trkpt lat="43.43450364656746387481689453125" lon="-5.05983349867165088653564453125">
        <ele>-4.80000019073486328125</ele>
        <time>2018-09-07T10:54:42.000Z</time>
      </trkpt>
      <trkpt lat="43.43432695604860782623291015625" lon="-5.05997280590236186981201171875">
        <ele>-4.19999980926513671875</ele>
        <time>2018-09-07T10:54:46.000Z</time>
      </trkpt>
      <trkpt lat="43.4342341683804988861083984375" lon="-5.060035921633243560791015625">
        <ele>-3.599999904632568359375</ele>
        <time>2018-09-07T10:54:48.000Z</time>
      </trkpt>
      <trkpt lat="43.434145152568817138671875" lon="-5.06010473705828189849853515625">
        <ele>-3.7999999523162841796875</ele>
        <time>2018-09-07T10:54:50.000Z</time>
      </trkpt>
      <trkpt lat="43.4339646063745021820068359375" lon="-5.06023901514708995819091796875">
        <ele>-3.599999904632568359375</ele>
        <time>2018-09-07T10:54:54.000Z</time>
      </trkpt>
      <trkpt lat="43.4336055256426334381103515625" lon="-5.0605034641921520233154296875">
        <ele>-3.599999904632568359375</ele>
        <time>2018-09-07T10:55:02.000Z</time>
      </trkpt>
      <trkpt lat="43.43356152065098285675048828125" lon="-5.06053422577679157257080078125">
        <ele>-3.400000095367431640625</ele>
        <time>2018-09-07T10:55:03.000Z</time>
      </trkpt>
      <trkpt lat="43.43311761505901813507080078125" lon="-5.06086313165724277496337890625">
        <ele>-3.2000000476837158203125</ele>
        <time>2018-09-07T10:55:13.000Z</time>
      </trkpt>
      <trkpt lat="43.43271075747907161712646484375" lon="-5.06116420961916446685791015625">
        <ele>-3</ele>
        <time>2018-09-07T10:55:22.000Z</time>
      </trkpt>
      <trkpt lat="43.43262040056288242340087890625" lon="-5.06123059429228305816650390625">
        <ele>-3</ele>
        <time>2018-09-07T10:55:24.000Z</time>
      </trkpt>
      <trkpt lat="43.43215872533619403839111328125" lon="-5.0615683011710643768310546875">
        <ele>-3</ele>
        <time>2018-09-07T10:55:34.000Z</time>
      </trkpt>
      <trkpt lat="43.431763015687465667724609375" lon="-5.0618730671703815460205078125">
        <ele>-3</ele>
        <time>2018-09-07T10:55:43.000Z</time>
      </trkpt>
      <trkpt lat="43.431637287139892578125" lon="-5.061955712735652923583984375">
        <ele>-2.599999904632568359375</ele>
        <time>2018-09-07T10:55:46.000Z</time>
      </trkpt>
      <trkpt lat="43.431443162262439727783203125" lon="-5.06209376268088817596435546875">
        <ele>-2</ele>
        <time>2018-09-07T10:55:51.000Z</time>
      </trkpt>
      <trkpt lat="43.4312847442924976348876953125" lon="-5.06219543516635894775390625">
        <ele>-1.7999999523162841796875</ele>
        <time>2018-09-07T10:55:55.000Z</time>
      </trkpt>
      <trkpt lat="43.4311258234083652496337890625" lon="-5.062272548675537109375">
        <ele>-1.60000002384185791015625</ele>
        <time>2018-09-07T10:55:59.000Z</time>
      </trkpt>
      <trkpt lat="43.43108466826379299163818359375" lon="-5.06228788755834102630615234375">
        <ele>-1.60000002384185791015625</ele>
        <time>2018-09-07T10:56:00.000Z</time>
      </trkpt>
      <trkpt lat="43.43077294528484344482421875" lon="-5.0623344071209430694580078125">
        <ele>-1.39999997615814208984375</ele>
        <time>2018-09-07T10:56:07.000Z</time>
      </trkpt>
      <trkpt lat="43.43063841573894023895263671875" lon="-5.06231487728655338287353515625">
        <ele>-1.39999997615814208984375</ele>
        <time>2018-09-07T10:56:10.000Z</time>
      </trkpt>
      <trkpt lat="43.43046423979103565216064453125" lon="-5.06225234828889369964599609375">
        <ele>-1.2000000476837158203125</ele>
        <time>2018-09-07T10:56:14.000Z</time>
      </trkpt>
      <trkpt lat="43.4302842803299427032470703125" lon="-5.0621557049453258514404296875">
        <ele>-1.2000000476837158203125</ele>
        <time>2018-09-07T10:56:18.000Z</time>
      </trkpt>
      <trkpt lat="43.4301518462598323822021484375" lon="-5.0620742328464984893798828125">
        <ele>-1.2000000476837158203125</ele>
        <time>2018-09-07T10:56:21.000Z</time>
      </trkpt>
      <trkpt lat="43.42997926287353038787841796875" lon="-5.0619662739336490631103515625">
        <ele>-1</ele>
        <time>2018-09-07T10:56:25.000Z</time>
      </trkpt>
      <trkpt lat="43.42980869114398956298828125" lon="-5.06185253150761127471923828125">
        <ele>-0.800000011920928955078125</ele>
        <time>2018-09-07T10:56:29.000Z</time>
      </trkpt>
      <trkpt lat="43.4294645301997661590576171875" lon="-5.0616226159036159515380859375">
        <ele>-0.800000011920928955078125</ele>
        <time>2018-09-07T10:56:37.000Z</time>
      </trkpt>
      <trkpt lat="43.42918214388191699981689453125" lon="-5.0614343583583831787109375">
        <ele>-1.39999997615814208984375</ele>
        <time>2018-09-07T10:56:43.000Z</time>
      </trkpt>
      <trkpt lat="43.42913051135838031768798828125" lon="-5.06140225566923618316650390625">
        <ele>-1.39999997615814208984375</ele>
        <time>2018-09-07T10:56:44.000Z</time>
      </trkpt>
      <trkpt lat="43.42874787747859954833984375" lon="-5.06114535033702850341796875">
        <ele>-2.599999904632568359375</ele>
        <time>2018-09-07T10:56:51.000Z</time>
      </trkpt>
      <trkpt lat="43.42869180254638195037841796875" lon="-5.06111157126724720001220703125">
        <ele>-2.7999999523162841796875</ele>
        <time>2018-09-07T10:56:52.000Z</time>
      </trkpt>
      <trkpt lat="43.42833573929965496063232421875" lon="-5.0608766265213489532470703125">
        <ele>-2.7999999523162841796875</ele>
        <time>2018-09-07T10:56:59.000Z</time>
      </trkpt>
      <trkpt lat="43.42793290503323078155517578125" lon="-5.06060379557311534881591796875">
        <ele>-2.400000095367431640625</ele>
        <time>2018-09-07T10:57:07.000Z</time>
      </trkpt>
      <trkpt lat="43.4278364293277263641357421875" lon="-5.0605473853647708892822265625">
        <ele>-2.400000095367431640625</ele>
        <time>2018-09-07T10:57:09.000Z</time>
      </trkpt>
      <trkpt lat="43.42778756283223628997802734375" lon="-5.060521066188812255859375">
        <ele>-2.2000000476837158203125</ele>
        <time>2018-09-07T10:57:10.000Z</time>
      </trkpt>
      <trkpt lat="43.42752822674810886383056640625" lon="-5.0604204833507537841796875">
        <ele>-2.400000095367431640625</ele>
        <time>2018-09-07T10:57:15.000Z</time>
      </trkpt>
      <trkpt lat="43.42714852653443813323974609375" lon="-5.06037530489265918731689453125">
        <ele>-2.400000095367431640625</ele>
        <time>2018-09-07T10:57:22.000Z</time>
      </trkpt>
      <trkpt lat="43.4270414896309375762939453125" lon="-5.06038871593773365020751953125">
        <ele>-2</ele>
        <time>2018-09-07T10:57:24.000Z</time>
      </trkpt>
      <trkpt lat="43.4268966503441333770751953125" lon="-5.06042609922587871551513671875">
        <ele>-2</ele>
        <time>2018-09-07T10:57:27.000Z</time>
      </trkpt>
      <trkpt lat="43.4268061257898807525634765625" lon="-5.06045711226761341094970703125">
        <ele>-1.60000002384185791015625</ele>
        <time>2018-09-07T10:57:29.000Z</time>
      </trkpt>
      <trkpt lat="43.4267226420342922210693359375" lon="-5.0604967586696147918701171875">
        <ele>-1.2000000476837158203125</ele>
        <time>2018-09-07T10:57:32.000Z</time>
      </trkpt>
      <trkpt lat="43.42663940973579883575439453125" lon="-5.060550235211849212646484375">
        <ele>-1</ele>
        <time>2018-09-07T10:57:34.000Z</time>
      </trkpt>
      <trkpt lat="43.426479063928127288818359375" lon="-5.06066179834306240081787109375">
        <ele>-0.60000002384185791015625</ele>
        <time>2018-09-07T10:57:38.000Z</time>
      </trkpt>
      <trkpt lat="43.42644025571644306182861328125" lon="-5.060686357319355010986328125">
        <ele>-0.60000002384185791015625</ele>
        <time>2018-09-07T10:57:39.000Z</time>
      </trkpt>
      <trkpt lat="43.42636632733047008514404296875" lon="-5.06073941476643085479736328125">
        <ele>-0.20000000298023223876953125</ele>
        <time>2018-09-07T10:57:41.000Z</time>
      </trkpt>
      <trkpt lat="43.42633246444165706634521484375" lon="-5.0607730261981487274169921875">
        <ele>0</ele>
        <time>2018-09-07T10:57:42.000Z</time>
      </trkpt>
      <trkpt lat="43.4260864555835723876953125" lon="-5.06111023016273975372314453125">
        <ele>-0.20000000298023223876953125</ele>
        <time>2018-09-07T10:57:50.000Z</time>
      </trkpt>
      <trkpt lat="43.425869531929492950439453125" lon="-5.0615421496331691741943359375">
        <ele>-0.4000000059604644775390625</ele>
        <time>2018-09-07T10:57:58.000Z</time>
      </trkpt>
      <trkpt lat="43.4257922507822513580322265625" lon="-5.06173535250127315521240234375">
        <ele>-0.60000002384185791015625</ele>
        <time>2018-09-07T10:58:01.000Z</time>
      </trkpt>
      <trkpt lat="43.42573248781263828277587890625" lon="-5.06194925867021083831787109375">
        <ele>-0.800000011920928955078125</ele>
        <time>2018-09-07T10:58:04.000Z</time>
      </trkpt>
      <trkpt lat="43.42570382170379161834716796875" lon="-5.06209661252796649932861328125">
        <ele>-1</ele>
        <time>2018-09-07T10:58:06.000Z</time>
      </trkpt>
      <trkpt lat="43.4256749041378498077392578125" lon="-5.06232778541743755340576171875">
        <ele>-1.39999997615814208984375</ele>
        <time>2018-09-07T10:58:09.000Z</time>
      </trkpt>
      <trkpt lat="43.42566995881497859954833984375" lon="-5.062405653297901153564453125">
        <ele>-1.39999997615814208984375</ele>
        <time>2018-09-07T10:58:10.000Z</time>
      </trkpt>
      <trkpt lat="43.42566878534853458404541015625" lon="-5.06248469464480876922607421875">
        <ele>-1.60000002384185791015625</ele>
        <time>2018-09-07T10:58:11.000Z</time>
      </trkpt>
      <trkpt lat="43.42567934654653072357177734375" lon="-5.0627193041145801544189453125">
        <ele>-1.7999999523162841796875</ele>
        <time>2018-09-07T10:58:14.000Z</time>
      </trkpt>
      <trkpt lat="43.42570331878960132598876953125" lon="-5.062869004905223846435546875">
        <ele>-1.7999999523162841796875</ele>
        <time>2018-09-07T10:58:16.000Z</time>
      </trkpt>
      <trkpt lat="43.42574774287641048431396484375" lon="-5.06308064796030521392822265625">
        <ele>-1.7999999523162841796875</ele>
        <time>2018-09-07T10:58:19.000Z</time>
      </trkpt>
      <trkpt lat="43.42582435347139835357666015625" lon="-5.0634223781526088714599609375">
        <ele>-1.39999997615814208984375</ele>
        <time>2018-09-07T10:58:24.000Z</time>
      </trkpt>
      <trkpt lat="43.42596282251179218292236328125" lon="-5.06391079165041446685791015625">
        <ele>-1.39999997615814208984375</ele>
        <time>2018-09-07T10:58:31.000Z</time>
      </trkpt>
      <trkpt lat="43.42600506730377674102783203125" lon="-5.06405781023204326629638671875">
        <ele>-1.60000002384185791015625</ele>
        <time>2018-09-07T10:58:33.000Z</time>
      </trkpt>
      <trkpt lat="43.42611285857856273651123046875" lon="-5.0644178129732608795166015625">
        <ele>-1.39999997615814208984375</ele>
        <time>2018-09-07T10:58:38.000Z</time>
      </trkpt>
      <trkpt lat="43.42614437453448772430419921875" lon="-5.0645579583942890167236328125">
        <ele>-1.60000002384185791015625</ele>
        <time>2018-09-07T10:58:40.000Z</time>
      </trkpt>
      <trkpt lat="43.42633212916553020477294921875" lon="-5.06528391502797603607177734375">
        <ele>-1.2000000476837158203125</ele>
        <time>2018-09-07T10:58:51.000Z</time>
      </trkpt>
      <trkpt lat="43.4265013597905635833740234375" lon="-5.0657312572002410888671875">
        <ele>-1</ele>
        <time>2018-09-07T10:58:59.000Z</time>
      </trkpt>
      <trkpt lat="43.42674435116350650787353515625" lon="-5.06607349030673503875732421875">
        <ele>-0.60000002384185791015625</ele>
        <time>2018-09-07T10:59:06.000Z</time>
      </trkpt>
      <trkpt lat="43.42704065144062042236328125" lon="-5.06637339480221271514892578125">
        <ele>-0.4000000059604644775390625</ele>
        <time>2018-09-07T10:59:14.000Z</time>
      </trkpt>
      <trkpt lat="43.4271859936416149139404296875" lon="-5.0665005482733249664306640625">
        <ele>-0.20000000298023223876953125</ele>
        <time>2018-09-07T10:59:18.000Z</time>
      </trkpt>
      <trkpt lat="43.42726050876080989837646484375" lon="-5.066566765308380126953125">
        <ele>0</ele>
        <time>2018-09-07T10:59:20.000Z</time>
      </trkpt>
      <trkpt lat="43.427450023591518402099609375" lon="-5.06672409363090991973876953125">
        <ele>0</ele>
        <time>2018-09-07T10:59:25.000Z</time>
      </trkpt>
      <trkpt lat="43.42748832888901233673095703125" lon="-5.06675460375845432281494140625">
        <ele>0</ele>
        <time>2018-09-07T10:59:26.000Z</time>
      </trkpt>
      <trkpt lat="43.427802734076976776123046875" lon="-5.06701947189867496490478515625">
        <ele>0.20000000298023223876953125</ele>
        <time>2018-09-07T10:59:34.000Z</time>
      </trkpt>
      <trkpt lat="43.428131975233554840087890625" lon="-5.0672773830592632293701171875">
        <ele>0.20000000298023223876953125</ele>
        <time>2018-09-07T10:59:41.000Z</time>
      </trkpt>
      <trkpt lat="43.4284694306552410125732421875" lon="-5.0675727613270282745361328125">
        <ele>0.20000000298023223876953125</ele>
        <time>2018-09-07T10:59:48.000Z</time>
      </trkpt>
      <trkpt lat="43.42861167155206203460693359375" lon="-5.06770025007426738739013671875">
        <ele>0.20000000298023223876953125</ele>
        <time>2018-09-07T10:59:51.000Z</time>
      </trkpt>
      <trkpt lat="43.4290072135627269744873046875" lon="-5.0681678764522075653076171875">
        <ele>0.20000000298023223876953125</ele>
        <time>2018-09-07T11:00:00.000Z</time>
      </trkpt>
      <trkpt lat="43.42925322242081165313720703125" lon="-5.06866031326353549957275390625">
        <ele>0</ele>
        <time>2018-09-07T11:00:07.000Z</time>
      </trkpt>
      <trkpt lat="43.429397307336330413818359375" lon="-5.069227181375026702880859375">
        <ele>-0.20000000298023223876953125</ele>
        <time>2018-09-07T11:00:14.000Z</time>
      </trkpt>
      <trkpt lat="43.42943561263382434844970703125" lon="-5.06974560208618640899658203125">
        <ele>0</ele>
        <time>2018-09-07T11:00:20.000Z</time>
      </trkpt>
      <trkpt lat="43.4293817169964313507080078125" lon="-5.07026351988315582275390625">
        <ele>0</ele>
        <time>2018-09-07T11:00:26.000Z</time>
      </trkpt>
      <trkpt lat="43.429237045347690582275390625" lon="-5.07075645960867404937744140625">
        <ele>0.20000000298023223876953125</ele>
        <time>2018-09-07T11:00:32.000Z</time>
      </trkpt>
      <trkpt lat="43.4290583431720733642578125" lon="-5.0711142830550670623779296875">
        <ele>0.4000000059604644775390625</ele>
        <time>2018-09-07T11:00:37.000Z</time>
      </trkpt>
      <trkpt lat="43.42897854745388031005859375" lon="-5.07124730385839939117431640625">
        <ele>0.60000002384185791015625</ele>
        <time>2018-09-07T11:00:39.000Z</time>
      </trkpt>
      <trkpt lat="43.428765647113323211669921875" lon="-5.07153815589845180511474609375">
        <ele>0.60000002384185791015625</ele>
        <time>2018-09-07T11:00:44.000Z</time>
      </trkpt>
      <trkpt lat="43.4286699257791042327880859375" lon="-5.07164326496422290802001953125">
        <ele>0.800000011920928955078125</ele>
        <time>2018-09-07T11:00:46.000Z</time>
      </trkpt>
      <trkpt lat="43.428346551954746246337890625" lon="-5.07202439010143280029296875">
        <ele>1</ele>
        <time>2018-09-07T11:00:53.000Z</time>
      </trkpt>
      <trkpt lat="43.42806550674140453338623046875" lon="-5.0723447464406490325927734375">
        <ele>1.39999997615814208984375</ele>
        <time>2018-09-07T11:00:59.000Z</time>
      </trkpt>
      <trkpt lat="43.4280225075781345367431640625" lon="-5.07239964790642261505126953125">
        <ele>1.60000002384185791015625</ele>
        <time>2018-09-07T11:01:00.000Z</time>
      </trkpt>
      <trkpt lat="43.42766770161688327789306640625" lon="-5.07290926761925220489501953125">
        <ele>2.2000000476837158203125</ele>
        <time>2018-09-07T11:01:09.000Z</time>
      </trkpt>
      <trkpt lat="43.4275879897177219390869140625" lon="-5.07301839999854564666748046875">
        <ele>2.599999904632568359375</ele>
        <time>2018-09-07T11:01:11.000Z</time>
      </trkpt>
      <trkpt lat="43.4273685514926910400390625" lon="-5.07328695617616176605224609375">
        <ele>2.7999999523162841796875</ele>
        <time>2018-09-07T11:01:16.000Z</time>
      </trkpt>
      <trkpt lat="43.4271397255361080169677734375" lon="-5.07353690452873706817626953125">
        <ele>3.2000000476837158203125</ele>
        <time>2018-09-07T11:01:21.000Z</time>
      </trkpt>
      <trkpt lat="43.42705196700990200042724609375" lon="-5.0736389122903347015380859375">
        <ele>3</ele>
        <time>2018-09-07T11:01:23.000Z</time>
      </trkpt>
      <trkpt lat="43.4267658926546573638916015625" lon="-5.0740633718669414520263671875">
        <ele>3</ele>
        <time>2018-09-07T11:01:30.000Z</time>
      </trkpt>
      <trkpt lat="43.42664745636284351348876953125" lon="-5.07433838210999965667724609375">
        <ele>3.599999904632568359375</ele>
        <time>2018-09-07T11:01:34.000Z</time>
      </trkpt>
      <trkpt lat="43.426565565168857574462890625" lon="-5.0745465047657489776611328125">
        <ele>3.7999999523162841796875</ele>
        <time>2018-09-07T11:01:37.000Z</time>
      </trkpt>
      <trkpt lat="43.4264054708182811737060546875" lon="-5.07494187913835048675537109375">
        <ele>4</ele>
        <time>2018-09-07T11:01:43.000Z</time>
      </trkpt>
      <trkpt lat="43.42634461820125579833984375" lon="-5.07504598237574100494384765625">
        <ele>4</ele>
        <time>2018-09-07T11:01:45.000Z</time>
      </trkpt>
      <trkpt lat="43.42631042003631591796875" lon="-5.075095184147357940673828125">
        <ele>4</ele>
        <time>2018-09-07T11:01:46.000Z</time>
      </trkpt>
      <trkpt lat="43.4262418560683727264404296875" lon="-5.07519233040511608123779296875">
        <ele>3.7999999523162841796875</ele>
        <time>2018-09-07T11:01:48.000Z</time>
      </trkpt>
      <trkpt lat="43.4261986054480075836181640625" lon="-5.07523658685386180877685546875">
        <ele>3.599999904632568359375</ele>
        <time>2018-09-07T11:01:49.000Z</time>
      </trkpt>
      <trkpt lat="43.42606977559626102447509765625" lon="-5.07536918856203556060791015625">
        <ele>3.2000000476837158203125</ele>
        <time>2018-09-07T11:01:52.000Z</time>
      </trkpt>
      <trkpt lat="43.4259496629238128662109375" lon="-5.07551486603915691375732421875">
        <ele>3.2000000476837158203125</ele>
        <time>2018-09-07T11:01:55.000Z</time>
      </trkpt>
      <trkpt lat="43.42580356635153293609619140625" lon="-5.075775794684886932373046875">
        <ele>2.7999999523162841796875</ele>
        <time>2018-09-07T11:01:59.000Z</time>
      </trkpt>
      <trkpt lat="43.42577305622398853302001953125" lon="-5.0758512318134307861328125">
        <ele>2.599999904632568359375</ele>
        <time>2018-09-07T11:02:00.000Z</time>
      </trkpt>
      <trkpt lat="43.42567129991948604583740234375" lon="-5.07617485709488391876220703125">
        <ele>2</ele>
        <time>2018-09-07T11:02:04.000Z</time>
      </trkpt>
      <trkpt lat="43.42564229853451251983642578125" lon="-5.07634635083377361297607421875">
        <ele>2</ele>
        <time>2018-09-07T11:02:06.000Z</time>
      </trkpt>
      <trkpt lat="43.42560759745538234710693359375" lon="-5.076683051884174346923828125">
        <ele>2.2000000476837158203125</ele>
        <time>2018-09-07T11:02:10.000Z</time>
      </trkpt>
      <trkpt lat="43.42560810036957263946533203125" lon="-5.07684172131121158599853515625">
        <ele>2.599999904632568359375</ele>
        <time>2018-09-07T11:02:12.000Z</time>
      </trkpt>
      <trkpt lat="43.42562033794820308685302734375" lon="-5.07714866660535335540771484375">
        <ele>2.7999999523162841796875</ele>
        <time>2018-09-07T11:02:16.000Z</time>
      </trkpt>
      <trkpt lat="43.425653614103794097900390625" lon="-5.07758083753287792205810546875">
        <ele>3.599999904632568359375</ele>
        <time>2018-09-07T11:02:22.000Z</time>
      </trkpt>
      <trkpt lat="43.4256765805184841156005859375" lon="-5.07780798710882663726806640625">
        <ele>3.599999904632568359375</ele>
        <time>2018-09-07T11:02:25.000Z</time>
      </trkpt>
      <trkpt lat="43.425688482820987701416015625" lon="-5.07813580334186553955078125">
        <ele>3</ele>
        <time>2018-09-07T11:02:29.000Z</time>
      </trkpt>
      <trkpt lat="43.4256822802126407623291015625" lon="-5.0782201252877712249755859375">
        <ele>2.7999999523162841796875</ele>
        <time>2018-09-07T11:02:30.000Z</time>
      </trkpt>
      <trkpt lat="43.4256732277572154998779296875" lon="-5.07830671034753322601318359375">
        <ele>2.599999904632568359375</ele>
        <time>2018-09-07T11:02:31.000Z</time>
      </trkpt>
      <trkpt lat="43.42558127827942371368408203125" lon="-5.0787310861051082611083984375">
        <ele>2</ele>
        <time>2018-09-07T11:02:36.000Z</time>
      </trkpt>
      <trkpt lat="43.42555194161832332611083984375" lon="-5.07881398312747478485107421875">
        <ele>2</ele>
        <time>2018-09-07T11:02:37.000Z</time>
      </trkpt>
      <trkpt lat="43.4254314936697483062744140625" lon="-5.07904767058789730072021484375">
        <ele>1.60000002384185791015625</ele>
        <time>2018-09-07T11:02:40.000Z</time>
      </trkpt>
      <trkpt lat="43.42532831244170665740966796875" lon="-5.07919167168438434600830078125">
        <ele>1</ele>
        <time>2018-09-07T11:02:42.000Z</time>
      </trkpt>
      <trkpt lat="43.42496998608112335205078125" lon="-5.0795634090900421142578125">
        <ele>0.4000000059604644775390625</ele>
        <time>2018-09-07T11:02:48.000Z</time>
      </trkpt>
      <trkpt lat="43.42460176907479763031005859375" lon="-5.07990044541656970977783203125">
        <ele>0.4000000059604644775390625</ele>
        <time>2018-09-07T11:02:54.000Z</time>
      </trkpt>
      <trkpt lat="43.42454208992421627044677734375" lon="-5.079955346882343292236328125">
        <ele>0.4000000059604644775390625</ele>
        <time>2018-09-07T11:02:55.000Z</time>
      </trkpt>
      <trkpt lat="43.42434704303741455078125" lon="-5.080226920545101165771484375">
        <ele>0.60000002384185791015625</ele>
        <time>2018-09-07T11:02:59.000Z</time>
      </trkpt>
      <trkpt lat="43.42430488206446170806884765625" lon="-5.08029959164559841156005859375">
        <ele>0.60000002384185791015625</ele>
        <time>2018-09-07T11:03:00.000Z</time>
      </trkpt>
      <trkpt lat="43.42423296533524990081787109375" lon="-5.08045029826462268829345703125">
        <ele>0.800000011920928955078125</ele>
        <time>2018-09-07T11:03:02.000Z</time>
      </trkpt>
      <trkpt lat="43.42414596118032932281494140625" lon="-5.080690942704677581787109375">
        <ele>1</ele>
        <time>2018-09-07T11:03:05.000Z</time>
      </trkpt>
      <trkpt lat="43.42410891316831111907958984375" lon="-5.08085983805358409881591796875">
        <ele>1.39999997615814208984375</ele>
        <time>2018-09-07T11:03:07.000Z</time>
      </trkpt>
      <trkpt lat="43.42407681047916412353515625" lon="-5.08113526739180088043212890625">
        <ele>1.60000002384185791015625</ele>
        <time>2018-09-07T11:03:10.000Z</time>
      </trkpt>
      <trkpt lat="43.42410857789218425750732421875" lon="-5.0815930031239986419677734375">
        <ele>2</ele>
        <time>2018-09-07T11:03:15.000Z</time>
      </trkpt>
      <trkpt lat="43.42423028312623500823974609375" lon="-5.08225995115935802459716796875">
        <ele>1.7999999523162841796875</ele>
        <time>2018-09-07T11:03:23.000Z</time>
      </trkpt>
      <trkpt lat="43.4243130125105381011962890625" lon="-5.08248995058238506317138671875">
        <ele>1.7999999523162841796875</ele>
        <time>2018-09-07T11:03:26.000Z</time>
      </trkpt>
      <trkpt lat="43.4243730269372463226318359375" lon="-5.08262271992862224578857421875">
        <ele>2.2000000476837158203125</ele>
        <time>2018-09-07T11:03:28.000Z</time>
      </trkpt>
      <trkpt lat="43.42444360256195068359375" lon="-5.08274392224848270416259765625">
        <ele>2.2000000476837158203125</ele>
        <time>2018-09-07T11:03:30.000Z</time>
      </trkpt>
      <trkpt lat="43.42448140494525432586669921875" lon="-5.082798488438129425048828125">
        <ele>2.599999904632568359375</ele>
        <time>2018-09-07T11:03:31.000Z</time>
      </trkpt>
      <trkpt lat="43.42459489591419696807861328125" lon="-5.0829671323299407958984375">
        <ele>2.7999999523162841796875</ele>
        <time>2018-09-07T11:03:34.000Z</time>
      </trkpt>
      <trkpt lat="43.42474359087646007537841796875" lon="-5.0831978023052215576171875">
        <ele>3.599999904632568359375</ele>
        <time>2018-09-07T11:03:38.000Z</time>
      </trkpt>
      <trkpt lat="43.4248459339141845703125" lon="-5.0833827070891857147216796875">
        <ele>3.599999904632568359375</ele>
        <time>2018-09-07T11:03:41.000Z</time>
      </trkpt>
      <trkpt lat="43.42486940324306488037109375" lon="-5.083450265228748321533203125">
        <ele>3.7999999523162841796875</ele>
        <time>2018-09-07T11:03:42.000Z</time>
      </trkpt>
      <trkpt lat="43.42490284703671932220458984375" lon="-5.0837991200387477874755859375">
        <ele>4.19999980926513671875</ele>
        <time>2018-09-07T11:03:47.000Z</time>
      </trkpt>
      <trkpt lat="43.4248977340757846832275390625" lon="-5.083867348730564117431640625">
        <ele>4.400000095367431640625</ele>
        <time>2018-09-07T11:03:48.000Z</time>
      </trkpt>
      <trkpt lat="43.42486663721501827239990234375" lon="-5.08407781831920146942138671875">
        <ele>4.400000095367431640625</ele>
        <time>2018-09-07T11:03:51.000Z</time>
      </trkpt>
      <trkpt lat="43.42485389672219753265380859375" lon="-5.084149651229381561279296875">
        <ele>4.400000095367431640625</ele>
        <time>2018-09-07T11:03:52.000Z</time>
      </trkpt>
      <trkpt lat="43.42469195835292339324951171875" lon="-5.0846279226243495941162109375">
        <ele>4.599999904632568359375</ele>
        <time>2018-09-07T11:03:59.000Z</time>
      </trkpt>
      <trkpt lat="43.424637056887149810791015625" lon="-5.084755830466747283935546875">
        <ele>4.80000019073486328125</ele>
        <time>2018-09-07T11:04:01.000Z</time>
      </trkpt>
      <trkpt lat="43.424539156258106231689453125" lon="-5.08493176661431789398193359375">
        <ele>5</ele>
        <time>2018-09-07T11:04:04.000Z</time>
      </trkpt>
      <trkpt lat="43.42446598224341869354248046875" lon="-5.085042156279087066650390625">
        <ele>5.400000095367431640625</ele>
        <time>2018-09-07T11:04:06.000Z</time>
      </trkpt>
      <trkpt lat="43.42419172637164592742919921875" lon="-5.0853511132299900054931640625">
        <ele>5.400000095367431640625</ele>
        <time>2018-09-07T11:04:12.000Z</time>
      </trkpt>
      <trkpt lat="43.42394881881773471832275390625" lon="-5.08561648428440093994140625">
        <ele>5</ele>
        <time>2018-09-07T11:04:17.000Z</time>
      </trkpt>
      <trkpt lat="43.4238302148878574371337890625" lon="-5.085739195346832275390625">
        <ele>4.400000095367431640625</ele>
        <time>2018-09-07T11:04:19.000Z</time>
      </trkpt>
      <trkpt lat="43.42358521185815334320068359375" lon="-5.08600934408605098724365234375">
        <ele>3.599999904632568359375</ele>
        <time>2018-09-07T11:04:23.000Z</time>
      </trkpt>
      <trkpt lat="43.42339309863746166229248046875" lon="-5.08620615117251873016357421875">
        <ele>3</ele>
        <time>2018-09-07T11:04:26.000Z</time>
      </trkpt>
      <trkpt lat="43.4232629276812076568603515625" lon="-5.08632919751107692718505859375">
        <ele>2.7999999523162841796875</ele>
        <time>2018-09-07T11:04:28.000Z</time>
      </trkpt>
      <trkpt lat="43.423067629337310791015625" lon="-5.08649448864161968231201171875">
        <ele>2.400000095367431640625</ele>
        <time>2018-09-07T11:04:31.000Z</time>
      </trkpt>
      <trkpt lat="43.42294433154165744781494140625" lon="-5.08661150000989437103271484375">
        <ele>2.400000095367431640625</ele>
        <time>2018-09-07T11:04:33.000Z</time>
      </trkpt>
      <trkpt lat="43.42276311479508876800537109375" lon="-5.08677159436047077178955078125">
        <ele>2.7999999523162841796875</ele>
        <time>2018-09-07T11:04:36.000Z</time>
      </trkpt>
      <trkpt lat="43.42258952558040618896484375" lon="-5.08691643364727497100830078125">
        <ele>3</ele>
        <time>2018-09-07T11:04:39.000Z</time>
      </trkpt>
      <trkpt lat="43.422195911407470703125" lon="-5.08725539781153202056884765625">
        <ele>3.400000095367431640625</ele>
        <time>2018-09-07T11:04:46.000Z</time>
      </trkpt>
      <trkpt lat="43.4220277704298496246337890625" lon="-5.08740593679249286651611328125">
        <ele>3.400000095367431640625</ele>
        <time>2018-09-07T11:04:49.000Z</time>
      </trkpt>
      <trkpt lat="43.4217833541333675384521484375" lon="-5.08760576136410236358642578125">
        <ele>3.400000095367431640625</ele>
        <time>2018-09-07T11:04:53.000Z</time>
      </trkpt>
      <trkpt lat="43.4215986169874668121337890625" lon="-5.0877570547163486480712890625">
        <ele>3.599999904632568359375</ele>
        <time>2018-09-07T11:04:56.000Z</time>
      </trkpt>
      <trkpt lat="43.42135176993906497955322265625" lon="-5.087927877902984619140625">
        <ele>3.7999999523162841796875</ele>
        <time>2018-09-07T11:05:00.000Z</time>
      </trkpt>
      <trkpt lat="43.42129158787429332733154296875" lon="-5.08796836249530315399169921875">
        <ele>4</ele>
        <time>2018-09-07T11:05:01.000Z</time>
      </trkpt>
      <trkpt lat="43.420852459967136383056640625" lon="-5.0881905667483806610107421875">
        <ele>4</ele>
        <time>2018-09-07T11:05:08.000Z</time>
      </trkpt>
      <trkpt lat="43.420657999813556671142578125" lon="-5.0882569514214992523193359375">
        <ele>4.400000095367431640625</ele>
        <time>2018-09-07T11:05:11.000Z</time>
      </trkpt>
      <trkpt lat="43.42032163403928279876708984375" lon="-5.08833213709294795989990234375">
        <ele>4.599999904632568359375</ele>
        <time>2018-09-07T11:05:16.000Z</time>
      </trkpt>
      <trkpt lat="43.41984453611075878143310546875" lon="-5.08837438188493251800537109375">
        <ele>4.400000095367431640625</ele>
        <time>2018-09-07T11:05:23.000Z</time>
      </trkpt>
      <trkpt lat="43.4192899055778980255126953125" lon="-5.0883816741406917572021484375">
        <ele>4.19999980926513671875</ele>
        <time>2018-09-07T11:05:31.000Z</time>
      </trkpt>
      <trkpt lat="43.419221006333827972412109375" lon="-5.0883825123310089111328125">
        <ele>4</ele>
        <time>2018-09-07T11:05:32.000Z</time>
      </trkpt>
      <trkpt lat="43.41888581402599811553955078125" lon="-5.08840355090796947479248046875">
        <ele>3.599999904632568359375</ele>
        <time>2018-09-07T11:05:37.000Z</time>
      </trkpt>
      <trkpt lat="43.418716080486774444580078125" lon="-5.0884547643363475799560546875">
        <ele>3.7999999523162841796875</ele>
        <time>2018-09-07T11:05:40.000Z</time>
      </trkpt>
      <trkpt lat="43.4186079539358615875244140625" lon="-5.08849960751831531524658203125">
        <ele>3.599999904632568359375</ele>
        <time>2018-09-07T11:05:42.000Z</time>
      </trkpt>
      <trkpt lat="43.41849915683269500732421875" lon="-5.08855844847857952117919921875">
        <ele>3.7999999523162841796875</ele>
        <time>2018-09-07T11:05:44.000Z</time>
      </trkpt>
      <trkpt lat="43.41839480213820934295654296875" lon="-5.088636986911296844482421875">
        <ele>4</ele>
        <time>2018-09-07T11:05:46.000Z</time>
      </trkpt>
      <trkpt lat="43.4181590192019939422607421875" lon="-5.08885583840310573577880859375">
        <ele>4.400000095367431640625</ele>
        <time>2018-09-07T11:05:51.000Z</time>
      </trkpt>
      <trkpt lat="43.4181140922009944915771484375" lon="-5.0889020226895809173583984375">
        <ele>4.400000095367431640625</ele>
        <time>2018-09-07T11:05:52.000Z</time>
      </trkpt>
      <trkpt lat="43.41775056906044483184814453125" lon="-5.08926018141210079193115234375">
        <ele>4.80000019073486328125</ele>
        <time>2018-09-07T11:06:00.000Z</time>
      </trkpt>
      <trkpt lat="43.417314626276493072509765625" lon="-5.089638121426105499267578125">
        <ele>4.80000019073486328125</ele>
        <time>2018-09-07T11:06:09.000Z</time>
      </trkpt>
      <trkpt lat="43.416943140327930450439453125" lon="-5.089943222701549530029296875">
        <ele>5.599999904632568359375</ele>
        <time>2018-09-07T11:06:17.000Z</time>
      </trkpt>
      <trkpt lat="43.416713140904903411865234375" lon="-5.09014313109219074249267578125">
        <ele>6</ele>
        <time>2018-09-07T11:06:22.000Z</time>
      </trkpt>
      <trkpt lat="43.41657333076000213623046875" lon="-5.09027036838233470916748046875">
        <ele>6.599999904632568359375</ele>
        <time>2018-09-07T11:06:25.000Z</time>
      </trkpt>
      <trkpt lat="43.4165295772254467010498046875" lon="-5.0903110206127166748046875">
        <ele>6.599999904632568359375</ele>
        <time>2018-09-07T11:06:26.000Z</time>
      </trkpt>
      <trkpt lat="43.41640770435333251953125" lon="-5.090454518795013427734375">
        <ele>6.80000019073486328125</ele>
        <time>2018-09-07T11:06:29.000Z</time>
      </trkpt>
      <trkpt lat="43.41630418784916400909423828125" lon="-5.09061100892722606658935546875">
        <ele>7</ele>
        <time>2018-09-07T11:06:32.000Z</time>
      </trkpt>
      <trkpt lat="43.4161725081503391265869140625" lon="-5.09088509716093540191650390625">
        <ele>7.599999904632568359375</ele>
        <time>2018-09-07T11:06:37.000Z</time>
      </trkpt>
      <trkpt lat="43.416127748787403106689453125" lon="-5.09100093506276607513427734375">
        <ele>7.80000019073486328125</ele>
        <time>2018-09-07T11:06:39.000Z</time>
      </trkpt>
      <trkpt lat="43.41605172492563724517822265625" lon="-5.0912385620176792144775390625">
        <ele>8.6000003814697265625</ele>
        <time>2018-09-07T11:06:43.000Z</time>
      </trkpt>
      <trkpt lat="43.41597846709191799163818359375" lon="-5.091466046869754791259765625">
        <ele>8.80000019073486328125</ele>
        <time>2018-09-07T11:06:47.000Z</time>
      </trkpt>
      <trkpt lat="43.4158151037991046905517578125" lon="-5.0919096171855926513671875">
        <ele>9.6000003814697265625</ele>
        <time>2018-09-07T11:06:55.000Z</time>
      </trkpt>
      <trkpt lat="43.4157611243426799774169921875" lon="-5.09201028384268283843994140625">
        <ele>9.80000019073486328125</ele>
        <time>2018-09-07T11:06:57.000Z</time>
      </trkpt>
      <trkpt lat="43.415514528751373291015625" lon="-5.0923489965498447418212890625">
        <ele>10.19999980926513671875</ele>
        <time>2018-09-07T11:07:04.000Z</time>
      </trkpt>
      <trkpt lat="43.41521747410297393798828125" lon="-5.09266658686101436614990234375">
        <ele>10.19999980926513671875</ele>
        <time>2018-09-07T11:07:11.000Z</time>
      </trkpt>
      <trkpt lat="43.4151730500161647796630859375" lon="-5.09271386079490184783935546875">
        <ele>10.19999980926513671875</ele>
        <time>2018-09-07T11:07:12.000Z</time>
      </trkpt>
      <trkpt lat="43.41483970172703266143798828125" lon="-5.09301812388002872467041015625">
        <ele>10.80000019073486328125</ele>
        <time>2018-09-07T11:07:19.000Z</time>
      </trkpt>
      <trkpt lat="43.41473777778446674346923828125" lon="-5.09308199398219585418701171875">
        <ele>11</ele>
        <time>2018-09-07T11:07:21.000Z</time>
      </trkpt>
      <trkpt lat="43.4143804572522640228271484375" lon="-5.0932264141738414764404296875">
        <ele>11.19999980926513671875</ele>
        <time>2018-09-07T11:07:28.000Z</time>
      </trkpt>
      <trkpt lat="43.41399380005896091461181640625" lon="-5.09325700812041759490966796875">
        <ele>11.3999996185302734375</ele>
        <time>2018-09-07T11:07:35.000Z</time>
      </trkpt>
      <trkpt lat="43.4136666543781757354736328125" lon="-5.0932287611067295074462890625">
        <ele>11.80000019073486328125</ele>
        <time>2018-09-07T11:07:41.000Z</time>
      </trkpt>
      <trkpt lat="43.4135040454566478729248046875" lon="-5.09321493096649646759033203125">
        <ele>11.80000019073486328125</ele>
        <time>2018-09-07T11:07:44.000Z</time>
      </trkpt>
      <trkpt lat="43.41334202326834201812744140625" lon="-5.09322532452642917633056640625">
        <ele>12.19999980926513671875</ele>
        <time>2018-09-07T11:07:47.000Z</time>
      </trkpt>
      <trkpt lat="43.41318528167903423309326171875" lon="-5.093245021998882293701171875">
        <ele>12.19999980926513671875</ele>
        <time>2018-09-07T11:07:50.000Z</time>
      </trkpt>
      <trkpt lat="43.4128428809344768524169921875" lon="-5.09336731396615505218505859375">
        <ele>13</ele>
        <time>2018-09-07T11:07:57.000Z</time>
      </trkpt>
      <trkpt lat="43.4125656075775623321533203125" lon="-5.09353101253509521484375">
        <ele>13.6000003814697265625</ele>
        <time>2018-09-07T11:08:03.000Z</time>
      </trkpt>
      <trkpt lat="43.41247064061462879180908203125" lon="-5.09359463118016719818115234375">
        <ele>13.6000003814697265625</ele>
        <time>2018-09-07T11:08:05.000Z</time>
      </trkpt>
      <trkpt lat="43.4122320078313350677490234375" lon="-5.09376704692840576171875">
        <ele>13.80000019073486328125</ele>
        <time>2018-09-07T11:08:10.000Z</time>
      </trkpt>
      <trkpt lat="43.4121361188590526580810546875" lon="-5.09382982738316059112548828125">
        <ele>13.6000003814697265625</ele>
        <time>2018-09-07T11:08:12.000Z</time>
      </trkpt>
      <trkpt lat="43.41203159652650356292724609375" lon="-5.09389688260853290557861328125">
        <ele>13.80000019073486328125</ele>
        <time>2018-09-07T11:08:14.000Z</time>
      </trkpt>
      <trkpt lat="43.411754071712493896484375" lon="-5.094117410480976104736328125">
        <ele>13.3999996185302734375</ele>
        <time>2018-09-07T11:08:19.000Z</time>
      </trkpt>
      <trkpt lat="43.41146900318562984466552734375" lon="-5.09443868882954120635986328125">
        <ele>12.19999980926513671875</ele>
        <time>2018-09-07T11:08:24.000Z</time>
      </trkpt>
      <trkpt lat="43.4114196337759494781494140625" lon="-5.09452007710933685302734375">
        <ele>12.19999980926513671875</ele>
        <time>2018-09-07T11:08:25.000Z</time>
      </trkpt>
      <trkpt lat="43.41132986359298229217529296875" lon="-5.0946925766766071319580078125">
        <ele>12</ele>
        <time>2018-09-07T11:08:27.000Z</time>
      </trkpt>
      <trkpt lat="43.41125442646443843841552734375" lon="-5.09487387724220752716064453125">
        <ele>11.6000003814697265625</ele>
        <time>2018-09-07T11:08:29.000Z</time>
      </trkpt>
      <trkpt lat="43.4111483953893184661865234375" lon="-5.09515467099845409393310546875">
        <ele>11</ele>
        <time>2018-09-07T11:08:32.000Z</time>
      </trkpt>
      <trkpt lat="43.411074467003345489501953125" lon="-5.09535181336104869842529296875">
        <ele>10.80000019073486328125</ele>
        <time>2018-09-07T11:08:34.000Z</time>
      </trkpt>
      <trkpt lat="43.4109995327889919281005859375" lon="-5.09554107673466205596923828125">
        <ele>10.3999996185302734375</ele>
        <time>2018-09-07T11:08:36.000Z</time>
      </trkpt>
      <trkpt lat="43.41085352003574371337890625" lon="-5.09581700898706912994384765625">
        <ele>10</ele>
        <time>2018-09-07T11:08:39.000Z</time>
      </trkpt>
      <trkpt lat="43.410734497010707855224609375" lon="-5.0959790311753749847412109375">
        <ele>9.80000019073486328125</ele>
        <time>2018-09-07T11:08:41.000Z</time>
      </trkpt>
      <trkpt lat="43.41066601686179637908935546875" lon="-5.096051953732967376708984375">
        <ele>9.6000003814697265625</ele>
        <time>2018-09-07T11:08:42.000Z</time>
      </trkpt>
      <trkpt lat="43.41037080623209476470947265625" lon="-5.096294023096561431884765625">
        <ele>9.19999980926513671875</ele>
        <time>2018-09-07T11:08:46.000Z</time>
      </trkpt>
      <trkpt lat="43.410071320831775665283203125" lon="-5.096462666988372802734375">
        <ele>9.19999980926513671875</ele>
        <time>2018-09-07T11:08:50.000Z</time>
      </trkpt>
      <trkpt lat="43.4099243022501468658447265625" lon="-5.09653701446950435638427734375">
        <ele>9</ele>
        <time>2018-09-07T11:08:52.000Z</time>
      </trkpt>
      <trkpt lat="43.4096198715269565582275390625" lon="-5.0967102684080600738525390625">
        <ele>8.6000003814697265625</ele>
        <time>2018-09-07T11:08:56.000Z</time>
      </trkpt>
      <trkpt lat="43.40954787097871303558349609375" lon="-5.096773803234100341796875">
        <ele>8.6000003814697265625</ele>
        <time>2018-09-07T11:08:57.000Z</time>
      </trkpt>
      <trkpt lat="43.40948869474232196807861328125" lon="-5.09685359895229339599609375">
        <ele>8.3999996185302734375</ele>
        <time>2018-09-07T11:08:58.000Z</time>
      </trkpt>
      <trkpt lat="43.40931401588022708892822265625" lon="-5.09722399525344371795654296875">
        <ele>8</ele>
        <time>2018-09-07T11:09:02.000Z</time>
      </trkpt>
      <trkpt lat="43.40926137752830982208251953125" lon="-5.097415186464786529541015625">
        <ele>8.19999980926513671875</ele>
        <time>2018-09-07T11:09:04.000Z</time>
      </trkpt>
      <trkpt lat="43.4091561846435070037841796875" lon="-5.097783319652080535888671875">
        <ele>8.6000003814697265625</ele>
        <time>2018-09-07T11:09:08.000Z</time>
      </trkpt>
      <trkpt lat="43.40896381996572017669677734375" lon="-5.0985113717615604400634765625">
        <ele>9</ele>
        <time>2018-09-07T11:09:16.000Z</time>
      </trkpt>
      <trkpt lat="43.40894470922648906707763671875" lon="-5.09860767982900142669677734375">
        <ele>8.80000019073486328125</ele>
        <time>2018-09-07T11:09:17.000Z</time>
      </trkpt>
      <trkpt lat="43.4088745526969432830810546875" lon="-5.0992902182042598724365234375">
        <ele>8.19999980926513671875</ele>
        <time>2018-09-07T11:09:24.000Z</time>
      </trkpt>
      <trkpt lat="43.40886466205120086669921875" lon="-5.09996764361858367919921875">
        <ele>8</ele>
        <time>2018-09-07T11:09:31.000Z</time>
      </trkpt>
      <trkpt lat="43.40888737700879573822021484375" lon="-5.1007359288632869720458984375">
        <ele>7.80000019073486328125</ele>
        <time>2018-09-07T11:09:39.000Z</time>
      </trkpt>
      <trkpt lat="43.40890279971063137054443359375" lon="-5.1008321531116962432861328125">
        <ele>7.599999904632568359375</ele>
        <time>2018-09-07T11:09:40.000Z</time>
      </trkpt>
      <trkpt lat="43.4089241735637187957763671875" lon="-5.100926868617534637451171875">
        <ele>7.599999904632568359375</ele>
        <time>2018-09-07T11:09:41.000Z</time>
      </trkpt>
      <trkpt lat="43.4090468846261501312255859375" lon="-5.101271532475948333740234375">
        <ele>7.599999904632568359375</ele>
        <time>2018-09-07T11:09:45.000Z</time>
      </trkpt>
      <trkpt lat="43.4092805720865726470947265625" lon="-5.101634301245212554931640625">
        <ele>8</ele>
        <time>2018-09-07T11:09:50.000Z</time>
      </trkpt>
      <trkpt lat="43.4094728529453277587890625" lon="-5.10191048495471477508544921875">
        <ele>8.19999980926513671875</ele>
        <time>2018-09-07T11:09:54.000Z</time>
      </trkpt>
      <trkpt lat="43.4096366353332996368408203125" lon="-5.10219899006187915802001953125">
        <ele>8.80000019073486328125</ele>
        <time>2018-09-07T11:09:58.000Z</time>
      </trkpt>
      <trkpt lat="43.409664630889892578125" lon="-5.1022817194461822509765625">
        <ele>8.80000019073486328125</ele>
        <time>2018-09-07T11:09:59.000Z</time>
      </trkpt>
      <trkpt lat="43.40971894562244415283203125" lon="-5.102524459362030029296875">
        <ele>8.80000019073486328125</ele>
        <time>2018-09-07T11:10:02.000Z</time>
      </trkpt>
      <trkpt lat="43.409776277840137481689453125" lon="-5.1030922494828701019287109375">
        <ele>9</ele>
        <time>2018-09-07T11:10:09.000Z</time>
      </trkpt>
      <trkpt lat="43.40977795422077178955078125" lon="-5.10351561941206455230712890625">
        <ele>8.6000003814697265625</ele>
        <time>2018-09-07T11:10:14.000Z</time>
      </trkpt>
      <trkpt lat="43.4097838215529918670654296875" lon="-5.1037674956023693084716796875">
        <ele>8.19999980926513671875</ele>
        <time>2018-09-07T11:10:17.000Z</time>
      </trkpt>
      <trkpt lat="43.4098002500832080841064453125" lon="-5.1040987484157085418701171875">
        <ele>8.3999996185302734375</ele>
        <time>2018-09-07T11:10:21.000Z</time>
      </trkpt>
      <trkpt lat="43.40979178436100482940673828125" lon="-5.10417846031486988067626953125">
        <ele>8.3999996185302734375</ele>
        <time>2018-09-07T11:10:22.000Z</time>
      </trkpt>
      <trkpt lat="43.4097938798367977142333984375" lon="-5.10426077060401439666748046875">
        <ele>8.3999996185302734375</ele>
        <time>2018-09-07T11:10:23.000Z</time>
      </trkpt>
      <trkpt lat="43.40980343520641326904296875" lon="-5.1044219546020030975341796875">
        <ele>8.6000003814697265625</ele>
        <time>2018-09-07T11:10:25.000Z</time>
      </trkpt>
      <trkpt lat="43.409838639199733734130859375" lon="-5.10474943555891513824462890625">
        <ele>8.6000003814697265625</ele>
        <time>2018-09-07T11:10:29.000Z</time>
      </trkpt>
      <trkpt lat="43.4098562411963939666748046875" lon="-5.10499469004571437835693359375">
        <ele>8.3999996185302734375</ele>
        <time>2018-09-07T11:10:32.000Z</time>
      </trkpt>
      <trkpt lat="43.4098778665065765380859375" lon="-5.10524765588343143463134765625">
        <ele>8.6000003814697265625</ele>
        <time>2018-09-07T11:10:35.000Z</time>
      </trkpt>
      <trkpt lat="43.40989856980741024017333984375" lon="-5.1054988615214824676513671875">
        <ele>8.80000019073486328125</ele>
        <time>2018-09-07T11:10:38.000Z</time>
      </trkpt>
      <trkpt lat="43.40989999473094940185546875" lon="-5.10627980343997478485107421875">
        <ele>9.19999980926513671875</ele>
        <time>2018-09-07T11:10:47.000Z</time>
      </trkpt>
      <trkpt lat="43.40984811075031757354736328125" lon="-5.1068718172609806060791015625">
        <ele>9.3999996185302734375</ele>
        <time>2018-09-07T11:10:54.000Z</time>
      </trkpt>
      <trkpt lat="43.40974233113229274749755859375" lon="-5.107545889914035797119140625">
        <ele>9</ele>
        <time>2018-09-07T11:11:02.000Z</time>
      </trkpt>
      <trkpt lat="43.4096855856478214263916015625" lon="-5.1079420186579227447509765625">
        <ele>9.80000019073486328125</ele>
        <time>2018-09-07T11:11:07.000Z</time>
      </trkpt>
      <trkpt lat="43.4096523933112621307373046875" lon="-5.1082390733063220977783203125">
        <ele>10.3999996185302734375</ele>
        <time>2018-09-07T11:11:11.000Z</time>
      </trkpt>
      <trkpt lat="43.409624733030796051025390625" lon="-5.10844568721950054168701171875">
        <ele>11</ele>
        <time>2018-09-07T11:11:14.000Z</time>
      </trkpt>
      <trkpt lat="43.40959162451326847076416015625" lon="-5.108840055763721466064453125">
        <ele>12</ele>
        <time>2018-09-07T11:11:20.000Z</time>
      </trkpt>
      <trkpt lat="43.40959145687520503997802734375" lon="-5.109157897531986236572265625">
        <ele>12.80000019073486328125</ele>
        <time>2018-09-07T11:11:25.000Z</time>
      </trkpt>
      <trkpt lat="43.40960185043513774871826171875" lon="-5.10927583090960979461669921875">
        <ele>13.19999980926513671875</ele>
        <time>2018-09-07T11:11:27.000Z</time>
      </trkpt>
      <trkpt lat="43.40961509384214878082275390625" lon="-5.10939787141978740692138671875">
        <ele>13.6000003814697265625</ele>
        <time>2018-09-07T11:11:29.000Z</time>
      </trkpt>
      <trkpt lat="43.4096295945346355438232421875" lon="-5.1095129549503326416015625">
        <ele>14.3999996185302734375</ele>
        <time>2018-09-07T11:11:31.000Z</time>
      </trkpt>
      <trkpt lat="43.409656248986721038818359375" lon="-5.10967967100441455841064453125">
        <ele>14.80000019073486328125</ele>
        <time>2018-09-07T11:11:34.000Z</time>
      </trkpt>
      <trkpt lat="43.4096647985279560089111328125" lon="-5.10973147116601467132568359375">
        <ele>15</ele>
        <time>2018-09-07T11:11:35.000Z</time>
      </trkpt>
      <trkpt lat="43.4096926264464855194091796875" lon="-5.10989055968821048736572265625">
        <ele>15.3999996185302734375</ele>
        <time>2018-09-07T11:11:38.000Z</time>
      </trkpt>
      <trkpt lat="43.40977535583078861236572265625" lon="-5.1102514006197452545166015625">
        <ele>16.6000003814697265625</ele>
        <time>2018-09-07T11:11:45.000Z</time>
      </trkpt>
      <trkpt lat="43.40983218513429164886474609375" lon="-5.110553987324237823486328125">
        <ele>17.6000003814697265625</ele>
        <time>2018-09-07T11:11:51.000Z</time>
      </trkpt>
      <trkpt lat="43.40985984541475772857666015625" lon="-5.11074517853558063507080078125">
        <ele>18.6000003814697265625</ele>
        <time>2018-09-07T11:11:55.000Z</time>
      </trkpt>
      <trkpt lat="43.40986437164247035980224609375" lon="-5.11079094372689723968505859375">
        <ele>18.6000003814697265625</ele>
        <time>2018-09-07T11:11:56.000Z</time>
      </trkpt>
      <trkpt lat="43.409880883991718292236328125" lon="-5.11112621985375881195068359375">
        <ele>19.799999237060546875</ele>
        <time>2018-09-07T11:12:03.000Z</time>
      </trkpt>
      <trkpt lat="43.4098304249346256256103515625" lon="-5.111448504030704498291015625">
        <ele>21</ele>
        <time>2018-09-07T11:12:10.000Z</time>
      </trkpt>
      <trkpt lat="43.40981726534664630889892578125" lon="-5.111494101583957672119140625">
        <ele>21.200000762939453125</ele>
        <time>2018-09-07T11:12:11.000Z</time>
      </trkpt>
      <trkpt lat="43.40970025397837162017822265625" lon="-5.111785791814327239990234375">
        <ele>22</ele>
        <time>2018-09-07T11:12:18.000Z</time>
      </trkpt>
      <trkpt lat="43.409680388867855072021484375" lon="-5.11182577349245548248291015625">
        <ele>22.3999996185302734375</ele>
        <time>2018-09-07T11:12:19.000Z</time>
      </trkpt>
      <trkpt lat="43.40954954735934734344482421875" lon="-5.11204898357391357421875">
        <ele>23.200000762939453125</ele>
        <time>2018-09-07T11:12:25.000Z</time>
      </trkpt>
      <trkpt lat="43.4095025248825550079345703125" lon="-5.112123079597949981689453125">
        <ele>23.3999996185302734375</ele>
        <time>2018-09-07T11:12:27.000Z</time>
      </trkpt>
      <trkpt lat="43.4093414247035980224609375" lon="-5.1123904623091220855712890625">
        <ele>24.200000762939453125</ele>
        <time>2018-09-07T11:12:34.000Z</time>
      </trkpt>
      <trkpt lat="43.4093120880424976348876953125" lon="-5.11242742650210857391357421875">
        <ele>24.200000762939453125</ele>
        <time>2018-09-07T11:12:35.000Z</time>
      </trkpt>
      <trkpt lat="43.40913598425686359405517578125" lon="-5.1126798056066036224365234375">
        <ele>25.200000762939453125</ele>
        <time>2018-09-07T11:12:42.000Z</time>
      </trkpt>
      <trkpt lat="43.4089550189673900604248046875" lon="-5.11294291354715824127197265625">
        <ele>26.3999996185302734375</ele>
        <time>2018-09-07T11:12:49.000Z</time>
      </trkpt>
      <trkpt lat="43.40877472423017024993896484375" lon="-5.11320174671709537506103515625">
        <ele>26.799999237060546875</ele>
        <time>2018-09-07T11:12:56.000Z</time>
      </trkpt>
      <trkpt lat="43.40866777114570140838623046875" lon="-5.11337072588503360748291015625">
        <ele>27.3999996185302734375</ele>
        <time>2018-09-07T11:13:01.000Z</time>
      </trkpt>
      <trkpt lat="43.40849577449262142181396484375" lon="-5.1135699637234210968017578125">
        <ele>27.6000003814697265625</ele>
        <time>2018-09-07T11:13:06.000Z</time>
      </trkpt>
      <trkpt lat="43.4083414636552333831787109375" lon="-5.11375294066965579986572265625">
        <ele>27.6000003814697265625</ele>
        <time>2018-09-07T11:13:10.000Z</time>
      </trkpt>
      <trkpt lat="43.4082321636378765106201171875" lon="-5.11391102336347103118896484375">
        <ele>27.6000003814697265625</ele>
        <time>2018-09-07T11:13:13.000Z</time>
      </trkpt>
      <trkpt lat="43.40807047672569751739501953125" lon="-5.1141597144305706024169921875">
        <ele>27.799999237060546875</ele>
        <time>2018-09-07T11:13:18.000Z</time>
      </trkpt>
      <trkpt lat="43.40804046951234340667724609375" lon="-5.11420757509768009185791015625">
        <ele>27.799999237060546875</ele>
        <time>2018-09-07T11:13:19.000Z</time>
      </trkpt>
      <trkpt lat="43.40790384449064731597900390625" lon="-5.11440237052738666534423828125">
        <ele>27.799999237060546875</ele>
        <time>2018-09-07T11:13:23.000Z</time>
      </trkpt>
      <trkpt lat="43.40780384838581085205078125" lon="-5.11456095613539218902587890625">
        <ele>27.799999237060546875</ele>
        <time>2018-09-07T11:13:26.000Z</time>
      </trkpt>
      <trkpt lat="43.40762087143957614898681640625" lon="-5.1149110682308673858642578125">
        <ele>28.200000762939453125</ele>
        <time>2018-09-07T11:13:32.000Z</time>
      </trkpt>
      <trkpt lat="43.40756739489734172821044921875" lon="-5.11504325084388256072998046875">
        <ele>28.3999996185302734375</ele>
        <time>2018-09-07T11:13:34.000Z</time>
      </trkpt>
      <trkpt lat="43.40748474933207035064697265625" lon="-5.11530593968927860260009765625">
        <ele>28.799999237060546875</ele>
        <time>2018-09-07T11:13:38.000Z</time>
      </trkpt>
      <trkpt lat="43.4074690751731395721435546875" lon="-5.1153708994388580322265625">
        <ele>28.799999237060546875</ele>
        <time>2018-09-07T11:13:39.000Z</time>
      </trkpt>
      <trkpt lat="43.40742624364793300628662109375" lon="-5.115567035973072052001953125">
        <ele>29.3999996185302734375</ele>
        <time>2018-09-07T11:13:42.000Z</time>
      </trkpt>
      <trkpt lat="43.40738810598850250244140625" lon="-5.1158223487436771392822265625">
        <ele>30</ele>
        <time>2018-09-07T11:13:46.000Z</time>
      </trkpt>
      <trkpt lat="43.407394476234912872314453125" lon="-5.11588177643716335296630859375">
        <ele>30.200000762939453125</ele>
        <time>2018-09-07T11:13:47.000Z</time>
      </trkpt>
      <trkpt lat="43.40739539824426174163818359375" lon="-5.11606768704950809478759765625">
        <ele>30.3999996185302734375</ele>
        <time>2018-09-07T11:13:50.000Z</time>
      </trkpt>
      <trkpt lat="43.4073879383504390716552734375" lon="-5.1161326467990875244140625">
        <ele>30.6000003814697265625</ele>
        <time>2018-09-07T11:13:51.000Z</time>
      </trkpt>
      <trkpt lat="43.40729967691004276275634765625" lon="-5.11654377914965152740478515625">
        <ele>31.6000003814697265625</ele>
        <time>2018-09-07T11:13:57.000Z</time>
      </trkpt>
      <trkpt lat="43.4072783030569553375244140625" lon="-5.11660865508019924163818359375">
        <ele>31.6000003814697265625</ele>
        <time>2018-09-07T11:13:58.000Z</time>
      </trkpt>
      <trkpt lat="43.40713254176080226898193359375" lon="-5.1169693283736705780029296875">
        <ele>31.3999996185302734375</ele>
        <time>2018-09-07T11:14:03.000Z</time>
      </trkpt>
      <trkpt lat="43.40705827809870243072509765625" lon="-5.11712439358234405517578125">
        <ele>30.799999237060546875</ele>
        <time>2018-09-07T11:14:05.000Z</time>
      </trkpt>
      <trkpt lat="43.407018966972827911376953125" lon="-5.11720360256731510162353515625">
        <ele>30.3999996185302734375</ele>
        <time>2018-09-07T11:14:06.000Z</time>
      </trkpt>
      <trkpt lat="43.4069408476352691650390625" lon="-5.11736436747014522552490234375">
        <ele>29.6000003814697265625</ele>
        <time>2018-09-07T11:14:08.000Z</time>
      </trkpt>
      <trkpt lat="43.40689994394779205322265625" lon="-5.11745036579668521881103515625">
        <ele>29</ele>
        <time>2018-09-07T11:14:09.000Z</time>
      </trkpt>
      <trkpt lat="43.4068121016025543212890625" lon="-5.117630325257778167724609375">
        <ele>28.200000762939453125</ele>
        <time>2018-09-07T11:14:11.000Z</time>
      </trkpt>
      <trkpt lat="43.40676742605865001678466796875" lon="-5.11772629804909229278564453125">
        <ele>27.799999237060546875</ele>
        <time>2018-09-07T11:14:12.000Z</time>
      </trkpt>
      <trkpt lat="43.40663306415081024169921875" lon="-5.1180311478674411773681640625">
        <ele>26.6000003814697265625</ele>
        <time>2018-09-07T11:14:15.000Z</time>
      </trkpt>
      <trkpt lat="43.40649090707302093505859375" lon="-5.11833750642836093902587890625">
        <ele>25.3999996185302734375</ele>
        <time>2018-09-07T11:14:18.000Z</time>
      </trkpt>
      <trkpt lat="43.40639962814748287200927734375" lon="-5.11853934265673160552978515625">
        <ele>24.6000003814697265625</ele>
        <time>2018-09-07T11:14:20.000Z</time>
      </trkpt>
      <trkpt lat="43.40635252185165882110595703125" lon="-5.11864252388477325439453125">
        <ele>24.3999996185302734375</ele>
        <time>2018-09-07T11:14:21.000Z</time>
      </trkpt>
      <trkpt lat="43.40625780634582042694091796875" lon="-5.11884863488376140594482421875">
        <ele>23.6000003814697265625</ele>
        <time>2018-09-07T11:14:23.000Z</time>
      </trkpt>
      <trkpt lat="43.4062111191451549530029296875" lon="-5.11895366013050079345703125">
        <ele>23.200000762939453125</ele>
        <time>2018-09-07T11:14:24.000Z</time>
      </trkpt>
      <trkpt lat="43.4061651863157749176025390625" lon="-5.11906069703400135040283203125">
        <ele>23</ele>
        <time>2018-09-07T11:14:25.000Z</time>
      </trkpt>
      <trkpt lat="43.40602663345634937286376953125" lon="-5.11937652714550495147705078125">
        <ele>22.200000762939453125</ele>
        <time>2018-09-07T11:14:28.000Z</time>
      </trkpt>
      <trkpt lat="43.40597902424633502960205078125" lon="-5.11947995983064174652099609375">
        <ele>22</ele>
        <time>2018-09-07T11:14:29.000Z</time>
      </trkpt>
      <trkpt lat="43.40580183081328868865966796875" lon="-5.11988346464931964874267578125">
        <ele>21.3999996185302734375</ele>
        <time>2018-09-07T11:14:33.000Z</time>
      </trkpt>
      <trkpt lat="43.40571650303900241851806640625" lon="-5.120075829327106475830078125">
        <ele>21.3999996185302734375</ele>
        <time>2018-09-07T11:14:35.000Z</time>
      </trkpt>
      <trkpt lat="43.4056292474269866943359375" lon="-5.12026417069137096405029296875">
        <ele>21.6000003814697265625</ele>
        <time>2018-09-07T11:14:37.000Z</time>
      </trkpt>
      <trkpt lat="43.4053508006036281585693359375" lon="-5.12087822891771793365478515625">
        <ele>21.799999237060546875</ele>
        <time>2018-09-07T11:14:44.000Z</time>
      </trkpt>
      <trkpt lat="43.4052099846303462982177734375" lon="-5.12119422666728496551513671875">
        <ele>21.799999237060546875</ele>
        <time>2018-09-07T11:14:48.000Z</time>
      </trkpt>
      <trkpt lat="43.40507805347442626953125" lon="-5.12149195186793804168701171875">
        <ele>22</ele>
        <time>2018-09-07T11:14:52.000Z</time>
      </trkpt>
      <trkpt lat="43.40495400130748748779296875" lon="-5.12176922522485256195068359375">
        <ele>22.6000003814697265625</ele>
        <time>2018-09-07T11:14:56.000Z</time>
      </trkpt>
      <trkpt lat="43.404840342700481414794921875" lon="-5.122044570744037628173828125">
        <ele>22.6000003814697265625</ele>
        <time>2018-09-07T11:15:00.000Z</time>
      </trkpt>
      <trkpt lat="43.4048111736774444580078125" lon="-5.12211388908326625823974609375">
        <ele>22.799999237060546875</ele>
        <time>2018-09-07T11:15:01.000Z</time>
      </trkpt>
      <trkpt lat="43.4046904742717742919921875" lon="-5.122467018663883209228515625">
        <ele>23.200000762939453125</ele>
        <time>2018-09-07T11:15:06.000Z</time>
      </trkpt>
      <trkpt lat="43.4046547673642635345458984375" lon="-5.12259786017239093780517578125">
        <ele>24</ele>
        <time>2018-09-07T11:15:08.000Z</time>
      </trkpt>
      <trkpt lat="43.40463238768279552459716796875" lon="-5.1227219961583614349365234375">
        <ele>24.3999996185302734375</ele>
        <time>2018-09-07T11:15:10.000Z</time>
      </trkpt>
      <trkpt lat="43.40461201965808868408203125" lon="-5.12294285930693149566650390625">
        <ele>25.3999996185302734375</ele>
        <time>2018-09-07T11:15:14.000Z</time>
      </trkpt>
      <trkpt lat="43.40461109764873981475830078125" lon="-5.122995413839817047119140625">
        <ele>25.6000003814697265625</ele>
        <time>2018-09-07T11:15:15.000Z</time>
      </trkpt>
      <trkpt lat="43.40460824780166149139404296875" lon="-5.12309633195400238037109375">
        <ele>26.3999996185302734375</ele>
        <time>2018-09-07T11:15:17.000Z</time>
      </trkpt>
      <trkpt lat="43.40460824780166149139404296875" lon="-5.1231461204588413238525390625">
        <ele>26.6000003814697265625</ele>
        <time>2018-09-07T11:15:18.000Z</time>
      </trkpt>
      <trkpt lat="43.40460942126810550689697265625" lon="-5.1232413388788700103759765625">
        <ele>27.200000762939453125</ele>
        <time>2018-09-07T11:15:20.000Z</time>
      </trkpt>
      <trkpt lat="43.404619060456752777099609375" lon="-5.123336054384708404541015625">
        <ele>27.6000003814697265625</ele>
        <time>2018-09-07T11:15:22.000Z</time>
      </trkpt>
      <trkpt lat="43.4046282805502414703369140625" lon="-5.12338341213762760162353515625">
        <ele>27.799999237060546875</ele>
        <time>2018-09-07T11:15:23.000Z</time>
      </trkpt>
      <trkpt lat="43.404690809547901153564453125" lon="-5.12360955588519573211669921875">
        <ele>28.6000003814697265625</ele>
        <time>2018-09-07T11:15:28.000Z</time>
      </trkpt>
      <trkpt lat="43.40470480732619762420654296875" lon="-5.12365758419036865234375">
        <ele>28.799999237060546875</ele>
        <time>2018-09-07T11:15:29.000Z</time>
      </trkpt>
      <trkpt lat="43.4048046357929706573486328125" lon="-5.123937539756298065185546875">
        <ele>29.799999237060546875</ele>
        <time>2018-09-07T11:15:35.000Z</time>
      </trkpt>
      <trkpt lat="43.404824919998645782470703125" lon="-5.12397986836731433868408203125">
        <ele>30</ele>
        <time>2018-09-07T11:15:36.000Z</time>
      </trkpt>
      <trkpt lat="43.40491921640932559967041015625" lon="-5.1241980493068695068359375">
        <ele>30.799999237060546875</ele>
        <time>2018-09-07T11:15:41.000Z</time>
      </trkpt>
      <trkpt lat="43.40498459525406360626220703125" lon="-5.12432721443474292755126953125">
        <ele>31.200000762939453125</ele>
        <time>2018-09-07T11:15:44.000Z</time>
      </trkpt>
      <trkpt lat="43.40506791137158870697021484375" lon="-5.1245160587131977081298828125">
        <ele>31.3999996185302734375</ele>
        <time>2018-09-07T11:15:48.000Z</time>
      </trkpt>
      <trkpt lat="43.4052254073321819305419921875" lon="-5.12485628016293048858642578125">
        <ele>32</ele>
        <time>2018-09-07T11:15:55.000Z</time>
      </trkpt>
      <trkpt lat="43.40529506094753742218017578125" lon="-5.125011093914508819580078125">
        <ele>32.200000762939453125</ele>
        <time>2018-09-07T11:15:58.000Z</time>
      </trkpt>
      <trkpt lat="43.405318446457386016845703125" lon="-5.12506314553320407867431640625">
        <ele>32.40000152587890625</ele>
        <time>2018-09-07T11:15:59.000Z</time>
      </trkpt>
      <trkpt lat="43.405505530536174774169921875" lon="-5.1254689134657382965087890625">
        <ele>32.799999237060546875</ele>
        <time>2018-09-07T11:16:07.000Z</time>
      </trkpt>
      <trkpt lat="43.405579291284084320068359375" lon="-5.1256388984620571136474609375">
        <ele>32.799999237060546875</ele>
        <time>2018-09-07T11:16:10.000Z</time>
      </trkpt>
      <trkpt lat="43.4056817181408405303955078125" lon="-5.12586277909576892852783203125">
        <ele>32.799999237060546875</ele>
        <time>2018-09-07T11:16:14.000Z</time>
      </trkpt>
      <trkpt lat="43.40585480444133281707763671875" lon="-5.12626536190509796142578125">
        <ele>33.40000152587890625</ele>
        <time>2018-09-07T11:16:21.000Z</time>
      </trkpt>
      <trkpt lat="43.40590492822229862213134765625" lon="-5.1263761706650257110595703125">
        <ele>33.59999847412109375</ele>
        <time>2018-09-07T11:16:23.000Z</time>
      </trkpt>
      <trkpt lat="43.40605127625167369842529296875" lon="-5.12675008736550807952880859375">
        <ele>34.200000762939453125</ele>
        <time>2018-09-07T11:16:30.000Z</time>
      </trkpt>
      <trkpt lat="43.4060682915151119232177734375" lon="-5.12680322863161563873291015625">
        <ele>34.200000762939453125</ele>
        <time>2018-09-07T11:16:31.000Z</time>
      </trkpt>
      <trkpt lat="43.4061169065535068511962890625" lon="-5.12697405181825160980224609375">
        <ele>34.40000152587890625</ele>
        <time>2018-09-07T11:16:34.000Z</time>
      </trkpt>
      <trkpt lat="43.406174741685390472412109375" lon="-5.12730563990771770477294921875">
        <ele>34.200000762939453125</ele>
        <time>2018-09-07T11:16:39.000Z</time>
      </trkpt>
      <trkpt lat="43.4061896614730358123779296875" lon="-5.12745668180286884307861328125">
        <ele>33.799999237060546875</ele>
        <time>2018-09-07T11:16:41.000Z</time>
      </trkpt>
      <trkpt lat="43.40622134506702423095703125" lon="-5.12786823324859142303466796875">
        <ele>32.59999847412109375</ele>
        <time>2018-09-07T11:16:46.000Z</time>
      </trkpt>
      <trkpt lat="43.40622310526669025421142578125" lon="-5.12804894708096981048583984375">
        <ele>32.200000762939453125</ele>
        <time>2018-09-07T11:16:48.000Z</time>
      </trkpt>
      <trkpt lat="43.4062178246676921844482421875" lon="-5.12844038195908069610595703125">
        <ele>31.200000762939453125</ele>
        <time>2018-09-07T11:16:52.000Z</time>
      </trkpt>
      <trkpt lat="43.40620231814682483673095703125" lon="-5.12874506413936614990234375">
        <ele>30.3999996185302734375</ele>
        <time>2018-09-07T11:16:55.000Z</time>
      </trkpt>
      <trkpt lat="43.40619863010942935943603515625" lon="-5.12895100750029087066650390625">
        <ele>30.200000762939453125</ele>
        <time>2018-09-07T11:16:57.000Z</time>
      </trkpt>
      <trkpt lat="43.40619142167270183563232421875" lon="-5.12935660779476165771484375">
        <ele>29.6000003814697265625</ele>
        <time>2018-09-07T11:17:01.000Z</time>
      </trkpt>
      <trkpt lat="43.40618706308305263519287109375" lon="-5.12967319227755069732666015625">
        <ele>29</ele>
        <time>2018-09-07T11:17:04.000Z</time>
      </trkpt>
      <trkpt lat="43.40618320740759372711181640625" lon="-5.1299969851970672607421875">
        <ele>28.799999237060546875</ele>
        <time>2018-09-07T11:17:07.000Z</time>
      </trkpt>
      <trkpt lat="43.4061951935291290283203125" lon="-5.13021357357501983642578125">
        <ele>28.200000762939453125</ele>
        <time>2018-09-07T11:17:09.000Z</time>
      </trkpt>
      <trkpt lat="43.40622402727603912353515625" lon="-5.13043812476098537445068359375">
        <ele>28</ele>
        <time>2018-09-07T11:17:11.000Z</time>
      </trkpt>
      <trkpt lat="43.4062811918556690216064453125" lon="-5.13079720549285411834716796875">
        <ele>26.6000003814697265625</ele>
        <time>2018-09-07T11:17:14.000Z</time>
      </trkpt>
      <trkpt lat="43.40637247078120708465576171875" lon="-5.13115645386278629302978515625">
        <ele>25.200000762939453125</ele>
        <time>2018-09-07T11:17:17.000Z</time>
      </trkpt>
      <trkpt lat="43.40645226649940013885498046875" lon="-5.13139508664608001708984375">
        <ele>24.6000003814697265625</ele>
        <time>2018-09-07T11:17:19.000Z</time>
      </trkpt>
      <trkpt lat="43.40649568475782871246337890625" lon="-5.131513774394989013671875">
        <ele>24.200000762939453125</ele>
        <time>2018-09-07T11:17:20.000Z</time>
      </trkpt>
      <trkpt lat="43.406588472425937652587890625" lon="-5.13175391592085361480712890625">
        <ele>23.200000762939453125</ele>
        <time>2018-09-07T11:17:22.000Z</time>
      </trkpt>
      <trkpt lat="43.40663482435047626495361328125" lon="-5.1318787224590778350830078125">
        <ele>22.799999237060546875</ele>
        <time>2018-09-07T11:17:23.000Z</time>
      </trkpt>
      <trkpt lat="43.4066833555698394775390625" lon="-5.13200461864471435546875">
        <ele>22.200000762939453125</ele>
        <time>2018-09-07T11:17:24.000Z</time>
      </trkpt>
      <trkpt lat="43.40677966363728046417236328125" lon="-5.13225867412984371185302734375">
        <ele>21.200000762939453125</ele>
        <time>2018-09-07T11:17:26.000Z</time>
      </trkpt>
      <trkpt lat="43.40688477270305156707763671875" lon="-5.13252035714685916900634765625">
        <ele>20</ele>
        <time>2018-09-07T11:17:28.000Z</time>
      </trkpt>
      <trkpt lat="43.4070312045514583587646484375" lon="-5.132925622165203094482421875">
        <ele>18.799999237060546875</ele>
        <time>2018-09-07T11:17:31.000Z</time>
      </trkpt>
      <trkpt lat="43.40706967748701572418212890625" lon="-5.13306350447237491607666015625">
        <ele>17.799999237060546875</ele>
        <time>2018-09-07T11:17:32.000Z</time>
      </trkpt>
      <trkpt lat="43.4070999361574649810791015625" lon="-5.13320147059857845306396484375">
        <ele>17.3999996185302734375</ele>
        <time>2018-09-07T11:17:33.000Z</time>
      </trkpt>
      <trkpt lat="43.407102786004543304443359375" lon="-5.13334496878087520599365234375">
        <ele>17.200000762939453125</ele>
        <time>2018-09-07T11:17:34.000Z</time>
      </trkpt>
      <trkpt lat="43.407107479870319366455078125" lon="-5.13348846696317195892333984375">
        <ele>17</ele>
        <time>2018-09-07T11:17:35.000Z</time>
      </trkpt>
      <trkpt lat="43.40709834359586238861083984375" lon="-5.133906640112400054931640625">
        <ele>16.3999996185302734375</ele>
        <time>2018-09-07T11:17:38.000Z</time>
      </trkpt>
      <trkpt lat="43.4070711024105548858642578125" lon="-5.13416203670203685760498046875">
        <ele>15.80000019073486328125</ele>
        <time>2018-09-07T11:17:40.000Z</time>
      </trkpt>
      <trkpt lat="43.40704654343426227569580078125" lon="-5.13427820987999439239501953125">
        <ele>15.6000003814697265625</ele>
        <time>2018-09-07T11:17:41.000Z</time>
      </trkpt>
      <trkpt lat="43.40692550875246524810791015625" lon="-5.13459353707730770111083984375">
        <ele>16</ele>
        <time>2018-09-07T11:17:44.000Z</time>
      </trkpt>
      <trkpt lat="43.40674362145364284515380859375" lon="-5.1348318345844745635986328125">
        <ele>16.6000003814697265625</ele>
        <time>2018-09-07T11:17:47.000Z</time>
      </trkpt>
      <trkpt lat="43.40668075717985630035400390625" lon="-5.13490475714206695556640625">
        <ele>16.799999237060546875</ele>
        <time>2018-09-07T11:17:48.000Z</time>
      </trkpt>
      <trkpt lat="43.40648294426500797271728515625" lon="-5.13510986231267452239990234375">
        <ele>16.799999237060546875</ele>
        <time>2018-09-07T11:17:51.000Z</time>
      </trkpt>
      <trkpt lat="43.4062389470636844635009765625" lon="-5.135377161204814910888671875">
        <ele>17.200000762939453125</ele>
        <time>2018-09-07T11:17:55.000Z</time>
      </trkpt>
      <trkpt lat="43.4059358574450016021728515625" lon="-5.13564278371632099151611328125">
        <ele>17.3999996185302734375</ele>
        <time>2018-09-07T11:18:00.000Z</time>
      </trkpt>
      <trkpt lat="43.40586771257221698760986328125" lon="-5.1356767304241657257080078125">
        <ele>17.6000003814697265625</ele>
        <time>2018-09-07T11:18:01.000Z</time>
      </trkpt>
      <trkpt lat="43.40573326684534549713134765625" lon="-5.1357293687760829925537109375">
        <ele>17.3999996185302734375</ele>
        <time>2018-09-07T11:18:03.000Z</time>
      </trkpt>
      <trkpt lat="43.4055170975625514984130859375" lon="-5.13579751364886760711669921875">
        <ele>17.200000762939453125</ele>
        <time>2018-09-07T11:18:06.000Z</time>
      </trkpt>
      <trkpt lat="43.40544627048075199127197265625" lon="-5.13581729494035243988037109375">
        <ele>17</ele>
        <time>2018-09-07T11:18:07.000Z</time>
      </trkpt>
      <trkpt lat="43.4050141833722591400146484375" lon="-5.13595224358141422271728515625">
        <ele>16.3999996185302734375</ele>
        <time>2018-09-07T11:18:13.000Z</time>
      </trkpt>
      <trkpt lat="43.40459114871919155120849609375" lon="-5.13604377396404743194580078125">
        <ele>16.6000003814697265625</ele>
        <time>2018-09-07T11:18:19.000Z</time>
      </trkpt>
      <trkpt lat="43.404324017465114593505859375" lon="-5.13609289191663265228271484375">
        <ele>16.3999996185302734375</ele>
        <time>2018-09-07T11:18:23.000Z</time>
      </trkpt>
      <trkpt lat="43.404190242290496826171875" lon="-5.13611979782581329345703125">
        <ele>16.200000762939453125</ele>
        <time>2018-09-07T11:18:25.000Z</time>
      </trkpt>
      <trkpt lat="43.4038055129349231719970703125" lon="-5.13616480864584445953369140625">
        <ele>16.200000762939453125</ele>
        <time>2018-09-07T11:18:31.000Z</time>
      </trkpt>
      <trkpt lat="43.40374558232724666595458984375" lon="-5.13617117889225482940673828125">
        <ele>16</ele>
        <time>2018-09-07T11:18:32.000Z</time>
      </trkpt>
      <trkpt lat="43.403389267623424530029296875" lon="-5.13609305955469608306884765625">
        <ele>16.200000762939453125</ele>
        <time>2018-09-07T11:18:38.000Z</time>
      </trkpt>
      <trkpt lat="43.40317477472126483917236328125" lon="-5.13601007871329784393310546875">
        <ele>16.3999996185302734375</ele>
        <time>2018-09-07T11:18:42.000Z</time>
      </trkpt>
      <trkpt lat="43.4030608646571636199951171875" lon="-5.1360066421329975128173828125">
        <ele>16.200000762939453125</ele>
        <time>2018-09-07T11:18:44.000Z</time>
      </trkpt>
      <trkpt lat="43.40288828127086162567138671875" lon="-5.1360659860074520111083984375">
        <ele>15.80000019073486328125</ele>
        <time>2018-09-07T11:18:47.000Z</time>
      </trkpt>
      <trkpt lat="43.4028295241296291351318359375" lon="-5.13610077090561389923095703125">
        <ele>15.80000019073486328125</ele>
        <time>2018-09-07T11:18:48.000Z</time>
      </trkpt>
      <trkpt lat="43.402487374842166900634765625" lon="-5.1363057084381580352783203125">
        <ele>16</ele>
        <time>2018-09-07T11:18:54.000Z</time>
      </trkpt>
      <trkpt lat="43.4023866243660449981689453125" lon="-5.136356838047504425048828125">
        <ele>16.3999996185302734375</ele>
        <time>2018-09-07T11:18:56.000Z</time>
      </trkpt>
      <trkpt lat="43.40211689472198486328125" lon="-5.13646856881678104400634765625">
        <ele>16.3999996185302734375</ele>
        <time>2018-09-07T11:19:01.000Z</time>
      </trkpt>
      <trkpt lat="43.40188287198543548583984375" lon="-5.13647996820509433746337890625">
        <ele>16.6000003814697265625</ele>
        <time>2018-09-07T11:19:05.000Z</time>
      </trkpt>
      <trkpt lat="43.40176460333168506622314453125" lon="-5.1364626176655292510986328125">
        <ele>16.799999237060546875</ele>
        <time>2018-09-07T11:19:07.000Z</time>
      </trkpt>
      <trkpt lat="43.40123671106994152069091796875" lon="-5.1364197023212909698486328125">
        <ele>15.80000019073486328125</ele>
        <time>2018-09-07T11:19:15.000Z</time>
      </trkpt>
      <trkpt lat="43.40078408829867839813232421875" lon="-5.1364750228822231292724609375">
        <ele>15.80000019073486328125</ele>
        <time>2018-09-07T11:19:22.000Z</time>
      </trkpt>
      <trkpt lat="43.400212861597537994384765625" lon="-5.1366061158478260040283203125">
        <ele>15.80000019073486328125</ele>
        <time>2018-09-07T11:19:30.000Z</time>
      </trkpt>
      <trkpt lat="43.3997647650539875030517578125" lon="-5.136700160801410675048828125">
        <ele>16</ele>
        <time>2018-09-07T11:19:37.000Z</time>
      </trkpt>
      <trkpt lat="43.39936939068138599395751953125" lon="-5.13679713942110538482666015625">
        <ele>16.3999996185302734375</ele>
        <time>2018-09-07T11:19:44.000Z</time>
      </trkpt>
      <trkpt lat="43.39919890277087688446044921875" lon="-5.13685748912394046783447265625">
        <ele>16.799999237060546875</ele>
        <time>2018-09-07T11:19:47.000Z</time>
      </trkpt>
      <trkpt lat="43.3990234695374965667724609375" lon="-5.1369507797062397003173828125">
        <ele>16.799999237060546875</ele>
        <time>2018-09-07T11:19:50.000Z</time>
      </trkpt>
      <trkpt lat="43.398679979145526885986328125" lon="-5.137211792171001434326171875">
        <ele>17.200000762939453125</ele>
        <time>2018-09-07T11:19:57.000Z</time>
      </trkpt>
      <trkpt lat="43.3985560946166515350341796875" lon="-5.1373408734798431396484375">
        <ele>17.3999996185302734375</ele>
        <time>2018-09-07T11:20:00.000Z</time>
      </trkpt>
      <trkpt lat="43.3983747102320194244384765625" lon="-5.1375981979072093963623046875">
        <ele>17.200000762939453125</ele>
        <time>2018-09-07T11:20:05.000Z</time>
      </trkpt>
      <trkpt lat="43.39825610630214214324951171875" lon="-5.13782828114926815032958984375">
        <ele>17.3999996185302734375</ele>
        <time>2018-09-07T11:20:09.000Z</time>
      </trkpt>
      <trkpt lat="43.39818050153553485870361328125" lon="-5.13800731860101222991943359375">
        <ele>17.3999996185302734375</ele>
        <time>2018-09-07T11:20:12.000Z</time>
      </trkpt>
      <trkpt lat="43.398111350834369659423828125" lon="-5.1382556743919849395751953125">
        <ele>17.799999237060546875</ele>
        <time>2018-09-07T11:20:16.000Z</time>
      </trkpt>
      <trkpt lat="43.39806918986141681671142578125" lon="-5.1384454406797885894775390625">
        <ele>17.799999237060546875</ele>
        <time>2018-09-07T11:20:19.000Z</time>
      </trkpt>
      <trkpt lat="43.39805343188345432281494140625" lon="-5.1385755278170108795166015625">
        <ele>18</ele>
        <time>2018-09-07T11:20:21.000Z</time>
      </trkpt>
      <trkpt lat="43.3980186469852924346923828125" lon="-5.13890468515455722808837890625">
        <ele>18</ele>
        <time>2018-09-07T11:20:26.000Z</time>
      </trkpt>
      <trkpt lat="43.39804806746542453765869140625" lon="-5.1394304819405078887939453125">
        <ele>18</ele>
        <time>2018-09-07T11:20:34.000Z</time>
      </trkpt>
      <trkpt lat="43.39817597530782222747802734375" lon="-5.13998645357787609100341796875">
        <ele>18</ele>
        <time>2018-09-07T11:20:43.000Z</time>
      </trkpt>
      <trkpt lat="43.3983586169779300689697265625" lon="-5.140622220933437347412109375">
        <ele>18.200000762939453125</ele>
        <time>2018-09-07T11:20:53.000Z</time>
      </trkpt>
      <trkpt lat="43.39837211184203624725341796875" lon="-5.140690617263317108154296875">
        <ele>18.3999996185302734375</ele>
        <time>2018-09-07T11:20:54.000Z</time>
      </trkpt>
      <trkpt lat="43.39846380986273288726806640625" lon="-5.14119043014943599700927734375">
        <ele>18.3999996185302734375</ele>
        <time>2018-09-07T11:21:01.000Z</time>
      </trkpt>
      <trkpt lat="43.39849499054253101348876953125" lon="-5.14158672653138637542724609375">
        <ele>18</ele>
        <time>2018-09-07T11:21:07.000Z</time>
      </trkpt>
      <trkpt lat="43.39849214069545269012451171875" lon="-5.141654871404170989990234375">
        <ele>18.200000762939453125</ele>
        <time>2018-09-07T11:21:08.000Z</time>
      </trkpt>
      <trkpt lat="43.3984545059502124786376953125" lon="-5.14216055162250995635986328125">
        <ele>18</ele>
        <time>2018-09-07T11:21:15.000Z</time>
      </trkpt>
      <trkpt lat="43.39844352565705776214599609375" lon="-5.142236910760402679443359375">
        <ele>18</ele>
        <time>2018-09-07T11:21:16.000Z</time>
      </trkpt>
      <trkpt lat="43.39831561781466007232666015625" lon="-5.14278911054134368896484375">
        <ele>17.6000003814697265625</ele>
        <time>2018-09-07T11:21:23.000Z</time>
      </trkpt>
      <trkpt lat="43.39829198084771633148193359375" lon="-5.1428673975169658660888671875">
        <ele>17.3999996185302734375</ele>
        <time>2018-09-07T11:21:24.000Z</time>
      </trkpt>
      <trkpt lat="43.3982422761619091033935546875" lon="-5.14301986433565616607666015625">
        <ele>17.3999996185302734375</ele>
        <time>2018-09-07T11:21:26.000Z</time>
      </trkpt>
      <trkpt lat="43.39813088066875934600830078125" lon="-5.14341498725116252899169921875">
        <ele>17.200000762939453125</ele>
        <time>2018-09-07T11:21:31.000Z</time>
      </trkpt>
      <trkpt lat="43.3979522623121738433837890625" lon="-5.144071541726589202880859375">
        <ele>16.799999237060546875</ele>
        <time>2018-09-07T11:21:39.000Z</time>
      </trkpt>
      <trkpt lat="43.3978060819208621978759765625" lon="-5.14465232379734516143798828125">
        <ele>16.200000762939453125</ele>
        <time>2018-09-07T11:21:46.000Z</time>
      </trkpt>
      <trkpt lat="43.39776643551886081695556640625" lon="-5.1448183692991733551025390625">
        <ele>16.200000762939453125</ele>
        <time>2018-09-07T11:21:48.000Z</time>
      </trkpt>
      <trkpt lat="43.39758823625743389129638671875" lon="-5.14554348774254322052001953125">
        <ele>15.80000019073486328125</ele>
        <time>2018-09-07T11:21:57.000Z</time>
      </trkpt>
      <trkpt lat="43.39756585657596588134765625" lon="-5.14562445692718029022216796875">
        <ele>15.80000019073486328125</ele>
        <time>2018-09-07T11:21:58.000Z</time>
      </trkpt>
      <trkpt lat="43.3973715640604496002197265625" lon="-5.14635686762630939483642578125">
        <ele>15.80000019073486328125</ele>
        <time>2018-09-07T11:22:07.000Z</time>
      </trkpt>
      <trkpt lat="43.39734901674091815948486328125" lon="-5.14643599279224872589111328125">
        <ele>15.80000019073486328125</ele>
        <time>2018-09-07T11:22:08.000Z</time>
      </trkpt>
      <trkpt lat="43.39720769785344600677490234375" lon="-5.1469943113625049591064453125">
        <ele>16</ele>
        <time>2018-09-07T11:22:15.000Z</time>
      </trkpt>
      <trkpt lat="43.397164531052112579345703125" lon="-5.14714644290506839752197265625">
        <ele>16</ele>
        <time>2018-09-07T11:22:17.000Z</time>
      </trkpt>
      <trkpt lat="43.397106193006038665771484375" lon="-5.14737593941390514373779296875">
        <ele>16.200000762939453125</ele>
        <time>2018-09-07T11:22:20.000Z</time>
      </trkpt>
      <trkpt lat="43.397047184407711029052734375" lon="-5.147609710693359375">
        <ele>16.3999996185302734375</ele>
        <time>2018-09-07T11:22:23.000Z</time>
      </trkpt>
      <trkpt lat="43.39693260379135608673095703125" lon="-5.14806459657847881317138671875">
        <ele>16.200000762939453125</ele>
        <time>2018-09-07T11:22:29.000Z</time>
      </trkpt>
      <trkpt lat="43.396823219954967498779296875" lon="-5.14851755462586879730224609375">
        <ele>16.3999996185302734375</ele>
        <time>2018-09-07T11:22:35.000Z</time>
      </trkpt>
      <trkpt lat="43.39676178060472011566162109375" lon="-5.14873648993670940399169921875">
        <ele>16.6000003814697265625</ele>
        <time>2018-09-07T11:22:38.000Z</time>
      </trkpt>
      <trkpt lat="43.3965900354087352752685546875" lon="-5.14942313544452190399169921875">
        <ele>16.6000003814697265625</ele>
        <time>2018-09-07T11:22:47.000Z</time>
      </trkpt>
      <trkpt lat="43.3964076451957225799560546875" lon="-5.15012235380709171295166015625">
        <ele>16.799999237060546875</ele>
        <time>2018-09-07T11:22:56.000Z</time>
      </trkpt>
      <trkpt lat="43.3963674120604991912841796875" lon="-5.15028052031993865966796875">
        <ele>16.799999237060546875</ele>
        <time>2018-09-07T11:22:58.000Z</time>
      </trkpt>
      <trkpt lat="43.39629071764647960662841796875" lon="-5.150585286319255828857421875">
        <ele>16.799999237060546875</ele>
        <time>2018-09-07T11:23:02.000Z</time>
      </trkpt>
      <trkpt lat="43.39622701518237590789794921875" lon="-5.15082324855029582977294921875">
        <ele>16.200000762939453125</ele>
        <time>2018-09-07T11:23:05.000Z</time>
      </trkpt>
      <trkpt lat="43.39609357528388500213623046875" lon="-5.15135549940168857574462890625">
        <ele>16.799999237060546875</ele>
        <time>2018-09-07T11:23:12.000Z</time>
      </trkpt>
      <trkpt lat="43.3959402702748775482177734375" lon="-5.1519577391445636749267578125">
        <ele>17.3999996185302734375</ele>
        <time>2018-09-07T11:23:20.000Z</time>
      </trkpt>
      <trkpt lat="43.39574329555034637451171875" lon="-5.15270146541297435760498046875">
        <ele>17.799999237060546875</ele>
        <time>2018-09-07T11:23:30.000Z</time>
      </trkpt>
      <trkpt lat="43.39555327780544757843017578125" lon="-5.1534582674503326416015625">
        <ele>18.3999996185302734375</ele>
        <time>2018-09-07T11:23:41.000Z</time>
      </trkpt>
      <trkpt lat="43.39552109129726886749267578125" lon="-5.15359304845333099365234375">
        <ele>18.3999996185302734375</ele>
        <time>2018-09-07T11:23:43.000Z</time>
      </trkpt>
      <trkpt lat="43.3954417146742343902587890625" lon="-5.1539056934416294097900390625">
        <ele>18.799999237060546875</ele>
        <time>2018-09-07T11:23:48.000Z</time>
      </trkpt>
      <trkpt lat="43.395297043025493621826171875" lon="-5.154455713927745819091796875">
        <ele>19.3999996185302734375</ele>
        <time>2018-09-07T11:23:57.000Z</time>
      </trkpt>
      <trkpt lat="43.39528187178075313568115234375" lon="-5.15451480634510517120361328125">
        <ele>19.6000003814697265625</ele>
        <time>2018-09-07T11:23:58.000Z</time>
      </trkpt>
      <trkpt lat="43.395220935344696044921875" lon="-5.15483180992305278778076171875">
        <ele>19.799999237060546875</ele>
        <time>2018-09-07T11:24:03.000Z</time>
      </trkpt>
      <trkpt lat="43.39519738219678401947021484375" lon="-5.154964663088321685791015625">
        <ele>20</ele>
        <time>2018-09-07T11:24:05.000Z</time>
      </trkpt>
      <trkpt lat="43.3951579034328460693359375" lon="-5.1552446186542510986328125">
        <ele>20.3999996185302734375</ele>
        <time>2018-09-07T11:24:09.000Z</time>
      </trkpt>
      <trkpt lat="43.3951513655483722686767578125" lon="-5.1553158648312091827392578125">
        <ele>20.6000003814697265625</ele>
        <time>2018-09-07T11:24:10.000Z</time>
      </trkpt>
      <trkpt lat="43.39512169361114501953125" lon="-5.15560294501483440399169921875">
        <ele>21</ele>
        <time>2018-09-07T11:24:14.000Z</time>
      </trkpt>
      <trkpt lat="43.3950906805694103240966796875" lon="-5.15587720088660717010498046875">
        <ele>21.200000762939453125</ele>
        <time>2018-09-07T11:24:18.000Z</time>
      </trkpt>
      <trkpt lat="43.395082466304302215576171875" lon="-5.15608658082783222198486328125">
        <ele>21.6000003814697265625</ele>
        <time>2018-09-07T11:24:21.000Z</time>
      </trkpt>
      <trkpt lat="43.39507282711565494537353515625" lon="-5.1562905125319957733154296875">
        <ele>21.799999237060546875</ele>
        <time>2018-09-07T11:24:24.000Z</time>
      </trkpt>
      <trkpt lat="43.395030498504638671875" lon="-5.1567136310040950775146484375">
        <ele>22</ele>
        <time>2018-09-07T11:24:30.000Z</time>
      </trkpt>
      <trkpt lat="43.39495204389095306396484375" lon="-5.15734654851257801055908203125">
        <ele>22.6000003814697265625</ele>
        <time>2018-09-07T11:24:39.000Z</time>
      </trkpt>
      <trkpt lat="43.3949149958789348602294921875" lon="-5.15772574581205844879150390625">
        <ele>22.3999996185302734375</ele>
        <time>2018-09-07T11:24:44.000Z</time>
      </trkpt>
      <trkpt lat="43.394906781613826751708984375" lon="-5.15781006775796413421630859375">
        <ele>22.200000762939453125</ele>
        <time>2018-09-07T11:24:45.000Z</time>
      </trkpt>
      <trkpt lat="43.39486948214471340179443359375" lon="-5.15834433026611804962158203125">
        <ele>21.200000762939453125</ele>
        <time>2018-09-07T11:24:51.000Z</time>
      </trkpt>
      <trkpt lat="43.3948636986315250396728515625" lon="-5.158542059361934661865234375">
        <ele>20.6000003814697265625</ele>
        <time>2018-09-07T11:24:53.000Z</time>
      </trkpt>
      <trkpt lat="43.39486294426023960113525390625" lon="-5.15893408097326755523681640625">
        <ele>20.3999996185302734375</ele>
        <time>2018-09-07T11:24:57.000Z</time>
      </trkpt>
      <trkpt lat="43.39485808275640010833740234375" lon="-5.15912912786006927490234375">
        <ele>20.3999996185302734375</ele>
        <time>2018-09-07T11:24:59.000Z</time>
      </trkpt>
      <trkpt lat="43.39486780576407909393310546875" lon="-5.15990336425602436065673828125">
        <ele>21.200000762939453125</ele>
        <time>2018-09-07T11:25:07.000Z</time>
      </trkpt>
      <trkpt lat="43.3948737569153308868408203125" lon="-5.1600754447281360626220703125">
        <ele>21.799999237060546875</ele>
        <time>2018-09-07T11:25:09.000Z</time>
      </trkpt>
      <trkpt lat="43.3949012495577335357666015625" lon="-5.16038976609706878662109375">
        <ele>22.799999237060546875</ele>
        <time>2018-09-07T11:25:13.000Z</time>
      </trkpt>
      <trkpt lat="43.39489948935806751251220703125" lon="-5.16046612523496150970458984375">
        <ele>23</ele>
        <time>2018-09-07T11:25:14.000Z</time>
      </trkpt>
      <trkpt lat="43.39487157762050628662109375" lon="-5.160832665860652923583984375">
        <ele>23.6000003814697265625</ele>
        <time>2018-09-07T11:25:19.000Z</time>
      </trkpt>
      <trkpt lat="43.39485816657543182373046875" lon="-5.16097708605229854583740234375">
        <ele>24</ele>
        <time>2018-09-07T11:25:21.000Z</time>
      </trkpt>
      <trkpt lat="43.39483176358044147491455078125" lon="-5.16138209961354732513427734375">
        <ele>24.799999237060546875</ele>
        <time>2018-09-07T11:25:27.000Z</time>
      </trkpt>
      <trkpt lat="43.39481298811733722686767578125" lon="-5.16158427111804485321044921875">
        <ele>25</ele>
        <time>2018-09-07T11:25:30.000Z</time>
      </trkpt>
      <trkpt lat="43.39479957707226276397705078125" lon="-5.16184620559215545654296875">
        <ele>25.6000003814697265625</ele>
        <time>2018-09-07T11:25:34.000Z</time>
      </trkpt>
      <trkpt lat="43.394778035581111907958984375" lon="-5.16228315420448780059814453125">
        <ele>26</ele>
        <time>2018-09-07T11:25:41.000Z</time>
      </trkpt>
      <trkpt lat="43.39476965367794036865234375" lon="-5.16234450973570346832275390625">
        <ele>26</ele>
        <time>2018-09-07T11:25:42.000Z</time>
      </trkpt>
      <trkpt lat="43.394754230976104736328125" lon="-5.16246386803686618804931640625">
        <ele>26.200000762939453125</ele>
        <time>2018-09-07T11:25:44.000Z</time>
      </trkpt>
      <trkpt lat="43.3947443403303623199462890625" lon="-5.1625885069370269775390625">
        <ele>26.3999996185302734375</ele>
        <time>2018-09-07T11:25:46.000Z</time>
      </trkpt>
      <trkpt lat="43.39472246356308460235595703125" lon="-5.1628942787647247314453125">
        <ele>26.799999237060546875</ele>
        <time>2018-09-07T11:25:51.000Z</time>
      </trkpt>
      <trkpt lat="43.39472539722919464111328125" lon="-5.1630288921296596527099609375">
        <ele>26.799999237060546875</ele>
        <time>2018-09-07T11:25:53.000Z</time>
      </trkpt>
      <trkpt lat="43.39473017491400241851806640625" lon="-5.163162164390087127685546875">
        <ele>26.799999237060546875</ele>
        <time>2018-09-07T11:25:55.000Z</time>
      </trkpt>
      <trkpt lat="43.39470553211867809295654296875" lon="-5.16337900422513484954833984375">
        <ele>26.799999237060546875</ele>
        <time>2018-09-07T11:25:58.000Z</time>
      </trkpt>
      <trkpt lat="43.3946735970675945281982421875" lon="-5.163666419684886932373046875">
        <ele>27.200000762939453125</ele>
        <time>2018-09-07T11:26:02.000Z</time>
      </trkpt>
      <trkpt lat="43.39466026984155178070068359375" lon="-5.163878984749317169189453125">
        <ele>26.799999237060546875</ele>
        <time>2018-09-07T11:26:05.000Z</time>
      </trkpt>
      <trkpt lat="43.39458416216075420379638671875" lon="-5.16432599164545536041259765625">
        <ele>26.799999237060546875</ele>
        <time>2018-09-07T11:26:11.000Z</time>
      </trkpt>
      <trkpt lat="43.39456974528729915618896484375" lon="-5.16440059058368206024169921875">
        <ele>26.799999237060546875</ele>
        <time>2018-09-07T11:26:12.000Z</time>
      </trkpt>
      <trkpt lat="43.3945267461240291595458984375" lon="-5.16454760916531085968017578125">
        <ele>27</ele>
        <time>2018-09-07T11:26:14.000Z</time>
      </trkpt>
      <trkpt lat="43.3944618701934814453125" lon="-5.1647713221609592437744140625">
        <ele>27</ele>
        <time>2018-09-07T11:26:17.000Z</time>
      </trkpt>
      <trkpt lat="43.39445407502353191375732421875" lon="-5.16484089195728302001953125">
        <ele>27</ele>
        <time>2018-09-07T11:26:18.000Z</time>
      </trkpt>
      <trkpt lat="43.39444510638713836669921875" lon="-5.16503241844475269317626953125">
        <ele>27.200000762939453125</ele>
        <time>2018-09-07T11:26:21.000Z</time>
      </trkpt>
      <trkpt lat="43.39444435201585292816162109375" lon="-5.1651521958410739898681640625">
        <ele>27</ele>
        <time>2018-09-07T11:26:23.000Z</time>
      </trkpt>
      <trkpt lat="43.39443630538880825042724609375" lon="-5.1652157306671142578125">
        <ele>27.200000762939453125</ele>
        <time>2018-09-07T11:26:24.000Z</time>
      </trkpt>
      <trkpt lat="43.394415937364101409912109375" lon="-5.165336430072784423828125">
        <ele>27.200000762939453125</ele>
        <time>2018-09-07T11:26:26.000Z</time>
      </trkpt>
      <trkpt lat="43.3944050408899784088134765625" lon="-5.1653942652046680450439453125">
        <ele>27.200000762939453125</ele>
        <time>2018-09-07T11:26:27.000Z</time>
      </trkpt>
      <trkpt lat="43.3943923003971576690673828125" lon="-5.16545377671718597412109375">
        <ele>27.200000762939453125</ele>
        <time>2018-09-07T11:26:28.000Z</time>
      </trkpt>
      <trkpt lat="43.3943691663444042205810546875" lon="-5.1655696146190166473388671875">
        <ele>27.3999996185302734375</ele>
        <time>2018-09-07T11:26:30.000Z</time>
      </trkpt>
      <trkpt lat="43.39436195790767669677734375" lon="-5.1656247675418853759765625">
        <ele>27.200000762939453125</ele>
        <time>2018-09-07T11:26:31.000Z</time>
      </trkpt>
      <trkpt lat="43.39434376917779445648193359375" lon="-5.16573465429246425628662109375">
        <ele>27</ele>
        <time>2018-09-07T11:26:33.000Z</time>
      </trkpt>
      <trkpt lat="43.39430152438580989837646484375" lon="-5.16598376445472240447998046875">
        <ele>26.799999237060546875</ele>
        <time>2018-09-07T11:26:37.000Z</time>
      </trkpt>
      <trkpt lat="43.3942887000739574432373046875" lon="-5.16605366952717304229736328125">
        <ele>26.6000003814697265625</ele>
        <time>2018-09-07T11:26:38.000Z</time>
      </trkpt>
      <trkpt lat="43.39427956379950046539306640625" lon="-5.16612441278994083404541015625">
        <ele>26.3999996185302734375</ele>
        <time>2018-09-07T11:26:39.000Z</time>
      </trkpt>
      <trkpt lat="43.39422776363790035247802734375" lon="-5.1665067113935947418212890625">
        <ele>27</ele>
        <time>2018-09-07T11:26:45.000Z</time>
      </trkpt>
      <trkpt lat="43.394177220761775970458984375" lon="-5.16688046045601367950439453125">
        <ele>27.200000762939453125</ele>
        <time>2018-09-07T11:26:51.000Z</time>
      </trkpt>
      <trkpt lat="43.3941431902348995208740234375" lon="-5.1672822050750255584716796875">
        <ele>28</ele>
        <time>2018-09-07T11:26:58.000Z</time>
      </trkpt>
      <trkpt lat="43.39413455687463283538818359375" lon="-5.16745177097618579864501953125">
        <ele>28</ele>
        <time>2018-09-07T11:27:01.000Z</time>
      </trkpt>
      <trkpt lat="43.3941294439136981964111328125" lon="-5.1675081811845302581787109375">
        <ele>28.200000762939453125</ele>
        <time>2018-09-07T11:27:02.000Z</time>
      </trkpt>
      <trkpt lat="43.39411527849733829498291015625" lon="-5.1676707901060581207275390625">
        <ele>28.3999996185302734375</ele>
        <time>2018-09-07T11:27:05.000Z</time>
      </trkpt>
      <trkpt lat="43.3941076509654521942138671875" lon="-5.16777548007667064666748046875">
        <ele>28.799999237060546875</ele>
        <time>2018-09-07T11:27:07.000Z</time>
      </trkpt>
      <trkpt lat="43.3941016159951686859130859375" lon="-5.16787371598184108734130859375">
        <ele>29.200000762939453125</ele>
        <time>2018-09-07T11:27:09.000Z</time>
      </trkpt>
      <trkpt lat="43.3941053040325641632080078125" lon="-5.16815098933875560760498046875">
        <ele>30.3999996185302734375</ele>
        <time>2018-09-07T11:27:15.000Z</time>
      </trkpt>
      <trkpt lat="43.39410639367997646331787109375" lon="-5.16819625161588191986083984375">
        <ele>30.6000003814697265625</ele>
        <time>2018-09-07T11:27:16.000Z</time>
      </trkpt>
      <trkpt lat="43.39411729015409946441650390625" lon="-5.1684637181460857391357421875">
        <ele>31.3999996185302734375</ele>
        <time>2018-09-07T11:27:22.000Z</time>
      </trkpt>
      <trkpt lat="43.39412315748631954193115234375" lon="-5.168584920465946197509765625">
        <ele>31.799999237060546875</ele>
        <time>2018-09-07T11:27:25.000Z</time>
      </trkpt>
      <trkpt lat="43.394132964313030242919921875" lon="-5.168749205768108367919921875">
        <ele>32.40000152587890625</ele>
        <time>2018-09-07T11:27:29.000Z</time>
      </trkpt>
      <trkpt lat="43.39414310641586780548095703125" lon="-5.16891826875507831573486328125">
        <ele>33</ele>
        <time>2018-09-07T11:27:33.000Z</time>
      </trkpt>
      <trkpt lat="43.394144363701343536376953125" lon="-5.1689595915377140045166015625">
        <ele>33.200000762939453125</ele>
        <time>2018-09-07T11:27:34.000Z</time>
      </trkpt>
      <trkpt lat="43.39414511807262897491455078125" lon="-5.16902337782084941864013671875">
        <ele>33.59999847412109375</ele>
        <time>2018-09-07T11:27:36.000Z</time>
      </trkpt>
      <trkpt lat="43.39415333233773708343505859375" lon="-5.1690440811216831207275390625">
        <ele>33.59999847412109375</ele>
        <time>2018-09-07T11:27:37.000Z</time>
      </trkpt>
      <trkpt lat="43.39416707865893840789794921875" lon="-5.16905858181416988372802734375">
        <ele>33.799999237060546875</ele>
        <time>2018-09-07T11:27:38.000Z</time>
      </trkpt>
      <trkpt lat="43.39424033649265766143798828125" lon="-5.1690310053527355194091796875">
        <ele>33.59999847412109375</ele>
        <time>2018-09-07T11:27:42.000Z</time>
      </trkpt>
      <trkpt lat="43.39421041309833526611328125" lon="-5.16899320296943187713623046875">
        <ele>33.59999847412109375</ele>
        <time>2018-09-07T11:29:36.000Z</time>
      </trkpt>
      <trkpt lat="43.3941881172358989715576171875" lon="-5.1690132357180118560791015625">
        <ele>33.59999847412109375</ele>
        <time>2018-09-07T11:29:37.000Z</time>
      </trkpt>
      <trkpt lat="43.39414997957646846771240234375" lon="-5.16912295483052730560302734375">
        <ele>33.799999237060546875</ele>
        <time>2018-09-07T11:29:41.000Z</time>
      </trkpt>
      <trkpt lat="43.39414679445326328277587890625" lon="-5.1692740805447101593017578125">
        <ele>34.59999847412109375</ele>
        <time>2018-09-07T11:29:45.000Z</time>
      </trkpt>
      <trkpt lat="43.39414578862488269805908203125" lon="-5.16931540332734584808349609375">
        <ele>34.59999847412109375</ele>
        <time>2018-09-07T11:29:46.000Z</time>
      </trkpt>
      <trkpt lat="43.3941445313394069671630859375" lon="-5.1694051735103130340576171875">
        <ele>35</ele>
        <time>2018-09-07T11:29:48.000Z</time>
      </trkpt>
      <trkpt lat="43.39414067566394805908203125" lon="-5.16949326731264591217041015625">
        <ele>35</ele>
        <time>2018-09-07T11:29:50.000Z</time>
      </trkpt>
      <trkpt lat="43.39413220994174480438232421875" lon="-5.169619582593441009521484375">
        <ele>35.59999847412109375</ele>
        <time>2018-09-07T11:29:53.000Z</time>
      </trkpt>
      <trkpt lat="43.3941277675330638885498046875" lon="-5.16965855844318866729736328125">
        <ele>35.59999847412109375</ele>
        <time>2018-09-07T11:29:54.000Z</time>
      </trkpt>
      <trkpt lat="43.39410924352705478668212890625" lon="-5.16978814266622066497802734375">
        <ele>36.200000762939453125</ele>
        <time>2018-09-07T11:29:58.000Z</time>
      </trkpt>
      <trkpt lat="43.394100107252597808837890625" lon="-5.1698463968932628631591796875">
        <ele>36.40000152587890625</ele>
        <time>2018-09-07T11:30:00.000Z</time>
      </trkpt>
      <trkpt lat="43.394088037312030792236328125" lon="-5.1699134521186351776123046875">
        <ele>36.59999847412109375</ele>
        <time>2018-09-07T11:30:02.000Z</time>
      </trkpt>
      <trkpt lat="43.394063897430896759033203125" lon="-5.17003540880978107452392578125">
        <ele>36.799999237060546875</ele>
        <time>2018-09-07T11:30:06.000Z</time>
      </trkpt>
      <trkpt lat="43.393998183310031890869140625" lon="-5.17028468661010265350341796875">
        <ele>37.59999847412109375</ele>
        <time>2018-09-07T11:30:14.000Z</time>
      </trkpt>
      <trkpt lat="43.39399022050201892852783203125" lon="-5.1703224889934062957763671875">
        <ele>37.59999847412109375</ele>
        <time>2018-09-07T11:30:15.000Z</time>
      </trkpt>
      <trkpt lat="43.39393205009400844573974609375" lon="-5.1705457828938961029052734375">
        <ele>38.200000762939453125</ele>
        <time>2018-09-07T11:30:21.000Z</time>
      </trkpt>
      <trkpt lat="43.3938856981694698333740234375" lon="-5.1707097329199314117431640625">
        <ele>38.200000762939453125</ele>
        <time>2018-09-07T11:30:25.000Z</time>
      </trkpt>
      <trkpt lat="43.39384051971137523651123046875" lon="-5.17086722888052463531494140625">
        <ele>38.59999847412109375</ele>
        <time>2018-09-07T11:30:29.000Z</time>
      </trkpt>
      <trkpt lat="43.39381587691605091094970703125" lon="-5.1709544844925403594970703125">
        <ele>38.59999847412109375</ele>
        <time>2018-09-07T11:30:31.000Z</time>
      </trkpt>
      <trkpt lat="43.39377413503825664520263671875" lon="-5.171113573014736175537109375">
        <ele>38.799999237060546875</ele>
        <time>2018-09-07T11:30:34.000Z</time>
      </trkpt>
      <trkpt lat="43.39374764822423458099365234375" lon="-5.17122731544077396392822265625">
        <ele>39</ele>
        <time>2018-09-07T11:30:36.000Z</time>
      </trkpt>
      <trkpt lat="43.39372719638049602508544921875" lon="-5.1713484339416027069091796875">
        <ele>39.200000762939453125</ele>
        <time>2018-09-07T11:30:38.000Z</time>
      </trkpt>
      <trkpt lat="43.39366366155445575714111328125" lon="-5.1716535352170467376708984375">
        <ele>39.40000152587890625</ele>
        <time>2018-09-07T11:30:43.000Z</time>
      </trkpt>
      <trkpt lat="43.39363331906497478485107421875" lon="-5.17184757627546787261962890625">
        <ele>39.59999847412109375</ele>
        <time>2018-09-07T11:30:46.000Z</time>
      </trkpt>
      <trkpt lat="43.39362208731472492218017578125" lon="-5.1719105243682861328125">
        <ele>39.59999847412109375</ele>
        <time>2018-09-07T11:30:47.000Z</time>
      </trkpt>
      <trkpt lat="43.39358990080654621124267578125" lon="-5.17210029065608978271484375">
        <ele>39.799999237060546875</ele>
        <time>2018-09-07T11:30:50.000Z</time>
      </trkpt>
      <trkpt lat="43.3935078419744968414306640625" lon="-5.172681994736194610595703125">
        <ele>39</ele>
        <time>2018-09-07T11:30:58.000Z</time>
      </trkpt>
      <trkpt lat="43.39347892440855503082275390625" lon="-5.17291157506406307220458984375">
        <ele>38.59999847412109375</ele>
        <time>2018-09-07T11:31:01.000Z</time>
      </trkpt>
      <trkpt lat="43.39344690553843975067138671875" lon="-5.17313855700194835662841796875">
        <ele>37.799999237060546875</ele>
        <time>2018-09-07T11:31:04.000Z</time>
      </trkpt>
      <trkpt lat="43.39342611841857433319091796875" lon="-5.1732920296490192413330078125">
        <ele>37.40000152587890625</ele>
        <time>2018-09-07T11:31:06.000Z</time>
      </trkpt>
      <trkpt lat="43.39340851642191410064697265625" lon="-5.173450447618961334228515625">
        <ele>37.200000762939453125</ele>
        <time>2018-09-07T11:31:08.000Z</time>
      </trkpt>
      <trkpt lat="43.39333810843527317047119140625" lon="-5.173992924392223358154296875">
        <ele>36.59999847412109375</ele>
        <time>2018-09-07T11:31:14.000Z</time>
      </trkpt>
      <trkpt lat="43.393321931362152099609375" lon="-5.1740913279354572296142578125">
        <ele>36.40000152587890625</ele>
        <time>2018-09-07T11:31:15.000Z</time>
      </trkpt>
      <trkpt lat="43.393253870308399200439453125" lon="-5.174606144428253173828125">
        <ele>35.200000762939453125</ele>
        <time>2018-09-07T11:31:20.000Z</time>
      </trkpt>
      <trkpt lat="43.3932154811918735504150390625" lon="-5.17492708750069141387939453125">
        <ele>34.40000152587890625</ele>
        <time>2018-09-07T11:31:23.000Z</time>
      </trkpt>
      <trkpt lat="43.393200896680355072021484375" lon="-5.17503253184258937835693359375">
        <ele>34</ele>
        <time>2018-09-07T11:31:24.000Z</time>
      </trkpt>
      <trkpt lat="43.393105678260326385498046875" lon="-5.1757797785103321075439453125">
        <ele>33.200000762939453125</ele>
        <time>2018-09-07T11:31:31.000Z</time>
      </trkpt>
      <trkpt lat="43.39309100992977619171142578125" lon="-5.17588648013770580291748046875">
        <ele>33.40000152587890625</ele>
        <time>2018-09-07T11:31:32.000Z</time>
      </trkpt>
      <trkpt lat="43.393075503408908843994140625" lon="-5.1759923435747623443603515625">
        <ele>33</ele>
        <time>2018-09-07T11:31:33.000Z</time>
      </trkpt>
      <trkpt lat="43.39300350286066532135009765625" lon="-5.17650238238275051116943359375">
        <ele>32</ele>
        <time>2018-09-07T11:31:38.000Z</time>
      </trkpt>
      <trkpt lat="43.3929777704179286956787109375" lon="-5.17669466324150562286376953125">
        <ele>31.799999237060546875</ele>
        <time>2018-09-07T11:31:40.000Z</time>
      </trkpt>
      <trkpt lat="43.39292840100824832916259765625" lon="-5.1770856790244579315185546875">
        <ele>32.200000762939453125</ele>
        <time>2018-09-07T11:31:44.000Z</time>
      </trkpt>
      <trkpt lat="43.39288942515850067138671875" lon="-5.1773755252361297607421875">
        <ele>32</ele>
        <time>2018-09-07T11:31:47.000Z</time>
      </trkpt>
      <trkpt lat="43.39285011403262615203857421875" lon="-5.177662186324596405029296875">
        <ele>32.40000152587890625</ele>
        <time>2018-09-07T11:31:50.000Z</time>
      </trkpt>
      <trkpt lat="43.39283737353980541229248046875" lon="-5.17775849439203739166259765625">
        <ele>32.40000152587890625</ele>
        <time>2018-09-07T11:31:51.000Z</time>
      </trkpt>
      <trkpt lat="43.392770402133464813232421875" lon="-5.17822670750319957733154296875">
        <ele>32.59999847412109375</ele>
        <time>2018-09-07T11:31:56.000Z</time>
      </trkpt>
      <trkpt lat="43.392756320536136627197265625" lon="-5.178320668637752532958984375">
        <ele>33</ele>
        <time>2018-09-07T11:31:57.000Z</time>
      </trkpt>
      <trkpt lat="43.392688594758510589599609375" lon="-5.1786859519779682159423828125">
        <ele>33.40000152587890625</ele>
        <time>2018-09-07T11:32:01.000Z</time>
      </trkpt>
      <trkpt lat="43.39258524589240550994873046875" lon="-5.179029442369937896728515625">
        <ele>33.40000152587890625</ele>
        <time>2018-09-07T11:32:05.000Z</time>
      </trkpt>
      <trkpt lat="43.39251869358122348785400390625" lon="-5.17918928526341915130615234375">
        <ele>33.40000152587890625</ele>
        <time>2018-09-07T11:32:07.000Z</time>
      </trkpt>
      <trkpt lat="43.39239950291812419891357421875" lon="-5.17940369434654712677001953125">
        <ele>33.40000152587890625</ele>
        <time>2018-09-07T11:32:10.000Z</time>
      </trkpt>
      <trkpt lat="43.39225784875452518463134765625" lon="-5.1796096377074718475341796875">
        <ele>33.200000762939453125</ele>
        <time>2018-09-07T11:32:13.000Z</time>
      </trkpt>
      <trkpt lat="43.39191938750445842742919921875" lon="-5.179951451718807220458984375">
        <ele>33.40000152587890625</ele>
        <time>2018-09-07T11:32:19.000Z</time>
      </trkpt>
      <trkpt lat="43.3914579637348651885986328125" lon="-5.1802164874970912933349609375">
        <ele>32.799999237060546875</ele>
        <time>2018-09-07T11:32:26.000Z</time>
      </trkpt>
      <trkpt lat="43.3910472504794597625732421875" lon="-5.18042813055217266082763671875">
        <ele>32.40000152587890625</ele>
        <time>2018-09-07T11:32:32.000Z</time>
      </trkpt>
      <trkpt lat="43.390597812831401824951171875" lon="-5.18067338503897190093994140625">
        <ele>32</ele>
        <time>2018-09-07T11:32:39.000Z</time>
      </trkpt>
      <trkpt lat="43.3902053721249103546142578125" lon="-5.18089123070240020751953125">
        <ele>32</ele>
        <time>2018-09-07T11:32:45.000Z</time>
      </trkpt>
      <trkpt lat="43.39007712900638580322265625" lon="-5.1809628121554851531982421875">
        <ele>32.200000762939453125</ele>
        <time>2018-09-07T11:32:47.000Z</time>
      </trkpt>
      <trkpt lat="43.3899539150297641754150390625" lon="-5.18103665672242641448974609375">
        <ele>32</ele>
        <time>2018-09-07T11:32:49.000Z</time>
      </trkpt>
      <trkpt lat="43.3896903879940509796142578125" lon="-5.18126246519386768341064453125">
        <ele>31.6000003814697265625</ele>
        <time>2018-09-07T11:32:54.000Z</time>
      </trkpt>
      <trkpt lat="43.3894855342805385589599609375" lon="-5.18148911185562610626220703125">
        <ele>31.6000003814697265625</ele>
        <time>2018-09-07T11:32:58.000Z</time>
      </trkpt>
      <trkpt lat="43.389440439641475677490234375" lon="-5.1815517246723175048828125">
        <ele>31.6000003814697265625</ele>
        <time>2018-09-07T11:32:59.000Z</time>
      </trkpt>
      <trkpt lat="43.38939760811626911163330078125" lon="-5.1816179417073726654052734375">
        <ele>31.3999996185302734375</ele>
        <time>2018-09-07T11:33:00.000Z</time>
      </trkpt>
      <trkpt lat="43.3892736397683620452880859375" lon="-5.1818333566188812255859375">
        <ele>30.799999237060546875</ele>
        <time>2018-09-07T11:33:03.000Z</time>
      </trkpt>
      <trkpt lat="43.38915218599140644073486328125" lon="-5.18207685090601444244384765625">
        <ele>29.799999237060546875</ele>
        <time>2018-09-07T11:33:06.000Z</time>
      </trkpt>
      <trkpt lat="43.38910826481878757476806640625" lon="-5.18215681426227092742919921875">
        <ele>29.200000762939453125</ele>
        <time>2018-09-07T11:33:07.000Z</time>
      </trkpt>
      <trkpt lat="43.38906551711261272430419921875" lon="-5.18223476596176624298095703125">
        <ele>28.799999237060546875</ele>
        <time>2018-09-07T11:33:08.000Z</time>
      </trkpt>
      <trkpt lat="43.38898773305118083953857421875" lon="-5.182379521429538726806640625">
        <ele>28.200000762939453125</ele>
        <time>2018-09-07T11:33:10.000Z</time>
      </trkpt>
      <trkpt lat="43.3889159001410007476806640625" lon="-5.18249988555908203125">
        <ele>28</ele>
        <time>2018-09-07T11:33:12.000Z</time>
      </trkpt>
      <trkpt lat="43.388857059180736541748046875" lon="-5.18256551586091518402099609375">
        <ele>28.3999996185302734375</ele>
        <time>2018-09-07T11:33:14.000Z</time>
      </trkpt>
      <trkpt lat="43.388833589851856231689453125" lon="-5.18258110620081424713134765625">
        <ele>28.3999996185302734375</ele>
        <time>2018-09-07T11:33:15.000Z</time>
      </trkpt>
      <trkpt lat="43.3888171613216400146484375" lon="-5.18258571624755859375">
        <ele>28.6000003814697265625</ele>
        <time>2018-09-07T11:33:16.000Z</time>
      </trkpt>
      <trkpt lat="43.38876997120678424835205078125" lon="-5.18257691524922847747802734375">
        <ele>28.6000003814697265625</ele>
        <time>2018-09-07T11:33:39.000Z</time>
      </trkpt>
      <trkpt lat="43.38874616660177707672119140625" lon="-5.18257825635373592376708984375">
        <ele>28.6000003814697265625</ele>
        <time>2018-09-07T11:33:40.000Z</time>
      </trkpt>
      <trkpt lat="43.38871967978775501251220703125" lon="-5.18257859162986278533935546875">
        <ele>28.3999996185302734375</ele>
        <time>2018-09-07T11:33:41.000Z</time>
      </trkpt>
      <trkpt lat="43.3886097930371761322021484375" lon="-5.18251220695674419403076171875">
        <ele>28.6000003814697265625</ele>
        <time>2018-09-07T11:33:45.000Z</time>
      </trkpt>
      <trkpt lat="43.38855891488492488861083984375" lon="-5.18244422972202301025390625">
        <ele>28.3999996185302734375</ele>
        <time>2018-09-07T11:33:47.000Z</time>
      </trkpt>
      <trkpt lat="43.388529159128665924072265625" lon="-5.18240324221551418304443359375">
        <ele>28.3999996185302734375</ele>
        <time>2018-09-07T11:33:48.000Z</time>
      </trkpt>
      <trkpt lat="43.3884984813630580902099609375" lon="-5.1823575608432292938232421875">
        <ele>28.200000762939453125</ele>
        <time>2018-09-07T11:33:49.000Z</time>
      </trkpt>
      <trkpt lat="43.3884673006832599639892578125" lon="-5.182305760681629180908203125">
        <ele>28.200000762939453125</ele>
        <time>2018-09-07T11:33:50.000Z</time>
      </trkpt>
      <trkpt lat="43.38843637146055698394775390625" lon="-5.1822465844452381134033203125">
        <ele>28</ele>
        <time>2018-09-07T11:33:51.000Z</time>
      </trkpt>
      <trkpt lat="43.388405106961727142333984375" lon="-5.182181708514690399169921875">
        <ele>28</ele>
        <time>2018-09-07T11:33:52.000Z</time>
      </trkpt>
      <trkpt lat="43.3883526362478733062744140625" lon="-5.18204332329332828521728515625">
        <ele>28.200000762939453125</ele>
        <time>2018-09-07T11:33:54.000Z</time>
      </trkpt>
      <trkpt lat="43.38833034038543701171875" lon="-5.181970484554767608642578125">
        <ele>28.3999996185302734375</ele>
        <time>2018-09-07T11:33:55.000Z</time>
      </trkpt>
      <trkpt lat="43.38831248693168163299560546875" lon="-5.181893371045589447021484375">
        <ele>28.200000762939453125</ele>
        <time>2018-09-07T11:33:56.000Z</time>
      </trkpt>
      <trkpt lat="43.38827225379645824432373046875" lon="-5.18155935220420360565185546875">
        <ele>27.3999996185302734375</ele>
        <time>2018-09-07T11:34:00.000Z</time>
      </trkpt>
      <trkpt lat="43.38827460072934627532958984375" lon="-5.18147318623960018157958984375">
        <ele>27.200000762939453125</ele>
        <time>2018-09-07T11:34:01.000Z</time>
      </trkpt>
      <trkpt lat="43.38829639367759227752685546875" lon="-5.18130294978618621826171875">
        <ele>27</ele>
        <time>2018-09-07T11:34:03.000Z</time>
      </trkpt>
      <trkpt lat="43.38831231929361820220947265625" lon="-5.18122114241123199462890625">
        <ele>26.799999237060546875</ele>
        <time>2018-09-07T11:34:04.000Z</time>
      </trkpt>
      <trkpt lat="43.38845497928559780120849609375" lon="-5.1807510852813720703125">
        <ele>26.799999237060546875</ele>
        <time>2018-09-07T11:34:10.000Z</time>
      </trkpt>
      <trkpt lat="43.388536870479583740234375" lon="-5.1805564574897289276123046875">
        <ele>27.6000003814697265625</ele>
        <time>2018-09-07T11:34:13.000Z</time>
      </trkpt>
      <trkpt lat="43.38856210000813007354736328125" lon="-5.18049786798655986785888671875">
        <ele>28</ele>
        <time>2018-09-07T11:34:14.000Z</time>
      </trkpt>
      <trkpt lat="43.38860970921814441680908203125" lon="-5.18038957379758358001708984375">
        <ele>28.799999237060546875</ele>
        <time>2018-09-07T11:34:16.000Z</time>
      </trkpt>
      <trkpt lat="43.38863183744251728057861328125" lon="-5.18033735454082489013671875">
        <ele>29</ele>
        <time>2018-09-07T11:34:17.000Z</time>
      </trkpt>
      <trkpt lat="43.388674668967723846435546875" lon="-5.1802319101989269256591796875">
        <ele>29.6000003814697265625</ele>
        <time>2018-09-07T11:34:19.000Z</time>
      </trkpt>
      <trkpt lat="43.38871398009359836578369140625" lon="-5.18012856133282184600830078125">
        <ele>30.200000762939453125</ele>
        <time>2018-09-07T11:34:21.000Z</time>
      </trkpt>
      <trkpt lat="43.38872705586254596710205078125" lon="-5.18007324077188968658447265625">
        <ele>30.799999237060546875</ele>
        <time>2018-09-07T11:34:22.000Z</time>
      </trkpt>
      <trkpt lat="43.388735353946685791015625" lon="-5.180015824735164642333984375">
        <ele>31</ele>
        <time>2018-09-07T11:34:23.000Z</time>
      </trkpt>
      <trkpt lat="43.38874080218374729156494140625" lon="-5.17989839427173137664794921875">
        <ele>31.200000762939453125</ele>
        <time>2018-09-07T11:34:25.000Z</time>
      </trkpt>
      <trkpt lat="43.388724289834499359130859375" lon="-5.17978875897824764251708984375">
        <ele>31.6000003814697265625</ele>
        <time>2018-09-07T11:34:27.000Z</time>
      </trkpt>
      <trkpt lat="43.38871364481747150421142578125" lon="-5.17973343841731548309326171875">
        <ele>31.6000003814697265625</ele>
        <time>2018-09-07T11:34:28.000Z</time>
      </trkpt>
      <trkpt lat="43.38869973085820674896240234375" lon="-5.17967945896089076995849609375">
        <ele>31.799999237060546875</ele>
        <time>2018-09-07T11:34:29.000Z</time>
      </trkpt>
      <trkpt lat="43.3886228688061237335205078125" lon="-5.179547108709812164306640625">
        <ele>32</ele>
        <time>2018-09-07T11:34:32.000Z</time>
      </trkpt>
      <trkpt lat="43.3885880000889301300048828125" lon="-5.179511569440364837646484375">
        <ele>32</ele>
        <time>2018-09-07T11:34:33.000Z</time>
      </trkpt>
      <trkpt lat="43.38851616717875003814697265625" lon="-5.17944778315722942352294921875">
        <ele>32.200000762939453125</ele>
        <time>2018-09-07T11:34:35.000Z</time>
      </trkpt>
      <trkpt lat="43.38837501592934131622314453125" lon="-5.179326497018337249755859375">
        <ele>32.59999847412109375</ele>
        <time>2018-09-07T11:34:39.000Z</time>
      </trkpt>
      <trkpt lat="43.3881699107587337493896484375" lon="-5.1790970005095005035400390625">
        <ele>32.59999847412109375</ele>
        <time>2018-09-07T11:34:45.000Z</time>
      </trkpt>
      <trkpt lat="43.38801392354071140289306640625" lon="-5.1788458786904811859130859375">
        <ele>32.59999847412109375</ele>
        <time>2018-09-07T11:34:50.000Z</time>
      </trkpt>
      <trkpt lat="43.3879829943180084228515625" lon="-5.17878594808280467987060546875">
        <ele>32.59999847412109375</ele>
        <time>2018-09-07T11:34:51.000Z</time>
      </trkpt>
      <trkpt lat="43.38783840648829936981201171875" lon="-5.17846022732555866241455078125">
        <ele>31.799999237060546875</ele>
        <time>2018-09-07T11:34:56.000Z</time>
      </trkpt>
      <trkpt lat="43.38775777257978916168212890625" lon="-5.17824548296630382537841796875">
        <ele>31.3999996185302734375</ele>
        <time>2018-09-07T11:34:59.000Z</time>
      </trkpt>
      <trkpt lat="43.3876515738666057586669921875" lon="-5.1779332570731639862060546875">
        <ele>31.3999996185302734375</ele>
        <time>2018-09-07T11:35:03.000Z</time>
      </trkpt>
      <trkpt lat="43.3875912241637706756591796875" lon="-5.1777723245322704315185546875">
        <ele>31.200000762939453125</ele>
        <time>2018-09-07T11:35:05.000Z</time>
      </trkpt>
      <trkpt lat="43.387528695166110992431640625" lon="-5.17761248163878917694091796875">
        <ele>30.799999237060546875</ele>
        <time>2018-09-07T11:35:07.000Z</time>
      </trkpt>
      <trkpt lat="43.38743247091770172119140625" lon="-5.17737242393195629119873046875">
        <ele>30.200000762939453125</ele>
        <time>2018-09-07T11:35:10.000Z</time>
      </trkpt>
      <trkpt lat="43.38733297772705554962158203125" lon="-5.17712297849357128143310546875">
        <ele>30</ele>
        <time>2018-09-07T11:35:13.000Z</time>
      </trkpt>
      <trkpt lat="43.38722485117614269256591796875" lon="-5.17686900682747364044189453125">
        <ele>29.799999237060546875</ele>
        <time>2018-09-07T11:35:16.000Z</time>
      </trkpt>
      <trkpt lat="43.3869718015193939208984375" lon="-5.1763966865837574005126953125">
        <ele>29</ele>
        <time>2018-09-07T11:35:22.000Z</time>
      </trkpt>
      <trkpt lat="43.38691958226263523101806640625" lon="-5.1763321459293365478515625">
        <ele>29.200000762939453125</ele>
        <time>2018-09-07T11:35:23.000Z</time>
      </trkpt>
      <trkpt lat="43.38663878850638866424560546875" lon="-5.1761060021817684173583984375">
        <ele>30</ele>
        <time>2018-09-07T11:35:28.000Z</time>
      </trkpt>
      <trkpt lat="43.38658355176448822021484375" lon="-5.17607557587325572967529296875">
        <ele>30.200000762939453125</ele>
        <time>2018-09-07T11:35:29.000Z</time>
      </trkpt>
      <trkpt lat="43.3863731659948825836181640625" lon="-5.1759742386639118194580078125">
        <ele>31.3999996185302734375</ele>
        <time>2018-09-07T11:35:33.000Z</time>
      </trkpt>
      <trkpt lat="43.38632161729037761688232421875" lon="-5.1759504340589046478271484375">
        <ele>31.799999237060546875</ele>
        <time>2018-09-07T11:35:34.000Z</time>
      </trkpt>
      <trkpt lat="43.386219441890716552734375" lon="-5.175903998315334320068359375">
        <ele>32</ele>
        <time>2018-09-07T11:35:36.000Z</time>
      </trkpt>
      <trkpt lat="43.3861190266907215118408203125" lon="-5.17585446126759052276611328125">
        <ele>32.40000152587890625</ele>
        <time>2018-09-07T11:35:38.000Z</time>
      </trkpt>
      <trkpt lat="43.38597544468939304351806640625" lon="-5.175767876207828521728515625">
        <ele>33.200000762939453125</ele>
        <time>2018-09-07T11:35:41.000Z</time>
      </trkpt>
      <trkpt lat="43.38588374666869640350341796875" lon="-5.17569604329764842987060546875">
        <ele>33.40000152587890625</ele>
        <time>2018-09-07T11:35:43.000Z</time>
      </trkpt>
      <trkpt lat="43.3858394064009189605712890625" lon="-5.1756553910672664642333984375">
        <ele>33.59999847412109375</ele>
        <time>2018-09-07T11:35:44.000Z</time>
      </trkpt>
      <trkpt lat="43.3857111632823944091796875" lon="-5.175523124635219573974609375">
        <ele>33.59999847412109375</ele>
        <time>2018-09-07T11:35:47.000Z</time>
      </trkpt>
      <trkpt lat="43.3855882845818996429443359375" lon="-5.1753781177103519439697265625">
        <ele>33.59999847412109375</ele>
        <time>2018-09-07T11:35:50.000Z</time>
      </trkpt>
      <trkpt lat="43.38532165624201297760009765625" lon="-5.17503538168966770172119140625">
        <ele>34.200000762939453125</ele>
        <time>2018-09-07T11:35:57.000Z</time>
      </trkpt>
      <trkpt lat="43.38524772785604000091552734375" lon="-5.17493815161287784576416015625">
        <ele>34.40000152587890625</ele>
        <time>2018-09-07T11:35:59.000Z</time>
      </trkpt>
      <trkpt lat="43.38505846448242664337158203125" lon="-5.17469943501055240631103515625">
        <ele>34.59999847412109375</ele>
        <time>2018-09-07T11:36:04.000Z</time>
      </trkpt>
      <trkpt lat="43.38490985333919525146484375" lon="-5.17450153827667236328125">
        <ele>35</ele>
        <time>2018-09-07T11:36:08.000Z</time>
      </trkpt>
      <trkpt lat="43.3846984617412090301513671875" lon="-5.1742515899240970611572265625">
        <ele>35.59999847412109375</ele>
        <time>2018-09-07T11:36:14.000Z</time>
      </trkpt>
      <trkpt lat="43.3846810273826122283935546875" lon="-5.1742251031100749969482421875">
        <ele>35.799999237060546875</ele>
        <time>2018-09-07T11:36:15.000Z</time>
      </trkpt>
      <trkpt lat="43.38466283865272998809814453125" lon="-5.17420993186533451080322265625">
        <ele>36</ele>
        <time>2018-09-07T11:36:16.000Z</time>
      </trkpt>
      <trkpt lat="43.38460743427276611328125" lon="-5.174166262149810791015625">
        <ele>36</ele>
        <time>2018-09-07T11:36:18.000Z</time>
      </trkpt>
      <trkpt lat="43.3845093660056591033935546875" lon="-5.17403475008904933929443359375">
        <ele>35.40000152587890625</ele>
        <time>2018-09-07T11:36:21.000Z</time>
      </trkpt>
      <trkpt lat="43.3844409696757793426513671875" lon="-5.1739424653351306915283203125">
        <ele>35.59999847412109375</ele>
        <time>2018-09-07T11:36:23.000Z</time>
      </trkpt>
      <trkpt lat="43.38435824029147624969482421875" lon="-5.17383970320224761962890625">
        <ele>36</ele>
        <time>2018-09-07T11:36:25.000Z</time>
      </trkpt>
      <trkpt lat="43.384272158145904541015625" lon="-5.1737305708229541778564453125">
        <ele>35.799999237060546875</ele>
        <time>2018-09-07T11:36:27.000Z</time>
      </trkpt>
      <trkpt lat="43.38423150591552257537841796875" lon="-5.1736762560904026031494140625">
        <ele>36</ele>
        <time>2018-09-07T11:36:28.000Z</time>
      </trkpt>
      <trkpt lat="43.3839953877031803131103515625" lon="-5.1733667962253093719482421875">
        <ele>36.799999237060546875</ele>
        <time>2018-09-07T11:36:34.000Z</time>
      </trkpt>
      <trkpt lat="43.3838482014834880828857421875" lon="-5.17317158170044422149658203125">
        <ele>37.200000762939453125</ele>
        <time>2018-09-07T11:36:38.000Z</time>
      </trkpt>
      <trkpt lat="43.38365701027214527130126953125" lon="-5.17292716540396213531494140625">
        <ele>38</ele>
        <time>2018-09-07T11:36:43.000Z</time>
      </trkpt>
      <trkpt lat="43.38353983126580715179443359375" lon="-5.172771848738193511962890625">
        <ele>38.40000152587890625</ele>
        <time>2018-09-07T11:36:46.000Z</time>
      </trkpt>
      <trkpt lat="43.3832333050668239593505859375" lon="-5.17237094230949878692626953125">
        <ele>38.799999237060546875</ele>
        <time>2018-09-07T11:36:54.000Z</time>
      </trkpt>
      <trkpt lat="43.3831947483122348785400390625" lon="-5.1723220758140087127685546875">
        <ele>39</ele>
        <time>2018-09-07T11:36:55.000Z</time>
      </trkpt>
      <trkpt lat="43.38299467228353023529052734375" lon="-5.1720840297639369964599609375">
        <ele>39.200000762939453125</ele>
        <time>2018-09-07T11:37:00.000Z</time>
      </trkpt>
      <trkpt lat="43.382806666195392608642578125" lon="-5.17182645387947559356689453125">
        <ele>39.799999237060546875</ele>
        <time>2018-09-07T11:37:05.000Z</time>
      </trkpt>
      <trkpt lat="43.38276333175599575042724609375" lon="-5.1717735640704631805419921875">
        <ele>39.59999847412109375</ele>
        <time>2018-09-07T11:37:06.000Z</time>
      </trkpt>
      <trkpt lat="43.38264196179807186126708984375" lon="-5.171607434749603271484375">
        <ele>39.59999847412109375</ele>
        <time>2018-09-07T11:37:09.000Z</time>
      </trkpt>
      <trkpt lat="43.38259938172996044158935546875" lon="-5.17155705951154232025146484375">
        <ele>40</ele>
        <time>2018-09-07T11:37:10.000Z</time>
      </trkpt>
      <trkpt lat="43.382522352039813995361328125" lon="-5.17145245335996150970458984375">
        <ele>40.200000762939453125</ele>
        <time>2018-09-07T11:37:12.000Z</time>
      </trkpt>
      <trkpt lat="43.38226494379341602325439453125" lon="-5.17108566127717494964599609375">
        <ele>40.40000152587890625</ele>
        <time>2018-09-07T11:37:19.000Z</time>
      </trkpt>
      <trkpt lat="43.38195129297673702239990234375" lon="-5.17059565521776676177978515625">
        <ele>40.40000152587890625</ele>
        <time>2018-09-07T11:37:27.000Z</time>
      </trkpt>
      <trkpt lat="43.38180125690996646881103515625" lon="-5.17033246345818042755126953125">
        <ele>40.799999237060546875</ele>
        <time>2018-09-07T11:37:31.000Z</time>
      </trkpt>
      <trkpt lat="43.38168860413134098052978515625" lon="-5.17013414762914180755615234375">
        <ele>41</ele>
        <time>2018-09-07T11:37:34.000Z</time>
      </trkpt>
      <trkpt lat="43.38165055029094219207763671875" lon="-5.17006843350827693939208984375">
        <ele>41.200000762939453125</ele>
        <time>2018-09-07T11:37:35.000Z</time>
      </trkpt>
      <trkpt lat="43.38153270073235034942626953125" lon="-5.169853605329990386962890625">
        <ele>41.799999237060546875</ele>
        <time>2018-09-07T11:37:38.000Z</time>
      </trkpt>
      <trkpt lat="43.3812806569039821624755859375" lon="-5.16947038471698760986328125">
        <ele>42.200000762939453125</ele>
        <time>2018-09-07T11:37:44.000Z</time>
      </trkpt>
      <trkpt lat="43.38118284009397029876708984375" lon="-5.16935831867158412933349609375">
        <ele>42.40000152587890625</ele>
        <time>2018-09-07T11:37:46.000Z</time>
      </trkpt>
      <trkpt lat="43.38097798638045787811279296875" lon="-5.16916587017476558685302734375">
        <ele>42.799999237060546875</ele>
        <time>2018-09-07T11:37:50.000Z</time>
      </trkpt>
      <trkpt lat="43.38071228004992008209228515625" lon="-5.1689599268138408660888671875">
        <ele>42.59999847412109375</ele>
        <time>2018-09-07T11:37:55.000Z</time>
      </trkpt>
      <trkpt lat="43.3806080929934978485107421875" lon="-5.1688821427524089813232421875">
        <ele>42.799999237060546875</ele>
        <time>2018-09-07T11:37:57.000Z</time>
      </trkpt>
      <trkpt lat="43.38041338138282299041748046875" lon="-5.1687248982489109039306640625">
        <ele>42.799999237060546875</ele>
        <time>2018-09-07T11:38:01.000Z</time>
      </trkpt>
      <trkpt lat="43.3802801929414272308349609375" lon="-5.16862791962921619415283203125">
        <ele>43.200000762939453125</ele>
        <time>2018-09-07T11:38:04.000Z</time>
      </trkpt>
      <trkpt lat="43.38018975220620632171630859375" lon="-5.16856488771736621856689453125">
        <ele>43.40000152587890625</ele>
        <time>2018-09-07T11:38:06.000Z</time>
      </trkpt>
      <trkpt lat="43.38001138530671596527099609375" lon="-5.1684251613914966583251953125">
        <ele>44</ele>
        <time>2018-09-07T11:38:10.000Z</time>
      </trkpt>
      <trkpt lat="43.3798818849027156829833984375" lon="-5.1682962477207183837890625">
        <ele>44.799999237060546875</ele>
        <time>2018-09-07T11:38:13.000Z</time>
      </trkpt>
      <trkpt lat="43.37976696901023387908935546875" lon="-5.16815501265227794647216796875">
        <ele>45</ele>
        <time>2018-09-07T11:38:16.000Z</time>
      </trkpt>
      <trkpt lat="43.379730172455310821533203125" lon="-5.16810069791972637176513671875">
        <ele>45.200000762939453125</ele>
        <time>2018-09-07T11:38:17.000Z</time>
      </trkpt>
      <trkpt lat="43.37965917773544788360595703125" lon="-5.16799139790236949920654296875">
        <ele>45.59999847412109375</ele>
        <time>2018-09-07T11:38:19.000Z</time>
      </trkpt>
      <trkpt lat="43.37959631346166133880615234375" lon="-5.1678789965808391571044921875">
        <ele>45.799999237060546875</ele>
        <time>2018-09-07T11:38:21.000Z</time>
      </trkpt>
      <trkpt lat="43.37950780056416988372802734375" lon="-5.1677009649574756622314453125">
        <ele>46</ele>
        <time>2018-09-07T11:38:24.000Z</time>
      </trkpt>
      <trkpt lat="43.379450552165508270263671875" lon="-5.16757448203861713409423828125">
        <ele>46.200000762939453125</ele>
        <time>2018-09-07T11:38:26.000Z</time>
      </trkpt>
      <trkpt lat="43.3793907053768634796142578125" lon="-5.16744858585298061370849609375">
        <ele>46.200000762939453125</ele>
        <time>2018-09-07T11:38:28.000Z</time>
      </trkpt>
      <trkpt lat="43.3793343789875507354736328125" lon="-5.16731849871575832366943359375">
        <ele>46.40000152587890625</ele>
        <time>2018-09-07T11:38:30.000Z</time>
      </trkpt>
      <trkpt lat="43.37912156246602535247802734375" lon="-5.1667880080640316009521484375">
        <ele>46.799999237060546875</ele>
        <time>2018-09-07T11:38:38.000Z</time>
      </trkpt>
      <trkpt lat="43.37906255386769771575927734375" lon="-5.166661776602268218994140625">
        <ele>47</ele>
        <time>2018-09-07T11:38:40.000Z</time>
      </trkpt>
      <trkpt lat="43.3787955902516841888427734375" lon="-5.16628869809210300445556640625">
        <ele>47.59999847412109375</ele>
        <time>2018-09-07T11:38:47.000Z</time>
      </trkpt>
      <trkpt lat="43.3787476457655429840087890625" lon="-5.16624930314719676971435546875">
        <ele>47.59999847412109375</ele>
        <time>2018-09-07T11:38:48.000Z</time>
      </trkpt>
      <trkpt lat="43.37869743816554546356201171875" lon="-5.16621393151581287384033203125">
        <ele>48</ele>
        <time>2018-09-07T11:38:49.000Z</time>
      </trkpt>
      <trkpt lat="43.37850079871714115142822265625" lon="-5.166063643991947174072265625">
        <ele>48.799999237060546875</ele>
        <time>2018-09-07T11:38:53.000Z</time>
      </trkpt>
      <trkpt lat="43.37829946540296077728271484375" lon="-5.165945626795291900634765625">
        <ele>49</ele>
        <time>2018-09-07T11:38:57.000Z</time>
      </trkpt>
      <trkpt lat="43.3781059272587299346923828125" lon="-5.16583087854087352752685546875">
        <ele>49.59999847412109375</ele>
        <time>2018-09-07T11:39:01.000Z</time>
      </trkpt>
      <trkpt lat="43.3779094554483890533447265625" lon="-5.16571286134421825408935546875">
        <ele>50</ele>
        <time>2018-09-07T11:39:05.000Z</time>
      </trkpt>
      <trkpt lat="43.37776486761868000030517578125" lon="-5.16563658602535724639892578125">
        <ele>49.59999847412109375</ele>
        <time>2018-09-07T11:39:08.000Z</time>
      </trkpt>
      <trkpt lat="43.377669565379619598388671875" lon="-5.16557690687477588653564453125">
        <ele>50.200000762939453125</ele>
        <time>2018-09-07T11:39:10.000Z</time>
      </trkpt>
      <trkpt lat="43.37739505805075168609619140625" lon="-5.1653565466403961181640625">
        <ele>51</ele>
        <time>2018-09-07T11:39:16.000Z</time>
      </trkpt>
      <trkpt lat="43.377142846584320068359375" lon="-5.16504532657563686370849609375">
        <ele>50.799999237060546875</ele>
        <time>2018-09-07T11:39:22.000Z</time>
      </trkpt>
      <trkpt lat="43.3770296908915042877197265625" lon="-5.16484919004142284393310546875">
        <ele>50.40000152587890625</ele>
        <time>2018-09-07T11:39:25.000Z</time>
      </trkpt>
      <trkpt lat="43.3769269287586212158203125" lon="-5.164627991616725921630859375">
        <ele>50.59999847412109375</ele>
        <time>2018-09-07T11:39:28.000Z</time>
      </trkpt>
      <trkpt lat="43.3767872862517833709716796875" lon="-5.16421903856098651885986328125">
        <ele>50.40000152587890625</ele>
        <time>2018-09-07T11:39:33.000Z</time>
      </trkpt>
      <trkpt lat="43.3767343126237392425537109375" lon="-5.164053998887538909912109375">
        <ele>50.200000762939453125</ele>
        <time>2018-09-07T11:39:35.000Z</time>
      </trkpt>
      <trkpt lat="43.37670874781906604766845703125" lon="-5.16396691091358661651611328125">
        <ele>50.200000762939453125</ele>
        <time>2018-09-07T11:39:36.000Z</time>
      </trkpt>
      <trkpt lat="43.37668594904243946075439453125" lon="-5.16387772746384143829345703125">
        <ele>50</ele>
        <time>2018-09-07T11:39:37.000Z</time>
      </trkpt>
      <trkpt lat="43.376605398952960968017578125" lon="-5.16359894536435604095458984375">
        <ele>49.799999237060546875</ele>
        <time>2018-09-07T11:39:40.000Z</time>
      </trkpt>
      <trkpt lat="43.37654613889753818511962890625" lon="-5.16341236419975757598876953125">
        <ele>49.40000152587890625</ele>
        <time>2018-09-07T11:39:42.000Z</time>
      </trkpt>
      <trkpt lat="43.37651747278869152069091796875" lon="-5.16331873834133148193359375">
        <ele>49.200000762939453125</ele>
        <time>2018-09-07T11:39:43.000Z</time>
      </trkpt>
      <trkpt lat="43.37640012614428997039794921875" lon="-5.1629581488668918609619140625">
        <ele>48.59999847412109375</ele>
        <time>2018-09-07T11:39:47.000Z</time>
      </trkpt>
      <trkpt lat="43.37630574591457843780517578125" lon="-5.16269856132566928863525390625">
        <ele>48.40000152587890625</ele>
        <time>2018-09-07T11:39:50.000Z</time>
      </trkpt>
      <trkpt lat="43.3762376010417938232421875" lon="-5.16252614557743072509765625">
        <ele>48</ele>
        <time>2018-09-07T11:39:52.000Z</time>
      </trkpt>
      <trkpt lat="43.37603115476667881011962890625" lon="-5.16211719252169132232666015625">
        <ele>47.799999237060546875</ele>
        <time>2018-09-07T11:39:57.000Z</time>
      </trkpt>
      <trkpt lat="43.37569621391594409942626953125" lon="-5.16161687672138214111328125">
        <ele>48</ele>
        <time>2018-09-07T11:40:04.000Z</time>
      </trkpt>
      <trkpt lat="43.3756542205810546875" lon="-5.16154940240085124969482421875">
        <ele>48.200000762939453125</ele>
        <time>2018-09-07T11:40:05.000Z</time>
      </trkpt>
      <trkpt lat="43.3755648694932460784912109375" lon="-5.161421410739421844482421875">
        <ele>48.59999847412109375</ele>
        <time>2018-09-07T11:40:07.000Z</time>
      </trkpt>
      <trkpt lat="43.375466130673885345458984375" lon="-5.16130632720887660980224609375">
        <ele>48.799999237060546875</ele>
        <time>2018-09-07T11:40:09.000Z</time>
      </trkpt>
      <trkpt lat="43.3753083832561969757080078125" lon="-5.1611392758786678314208984375">
        <ele>48.799999237060546875</ele>
        <time>2018-09-07T11:40:12.000Z</time>
      </trkpt>
      <trkpt lat="43.3751454390585422515869140625" lon="-5.1609550416469573974609375">
        <ele>49</ele>
        <time>2018-09-07T11:40:15.000Z</time>
      </trkpt>
      <trkpt lat="43.374768085777759552001953125" lon="-5.160471908748149871826171875">
        <ele>48.59999847412109375</ele>
        <time>2018-09-07T11:40:22.000Z</time>
      </trkpt>
      <trkpt lat="43.37466306053102016448974609375" lon="-5.16031843610107898712158203125">
        <ele>48.40000152587890625</ele>
        <time>2018-09-07T11:40:24.000Z</time>
      </trkpt>
      <trkpt lat="43.37436650879681110382080078125" lon="-5.1598097383975982666015625">
        <ele>46.59999847412109375</ele>
        <time>2018-09-07T11:40:30.000Z</time>
      </trkpt>
      <trkpt lat="43.374318145215511322021484375" lon="-5.15971259213984012603759765625">
        <ele>46</ele>
        <time>2018-09-07T11:40:31.000Z</time>
      </trkpt>
      <trkpt lat="43.37427112273871898651123046875" lon="-5.15961200930178165435791015625">
        <ele>45.59999847412109375</ele>
        <time>2018-09-07T11:40:32.000Z</time>
      </trkpt>
      <trkpt lat="43.374181687831878662109375" lon="-5.15939466655254364013671875">
        <ele>44.200000762939453125</ele>
        <time>2018-09-07T11:40:34.000Z</time>
      </trkpt>
      <trkpt lat="43.374141789972782135009765625" lon="-5.15928125940263271331787109375">
        <ele>43.59999847412109375</ele>
        <time>2018-09-07T11:40:35.000Z</time>
      </trkpt>
      <trkpt lat="43.37411119602620601654052734375" lon="-5.159162320196628570556640625">
        <ele>43.200000762939453125</ele>
        <time>2018-09-07T11:40:36.000Z</time>
      </trkpt>
      <trkpt lat="43.373992927372455596923828125" lon="-5.15847743488848209381103515625">
        <ele>43</ele>
        <time>2018-09-07T11:40:42.000Z</time>
      </trkpt>
      <trkpt lat="43.37394741363823413848876953125" lon="-5.15790402889251708984375">
        <ele>42</ele>
        <time>2018-09-07T11:40:47.000Z</time>
      </trkpt>
      <trkpt lat="43.373941965401172637939453125" lon="-5.1576513983309268951416015625">
        <ele>40.799999237060546875</ele>
        <time>2018-09-07T11:40:49.000Z</time>
      </trkpt>
      <trkpt lat="43.3739464916288852691650390625" lon="-5.15714907087385654449462890625">
        <ele>39.799999237060546875</ele>
        <time>2018-09-07T11:40:53.000Z</time>
      </trkpt>
      <trkpt lat="43.37395546026527881622314453125" lon="-5.15669024549424648284912109375">
        <ele>40.40000152587890625</ele>
        <time>2018-09-07T11:40:57.000Z</time>
      </trkpt>
      <trkpt lat="43.373962752521038055419921875" lon="-5.15625572763383388519287109375">
        <ele>40.799999237060546875</ele>
        <time>2018-09-07T11:41:01.000Z</time>
      </trkpt>
      <trkpt lat="43.373973481357097625732421875" lon="-5.15594006516039371490478515625">
        <ele>41</ele>
        <time>2018-09-07T11:41:04.000Z</time>
      </trkpt>
      <trkpt lat="43.3739800192415714263916015625" lon="-5.15583545900881290435791015625">
        <ele>41</ele>
        <time>2018-09-07T11:41:05.000Z</time>
      </trkpt>
      <trkpt lat="43.37399602867662906646728515625" lon="-5.1556397415697574615478515625">
        <ele>41.200000762939453125</ele>
        <time>2018-09-07T11:41:07.000Z</time>
      </trkpt>
      <trkpt lat="43.37402469478547573089599609375" lon="-5.15538753010332584381103515625">
        <ele>41.40000152587890625</ele>
        <time>2018-09-07T11:41:10.000Z</time>
      </trkpt>
      <trkpt lat="43.374037854373455047607421875" lon="-5.15531695447862148284912109375">
        <ele>42</ele>
        <time>2018-09-07T11:41:11.000Z</time>
      </trkpt>
      <trkpt lat="43.37406895123422145843505859375" lon="-5.15517764724791049957275390625">
        <ele>42.40000152587890625</ele>
        <time>2018-09-07T11:41:13.000Z</time>
      </trkpt>
      <trkpt lat="43.37408102117478847503662109375" lon="-5.15510271303355693817138671875">
        <ele>42.59999847412109375</ele>
        <time>2018-09-07T11:41:14.000Z</time>
      </trkpt>
      <trkpt lat="43.3740893192589282989501953125" lon="-5.15502534806728363037109375">
        <ele>42.40000152587890625</ele>
        <time>2018-09-07T11:41:15.000Z</time>
      </trkpt>
      <trkpt lat="43.37413768284022808074951171875" lon="-5.15469250269234180450439453125">
        <ele>41.200000762939453125</ele>
        <time>2018-09-07T11:41:19.000Z</time>
      </trkpt>
      <trkpt lat="43.37416349910199642181396484375" lon="-5.1545249484479427337646484375">
        <ele>41.40000152587890625</ele>
        <time>2018-09-07T11:41:21.000Z</time>
      </trkpt>
      <trkpt lat="43.37419166229665279388427734375" lon="-5.15435974113643169403076171875">
        <ele>40.59999847412109375</ele>
        <time>2018-09-07T11:41:23.000Z</time>
      </trkpt>
      <trkpt lat="43.37422284297645092010498046875" lon="-5.15419713221490383148193359375">
        <ele>40.40000152587890625</ele>
        <time>2018-09-07T11:41:25.000Z</time>
      </trkpt>
      <trkpt lat="43.3742552809417247772216796875" lon="-5.154033936560153961181640625">
        <ele>40.200000762939453125</ele>
        <time>2018-09-07T11:41:27.000Z</time>
      </trkpt>
      <trkpt lat="43.37428721599280834197998046875" lon="-5.15387375839054584503173828125">
        <ele>40.40000152587890625</ele>
        <time>2018-09-07T11:41:29.000Z</time>
      </trkpt>
      <trkpt lat="43.374302051961421966552734375" lon="-5.15379488468170166015625">
        <ele>40.200000762939453125</ele>
        <time>2018-09-07T11:41:30.000Z</time>
      </trkpt>
      <trkpt lat="43.37434119544923305511474609375" lon="-5.15356563962996006011962890625">
        <ele>40</ele>
        <time>2018-09-07T11:41:33.000Z</time>
      </trkpt>
      <trkpt lat="43.37435930036008358001708984375" lon="-5.15349783003330230712890625">
        <ele>39.59999847412109375</ele>
        <time>2018-09-07T11:41:34.000Z</time>
      </trkpt>
      <trkpt lat="43.37438511662185192108154296875" lon="-5.153374783694744110107421875">
        <ele>40.40000152587890625</ele>
        <time>2018-09-07T11:41:36.000Z</time>
      </trkpt>
      <trkpt lat="43.37442048825323581695556640625" lon="-5.15325165353715419769287109375">
        <ele>40</ele>
        <time>2018-09-07T11:41:38.000Z</time>
      </trkpt>
      <trkpt lat="43.37444789707660675048828125" lon="-5.15310748480260372161865234375">
        <ele>39.799999237060546875</ele>
        <time>2018-09-07T11:41:40.000Z</time>
      </trkpt>
      <trkpt lat="43.37446625344455242156982421875" lon="-5.1529531739652156829833984375">
        <ele>39.799999237060546875</ele>
        <time>2018-09-07T11:41:42.000Z</time>
      </trkpt>
      <trkpt lat="43.37448385544121265411376953125" lon="-5.152796767652034759521484375">
        <ele>39.200000762939453125</ele>
        <time>2018-09-07T11:41:44.000Z</time>
      </trkpt>
      <trkpt lat="43.3745047263801097869873046875" lon="-5.15248370356857776641845703125">
        <ele>39.200000762939453125</ele>
        <time>2018-09-07T11:41:48.000Z</time>
      </trkpt>
      <trkpt lat="43.3744869567453861236572265625" lon="-5.15192999504506587982177734375">
        <ele>40</ele>
        <time>2018-09-07T11:41:55.000Z</time>
      </trkpt>
      <trkpt lat="43.37448008358478546142578125" lon="-5.15185003168880939483642578125">
        <ele>40</ele>
        <time>2018-09-07T11:41:56.000Z</time>
      </trkpt>
      <trkpt lat="43.37443071417510509490966796875" lon="-5.1514548249542713165283203125">
        <ele>40.200000762939453125</ele>
        <time>2018-09-07T11:42:01.000Z</time>
      </trkpt>
      <trkpt lat="43.3743964321911334991455078125" lon="-5.15112767927348613739013671875">
        <ele>40.200000762939453125</ele>
        <time>2018-09-07T11:42:05.000Z</time>
      </trkpt>
      <trkpt lat="43.3743756450712680816650390625" lon="-5.15087069012224674224853515625">
        <ele>40.40000152587890625</ele>
        <time>2018-09-07T11:42:08.000Z</time>
      </trkpt>
      <trkpt lat="43.37434957735240459442138671875" lon="-5.15044673345983028411865234375">
        <ele>40.200000762939453125</ele>
        <time>2018-09-07T11:42:13.000Z</time>
      </trkpt>
      <trkpt lat="43.37434153072535991668701171875" lon="-5.1503702066838741302490234375">
        <ele>40.40000152587890625</ele>
        <time>2018-09-07T11:42:14.000Z</time>
      </trkpt>
      <trkpt lat="43.37433792650699615478515625" lon="-5.15022897161543369293212890625">
        <ele>40.799999237060546875</ele>
        <time>2018-09-07T11:42:16.000Z</time>
      </trkpt>
      <trkpt lat="43.3743334002792835235595703125" lon="-5.15015303157269954681396484375">
        <ele>41.40000152587890625</ele>
        <time>2018-09-07T11:42:17.000Z</time>
      </trkpt>
      <trkpt lat="43.37432451546192169189453125" lon="-5.15007290057837963104248046875">
        <ele>41.799999237060546875</ele>
        <time>2018-09-07T11:42:18.000Z</time>
      </trkpt>
      <trkpt lat="43.3743176423013210296630859375" lon="-5.14970116317272186279296875">
        <ele>39.59999847412109375</ele>
        <time>2018-09-07T11:42:22.000Z</time>
      </trkpt>
      <trkpt lat="43.3742898143827915191650390625" lon="-5.14924543909728527069091796875">
        <ele>40.200000762939453125</ele>
        <time>2018-09-07T11:42:27.000Z</time>
      </trkpt>
      <trkpt lat="43.3742740564048290252685546875" lon="-5.1491511426866054534912109375">
        <ele>40</ele>
        <time>2018-09-07T11:42:28.000Z</time>
      </trkpt>
      <trkpt lat="43.3741785027086734771728515625" lon="-5.148799605667591094970703125">
        <ele>39.799999237060546875</ele>
        <time>2018-09-07T11:42:32.000Z</time>
      </trkpt>
      <trkpt lat="43.37414346635341644287109375" lon="-5.14871788211166858673095703125">
        <ele>39.799999237060546875</ele>
        <time>2018-09-07T11:42:33.000Z</time>
      </trkpt>
      <trkpt lat="43.37401379831135272979736328125" lon="-5.14851034618914127349853515625">
        <ele>40.200000762939453125</ele>
        <time>2018-09-07T11:42:36.000Z</time>
      </trkpt>
      <trkpt lat="43.37387566454708576202392578125" lon="-5.14835209585726261138916015625">
        <ele>40.799999237060546875</ele>
        <time>2018-09-07T11:42:39.000Z</time>
      </trkpt>
      <trkpt lat="43.37377994321286678314208984375" lon="-5.1482733897864818572998046875">
        <ele>41.40000152587890625</ele>
        <time>2018-09-07T11:42:41.000Z</time>
      </trkpt>
      <trkpt lat="43.37354793213307857513427734375" lon="-5.14815227128565311431884765625">
        <ele>42.200000762939453125</ele>
        <time>2018-09-07T11:42:46.000Z</time>
      </trkpt>
      <trkpt lat="43.37350484915077686309814453125" lon="-5.14813248999416828155517578125">
        <ele>42.200000762939453125</ele>
        <time>2018-09-07T11:42:47.000Z</time>
      </trkpt>
      <trkpt lat="43.37338716723024845123291015625" lon="-5.1480702124536037445068359375">
        <ele>43.200000762939453125</ele>
        <time>2018-09-07T11:42:50.000Z</time>
      </trkpt>
      <trkpt lat="43.3732558228075504302978515625" lon="-5.1480226032435894012451171875">
        <ele>43.59999847412109375</ele>
        <time>2018-09-07T11:42:53.000Z</time>
      </trkpt>
      <trkpt lat="43.37312221527099609375" lon="-5.14798362739384174346923828125">
        <ele>43.40000152587890625</ele>
        <time>2018-09-07T11:42:56.000Z</time>
      </trkpt>
      <trkpt lat="43.37293772958219051361083984375" lon="-5.14792864210903644561767578125">
        <ele>43.40000152587890625</ele>
        <time>2018-09-07T11:43:00.000Z</time>
      </trkpt>
      <trkpt lat="43.37269884534180164337158203125" lon="-5.1478542946279048919677734375">
        <ele>44</ele>
        <time>2018-09-07T11:43:05.000Z</time>
      </trkpt>
      <trkpt lat="43.372540511190891265869140625" lon="-5.147823952138423919677734375">
        <ele>43.799999237060546875</ele>
        <time>2018-09-07T11:43:08.000Z</time>
      </trkpt>
      <trkpt lat="43.37207405827939510345458984375" lon="-5.14779947698116302490234375">
        <ele>43.59999847412109375</ele>
        <time>2018-09-07T11:43:16.000Z</time>
      </trkpt>
      <trkpt lat="43.3717717230319976806640625" lon="-5.14786158688366413116455078125">
        <ele>43.799999237060546875</ele>
        <time>2018-09-07T11:43:21.000Z</time>
      </trkpt>
      <trkpt lat="43.371531665325164794921875" lon="-5.14792093075811862945556640625">
        <ele>43.40000152587890625</ele>
        <time>2018-09-07T11:43:25.000Z</time>
      </trkpt>
      <trkpt lat="43.3711234666407108306884765625" lon="-5.148068703711032867431640625">
        <ele>43.59999847412109375</ele>
        <time>2018-09-07T11:43:32.000Z</time>
      </trkpt>
      <trkpt lat="43.37082113139331340789794921875" lon="-5.14827313832938671112060546875">
        <ele>43.59999847412109375</ele>
        <time>2018-09-07T11:43:38.000Z</time>
      </trkpt>
      <trkpt lat="43.37077888660132884979248046875" lon="-5.148312784731388092041015625">
        <ele>44</ele>
        <time>2018-09-07T11:43:39.000Z</time>
      </trkpt>
      <trkpt lat="43.37068584747612476348876953125" lon="-5.14839316718280315399169921875">
        <ele>44.200000762939453125</ele>
        <time>2018-09-07T11:43:41.000Z</time>
      </trkpt>
      <trkpt lat="43.37049842812120914459228515625" lon="-5.14858762733638286590576171875">
        <ele>44.40000152587890625</ele>
        <time>2018-09-07T11:43:45.000Z</time>
      </trkpt>
      <trkpt lat="43.3701146207749843597412109375" lon="-5.1490740291774272918701171875">
        <ele>44.200000762939453125</ele>
        <time>2018-09-07T11:43:54.000Z</time>
      </trkpt>
      <trkpt lat="43.36970566771924495697021484375" lon="-5.14961373992264270782470703125">
        <ele>44.59999847412109375</ele>
        <time>2018-09-07T11:44:04.000Z</time>
      </trkpt>
      <trkpt lat="43.36932144127786159515380859375" lon="-5.15010307542979717254638671875">
        <ele>44.59999847412109375</ele>
        <time>2018-09-07T11:44:13.000Z</time>
      </trkpt>
      <trkpt lat="43.368999324738979339599609375" lon="-5.15051647089421749114990234375">
        <ele>45.200000762939453125</ele>
        <time>2018-09-07T11:44:21.000Z</time>
      </trkpt>
      <trkpt lat="43.3686199598014354705810546875" lon="-5.15100262127816677093505859375">
        <ele>44.59999847412109375</ele>
        <time>2018-09-07T11:44:30.000Z</time>
      </trkpt>
      <trkpt lat="43.3684157766401767730712890625" lon="-5.15127025544643402099609375">
        <ele>44.799999237060546875</ele>
        <time>2018-09-07T11:44:35.000Z</time>
      </trkpt>
      <trkpt lat="43.36838752962648868560791015625" lon="-5.15133219771087169647216796875">
        <ele>45</ele>
        <time>2018-09-07T11:44:36.000Z</time>
      </trkpt>
      <trkpt lat="43.36837093345820903778076171875" lon="-5.15140025876462459564208984375">
        <ele>44.799999237060546875</ele>
        <time>2018-09-07T11:44:37.000Z</time>
      </trkpt>
      <trkpt lat="43.36837428621947765350341796875" lon="-5.15152179636061191558837890625">
        <ele>45</ele>
        <time>2018-09-07T11:44:39.000Z</time>
      </trkpt>
      <trkpt lat="43.36835333146154880523681640625" lon="-5.15156286768615245819091796875">
        <ele>45.200000762939453125</ele>
        <time>2018-09-07T11:44:40.000Z</time>
      </trkpt>
      <trkpt lat="43.36828015744686126708984375" lon="-5.151562280952930450439453125">
        <ele>46</ele>
        <time>2018-09-07T11:44:42.000Z</time>
      </trkpt>
      <trkpt lat="43.36813992820680141448974609375" lon="-5.15161517076194286346435546875">
        <ele>46.200000762939453125</ele>
        <time>2018-09-07T11:44:45.000Z</time>
      </trkpt>
      <trkpt lat="43.36806130595505237579345703125" lon="-5.1517220400273799896240234375">
        <ele>46.200000762939453125</ele>
        <time>2018-09-07T11:44:47.000Z</time>
      </trkpt>
      <trkpt lat="43.3679789118468761444091796875" lon="-5.15182488597929477691650390625">
        <ele>46.200000762939453125</ele>
        <time>2018-09-07T11:44:49.000Z</time>
      </trkpt>
      <trkpt lat="43.36793775670230388641357421875" lon="-5.15187148936092853546142578125">
        <ele>46.200000762939453125</ele>
        <time>2018-09-07T11:44:50.000Z</time>
      </trkpt>
      <trkpt lat="43.36785460822284221649169921875" lon="-5.15196586959064006805419921875">
        <ele>46.40000152587890625</ele>
        <time>2018-09-07T11:44:52.000Z</time>
      </trkpt>
      <trkpt lat="43.3676223456859588623046875" lon="-5.15226258896291255950927734375">
        <ele>47.200000762939453125</ele>
        <time>2018-09-07T11:44:58.000Z</time>
      </trkpt>
      <trkpt lat="43.3675816096365451812744140625" lon="-5.1523091085255146026611328125">
        <ele>47.40000152587890625</ele>
        <time>2018-09-07T11:44:59.000Z</time>
      </trkpt>
      <trkpt lat="43.367361836135387420654296875" lon="-5.15258948318660259246826171875">
        <ele>47.40000152587890625</ele>
        <time>2018-09-07T11:45:05.000Z</time>
      </trkpt>
      <trkpt lat="43.367154635488986968994140625" lon="-5.15281328000128269195556640625">
        <ele>47.799999237060546875</ele>
        <time>2018-09-07T11:45:10.000Z</time>
      </trkpt>
      <trkpt lat="43.36693779565393924713134765625" lon="-5.15305015258491039276123046875">
        <ele>48</ele>
        <time>2018-09-07T11:45:15.000Z</time>
      </trkpt>
      <trkpt lat="43.3666820637881755828857421875" lon="-5.1532941497862339019775390625">
        <ele>48.40000152587890625</ele>
        <time>2018-09-07T11:45:21.000Z</time>
      </trkpt>
      <trkpt lat="43.3665338717401027679443359375" lon="-5.153355337679386138916015625">
        <ele>48</ele>
        <time>2018-09-07T11:45:24.000Z</time>
      </trkpt>
      <trkpt lat="43.3664322830736637115478515625" lon="-5.15337319113314151763916015625">
        <ele>48</ele>
        <time>2018-09-07T11:45:26.000Z</time>
      </trkpt>
      <trkpt lat="43.366322815418243408203125" lon="-5.15337578952312469482421875">
        <ele>48</ele>
        <time>2018-09-07T11:45:28.000Z</time>
      </trkpt>
      <trkpt lat="43.3662230707705020904541015625" lon="-5.1533273421227931976318359375">
        <ele>48</ele>
        <time>2018-09-07T11:45:30.000Z</time>
      </trkpt>
      <trkpt lat="43.36607513017952442169189453125" lon="-5.15324260108172893524169921875">
        <ele>48.200000762939453125</ele>
        <time>2018-09-07T11:45:33.000Z</time>
      </trkpt>
      <trkpt lat="43.36590782739222049713134765625" lon="-5.1531838439404964447021484375">
        <ele>48.200000762939453125</ele>
        <time>2018-09-07T11:45:36.000Z</time>
      </trkpt>
      <trkpt lat="43.36560909636318683624267578125" lon="-5.15316230244934558868408203125">
        <ele>48</ele>
        <time>2018-09-07T11:45:41.000Z</time>
      </trkpt>
      <trkpt lat="43.3651144802570343017578125" lon="-5.1530693471431732177734375">
        <ele>48.40000152587890625</ele>
        <time>2018-09-07T11:45:49.000Z</time>
      </trkpt>
      <trkpt lat="43.36483192630112171173095703125" lon="-5.15289642848074436187744140625">
        <ele>48.40000152587890625</ele>
        <time>2018-09-07T11:45:55.000Z</time>
      </trkpt>
      <trkpt lat="43.36459555663168430328369140625" lon="-5.1526168920099735260009765625">
        <ele>48.200000762939453125</ele>
        <time>2018-09-07T11:46:00.000Z</time>
      </trkpt>
      <trkpt lat="43.36455482058227062225341796875" lon="-5.15255830250680446624755859375">
        <ele>48.40000152587890625</ele>
        <time>2018-09-07T11:46:01.000Z</time>
      </trkpt>
      <trkpt lat="43.364507965743541717529296875" lon="-5.15250214375555515289306640625">
        <ele>48.40000152587890625</ele>
        <time>2018-09-07T11:46:02.000Z</time>
      </trkpt>
      <trkpt lat="43.3643958158791065216064453125" lon="-5.1524281315505504608154296875">
        <ele>48</ele>
        <time>2018-09-07T11:46:04.000Z</time>
      </trkpt>
      <trkpt lat="43.3642181195318698883056640625" lon="-5.1524599827826023101806640625">
        <ele>47.799999237060546875</ele>
        <time>2018-09-07T11:46:07.000Z</time>
      </trkpt>
      <trkpt lat="43.36412918753921985626220703125" lon="-5.15246023423969745635986328125">
        <ele>48.59999847412109375</ele>
        <time>2018-09-07T11:46:09.000Z</time>
      </trkpt>
      <trkpt lat="43.3641007728874683380126953125" lon="-5.15242922119796276092529296875">
        <ele>49.200000762939453125</ele>
        <time>2018-09-07T11:46:10.000Z</time>
      </trkpt>
      <trkpt lat="43.36409230716526508331298828125" lon="-5.15238680876791477203369140625">
        <ele>49.59999847412109375</ele>
        <time>2018-09-07T11:46:11.000Z</time>
      </trkpt>
      <trkpt lat="43.3641140162944793701171875" lon="-5.152344815433025360107421875">
        <ele>49.59999847412109375</ele>
        <time>2018-09-07T11:46:12.000Z</time>
      </trkpt>
      <trkpt lat="43.364169336855411529541015625" lon="-5.15223207883536815643310546875">
        <ele>49</ele>
        <time>2018-09-07T11:46:14.000Z</time>
      </trkpt>
      <trkpt lat="43.3641850948333740234375" lon="-5.1521587371826171875">
        <ele>48.59999847412109375</ele>
        <time>2018-09-07T11:46:15.000Z</time>
      </trkpt>
      <trkpt lat="43.36419221945106983184814453125" lon="-5.15208321623504161834716796875">
        <ele>48.40000152587890625</ele>
        <time>2018-09-07T11:46:16.000Z</time>
      </trkpt>
      <trkpt lat="43.3641891181468963623046875" lon="-5.15193116851150989532470703125">
        <ele>48</ele>
        <time>2018-09-07T11:46:18.000Z</time>
      </trkpt>
      <trkpt lat="43.3641850948333740234375" lon="-5.15185229480266571044921875">
        <ele>47.799999237060546875</ele>
        <time>2018-09-07T11:46:19.000Z</time>
      </trkpt>
      <trkpt lat="43.36416489444673061370849609375" lon="-5.1516965590417385101318359375">
        <ele>47.799999237060546875</ele>
        <time>2018-09-07T11:46:21.000Z</time>
      </trkpt>
      <trkpt lat="43.3641113340854644775390625" lon="-5.15155498869717121124267578125">
        <ele>47.59999847412109375</ele>
        <time>2018-09-07T11:46:23.000Z</time>
      </trkpt>
      <trkpt lat="43.36388443596661090850830078125" lon="-5.15095836482942104339599609375">
        <ele>47.799999237060546875</ele>
        <time>2018-09-07T11:46:31.000Z</time>
      </trkpt>
      <trkpt lat="43.36367690004408359527587890625" lon="-5.15044656582176685333251953125">
        <ele>47.799999237060546875</ele>
        <time>2018-09-07T11:46:38.000Z</time>
      </trkpt>
      <trkpt lat="43.3635321445763111114501953125" lon="-5.15007139183580875396728515625">
        <ele>48</ele>
        <time>2018-09-07T11:46:43.000Z</time>
      </trkpt>
      <trkpt lat="43.36347171105444431304931640625" lon="-5.14992219395935535430908203125">
        <ele>48</ele>
        <time>2018-09-07T11:46:45.000Z</time>
      </trkpt>
      <trkpt lat="43.363442122936248779296875" lon="-5.1498475112020969390869140625">
        <ele>47.799999237060546875</ele>
        <time>2018-09-07T11:46:46.000Z</time>
      </trkpt>
      <trkpt lat="43.36317432112991809844970703125" lon="-5.1491712592542171478271484375">
        <ele>48.40000152587890625</ele>
        <time>2018-09-07T11:46:55.000Z</time>
      </trkpt>
      <trkpt lat="43.36314498446881771087646484375" lon="-5.1490961574018001556396484375">
        <ele>48.59999847412109375</ele>
        <time>2018-09-07T11:46:56.000Z</time>
      </trkpt>
      <trkpt lat="43.36306015960872173309326171875" lon="-5.148871354758739471435546875">
        <ele>49</ele>
        <time>2018-09-07T11:46:59.000Z</time>
      </trkpt>
      <trkpt lat="43.36297131143510341644287109375" lon="-5.14865065924823284149169921875">
        <ele>49.200000762939453125</ele>
        <time>2018-09-07T11:47:02.000Z</time>
      </trkpt>
      <trkpt lat="43.36294029839336872100830078125" lon="-5.14858134090900421142578125">
        <ele>49.40000152587890625</ele>
        <time>2018-09-07T11:47:03.000Z</time>
      </trkpt>
      <trkpt lat="43.36291062645614147186279296875" lon="-5.1485107652842998504638671875">
        <ele>49.40000152587890625</ele>
        <time>2018-09-07T11:47:04.000Z</time>
      </trkpt>
      <trkpt lat="43.362801074981689453125" lon="-5.14823072589933872222900390625">
        <ele>50</ele>
        <time>2018-09-07T11:47:08.000Z</time>
      </trkpt>
      <trkpt lat="43.36272102780640125274658203125" lon="-5.14801950193941593170166015625">
        <ele>50.200000762939453125</ele>
        <time>2018-09-07T11:47:11.000Z</time>
      </trkpt>
      <trkpt lat="43.36266495287418365478515625" lon="-5.14787969179451465606689453125">
        <ele>50.799999237060546875</ele>
        <time>2018-09-07T11:47:13.000Z</time>
      </trkpt>
      <trkpt lat="43.362553305923938751220703125" lon="-5.147604681551456451416015625">
        <ele>51.200000762939453125</ele>
        <time>2018-09-07T11:47:17.000Z</time>
      </trkpt>
      <trkpt lat="43.3624954707920551300048828125" lon="-5.14747635461390018463134765625">
        <ele>51.40000152587890625</ele>
        <time>2018-09-07T11:47:19.000Z</time>
      </trkpt>
      <trkpt lat="43.36240855045616626739501953125" lon="-5.14727669768035411834716796875">
        <ele>51.40000152587890625</ele>
        <time>2018-09-07T11:47:22.000Z</time>
      </trkpt>
      <trkpt lat="43.36235188879072666168212890625" lon="-5.14714158140122890472412109375">
        <ele>51.799999237060546875</ele>
        <time>2018-09-07T11:47:24.000Z</time>
      </trkpt>
      <trkpt lat="43.36226572282612323760986328125" lon="-5.146936140954494476318359375">
        <ele>52.200000762939453125</ele>
        <time>2018-09-07T11:47:27.000Z</time>
      </trkpt>
      <trkpt lat="43.36197369731962680816650390625" lon="-5.14628880657255649566650390625">
        <ele>52</ele>
        <time>2018-09-07T11:47:36.000Z</time>
      </trkpt>
      <trkpt lat="43.36193681694567203521728515625" lon="-5.1462163031101226806640625">
        <ele>52</ele>
        <time>2018-09-07T11:47:37.000Z</time>
      </trkpt>
      <trkpt lat="43.361706398427486419677734375" lon="-5.14575990848243236541748046875">
        <ele>51.59999847412109375</ele>
        <time>2018-09-07T11:47:43.000Z</time>
      </trkpt>
      <trkpt lat="43.3616167120635509490966796875" lon="-5.14560945332050323486328125">
        <ele>51.59999847412109375</ele>
        <time>2018-09-07T11:47:45.000Z</time>
      </trkpt>
      <trkpt lat="43.3614852838218212127685546875" lon="-5.14538054354488849639892578125">
        <ele>51</ele>
        <time>2018-09-07T11:47:48.000Z</time>
      </trkpt>
      <trkpt lat="43.3613551966845989227294921875" lon="-5.14515004120767116546630859375">
        <ele>50.799999237060546875</ele>
        <time>2018-09-07T11:47:51.000Z</time>
      </trkpt>
      <trkpt lat="43.3611734770238399505615234375" lon="-5.1448368094861507415771484375">
        <ele>51</ele>
        <time>2018-09-07T11:47:55.000Z</time>
      </trkpt>
      <trkpt lat="43.3611258678138256072998046875" lon="-5.1447590254247188568115234375">
        <ele>50.799999237060546875</ele>
        <time>2018-09-07T11:47:56.000Z</time>
      </trkpt>
      <trkpt lat="43.3608988858759403228759765625" lon="-5.1443583704531192779541015625">
        <ele>50.200000762939453125</ele>
        <time>2018-09-07T11:48:01.000Z</time>
      </trkpt>
      <trkpt lat="43.36080618202686309814453125" lon="-5.144188217818737030029296875">
        <ele>49.799999237060546875</ele>
        <time>2018-09-07T11:48:03.000Z</time>
      </trkpt>
      <trkpt lat="43.360707275569438934326171875" lon="-5.14402351342141628265380859375">
        <ele>49.799999237060546875</ele>
        <time>2018-09-07T11:48:05.000Z</time>
      </trkpt>
      <trkpt lat="43.36045104078948497772216796875" lon="-5.14360852539539337158203125">
        <ele>50.40000152587890625</ele>
        <time>2018-09-07T11:48:10.000Z</time>
      </trkpt>
      <trkpt lat="43.36030519567430019378662109375" lon="-5.14335949905216693878173828125">
        <ele>50.59999847412109375</ele>
        <time>2018-09-07T11:48:13.000Z</time>
      </trkpt>
      <trkpt lat="43.36006899364292621612548828125" lon="-5.1429549045860767364501953125">
        <ele>50.799999237060546875</ele>
        <time>2018-09-07T11:48:18.000Z</time>
      </trkpt>
      <trkpt lat="43.359938152134418487548828125" lon="-5.14273085631430149078369140625">
        <ele>51.200000762939453125</ele>
        <time>2018-09-07T11:48:21.000Z</time>
      </trkpt>
      <trkpt lat="43.35981309413909912109375" lon="-5.14250940643250942230224609375">
        <ele>52</ele>
        <time>2018-09-07T11:48:24.000Z</time>
      </trkpt>
      <trkpt lat="43.35960798896849155426025390625" lon="-5.1421596296131610870361328125">
        <ele>52</ele>
        <time>2018-09-07T11:48:29.000Z</time>
      </trkpt>
      <trkpt lat="43.35933892987668514251708984375" lon="-5.141694433987140655517578125">
        <ele>52.799999237060546875</ele>
        <time>2018-09-07T11:48:36.000Z</time>
      </trkpt>
      <trkpt lat="43.35899175144731998443603515625" lon="-5.14110409654676914215087890625">
        <ele>53</ele>
        <time>2018-09-07T11:48:45.000Z</time>
      </trkpt>
      <trkpt lat="43.3586491830646991729736328125" lon="-5.1405228115618228912353515625">
        <ele>53.40000152587890625</ele>
        <time>2018-09-07T11:48:54.000Z</time>
      </trkpt>
      <trkpt lat="43.35831466130912303924560546875" lon="-5.13995896093547344207763671875">
        <ele>53.59999847412109375</ele>
        <time>2018-09-07T11:49:03.000Z</time>
      </trkpt>
      <trkpt lat="43.35824626497924327850341796875" lon="-5.13982929289340972900390625">
        <ele>54.200000762939453125</ele>
        <time>2018-09-07T11:49:05.000Z</time>
      </trkpt>
      <trkpt lat="43.3579518087208271026611328125" lon="-5.1393161527812480926513671875">
        <ele>54.200000762939453125</ele>
        <time>2018-09-07T11:49:13.000Z</time>
      </trkpt>
      <trkpt lat="43.357601948082447052001953125" lon="-5.1386982388794422149658203125">
        <ele>55</ele>
        <time>2018-09-07T11:49:23.000Z</time>
      </trkpt>
      <trkpt lat="43.3575307019054889678955078125" lon="-5.13857494108378887176513671875">
        <ele>55.200000762939453125</ele>
        <time>2018-09-07T11:49:25.000Z</time>
      </trkpt>
      <trkpt lat="43.35735828615725040435791015625" lon="-5.13830034993588924407958984375">
        <ele>55.59999847412109375</ele>
        <time>2018-09-07T11:49:30.000Z</time>
      </trkpt>
      <trkpt lat="43.357316963374614715576171875" lon="-5.138257853686809539794921875">
        <ele>55.59999847412109375</ele>
        <time>2018-09-07T11:49:31.000Z</time>
      </trkpt>
      <trkpt lat="43.35722283460199832916259765625" lon="-5.1381765492260456085205078125">
        <ele>55.59999847412109375</ele>
        <time>2018-09-07T11:49:33.000Z</time>
      </trkpt>
      <trkpt lat="43.35716801695525646209716796875" lon="-5.13815601356327533721923828125">
        <ele>55.59999847412109375</ele>
        <time>2018-09-07T11:49:34.000Z</time>
      </trkpt>
      <trkpt lat="43.356956206262111663818359375" lon="-5.138115026056766510009765625">
        <ele>55.799999237060546875</ele>
        <time>2018-09-07T11:49:38.000Z</time>
      </trkpt>
      <trkpt lat="43.3568648435175418853759765625" lon="-5.13810270465910434722900390625">
        <ele>56</ele>
        <time>2018-09-07T11:49:40.000Z</time>
      </trkpt>
      <trkpt lat="43.35679627954959869384765625" lon="-5.138077475130558013916015625">
        <ele>56.40000152587890625</ele>
        <time>2018-09-07T11:49:42.000Z</time>
      </trkpt>
      <trkpt lat="43.3567835390567779541015625" lon="-5.13797714374959468841552734375">
        <ele>56.40000152587890625</ele>
        <time>2018-09-07T11:49:44.000Z</time>
      </trkpt>
      <trkpt lat="43.35678756237030029296875" lon="-5.13791981153190135955810546875">
        <ele>56.40000152587890625</ele>
        <time>2018-09-07T11:49:45.000Z</time>
      </trkpt>
      <trkpt lat="43.3567706309258937835693359375" lon="-5.1378674246370792388916015625">
        <ele>56.200000762939453125</ele>
        <time>2018-09-07T11:49:46.000Z</time>
      </trkpt>
      <trkpt lat="43.3567352592945098876953125" lon="-5.1377571187913417816162109375">
        <ele>56.40000152587890625</ele>
        <time>2018-09-07T11:49:48.000Z</time>
      </trkpt>
      <trkpt lat="43.35673131980001926422119140625" lon="-5.13749853707849979400634765625">
        <ele>56.200000762939453125</ele>
        <time>2018-09-07T11:49:52.000Z</time>
      </trkpt>
      <trkpt lat="43.35674406029284000396728515625" lon="-5.13743382878601551055908203125">
        <ele>56.40000152587890625</ele>
        <time>2018-09-07T11:49:53.000Z</time>
      </trkpt>
      <trkpt lat="43.35675814189016819000244140625" lon="-5.13729770667850971221923828125">
        <ele>56.40000152587890625</ele>
        <time>2018-09-07T11:49:55.000Z</time>
      </trkpt>
      <trkpt lat="43.35672243498265743255615234375" lon="-5.1371700502932071685791015625">
        <ele>56.59999847412109375</ele>
        <time>2018-09-07T11:49:57.000Z</time>
      </trkpt>
      <trkpt lat="43.3566267974674701690673828125" lon="-5.13700769282877445220947265625">
        <ele>56.799999237060546875</ele>
        <time>2018-09-07T11:50:00.000Z</time>
      </trkpt>
      <trkpt lat="43.3565614186227321624755859375" lon="-5.13689839281141757965087890625">
        <ele>57</ele>
        <time>2018-09-07T11:50:02.000Z</time>
      </trkpt>
      <trkpt lat="43.35649645887315273284912109375" lon="-5.136780627071857452392578125">
        <ele>57</ele>
        <time>2018-09-07T11:50:04.000Z</time>
      </trkpt>
      <trkpt lat="43.3562921918928623199462890625" lon="-5.13642665930092334747314453125">
        <ele>57.40000152587890625</ele>
        <time>2018-09-07T11:50:10.000Z</time>
      </trkpt>
      <trkpt lat="43.3561664633452892303466796875" lon="-5.136210657656192779541015625">
        <ele>57.200000762939453125</ele>
        <time>2018-09-07T11:50:14.000Z</time>
      </trkpt>
      <trkpt lat="43.35610753856599330902099609375" lon="-5.136108733713626861572265625">
        <ele>57</ele>
        <time>2018-09-07T11:50:16.000Z</time>
      </trkpt>
      <trkpt lat="43.3560450933873653411865234375" lon="-5.13600538484752178192138671875">
        <ele>57.200000762939453125</ele>
        <time>2018-09-07T11:50:18.000Z</time>
      </trkpt>
      <trkpt lat="43.35597761906683444976806640625" lon="-5.1358949951827526092529296875">
        <ele>57.59999847412109375</ele>
        <time>2018-09-07T11:50:20.000Z</time>
      </trkpt>
      <trkpt lat="43.35590754635632038116455078125" lon="-5.1357722841203212738037109375">
        <ele>58</ele>
        <time>2018-09-07T11:50:22.000Z</time>
      </trkpt>
      <trkpt lat="43.35587351582944393157958984375" lon="-5.1357154548168182373046875">
        <ele>58</ele>
        <time>2018-09-07T11:50:23.000Z</time>
      </trkpt>
      <trkpt lat="43.35584082640707492828369140625" lon="-5.13566072098910808563232421875">
        <ele>58.40000152587890625</ele>
        <time>2018-09-07T11:50:24.000Z</time>
      </trkpt>
      <trkpt lat="43.35571358911693096160888671875" lon="-5.135440863668918609619140625">
        <ele>58</ele>
        <time>2018-09-07T11:50:28.000Z</time>
      </trkpt>
      <trkpt lat="43.3556878566741943359375" lon="-5.135377161204814910888671875">
        <ele>58</ele>
        <time>2018-09-07T11:50:29.000Z</time>
      </trkpt>
      <trkpt lat="43.3556303568184375762939453125" lon="-5.1352673582732677459716796875">
        <ele>57.799999237060546875</ele>
        <time>2018-09-07T11:50:31.000Z</time>
      </trkpt>
      <trkpt lat="43.35556606762111186981201171875" lon="-5.1351848803460597991943359375">
        <ele>57.799999237060546875</ele>
        <time>2018-09-07T11:50:33.000Z</time>
      </trkpt>
      <trkpt lat="43.3555327914655208587646484375" lon="-5.1351463235914707183837890625">
        <ele>57.59999847412109375</ele>
        <time>2018-09-07T11:50:34.000Z</time>
      </trkpt>
      <trkpt lat="43.35540815256536006927490234375" lon="-5.13503626920282840728759765625">
        <ele>57.59999847412109375</ele>
        <time>2018-09-07T11:50:37.000Z</time>
      </trkpt>
      <trkpt lat="43.35531913675367832183837890625" lon="-5.1349595747888088226318359375">
        <ele>57.40000152587890625</ele>
        <time>2018-09-07T11:50:39.000Z</time>
      </trkpt>
      <trkpt lat="43.3549276180565357208251953125" lon="-5.134703256189823150634765625">
        <ele>58</ele>
        <time>2018-09-07T11:50:47.000Z</time>
      </trkpt>
      <trkpt lat="43.354520089924335479736328125" lon="-5.13451181352138519287109375">
        <ele>58.200000762939453125</ele>
        <time>2018-09-07T11:50:55.000Z</time>
      </trkpt>
      <trkpt lat="43.3542657829821109771728515625" lon="-5.13438466005027294158935546875">
        <ele>58.40000152587890625</ele>
        <time>2018-09-07T11:51:00.000Z</time>
      </trkpt>
      <trkpt lat="43.3542044274508953094482421875" lon="-5.13435649685561656951904296875">
        <ele>58.40000152587890625</ele>
        <time>2018-09-07T11:51:01.000Z</time>
      </trkpt>
      <trkpt lat="43.35414617322385311126708984375" lon="-5.13433654792606830596923828125">
        <ele>58.59999847412109375</ele>
        <time>2018-09-07T11:51:02.000Z</time>
      </trkpt>
      <trkpt lat="43.35386940278112888336181640625" lon="-5.13421467505395412445068359375">
        <ele>58.200000762939453125</ele>
        <time>2018-09-07T11:51:07.000Z</time>
      </trkpt>
      <trkpt lat="43.3533115871250629425048828125" lon="-5.1339584402740001678466796875">
        <ele>58.799999237060546875</ele>
        <time>2018-09-07T11:51:17.000Z</time>
      </trkpt>
      <trkpt lat="43.35279014892876148223876953125" lon="-5.13372332789003849029541015625">
        <ele>58.799999237060546875</ele>
        <time>2018-09-07T11:51:26.000Z</time>
      </trkpt>
      <trkpt lat="43.35239033214747905731201171875" lon="-5.133536159992218017578125">
        <ele>59</ele>
        <time>2018-09-07T11:51:33.000Z</time>
      </trkpt>
      <trkpt lat="43.3518759347498416900634765625" lon="-5.13331831432878971099853515625">
        <ele>59.200000762939453125</ele>
        <time>2018-09-07T11:51:42.000Z</time>
      </trkpt>
      <trkpt lat="43.35158583708107471466064453125" lon="-5.1331876404583454132080078125">
        <ele>59.40000152587890625</ele>
        <time>2018-09-07T11:51:47.000Z</time>
      </trkpt>
      <trkpt lat="43.3515302650630474090576171875" lon="-5.13316576369106769561767578125">
        <ele>59.40000152587890625</ele>
        <time>2018-09-07T11:51:48.000Z</time>
      </trkpt>
      <trkpt lat="43.3514739386737346649169921875" lon="-5.13314187526702880859375">
        <ele>59.59999847412109375</ele>
        <time>2018-09-07T11:51:49.000Z</time>
      </trkpt>
      <trkpt lat="43.35098267532885074615478515625" lon="-5.1329190842807292938232421875">
        <ele>60.200000762939453125</ele>
        <time>2018-09-07T11:51:58.000Z</time>
      </trkpt>
      <trkpt lat="43.3506813459098339080810546875" lon="-5.13277734629809856414794921875">
        <ele>60.200000762939453125</ele>
        <time>2018-09-07T11:52:04.000Z</time>
      </trkpt>
      <trkpt lat="43.35064169950783252716064453125" lon="-5.1327427290380001068115234375">
        <ele>60.40000152587890625</ele>
        <time>2018-09-07T11:52:05.000Z</time>
      </trkpt>
      <trkpt lat="43.3505690284073352813720703125" lon="-5.1326679624617099761962890625">
        <ele>60.59999847412109375</ele>
        <time>2018-09-07T11:52:07.000Z</time>
      </trkpt>
      <trkpt lat="43.3505422063171863555908203125" lon="-5.13262026943266391754150390625">
        <ele>60.59999847412109375</ele>
        <time>2018-09-07T11:52:08.000Z</time>
      </trkpt>
      <trkpt lat="43.3505170606076717376708984375" lon="-5.13250912539660930633544921875">
        <ele>60.59999847412109375</ele>
        <time>2018-09-07T11:52:10.000Z</time>
      </trkpt>
      <trkpt lat="43.35053340531885623931884765625" lon="-5.1322787068784236907958984375">
        <ele>60.40000152587890625</ele>
        <time>2018-09-07T11:52:14.000Z</time>
      </trkpt>
      <trkpt lat="43.35055033676326274871826171875" lon="-5.1321181096136569976806640625">
        <ele>60.40000152587890625</ele>
        <time>2018-09-07T11:52:17.000Z</time>
      </trkpt>
      <trkpt lat="43.350565843284130096435546875" lon="-5.13202331028878688812255859375">
        <ele>60.40000152587890625</ele>
        <time>2018-09-07T11:52:19.000Z</time>
      </trkpt>
      <trkpt lat="43.35057414136826992034912109375" lon="-5.13193328864872455596923828125">
        <ele>60.59999847412109375</ele>
        <time>2018-09-07T11:52:21.000Z</time>
      </trkpt>
      <trkpt lat="43.350585959851741790771484375" lon="-5.131835639476776123046875">
        <ele>60.59999847412109375</ele>
        <time>2018-09-07T11:52:23.000Z</time>
      </trkpt>
      <trkpt lat="43.35061253048479557037353515625" lon="-5.13161100447177886962890625">
        <ele>60.59999847412109375</ele>
        <time>2018-09-07T11:52:28.000Z</time>
      </trkpt>
      <trkpt lat="43.3505988679826259613037109375" lon="-5.1315271854400634765625">
        <ele>60.799999237060546875</ele>
        <time>2018-09-07T11:52:31.000Z</time>
      </trkpt>
      <trkpt lat="43.35058621130883693695068359375" lon="-5.13153565116226673126220703125">
        <ele>60.799999237060546875</ele>
        <time>2018-09-07T11:52:32.000Z</time>
      </trkpt>
      <trkpt lat="43.350582607090473175048828125" lon="-5.1316172070801258087158203125">
        <ele>60.59999847412109375</ele>
        <time>2018-09-07T11:52:35.000Z</time>
      </trkpt>
      <trkpt lat="43.350570201873779296875" lon="-5.13174234889447689056396484375">
        <ele>60.59999847412109375</ele>
        <time>2018-09-07T11:52:39.000Z</time>
      </trkpt>
      <trkpt lat="43.35056324489414691925048828125" lon="-5.13176313601434230804443359375">
        <ele>60.59999847412109375</ele>
        <time>2018-09-07T11:52:40.000Z</time>
      </trkpt>
      <trkpt lat="43.35058017633855342864990234375" lon="-5.13150111772119998931884765625">
        <ele>61.200000762939453125</ele>
        <time>2018-09-07T12:02:32.000Z</time>
      </trkpt>
      <trkpt lat="43.35056844167411327362060546875" lon="-5.13149374164640903472900390625">
        <ele>61.200000762939453125</ele>
        <time>2018-09-07T12:02:34.000Z</time>
      </trkpt>
      <trkpt lat="43.35055268369615077972412109375" lon="-5.1315263472497463226318359375">
        <ele>61.200000762939453125</ele>
        <time>2018-09-07T12:02:37.000Z</time>
      </trkpt>
      <trkpt lat="43.35054027847945690155029296875" lon="-5.131548307836055755615234375">
        <ele>61.200000762939453125</ele>
        <time>2018-09-07T12:02:39.000Z</time>
      </trkpt>
      <trkpt lat="43.35048780776560306549072265625" lon="-5.13154269196093082427978515625">
        <ele>61.200000762939453125</ele>
        <time>2018-09-07T12:02:43.000Z</time>
      </trkpt>
      <trkpt lat="43.3504620753228664398193359375" lon="-5.13152525760233402252197265625">
        <ele>61</ele>
        <time>2018-09-07T12:02:47.000Z</time>
      </trkpt>
      <trkpt lat="43.3504427969455718994140625" lon="-5.13152810744941234588623046875">
        <ele>61.200000762939453125</ele>
        <time>2018-09-07T12:02:49.000Z</time>
      </trkpt>
      <trkpt lat="43.35035973228514194488525390625" lon="-5.1315340586006641387939453125">
        <ele>61.200000762939453125</ele>
        <time>2018-09-07T12:02:53.000Z</time>
      </trkpt>
      <trkpt lat="43.35033886134624481201171875" lon="-5.131538920104503631591796875">
        <ele>61</ele>
        <time>2018-09-07T12:02:54.000Z</time>
      </trkpt>
      <trkpt lat="43.35028898902237415313720703125" lon="-5.13152156956493854522705078125">
        <ele>60.799999237060546875</ele>
        <time>2018-09-07T12:02:56.000Z</time>
      </trkpt>
      <trkpt lat="43.35023953579366207122802734375" lon="-5.1314670033752918243408203125">
        <ele>61.200000762939453125</ele>
        <time>2018-09-07T12:02:59.000Z</time>
      </trkpt>
      <trkpt lat="43.35020634345710277557373046875" lon="-5.13142324984073638916015625">
        <ele>61.200000762939453125</ele>
        <time>2018-09-07T12:03:02.000Z</time>
      </trkpt>
      <trkpt lat="43.350179605185985565185546875" lon="-5.1314131915569305419921875">
        <ele>61.40000152587890625</ele>
        <time>2018-09-07T12:03:04.000Z</time>
      </trkpt>
      <trkpt lat="43.35017331875860691070556640625" lon="-5.1313439570367336273193359375">
        <ele>61.59999847412109375</ele>
        <time>2018-09-07T12:03:07.000Z</time>
      </trkpt>
      <trkpt lat="43.35016879253089427947998046875" lon="-5.13132643885910511016845703125">
        <ele>61.59999847412109375</ele>
        <time>2018-09-07T12:03:08.000Z</time>
      </trkpt>
      <trkpt lat="43.35015236400067806243896484375" lon="-5.1312789134681224822998046875">
        <ele>61.40000152587890625</ele>
        <time>2018-09-07T12:03:11.000Z</time>
      </trkpt>
      <trkpt lat="43.3501573093235492706298828125" lon="-5.13119501061737537384033203125">
        <ele>61.40000152587890625</ele>
        <time>2018-09-07T12:03:14.000Z</time>
      </trkpt>
      <trkpt lat="43.35015605203807353973388671875" lon="-5.13108738698065280914306640625">
        <ele>61.799999237060546875</ele>
        <time>2018-09-07T12:03:19.000Z</time>
      </trkpt>
      <trkpt lat="43.35015420801937580108642578125" lon="-5.13107498176395893096923828125">
        <ele>61.799999237060546875</ele>
        <time>2018-09-07T12:03:20.000Z</time>
      </trkpt>
      <trkpt lat="43.35015378892421722412109375" lon="-5.131015889346599578857421875">
        <ele>61.799999237060546875</ele>
        <time>2018-09-07T12:03:24.000Z</time>
      </trkpt>
      <trkpt lat="43.35016611032187938690185546875" lon="-5.13096861541271209716796875">
        <ele>61.59999847412109375</ele>
        <time>2018-09-07T12:03:26.000Z</time>
      </trkpt>
      <trkpt lat="43.350160829722881317138671875" lon="-5.1308883167803287506103515625">
        <ele>61.59999847412109375</ele>
        <time>2018-09-07T12:03:29.000Z</time>
      </trkpt>
      <trkpt lat="43.35015085525810718536376953125" lon="-5.1308526098728179931640625">
        <ele>61.799999237060546875</ele>
        <time>2018-09-07T12:03:31.000Z</time>
      </trkpt>
      <trkpt lat="43.35011565126478672027587890625" lon="-5.13083391822874546051025390625">
        <ele>62.200000762939453125</ele>
        <time>2018-09-07T12:03:37.000Z</time>
      </trkpt>
      <trkpt lat="43.35009838454425334930419921875" lon="-5.130793936550617218017578125">
        <ele>62</ele>
        <time>2018-09-07T12:03:42.000Z</time>
      </trkpt>
      <trkpt lat="43.35008447058498859405517578125" lon="-5.1307159848511219024658203125">
        <ele>61.59999847412109375</ele>
        <time>2018-09-07T12:04:04.000Z</time>
      </trkpt>
      <trkpt lat="43.3500610850751399993896484375" lon="-5.13070031069219112396240234375">
        <ele>61.799999237060546875</ele>
        <time>2018-09-07T12:04:06.000Z</time>
      </trkpt>
      <trkpt lat="43.35002797655761241912841796875" lon="-5.130706764757633209228515625">
        <ele>62</ele>
        <time>2018-09-07T12:04:08.000Z</time>
      </trkpt>
      <trkpt lat="43.349981792271137237548828125" lon="-5.13070198707282543182373046875">
        <ele>61.799999237060546875</ele>
        <time>2018-09-07T12:04:10.000Z</time>
      </trkpt>
      <trkpt lat="43.3499626815319061279296875" lon="-5.13070047833025455474853515625">
        <ele>62</ele>
        <time>2018-09-07T12:04:11.000Z</time>
      </trkpt>
      <trkpt lat="43.349956311285495758056640625" lon="-5.13074657879769802093505859375">
        <ele>62</ele>
        <time>2018-09-07T12:05:07.000Z</time>
      </trkpt>
      <trkpt lat="43.3499762602150440216064453125" lon="-5.1307453215122222900390625">
        <ele>62</ele>
        <time>2018-09-07T12:05:08.000Z</time>
      </trkpt>
      <trkpt lat="43.3500060997903347015380859375" lon="-5.13074733316898345947265625">
        <ele>62</ele>
        <time>2018-09-07T12:05:12.000Z</time>
      </trkpt>
      <trkpt lat="43.35014750249683856964111328125" lon="-5.13074020855128765106201171875">
        <ele>61.799999237060546875</ele>
        <time>2018-09-07T12:07:40.000Z</time>
      </trkpt>
      <trkpt lat="43.35016258992254734039306640625" lon="-5.13073258101940155029296875">
        <ele>62</ele>
        <time>2018-09-07T12:07:41.000Z</time>
      </trkpt>
      <trkpt lat="43.3501992188394069671630859375" lon="-5.13071657158434391021728515625">
        <ele>62</ele>
        <time>2018-09-07T12:07:43.000Z</time>
      </trkpt>
      <trkpt lat="43.35021740756928920745849609375" lon="-5.130744315683841705322265625">
        <ele>61.799999237060546875</ele>
        <time>2018-09-07T12:07:44.000Z</time>
      </trkpt>
      <trkpt lat="43.3503055013716220855712890625" lon="-5.13078848831355571746826171875">
        <ele>61.799999237060546875</ele>
        <time>2018-09-07T12:07:48.000Z</time>
      </trkpt>
      <trkpt lat="43.35032880306243896484375" lon="-5.13080005533993244171142578125">
        <ele>61.799999237060546875</ele>
        <time>2018-09-07T12:07:49.000Z</time>
      </trkpt>
      <trkpt lat="43.35045327432453632354736328125" lon="-5.13088856823742389678955078125">
        <ele>61.799999237060546875</ele>
        <time>2018-09-07T12:07:56.000Z</time>
      </trkpt>
      <trkpt lat="43.35056978277862071990966796875" lon="-5.13094036839902400970458984375">
        <ele>61.799999237060546875</ele>
        <time>2018-09-07T12:08:02.000Z</time>
      </trkpt>
      <trkpt lat="43.350618146359920501708984375" lon="-5.130970291793346405029296875">
        <ele>61.59999847412109375</ele>
        <time>2018-09-07T12:08:07.000Z</time>
      </trkpt>
      <trkpt lat="43.35063231177628040313720703125" lon="-5.13093642890453338623046875">
        <ele>61.40000152587890625</ele>
        <time>2018-09-07T12:08:10.000Z</time>
      </trkpt>
      <trkpt lat="43.350646980106830596923828125" lon="-5.13088488020002841949462890625">
        <ele>61</ele>
        <time>2018-09-07T12:08:13.000Z</time>
      </trkpt>
      <trkpt lat="43.35068025626242160797119140625" lon="-5.130746327340602874755859375">
        <ele>61</ele>
        <time>2018-09-07T12:08:18.000Z</time>
      </trkpt>
      <trkpt lat="43.3507269434630870819091796875" lon="-5.13040727935731410980224609375">
        <ele>61</ele>
        <time>2018-09-07T12:08:27.000Z</time>
      </trkpt>
      <trkpt lat="43.350738845765590667724609375" lon="-5.13024844229221343994140625">
        <ele>60.799999237060546875</ele>
        <time>2018-09-07T12:08:31.000Z</time>
      </trkpt>
      <trkpt lat="43.35074194706976413726806640625" lon="-5.1301765255630016326904296875">
        <ele>60.799999237060546875</ele>
        <time>2018-09-07T12:08:33.000Z</time>
      </trkpt>
      <trkpt lat="43.35075485520064830780029296875" lon="-5.1301121525466442108154296875">
        <ele>60.799999237060546875</ele>
        <time>2018-09-07T12:08:36.000Z</time>
      </trkpt>
      <trkpt lat="43.35076625458896160125732421875" lon="-5.1300709135830402374267578125">
        <ele>61</ele>
        <time>2018-09-07T12:08:38.000Z</time>
      </trkpt>
      <trkpt lat="43.350807242095470428466796875" lon="-5.1301057823002338409423828125">
        <ele>61</ele>
        <time>2018-09-07T12:08:41.000Z</time>
      </trkpt>
      <trkpt lat="43.3508424460887908935546875" lon="-5.13016395270824432373046875">
        <ele>61.200000762939453125</ele>
        <time>2018-09-07T12:08:43.000Z</time>
      </trkpt>
      <trkpt lat="43.3508563600480556488037109375" lon="-5.13018465600907802581787109375">
        <ele>61.200000762939453125</ele>
        <time>2018-09-07T12:08:44.000Z</time>
      </trkpt>
      <trkpt lat="43.35088737308979034423828125" lon="-5.13017443008720874786376953125">
        <ele>61.40000152587890625</ele>
        <time>2018-09-07T12:08:45.000Z</time>
      </trkpt>
      <trkpt lat="43.35094646550714969635009765625" lon="-5.13016998767852783203125">
        <ele>61.59999847412109375</ele>
        <time>2018-09-07T12:08:47.000Z</time>
      </trkpt>
      <trkpt lat="43.35101251490414142608642578125" lon="-5.130164623260498046875">
        <ele>61.799999237060546875</ele>
        <time>2018-09-07T12:08:49.000Z</time>
      </trkpt>
      <trkpt lat="43.35111393593251705169677734375" lon="-5.1301600970327854156494140625">
        <ele>61.799999237060546875</ele>
        <time>2018-09-07T12:08:52.000Z</time>
      </trkpt>
      <trkpt lat="43.3512747846543788909912109375" lon="-5.13016529381275177001953125">
        <ele>62</ele>
        <time>2018-09-07T12:08:58.000Z</time>
      </trkpt>
      <trkpt lat="43.35139095783233642578125" lon="-5.130193792283535003662109375">
        <ele>62.200000762939453125</ele>
        <time>2018-09-07T12:09:02.000Z</time>
      </trkpt>
      <trkpt lat="43.35142649710178375244140625" lon="-5.13019789941608905792236328125">
        <ele>62.40000152587890625</ele>
        <time>2018-09-07T12:09:03.000Z</time>
      </trkpt>
      <trkpt lat="43.35159354843199253082275390625" lon="-5.13018767349421977996826171875">
        <ele>62.59999847412109375</ele>
        <time>2018-09-07T12:09:09.000Z</time>
      </trkpt>
      <trkpt lat="43.35170008242130279541015625" lon="-5.13017895631492137908935546875">
        <ele>62.59999847412109375</ele>
        <time>2018-09-07T12:09:15.000Z</time>
      </trkpt>
      <trkpt lat="43.3517163433134555816650390625" lon="-5.13017627410590648651123046875">
        <ele>62.59999847412109375</ele>
        <time>2018-09-07T12:09:16.000Z</time>
      </trkpt>
      <trkpt lat="43.35184349678456783294677734375" lon="-5.13017468154430389404296875">
        <ele>62.200000762939453125</ele>
        <time>2018-09-07T12:09:22.000Z</time>
      </trkpt>
      <trkpt lat="43.35193837992846965789794921875" lon="-5.1301874220371246337890625">
        <ele>62.200000762939453125</ele>
        <time>2018-09-07T12:09:26.000Z</time>
      </trkpt>
      <trkpt lat="43.351965956389904022216796875" lon="-5.13017962686717510223388671875">
        <ele>62.200000762939453125</ele>
        <time>2018-09-07T12:09:27.000Z</time>
      </trkpt>
      <trkpt lat="43.352084644138813018798828125" lon="-5.1301892660558223724365234375">
        <ele>61.799999237060546875</ele>
        <time>2018-09-07T12:09:31.000Z</time>
      </trkpt>
      <trkpt lat="43.35221246816217899322509765625" lon="-5.13021198101341724395751953125">
        <ele>61.799999237060546875</ele>
        <time>2018-09-07T12:09:35.000Z</time>
      </trkpt>
      <trkpt lat="43.35242218337953090667724609375" lon="-5.1302365399897098541259765625">
        <ele>61.200000762939453125</ele>
        <time>2018-09-07T12:09:41.000Z</time>
      </trkpt>
      <trkpt lat="43.35254137404263019561767578125" lon="-5.13022908009588718414306640625">
        <ele>61</ele>
        <time>2018-09-07T12:09:44.000Z</time>
      </trkpt>
      <trkpt lat="43.35277975536882877349853515625" lon="-5.13020217418670654296875">
        <ele>60.799999237060546875</ele>
        <time>2018-09-07T12:09:50.000Z</time>
      </trkpt>
      <trkpt lat="43.352813534438610076904296875" lon="-5.13019169680774211883544921875">
        <ele>60.799999237060546875</ele>
        <time>2018-09-07T12:09:51.000Z</time>
      </trkpt>
      <trkpt lat="43.3528968505561351776123046875" lon="-5.13020955026149749755859375">
        <ele>60.799999237060546875</ele>
        <time>2018-09-07T12:09:55.000Z</time>
      </trkpt>
      <trkpt lat="43.352927528321743011474609375" lon="-5.1302489452064037322998046875">
        <ele>60.59999847412109375</ele>
        <time>2018-09-07T12:09:58.000Z</time>
      </trkpt>
      <trkpt lat="43.35290581919252872467041015625" lon="-5.1302898488938808441162109375">
        <ele>60.40000152587890625</ele>
        <time>2018-09-07T12:10:00.000Z</time>
      </trkpt>
      <trkpt lat="43.35295476950705051422119140625" lon="-5.13031038455665111541748046875">
        <ele>60.799999237060546875</ele>
        <time>2018-09-07T12:10:04.000Z</time>
      </trkpt>
      <trkpt lat="43.35300371982157230377197265625" lon="-5.1303173415362834930419921875">
        <ele>60.59999847412109375</ele>
        <time>2018-09-07T12:10:06.000Z</time>
      </trkpt>
      <trkpt lat="43.35304386913776397705078125" lon="-5.13032262213528156280517578125">
        <ele>60.40000152587890625</ele>
        <time>2018-09-07T12:10:07.000Z</time>
      </trkpt>
      <trkpt lat="43.35311335511505603790283203125" lon="-5.1303376257419586181640625">
        <ele>60.40000152587890625</ele>
        <time>2018-09-07T12:10:09.000Z</time>
      </trkpt>
      <trkpt lat="43.3533625490963459014892578125" lon="-5.13034407980740070343017578125">
        <ele>60.40000152587890625</ele>
        <time>2018-09-07T12:10:16.000Z</time>
      </trkpt>
      <trkpt lat="43.3534906245768070220947265625" lon="-5.130307115614414215087890625">
        <ele>60.200000762939453125</ele>
        <time>2018-09-07T12:10:19.000Z</time>
      </trkpt>
      <trkpt lat="43.35357888601720333099365234375" lon="-5.1303123123943805694580078125">
        <ele>60.200000762939453125</ele>
        <time>2018-09-07T12:10:21.000Z</time>
      </trkpt>
      <trkpt lat="43.3537125773727893829345703125" lon="-5.1303585804998874664306640625">
        <ele>60.40000152587890625</ele>
        <time>2018-09-07T12:10:26.000Z</time>
      </trkpt>
      <trkpt lat="43.3536344580352306365966796875" lon="-5.1303535513579845428466796875">
        <ele>60.200000762939453125</ele>
        <time>2018-09-07T12:10:29.000Z</time>
      </trkpt>
      <trkpt lat="43.35361115634441375732421875" lon="-5.13034776784479618072509765625">
        <ele>60.200000762939453125</ele>
        <time>2018-09-07T12:10:30.000Z</time>
      </trkpt>
      <trkpt lat="43.3534691669046878814697265625" lon="-5.13032228685915470123291015625">
        <ele>60.200000762939453125</ele>
        <time>2018-09-07T12:10:35.000Z</time>
      </trkpt>
      <trkpt lat="43.3534353040158748626708984375" lon="-5.1303153298795223236083984375">
        <ele>60.200000762939453125</ele>
        <time>2018-09-07T12:10:36.000Z</time>
      </trkpt>
      <trkpt lat="43.3533395826816558837890625" lon="-5.13029479421675205230712890625">
        <ele>59.799999237060546875</ele>
        <time>2018-09-07T12:10:39.000Z</time>
      </trkpt>
      <trkpt lat="43.3532019518315792083740234375" lon="-5.130295045673847198486328125">
        <ele>60.200000762939453125</ele>
        <time>2018-09-07T12:10:43.000Z</time>
      </trkpt>
      <trkpt lat="43.3530056476593017578125" lon="-5.13027601875364780426025390625">
        <ele>60.200000762939453125</ele>
        <time>2018-09-07T12:10:49.000Z</time>
      </trkpt>
      <trkpt lat="43.35280104540288448333740234375" lon="-5.13026327826082706451416015625">
        <ele>60.200000762939453125</ele>
        <time>2018-09-07T12:10:55.000Z</time>
      </trkpt>
      <trkpt lat="43.35259166546165943145751953125" lon="-5.13024534098803997039794921875">
        <ele>61</ele>
        <time>2018-09-07T12:11:01.000Z</time>
      </trkpt>
      <trkpt lat="43.3523379452526569366455078125" lon="-5.13024332933127880096435546875">
        <ele>61.40000152587890625</ele>
        <time>2018-09-07T12:11:09.000Z</time>
      </trkpt>
      <trkpt lat="43.35221582092344760894775390625" lon="-5.1302328519523143768310546875">
        <ele>61.799999237060546875</ele>
        <time>2018-09-07T12:11:13.000Z</time>
      </trkpt>
      <trkpt lat="43.3520921878516674041748046875" lon="-5.13023142702877521514892578125">
        <ele>62</ele>
        <time>2018-09-07T12:11:17.000Z</time>
      </trkpt>
      <trkpt lat="43.3519319258630275726318359375" lon="-5.13021315447986125946044921875">
        <ele>62.200000762939453125</ele>
        <time>2018-09-07T12:11:22.000Z</time>
      </trkpt>
      <trkpt lat="43.351786918938159942626953125" lon="-5.13021332211792469024658203125">
        <ele>62.799999237060546875</ele>
        <time>2018-09-07T12:11:27.000Z</time>
      </trkpt>
      <trkpt lat="43.35159840993583202362060546875" lon="-5.13021298684179782867431640625">
        <ele>62.799999237060546875</ele>
        <time>2018-09-07T12:11:34.000Z</time>
      </trkpt>
      <trkpt lat="43.351521380245685577392578125" lon="-5.130214579403400421142578125">
        <ele>62.59999847412109375</ele>
        <time>2018-09-07T12:11:37.000Z</time>
      </trkpt>
      <trkpt lat="43.351480476558208465576171875" lon="-5.13021466322243213653564453125">
        <ele>62.40000152587890625</ele>
        <time>2018-09-07T12:11:39.000Z</time>
      </trkpt>
      <trkpt lat="43.351287357509136199951171875" lon="-5.13024098239839076995849609375">
        <ele>65</ele>
        <time>2018-09-07T13:02:04.000Z</time>
      </trkpt>
      <trkpt lat="43.35127285681664943695068359375" lon="-5.1302365399897098541259765625">
        <ele>65</ele>
        <time>2018-09-07T13:02:05.000Z</time>
      </trkpt>
      <trkpt lat="43.3512313663959503173828125" lon="-5.13021969236433506011962890625">
        <ele>64.59999847412109375</ele>
        <time>2018-09-07T13:02:07.000Z</time>
      </trkpt>
      <trkpt lat="43.35120630450546741485595703125" lon="-5.130217932164669036865234375">
        <ele>64.59999847412109375</ele>
        <time>2018-09-07T13:02:08.000Z</time>
      </trkpt>
      <trkpt lat="43.35117839276790618896484375" lon="-5.13021625578403472900390625">
        <ele>64.59999847412109375</ele>
        <time>2018-09-07T13:02:09.000Z</time>
      </trkpt>
      <trkpt lat="43.35107940249145030975341796875" lon="-5.130210556089878082275390625">
        <ele>64.40000152587890625</ele>
        <time>2018-09-07T13:02:12.000Z</time>
      </trkpt>
      <trkpt lat="43.35094462148845195770263671875" lon="-5.13016839511692523956298828125">
        <ele>64.1999969482421875</ele>
        <time>2018-09-07T13:02:15.000Z</time>
      </trkpt>
      <trkpt lat="43.3508047275245189666748046875" lon="-5.13013042509555816650390625">
        <ele>64.1999969482421875</ele>
        <time>2018-09-07T13:02:20.000Z</time>
      </trkpt>
      <trkpt lat="43.35078687407076358795166015625" lon="-5.13011709786951541900634765625">
        <ele>64.1999969482421875</ele>
        <time>2018-09-07T13:02:21.000Z</time>
      </trkpt>
      <trkpt lat="43.35076399147510528564453125" lon="-5.13005733489990234375">
        <ele>64</ele>
        <time>2018-09-07T13:02:24.000Z</time>
      </trkpt>
      <trkpt lat="43.35076642222702503204345703125" lon="-5.130025483667850494384765625">
        <ele>63.799999237060546875</ele>
        <time>2018-09-07T13:02:25.000Z</time>
      </trkpt>
      <trkpt lat="43.35078134201467037200927734375" lon="-5.12992045842111110687255859375">
        <ele>63.799999237060546875</ele>
        <time>2018-09-07T13:02:27.000Z</time>
      </trkpt>
      <trkpt lat="43.3507966808974742889404296875" lon="-5.12981526553630828857421875">
        <ele>63.799999237060546875</ele>
        <time>2018-09-07T13:02:29.000Z</time>
      </trkpt>
      <trkpt lat="43.35082492791116237640380859375" lon="-5.129607059061527252197265625">
        <ele>63.799999237060546875</ele>
        <time>2018-09-07T13:02:33.000Z</time>
      </trkpt>
      <trkpt lat="43.35083766840398311614990234375" lon="-5.12950354255735874176025390625">
        <ele>64</ele>
        <time>2018-09-07T13:02:35.000Z</time>
      </trkpt>
      <trkpt lat="43.35087723098695278167724609375" lon="-5.129115879535675048828125">
        <ele>64</ele>
        <time>2018-09-07T13:02:42.000Z</time>
      </trkpt>
      <trkpt lat="43.35089717991650104522705078125" lon="-5.128951929509639739990234375">
        <ele>64</ele>
        <time>2018-09-07T13:02:45.000Z</time>
      </trkpt>
      <trkpt lat="43.3509425260126590728759765625" lon="-5.1286429725587368011474609375">
        <ele>63.799999237060546875</ele>
        <time>2018-09-07T13:02:51.000Z</time>
      </trkpt>
      <trkpt lat="43.3509941585361957550048828125" lon="-5.1282393001019954681396484375">
        <ele>64</ele>
        <time>2018-09-07T13:02:59.000Z</time>
      </trkpt>
      <trkpt lat="43.3510028757154941558837890625" lon="-5.12818523682653903961181640625">
        <ele>64</ele>
        <time>2018-09-07T13:03:00.000Z</time>
      </trkpt>
      <trkpt lat="43.351035900413990020751953125" lon="-5.1279606856405735015869140625">
        <ele>63.799999237060546875</ele>
        <time>2018-09-07T13:03:04.000Z</time>
      </trkpt>
      <trkpt lat="43.3510481379926204681396484375" lon="-5.12771585024893283843994140625">
        <ele>63.799999237060546875</ele>
        <time>2018-09-07T13:03:08.000Z</time>
      </trkpt>
      <trkpt lat="43.35102072916924953460693359375" lon="-5.1272743754088878631591796875">
        <ele>64</ele>
        <time>2018-09-07T13:03:15.000Z</time>
      </trkpt>
      <trkpt lat="43.35101268254220485687255859375" lon="-5.12721125967800617218017578125">
        <ele>64</ele>
        <time>2018-09-07T13:03:16.000Z</time>
      </trkpt>
      <trkpt lat="43.3509921468794345855712890625" lon="-5.12677724473178386688232421875">
        <ele>64</ele>
        <time>2018-09-07T13:03:23.000Z</time>
      </trkpt>
      <trkpt lat="43.3509877882897853851318359375" lon="-5.12665989808738231658935546875">
        <ele>64.1999969482421875</ele>
        <time>2018-09-07T13:03:25.000Z</time>
      </trkpt>
      <trkpt lat="43.3509819209575653076171875" lon="-5.12649158947169780731201171875">
        <ele>64.8000030517578125</ele>
        <time>2018-09-07T13:03:28.000Z</time>
      </trkpt>
      <trkpt lat="43.3509753830730915069580078125" lon="-5.1264358498156070709228515625">
        <ele>65</ele>
        <time>2018-09-07T13:03:29.000Z</time>
      </trkpt>
      <trkpt lat="43.3509623073041439056396484375" lon="-5.1263252086937427520751953125">
        <ele>65</ele>
        <time>2018-09-07T13:03:31.000Z</time>
      </trkpt>
      <trkpt lat="43.35094395093619823455810546875" lon="-5.12604231946170330047607421875">
        <ele>66</ele>
        <time>2018-09-07T13:03:36.000Z</time>
      </trkpt>
      <trkpt lat="43.350933976471424102783203125" lon="-5.125935114920139312744140625">
        <ele>66.1999969482421875</ele>
        <time>2018-09-07T13:03:38.000Z</time>
      </trkpt>
      <trkpt lat="43.35093028843402862548828125" lon="-5.1256818138062953948974609375">
        <ele>66.8000030517578125</ele>
        <time>2018-09-07T13:03:43.000Z</time>
      </trkpt>
      <trkpt lat="43.350922577083110809326171875" lon="-5.125481821596622467041015625">
        <ele>67</ele>
        <time>2018-09-07T13:03:47.000Z</time>
      </trkpt>
      <trkpt lat="43.35092098452150821685791015625" lon="-5.125436894595623016357421875">
        <ele>67</ele>
        <time>2018-09-07T13:03:48.000Z</time>
      </trkpt>
      <trkpt lat="43.35091830231249332427978515625" lon="-5.12535114772617816925048828125">
        <ele>67.1999969482421875</ele>
        <time>2018-09-07T13:03:50.000Z</time>
      </trkpt>
      <trkpt lat="43.3508955873548984527587890625" lon="-5.12517345137894153594970703125">
        <ele>67.59999847412109375</ele>
        <time>2018-09-07T13:03:55.000Z</time>
      </trkpt>
      <trkpt lat="43.35089734755456447601318359375" lon="-5.12503079138696193695068359375">
        <ele>67.59999847412109375</ele>
        <time>2018-09-07T13:03:59.000Z</time>
      </trkpt>
      <trkpt lat="43.35089541971683502197265625" lon="-5.1249921508133411407470703125">
        <ele>67.40000152587890625</ele>
        <time>2018-09-07T13:04:00.000Z</time>
      </trkpt>
      <trkpt lat="43.35086734034121036529541015625" lon="-5.1247413642704486846923828125">
        <ele>67</ele>
        <time>2018-09-07T13:04:06.000Z</time>
      </trkpt>
      <trkpt lat="43.35084454156458377838134765625" lon="-5.1244835369288921356201171875">
        <ele>66.40000152587890625</ele>
        <time>2018-09-07T13:04:11.000Z</time>
      </trkpt>
      <trkpt lat="43.35083917714655399322509765625" lon="-5.12436057440936565399169921875">
        <ele>66</ele>
        <time>2018-09-07T13:04:13.000Z</time>
      </trkpt>
      <trkpt lat="43.3508379198610782623291015625" lon="-5.12429804541170597076416015625">
        <ele>65.59999847412109375</ele>
        <time>2018-09-07T13:04:14.000Z</time>
      </trkpt>
      <trkpt lat="43.3508496545255184173583984375" lon="-5.12411347590386867523193359375">
        <ele>65.59999847412109375</ele>
        <time>2018-09-07T13:04:17.000Z</time>
      </trkpt>
      <trkpt lat="43.35084890015423297882080078125" lon="-5.124050192534923553466796875">
        <ele>65.59999847412109375</ele>
        <time>2018-09-07T13:04:18.000Z</time>
      </trkpt>
      <trkpt lat="43.35084169171750545501708984375" lon="-5.1235967315733432769775390625">
        <ele>65.40000152587890625</ele>
        <time>2018-09-07T13:04:25.000Z</time>
      </trkpt>
      <trkpt lat="43.35083372890949249267578125" lon="-5.1233016885817050933837890625">
        <ele>65.8000030517578125</ele>
        <time>2018-09-07T13:04:30.000Z</time>
      </trkpt>
      <trkpt lat="43.35082861594855785369873046875" lon="-5.12324645183980464935302734375">
        <ele>65.8000030517578125</ele>
        <time>2018-09-07T13:04:31.000Z</time>
      </trkpt>
      <trkpt lat="43.350819982588291168212890625" lon="-5.12296750210225582122802734375">
        <ele>66</ele>
        <time>2018-09-07T13:04:36.000Z</time>
      </trkpt>
      <trkpt lat="43.350814282894134521484375" lon="-5.1228457130491733551025390625">
        <ele>65.8000030517578125</ele>
        <time>2018-09-07T13:04:38.000Z</time>
      </trkpt>
      <trkpt lat="43.35081805475056171417236328125" lon="-5.12265569530427455902099609375">
        <ele>65.59999847412109375</ele>
        <time>2018-09-07T13:04:41.000Z</time>
      </trkpt>
      <trkpt lat="43.35082660429179668426513671875" lon="-5.12239753268659114837646484375">
        <ele>66</ele>
        <time>2018-09-07T13:04:45.000Z</time>
      </trkpt>
      <trkpt lat="43.35082643665373325347900390625" lon="-5.12220709584653377532958984375">
        <ele>65.8000030517578125</ele>
        <time>2018-09-07T13:04:48.000Z</time>
      </trkpt>
      <trkpt lat="43.35082056932151317596435546875" lon="-5.1219589076936244964599609375">
        <ele>66</ele>
        <time>2018-09-07T13:04:52.000Z</time>
      </trkpt>
      <trkpt lat="43.35081906057894229888916015625" lon="-5.1218985579907894134521484375">
        <ele>66.40000152587890625</ele>
        <time>2018-09-07T13:04:53.000Z</time>
      </trkpt>
      <trkpt lat="43.3508157916367053985595703125" lon="-5.12171172536909580230712890625">
        <ele>66.40000152587890625</ele>
        <time>2018-09-07T13:04:56.000Z</time>
      </trkpt>
      <trkpt lat="43.35079927928745746612548828125" lon="-5.121330432593822479248046875">
        <ele>66.1999969482421875</ele>
        <time>2018-09-07T13:05:02.000Z</time>
      </trkpt>
      <trkpt lat="43.350784778594970703125" lon="-5.12090454809367656707763671875">
        <ele>66.40000152587890625</ele>
        <time>2018-09-07T13:05:09.000Z</time>
      </trkpt>
      <trkpt lat="43.3507812581956386566162109375" lon="-5.12077747844159603118896484375">
        <ele>66.40000152587890625</ele>
        <time>2018-09-07T13:05:11.000Z</time>
      </trkpt>
      <trkpt lat="43.35073792375624179840087890625" lon="-5.12034597806632518768310546875">
        <ele>66.59999847412109375</ele>
        <time>2018-09-07T13:05:18.000Z</time>
      </trkpt>
      <trkpt lat="43.35072149522602558135986328125" lon="-5.119841806590557098388671875">
        <ele>66.8000030517578125</ele>
        <time>2018-09-07T13:05:26.000Z</time>
      </trkpt>
      <trkpt lat="43.350718729197978973388671875" lon="-5.1197804510593414306640625">
        <ele>66.8000030517578125</ele>
        <time>2018-09-07T13:05:27.000Z</time>
      </trkpt>
      <trkpt lat="43.35071277804672718048095703125" lon="-5.1197192631661891937255859375">
        <ele>67</ele>
        <time>2018-09-07T13:05:28.000Z</time>
      </trkpt>
      <trkpt lat="43.35070339031517505645751953125" lon="-5.11939949356019496917724609375">
        <ele>67</ele>
        <time>2018-09-07T13:05:33.000Z</time>
      </trkpt>
      <trkpt lat="43.350671119987964630126953125" lon="-5.118789710104465484619140625">
        <ele>66.59999847412109375</ele>
        <time>2018-09-07T13:05:43.000Z</time>
      </trkpt>
      <trkpt lat="43.350642956793308258056640625" lon="-5.11848670430481433868408203125">
        <ele>67.1999969482421875</ele>
        <time>2018-09-07T13:05:48.000Z</time>
      </trkpt>
      <trkpt lat="43.350618816912174224853515625" lon="-5.11831252835690975189208984375">
        <ele>67.40000152587890625</ele>
        <time>2018-09-07T13:05:51.000Z</time>
      </trkpt>
      <trkpt lat="43.3505730517208576202392578125" lon="-5.11796417646110057830810546875">
        <ele>68</ele>
        <time>2018-09-07T13:05:58.000Z</time>
      </trkpt>
      <trkpt lat="43.35054195486009120941162109375" lon="-5.11783509515225887298583984375">
        <ele>68.1999969482421875</ele>
        <time>2018-09-07T13:06:01.000Z</time>
      </trkpt>
      <trkpt lat="43.35053290240466594696044921875" lon="-5.1177857257425785064697265625">
        <ele>68.1999969482421875</ele>
        <time>2018-09-07T13:06:02.000Z</time>
      </trkpt>
      <trkpt lat="43.35048479028046131134033203125" lon="-5.1175258867442607879638671875">
        <ele>68.40000152587890625</ele>
        <time>2018-09-07T13:06:07.000Z</time>
      </trkpt>
      <trkpt lat="43.350440450012683868408203125" lon="-5.11732061393558979034423828125">
        <ele>68.40000152587890625</ele>
        <time>2018-09-07T13:06:11.000Z</time>
      </trkpt>
      <trkpt lat="43.35042913444340229034423828125" lon="-5.1172650419175624847412109375">
        <ele>68.1999969482421875</ele>
        <time>2018-09-07T13:06:12.000Z</time>
      </trkpt>
      <trkpt lat="43.35037549026310443878173828125" lon="-5.11685173027217388153076171875">
        <ele>69</ele>
        <time>2018-09-07T13:06:19.000Z</time>
      </trkpt>
      <trkpt lat="43.35035922937095165252685546875" lon="-5.1165928132832050323486328125">
        <ele>68.8000030517578125</ele>
        <time>2018-09-07T13:06:23.000Z</time>
      </trkpt>
      <trkpt lat="43.35035537369549274444580078125" lon="-5.1163276098668575286865234375">
        <ele>69</ele>
        <time>2018-09-07T13:06:27.000Z</time>
      </trkpt>
      <trkpt lat="43.35035738535225391387939453125" lon="-5.1162587106227874755859375">
        <ele>69</ele>
        <time>2018-09-07T13:06:28.000Z</time>
      </trkpt>
      <trkpt lat="43.3503809385001659393310546875" lon="-5.11557315476238727569580078125">
        <ele>68.59999847412109375</ele>
        <time>2018-09-07T13:06:38.000Z</time>
      </trkpt>
      <trkpt lat="43.35039258934557437896728515625" lon="-5.11481191031634807586669921875">
        <ele>68.40000152587890625</ele>
        <time>2018-09-07T13:06:49.000Z</time>
      </trkpt>
      <trkpt lat="43.3504231832921504974365234375" lon="-5.1140326447784900665283203125">
        <ele>70</ele>
        <time>2018-09-07T13:07:01.000Z</time>
      </trkpt>
      <trkpt lat="43.35042259655892848968505859375" lon="-5.11396734975278377532958984375">
        <ele>70.1999969482421875</ele>
        <time>2018-09-07T13:07:02.000Z</time>
      </trkpt>
      <trkpt lat="43.3504429645836353302001953125" lon="-5.1134713925421237945556640625">
        <ele>70.1999969482421875</ele>
        <time>2018-09-07T13:07:10.000Z</time>
      </trkpt>
      <trkpt lat="43.350449837744235992431640625" lon="-5.1128523051738739013671875">
        <ele>70.1999969482421875</ele>
        <time>2018-09-07T13:07:20.000Z</time>
      </trkpt>
      <trkpt lat="43.35043810307979583740234375" lon="-5.11260529048740863800048828125">
        <ele>70.40000152587890625</ele>
        <time>2018-09-07T13:07:24.000Z</time>
      </trkpt>
      <trkpt lat="43.35041857324540615081787109375" lon="-5.11217228136956691741943359375">
        <ele>70.8000030517578125</ele>
        <time>2018-09-07T13:07:31.000Z</time>
      </trkpt>
      <trkpt lat="43.35040767677128314971923828125" lon="-5.11204940266907215118408203125">
        <ele>71.40000152587890625</ele>
        <time>2018-09-07T13:07:33.000Z</time>
      </trkpt>
      <trkpt lat="43.35036274977028369903564453125" lon="-5.11156283318996429443359375">
        <ele>71.40000152587890625</ele>
        <time>2018-09-07T13:07:41.000Z</time>
      </trkpt>
      <trkpt lat="43.35033793933689594268798828125" lon="-5.11131799779832363128662109375">
        <ele>72.40000152587890625</ele>
        <time>2018-09-07T13:07:45.000Z</time>
      </trkpt>
      <trkpt lat="43.35031472146511077880859375" lon="-5.1108864136040210723876953125">
        <ele>73</ele>
        <time>2018-09-07T13:07:52.000Z</time>
      </trkpt>
      <trkpt lat="43.35035135038197040557861328125" lon="-5.1104009337723255157470703125">
        <ele>73.40000152587890625</ele>
        <time>2018-09-07T13:08:00.000Z</time>
      </trkpt>
      <trkpt lat="43.35042997263371944427490234375" lon="-5.11005031876266002655029296875">
        <ele>73.40000152587890625</ele>
        <time>2018-09-07T13:08:06.000Z</time>
      </trkpt>
      <trkpt lat="43.3504667691886425018310546875" lon="-5.10993733070790767669677734375">
        <ele>73.40000152587890625</ele>
        <time>2018-09-07T13:08:08.000Z</time>
      </trkpt>
      <trkpt lat="43.3504875563085079193115234375" lon="-5.1098819263279438018798828125">
        <ele>73.59999847412109375</ele>
        <time>2018-09-07T13:08:09.000Z</time>
      </trkpt>
      <trkpt lat="43.35053625516593456268310546875" lon="-5.109646730124950408935546875">
        <ele>74</ele>
        <time>2018-09-07T13:08:13.000Z</time>
      </trkpt>
      <trkpt lat="43.35050524212419986724853515625" lon="-5.1095312274992465972900390625">
        <ele>74</ele>
        <time>2018-09-07T13:08:15.000Z</time>
      </trkpt>
      <trkpt lat="43.35049048997461795806884765625" lon="-5.10946962051093578338623046875">
        <ele>74</ele>
        <time>2018-09-07T13:08:16.000Z</time>
      </trkpt>
      <trkpt lat="43.35048378445208072662353515625" lon="-5.10940575040876865386962890625">
        <ele>73.8000030517578125</ele>
        <time>2018-09-07T13:08:17.000Z</time>
      </trkpt>
      <trkpt lat="43.35051546804606914520263671875" lon="-5.109157562255859375">
        <ele>73.8000030517578125</ele>
        <time>2018-09-07T13:08:21.000Z</time>
      </trkpt>
      <trkpt lat="43.3505259454250335693359375" lon="-5.109095871448516845703125">
        <ele>73.8000030517578125</ele>
        <time>2018-09-07T13:08:22.000Z</time>
      </trkpt>
      <trkpt lat="43.35052485577762126922607421875" lon="-5.10891155339777469635009765625">
        <ele>73.59999847412109375</ele>
        <time>2018-09-07T13:08:25.000Z</time>
      </trkpt>
      <trkpt lat="43.35043433122336864471435546875" lon="-5.10867585428059101104736328125">
        <ele>73.8000030517578125</ele>
        <time>2018-09-07T13:08:29.000Z</time>
      </trkpt>
      <trkpt lat="43.35028328932821750640869140625" lon="-5.1081743650138378143310546875">
        <ele>73.40000152587890625</ele>
        <time>2018-09-07T13:08:37.000Z</time>
      </trkpt>
      <trkpt lat="43.35026535205543041229248046875" lon="-5.10811150074005126953125">
        <ele>73.40000152587890625</ele>
        <time>2018-09-07T13:08:38.000Z</time>
      </trkpt>
      <trkpt lat="43.35020743310451507568359375" lon="-5.1078545115888118743896484375">
        <ele>73.40000152587890625</ele>
        <time>2018-09-07T13:08:42.000Z</time>
      </trkpt>
      <trkpt lat="43.3501750789582729339599609375" lon="-5.10765711776912212371826171875">
        <ele>73.8000030517578125</ele>
        <time>2018-09-07T13:08:45.000Z</time>
      </trkpt>
      <trkpt lat="43.3500996418297290802001953125" lon="-5.10721388272941112518310546875">
        <ele>74.1999969482421875</ele>
        <time>2018-09-07T13:08:52.000Z</time>
      </trkpt>
      <trkpt lat="43.350054211914539337158203125" lon="-5.106891430914402008056640625">
        <ele>74.59999847412109375</ele>
        <time>2018-09-07T13:08:57.000Z</time>
      </trkpt>
      <trkpt lat="43.3500431478023529052734375" lon="-5.1067594997584819793701171875">
        <ele>74.59999847412109375</ele>
        <time>2018-09-07T13:08:59.000Z</time>
      </trkpt>
      <trkpt lat="43.3499806188046932220458984375" lon="-5.10638994164764881134033203125">
        <ele>75</ele>
        <time>2018-09-07T13:09:05.000Z</time>
      </trkpt>
      <trkpt lat="43.3499360270798206329345703125" lon="-5.10608375072479248046875">
        <ele>75.59999847412109375</ele>
        <time>2018-09-07T13:09:10.000Z</time>
      </trkpt>
      <trkpt lat="43.3498961292207241058349609375" lon="-5.10584168136119842529296875">
        <ele>75.8000030517578125</ele>
        <time>2018-09-07T13:09:14.000Z</time>
      </trkpt>
      <trkpt lat="43.34982111118733882904052734375" lon="-5.10540473274886608123779296875">
        <ele>76.59999847412109375</ele>
        <time>2018-09-07T13:09:21.000Z</time>
      </trkpt>
      <trkpt lat="43.34978875704109668731689453125" lon="-5.10522368364036083221435546875">
        <ele>77</ele>
        <time>2018-09-07T13:09:24.000Z</time>
      </trkpt>
      <trkpt lat="43.3496942929923534393310546875" lon="-5.10466041974723339080810546875">
        <ele>77</ele>
        <time>2018-09-07T13:09:33.000Z</time>
      </trkpt>
      <trkpt lat="43.34960401989519596099853515625" lon="-5.10409799404442310333251953125">
        <ele>76.59999847412109375</ele>
        <time>2018-09-07T13:09:41.000Z</time>
      </trkpt>
      <trkpt lat="43.34952925331890583038330078125" lon="-5.10361603461205959320068359375">
        <ele>76.59999847412109375</ele>
        <time>2018-09-07T13:09:47.000Z</time>
      </trkpt>
      <trkpt lat="43.34949941374361515045166015625" lon="-5.10344034992158412933349609375">
        <ele>76.40000152587890625</ele>
        <time>2018-09-07T13:09:49.000Z</time>
      </trkpt>
      <trkpt lat="43.349417187273502349853515625" lon="-5.10272772051393985748291015625">
        <ele>75.8000030517578125</ele>
        <time>2018-09-07T13:09:57.000Z</time>
      </trkpt>
      <trkpt lat="43.349403440952301025390625" lon="-5.10254658758640289306640625">
        <ele>75.59999847412109375</ele>
        <time>2018-09-07T13:09:59.000Z</time>
      </trkpt>
      <trkpt lat="43.34940637461841106414794921875" lon="-5.10201509110629558563232421875">
        <ele>75.1999969482421875</ele>
        <time>2018-09-07T13:10:05.000Z</time>
      </trkpt>
      <trkpt lat="43.349474184215068817138671875" lon="-5.1012408547103404998779296875">
        <ele>76</ele>
        <time>2018-09-07T13:10:14.000Z</time>
      </trkpt>
      <trkpt lat="43.3495601825416088104248046875" lon="-5.10054976679384708404541015625">
        <ele>76.59999847412109375</ele>
        <time>2018-09-07T13:10:23.000Z</time>
      </trkpt>
      <trkpt lat="43.3495977334678173065185546875" lon="-5.10020560584962368011474609375">
        <ele>76.8000030517578125</ele>
        <time>2018-09-07T13:10:28.000Z</time>
      </trkpt>
      <trkpt lat="43.3496171794831752777099609375" lon="-5.1000727526843547821044921875">
        <ele>77.40000152587890625</ele>
        <time>2018-09-07T13:10:30.000Z</time>
      </trkpt>
      <trkpt lat="43.34965464659035205841064453125" lon="-5.099803693592548370361328125">
        <ele>78</ele>
        <time>2018-09-07T13:10:34.000Z</time>
      </trkpt>
      <trkpt lat="43.3497194387018680572509765625" lon="-5.099406726658344268798828125">
        <ele>78.8000030517578125</ele>
        <time>2018-09-07T13:10:40.000Z</time>
      </trkpt>
      <trkpt lat="43.3497831411659717559814453125" lon="-5.09906851686537265777587890625">
        <ele>79</ele>
        <time>2018-09-07T13:10:45.000Z</time>
      </trkpt>
      <trkpt lat="43.3498310856521129608154296875" lon="-5.09887573309242725372314453125">
        <ele>79.1999969482421875</ele>
        <time>2018-09-07T13:10:48.000Z</time>
      </trkpt>
      <trkpt lat="43.34996871650218963623046875" lon="-5.09837147779762744903564453125">
        <ele>79.40000152587890625</ele>
        <time>2018-09-07T13:10:56.000Z</time>
      </trkpt>
      <trkpt lat="43.35009620524942874908447265625" lon="-5.09795238263905048370361328125">
        <ele>79</ele>
        <time>2018-09-07T13:11:03.000Z</time>
      </trkpt>
      <trkpt lat="43.35011045448482036590576171875" lon="-5.0978951342403888702392578125">
        <ele>78.8000030517578125</ele>
        <time>2018-09-07T13:11:04.000Z</time>
      </trkpt>
      <trkpt lat="43.350239954888820648193359375" lon="-5.09746405296027660369873046875">
        <ele>78.8000030517578125</ele>
        <time>2018-09-07T13:11:11.000Z</time>
      </trkpt>
      <trkpt lat="43.35037884302437305450439453125" lon="-5.09700916707515716552734375">
        <ele>78.8000030517578125</ele>
        <time>2018-09-07T13:11:18.000Z</time>
      </trkpt>
      <trkpt lat="43.3504201658070087432861328125" lon="-5.09687815792858600616455078125">
        <ele>79</ele>
        <time>2018-09-07T13:11:20.000Z</time>
      </trkpt>
      <trkpt lat="43.35044170729815959930419921875" lon="-5.096811354160308837890625">
        <ele>79</ele>
        <time>2018-09-07T13:11:21.000Z</time>
      </trkpt>
      <trkpt lat="43.35058822296559810638427734375" lon="-5.09625035338103771209716796875">
        <ele>78.59999847412109375</ele>
        <time>2018-09-07T13:11:29.000Z</time>
      </trkpt>
      <trkpt lat="43.35063817910850048065185546875" lon="-5.0957533903419971466064453125">
        <ele>78.1999969482421875</ele>
        <time>2018-09-07T13:11:36.000Z</time>
      </trkpt>
      <trkpt lat="43.3506367541849613189697265625" lon="-5.0956149213016033172607421875">
        <ele>77.59999847412109375</ele>
        <time>2018-09-07T13:11:38.000Z</time>
      </trkpt>
      <trkpt lat="43.3506139554083347320556640625" lon="-5.0953386537730693817138671875">
        <ele>78.59999847412109375</ele>
        <time>2018-09-07T13:11:42.000Z</time>
      </trkpt>
      <trkpt lat="43.3506028912961483001708984375" lon="-5.0952705927193164825439453125">
        <ele>79</ele>
        <time>2018-09-07T13:11:43.000Z</time>
      </trkpt>
      <trkpt lat="43.3505918271839618682861328125" lon="-5.095203705132007598876953125">
        <ele>79</ele>
        <time>2018-09-07T13:11:44.000Z</time>
      </trkpt>
      <trkpt lat="43.3505019731819629669189453125" lon="-5.09480430744588375091552734375">
        <ele>79</ele>
        <time>2018-09-07T13:11:50.000Z</time>
      </trkpt>
      <trkpt lat="43.35047808475792407989501953125" lon="-5.09473976679146289825439453125">
        <ele>79</ele>
        <time>2018-09-07T13:11:51.000Z</time>
      </trkpt>
      <trkpt lat="43.35026107728481292724609375" lon="-5.094242133200168609619140625">
        <ele>80</ele>
        <time>2018-09-07T13:11:59.000Z</time>
      </trkpt>
      <trkpt lat="43.35000853054225444793701171875" lon="-5.0937772728502750396728515625">
        <ele>81</ele>
        <time>2018-09-07T13:12:07.000Z</time>
      </trkpt>
      <trkpt lat="43.34997734986245632171630859375" lon="-5.09372002445161342620849609375">
        <ele>81.1999969482421875</ele>
        <time>2018-09-07T13:12:08.000Z</time>
      </trkpt>
      <trkpt lat="43.34962346591055393218994140625" lon="-5.09307914413511753082275390625">
        <ele>81.1999969482421875</ele>
        <time>2018-09-07T13:12:19.000Z</time>
      </trkpt>
      <trkpt lat="43.3494984917342662811279296875" lon="-5.092858783900737762451171875">
        <ele>81.1999969482421875</ele>
        <time>2018-09-07T13:12:23.000Z</time>
      </trkpt>
      <trkpt lat="43.34930679760873317718505859375" lon="-5.0925028882920742034912109375">
        <ele>81.40000152587890625</ele>
        <time>2018-09-07T13:12:29.000Z</time>
      </trkpt>
      <trkpt lat="43.34896917454898357391357421875" lon="-5.0918936915695667266845703125">
        <ele>81.40000152587890625</ele>
        <time>2018-09-07T13:12:39.000Z</time>
      </trkpt>
      <trkpt lat="43.3487189747393131256103515625" lon="-5.09144685231149196624755859375">
        <ele>81.40000152587890625</ele>
        <time>2018-09-07T13:12:46.000Z</time>
      </trkpt>
      <trkpt lat="43.34852376021444797515869140625" lon="-5.0910726003348827362060546875">
        <ele>81.40000152587890625</ele>
        <time>2018-09-07T13:12:52.000Z</time>
      </trkpt>
      <trkpt lat="43.34835042245686054229736328125" lon="-5.0907557643949985504150390625">
        <ele>81.40000152587890625</ele>
        <time>2018-09-07T13:12:57.000Z</time>
      </trkpt>
      <trkpt lat="43.34828521125018596649169921875" lon="-5.09061637334525585174560546875">
        <ele>81.1999969482421875</ele>
        <time>2018-09-07T13:12:59.000Z</time>
      </trkpt>
      <trkpt lat="43.3480511046946048736572265625" lon="-5.09005428291857242584228515625">
        <ele>81.59999847412109375</ele>
        <time>2018-09-07T13:13:07.000Z</time>
      </trkpt>
      <trkpt lat="43.34788774140179157257080078125" lon="-5.08961892686784267425537109375">
        <ele>81.40000152587890625</ele>
        <time>2018-09-07T13:13:13.000Z</time>
      </trkpt>
      <trkpt lat="43.3478308282792568206787109375" lon="-5.089478194713592529296875">
        <ele>81.40000152587890625</ele>
        <time>2018-09-07T13:13:15.000Z</time>
      </trkpt>
      <trkpt lat="43.3477097935974597930908203125" lon="-5.08922078646719455718994140625">
        <ele>82.1999969482421875</ele>
        <time>2018-09-07T13:13:19.000Z</time>
      </trkpt>
      <trkpt lat="43.3476586639881134033203125" lon="-5.0890974886715412139892578125">
        <ele>82.1999969482421875</ele>
        <time>2018-09-07T13:13:21.000Z</time>
      </trkpt>
      <trkpt lat="43.3474942110478878021240234375" lon="-5.08867747150361537933349609375">
        <ele>82.8000030517578125</ele>
        <time>2018-09-07T13:13:28.000Z</time>
      </trkpt>
      <trkpt lat="43.34744609892368316650390625" lon="-5.0885610468685626983642578125">
        <ele>83.1999969482421875</ele>
        <time>2018-09-07T13:13:30.000Z</time>
      </trkpt>
      <trkpt lat="43.34742455743253231048583984375" lon="-5.0885027088224887847900390625">
        <ele>83.40000152587890625</ele>
        <time>2018-09-07T13:13:31.000Z</time>
      </trkpt>
      <trkpt lat="43.34727200679481029510498046875" lon="-5.08810867555439472198486328125">
        <ele>83.8000030517578125</ele>
        <time>2018-09-07T13:13:38.000Z</time>
      </trkpt>
      <trkpt lat="43.3471294306218624114990234375" lon="-5.08768605999648571014404296875">
        <ele>84.1999969482421875</ele>
        <time>2018-09-07T13:13:46.000Z</time>
      </trkpt>
      <trkpt lat="43.34709464572370052337646484375" lon="-5.08757726289331912994384765625">
        <ele>84.40000152587890625</ele>
        <time>2018-09-07T13:13:48.000Z</time>
      </trkpt>
      <trkpt lat="43.34703178144991397857666015625" lon="-5.08736184798181056976318359375">
        <ele>84.1999969482421875</ele>
        <time>2018-09-07T13:13:52.000Z</time>
      </trkpt>
      <trkpt lat="43.34693052805960178375244140625" lon="-5.08684091269969940185546875">
        <ele>84.1999969482421875</ele>
        <time>2018-09-07T13:14:01.000Z</time>
      </trkpt>
      <trkpt lat="43.34686674177646636962890625" lon="-5.086553581058979034423828125">
        <ele>83.8000030517578125</ele>
        <time>2018-09-07T13:14:06.000Z</time>
      </trkpt>
      <trkpt lat="43.34683514200150966644287109375" lon="-5.08651276119053363800048828125">
        <ele>84.1999969482421875</ele>
        <time>2018-09-07T13:14:07.000Z</time>
      </trkpt>
      <trkpt lat="43.3467170409858226776123046875" lon="-5.0864263437688350677490234375">
        <ele>84.59999847412109375</ele>
        <time>2018-09-07T13:14:10.000Z</time>
      </trkpt>
      <trkpt lat="43.3466791547834873199462890625" lon="-5.0863938219845294952392578125">
        <ele>84.8000030517578125</ele>
        <time>2018-09-07T13:14:11.000Z</time>
      </trkpt>
      <trkpt lat="43.34664336405694484710693359375" lon="-5.086354427039623260498046875">
        <ele>85</ele>
        <time>2018-09-07T13:14:12.000Z</time>
      </trkpt>
      <trkpt lat="43.3464592136442661285400390625" lon="-5.08606349118053913116455078125">
        <ele>84.40000152587890625</ele>
        <time>2018-09-07T13:14:18.000Z</time>
      </trkpt>
      <trkpt lat="43.346349410712718963623046875" lon="-5.08595972321927547454833984375">
        <ele>84.59999847412109375</ele>
        <time>2018-09-07T13:14:21.000Z</time>
      </trkpt>
      <trkpt lat="43.34626601077616214752197265625" lon="-5.0859110243618488311767578125">
        <ele>85.1999969482421875</ele>
        <time>2018-09-07T13:14:23.000Z</time>
      </trkpt>
      <trkpt lat="43.34622259251773357391357421875" lon="-5.08588780649006366729736328125">
        <ele>85.40000152587890625</ele>
        <time>2018-09-07T13:14:24.000Z</time>
      </trkpt>
      <trkpt lat="43.34594179876148700714111328125" lon="-5.0857031531631946563720703125">
        <ele>85</ele>
        <time>2018-09-07T13:14:31.000Z</time>
      </trkpt>
      <trkpt lat="43.34556897170841693878173828125" lon="-5.08535270579159259796142578125">
        <ele>86.1999969482421875</ele>
        <time>2018-09-07T13:14:41.000Z</time>
      </trkpt>
      <trkpt lat="43.34549236111342906951904296875" lon="-5.0852813757956027984619140625">
        <ele>86.40000152587890625</ele>
        <time>2018-09-07T13:14:43.000Z</time>
      </trkpt>
      <trkpt lat="43.345254398882389068603515625" lon="-5.08506973274052143096923828125">
        <ele>86</ele>
        <time>2018-09-07T13:14:49.000Z</time>
      </trkpt>
      <trkpt lat="43.34505985490977764129638671875" lon="-5.08488365449011325836181640625">
        <ele>86.1999969482421875</ele>
        <time>2018-09-07T13:14:54.000Z</time>
      </trkpt>
      <trkpt lat="43.344945609569549560546875" lon="-5.08477116934955120086669921875">
        <ele>86.59999847412109375</ele>
        <time>2018-09-07T13:14:57.000Z</time>
      </trkpt>
      <trkpt lat="43.3446899615228176116943359375" lon="-5.08446204476058483123779296875">
        <ele>86.40000152587890625</ele>
        <time>2018-09-07T13:15:04.000Z</time>
      </trkpt>
      <trkpt lat="43.3446587808430194854736328125" lon="-5.08441175334155559539794921875">
        <ele>86.59999847412109375</ele>
        <time>2018-09-07T13:15:05.000Z</time>
      </trkpt>
      <trkpt lat="43.34453162737190723419189453125" lon="-5.0842151977121829986572265625">
        <ele>87.59999847412109375</ele>
        <time>2018-09-07T13:15:09.000Z</time>
      </trkpt>
      <trkpt lat="43.344469182193279266357421875" lon="-5.0841310434043407440185546875">
        <ele>87.8000030517578125</ele>
        <time>2018-09-07T13:15:11.000Z</time>
      </trkpt>
      <trkpt lat="43.34443506784737110137939453125" lon="-5.08409692905843257904052734375">
        <ele>87.59999847412109375</ele>
        <time>2018-09-07T13:15:12.000Z</time>
      </trkpt>
      <trkpt lat="43.3443607203662395477294921875" lon="-5.08403590880334377288818359375">
        <ele>87.40000152587890625</ele>
        <time>2018-09-07T13:15:14.000Z</time>
      </trkpt>
      <trkpt lat="43.3442128635942935943603515625" lon="-5.08392828516662120819091796875">
        <ele>88</ele>
        <time>2018-09-07T13:15:18.000Z</time>
      </trkpt>
      <trkpt lat="43.3441277034580707550048828125" lon="-5.083841197192668914794921875">
        <ele>88.59999847412109375</ele>
        <time>2018-09-07T13:15:21.000Z</time>
      </trkpt>
      <trkpt lat="43.34411622025072574615478515625" lon="-5.08380071260035037994384765625">
        <ele>88.59999847412109375</ele>
        <time>2018-09-07T13:15:22.000Z</time>
      </trkpt>
      <trkpt lat="43.34411521442234516143798828125" lon="-5.083706080913543701171875">
        <ele>88.8000030517578125</ele>
        <time>2018-09-07T13:15:24.000Z</time>
      </trkpt>
      <trkpt lat="43.34413918666541576385498046875" lon="-5.0836029835045337677001953125">
        <ele>88.59999847412109375</ele>
        <time>2018-09-07T13:15:26.000Z</time>
      </trkpt>
      <trkpt lat="43.34424295462667942047119140625" lon="-5.08325077593326568603515625">
        <ele>88.59999847412109375</ele>
        <time>2018-09-07T13:15:33.000Z</time>
      </trkpt>
      <trkpt lat="43.34422451443970203399658203125" lon="-5.08317567408084869384765625">
        <ele>88.59999847412109375</ele>
        <time>2018-09-07T13:15:35.000Z</time>
      </trkpt>
      <trkpt lat="43.34419685415923595428466796875" lon="-5.08316201157867908477783203125">
        <ele>88.59999847412109375</ele>
        <time>2018-09-07T13:15:36.000Z</time>
      </trkpt>
      <trkpt lat="43.34407347254455089569091796875" lon="-5.08317626081407070159912109375">
        <ele>88.8000030517578125</ele>
        <time>2018-09-07T13:15:40.000Z</time>
      </trkpt>
      <trkpt lat="43.34403424523770809173583984375" lon="-5.08311574347317218780517578125">
        <ele>89.1999969482421875</ele>
        <time>2018-09-07T13:15:43.000Z</time>
      </trkpt>
      <trkpt lat="43.34402888081967830657958984375" lon="-5.0830923579633235931396484375">
        <ele>89.59999847412109375</ele>
        <time>2018-09-07T13:15:46.000Z</time>
      </trkpt>
      <trkpt lat="43.34019030444324016571044921875" lon="-5.08458157069981098175048828125">
        <ele>61.799999237060546875</ele>
        <time>2018-09-08T08:01:53.000Z</time>
      </trkpt>
      <trkpt lat="43.34016800858080387115478515625" lon="-5.0845818221569061279296875">
        <ele>61.799999237060546875</ele>
        <time>2018-09-08T08:01:54.000Z</time>
      </trkpt>
      <trkpt lat="43.3400007896125316619873046875" lon="-5.0845826603472232818603515625">
        <ele>62.40000152587890625</ele>
        <time>2018-09-08T08:02:00.000Z</time>
      </trkpt>
      <trkpt lat="43.33997589536011219024658203125" lon="-5.08458324708044528961181640625">
        <ele>60.40000152587890625</ele>
        <time>2018-09-08T08:02:01.000Z</time>
      </trkpt>
      <trkpt lat="43.3399250172078609466552734375" lon="-5.08459514938294887542724609375">
        <ele>58.200000762939453125</ele>
        <time>2018-09-08T08:02:02.000Z</time>
      </trkpt>
      <trkpt lat="43.339881598949432373046875" lon="-5.08460353128612041473388671875">
        <ele>53.40000152587890625</ele>
        <time>2018-09-08T08:02:03.000Z</time>
      </trkpt>
      <trkpt lat="43.3398415334522724151611328125" lon="-5.0846088118851184844970703125">
        <ele>61.40000152587890625</ele>
        <time>2018-09-08T08:02:04.000Z</time>
      </trkpt>
      <trkpt lat="43.33980716764926910400390625" lon="-5.084610991179943084716796875">
        <ele>64.40000152587890625</ele>
        <time>2018-09-08T08:02:05.000Z</time>
      </trkpt>
      <trkpt lat="43.3397728018462657928466796875" lon="-5.08461291901767253875732421875">
        <ele>69.1999969482421875</ele>
        <time>2018-09-08T08:02:06.000Z</time>
      </trkpt>
      <trkpt lat="43.33973851986229419708251953125" lon="-5.08461358956992626190185546875">
        <ele>63.200000762939453125</ele>
        <time>2018-09-08T08:02:07.000Z</time>
      </trkpt>
      <trkpt lat="43.3396306447684764862060546875" lon="-5.08460118435323238372802734375">
        <ele>63.40000152587890625</ele>
        <time>2018-09-08T08:02:10.000Z</time>
      </trkpt>
      <trkpt lat="43.339522182941436767578125" lon="-5.084580145776271820068359375">
        <ele>63</ele>
        <time>2018-09-08T08:02:13.000Z</time>
      </trkpt>
      <trkpt lat="43.339340798556804656982421875" lon="-5.0845548324286937713623046875">
        <ele>62.799999237060546875</ele>
        <time>2018-09-08T08:02:18.000Z</time>
      </trkpt>
      <trkpt lat="43.33929997868835926055908203125" lon="-5.084545612335205078125">
        <ele>62.799999237060546875</ele>
        <time>2018-09-08T08:02:19.000Z</time>
      </trkpt>
      <trkpt lat="43.33914943970739841461181640625" lon="-5.084507726132869720458984375">
        <ele>60.40000152587890625</ele>
        <time>2018-09-08T08:02:23.000Z</time>
      </trkpt>
      <trkpt lat="43.3390771038830280303955078125" lon="-5.0844921357929706573486328125">
        <ele>61.799999237060546875</ele>
        <time>2018-09-08T08:02:25.000Z</time>
      </trkpt>
      <trkpt lat="43.3390408940613269805908203125" lon="-5.0844861008226871490478515625">
        <ele>64.1999969482421875</ele>
        <time>2018-09-08T08:02:26.000Z</time>
      </trkpt>
      <trkpt lat="43.33900518715381622314453125" lon="-5.084477551281452178955078125">
        <ele>64.8000030517578125</ele>
        <time>2018-09-08T08:02:27.000Z</time>
      </trkpt>
      <trkpt lat="43.33882422186434268951416015625" lon="-5.0844351388514041900634765625">
        <ele>63.799999237060546875</ele>
        <time>2018-09-08T08:02:32.000Z</time>
      </trkpt>
      <trkpt lat="43.33865004591643810272216796875" lon="-5.08439197205007076263427734375">
        <ele>63.799999237060546875</ele>
        <time>2018-09-08T08:02:37.000Z</time>
      </trkpt>
      <trkpt lat="43.3383995108306407928466796875" lon="-5.08434335701167583465576171875">
        <ele>64.40000152587890625</ele>
        <time>2018-09-08T08:02:44.000Z</time>
      </trkpt>
      <trkpt lat="43.33827906288206577301025390625" lon="-5.08432139642536640167236328125">
        <ele>64.59999847412109375</ele>
        <time>2018-09-08T08:02:47.000Z</time>
      </trkpt>
      <trkpt lat="43.33811108954250812530517578125" lon="-5.084285773336887359619140625">
        <ele>64.8000030517578125</ele>
        <time>2018-09-08T08:02:51.000Z</time>
      </trkpt>
      <trkpt lat="43.33806817419826984405517578125" lon="-5.0842805765569210052490234375">
        <ele>64.8000030517578125</ele>
        <time>2018-09-08T08:02:52.000Z</time>
      </trkpt>
      <trkpt lat="43.33797815255820751190185546875" lon="-5.08426439948379993438720703125">
        <ele>65</ele>
        <time>2018-09-08T08:02:54.000Z</time>
      </trkpt>
      <trkpt lat="43.33784203045070171356201171875" lon="-5.08423648774623870849609375">
        <ele>65.1999969482421875</ele>
        <time>2018-09-08T08:02:57.000Z</time>
      </trkpt>
      <trkpt lat="43.33765813149511814117431640625" lon="-5.0841974280774593353271484375">
        <ele>65.59999847412109375</ele>
        <time>2018-09-08T08:03:01.000Z</time>
      </trkpt>
      <trkpt lat="43.33721942268311977386474609375" lon="-5.08410229347646236419677734375">
        <ele>66</ele>
        <time>2018-09-08T08:03:11.000Z</time>
      </trkpt>
      <trkpt lat="43.33704943768680095672607421875" lon="-5.08406323380768299102783203125">
        <ele>66.1999969482421875</ele>
        <time>2018-09-08T08:03:15.000Z</time>
      </trkpt>
      <trkpt lat="43.3368793688714504241943359375" lon="-5.08402995765209197998046875">
        <ele>66.40000152587890625</ele>
        <time>2018-09-08T08:03:19.000Z</time>
      </trkpt>
      <trkpt lat="43.336593210697174072265625" lon="-5.08397237397730350494384765625">
        <ele>67</ele>
        <time>2018-09-08T08:03:26.000Z</time>
      </trkpt>
      <trkpt lat="43.33642314188182353973388671875" lon="-5.08392669260501861572265625">
        <ele>67.1999969482421875</ele>
        <time>2018-09-08T08:03:30.000Z</time>
      </trkpt>
      <trkpt lat="43.336258269846439361572265625" lon="-5.08389861322939395904541015625">
        <ele>67.59999847412109375</ele>
        <time>2018-09-08T08:03:34.000Z</time>
      </trkpt>
      <trkpt lat="43.33581780083477497100830078125" lon="-5.08379660546779632568359375">
        <ele>69</ele>
        <time>2018-09-08T08:03:44.000Z</time>
      </trkpt>
      <trkpt lat="43.33577438257634639739990234375" lon="-5.083787553012371063232421875">
        <ele>70</ele>
        <time>2018-09-08T08:03:45.000Z</time>
      </trkpt>
      <trkpt lat="43.3357297070324420928955078125" lon="-5.0837793387472629547119140625">
        <ele>68.59999847412109375</ele>
        <time>2018-09-08T08:03:46.000Z</time>
      </trkpt>
      <trkpt lat="43.33532653748989105224609375" lon="-5.0836980342864990234375">
        <ele>69</ele>
        <time>2018-09-08T08:03:55.000Z</time>
      </trkpt>
      <trkpt lat="43.33491750061511993408203125" lon="-5.083608515560626983642578125">
        <ele>69.40000152587890625</ele>
        <time>2018-09-08T08:04:04.000Z</time>
      </trkpt>
      <trkpt lat="43.33473066799342632293701171875" lon="-5.08356518112123012542724609375">
        <ele>69.59999847412109375</ele>
        <time>2018-09-08T08:04:08.000Z</time>
      </trkpt>
      <trkpt lat="43.334452472627162933349609375" lon="-5.08349963463842868804931640625">
        <ele>70</ele>
        <time>2018-09-08T08:04:14.000Z</time>
      </trkpt>
      <trkpt lat="43.33413220010697841644287109375" lon="-5.08343526162207126617431640625">
        <ele>70.40000152587890625</ele>
        <time>2018-09-08T08:04:21.000Z</time>
      </trkpt>
      <trkpt lat="43.3339929766952991485595703125" lon="-5.0834105350077152252197265625">
        <ele>70.59999847412109375</ele>
        <time>2018-09-08T08:04:24.000Z</time>
      </trkpt>
      <trkpt lat="43.3337613008916378021240234375" lon="-5.08335831575095653533935546875">
        <ele>70.59999847412109375</ele>
        <time>2018-09-08T08:04:29.000Z</time>
      </trkpt>
      <trkpt lat="43.33367136307060718536376953125" lon="-5.08333937264978885650634765625">
        <ele>70.8000030517578125</ele>
        <time>2018-09-08T08:04:31.000Z</time>
      </trkpt>
      <trkpt lat="43.333626352250576019287109375" lon="-5.08332696743309497833251953125">
        <ele>71</ele>
        <time>2018-09-08T08:04:32.000Z</time>
      </trkpt>
      <trkpt lat="43.33330675028264522552490234375" lon="-5.08324750699102878570556640625">
        <ele>71.59999847412109375</ele>
        <time>2018-09-08T08:04:39.000Z</time>
      </trkpt>
      <trkpt lat="43.332889080047607421875" lon="-5.0831691361963748931884765625">
        <ele>72.40000152587890625</ele>
        <time>2018-09-08T08:04:48.000Z</time>
      </trkpt>
      <trkpt lat="43.33266000263392925262451171875" lon="-5.0831227004528045654296875">
        <ele>72.8000030517578125</ele>
        <time>2018-09-08T08:04:53.000Z</time>
      </trkpt>
      <trkpt lat="43.3326136507093906402587890625" lon="-5.0831097923219203948974609375">
        <ele>72.8000030517578125</ele>
        <time>2018-09-08T08:04:54.000Z</time>
      </trkpt>
      <trkpt lat="43.33235758356750011444091796875" lon="-5.0829770229756832122802734375">
        <ele>73.40000152587890625</ele>
        <time>2018-09-08T08:05:00.000Z</time>
      </trkpt>
      <trkpt lat="43.33208131603896617889404296875" lon="-5.08272531442344188690185546875">
        <ele>73.8000030517578125</ele>
        <time>2018-09-08T08:05:07.000Z</time>
      </trkpt>
      <trkpt lat="43.3319799788296222686767578125" lon="-5.08259472437202930450439453125">
        <ele>74</ele>
        <time>2018-09-08T08:05:10.000Z</time>
      </trkpt>
      <trkpt lat="43.33195106126368045806884765625" lon="-5.0825421698391437530517578125">
        <ele>74</ele>
        <time>2018-09-08T08:05:11.000Z</time>
      </trkpt>
      <trkpt lat="43.33186573348939418792724609375" lon="-5.08239959366619586944580078125">
        <ele>74</ele>
        <time>2018-09-08T08:05:14.000Z</time>
      </trkpt>
      <trkpt lat="43.33180940710008144378662109375" lon="-5.08228719234466552734375">
        <ele>74.1999969482421875</ele>
        <time>2018-09-08T08:05:16.000Z</time>
      </trkpt>
      <trkpt lat="43.3315709419548511505126953125" lon="-5.081812776625156402587890625">
        <ele>74.59999847412109375</ele>
        <time>2018-09-08T08:05:24.000Z</time>
      </trkpt>
      <trkpt lat="43.33153783343732357025146484375" lon="-5.0817522592842578887939453125">
        <ele>74.59999847412109375</ele>
        <time>2018-09-08T08:05:25.000Z</time>
      </trkpt>
      <trkpt lat="43.331485949456691741943359375" lon="-5.08162946440279483795166015625">
        <ele>74.8000030517578125</ele>
        <time>2018-09-08T08:05:27.000Z</time>
      </trkpt>
      <trkpt lat="43.33136893808841705322265625" lon="-5.08139058016240596771240234375">
        <ele>74.8000030517578125</ele>
        <time>2018-09-08T08:05:31.000Z</time>
      </trkpt>
      <trkpt lat="43.33128386177122592926025390625" lon="-5.0812067650258541107177734375">
        <ele>75</ele>
        <time>2018-09-08T08:05:34.000Z</time>
      </trkpt>
      <trkpt lat="43.3311880566179752349853515625" lon="-5.08103954605758190155029296875">
        <ele>75</ele>
        <time>2018-09-08T08:05:37.000Z</time>
      </trkpt>
      <trkpt lat="43.331113792955875396728515625" lon="-5.08094348944723606109619140625">
        <ele>75.1999969482421875</ele>
        <time>2018-09-08T08:05:39.000Z</time>
      </trkpt>
      <trkpt lat="43.330976329743862152099609375" lon="-5.080835111439228057861328125">
        <ele>75.1999969482421875</ele>
        <time>2018-09-08T08:05:42.000Z</time>
      </trkpt>
      <trkpt lat="43.33093148656189441680908203125" lon="-5.08079831488430500030517578125">
        <ele>75.1999969482421875</ele>
        <time>2018-09-08T08:05:43.000Z</time>
      </trkpt>
      <trkpt lat="43.3308812789618968963623046875" lon="-5.0807719118893146514892578125">
        <ele>75.40000152587890625</ele>
        <time>2018-09-08T08:05:44.000Z</time>
      </trkpt>
      <trkpt lat="43.33077885210514068603515625" lon="-5.08073310367763042449951171875">
        <ele>75.59999847412109375</ele>
        <time>2018-09-08T08:05:46.000Z</time>
      </trkpt>
      <trkpt lat="43.3307273872196674346923828125" lon="-5.0807239674031734466552734375">
        <ele>75.59999847412109375</ele>
        <time>2018-09-08T08:05:47.000Z</time>
      </trkpt>
      <trkpt lat="43.3305701427161693572998046875" lon="-5.08074693381786346435546875">
        <ele>75.8000030517578125</ele>
        <time>2018-09-08T08:05:50.000Z</time>
      </trkpt>
      <trkpt lat="43.330515325069427490234375" lon="-5.08076529018580913543701171875">
        <ele>76</ele>
        <time>2018-09-08T08:05:51.000Z</time>
      </trkpt>
      <trkpt lat="43.330315835773944854736328125" lon="-5.080873668193817138671875">
        <ele>76.1999969482421875</ele>
        <time>2018-09-08T08:05:55.000Z</time>
      </trkpt>
      <trkpt lat="43.3302244730293750762939453125" lon="-5.08094013668596744537353515625">
        <ele>76.40000152587890625</ele>
        <time>2018-09-08T08:05:57.000Z</time>
      </trkpt>
      <trkpt lat="43.32991057075560092926025390625" lon="-5.0811779312789440155029296875">
        <ele>77</ele>
        <time>2018-09-08T08:06:04.000Z</time>
      </trkpt>
      <trkpt lat="43.329866230487823486328125" lon="-5.08121095597743988037109375">
        <ele>77.1999969482421875</ele>
        <time>2018-09-08T08:06:05.000Z</time>
      </trkpt>
      <trkpt lat="43.32965106703341007232666015625" lon="-5.08135805837810039520263671875">
        <ele>77.8000030517578125</ele>
        <time>2018-09-08T08:06:10.000Z</time>
      </trkpt>
      <trkpt lat="43.32956305705010890960693359375" lon="-5.0813918374478816986083984375">
        <ele>78</ele>
        <time>2018-09-08T08:06:12.000Z</time>
      </trkpt>
      <trkpt lat="43.3295177109539508819580078125" lon="-5.08140147663652896881103515625">
        <ele>78</ele>
        <time>2018-09-08T08:06:13.000Z</time>
      </trkpt>
      <trkpt lat="43.32928779534995555877685546875" lon="-5.081391669809818267822265625">
        <ele>78.40000152587890625</ele>
        <time>2018-09-08T08:06:18.000Z</time>
      </trkpt>
      <trkpt lat="43.329016976058483123779296875" lon="-5.0813271291553974151611328125">
        <ele>78.8000030517578125</ele>
        <time>2018-09-08T08:06:24.000Z</time>
      </trkpt>
      <trkpt lat="43.328935168683528900146484375" lon="-5.0812436453998088836669921875">
        <ele>79</ele>
        <time>2018-09-08T08:06:26.000Z</time>
      </trkpt>
      <trkpt lat="43.32889652810990810394287109375" lon="-5.08121741004288196563720703125">
        <ele>79</ele>
        <time>2018-09-08T08:06:27.000Z</time>
      </trkpt>
      <trkpt lat="43.3286704681813716888427734375" lon="-5.081110037863254547119140625">
        <ele>79.59999847412109375</ele>
        <time>2018-09-08T08:06:32.000Z</time>
      </trkpt>
      <trkpt lat="43.3285452425479888916015625" lon="-5.081032253801822662353515625">
        <ele>79.8000030517578125</ele>
        <time>2018-09-08T08:06:35.000Z</time>
      </trkpt>
      <trkpt lat="43.328468464314937591552734375" lon="-5.08095656521618366241455078125">
        <ele>80.1999969482421875</ele>
        <time>2018-09-08T08:06:37.000Z</time>
      </trkpt>
      <trkpt lat="43.3284371159970760345458984375" lon="-5.080912224948406219482421875">
        <ele>80.1999969482421875</ele>
        <time>2018-09-08T08:06:38.000Z</time>
      </trkpt>
      <trkpt lat="43.3283472619950771331787109375" lon="-5.080770738422870635986328125">
        <ele>80.59999847412109375</ele>
        <time>2018-09-08T08:06:41.000Z</time>
      </trkpt>
      <trkpt lat="43.32808281295001506805419921875" lon="-5.08026572875678539276123046875">
        <ele>81.40000152587890625</ele>
        <time>2018-09-08T08:06:51.000Z</time>
      </trkpt>
      <trkpt lat="43.32797703333199024200439453125" lon="-5.0800638087093830108642578125">
        <ele>81.59999847412109375</ele>
        <time>2018-09-08T08:06:55.000Z</time>
      </trkpt>
      <trkpt lat="43.32782750017940998077392578125" lon="-5.07983271963894367218017578125">
        <ele>82</ele>
        <time>2018-09-08T08:07:00.000Z</time>
      </trkpt>
      <trkpt lat="43.32772113382816314697265625" lon="-5.0797074101865291595458984375">
        <ele>82.40000152587890625</ele>
        <time>2018-09-08T08:07:03.000Z</time>
      </trkpt>
      <trkpt lat="43.32755978219211101531982421875" lon="-5.0795833580195903778076171875">
        <ele>82.8000030517578125</ele>
        <time>2018-09-08T08:07:07.000Z</time>
      </trkpt>
      <trkpt lat="43.32734352909028530120849609375" lon="-5.079483948647975921630859375">
        <ele>83</ele>
        <time>2018-09-08T08:07:12.000Z</time>
      </trkpt>
      <trkpt lat="43.32730111666023731231689453125" lon="-5.07946777157485485076904296875">
        <ele>83.1999969482421875</ele>
        <time>2018-09-08T08:07:13.000Z</time>
      </trkpt>
      <trkpt lat="43.32711721770465373992919921875" lon="-5.07941295392811298370361328125">
        <ele>83.40000152587890625</ele>
        <time>2018-09-08T08:07:17.000Z</time>
      </trkpt>
      <trkpt lat="43.3269374258816242218017578125" lon="-5.0793557055294513702392578125">
        <ele>83.8000030517578125</ele>
        <time>2018-09-08T08:07:21.000Z</time>
      </trkpt>
      <trkpt lat="43.326667360961437225341796875" lon="-5.07927264086902141571044921875">
        <ele>84.40000152587890625</ele>
        <time>2018-09-08T08:07:27.000Z</time>
      </trkpt>
      <trkpt lat="43.32649377174675464630126953125" lon="-5.0792252831161022186279296875">
        <ele>85</ele>
        <time>2018-09-08T08:07:31.000Z</time>
      </trkpt>
      <trkpt lat="43.32627081312239170074462890625" lon="-5.07916971109807491302490234375">
        <ele>84.8000030517578125</ele>
        <time>2018-09-08T08:07:36.000Z</time>
      </trkpt>
      <trkpt lat="43.32622471265494823455810546875" lon="-5.07916082628071308135986328125">
        <ele>85</ele>
        <time>2018-09-08T08:07:37.000Z</time>
      </trkpt>
      <trkpt lat="43.32590385340154170989990234375" lon="-5.07910969667136669158935546875">
        <ele>85.1999969482421875</ele>
        <time>2018-09-08T08:07:44.000Z</time>
      </trkpt>
      <trkpt lat="43.32586814649403095245361328125" lon="-5.07910936139523983001708984375">
        <ele>85.1999969482421875</ele>
        <time>2018-09-08T08:07:45.000Z</time>
      </trkpt>
      <trkpt lat="43.32575364969670772552490234375" lon="-5.079095028340816497802734375">
        <ele>85.40000152587890625</ele>
        <time>2018-09-08T08:07:48.000Z</time>
      </trkpt>
      <trkpt lat="43.325592465698719024658203125" lon="-5.079124867916107177734375">
        <ele>85.1999969482421875</ele>
        <time>2018-09-08T08:07:51.000Z</time>
      </trkpt>
      <trkpt lat="43.325291387736797332763671875" lon="-5.07918010465800762176513671875">
        <ele>85.40000152587890625</ele>
        <time>2018-09-08T08:07:56.000Z</time>
      </trkpt>
      <trkpt lat="43.3252342231571674346923828125" lon="-5.0791612453758716583251953125">
        <ele>85.59999847412109375</ele>
        <time>2018-09-08T08:07:57.000Z</time>
      </trkpt>
      <trkpt lat="43.325031213462352752685546875" lon="-5.0790147297084331512451171875">
        <ele>85.40000152587890625</ele>
        <time>2018-09-08T08:08:01.000Z</time>
      </trkpt>
      <trkpt lat="43.3249847777187824249267578125" lon="-5.0789654441177845001220703125">
        <ele>85.59999847412109375</ele>
        <time>2018-09-08T08:08:02.000Z</time>
      </trkpt>
      <trkpt lat="43.32476827315986156463623046875" lon="-5.07867132313549518585205078125">
        <ele>85.59999847412109375</ele>
        <time>2018-09-08T08:08:07.000Z</time>
      </trkpt>
      <trkpt lat="43.32465260289609432220458984375" lon="-5.07845087908208370208740234375">
        <ele>86</ele>
        <time>2018-09-08T08:08:10.000Z</time>
      </trkpt>
      <trkpt lat="43.3245774172246456146240234375" lon="-5.07833286188542842864990234375">
        <ele>86.40000152587890625</ele>
        <time>2018-09-08T08:08:12.000Z</time>
      </trkpt>
      <trkpt lat="43.3245391957461833953857421875" lon="-5.078279972076416015625">
        <ele>86.59999847412109375</ele>
        <time>2018-09-08T08:08:13.000Z</time>
      </trkpt>
      <trkpt lat="43.32449485547840595245361328125" lon="-5.0782328657805919647216796875">
        <ele>86.8000030517578125</ele>
        <time>2018-09-08T08:08:14.000Z</time>
      </trkpt>
      <trkpt lat="43.32434582524001598358154296875" lon="-5.07812281139194965362548828125">
        <ele>87</ele>
        <time>2018-09-08T08:08:17.000Z</time>
      </trkpt>
      <trkpt lat="43.32418455742299556732177734375" lon="-5.078036226332187652587890625">
        <ele>87</ele>
        <time>2018-09-08T08:08:20.000Z</time>
      </trkpt>
      <trkpt lat="43.32401742227375507354736328125" lon="-5.07799456827342510223388671875">
        <ele>87</ele>
        <time>2018-09-08T08:08:23.000Z</time>
      </trkpt>
      <trkpt lat="43.32363738678395748138427734375" lon="-5.0779730267822742462158203125">
        <ele>87.40000152587890625</ele>
        <time>2018-09-08T08:08:30.000Z</time>
      </trkpt>
      <trkpt lat="43.3235313557088375091552734375" lon="-5.07793254218995571136474609375">
        <ele>88</ele>
        <time>2018-09-08T08:08:32.000Z</time>
      </trkpt>
      <trkpt lat="43.3234830759465694427490234375" lon="-5.07790437899529933929443359375">
        <ele>88</ele>
        <time>2018-09-08T08:08:33.000Z</time>
      </trkpt>
      <trkpt lat="43.32339364103972911834716796875" lon="-5.07782843895256519317626953125">
        <ele>88.1999969482421875</ele>
        <time>2018-09-08T08:08:35.000Z</time>
      </trkpt>
      <trkpt lat="43.32310312427580356597900390625" lon="-5.0775596313178539276123046875">
        <ele>89</ele>
        <time>2018-09-08T08:08:42.000Z</time>
      </trkpt>
      <trkpt lat="43.3228085003793239593505859375" lon="-5.0772629119455814361572265625">
        <ele>89.8000030517578125</ele>
        <time>2018-09-08T08:08:50.000Z</time>
      </trkpt>
      <trkpt lat="43.322737254202365875244140625" lon="-5.0771914981305599212646484375">
        <ele>90</ele>
        <time>2018-09-08T08:08:52.000Z</time>
      </trkpt>
      <trkpt lat="43.32249484956264495849609375" lon="-5.076953284442424774169921875">
        <ele>91</ele>
        <time>2018-09-08T08:08:59.000Z</time>
      </trkpt>
      <trkpt lat="43.3224641717970371246337890625" lon="-5.07691933773458003997802734375">
        <ele>91.1999969482421875</ele>
        <time>2018-09-08T08:09:00.000Z</time>
      </trkpt>
      <trkpt lat="43.32227247767150402069091796875" lon="-5.07671833969652652740478515625">
        <ele>92.1999969482421875</ele>
        <time>2018-09-08T08:09:06.000Z</time>
      </trkpt>
      <trkpt lat="43.32220852375030517578125" lon="-5.0766553916037082672119140625">
        <ele>92.40000152587890625</ele>
        <time>2018-09-08T08:09:08.000Z</time>
      </trkpt>
      <trkpt lat="43.32200668752193450927734375" lon="-5.07645062170922756195068359375">
        <ele>93.1999969482421875</ele>
        <time>2018-09-08T08:09:15.000Z</time>
      </trkpt>
      <trkpt lat="43.32176285795867443084716796875" lon="-5.076194219291210174560546875">
        <ele>94.1999969482421875</ele>
        <time>2018-09-08T08:09:23.000Z</time>
      </trkpt>
      <trkpt lat="43.321731425821781158447265625" lon="-5.07616228424012660980224609375">
        <ele>94.1999969482421875</ele>
        <time>2018-09-08T08:09:24.000Z</time>
      </trkpt>
      <trkpt lat="43.32150779664516448974609375" lon="-5.0759238190948963165283203125">
        <ele>95</ele>
        <time>2018-09-08T08:09:31.000Z</time>
      </trkpt>
      <trkpt lat="43.32144300453364849090576171875" lon="-5.0758565962314605712890625">
        <ele>95.40000152587890625</ele>
        <time>2018-09-08T08:09:33.000Z</time>
      </trkpt>
      <trkpt lat="43.3211904577910900115966796875" lon="-5.075588040053844451904296875">
        <ele>96.1999969482421875</ele>
        <time>2018-09-08T08:09:41.000Z</time>
      </trkpt>
      <trkpt lat="43.32115885801613330841064453125" lon="-5.0755536742508411407470703125">
        <ele>96.40000152587890625</ele>
        <time>2018-09-08T08:09:42.000Z</time>
      </trkpt>
      <trkpt lat="43.3209430240094661712646484375" lon="-5.0753146223723888397216796875">
        <ele>97.59999847412109375</ele>
        <time>2018-09-08T08:09:49.000Z</time>
      </trkpt>
      <trkpt lat="43.32075770013034343719482421875" lon="-5.07508839480578899383544921875">
        <ele>98.59999847412109375</ele>
        <time>2018-09-08T08:09:56.000Z</time>
      </trkpt>
      <trkpt lat="43.32073607482016086578369140625" lon="-5.075055621564388275146484375">
        <ele>98.8000030517578125</ele>
        <time>2018-09-08T08:09:57.000Z</time>
      </trkpt>
      <trkpt lat="43.32056927494704723358154296875" lon="-5.07491086609661579132080078125">
        <ele>99.1999969482421875</ele>
        <time>2018-09-08T08:10:01.000Z</time>
      </trkpt>
      <trkpt lat="43.3204850368201732635498046875" lon="-5.07483157329261302947998046875">
        <ele>99.1999969482421875</ele>
        <time>2018-09-08T08:10:03.000Z</time>
      </trkpt>
      <trkpt lat="43.32033776678144931793212890625" lon="-5.07469260133802890777587890625">
        <ele>99.40000152587890625</ele>
        <time>2018-09-08T08:10:06.000Z</time>
      </trkpt>
      <trkpt lat="43.320061080157756805419921875" lon="-5.0744308345019817352294921875">
        <ele>99.8000030517578125</ele>
        <time>2018-09-08T08:10:12.000Z</time>
      </trkpt>
      <trkpt lat="43.32000911235809326171875" lon="-5.07440208457410335540771484375">
        <ele>99.8000030517578125</ele>
        <time>2018-09-08T08:10:13.000Z</time>
      </trkpt>
      <trkpt lat="43.31990006379783153533935546875" lon="-5.0743577443063259124755859375">
        <ele>99.8000030517578125</ele>
        <time>2018-09-08T08:10:15.000Z</time>
      </trkpt>
      <trkpt lat="43.31969286315143108367919921875" lon="-5.074301250278949737548828125">
        <ele>100.1999969482421875</ele>
        <time>2018-09-08T08:10:19.000Z</time>
      </trkpt>
      <trkpt lat="43.31934601999819278717041015625" lon="-5.07425975985825061798095703125">
        <ele>101</ele>
        <time>2018-09-08T08:10:26.000Z</time>
      </trkpt>
      <trkpt lat="43.31929673440754413604736328125" lon="-5.074251629412174224853515625">
        <ele>101</ele>
        <time>2018-09-08T08:10:27.000Z</time>
      </trkpt>
      <trkpt lat="43.31905759871006011962890625" lon="-5.074212066829204559326171875">
        <ele>102</ele>
        <time>2018-09-08T08:10:32.000Z</time>
      </trkpt>
      <trkpt lat="43.31895877607166767120361328125" lon="-5.0741793774068355560302734375">
        <ele>102.1999969482421875</ele>
        <time>2018-09-08T08:10:34.000Z</time>
      </trkpt>
      <trkpt lat="43.3186111785471439361572265625" lon="-5.0740033574402332305908203125">
        <ele>102.1999969482421875</ele>
        <time>2018-09-08T08:10:41.000Z</time>
      </trkpt>
      <trkpt lat="43.31836952827870845794677734375" lon="-5.0739282555878162384033203125">
        <ele>102.1999969482421875</ele>
        <time>2018-09-08T08:10:46.000Z</time>
      </trkpt>
      <trkpt lat="43.31815059296786785125732421875" lon="-5.0739859230816364288330078125">
        <ele>102.1999969482421875</ele>
        <time>2018-09-08T08:10:50.000Z</time>
      </trkpt>
      <trkpt lat="43.31809828989207744598388671875" lon="-5.0740063749253749847412109375">
        <ele>102.40000152587890625</ele>
        <time>2018-09-08T08:10:51.000Z</time>
      </trkpt>
      <trkpt lat="43.3179922588169574737548828125" lon="-5.07405675016343593597412109375">
        <ele>102.40000152587890625</ele>
        <time>2018-09-08T08:10:53.000Z</time>
      </trkpt>
      <trkpt lat="43.31776536069810390472412109375" lon="-5.0741163454949855804443359375">
        <ele>102.59999847412109375</ele>
        <time>2018-09-08T08:10:57.000Z</time>
      </trkpt>
      <trkpt lat="43.31754089333117008209228515625" lon="-5.07403227500617504119873046875">
        <ele>102.8000030517578125</ele>
        <time>2018-09-08T08:11:01.000Z</time>
      </trkpt>
      <trkpt lat="43.3173538930714130401611328125" lon="-5.07379825226962566375732421875">
        <ele>102.59999847412109375</ele>
        <time>2018-09-08T08:11:05.000Z</time>
      </trkpt>
      <trkpt lat="43.317264877259731292724609375" lon="-5.07355316542088985443115234375">
        <ele>102.59999847412109375</ele>
        <time>2018-09-08T08:11:08.000Z</time>
      </trkpt>
      <trkpt lat="43.317238055169582366943359375" lon="-5.073475129902362823486328125">
        <ele>102.59999847412109375</ele>
        <time>2018-09-08T08:11:09.000Z</time>
      </trkpt>
      <trkpt lat="43.31707636825740337371826171875" lon="-5.0729509256780147552490234375">
        <ele>102.1999969482421875</ele>
        <time>2018-09-08T08:11:15.000Z</time>
      </trkpt>
      <trkpt lat="43.31704468466341495513916015625" lon="-5.0728624127805233001708984375">
        <ele>102.1999969482421875</ele>
        <time>2018-09-08T08:11:16.000Z</time>
      </trkpt>
      <trkpt lat="43.316960446536540985107421875" lon="-5.072597377002239227294921875">
        <ele>102.1999969482421875</ele>
        <time>2018-09-08T08:11:19.000Z</time>
      </trkpt>
      <trkpt lat="43.3168459497392177581787109375" lon="-5.0722381286323070526123046875">
        <ele>102.59999847412109375</ele>
        <time>2018-09-08T08:11:23.000Z</time>
      </trkpt>
      <trkpt lat="43.316788785159587860107421875" lon="-5.072066299617290496826171875">
        <ele>102.59999847412109375</ele>
        <time>2018-09-08T08:11:25.000Z</time>
      </trkpt>
      <trkpt lat="43.3167007751762866973876953125" lon="-5.07181978784501552581787109375">
        <ele>103.1999969482421875</ele>
        <time>2018-09-08T08:11:28.000Z</time>
      </trkpt>
      <trkpt lat="43.3165919780731201171875" lon="-5.07160621695220470428466796875">
        <ele>104</ele>
        <time>2018-09-08T08:11:31.000Z</time>
      </trkpt>
      <trkpt lat="43.316469602286815643310546875" lon="-5.07142500020563602447509765625">
        <ele>104.40000152587890625</ele>
        <time>2018-09-08T08:11:34.000Z</time>
      </trkpt>
      <trkpt lat="43.31634010188281536102294921875" lon="-5.07126255892217159271240234375">
        <ele>104.59999847412109375</ele>
        <time>2018-09-08T08:11:37.000Z</time>
      </trkpt>
      <trkpt lat="43.3160245232284069061279296875" lon="-5.07093633525073528289794921875">
        <ele>105.59999847412109375</ele>
        <time>2018-09-08T08:11:44.000Z</time>
      </trkpt>
      <trkpt lat="43.31579376943409442901611328125" lon="-5.07067850790917873382568359375">
        <ele>106.59999847412109375</ele>
        <time>2018-09-08T08:11:50.000Z</time>
      </trkpt>
      <trkpt lat="43.31562680192291736602783203125" lon="-5.07050366140902042388916015625">
        <ele>106.8000030517578125</ele>
        <time>2018-09-08T08:11:54.000Z</time>
      </trkpt>
      <trkpt lat="43.3155273087322711944580078125" lon="-5.07036552764475345611572265625">
        <ele>107.40000152587890625</ele>
        <time>2018-09-08T08:11:57.000Z</time>
      </trkpt>
      <trkpt lat="43.3155028335750102996826171875" lon="-5.0703149847686290740966796875">
        <ele>107.40000152587890625</ele>
        <time>2018-09-08T08:11:58.000Z</time>
      </trkpt>
      <trkpt lat="43.31545002758502960205078125" lon="-5.0702097080647945404052734375">
        <ele>107.8000030517578125</ele>
        <time>2018-09-08T08:12:00.000Z</time>
      </trkpt>
      <trkpt lat="43.31539663486182689666748046875" lon="-5.0700980611145496368408203125">
        <ele>107.8000030517578125</ele>
        <time>2018-09-08T08:12:02.000Z</time>
      </trkpt>
      <trkpt lat="43.31525154411792755126953125" lon="-5.0696337036788463592529296875">
        <ele>108.40000152587890625</ele>
        <time>2018-09-08T08:12:09.000Z</time>
      </trkpt>
      <trkpt lat="43.315148614346981048583984375" lon="-5.06915216334164142608642578125">
        <ele>109</ele>
        <time>2018-09-08T08:12:16.000Z</time>
      </trkpt>
      <trkpt lat="43.31512011587619781494140625" lon="-5.06901771761476993560791015625">
        <ele>109.1999969482421875</ele>
        <time>2018-09-08T08:12:18.000Z</time>
      </trkpt>
      <trkpt lat="43.31499480642378330230712890625" lon="-5.0685497559607028961181640625">
        <ele>109.59999847412109375</ele>
        <time>2018-09-08T08:12:25.000Z</time>
      </trkpt>
      <trkpt lat="43.3149318583309650421142578125" lon="-5.06835286505520343780517578125">
        <ele>110</ele>
        <time>2018-09-08T08:12:28.000Z</time>
      </trkpt>
      <trkpt lat="43.31485591828823089599609375" lon="-5.0681725703179836273193359375">
        <ele>110.40000152587890625</ele>
        <time>2018-09-08T08:12:31.000Z</time>
      </trkpt>
      <trkpt lat="43.31479280255734920501708984375" lon="-5.06806804798543453216552734375">
        <ele>110.59999847412109375</ele>
        <time>2018-09-08T08:12:33.000Z</time>
      </trkpt>
      <trkpt lat="43.314646370708942413330078125" lon="-5.06779211573302745819091796875">
        <ele>111.1999969482421875</ele>
        <time>2018-09-08T08:12:38.000Z</time>
      </trkpt>
      <trkpt lat="43.3145575225353240966796875" lon="-5.06763420067727565765380859375">
        <ele>111.1999969482421875</ele>
        <time>2018-09-08T08:12:41.000Z</time>
      </trkpt>
      <trkpt lat="43.31449239514768123626708984375" lon="-5.06753948517143726348876953125">
        <ele>111.40000152587890625</ele>
        <time>2018-09-08T08:12:43.000Z</time>
      </trkpt>
      <trkpt lat="43.31433548592031002044677734375" lon="-5.06737570278346538543701171875">
        <ele>112.1999969482421875</ele>
        <time>2018-09-08T08:12:47.000Z</time>
      </trkpt>
      <trkpt lat="43.31409492529928684234619140625" lon="-5.06714637391269207000732421875">
        <ele>112.8000030517578125</ele>
        <time>2018-09-08T08:12:53.000Z</time>
      </trkpt>
      <trkpt lat="43.31401496194303035736083984375" lon="-5.06706506945192813873291015625">
        <ele>113.1999969482421875</ele>
        <time>2018-09-08T08:12:55.000Z</time>
      </trkpt>
      <trkpt lat="43.31398311071097850799560546875" lon="-5.067009665071964263916015625">
        <ele>113.40000152587890625</ele>
        <time>2018-09-08T08:12:56.000Z</time>
      </trkpt>
      <trkpt lat="43.3139298856258392333984375" lon="-5.06680036894977092742919921875">
        <ele>113.59999847412109375</ele>
        <time>2018-09-08T08:12:59.000Z</time>
      </trkpt>
      <trkpt lat="43.31392259337007999420166015625" lon="-5.06672744639217853546142578125">
        <ele>113.8000030517578125</ele>
        <time>2018-09-08T08:13:00.000Z</time>
      </trkpt>
      <trkpt lat="43.31389107741415500640869140625" lon="-5.066451095044612884521484375">
        <ele>113.8000030517578125</ele>
        <time>2018-09-08T08:13:04.000Z</time>
      </trkpt>
      <trkpt lat="43.313890993595123291015625" lon="-5.06617910228669643402099609375">
        <ele>114.1999969482421875</ele>
        <time>2018-09-08T08:13:08.000Z</time>
      </trkpt>
      <trkpt lat="43.313875235617160797119140625" lon="-5.06589864380657672882080078125">
        <ele>114.1999969482421875</ele>
        <time>2018-09-08T08:13:12.000Z</time>
      </trkpt>
      <trkpt lat="43.3138770796358585357666015625" lon="-5.0657696463167667388916015625">
        <ele>114.40000152587890625</ele>
        <time>2018-09-08T08:13:14.000Z</time>
      </trkpt>
      <trkpt lat="43.31389543600380420684814453125" lon="-5.06564836017787456512451171875">
        <ele>114.8000030517578125</ele>
        <time>2018-09-08T08:13:16.000Z</time>
      </trkpt>
      <trkpt lat="43.31394421868026256561279296875" lon="-5.0654657185077667236328125">
        <ele>115</ele>
        <time>2018-09-08T08:13:19.000Z</time>
      </trkpt>
      <trkpt lat="43.3140172250568866729736328125" lon="-5.06521116010844707489013671875">
        <ele>115.59999847412109375</ele>
        <time>2018-09-08T08:13:23.000Z</time>
      </trkpt>
      <trkpt lat="43.31408436410129070281982421875" lon="-5.065001361072063446044921875">
        <ele>115.59999847412109375</ele>
        <time>2018-09-08T08:13:26.000Z</time>
      </trkpt>
      <trkpt lat="43.31415854394435882568359375" lon="-5.064759962260723114013671875">
        <ele>116</ele>
        <time>2018-09-08T08:13:31.000Z</time>
      </trkpt>
      <trkpt lat="43.3141835220158100128173828125" lon="-5.06467807106673717498779296875">
        <ele>116.1999969482421875</ele>
        <time>2018-09-08T08:13:33.000Z</time>
      </trkpt>
      <trkpt lat="43.31420481204986572265625" lon="-5.06459207274019718170166015625">
        <ele>116.59999847412109375</ele>
        <time>2018-09-08T08:13:35.000Z</time>
      </trkpt>
      <trkpt lat="43.314232639968395233154296875" lon="-5.06441362202167510986328125">
        <ele>116.8000030517578125</ele>
        <time>2018-09-08T08:13:39.000Z</time>
      </trkpt>
      <trkpt lat="43.314260803163051605224609375" lon="-5.064220838248729705810546875">
        <ele>117.1999969482421875</ele>
        <time>2018-09-08T08:13:43.000Z</time>
      </trkpt>
      <trkpt lat="43.314276225864887237548828125" lon="-5.064071975648403167724609375">
        <ele>117.8000030517578125</ele>
        <time>2018-09-08T08:13:46.000Z</time>
      </trkpt>
      <trkpt lat="43.314254768192768096923828125" lon="-5.06392319686710834503173828125">
        <ele>118</ele>
        <time>2018-09-08T08:13:49.000Z</time>
      </trkpt>
      <trkpt lat="43.31419735215604305267333984375" lon="-5.06377818994224071502685546875">
        <ele>118.40000152587890625</ele>
        <time>2018-09-08T08:13:52.000Z</time>
      </trkpt>
      <trkpt lat="43.31414043903350830078125" lon="-5.06364994682371616363525390625">
        <ele>118.8000030517578125</ele>
        <time>2018-09-08T08:13:55.000Z</time>
      </trkpt>
      <trkpt lat="43.31412107683718204498291015625" lon="-5.063605606555938720703125">
        <ele>118.8000030517578125</ele>
        <time>2018-09-08T08:13:56.000Z</time>
      </trkpt>
      <trkpt lat="43.3140262775123119354248046875" lon="-5.06339983083307743072509765625">
        <ele>119.1999969482421875</ele>
        <time>2018-09-08T08:14:01.000Z</time>
      </trkpt>
      <trkpt lat="43.31392695195972919464111328125" lon="-5.063192546367645263671875">
        <ele>119.59999847412109375</ele>
        <time>2018-09-08T08:14:06.000Z</time>
      </trkpt>
      <trkpt lat="43.31386190839111804962158203125" lon="-5.06307813338935375213623046875">
        <ele>120</ele>
        <time>2018-09-08T08:14:09.000Z</time>
      </trkpt>
      <trkpt lat="43.3137714676558971405029296875" lon="-5.0629757903516292572021484375">
        <ele>120.1999969482421875</ele>
        <time>2018-09-08T08:14:12.000Z</time>
      </trkpt>
      <trkpt lat="43.31351255066692829132080078125" lon="-5.062736235558986663818359375">
        <ele>120.1999969482421875</ele>
        <time>2018-09-08T08:14:19.000Z</time>
      </trkpt>
      <trkpt lat="43.31335580907762050628662109375" lon="-5.0625992752611637115478515625">
        <ele>120.1999969482421875</ele>
        <time>2018-09-08T08:14:23.000Z</time>
      </trkpt>
      <trkpt lat="43.3131786994636058807373046875" lon="-5.06242937408387660980224609375">
        <ele>120.40000152587890625</ele>
        <time>2018-09-08T08:14:28.000Z</time>
      </trkpt>
      <trkpt lat="43.31292246468365192413330078125" lon="-5.06213416345417499542236328125">
        <ele>121</ele>
        <time>2018-09-08T08:14:36.000Z</time>
      </trkpt>
      <trkpt lat="43.3128980733454227447509765625" lon="-5.062096528708934783935546875">
        <ele>121.1999969482421875</ele>
        <time>2018-09-08T08:14:37.000Z</time>
      </trkpt>
      <trkpt lat="43.31269405782222747802734375" lon="-5.06177290342748165130615234375">
        <ele>122</ele>
        <time>2018-09-08T08:14:45.000Z</time>
      </trkpt>
      <trkpt lat="43.31267553381621837615966796875" lon="-5.06172713823616504669189453125">
        <ele>122</ele>
        <time>2018-09-08T08:14:46.000Z</time>
      </trkpt>
      <trkpt lat="43.31258006393909454345703125" lon="-5.06155849434435367584228515625">
        <ele>122.40000152587890625</ele>
        <time>2018-09-08T08:14:50.000Z</time>
      </trkpt>
      <trkpt lat="43.31243455410003662109375" lon="-5.06128616631031036376953125">
        <ele>123</ele>
        <time>2018-09-08T08:14:56.000Z</time>
      </trkpt>
      <trkpt lat="43.3124182932078838348388671875" lon="-5.0612363778054714202880859375">
        <ele>123.1999969482421875</ele>
        <time>2018-09-08T08:14:57.000Z</time>
      </trkpt>
      <trkpt lat="43.31240379251539707183837890625" lon="-5.0611877627670764923095703125">
        <ele>123.40000152587890625</ele>
        <time>2018-09-08T08:14:58.000Z</time>
      </trkpt>
      <trkpt lat="43.31229952163994312286376953125" lon="-5.06083396263420581817626953125">
        <ele>124</ele>
        <time>2018-09-08T08:15:05.000Z</time>
      </trkpt>
      <trkpt lat="43.31229440867900848388671875" lon="-5.06077797152101993560791015625">
        <ele>123.8000030517578125</ele>
        <time>2018-09-08T08:15:06.000Z</time>
      </trkpt>
      <trkpt lat="43.31229507923126220703125" lon="-5.06055635400116443634033203125">
        <ele>124.1999969482421875</ele>
        <time>2018-09-08T08:15:10.000Z</time>
      </trkpt>
      <trkpt lat="43.312296085059642791748046875" lon="-5.06050287745893001556396484375">
        <ele>124.1999969482421875</ele>
        <time>2018-09-08T08:15:11.000Z</time>
      </trkpt>
      <trkpt lat="43.31230270676314830780029296875" lon="-5.06044529378414154052734375">
        <ele>124.40000152587890625</ele>
        <time>2018-09-08T08:15:12.000Z</time>
      </trkpt>
      <trkpt lat="43.3123408444225788116455078125" lon="-5.0601611472666263580322265625">
        <ele>124.8000030517578125</ele>
        <time>2018-09-08T08:15:17.000Z</time>
      </trkpt>
      <trkpt lat="43.31242449581623077392578125" lon="-5.05985663272440433502197265625">
        <ele>125.40000152587890625</ele>
        <time>2018-09-08T08:15:23.000Z</time>
      </trkpt>
      <trkpt lat="43.3124303631484508514404296875" lon="-5.05982344038784503936767578125">
        <ele>125.40000152587890625</ele>
        <time>2018-09-08T08:15:24.000Z</time>
      </trkpt>
      <trkpt lat="43.31244285218417644500732421875" lon="-5.0597940199077129364013671875">
        <ele>125.40000152587890625</ele>
        <time>2018-09-08T08:15:26.000Z</time>
      </trkpt>
      <trkpt lat="43.31244352273643016815185546875" lon="-5.05978010594844818115234375">
        <ele>125.59999847412109375</ele>
        <time>2018-09-08T08:15:28.000Z</time>
      </trkpt>
      <trkpt lat="43.312450312077999114990234375" lon="-5.05965429358184337615966796875">
        <ele>126.1999969482421875</ele>
        <time>2018-09-08T08:17:59.000Z</time>
      </trkpt>
      <trkpt lat="43.31244863569736480712890625" lon="-5.0596079416573047637939453125">
        <ele>126</ele>
        <time>2018-09-08T08:18:00.000Z</time>
      </trkpt>
      <trkpt lat="43.3124407567083835601806640625" lon="-5.05956360138952732086181640625">
        <ele>126</ele>
        <time>2018-09-08T08:18:01.000Z</time>
      </trkpt>
      <trkpt lat="43.31243790686130523681640625" lon="-5.05950761027634143829345703125">
        <ele>125.8000030517578125</ele>
        <time>2018-09-08T08:18:02.000Z</time>
      </trkpt>
      <trkpt lat="43.3124291896820068359375" lon="-5.0594540499150753021240234375">
        <ele>125.8000030517578125</ele>
        <time>2018-09-08T08:18:03.000Z</time>
      </trkpt>
      <trkpt lat="43.31239960156381130218505859375" lon="-5.05935321561992168426513671875">
        <ele>126</ele>
        <time>2018-09-08T08:18:05.000Z</time>
      </trkpt>
      <trkpt lat="43.3123804070055484771728515625" lon="-5.05930510349571704864501953125">
        <ele>126.1999969482421875</ele>
        <time>2018-09-08T08:18:06.000Z</time>
      </trkpt>
      <trkpt lat="43.3123418502509593963623046875" lon="-5.05920837633311748504638671875">
        <ele>126.40000152587890625</ele>
        <time>2018-09-08T08:18:08.000Z</time>
      </trkpt>
      <trkpt lat="43.31232550553977489471435546875" lon="-5.059163533151149749755859375">
        <ele>126.40000152587890625</ele>
        <time>2018-09-08T08:18:09.000Z</time>
      </trkpt>
      <trkpt lat="43.3122516609728336334228515625" lon="-5.05900151096284389495849609375">
        <ele>126.59999847412109375</ele>
        <time>2018-09-08T08:18:13.000Z</time>
      </trkpt>
      <trkpt lat="43.3121346496045589447021484375" lon="-5.05880755372345447540283203125">
        <ele>126.59999847412109375</ele>
        <time>2018-09-08T08:18:18.000Z</time>
      </trkpt>
      <trkpt lat="43.31197790801525115966796875" lon="-5.0585367344319820404052734375">
        <ele>126.8000030517578125</ele>
        <time>2018-09-08T08:18:25.000Z</time>
      </trkpt>
      <trkpt lat="43.31187841482460498809814453125" lon="-5.058301873505115509033203125">
        <ele>127</ele>
        <time>2018-09-08T08:18:31.000Z</time>
      </trkpt>
      <trkpt lat="43.3118355832993984222412109375" lon="-5.05820699036121368408203125">
        <ele>127</ele>
        <time>2018-09-08T08:18:34.000Z</time>
      </trkpt>
      <trkpt lat="43.31179006956517696380615234375" lon="-5.0581079162657260894775390625">
        <ele>127.1999969482421875</ele>
        <time>2018-09-08T08:18:38.000Z</time>
      </trkpt>
      <trkpt lat="43.3117933385074138641357421875" lon="-5.05800909362733364105224609375">
        <ele>127.1999969482421875</ele>
        <time>2018-09-08T08:18:42.000Z</time>
      </trkpt>
      <trkpt lat="43.31180716864764690399169921875" lon="-5.058002807199954986572265625">
        <ele>127</ele>
        <time>2018-09-08T08:18:43.000Z</time>
      </trkpt>
      <trkpt lat="43.31186299212276935577392578125" lon="-5.057953856885433197021484375">
        <ele>127.59999847412109375</ele>
        <time>2018-09-08T08:18:46.000Z</time>
      </trkpt>
      <trkpt lat="43.311891071498394012451171875" lon="-5.05792812444269657135009765625">
        <ele>128.1999969482421875</ele>
        <time>2018-09-08T08:18:48.000Z</time>
      </trkpt>
      <trkpt lat="43.31190473400056362152099609375" lon="-5.05789610557258129119873046875">
        <ele>129</ele>
        <time>2018-09-08T08:18:50.000Z</time>
      </trkpt>
      <trkpt lat="43.31188059411942958831787109375" lon="-5.05785956047475337982177734375">
        <ele>129.399993896484375</ele>
        <time>2018-09-08T08:18:52.000Z</time>
      </trkpt>
      <trkpt lat="43.311831392347812652587890625" lon="-5.057789571583271026611328125">
        <ele>129.600006103515625</ele>
        <time>2018-09-08T08:18:55.000Z</time>
      </trkpt>
      <trkpt lat="43.31179643981158733367919921875" lon="-5.0577273778617382049560546875">
        <ele>130</ele>
        <time>2018-09-08T08:18:57.000Z</time>
      </trkpt>
      <trkpt lat="43.3117745630443096160888671875" lon="-5.057656131684780120849609375">
        <ele>130.1999969482421875</ele>
        <time>2018-09-08T08:18:59.000Z</time>
      </trkpt>
      <trkpt lat="43.31176324747502803802490234375" lon="-5.0574521161615848541259765625">
        <ele>130.600006103515625</ele>
        <time>2018-09-08T08:19:04.000Z</time>
      </trkpt>
      <trkpt lat="43.31177540123462677001953125" lon="-5.0571483559906482696533203125">
        <ele>131.1999969482421875</ele>
        <time>2018-09-08T08:19:11.000Z</time>
      </trkpt>
      <trkpt lat="43.311775065958499908447265625" lon="-5.05710703320801258087158203125">
        <ele>131.1999969482421875</ele>
        <time>2018-09-08T08:19:12.000Z</time>
      </trkpt>
      <trkpt lat="43.311760313808917999267578125" lon="-5.05683847703039646148681640625">
        <ele>132</ele>
        <time>2018-09-08T08:19:19.000Z</time>
      </trkpt>
      <trkpt lat="43.31174950115382671356201171875" lon="-5.0568003393709659576416015625">
        <ele>132.1999969482421875</ele>
        <time>2018-09-08T08:19:20.000Z</time>
      </trkpt>
      <trkpt lat="43.31170842982828617095947265625" lon="-5.0567056238651275634765625">
        <ele>132.8000030517578125</ele>
        <time>2018-09-08T08:19:23.000Z</time>
      </trkpt>
      <trkpt lat="43.3116768300533294677734375" lon="-5.05665273405611515045166015625">
        <ele>133</ele>
        <time>2018-09-08T08:19:25.000Z</time>
      </trkpt>
      <trkpt lat="43.3116213418543338775634765625" lon="-5.05658551119267940521240234375">
        <ele>133.399993896484375</ele>
        <time>2018-09-08T08:19:28.000Z</time>
      </trkpt>
      <trkpt lat="43.3115120418369770050048828125" lon="-5.0564724393188953399658203125">
        <ele>134</ele>
        <time>2018-09-08T08:19:33.000Z</time>
      </trkpt>
      <trkpt lat="43.31143937073647975921630859375" lon="-5.05641167052090167999267578125">
        <ele>134.399993896484375</ele>
        <time>2018-09-08T08:19:36.000Z</time>
      </trkpt>
      <trkpt lat="43.3113236166536808013916015625" lon="-5.05630287341773509979248046875">
        <ele>135.1999969482421875</ele>
        <time>2018-09-08T08:19:41.000Z</time>
      </trkpt>
      <trkpt lat="43.3112538792192935943603515625" lon="-5.05623548291623592376708984375">
        <ele>135.600006103515625</ele>
        <time>2018-09-08T08:19:44.000Z</time>
      </trkpt>
      <trkpt lat="43.31115656532347202301025390625" lon="-5.0561113469302654266357421875">
        <ele>136.399993896484375</ele>
        <time>2018-09-08T08:19:49.000Z</time>
      </trkpt>
      <trkpt lat="43.3111274801194667816162109375" lon="-5.05605007521808147430419921875">
        <ele>136.600006103515625</ele>
        <time>2018-09-08T08:19:51.000Z</time>
      </trkpt>
      <trkpt lat="43.31109403632581233978271484375" lon="-5.05588595755398273468017578125">
        <ele>137.1999969482421875</ele>
        <time>2018-09-08T08:19:55.000Z</time>
      </trkpt>
      <trkpt lat="43.3110916055738925933837890625" lon="-5.05573357455432415008544921875">
        <ele>137.8000030517578125</ele>
        <time>2018-09-08T08:19:59.000Z</time>
      </trkpt>
      <trkpt lat="43.31112018786370754241943359375" lon="-5.05562175996601581573486328125">
        <ele>138</ele>
        <time>2018-09-08T08:20:02.000Z</time>
      </trkpt>
      <trkpt lat="43.3112297393381595611572265625" lon="-5.0553707219660282135009765625">
        <ele>138.600006103515625</ele>
        <time>2018-09-08T08:20:09.000Z</time>
      </trkpt>
      <trkpt lat="43.31124692223966121673583984375" lon="-5.05533836781978607177734375">
        <ele>138.8000030517578125</ele>
        <time>2018-09-08T08:20:10.000Z</time>
      </trkpt>
      <trkpt lat="43.3112664520740509033203125" lon="-5.055128149688243865966796875">
        <ele>139.399993896484375</ele>
        <time>2018-09-08T08:20:15.000Z</time>
      </trkpt>
      <trkpt lat="43.3112584054470062255859375" lon="-5.05500837229192256927490234375">
        <ele>140</ele>
        <time>2018-09-08T08:20:18.000Z</time>
      </trkpt>
      <trkpt lat="43.311248011887073516845703125" lon="-5.05482162348926067352294921875">
        <ele>140.8000030517578125</ele>
        <time>2018-09-08T08:20:23.000Z</time>
      </trkpt>
      <trkpt lat="43.31121750175952911376953125" lon="-5.0547105632722377777099609375">
        <ele>141</ele>
        <time>2018-09-08T08:20:26.000Z</time>
      </trkpt>
      <trkpt lat="43.31120803020894527435302734375" lon="-5.05459405481815338134765625">
        <ele>141.600006103515625</ele>
        <time>2018-09-08T08:20:29.000Z</time>
      </trkpt>
      <trkpt lat="43.31117684952914714813232421875" lon="-5.0544285960495471954345703125">
        <ele>142.399993896484375</ele>
        <time>2018-09-08T08:20:33.000Z</time>
      </trkpt>
      <trkpt lat="43.3111472614109516143798828125" lon="-5.05435265600681304931640625">
        <ele>142.600006103515625</ele>
        <time>2018-09-08T08:20:35.000Z</time>
      </trkpt>
      <trkpt lat="43.311076350510120391845703125" lon="-5.054176636040210723876953125">
        <ele>143.399993896484375</ele>
        <time>2018-09-08T08:20:40.000Z</time>
      </trkpt>
      <trkpt lat="43.311021365225315093994140625" lon="-5.054032802581787109375">
        <ele>144</ele>
        <time>2018-09-08T08:20:44.000Z</time>
      </trkpt>
      <trkpt lat="43.31101097166538238525390625" lon="-5.05393682979047298431396484375">
        <ele>144.399993896484375</ele>
        <time>2018-09-08T08:20:47.000Z</time>
      </trkpt>
      <trkpt lat="43.31099429167807102203369140625" lon="-5.05387648008763790130615234375">
        <ele>144.8000030517578125</ele>
        <time>2018-09-08T08:20:49.000Z</time>
      </trkpt>
      <trkpt lat="43.3109628595411777496337890625" lon="-5.053765587508678436279296875">
        <ele>145.600006103515625</ele>
        <time>2018-09-08T08:20:52.000Z</time>
      </trkpt>
      <trkpt lat="43.310916423797607421875" lon="-5.053697191178798675537109375">
        <ele>146.1999969482421875</ele>
        <time>2018-09-08T08:20:55.000Z</time>
      </trkpt>
      <trkpt lat="43.31088163889944553375244140625" lon="-5.05365201272070407867431640625">
        <ele>146.8000030517578125</ele>
        <time>2018-09-08T08:20:57.000Z</time>
      </trkpt>
      <trkpt lat="43.310830928385257720947265625" lon="-5.05356249399483203887939453125">
        <ele>147.1999969482421875</ele>
        <time>2018-09-08T08:21:01.000Z</time>
      </trkpt>
      <trkpt lat="43.31077158451080322265625" lon="-5.05346425808966159820556640625">
        <ele>148</ele>
        <time>2018-09-08T08:21:06.000Z</time>
      </trkpt>
      <trkpt lat="43.31075155176222324371337890625" lon="-5.0534291379153728485107421875">
        <ele>148.1999969482421875</ele>
        <time>2018-09-08T08:21:08.000Z</time>
      </trkpt>
      <trkpt lat="43.3106580935418605804443359375" lon="-5.05327382124960422515869140625">
        <ele>149</ele>
        <time>2018-09-08T08:21:14.000Z</time>
      </trkpt>
      <trkpt lat="43.3106185309588909149169921875" lon="-5.05317860282957553863525390625">
        <ele>149.600006103515625</ele>
        <time>2018-09-08T08:21:17.000Z</time>
      </trkpt>
      <trkpt lat="43.31059598363935947418212890625" lon="-5.05306410603225231170654296875">
        <ele>150</ele>
        <time>2018-09-08T08:21:20.000Z</time>
      </trkpt>
      <trkpt lat="43.31058584153652191162109375" lon="-5.053020603954792022705078125">
        <ele>150.1999969482421875</ele>
        <time>2018-09-08T08:21:21.000Z</time>
      </trkpt>
      <trkpt lat="43.3105548284947872161865234375" lon="-5.05291759036481380462646484375">
        <ele>150.600006103515625</ele>
        <time>2018-09-08T08:21:24.000Z</time>
      </trkpt>
      <trkpt lat="43.31052356399595737457275390625" lon="-5.05282522179186344146728515625">
        <ele>151</ele>
        <time>2018-09-08T08:21:27.000Z</time>
      </trkpt>
      <trkpt lat="43.31049372442066669464111328125" lon="-5.05259773693978786468505859375">
        <ele>152</ele>
        <time>2018-09-08T08:21:34.000Z</time>
      </trkpt>
      <trkpt lat="43.31049255095422267913818359375" lon="-5.05256236530840396881103515625">
        <ele>152.1999969482421875</ele>
        <time>2018-09-08T08:21:35.000Z</time>
      </trkpt>
      <trkpt lat="43.31050747074186801910400390625" lon="-5.05235977470874786376953125">
        <ele>153.1999969482421875</ele>
        <time>2018-09-08T08:21:41.000Z</time>
      </trkpt>
      <trkpt lat="43.3105052076280117034912109375" lon="-5.05233169533312320709228515625">
        <ele>153.399993896484375</ele>
        <time>2018-09-08T08:21:42.000Z</time>
      </trkpt>
      <trkpt lat="43.31048668362200260162353515625" lon="-5.0522625446319580078125">
        <ele>154.399993896484375</ele>
        <time>2018-09-08T08:21:45.000Z</time>
      </trkpt>
      <trkpt lat="43.31046170555055141448974609375" lon="-5.0522238202393054962158203125">
        <ele>154.8000030517578125</ele>
        <time>2018-09-08T08:21:47.000Z</time>
      </trkpt>
      <trkpt lat="43.3103566803038120269775390625" lon="-5.05212784744799137115478515625">
        <ele>154.1999969482421875</ele>
        <time>2018-09-08T08:21:52.000Z</time>
      </trkpt>
      <trkpt lat="43.31029172055423259735107421875" lon="-5.05209197290241718292236328125">
        <ele>154.1999969482421875</ele>
        <time>2018-09-08T08:21:54.000Z</time>
      </trkpt>
      <trkpt lat="43.3101980946958065032958984375" lon="-5.0520332157611846923828125">
        <ele>153.8000030517578125</ele>
        <time>2018-09-08T08:21:57.000Z</time>
      </trkpt>
      <trkpt lat="43.31012642942368984222412109375" lon="-5.05199960432946681976318359375">
        <ele>153.8000030517578125</ele>
        <time>2018-09-08T08:21:59.000Z</time>
      </trkpt>
      <trkpt lat="43.31002257764339447021484375" lon="-5.05198669619858264923095703125">
        <ele>153.600006103515625</ele>
        <time>2018-09-08T08:22:02.000Z</time>
      </trkpt>
      <trkpt lat="43.30993498675525188446044921875" lon="-5.05197085440158843994140625">
        <ele>153.600006103515625</ele>
        <time>2018-09-08T08:22:06.000Z</time>
      </trkpt>
      <trkpt lat="43.30991252325475215911865234375" lon="-5.0519576109945774078369140625">
        <ele>153.600006103515625</ele>
        <time>2018-09-08T08:22:07.000Z</time>
      </trkpt>
      <trkpt lat="43.30981529317796230316162109375" lon="-5.05188041366636753082275390625">
        <ele>153.8000030517578125</ele>
        <time>2018-09-08T08:22:13.000Z</time>
      </trkpt>
      <trkpt lat="43.3097444660961627960205078125" lon="-5.05183749832212924957275390625">
        <ele>154.1999969482421875</ele>
        <time>2018-09-08T08:22:20.000Z</time>
      </trkpt>
      <trkpt lat="43.30950357019901275634765625" lon="-5.051518566906452178955078125">
        <ele>161.8000030517578125</ele>
        <time>2018-09-08T08:23:14.000Z</time>
      </trkpt>
      <trkpt lat="43.30949912779033184051513671875" lon="-5.05148864351212978363037109375">
        <ele>162</ele>
        <time>2018-09-08T08:23:15.000Z</time>
      </trkpt>
      <trkpt lat="43.30948957242071628570556640625" lon="-5.05128311924636363983154296875">
        <ele>162.1999969482421875</ele>
        <time>2018-09-08T08:23:21.000Z</time>
      </trkpt>
      <trkpt lat="43.3095109462738037109375" lon="-5.05103803239762783050537109375">
        <ele>161.600006103515625</ele>
        <time>2018-09-08T08:23:26.000Z</time>
      </trkpt>
      <trkpt lat="43.309373818337917327880859375" lon="-5.05087156780064105987548828125">
        <ele>161.1999969482421875</ele>
        <time>2018-09-08T08:23:30.000Z</time>
      </trkpt>
      <trkpt lat="43.30924381501972675323486328125" lon="-5.050811804831027984619140625">
        <ele>161.8000030517578125</ele>
        <time>2018-09-08T08:23:34.000Z</time>
      </trkpt>
      <trkpt lat="43.30921732820570468902587890625" lon="-5.0508289039134979248046875">
        <ele>162</ele>
        <time>2018-09-08T08:23:35.000Z</time>
      </trkpt>
      <trkpt lat="43.30917206592857837677001953125" lon="-5.0509095378220081329345703125">
        <ele>162.8000030517578125</ele>
        <time>2018-09-08T08:23:39.000Z</time>
      </trkpt>
      <trkpt lat="43.30915764905512332916259765625" lon="-5.05092772655189037322998046875">
        <ele>163.1999969482421875</ele>
        <time>2018-09-08T08:23:40.000Z</time>
      </trkpt>
      <trkpt lat="43.3091238699853420257568359375" lon="-5.05096435546875">
        <ele>163.600006103515625</ele>
        <time>2018-09-08T08:23:42.000Z</time>
      </trkpt>
      <trkpt lat="43.3090926893055438995361328125" lon="-5.05101892165839672088623046875">
        <ele>164.399993896484375</ele>
        <time>2018-09-08T08:23:45.000Z</time>
      </trkpt>
      <trkpt lat="43.30907651223242282867431640625" lon="-5.0510354340076446533203125">
        <ele>164.8000030517578125</ele>
        <time>2018-09-08T08:23:46.000Z</time>
      </trkpt>
      <trkpt lat="43.3090179227292537689208984375" lon="-5.0510905869305133819580078125">
        <ele>165.399993896484375</ele>
        <time>2018-09-08T08:23:50.000Z</time>
      </trkpt>
      <trkpt lat="43.3089471794664859771728515625" lon="-5.051186978816986083984375">
        <ele>166.1999969482421875</ele>
        <time>2018-09-08T08:23:56.000Z</time>
      </trkpt>
      <trkpt lat="43.30890518613159656524658203125" lon="-5.051219500601291656494140625">
        <ele>166.399993896484375</ele>
        <time>2018-09-08T08:23:59.000Z</time>
      </trkpt>
      <trkpt lat="43.30886495299637317657470703125" lon="-5.0512518547475337982177734375">
        <ele>167</ele>
        <time>2018-09-08T08:24:01.000Z</time>
      </trkpt>
      <trkpt lat="43.3087989874184131622314453125" lon="-5.05132838152348995208740234375">
        <ele>167.8000030517578125</ele>
        <time>2018-09-08T08:24:04.000Z</time>
      </trkpt>
      <trkpt lat="43.30875079147517681121826171875" lon="-5.05141588859260082244873046875">
        <ele>168.600006103515625</ele>
        <time>2018-09-08T08:24:07.000Z</time>
      </trkpt>
      <trkpt lat="43.3087396435439586639404296875" lon="-5.0514402799308300018310546875">
        <ele>168.8000030517578125</ele>
        <time>2018-09-08T08:24:08.000Z</time>
      </trkpt>
      <trkpt lat="43.3087198622524738311767578125" lon="-5.05153901875019073486328125">
        <ele>168.8000030517578125</ele>
        <time>2018-09-08T08:24:12.000Z</time>
      </trkpt>
      <trkpt lat="43.3086645416915416717529296875" lon="-5.0517074950039386749267578125">
        <ele>168.600006103515625</ele>
        <time>2018-09-08T08:24:17.000Z</time>
      </trkpt>
      <trkpt lat="43.30863428302109241485595703125" lon="-5.0518159568309783935546875">
        <ele>168.399993896484375</ele>
        <time>2018-09-08T08:24:20.000Z</time>
      </trkpt>
      <trkpt lat="43.3086058683693408966064453125" lon="-5.05188728682696819305419921875">
        <ele>168.1999969482421875</ele>
        <time>2018-09-08T08:24:22.000Z</time>
      </trkpt>
      <trkpt lat="43.3084891922771930694580078125" lon="-5.05209046415984630584716796875">
        <ele>168.1999969482421875</ele>
        <time>2018-09-08T08:24:28.000Z</time>
      </trkpt>
      <trkpt lat="43.30846815370023250579833984375" lon="-5.05222926847636699676513671875">
        <ele>168.1999969482421875</ele>
        <time>2018-09-08T08:24:32.000Z</time>
      </trkpt>
      <trkpt lat="43.30848223529756069183349609375" lon="-5.05242372862994670867919921875">
        <ele>169.1999969482421875</ele>
        <time>2018-09-08T08:24:37.000Z</time>
      </trkpt>
      <trkpt lat="43.30843261443078517913818359375" lon="-5.05249011330306529998779296875">
        <ele>170</ele>
        <time>2018-09-08T08:24:40.000Z</time>
      </trkpt>
      <trkpt lat="43.3084104023873805999755859375" lon="-5.0525044463574886322021484375">
        <ele>170.1999969482421875</ele>
        <time>2018-09-08T08:24:41.000Z</time>
      </trkpt>
      <trkpt lat="43.30831627361476421356201171875" lon="-5.0526040233671665191650390625">
        <ele>171</ele>
        <time>2018-09-08T08:24:46.000Z</time>
      </trkpt>
      <trkpt lat="43.30828743986785411834716796875" lon="-5.05263763479888439178466796875">
        <ele>171.1999969482421875</ele>
        <time>2018-09-08T08:24:48.000Z</time>
      </trkpt>
      <trkpt lat="43.30821602605283260345458984375" lon="-5.05274869501590728759765625">
        <ele>172.1999969482421875</ele>
        <time>2018-09-08T08:24:54.000Z</time>
      </trkpt>
      <trkpt lat="43.30820269882678985595703125" lon="-5.0527775287628173828125">
        <ele>172.399993896484375</ele>
        <time>2018-09-08T08:24:55.000Z</time>
      </trkpt>
      <trkpt lat="43.30817612819373607635498046875" lon="-5.0528078712522983551025390625">
        <ele>173.399993896484375</ele>
        <time>2018-09-08T08:24:57.000Z</time>
      </trkpt>
      <trkpt lat="43.3081364817917346954345703125" lon="-5.05286947824060916900634765625">
        <ele>174.600006103515625</ele>
        <time>2018-09-08T08:25:00.000Z</time>
      </trkpt>
      <trkpt lat="43.3081260882318019866943359375" lon="-5.0528893433511257171630859375">
        <ele>175.1999969482421875</ele>
        <time>2018-09-08T08:25:01.000Z</time>
      </trkpt>
      <trkpt lat="43.3081160299479961395263671875" lon="-5.0529091246426105499267578125">
        <ele>175.8000030517578125</ele>
        <time>2018-09-08T08:25:02.000Z</time>
      </trkpt>
      <trkpt lat="43.3081140182912349700927734375" lon="-5.05294960923492908477783203125">
        <ele>176.8000030517578125</ele>
        <time>2018-09-08T08:25:04.000Z</time>
      </trkpt>
      <trkpt lat="43.30810689367353916168212890625" lon="-5.05299554206430912017822265625">
        <ele>177.8000030517578125</ele>
        <time>2018-09-08T08:25:07.000Z</time>
      </trkpt>
      <trkpt lat="43.308098427951335906982421875" lon="-5.053087659180164337158203125">
        <ele>179</ele>
        <time>2018-09-08T08:25:11.000Z</time>
      </trkpt>
      <trkpt lat="43.30809214152395725250244140625" lon="-5.0531076081097126007080078125">
        <ele>179.1999969482421875</ele>
        <time>2018-09-08T08:25:13.000Z</time>
      </trkpt>
      <trkpt lat="43.308040089905261993408203125" lon="-5.05317893810570240020751953125">
        <ele>179.600006103515625</ele>
        <time>2018-09-08T08:25:30.000Z</time>
      </trkpt>
      <trkpt lat="43.3080342225730419158935546875" lon="-5.0531991384923458099365234375">
        <ele>179.8000030517578125</ele>
        <time>2018-09-08T08:25:31.000Z</time>
      </trkpt>
      <trkpt lat="43.307999186217784881591796875" lon="-5.0532849691808223724365234375">
        <ele>180</ele>
        <time>2018-09-08T08:25:35.000Z</time>
      </trkpt>
      <trkpt lat="43.30797781236469745635986328125" lon="-5.0533258728682994842529296875">
        <ele>180.399993896484375</ele>
        <time>2018-09-08T08:25:37.000Z</time>
      </trkpt>
      <trkpt lat="43.307962976396083831787109375" lon="-5.0533496774733066558837890625">
        <ele>180.600006103515625</ele>
        <time>2018-09-08T08:25:38.000Z</time>
      </trkpt>
      <trkpt lat="43.30793154425919055938720703125" lon="-5.05341832526028156280517578125">
        <ele>181.1999969482421875</ele>
        <time>2018-09-08T08:25:42.000Z</time>
      </trkpt>
      <trkpt lat="43.3079222403466701507568359375" lon="-5.05342662334442138671875">
        <ele>181.1999969482421875</ele>
        <time>2018-09-08T08:25:43.000Z</time>
      </trkpt>
      <trkpt lat="43.307895921170711517333984375" lon="-5.05343089811503887176513671875">
        <ele>181.399993896484375</ele>
        <time>2018-09-08T08:25:45.000Z</time>
      </trkpt>
      <trkpt lat="43.30784537829458713531494140625" lon="-5.05339317955076694488525390625">
        <ele>181.600006103515625</ele>
        <time>2018-09-08T08:25:48.000Z</time>
      </trkpt>
      <trkpt lat="43.30778184346854686737060546875" lon="-5.05330332554876804351806640625">
        <ele>182.1999969482421875</ele>
        <time>2018-09-08T08:25:54.000Z</time>
      </trkpt>
      <trkpt lat="43.30773339606821537017822265625" lon="-5.0532537885010242462158203125">
        <ele>182.8000030517578125</ele>
        <time>2018-09-08T08:25:58.000Z</time>
      </trkpt>
      <trkpt lat="43.30771395005285739898681640625" lon="-5.05322386510670185089111328125">
        <ele>183.1999969482421875</ele>
        <time>2018-09-08T08:26:01.000Z</time>
      </trkpt>
      <trkpt lat="43.3076446317136287689208984375" lon="-5.05314541049301624298095703125">
        <ele>183</ele>
        <time>2018-09-08T08:26:54.000Z</time>
      </trkpt>
      <trkpt lat="43.30764169804751873016357421875" lon="-5.05312822759151458740234375">
        <ele>183</ele>
        <time>2018-09-08T08:26:55.000Z</time>
      </trkpt>
      <trkpt lat="43.3076359145343303680419921875" lon="-5.05311640910804271697998046875">
        <ele>183.1999969482421875</ele>
        <time>2018-09-08T08:26:56.000Z</time>
      </trkpt>
      <trkpt lat="43.30763633362948894500732421875" lon="-5.0531169958412647247314453125">
        <ele>183.399993896484375</ele>
        <time>2018-09-08T08:26:57.000Z</time>
      </trkpt>
      <trkpt lat="43.3076070807874202728271484375" lon="-5.053093694150447845458984375">
        <ele>183.600006103515625</ele>
        <time>2018-09-08T08:26:59.000Z</time>
      </trkpt>
      <trkpt lat="43.30757715739309787750244140625" lon="-5.0530998967587947845458984375">
        <ele>184</ele>
        <time>2018-09-08T08:27:01.000Z</time>
      </trkpt>
      <trkpt lat="43.30754329450428485870361328125" lon="-5.0531324185431003570556640625">
        <ele>184.600006103515625</ele>
        <time>2018-09-08T08:27:04.000Z</time>
      </trkpt>
      <trkpt lat="43.307530470192432403564453125" lon="-5.05316150374710559844970703125">
        <ele>185</ele>
        <time>2018-09-08T08:27:06.000Z</time>
      </trkpt>
      <trkpt lat="43.30743852071464061737060546875" lon="-5.0531374476850032806396484375">
        <ele>187.600006103515625</ele>
        <time>2018-09-08T08:27:24.000Z</time>
      </trkpt>
      <trkpt lat="43.30743382684886455535888671875" lon="-5.05312495864927768707275390625">
        <ele>187.8000030517578125</ele>
        <time>2018-09-08T08:27:25.000Z</time>
      </trkpt>
      <trkpt lat="43.30743617378175258636474609375" lon="-5.05311347544193267822265625">
        <ele>187.8000030517578125</ele>
        <time>2018-09-08T08:27:26.000Z</time>
      </trkpt>
      <trkpt lat="43.307432569563388824462890625" lon="-5.05295279435813426971435546875">
        <ele>192</ele>
        <time>2018-09-08T08:27:58.000Z</time>
      </trkpt>
      <trkpt lat="43.3074228465557098388671875" lon="-5.0529557280242443084716796875">
        <ele>192.1999969482421875</ele>
        <time>2018-09-08T08:27:59.000Z</time>
      </trkpt>
      <trkpt lat="43.30741220153868198394775390625" lon="-5.0529594160616397857666015625">
        <ele>192.1999969482421875</ele>
        <time>2018-09-08T08:28:00.000Z</time>
      </trkpt>
      <trkpt lat="43.3073546178638935089111328125" lon="-5.0530251301825046539306640625">
        <ele>193</ele>
        <time>2018-09-08T08:28:06.000Z</time>
      </trkpt>
      <trkpt lat="43.30734464339911937713623046875" lon="-5.05304784514009952545166015625">
        <ele>193.1999969482421875</ele>
        <time>2018-09-08T08:28:08.000Z</time>
      </trkpt>
      <trkpt lat="43.3073298074305057525634765625" lon="-5.05312965251505374908447265625">
        <ele>193.8000030517578125</ele>
        <time>2018-09-08T08:28:13.000Z</time>
      </trkpt>
      <trkpt lat="43.30731212161481380462646484375" lon="-5.05315915681421756744384765625">
        <ele>194</ele>
        <time>2018-09-08T08:28:15.000Z</time>
      </trkpt>
      <trkpt lat="43.307280354201793670654296875" lon="-5.0531743280589580535888671875">
        <ele>194.1999969482421875</ele>
        <time>2018-09-08T08:28:17.000Z</time>
      </trkpt>
      <trkpt lat="43.30724925734102725982666015625" lon="-5.05318321287631988525390625">
        <ele>194.8000030517578125</ele>
        <time>2018-09-08T08:28:20.000Z</time>
      </trkpt>
      <trkpt lat="43.30723869614303112030029296875" lon="-5.05317826755344867706298828125">
        <ele>194.8000030517578125</ele>
        <time>2018-09-08T08:28:21.000Z</time>
      </trkpt>
      <trkpt lat="43.3071997202932834625244140625" lon="-5.053230822086334228515625">
        <ele>195.1999969482421875</ele>
        <time>2018-09-08T08:28:26.000Z</time>
      </trkpt>
      <trkpt lat="43.3072003908455371856689453125" lon="-5.0532303191721439361572265625">
        <ele>195.399993896484375</ele>
        <time>2018-09-08T08:28:27.000Z</time>
      </trkpt>
      <trkpt lat="43.30723869614303112030029296875" lon="-5.053257979452610015869140625">
        <ele>195.600006103515625</ele>
        <time>2018-09-08T08:29:33.000Z</time>
      </trkpt>
      <trkpt lat="43.3072377741336822509765625" lon="-5.05325638689100742340087890625">
        <ele>195.600006103515625</ele>
        <time>2018-09-08T08:29:34.000Z</time>
      </trkpt>
      <trkpt lat="43.30725026316940784454345703125" lon="-5.05328438244760036468505859375">
        <ele>195.399993896484375</ele>
        <time>2018-09-08T08:29:35.000Z</time>
      </trkpt>
      <trkpt lat="43.30729770474135875701904296875" lon="-5.05330349318683147430419921875">
        <ele>194.8000030517578125</ele>
        <time>2018-09-08T08:29:56.000Z</time>
      </trkpt>
      <trkpt lat="43.30730223096907138824462890625" lon="-5.05324062891304492950439453125">
        <ele>194.600006103515625</ele>
        <time>2018-09-08T08:29:58.000Z</time>
      </trkpt>
      <trkpt lat="43.30731849186122417449951171875" lon="-5.05315127782523632049560546875">
        <ele>194.1999969482421875</ele>
        <time>2018-09-08T08:30:00.000Z</time>
      </trkpt>
      <trkpt lat="43.30735243856906890869140625" lon="-5.05303694866597652435302734375">
        <ele>193.600006103515625</ele>
        <time>2018-09-08T08:30:02.000Z</time>
      </trkpt>
      <trkpt lat="43.3073777519166469573974609375" lon="-5.05297089926898479461669921875">
        <ele>193</ele>
        <time>2018-09-08T08:30:03.000Z</time>
      </trkpt>
      <trkpt lat="43.3074474893510341644287109375" lon="-5.05273352377116680145263671875">
        <ele>191.600006103515625</ele>
        <time>2018-09-08T08:30:06.000Z</time>
      </trkpt>
      <trkpt lat="43.30747791565954685211181640625" lon="-5.05256320349872112274169921875">
        <ele>190.600006103515625</ele>
        <time>2018-09-08T08:30:08.000Z</time>
      </trkpt>
      <trkpt lat="43.30749928951263427734375" lon="-5.05239598453044891357421875">
        <ele>189</ele>
        <time>2018-09-08T08:30:10.000Z</time>
      </trkpt>
      <trkpt lat="43.30750557594001293182373046875" lon="-5.05231015384197235107421875">
        <ele>188.600006103515625</ele>
        <time>2018-09-08T08:30:11.000Z</time>
      </trkpt>
      <trkpt lat="43.30750398337841033935546875" lon="-5.05214310251176357269287109375">
        <ele>187.8000030517578125</ele>
        <time>2018-09-08T08:30:13.000Z</time>
      </trkpt>
      <trkpt lat="43.30749928951263427734375" lon="-5.05205928348004817962646484375">
        <ele>187.1999969482421875</ele>
        <time>2018-09-08T08:30:14.000Z</time>
      </trkpt>
      <trkpt lat="43.30749434418976306915283203125" lon="-5.05197278223931789398193359375">
        <ele>186.8000030517578125</ele>
        <time>2018-09-08T08:30:15.000Z</time>
      </trkpt>
      <trkpt lat="43.307475484907627105712890625" lon="-5.05178980529308319091796875">
        <ele>185.8000030517578125</ele>
        <time>2018-09-08T08:30:17.000Z</time>
      </trkpt>
      <trkpt lat="43.3074820227921009063720703125" lon="-5.05169969983398914337158203125">
        <ele>185.1999969482421875</ele>
        <time>2018-09-08T08:30:18.000Z</time>
      </trkpt>
      <trkpt lat="43.3075220882892608642578125" lon="-5.051428712904453277587890625">
        <ele>184.1999969482421875</ele>
        <time>2018-09-08T08:30:21.000Z</time>
      </trkpt>
      <trkpt lat="43.307594172656536102294921875" lon="-5.05120784975588321685791015625">
        <ele>184</ele>
        <time>2018-09-08T08:30:24.000Z</time>
      </trkpt>
      <trkpt lat="43.3076520077884197235107421875" lon="-5.05111145786941051483154296875">
        <ele>184.600006103515625</ele>
        <time>2018-09-08T08:30:26.000Z</time>
      </trkpt>
      <trkpt lat="43.3077190630137920379638671875" lon="-5.05104549229145050048828125">
        <ele>185.399993896484375</ele>
        <time>2018-09-08T08:30:28.000Z</time>
      </trkpt>
      <trkpt lat="43.30780497752130031585693359375" lon="-5.0509791076183319091796875">
        <ele>186.600006103515625</ele>
        <time>2018-09-08T08:30:31.000Z</time>
      </trkpt>
      <trkpt lat="43.307850323617458343505859375" lon="-5.0509420596063137054443359375">
        <ele>187.8000030517578125</ele>
        <time>2018-09-08T08:30:33.000Z</time>
      </trkpt>
      <trkpt lat="43.307912684977054595947265625" lon="-5.05090626887977123260498046875">
        <ele>189</ele>
        <time>2018-09-08T08:30:36.000Z</time>
      </trkpt>
      <trkpt lat="43.30795601941645145416259765625" lon="-5.05087542347609996795654296875">
        <ele>189.600006103515625</ele>
        <time>2018-09-08T08:30:38.000Z</time>
      </trkpt>
      <trkpt lat="43.30798200331628322601318359375" lon="-5.05083560943603515625">
        <ele>190.1999969482421875</ele>
        <time>2018-09-08T08:30:40.000Z</time>
      </trkpt>
      <trkpt lat="43.3080030418932437896728515625" lon="-5.050791688263416290283203125">
        <ele>190.600006103515625</ele>
        <time>2018-09-08T08:30:42.000Z</time>
      </trkpt>
      <trkpt lat="43.3080100826919078826904296875" lon="-5.05076654255390167236328125">
        <ele>191</ele>
        <time>2018-09-08T08:30:43.000Z</time>
      </trkpt>
      <trkpt lat="43.3080129325389862060546875" lon="-5.050738714635372161865234375">
        <ele>191.1999969482421875</ele>
        <time>2018-09-08T08:30:44.000Z</time>
      </trkpt>
      <trkpt lat="43.30800714902579784393310546875" lon="-5.05068733356893062591552734375">
        <ele>191.8000030517578125</ele>
        <time>2018-09-08T08:30:46.000Z</time>
      </trkpt>
      <trkpt lat="43.30800421535968780517578125" lon="-5.0506610982120037078857421875">
        <ele>192</ele>
        <time>2018-09-08T08:30:47.000Z</time>
      </trkpt>
      <trkpt lat="43.3079916425049304962158203125" lon="-5.0506165064871311187744140625">
        <ele>192.399993896484375</ele>
        <time>2018-09-08T08:30:49.000Z</time>
      </trkpt>
      <trkpt lat="43.30794260837137699127197265625" lon="-5.0505390577018260955810546875">
        <ele>193.399993896484375</ele>
        <time>2018-09-08T08:30:54.000Z</time>
      </trkpt>
      <trkpt lat="43.307904638350009918212890625" lon="-5.0505172647535800933837890625">
        <ele>194.1999969482421875</ele>
        <time>2018-09-08T08:30:57.000Z</time>
      </trkpt>
      <trkpt lat="43.307889215648174285888671875" lon="-5.0505149178206920623779296875">
        <ele>194.600006103515625</ele>
        <time>2018-09-08T08:30:58.000Z</time>
      </trkpt>
      <trkpt lat="43.30779626034200191497802734375" lon="-5.0505286641418933868408203125">
        <ele>195.600006103515625</ele>
        <time>2018-09-08T08:31:03.000Z</time>
      </trkpt>
      <trkpt lat="43.30777580849826335906982421875" lon="-5.0505286641418933868408203125">
        <ele>195.8000030517578125</ele>
        <time>2018-09-08T08:31:04.000Z</time>
      </trkpt>
      <trkpt lat="43.30768260173499584197998046875" lon="-5.05052137188613414764404296875">
        <ele>196.8000030517578125</ele>
        <time>2018-09-08T08:31:09.000Z</time>
      </trkpt>
      <trkpt lat="43.30758084543049335479736328125" lon="-5.050521455705165863037109375">
        <ele>197.600006103515625</ele>
        <time>2018-09-08T08:31:14.000Z</time>
      </trkpt>
      <trkpt lat="43.30755888484418392181396484375" lon="-5.05052321590483188629150390625">
        <ele>197.8000030517578125</ele>
        <time>2018-09-08T08:31:15.000Z</time>
      </trkpt>
      <trkpt lat="43.30745142884552478790283203125" lon="-5.05051843822002410888671875">
        <ele>198.600006103515625</ele>
        <time>2018-09-08T08:31:21.000Z</time>
      </trkpt>
      <trkpt lat="43.30743164755403995513916015625" lon="-5.0505152530968189239501953125">
        <ele>198.8000030517578125</ele>
        <time>2018-09-08T08:31:22.000Z</time>
      </trkpt>
      <trkpt lat="43.30731220543384552001953125" lon="-5.0505030155181884765625">
        <ele>200</ele>
        <time>2018-09-08T08:31:28.000Z</time>
      </trkpt>
      <trkpt lat="43.30719821155071258544921875" lon="-5.05046588368713855743408203125">
        <ele>200.8000030517578125</ele>
        <time>2018-09-08T08:31:34.000Z</time>
      </trkpt>
      <trkpt lat="43.307178430259227752685546875" lon="-5.05046169273555278778076171875">
        <ele>201.1999969482421875</ele>
        <time>2018-09-08T08:31:35.000Z</time>
      </trkpt>
      <trkpt lat="43.307058401405811309814453125" lon="-5.05040368996560573577880859375">
        <ele>202.1999969482421875</ele>
        <time>2018-09-08T08:31:41.000Z</time>
      </trkpt>
      <trkpt lat="43.3069623447954654693603515625" lon="-5.0503181107342243194580078125">
        <ele>203.399993896484375</ele>
        <time>2018-09-08T08:31:46.000Z</time>
      </trkpt>
      <trkpt lat="43.30691666342318058013916015625" lon="-5.0502892769873142242431640625">
        <ele>203.8000030517578125</ele>
        <time>2018-09-08T08:31:48.000Z</time>
      </trkpt>
      <trkpt lat="43.3068449981510639190673828125" lon="-5.05023018456995487213134765625">
        <ele>204.600006103515625</ele>
        <time>2018-09-08T08:31:52.000Z</time>
      </trkpt>
      <trkpt lat="43.306784145534038543701171875" lon="-5.05016262643039226531982421875">
        <ele>205.399993896484375</ele>
        <time>2018-09-08T08:31:56.000Z</time>
      </trkpt>
      <trkpt lat="43.3067538030445575714111328125" lon="-5.05012105219066143035888671875">
        <ele>205.600006103515625</ele>
        <time>2018-09-08T08:31:58.000Z</time>
      </trkpt>
      <trkpt lat="43.30668129958212375640869140625" lon="-5.05004771053791046142578125">
        <ele>206.1999969482421875</ele>
        <time>2018-09-08T08:32:02.000Z</time>
      </trkpt>
      <trkpt lat="43.30662497319281101226806640625" lon="-5.05000974051654338836669921875">
        <ele>206.8000030517578125</ele>
        <time>2018-09-08T08:32:05.000Z</time>
      </trkpt>
      <trkpt lat="43.3065851591527462005615234375" lon="-5.049960203468799591064453125">
        <ele>207.399993896484375</ele>
        <time>2018-09-08T08:32:08.000Z</time>
      </trkpt>
      <trkpt lat="43.306560851633548736572265625" lon="-5.049923993647098541259765625">
        <ele>207.8000030517578125</ele>
        <time>2018-09-08T08:32:10.000Z</time>
      </trkpt>
      <trkpt lat="43.30646236427128314971923828125" lon="-5.04983908496797084808349609375">
        <ele>209</ele>
        <time>2018-09-08T08:32:16.000Z</time>
      </trkpt>
      <trkpt lat="43.30631450749933719635009765625" lon="-5.04978124983608722686767578125">
        <ele>210.1999969482421875</ele>
        <time>2018-09-08T08:32:22.000Z</time>
      </trkpt>
      <trkpt lat="43.30620286054909229278564453125" lon="-5.0497488118708133697509765625">
        <ele>211.1999969482421875</ele>
        <time>2018-09-08T08:32:27.000Z</time>
      </trkpt>
      <trkpt lat="43.3061211369931697845458984375" lon="-5.049722492694854736328125">
        <ele>211.8000030517578125</ele>
        <time>2018-09-08T08:32:30.000Z</time>
      </trkpt>
      <trkpt lat="43.3060701750218868255615234375" lon="-5.04969256930053234100341796875">
        <ele>212.1999969482421875</ele>
        <time>2018-09-08T08:32:32.000Z</time>
      </trkpt>
      <trkpt lat="43.30595794133841991424560546875" lon="-5.04959533922374248504638671875">
        <ele>213.1999969482421875</ele>
        <time>2018-09-08T08:32:37.000Z</time>
      </trkpt>
      <trkpt lat="43.3059360645711421966552734375" lon="-5.04957606084644794464111328125">
        <ele>213.399993896484375</ele>
        <time>2018-09-08T08:32:38.000Z</time>
      </trkpt>
      <trkpt lat="43.30580203793942928314208984375" lon="-5.049423761665821075439453125">
        <ele>214.399993896484375</ele>
        <time>2018-09-08T08:32:45.000Z</time>
      </trkpt>
      <trkpt lat="43.30578728578984737396240234375" lon="-5.04940255545079708099365234375">
        <ele>214.600006103515625</ele>
        <time>2018-09-08T08:32:46.000Z</time>
      </trkpt>
      <trkpt lat="43.305686451494693756103515625" lon="-5.0492740608751773834228515625">
        <ele>215.600006103515625</ele>
        <time>2018-09-08T08:32:52.000Z</time>
      </trkpt>
      <trkpt lat="43.30565351061522960662841796875" lon="-5.04922854714095592498779296875">
        <ele>216</ele>
        <time>2018-09-08T08:32:54.000Z</time>
      </trkpt>
      <trkpt lat="43.3056098408997058868408203125" lon="-5.049165599048137664794921875">
        <ele>216.399993896484375</ele>
        <time>2018-09-08T08:32:57.000Z</time>
      </trkpt>
      <trkpt lat="43.30559483729302883148193359375" lon="-5.04914657212793827056884765625">
        <ele>216.600006103515625</ele>
        <time>2018-09-08T08:32:58.000Z</time>
      </trkpt>
      <trkpt lat="43.30551587976515293121337890625" lon="-5.049051605165004730224609375">
        <ele>217.600006103515625</ele>
        <time>2018-09-08T08:33:03.000Z</time>
      </trkpt>
      <trkpt lat="43.3055015467107295989990234375" lon="-5.0490326620638370513916015625">
        <ele>217.8000030517578125</ele>
        <time>2018-09-08T08:33:04.000Z</time>
      </trkpt>
      <trkpt lat="43.30541881732642650604248046875" lon="-5.048914141952991485595703125">
        <ele>218.8000030517578125</ele>
        <time>2018-09-08T08:33:10.000Z</time>
      </trkpt>
      <trkpt lat="43.30540113151073455810546875" lon="-5.0488951988518238067626953125">
        <ele>218.8000030517578125</ele>
        <time>2018-09-08T08:33:11.000Z</time>
      </trkpt>
      <trkpt lat="43.30531169660389423370361328125" lon="-5.04879520274698734283447265625">
        <ele>219.8000030517578125</ele>
        <time>2018-09-08T08:33:16.000Z</time>
      </trkpt>
      <trkpt lat="43.30527967773377895355224609375" lon="-5.04875631071627140045166015625">
        <ele>220.1999969482421875</ele>
        <time>2018-09-08T08:33:18.000Z</time>
      </trkpt>
      <trkpt lat="43.3052180707454681396484375" lon="-5.04867710173130035400390625">
        <ele>221</ele>
        <time>2018-09-08T08:33:22.000Z</time>
      </trkpt>
      <trkpt lat="43.3051330782473087310791015625" lon="-5.0485946238040924072265625">
        <ele>221.600006103515625</ele>
        <time>2018-09-08T08:33:26.000Z</time>
      </trkpt>
      <trkpt lat="43.30507817678153514862060546875" lon="-5.04854005761444568634033203125">
        <ele>222.1999969482421875</ele>
        <time>2018-09-08T08:33:29.000Z</time>
      </trkpt>
      <trkpt lat="43.3050061762332916259765625" lon="-5.0485066138207912445068359375">
        <ele>222.8000030517578125</ele>
        <time>2018-09-08T08:33:32.000Z</time>
      </trkpt>
      <trkpt lat="43.304931409657001495361328125" lon="-5.04849378950893878936767578125">
        <ele>223.399993896484375</ele>
        <time>2018-09-08T08:33:35.000Z</time>
      </trkpt>
      <trkpt lat="43.30486326478421688079833984375" lon="-5.0484948791563510894775390625">
        <ele>224</ele>
        <time>2018-09-08T08:33:38.000Z</time>
      </trkpt>
      <trkpt lat="43.304789923131465911865234375" lon="-5.04851021803915500640869140625">
        <ele>224.399993896484375</ele>
        <time>2018-09-08T08:33:41.000Z</time>
      </trkpt>
      <trkpt lat="43.30466025508940219879150390625" lon="-5.04856570623815059661865234375">
        <ele>225.600006103515625</ele>
        <time>2018-09-08T08:33:47.000Z</time>
      </trkpt>
      <trkpt lat="43.3045389689505100250244140625" lon="-5.04863829351961612701416015625">
        <ele>226.8000030517578125</ele>
        <time>2018-09-08T08:33:53.000Z</time>
      </trkpt>
      <trkpt lat="43.30442690290510654449462890625" lon="-5.04876486025750637054443359375">
        <ele>227.600006103515625</ele>
        <time>2018-09-08T08:33:59.000Z</time>
      </trkpt>
      <trkpt lat="43.3044102229177951812744140625" lon="-5.04878279753029346466064453125">
        <ele>228</ele>
        <time>2018-09-08T08:34:00.000Z</time>
      </trkpt>
      <trkpt lat="43.3043565787374973297119140625" lon="-5.048837698996067047119140625">
        <ele>228.399993896484375</ele>
        <time>2018-09-08T08:34:03.000Z</time>
      </trkpt>
      <trkpt lat="43.30432958900928497314453125" lon="-5.0488975457847118377685546875">
        <ele>228.8000030517578125</ele>
        <time>2018-09-08T08:34:05.000Z</time>
      </trkpt>
      <trkpt lat="43.30431743524968624114990234375" lon="-5.04892394877970218658447265625">
        <ele>229</ele>
        <time>2018-09-08T08:34:06.000Z</time>
      </trkpt>
      <trkpt lat="43.30427653156220912933349609375" lon="-5.04906191490590572357177734375">
        <ele>230.1999969482421875</ele>
        <time>2018-09-08T08:34:11.000Z</time>
      </trkpt>
      <trkpt lat="43.30427192151546478271484375" lon="-5.04922905005514621734619140625">
        <ele>231.1999969482421875</ele>
        <time>2018-09-08T08:34:17.000Z</time>
      </trkpt>
      <trkpt lat="43.30430335365235805511474609375" lon="-5.04941663704812526702880859375">
        <ele>232.399993896484375</ele>
        <time>2018-09-08T08:34:23.000Z</time>
      </trkpt>
      <trkpt lat="43.3043089695274829864501953125" lon="-5.049454271793365478515625">
        <ele>232.600006103515625</ele>
        <time>2018-09-08T08:34:24.000Z</time>
      </trkpt>
      <trkpt lat="43.3043622784316539764404296875" lon="-5.04964806139469146728515625">
        <ele>233.399993896484375</ele>
        <time>2018-09-08T08:34:30.000Z</time>
      </trkpt>
      <trkpt lat="43.3043720014393329620361328125" lon="-5.04968066699802875518798828125">
        <ele>233.600006103515625</ele>
        <time>2018-09-08T08:34:31.000Z</time>
      </trkpt>
      <trkpt lat="43.3044393919408321380615234375" lon="-5.04983657039701938629150390625">
        <ele>234.600006103515625</ele>
        <time>2018-09-08T08:34:36.000Z</time>
      </trkpt>
      <trkpt lat="43.30446110107004642486572265625" lon="-5.04986138083040714263916015625">
        <ele>234.8000030517578125</ele>
        <time>2018-09-08T08:34:37.000Z</time>
      </trkpt>
      <trkpt lat="43.3045996539294719696044921875" lon="-5.04994905553758144378662109375">
        <ele>235.600006103515625</ele>
        <time>2018-09-08T08:34:43.000Z</time>
      </trkpt>
      <trkpt lat="43.3046271465718746185302734375" lon="-5.049954839050769805908203125">
        <ele>235.8000030517578125</ele>
        <time>2018-09-08T08:34:44.000Z</time>
      </trkpt>
      <trkpt lat="43.30476720817387104034423828125" lon="-5.04999917931854724884033203125">
        <ele>236.8000030517578125</ele>
        <time>2018-09-08T08:34:50.000Z</time>
      </trkpt>
      <trkpt lat="43.30481733195483684539794921875" lon="-5.05001141689717769622802734375">
        <ele>237.1999969482421875</ele>
        <time>2018-09-08T08:34:52.000Z</time>
      </trkpt>
      <trkpt lat="43.304909281432628631591796875" lon="-5.05004092119634151458740234375">
        <ele>237.8000030517578125</ele>
        <time>2018-09-08T08:34:56.000Z</time>
      </trkpt>
      <trkpt lat="43.30499016679823398590087890625" lon="-5.05008249543607234954833984375">
        <ele>239</ele>
        <time>2018-09-08T08:35:00.000Z</time>
      </trkpt>
      <trkpt lat="43.30500743351876735687255859375" lon="-5.0500995106995105743408203125">
        <ele>239.399993896484375</ele>
        <time>2018-09-08T08:35:01.000Z</time>
      </trkpt>
      <trkpt lat="43.305061496794223785400390625" lon="-5.05015843547880649566650390625">
        <ele>240</ele>
        <time>2018-09-08T08:35:04.000Z</time>
      </trkpt>
      <trkpt lat="43.30511757172644138336181640625" lon="-5.05024024285376071929931640625">
        <ele>240.8000030517578125</ele>
        <time>2018-09-08T08:35:08.000Z</time>
      </trkpt>
      <trkpt lat="43.305135928094387054443359375" lon="-5.0502909533679485321044921875">
        <ele>241</ele>
        <time>2018-09-08T08:35:10.000Z</time>
      </trkpt>
      <trkpt lat="43.30514229834079742431640625" lon="-5.05041810683906078338623046875">
        <ele>241.8000030517578125</ele>
        <time>2018-09-08T08:35:14.000Z</time>
      </trkpt>
      <trkpt lat="43.30513534136116504669189453125" lon="-5.05045465193688869476318359375">
        <ele>242.1999969482421875</ele>
        <time>2018-09-08T08:35:15.000Z</time>
      </trkpt>
      <trkpt lat="43.3050571382045745849609375" lon="-5.05062128417193889617919921875">
        <ele>243.1999969482421875</ele>
        <time>2018-09-08T08:35:21.000Z</time>
      </trkpt>
      <trkpt lat="43.30498463474214076995849609375" lon="-5.05069001577794551849365234375">
        <ele>244.1999969482421875</ele>
        <time>2018-09-08T08:35:25.000Z</time>
      </trkpt>
      <trkpt lat="43.30491565167903900146484375" lon="-5.0507274828851222991943359375">
        <ele>244.600006103515625</ele>
        <time>2018-09-08T08:35:28.000Z</time>
      </trkpt>
      <trkpt lat="43.30482311546802520751953125" lon="-5.05073276348412036895751953125">
        <ele>245.399993896484375</ele>
        <time>2018-09-08T08:35:32.000Z</time>
      </trkpt>
      <trkpt lat="43.304771818220615386962890625" lon="-5.05073091946542263031005859375">
        <ele>246</ele>
        <time>2018-09-08T08:35:35.000Z</time>
      </trkpt>
      <trkpt lat="43.30472077243030071258544921875" lon="-5.050710551440715789794921875">
        <ele>246.399993896484375</ele>
        <time>2018-09-08T08:35:38.000Z</time>
      </trkpt>
      <trkpt lat="43.3046351931989192962646484375" lon="-5.05065816454589366912841796875">
        <ele>247.1999969482421875</ele>
        <time>2018-09-08T08:35:43.000Z</time>
      </trkpt>
      <trkpt lat="43.30462069250643253326416015625" lon="-5.0506545603275299072265625">
        <ele>247.399993896484375</ele>
        <time>2018-09-08T08:35:44.000Z</time>
      </trkpt>
      <trkpt lat="43.304524719715118408203125" lon="-5.05059630610048770904541015625">
        <ele>248.399993896484375</ele>
        <time>2018-09-08T08:35:49.000Z</time>
      </trkpt>
      <trkpt lat="43.3045071177184581756591796875" lon="-5.05058105103671550750732421875">
        <ele>248.600006103515625</ele>
        <time>2018-09-08T08:35:50.000Z</time>
      </trkpt>
      <trkpt lat="43.3044853247702121734619140625" lon="-5.05056596361100673675537109375">
        <ele>249.600006103515625</ele>
        <time>2018-09-08T08:35:51.000Z</time>
      </trkpt>
      <trkpt lat="43.3043736778199672698974609375" lon="-5.0504978187382221221923828125">
        <ele>250</ele>
        <time>2018-09-08T08:35:56.000Z</time>
      </trkpt>
      <trkpt lat="43.30428935587406158447265625" lon="-5.05043302662670612335205078125">
        <ele>250.600006103515625</ele>
        <time>2018-09-08T08:36:00.000Z</time>
      </trkpt>
      <trkpt lat="43.30425457097589969635009765625" lon="-5.05040151067078113555908203125">
        <ele>251.1999969482421875</ele>
        <time>2018-09-08T08:36:02.000Z</time>
      </trkpt>
      <trkpt lat="43.30422389321029186248779296875" lon="-5.05037317983806133270263671875">
        <ele>251.8000030517578125</ele>
        <time>2018-09-08T08:36:04.000Z</time>
      </trkpt>
      <trkpt lat="43.30417997203767299652099609375" lon="-5.0503405742347240447998046875">
        <ele>252.399993896484375</ele>
        <time>2018-09-08T08:36:07.000Z</time>
      </trkpt>
      <trkpt lat="43.30415214411914348602294921875" lon="-5.0503335334360599517822265625">
        <ele>252.8000030517578125</ele>
        <time>2018-09-08T08:36:09.000Z</time>
      </trkpt>
      <trkpt lat="43.304127417504787445068359375" lon="-5.050316266715526580810546875">
        <ele>253.1999969482421875</ele>
        <time>2018-09-08T08:36:11.000Z</time>
      </trkpt>
      <trkpt lat="43.3041121624410152435302734375" lon="-5.05030117928981781005859375">
        <ele>254</ele>
        <time>2018-09-08T08:36:12.000Z</time>
      </trkpt>
      <trkpt lat="43.30408123321831226348876953125" lon="-5.05026672966778278350830078125">
        <ele>254.399993896484375</ele>
        <time>2018-09-08T08:36:14.000Z</time>
      </trkpt>
      <trkpt lat="43.3040658943355083465576171875" lon="-5.05024795420467853546142578125">
        <ele>254.600006103515625</ele>
        <time>2018-09-08T08:36:15.000Z</time>
      </trkpt>
      <trkpt lat="43.30404234118759632110595703125" lon="-5.0502094812691211700439453125">
        <ele>255</ele>
        <time>2018-09-08T08:36:17.000Z</time>
      </trkpt>
      <trkpt lat="43.30400428734719753265380859375" lon="-5.050149299204349517822265625">
        <ele>256</ele>
        <time>2018-09-08T08:36:20.000Z</time>
      </trkpt>
      <trkpt lat="43.303989283740520477294921875" lon="-5.05013228394091129302978515625">
        <ele>256.399993896484375</ele>
        <time>2018-09-08T08:36:21.000Z</time>
      </trkpt>
      <trkpt lat="43.303897418081760406494140625" lon="-5.04998224787414073944091796875">
        <ele>257.20001220703125</ele>
        <time>2018-09-08T08:36:27.000Z</time>
      </trkpt>
      <trkpt lat="43.303840421140193939208984375" lon="-5.04981528036296367645263671875">
        <ele>258.20001220703125</ele>
        <time>2018-09-08T08:36:33.000Z</time>
      </trkpt>
      <trkpt lat="43.3038241602480411529541015625" lon="-5.04976599477231502532958984375">
        <ele>259</ele>
        <time>2018-09-08T08:36:35.000Z</time>
      </trkpt>
      <trkpt lat="43.30381326377391815185546875" lon="-5.0497169606387615203857421875">
        <ele>259.399993896484375</ele>
        <time>2018-09-08T08:36:37.000Z</time>
      </trkpt>
      <trkpt lat="43.3037509024143218994140625" lon="-5.04957958124577999114990234375">
        <ele>260.600006103515625</ele>
        <time>2018-09-08T08:36:42.000Z</time>
      </trkpt>
      <trkpt lat="43.3037388324737548828125" lon="-5.0495553575456142425537109375">
        <ele>260.79998779296875</ele>
        <time>2018-09-08T08:36:43.000Z</time>
      </trkpt>
      <trkpt lat="43.3037037961184978485107421875" lon="-5.049442537128925323486328125">
        <ele>261.600006103515625</ele>
        <time>2018-09-08T08:36:47.000Z</time>
      </trkpt>
      <trkpt lat="43.30368141643702983856201171875" lon="-5.049352683126926422119140625">
        <ele>262.20001220703125</ele>
        <time>2018-09-08T08:36:50.000Z</time>
      </trkpt>
      <trkpt lat="43.303654007613658905029296875" lon="-5.0492908246815204620361328125">
        <ele>262.79998779296875</ele>
        <time>2018-09-08T08:36:52.000Z</time>
      </trkpt>
      <trkpt lat="43.3036092482507228851318359375" lon="-5.04918563179671764373779296875">
        <ele>263.399993896484375</ele>
        <time>2018-09-08T08:36:56.000Z</time>
      </trkpt>
      <trkpt lat="43.30359290353953838348388671875" lon="-5.04912930540740489959716796875">
        <ele>264.20001220703125</ele>
        <time>2018-09-08T08:36:58.000Z</time>
      </trkpt>
      <trkpt lat="43.30356113612651824951171875" lon="-5.04904858767986297607421875">
        <ele>264.79998779296875</ele>
        <time>2018-09-08T08:37:01.000Z</time>
      </trkpt>
      <trkpt lat="43.30355577170848846435546875" lon="-5.04897021688520908355712890625">
        <ele>265.399993896484375</ele>
        <time>2018-09-08T08:37:04.000Z</time>
      </trkpt>
      <trkpt lat="43.3035207353532314300537109375" lon="-5.0488388724625110626220703125">
        <ele>266.399993896484375</ele>
        <time>2018-09-08T08:37:09.000Z</time>
      </trkpt>
      <trkpt lat="43.3034828491508960723876953125" lon="-5.0487126410007476806640625">
        <ele>267.600006103515625</ele>
        <time>2018-09-08T08:37:14.000Z</time>
      </trkpt>
      <trkpt lat="43.30346952192485332489013671875" lon="-5.04866109229624271392822265625">
        <ele>268</ele>
        <time>2018-09-08T08:37:16.000Z</time>
      </trkpt>
      <trkpt lat="43.30345191992819309234619140625" lon="-5.048585571348667144775390625">
        <ele>268.600006103515625</ele>
        <time>2018-09-08T08:37:19.000Z</time>
      </trkpt>
      <trkpt lat="43.3034137822687625885009765625" lon="-5.04851306788623332977294921875">
        <ele>269.600006103515625</ele>
        <time>2018-09-08T08:37:23.000Z</time>
      </trkpt>
      <trkpt lat="43.30340154469013214111328125" lon="-5.04849764518439769744873046875">
        <ele>270</ele>
        <time>2018-09-08T08:37:24.000Z</time>
      </trkpt>
      <trkpt lat="43.30335016362369060516357421875" lon="-5.04843075759708881378173828125">
        <ele>270.79998779296875</ele>
        <time>2018-09-08T08:37:27.000Z</time>
      </trkpt>
      <trkpt lat="43.30332132987678050994873046875" lon="-5.04837158136069774627685546875">
        <ele>271</ele>
        <time>2018-09-08T08:37:29.000Z</time>
      </trkpt>
      <trkpt lat="43.3032850362360477447509765625" lon="-5.0483004190027713775634765625">
        <ele>271.79998779296875</ele>
        <time>2018-09-08T08:37:32.000Z</time>
      </trkpt>
      <trkpt lat="43.30325134098529815673828125" lon="-5.048263370990753173828125">
        <ele>272.20001220703125</ele>
        <time>2018-09-08T08:37:34.000Z</time>
      </trkpt>
      <trkpt lat="43.30320498906075954437255859375" lon="-5.04819941706955432891845703125">
        <ele>273</ele>
        <time>2018-09-08T08:37:37.000Z</time>
      </trkpt>
      <trkpt lat="43.30315570347011089324951171875" lon="-5.048106797039508819580078125">
        <ele>274</ele>
        <time>2018-09-08T08:37:41.000Z</time>
      </trkpt>
      <trkpt lat="43.3031495846807956695556640625" lon="-5.04808458499610424041748046875">
        <ele>274.20001220703125</ele>
        <time>2018-09-08T08:37:42.000Z</time>
      </trkpt>
      <trkpt lat="43.30311915837228298187255859375" lon="-5.048009566962718963623046875">
        <ele>275</ele>
        <time>2018-09-08T08:37:45.000Z</time>
      </trkpt>
      <trkpt lat="43.30310918390750885009765625" lon="-5.047995485365390777587890625">
        <ele>275.399993896484375</ele>
        <time>2018-09-08T08:37:46.000Z</time>
      </trkpt>
      <trkpt lat="43.3030991256237030029296875" lon="-5.0479792244732379913330078125">
        <ele>275.600006103515625</ele>
        <time>2018-09-08T08:37:47.000Z</time>
      </trkpt>
      <trkpt lat="43.30307372845709323883056640625" lon="-5.0478918850421905517578125">
        <ele>276.600006103515625</ele>
        <time>2018-09-08T08:37:51.000Z</time>
      </trkpt>
      <trkpt lat="43.3030674420297145843505859375" lon="-5.0478508137166500091552734375">
        <ele>277</ele>
        <time>2018-09-08T08:37:53.000Z</time>
      </trkpt>
      <trkpt lat="43.30304556526243686676025390625" lon="-5.0477797351777553558349609375">
        <ele>278</ele>
        <time>2018-09-08T08:37:57.000Z</time>
      </trkpt>
      <trkpt lat="43.30300499685108661651611328125" lon="-5.0477089919149875640869140625">
        <ele>278.20001220703125</ele>
        <time>2018-09-08T08:38:00.000Z</time>
      </trkpt>
      <trkpt lat="43.30298052169382572174072265625" lon="-5.04765811376273632049560546875">
        <ele>279.20001220703125</ele>
        <time>2018-09-08T08:38:02.000Z</time>
      </trkpt>
      <trkpt lat="43.3029306493699550628662109375" lon="-5.0474813394248485565185546875">
        <ele>281</ele>
        <time>2018-09-08T08:38:11.000Z</time>
      </trkpt>
      <trkpt lat="43.30291497521102428436279296875" lon="-5.0473401881754398345947265625">
        <ele>282.79998779296875</ele>
        <time>2018-09-08T08:38:15.000Z</time>
      </trkpt>
      <trkpt lat="43.3029113709926605224609375" lon="-5.047297775745391845703125">
        <ele>281.79998779296875</ele>
        <time>2018-09-08T08:38:16.000Z</time>
      </trkpt>
      <trkpt lat="43.30289687030017375946044921875" lon="-5.04719895310699939727783203125">
        <ele>282.79998779296875</ele>
        <time>2018-09-08T08:38:19.000Z</time>
      </trkpt>
      <trkpt lat="43.3028994686901569366455078125" lon="-5.04713952541351318359375">
        <ele>282</ele>
        <time>2018-09-08T08:38:21.000Z</time>
      </trkpt>
      <trkpt lat="43.302892260253429412841796875" lon="-5.04707406274974346160888671875">
        <ele>282.600006103515625</ele>
        <time>2018-09-08T08:38:23.000Z</time>
      </trkpt>
      <trkpt lat="43.30288480035960674285888671875" lon="-5.047043301165103912353515625">
        <ele>284.20001220703125</ele>
        <time>2018-09-08T08:38:24.000Z</time>
      </trkpt>
      <trkpt lat="43.30287708900868892669677734375" lon="-5.0469636730849742889404296875">
        <ele>284.600006103515625</ele>
        <time>2018-09-08T08:38:27.000Z</time>
      </trkpt>
      <trkpt lat="43.30287390388548374176025390625" lon="-5.0469127111136913299560546875">
        <ele>285</ele>
        <time>2018-09-08T08:38:29.000Z</time>
      </trkpt>
      <trkpt lat="43.30285814590752124786376953125" lon="-5.04687658511102199554443359375">
        <ele>285.20001220703125</ele>
        <time>2018-09-08T08:38:30.000Z</time>
      </trkpt>
      <trkpt lat="43.3028293959796428680419921875" lon="-5.04676460288465023040771484375">
        <ele>286.399993896484375</ele>
        <time>2018-09-08T08:38:34.000Z</time>
      </trkpt>
      <trkpt lat="43.302777595818042755126953125" lon="-5.04664910025894641876220703125">
        <ele>287.399993896484375</ele>
        <time>2018-09-08T08:38:38.000Z</time>
      </trkpt>
      <trkpt lat="43.3027445711195468902587890625" lon="-5.0466042570769786834716796875">
        <ele>287.79998779296875</ele>
        <time>2018-09-08T08:38:40.000Z</time>
      </trkpt>
      <trkpt lat="43.30269117839634418487548828125" lon="-5.04653058014810085296630859375">
        <ele>288.600006103515625</ele>
        <time>2018-09-08T08:38:43.000Z</time>
      </trkpt>
      <trkpt lat="43.30266888253390789031982421875" lon="-5.04645430482923984527587890625">
        <ele>289.399993896484375</ele>
        <time>2018-09-08T08:38:46.000Z</time>
      </trkpt>
      <trkpt lat="43.30266184173524379730224609375" lon="-5.04640652798116207122802734375">
        <ele>289.79998779296875</ele>
        <time>2018-09-08T08:38:48.000Z</time>
      </trkpt>
      <trkpt lat="43.3026510290801525115966796875" lon="-5.04634492099285125732421875">
        <ele>290.600006103515625</ele>
        <time>2018-09-08T08:38:51.000Z</time>
      </trkpt>
      <trkpt lat="43.30264985561370849609375" lon="-5.046323798596858978271484375">
        <ele>290.600006103515625</ele>
        <time>2018-09-08T08:38:52.000Z</time>
      </trkpt>
      <trkpt lat="43.3026490174233913421630859375" lon="-5.04630041308701038360595703125">
        <ele>291</ele>
        <time>2018-09-08T08:38:53.000Z</time>
      </trkpt>
      <trkpt lat="43.3026285655796527862548828125" lon="-5.0461794622242450714111328125">
        <ele>292.20001220703125</ele>
        <time>2018-09-08T08:38:58.000Z</time>
      </trkpt>
      <trkpt lat="43.30262412317097187042236328125" lon="-5.04604493267834186553955078125">
        <ele>293.399993896484375</ele>
        <time>2018-09-08T08:39:03.000Z</time>
      </trkpt>
      <trkpt lat="43.30262362025678157806396484375" lon="-5.04601492546498775482177734375">
        <ele>293.600006103515625</ele>
        <time>2018-09-08T08:39:04.000Z</time>
      </trkpt>
      <trkpt lat="43.30259931273758411407470703125" lon="-5.0458614528179168701171875">
        <ele>294.600006103515625</ele>
        <time>2018-09-08T08:39:09.000Z</time>
      </trkpt>
      <trkpt lat="43.30256343819200992584228515625" lon="-5.045773945748805999755859375">
        <ele>295.20001220703125</ele>
        <time>2018-09-08T08:39:12.000Z</time>
      </trkpt>
      <trkpt lat="43.30254348926246166229248046875" lon="-5.045721642673015594482421875">
        <ele>295.600006103515625</ele>
        <time>2018-09-08T08:39:14.000Z</time>
      </trkpt>
      <trkpt lat="43.3025172539055347442626953125" lon="-5.04560722969472408294677734375">
        <ele>296.79998779296875</ele>
        <time>2018-09-08T08:39:18.000Z</time>
      </trkpt>
      <trkpt lat="43.30248028971254825592041015625" lon="-5.045525170862674713134765625">
        <ele>297.79998779296875</ele>
        <time>2018-09-08T08:39:22.000Z</time>
      </trkpt>
      <trkpt lat="43.30246017314493656158447265625" lon="-5.04547563381493091583251953125">
        <ele>298.20001220703125</ele>
        <time>2018-09-08T08:39:24.000Z</time>
      </trkpt>
      <trkpt lat="43.30243972130119800567626953125" lon="-5.04539667628705501556396484375">
        <ele>298.79998779296875</ele>
        <time>2018-09-08T08:39:27.000Z</time>
      </trkpt>
      <trkpt lat="43.3024287410080432891845703125" lon="-5.04531268961727619171142578125">
        <ele>299.399993896484375</ele>
        <time>2018-09-08T08:39:30.000Z</time>
      </trkpt>
      <trkpt lat="43.3024210296571254730224609375" lon="-5.04525803960859775543212890625">
        <ele>300</ele>
        <time>2018-09-08T08:39:32.000Z</time>
      </trkpt>
      <trkpt lat="43.30241893418133258819580078125" lon="-5.04514890722930431365966796875">
        <ele>300.79998779296875</ele>
        <time>2018-09-08T08:39:36.000Z</time>
      </trkpt>
      <trkpt lat="43.30241843126714229583740234375" lon="-5.04512493498623371124267578125">
        <ele>301</ele>
        <time>2018-09-08T08:39:37.000Z</time>
      </trkpt>
      <trkpt lat="43.30238230526447296142578125" lon="-5.04497104324400424957275390625">
        <ele>302.20001220703125</ele>
        <time>2018-09-08T08:39:42.000Z</time>
      </trkpt>
      <trkpt lat="43.3023643679916858673095703125" lon="-5.0448571331799030303955078125">
        <ele>303.20001220703125</ele>
        <time>2018-09-08T08:39:46.000Z</time>
      </trkpt>
      <trkpt lat="43.3023561537265777587890625" lon="-5.04480407573282718658447265625">
        <ele>303.600006103515625</ele>
        <time>2018-09-08T08:39:48.000Z</time>
      </trkpt>
      <trkpt lat="43.3023507893085479736328125" lon="-5.04468706436455249786376953125">
        <ele>304.399993896484375</ele>
        <time>2018-09-08T08:39:52.000Z</time>
      </trkpt>
      <trkpt lat="43.3023419044911861419677734375" lon="-5.04458564333617687225341796875">
        <ele>305</ele>
        <time>2018-09-08T08:39:55.000Z</time>
      </trkpt>
      <trkpt lat="43.302347771823406219482421875" lon="-5.04451431334018707275390625">
        <ele>305.600006103515625</ele>
        <time>2018-09-08T08:39:57.000Z</time>
      </trkpt>
      <trkpt lat="43.3023268170654773712158203125" lon="-5.044395290315151214599609375">
        <ele>306.399993896484375</ele>
        <time>2018-09-08T08:40:01.000Z</time>
      </trkpt>
      <trkpt lat="43.302323631942272186279296875" lon="-5.04436410963535308837890625">
        <ele>306.600006103515625</ele>
        <time>2018-09-08T08:40:02.000Z</time>
      </trkpt>
      <trkpt lat="43.302281387150287628173828125" lon="-5.04425858147442340850830078125">
        <ele>307.79998779296875</ele>
        <time>2018-09-08T08:40:07.000Z</time>
      </trkpt>
      <trkpt lat="43.30227845348417758941650390625" lon="-5.04423544742166996002197265625">
        <ele>308</ele>
        <time>2018-09-08T08:40:08.000Z</time>
      </trkpt>
      <trkpt lat="43.30227795056998729705810546875" lon="-5.04413536749780178070068359375">
        <ele>309</ele>
        <time>2018-09-08T08:40:12.000Z</time>
      </trkpt>
      <trkpt lat="43.30227501690387725830078125" lon="-5.0440804660320281982421875">
        <ele>309.399993896484375</ele>
        <time>2018-09-08T08:40:14.000Z</time>
      </trkpt>
      <trkpt lat="43.3022611029446125030517578125" lon="-5.04402304999530315399169921875">
        <ele>310</ele>
        <time>2018-09-08T08:40:16.000Z</time>
      </trkpt>
      <trkpt lat="43.30222380347549915313720703125" lon="-5.04386748187243938446044921875">
        <ele>311</ele>
        <time>2018-09-08T08:40:21.000Z</time>
      </trkpt>
      <trkpt lat="43.302207291126251220703125" lon="-5.0437463633716106414794921875">
        <ele>312.20001220703125</ele>
        <time>2018-09-08T08:40:26.000Z</time>
      </trkpt>
      <trkpt lat="43.30220284871757030487060546875" lon="-5.0436954014003276824951171875">
        <ele>312.600006103515625</ele>
        <time>2018-09-08T08:40:28.000Z</time>
      </trkpt>
      <trkpt lat="43.30220033414661884307861328125" lon="-5.0436330400407314300537109375">
        <ele>313.399993896484375</ele>
        <time>2018-09-08T08:40:31.000Z</time>
      </trkpt>
      <trkpt lat="43.30219010822474956512451171875" lon="-5.04357327707111835479736328125">
        <ele>314.399993896484375</ele>
        <time>2018-09-08T08:40:34.000Z</time>
      </trkpt>
      <trkpt lat="43.30219144932925701141357421875" lon="-5.04355181939899921417236328125">
        <ele>314.600006103515625</ele>
        <time>2018-09-08T08:40:35.000Z</time>
      </trkpt>
      <trkpt lat="43.3022309280931949615478515625" lon="-5.04340312443673610687255859375">
        <ele>315.79998779296875</ele>
        <time>2018-09-08T08:40:40.000Z</time>
      </trkpt>
      <trkpt lat="43.302238471806049346923828125" lon="-5.0433631427586078643798828125">
        <ele>316</ele>
        <time>2018-09-08T08:40:41.000Z</time>
      </trkpt>
      <trkpt lat="43.30222941935062408447265625" lon="-5.043270774185657501220703125">
        <ele>316.79998779296875</ele>
        <time>2018-09-08T08:40:44.000Z</time>
      </trkpt>
      <trkpt lat="43.30221340991556644439697265625" lon="-5.04319659434258937835693359375">
        <ele>317.79998779296875</ele>
        <time>2018-09-08T08:40:47.000Z</time>
      </trkpt>
      <trkpt lat="43.30221056006848812103271484375" lon="-5.04316985607147216796875">
        <ele>318</ele>
        <time>2018-09-08T08:40:48.000Z</time>
      </trkpt>
      <trkpt lat="43.30217049457132816314697265625" lon="-5.0430764816701412200927734375">
        <ele>319</ele>
        <time>2018-09-08T08:40:52.000Z</time>
      </trkpt>
      <trkpt lat="43.30216370522975921630859375" lon="-5.043056868016719818115234375">
        <ele>319.20001220703125</ele>
        <time>2018-09-08T08:40:53.000Z</time>
      </trkpt>
      <trkpt lat="43.30216244794428348541259765625" lon="-5.0429705344140529632568359375">
        <ele>320</ele>
        <time>2018-09-08T08:40:56.000Z</time>
      </trkpt>
      <trkpt lat="43.30215607769787311553955078125" lon="-5.0428702868521213531494140625">
        <ele>321.20001220703125</ele>
        <time>2018-09-08T08:41:00.000Z</time>
      </trkpt>
      <trkpt lat="43.302185833454132080078125" lon="-5.04275746643543243408203125">
        <ele>322.20001220703125</ele>
        <time>2018-09-08T08:41:04.000Z</time>
      </trkpt>
      <trkpt lat="43.302199579775333404541015625" lon="-5.0427019782364368438720703125">
        <ele>322.600006103515625</ele>
        <time>2018-09-08T08:41:06.000Z</time>
      </trkpt>
      <trkpt lat="43.3022238872945308685302734375" lon="-5.042606256902217864990234375">
        <ele>323.399993896484375</ele>
        <time>2018-09-08T08:41:10.000Z</time>
      </trkpt>
      <trkpt lat="43.30224710516631603240966796875" lon="-5.0425661914050579071044921875">
        <ele>324.20001220703125</ele>
        <time>2018-09-08T08:41:13.000Z</time>
      </trkpt>
      <trkpt lat="43.30227459780871868133544921875" lon="-5.0425423868000507354736328125">
        <ele>324.600006103515625</ele>
        <time>2018-09-08T08:41:15.000Z</time>
      </trkpt>
      <trkpt lat="43.3023422397673130035400390625" lon="-5.04248924553394317626953125">
        <ele>325.20001220703125</ele>
        <time>2018-09-08T08:41:19.000Z</time>
      </trkpt>
      <trkpt lat="43.3023764379322528839111328125" lon="-5.04247256554663181304931640625">
        <ele>325.600006103515625</ele>
        <time>2018-09-08T08:41:21.000Z</time>
      </trkpt>
      <trkpt lat="43.3024294115602970123291015625" lon="-5.0424518622457981109619140625">
        <ele>327</ele>
        <time>2018-09-08T08:41:25.000Z</time>
      </trkpt>
      <trkpt lat="43.302441649138927459716796875" lon="-5.04244976677000522613525390625">
        <ele>327</ele>
        <time>2018-09-08T08:41:26.000Z</time>
      </trkpt>
      <trkpt lat="43.30249764025211334228515625" lon="-5.04244993440806865692138671875">
        <ele>328</ele>
        <time>2018-09-08T08:41:30.000Z</time>
      </trkpt>
      <trkpt lat="43.302548266947269439697265625" lon="-5.042458064854145050048828125">
        <ele>328.600006103515625</ele>
        <time>2018-09-08T08:41:33.000Z</time>
      </trkpt>
      <trkpt lat="43.3025742508471012115478515625" lon="-5.042466782033443450927734375">
        <ele>329</ele>
        <time>2018-09-08T08:41:35.000Z</time>
      </trkpt>
      <trkpt lat="43.30264516174793243408203125" lon="-5.0424941070377826690673828125">
        <ele>330</ele>
        <time>2018-09-08T08:41:40.000Z</time>
      </trkpt>
      <trkpt lat="43.3027113787829875946044921875" lon="-5.04254297353327274322509765625">
        <ele>331</ele>
        <time>2018-09-08T08:41:45.000Z</time>
      </trkpt>
      <trkpt lat="43.30277499742805957794189453125" lon="-5.04258714616298675537109375">
        <ele>332.20001220703125</ele>
        <time>2018-09-08T08:41:49.000Z</time>
      </trkpt>
      <trkpt lat="43.30284154973924160003662109375" lon="-5.0426154769957065582275390625">
        <ele>333</ele>
        <time>2018-09-08T08:41:53.000Z</time>
      </trkpt>
      <trkpt lat="43.3028800226747989654541015625" lon="-5.04263081587851047515869140625">
        <ele>333.399993896484375</ele>
        <time>2018-09-08T08:41:55.000Z</time>
      </trkpt>
      <trkpt lat="43.30295822583138942718505859375" lon="-5.04266895353794097900390625">
        <ele>334.399993896484375</ele>
        <time>2018-09-08T08:41:59.000Z</time>
      </trkpt>
      <trkpt lat="43.30305495299398899078369140625" lon="-5.0427418760955333709716796875">
        <ele>335.600006103515625</ele>
        <time>2018-09-08T08:42:05.000Z</time>
      </trkpt>
      <trkpt lat="43.30307322554290294647216796875" lon="-5.0427502579987049102783203125">
        <ele>336</ele>
        <time>2018-09-08T08:42:06.000Z</time>
      </trkpt>
      <trkpt lat="43.30313625745475292205810546875" lon="-5.04277146421372890472412109375">
        <ele>336.79998779296875</ele>
        <time>2018-09-08T08:42:10.000Z</time>
      </trkpt>
      <trkpt lat="43.303178250789642333984375" lon="-5.04279778338968753814697265625">
        <ele>337.79998779296875</ele>
        <time>2018-09-08T08:42:13.000Z</time>
      </trkpt>
      <trkpt lat="43.3031928353011608123779296875" lon="-5.04280549474060535430908203125">
        <ele>338</ele>
        <time>2018-09-08T08:42:14.000Z</time>
      </trkpt>
      <trkpt lat="43.303269110620021820068359375" lon="-5.0428320653736591339111328125">
        <ele>339.20001220703125</ele>
        <time>2018-09-08T08:42:19.000Z</time>
      </trkpt>
      <trkpt lat="43.3033155463635921478271484375" lon="-5.04284723661839962005615234375">
        <ele>339.79998779296875</ele>
        <time>2018-09-08T08:42:22.000Z</time>
      </trkpt>
      <trkpt lat="43.3033514209091663360595703125" lon="-5.04285268485546112060546875">
        <ele>340.20001220703125</ele>
        <time>2018-09-08T08:42:24.000Z</time>
      </trkpt>
      <trkpt lat="43.303442113101482391357421875" lon="-5.04289367236196994781494140625">
        <ele>341.399993896484375</ele>
        <time>2018-09-08T08:42:29.000Z</time>
      </trkpt>
      <trkpt lat="43.30351059325039386749267578125" lon="-5.04292602650821208953857421875">
        <ele>342.600006103515625</ele>
        <time>2018-09-08T08:42:33.000Z</time>
      </trkpt>
      <trkpt lat="43.3035663329064846038818359375" lon="-5.0429554469883441925048828125">
        <ele>343.600006103515625</ele>
        <time>2018-09-08T08:42:37.000Z</time>
      </trkpt>
      <trkpt lat="43.3036447875201702117919921875" lon="-5.04299006424844264984130859375">
        <ele>344.79998779296875</ele>
        <time>2018-09-08T08:42:42.000Z</time>
      </trkpt>
      <trkpt lat="43.303664065897464752197265625" lon="-5.04299459047615528106689453125">
        <ele>344.79998779296875</ele>
        <time>2018-09-08T08:42:43.000Z</time>
      </trkpt>
      <trkpt lat="43.30371779389679431915283203125" lon="-5.04301269538700580596923828125">
        <ele>345.79998779296875</ele>
        <time>2018-09-08T08:42:47.000Z</time>
      </trkpt>
      <trkpt lat="43.3037643134593963623046875" lon="-5.0430288724601268768310546875">
        <ele>346.600006103515625</ele>
        <time>2018-09-08T08:42:50.000Z</time>
      </trkpt>
      <trkpt lat="43.3037953265011310577392578125" lon="-5.04302610643208026885986328125">
        <ele>347</ele>
        <time>2018-09-08T08:42:52.000Z</time>
      </trkpt>
      <trkpt lat="43.30388945527374744415283203125" lon="-5.04303633235394954681396484375">
        <ele>348</ele>
        <time>2018-09-08T08:42:57.000Z</time>
      </trkpt>
      <trkpt lat="43.3039830811321735382080078125" lon="-5.04306399263441562652587890625">
        <ele>349.20001220703125</ele>
        <time>2018-09-08T08:43:01.000Z</time>
      </trkpt>
      <trkpt lat="43.3040259964764118194580078125" lon="-5.04308729432523250579833984375">
        <ele>349.600006103515625</ele>
        <time>2018-09-08T08:43:03.000Z</time>
      </trkpt>
      <trkpt lat="43.30407134257256984710693359375" lon="-5.0431321375072002410888671875">
        <ele>350.20001220703125</ele>
        <time>2018-09-08T08:43:06.000Z</time>
      </trkpt>
      <trkpt lat="43.30412616021931171417236328125" lon="-5.043213106691837310791015625">
        <ele>350.79998779296875</ele>
        <time>2018-09-08T08:43:10.000Z</time>
      </trkpt>
      <trkpt lat="43.30416840501129627227783203125" lon="-5.04326314665377140045166015625">
        <ele>351.399993896484375</ele>
        <time>2018-09-08T08:43:13.000Z</time>
      </trkpt>
      <trkpt lat="43.30427485518157482147216796875" lon="-5.04335484467446804046630859375">
        <ele>352.600006103515625</ele>
        <time>2018-09-08T08:43:19.000Z</time>
      </trkpt>
      <trkpt lat="43.304350711405277252197265625" lon="-5.04344679415225982666015625">
        <ele>353.79998779296875</ele>
        <time>2018-09-08T08:43:24.000Z</time>
      </trkpt>
      <trkpt lat="43.3044082112610340118408203125" lon="-5.0434975884854793548583984375">
        <ele>354.399993896484375</ele>
        <time>2018-09-08T08:43:27.000Z</time>
      </trkpt>
      <trkpt lat="43.3044430799782276153564453125" lon="-5.0435331277549266815185546875">
        <ele>355</ele>
        <time>2018-09-08T08:43:29.000Z</time>
      </trkpt>
      <trkpt lat="43.30455112271010875701904296875" lon="-5.0436280108988285064697265625">
        <ele>356.20001220703125</ele>
        <time>2018-09-08T08:43:35.000Z</time>
      </trkpt>
      <trkpt lat="43.30457098782062530517578125" lon="-5.0436407513916492462158203125">
        <ele>356.399993896484375</ele>
        <time>2018-09-08T08:43:36.000Z</time>
      </trkpt>
      <trkpt lat="43.3046556450426578521728515625" lon="-5.043689198791980743408203125">
        <ele>357.399993896484375</ele>
        <time>2018-09-08T08:43:41.000Z</time>
      </trkpt>
      <trkpt lat="43.30468439497053623199462890625" lon="-5.043716691434383392333984375">
        <ele>357.79998779296875</ele>
        <time>2018-09-08T08:43:43.000Z</time>
      </trkpt>
      <trkpt lat="43.30475094728171825408935546875" lon="-5.0437674857676029205322265625">
        <ele>358.600006103515625</ele>
        <time>2018-09-08T08:43:47.000Z</time>
      </trkpt>
      <trkpt lat="43.3048031665384769439697265625" lon="-5.04379682242870330810546875">
        <ele>359</ele>
        <time>2018-09-08T08:43:50.000Z</time>
      </trkpt>
      <trkpt lat="43.30486393533647060394287109375" lon="-5.04382523708045482635498046875">
        <ele>359.600006103515625</ele>
        <time>2018-09-08T08:43:53.000Z</time>
      </trkpt>
      <trkpt lat="43.3050160668790340423583984375" lon="-5.04386521875858306884765625">
        <ele>360.600006103515625</ele>
        <time>2018-09-08T08:44:00.000Z</time>
      </trkpt>
      <trkpt lat="43.3050355128943920135498046875" lon="-5.0438605248928070068359375">
        <ele>360.600006103515625</ele>
        <time>2018-09-08T08:44:01.000Z</time>
      </trkpt>
      <trkpt lat="43.305146992206573486328125" lon="-5.0438201241195201873779296875">
        <ele>361.20001220703125</ele>
        <time>2018-09-08T08:44:06.000Z</time>
      </trkpt>
      <trkpt lat="43.3052517659962177276611328125" lon="-5.043724738061428070068359375">
        <ele>361.79998779296875</ele>
        <time>2018-09-08T08:44:11.000Z</time>
      </trkpt>
      <trkpt lat="43.30530381761491298675537109375" lon="-5.04364821128547191619873046875">
        <ele>362</ele>
        <time>2018-09-08T08:44:14.000Z</time>
      </trkpt>
      <trkpt lat="43.3053305558860301971435546875" lon="-5.04355282522737979888916015625">
        <ele>362.399993896484375</ele>
        <time>2018-09-08T08:44:17.000Z</time>
      </trkpt>
      <trkpt lat="43.30530281178653240203857421875" lon="-5.04350253380835056304931640625">
        <ele>362.79998779296875</ele>
        <time>2018-09-08T08:44:19.000Z</time>
      </trkpt>
      <trkpt lat="43.30521128140389919281005859375" lon="-5.04348434507846832275390625">
        <ele>364</ele>
        <time>2018-09-08T08:44:23.000Z</time>
      </trkpt>
      <trkpt lat="43.305162750184535980224609375" lon="-5.04349909722805023193359375">
        <ele>364.399993896484375</ele>
        <time>2018-09-08T08:44:25.000Z</time>
      </trkpt>
      <trkpt lat="43.30509711988270282745361328125" lon="-5.04352566786110401153564453125">
        <ele>365.20001220703125</ele>
        <time>2018-09-08T08:44:28.000Z</time>
      </trkpt>
      <trkpt lat="43.30506091006100177764892578125" lon="-5.0435394980013370513916015625">
        <ele>365.600006103515625</ele>
        <time>2018-09-08T08:44:30.000Z</time>
      </trkpt>
      <trkpt lat="43.30497440882027149200439453125" lon="-5.0435542501509189605712890625">
        <ele>366.399993896484375</ele>
        <time>2018-09-08T08:44:34.000Z</time>
      </trkpt>
      <trkpt lat="43.3049077726900577545166015625" lon="-5.04354871809482574462890625">
        <ele>367.399993896484375</ele>
        <time>2018-09-08T08:44:37.000Z</time>
      </trkpt>
      <trkpt lat="43.30485069192945957183837890625" lon="-5.04351091571152210235595703125">
        <ele>368</ele>
        <time>2018-09-08T08:44:40.000Z</time>
      </trkpt>
      <trkpt lat="43.304814398288726806640625" lon="-5.04348577000200748443603515625">
        <ele>368.399993896484375</ele>
        <time>2018-09-08T08:44:42.000Z</time>
      </trkpt>
      <trkpt lat="43.30473703332245349884033203125" lon="-5.04337613470852375030517578125">
        <ele>369.600006103515625</ele>
        <time>2018-09-08T08:44:47.000Z</time>
      </trkpt>
      <trkpt lat="43.30468070693314075469970703125" lon="-5.04326750524342060089111328125">
        <ele>370.79998779296875</ele>
        <time>2018-09-08T08:44:52.000Z</time>
      </trkpt>
      <trkpt lat="43.30466528423130512237548828125" lon="-5.043249987065792083740234375">
        <ele>371</ele>
        <time>2018-09-08T08:44:53.000Z</time>
      </trkpt>
      <trkpt lat="43.3046137355268001556396484375" lon="-5.0431800819933414459228515625">
        <ele>372</ele>
        <time>2018-09-08T08:44:57.000Z</time>
      </trkpt>
      <trkpt lat="43.3045877516269683837890625" lon="-5.04314060322940349578857421875">
        <ele>372.79998779296875</ele>
        <time>2018-09-08T08:44:59.000Z</time>
      </trkpt>
      <trkpt lat="43.3045577444136142730712890625" lon="-5.043099783360958099365234375">
        <ele>373.20001220703125</ele>
        <time>2018-09-08T08:45:01.000Z</time>
      </trkpt>
      <trkpt lat="43.304503262042999267578125" lon="-5.043027363717555999755859375">
        <ele>374</ele>
        <time>2018-09-08T08:45:05.000Z</time>
      </trkpt>
      <trkpt lat="43.3044742606580257415771484375" lon="-5.04299274645745754241943359375">
        <ele>374.20001220703125</ele>
        <time>2018-09-08T08:45:07.000Z</time>
      </trkpt>
      <trkpt lat="43.30440326593816280364990234375" lon="-5.042895264923572540283203125">
        <ele>375.399993896484375</ele>
        <time>2018-09-08T08:45:12.000Z</time>
      </trkpt>
      <trkpt lat="43.304392956197261810302734375" lon="-5.04287707619369029998779296875">
        <ele>375.600006103515625</ele>
        <time>2018-09-08T08:45:13.000Z</time>
      </trkpt>
      <trkpt lat="43.3043396472930908203125" lon="-5.04280080087482929229736328125">
        <ele>376.399993896484375</ele>
        <time>2018-09-08T08:45:17.000Z</time>
      </trkpt>
      <trkpt lat="43.30429748632013797760009765625" lon="-5.0427462346851825714111328125">
        <ele>377</ele>
        <time>2018-09-08T08:45:20.000Z</time>
      </trkpt>
      <trkpt lat="43.3042529784142971038818359375" lon="-5.04268898628652095794677734375">
        <ele>377.600006103515625</ele>
        <time>2018-09-08T08:45:23.000Z</time>
      </trkpt>
      <trkpt lat="43.30419707112014293670654296875" lon="-5.0426221825182437896728515625">
        <ele>378.399993896484375</ele>
        <time>2018-09-08T08:45:27.000Z</time>
      </trkpt>
      <trkpt lat="43.304173015058040618896484375" lon="-5.04258773289620876312255859375">
        <ele>378.79998779296875</ele>
        <time>2018-09-08T08:45:29.000Z</time>
      </trkpt>
      <trkpt lat="43.3041148446500301361083984375" lon="-5.0424763374030590057373046875">
        <ele>379.79998779296875</ele>
        <time>2018-09-08T08:45:34.000Z</time>
      </trkpt>
      <trkpt lat="43.3041071332991123199462890625" lon="-5.042458735406398773193359375">
        <ele>380</ele>
        <time>2018-09-08T08:45:35.000Z</time>
      </trkpt>
      <trkpt lat="43.30404317937791347503662109375" lon="-5.04234784282743930816650390625">
        <ele>380.79998779296875</ele>
        <time>2018-09-08T08:45:40.000Z</time>
      </trkpt>
      <trkpt lat="43.30402876250445842742919921875" lon="-5.04233242012560367584228515625">
        <ele>381</ele>
        <time>2018-09-08T08:45:41.000Z</time>
      </trkpt>
      <trkpt lat="43.3039277605712413787841796875" lon="-5.042213983833789825439453125">
        <ele>382.399993896484375</ele>
        <time>2018-09-08T08:45:47.000Z</time>
      </trkpt>
      <trkpt lat="43.30390487797558307647705078125" lon="-5.04217802546918392181396484375">
        <ele>382.79998779296875</ele>
        <time>2018-09-08T08:45:49.000Z</time>
      </trkpt>
      <trkpt lat="43.303851149976253509521484375" lon="-5.04212019033730030059814453125">
        <ele>383.600006103515625</ele>
        <time>2018-09-08T08:45:53.000Z</time>
      </trkpt>
      <trkpt lat="43.30378501676023006439208984375" lon="-5.042048357427120208740234375">
        <ele>384.399993896484375</ele>
        <time>2018-09-08T08:45:57.000Z</time>
      </trkpt>
      <trkpt lat="43.3037685044109821319580078125" lon="-5.0420320965349674224853515625">
        <ele>384.600006103515625</ele>
        <time>2018-09-08T08:45:58.000Z</time>
      </trkpt>
      <trkpt lat="43.30366800539195537567138671875" lon="-5.04192003048956394195556640625">
        <ele>385.79998779296875</ele>
        <time>2018-09-08T08:46:04.000Z</time>
      </trkpt>
      <trkpt lat="43.30364990048110485076904296875" lon="-5.04190494306385517120361328125">
        <ele>386</ele>
        <time>2018-09-08T08:46:05.000Z</time>
      </trkpt>
      <trkpt lat="43.30358535982668399810791015625" lon="-5.0418300926685333251953125">
        <ele>386.79998779296875</ele>
        <time>2018-09-08T08:46:09.000Z</time>
      </trkpt>
      <trkpt lat="43.30355552025139331817626953125" lon="-5.04179656505584716796875">
        <ele>387.399993896484375</ele>
        <time>2018-09-08T08:46:11.000Z</time>
      </trkpt>
      <trkpt lat="43.303516544401645660400390625" lon="-5.04173127003014087677001953125">
        <ele>388</ele>
        <time>2018-09-08T08:46:14.000Z</time>
      </trkpt>
      <trkpt lat="43.3034687675535678863525390625" lon="-5.04168265499174594879150390625">
        <ele>388.600006103515625</ele>
        <time>2018-09-08T08:46:17.000Z</time>
      </trkpt>
      <trkpt lat="43.30343683250248432159423828125" lon="-5.0416450202465057373046875">
        <ele>389</ele>
        <time>2018-09-08T08:46:19.000Z</time>
      </trkpt>
      <trkpt lat="43.303369693458080291748046875" lon="-5.04154468886554241180419921875">
        <ele>390</ele>
        <time>2018-09-08T08:46:24.000Z</time>
      </trkpt>
      <trkpt lat="43.30334261991083621978759765625" lon="-5.0415016897022724151611328125">
        <ele>390.399993896484375</ele>
        <time>2018-09-08T08:46:26.000Z</time>
      </trkpt>
      <trkpt lat="43.30330490134656429290771484375" lon="-5.041439495980739593505859375">
        <ele>391.20001220703125</ele>
        <time>2018-09-08T08:46:29.000Z</time>
      </trkpt>
      <trkpt lat="43.30322661437094211578369140625" lon="-5.04134587012231349945068359375">
        <ele>392.20001220703125</ele>
        <time>2018-09-08T08:46:34.000Z</time>
      </trkpt>
      <trkpt lat="43.30321253277361392974853515625" lon="-5.04132508300244808197021484375">
        <ele>392.79998779296875</ele>
        <time>2018-09-08T08:46:35.000Z</time>
      </trkpt>
      <trkpt lat="43.30314899794757366180419921875" lon="-5.0412160344421863555908203125">
        <ele>393.79998779296875</ele>
        <time>2018-09-08T08:46:40.000Z</time>
      </trkpt>
      <trkpt lat="43.3030855469405651092529296875" lon="-5.04113464616239070892333984375">
        <ele>394.79998779296875</ele>
        <time>2018-09-08T08:46:45.000Z</time>
      </trkpt>
      <trkpt lat="43.3030644245445728302001953125" lon="-5.04109659232199192047119140625">
        <ele>395.20001220703125</ele>
        <time>2018-09-08T08:46:47.000Z</time>
      </trkpt>
      <trkpt lat="43.30301555804908275604248046875" lon="-5.0410121865570545196533203125">
        <ele>396</ele>
        <time>2018-09-08T08:46:51.000Z</time>
      </trkpt>
      <trkpt lat="43.3029703795909881591796875" lon="-5.0409610569477081298828125">
        <ele>396.79998779296875</ele>
        <time>2018-09-08T08:46:54.000Z</time>
      </trkpt>
      <trkpt lat="43.3029443956911563873291015625" lon="-5.0409327261149883270263671875">
        <ele>397.20001220703125</ele>
        <time>2018-09-08T08:46:56.000Z</time>
      </trkpt>
      <trkpt lat="43.30276996828615665435791015625" lon="-5.0406222604215145111083984375">
        <ele>400.600006103515625</ele>
        <time>2018-09-08T08:47:13.000Z</time>
      </trkpt>
      <trkpt lat="43.30268539488315582275390625" lon="-5.04054330289363861083984375">
        <ele>401.600006103515625</ele>
        <time>2018-09-08T08:47:18.000Z</time>
      </trkpt>
      <trkpt lat="43.30266519449651241302490234375" lon="-5.04052092321217060089111328125">
        <ele>401.79998779296875</ele>
        <time>2018-09-08T08:47:19.000Z</time>
      </trkpt>
      <trkpt lat="43.3026007376611232757568359375" lon="-5.04039888270199298858642578125">
        <ele>403</ele>
        <time>2018-09-08T08:47:24.000Z</time>
      </trkpt>
      <trkpt lat="43.30258975736796855926513671875" lon="-5.04037071950733661651611328125">
        <ele>403.20001220703125</ele>
        <time>2018-09-08T08:47:25.000Z</time>
      </trkpt>
      <trkpt lat="43.30255723558366298675537109375" lon="-5.04025270231068134307861328125">
        <ele>404</ele>
        <time>2018-09-08T08:47:29.000Z</time>
      </trkpt>
      <trkpt lat="43.30253896303474903106689453125" lon="-5.0402008183300495147705078125">
        <ele>404.399993896484375</ele>
        <time>2018-09-08T08:47:31.000Z</time>
      </trkpt>
      <trkpt lat="43.30249252729117870330810546875" lon="-5.0401045940816402435302734375">
        <ele>405.20001220703125</ele>
        <time>2018-09-08T08:47:35.000Z</time>
      </trkpt>
      <trkpt lat="43.30245397053658962249755859375" lon="-5.040033347904682159423828125">
        <ele>405.600006103515625</ele>
        <time>2018-09-08T08:47:38.000Z</time>
      </trkpt>
      <trkpt lat="43.302420862019062042236328125" lon="-5.03996000625193119049072265625">
        <ele>406.20001220703125</ele>
        <time>2018-09-08T08:47:41.000Z</time>
      </trkpt>
      <trkpt lat="43.3023667149245738983154296875" lon="-5.03986696712672710418701171875">
        <ele>407.20001220703125</ele>
        <time>2018-09-08T08:47:46.000Z</time>
      </trkpt>
      <trkpt lat="43.3023170940577983856201171875" lon="-5.039769150316715240478515625">
        <ele>408.399993896484375</ele>
        <time>2018-09-08T08:47:51.000Z</time>
      </trkpt>
      <trkpt lat="43.30228012986481189727783203125" lon="-5.0397191941738128662109375">
        <ele>409.20001220703125</ele>
        <time>2018-09-08T08:47:54.000Z</time>
      </trkpt>
      <trkpt lat="43.30224961973726749420166015625" lon="-5.0396861694753170013427734375">
        <ele>409.399993896484375</ele>
        <time>2018-09-08T08:47:56.000Z</time>
      </trkpt>
      <trkpt lat="43.302173428237438201904296875" lon="-5.0396000035107135772705078125">
        <ele>410.600006103515625</ele>
        <time>2018-09-08T08:48:01.000Z</time>
      </trkpt>
      <trkpt lat="43.3020753599703311920166015625" lon="-5.0394853390753269195556640625">
        <ele>411.600006103515625</ele>
        <time>2018-09-08T08:48:07.000Z</time>
      </trkpt>
      <trkpt lat="43.3020606078207492828369140625" lon="-5.03946312703192234039306640625">
        <ele>411.79998779296875</ele>
        <time>2018-09-08T08:48:08.000Z</time>
      </trkpt>
      <trkpt lat="43.30201140604913234710693359375" lon="-5.03940881229937076568603515625">
        <ele>412.79998779296875</ele>
        <time>2018-09-08T08:48:11.000Z</time>
      </trkpt>
      <trkpt lat="43.3019633777439594268798828125" lon="-5.0393505580723285675048828125">
        <ele>413.399993896484375</ele>
        <time>2018-09-08T08:48:14.000Z</time>
      </trkpt>
      <trkpt lat="43.30193161033093929290771484375" lon="-5.03931795246899127960205078125">
        <ele>413.79998779296875</ele>
        <time>2018-09-08T08:48:16.000Z</time>
      </trkpt>
      <trkpt lat="43.3018845878541469573974609375" lon="-5.03921217285096645355224609375">
        <ele>415</ele>
        <time>2018-09-08T08:48:22.000Z</time>
      </trkpt>
      <trkpt lat="43.301883079111576080322265625" lon="-5.0391799025237560272216796875">
        <ele>415</ele>
        <time>2018-09-08T08:48:23.000Z</time>
      </trkpt>
      <trkpt lat="43.3018638007342815399169921875" lon="-5.03907823003828525543212890625">
        <ele>416</ele>
        <time>2018-09-08T08:48:27.000Z</time>
      </trkpt>
      <trkpt lat="43.30186606384813785552978515625" lon="-5.03904017619788646697998046875">
        <ele>416</ele>
        <time>2018-09-08T08:48:28.000Z</time>
      </trkpt>
      <trkpt lat="43.3018497191369533538818359375" lon="-5.03892417065799236297607421875">
        <ele>417</ele>
        <time>2018-09-08T08:48:32.000Z</time>
      </trkpt>
      <trkpt lat="43.3018520660698413848876953125" lon="-5.03888896666467189788818359375">
        <ele>417.20001220703125</ele>
        <time>2018-09-08T08:48:33.000Z</time>
      </trkpt>
      <trkpt lat="43.3018456958234310150146484375" lon="-5.0387482345104217529296875">
        <ele>418.20001220703125</ele>
        <time>2018-09-08T08:48:38.000Z</time>
      </trkpt>
      <trkpt lat="43.30185030587017536163330078125" lon="-5.03869601525366306304931640625">
        <ele>418.600006103515625</ele>
        <time>2018-09-08T08:48:40.000Z</time>
      </trkpt>
      <trkpt lat="43.301860950887203216552734375" lon="-5.03856626339256763458251953125">
        <ele>419.399993896484375</ele>
        <time>2018-09-08T08:48:44.000Z</time>
      </trkpt>
      <trkpt lat="43.30185835249722003936767578125" lon="-5.03850616514682769775390625">
        <ele>419.79998779296875</ele>
        <time>2018-09-08T08:48:46.000Z</time>
      </trkpt>
      <trkpt lat="43.30184452235698699951171875" lon="-5.03840885125100612640380859375">
        <ele>420.600006103515625</ele>
        <time>2018-09-08T08:48:50.000Z</time>
      </trkpt>
      <trkpt lat="43.30184041522443294525146484375" lon="-5.03837666474282741546630859375">
        <ele>420.79998779296875</ele>
        <time>2018-09-08T08:48:51.000Z</time>
      </trkpt>
      <trkpt lat="43.30181979574263095855712890625" lon="-5.03821623511612415313720703125">
        <ele>421.79998779296875</ele>
        <time>2018-09-08T08:48:56.000Z</time>
      </trkpt>
      <trkpt lat="43.3017794787883758544921875" lon="-5.03809184767305850982666015625">
        <ele>422.600006103515625</ele>
        <time>2018-09-08T08:49:00.000Z</time>
      </trkpt>
      <trkpt lat="43.3017692528665065765380859375" lon="-5.03806351684033870697021484375">
        <ele>423</ele>
        <time>2018-09-08T08:49:01.000Z</time>
      </trkpt>
      <trkpt lat="43.3017246611416339874267578125" lon="-5.03794164396822452545166015625">
        <ele>423.79998779296875</ele>
        <time>2018-09-08T08:49:06.000Z</time>
      </trkpt>
      <trkpt lat="43.3017159439623355865478515625" lon="-5.0379155762493610382080078125">
        <ele>424</ele>
        <time>2018-09-08T08:49:07.000Z</time>
      </trkpt>
      <trkpt lat="43.30170571804046630859375" lon="-5.03789001144468784332275390625">
        <ele>424.20001220703125</ele>
        <time>2018-09-08T08:49:08.000Z</time>
      </trkpt>
      <trkpt lat="43.30166481435298919677734375" lon="-5.0378039292991161346435546875">
        <ele>425</ele>
        <time>2018-09-08T08:49:12.000Z</time>
      </trkpt>
      <trkpt lat="43.30162969417870044708251953125" lon="-5.0377274863421916961669921875">
        <ele>426</ele>
        <time>2018-09-08T08:49:16.000Z</time>
      </trkpt>
      <trkpt lat="43.30162097699940204620361328125" lon="-5.0377050228416919708251953125">
        <ele>426</ele>
        <time>2018-09-08T08:49:17.000Z</time>
      </trkpt>
      <trkpt lat="43.30155593343079090118408203125" lon="-5.0375739298760890960693359375">
        <ele>427.20001220703125</ele>
        <time>2018-09-08T08:49:23.000Z</time>
      </trkpt>
      <trkpt lat="43.30152106471359729766845703125" lon="-5.03746303729712963104248046875">
        <ele>428.399993896484375</ele>
        <time>2018-09-08T08:49:27.000Z</time>
      </trkpt>
      <trkpt lat="43.30147831700742244720458984375" lon="-5.0373709201812744140625">
        <ele>429.20001220703125</ele>
        <time>2018-09-08T08:49:31.000Z</time>
      </trkpt>
      <trkpt lat="43.301470018923282623291015625" lon="-5.03735147416591644287109375">
        <ele>429.399993896484375</ele>
        <time>2018-09-08T08:49:32.000Z</time>
      </trkpt>
      <trkpt lat="43.30143355764448642730712890625" lon="-5.03723689354956150054931640625">
        <ele>430.600006103515625</ele>
        <time>2018-09-08T08:49:37.000Z</time>
      </trkpt>
      <trkpt lat="43.3013893850147724151611328125" lon="-5.0371089018881320953369140625">
        <ele>431.79998779296875</ele>
        <time>2018-09-08T08:49:42.000Z</time>
      </trkpt>
      <trkpt lat="43.30137756653130054473876953125" lon="-5.037090294063091278076171875">
        <ele>432</ele>
        <time>2018-09-08T08:49:43.000Z</time>
      </trkpt>
      <trkpt lat="43.30134454183280467987060546875" lon="-5.03697998821735382080078125">
        <ele>433.20001220703125</ele>
        <time>2018-09-08T08:49:48.000Z</time>
      </trkpt>
      <trkpt lat="43.3013417758047580718994140625" lon="-5.03695710562169551849365234375">
        <ele>433.399993896484375</ele>
        <time>2018-09-08T08:49:49.000Z</time>
      </trkpt>
      <trkpt lat="43.30129877664148807525634765625" lon="-5.03685350529849529266357421875">
        <ele>434.399993896484375</ele>
        <time>2018-09-08T08:49:54.000Z</time>
      </trkpt>
      <trkpt lat="43.30129374749958515167236328125" lon="-5.0368339754641056060791015625">
        <ele>434.600006103515625</ele>
        <time>2018-09-08T08:49:55.000Z</time>
      </trkpt>
      <trkpt lat="43.3012653328478336334228515625" lon="-5.0367551855742931365966796875">
        <ele>435.600006103515625</ele>
        <time>2018-09-08T08:49:59.000Z</time>
      </trkpt>
      <trkpt lat="43.30123507417738437652587890625" lon="-5.03668687306344509124755859375">
        <ele>436.399993896484375</ele>
        <time>2018-09-08T08:50:02.000Z</time>
      </trkpt>
      <trkpt lat="43.301219232380390167236328125" lon="-5.0366452150046825408935546875">
        <ele>436.79998779296875</ele>
        <time>2018-09-08T08:50:04.000Z</time>
      </trkpt>
      <trkpt lat="43.30119366757571697235107421875" lon="-5.03654010593891143798828125">
        <ele>437.79998779296875</ele>
        <time>2018-09-08T08:50:08.000Z</time>
      </trkpt>
      <trkpt lat="43.30118478275835514068603515625" lon="-5.0365147925913333892822265625">
        <ele>438</ele>
        <time>2018-09-08T08:50:09.000Z</time>
      </trkpt>
      <trkpt lat="43.30114656127989292144775390625" lon="-5.03644966520369052886962890625">
        <ele>439</ele>
        <time>2018-09-08T08:50:12.000Z</time>
      </trkpt>
      <trkpt lat="43.30109526403248310089111328125" lon="-5.036370791494846343994140625">
        <ele>439.79998779296875</ele>
        <time>2018-09-08T08:50:15.000Z</time>
      </trkpt>
      <trkpt lat="43.301071040332317352294921875" lon="-5.036361403763294219970703125">
        <ele>440</ele>
        <time>2018-09-08T08:50:16.000Z</time>
      </trkpt>
      <trkpt lat="43.30101110972464084625244140625" lon="-5.0363558717072010040283203125">
        <ele>440.600006103515625</ele>
        <time>2018-09-08T08:50:19.000Z</time>
      </trkpt>
      <trkpt lat="43.30098747275769710540771484375" lon="-5.036362744867801666259765625">
        <ele>441</ele>
        <time>2018-09-08T08:50:20.000Z</time>
      </trkpt>
      <trkpt lat="43.3009619079530239105224609375" lon="-5.03637540154159069061279296875">
        <ele>441.20001220703125</ele>
        <time>2018-09-08T08:50:21.000Z</time>
      </trkpt>
      <trkpt lat="43.3008821122348308563232421875" lon="-5.036461316049098968505859375">
        <ele>442.20001220703125</ele>
        <time>2018-09-08T08:50:26.000Z</time>
      </trkpt>
      <trkpt lat="43.300800137221813201904296875" lon="-5.0365768186748027801513671875">
        <ele>443.20001220703125</ele>
        <time>2018-09-08T08:50:32.000Z</time>
      </trkpt>
      <trkpt lat="43.3007816970348358154296875" lon="-5.03659886308014392852783203125">
        <ele>443.399993896484375</ele>
        <time>2018-09-08T08:50:33.000Z</time>
      </trkpt>
      <trkpt lat="43.30071556381881237030029296875" lon="-5.03669693134725093841552734375">
        <ele>444.399993896484375</ele>
        <time>2018-09-08T08:50:37.000Z</time>
      </trkpt>
      <trkpt lat="43.3006866462528705596923828125" lon="-5.0367481447756290435791015625">
        <ele>444.79998779296875</ele>
        <time>2018-09-08T08:50:39.000Z</time>
      </trkpt>
      <trkpt lat="43.30064482055604457855224609375" lon="-5.03683439455926418304443359375">
        <ele>445.399993896484375</ele>
        <time>2018-09-08T08:50:42.000Z</time>
      </trkpt>
      <trkpt lat="43.30058044753968715667724609375" lon="-5.036994405090808868408203125">
        <ele>446.20001220703125</ele>
        <time>2018-09-08T08:50:47.000Z</time>
      </trkpt>
      <trkpt lat="43.30056988634169101715087890625" lon="-5.03703170455992221832275390625">
        <ele>446.399993896484375</ele>
        <time>2018-09-08T08:50:48.000Z</time>
      </trkpt>
      <trkpt lat="43.3005429804325103759765625" lon="-5.037169754505157470703125">
        <ele>447.20001220703125</ele>
        <time>2018-09-08T08:50:52.000Z</time>
      </trkpt>
      <trkpt lat="43.300521187484264373779296875" lon="-5.03733462654054164886474609375">
        <ele>447.600006103515625</ele>
        <time>2018-09-08T08:50:57.000Z</time>
      </trkpt>
      <trkpt lat="43.30051221884787082672119140625" lon="-5.037430934607982635498046875">
        <ele>448.20001220703125</ele>
        <time>2018-09-08T08:51:00.000Z</time>
      </trkpt>
      <trkpt lat="43.3004573173820972442626953125" lon="-5.03754970617592334747314453125">
        <ele>448.600006103515625</ele>
        <time>2018-09-08T08:51:04.000Z</time>
      </trkpt>
      <trkpt lat="43.30043728463351726531982421875" lon="-5.03756881691515445709228515625">
        <ele>448.79998779296875</ele>
        <time>2018-09-08T08:51:05.000Z</time>
      </trkpt>
      <trkpt lat="43.30037140287458896636962890625" lon="-5.0375910289585590362548828125">
        <ele>449.399993896484375</ele>
        <time>2018-09-08T08:51:09.000Z</time>
      </trkpt>
      <trkpt lat="43.30036201514303684234619140625" lon="-5.0375752709805965423583984375">
        <ele>449.600006103515625</ele>
        <time>2018-09-08T08:51:10.000Z</time>
      </trkpt>
      <trkpt lat="43.30035187304019927978515625" lon="-5.03755657933652400970458984375">
        <ele>449.600006103515625</ele>
        <time>2018-09-08T08:51:11.000Z</time>
      </trkpt>
      <trkpt lat="43.30033536069095134735107421875" lon="-5.037444345653057098388671875">
        <ele>450.20001220703125</ele>
        <time>2018-09-08T08:51:15.000Z</time>
      </trkpt>
      <trkpt lat="43.3003426529467105865478515625" lon="-5.0373737700283527374267578125">
        <ele>450.79998779296875</ele>
        <time>2018-09-08T08:51:18.000Z</time>
      </trkpt>
      <trkpt lat="43.300360925495624542236328125" lon="-5.03728232346475124359130859375">
        <ele>451.399993896484375</ele>
        <time>2018-09-08T08:51:21.000Z</time>
      </trkpt>
      <trkpt lat="43.3003721572458744049072265625" lon="-5.0372212193906307220458984375">
        <ele>452</ele>
        <time>2018-09-08T08:51:23.000Z</time>
      </trkpt>
      <trkpt lat="43.300386406481266021728515625" lon="-5.03710563294589519500732421875">
        <ele>453</ele>
        <time>2018-09-08T08:51:27.000Z</time>
      </trkpt>
      <trkpt lat="43.30038431100547313690185546875" lon="-5.0370772182941436767578125">
        <ele>453.399993896484375</ele>
        <time>2018-09-08T08:51:28.000Z</time>
      </trkpt>
      <trkpt lat="43.30039068125188350677490234375" lon="-5.03695777617394924163818359375">
        <ele>454.20001220703125</ele>
        <time>2018-09-08T08:51:32.000Z</time>
      </trkpt>
      <trkpt lat="43.3003922738134860992431640625" lon="-5.03686876036226749420166015625">
        <ele>454.79998779296875</ele>
        <time>2018-09-08T08:51:35.000Z</time>
      </trkpt>
      <trkpt lat="43.30038732849061489105224609375" lon="-5.03681880421936511993408203125">
        <ele>455.399993896484375</ele>
        <time>2018-09-08T08:51:37.000Z</time>
      </trkpt>
      <trkpt lat="43.30036461353302001953125" lon="-5.03668670542538166046142578125">
        <ele>456.399993896484375</ele>
        <time>2018-09-08T08:51:42.000Z</time>
      </trkpt>
      <trkpt lat="43.30031624995172023773193359375" lon="-5.036565922200679779052734375">
        <ele>457.399993896484375</ele>
        <time>2018-09-08T08:51:47.000Z</time>
      </trkpt>
      <trkpt lat="43.3003054372966289520263671875" lon="-5.03654169850051403045654296875">
        <ele>457.79998779296875</ele>
        <time>2018-09-08T08:51:48.000Z</time>
      </trkpt>
      <trkpt lat="43.30026805400848388671875" lon="-5.03638948313891887664794921875">
        <ele>458.79998779296875</ele>
        <time>2018-09-08T08:51:53.000Z</time>
      </trkpt>
      <trkpt lat="43.30024986527860164642333984375" lon="-5.036355368793010711669921875">
        <ele>459</ele>
        <time>2018-09-08T08:51:54.000Z</time>
      </trkpt>
      <trkpt lat="43.30018767155706882476806640625" lon="-5.036187730729579925537109375">
        <ele>460.20001220703125</ele>
        <time>2018-09-08T08:51:59.000Z</time>
      </trkpt>
      <trkpt lat="43.30013235099613666534423828125" lon="-5.03598128445446491241455078125">
        <ele>461.20001220703125</ele>
        <time>2018-09-08T08:52:05.000Z</time>
      </trkpt>
      <trkpt lat="43.3001173473894596099853515625" lon="-5.03592160530388355255126953125">
        <ele>461.79998779296875</ele>
        <time>2018-09-08T08:52:07.000Z</time>
      </trkpt>
      <trkpt lat="43.30010955221951007843017578125" lon="-5.0358335115015506744384765625">
        <ele>462.399993896484375</ele>
        <time>2018-09-08T08:52:10.000Z</time>
      </trkpt>
      <trkpt lat="43.3000818081200122833251953125" lon="-5.035690851509571075439453125">
        <ele>463.600006103515625</ele>
        <time>2018-09-08T08:52:14.000Z</time>
      </trkpt>
      <trkpt lat="43.300040401518344879150390625" lon="-5.03549404442310333251953125">
        <ele>464.600006103515625</ele>
        <time>2018-09-08T08:52:20.000Z</time>
      </trkpt>
      <trkpt lat="43.30003176815807819366455078125" lon="-5.03540460951626300811767578125">
        <ele>465.399993896484375</ele>
        <time>2018-09-08T08:52:23.000Z</time>
      </trkpt>
      <trkpt lat="43.3000248111784458160400390625" lon="-5.0353450141847133636474609375">
        <ele>465.79998779296875</ele>
        <time>2018-09-08T08:52:25.000Z</time>
      </trkpt>
      <trkpt lat="43.29999086447060108184814453125" lon="-5.03523789346218109130859375">
        <ele>466.399993896484375</ele>
        <time>2018-09-08T08:52:29.000Z</time>
      </trkpt>
      <trkpt lat="43.29998306930065155029296875" lon="-5.03516840748488903045654296875">
        <ele>466.79998779296875</ele>
        <time>2018-09-08T08:52:31.000Z</time>
      </trkpt>
      <trkpt lat="43.29996521584689617156982421875" lon="-5.03503463231027126312255859375">
        <ele>467.399993896484375</ele>
        <time>2018-09-08T08:52:35.000Z</time>
      </trkpt>
      <trkpt lat="43.29995985142886638641357421875" lon="-5.03500244580209255218505859375">
        <ele>467.79998779296875</ele>
        <time>2018-09-08T08:52:36.000Z</time>
      </trkpt>
      <trkpt lat="43.29990939237177371978759765625" lon="-5.03481812775135040283203125">
        <ele>469</ele>
        <time>2018-09-08T08:52:42.000Z</time>
      </trkpt>
      <trkpt lat="43.29989128746092319488525390625" lon="-5.034725926816463470458984375">
        <ele>469.399993896484375</ele>
        <time>2018-09-08T08:52:45.000Z</time>
      </trkpt>
      <trkpt lat="43.29987720586359500885009765625" lon="-5.03467152826488018035888671875">
        <ele>470</ele>
        <time>2018-09-08T08:52:47.000Z</time>
      </trkpt>
      <trkpt lat="43.29986681230366230010986328125" lon="-5.0346429459750652313232421875">
        <ele>470.20001220703125</ele>
        <time>2018-09-08T08:52:48.000Z</time>
      </trkpt>
      <trkpt lat="43.29985859803855419158935546875" lon="-5.0346157886087894439697265625">
        <ele>470.399993896484375</ele>
        <time>2018-09-08T08:52:49.000Z</time>
      </trkpt>
      <trkpt lat="43.2998353801667690277099609375" lon="-5.03453758545219898223876953125">
        <ele>471</ele>
        <time>2018-09-08T08:52:52.000Z</time>
      </trkpt>
      <trkpt lat="43.2998135872185230255126953125" lon="-5.03442392684519290924072265625">
        <ele>471.79998779296875</ele>
        <time>2018-09-08T08:52:56.000Z</time>
      </trkpt>
      <trkpt lat="43.29979539848864078521728515625" lon="-5.03436307422816753387451171875">
        <ele>472</ele>
        <time>2018-09-08T08:52:58.000Z</time>
      </trkpt>
      <trkpt lat="43.2997512258589267730712890625" lon="-5.03425645641982555389404296875">
        <ele>473</ele>
        <time>2018-09-08T08:53:02.000Z</time>
      </trkpt>
      <trkpt lat="43.2997394911944866180419921875" lon="-5.034201554954051971435546875">
        <ele>473.399993896484375</ele>
        <time>2018-09-08T08:53:04.000Z</time>
      </trkpt>
      <trkpt lat="43.2997123338282108306884765625" lon="-5.034103654325008392333984375">
        <ele>474.20001220703125</ele>
        <time>2018-09-08T08:53:08.000Z</time>
      </trkpt>
      <trkpt lat="43.29968358390033245086669921875" lon="-5.0340293906629085540771484375">
        <ele>474.600006103515625</ele>
        <time>2018-09-08T08:53:11.000Z</time>
      </trkpt>
      <trkpt lat="43.2996590249240398406982421875" lon="-5.0339606590569019317626953125">
        <ele>475.20001220703125</ele>
        <time>2018-09-08T08:53:14.000Z</time>
      </trkpt>
      <trkpt lat="43.29961921088397502899169921875" lon="-5.03386384807527065277099609375">
        <ele>476</ele>
        <time>2018-09-08T08:53:18.000Z</time>
      </trkpt>
      <trkpt lat="43.29960043542087078094482421875" lon="-5.03380953334271907806396484375">
        <ele>476.20001220703125</ele>
        <time>2018-09-08T08:53:20.000Z</time>
      </trkpt>
      <trkpt lat="43.2995651476085186004638671875" lon="-5.03366435877978801727294921875">
        <ele>477.399993896484375</ele>
        <time>2018-09-08T08:53:25.000Z</time>
      </trkpt>
      <trkpt lat="43.29956187866628170013427734375" lon="-5.0336327590048313140869140625">
        <ele>477.600006103515625</ele>
        <time>2018-09-08T08:53:26.000Z</time>
      </trkpt>
      <trkpt lat="43.29955165274441242218017578125" lon="-5.0335177592933177947998046875">
        <ele>478.399993896484375</ele>
        <time>2018-09-08T08:53:30.000Z</time>
      </trkpt>
      <trkpt lat="43.2995406724512577056884765625" lon="-5.03345833159983158111572265625">
        <ele>478.79998779296875</ele>
        <time>2018-09-08T08:53:32.000Z</time>
      </trkpt>
      <trkpt lat="43.29951879568397998809814453125" lon="-5.03333218395709991455078125">
        <ele>479.600006103515625</ele>
        <time>2018-09-08T08:53:36.000Z</time>
      </trkpt>
      <trkpt lat="43.29953170381486415863037109375" lon="-5.03320343792438507080078125">
        <ele>480.20001220703125</ele>
        <time>2018-09-08T08:53:40.000Z</time>
      </trkpt>
      <trkpt lat="43.29955215565860271453857421875" lon="-5.03314753063023090362548828125">
        <ele>480.79998779296875</ele>
        <time>2018-09-08T08:53:42.000Z</time>
      </trkpt>
      <trkpt lat="43.29966363497078418731689453125" lon="-5.0330242328345775604248046875">
        <ele>481.79998779296875</ele>
        <time>2018-09-08T08:53:48.000Z</time>
      </trkpt>
      <trkpt lat="43.299765475094318389892578125" lon="-5.03297218121588230133056640625">
        <ele>482.79998779296875</ele>
        <time>2018-09-08T08:53:53.000Z</time>
      </trkpt>
      <trkpt lat="43.299821130931377410888671875" lon="-5.03296027891337871551513671875">
        <ele>483</ele>
        <time>2018-09-08T08:53:55.000Z</time>
      </trkpt>
      <trkpt lat="43.29993906430900096893310546875" lon="-5.0329680740833282470703125">
        <ele>484</ele>
        <time>2018-09-08T08:53:59.000Z</time>
      </trkpt>
      <trkpt lat="43.30004970543086528778076171875" lon="-5.0329846702516078948974609375">
        <ele>484.79998779296875</ele>
        <time>2018-09-08T08:54:03.000Z</time>
      </trkpt>
      <trkpt lat="43.30007334239780902862548828125" lon="-5.0329880230128765106201171875">
        <ele>485</ele>
        <time>2018-09-08T08:54:04.000Z</time>
      </trkpt>
      <trkpt lat="43.30020703375339508056640625" lon="-5.0330409966409206390380859375">
        <ele>486.20001220703125</ele>
        <time>2018-09-08T08:54:09.000Z</time>
      </trkpt>
      <trkpt lat="43.3002313412725925445556640625" lon="-5.03305532969534397125244140625">
        <ele>486.399993896484375</ele>
        <time>2018-09-08T08:54:10.000Z</time>
      </trkpt>
      <trkpt lat="43.30033242702484130859375" lon="-5.0331060402095317840576171875">
        <ele>487.399993896484375</ele>
        <time>2018-09-08T08:54:14.000Z</time>
      </trkpt>
      <trkpt lat="43.300418592989444732666015625" lon="-5.03316362388432025909423828125">
        <ele>488</ele>
        <time>2018-09-08T08:54:17.000Z</time>
      </trkpt>
      <trkpt lat="43.30047701485455036163330078125" lon="-5.03320477902889251708984375">
        <ele>488.399993896484375</ele>
        <time>2018-09-08T08:54:19.000Z</time>
      </trkpt>
      <trkpt lat="43.3006474189460277557373046875" lon="-5.033333860337734222412109375">
        <ele>489.20001220703125</ele>
        <time>2018-09-08T08:54:25.000Z</time>
      </trkpt>
      <trkpt lat="43.30070617608726024627685546875" lon="-5.0333769433200359344482421875">
        <ele>489.399993896484375</ele>
        <time>2018-09-08T08:54:27.000Z</time>
      </trkpt>
      <trkpt lat="43.30088839866220951080322265625" lon="-5.0334805436432361602783203125">
        <ele>490.20001220703125</ele>
        <time>2018-09-08T08:54:33.000Z</time>
      </trkpt>
      <trkpt lat="43.3009156398475170135498046875" lon="-5.03349353559315204620361328125">
        <ele>490.399993896484375</ele>
        <time>2018-09-08T08:54:34.000Z</time>
      </trkpt>
      <trkpt lat="43.3009444735944271087646484375" lon="-5.03351323306560516357421875">
        <ele>490.600006103515625</ele>
        <time>2018-09-08T08:54:35.000Z</time>
      </trkpt>
      <trkpt lat="43.3010225929319858551025390625" lon="-5.0336009077727794647216796875">
        <ele>491.20001220703125</ele>
        <time>2018-09-08T08:54:39.000Z</time>
      </trkpt>
      <trkpt lat="43.301070369780063629150390625" lon="-5.03365832380950450897216796875">
        <ele>491.600006103515625</ele>
        <time>2018-09-08T08:54:42.000Z</time>
      </trkpt>
      <trkpt lat="43.3011429570615291595458984375" lon="-5.03370693884789943695068359375">
        <ele>491.79998779296875</ele>
        <time>2018-09-08T08:54:44.000Z</time>
      </trkpt>
      <trkpt lat="43.30142609775066375732421875" lon="-5.03390072844922542572021484375">
        <ele>492.600006103515625</ele>
        <time>2018-09-08T08:54:52.000Z</time>
      </trkpt>
      <trkpt lat="43.3015218190848827362060546875" lon="-5.034011118113994598388671875">
        <ele>493</ele>
        <time>2018-09-08T08:54:56.000Z</time>
      </trkpt>
      <trkpt lat="43.301558196544647216796875" lon="-5.034076161682605743408203125">
        <ele>493.20001220703125</ele>
        <time>2018-09-08T08:54:58.000Z</time>
      </trkpt>
      <trkpt lat="43.301631622016429901123046875" lon="-5.0341455638408660888671875">
        <ele>493.600006103515625</ele>
        <time>2018-09-08T08:55:01.000Z</time>
      </trkpt>
      <trkpt lat="43.30172994174063205718994140625" lon="-5.03417716361582279205322265625">
        <ele>493.79998779296875</ele>
        <time>2018-09-08T08:55:04.000Z</time>
      </trkpt>
      <trkpt lat="43.301778472959995269775390625" lon="-5.03406182862818241119384765625">
        <ele>494.79998779296875</ele>
        <time>2018-09-08T08:55:07.000Z</time>
      </trkpt>
      <trkpt lat="43.30172457732260227203369140625" lon="-5.03396795131266117095947265625">
        <ele>495.79998779296875</ele>
        <time>2018-09-08T08:55:10.000Z</time>
      </trkpt>
      <trkpt lat="43.3017008565366268157958984375" lon="-5.033946745097637176513671875">
        <ele>496</ele>
        <time>2018-09-08T08:55:11.000Z</time>
      </trkpt>
      <trkpt lat="43.3016757108271121978759765625" lon="-5.033922605216503143310546875">
        <ele>496.399993896484375</ele>
        <time>2018-09-08T08:55:12.000Z</time>
      </trkpt>
      <trkpt lat="43.30160178244113922119140625" lon="-5.03385278396308422088623046875">
        <ele>497.399993896484375</ele>
        <time>2018-09-08T08:55:15.000Z</time>
      </trkpt>
      <trkpt lat="43.30156624317169189453125" lon="-5.03379712812602519989013671875">
        <ele>498</ele>
        <time>2018-09-08T08:55:17.000Z</time>
      </trkpt>
      <trkpt lat="43.30152793787419795989990234375" lon="-5.03375303931534290313720703125">
        <ele>498.600006103515625</ele>
        <time>2018-09-08T08:55:19.000Z</time>
      </trkpt>
      <trkpt lat="43.3014644868671894073486328125" lon="-5.0336756743490695953369140625">
        <ele>499.79998779296875</ele>
        <time>2018-09-08T08:55:23.000Z</time>
      </trkpt>
      <trkpt lat="43.30140522681176662445068359375" lon="-5.03359026275575160980224609375">
        <ele>501</ele>
        <time>2018-09-08T08:55:27.000Z</time>
      </trkpt>
      <trkpt lat="43.301345296204090118408203125" lon="-5.03354047425091266632080078125">
        <ele>501.600006103515625</ele>
        <time>2018-09-08T08:55:30.000Z</time>
      </trkpt>
      <trkpt lat="43.30131486989557743072509765625" lon="-5.03349940292537212371826171875">
        <ele>502.20001220703125</ele>
        <time>2018-09-08T08:55:32.000Z</time>
      </trkpt>
      <trkpt lat="43.30125267617404460906982421875" lon="-5.03342203795909881591796875">
        <ele>503.20001220703125</ele>
        <time>2018-09-08T08:55:36.000Z</time>
      </trkpt>
      <trkpt lat="43.30122635699808597564697265625" lon="-5.03338440321385860443115234375">
        <ele>503.600006103515625</ele>
        <time>2018-09-08T08:55:38.000Z</time>
      </trkpt>
      <trkpt lat="43.30119031481444835662841796875" lon="-5.033314414322376251220703125">
        <ele>504.20001220703125</ele>
        <time>2018-09-08T08:55:41.000Z</time>
      </trkpt>
      <trkpt lat="43.3011369220912456512451171875" lon="-5.03319798968732357025146484375">
        <ele>505</ele>
        <time>2018-09-08T08:55:46.000Z</time>
      </trkpt>
      <trkpt lat="43.30112778581678867340087890625" lon="-5.03317770548164844512939453125">
        <ele>505.20001220703125</ele>
        <time>2018-09-08T08:55:47.000Z</time>
      </trkpt>
      <trkpt lat="43.30107112415134906768798828125" lon="-5.03306664526462554931640625">
        <ele>506.399993896484375</ele>
        <time>2018-09-08T08:55:52.000Z</time>
      </trkpt>
      <trkpt lat="43.30106123350560665130615234375" lon="-5.0330426730215549468994140625">
        <ele>506.399993896484375</ele>
        <time>2018-09-08T08:55:53.000Z</time>
      </trkpt>
      <trkpt lat="43.3010309748351573944091796875" lon="-5.032908059656620025634765625">
        <ele>507.399993896484375</ele>
        <time>2018-09-08T08:55:58.000Z</time>
      </trkpt>
      <trkpt lat="43.3010225929319858551025390625" lon="-5.03288090229034423828125">
        <ele>507.600006103515625</ele>
        <time>2018-09-08T08:55:59.000Z</time>
      </trkpt>
      <trkpt lat="43.30096836201846599578857421875" lon="-5.0327841751277446746826171875">
        <ele>508.600006103515625</ele>
        <time>2018-09-08T08:56:04.000Z</time>
      </trkpt>
      <trkpt lat="43.30096098594367504119873046875" lon="-5.032757185399532318115234375">
        <ele>508.600006103515625</ele>
        <time>2018-09-08T08:56:05.000Z</time>
      </trkpt>
      <trkpt lat="43.300935588777065277099609375" lon="-5.0326842628419399261474609375">
        <ele>509.600006103515625</ele>
        <time>2018-09-08T08:56:08.000Z</time>
      </trkpt>
      <trkpt lat="43.30092242918908596038818359375" lon="-5.03258292563259601593017578125">
        <ele>510.399993896484375</ele>
        <time>2018-09-08T08:56:12.000Z</time>
      </trkpt>
      <trkpt lat="43.3009189926087856292724609375" lon="-5.0325535051524639129638671875">
        <ele>510.79998779296875</ele>
        <time>2018-09-08T08:56:13.000Z</time>
      </trkpt>
      <trkpt lat="43.30088722519576549530029296875" lon="-5.032442696392536163330078125">
        <ele>512</ele>
        <time>2018-09-08T08:56:18.000Z</time>
      </trkpt>
      <trkpt lat="43.30083458684384822845458984375" lon="-5.032339431345462799072265625">
        <ele>513.20001220703125</ele>
        <time>2018-09-08T08:56:23.000Z</time>
      </trkpt>
      <trkpt lat="43.3008170686662197113037109375" lon="-5.0322948396205902099609375">
        <ele>513.4000244140625</ele>
        <time>2018-09-08T08:56:25.000Z</time>
      </trkpt>
      <trkpt lat="43.300759904086589813232421875" lon="-5.0321813486516475677490234375">
        <ele>514.4000244140625</ele>
        <time>2018-09-08T08:56:30.000Z</time>
      </trkpt>
      <trkpt lat="43.3007070980966091156005859375" lon="-5.03203273750841617584228515625">
        <ele>515.5999755859375</ele>
        <time>2018-09-08T08:56:36.000Z</time>
      </trkpt>
      <trkpt lat="43.3006816171109676361083984375" lon="-5.03199233673512935638427734375">
        <ele>516.20001220703125</ele>
        <time>2018-09-08T08:56:38.000Z</time>
      </trkpt>
      <trkpt lat="43.30065353773534297943115234375" lon="-5.03191187046468257904052734375">
        <ele>516.79998779296875</ele>
        <time>2018-09-08T08:56:41.000Z</time>
      </trkpt>
      <trkpt lat="43.3006395399570465087890625" lon="-5.03182168118655681610107421875">
        <ele>517.4000244140625</ele>
        <time>2018-09-08T08:56:44.000Z</time>
      </trkpt>
      <trkpt lat="43.30063375644385814666748046875" lon="-5.03177055157721042633056640625">
        <ele>518</ele>
        <time>2018-09-08T08:56:46.000Z</time>
      </trkpt>
      <trkpt lat="43.30064029432833194732666015625" lon="-5.03162956796586513519287109375">
        <ele>519.20001220703125</ele>
        <time>2018-09-08T08:56:51.000Z</time>
      </trkpt>
      <trkpt lat="43.30064113251864910125732421875" lon="-5.03160039894282817840576171875">
        <ele>519.4000244140625</ele>
        <time>2018-09-08T08:56:52.000Z</time>
      </trkpt>
      <trkpt lat="43.3006444014608860015869140625" lon="-5.0314910151064395904541015625">
        <ele>520.20001220703125</ele>
        <time>2018-09-08T08:56:56.000Z</time>
      </trkpt>
      <trkpt lat="43.30064549110829830169677734375" lon="-5.0314360298216342926025390625">
        <ele>520.4000244140625</ele>
        <time>2018-09-08T08:56:58.000Z</time>
      </trkpt>
      <trkpt lat="43.3006356842815876007080078125" lon="-5.03134978003799915313720703125">
        <ele>521.4000244140625</ele>
        <time>2018-09-08T08:57:01.000Z</time>
      </trkpt>
      <trkpt lat="43.3006115444004535675048828125" lon="-5.03125489689409732818603515625">
        <ele>522.20001220703125</ele>
        <time>2018-09-08T08:57:05.000Z</time>
      </trkpt>
      <trkpt lat="43.30059553496539592742919921875" lon="-5.03121994435787200927734375">
        <ele>522.4000244140625</ele>
        <time>2018-09-08T08:57:07.000Z</time>
      </trkpt>
      <trkpt lat="43.3005605824291706085205078125" lon="-5.0311361253261566162109375">
        <ele>523.20001220703125</ele>
        <time>2018-09-08T08:57:11.000Z</time>
      </trkpt>
      <trkpt lat="43.30053937621414661407470703125" lon="-5.03109656274318695068359375">
        <ele>523.4000244140625</ele>
        <time>2018-09-08T08:57:13.000Z</time>
      </trkpt>
      <trkpt lat="43.30049000680446624755859375" lon="-5.0309592671692371368408203125">
        <ele>524.5999755859375</ele>
        <time>2018-09-08T08:57:18.000Z</time>
      </trkpt>
      <trkpt lat="43.3004303276538848876953125" lon="-5.0308228097856044769287109375">
        <ele>525.5999755859375</ele>
        <time>2018-09-08T08:57:24.000Z</time>
      </trkpt>
      <trkpt lat="43.3004197664558887481689453125" lon="-5.030790455639362335205078125">
        <ele>526</ele>
        <time>2018-09-08T08:57:25.000Z</time>
      </trkpt>
      <trkpt lat="43.30037911422550678253173828125" lon="-5.0306883640587329864501953125">
        <ele>526.79998779296875</ele>
        <time>2018-09-08T08:57:29.000Z</time>
      </trkpt>
      <trkpt lat="43.300336115062236785888671875" lon="-5.03060865215957164764404296875">
        <ele>527.5999755859375</ele>
        <time>2018-09-08T08:57:33.000Z</time>
      </trkpt>
      <trkpt lat="43.30033033154904842376708984375" lon="-5.03058099187910556793212890625">
        <ele>527.79998779296875</ele>
        <time>2018-09-08T08:57:34.000Z</time>
      </trkpt>
      <trkpt lat="43.30027534626424312591552734375" lon="-5.03044738434255123138427734375">
        <ele>528.79998779296875</ele>
        <time>2018-09-08T08:57:39.000Z</time>
      </trkpt>
      <trkpt lat="43.30025958828628063201904296875" lon="-5.03042324446141719818115234375">
        <ele>529.20001220703125</ele>
        <time>2018-09-08T08:57:40.000Z</time>
      </trkpt>
      <trkpt lat="43.30020275898277759552001953125" lon="-5.030359961092472076416015625">
        <ele>530</ele>
        <time>2018-09-08T08:57:44.000Z</time>
      </trkpt>
      <trkpt lat="43.300157077610492706298828125" lon="-5.03033406101167201995849609375">
        <ele>530.20001220703125</ele>
        <time>2018-09-08T08:57:46.000Z</time>
      </trkpt>
      <trkpt lat="43.30007686279714107513427734375" lon="-5.03030304796993732452392578125">
        <ele>531.20001220703125</ele>
        <time>2018-09-08T08:57:49.000Z</time>
      </trkpt>
      <trkpt lat="43.299972005188465118408203125" lon="-5.03028460778295993804931640625">
        <ele>532.4000244140625</ele>
        <time>2018-09-08T08:57:53.000Z</time>
      </trkpt>
      <trkpt lat="43.29990662634372711181640625" lon="-5.0302858650684356689453125">
        <ele>533.20001220703125</ele>
        <time>2018-09-08T08:57:56.000Z</time>
      </trkpt>
      <trkpt lat="43.299883492290973663330078125" lon="-5.030284859240055084228515625">
        <ele>533.4000244140625</ele>
        <time>2018-09-08T08:57:57.000Z</time>
      </trkpt>
      <trkpt lat="43.29978785477578639984130859375" lon="-5.03024303354322910308837890625">
        <ele>534.4000244140625</ele>
        <time>2018-09-08T08:58:01.000Z</time>
      </trkpt>
      <trkpt lat="43.29976321198046207427978515625" lon="-5.0302364118397235870361328125">
        <ele>534.5999755859375</ele>
        <time>2018-09-08T08:58:02.000Z</time>
      </trkpt>
      <trkpt lat="43.29968073405325412750244140625" lon="-5.030184276401996612548828125">
        <ele>535.79998779296875</ele>
        <time>2018-09-08T08:58:06.000Z</time>
      </trkpt>
      <trkpt lat="43.2996630482375621795654296875" lon="-5.03016256727278232574462890625">
        <ele>535.79998779296875</ele>
        <time>2018-09-08T08:58:07.000Z</time>
      </trkpt>
      <trkpt lat="43.29959289170801639556884765625" lon="-5.03008402884006500244140625">
        <ele>537</ele>
        <time>2018-09-08T08:58:11.000Z</time>
      </trkpt>
      <trkpt lat="43.2995594479143619537353515625" lon="-5.03004203550517559051513671875">
        <ele>537.5999755859375</ele>
        <time>2018-09-08T08:58:13.000Z</time>
      </trkpt>
      <trkpt lat="43.29951091669499874114990234375" lon="-5.02999325282871723175048828125">
        <ele>538.20001220703125</ele>
        <time>2018-09-08T08:58:16.000Z</time>
      </trkpt>
      <trkpt lat="43.29944402910768985748291015625" lon="-5.029911361634731292724609375">
        <ele>539</ele>
        <time>2018-09-08T08:58:21.000Z</time>
      </trkpt>
      <trkpt lat="43.29943078570067882537841796875" lon="-5.02989451400935649871826171875">
        <ele>539.20001220703125</ele>
        <time>2018-09-08T08:58:22.000Z</time>
      </trkpt>
      <trkpt lat="43.29935585148632526397705078125" lon="-5.0298025645315647125244140625">
        <ele>540.4000244140625</ele>
        <time>2018-09-08T08:58:28.000Z</time>
      </trkpt>
      <trkpt lat="43.29934260807931423187255859375" lon="-5.0297884829342365264892578125">
        <ele>540.79998779296875</ele>
        <time>2018-09-08T08:58:29.000Z</time>
      </trkpt>
      <trkpt lat="43.299273289740085601806640625" lon="-5.02971011213958263397216796875">
        <ele>541.5999755859375</ele>
        <time>2018-09-08T08:58:34.000Z</time>
      </trkpt>
      <trkpt lat="43.299230039119720458984375" lon="-5.02966568805277347564697265625">
        <ele>542.4000244140625</ele>
        <time>2018-09-08T08:58:37.000Z</time>
      </trkpt>
      <trkpt lat="43.299202881753444671630859375" lon="-5.02962998114526271820068359375">
        <ele>542.5999755859375</ele>
        <time>2018-09-08T08:58:39.000Z</time>
      </trkpt>
      <trkpt lat="43.299133479595184326171875" lon="-5.02954515628516674041748046875">
        <ele>543.20001220703125</ele>
        <time>2018-09-08T08:58:44.000Z</time>
      </trkpt>
      <trkpt lat="43.29910087399184703826904296875" lon="-5.02951246686279773712158203125">
        <ele>544</ele>
        <time>2018-09-08T08:58:46.000Z</time>
      </trkpt>
      <trkpt lat="43.29901152290403842926025390625" lon="-5.02941372804343700408935546875">
        <ele>545.20001220703125</ele>
        <time>2018-09-08T08:58:52.000Z</time>
      </trkpt>
      <trkpt lat="43.29892938025295734405517578125" lon="-5.02931381575763225555419921875">
        <ele>546.4000244140625</ele>
        <time>2018-09-08T08:58:58.000Z</time>
      </trkpt>
      <trkpt lat="43.29889417625963687896728515625" lon="-5.0292654521763324737548828125">
        <ele>547.4000244140625</ele>
        <time>2018-09-08T08:59:01.000Z</time>
      </trkpt>
      <trkpt lat="43.29881739802658557891845703125" lon="-5.029171742498874664306640625">
        <ele>548.4000244140625</ele>
        <time>2018-09-08T08:59:07.000Z</time>
      </trkpt>
      <trkpt lat="43.2988057471811771392822265625" lon="-5.0291544757783412933349609375">
        <ele>548.5999755859375</ele>
        <time>2018-09-08T08:59:08.000Z</time>
      </trkpt>
      <trkpt lat="43.298742212355136871337890625" lon="-5.029066465795040130615234375">
        <ele>549.5999755859375</ele>
        <time>2018-09-08T08:59:13.000Z</time>
      </trkpt>
      <trkpt lat="43.2986961118876934051513671875" lon="-5.02900670282542705535888671875">
        <ele>550.4000244140625</ele>
        <time>2018-09-08T08:59:17.000Z</time>
      </trkpt>
      <trkpt lat="43.29867037944495677947998046875" lon="-5.028981305658817291259765625">
        <ele>550.5999755859375</ele>
        <time>2018-09-08T08:59:19.000Z</time>
      </trkpt>
      <trkpt lat="43.29860885627567768096923828125" lon="-5.0289110653102397918701171875">
        <ele>551.5999755859375</ele>
        <time>2018-09-08T08:59:24.000Z</time>
      </trkpt>
      <trkpt lat="43.29859712161123752593994140625" lon="-5.02889446914196014404296875">
        <ele>552</ele>
        <time>2018-09-08T08:59:25.000Z</time>
      </trkpt>
      <trkpt lat="43.2985824532806873321533203125" lon="-5.02888633869588375091552734375">
        <ele>552.20001220703125</ele>
        <time>2018-09-08T08:59:26.000Z</time>
      </trkpt>
      <trkpt lat="43.2985205948352813720703125" lon="-5.028853900730609893798828125">
        <ele>553.20001220703125</ele>
        <time>2018-09-08T08:59:30.000Z</time>
      </trkpt>
      <trkpt lat="43.2985031604766845703125" lon="-5.0288537330925464630126953125">
        <ele>553.4000244140625</ele>
        <time>2018-09-08T08:59:31.000Z</time>
      </trkpt>
      <trkpt lat="43.29843082465231418609619140625" lon="-5.0288694910705089569091796875">
        <ele>554.20001220703125</ele>
        <time>2018-09-08T08:59:35.000Z</time>
      </trkpt>
      <trkpt lat="43.29837282188236713409423828125" lon="-5.02889304421842098236083984375">
        <ele>554.79998779296875</ele>
        <time>2018-09-08T08:59:38.000Z</time>
      </trkpt>
      <trkpt lat="43.2983417250216007232666015625" lon="-5.02891751937568187713623046875">
        <ele>555.4000244140625</ele>
        <time>2018-09-08T08:59:40.000Z</time>
      </trkpt>
      <trkpt lat="43.29828112386167049407958984375" lon="-5.02900837920606136322021484375">
        <ele>556.20001220703125</ele>
        <time>2018-09-08T08:59:45.000Z</time>
      </trkpt>
      <trkpt lat="43.29826913774013519287109375" lon="-5.0290287472307682037353515625">
        <ele>556.4000244140625</ele>
        <time>2018-09-08T08:59:46.000Z</time>
      </trkpt>
      <trkpt lat="43.298225216567516326904296875" lon="-5.0291554816067218780517578125">
        <ele>557.5999755859375</ele>
        <time>2018-09-08T08:59:51.000Z</time>
      </trkpt>
      <trkpt lat="43.2982059381902217864990234375" lon="-5.0292309187352657318115234375">
        <ele>558</ele>
        <time>2018-09-08T08:59:54.000Z</time>
      </trkpt>
      <trkpt lat="43.29819135367870330810546875" lon="-5.029279030859470367431640625">
        <ele>558.5999755859375</ele>
        <time>2018-09-08T08:59:56.000Z</time>
      </trkpt>
      <trkpt lat="43.29817953519523143768310546875" lon="-5.029301829636096954345703125">
        <ele>558.79998779296875</ele>
        <time>2018-09-08T08:59:57.000Z</time>
      </trkpt>
      <trkpt lat="43.2981284894049167633056640625" lon="-5.02940467558801174163818359375">
        <ele>559.79998779296875</ele>
        <time>2018-09-08T09:00:02.000Z</time>
      </trkpt>
      <trkpt lat="43.29803771339356899261474609375" lon="-5.0294860638678073883056640625">
        <ele>560.79998779296875</ele>
        <time>2018-09-08T09:00:08.000Z</time>
      </trkpt>
      <trkpt lat="43.29802036285400390625" lon="-5.02949603833258152008056640625">
        <ele>561</ele>
        <time>2018-09-08T09:00:09.000Z</time>
      </trkpt>
      <trkpt lat="43.297955989837646484375" lon="-5.02950911410152912139892578125">
        <ele>562</ele>
        <time>2018-09-08T09:00:13.000Z</time>
      </trkpt>
      <trkpt lat="43.29791030846536159515380859375" lon="-5.029505677521228790283203125">
        <ele>562.4000244140625</ele>
        <time>2018-09-08T09:00:15.000Z</time>
      </trkpt>
      <trkpt lat="43.29784694127738475799560546875" lon="-5.0295028276741504669189453125">
        <ele>563</ele>
        <time>2018-09-08T09:00:18.000Z</time>
      </trkpt>
      <trkpt lat="43.2977821491658687591552734375" lon="-5.0294977985322475433349609375">
        <ele>563.79998779296875</ele>
        <time>2018-09-08T09:00:21.000Z</time>
      </trkpt>
      <trkpt lat="43.2977365516126155853271484375" lon="-5.02949251793324947357177734375">
        <ele>564.20001220703125</ele>
        <time>2018-09-08T09:00:23.000Z</time>
      </trkpt>
      <trkpt lat="43.2976352982223033905029296875" lon="-5.02951079048216342926025390625">
        <ele>565.20001220703125</ele>
        <time>2018-09-08T09:00:27.000Z</time>
      </trkpt>
      <trkpt lat="43.29761291854083538055419921875" lon="-5.02951162867248058319091796875">
        <ele>565.4000244140625</ele>
        <time>2018-09-08T09:00:28.000Z</time>
      </trkpt>
      <trkpt lat="43.297470510005950927734375" lon="-5.02956175245344638824462890625">
        <ele>566.5999755859375</ele>
        <time>2018-09-08T09:00:34.000Z</time>
      </trkpt>
      <trkpt lat="43.297356851398944854736328125" lon="-5.0296097807586193084716796875">
        <ele>567.79998779296875</ele>
        <time>2018-09-08T09:00:39.000Z</time>
      </trkpt>
      <trkpt lat="43.29731016419827938079833984375" lon="-5.0296228565275669097900390625">
        <ele>568.20001220703125</ele>
        <time>2018-09-08T09:00:41.000Z</time>
      </trkpt>
      <trkpt lat="43.29721980728209018707275390625" lon="-5.0296461582183837890625">
        <ele>569</ele>
        <time>2018-09-08T09:00:45.000Z</time>
      </trkpt>
      <trkpt lat="43.29710950143635272979736328125" lon="-5.0296520255506038665771484375">
        <ele>570.20001220703125</ele>
        <time>2018-09-08T09:00:50.000Z</time>
      </trkpt>
      <trkpt lat="43.297002799808979034423828125" lon="-5.02959041856229305267333984375">
        <ele>571.20001220703125</ele>
        <time>2018-09-08T09:00:55.000Z</time>
      </trkpt>
      <trkpt lat="43.29698561690747737884521484375" lon="-5.02957214601337909698486328125">
        <ele>571.4000244140625</ele>
        <time>2018-09-08T09:00:56.000Z</time>
      </trkpt>
      <trkpt lat="43.29691453836858272552490234375" lon="-5.02944298088550567626953125">
        <ele>572.5999755859375</ele>
        <time>2018-09-08T09:01:01.000Z</time>
      </trkpt>
      <trkpt lat="43.29690456390380859375" lon="-5.02938170917332172393798828125">
        <ele>573</ele>
        <time>2018-09-08T09:01:03.000Z</time>
      </trkpt>
      <trkpt lat="43.29690179787576198577880859375" lon="-5.0292959623038768768310546875">
        <ele>573.5999755859375</ele>
        <time>2018-09-08T09:01:06.000Z</time>
      </trkpt>
      <trkpt lat="43.2968960143625736236572265625" lon="-5.02917073667049407958984375">
        <ele>574.5999755859375</ele>
        <time>2018-09-08T09:01:10.000Z</time>
      </trkpt>
      <trkpt lat="43.296898864209651947021484375" lon="-5.02913829870522022247314453125">
        <ele>575</ele>
        <time>2018-09-08T09:01:11.000Z</time>
      </trkpt>
      <trkpt lat="43.29692962579429149627685546875" lon="-5.02902363426983356475830078125">
        <ele>576</ele>
        <time>2018-09-08T09:01:15.000Z</time>
      </trkpt>
      <trkpt lat="43.29694437794387340545654296875" lon="-5.02896957099437713623046875">
        <ele>576.4000244140625</ele>
        <time>2018-09-08T09:01:17.000Z</time>
      </trkpt>
      <trkpt lat="43.2969694398343563079833984375" lon="-5.0288926251232624053955078125">
        <ele>577.20001220703125</ele>
        <time>2018-09-08T09:01:20.000Z</time>
      </trkpt>
      <trkpt lat="43.296990059316158294677734375" lon="-5.02881442196667194366455078125">
        <ele>577.5999755859375</ele>
        <time>2018-09-08T09:01:23.000Z</time>
      </trkpt>
      <trkpt lat="43.29700774513185024261474609375" lon="-5.02876647748053073883056640625">
        <ele>578.20001220703125</ele>
        <time>2018-09-08T09:01:25.000Z</time>
      </trkpt>
      <trkpt lat="43.29705267213284969329833984375" lon="-5.028638653457164764404296875">
        <ele>579.4000244140625</ele>
        <time>2018-09-08T09:01:31.000Z</time>
      </trkpt>
      <trkpt lat="43.2971151173114776611328125" lon="-5.02850026823580265045166015625">
        <ele>580.4000244140625</ele>
        <time>2018-09-08T09:01:37.000Z</time>
      </trkpt>
      <trkpt lat="43.29712995328009128570556640625" lon="-5.02844628877937793731689453125">
        <ele>581</ele>
        <time>2018-09-08T09:01:39.000Z</time>
      </trkpt>
      <trkpt lat="43.29715467989444732666015625" lon="-5.02835442312061786651611328125">
        <ele>581.5999755859375</ele>
        <time>2018-09-08T09:01:42.000Z</time>
      </trkpt>
      <trkpt lat="43.29719549976289272308349609375" lon="-5.02828032709658145904541015625">
        <ele>582.20001220703125</ele>
        <time>2018-09-08T09:01:45.000Z</time>
      </trkpt>
      <trkpt lat="43.2972232438623905181884765625" lon="-5.0282351486384868621826171875">
        <ele>582.79998779296875</ele>
        <time>2018-09-08T09:01:47.000Z</time>
      </trkpt>
      <trkpt lat="43.29729876480996608734130859375" lon="-5.0281255133450031280517578125">
        <ele>584</ele>
        <time>2018-09-08T09:01:52.000Z</time>
      </trkpt>
      <trkpt lat="43.29736079089343547821044921875" lon="-5.0280091725289821624755859375">
        <ele>585</ele>
        <time>2018-09-08T09:01:57.000Z</time>
      </trkpt>
      <trkpt lat="43.29737436957657337188720703125" lon="-5.02798360772430896759033203125">
        <ele>585.20001220703125</ele>
        <time>2018-09-08T09:01:58.000Z</time>
      </trkpt>
      <trkpt lat="43.297419883310794830322265625" lon="-5.027903057634830474853515625">
        <ele>586</ele>
        <time>2018-09-08T09:02:01.000Z</time>
      </trkpt>
      <trkpt lat="43.2974381558597087860107421875" lon="-5.02787564881145954132080078125">
        <ele>586.20001220703125</ele>
        <time>2018-09-08T09:02:02.000Z</time>
      </trkpt>
      <trkpt lat="43.29747713170945644378662109375" lon="-5.027795769274234771728515625">
        <ele>586.79998779296875</ele>
        <time>2018-09-08T09:02:05.000Z</time>
      </trkpt>
      <trkpt lat="43.29749071039259433746337890625" lon="-5.02773181535303592681884765625">
        <ele>587.20001220703125</ele>
        <time>2018-09-08T09:02:07.000Z</time>
      </trkpt>
      <trkpt lat="43.29748417250812053680419921875" lon="-5.027671046555042266845703125">
        <ele>587.5999755859375</ele>
        <time>2018-09-08T09:02:09.000Z</time>
      </trkpt>
      <trkpt lat="43.2974753715097904205322265625" lon="-5.02763676457107067108154296875">
        <ele>587.79998779296875</ele>
        <time>2018-09-08T09:02:10.000Z</time>
      </trkpt>
      <trkpt lat="43.2974611222743988037109375" lon="-5.02757406793534755706787109375">
        <ele>588.4000244140625</ele>
        <time>2018-09-08T09:02:12.000Z</time>
      </trkpt>
      <trkpt lat="43.29742667265236377716064453125" lon="-5.02748505212366580963134765625">
        <ele>589.5999755859375</ele>
        <time>2018-09-08T09:02:15.000Z</time>
      </trkpt>
      <trkpt lat="43.29741493798792362213134765625" lon="-5.0274157337844371795654296875">
        <ele>590.20001220703125</ele>
        <time>2018-09-08T09:02:17.000Z</time>
      </trkpt>
      <trkpt lat="43.29740890301764011383056640625" lon="-5.027350522577762603759765625">
        <ele>590.79998779296875</ele>
        <time>2018-09-08T09:02:19.000Z</time>
      </trkpt>
      <trkpt lat="43.297384344041347503662109375" lon="-5.02722236327826976776123046875">
        <ele>591.5999755859375</ele>
        <time>2018-09-08T09:02:23.000Z</time>
      </trkpt>
      <trkpt lat="43.2973835058510303497314453125" lon="-5.027190260589122772216796875">
        <ele>591.79998779296875</ele>
        <time>2018-09-08T09:02:24.000Z</time>
      </trkpt>
      <trkpt lat="43.29739163629710674285888671875" lon="-5.02704617567360401153564453125">
        <ele>593</ele>
        <time>2018-09-08T09:02:29.000Z</time>
      </trkpt>
      <trkpt lat="43.297394402325153350830078125" lon="-5.02698766998946666717529296875">
        <ele>593.20001220703125</ele>
        <time>2018-09-08T09:02:31.000Z</time>
      </trkpt>
      <trkpt lat="43.29739348031580448150634765625" lon="-5.0268739275634288787841796875">
        <ele>594</ele>
        <time>2018-09-08T09:02:35.000Z</time>
      </trkpt>
      <trkpt lat="43.297390043735504150390625" lon="-5.0267706625163555145263671875">
        <ele>595</ele>
        <time>2018-09-08T09:02:39.000Z</time>
      </trkpt>
      <trkpt lat="43.297385014593601226806640625" lon="-5.0267441757023334503173828125">
        <ele>595.20001220703125</ele>
        <time>2018-09-08T09:02:40.000Z</time>
      </trkpt>
      <trkpt lat="43.2973618805408477783203125" lon="-5.02660143189132213592529296875">
        <ele>596.20001220703125</ele>
        <time>2018-09-08T09:02:45.000Z</time>
      </trkpt>
      <trkpt lat="43.2973479665815830230712890625" lon="-5.02654896117746829986572265625">
        <ele>596.5999755859375</ele>
        <time>2018-09-08T09:02:47.000Z</time>
      </trkpt>
      <trkpt lat="43.29732022248208522796630859375" lon="-5.0264384038746356964111328125">
        <ele>597.4000244140625</ele>
        <time>2018-09-08T09:02:51.000Z</time>
      </trkpt>
      <trkpt lat="43.29729373566806316375732421875" lon="-5.026327930390834808349609375">
        <ele>598.20001220703125</ele>
        <time>2018-09-08T09:02:55.000Z</time>
      </trkpt>
      <trkpt lat="43.2972800731658935546875" lon="-5.02627487294375896453857421875">
        <ele>598.5999755859375</ele>
        <time>2018-09-08T09:02:57.000Z</time>
      </trkpt>
      <trkpt lat="43.29726523719727993011474609375" lon="-5.02616724930703639984130859375">
        <ele>599.5999755859375</ele>
        <time>2018-09-08T09:03:01.000Z</time>
      </trkpt>
      <trkpt lat="43.2972653210163116455078125" lon="-5.026137828826904296875">
        <ele>599.79998779296875</ele>
        <time>2018-09-08T09:03:02.000Z</time>
      </trkpt>
      <trkpt lat="43.29727127216756343841552734375" lon="-5.0259931571781635284423828125">
        <ele>600.79998779296875</ele>
        <time>2018-09-08T09:03:07.000Z</time>
      </trkpt>
      <trkpt lat="43.29728074371814727783203125" lon="-5.0259380042552947998046875">
        <ele>601</ele>
        <time>2018-09-08T09:03:09.000Z</time>
      </trkpt>
      <trkpt lat="43.297287113964557647705078125" lon="-5.0258548557758331298828125">
        <ele>601.79998779296875</ele>
        <time>2018-09-08T09:03:12.000Z</time>
      </trkpt>
      <trkpt lat="43.29728753305971622467041015625" lon="-5.02573776058852672576904296875">
        <ele>602.4000244140625</ele>
        <time>2018-09-08T09:03:16.000Z</time>
      </trkpt>
      <trkpt lat="43.297297172248363494873046875" lon="-5.0256805121898651123046875">
        <ele>602.79998779296875</ele>
        <time>2018-09-08T09:03:18.000Z</time>
      </trkpt>
      <trkpt lat="43.2973216474056243896484375" lon="-5.0255633331835269927978515625">
        <ele>603.79998779296875</ele>
        <time>2018-09-08T09:03:22.000Z</time>
      </trkpt>
      <trkpt lat="43.297330029308795928955078125" lon="-5.02553793601691722869873046875">
        <ele>604</ele>
        <time>2018-09-08T09:03:23.000Z</time>
      </trkpt>
      <trkpt lat="43.297347128391265869140625" lon="-5.02543483860790729522705078125">
        <ele>605</ele>
        <time>2018-09-08T09:03:27.000Z</time>
      </trkpt>
      <trkpt lat="43.2973563484847545623779296875" lon="-5.02538773231208324432373046875">
        <ele>605.5999755859375</ele>
        <time>2018-09-08T09:03:29.000Z</time>
      </trkpt>
      <trkpt lat="43.297381661832332611083984375" lon="-5.02529251389205455780029296875">
        <ele>606.20001220703125</ele>
        <time>2018-09-08T09:03:33.000Z</time>
      </trkpt>
      <trkpt lat="43.29740806482732295989990234375" lon="-5.0252424739301204681396484375">
        <ele>606.5999755859375</ele>
        <time>2018-09-08T09:03:35.000Z</time>
      </trkpt>
      <trkpt lat="43.2974374853074550628662109375" lon="-5.02513074316084384918212890625">
        <ele>607.4000244140625</ele>
        <time>2018-09-08T09:03:39.000Z</time>
      </trkpt>
      <trkpt lat="43.2974718511104583740234375" lon="-5.0250232033431529998779296875">
        <ele>608.20001220703125</ele>
        <time>2018-09-08T09:03:43.000Z</time>
      </trkpt>
      <trkpt lat="43.2974772155284881591796875" lon="-5.02499185502529144287109375">
        <ele>608.20001220703125</ele>
        <time>2018-09-08T09:03:44.000Z</time>
      </trkpt>
      <trkpt lat="43.29748551361262798309326171875" lon="-5.02492991276085376739501953125">
        <ele>608.5999755859375</ele>
        <time>2018-09-08T09:03:46.000Z</time>
      </trkpt>
      <trkpt lat="43.2974864356219768524169921875" lon="-5.02484005875885486602783203125">
        <ele>609.5999755859375</ele>
        <time>2018-09-08T09:03:49.000Z</time>
      </trkpt>
      <trkpt lat="43.297480903565883636474609375" lon="-5.0247462652623653411865234375">
        <ele>610.20001220703125</ele>
        <time>2018-09-08T09:03:52.000Z</time>
      </trkpt>
      <trkpt lat="43.29747059382498264312744140625" lon="-5.0246909447014331817626953125">
        <ele>610.79998779296875</ele>
        <time>2018-09-08T09:03:54.000Z</time>
      </trkpt>
      <trkpt lat="43.29740001820027828216552734375" lon="-5.024505369365215301513671875">
        <ele>611.79998779296875</ele>
        <time>2018-09-08T09:04:01.000Z</time>
      </trkpt>
      <trkpt lat="43.29733966849744319915771484375" lon="-5.0244207121431827545166015625">
        <ele>613</ele>
        <time>2018-09-08T09:04:05.000Z</time>
      </trkpt>
      <trkpt lat="43.29730681143701076507568359375" lon="-5.024381317198276519775390625">
        <ele>613.4000244140625</ele>
        <time>2018-09-08T09:04:07.000Z</time>
      </trkpt>
      <trkpt lat="43.29725383780896663665771484375" lon="-5.02432323060929775238037109375">
        <ele>614.20001220703125</ele>
        <time>2018-09-08T09:04:10.000Z</time>
      </trkpt>
      <trkpt lat="43.29717077314853668212890625" lon="-5.02421912737190723419189453125">
        <ele>615.4000244140625</ele>
        <time>2018-09-08T09:04:15.000Z</time>
      </trkpt>
      <trkpt lat="43.29708435572683811187744140625" lon="-5.02412952482700347900390625">
        <ele>616.5999755859375</ele>
        <time>2018-09-08T09:04:20.000Z</time>
      </trkpt>
      <trkpt lat="43.29702082090079784393310546875" lon="-5.02404101192951202392578125">
        <ele>617.4000244140625</ele>
        <time>2018-09-08T09:04:24.000Z</time>
      </trkpt>
      <trkpt lat="43.296984694898128509521484375" lon="-5.0239942409098148345947265625">
        <ele>617.5999755859375</ele>
        <time>2018-09-08T09:04:26.000Z</time>
      </trkpt>
      <trkpt lat="43.29694152809679508209228515625" lon="-5.02390346489846706390380859375">
        <ele>618.79998779296875</ele>
        <time>2018-09-08T09:04:30.000Z</time>
      </trkpt>
      <trkpt lat="43.29687849618494510650634765625" lon="-5.0238007865846157073974609375">
        <ele>619.79998779296875</ele>
        <time>2018-09-08T09:04:35.000Z</time>
      </trkpt>
      <trkpt lat="43.29686827026307582855224609375" lon="-5.023774467408657073974609375">
        <ele>620.20001220703125</ele>
        <time>2018-09-08T09:04:36.000Z</time>
      </trkpt>
      <trkpt lat="43.29683038406074047088623046875" lon="-5.02369911409914493560791015625">
        <ele>621</ele>
        <time>2018-09-08T09:04:39.000Z</time>
      </trkpt>
      <trkpt lat="43.296793587505817413330078125" lon="-5.02356818877160549163818359375">
        <ele>622</ele>
        <time>2018-09-08T09:04:44.000Z</time>
      </trkpt>
      <trkpt lat="43.29678612761199474334716796875" lon="-5.023390911519527435302734375">
        <ele>623.20001220703125</ele>
        <time>2018-09-08T09:04:50.000Z</time>
      </trkpt>
      <trkpt lat="43.29679417423903942108154296875" lon="-5.02333601005375385284423828125">
        <ele>623.4000244140625</ele>
        <time>2018-09-08T09:04:52.000Z</time>
      </trkpt>
      <trkpt lat="43.29680599272251129150390625" lon="-5.0232261233031749725341796875">
        <ele>624.20001220703125</ele>
        <time>2018-09-08T09:04:56.000Z</time>
      </trkpt>
      <trkpt lat="43.29682082869112491607666015625" lon="-5.0231456570327281951904296875">
        <ele>624.5999755859375</ele>
        <time>2018-09-08T09:04:59.000Z</time>
      </trkpt>
      <trkpt lat="43.29683273099362850189208984375" lon="-5.02308639697730541229248046875">
        <ele>625.4000244140625</ele>
        <time>2018-09-08T09:05:01.000Z</time>
      </trkpt>
      <trkpt lat="43.29684622585773468017578125" lon="-5.02294625155627727508544921875">
        <ele>626.20001220703125</ele>
        <time>2018-09-08T09:05:06.000Z</time>
      </trkpt>
      <trkpt lat="43.2968447171151638031005859375" lon="-5.02291540615260601043701171875">
        <ele>626.4000244140625</ele>
        <time>2018-09-08T09:05:07.000Z</time>
      </trkpt>
      <trkpt lat="43.29681211151182651519775390625" lon="-5.02276159822940826416015625">
        <ele>627.5999755859375</ele>
        <time>2018-09-08T09:05:12.000Z</time>
      </trkpt>
      <trkpt lat="43.29680406488478183746337890625" lon="-5.022733770310878753662109375">
        <ele>627.79998779296875</ele>
        <time>2018-09-08T09:05:13.000Z</time>
      </trkpt>
      <trkpt lat="43.29676148481667041778564453125" lon="-5.0226363725960254669189453125">
        <ele>628.79998779296875</ele>
        <time>2018-09-08T09:05:17.000Z</time>
      </trkpt>
      <trkpt lat="43.29671102575957775115966796875" lon="-5.0225445069372653961181640625">
        <ele>629.5999755859375</ele>
        <time>2018-09-08T09:05:21.000Z</time>
      </trkpt>
      <trkpt lat="43.29668462276458740234375" lon="-5.022496394813060760498046875">
        <ele>630</ele>
        <time>2018-09-08T09:05:23.000Z</time>
      </trkpt>
      <trkpt lat="43.29661748372018337249755859375" lon="-5.02237728796899318695068359375">
        <ele>631.20001220703125</ele>
        <time>2018-09-08T09:05:28.000Z</time>
      </trkpt>
      <trkpt lat="43.29657859168946743011474609375" lon="-5.022302605211734771728515625">
        <ele>631.79998779296875</ele>
        <time>2018-09-08T09:05:31.000Z</time>
      </trkpt>
      <trkpt lat="43.29655897803604602813720703125" lon="-5.02224233932793140411376953125">
        <ele>632.4000244140625</ele>
        <time>2018-09-08T09:05:33.000Z</time>
      </trkpt>
      <trkpt lat="43.29655327834188938140869140625" lon="-5.0220949016511440277099609375">
        <ele>633.4000244140625</ele>
        <time>2018-09-08T09:05:38.000Z</time>
      </trkpt>
      <trkpt lat="43.29659954644739627838134765625" lon="-5.0219356454908847808837890625">
        <ele>634.5999755859375</ele>
        <time>2018-09-08T09:05:44.000Z</time>
      </trkpt>
      <trkpt lat="43.29661480151116847991943359375" lon="-5.0218783132731914520263671875">
        <ele>635</ele>
        <time>2018-09-08T09:05:46.000Z</time>
      </trkpt>
      <trkpt lat="43.29664698801934719085693359375" lon="-5.02180614508688449859619140625">
        <ele>635.79998779296875</ele>
        <time>2018-09-08T09:05:49.000Z</time>
      </trkpt>
      <trkpt lat="43.29666308127343654632568359375" lon="-5.0217317976057529449462890625">
        <ele>636.5999755859375</ele>
        <time>2018-09-08T09:05:52.000Z</time>
      </trkpt>
      <trkpt lat="43.29664698801934719085693359375" lon="-5.0216821767389774322509765625">
        <ele>636.79998779296875</ele>
        <time>2018-09-08T09:05:54.000Z</time>
      </trkpt>
      <trkpt lat="43.29663701355457305908203125" lon="-5.02157228998839855194091796875">
        <ele>637.5999755859375</ele>
        <time>2018-09-08T09:05:58.000Z</time>
      </trkpt>
      <trkpt lat="43.29662452451884746551513671875" lon="-5.0215188972651958465576171875">
        <ele>638</ele>
        <time>2018-09-08T09:06:00.000Z</time>
      </trkpt>
      <trkpt lat="43.2965867221355438232421875" lon="-5.0213690288364887237548828125">
        <ele>639</ele>
        <time>2018-09-08T09:06:06.000Z</time>
      </trkpt>
      <trkpt lat="43.2965607382357120513916015625" lon="-5.02123634330928325653076171875">
        <ele>640</ele>
        <time>2018-09-08T09:06:11.000Z</time>
      </trkpt>
      <trkpt lat="43.296553194522857666015625" lon="-5.02121262252330780029296875">
        <ele>640.20001220703125</ele>
        <time>2018-09-08T09:06:12.000Z</time>
      </trkpt>
      <trkpt lat="43.29652193002402782440185546875" lon="-5.02109385095536708831787109375">
        <ele>641.20001220703125</ele>
        <time>2018-09-08T09:06:17.000Z</time>
      </trkpt>
      <trkpt lat="43.29649628140032291412353515625" lon="-5.0209946930408477783203125">
        <ele>642</ele>
        <time>2018-09-08T09:06:21.000Z</time>
      </trkpt>
      <trkpt lat="43.296495191752910614013671875" lon="-5.02096812240779399871826171875">
        <ele>642.20001220703125</ele>
        <time>2018-09-08T09:06:22.000Z</time>
      </trkpt>
      <trkpt lat="43.29646996222436428070068359375" lon="-5.0208537094295024871826171875">
        <ele>642.79998779296875</ele>
        <time>2018-09-08T09:06:27.000Z</time>
      </trkpt>
      <trkpt lat="43.29645269550383090972900390625" lon="-5.02078020013868808746337890625">
        <ele>643.4000244140625</ele>
        <time>2018-09-08T09:06:30.000Z</time>
      </trkpt>
      <trkpt lat="43.29642855562269687652587890625" lon="-5.02062228508293628692626953125">
        <ele>644.5999755859375</ele>
        <time>2018-09-08T09:06:36.000Z</time>
      </trkpt>
      <trkpt lat="43.29640693031251430511474609375" lon="-5.0204958021640777587890625">
        <ele>645.79998779296875</ele>
        <time>2018-09-08T09:06:41.000Z</time>
      </trkpt>
      <trkpt lat="43.2964101992547512054443359375" lon="-5.020467303693294525146484375">
        <ele>646</ele>
        <time>2018-09-08T09:06:42.000Z</time>
      </trkpt>
      <trkpt lat="43.29639293253421783447265625" lon="-5.02039966173470020294189453125">
        <ele>647</ele>
        <time>2018-09-08T09:06:45.000Z</time>
      </trkpt>
      <trkpt lat="43.2963855564594268798828125" lon="-5.0203134119510650634765625">
        <ele>648</ele>
        <time>2018-09-08T09:06:49.000Z</time>
      </trkpt>
      <trkpt lat="43.29638748429715633392333984375" lon="-5.02029103226959705352783203125">
        <ele>648.20001220703125</ele>
        <time>2018-09-08T09:06:50.000Z</time>
      </trkpt>
      <trkpt lat="43.2963716425001621246337890625" lon="-5.020197071135044097900390625">
        <ele>649.20001220703125</ele>
        <time>2018-09-08T09:06:54.000Z</time>
      </trkpt>
      <trkpt lat="43.29635127447545528411865234375" lon="-5.0201144255697727203369140625">
        <ele>650</ele>
        <time>2018-09-08T09:06:58.000Z</time>
      </trkpt>
      <trkpt lat="43.29635077156126499176025390625" lon="-5.02009238116443157196044921875">
        <ele>650.20001220703125</ele>
        <time>2018-09-08T09:06:59.000Z</time>
      </trkpt>
      <trkpt lat="43.296345658600330352783203125" lon="-5.02000319771468639373779296875">
        <ele>651.4000244140625</ele>
        <time>2018-09-08T09:07:03.000Z</time>
      </trkpt>
      <trkpt lat="43.29635269939899444580078125" lon="-5.01996162347495555877685546875">
        <ele>651.79998779296875</ele>
        <time>2018-09-08T09:07:05.000Z</time>
      </trkpt>
      <trkpt lat="43.2963582314550876617431640625" lon="-5.0198988430202007293701171875">
        <ele>652.5999755859375</ele>
        <time>2018-09-08T09:07:08.000Z</time>
      </trkpt>
      <trkpt lat="43.29634976573288440704345703125" lon="-5.019839666783809661865234375">
        <ele>653.20001220703125</ele>
        <time>2018-09-08T09:07:11.000Z</time>
      </trkpt>
      <trkpt lat="43.2963521964848041534423828125" lon="-5.01979381777346134185791015625">
        <ele>653.79998779296875</ele>
        <time>2018-09-08T09:07:13.000Z</time>
      </trkpt>
      <trkpt lat="43.2963619194924831390380859375" lon="-5.01970597542822360992431640625">
        <ele>654.5999755859375</ele>
        <time>2018-09-08T09:07:17.000Z</time>
      </trkpt>
      <trkpt lat="43.29636200331151485443115234375" lon="-5.0196849368512630462646484375">
        <ele>655</ele>
        <time>2018-09-08T09:07:18.000Z</time>
      </trkpt>
      <trkpt lat="43.29635630361735820770263671875" lon="-5.0195934064686298370361328125">
        <ele>656</ele>
        <time>2018-09-08T09:07:22.000Z</time>
      </trkpt>
      <trkpt lat="43.29635311849415302276611328125" lon="-5.01956851221621036529541015625">
        <ele>656.20001220703125</ele>
        <time>2018-09-08T09:07:23.000Z</time>
      </trkpt>
      <trkpt lat="43.29635202884674072265625" lon="-5.01954965293407440185546875">
        <ele>656.4000244140625</ele>
        <time>2018-09-08T09:07:24.000Z</time>
      </trkpt>
      <trkpt lat="43.29634842462837696075439453125" lon="-5.01949257217347621917724609375">
        <ele>657.4000244140625</ele>
        <time>2018-09-08T09:07:27.000Z</time>
      </trkpt>
      <trkpt lat="43.29633870162069797515869140625" lon="-5.019433312118053436279296875">
        <ele>658</ele>
        <time>2018-09-08T09:07:30.000Z</time>
      </trkpt>
      <trkpt lat="43.29633333720266819000244140625" lon="-5.01938846893608570098876953125">
        <ele>658.5999755859375</ele>
        <time>2018-09-08T09:07:32.000Z</time>
      </trkpt>
      <trkpt lat="43.29632143490016460418701171875" lon="-5.01932543702423572540283203125">
        <ele>659.5999755859375</ele>
        <time>2018-09-08T09:07:35.000Z</time>
      </trkpt>
      <trkpt lat="43.29630064778029918670654296875" lon="-5.01922451891005039215087890625">
        <ele>660.4000244140625</ele>
        <time>2018-09-08T09:07:40.000Z</time>
      </trkpt>
      <trkpt lat="43.2962836325168609619140625" lon="-5.0191904045641422271728515625">
        <ele>660.79998779296875</ele>
        <time>2018-09-08T09:07:42.000Z</time>
      </trkpt>
      <trkpt lat="43.29625622369349002838134765625" lon="-5.0191439688205718994140625">
        <ele>661.4000244140625</ele>
        <time>2018-09-08T09:07:45.000Z</time>
      </trkpt>
      <trkpt lat="43.29624901525676250457763671875" lon="-5.01910432241857051849365234375">
        <ele>661.79998779296875</ele>
        <time>2018-09-08T09:07:47.000Z</time>
      </trkpt>
      <trkpt lat="43.29627164639532566070556640625" lon="-5.0190311484038829803466796875">
        <ele>662.79998779296875</ele>
        <time>2018-09-08T09:07:51.000Z</time>
      </trkpt>
      <trkpt lat="43.296274580061435699462890625" lon="-5.01901161856949329376220703125">
        <ele>663</ele>
        <time>2018-09-08T09:07:52.000Z</time>
      </trkpt>
      <trkpt lat="43.2962402142584323883056640625" lon="-5.01892964355647563934326171875">
        <ele>664</ele>
        <time>2018-09-08T09:07:57.000Z</time>
      </trkpt>
      <trkpt lat="43.29622303135693073272705078125" lon="-5.01883828081190586090087890625">
        <ele>665</ele>
        <time>2018-09-08T09:08:02.000Z</time>
      </trkpt>
      <trkpt lat="43.29622839577496051788330078125" lon="-5.01880525611340999603271484375">
        <ele>665.4000244140625</ele>
        <time>2018-09-08T09:08:04.000Z</time>
      </trkpt>
      <trkpt lat="43.2962211035192012786865234375" lon="-5.01872395165264606475830078125">
        <ele>666.20001220703125</ele>
        <time>2018-09-08T09:08:08.000Z</time>
      </trkpt>
      <trkpt lat="43.29619268886744976043701171875" lon="-5.0186794437468051910400390625">
        <ele>666.79998779296875</ele>
        <time>2018-09-08T09:08:11.000Z</time>
      </trkpt>
      <trkpt lat="43.29618447460234165191650390625" lon="-5.01866309903562068939208984375">
        <ele>667</ele>
        <time>2018-09-08T09:08:12.000Z</time>
      </trkpt>
      <trkpt lat="43.2961763441562652587890625" lon="-5.01864985562860965728759765625">
        <ele>667.4000244140625</ele>
        <time>2018-09-08T09:08:13.000Z</time>
      </trkpt>
      <trkpt lat="43.29614776186645030975341796875" lon="-5.01853921450674533843994140625">
        <ele>668.5999755859375</ele>
        <time>2018-09-08T09:08:19.000Z</time>
      </trkpt>
      <trkpt lat="43.2961409725248813629150390625" lon="-5.018522702157497406005859375">
        <ele>668.79998779296875</ele>
        <time>2018-09-08T09:08:20.000Z</time>
      </trkpt>
      <trkpt lat="43.29612077213823795318603515625" lon="-5.018461011350154876708984375">
        <ele>669.4000244140625</ele>
        <time>2018-09-08T09:08:23.000Z</time>
      </trkpt>
      <trkpt lat="43.29610819928348064422607421875" lon="-5.01841264776885509490966796875">
        <ele>670</ele>
        <time>2018-09-08T09:08:25.000Z</time>
      </trkpt>
      <trkpt lat="43.296102918684482574462890625" lon="-5.01838984899222850799560546875">
        <ele>670</ele>
        <time>2018-09-08T09:08:26.000Z</time>
      </trkpt>
      <trkpt lat="43.2960797846317291259765625" lon="-5.018318854272365570068359375">
        <ele>671</ele>
        <time>2018-09-08T09:08:29.000Z</time>
      </trkpt>
      <trkpt lat="43.29605170525610446929931640625" lon="-5.01821123063564300537109375">
        <ele>672</ele>
        <time>2018-09-08T09:08:34.000Z</time>
      </trkpt>
      <trkpt lat="43.29603016376495361328125" lon="-5.018154568970203399658203125">
        <ele>673</ele>
        <time>2018-09-08T09:08:37.000Z</time>
      </trkpt>
      <trkpt lat="43.29601918347179889678955078125" lon="-5.01811291091144084930419921875">
        <ele>673.5999755859375</ele>
        <time>2018-09-08T09:08:39.000Z</time>
      </trkpt>
      <trkpt lat="43.29600912518799304962158203125" lon="-5.0180937163531780242919921875">
        <ele>673.5999755859375</ele>
        <time>2018-09-08T09:08:40.000Z</time>
      </trkpt>
      <trkpt lat="43.2959924452006816864013671875" lon="-5.0180565007030963897705078125">
        <ele>674.20001220703125</ele>
        <time>2018-09-08T09:08:42.000Z</time>
      </trkpt>
      <trkpt lat="43.29596939496695995330810546875" lon="-5.017970502376556396484375">
        <ele>675.20001220703125</ele>
        <time>2018-09-08T09:08:46.000Z</time>
      </trkpt>
      <trkpt lat="43.295966126024723052978515625" lon="-5.01792716793715953826904296875">
        <ele>675.79998779296875</ele>
        <time>2018-09-08T09:08:48.000Z</time>
      </trkpt>
      <trkpt lat="43.29591575078666210174560546875" lon="-5.01783396117389202117919921875">
        <ele>676.4000244140625</ele>
        <time>2018-09-08T09:08:53.000Z</time>
      </trkpt>
      <trkpt lat="43.29591575078666210174560546875" lon="-5.01774259842932224273681640625">
        <ele>677.20001220703125</ele>
        <time>2018-09-08T09:08:57.000Z</time>
      </trkpt>
      <trkpt lat="43.29590870998799800872802734375" lon="-5.01772197894752025604248046875">
        <ele>677.4000244140625</ele>
        <time>2018-09-08T09:08:58.000Z</time>
      </trkpt>
      <trkpt lat="43.29586990177631378173828125" lon="-5.01766540110111236572265625">
        <ele>678.4000244140625</ele>
        <time>2018-09-08T09:09:01.000Z</time>
      </trkpt>
      <trkpt lat="43.295844085514545440673828125" lon="-5.017575882375240325927734375">
        <ele>679.4000244140625</ele>
        <time>2018-09-08T09:09:05.000Z</time>
      </trkpt>
      <trkpt lat="43.295841403305530548095703125" lon="-5.0175559334456920623779296875">
        <ele>679.5999755859375</ele>
        <time>2018-09-08T09:09:06.000Z</time>
      </trkpt>
      <trkpt lat="43.295837379992008209228515625" lon="-5.01744420267641544342041015625">
        <ele>680.5999755859375</ele>
        <time>2018-09-08T09:09:11.000Z</time>
      </trkpt>
      <trkpt lat="43.29583344049751758575439453125" lon="-5.017424337565898895263671875">
        <ele>680.79998779296875</ele>
        <time>2018-09-08T09:09:12.000Z</time>
      </trkpt>
      <trkpt lat="43.29582941718399524688720703125" lon="-5.0173373334109783172607421875">
        <ele>681.79998779296875</ele>
        <time>2018-09-08T09:09:16.000Z</time>
      </trkpt>
      <trkpt lat="43.2958244718611240386962890625" lon="-5.01725376583635807037353515625">
        <ele>682.79998779296875</ele>
        <time>2018-09-08T09:09:20.000Z</time>
      </trkpt>
      <trkpt lat="43.2958211190998554229736328125" lon="-5.01723113469779491424560546875">
        <ele>683</ele>
        <time>2018-09-08T09:09:21.000Z</time>
      </trkpt>
      <trkpt lat="43.29582430422306060791015625" lon="-5.0171308033168315887451171875">
        <ele>684</ele>
        <time>2018-09-08T09:09:26.000Z</time>
      </trkpt>
      <trkpt lat="43.29580108635127544403076171875" lon="-5.01699694432318210601806640625">
        <ele>685.4000244140625</ele>
        <time>2018-09-08T09:09:32.000Z</time>
      </trkpt>
      <trkpt lat="43.2957751862704753875732421875" lon="-5.0169215910136699676513671875">
        <ele>686.4000244140625</ele>
        <time>2018-09-08T09:09:36.000Z</time>
      </trkpt>
      <trkpt lat="43.295774348080158233642578125" lon="-5.0168542005121707916259765625">
        <ele>687</ele>
        <time>2018-09-08T09:09:39.000Z</time>
      </trkpt>
      <trkpt lat="43.29577828757464885711669921875" lon="-5.016814805567264556884765625">
        <ele>687.5999755859375</ele>
        <time>2018-09-08T09:09:41.000Z</time>
      </trkpt>
      <trkpt lat="43.29576663672924041748046875" lon="-5.01670139841735363006591796875">
        <ele>688.5999755859375</ele>
        <time>2018-09-08T09:09:46.000Z</time>
      </trkpt>
      <trkpt lat="43.29573973082005977630615234375" lon="-5.01661120913922786712646484375">
        <ele>689.79998779296875</ele>
        <time>2018-09-08T09:09:50.000Z</time>
      </trkpt>
      <trkpt lat="43.2957312650978565216064453125" lon="-5.01652185805141925811767578125">
        <ele>690.79998779296875</ele>
        <time>2018-09-08T09:09:54.000Z</time>
      </trkpt>
      <trkpt lat="43.29573470167815685272216796875" lon="-5.016500651836395263671875">
        <ele>691</ele>
        <time>2018-09-08T09:09:55.000Z</time>
      </trkpt>
      <trkpt lat="43.295724056661128997802734375" lon="-5.0164069421589374542236328125">
        <ele>692</ele>
        <time>2018-09-08T09:09:59.000Z</time>
      </trkpt>
      <trkpt lat="43.29570402391254901885986328125" lon="-5.0163150765001773834228515625">
        <ele>692.79998779296875</ele>
        <time>2018-09-08T09:10:03.000Z</time>
      </trkpt>
      <trkpt lat="43.29570226371288299560546875" lon="-5.01629387028515338897705078125">
        <ele>693</ele>
        <time>2018-09-08T09:10:04.000Z</time>
      </trkpt>
      <trkpt lat="43.29569128341972827911376953125" lon="-5.01620653085410594940185546875">
        <ele>694</ele>
        <time>2018-09-08T09:10:08.000Z</time>
      </trkpt>
      <trkpt lat="43.295683152973651885986328125" lon="-5.0160916149616241455078125">
        <ele>695.5999755859375</ele>
        <time>2018-09-08T09:10:13.000Z</time>
      </trkpt>
      <trkpt lat="43.2956769503653049468994140625" lon="-5.01606705598533153533935546875">
        <ele>695.79998779296875</ele>
        <time>2018-09-08T09:10:14.000Z</time>
      </trkpt>
      <trkpt lat="43.2956625334918498992919921875" lon="-5.01597904600203037261962890625">
        <ele>696.5999755859375</ele>
        <time>2018-09-08T09:10:18.000Z</time>
      </trkpt>
      <trkpt lat="43.29565465450286865234375" lon="-5.0159342028200626373291015625">
        <ele>697.20001220703125</ele>
        <time>2018-09-08T09:10:20.000Z</time>
      </trkpt>
      <trkpt lat="43.2956452667713165283203125" lon="-5.01588416285812854766845703125">
        <ele>697.5999755859375</ele>
        <time>2018-09-08T09:10:22.000Z</time>
      </trkpt>
      <trkpt lat="43.2956125773489475250244140625" lon="-5.0157776288688182830810546875">
        <ele>698.79998779296875</ele>
        <time>2018-09-08T09:10:26.000Z</time>
      </trkpt>
      <trkpt lat="43.29558785073459148406982421875" lon="-5.01570495776832103729248046875">
        <ele>699.79998779296875</ele>
        <time>2018-09-08T09:10:29.000Z</time>
      </trkpt>
      <trkpt lat="43.295575194060802459716796875" lon="-5.0156793929636478424072265625">
        <ele>700</ele>
        <time>2018-09-08T09:10:30.000Z</time>
      </trkpt>
      <trkpt lat="43.29552884213626384735107421875" lon="-5.01559741795063018798828125">
        <ele>701</ele>
        <time>2018-09-08T09:10:34.000Z</time>
      </trkpt>
      <trkpt lat="43.29551559872925281524658203125" lon="-5.0155472941696643829345703125">
        <ele>701.5999755859375</ele>
        <time>2018-09-08T09:10:36.000Z</time>
      </trkpt>
      <trkpt lat="43.29550436697900295257568359375" lon="-5.0155278481543064117431640625">
        <ele>702</ele>
        <time>2018-09-08T09:10:37.000Z</time>
      </trkpt>
      <trkpt lat="43.295453824102878570556640625" lon="-5.0154731981456279754638671875">
        <ele>703.20001220703125</ele>
        <time>2018-09-08T09:10:41.000Z</time>
      </trkpt>
      <trkpt lat="43.29543462954461574554443359375" lon="-5.01547009684145450592041015625">
        <ele>703.4000244140625</ele>
        <time>2018-09-08T09:10:42.000Z</time>
      </trkpt>
      <trkpt lat="43.2953919656574726104736328125" lon="-5.01539449207484722137451171875">
        <ele>704.4000244140625</ele>
        <time>2018-09-08T09:10:46.000Z</time>
      </trkpt>
      <trkpt lat="43.2953902892768383026123046875" lon="-5.01537437550723552703857421875">
        <ele>704.5999755859375</ele>
        <time>2018-09-08T09:10:47.000Z</time>
      </trkpt>
      <trkpt lat="43.29538987018167972564697265625" lon="-5.01532877795398235321044921875">
        <ele>705</ele>
        <time>2018-09-08T09:10:49.000Z</time>
      </trkpt>
      <trkpt lat="43.29538173973560333251953125" lon="-5.0152871198952198028564453125">
        <ele>705.4000244140625</ele>
        <time>2018-09-08T09:10:51.000Z</time>
      </trkpt>
      <trkpt lat="43.29536690376698970794677734375" lon="-5.015220232307910919189453125">
        <ele>706</ele>
        <time>2018-09-08T09:10:54.000Z</time>
      </trkpt>
      <trkpt lat="43.2953621260821819305419921875" lon="-5.0151737965643405914306640625">
        <ele>706.5999755859375</ele>
        <time>2018-09-08T09:10:56.000Z</time>
      </trkpt>
      <trkpt lat="43.29532398842275142669677734375" lon="-5.015078075230121612548828125">
        <ele>708</ele>
        <time>2018-09-08T09:11:01.000Z</time>
      </trkpt>
      <trkpt lat="43.29532247968018054962158203125" lon="-5.0150571204721927642822265625">
        <ele>708.20001220703125</ele>
        <time>2018-09-08T09:11:02.000Z</time>
      </trkpt>
      <trkpt lat="43.295316360890865325927734375" lon="-5.01497355289757251739501953125">
        <ele>709</ele>
        <time>2018-09-08T09:11:06.000Z</time>
      </trkpt>
      <trkpt lat="43.2953161932528018951416015625" lon="-5.01488688401877880096435546875">
        <ele>710</ele>
        <time>2018-09-08T09:11:10.000Z</time>
      </trkpt>
      <trkpt lat="43.295310325920581817626953125" lon="-5.01486861146986484527587890625">
        <ele>710.20001220703125</ele>
        <time>2018-09-08T09:11:11.000Z</time>
      </trkpt>
      <trkpt lat="43.29527738504111766815185546875" lon="-5.0147800147533416748046875">
        <ele>711.20001220703125</ele>
        <time>2018-09-08T09:11:16.000Z</time>
      </trkpt>
      <trkpt lat="43.295249640941619873046875" lon="-5.01465822570025920867919921875">
        <ele>712.5999755859375</ele>
        <time>2018-09-08T09:11:22.000Z</time>
      </trkpt>
      <trkpt lat="43.2952461205422878265380859375" lon="-5.01461732201278209686279296875">
        <ele>713.20001220703125</ele>
        <time>2018-09-08T09:11:24.000Z</time>
      </trkpt>
      <trkpt lat="43.29524762928485870361328125" lon="-5.01459653489291667938232421875">
        <ele>713.5999755859375</ele>
        <time>2018-09-08T09:11:25.000Z</time>
      </trkpt>
      <trkpt lat="43.29524000175297260284423828125" lon="-5.01457558013498783111572265625">
        <ele>713.79998779296875</ele>
        <time>2018-09-08T09:11:26.000Z</time>
      </trkpt>
      <trkpt lat="43.2952042110264301300048828125" lon="-5.01449611969292163848876953125">
        <ele>714.79998779296875</ele>
        <time>2018-09-08T09:11:30.000Z</time>
      </trkpt>
      <trkpt lat="43.2951804064214229583740234375" lon="-5.0143910944461822509765625">
        <ele>716</ele>
        <time>2018-09-08T09:11:35.000Z</time>
      </trkpt>
      <trkpt lat="43.29515584744513034820556640625" lon="-5.01436226069927215576171875">
        <ele>716.4000244140625</ele>
        <time>2018-09-08T09:11:37.000Z</time>
      </trkpt>
      <trkpt lat="43.295127935707569122314453125" lon="-5.01434792764484882354736328125">
        <ele>717</ele>
        <time>2018-09-08T09:11:39.000Z</time>
      </trkpt>
      <trkpt lat="43.29510320909321308135986328125" lon="-5.014292858541011810302734375">
        <ele>717.79998779296875</ele>
        <time>2018-09-08T09:11:42.000Z</time>
      </trkpt>
      <trkpt lat="43.29509608447551727294921875" lon="-5.0142725743353366851806640625">
        <ele>718</ele>
        <time>2018-09-08T09:11:43.000Z</time>
      </trkpt>
      <trkpt lat="43.295084349811077117919921875" lon="-5.0142569839954376220703125">
        <ele>718.20001220703125</ele>
        <time>2018-09-08T09:11:44.000Z</time>
      </trkpt>
      <trkpt lat="43.2950364053249359130859375" lon="-5.01423996873199939727783203125">
        <ele>719</ele>
        <time>2018-09-08T09:11:47.000Z</time>
      </trkpt>
      <trkpt lat="43.29502844251692295074462890625" lon="-5.0142219476401805877685546875">
        <ele>719.20001220703125</ele>
        <time>2018-09-08T09:11:48.000Z</time>
      </trkpt>
      <trkpt lat="43.294991813600063323974609375" lon="-5.014143325388431549072265625">
        <ele>720.4000244140625</ele>
        <time>2018-09-08T09:11:52.000Z</time>
      </trkpt>
      <trkpt lat="43.294966332614421844482421875" lon="-5.01406026072800159454345703125">
        <ele>721.20001220703125</ele>
        <time>2018-09-08T09:11:56.000Z</time>
      </trkpt>
      <trkpt lat="43.294960297644138336181640625" lon="-5.014040730893611907958984375">
        <ele>721.4000244140625</ele>
        <time>2018-09-08T09:11:57.000Z</time>
      </trkpt>
      <trkpt lat="43.29491897486150264739990234375" lon="-5.01395431347191333770751953125">
        <ele>722.4000244140625</ele>
        <time>2018-09-08T09:12:02.000Z</time>
      </trkpt>
      <trkpt lat="43.2948689348995685577392578125" lon="-5.01389999873936176300048828125">
        <ele>723.4000244140625</ele>
        <time>2018-09-08T09:12:06.000Z</time>
      </trkpt>
      <trkpt lat="43.2948521710932254791259765625" lon="-5.0138980709016323089599609375">
        <ele>723.79998779296875</ele>
        <time>2018-09-08T09:12:07.000Z</time>
      </trkpt>
      <trkpt lat="43.29479810781776905059814453125" lon="-5.01381282694637775421142578125">
        <ele>725</ele>
        <time>2018-09-08T09:12:12.000Z</time>
      </trkpt>
      <trkpt lat="43.294791989028453826904296875" lon="-5.0137927941977977752685546875">
        <ele>725.4000244140625</ele>
        <time>2018-09-08T09:12:13.000Z</time>
      </trkpt>
      <trkpt lat="43.294788636267185211181640625" lon="-5.013744346797466278076171875">
        <ele>726</ele>
        <time>2018-09-08T09:12:15.000Z</time>
      </trkpt>
      <trkpt lat="43.29475007951259613037109375" lon="-5.01367201097309589385986328125">
        <ele>726.79998779296875</ele>
        <time>2018-09-08T09:12:19.000Z</time>
      </trkpt>
      <trkpt lat="43.29473725520074367523193359375" lon="-5.01366949640214443206787109375">
        <ele>727</ele>
        <time>2018-09-08T09:12:20.000Z</time>
      </trkpt>
      <trkpt lat="43.29469501040875911712646484375" lon="-5.01359573565423488616943359375">
        <ele>727.79998779296875</ele>
        <time>2018-09-08T09:12:24.000Z</time>
      </trkpt>
      <trkpt lat="43.29468981362879276275634765625" lon="-5.01357411034405231475830078125">
        <ele>728.20001220703125</ele>
        <time>2018-09-08T09:12:25.000Z</time>
      </trkpt>
      <trkpt lat="43.29465259797871112823486328125" lon="-5.0135084800422191619873046875">
        <ele>729.4000244140625</ele>
        <time>2018-09-08T09:12:29.000Z</time>
      </trkpt>
      <trkpt lat="43.29462426714599132537841796875" lon="-5.0134605355560779571533203125">
        <ele>730</ele>
        <time>2018-09-08T09:12:32.000Z</time>
      </trkpt>
      <trkpt lat="43.294611275196075439453125" lon="-5.0134203024208545684814453125">
        <ele>730.4000244140625</ele>
        <time>2018-09-08T09:12:34.000Z</time>
      </trkpt>
      <trkpt lat="43.29457573592662811279296875" lon="-5.01335182227194309234619140625">
        <ele>731.5999755859375</ele>
        <time>2018-09-08T09:12:38.000Z</time>
      </trkpt>
      <trkpt lat="43.2945638336241245269775390625" lon="-5.013316534459590911865234375">
        <ele>732</ele>
        <time>2018-09-08T09:12:40.000Z</time>
      </trkpt>
      <trkpt lat="43.29453323967754840850830078125" lon="-5.013272948563098907470703125">
        <ele>732.5999755859375</ele>
        <time>2018-09-08T09:12:43.000Z</time>
      </trkpt>
      <trkpt lat="43.2944972813129425048828125" lon="-5.01320715062320232391357421875">
        <ele>733.20001220703125</ele>
        <time>2018-09-08T09:12:47.000Z</time>
      </trkpt>
      <trkpt lat="43.29448722302913665771484375" lon="-5.01318904571235179901123046875">
        <ele>733.5999755859375</ele>
        <time>2018-09-08T09:12:48.000Z</time>
      </trkpt>
      <trkpt lat="43.2944350875914096832275390625" lon="-5.01311562024056911468505859375">
        <ele>734.5999755859375</ele>
        <time>2018-09-08T09:12:53.000Z</time>
      </trkpt>
      <trkpt lat="43.294405750930309295654296875" lon="-5.01309215091168880462646484375">
        <ele>734.79998779296875</ele>
        <time>2018-09-08T09:12:55.000Z</time>
      </trkpt>
      <trkpt lat="43.2943589799106121063232421875" lon="-5.013040266931056976318359375">
        <ele>735.79998779296875</ele>
        <time>2018-09-08T09:12:59.000Z</time>
      </trkpt>
      <trkpt lat="43.29433123581111431121826171875" lon="-5.0129971839487552642822265625">
        <ele>736.5999755859375</ele>
        <time>2018-09-08T09:13:02.000Z</time>
      </trkpt>
      <trkpt lat="43.29430810175836086273193359375" lon="-5.01297145150601863861083984375">
        <ele>736.79998779296875</ele>
        <time>2018-09-08T09:13:04.000Z</time>
      </trkpt>
      <trkpt lat="43.29423216171562671661376953125" lon="-5.01289618201553821563720703125">
        <ele>738</ele>
        <time>2018-09-08T09:13:10.000Z</time>
      </trkpt>
      <trkpt lat="43.294219672679901123046875" lon="-5.012886039912700653076171875">
        <ele>738.20001220703125</ele>
        <time>2018-09-08T09:13:11.000Z</time>
      </trkpt>
      <trkpt lat="43.29416929744184017181396484375" lon="-5.01284681260585784912109375">
        <ele>739</ele>
        <time>2018-09-08T09:13:15.000Z</time>
      </trkpt>
      <trkpt lat="43.29410634934902191162109375" lon="-5.0128510035574436187744140625">
        <ele>739.79998779296875</ele>
        <time>2018-09-08T09:13:19.000Z</time>
      </trkpt>
      <trkpt lat="43.294055722653865814208984375" lon="-5.0128520093858242034912109375">
        <ele>740.20001220703125</ele>
        <time>2018-09-08T09:13:22.000Z</time>
      </trkpt>
      <trkpt lat="43.2939891703426837921142578125" lon="-5.01286081038415431976318359375">
        <ele>741</ele>
        <time>2018-09-08T09:13:26.000Z</time>
      </trkpt>
      <trkpt lat="43.29397299326956272125244140625" lon="-5.012851171195507049560546875">
        <ele>741.20001220703125</ele>
        <time>2018-09-08T09:13:27.000Z</time>
      </trkpt>
      <trkpt lat="43.2938979752361774444580078125" lon="-5.01290255226194858551025390625">
        <ele>742.4000244140625</ele>
        <time>2018-09-08T09:13:32.000Z</time>
      </trkpt>
      <trkpt lat="43.2938698120415210723876953125" lon="-5.01292669214308261871337890625">
        <ele>742.79998779296875</ele>
        <time>2018-09-08T09:13:34.000Z</time>
      </trkpt>
      <trkpt lat="43.29383100382983684539794921875" lon="-5.012964494526386260986328125">
        <ele>743.4000244140625</ele>
        <time>2018-09-08T09:13:37.000Z</time>
      </trkpt>
      <trkpt lat="43.2938215322792530059814453125" lon="-5.01297798939049243927001953125">
        <ele>743.4000244140625</ele>
        <time>2018-09-08T09:13:38.000Z</time>
      </trkpt>
      <trkpt lat="43.2937947101891040802001953125" lon="-5.0130062364041805267333984375">
        <ele>743.79998779296875</ele>
        <time>2018-09-08T09:13:40.000Z</time>
      </trkpt>
      <trkpt lat="43.293755985796451568603515625" lon="-5.0130927376449108123779296875">
        <ele>744.5999755859375</ele>
        <time>2018-09-08T09:13:44.000Z</time>
      </trkpt>
      <trkpt lat="43.2937140762805938720703125" lon="-5.01316825859248638153076171875">
        <ele>745.4000244140625</ele>
        <time>2018-09-08T09:13:48.000Z</time>
      </trkpt>
      <trkpt lat="43.29369328916072845458984375" lon="-5.01321083866059780120849609375">
        <ele>746.20001220703125</ele>
        <time>2018-09-08T09:13:50.000Z</time>
      </trkpt>
      <trkpt lat="43.29363704659044742584228515625" lon="-5.01330102793872356414794921875">
        <ele>747.20001220703125</ele>
        <time>2018-09-08T09:13:55.000Z</time>
      </trkpt>
      <trkpt lat="43.29362631775438785552978515625" lon="-5.01332533545792102813720703125">
        <ele>747.20001220703125</ele>
        <time>2018-09-08T09:13:56.000Z</time>
      </trkpt>
      <trkpt lat="43.29358641989529132843017578125" lon="-5.01339976675808429718017578125">
        <ele>748.20001220703125</ele>
        <time>2018-09-08T09:14:00.000Z</time>
      </trkpt>
      <trkpt lat="43.2935316860675811767578125" lon="-5.013501942157745361328125">
        <ele>749.20001220703125</ele>
        <time>2018-09-08T09:14:05.000Z</time>
      </trkpt>
      <trkpt lat="43.29353428445756435394287109375" lon="-5.01352650113403797149658203125">
        <ele>749.5999755859375</ele>
        <time>2018-09-08T09:14:06.000Z</time>
      </trkpt>
      <trkpt lat="43.293521292507648468017578125" lon="-5.01362062990665435791015625">
        <ele>750.4000244140625</ele>
        <time>2018-09-08T09:14:10.000Z</time>
      </trkpt>
      <trkpt lat="43.29351768828928470611572265625" lon="-5.01364435069262981414794921875">
        <ele>750.5999755859375</ele>
        <time>2018-09-08T09:14:11.000Z</time>
      </trkpt>
      <trkpt lat="43.293515257537364959716796875" lon="-5.01370838843286037445068359375">
        <ele>751.4000244140625</ele>
        <time>2018-09-08T09:14:14.000Z</time>
      </trkpt>
      <trkpt lat="43.29349421896040439605712890625" lon="-5.013808719813823699951171875">
        <ele>752.5999755859375</ele>
        <time>2018-09-08T09:14:19.000Z</time>
      </trkpt>
      <trkpt lat="43.29347695223987102508544921875" lon="-5.01393503509461879730224609375">
        <ele>753.5999755859375</ele>
        <time>2018-09-08T09:14:25.000Z</time>
      </trkpt>
      <trkpt lat="43.29347158782184123992919921875" lon="-5.01399572007358074188232421875">
        <ele>754.20001220703125</ele>
        <time>2018-09-08T09:14:28.000Z</time>
      </trkpt>
      <trkpt lat="43.2934684865176677703857421875" lon="-5.0140385515987873077392578125">
        <ele>754.5999755859375</ele>
        <time>2018-09-08T09:14:30.000Z</time>
      </trkpt>
      <trkpt lat="43.293436132371425628662109375" lon="-5.01413485966622829437255859375">
        <ele>755.79998779296875</ele>
        <time>2018-09-08T09:14:35.000Z</time>
      </trkpt>
      <trkpt lat="43.2934279181063175201416015625" lon="-5.01417609862983226776123046875">
        <ele>756</ele>
        <time>2018-09-08T09:14:37.000Z</time>
      </trkpt>
      <trkpt lat="43.293423391878604888916015625" lon="-5.01419286243617534637451171875">
        <ele>756.20001220703125</ele>
        <time>2018-09-08T09:14:38.000Z</time>
      </trkpt>
      <trkpt lat="43.2934071309864521026611328125" lon="-5.01425069756805896759033203125">
        <ele>756.79998779296875</ele>
        <time>2018-09-08T09:14:41.000Z</time>
      </trkpt>
      <trkpt lat="43.293395899236202239990234375" lon="-5.01431171782314777374267578125">
        <ele>757.20001220703125</ele>
        <time>2018-09-08T09:14:44.000Z</time>
      </trkpt>
      <trkpt lat="43.2933598570525646209716796875" lon="-5.01438103616237640380859375">
        <ele>758</ele>
        <time>2018-09-08T09:14:48.000Z</time>
      </trkpt>
      <trkpt lat="43.2933477871119976043701171875" lon="-5.0144130550324916839599609375">
        <ele>758.4000244140625</ele>
        <time>2018-09-08T09:14:50.000Z</time>
      </trkpt>
      <trkpt lat="43.2933156006038188934326171875" lon="-5.01446284353733062744140625">
        <ele>759</ele>
        <time>2018-09-08T09:14:53.000Z</time>
      </trkpt>
      <trkpt lat="43.29327746294438838958740234375" lon="-5.01455596648156642913818359375">
        <ele>759.5999755859375</ele>
        <time>2018-09-08T09:14:58.000Z</time>
      </trkpt>
      <trkpt lat="43.29326639883220195770263671875" lon="-5.01459184102714061737060546875">
        <ele>760</ele>
        <time>2018-09-08T09:15:00.000Z</time>
      </trkpt>
      <trkpt lat="43.2932187058031558990478515625" lon="-5.01469619572162628173828125">
        <ele>761.20001220703125</ele>
        <time>2018-09-08T09:15:05.000Z</time>
      </trkpt>
      <trkpt lat="43.29321996308863162994384765625" lon="-5.014723353087902069091796875">
        <ele>761.20001220703125</ele>
        <time>2018-09-08T09:15:06.000Z</time>
      </trkpt>
      <trkpt lat="43.29319599084556102752685546875" lon="-5.01480474136769771575927734375">
        <ele>762.20001220703125</ele>
        <time>2018-09-08T09:15:10.000Z</time>
      </trkpt>
      <trkpt lat="43.29317050985991954803466796875" lon="-5.01486073248088359832763671875">
        <ele>762.5999755859375</ele>
        <time>2018-09-08T09:15:13.000Z</time>
      </trkpt>
      <trkpt lat="43.29314745962619781494140625" lon="-5.014925859868526458740234375">
        <ele>763.4000244140625</ele>
        <time>2018-09-08T09:15:16.000Z</time>
      </trkpt>
      <trkpt lat="43.29312524758279323577880859375" lon="-5.01497237943112850189208984375">
        <ele>763.79998779296875</ele>
        <time>2018-09-08T09:15:19.000Z</time>
      </trkpt>
      <trkpt lat="43.29311351291835308074951171875" lon="-5.01500305719673633575439453125">
        <ele>764</ele>
        <time>2018-09-08T09:15:21.000Z</time>
      </trkpt>
      <trkpt lat="43.2930980063974857330322265625" lon="-5.01503943465650081634521484375">
        <ele>764.4000244140625</ele>
        <time>2018-09-08T09:15:23.000Z</time>
      </trkpt>
      <trkpt lat="43.2930574379861354827880859375" lon="-5.0151449628174304962158203125">
        <ele>765.5999755859375</ele>
        <time>2018-09-08T09:15:28.000Z</time>
      </trkpt>
      <trkpt lat="43.29305098392069339752197265625" lon="-5.01516130752861499786376953125">
        <ele>765.5999755859375</ele>
        <time>2018-09-08T09:15:29.000Z</time>
      </trkpt>
      <trkpt lat="43.29301293008029460906982421875" lon="-5.01524646766483783721923828125">
        <ele>766.5999755859375</ele>
        <time>2018-09-08T09:15:34.000Z</time>
      </trkpt>
      <trkpt lat="43.292992226779460906982421875" lon="-5.0152790732681751251220703125">
        <ele>767</ele>
        <time>2018-09-08T09:15:36.000Z</time>
      </trkpt>
      <trkpt lat="43.292955346405506134033203125" lon="-5.01535258255898952484130859375">
        <ele>767.5999755859375</ele>
        <time>2018-09-08T09:15:40.000Z</time>
      </trkpt>
      <trkpt lat="43.29292626120150089263916015625" lon="-5.01538946293294429779052734375">
        <ele>768</ele>
        <time>2018-09-08T09:15:43.000Z</time>
      </trkpt>
      <trkpt lat="43.29287999309599399566650390625" lon="-5.0154319591820240020751953125">
        <ele>768.5999755859375</ele>
        <time>2018-09-08T09:15:47.000Z</time>
      </trkpt>
      <trkpt lat="43.292865492403507232666015625" lon="-5.01547261141240596771240234375">
        <ele>769</ele>
        <time>2018-09-08T09:15:49.000Z</time>
      </trkpt>
      <trkpt lat="43.292849399149417877197265625" lon="-5.0155070610344409942626953125">
        <ele>769.4000244140625</ele>
        <time>2018-09-08T09:15:51.000Z</time>
      </trkpt>
      <trkpt lat="43.29284076578915119171142578125" lon="-5.0155214779078960418701171875">
        <ele>769.79998779296875</ele>
        <time>2018-09-08T09:15:52.000Z</time>
      </trkpt>
      <trkpt lat="43.2927774824202060699462890625" lon="-5.01561007462441921234130859375">
        <ele>770.5999755859375</ele>
        <time>2018-09-08T09:15:58.000Z</time>
      </trkpt>
      <trkpt lat="43.29276516102254390716552734375" lon="-5.01562398858368396759033203125">
        <ele>770.79998779296875</ele>
        <time>2018-09-08T09:15:59.000Z</time>
      </trkpt>
      <trkpt lat="43.29270028509199619293212890625" lon="-5.015721805393695831298828125">
        <ele>772</ele>
        <time>2018-09-08T09:16:05.000Z</time>
      </trkpt>
      <trkpt lat="43.2926085032522678375244140625" lon="-5.015782155096530914306640625">
        <ele>773</ele>
        <time>2018-09-08T09:16:11.000Z</time>
      </trkpt>
      <trkpt lat="43.29259651713073253631591796875" lon="-5.0157984159886837005615234375">
        <ele>773.20001220703125</ele>
        <time>2018-09-08T09:16:12.000Z</time>
      </trkpt>
      <trkpt lat="43.29256734810769557952880859375" lon="-5.0158527307212352752685546875">
        <ele>774.20001220703125</ele>
        <time>2018-09-08T09:16:15.000Z</time>
      </trkpt>
      <trkpt lat="43.29251504503190517425537109375" lon="-5.01593613065779209136962890625">
        <ele>775</ele>
        <time>2018-09-08T09:16:20.000Z</time>
      </trkpt>
      <trkpt lat="43.29250414855778217315673828125" lon="-5.01595188863575458526611328125">
        <ele>775.4000244140625</ele>
        <time>2018-09-08T09:16:21.000Z</time>
      </trkpt>
      <trkpt lat="43.29245050437748432159423828125" lon="-5.016024224460124969482421875">
        <ele>776.20001220703125</ele>
        <time>2018-09-08T09:16:26.000Z</time>
      </trkpt>
      <trkpt lat="43.29244346357882022857666015625" lon="-5.0160431675612926483154296875">
        <ele>776.4000244140625</ele>
        <time>2018-09-08T09:16:27.000Z</time>
      </trkpt>
      <trkpt lat="43.29241546802222728729248046875" lon="-5.01612455584108829498291015625">
        <ele>777</ele>
        <time>2018-09-08T09:16:31.000Z</time>
      </trkpt>
      <trkpt lat="43.29238529317080974578857421875" lon="-5.01615271903574466705322265625">
        <ele>777.5999755859375</ele>
        <time>2018-09-08T09:16:33.000Z</time>
      </trkpt>
      <trkpt lat="43.2923181541264057159423828125" lon="-5.0161745958030223846435546875">
        <ele>778.20001220703125</ele>
        <time>2018-09-08T09:16:37.000Z</time>
      </trkpt>
      <trkpt lat="43.29230063594877719879150390625" lon="-5.0161801278591156005859375">
        <ele>778.5999755859375</ele>
        <time>2018-09-08T09:16:38.000Z</time>
      </trkpt>
      <trkpt lat="43.2922648452222347259521484375" lon="-5.01618339680135250091552734375">
        <ele>779</ele>
        <time>2018-09-08T09:16:40.000Z</time>
      </trkpt>
      <trkpt lat="43.29219418577849864959716796875" lon="-5.01616009511053562164306640625">
        <ele>779.5999755859375</ele>
        <time>2018-09-08T09:16:44.000Z</time>
      </trkpt>
      <trkpt lat="43.29214255325496196746826171875" lon="-5.01615397632122039794921875">
        <ele>780.20001220703125</ele>
        <time>2018-09-08T09:16:47.000Z</time>
      </trkpt>
      <trkpt lat="43.2920834608376026153564453125" lon="-5.0161400623619556427001953125">
        <ele>780.79998779296875</ele>
        <time>2018-09-08T09:16:51.000Z</time>
      </trkpt>
      <trkpt lat="43.2920549623668193817138671875" lon="-5.01614282839000225067138671875">
        <ele>781.20001220703125</ele>
        <time>2018-09-08T09:16:53.000Z</time>
      </trkpt>
      <trkpt lat="43.2919852249324321746826171875" lon="-5.01614861190319061279296875">
        <ele>781.79998779296875</ele>
        <time>2018-09-08T09:16:58.000Z</time>
      </trkpt>
      <trkpt lat="43.29197189770638942718505859375" lon="-5.01615355722606182098388671875">
        <ele>782</ele>
        <time>2018-09-08T09:16:59.000Z</time>
      </trkpt>
      <trkpt lat="43.29190987162292003631591796875" lon="-5.01615070737898349761962890625">
        <ele>783</ele>
        <time>2018-09-08T09:17:03.000Z</time>
      </trkpt>
      <trkpt lat="43.29187550581991672515869140625" lon="-5.01614048145711421966552734375">
        <ele>783.20001220703125</ele>
        <time>2018-09-08T09:17:05.000Z</time>
      </trkpt>
      <trkpt lat="43.29181431792676448822021484375" lon="-5.0161276571452617645263671875">
        <ele>784</ele>
        <time>2018-09-08T09:17:09.000Z</time>
      </trkpt>
      <trkpt lat="43.2918011583387851715087890625" lon="-5.01612220890820026397705078125">
        <ele>784.20001220703125</ele>
        <time>2018-09-08T09:17:10.000Z</time>
      </trkpt>
      <trkpt lat="43.29178665764629840850830078125" lon="-5.01610896550118923187255859375">
        <ele>784.4000244140625</ele>
        <time>2018-09-08T09:17:11.000Z</time>
      </trkpt>
      <trkpt lat="43.29170300625264644622802734375" lon="-5.016042329370975494384765625">
        <ele>785.20001220703125</ele>
        <time>2018-09-08T09:17:16.000Z</time>
      </trkpt>
      <trkpt lat="43.2916868291795253753662109375" lon="-5.01603771932423114776611328125">
        <ele>785.4000244140625</ele>
        <time>2018-09-08T09:17:17.000Z</time>
      </trkpt>
      <trkpt lat="43.2916563190519809722900390625" lon="-5.01603461802005767822265625">
        <ele>785.5999755859375</ele>
        <time>2018-09-08T09:17:19.000Z</time>
      </trkpt>
      <trkpt lat="43.29161365516483783721923828125" lon="-5.0159928761422634124755859375">
        <ele>786.20001220703125</ele>
        <time>2018-09-08T09:17:23.000Z</time>
      </trkpt>
      <trkpt lat="43.29153050668537616729736328125" lon="-5.01592875458300113677978515625">
        <ele>787.20001220703125</ele>
        <time>2018-09-08T09:17:29.000Z</time>
      </trkpt>
      <trkpt lat="43.29151676036417484283447265625" lon="-5.0159234739840030670166015625">
        <ele>787.4000244140625</ele>
        <time>2018-09-08T09:17:30.000Z</time>
      </trkpt>
      <trkpt lat="43.29143495298922061920166015625" lon="-5.01584979705512523651123046875">
        <ele>788.4000244140625</ele>
        <time>2018-09-08T09:17:36.000Z</time>
      </trkpt>
      <trkpt lat="43.2914176024496555328369140625" lon="-5.0158403255045413970947265625">
        <ele>788.5999755859375</ele>
        <time>2018-09-08T09:17:37.000Z</time>
      </trkpt>
      <trkpt lat="43.29133185558021068572998046875" lon="-5.01582180149853229522705078125">
        <ele>789.4000244140625</ele>
        <time>2018-09-08T09:17:42.000Z</time>
      </trkpt>
      <trkpt lat="43.29128977842628955841064453125" lon="-5.015793554484844207763671875">
        <ele>790</ele>
        <time>2018-09-08T09:17:45.000Z</time>
      </trkpt>
      <trkpt lat="43.291228674352169036865234375" lon="-5.0157617032527923583984375">
        <ele>790.5999755859375</ele>
        <time>2018-09-08T09:17:49.000Z</time>
      </trkpt>
      <trkpt lat="43.29115935601294040679931640625" lon="-5.01573865301907062530517578125">
        <ele>791.4000244140625</ele>
        <time>2018-09-08T09:17:53.000Z</time>
      </trkpt>
      <trkpt lat="43.29114074818789958953857421875" lon="-5.01573546789586544036865234375">
        <ele>791.5999755859375</ele>
        <time>2018-09-08T09:17:54.000Z</time>
      </trkpt>
      <trkpt lat="43.2910524867475032806396484375" lon="-5.0157259963452816009521484375">
        <ele>792.5999755859375</ele>
        <time>2018-09-08T09:18:00.000Z</time>
      </trkpt>
      <trkpt lat="43.290960788726806640625" lon="-5.0157263316214084625244140625">
        <ele>793.4000244140625</ele>
        <time>2018-09-08T09:18:06.000Z</time>
      </trkpt>
      <trkpt lat="43.29092918895184993743896484375" lon="-5.01573010347783565521240234375">
        <ele>793.79998779296875</ele>
        <time>2018-09-08T09:18:08.000Z</time>
      </trkpt>
      <trkpt lat="43.29087604768574237823486328125" lon="-5.01574435271322727203369140625">
        <ele>794.4000244140625</ele>
        <time>2018-09-08T09:18:11.000Z</time>
      </trkpt>
      <trkpt lat="43.29081368632614612579345703125" lon="-5.01575072295963764190673828125">
        <ele>795</ele>
        <time>2018-09-08T09:18:14.000Z</time>
      </trkpt>
      <trkpt lat="43.2907255925238132476806640625" lon="-5.0157477892935276031494140625">
        <ele>796</ele>
        <time>2018-09-08T09:18:19.000Z</time>
      </trkpt>
      <trkpt lat="43.29070790670812129974365234375" lon="-5.01574250869452953338623046875">
        <ele>796.20001220703125</ele>
        <time>2018-09-08T09:18:20.000Z</time>
      </trkpt>
      <trkpt lat="43.2906219922006130218505859375" lon="-5.0156904570758342742919921875">
        <ele>797.20001220703125</ele>
        <time>2018-09-08T09:18:25.000Z</time>
      </trkpt>
      <trkpt lat="43.2905314676463603973388671875" lon="-5.01557738520205020904541015625">
        <ele>798.20001220703125</ele>
        <time>2018-09-08T09:18:32.000Z</time>
      </trkpt>
      <trkpt lat="43.290521241724491119384765625" lon="-5.01555643044412136077880859375">
        <ele>798.4000244140625</ele>
        <time>2018-09-08T09:18:33.000Z</time>
      </trkpt>
      <trkpt lat="43.29047271050512790679931640625" lon="-5.01544587314128875732421875">
        <ele>799.20001220703125</ele>
        <time>2018-09-08T09:18:38.000Z</time>
      </trkpt>
      <trkpt lat="43.29043784178793430328369140625" lon="-5.0153675861656665802001953125">
        <ele>800.20001220703125</ele>
        <time>2018-09-08T09:18:42.000Z</time>
      </trkpt>
      <trkpt lat="43.290430046617984771728515625" lon="-5.015344955027103424072265625">
        <ele>800.4000244140625</ele>
        <time>2018-09-08T09:18:43.000Z</time>
      </trkpt>
      <trkpt lat="43.29037950374186038970947265625" lon="-5.0152130238711833953857421875">
        <ele>801.4000244140625</ele>
        <time>2018-09-08T09:18:49.000Z</time>
      </trkpt>
      <trkpt lat="43.2903720438480377197265625" lon="-5.0151925720274448394775390625">
        <ele>801.5999755859375</ele>
        <time>2018-09-08T09:18:50.000Z</time>
      </trkpt>
      <trkpt lat="43.2903479039669036865234375" lon="-5.01508318819105625152587890625">
        <ele>802.4000244140625</ele>
        <time>2018-09-08T09:18:55.000Z</time>
      </trkpt>
      <trkpt lat="43.29033776186406612396240234375" lon="-5.0150118581950664520263671875">
        <ele>803</ele>
        <time>2018-09-08T09:18:58.000Z</time>
      </trkpt>
      <trkpt lat="43.2903212495148181915283203125" lon="-5.0149451382458209991455078125">
        <ele>803.4000244140625</ele>
        <time>2018-09-08T09:19:01.000Z</time>
      </trkpt>
      <trkpt lat="43.29030691646039485931396484375" lon="-5.01488252542912960052490234375">
        <ele>804.20001220703125</ele>
        <time>2018-09-08T09:19:04.000Z</time>
      </trkpt>
      <trkpt lat="43.29029886983335018157958984375" lon="-5.0148358382284641265869140625">
        <ele>804.5999755859375</ele>
        <time>2018-09-08T09:19:06.000Z</time>
      </trkpt>
      <trkpt lat="43.2902672700583934783935546875" lon="-5.01474045217037200927734375">
        <ele>805.20001220703125</ele>
        <time>2018-09-08T09:19:10.000Z</time>
      </trkpt>
      <trkpt lat="43.29025276936590671539306640625" lon="-5.014680437743663787841796875">
        <ele>805.79998779296875</ele>
        <time>2018-09-08T09:19:12.000Z</time>
      </trkpt>
      <trkpt lat="43.29020398668944835662841796875" lon="-5.01457817852497100830078125">
        <ele>806.79998779296875</ele>
        <time>2018-09-08T09:19:16.000Z</time>
      </trkpt>
      <trkpt lat="43.2901923358440399169921875" lon="-5.0145532004535198211669921875">
        <ele>807</ele>
        <time>2018-09-08T09:19:17.000Z</time>
      </trkpt>
      <trkpt lat="43.2901547849178314208984375" lon="-5.0144348479807376861572265625">
        <ele>808</ele>
        <time>2018-09-08T09:19:21.000Z</time>
      </trkpt>
      <trkpt lat="43.29010306857526302337646484375" lon="-5.01434591598808765411376953125">
        <ele>809</ele>
        <time>2018-09-08T09:19:25.000Z</time>
      </trkpt>
      <trkpt lat="43.290059566497802734375" lon="-5.01428782939910888671875">
        <ele>809.79998779296875</ele>
        <time>2018-09-08T09:19:28.000Z</time>
      </trkpt>
      <trkpt lat="43.29002461396157741546630859375" lon="-5.014262013137340545654296875">
        <ele>810.20001220703125</ele>
        <time>2018-09-08T09:19:30.000Z</time>
      </trkpt>
      <trkpt lat="43.28994817100465297698974609375" lon="-5.01425522379577159881591796875">
        <ele>810.5999755859375</ele>
        <time>2018-09-08T09:19:34.000Z</time>
      </trkpt>
      <trkpt lat="43.289893604815006256103515625" lon="-5.0142501108348369598388671875">
        <ele>811.20001220703125</ele>
        <time>2018-09-08T09:19:37.000Z</time>
      </trkpt>
      <trkpt lat="43.2898216880857944488525390625" lon="-5.01424516551196575164794921875">
        <ele>812</ele>
        <time>2018-09-08T09:19:41.000Z</time>
      </trkpt>
      <trkpt lat="43.28978740610182285308837890625" lon="-5.0142397172749042510986328125">
        <ele>812.4000244140625</ele>
        <time>2018-09-08T09:19:43.000Z</time>
      </trkpt>
      <trkpt lat="43.2897693850100040435791015625" lon="-5.014236532151699066162109375">
        <ele>812.5999755859375</ele>
        <time>2018-09-08T09:19:44.000Z</time>
      </trkpt>
      <trkpt lat="43.2896973006427288055419921875" lon="-5.01423862762749195098876953125">
        <ele>813.4000244140625</ele>
        <time>2018-09-08T09:19:48.000Z</time>
      </trkpt>
      <trkpt lat="43.2896805368363857269287109375" lon="-5.01422840170562267303466796875">
        <ele>813.5999755859375</ele>
        <time>2018-09-08T09:19:49.000Z</time>
      </trkpt>
      <trkpt lat="43.28959143720567226409912109375" lon="-5.01422840170562267303466796875">
        <ele>814.5999755859375</ele>
        <time>2018-09-08T09:19:54.000Z</time>
      </trkpt>
      <trkpt lat="43.289575092494487762451171875" lon="-5.014223791658878326416015625">
        <ele>814.79998779296875</ele>
        <time>2018-09-08T09:19:55.000Z</time>
      </trkpt>
      <trkpt lat="43.28951985575258731842041015625" lon="-5.01420409418642520904541015625">
        <ele>815.5999755859375</ele>
        <time>2018-09-08T09:19:58.000Z</time>
      </trkpt>
      <trkpt lat="43.2894823886454105377197265625" lon="-5.01420727930963039398193359375">
        <ele>816</ele>
        <time>2018-09-08T09:20:00.000Z</time>
      </trkpt>
      <trkpt lat="43.28946411609649658203125" lon="-5.01420526765286922454833984375">
        <ele>816.20001220703125</ele>
        <time>2018-09-08T09:20:01.000Z</time>
      </trkpt>
      <trkpt lat="43.28943016938865184783935546875" lon="-5.014191605150699615478515625">
        <ele>816.79998779296875</ele>
        <time>2018-09-08T09:20:03.000Z</time>
      </trkpt>
      <trkpt lat="43.28938432037830352783203125" lon="-5.01415899954736232757568359375">
        <ele>817.5999755859375</ele>
        <time>2018-09-08T09:20:06.000Z</time>
      </trkpt>
      <trkpt lat="43.289366550743579864501953125" lon="-5.0141535513103008270263671875">
        <ele>818</ele>
        <time>2018-09-08T09:20:07.000Z</time>
      </trkpt>
      <trkpt lat="43.2893512956798076629638671875" lon="-5.01414240337908267974853515625">
        <ele>818.20001220703125</ele>
        <time>2018-09-08T09:20:08.000Z</time>
      </trkpt>
      <trkpt lat="43.28932606615126132965087890625" lon="-5.01407987438142299652099609375">
        <ele>819</ele>
        <time>2018-09-08T09:20:11.000Z</time>
      </trkpt>
      <trkpt lat="43.289318941533565521240234375" lon="-5.0140563212335109710693359375">
        <ele>819.20001220703125</ele>
        <time>2018-09-08T09:20:12.000Z</time>
      </trkpt>
      <trkpt lat="43.2893130742013454437255859375" lon="-5.0139778666198253631591796875">
        <ele>820.4000244140625</ele>
        <time>2018-09-08T09:20:15.000Z</time>
      </trkpt>
      <trkpt lat="43.2893090508878231048583984375" lon="-5.0139212049543857574462890625">
        <ele>821</ele>
        <time>2018-09-08T09:20:17.000Z</time>
      </trkpt>
      <trkpt lat="43.28931667841970920562744140625" lon="-5.01386915333569049835205078125">
        <ele>821.5999755859375</ele>
        <time>2018-09-08T09:20:19.000Z</time>
      </trkpt>
      <trkpt lat="43.289343751966953277587890625" lon="-5.0137971527874469757080078125">
        <ele>822.20001220703125</ele>
        <time>2018-09-08T09:20:22.000Z</time>
      </trkpt>
      <trkpt lat="43.28934953548014163970947265625" lon="-5.01377225853502750396728515625">
        <ele>822.5999755859375</ele>
        <time>2018-09-08T09:20:23.000Z</time>
      </trkpt>
      <trkpt lat="43.2893724180757999420166015625" lon="-5.01367385499179363250732421875">
        <ele>823.5999755859375</ele>
        <time>2018-09-08T09:20:27.000Z</time>
      </trkpt>
      <trkpt lat="43.28938021324574947357177734375" lon="-5.0136221386492252349853515625">
        <ele>824.4000244140625</ele>
        <time>2018-09-08T09:20:29.000Z</time>
      </trkpt>
      <trkpt lat="43.28938457183539867401123046875" lon="-5.0135695002973079681396484375">
        <ele>824.79998779296875</ele>
        <time>2018-09-08T09:20:31.000Z</time>
      </trkpt>
      <trkpt lat="43.28938406892120838165283203125" lon="-5.0134672410786151885986328125">
        <ele>825.79998779296875</ele>
        <time>2018-09-08T09:20:35.000Z</time>
      </trkpt>
      <trkpt lat="43.2893784530460834503173828125" lon="-5.01344284974038600921630859375">
        <ele>826.20001220703125</ele>
        <time>2018-09-08T09:20:36.000Z</time>
      </trkpt>
      <trkpt lat="43.28935909084975719451904296875" lon="-5.013373531401157379150390625">
        <ele>827.20001220703125</ele>
        <time>2018-09-08T09:20:39.000Z</time>
      </trkpt>
      <trkpt lat="43.28932489268481731414794921875" lon="-5.0132781453430652618408203125">
        <ele>828.20001220703125</ele>
        <time>2018-09-08T09:20:43.000Z</time>
      </trkpt>
      <trkpt lat="43.28931785188615322113037109375" lon="-5.01325291581451892852783203125">
        <ele>828.4000244140625</ele>
        <time>2018-09-08T09:20:44.000Z</time>
      </trkpt>
      <trkpt lat="43.2893010042607784271240234375" lon="-5.01317538321018218994140625">
        <ele>829.20001220703125</ele>
        <time>2018-09-08T09:20:47.000Z</time>
      </trkpt>
      <trkpt lat="43.2893077097833156585693359375" lon="-5.013065077364444732666015625">
        <ele>830.4000244140625</ele>
        <time>2018-09-08T09:20:51.000Z</time>
      </trkpt>
      <trkpt lat="43.28931617550551891326904296875" lon="-5.01303850673139095306396484375">
        <ele>830.5999755859375</ele>
        <time>2018-09-08T09:20:52.000Z</time>
      </trkpt>
      <trkpt lat="43.28933679498732089996337890625" lon="-5.0129596330225467681884765625">
        <ele>831.4000244140625</ele>
        <time>2018-09-08T09:20:55.000Z</time>
      </trkpt>
      <trkpt lat="43.2893823087215423583984375" lon="-5.012882687151432037353515625">
        <ele>832.4000244140625</ele>
        <time>2018-09-08T09:20:59.000Z</time>
      </trkpt>
      <trkpt lat="43.289398737251758575439453125" lon="-5.01286868937313556671142578125">
        <ele>832.5999755859375</ele>
        <time>2018-09-08T09:21:00.000Z</time>
      </trkpt>
      <trkpt lat="43.28947409056127071380615234375" lon="-5.0128282047808170318603515625">
        <ele>833.79998779296875</ele>
        <time>2018-09-08T09:21:04.000Z</time>
      </trkpt>
      <trkpt lat="43.28949169255793094635009765625" lon="-5.0128131173551082611083984375">
        <ele>834</ele>
        <time>2018-09-08T09:21:05.000Z</time>
      </trkpt>
      <trkpt lat="43.28956947661936283111572265625" lon="-5.012783445417881011962890625">
        <ele>835</ele>
        <time>2018-09-08T09:21:09.000Z</time>
      </trkpt>
      <trkpt lat="43.28960618935525417327880859375" lon="-5.0127990357577800750732421875">
        <ele>835.79998779296875</ele>
        <time>2018-09-08T09:21:11.000Z</time>
      </trkpt>
      <trkpt lat="43.28962446190416812896728515625" lon="-5.0128090940415859222412109375">
        <ele>836.20001220703125</ele>
        <time>2018-09-08T09:21:12.000Z</time>
      </trkpt>
      <trkpt lat="43.28970174305140972137451171875" lon="-5.012890733778476715087890625">
        <ele>837.4000244140625</ele>
        <time>2018-09-08T09:21:17.000Z</time>
      </trkpt>
      <trkpt lat="43.28971750102937221527099609375" lon="-5.0129053182899951934814453125">
        <ele>837.5999755859375</ele>
        <time>2018-09-08T09:21:18.000Z</time>
      </trkpt>
      <trkpt lat="43.28977600671350955963134765625" lon="-5.01297949813306331634521484375">
        <ele>838.4000244140625</ele>
        <time>2018-09-08T09:21:22.000Z</time>
      </trkpt>
      <trkpt lat="43.2898310758173465728759765625" lon="-5.013060383498668670654296875">
        <ele>839.79998779296875</ele>
        <time>2018-09-08T09:21:26.000Z</time>
      </trkpt>
      <trkpt lat="43.2898931019008159637451171875" lon="-5.01313246786594390869140625">
        <ele>840.79998779296875</ele>
        <time>2018-09-08T09:21:30.000Z</time>
      </trkpt>
      <trkpt lat="43.2899375259876251220703125" lon="-5.013150237500667572021484375">
        <ele>841.4000244140625</ele>
        <time>2018-09-08T09:21:32.000Z</time>
      </trkpt>
      <trkpt lat="43.289981447160243988037109375" lon="-5.013179741799831390380859375">
        <ele>842</ele>
        <time>2018-09-08T09:21:34.000Z</time>
      </trkpt>
      <trkpt lat="43.290057219564914703369140625" lon="-5.0132524967193603515625">
        <ele>843.20001220703125</ele>
        <time>2018-09-08T09:21:38.000Z</time>
      </trkpt>
      <trkpt lat="43.2900743186473846435546875" lon="-5.0132737867534160614013671875">
        <ele>843.4000244140625</ele>
        <time>2018-09-08T09:21:39.000Z</time>
      </trkpt>
      <trkpt lat="43.29013743437826633453369140625" lon="-5.01331075094640254974365234375">
        <ele>844.4000244140625</ele>
        <time>2018-09-08T09:21:42.000Z</time>
      </trkpt>
      <trkpt lat="43.29018806107342243194580078125" lon="-5.01331276260316371917724609375">
        <ele>845</ele>
        <time>2018-09-08T09:21:44.000Z</time>
      </trkpt>
      <trkpt lat="43.29026450403034687042236328125" lon="-5.01326397992670536041259765625">
        <ele>845.5999755859375</ele>
        <time>2018-09-08T09:21:47.000Z</time>
      </trkpt>
      <trkpt lat="43.2902806811034679412841796875" lon="-5.01322877593338489532470703125">
        <ele>845.79998779296875</ele>
        <time>2018-09-08T09:21:48.000Z</time>
      </trkpt>
      <trkpt lat="43.2902897335588932037353515625" lon="-5.013152249157428741455078125">
        <ele>847</ele>
        <time>2018-09-08T09:21:50.000Z</time>
      </trkpt>
      <trkpt lat="43.2902808487415313720703125" lon="-5.01302727498114109039306640625">
        <ele>848</ele>
        <time>2018-09-08T09:21:53.000Z</time>
      </trkpt>
      <trkpt lat="43.2902790047228336334228515625" lon="-5.0129871256649494171142578125">
        <ele>848</ele>
        <time>2018-09-08T09:21:54.000Z</time>
      </trkpt>
      <trkpt lat="43.29029501415789127349853515625" lon="-5.01271211542189121246337890625">
        <ele>849.20001220703125</ele>
        <time>2018-09-08T09:22:01.000Z</time>
      </trkpt>
      <trkpt lat="43.29035033471882343292236328125" lon="-5.01251396723091602325439453125">
        <ele>849.4000244140625</ele>
        <time>2018-09-08T09:22:06.000Z</time>
      </trkpt>
      <trkpt lat="43.29037581570446491241455078125" lon="-5.01243718899786472320556640625">
        <ele>849.4000244140625</ele>
        <time>2018-09-08T09:22:08.000Z</time>
      </trkpt>
      <trkpt lat="43.290373049676418304443359375" lon="-5.0122119672596454620361328125">
        <ele>849.5999755859375</ele>
        <time>2018-09-08T09:22:13.000Z</time>
      </trkpt>
      <trkpt lat="43.2902287133038043975830078125" lon="-5.01181826926767826080322265625">
        <ele>849.5999755859375</ele>
        <time>2018-09-08T09:22:21.000Z</time>
      </trkpt>
      <trkpt lat="43.29011782072484493255615234375" lon="-5.01153496094048023223876953125">
        <ele>850</ele>
        <time>2018-09-08T09:22:26.000Z</time>
      </trkpt>
      <trkpt lat="43.29010189510881900787353515625" lon="-5.01140437088906764984130859375">
        <ele>849.79998779296875</ele>
        <time>2018-09-08T09:22:28.000Z</time>
      </trkpt>
      <trkpt lat="43.29010340385138988494873046875" lon="-5.0112708471715450286865234375">
        <ele>849.5999755859375</ele>
        <time>2018-09-08T09:22:30.000Z</time>
      </trkpt>
      <trkpt lat="43.2901056669652462005615234375" lon="-5.01113430596888065338134765625">
        <ele>849.4000244140625</ele>
        <time>2018-09-08T09:22:32.000Z</time>
      </trkpt>
      <trkpt lat="43.29010784626007080078125" lon="-5.01100019551813602447509765625">
        <ele>849.20001220703125</ele>
        <time>2018-09-08T09:22:34.000Z</time>
      </trkpt>
      <trkpt lat="43.2901204191148281097412109375" lon="-5.01093464903533458709716796875">
        <ele>849.4000244140625</ele>
        <time>2018-09-08T09:22:35.000Z</time>
      </trkpt>
      <trkpt lat="43.29023902304470539093017578125" lon="-5.01071420498192310333251953125">
        <ele>849.4000244140625</ele>
        <time>2018-09-08T09:22:39.000Z</time>
      </trkpt>
      <trkpt lat="43.290306665003299713134765625" lon="-5.010612867772579193115234375">
        <ele>849.4000244140625</ele>
        <time>2018-09-08T09:22:41.000Z</time>
      </trkpt>
      <trkpt lat="43.2903909869492053985595703125" lon="-5.01044623553752899169921875">
        <ele>849.20001220703125</ele>
        <time>2018-09-08T09:22:44.000Z</time>
      </trkpt>
      <trkpt lat="43.2904261909425258636474609375" lon="-5.01031723804771900177001953125">
        <ele>849.20001220703125</ele>
        <time>2018-09-08T09:22:46.000Z</time>
      </trkpt>
      <trkpt lat="43.29043566249310970306396484375" lon="-5.01010366715490818023681640625">
        <ele>849</ele>
        <time>2018-09-08T09:22:49.000Z</time>
      </trkpt>
      <trkpt lat="43.2904369197785854339599609375" lon="-5.0100340135395526885986328125">
        <ele>849.20001220703125</ele>
        <time>2018-09-08T09:22:50.000Z</time>
      </trkpt>
      <trkpt lat="43.2904432900249958038330078125" lon="-5.00996704213321208953857421875">
        <ele>849.20001220703125</ele>
        <time>2018-09-08T09:22:51.000Z</time>
      </trkpt>
      <trkpt lat="43.29048327170312404632568359375" lon="-5.0098516233265399932861328125">
        <ele>849.4000244140625</ele>
        <time>2018-09-08T09:22:53.000Z</time>
      </trkpt>
      <trkpt lat="43.29051529057323932647705078125" lon="-5.009804852306842803955078125">
        <ele>849.4000244140625</ele>
        <time>2018-09-08T09:22:54.000Z</time>
      </trkpt>
      <trkpt lat="43.29064805991947650909423828125" lon="-5.00974425114691257476806640625">
        <ele>848.79998779296875</ele>
        <time>2018-09-08T09:22:57.000Z</time>
      </trkpt>
      <trkpt lat="43.29089306294918060302734375" lon="-5.00965456478297710418701171875">
        <ele>848.79998779296875</ele>
        <time>2018-09-08T09:23:02.000Z</time>
      </trkpt>
      <trkpt lat="43.29097897745668888092041015625" lon="-5.00957409851253032684326171875">
        <ele>848.5999755859375</ele>
        <time>2018-09-08T09:23:04.000Z</time>
      </trkpt>
      <trkpt lat="43.29108752310276031494140625" lon="-5.0093244016170501708984375">
        <ele>848.5999755859375</ele>
        <time>2018-09-08T09:23:08.000Z</time>
      </trkpt>
      <trkpt lat="43.291049301624298095703125" lon="-5.00911661423742771148681640625">
        <ele>848.79998779296875</ele>
        <time>2018-09-08T09:23:11.000Z</time>
      </trkpt>
      <trkpt lat="43.29102574847638607025146484375" lon="-5.00905224122107028961181640625">
        <ele>848.79998779296875</ele>
        <time>2018-09-08T09:23:12.000Z</time>
      </trkpt>
      <trkpt lat="43.2909458689391613006591796875" lon="-5.008670948445796966552734375">
        <ele>849.5999755859375</ele>
        <time>2018-09-08T09:23:18.000Z</time>
      </trkpt>
      <trkpt lat="43.2909562624990940093994140625" lon="-5.00856407918035984039306640625">
        <ele>850.20001220703125</ele>
        <time>2018-09-08T09:23:20.000Z</time>
      </trkpt>
      <trkpt lat="43.290987275540828704833984375" lon="-5.00848243944346904754638671875">
        <ele>850.79998779296875</ele>
        <time>2018-09-08T09:23:22.000Z</time>
      </trkpt>
      <trkpt lat="43.2910189591348171234130859375" lon="-5.0084179826080799102783203125">
        <ele>851.20001220703125</ele>
        <time>2018-09-08T09:23:24.000Z</time>
      </trkpt>
      <trkpt lat="43.29105533659458160400390625" lon="-5.0083324871957302093505859375">
        <ele>852.4000244140625</ele>
        <time>2018-09-08T09:23:27.000Z</time>
      </trkpt>
      <trkpt lat="43.29107218421995639801025390625" lon="-5.0082754902541637420654296875">
        <ele>853</ele>
        <time>2018-09-08T09:23:29.000Z</time>
      </trkpt>
      <trkpt lat="43.291090540587902069091796875" lon="-5.00821673311293125152587890625">
        <ele>853.4000244140625</ele>
        <time>2018-09-08T09:23:31.000Z</time>
      </trkpt>
      <trkpt lat="43.29113219864666461944580078125" lon="-5.00810642726719379425048828125">
        <ele>854.4000244140625</ele>
        <time>2018-09-08T09:23:35.000Z</time>
      </trkpt>
      <trkpt lat="43.291154913604259490966796875" lon="-5.00805236399173736572265625">
        <ele>854.79998779296875</ele>
        <time>2018-09-08T09:23:37.000Z</time>
      </trkpt>
      <trkpt lat="43.29118483699858188629150390625" lon="-5.00797726213932037353515625">
        <ele>855.5999755859375</ele>
        <time>2018-09-08T09:23:40.000Z</time>
      </trkpt>
      <trkpt lat="43.29122456721961498260498046875" lon="-5.0078894197940826416015625">
        <ele>856.5999755859375</ele>
        <time>2018-09-08T09:23:44.000Z</time>
      </trkpt>
      <trkpt lat="43.29123328439891338348388671875" lon="-5.00786460936069488525390625">
        <ele>856.79998779296875</ele>
        <time>2018-09-08T09:23:45.000Z</time>
      </trkpt>
      <trkpt lat="43.2912321947515010833740234375" lon="-5.0077222846448421478271484375">
        <ele>858.20001220703125</ele>
        <time>2018-09-08T09:23:50.000Z</time>
      </trkpt>
      <trkpt lat="43.2912083901464939117431640625" lon="-5.00764810480177402496337890625">
        <ele>859.4000244140625</ele>
        <time>2018-09-08T09:23:53.000Z</time>
      </trkpt>
      <trkpt lat="43.2911979965865612030029296875" lon="-5.00762497074902057647705078125">
        <ele>859.5999755859375</ele>
        <time>2018-09-08T09:23:54.000Z</time>
      </trkpt>
      <trkpt lat="43.2911869324743747711181640625" lon="-5.007602088153362274169921875">
        <ele>859.79998779296875</ele>
        <time>2018-09-08T09:23:55.000Z</time>
      </trkpt>
      <trkpt lat="43.2911788858473300933837890625" lon="-5.007573924958705902099609375">
        <ele>860</ele>
        <time>2018-09-08T09:23:56.000Z</time>
      </trkpt>
      <trkpt lat="43.29117360524833202362060546875" lon="-5.0075442530214786529541015625">
        <ele>860.20001220703125</ele>
        <time>2018-09-08T09:23:57.000Z</time>
      </trkpt>
      <trkpt lat="43.291167654097080230712890625" lon="-5.0075127370655536651611328125">
        <ele>860.4000244140625</ele>
        <time>2018-09-08T09:23:58.000Z</time>
      </trkpt>
      <trkpt lat="43.29115801490843296051025390625" lon="-5.00745833851397037506103515625">
        <ele>861</ele>
        <time>2018-09-08T09:24:00.000Z</time>
      </trkpt>
      <trkpt lat="43.29114175401628017425537109375" lon="-5.00741458497941493988037109375">
        <ele>861.5999755859375</ele>
        <time>2018-09-08T09:24:02.000Z</time>
      </trkpt>
      <trkpt lat="43.29109364189207553863525390625" lon="-5.0072944723069667816162109375">
        <ele>862.79998779296875</ele>
        <time>2018-09-08T09:24:08.000Z</time>
      </trkpt>
      <trkpt lat="43.2910819910466670989990234375" lon="-5.0072575919330120086669921875">
        <ele>863.20001220703125</ele>
        <time>2018-09-08T09:24:10.000Z</time>
      </trkpt>
      <trkpt lat="43.29106229357421398162841796875" lon="-5.00721308402717113494873046875">
        <ele>863.79998779296875</ele>
        <time>2018-09-08T09:24:13.000Z</time>
      </trkpt>
      <trkpt lat="43.29104720614850521087646484375" lon="-5.007164888083934783935546875">
        <ele>864.5999755859375</ele>
        <time>2018-09-08T09:24:16.000Z</time>
      </trkpt>
      <trkpt lat="43.2910176180303096771240234375" lon="-5.00712675042450428009033203125">
        <ele>865</ele>
        <time>2018-09-08T09:24:19.000Z</time>
      </trkpt>
      <trkpt lat="43.29096305184066295623779296875" lon="-5.00706396996974945068359375">
        <ele>865.5999755859375</ele>
        <time>2018-09-08T09:24:25.000Z</time>
      </trkpt>
      <trkpt lat="43.290941007435321807861328125" lon="-5.0070433504879474639892578125">
        <ele>866</ele>
        <time>2018-09-08T09:24:27.000Z</time>
      </trkpt>
      <trkpt lat="43.2908915542066097259521484375" lon="-5.00701577402651309967041015625">
        <ele>866.4000244140625</ele>
        <time>2018-09-08T09:24:31.000Z</time>
      </trkpt>
      <trkpt lat="43.29087772406637668609619140625" lon="-5.00701543875038623809814453125">
        <ele>866.5999755859375</ele>
        <time>2018-09-08T09:24:32.000Z</time>
      </trkpt>
      <trkpt lat="43.29083749093115329742431640625" lon="-5.007018037140369415283203125">
        <ele>867</ele>
        <time>2018-09-08T09:24:35.000Z</time>
      </trkpt>
      <trkpt lat="43.2907819189131259918212890625" lon="-5.00699968077242374420166015625">
        <ele>867.79998779296875</ele>
        <time>2018-09-08T09:24:39.000Z</time>
      </trkpt>
      <trkpt lat="43.2907691784203052520751953125" lon="-5.00699263997375965118408203125">
        <ele>868</ele>
        <time>2018-09-08T09:24:40.000Z</time>
      </trkpt>
      <trkpt lat="43.29075534828007221221923828125" lon="-5.00698811374604701995849609375">
        <ele>868.20001220703125</ele>
        <time>2018-09-08T09:24:41.000Z</time>
      </trkpt>
      <trkpt lat="43.290650658309459686279296875" lon="-5.00695777125656604766845703125">
        <ele>869.20001220703125</ele>
        <time>2018-09-08T09:24:48.000Z</time>
      </trkpt>
      <trkpt lat="43.29057614319026470184326171875" lon="-5.00694653950631618499755859375">
        <ele>870</ele>
        <time>2018-09-08T09:24:53.000Z</time>
      </trkpt>
      <trkpt lat="43.29055971466004848480224609375" lon="-5.00694922171533107757568359375">
        <ele>870.20001220703125</ele>
        <time>2018-09-08T09:24:54.000Z</time>
      </trkpt>
      <trkpt lat="43.29054278321564197540283203125" lon="-5.00694938935339450836181640625">
        <ele>870.4000244140625</ele>
        <time>2018-09-08T09:24:55.000Z</time>
      </trkpt>
      <trkpt lat="43.29046801663935184478759765625" lon="-5.00693413428962230682373046875">
        <ele>871.20001220703125</ele>
        <time>2018-09-08T09:25:00.000Z</time>
      </trkpt>
      <trkpt lat="43.2904225029051303863525390625" lon="-5.00692575238645076751708984375">
        <ele>871.79998779296875</ele>
        <time>2018-09-08T09:25:03.000Z</time>
      </trkpt>
      <trkpt lat="43.290407918393611907958984375" lon="-5.0069203041493892669677734375">
        <ele>872</ele>
        <time>2018-09-08T09:25:04.000Z</time>
      </trkpt>
      <trkpt lat="43.2903775759041309356689453125" lon="-5.0069122575223445892333984375">
        <ele>872.4000244140625</ele>
        <time>2018-09-08T09:25:06.000Z</time>
      </trkpt>
      <trkpt lat="43.290316052734851837158203125" lon="-5.00690328888595104217529296875">
        <ele>873.20001220703125</ele>
        <time>2018-09-08T09:25:10.000Z</time>
      </trkpt>
      <trkpt lat="43.29030272550880908966064453125" lon="-5.00689423643052577972412109375">
        <ele>873.4000244140625</ele>
        <time>2018-09-08T09:25:11.000Z</time>
      </trkpt>
      <trkpt lat="43.29025561921298503875732421875" lon="-5.006855092942714691162109375">
        <ele>874.20001220703125</ele>
        <time>2018-09-08T09:25:15.000Z</time>
      </trkpt>
      <trkpt lat="43.29022913239896297454833984375" lon="-5.006845034658908843994140625">
        <ele>874.5999755859375</ele>
        <time>2018-09-08T09:25:17.000Z</time>
      </trkpt>
      <trkpt lat="43.29022024758160114288330078125" lon="-5.00683254562318325042724609375">
        <ele>874.79998779296875</ele>
        <time>2018-09-08T09:25:18.000Z</time>
      </trkpt>
      <trkpt lat="43.290200047194957733154296875" lon="-5.006773285567760467529296875">
        <ele>875.79998779296875</ele>
        <time>2018-09-08T09:25:22.000Z</time>
      </trkpt>
      <trkpt lat="43.29017666168510913848876953125" lon="-5.00670715235173702239990234375">
        <ele>876.79998779296875</ele>
        <time>2018-09-08T09:25:26.000Z</time>
      </trkpt>
      <trkpt lat="43.29017196781933307647705078125" lon="-5.006665326654911041259765625">
        <ele>877.20001220703125</ele>
        <time>2018-09-08T09:25:28.000Z</time>
      </trkpt>
      <trkpt lat="43.29017423093318939208984375" lon="-5.00664328224956989288330078125">
        <ele>877.4000244140625</ele>
        <time>2018-09-08T09:25:29.000Z</time>
      </trkpt>
      <trkpt lat="43.29018085263669490814208984375" lon="-5.0065736286342144012451171875">
        <ele>877.79998779296875</ele>
        <time>2018-09-08T09:25:32.000Z</time>
      </trkpt>
      <trkpt lat="43.2901904918253421783447265625" lon="-5.0064566172659397125244140625">
        <ele>878.79998779296875</ele>
        <time>2018-09-08T09:25:37.000Z</time>
      </trkpt>
      <trkpt lat="43.29019392840564250946044921875" lon="-5.00643306411802768707275390625">
        <ele>879.20001220703125</ele>
        <time>2018-09-08T09:25:38.000Z</time>
      </trkpt>
      <trkpt lat="43.29017548821866512298583984375" lon="-5.006328709423542022705078125">
        <ele>880</ele>
        <time>2018-09-08T09:25:43.000Z</time>
      </trkpt>
      <trkpt lat="43.29017649404704570770263671875" lon="-5.00630415044724941253662109375">
        <ele>880.20001220703125</ele>
        <time>2018-09-08T09:25:44.000Z</time>
      </trkpt>
      <trkpt lat="43.2901609875261783599853515625" lon="-5.00623977743089199066162109375">
        <ele>880.79998779296875</ele>
        <time>2018-09-08T09:25:47.000Z</time>
      </trkpt>
      <trkpt lat="43.29014212824404239654541015625" lon="-5.006179176270961761474609375">
        <ele>881.4000244140625</ele>
        <time>2018-09-08T09:25:50.000Z</time>
      </trkpt>
      <trkpt lat="43.29012838192284107208251953125" lon="-5.00609611161053180694580078125">
        <ele>882.4000244140625</ele>
        <time>2018-09-08T09:25:54.000Z</time>
      </trkpt>
      <trkpt lat="43.29011966474354267120361328125" lon="-5.00605721957981586456298828125">
        <ele>882.5999755859375</ele>
        <time>2018-09-08T09:25:56.000Z</time>
      </trkpt>
      <trkpt lat="43.2900979556143283843994140625" lon="-5.00593987293541431427001953125">
        <ele>883.5999755859375</ele>
        <time>2018-09-08T09:26:01.000Z</time>
      </trkpt>
      <trkpt lat="43.290095441043376922607421875" lon="-5.005914308130741119384765625">
        <ele>883.79998779296875</ele>
        <time>2018-09-08T09:26:02.000Z</time>
      </trkpt>
      <trkpt lat="43.29007507301867008209228515625" lon="-5.00577843748033046722412109375">
        <ele>884.79998779296875</ele>
        <time>2018-09-08T09:26:08.000Z</time>
      </trkpt>
      <trkpt lat="43.29004875384271144866943359375" lon="-5.00564105808734893798828125">
        <ele>886.20001220703125</ele>
        <time>2018-09-08T09:26:14.000Z</time>
      </trkpt>
      <trkpt lat="43.29003551043570041656494140625" lon="-5.0055279023945331573486328125">
        <ele>887</ele>
        <time>2018-09-08T09:26:19.000Z</time>
      </trkpt>
      <trkpt lat="43.29003148712217807769775390625" lon="-5.0055057741701602935791015625">
        <ele>887.20001220703125</ele>
        <time>2018-09-08T09:26:20.000Z</time>
      </trkpt>
      <trkpt lat="43.290006928145885467529296875" lon="-5.00537275336682796478271484375">
        <ele>888.5999755859375</ele>
        <time>2018-09-08T09:26:26.000Z</time>
      </trkpt>
      <trkpt lat="43.29000181518495082855224609375" lon="-5.00535137951374053955078125">
        <ele>888.79998779296875</ele>
        <time>2018-09-08T09:26:27.000Z</time>
      </trkpt>
      <trkpt lat="43.28997801057994365692138671875" lon="-5.005236379802227020263671875">
        <ele>889.5999755859375</ele>
        <time>2018-09-08T09:26:32.000Z</time>
      </trkpt>
      <trkpt lat="43.28994951210916042327880859375" lon="-5.00515021383762359619140625">
        <ele>890.4000244140625</ele>
        <time>2018-09-08T09:26:36.000Z</time>
      </trkpt>
      <trkpt lat="43.289929814636707305908203125" lon="-5.00510704703629016876220703125">
        <ele>890.79998779296875</ele>
        <time>2018-09-08T09:26:38.000Z</time>
      </trkpt>
      <trkpt lat="43.289851360023021697998046875" lon="-5.00497964210808277130126953125">
        <ele>892</ele>
        <time>2018-09-08T09:26:44.000Z</time>
      </trkpt>
      <trkpt lat="43.28974314965307712554931640625" lon="-5.004899762570858001708984375">
        <ele>893</ele>
        <time>2018-09-08T09:26:50.000Z</time>
      </trkpt>
      <trkpt lat="43.28962362371385097503662109375" lon="-5.00481736846268177032470703125">
        <ele>894</ele>
        <time>2018-09-08T09:26:56.000Z</time>
      </trkpt>
      <trkpt lat="43.28960401006042957305908203125" lon="-5.00480311922729015350341796875">
        <ele>894</ele>
        <time>2018-09-08T09:26:57.000Z</time>
      </trkpt>
      <trkpt lat="43.289469815790653228759765625" lon="-5.00474092550575733184814453125">
        <ele>895.20001220703125</ele>
        <time>2018-09-08T09:27:03.000Z</time>
      </trkpt>
      <trkpt lat="43.28933377750217914581298828125" lon="-5.0047007761895656585693359375">
        <ele>896.4000244140625</ele>
        <time>2018-09-08T09:27:09.000Z</time>
      </trkpt>
      <trkpt lat="43.289313577115535736083984375" lon="-5.0046964175999164581298828125">
        <ele>896.5999755859375</ele>
        <time>2018-09-08T09:27:10.000Z</time>
      </trkpt>
      <trkpt lat="43.2892047800123691558837890625" lon="-5.004685185849666595458984375">
        <ele>897.4000244140625</ele>
        <time>2018-09-08T09:27:15.000Z</time>
      </trkpt>
      <trkpt lat="43.28913495875895023345947265625" lon="-5.00467856414616107940673828125">
        <ele>898</ele>
        <time>2018-09-08T09:27:18.000Z</time>
      </trkpt>
      <trkpt lat="43.2890649698674678802490234375" lon="-5.0046742893755435943603515625">
        <ele>898.5999755859375</ele>
        <time>2018-09-08T09:27:21.000Z</time>
      </trkpt>
      <trkpt lat="43.28892172314226627349853515625" lon="-5.00466314144432544708251953125">
        <ele>899.5999755859375</ele>
        <time>2018-09-08T09:27:27.000Z</time>
      </trkpt>
      <trkpt lat="43.2887830026447772979736328125" lon="-5.0046548433601856231689453125">
        <ele>900.5999755859375</ele>
        <time>2018-09-08T09:27:33.000Z</time>
      </trkpt>
      <trkpt lat="43.28871108591556549072265625" lon="-5.0046471320092678070068359375">
        <ele>901.20001220703125</ele>
        <time>2018-09-08T09:27:36.000Z</time>
      </trkpt>
      <trkpt lat="43.288612850010395050048828125" lon="-5.00463145785033702850341796875">
        <ele>901.79998779296875</ele>
        <time>2018-09-08T09:27:40.000Z</time>
      </trkpt>
      <trkpt lat="43.288497515022754669189453125" lon="-5.00462760217487812042236328125">
        <ele>902.5999755859375</ele>
        <time>2018-09-08T09:27:45.000Z</time>
      </trkpt>
      <trkpt lat="43.28845351003110408782958984375" lon="-5.00463145785033702850341796875">
        <ele>902.79998779296875</ele>
        <time>2018-09-08T09:27:47.000Z</time>
      </trkpt>
      <trkpt lat="43.288350664079189300537109375" lon="-5.004701279103755950927734375">
        <ele>903.5999755859375</ele>
        <time>2018-09-08T09:27:52.000Z</time>
      </trkpt>
      <trkpt lat="43.28833214007318019866943359375" lon="-5.0047229044139385223388671875">
        <ele>903.79998779296875</ele>
        <time>2018-09-08T09:27:53.000Z</time>
      </trkpt>
      <trkpt lat="43.28823625110089778900146484375" lon="-5.004902444779872894287109375">
        <ele>904.79998779296875</ele>
        <time>2018-09-08T09:28:00.000Z</time>
      </trkpt>
      <trkpt lat="43.2881805114448070526123046875" lon="-5.00506035983562469482421875">
        <ele>906</ele>
        <time>2018-09-08T09:28:06.000Z</time>
      </trkpt>
      <trkpt lat="43.28817506320774555206298828125" lon="-5.00511224381625652313232421875">
        <ele>906.4000244140625</ele>
        <time>2018-09-08T09:28:08.000Z</time>
      </trkpt>
      <trkpt lat="43.28817321918904781341552734375" lon="-5.00516773201525211334228515625">
        <ele>907</ele>
        <time>2018-09-08T09:28:10.000Z</time>
      </trkpt>
      <trkpt lat="43.28817523084580898284912109375" lon="-5.005251467227935791015625">
        <ele>907.5999755859375</ele>
        <time>2018-09-08T09:28:13.000Z</time>
      </trkpt>
      <trkpt lat="43.28817724250257015228271484375" lon="-5.00528088770806789398193359375">
        <ele>908</ele>
        <time>2018-09-08T09:28:14.000Z</time>
      </trkpt>
      <trkpt lat="43.2881805114448070526123046875" lon="-5.00534308142960071563720703125">
        <ele>908.5999755859375</ele>
        <time>2018-09-08T09:28:16.000Z</time>
      </trkpt>
      <trkpt lat="43.2881927490234375" lon="-5.00543243251740932464599609375">
        <ele>909.4000244140625</ele>
        <time>2018-09-08T09:28:19.000Z</time>
      </trkpt>
      <trkpt lat="43.2881929166615009307861328125" lon="-5.005567632615566253662109375">
        <ele>910.4000244140625</ele>
        <time>2018-09-08T09:28:24.000Z</time>
      </trkpt>
      <trkpt lat="43.28819450922310352325439453125" lon="-5.005594454705715179443359375">
        <ele>910.79998779296875</ele>
        <time>2018-09-08T09:28:25.000Z</time>
      </trkpt>
      <trkpt lat="43.2881912402808666229248046875" lon="-5.00574960373342037200927734375">
        <ele>911.79998779296875</ele>
        <time>2018-09-08T09:28:31.000Z</time>
      </trkpt>
      <trkpt lat="43.28819467686116695404052734375" lon="-5.0057758390903472900390625">
        <ele>912.20001220703125</ele>
        <time>2018-09-08T09:28:32.000Z</time>
      </trkpt>
      <trkpt lat="43.28820708207786083221435546875" lon="-5.005875416100025177001953125">
        <ele>913</ele>
        <time>2018-09-08T09:28:36.000Z</time>
      </trkpt>
      <trkpt lat="43.28820657916367053985595703125" lon="-5.005899555981159210205078125">
        <ele>913.20001220703125</ele>
        <time>2018-09-08T09:28:37.000Z</time>
      </trkpt>
      <trkpt lat="43.28818629495799541473388671875" lon="-5.005973316729068756103515625">
        <ele>914</ele>
        <time>2018-09-08T09:28:40.000Z</time>
      </trkpt>
      <trkpt lat="43.28812108375132083892822265625" lon="-5.006037019193172454833984375">
        <ele>914.79998779296875</ele>
        <time>2018-09-08T09:28:44.000Z</time>
      </trkpt>
      <trkpt lat="43.288104236125946044921875" lon="-5.0060522742569446563720703125">
        <ele>915</ele>
        <time>2018-09-08T09:28:45.000Z</time>
      </trkpt>
      <trkpt lat="43.2880889810621738433837890625" lon="-5.006071217358112335205078125">
        <ele>915.20001220703125</ele>
        <time>2018-09-08T09:28:46.000Z</time>
      </trkpt>
      <trkpt lat="43.28799627721309661865234375" lon="-5.00616467557847499847412109375">
        <ele>916.20001220703125</ele>
        <time>2018-09-08T09:28:52.000Z</time>
      </trkpt>
      <trkpt lat="43.28790717758238315582275390625" lon="-5.006232149899005889892578125">
        <ele>917.20001220703125</ele>
        <time>2018-09-08T09:28:57.000Z</time>
      </trkpt>
      <trkpt lat="43.28788370825350284576416015625" lon="-5.0062722153961658477783203125">
        <ele>917.4000244140625</ele>
        <time>2018-09-08T09:28:59.000Z</time>
      </trkpt>
      <trkpt lat="43.28782939352095127105712890625" lon="-5.00631135888397693634033203125">
        <ele>918.20001220703125</ele>
        <time>2018-09-08T09:29:02.000Z</time>
      </trkpt>
      <trkpt lat="43.287781365215778350830078125" lon="-5.0063632428646087646484375">
        <ele>918.79998779296875</ele>
        <time>2018-09-08T09:29:05.000Z</time>
      </trkpt>
      <trkpt lat="43.2877315767109394073486328125" lon="-5.00641847960650920867919921875">
        <ele>919.4000244140625</ele>
        <time>2018-09-08T09:29:08.000Z</time>
      </trkpt>
      <trkpt lat="43.2876832969486713409423828125" lon="-5.0064770691096782684326171875">
        <ele>920</ele>
        <time>2018-09-08T09:29:11.000Z</time>
      </trkpt>
      <trkpt lat="43.2876524515450000762939453125" lon="-5.0065183080732822418212890625">
        <ele>920.4000244140625</ele>
        <time>2018-09-08T09:29:13.000Z</time>
      </trkpt>
      <trkpt lat="43.2875686325132846832275390625" lon="-5.0066038034856319427490234375">
        <ele>921.5999755859375</ele>
        <time>2018-09-08T09:29:18.000Z</time>
      </trkpt>
      <trkpt lat="43.287527561187744140625" lon="-5.00662249512970447540283203125">
        <ele>922</ele>
        <time>2018-09-08T09:29:20.000Z</time>
      </trkpt>
      <trkpt lat="43.287466205656528472900390625" lon="-5.00664713792502880096435546875">
        <ele>922.79998779296875</ele>
        <time>2018-09-08T09:29:23.000Z</time>
      </trkpt>
      <trkpt lat="43.28738481737673282623291015625" lon="-5.00666306354105472564697265625">
        <ele>923.5999755859375</ele>
        <time>2018-09-08T09:29:27.000Z</time>
      </trkpt>
      <trkpt lat="43.28736268915235996246337890625" lon="-5.0066668353974819183349609375">
        <ele>924</ele>
        <time>2018-09-08T09:29:28.000Z</time>
      </trkpt>
      <trkpt lat="43.28728507272899150848388671875" lon="-5.00671067275106906890869140625">
        <ele>924.79998779296875</ele>
        <time>2018-09-08T09:29:32.000Z</time>
      </trkpt>
      <trkpt lat="43.2872424088418483734130859375" lon="-5.006713606417179107666015625">
        <ele>925</ele>
        <time>2018-09-08T09:29:34.000Z</time>
      </trkpt>
      <trkpt lat="43.28713537193834781646728515625" lon="-5.00674671493470668792724609375">
        <ele>926.4000244140625</ele>
        <time>2018-09-08T09:29:39.000Z</time>
      </trkpt>
      <trkpt lat="43.28699170611798763275146484375" lon="-5.00680086202919483184814453125">
        <ele>927.4000244140625</ele>
        <time>2018-09-08T09:29:45.000Z</time>
      </trkpt>
      <trkpt lat="43.286934792995452880859375" lon="-5.00681527890264987945556640625">
        <ele>927.79998779296875</ele>
        <time>2018-09-08T09:29:47.000Z</time>
      </trkpt>
      <trkpt lat="43.28684368170797824859619140625" lon="-5.00684210099279880523681640625">
        <ele>928.5999755859375</ele>
        <time>2018-09-08T09:29:50.000Z</time>
      </trkpt>
      <trkpt lat="43.28666363842785358428955078125" lon="-5.006936229765415191650390625">
        <ele>929.4000244140625</ele>
        <time>2018-09-08T09:29:56.000Z</time>
      </trkpt>
      <trkpt lat="43.286644108593463897705078125" lon="-5.00697118230164051055908203125">
        <ele>929.5999755859375</ele>
        <time>2018-09-08T09:29:57.000Z</time>
      </trkpt>
      <trkpt lat="43.2866087369620800018310546875" lon="-5.00709741376340389251708984375">
        <ele>930.20001220703125</ele>
        <time>2018-09-08T09:30:00.000Z</time>
      </trkpt>
      <trkpt lat="43.28658250160515308380126953125" lon="-5.00727678649127483367919921875">
        <ele>930.79998779296875</ele>
        <time>2018-09-08T09:30:04.000Z</time>
      </trkpt>
      <trkpt lat="43.2865859381854534149169921875" lon="-5.00751055777072906494140625">
        <ele>931.5999755859375</ele>
        <time>2018-09-08T09:30:09.000Z</time>
      </trkpt>
      <trkpt lat="43.28659289516508579254150390625" lon="-5.007558166980743408203125">
        <ele>931.79998779296875</ele>
        <time>2018-09-08T09:30:10.000Z</time>
      </trkpt>
      <trkpt lat="43.28655752353370189666748046875" lon="-5.0077822990715503692626953125">
        <ele>932.79998779296875</ele>
        <time>2018-09-08T09:30:15.000Z</time>
      </trkpt>
      <trkpt lat="43.2865326292812824249267578125" lon="-5.00781708396971225738525390625">
        <ele>932.79998779296875</ele>
        <time>2018-09-08T09:30:16.000Z</time>
      </trkpt>
      <trkpt lat="43.28640882857143878936767578125" lon="-5.00789822079241275787353515625">
        <ele>933.5999755859375</ele>
        <time>2018-09-08T09:30:20.000Z</time>
      </trkpt>
      <trkpt lat="43.286276645958423614501953125" lon="-5.00792638398706912994384765625">
        <ele>934</ele>
        <time>2018-09-08T09:30:24.000Z</time>
      </trkpt>
      <trkpt lat="43.2861872948706150054931640625" lon="-5.0079288147389888763427734375">
        <ele>934.5999755859375</ele>
        <time>2018-09-08T09:30:27.000Z</time>
      </trkpt>
      <trkpt lat="43.286114037036895751953125" lon="-5.00794515945017337799072265625">
        <ele>935.20001220703125</ele>
        <time>2018-09-08T09:30:30.000Z</time>
      </trkpt>
      <trkpt lat="43.28603088855743408203125" lon="-5.00797349028289318084716796875">
        <ele>936.4000244140625</ele>
        <time>2018-09-08T09:30:34.000Z</time>
      </trkpt>
      <trkpt lat="43.28596190549433231353759765625" lon="-5.0080226920545101165771484375">
        <ele>937.4000244140625</ele>
        <time>2018-09-08T09:30:38.000Z</time>
      </trkpt>
      <trkpt lat="43.2859200797975063323974609375" lon="-5.0080521963536739349365234375">
        <ele>938.4000244140625</ele>
        <time>2018-09-08T09:30:40.000Z</time>
      </trkpt>
      <trkpt lat="43.28590205870568752288818359375" lon="-5.008068121969699859619140625">
        <ele>938.5999755859375</ele>
        <time>2018-09-08T09:30:41.000Z</time>
      </trkpt>
      <trkpt lat="43.28583047725260257720947265625" lon="-5.0081226043403148651123046875">
        <ele>939.79998779296875</ele>
        <time>2018-09-08T09:30:45.000Z</time>
      </trkpt>
      <trkpt lat="43.2858151383697986602783203125" lon="-5.00814355909824371337890625">
        <ele>940</ele>
        <time>2018-09-08T09:30:46.000Z</time>
      </trkpt>
      <trkpt lat="43.285787142813205718994140625" lon="-5.0081846304237842559814453125">
        <ele>940.79998779296875</ele>
        <time>2018-09-08T09:30:48.000Z</time>
      </trkpt>
      <trkpt lat="43.28574657440185546875" lon="-5.00828093849122524261474609375">
        <ele>941.79998779296875</ele>
        <time>2018-09-08T09:30:52.000Z</time>
      </trkpt>
      <trkpt lat="43.2857169024646282196044921875" lon="-5.00838638283312320709228515625">
        <ele>943</ele>
        <time>2018-09-08T09:30:56.000Z</time>
      </trkpt>
      <trkpt lat="43.28569896519184112548828125" lon="-5.00845360569655895233154296875">
        <ele>943.5999755859375</ele>
        <time>2018-09-08T09:30:59.000Z</time>
      </trkpt>
      <trkpt lat="43.28568278811872005462646484375" lon="-5.00849802978336811065673828125">
        <ele>944.20001220703125</ele>
        <time>2018-09-08T09:31:01.000Z</time>
      </trkpt>
      <trkpt lat="43.2856486737728118896484375" lon="-5.00858034007251262664794921875">
        <ele>945.20001220703125</ele>
        <time>2018-09-08T09:31:05.000Z</time>
      </trkpt>
      <trkpt lat="43.2855641841888427734375" lon="-5.008630715310573577880859375">
        <ele>946.4000244140625</ele>
        <time>2018-09-08T09:31:10.000Z</time>
      </trkpt>
      <trkpt lat="43.28552328050136566162109375" lon="-5.00862593762576580047607421875">
        <ele>947</ele>
        <time>2018-09-08T09:31:12.000Z</time>
      </trkpt>
      <trkpt lat="43.28548304736614227294921875" lon="-5.00862040556967258453369140625">
        <ele>947.5999755859375</ele>
        <time>2018-09-08T09:31:14.000Z</time>
      </trkpt>
      <trkpt lat="43.28540501184761524200439453125" lon="-5.0086087547242641448974609375">
        <ele>948.5999755859375</ele>
        <time>2018-09-08T09:31:18.000Z</time>
      </trkpt>
      <trkpt lat="43.28536276705563068389892578125" lon="-5.00859358347952365875244140625">
        <ele>949</ele>
        <time>2018-09-08T09:31:20.000Z</time>
      </trkpt>
      <trkpt lat="43.285307027399539947509765625" lon="-5.00855863094329833984375">
        <ele>949.79998779296875</ele>
        <time>2018-09-08T09:31:23.000Z</time>
      </trkpt>
      <trkpt lat="43.2852304168045520782470703125" lon="-5.0085229240357875823974609375">
        <ele>950.79998779296875</ele>
        <time>2018-09-08T09:31:27.000Z</time>
      </trkpt>
      <trkpt lat="43.285210132598876953125" lon="-5.008518733084201812744140625">
        <ele>951</ele>
        <time>2018-09-08T09:31:28.000Z</time>
      </trkpt>
      <trkpt lat="43.28514785505831241607666015625" lon="-5.008550919592380523681640625">
        <ele>951.79998779296875</ele>
        <time>2018-09-08T09:31:31.000Z</time>
      </trkpt>
      <trkpt lat="43.2851134054362773895263671875" lon="-5.0085842795670032501220703125">
        <ele>952.4000244140625</ele>
        <time>2018-09-08T09:31:33.000Z</time>
      </trkpt>
      <trkpt lat="43.28508314676582813262939453125" lon="-5.00861638225615024566650390625">
        <ele>952.79998779296875</ele>
        <time>2018-09-08T09:31:35.000Z</time>
      </trkpt>
      <trkpt lat="43.28499890863895416259765625" lon="-5.008667595684528350830078125">
        <ele>954</ele>
        <time>2018-09-08T09:31:40.000Z</time>
      </trkpt>
      <trkpt lat="43.28490276820957660675048828125" lon="-5.00872082076966762542724609375">
        <ele>955</ele>
        <time>2018-09-08T09:31:45.000Z</time>
      </trkpt>
      <trkpt lat="43.28483822755515575408935546875" lon="-5.008727610111236572265625">
        <ele>955.79998779296875</ele>
        <time>2018-09-08T09:31:48.000Z</time>
      </trkpt>
      <trkpt lat="43.2847928814589977264404296875" lon="-5.00872266478836536407470703125">
        <ele>956.20001220703125</ele>
        <time>2018-09-08T09:31:50.000Z</time>
      </trkpt>
      <trkpt lat="43.28467980958521366119384765625" lon="-5.008662231266498565673828125">
        <ele>956.79998779296875</ele>
        <time>2018-09-08T09:31:55.000Z</time>
      </trkpt>
      <trkpt lat="43.28451887704432010650634765625" lon="-5.00852904282510280609130859375">
        <ele>956.79998779296875</ele>
        <time>2018-09-08T09:32:01.000Z</time>
      </trkpt>
      <trkpt lat="43.2843439467251300811767578125" lon="-5.00833491794764995574951171875">
        <ele>956.79998779296875</ele>
        <time>2018-09-08T09:32:07.000Z</time>
      </trkpt>
      <trkpt lat="43.28428703360259532928466796875" lon="-5.00826291739940643310546875">
        <ele>956.79998779296875</ele>
        <time>2018-09-08T09:32:09.000Z</time>
      </trkpt>
      <trkpt lat="43.2841518335044384002685546875" lon="-5.00812922604382038116455078125">
        <ele>957</ele>
        <time>2018-09-08T09:32:14.000Z</time>
      </trkpt>
      <trkpt lat="43.2841343991458415985107421875" lon="-5.008094608783721923828125">
        <ele>957.20001220703125</ele>
        <time>2018-09-08T09:32:15.000Z</time>
      </trkpt>
      <trkpt lat="43.28405234031379222869873046875" lon="-5.00785832293331623077392578125">
        <ele>957.20001220703125</ele>
        <time>2018-09-08T09:32:20.000Z</time>
      </trkpt>
      <trkpt lat="43.28387648798525333404541015625" lon="-5.00742212869226932525634765625">
        <ele>957</ele>
        <time>2018-09-08T09:32:28.000Z</time>
      </trkpt>
      <trkpt lat="43.28384463675320148468017578125" lon="-5.00737351365387439727783203125">
        <ele>957.20001220703125</ele>
        <time>2018-09-08T09:32:29.000Z</time>
      </trkpt>
      <trkpt lat="43.28372091986238956451416015625" lon="-5.00718022696673870086669921875">
        <ele>957.20001220703125</ele>
        <time>2018-09-08T09:32:33.000Z</time>
      </trkpt>
      <trkpt lat="43.283615894615650177001953125" lon="-5.00690094195306301116943359375">
        <ele>957.5999755859375</ele>
        <time>2018-09-08T09:32:38.000Z</time>
      </trkpt>
      <trkpt lat="43.2835979573428630828857421875" lon="-5.006844364106655120849609375">
        <ele>957.5999755859375</ele>
        <time>2018-09-08T09:32:39.000Z</time>
      </trkpt>
      <trkpt lat="43.28345152549445629119873046875" lon="-5.0063878856599330902099609375">
        <ele>957.20001220703125</ele>
        <time>2018-09-08T09:32:47.000Z</time>
      </trkpt>
      <trkpt lat="43.2833755016326904296875" lon="-5.00616216100752353668212890625">
        <ele>955.5999755859375</ele>
        <time>2018-09-08T09:32:50.000Z</time>
      </trkpt>
      <trkpt lat="43.28332361765205860137939453125" lon="-5.005975998938083648681640625">
        <ele>953.79998779296875</ele>
        <time>2018-09-08T09:32:52.000Z</time>
      </trkpt>
      <trkpt lat="43.2832697220146656036376953125" lon="-5.00576309859752655029296875">
        <ele>951.5999755859375</ele>
        <time>2018-09-08T09:32:54.000Z</time>
      </trkpt>
      <trkpt lat="43.2832439057528972625732421875" lon="-5.0056492723524570465087890625">
        <ele>950.5999755859375</ele>
        <time>2018-09-08T09:32:55.000Z</time>
      </trkpt>
      <trkpt lat="43.28322135843336582183837890625" lon="-5.005525387823581695556640625">
        <ele>949.4000244140625</ele>
        <time>2018-09-08T09:32:56.000Z</time>
      </trkpt>
      <trkpt lat="43.2831989787518978118896484375" lon="-5.00539387576282024383544921875">
        <ele>948.5999755859375</ele>
        <time>2018-09-08T09:32:57.000Z</time>
      </trkpt>
      <trkpt lat="43.2831758446991443634033203125" lon="-5.00525691546499729156494140625">
        <ele>947.5999755859375</ele>
        <time>2018-09-08T09:32:58.000Z</time>
      </trkpt>
      <trkpt lat="43.28311323188245296478271484375" lon="-5.00498592853546142578125">
        <ele>946.20001220703125</ele>
        <time>2018-09-08T09:33:00.000Z</time>
      </trkpt>
      <trkpt lat="43.28307065181434154510498046875" lon="-5.00485525466501712799072265625">
        <ele>945.20001220703125</ele>
        <time>2018-09-08T09:33:01.000Z</time>
      </trkpt>
      <trkpt lat="43.28301851637661457061767578125" lon="-5.00472818501293659210205078125">
        <ele>944.20001220703125</ele>
        <time>2018-09-08T09:33:02.000Z</time>
      </trkpt>
      <trkpt lat="43.28296319581568241119384765625" lon="-5.0046045519411563873291015625">
        <ele>941.79998779296875</ele>
        <time>2018-09-08T09:33:03.000Z</time>
      </trkpt>
      <trkpt lat="43.28291206620633602142333984375" lon="-5.00448125414550304412841796875">
        <ele>940.5999755859375</ele>
        <time>2018-09-08T09:33:04.000Z</time>
      </trkpt>
      <trkpt lat="43.28286596573889255523681640625" lon="-5.0043551065027713775634765625">
        <ele>939.20001220703125</ele>
        <time>2018-09-08T09:33:05.000Z</time>
      </trkpt>
      <trkpt lat="43.2828301750123500823974609375" lon="-5.00421923585236072540283203125">
        <ele>937.5999755859375</ele>
        <time>2018-09-08T09:33:06.000Z</time>
      </trkpt>
      <trkpt lat="43.28280511312186717987060546875" lon="-5.00408344902098178863525390625">
        <ele>936.20001220703125</ele>
        <time>2018-09-08T09:33:07.000Z</time>
      </trkpt>
      <trkpt lat="43.2827919535338878631591796875" lon="-5.00394699163734912872314453125">
        <ele>935</ele>
        <time>2018-09-08T09:33:08.000Z</time>
      </trkpt>
      <trkpt lat="43.28283495269715785980224609375" lon="-5.00371347181499004364013671875">
        <ele>932.79998779296875</ele>
        <time>2018-09-08T09:33:10.000Z</time>
      </trkpt>
      <trkpt lat="43.282868228852748870849609375" lon="-5.00362294726073741912841796875">
        <ele>931.79998779296875</ele>
        <time>2018-09-08T09:33:11.000Z</time>
      </trkpt>
      <trkpt lat="43.28289899043738842010498046875" lon="-5.00353896059095859527587890625">
        <ele>931</ele>
        <time>2018-09-08T09:33:12.000Z</time>
      </trkpt>
      <trkpt lat="43.28290368430316448211669921875" lon="-5.00345497392117977142333984375">
        <ele>930</ele>
        <time>2018-09-08T09:33:13.000Z</time>
      </trkpt>
      <trkpt lat="43.28283545561134815216064453125" lon="-5.00332907773554325103759765625">
        <ele>929</ele>
        <time>2018-09-08T09:33:15.000Z</time>
      </trkpt>
      <trkpt lat="43.282705284655094146728515625" lon="-5.003373585641384124755859375">
        <ele>927.79998779296875</ele>
        <time>2018-09-08T09:33:17.000Z</time>
      </trkpt>
      <trkpt lat="43.2825773768126964569091796875" lon="-5.00354030169546604156494140625">
        <ele>926</ele>
        <time>2018-09-08T09:33:19.000Z</time>
      </trkpt>
      <trkpt lat="43.28249900601804256439208984375" lon="-5.00360668636858463287353515625">
        <ele>925</ele>
        <time>2018-09-08T09:33:20.000Z</time>
      </trkpt>
      <trkpt lat="43.28240898437798023223876953125" lon="-5.003629736602306365966796875">
        <ele>923.79998779296875</ele>
        <time>2018-09-08T09:33:21.000Z</time>
      </trkpt>
      <trkpt lat="43.28231862746179103851318359375" lon="-5.0036252103745937347412109375">
        <ele>923</ele>
        <time>2018-09-08T09:33:22.000Z</time>
      </trkpt>
      <trkpt lat="43.2822317071259021759033203125" lon="-5.00360660254955291748046875">
        <ele>922.5999755859375</ele>
        <time>2018-09-08T09:33:23.000Z</time>
      </trkpt>
      <trkpt lat="43.2821495644748210906982421875" lon="-5.00359511934220790863037109375">
        <ele>922.5999755859375</ele>
        <time>2018-09-08T09:33:24.000Z</time>
      </trkpt>
      <trkpt lat="43.282009921967983245849609375" lon="-5.0036074407398700714111328125">
        <ele>923.5999755859375</ele>
        <time>2018-09-08T09:33:26.000Z</time>
      </trkpt>
      <trkpt lat="43.2819483987987041473388671875" lon="-5.00362093560397624969482421875">
        <ele>924.79998779296875</ele>
        <time>2018-09-08T09:33:27.000Z</time>
      </trkpt>
      <trkpt lat="43.28189366497099399566650390625" lon="-5.00363535247743129730224609375">
        <ele>925.4000244140625</ele>
        <time>2018-09-08T09:33:28.000Z</time>
      </trkpt>
      <trkpt lat="43.28184622339904308319091796875" lon="-5.0036480091512203216552734375">
        <ele>926</ele>
        <time>2018-09-08T09:33:29.000Z</time>
      </trkpt>
      <trkpt lat="43.28180297277867794036865234375" lon="-5.00365756452083587646484375">
        <ele>926.5999755859375</ele>
        <time>2018-09-08T09:33:30.000Z</time>
      </trkpt>
      <trkpt lat="43.2817648351192474365234375" lon="-5.003663934767246246337890625">
        <ele>927.20001220703125</ele>
        <time>2018-09-08T09:33:31.000Z</time>
      </trkpt>
      <trkpt lat="43.28169669024646282196044921875" lon="-5.00366368331015110015869140625">
        <ele>928.20001220703125</ele>
        <time>2018-09-08T09:33:33.000Z</time>
      </trkpt>
      <trkpt lat="43.28161538578569889068603515625" lon="-5.0036560557782649993896484375">
        <ele>929.20001220703125</ele>
        <time>2018-09-08T09:33:36.000Z</time>
      </trkpt>
      <trkpt lat="43.2815923355519771575927734375" lon="-5.0036630965769290924072265625">
        <ele>929.5999755859375</ele>
        <time>2018-09-08T09:33:37.000Z</time>
      </trkpt>
      <trkpt lat="43.28152502886950969696044921875" lon="-5.00365345738828182220458984375">
        <ele>930.4000244140625</ele>
        <time>2018-09-08T09:33:40.000Z</time>
      </trkpt>
      <trkpt lat="43.28150357119739055633544921875" lon="-5.00364306382834911346435546875">
        <ele>930.5999755859375</ele>
        <time>2018-09-08T09:33:41.000Z</time>
      </trkpt>
      <trkpt lat="43.281427882611751556396484375" lon="-5.0035373680293560028076171875">
        <ele>931.79998779296875</ele>
        <time>2018-09-08T09:33:46.000Z</time>
      </trkpt>
      <trkpt lat="43.28140885569155216217041015625" lon="-5.00348858535289764404296875">
        <ele>932.4000244140625</ele>
        <time>2018-09-08T09:33:48.000Z</time>
      </trkpt>
      <trkpt lat="43.2813737355172634124755859375" lon="-5.00342630781233310699462890625">
        <ele>933.4000244140625</ele>
        <time>2018-09-08T09:33:51.000Z</time>
      </trkpt>
      <trkpt lat="43.2813412137329578399658203125" lon="-5.0033952109515666961669921875">
        <ele>933.79998779296875</ele>
        <time>2018-09-08T09:33:53.000Z</time>
      </trkpt>
      <trkpt lat="43.28132654540240764617919921875" lon="-5.00337836332619190216064453125">
        <ele>933.79998779296875</ele>
        <time>2018-09-08T09:33:54.000Z</time>
      </trkpt>
      <trkpt lat="43.28131481073796749114990234375" lon="-5.0033600069582462310791015625">
        <ele>934</ele>
        <time>2018-09-08T09:33:55.000Z</time>
      </trkpt>
      <trkpt lat="43.28129687346518039703369140625" lon="-5.0033157505095005035400390625">
        <ele>934.4000244140625</ele>
        <time>2018-09-08T09:33:57.000Z</time>
      </trkpt>
      <trkpt lat="43.281285054981708526611328125" lon="-5.00326856039464473724365234375">
        <ele>934.79998779296875</ele>
        <time>2018-09-08T09:33:59.000Z</time>
      </trkpt>
      <trkpt lat="43.28124993480741977691650390625" lon="-5.0032108090817928314208984375">
        <ele>935.5999755859375</ele>
        <time>2018-09-08T09:34:02.000Z</time>
      </trkpt>
      <trkpt lat="43.2812258787453174591064453125" lon="-5.00317602418363094329833984375">
        <ele>935.79998779296875</ele>
        <time>2018-09-08T09:34:04.000Z</time>
      </trkpt>
      <trkpt lat="43.281216323375701904296875" lon="-5.00315733253955841064453125">
        <ele>936</ele>
        <time>2018-09-08T09:34:05.000Z</time>
      </trkpt>
      <trkpt lat="43.28118271194398403167724609375" lon="-5.00310511328279972076416015625">
        <ele>936.5999755859375</ele>
        <time>2018-09-08T09:34:08.000Z</time>
      </trkpt>
      <trkpt lat="43.28114449046552181243896484375" lon="-5.00300385989248752593994140625">
        <ele>937.4000244140625</ele>
        <time>2018-09-08T09:34:13.000Z</time>
      </trkpt>
      <trkpt lat="43.281121440231800079345703125" lon="-5.00296689569950103759765625">
        <ele>938</ele>
        <time>2018-09-08T09:34:15.000Z</time>
      </trkpt>
      <trkpt lat="43.281068466603755950927734375" lon="-5.00288031063973903656005859375">
        <ele>938.79998779296875</ele>
        <time>2018-09-08T09:34:20.000Z</time>
      </trkpt>
      <trkpt lat="43.28105865977704524993896484375" lon="-5.00286086462438106536865234375">
        <ele>939</ele>
        <time>2018-09-08T09:34:21.000Z</time>
      </trkpt>
      <trkpt lat="43.28098498284816741943359375" lon="-5.00277151353657245635986328125">
        <ele>940.20001220703125</ele>
        <time>2018-09-08T09:34:27.000Z</time>
      </trkpt>
      <trkpt lat="43.28095681965351104736328125" lon="-5.0027491338551044464111328125">
        <ele>940.5999755859375</ele>
        <time>2018-09-08T09:34:29.000Z</time>
      </trkpt>
      <trkpt lat="43.28087727539241313934326171875" lon="-5.00271736644208431243896484375">
        <ele>941.20001220703125</ele>
        <time>2018-09-08T09:34:34.000Z</time>
      </trkpt>
      <trkpt lat="43.280859924852848052978515625" lon="-5.00271937809884548187255859375">
        <ele>941.4000244140625</ele>
        <time>2018-09-08T09:34:35.000Z</time>
      </trkpt>
      <trkpt lat="43.28079379163682460784912109375" lon="-5.002729855477809906005859375">
        <ele>942.4000244140625</ele>
        <time>2018-09-08T09:34:39.000Z</time>
      </trkpt>
      <trkpt lat="43.2807068713009357452392578125" lon="-5.0027508102357387542724609375">
        <ele>943.20001220703125</ele>
        <time>2018-09-08T09:34:44.000Z</time>
      </trkpt>
      <trkpt lat="43.2806686498224735260009765625" lon="-5.00276279635727405548095703125">
        <ele>943.5999755859375</ele>
        <time>2018-09-08T09:34:46.000Z</time>
      </trkpt>
      <trkpt lat="43.28059715218842029571533203125" lon="-5.00278810970485210418701171875">
        <ele>944.5999755859375</ele>
        <time>2018-09-08T09:34:50.000Z</time>
      </trkpt>
      <trkpt lat="43.28054434619843959808349609375" lon="-5.00279548577964305877685546875">
        <ele>945.20001220703125</ele>
        <time>2018-09-08T09:34:53.000Z</time>
      </trkpt>
      <trkpt lat="43.2804876007139682769775390625" lon="-5.0027878582477569580078125">
        <ele>945.79998779296875</ele>
        <time>2018-09-08T09:34:56.000Z</time>
      </trkpt>
      <trkpt lat="43.2803950645029544830322265625" lon="-5.00278861261904239654541015625">
        <ele>946.5999755859375</ele>
        <time>2018-09-08T09:35:01.000Z</time>
      </trkpt>
      <trkpt lat="43.280359022319316864013671875" lon="-5.00279263593256473541259765625">
        <ele>947.20001220703125</ele>
        <time>2018-09-08T09:35:03.000Z</time>
      </trkpt>
      <trkpt lat="43.28028760850429534912109375" lon="-5.00279414467513561248779296875">
        <ele>948.20001220703125</ele>
        <time>2018-09-08T09:35:07.000Z</time>
      </trkpt>
      <trkpt lat="43.2802508957684040069580078125" lon="-5.00278911553323268890380859375">
        <ele>948.5999755859375</ele>
        <time>2018-09-08T09:35:09.000Z</time>
      </trkpt>
      <trkpt lat="43.28019549138844013214111328125" lon="-5.002774111926555633544921875">
        <ele>949.20001220703125</ele>
        <time>2018-09-08T09:35:12.000Z</time>
      </trkpt>
      <trkpt lat="43.2801084034144878387451171875" lon="-5.0027558393776416778564453125">
        <ele>950.4000244140625</ele>
        <time>2018-09-08T09:35:17.000Z</time>
      </trkpt>
      <trkpt lat="43.2800731994211673736572265625" lon="-5.002761371433734893798828125">
        <ele>950.5999755859375</ele>
        <time>2018-09-08T09:35:19.000Z</time>
      </trkpt>
      <trkpt lat="43.28000128269195556640625" lon="-5.00276179052889347076416015625">
        <ele>951.5999755859375</ele>
        <time>2018-09-08T09:35:23.000Z</time>
      </trkpt>
      <trkpt lat="43.279968090355396270751953125" lon="-5.0027625449001789093017578125">
        <ele>951.79998779296875</ele>
        <time>2018-09-08T09:35:25.000Z</time>
      </trkpt>
      <trkpt lat="43.279918469488620758056640625" lon="-5.0027762912213802337646484375">
        <ele>952.5999755859375</ele>
        <time>2018-09-08T09:35:28.000Z</time>
      </trkpt>
      <trkpt lat="43.2798321358859539031982421875" lon="-5.0028165243566036224365234375">
        <ele>953.79998779296875</ele>
        <time>2018-09-08T09:35:33.000Z</time>
      </trkpt>
      <trkpt lat="43.2798136956989765167236328125" lon="-5.00283035449683666229248046875">
        <ele>954.20001220703125</ele>
        <time>2018-09-08T09:35:34.000Z</time>
      </trkpt>
      <trkpt lat="43.2797483168542385101318359375" lon="-5.0028725154697895050048828125">
        <ele>954.79998779296875</ele>
        <time>2018-09-08T09:35:38.000Z</time>
      </trkpt>
      <trkpt lat="43.2797322236001491546630859375" lon="-5.0028902851045131683349609375">
        <ele>955.20001220703125</ele>
        <time>2018-09-08T09:35:39.000Z</time>
      </trkpt>
      <trkpt lat="43.27966860495507717132568359375" lon="-5.00296689569950103759765625">
        <ele>956</ele>
        <time>2018-09-08T09:35:43.000Z</time>
      </trkpt>
      <trkpt lat="43.2796297967433929443359375" lon="-5.0029982440173625946044921875">
        <ele>956.79998779296875</ele>
        <time>2018-09-08T09:35:45.000Z</time>
      </trkpt>
      <trkpt lat="43.2795914076268672943115234375" lon="-5.0030292570590972900390625">
        <ele>957.4000244140625</ele>
        <time>2018-09-08T09:35:47.000Z</time>
      </trkpt>
      <trkpt lat="43.2795354165136814117431640625" lon="-5.00307393260300159454345703125">
        <ele>958.4000244140625</ele>
        <time>2018-09-08T09:35:50.000Z</time>
      </trkpt>
      <trkpt lat="43.279469199478626251220703125" lon="-5.00310159288346767425537109375">
        <ele>959.5999755859375</ele>
        <time>2018-09-08T09:35:53.000Z</time>
      </trkpt>
      <trkpt lat="43.2793510146439075469970703125" lon="-5.00310595147311687469482421875">
        <ele>960.5999755859375</ele>
        <time>2018-09-08T09:35:59.000Z</time>
      </trkpt>
      <trkpt lat="43.27923174016177654266357421875" lon="-5.00312992371618747711181640625">
        <ele>961.5999755859375</ele>
        <time>2018-09-08T09:36:05.000Z</time>
      </trkpt>
      <trkpt lat="43.2792122103273868560791015625" lon="-5.00313344411551952362060546875">
        <ele>961.79998779296875</ele>
        <time>2018-09-08T09:36:06.000Z</time>
      </trkpt>
      <trkpt lat="43.27909830026328563690185546875" lon="-5.003157667815685272216796875">
        <ele>962.79998779296875</ele>
        <time>2018-09-08T09:36:12.000Z</time>
      </trkpt>
      <trkpt lat="43.27906183898448944091796875" lon="-5.0031652115285396575927734375">
        <ele>963.20001220703125</ele>
        <time>2018-09-08T09:36:14.000Z</time>
      </trkpt>
      <trkpt lat="43.27899210155010223388671875" lon="-5.00320703722536563873291015625">
        <ele>964</ele>
        <time>2018-09-08T09:36:18.000Z</time>
      </trkpt>
      <trkpt lat="43.27895723283290863037109375" lon="-5.0032242201268672943115234375">
        <ele>964.20001220703125</ele>
        <time>2018-09-08T09:36:20.000Z</time>
      </trkpt>
      <trkpt lat="43.27888011932373046875" lon="-5.00326252542436122894287109375">
        <ele>965</ele>
        <time>2018-09-08T09:36:24.000Z</time>
      </trkpt>
      <trkpt lat="43.278784565627574920654296875" lon="-5.00331164337694644927978515625">
        <ele>966</ele>
        <time>2018-09-08T09:36:29.000Z</time>
      </trkpt>
      <trkpt lat="43.27876453287899494171142578125" lon="-5.0033227913081645965576171875">
        <ele>966.20001220703125</ele>
        <time>2018-09-08T09:36:30.000Z</time>
      </trkpt>
      <trkpt lat="43.2786402292549610137939453125" lon="-5.00340216793119907379150390625">
        <ele>967.4000244140625</ele>
        <time>2018-09-08T09:36:36.000Z</time>
      </trkpt>
      <trkpt lat="43.27860142104327678680419921875" lon="-5.003433264791965484619140625">
        <ele>967.79998779296875</ele>
        <time>2018-09-08T09:36:38.000Z</time>
      </trkpt>
      <trkpt lat="43.2785649597644805908203125" lon="-5.00346587039530277252197265625">
        <ele>968.4000244140625</ele>
        <time>2018-09-08T09:36:40.000Z</time>
      </trkpt>
      <trkpt lat="43.2784662209451198577880859375" lon="-5.00356972217559814453125">
        <ele>969.79998779296875</ele>
        <time>2018-09-08T09:36:46.000Z</time>
      </trkpt>
      <trkpt lat="43.27838701196014881134033203125" lon="-5.0036664493381977081298828125">
        <ele>970.79998779296875</ele>
        <time>2018-09-08T09:36:51.000Z</time>
      </trkpt>
      <trkpt lat="43.27833839692175388336181640625" lon="-5.00372202135622501373291015625">
        <ele>971.20001220703125</ele>
        <time>2018-09-08T09:36:54.000Z</time>
      </trkpt>
      <trkpt lat="43.278295733034610748291015625" lon="-5.0037727318704128265380859375">
        <ele>971.79998779296875</ele>
        <time>2018-09-08T09:36:57.000Z</time>
      </trkpt>
      <trkpt lat="43.2782134227454662322998046875" lon="-5.00386082567274570465087890625">
        <ele>972.79998779296875</ele>
        <time>2018-09-08T09:37:02.000Z</time>
      </trkpt>
      <trkpt lat="43.2781983353197574615478515625" lon="-5.0038800202310085296630859375">
        <ele>973.20001220703125</ele>
        <time>2018-09-08T09:37:03.000Z</time>
      </trkpt>
      <trkpt lat="43.2781175337731838226318359375" lon="-5.00396291725337505340576171875">
        <ele>974.20001220703125</ele>
        <time>2018-09-08T09:37:08.000Z</time>
      </trkpt>
      <trkpt lat="43.27808526344597339630126953125" lon="-5.0039909966289997100830078125">
        <ele>974.5999755859375</ele>
        <time>2018-09-08T09:37:10.000Z</time>
      </trkpt>
      <trkpt lat="43.27801284380257129669189453125" lon="-5.00402511097490787506103515625">
        <ele>975.20001220703125</ele>
        <time>2018-09-08T09:37:14.000Z</time>
      </trkpt>
      <trkpt lat="43.27795567922294139862060546875" lon="-5.00402963720262050628662109375">
        <ele>976</ele>
        <time>2018-09-08T09:37:17.000Z</time>
      </trkpt>
      <trkpt lat="43.277936987578868865966796875" lon="-5.0040305592119693756103515625">
        <ele>976.20001220703125</ele>
        <time>2018-09-08T09:37:18.000Z</time>
      </trkpt>
      <trkpt lat="43.27781327068805694580078125" lon="-5.00402946956455707550048828125">
        <ele>977.4000244140625</ele>
        <time>2018-09-08T09:37:24.000Z</time>
      </trkpt>
      <trkpt lat="43.27779625542461872100830078125" lon="-5.004029385745525360107421875">
        <ele>977.5999755859375</ele>
        <time>2018-09-08T09:37:25.000Z</time>
      </trkpt>
      <trkpt lat="43.27773054130375385284423828125" lon="-5.00402879901230335235595703125">
        <ele>978.4000244140625</ele>
        <time>2018-09-08T09:37:28.000Z</time>
      </trkpt>
      <trkpt lat="43.27763649635016918182373046875" lon="-5.00403114594519138336181640625">
        <ele>979.4000244140625</ele>
        <time>2018-09-08T09:37:32.000Z</time>
      </trkpt>
      <trkpt lat="43.2776173017919063568115234375" lon="-5.00402745790779590606689453125">
        <ele>979.5999755859375</ele>
        <time>2018-09-08T09:37:33.000Z</time>
      </trkpt>
      <trkpt lat="43.2775267772376537322998046875" lon="-5.00407758168876171112060546875">
        <ele>980.5999755859375</ele>
        <time>2018-09-08T09:37:39.000Z</time>
      </trkpt>
      <trkpt lat="43.2775133661925792694091796875" lon="-5.00409786589443683624267578125">
        <ele>980.5999755859375</ele>
        <time>2018-09-08T09:37:40.000Z</time>
      </trkpt>
      <trkpt lat="43.27745812945067882537841796875" lon="-5.00419794581830501556396484375">
        <ele>981.5999755859375</ele>
        <time>2018-09-08T09:37:45.000Z</time>
      </trkpt>
      <trkpt lat="43.27744455076754093170166015625" lon="-5.0042478181421756744384765625">
        <ele>982</ele>
        <time>2018-09-08T09:37:47.000Z</time>
      </trkpt>
      <trkpt lat="43.2774181477725505828857421875" lon="-5.0043691881000995635986328125">
        <ele>983</ele>
        <time>2018-09-08T09:37:52.000Z</time>
      </trkpt>
      <trkpt lat="43.2774117775261402130126953125" lon="-5.0043918192386627197265625">
        <ele>983.20001220703125</ele>
        <time>2018-09-08T09:37:53.000Z</time>
      </trkpt>
      <trkpt lat="43.2773748971521854400634765625" lon="-5.00450170598924160003662109375">
        <ele>984.20001220703125</ele>
        <time>2018-09-08T09:37:58.000Z</time>
      </trkpt>
      <trkpt lat="43.27734145335853099822998046875" lon="-5.00459340400993824005126953125">
        <ele>984.79998779296875</ele>
        <time>2018-09-08T09:38:02.000Z</time>
      </trkpt>
      <trkpt lat="43.2773202471435070037841796875" lon="-5.004634223878383636474609375">
        <ele>985.20001220703125</ele>
        <time>2018-09-08T09:38:04.000Z</time>
      </trkpt>
      <trkpt lat="43.2772820256650447845458984375" lon="-5.00471812672913074493408203125">
        <ele>986</ele>
        <time>2018-09-08T09:38:08.000Z</time>
      </trkpt>
      <trkpt lat="43.27726475894451141357421875" lon="-5.00476154498755931854248046875">
        <ele>986.4000244140625</ele>
        <time>2018-09-08T09:38:10.000Z</time>
      </trkpt>
      <trkpt lat="43.27720440924167633056640625" lon="-5.0048741139471530914306640625">
        <ele>987.79998779296875</ele>
        <time>2018-09-08T09:38:16.000Z</time>
      </trkpt>
      <trkpt lat="43.2771469093859195709228515625" lon="-5.00499791465699672698974609375">
        <ele>989</ele>
        <time>2018-09-08T09:38:22.000Z</time>
      </trkpt>
      <trkpt lat="43.2770924270153045654296875" lon="-5.005117356777191162109375">
        <ele>990.20001220703125</ele>
        <time>2018-09-08T09:38:28.000Z</time>
      </trkpt>
      <trkpt lat="43.2770828716456890106201171875" lon="-5.00513948500156402587890625">
        <ele>990.4000244140625</ele>
        <time>2018-09-08T09:38:29.000Z</time>
      </trkpt>
      <trkpt lat="43.2770409621298313140869140625" lon="-5.00522221438586711883544921875">
        <ele>991.4000244140625</ele>
        <time>2018-09-08T09:38:33.000Z</time>
      </trkpt>
      <trkpt lat="43.27698857523500919342041015625" lon="-5.0053113140165805816650390625">
        <ele>992.5999755859375</ele>
        <time>2018-09-08T09:38:38.000Z</time>
      </trkpt>
      <trkpt lat="43.276962675154209136962890625" lon="-5.00534492544829845428466796875">
        <ele>993</ele>
        <time>2018-09-08T09:38:40.000Z</time>
      </trkpt>
      <trkpt lat="43.2769502699375152587890625" lon="-5.00536202453076839447021484375">
        <ele>994</ele>
        <time>2018-09-08T09:38:41.000Z</time>
      </trkpt>
      <trkpt lat="43.27684692107141017913818359375" lon="-5.0054585002362728118896484375">
        <ele>994.4000244140625</ele>
        <time>2018-09-08T09:38:48.000Z</time>
      </trkpt>
      <trkpt lat="43.2767973840236663818359375" lon="-5.005478449165821075439453125">
        <ele>995</ele>
        <time>2018-09-08T09:38:51.000Z</time>
      </trkpt>
      <trkpt lat="43.276710547506809234619140625" lon="-5.00548875890672206878662109375">
        <ele>996.20001220703125</ele>
        <time>2018-09-08T09:38:56.000Z</time>
      </trkpt>
      <trkpt lat="43.27662848867475986480712890625" lon="-5.00547073781490325927734375">
        <ele>997.20001220703125</ele>
        <time>2018-09-08T09:39:01.000Z</time>
      </trkpt>
      <trkpt lat="43.27655338682234287261962890625" lon="-5.00544902868568897247314453125">
        <ele>998</ele>
        <time>2018-09-08T09:39:05.000Z</time>
      </trkpt>
      <trkpt lat="43.27653519809246063232421875" lon="-5.00544467009603977203369140625">
        <ele>998.20001220703125</ele>
        <time>2018-09-08T09:39:06.000Z</time>
      </trkpt>
      <trkpt lat="43.27643352560698986053466796875" lon="-5.005393289029598236083984375">
        <ele>999.20001220703125</ele>
        <time>2018-09-08T09:39:12.000Z</time>
      </trkpt>
      <trkpt lat="43.2763865031301975250244140625" lon="-5.00535749830305576324462890625">
        <ele>1000</ele>
        <time>2018-09-08T09:39:15.000Z</time>
      </trkpt>
      <trkpt lat="43.27634073793888092041015625" lon="-5.00532665289938449859619140625">
        <ele>1000.4000244140625</ele>
        <time>2018-09-08T09:39:18.000Z</time>
      </trkpt>
      <trkpt lat="43.2762772031128406524658203125" lon="-5.00526244752109050750732421875">
        <ele>1001.4000244140625</ele>
        <time>2018-09-08T09:39:22.000Z</time>
      </trkpt>
      <trkpt lat="43.2762523926794528961181640625" lon="-5.00522908754646778106689453125">
        <ele>1001.79998779296875</ele>
        <time>2018-09-08T09:39:24.000Z</time>
      </trkpt>
      <trkpt lat="43.27623001299798488616943359375" lon="-5.0051564164459705352783203125">
        <ele>1002.4000244140625</ele>
        <time>2018-09-08T09:39:27.000Z</time>
      </trkpt>
      <trkpt lat="43.2762017659842967987060546875" lon="-5.00511400401592254638671875">
        <ele>1003</ele>
        <time>2018-09-08T09:39:29.000Z</time>
      </trkpt>
      <trkpt lat="43.27615893445909023284912109375" lon="-5.00505222938954830169677734375">
        <ele>1003.5999755859375</ele>
        <time>2018-09-08T09:39:32.000Z</time>
      </trkpt>
      <trkpt lat="43.27611668966710567474365234375" lon="-5.00495575368404388427734375">
        <ele>1004.4000244140625</ele>
        <time>2018-09-08T09:39:36.000Z</time>
      </trkpt>
      <trkpt lat="43.27610663138329982757568359375" lon="-5.0049314461648464202880859375">
        <ele>1004.5999755859375</ele>
        <time>2018-09-08T09:39:37.000Z</time>
      </trkpt>
      <trkpt lat="43.27606203965842723846435546875" lon="-5.00484033487737178802490234375">
        <ele>1005.79998779296875</ele>
        <time>2018-09-08T09:39:41.000Z</time>
      </trkpt>
      <trkpt lat="43.27603052370250225067138671875" lon="-5.00477428548038005828857421875">
        <ele>1006.4000244140625</ele>
        <time>2018-09-08T09:39:44.000Z</time>
      </trkpt>
      <trkpt lat="43.27600738964974880218505859375" lon="-5.00472885556519031524658203125">
        <ele>1006.79998779296875</ele>
        <time>2018-09-08T09:39:46.000Z</time>
      </trkpt>
      <trkpt lat="43.2759429328143596649169921875" lon="-5.004609413444995880126953125">
        <ele>1008</ele>
        <time>2018-09-08T09:39:51.000Z</time>
      </trkpt>
      <trkpt lat="43.27592876739799976348876953125" lon="-5.00458602793514728546142578125">
        <ele>1008.5999755859375</ele>
        <time>2018-09-08T09:39:52.000Z</time>
      </trkpt>
      <trkpt lat="43.275903202593326568603515625" lon="-5.00454294495284557342529296875">
        <ele>1009</ele>
        <time>2018-09-08T09:39:54.000Z</time>
      </trkpt>
      <trkpt lat="43.2758500613272190093994140625" lon="-5.0044308789074420928955078125">
        <ele>1010.20001220703125</ele>
        <time>2018-09-08T09:39:59.000Z</time>
      </trkpt>
      <trkpt lat="43.2758398354053497314453125" lon="-5.0044067390263080596923828125">
        <ele>1010.4000244140625</ele>
        <time>2018-09-08T09:40:00.000Z</time>
      </trkpt>
      <trkpt lat="43.275797255337238311767578125" lon="-5.0042887218296527862548828125">
        <ele>1011.4000244140625</ele>
        <time>2018-09-08T09:40:05.000Z</time>
      </trkpt>
      <trkpt lat="43.2757551781833171844482421875" lon="-5.00420347787439823150634765625">
        <ele>1012</ele>
        <time>2018-09-08T09:40:09.000Z</time>
      </trkpt>
      <trkpt lat="43.2757245004177093505859375" lon="-5.00412820838391780853271484375">
        <ele>1012.5999755859375</ele>
        <time>2018-09-08T09:40:12.000Z</time>
      </trkpt>
      <trkpt lat="43.275687284767627716064453125" lon="-5.00398940406739711761474609375">
        <ele>1014</ele>
        <time>2018-09-08T09:40:17.000Z</time>
      </trkpt>
      <trkpt lat="43.2756790705025196075439453125" lon="-5.003963001072406768798828125">
        <ele>1014</ele>
        <time>2018-09-08T09:40:18.000Z</time>
      </trkpt>
      <trkpt lat="43.2756317965686321258544921875" lon="-5.003832243382930755615234375">
        <ele>1015</ele>
        <time>2018-09-08T09:40:23.000Z</time>
      </trkpt>
      <trkpt lat="43.27561654150485992431640625" lon="-5.003686733543872833251953125">
        <ele>1016.20001220703125</ele>
        <time>2018-09-08T09:40:28.000Z</time>
      </trkpt>
      <trkpt lat="43.27557790093123912811279296875" lon="-5.00349168665707111358642578125">
        <ele>1017.20001220703125</ele>
        <time>2018-09-08T09:40:35.000Z</time>
      </trkpt>
      <trkpt lat="43.27556960284709930419921875" lon="-5.0034626014530658721923828125">
        <ele>1017.4000244140625</ele>
        <time>2018-09-08T09:40:36.000Z</time>
      </trkpt>
      <trkpt lat="43.2755367457866668701171875" lon="-5.0033177621662616729736328125">
        <ele>1018.5999755859375</ele>
        <time>2018-09-08T09:40:41.000Z</time>
      </trkpt>
      <trkpt lat="43.2755241729319095611572265625" lon="-5.00323134474456310272216796875">
        <ele>1019.20001220703125</ele>
        <time>2018-09-08T09:40:44.000Z</time>
      </trkpt>
      <trkpt lat="43.275510258972644805908203125" lon="-5.0031705759465694427490234375">
        <ele>1019.5999755859375</ele>
        <time>2018-09-08T09:40:46.000Z</time>
      </trkpt>
      <trkpt lat="43.27548511326313018798828125" lon="-5.00301408581435680389404296875">
        <ele>1020.5999755859375</ele>
        <time>2018-09-08T09:40:51.000Z</time>
      </trkpt>
      <trkpt lat="43.275479413568973541259765625" lon="-5.00292439945042133331298828125">
        <ele>1021.20001220703125</ele>
        <time>2018-09-08T09:40:54.000Z</time>
      </trkpt>
      <trkpt lat="43.27548100613057613372802734375" lon="-5.00282716937363147735595703125">
        <ele>1021.5999755859375</ele>
        <time>2018-09-08T09:40:57.000Z</time>
      </trkpt>
      <trkpt lat="43.27548922039568424224853515625" lon="-5.00269465148448944091796875">
        <ele>1022.4000244140625</ele>
        <time>2018-09-08T09:41:01.000Z</time>
      </trkpt>
      <trkpt lat="43.27550120651721954345703125" lon="-5.00262734480202198028564453125">
        <ele>1022.79998779296875</ele>
        <time>2018-09-08T09:41:03.000Z</time>
      </trkpt>
      <trkpt lat="43.27552626840770244598388671875" lon="-5.0024869479238986968994140625">
        <ele>1024</ele>
        <time>2018-09-08T09:41:07.000Z</time>
      </trkpt>
      <trkpt lat="43.27554169110953807830810546875" lon="-5.00241762958467006683349609375">
        <ele>1024.5999755859375</ele>
        <time>2018-09-08T09:41:09.000Z</time>
      </trkpt>
      <trkpt lat="43.2755858637392520904541015625" lon="-5.00228854827582836151123046875">
        <ele>1025.199951171875</ele>
        <time>2018-09-08T09:41:13.000Z</time>
      </trkpt>
      <trkpt lat="43.2756016217172145843505859375" lon="-5.002226941287517547607421875">
        <ele>1025.5999755859375</ele>
        <time>2018-09-08T09:41:15.000Z</time>
      </trkpt>
      <trkpt lat="43.27562668360769748687744140625" lon="-5.0021302141249179840087890625">
        <ele>1026.4000244140625</ele>
        <time>2018-09-08T09:41:18.000Z</time>
      </trkpt>
      <trkpt lat="43.27563674189150333404541015625" lon="-5.00209559686481952667236328125">
        <ele>1026.5999755859375</ele>
        <time>2018-09-08T09:41:19.000Z</time>
      </trkpt>
      <trkpt lat="43.275666497647762298583984375" lon="-5.00196031294763088226318359375">
        <ele>1027.5999755859375</ele>
        <time>2018-09-08T09:41:23.000Z</time>
      </trkpt>
      <trkpt lat="43.27567513100802898406982421875" lon="-5.0019267015159130096435546875">
        <ele>1027.5999755859375</ele>
        <time>2018-09-08T09:41:24.000Z</time>
      </trkpt>
      <trkpt lat="43.2757065631449222564697265625" lon="-5.0017659366130828857421875">
        <ele>1028.800048828125</ele>
        <time>2018-09-08T09:41:29.000Z</time>
      </trkpt>
      <trkpt lat="43.275706060230731964111328125" lon="-5.001656301319599151611328125">
        <ele>1029.5999755859375</ele>
        <time>2018-09-08T09:41:32.000Z</time>
      </trkpt>
      <trkpt lat="43.27570262365043163299560546875" lon="-5.00158614479005336761474609375">
        <ele>1030.4000244140625</ele>
        <time>2018-09-08T09:41:34.000Z</time>
      </trkpt>
      <trkpt lat="43.2756894640624523162841796875" lon="-5.00149209983646869659423828125">
        <ele>1028.5999755859375</ele>
        <time>2018-09-08T09:41:37.000Z</time>
      </trkpt>
      <trkpt lat="43.27567982487380504608154296875" lon="-5.0014252960681915283203125">
        <ele>1030.4000244140625</ele>
        <time>2018-09-08T09:41:39.000Z</time>
      </trkpt>
      <trkpt lat="43.27567429281771183013916015625" lon="-5.00139151699841022491455078125">
        <ele>1031.199951171875</ele>
        <time>2018-09-08T09:41:40.000Z</time>
      </trkpt>
      <trkpt lat="43.275662474334239959716796875" lon="-5.00131733715534210205078125">
        <ele>1031.4000244140625</ele>
        <time>2018-09-08T09:41:42.000Z</time>
      </trkpt>
      <trkpt lat="43.27561394311487674713134765625" lon="-5.0010982342064380645751953125">
        <ele>1032.5999755859375</ele>
        <time>2018-09-08T09:41:48.000Z</time>
      </trkpt>
      <trkpt lat="43.27557689510285854339599609375" lon="-5.0009094737470149993896484375">
        <ele>1033.800048828125</ele>
        <time>2018-09-08T09:41:53.000Z</time>
      </trkpt>
      <trkpt lat="43.2755349017679691314697265625" lon="-5.00070638023316860198974609375">
        <ele>1035.199951171875</ele>
        <time>2018-09-08T09:41:58.000Z</time>
      </trkpt>
      <trkpt lat="43.275528363883495330810546875" lon="-5.00066765584051609039306640625">
        <ele>1035.4000244140625</ele>
        <time>2018-09-08T09:41:59.000Z</time>
      </trkpt>
      <trkpt lat="43.27550464309751987457275390625" lon="-5.00051912851631641387939453125">
        <ele>1036.199951171875</ele>
        <time>2018-09-08T09:42:03.000Z</time>
      </trkpt>
      <trkpt lat="43.275491483509540557861328125" lon="-5.00026993453502655029296875">
        <ele>1037.4000244140625</ele>
        <time>2018-09-08T09:42:09.000Z</time>
      </trkpt>
      <trkpt lat="43.27549911104142665863037109375" lon="-5.000194497406482696533203125">
        <ele>1037.800048828125</ele>
        <time>2018-09-08T09:42:11.000Z</time>
      </trkpt>
      <trkpt lat="43.27551319263875484466552734375" lon="-5.0000662542879581451416015625">
        <ele>1038.4000244140625</ele>
        <time>2018-09-08T09:42:14.000Z</time>
      </trkpt>
      <trkpt lat="43.2755265198647975921630859375" lon="-4.99996910803020000457763671875">
        <ele>1038.800048828125</ele>
        <time>2018-09-08T09:42:16.000Z</time>
      </trkpt>
      <trkpt lat="43.275532387197017669677734375" lon="-4.99991454184055328369140625">
        <ele>1039.4000244140625</ele>
        <time>2018-09-08T09:42:17.000Z</time>
      </trkpt>
      <trkpt lat="43.27553808689117431640625" lon="-4.999863244593143463134765625">
        <ele>1039.5999755859375</ele>
        <time>2018-09-08T09:42:18.000Z</time>
      </trkpt>
      <trkpt lat="43.275567591190338134765625" lon="-4.9996615760028362274169921875">
        <ele>1040.800048828125</ele>
        <time>2018-09-08T09:42:22.000Z</time>
      </trkpt>
      <trkpt lat="43.27559013850986957550048828125" lon="-4.99952067621052265167236328125">
        <ele>1042</ele>
        <time>2018-09-08T09:42:25.000Z</time>
      </trkpt>
      <trkpt lat="43.275614194571971893310546875" lon="-4.99927592463791370391845703125">
        <ele>1043</ele>
        <time>2018-09-08T09:42:30.000Z</time>
      </trkpt>
      <trkpt lat="43.27561528421938419342041015625" lon="-4.99918774701654911041259765625">
        <ele>1043.5999755859375</ele>
        <time>2018-09-08T09:42:32.000Z</time>
      </trkpt>
      <trkpt lat="43.2756123505532741546630859375" lon="-4.99908984638750553131103515625">
        <ele>1044.199951171875</ele>
        <time>2018-09-08T09:42:34.000Z</time>
      </trkpt>
      <trkpt lat="43.27562098391354084014892578125" lon="-4.99882011674344539642333984375">
        <ele>1044.4000244140625</ele>
        <time>2018-09-08T09:42:39.000Z</time>
      </trkpt>
      <trkpt lat="43.27562567777931690216064453125" lon="-4.99839884229004383087158203125">
        <ele>1045.199951171875</ele>
        <time>2018-09-08T09:42:46.000Z</time>
      </trkpt>
      <trkpt lat="43.27562861144542694091796875" lon="-4.998335726559162139892578125">
        <ele>1045.199951171875</ele>
        <time>2018-09-08T09:42:47.000Z</time>
      </trkpt>
      <trkpt lat="43.275650404393672943115234375" lon="-4.99814017675817012786865234375">
        <ele>1045.4000244140625</ele>
        <time>2018-09-08T09:42:50.000Z</time>
      </trkpt>
      <trkpt lat="43.2757164537906646728515625" lon="-4.9979620613157749176025390625">
        <ele>1045.5999755859375</ele>
        <time>2018-09-08T09:42:53.000Z</time>
      </trkpt>
      <trkpt lat="43.2758331298828125" lon="-4.9978071637451648712158203125">
        <ele>1045.5999755859375</ele>
        <time>2018-09-08T09:42:56.000Z</time>
      </trkpt>
      <trkpt lat="43.2758825831115245819091796875" lon="-4.9977669306099414825439453125">
        <ele>1045.5999755859375</ele>
        <time>2018-09-08T09:42:57.000Z</time>
      </trkpt>
      <trkpt lat="43.2760421745479106903076171875" lon="-4.99763441272079944610595703125">
        <ele>1046.199951171875</ele>
        <time>2018-09-08T09:43:00.000Z</time>
      </trkpt>
      <trkpt lat="43.2760884426534175872802734375" lon="-4.99757976271212100982666015625">
        <ele>1046.4000244140625</ele>
        <time>2018-09-08T09:43:01.000Z</time>
      </trkpt>
      <trkpt lat="43.27615323476493358612060546875" lon="-4.997443221509456634521484375">
        <ele>1046.4000244140625</ele>
        <time>2018-09-08T09:43:03.000Z</time>
      </trkpt>
      <trkpt lat="43.2762094773352146148681640625" lon="-4.99714113771915435791015625">
        <ele>1046.5999755859375</ele>
        <time>2018-09-08T09:43:07.000Z</time>
      </trkpt>
      <trkpt lat="43.27621744014322757720947265625" lon="-4.99706913717091083526611328125">
        <ele>1046.800048828125</ele>
        <time>2018-09-08T09:43:08.000Z</time>
      </trkpt>
      <trkpt lat="43.27621928416192531585693359375" lon="-4.99699763953685760498046875">
        <ele>1046.800048828125</ele>
        <time>2018-09-08T09:43:09.000Z</time>
      </trkpt>
      <trkpt lat="43.276242502033710479736328125" lon="-4.9968657083809375762939453125">
        <ele>1047.199951171875</ele>
        <time>2018-09-08T09:43:11.000Z</time>
      </trkpt>
      <trkpt lat="43.276260606944561004638671875" lon="-4.996804185211658477783203125">
        <ele>1047.199951171875</ele>
        <time>2018-09-08T09:43:12.000Z</time>
      </trkpt>
      <trkpt lat="43.2762738503515720367431640625" lon="-4.99673939310014247894287109375">
        <ele>1047.199951171875</ele>
        <time>2018-09-08T09:43:13.000Z</time>
      </trkpt>
      <trkpt lat="43.27628231607377529144287109375" lon="-4.9966722540557384490966796875">
        <ele>1047.4000244140625</ele>
        <time>2018-09-08T09:43:14.000Z</time>
      </trkpt>
      <trkpt lat="43.27629472129046916961669921875" lon="-4.99646312557160854339599609375">
        <ele>1047.4000244140625</ele>
        <time>2018-09-08T09:43:17.000Z</time>
      </trkpt>
      <trkpt lat="43.2762265764176845550537109375" lon="-4.99610890634357929229736328125">
        <ele>1047.5999755859375</ele>
        <time>2018-09-08T09:43:22.000Z</time>
      </trkpt>
      <trkpt lat="43.27620184980332851409912109375" lon="-4.9960395880043506622314453125">
        <ele>1047.5999755859375</ele>
        <time>2018-09-08T09:43:23.000Z</time>
      </trkpt>
      <trkpt lat="43.2760341279208660125732421875" lon="-4.99562158249318599700927734375">
        <ele>1048.4000244140625</ele>
        <time>2018-09-08T09:43:29.000Z</time>
      </trkpt>
      <trkpt lat="43.27600269578397274017333984375" lon="-4.995558299124240875244140625">
        <ele>1048.5999755859375</ele>
        <time>2018-09-08T09:43:30.000Z</time>
      </trkpt>
      <trkpt lat="43.2759337127208709716796875" lon="-4.9954387731850147247314453125">
        <ele>1049</ele>
        <time>2018-09-08T09:43:32.000Z</time>
      </trkpt>
      <trkpt lat="43.27585198916494846343994140625" lon="-4.99533860944211483001708984375">
        <ele>1049.4000244140625</ele>
        <time>2018-09-08T09:43:34.000Z</time>
      </trkpt>
      <trkpt lat="43.27581376768648624420166015625" lon="-4.99528932385146617889404296875">
        <ele>1049.800048828125</ele>
        <time>2018-09-08T09:43:35.000Z</time>
      </trkpt>
      <trkpt lat="43.27576934359967708587646484375" lon="-4.9952466599643230438232421875">
        <ele>1050.199951171875</ele>
        <time>2018-09-08T09:43:36.000Z</time>
      </trkpt>
      <trkpt lat="43.2756670005619525909423828125" lon="-4.99518312513828277587890625">
        <ele>1050.5999755859375</ele>
        <time>2018-09-08T09:43:38.000Z</time>
      </trkpt>
      <trkpt lat="43.27561394311487674713134765625" lon="-4.99515403993427753448486328125">
        <ele>1050.800048828125</ele>
        <time>2018-09-08T09:43:39.000Z</time>
      </trkpt>
      <trkpt lat="43.27555887401103973388671875" lon="-4.995136521756649017333984375">
        <ele>1051</ele>
        <time>2018-09-08T09:43:40.000Z</time>
      </trkpt>
      <trkpt lat="43.2753964327275753021240234375" lon="-4.99512654729187488555908203125">
        <ele>1051.800048828125</ele>
        <time>2018-09-08T09:43:43.000Z</time>
      </trkpt>
      <trkpt lat="43.27521177940070629119873046875" lon="-4.99513392336666584014892578125">
        <ele>1053.199951171875</ele>
        <time>2018-09-08T09:43:47.000Z</time>
      </trkpt>
      <trkpt lat="43.27507968060672283172607421875" lon="-4.99513392336666584014892578125">
        <ele>1053.800048828125</ele>
        <time>2018-09-08T09:43:50.000Z</time>
      </trkpt>
      <trkpt lat="43.27499133534729480743408203125" lon="-4.995128475129604339599609375">
        <ele>1054.199951171875</ele>
        <time>2018-09-08T09:43:52.000Z</time>
      </trkpt>
      <trkpt lat="43.2748378627002239227294921875" lon="-4.99514289200305938720703125">
        <ele>1055</ele>
        <time>2018-09-08T09:43:56.000Z</time>
      </trkpt>
      <trkpt lat="43.27458095736801624298095703125" lon="-4.99520667828619480133056640625">
        <ele>1054.800048828125</ele>
        <time>2018-09-08T09:44:03.000Z</time>
      </trkpt>
      <trkpt lat="43.27453963458538055419921875" lon="-4.99521128833293914794921875">
        <ele>1054.4000244140625</ele>
        <time>2018-09-08T09:44:04.000Z</time>
      </trkpt>
      <trkpt lat="43.2744268141686916351318359375" lon="-4.99517239630222320556640625">
        <ele>1053.800048828125</ele>
        <time>2018-09-08T09:44:07.000Z</time>
      </trkpt>
      <trkpt lat="43.2743513770401477813720703125" lon="-4.99513459391891956329345703125">
        <ele>1053.800048828125</ele>
        <time>2018-09-08T09:44:11.000Z</time>
      </trkpt>
      <trkpt lat="43.274343498051166534423828125" lon="-4.99515957199037075042724609375">
        <ele>1053.199951171875</ele>
        <time>2018-09-08T09:44:53.000Z</time>
      </trkpt>
      <trkpt lat="43.2743540592491626739501953125" lon="-4.99519628472626209259033203125">
        <ele>1053.5999755859375</ele>
        <time>2018-09-08T09:44:56.000Z</time>
      </trkpt>
      <trkpt lat="43.27434928156435489654541015625" lon="-4.99521506018936634063720703125">
        <ele>1053.5999755859375</ele>
        <time>2018-09-08T09:44:57.000Z</time>
      </trkpt>
      <trkpt lat="43.2743436656892299652099609375" lon="-4.99522863887250423431396484375">
        <ele>1053.5999755859375</ele>
        <time>2018-09-08T09:44:58.000Z</time>
      </trkpt>
      <trkpt lat="43.27432581223547458648681640625" lon="-4.99527222476899623870849609375">
        <ele>1053.4000244140625</ele>
        <time>2018-09-08T09:45:01.000Z</time>
      </trkpt>
      <trkpt lat="43.2743181847035884857177734375" lon="-4.99529703520238399505615234375">
        <ele>1053.5999755859375</ele>
        <time>2018-09-08T09:45:03.000Z</time>
      </trkpt>
      <trkpt lat="43.27429689466953277587890625" lon="-4.99531866051256656646728515625">
        <ele>1053.199951171875</ele>
        <time>2018-09-08T09:45:05.000Z</time>
      </trkpt>
      <trkpt lat="43.2742702402174472808837890625" lon="-4.99528865329921245574951171875">
        <ele>1051.800048828125</ele>
        <time>2018-09-08T10:13:31.000Z</time>
      </trkpt>
      <trkpt lat="43.2742427475750446319580078125" lon="-4.995286054909229278564453125">
        <ele>1051.199951171875</ele>
        <time>2018-09-08T10:13:32.000Z</time>
      </trkpt>
      <trkpt lat="43.27421248890459537506103515625" lon="-4.99527876265347003936767578125">
        <ele>1051.199951171875</ele>
        <time>2018-09-08T10:13:33.000Z</time>
      </trkpt>
      <trkpt lat="43.2741294242441654205322265625" lon="-4.99523408710956573486328125">
        <ele>1050.4000244140625</ele>
        <time>2018-09-08T10:13:35.000Z</time>
      </trkpt>
      <trkpt lat="43.2740798033773899078369140625" lon="-4.995188154280185699462890625">
        <ele>1049.199951171875</ele>
        <time>2018-09-08T10:13:36.000Z</time>
      </trkpt>
      <trkpt lat="43.27397846616804599761962890625" lon="-4.99506770633161067962646484375">
        <ele>1047.5999755859375</ele>
        <time>2018-09-08T10:13:38.000Z</time>
      </trkpt>
      <trkpt lat="43.27388442121446132659912109375" lon="-4.994962513446807861328125">
        <ele>1046.199951171875</ele>
        <time>2018-09-08T10:13:40.000Z</time>
      </trkpt>
      <trkpt lat="43.273833207786083221435546875" lon="-4.994924627244472503662109375">
        <ele>1045.5999755859375</ele>
        <time>2018-09-08T10:13:41.000Z</time>
      </trkpt>
      <trkpt lat="43.273774869740009307861328125" lon="-4.994901157915592193603515625">
        <ele>1045</ele>
        <time>2018-09-08T10:13:42.000Z</time>
      </trkpt>
      <trkpt lat="43.27363044954836368560791015625" lon="-4.9948860704898834228515625">
        <ele>1042.5999755859375</ele>
        <time>2018-09-08T10:13:44.000Z</time>
      </trkpt>
      <trkpt lat="43.2735607959330081939697265625" lon="-4.99489076435565948486328125">
        <ele>1041.4000244140625</ele>
        <time>2018-09-08T10:13:45.000Z</time>
      </trkpt>
      <trkpt lat="43.27343733049929141998291015625" lon="-4.99491917900741100311279296875">
        <ele>1040</ele>
        <time>2018-09-08T10:13:47.000Z</time>
      </trkpt>
      <trkpt lat="43.273381926119327545166015625" lon="-4.99494164250791072845458984375">
        <ele>1039.5999755859375</ele>
        <time>2018-09-08T10:13:48.000Z</time>
      </trkpt>
      <trkpt lat="43.27333373017609119415283203125" lon="-4.99497525393962860107421875">
        <ele>1038.4000244140625</ele>
        <time>2018-09-08T10:13:49.000Z</time>
      </trkpt>
      <trkpt lat="43.27328662388026714324951171875" lon="-4.99507927335798740386962890625">
        <ele>1036.800048828125</ele>
        <time>2018-09-08T10:13:51.000Z</time>
      </trkpt>
      <trkpt lat="43.27322426252067089080810546875" lon="-4.99517113901674747467041015625">
        <ele>1036</ele>
        <time>2018-09-08T10:13:54.000Z</time>
      </trkpt>
      <trkpt lat="43.27319526113569736480712890625" lon="-4.99517817981541156768798828125">
        <ele>1035.4000244140625</ele>
        <time>2018-09-08T10:13:55.000Z</time>
      </trkpt>
      <trkpt lat="43.27316257171332836151123046875" lon="-4.99518069438636302947998046875">
        <ele>1034.800048828125</ele>
        <time>2018-09-08T10:13:56.000Z</time>
      </trkpt>
      <trkpt lat="43.273092247545719146728515625" lon="-4.99518488533794879913330078125">
        <ele>1034.4000244140625</ele>
        <time>2018-09-08T10:13:58.000Z</time>
      </trkpt>
      <trkpt lat="43.2729727216064929962158203125" lon="-4.99514817260205745697021484375">
        <ele>1033.4000244140625</ele>
        <time>2018-09-08T10:14:02.000Z</time>
      </trkpt>
      <trkpt lat="43.2729398645460605621337890625" lon="-4.99514632858335971832275390625">
        <ele>1033.199951171875</ele>
        <time>2018-09-08T10:14:03.000Z</time>
      </trkpt>
      <trkpt lat="43.2727990485727787017822265625" lon="-4.995173402130603790283203125">
        <ele>1031.800048828125</ele>
        <time>2018-09-08T10:14:06.000Z</time>
      </trkpt>
      <trkpt lat="43.2727417163550853729248046875" lon="-4.99518304131925106048583984375">
        <ele>1031.4000244140625</ele>
        <time>2018-09-08T10:14:07.000Z</time>
      </trkpt>
      <trkpt lat="43.2726827077567577362060546875" lon="-4.99517952091991901397705078125">
        <ele>1031</ele>
        <time>2018-09-08T10:14:08.000Z</time>
      </trkpt>
      <trkpt lat="43.2726226933300495147705078125" lon="-4.99516342766582965850830078125">
        <ele>1030.5999755859375</ele>
        <time>2018-09-08T10:14:09.000Z</time>
      </trkpt>
      <trkpt lat="43.2725667022168636322021484375" lon="-4.99513861723244190216064453125">
        <ele>1030.199951171875</ele>
        <time>2018-09-08T10:14:10.000Z</time>
      </trkpt>
      <trkpt lat="43.27246553264558315277099609375" lon="-4.99508681707084178924560546875">
        <ele>1029.4000244140625</ele>
        <time>2018-09-08T10:14:12.000Z</time>
      </trkpt>
      <trkpt lat="43.2723682187497615814208984375" lon="-4.99503535218536853790283203125">
        <ele>1028.5999755859375</ele>
        <time>2018-09-08T10:14:14.000Z</time>
      </trkpt>
      <trkpt lat="43.2723232917487621307373046875" lon="-4.9950005672872066497802734375">
        <ele>1028</ele>
        <time>2018-09-08T10:14:15.000Z</time>
      </trkpt>
      <trkpt lat="43.2722522132098674774169921875" lon="-4.9949338473379611968994140625">
        <ele>1026.5999755859375</ele>
        <time>2018-09-08T10:14:17.000Z</time>
      </trkpt>
      <trkpt lat="43.27220619656145572662353515625" lon="-4.9948741681873798370361328125">
        <ele>1026</ele>
        <time>2018-09-08T10:14:19.000Z</time>
      </trkpt>
      <trkpt lat="43.27218331396579742431640625" lon="-4.99483636580407619476318359375">
        <ele>1025.4000244140625</ele>
        <time>2018-09-08T10:14:20.000Z</time>
      </trkpt>
      <trkpt lat="43.2721512950956821441650390625" lon="-4.99479780904948711395263671875">
        <ele>1025</ele>
        <time>2018-09-08T10:14:21.000Z</time>
      </trkpt>
      <trkpt lat="43.27206403948366641998291015625" lon="-4.99472237192094326019287109375">
        <ele>1024.199951171875</ele>
        <time>2018-09-08T10:14:23.000Z</time>
      </trkpt>
      <trkpt lat="43.2720077969133853912353515625" lon="-4.99468314461410045623779296875">
        <ele>1023</ele>
        <time>2018-09-08T10:14:24.000Z</time>
      </trkpt>
      <trkpt lat="43.27194635756313800811767578125" lon="-4.99463603831827640533447265625">
        <ele>1022.20001220703125</ele>
        <time>2018-09-08T10:14:25.000Z</time>
      </trkpt>
      <trkpt lat="43.27188198454678058624267578125" lon="-4.99458541162312030792236328125">
        <ele>1021.20001220703125</ele>
        <time>2018-09-08T10:14:26.000Z</time>
      </trkpt>
      <trkpt lat="43.27181492932140827178955078125" lon="-4.99452455900609493255615234375">
        <ele>1020.20001220703125</ele>
        <time>2018-09-08T10:14:27.000Z</time>
      </trkpt>
      <trkpt lat="43.27174879610538482666015625" lon="-4.99445046298205852508544921875">
        <ele>1018.79998779296875</ele>
        <time>2018-09-08T10:14:28.000Z</time>
      </trkpt>
      <trkpt lat="43.271682076156139373779296875" lon="-4.9943709187209606170654296875">
        <ele>1017.5999755859375</ele>
        <time>2018-09-08T10:14:29.000Z</time>
      </trkpt>
      <trkpt lat="43.27154670841991901397705078125" lon="-4.99421711079776287078857421875">
        <ele>1016</ele>
        <time>2018-09-08T10:14:31.000Z</time>
      </trkpt>
      <trkpt lat="43.2714807428419589996337890625" lon="-4.994146786630153656005859375">
        <ele>1015.5999755859375</ele>
        <time>2018-09-08T10:14:32.000Z</time>
      </trkpt>
      <trkpt lat="43.27136448584496974945068359375" lon="-4.994040168821811676025390625">
        <ele>1016</ele>
        <time>2018-09-08T10:14:34.000Z</time>
      </trkpt>
      <trkpt lat="43.27130891382694244384765625" lon="-4.99402382411062717437744140625">
        <ele>1016.5999755859375</ele>
        <time>2018-09-08T10:14:35.000Z</time>
      </trkpt>
      <trkpt lat="43.27126205898821353912353515625" lon="-4.99403379857540130615234375">
        <ele>1017.20001220703125</ele>
        <time>2018-09-08T10:14:36.000Z</time>
      </trkpt>
      <trkpt lat="43.27118628658354282379150390625" lon="-4.9940912984311580657958984375">
        <ele>1018.4000244140625</ele>
        <time>2018-09-08T10:14:38.000Z</time>
      </trkpt>
      <trkpt lat="43.27115275897085666656494140625" lon="-4.994123317301273345947265625">
        <ele>1018.5999755859375</ele>
        <time>2018-09-08T10:14:39.000Z</time>
      </trkpt>
      <trkpt lat="43.27111671678721904754638671875" lon="-4.99415961094200611114501953125">
        <ele>1018.79998779296875</ele>
        <time>2018-09-08T10:14:40.000Z</time>
      </trkpt>
      <trkpt lat="43.2710428722202777862548828125" lon="-4.99423672445118427276611328125">
        <ele>1018.79998779296875</ele>
        <time>2018-09-08T10:14:42.000Z</time>
      </trkpt>
      <trkpt lat="43.2708997093141078948974609375" lon="-4.9943863414227962493896484375">
        <ele>1019</ele>
        <time>2018-09-08T10:14:46.000Z</time>
      </trkpt>
      <trkpt lat="43.27083407901227474212646484375" lon="-4.99445021152496337890625">
        <ele>1019.5999755859375</ele>
        <time>2018-09-08T10:14:48.000Z</time>
      </trkpt>
      <trkpt lat="43.27073902823030948638916015625" lon="-4.99452858231961727142333984375">
        <ele>1020.20001220703125</ele>
        <time>2018-09-08T10:14:51.000Z</time>
      </trkpt>
      <trkpt lat="43.27065085060894489288330078125" lon="-4.9946206994354724884033203125">
        <ele>1018.4000244140625</ele>
        <time>2018-09-08T10:14:54.000Z</time>
      </trkpt>
      <trkpt lat="43.27059402130544185638427734375" lon="-4.9946741759777069091796875">
        <ele>1018.79998779296875</ele>
        <time>2018-09-08T10:14:56.000Z</time>
      </trkpt>
      <trkpt lat="43.27056669630110263824462890625" lon="-4.99470661394298076629638671875">
        <ele>1021.4000244140625</ele>
        <time>2018-09-08T10:14:57.000Z</time>
      </trkpt>
      <trkpt lat="43.27051229774951934814453125" lon="-4.994759000837802886962890625">
        <ele>1021.5999755859375</ele>
        <time>2018-09-08T10:14:59.000Z</time>
      </trkpt>
      <trkpt lat="43.2704863138496875762939453125" lon="-4.9947841465473175048828125">
        <ele>1021.79998779296875</ele>
        <time>2018-09-08T10:15:00.000Z</time>
      </trkpt>
      <trkpt lat="43.2704651914536952972412109375" lon="-4.99481432139873504638671875">
        <ele>1022</ele>
        <time>2018-09-08T10:15:01.000Z</time>
      </trkpt>
      <trkpt lat="43.27042336575686931610107421875" lon="-4.9948781915009021759033203125">
        <ele>1022.20001220703125</ele>
        <time>2018-09-08T10:15:03.000Z</time>
      </trkpt>
      <trkpt lat="43.27035999856889247894287109375" lon="-4.99498539604246616363525390625">
        <ele>1022.4000244140625</ele>
        <time>2018-09-08T10:15:06.000Z</time>
      </trkpt>
      <trkpt lat="43.27031607739627361297607421875" lon="-4.99506242573261260986328125">
        <ele>1022.4000244140625</ele>
        <time>2018-09-08T10:15:08.000Z</time>
      </trkpt>
      <trkpt lat="43.27017492614686489105224609375" lon="-4.99528312124311923980712890625">
        <ele>1022.79998779296875</ele>
        <time>2018-09-08T10:15:14.000Z</time>
      </trkpt>
      <trkpt lat="43.27002455480396747589111328125" lon="-4.9954815208911895751953125">
        <ele>1023.5999755859375</ele>
        <time>2018-09-08T10:15:20.000Z</time>
      </trkpt>
      <trkpt lat="43.26985247433185577392578125" lon="-4.9957106821238994598388671875">
        <ele>1024.5999755859375</ele>
        <time>2018-09-08T10:15:28.000Z</time>
      </trkpt>
      <trkpt lat="43.26969363726675510406494140625" lon="-4.995952583849430084228515625">
        <ele>1025.5999755859375</ele>
        <time>2018-09-08T10:15:36.000Z</time>
      </trkpt>
      <trkpt lat="43.26964938081800937652587890625" lon="-4.9960107542574405670166015625">
        <ele>1026</ele>
        <time>2018-09-08T10:15:38.000Z</time>
      </trkpt>
      <trkpt lat="43.26950789429247379302978515625" lon="-4.9962083995342254638671875">
        <ele>1026.5999755859375</ele>
        <time>2018-09-08T10:15:45.000Z</time>
      </trkpt>
      <trkpt lat="43.26948710717260837554931640625" lon="-4.996226839721202850341796875">
        <ele>1026.800048828125</ele>
        <time>2018-09-08T10:15:46.000Z</time>
      </trkpt>
      <trkpt lat="43.26941929757595062255859375" lon="-4.99626698903739452362060546875">
        <ele>1027.4000244140625</ele>
        <time>2018-09-08T10:15:50.000Z</time>
      </trkpt>
      <trkpt lat="43.26940119266510009765625" lon="-4.99629045836627483367919921875">
        <ele>1027.199951171875</ele>
        <time>2018-09-08T10:15:52.000Z</time>
      </trkpt>
      <trkpt lat="43.26937613077461719512939453125" lon="-4.9963262490928173065185546875">
        <ele>1027.5999755859375</ele>
        <time>2018-09-08T10:15:55.000Z</time>
      </trkpt>
      <trkpt lat="43.26933891512453556060791015625" lon="-4.9963192082941532135009765625">
        <ele>1027.5999755859375</ele>
        <time>2018-09-08T10:16:41.000Z</time>
      </trkpt>
      <trkpt lat="43.269323073327541351318359375" lon="-4.99630772508680820465087890625">
        <ele>1027.4000244140625</ele>
        <time>2018-09-08T10:16:42.000Z</time>
      </trkpt>
      <trkpt lat="43.269285522401332855224609375" lon="-4.9962729401886463165283203125">
        <ele>1027.199951171875</ele>
        <time>2018-09-08T10:16:45.000Z</time>
      </trkpt>
      <trkpt lat="43.269285857677459716796875" lon="-4.9962300248444080352783203125">
        <ele>1027</ele>
        <time>2018-09-08T10:16:47.000Z</time>
      </trkpt>
      <trkpt lat="43.26928426511585712432861328125" lon="-4.99618182890117168426513671875">
        <ele>1027</ele>
        <time>2018-09-08T10:16:49.000Z</time>
      </trkpt>
      <trkpt lat="43.26927739195525646209716796875" lon="-4.99613002873957157135009765625">
        <ele>1027.4000244140625</ele>
        <time>2018-09-08T10:16:52.000Z</time>
      </trkpt>
      <trkpt lat="43.269277475774288177490234375" lon="-4.99613287858664989471435546875">
        <ele>1027.4000244140625</ele>
        <time>2018-09-08T10:16:53.000Z</time>
      </trkpt>
      <trkpt lat="43.2692370750010013580322265625" lon="-4.996175207197666168212890625">
        <ele>1027.199951171875</ele>
        <time>2018-09-08T10:19:00.000Z</time>
      </trkpt>
      <trkpt lat="43.26923682354390621185302734375" lon="-4.99620144255459308624267578125">
        <ele>1027.199951171875</ele>
        <time>2018-09-08T10:19:01.000Z</time>
      </trkpt>
      <trkpt lat="43.26923162676393985748291015625" lon="-4.9962280131876468658447265625">
        <ele>1027.199951171875</ele>
        <time>2018-09-08T10:19:02.000Z</time>
      </trkpt>
      <trkpt lat="43.26923430897295475006103515625" lon="-4.99641702510416507720947265625">
        <ele>1026.800048828125</ele>
        <time>2018-09-08T10:19:08.000Z</time>
      </trkpt>
      <trkpt lat="43.26922056265175342559814453125" lon="-4.99659304507076740264892578125">
        <ele>1027.5999755859375</ele>
        <time>2018-09-08T10:19:14.000Z</time>
      </trkpt>
      <trkpt lat="43.269205056130886077880859375" lon="-4.9966434203088283538818359375">
        <ele>1028</ele>
        <time>2018-09-08T10:19:16.000Z</time>
      </trkpt>
      <trkpt lat="43.2691799104213714599609375" lon="-4.996695555746555328369140625">
        <ele>1028</ele>
        <time>2018-09-08T10:19:18.000Z</time>
      </trkpt>
      <trkpt lat="43.2691680081188678741455078125" lon="-4.9967222101986408233642578125">
        <ele>1028.199951171875</ele>
        <time>2018-09-08T10:19:19.000Z</time>
      </trkpt>
      <trkpt lat="43.26912827789783477783203125" lon="-4.99686109833419322967529296875">
        <ele>1028.5999755859375</ele>
        <time>2018-09-08T10:19:24.000Z</time>
      </trkpt>
      <trkpt lat="43.26912433840334415435791015625" lon="-4.99691122211515903472900390625">
        <ele>1028.5999755859375</ele>
        <time>2018-09-08T10:19:26.000Z</time>
      </trkpt>
      <trkpt lat="43.269166834652423858642578125" lon="-4.9970397166907787322998046875">
        <ele>1029</ele>
        <time>2018-09-08T10:19:32.000Z</time>
      </trkpt>
      <trkpt lat="43.26917848549783229827880859375" lon="-4.997061677277088165283203125">
        <ele>1029</ele>
        <time>2018-09-08T10:19:33.000Z</time>
      </trkpt>
      <trkpt lat="43.26922341249883174896240234375" lon="-4.99722621403634548187255859375">
        <ele>1029.4000244140625</ele>
        <time>2018-09-08T10:19:39.000Z</time>
      </trkpt>
      <trkpt lat="43.2692229934036731719970703125" lon="-4.9974262900650501251220703125">
        <ele>1030.199951171875</ele>
        <time>2018-09-08T10:19:46.000Z</time>
      </trkpt>
      <trkpt lat="43.26916758902370929718017578125" lon="-4.99760339967906475067138671875">
        <ele>1031</ele>
        <time>2018-09-08T10:19:53.000Z</time>
      </trkpt>
      <trkpt lat="43.2691549323499202728271484375" lon="-4.99761932529509067535400390625">
        <ele>1031.199951171875</ele>
        <time>2018-09-08T10:19:54.000Z</time>
      </trkpt>
      <trkpt lat="43.2691177166998386383056640625" lon="-4.99767816625535488128662109375">
        <ele>1032</ele>
        <time>2018-09-08T10:19:57.000Z</time>
      </trkpt>
      <trkpt lat="43.2691096700727939605712890625" lon="-4.9977008812129497528076171875">
        <ele>1032.4000244140625</ele>
        <time>2018-09-08T10:19:58.000Z</time>
      </trkpt>
      <trkpt lat="43.26908913441002368927001953125" lon="-4.9977706186473369598388671875">
        <ele>1033</ele>
        <time>2018-09-08T10:20:01.000Z</time>
      </trkpt>
      <trkpt lat="43.26907589100301265716552734375" lon="-4.9978123605251312255859375">
        <ele>1033.4000244140625</ele>
        <time>2018-09-08T10:20:03.000Z</time>
      </trkpt>
      <trkpt lat="43.269050829112529754638671875" lon="-4.9978899769484996795654296875">
        <ele>1034</ele>
        <time>2018-09-08T10:20:07.000Z</time>
      </trkpt>
      <trkpt lat="43.269044123589992523193359375" lon="-4.99791386537253856658935546875">
        <ele>1034</ele>
        <time>2018-09-08T10:20:08.000Z</time>
      </trkpt>
      <trkpt lat="43.2690349034965038299560546875" lon="-4.997956864535808563232421875">
        <ele>1034.4000244140625</ele>
        <time>2018-09-08T10:20:10.000Z</time>
      </trkpt>
      <trkpt lat="43.269004561007022857666015625" lon="-4.9981079064309597015380859375">
        <ele>1035.5999755859375</ele>
        <time>2018-09-08T10:20:17.000Z</time>
      </trkpt>
      <trkpt lat="43.2689923234283924102783203125" lon="-4.99814428389072418212890625">
        <ele>1036</ele>
        <time>2018-09-08T10:20:19.000Z</time>
      </trkpt>
      <trkpt lat="43.268965668976306915283203125" lon="-4.9982084892690181732177734375">
        <ele>1036.5999755859375</ele>
        <time>2018-09-08T10:20:22.000Z</time>
      </trkpt>
      <trkpt lat="43.26892987824976444244384765625" lon="-4.99828149564564228057861328125">
        <ele>1037.199951171875</ele>
        <time>2018-09-08T10:20:26.000Z</time>
      </trkpt>
      <trkpt lat="43.2689048163592815399169921875" lon="-4.998301528394222259521484375">
        <ele>1037.5999755859375</ele>
        <time>2018-09-08T10:20:28.000Z</time>
      </trkpt>
      <trkpt lat="43.26883818022906780242919921875" lon="-4.998374283313751220703125">
        <ele>1038.4000244140625</ele>
        <time>2018-09-08T10:20:33.000Z</time>
      </trkpt>
      <trkpt lat="43.26879845000803470611572265625" lon="-4.99840085394680500030517578125">
        <ele>1038.800048828125</ele>
        <time>2018-09-08T10:20:36.000Z</time>
      </trkpt>
      <trkpt lat="43.268744051456451416015625" lon="-4.9984358064830303192138671875">
        <ele>1039.800048828125</ele>
        <time>2018-09-08T10:20:40.000Z</time>
      </trkpt>
      <trkpt lat="43.26867590658366680145263671875" lon="-4.99848752282559871673583984375">
        <ele>1040.4000244140625</ele>
        <time>2018-09-08T10:20:45.000Z</time>
      </trkpt>
      <trkpt lat="43.26864053495228290557861328125" lon="-4.99853831715881824493408203125">
        <ele>1040.800048828125</ele>
        <time>2018-09-08T10:20:49.000Z</time>
      </trkpt>
      <trkpt lat="43.26866785995662212371826171875" lon="-4.998576454818248748779296875">
        <ele>1041.199951171875</ele>
        <time>2018-09-08T10:20:53.000Z</time>
      </trkpt>
      <trkpt lat="43.26870356686413288116455078125" lon="-4.99850093387067317962646484375">
        <ele>1039.5999755859375</ele>
        <time>2018-09-08T11:00:49.000Z</time>
      </trkpt>
      <trkpt lat="43.2686932571232318878173828125" lon="-4.99851308763027191162109375">
        <ele>1039.5999755859375</ele>
        <time>2018-09-08T11:00:50.000Z</time>
      </trkpt>
      <trkpt lat="43.2686349190771579742431640625" lon="-4.99854418449103832244873046875">
        <ele>1039.4000244140625</ele>
        <time>2018-09-08T11:00:54.000Z</time>
      </trkpt>
      <trkpt lat="43.26862377114593982696533203125" lon="-4.998523481190204620361328125">
        <ele>1039.199951171875</ele>
        <time>2018-09-08T11:00:55.000Z</time>
      </trkpt>
      <trkpt lat="43.26864556409418582916259765625" lon="-4.99848718754947185516357421875">
        <ele>1038.5999755859375</ele>
        <time>2018-09-08T11:00:57.000Z</time>
      </trkpt>
      <trkpt lat="43.26866886578500270843505859375" lon="-4.9984753690659999847412109375">
        <ele>1038.199951171875</ele>
        <time>2018-09-08T11:00:58.000Z</time>
      </trkpt>
      <trkpt lat="43.26869602315127849578857421875" lon="-4.99846346676349639892578125">
        <ele>1038</ele>
        <time>2018-09-08T11:00:59.000Z</time>
      </trkpt>
      <trkpt lat="43.268761821091175079345703125" lon="-4.99842314980924129486083984375">
        <ele>1037.4000244140625</ele>
        <time>2018-09-08T11:01:01.000Z</time>
      </trkpt>
      <trkpt lat="43.2688008807599544525146484375" lon="-4.9983952380716800689697265625">
        <ele>1037.199951171875</ele>
        <time>2018-09-08T11:01:02.000Z</time>
      </trkpt>
      <trkpt lat="43.268845640122890472412109375" lon="-4.99836196191608905792236328125">
        <ele>1036.800048828125</ele>
        <time>2018-09-08T11:01:03.000Z</time>
      </trkpt>
      <trkpt lat="43.2688950933516025543212890625" lon="-4.99831301160156726837158203125">
        <ele>1036.199951171875</ele>
        <time>2018-09-08T11:01:04.000Z</time>
      </trkpt>
      <trkpt lat="43.268981762230396270751953125" lon="-4.99815476126968860626220703125">
        <ele>1034.800048828125</ele>
        <time>2018-09-08T11:01:06.000Z</time>
      </trkpt>
      <trkpt lat="43.2690352387726306915283203125" lon="-4.99794772826135158538818359375">
        <ele>1033.800048828125</ele>
        <time>2018-09-08T11:01:08.000Z</time>
      </trkpt>
      <trkpt lat="43.26910153962671756744384765625" lon="-4.99773633666336536407470703125">
        <ele>1032.4000244140625</ele>
        <time>2018-09-08T11:01:10.000Z</time>
      </trkpt>
      <trkpt lat="43.269138336181640625" lon="-4.997634328901767730712890625">
        <ele>1031</ele>
        <time>2018-09-08T11:01:11.000Z</time>
      </trkpt>
      <trkpt lat="43.2692065648734569549560546875" lon="-4.99744347296655178070068359375">
        <ele>1029</ele>
        <time>2018-09-08T11:01:13.000Z</time>
      </trkpt>
      <trkpt lat="43.26922408305108547210693359375" lon="-4.9973441474139690399169921875">
        <ele>1027.5999755859375</ele>
        <time>2018-09-08T11:01:14.000Z</time>
      </trkpt>
      <trkpt lat="43.26919390819966793060302734375" lon="-4.99706394039094448089599609375">
        <ele>1027.5999755859375</ele>
        <time>2018-09-08T11:01:17.000Z</time>
      </trkpt>
      <trkpt lat="43.26908192597329616546630859375" lon="-4.99693863093852996826171875">
        <ele>1027.5999755859375</ele>
        <time>2018-09-08T11:01:20.000Z</time>
      </trkpt>
      <trkpt lat="43.26900028623640537261962890625" lon="-4.99700023792684078216552734375">
        <ele>1027.199951171875</ele>
        <time>2018-09-08T11:01:23.000Z</time>
      </trkpt>
      <trkpt lat="43.2689309678971767425537109375" lon="-4.99709042720496654510498046875">
        <ele>1027</ele>
        <time>2018-09-08T11:01:25.000Z</time>
      </trkpt>
      <trkpt lat="43.26885662041604518890380859375" lon="-4.997200481593608856201171875">
        <ele>1026.5999755859375</ele>
        <time>2018-09-08T11:01:27.000Z</time>
      </trkpt>
      <trkpt lat="43.26878118328750133514404296875" lon="-4.99729427509009838104248046875">
        <ele>1026.5999755859375</ele>
        <time>2018-09-08T11:01:29.000Z</time>
      </trkpt>
      <trkpt lat="43.26874849386513233184814453125" lon="-4.99734641052782535552978515625">
        <ele>1026.800048828125</ele>
        <time>2018-09-08T11:01:30.000Z</time>
      </trkpt>
      <trkpt lat="43.26868361793458461761474609375" lon="-4.99744431115686893463134765625">
        <ele>1027.199951171875</ele>
        <time>2018-09-08T11:01:32.000Z</time>
      </trkpt>
      <trkpt lat="43.26861874200403690338134765625" lon="-4.9975355900824069976806640625">
        <ele>1027.199951171875</ele>
        <time>2018-09-08T11:01:34.000Z</time>
      </trkpt>
      <trkpt lat="43.26858622021973133087158203125" lon="-4.9975697882473468780517578125">
        <ele>1027.199951171875</ele>
        <time>2018-09-08T11:01:35.000Z</time>
      </trkpt>
      <trkpt lat="43.26851715333759784698486328125" lon="-4.9976120330393314361572265625">
        <ele>1027.5999755859375</ele>
        <time>2018-09-08T11:01:37.000Z</time>
      </trkpt>
      <trkpt lat="43.26847943477332592010498046875" lon="-4.99762351624667644500732421875">
        <ele>1028</ele>
        <time>2018-09-08T11:01:38.000Z</time>
      </trkpt>
      <trkpt lat="43.26836577616631984710693359375" lon="-4.99761094339191913604736328125">
        <ele>1028.4000244140625</ele>
        <time>2018-09-08T11:01:41.000Z</time>
      </trkpt>
      <trkpt lat="43.2683318294584751129150390625" lon="-4.99760021455585956573486328125">
        <ele>1028.5999755859375</ele>
        <time>2018-09-08T11:01:42.000Z</time>
      </trkpt>
      <trkpt lat="43.268299140036106109619140625" lon="-4.9975862167775630950927734375">
        <ele>1029</ele>
        <time>2018-09-08T11:01:43.000Z</time>
      </trkpt>
      <trkpt lat="43.26810744591057300567626953125" lon="-4.997553192079067230224609375">
        <ele>1029.199951171875</ele>
        <time>2018-09-08T11:01:49.000Z</time>
      </trkpt>
      <trkpt lat="43.26801440678536891937255859375" lon="-4.9975547008216381072998046875">
        <ele>1029.800048828125</ele>
        <time>2018-09-08T11:01:52.000Z</time>
      </trkpt>
      <trkpt lat="43.2679326832294464111328125" lon="-4.99756358563899993896484375">
        <ele>1030.4000244140625</ele>
        <time>2018-09-08T11:01:55.000Z</time>
      </trkpt>
      <trkpt lat="43.267878033220767974853515625" lon="-4.9975600652396678924560546875">
        <ele>1030.4000244140625</ele>
        <time>2018-09-08T11:01:57.000Z</time>
      </trkpt>
      <trkpt lat="43.267738558351993560791015625" lon="-4.99754237942397594451904296875">
        <ele>1031</ele>
        <time>2018-09-08T11:02:02.000Z</time>
      </trkpt>
      <trkpt lat="43.2676522247493267059326171875" lon="-4.9975500069558620452880859375">
        <ele>1031.4000244140625</ele>
        <time>2018-09-08T11:02:05.000Z</time>
      </trkpt>
      <trkpt lat="43.2674896158277988433837890625" lon="-4.9975627474486827850341796875">
        <ele>1032</ele>
        <time>2018-09-08T11:02:11.000Z</time>
      </trkpt>
      <trkpt lat="43.2674614526331424713134765625" lon="-4.99757029116153717041015625">
        <ele>1032</ele>
        <time>2018-09-08T11:02:12.000Z</time>
      </trkpt>
      <trkpt lat="43.26730781234800815582275390625" lon="-4.997582025825977325439453125">
        <ele>1032.800048828125</ele>
        <time>2018-09-08T11:02:17.000Z</time>
      </trkpt>
      <trkpt lat="43.26722499914467334747314453125" lon="-4.99759040772914886474609375">
        <ele>1033</ele>
        <time>2018-09-08T11:02:20.000Z</time>
      </trkpt>
      <trkpt lat="43.2671204768121242523193359375" lon="-4.99758076854050159454345703125">
        <ele>1033.4000244140625</ele>
        <time>2018-09-08T11:02:24.000Z</time>
      </trkpt>
      <trkpt lat="43.2669535093009471893310546875" lon="-4.9975610710680484771728515625">
        <ele>1032.5999755859375</ele>
        <time>2018-09-08T11:02:29.000Z</time>
      </trkpt>
      <trkpt lat="43.26691620983183383941650390625" lon="-4.997558891773223876953125">
        <ele>1032.5999755859375</ele>
        <time>2018-09-08T11:02:30.000Z</time>
      </trkpt>
      <trkpt lat="43.26683457009494304656982421875" lon="-4.997565262019634246826171875">
        <ele>1032.199951171875</ele>
        <time>2018-09-08T11:02:32.000Z</time>
      </trkpt>
      <trkpt lat="43.2667900621891021728515625" lon="-4.9975709617137908935546875">
        <ele>1031.800048828125</ele>
        <time>2018-09-08T11:02:33.000Z</time>
      </trkpt>
      <trkpt lat="43.266742788255214691162109375" lon="-4.99758563004434108734130859375">
        <ele>1031.5999755859375</ele>
        <time>2018-09-08T11:02:34.000Z</time>
      </trkpt>
      <trkpt lat="43.26663918793201446533203125" lon="-4.99761127866804599761962890625">
        <ele>1031</ele>
        <time>2018-09-08T11:02:36.000Z</time>
      </trkpt>
      <trkpt lat="43.26658059842884540557861328125" lon="-4.9976150505244731903076171875">
        <ele>1030.4000244140625</ele>
        <time>2018-09-08T11:02:37.000Z</time>
      </trkpt>
      <trkpt lat="43.26645621098577976226806640625" lon="-4.997620917856693267822265625">
        <ele>1029.4000244140625</ele>
        <time>2018-09-08T11:02:39.000Z</time>
      </trkpt>
      <trkpt lat="43.2663225196301937103271484375" lon="-4.997647739946842193603515625">
        <ele>1028.5999755859375</ele>
        <time>2018-09-08T11:02:41.000Z</time>
      </trkpt>
      <trkpt lat="43.26625403948128223419189453125" lon="-4.99767489731311798095703125">
        <ele>1028.199951171875</ele>
        <time>2018-09-08T11:02:42.000Z</time>
      </trkpt>
      <trkpt lat="43.266185559332370758056640625" lon="-4.99771337024867534637451171875">
        <ele>1027.5999755859375</ele>
        <time>2018-09-08T11:02:43.000Z</time>
      </trkpt>
      <trkpt lat="43.2661193422973155975341796875" lon="-4.99775947071611881256103515625">
        <ele>1027</ele>
        <time>2018-09-08T11:02:44.000Z</time>
      </trkpt>
      <trkpt lat="43.26605857349932193756103515625" lon="-4.99780272133648395538330078125">
        <ele>1026.5999755859375</ele>
        <time>2018-09-08T11:02:45.000Z</time>
      </trkpt>
      <trkpt lat="43.26599855907261371612548828125" lon="-4.9978309683501720428466796875">
        <ele>1026</ele>
        <time>2018-09-08T11:02:46.000Z</time>
      </trkpt>
      <trkpt lat="43.26588154770433902740478515625" lon="-4.9978121928870677947998046875">
        <ele>1025</ele>
        <time>2018-09-08T11:02:48.000Z</time>
      </trkpt>
      <trkpt lat="43.26575783081352710723876953125" lon="-4.99760926701128482818603515625">
        <ele>1023.20001220703125</ele>
        <time>2018-09-08T11:02:51.000Z</time>
      </trkpt>
      <trkpt lat="43.2657263986766338348388671875" lon="-4.99752729199826717376708984375">
        <ele>1022.79998779296875</ele>
        <time>2018-09-08T11:02:52.000Z</time>
      </trkpt>
      <trkpt lat="43.2656985707581043243408203125" lon="-4.997445903718471527099609375">
        <ele>1022.20001220703125</ele>
        <time>2018-09-08T11:02:53.000Z</time>
      </trkpt>
      <trkpt lat="43.2656439207494258880615234375" lon="-4.9972973763942718505859375">
        <ele>1020.5999755859375</ele>
        <time>2018-09-08T11:02:55.000Z</time>
      </trkpt>
      <trkpt lat="43.26561735011637210845947265625" lon="-4.99723006971180438995361328125">
        <ele>1020.20001220703125</ele>
        <time>2018-09-08T11:02:56.000Z</time>
      </trkpt>
      <trkpt lat="43.2655892707407474517822265625" lon="-4.99717810191214084625244140625">
        <ele>1019.79998779296875</ele>
        <time>2018-09-08T11:02:57.000Z</time>
      </trkpt>
      <trkpt lat="43.2655590958893299102783203125" lon="-4.99714055098593235015869140625">
        <ele>1019.20001220703125</ele>
        <time>2018-09-08T11:02:58.000Z</time>
      </trkpt>
      <trkpt lat="43.26552699320018291473388671875" lon="-4.99712370336055755615234375">
        <ele>1019</ele>
        <time>2018-09-08T11:02:59.000Z</time>
      </trkpt>
      <trkpt lat="43.2655026018619537353515625" lon="-4.99712512828409671783447265625">
        <ele>1018.4000244140625</ele>
        <time>2018-09-08T11:03:00.000Z</time>
      </trkpt>
      <trkpt lat="43.26547267846763134002685546875" lon="-4.99715748243033885955810546875">
        <ele>1018.20001220703125</ele>
        <time>2018-09-08T11:03:02.000Z</time>
      </trkpt>
      <trkpt lat="43.26545759104192256927490234375" lon="-4.9972107075154781341552734375">
        <ele>1018</ele>
        <time>2018-09-08T11:03:04.000Z</time>
      </trkpt>
      <trkpt lat="43.26545499265193939208984375" lon="-4.99723945744335651397705078125">
        <ele>1017.79998779296875</ele>
        <time>2018-09-08T11:03:05.000Z</time>
      </trkpt>
      <trkpt lat="43.26545272953808307647705078125" lon="-4.99727122485637664794921875">
        <ele>1017.79998779296875</ele>
        <time>2018-09-08T11:03:06.000Z</time>
      </trkpt>
      <trkpt lat="43.2654256559908390045166015625" lon="-4.99739016406238079071044921875">
        <ele>1017.4000244140625</ele>
        <time>2018-09-08T11:03:09.000Z</time>
      </trkpt>
      <trkpt lat="43.265411071479320526123046875" lon="-4.99743752181529998779296875">
        <ele>1017.5999755859375</ele>
        <time>2018-09-08T11:03:10.000Z</time>
      </trkpt>
      <trkpt lat="43.26537276618182659149169921875" lon="-4.997537434101104736328125">
        <ele>1017.20001220703125</ele>
        <time>2018-09-08T11:03:12.000Z</time>
      </trkpt>
      <trkpt lat="43.26534644700586795806884765625" lon="-4.99758948571979999542236328125">
        <ele>1016.5999755859375</ele>
        <time>2018-09-08T11:03:13.000Z</time>
      </trkpt>
      <trkpt lat="43.26527654193341732025146484375" lon="-4.99769459478557109832763671875">
        <ele>1015.4000244140625</ele>
        <time>2018-09-08T11:03:15.000Z</time>
      </trkpt>
      <trkpt lat="43.26516020111739635467529296875" lon="-4.997836835682392120361328125">
        <ele>1014.4000244140625</ele>
        <time>2018-09-08T11:03:18.000Z</time>
      </trkpt>
      <trkpt lat="43.26507839374244213104248046875" lon="-4.99790581874549388885498046875">
        <ele>1014</ele>
        <time>2018-09-08T11:03:20.000Z</time>
      </trkpt>
      <trkpt lat="43.26494880951941013336181640625" lon="-4.997966587543487548828125">
        <ele>1014</ele>
        <time>2018-09-08T11:03:23.000Z</time>
      </trkpt>
      <trkpt lat="43.26487588696181774139404296875" lon="-4.99799164943397045135498046875">
        <ele>1014.4000244140625</ele>
        <time>2018-09-08T11:03:25.000Z</time>
      </trkpt>
      <trkpt lat="43.26477907598018646240234375" lon="-4.997999779880046844482421875">
        <ele>1015.79998779296875</ele>
        <time>2018-09-08T11:03:28.000Z</time>
      </trkpt>
      <trkpt lat="43.26471579261124134063720703125" lon="-4.9979922361671924591064453125">
        <ele>1016.79998779296875</ele>
        <time>2018-09-08T11:03:31.000Z</time>
      </trkpt>
      <trkpt lat="43.26466131024062633514404296875" lon="-4.9979721195995807647705078125">
        <ele>1017.4000244140625</ele>
        <time>2018-09-08T11:03:34.000Z</time>
      </trkpt>
      <trkpt lat="43.2646427862346172332763671875" lon="-4.99796499498188495635986328125">
        <ele>1017.5999755859375</ele>
        <time>2018-09-08T11:03:35.000Z</time>
      </trkpt>
      <trkpt lat="43.2646243460476398468017578125" lon="-4.99796063639223575592041015625">
        <ele>1018</ele>
        <time>2018-09-08T11:03:36.000Z</time>
      </trkpt>
      <trkpt lat="43.26460548676550388336181640625" lon="-4.99796097166836261749267578125">
        <ele>1018</ele>
        <time>2018-09-08T11:03:37.000Z</time>
      </trkpt>
      <trkpt lat="43.2645854540169239044189453125" lon="-4.99796147458255290985107421875">
        <ele>1018.20001220703125</ele>
        <time>2018-09-08T11:03:38.000Z</time>
      </trkpt>
      <trkpt lat="43.26454580761492252349853515625" lon="-4.997955858707427978515625">
        <ele>1018.4000244140625</ele>
        <time>2018-09-08T11:03:40.000Z</time>
      </trkpt>
      <trkpt lat="43.26452585868537425994873046875" lon="-4.99795225448906421661376953125">
        <ele>1018.4000244140625</ele>
        <time>2018-09-08T11:03:41.000Z</time>
      </trkpt>
      <trkpt lat="43.26448596082627773284912109375" lon="-4.9979473091661930084228515625">
        <ele>1018.4000244140625</ele>
        <time>2018-09-08T11:03:43.000Z</time>
      </trkpt>
      <trkpt lat="43.264465592801570892333984375" lon="-4.99793951399624347686767578125">
        <ele>1018.79998779296875</ele>
        <time>2018-09-08T11:03:44.000Z</time>
      </trkpt>
      <trkpt lat="43.26444522477686405181884765625" lon="-4.99793314374983310699462890625">
        <ele>1018.79998779296875</ele>
        <time>2018-09-08T11:03:45.000Z</time>
      </trkpt>
      <trkpt lat="43.26442376710474491119384765625" lon="-4.997928701341152191162109375">
        <ele>1019</ele>
        <time>2018-09-08T11:03:46.000Z</time>
      </trkpt>
      <trkpt lat="43.264400549232959747314453125" lon="-4.99793062917888164520263671875">
        <ele>1019.20001220703125</ele>
        <time>2018-09-08T11:03:47.000Z</time>
      </trkpt>
      <trkpt lat="43.26435394585132598876953125" lon="-4.99794387258589267730712890625">
        <ele>1019.4000244140625</ele>
        <time>2018-09-08T11:03:49.000Z</time>
      </trkpt>
      <trkpt lat="43.264333494007587432861328125" lon="-4.99795627780258655548095703125">
        <ele>1019.4000244140625</ele>
        <time>2018-09-08T11:03:50.000Z</time>
      </trkpt>
      <trkpt lat="43.26429535634815692901611328125" lon="-4.99799332581460475921630859375">
        <ele>1019.79998779296875</ele>
        <time>2018-09-08T11:03:52.000Z</time>
      </trkpt>
      <trkpt lat="43.26427616178989410400390625" lon="-4.9980162084102630615234375">
        <ele>1019.79998779296875</ele>
        <time>2018-09-08T11:03:53.000Z</time>
      </trkpt>
      <trkpt lat="43.264231570065021514892578125" lon="-4.9980579502880573272705078125">
        <ele>1019.79998779296875</ele>
        <time>2018-09-08T11:03:55.000Z</time>
      </trkpt>
      <trkpt lat="43.264207430183887481689453125" lon="-4.998078905045986175537109375">
        <ele>1019.79998779296875</ele>
        <time>2018-09-08T11:03:56.000Z</time>
      </trkpt>
      <trkpt lat="43.26404725201427936553955078125" lon="-4.99816180206835269927978515625">
        <ele>1019.5999755859375</ele>
        <time>2018-09-08T11:04:02.000Z</time>
      </trkpt>
      <trkpt lat="43.26394381932914257049560546875" lon="-4.9982011131942272186279296875">
        <ele>1020</ele>
        <time>2018-09-08T11:04:06.000Z</time>
      </trkpt>
      <trkpt lat="43.26384440995752811431884765625" lon="-4.998256266117095947265625">
        <ele>1020.79998779296875</ele>
        <time>2018-09-08T11:04:10.000Z</time>
      </trkpt>
      <trkpt lat="43.2637940347194671630859375" lon="-4.9983434379100799560546875">
        <ele>1021.20001220703125</ele>
        <time>2018-09-08T11:04:13.000Z</time>
      </trkpt>
      <trkpt lat="43.26377727091312408447265625" lon="-4.998408146202564239501953125">
        <ele>1021.5999755859375</ele>
        <time>2018-09-08T11:04:15.000Z</time>
      </trkpt>
      <trkpt lat="43.26374650932848453521728515625" lon="-4.99859631992876529693603515625">
        <ele>1022</ele>
        <time>2018-09-08T11:04:20.000Z</time>
      </trkpt>
      <trkpt lat="43.2637442462146282196044921875" lon="-4.9986389838159084320068359375">
        <ele>1022</ele>
        <time>2018-09-08T11:04:21.000Z</time>
      </trkpt>
      <trkpt lat="43.26374449767172336578369140625" lon="-4.9988341145217418670654296875">
        <ele>1021.5999755859375</ele>
        <time>2018-09-08T11:04:25.000Z</time>
      </trkpt>
      <trkpt lat="43.26374935917556285858154296875" lon="-4.998981468379497528076171875">
        <ele>1021.79998779296875</ele>
        <time>2018-09-08T11:04:28.000Z</time>
      </trkpt>
      <trkpt lat="43.26374734751880168914794921875" lon="-4.99921624548733234405517578125">
        <ele>1022</ele>
        <time>2018-09-08T11:04:33.000Z</time>
      </trkpt>
      <trkpt lat="43.26375505886971950531005859375" lon="-4.99936225824058055877685546875">
        <ele>1022.20001220703125</ele>
        <time>2018-09-08T11:04:36.000Z</time>
      </trkpt>
      <trkpt lat="43.2637553103268146514892578125" lon="-4.99941296875476837158203125">
        <ele>1022</ele>
        <time>2018-09-08T11:04:37.000Z</time>
      </trkpt>
      <trkpt lat="43.263757489621639251708984375" lon="-4.99951162375509738922119140625">
        <ele>1022.20001220703125</ele>
        <time>2018-09-08T11:04:39.000Z</time>
      </trkpt>
      <trkpt lat="43.26376075856387615203857421875" lon="-4.99955956824123859405517578125">
        <ele>1022.20001220703125</ele>
        <time>2018-09-08T11:04:40.000Z</time>
      </trkpt>
      <trkpt lat="43.263738714158535003662109375" lon="-4.99988210387527942657470703125">
        <ele>1022</ele>
        <time>2018-09-08T11:04:46.000Z</time>
      </trkpt>
      <trkpt lat="43.26372102834284305572509765625" lon="-5.0000131130218505859375">
        <ele>1021.20001220703125</ele>
        <time>2018-09-08T11:04:48.000Z</time>
      </trkpt>
      <trkpt lat="43.2637217827141284942626953125" lon="-5.00007815659046173095703125">
        <ele>1021</ele>
        <time>2018-09-08T11:04:49.000Z</time>
      </trkpt>
      <trkpt lat="43.26371700502932071685791015625" lon="-5.0002048909664154052734375">
        <ele>1021</ele>
        <time>2018-09-08T11:04:51.000Z</time>
      </trkpt>
      <trkpt lat="43.2637147419154644012451171875" lon="-5.000260882079601287841796875">
        <ele>1020.79998779296875</ele>
        <time>2018-09-08T11:04:52.000Z</time>
      </trkpt>
      <trkpt lat="43.26370694674551486968994140625" lon="-5.0004172883927822113037109375">
        <ele>1020.79998779296875</ele>
        <time>2018-09-08T11:04:55.000Z</time>
      </trkpt>
      <trkpt lat="43.2636838965117931365966796875" lon="-5.000521056354045867919921875">
        <ele>1020.4000244140625</ele>
        <time>2018-09-08T11:04:57.000Z</time>
      </trkpt>
      <trkpt lat="43.26367392204701900482177734375" lon="-5.0005777180194854736328125">
        <ele>1020.20001220703125</ele>
        <time>2018-09-08T11:04:58.000Z</time>
      </trkpt>
      <trkpt lat="43.26362480409443378448486328125" lon="-5.0008137524127960205078125">
        <ele>1019.79998779296875</ele>
        <time>2018-09-08T11:05:02.000Z</time>
      </trkpt>
      <trkpt lat="43.26360317878425121307373046875" lon="-5.00086949206888675689697265625">
        <ele>1019.79998779296875</ele>
        <time>2018-09-08T11:05:03.000Z</time>
      </trkpt>
      <trkpt lat="43.2634827308356761932373046875" lon="-5.0010509602725505828857421875">
        <ele>1019.20001220703125</ele>
        <time>2018-09-08T11:05:07.000Z</time>
      </trkpt>
      <trkpt lat="43.263449035584926605224609375" lon="-5.0010868348181247711181640625">
        <ele>1019</ele>
        <time>2018-09-08T11:05:08.000Z</time>
      </trkpt>
      <trkpt lat="43.26341559179127216339111328125" lon="-5.0011190213263034820556640625">
        <ele>1018.5999755859375</ele>
        <time>2018-09-08T11:05:09.000Z</time>
      </trkpt>
      <trkpt lat="43.263265974819660186767578125" lon="-5.001171492040157318115234375">
        <ele>1018</ele>
        <time>2018-09-08T11:05:13.000Z</time>
      </trkpt>
      <trkpt lat="43.263174779713153839111328125" lon="-5.00114710070192813873291015625">
        <ele>1017.20001220703125</ele>
        <time>2018-09-08T11:05:15.000Z</time>
      </trkpt>
      <trkpt lat="43.26308526098728179931640625" lon="-5.001101084053516387939453125">
        <ele>1016.79998779296875</ele>
        <time>2018-09-08T11:05:17.000Z</time>
      </trkpt>
      <trkpt lat="43.26299515552818775177001953125" lon="-5.00105573795735836029052734375">
        <ele>1016</ele>
        <time>2018-09-08T11:05:19.000Z</time>
      </trkpt>
      <trkpt lat="43.2627789862453937530517578125" lon="-5.00095264054834842681884765625">
        <ele>1014.79998779296875</ele>
        <time>2018-09-08T11:05:24.000Z</time>
      </trkpt>
      <trkpt lat="43.26261277310550212860107421875" lon="-5.000882484018802642822265625">
        <ele>1013.79998779296875</ele>
        <time>2018-09-08T11:05:28.000Z</time>
      </trkpt>
      <trkpt lat="43.262565247714519500732421875" lon="-5.0008678995072841644287109375">
        <ele>1013.79998779296875</ele>
        <time>2018-09-08T11:05:29.000Z</time>
      </trkpt>
      <trkpt lat="43.26246055774390697479248046875" lon="-5.00086965970695018768310546875">
        <ele>1013.4000244140625</ele>
        <time>2018-09-08T11:05:31.000Z</time>
      </trkpt>
      <trkpt lat="43.26241009868681430816650390625" lon="-5.00089463777840137481689453125">
        <ele>1012.79998779296875</ele>
        <time>2018-09-08T11:05:32.000Z</time>
      </trkpt>
      <trkpt lat="43.262327872216701507568359375" lon="-5.000982396304607391357421875">
        <ele>1012.4000244140625</ele>
        <time>2018-09-08T11:05:34.000Z</time>
      </trkpt>
      <trkpt lat="43.262291662395000457763671875" lon="-5.00102765858173370361328125">
        <ele>1012.4000244140625</ele>
        <time>2018-09-08T11:05:35.000Z</time>
      </trkpt>
      <trkpt lat="43.26222360134124755859375" lon="-5.00112145207822322845458984375">
        <ele>1013</ele>
        <time>2018-09-08T11:05:37.000Z</time>
      </trkpt>
      <trkpt lat="43.26215227134525775909423828125" lon="-5.00127978622913360595703125">
        <ele>1013.4000244140625</ele>
        <time>2018-09-08T11:05:40.000Z</time>
      </trkpt>
      <trkpt lat="43.26210734434425830841064453125" lon="-5.0014358572661876678466796875">
        <ele>1013.79998779296875</ele>
        <time>2018-09-08T11:05:43.000Z</time>
      </trkpt>
      <trkpt lat="43.2620692066848278045654296875" lon="-5.00158597715198993682861328125">
        <ele>1014.4000244140625</ele>
        <time>2018-09-08T11:05:46.000Z</time>
      </trkpt>
      <trkpt lat="43.26204858720302581787109375" lon="-5.00168337486684322357177734375">
        <ele>1014.20001220703125</ele>
        <time>2018-09-08T11:05:48.000Z</time>
      </trkpt>
      <trkpt lat="43.26203827746212482452392578125" lon="-5.0017329119145870208740234375">
        <ele>1014.20001220703125</ele>
        <time>2018-09-08T11:05:49.000Z</time>
      </trkpt>
      <trkpt lat="43.26200542040169239044189453125" lon="-5.001881606876850128173828125">
        <ele>1014.20001220703125</ele>
        <time>2018-09-08T11:05:52.000Z</time>
      </trkpt>
      <trkpt lat="43.261994607746601104736328125" lon="-5.00193315558135509490966796875">
        <ele>1014.20001220703125</ele>
        <time>2018-09-08T11:05:53.000Z</time>
      </trkpt>
      <trkpt lat="43.26198731549084186553955078125" lon="-5.0019873864948749542236328125">
        <ele>1014.4000244140625</ele>
        <time>2018-09-08T11:05:54.000Z</time>
      </trkpt>
      <trkpt lat="43.261981867253780364990234375" lon="-5.00204497016966342926025390625">
        <ele>1014.4000244140625</ele>
        <time>2018-09-08T11:05:55.000Z</time>
      </trkpt>
      <trkpt lat="43.2619773410260677337646484375" lon="-5.00216047279536724090576171875">
        <ele>1014.4000244140625</ele>
        <time>2018-09-08T11:05:57.000Z</time>
      </trkpt>
      <trkpt lat="43.26197708956897258758544921875" lon="-5.0022150389850139617919921875">
        <ele>1014.5999755859375</ele>
        <time>2018-09-08T11:05:58.000Z</time>
      </trkpt>
      <trkpt lat="43.26197993941605091094970703125" lon="-5.00231989659368991851806640625">
        <ele>1014.79998779296875</ele>
        <time>2018-09-08T11:06:00.000Z</time>
      </trkpt>
      <trkpt lat="43.2619686238467693328857421875" lon="-5.00243037007749080657958984375">
        <ele>1015</ele>
        <time>2018-09-08T11:06:02.000Z</time>
      </trkpt>
      <trkpt lat="43.26194389723241329193115234375" lon="-5.00253480859100818634033203125">
        <ele>1015.4000244140625</ele>
        <time>2018-09-08T11:06:04.000Z</time>
      </trkpt>
      <trkpt lat="43.26192562468349933624267578125" lon="-5.00269909389317035675048828125">
        <ele>1015.5999755859375</ele>
        <time>2018-09-08T11:06:07.000Z</time>
      </trkpt>
      <trkpt lat="43.26192294247448444366455078125" lon="-5.0027544982731342315673828125">
        <ele>1015.79998779296875</ele>
        <time>2018-09-08T11:06:08.000Z</time>
      </trkpt>
      <trkpt lat="43.2619210146367549896240234375" lon="-5.00281132757663726806640625">
        <ele>1015.5999755859375</ele>
        <time>2018-09-08T11:06:09.000Z</time>
      </trkpt>
      <trkpt lat="43.26190483756363391876220703125" lon="-5.00307812355458736419677734375">
        <ele>1016.20001220703125</ele>
        <time>2018-09-08T11:06:14.000Z</time>
      </trkpt>
      <trkpt lat="43.2618931867182254791259765625" lon="-5.003226064145565032958984375">
        <ele>1016.5999755859375</ele>
        <time>2018-09-08T11:06:17.000Z</time>
      </trkpt>
      <trkpt lat="43.261871896684169769287109375" lon="-5.0034743361175060272216796875">
        <ele>1016.79998779296875</ele>
        <time>2018-09-08T11:06:22.000Z</time>
      </trkpt>
      <trkpt lat="43.2618325017392635345458984375" lon="-5.00368664972484111785888671875">
        <ele>1016.79998779296875</ele>
        <time>2018-09-08T11:06:26.000Z</time>
      </trkpt>
      <trkpt lat="43.2618190906941890716552734375" lon="-5.00379594974219799041748046875">
        <ele>1017</ele>
        <time>2018-09-08T11:06:28.000Z</time>
      </trkpt>
      <trkpt lat="43.261799477040767669677734375" lon="-5.003908015787601470947265625">
        <ele>1017.20001220703125</ele>
        <time>2018-09-08T11:06:30.000Z</time>
      </trkpt>
      <trkpt lat="43.26178095303475856781005859375" lon="-5.004081688821315765380859375">
        <ele>1017.5999755859375</ele>
        <time>2018-09-08T11:06:33.000Z</time>
      </trkpt>
      <trkpt lat="43.2617805339395999908447265625" lon="-5.0042662583291530609130859375">
        <ele>1017.4000244140625</ele>
        <time>2018-09-08T11:06:36.000Z</time>
      </trkpt>
      <trkpt lat="43.26178313232958316802978515625" lon="-5.0043252669274806976318359375">
        <ele>1017.4000244140625</ele>
        <time>2018-09-08T11:06:37.000Z</time>
      </trkpt>
      <trkpt lat="43.2617584057152271270751953125" lon="-5.0045592896640300750732421875">
        <ele>1017.5999755859375</ele>
        <time>2018-09-08T11:06:41.000Z</time>
      </trkpt>
      <trkpt lat="43.2617493532598018646240234375" lon="-5.00462056137621402740478515625">
        <ele>1017.79998779296875</ele>
        <time>2018-09-08T11:06:42.000Z</time>
      </trkpt>
      <trkpt lat="43.2617315836250782012939453125" lon="-5.00474092550575733184814453125">
        <ele>1017.79998779296875</ele>
        <time>2018-09-08T11:06:44.000Z</time>
      </trkpt>
      <trkpt lat="43.261721692979335784912109375" lon="-5.00492432154715061187744140625">
        <ele>1018.20001220703125</ele>
        <time>2018-09-08T11:06:47.000Z</time>
      </trkpt>
      <trkpt lat="43.26172395609319210052490234375" lon="-5.00498685054481029510498046875">
        <ele>1018.20001220703125</ele>
        <time>2018-09-08T11:06:48.000Z</time>
      </trkpt>
      <trkpt lat="43.26172345317900180816650390625" lon="-5.00516488216817378997802734375">
        <ele>1018</ele>
        <time>2018-09-08T11:06:51.000Z</time>
      </trkpt>
      <trkpt lat="43.261719681322574615478515625" lon="-5.00529865734279155731201171875">
        <ele>1018.20001220703125</ele>
        <time>2018-09-08T11:06:53.000Z</time>
      </trkpt>
      <trkpt lat="43.26172026805579662322998046875" lon="-5.005498565733432769775390625">
        <ele>1018.5999755859375</ele>
        <time>2018-09-08T11:06:56.000Z</time>
      </trkpt>
      <trkpt lat="43.2617185078561305999755859375" lon="-5.00562496483325958251953125">
        <ele>1018.79998779296875</ele>
        <time>2018-09-08T11:06:58.000Z</time>
      </trkpt>
      <trkpt lat="43.261711634695529937744140625" lon="-5.005743317306041717529296875">
        <ele>1019</ele>
        <time>2018-09-08T11:07:00.000Z</time>
      </trkpt>
      <trkpt lat="43.2617084495723247528076171875" lon="-5.00580106861889362335205078125">
        <ele>1019.4000244140625</ele>
        <time>2018-09-08T11:07:01.000Z</time>
      </trkpt>
      <trkpt lat="43.2616940326988697052001953125" lon="-5.006030984222888946533203125">
        <ele>1019.4000244140625</ele>
        <time>2018-09-08T11:07:05.000Z</time>
      </trkpt>
      <trkpt lat="43.2616943679749965667724609375" lon="-5.00608496367931365966796875">
        <ele>1019.4000244140625</ele>
        <time>2018-09-08T11:07:06.000Z</time>
      </trkpt>
      <trkpt lat="43.2616900093853473663330078125" lon="-5.00629484653472900390625">
        <ele>1019.5999755859375</ele>
        <time>2018-09-08T11:07:10.000Z</time>
      </trkpt>
      <trkpt lat="43.26170316897332668304443359375" lon="-5.00645150430500507354736328125">
        <ele>1020</ele>
        <time>2018-09-08T11:07:13.000Z</time>
      </trkpt>
      <trkpt lat="43.26172211207449436187744140625" lon="-5.0065565295517444610595703125">
        <ele>1020.79998779296875</ele>
        <time>2018-09-08T11:07:15.000Z</time>
      </trkpt>
      <trkpt lat="43.261769972741603851318359375" lon="-5.00674118287861347198486328125">
        <ele>1021</ele>
        <time>2018-09-08T11:07:19.000Z</time>
      </trkpt>
      <trkpt lat="43.261781372129917144775390625" lon="-5.0067875348031520843505859375">
        <ele>1021.4000244140625</ele>
        <time>2018-09-08T11:07:20.000Z</time>
      </trkpt>
      <trkpt lat="43.26183266937732696533203125" lon="-5.0069172866642475128173828125">
        <ele>1021.79998779296875</ele>
        <time>2018-09-08T11:07:23.000Z</time>
      </trkpt>
      <trkpt lat="43.26186259277164936065673828125" lon="-5.00700789503753185272216796875">
        <ele>1022</ele>
        <time>2018-09-08T11:07:25.000Z</time>
      </trkpt>
      <trkpt lat="43.2620075158774852752685546875" lon="-5.00740134157240390777587890625">
        <ele>1023</ele>
        <time>2018-09-08T11:07:34.000Z</time>
      </trkpt>
      <trkpt lat="43.26210558414459228515625" lon="-5.00770828686654567718505859375">
        <ele>1024</ele>
        <time>2018-09-08T11:07:41.000Z</time>
      </trkpt>
      <trkpt lat="43.2621533609926700592041015625" lon="-5.00785027630627155303955078125">
        <ele>1024</ele>
        <time>2018-09-08T11:07:44.000Z</time>
      </trkpt>
      <trkpt lat="43.2622629962861537933349609375" lon="-5.0081254541873931884765625">
        <ele>1025.199951171875</ele>
        <time>2018-09-08T11:07:50.000Z</time>
      </trkpt>
      <trkpt lat="43.26234455220401287078857421875" lon="-5.0082835368812084197998046875">
        <ele>1025.800048828125</ele>
        <time>2018-09-08T11:07:54.000Z</time>
      </trkpt>
      <trkpt lat="43.26240741647779941558837890625" lon="-5.0084327347576618194580078125">
        <ele>1026</ele>
        <time>2018-09-08T11:07:58.000Z</time>
      </trkpt>
      <trkpt lat="43.2624289579689502716064453125" lon="-5.00849434174597263336181640625">
        <ele>1026.4000244140625</ele>
        <time>2018-09-08T11:08:00.000Z</time>
      </trkpt>
      <trkpt lat="43.26245049946010112762451171875" lon="-5.00860548578202724456787109375">
        <ele>1026.5999755859375</ele>
        <time>2018-09-08T11:08:03.000Z</time>
      </trkpt>
      <trkpt lat="43.26246189884841442108154296875" lon="-5.00864286907017230987548828125">
        <ele>1026.5999755859375</ele>
        <time>2018-09-08T11:08:04.000Z</time>
      </trkpt>
      <trkpt lat="43.26245821081101894378662109375" lon="-5.00886633060872554779052734375">
        <ele>1026.5999755859375</ele>
        <time>2018-09-08T11:08:09.000Z</time>
      </trkpt>
      <trkpt lat="43.26246173121035099029541015625" lon="-5.00908660702407360076904296875">
        <ele>1025.800048828125</ele>
        <time>2018-09-08T11:08:13.000Z</time>
      </trkpt>
      <trkpt lat="43.26247262768447399139404296875" lon="-5.009141005575656890869140625">
        <ele>1025.800048828125</ele>
        <time>2018-09-08T11:08:14.000Z</time>
      </trkpt>
      <trkpt lat="43.26248712837696075439453125" lon="-5.009193979203701019287109375">
        <ele>1025.800048828125</ele>
        <time>2018-09-08T11:08:15.000Z</time>
      </trkpt>
      <trkpt lat="43.26252643950283527374267578125" lon="-5.00931300222873687744140625">
        <ele>1025.5999755859375</ele>
        <time>2018-09-08T11:08:17.000Z</time>
      </trkpt>
      <trkpt lat="43.26254236511886119842529296875" lon="-5.00937410630285739898681640625">
        <ele>1025.5999755859375</ele>
        <time>2018-09-08T11:08:18.000Z</time>
      </trkpt>
      <trkpt lat="43.26255292631685733795166015625" lon="-5.009434707462787628173828125">
        <ele>1025.199951171875</ele>
        <time>2018-09-08T11:08:19.000Z</time>
      </trkpt>
      <trkpt lat="43.26259969733655452728271484375" lon="-5.00967116095125675201416015625">
        <ele>1025</ele>
        <time>2018-09-08T11:08:23.000Z</time>
      </trkpt>
      <trkpt lat="43.2626542635262012481689453125" lon="-5.00986897386610507965087890625">
        <ele>1024</ele>
        <time>2018-09-08T11:08:26.000Z</time>
      </trkpt>
      <trkpt lat="43.2626626454293727874755859375" lon="-5.0099320895969867706298828125">
        <ele>1023.79998779296875</ele>
        <time>2018-09-08T11:08:27.000Z</time>
      </trkpt>
      <trkpt lat="43.26266524381935596466064453125" lon="-5.00998866744339466094970703125">
        <ele>1023.79998779296875</ele>
        <time>2018-09-08T11:08:28.000Z</time>
      </trkpt>
      <trkpt lat="43.26264093630015850067138671875" lon="-5.0101625919342041015625">
        <ele>1023.79998779296875</ele>
        <time>2018-09-08T11:08:32.000Z</time>
      </trkpt>
      <trkpt lat="43.26259517110884189605712890625" lon="-5.0103096105158329010009765625">
        <ele>1023.20001220703125</ele>
        <time>2018-09-08T11:08:36.000Z</time>
      </trkpt>
      <trkpt lat="43.26258159242570400238037109375" lon="-5.0103521905839443206787109375">
        <ele>1023</ele>
        <time>2018-09-08T11:08:37.000Z</time>
      </trkpt>
      <trkpt lat="43.26256533153355121612548828125" lon="-5.010394938290119171142578125">
        <ele>1022.79998779296875</ele>
        <time>2018-09-08T11:08:38.000Z</time>
      </trkpt>
      <trkpt lat="43.2625208236277103424072265625" lon="-5.010483451187610626220703125">
        <ele>1022.4000244140625</ele>
        <time>2018-09-08T11:08:40.000Z</time>
      </trkpt>
      <trkpt lat="43.26244949363172054290771484375" lon="-5.0105483271181583404541015625">
        <ele>1022</ele>
        <time>2018-09-08T11:08:42.000Z</time>
      </trkpt>
      <trkpt lat="43.2624068297445774078369140625" lon="-5.01055913977324962615966796875">
        <ele>1021.79998779296875</ele>
        <time>2018-09-08T11:08:43.000Z</time>
      </trkpt>
      <trkpt lat="43.2623404450714588165283203125" lon="-5.0104965269565582275390625">
        <ele>1021.4000244140625</ele>
        <time>2018-09-08T11:08:45.000Z</time>
      </trkpt>
      <trkpt lat="43.26231739483773708343505859375" lon="-5.010437183082103729248046875">
        <ele>1021.20001220703125</ele>
        <time>2018-09-08T11:08:46.000Z</time>
      </trkpt>
      <trkpt lat="43.26229962520301342010498046875" lon="-5.01036769710481166839599609375">
        <ele>1020.79998779296875</ele>
        <time>2018-09-08T11:08:47.000Z</time>
      </trkpt>
      <trkpt lat="43.262285292148590087890625" lon="-5.01028605736792087554931640625">
        <ele>1020.5999755859375</ele>
        <time>2018-09-08T11:08:48.000Z</time>
      </trkpt>
      <trkpt lat="43.26227121055126190185546875" lon="-5.010197125375270843505859375">
        <ele>1020</ele>
        <time>2018-09-08T11:08:49.000Z</time>
      </trkpt>
      <trkpt lat="43.26224698685109615325927734375" lon="-5.01010651700198650360107421875">
        <ele>1019.5999755859375</ele>
        <time>2018-09-08T11:08:50.000Z</time>
      </trkpt>
      <trkpt lat="43.262212537229061126708984375" lon="-5.0100142322480678558349609375">
        <ele>1018.4000244140625</ele>
        <time>2018-09-08T11:08:51.000Z</time>
      </trkpt>
      <trkpt lat="43.26216903515160083770751953125" lon="-5.00992454588413238525390625">
        <ele>1017.79998779296875</ele>
        <time>2018-09-08T11:08:52.000Z</time>
      </trkpt>
      <trkpt lat="43.2621178217232227325439453125" lon="-5.0098393857479095458984375">
        <ele>1017</ele>
        <time>2018-09-08T11:08:53.000Z</time>
      </trkpt>
      <trkpt lat="43.2620614953339099884033203125" lon="-5.009759254753589630126953125">
        <ele>1016</ele>
        <time>2018-09-08T11:08:54.000Z</time>
      </trkpt>
      <trkpt lat="43.26193367131054401397705078125" lon="-5.0096149183809757232666015625">
        <ele>1014.5999755859375</ele>
        <time>2018-09-08T11:08:56.000Z</time>
      </trkpt>
      <trkpt lat="43.2618670351803302764892578125" lon="-5.00955180265009403228759765625">
        <ele>1014.20001220703125</ele>
        <time>2018-09-08T11:08:57.000Z</time>
      </trkpt>
      <trkpt lat="43.26173217035830020904541015625" lon="-5.00943210907280445098876953125">
        <ele>1013.5999755859375</ele>
        <time>2018-09-08T11:08:59.000Z</time>
      </trkpt>
      <trkpt lat="43.2616589963436126708984375" lon="-5.0093768723309040069580078125">
        <ele>1013</ele>
        <time>2018-09-08T11:09:00.000Z</time>
      </trkpt>
      <trkpt lat="43.2615847326815128326416015625" lon="-5.00933554954826831817626953125">
        <ele>1012.4000244140625</ele>
        <time>2018-09-08T11:09:01.000Z</time>
      </trkpt>
      <trkpt lat="43.2615086250007152557373046875" lon="-5.0093054585158824920654296875">
        <ele>1011.4000244140625</ele>
        <time>2018-09-08T11:09:02.000Z</time>
      </trkpt>
      <trkpt lat="43.2612727582454681396484375" lon="-5.00926178880035877227783203125">
        <ele>1010.4000244140625</ele>
        <time>2018-09-08T11:09:05.000Z</time>
      </trkpt>
      <trkpt lat="43.261129595339298248291015625" lon="-5.0092600286006927490234375">
        <ele>1009.5999755859375</ele>
        <time>2018-09-08T11:09:07.000Z</time>
      </trkpt>
      <trkpt lat="43.26098701916635036468505859375" lon="-5.00926262699067592620849609375">
        <ele>1009.20001220703125</ele>
        <time>2018-09-08T11:09:10.000Z</time>
      </trkpt>
      <trkpt lat="43.2608370669186115264892578125" lon="-5.00925541855394840240478515625">
        <ele>1008.5999755859375</ele>
        <time>2018-09-08T11:09:14.000Z</time>
      </trkpt>
      <trkpt lat="43.2607743702828884124755859375" lon="-5.00926338136196136474609375">
        <ele>1008.4000244140625</ele>
        <time>2018-09-08T11:09:16.000Z</time>
      </trkpt>
      <trkpt lat="43.260740675032138824462890625" lon="-5.00926363281905651092529296875">
        <ele>1008.20001220703125</ele>
        <time>2018-09-08T11:09:17.000Z</time>
      </trkpt>
      <trkpt lat="43.260672278702259063720703125" lon="-5.009265728294849395751953125">
        <ele>1007.5999755859375</ele>
        <time>2018-09-08T11:09:19.000Z</time>
      </trkpt>
      <trkpt lat="43.26063564978539943695068359375" lon="-5.00928307883441448211669921875">
        <ele>1007.20001220703125</ele>
        <time>2018-09-08T11:09:20.000Z</time>
      </trkpt>
      <trkpt lat="43.26059818267822265625" lon="-5.00930939801037311553955078125">
        <ele>1007.4000244140625</ele>
        <time>2018-09-08T11:09:21.000Z</time>
      </trkpt>
      <trkpt lat="43.26049181632697582244873046875" lon="-5.00946345739066600799560546875">
        <ele>1006.5999755859375</ele>
        <time>2018-09-08T11:09:25.000Z</time>
      </trkpt>
      <trkpt lat="43.26043129898607730865478515625" lon="-5.0095998309552669525146484375">
        <ele>1006.4000244140625</ele>
        <time>2018-09-08T11:09:28.000Z</time>
      </trkpt>
      <trkpt lat="43.2604090869426727294921875" lon="-5.009641237556934356689453125">
        <ele>1006</ele>
        <time>2018-09-08T11:09:29.000Z</time>
      </trkpt>
      <trkpt lat="43.26038503088057041168212890625" lon="-5.00968088395893573760986328125">
        <ele>1005.79998779296875</ele>
        <time>2018-09-08T11:09:30.000Z</time>
      </trkpt>
      <trkpt lat="43.260355778038501739501953125" lon="-5.00971927307546138763427734375">
        <ele>1005.5999755859375</ele>
        <time>2018-09-08T11:09:31.000Z</time>
      </trkpt>
      <trkpt lat="43.26024153269827365875244140625" lon="-5.0097698159515857696533203125">
        <ele>1005.5999755859375</ele>
        <time>2018-09-08T11:09:34.000Z</time>
      </trkpt>
      <trkpt lat="43.260202221572399139404296875" lon="-5.009772665798664093017578125">
        <ele>1005.4000244140625</ele>
        <time>2018-09-08T11:09:35.000Z</time>
      </trkpt>
      <trkpt lat="43.26004992239177227020263671875" lon="-5.009761936962604522705078125">
        <ele>1005.20001220703125</ele>
        <time>2018-09-08T11:09:40.000Z</time>
      </trkpt>
      <trkpt lat="43.25997884385287761688232421875" lon="-5.0097508728504180908203125">
        <ele>1005.79998779296875</ele>
        <time>2018-09-08T11:09:43.000Z</time>
      </trkpt>
      <trkpt lat="43.259951770305633544921875" lon="-5.00974944792687892913818359375">
        <ele>1006</ele>
        <time>2018-09-08T11:09:44.000Z</time>
      </trkpt>
      <trkpt lat="43.25992159545421600341796875" lon="-5.009741820394992828369140625">
        <ele>1006</ele>
        <time>2018-09-08T11:09:45.000Z</time>
      </trkpt>
      <trkpt lat="43.2598942704498767852783203125" lon="-5.00973167829215526580810546875">
        <ele>1005.5999755859375</ele>
        <time>2018-09-08T11:09:46.000Z</time>
      </trkpt>
      <trkpt lat="43.2598677836358547210693359375" lon="-5.00972270965576171875">
        <ele>1005.5999755859375</ele>
        <time>2018-09-08T11:09:47.000Z</time>
      </trkpt>
      <trkpt lat="43.25984087772667407989501953125" lon="-5.0097134895622730255126953125">
        <ele>1005.5999755859375</ele>
        <time>2018-09-08T11:09:48.000Z</time>
      </trkpt>
      <trkpt lat="43.25978471897542476654052734375" lon="-5.0096947140991687774658203125">
        <ele>1005.5999755859375</ele>
        <time>2018-09-08T11:09:50.000Z</time>
      </trkpt>
      <trkpt lat="43.25972973369061946868896484375" lon="-5.00967971049249172210693359375">
        <ele>1006</ele>
        <time>2018-09-08T11:09:52.000Z</time>
      </trkpt>
      <trkpt lat="43.259652368724346160888671875" lon="-5.00966076739132404327392578125">
        <ele>1006.4000244140625</ele>
        <time>2018-09-08T11:09:55.000Z</time>
      </trkpt>
      <trkpt lat="43.25958036817610263824462890625" lon="-5.00963729806244373321533203125">
        <ele>1006.5999755859375</ele>
        <time>2018-09-08T11:09:58.000Z</time>
      </trkpt>
      <trkpt lat="43.259532339870929718017578125" lon="-5.00960779376327991485595703125">
        <ele>1006.79998779296875</ele>
        <time>2018-09-08T11:10:00.000Z</time>
      </trkpt>
      <trkpt lat="43.2594815455377101898193359375" lon="-5.00957007519900798797607421875">
        <ele>1007</ele>
        <time>2018-09-08T11:10:02.000Z</time>
      </trkpt>
      <trkpt lat="43.25940552167594432830810546875" lon="-5.0095347873866558074951171875">
        <ele>1007.20001220703125</ele>
        <time>2018-09-08T11:10:05.000Z</time>
      </trkpt>
      <trkpt lat="43.2593769393861293792724609375" lon="-5.00952623784542083740234375">
        <ele>1007.4000244140625</ele>
        <time>2018-09-08T11:10:06.000Z</time>
      </trkpt>
      <trkpt lat="43.2593201100826263427734375" lon="-5.00953302718698978424072265625">
        <ele>1007.5999755859375</ele>
        <time>2018-09-08T11:10:08.000Z</time>
      </trkpt>
      <trkpt lat="43.25918926857411861419677734375" lon="-5.0095907784998416900634765625">
        <ele>1007.79998779296875</ele>
        <time>2018-09-08T11:10:13.000Z</time>
      </trkpt>
      <trkpt lat="43.25914316810667514801025390625" lon="-5.009633190929889678955078125">
        <ele>1008.4000244140625</ele>
        <time>2018-09-08T11:10:15.000Z</time>
      </trkpt>
      <trkpt lat="43.2590751908719539642333984375" lon="-5.00969161279499530792236328125">
        <ele>1009</ele>
        <time>2018-09-08T11:10:18.000Z</time>
      </trkpt>
      <trkpt lat="43.2589766196906566619873046875" lon="-5.0097057782113552093505859375">
        <ele>1009.4000244140625</ele>
        <time>2018-09-08T11:10:22.000Z</time>
      </trkpt>
      <trkpt lat="43.25891635380685329437255859375" lon="-5.0096829794347286224365234375">
        <ele>1010</ele>
        <time>2018-09-08T11:10:25.000Z</time>
      </trkpt>
      <trkpt lat="43.25887410901486873626708984375" lon="-5.00965842045843601226806640625">
        <ele>1010.20001220703125</ele>
        <time>2018-09-08T11:10:27.000Z</time>
      </trkpt>
      <trkpt lat="43.25869557447731494903564453125" lon="-5.00955867581069469451904296875">
        <ele>1008.79998779296875</ele>
        <time>2018-09-08T11:10:32.000Z</time>
      </trkpt>
      <trkpt lat="43.25860035605728626251220703125" lon="-5.00948868691921234130859375">
        <ele>1008</ele>
        <time>2018-09-08T11:10:34.000Z</time>
      </trkpt>
      <trkpt lat="43.25850446708500385284423828125" lon="-5.00941216014325618743896484375">
        <ele>1006.4000244140625</ele>
        <time>2018-09-08T11:10:36.000Z</time>
      </trkpt>
      <trkpt lat="43.258454091846942901611328125" lon="-5.00936790369451045989990234375">
        <ele>1006</ele>
        <time>2018-09-08T11:10:37.000Z</time>
      </trkpt>
      <trkpt lat="43.25840204022824764251708984375" lon="-5.00931342132389545440673828125">
        <ele>1005.4000244140625</ele>
        <time>2018-09-08T11:10:38.000Z</time>
      </trkpt>
      <trkpt lat="43.2583503238856792449951171875" lon="-5.0092658959329128265380859375">
        <ele>1005</ele>
        <time>2018-09-08T11:10:39.000Z</time>
      </trkpt>
      <trkpt lat="43.25825166888535022735595703125" lon="-5.00918014906346797943115234375">
        <ele>1004.20001220703125</ele>
        <time>2018-09-08T11:10:41.000Z</time>
      </trkpt>
      <trkpt lat="43.258165419101715087890625" lon="-5.00910588540136814117431640625">
        <ele>1004.20001220703125</ele>
        <time>2018-09-08T11:10:43.000Z</time>
      </trkpt>
      <trkpt lat="43.25805419124662876129150390625" lon="-5.00901552848517894744873046875">
        <ele>1005</ele>
        <time>2018-09-08T11:10:46.000Z</time>
      </trkpt>
      <trkpt lat="43.25802133418619632720947265625" lon="-5.00898116268217563629150390625">
        <ele>1004.79998779296875</ele>
        <time>2018-09-08T11:10:47.000Z</time>
      </trkpt>
      <trkpt lat="43.2579226791858673095703125" lon="-5.0088350661098957061767578125">
        <ele>1005.5999755859375</ele>
        <time>2018-09-08T11:10:51.000Z</time>
      </trkpt>
      <trkpt lat="43.25780860148370265960693359375" lon="-5.0087190605700016021728515625">
        <ele>1006</ele>
        <time>2018-09-08T11:10:55.000Z</time>
      </trkpt>
      <trkpt lat="43.25774624012410640716552734375" lon="-5.00868310220539569854736328125">
        <ele>1006.5999755859375</ele>
        <time>2018-09-08T11:10:57.000Z</time>
      </trkpt>
      <trkpt lat="43.25766828842461109161376953125" lon="-5.008650831878185272216796875">
        <ele>1007.20001220703125</ele>
        <time>2018-09-08T11:11:00.000Z</time>
      </trkpt>
      <trkpt lat="43.2576110400259494781494140625" lon="-5.00863884575664997100830078125">
        <ele>1007.4000244140625</ele>
        <time>2018-09-08T11:11:02.000Z</time>
      </trkpt>
      <trkpt lat="43.25755781494081020355224609375" lon="-5.00862090848386287689208984375">
        <ele>1007.5999755859375</ele>
        <time>2018-09-08T11:11:04.000Z</time>
      </trkpt>
      <trkpt lat="43.25748841278254985809326171875" lon="-5.00858268700540065765380859375">
        <ele>1007.79998779296875</ele>
        <time>2018-09-08T11:11:07.000Z</time>
      </trkpt>
      <trkpt lat="43.25744457542896270751953125" lon="-5.00855670310556888580322265625">
        <ele>1008</ele>
        <time>2018-09-08T11:11:09.000Z</time>
      </trkpt>
      <trkpt lat="43.2573069445788860321044921875" lon="-5.0084786675870418548583984375">
        <ele>1007.20001220703125</ele>
        <time>2018-09-08T11:11:15.000Z</time>
      </trkpt>
      <trkpt lat="43.2572603411972522735595703125" lon="-5.00845310278236865997314453125">
        <ele>1007</ele>
        <time>2018-09-08T11:11:17.000Z</time>
      </trkpt>
      <trkpt lat="43.257134445011615753173828125" lon="-5.008328296244144439697265625">
        <ele>1007.4000244140625</ele>
        <time>2018-09-08T11:11:23.000Z</time>
      </trkpt>
      <trkpt lat="43.25710888020694255828857421875" lon="-5.00826970674097537994384765625">
        <ele>1008</ele>
        <time>2018-09-08T11:11:25.000Z</time>
      </trkpt>
      <trkpt lat="43.25709882192313671112060546875" lon="-5.00823869369924068450927734375">
        <ele>1008.20001220703125</ele>
        <time>2018-09-08T11:11:26.000Z</time>
      </trkpt>
      <trkpt lat="43.25707577168941497802734375" lon="-5.00814649276435375213623046875">
        <ele>1008.4000244140625</ele>
        <time>2018-09-08T11:11:29.000Z</time>
      </trkpt>
      <trkpt lat="43.2570588402450084686279296875" lon="-5.00809418968856334686279296875">
        <ele>1008.79998779296875</ele>
        <time>2018-09-08T11:11:31.000Z</time>
      </trkpt>
      <trkpt lat="43.25699396431446075439453125" lon="-5.007997713983058929443359375">
        <ele>1009</ele>
        <time>2018-09-08T11:11:35.000Z</time>
      </trkpt>
      <trkpt lat="43.25693520717322826385498046875" lon="-5.00792562961578369140625">
        <ele>1009</ele>
        <time>2018-09-08T11:11:38.000Z</time>
      </trkpt>
      <trkpt lat="43.2568613626062870025634765625" lon="-5.00785245560109615325927734375">
        <ele>1008.4000244140625</ele>
        <time>2018-09-08T11:11:41.000Z</time>
      </trkpt>
      <trkpt lat="43.25682456605136394500732421875" lon="-5.00782429240643978118896484375">
        <ele>1008.20001220703125</ele>
        <time>2018-09-08T11:11:42.000Z</time>
      </trkpt>
      <trkpt lat="43.25674661435186862945556640625" lon="-5.0077829696238040924072265625">
        <ele>1006.79998779296875</ele>
        <time>2018-09-08T11:11:44.000Z</time>
      </trkpt>
      <trkpt lat="43.25667670927941799163818359375" lon="-5.007745921611785888671875">
        <ele>1005.79998779296875</ele>
        <time>2018-09-08T11:11:46.000Z</time>
      </trkpt>
      <trkpt lat="43.25660102069377899169921875" lon="-5.0077175907790660858154296875">
        <ele>1003.79998779296875</ele>
        <time>2018-09-08T11:11:48.000Z</time>
      </trkpt>
      <trkpt lat="43.2565512321889400482177734375" lon="-5.00769470818340778350830078125">
        <ele>1003.5999755859375</ele>
        <time>2018-09-08T11:11:49.000Z</time>
      </trkpt>
      <trkpt lat="43.25639625079929828643798828125" lon="-5.00762865878641605377197265625">
        <ele>1002.4000244140625</ele>
        <time>2018-09-08T11:11:52.000Z</time>
      </trkpt>
      <trkpt lat="43.25634763576090335845947265625" lon="-5.00759831629693508148193359375">
        <ele>1001.79998779296875</ele>
        <time>2018-09-08T11:11:53.000Z</time>
      </trkpt>
      <trkpt lat="43.2561981864273548126220703125" lon="-5.00747560523450374603271484375">
        <ele>1001.79998779296875</ele>
        <time>2018-09-08T11:11:57.000Z</time>
      </trkpt>
      <trkpt lat="43.256169520318508148193359375" lon="-5.00745481811463832855224609375">
        <ele>1002</ele>
        <time>2018-09-08T11:11:58.000Z</time>
      </trkpt>
      <trkpt lat="43.25611579231917858123779296875" lon="-5.007396228611469268798828125">
        <ele>1003.4000244140625</ele>
        <time>2018-09-08T11:12:01.000Z</time>
      </trkpt>
      <trkpt lat="43.2561026327311992645263671875" lon="-5.00736865215003490447998046875">
        <ele>1003.5999755859375</ele>
        <time>2018-09-08T11:12:02.000Z</time>
      </trkpt>
      <trkpt lat="43.2560788281261920928955078125" lon="-5.007318444550037384033203125">
        <ele>1004.4000244140625</ele>
        <time>2018-09-08T11:12:04.000Z</time>
      </trkpt>
      <trkpt lat="43.256057538092136383056640625" lon="-5.00726790167391300201416015625">
        <ele>1004.79998779296875</ele>
        <time>2018-09-08T11:12:06.000Z</time>
      </trkpt>
      <trkpt lat="43.25603633187711238861083984375" lon="-5.0072190351784229278564453125">
        <ele>1005.4000244140625</ele>
        <time>2018-09-08T11:12:08.000Z</time>
      </trkpt>
      <trkpt lat="43.25598654337227344512939453125" lon="-5.00711602158844470977783203125">
        <ele>1005.4000244140625</ele>
        <time>2018-09-08T11:12:13.000Z</time>
      </trkpt>
      <trkpt lat="43.2559148781001567840576171875" lon="-5.006975121796131134033203125">
        <ele>1005.79998779296875</ele>
        <time>2018-09-08T11:12:19.000Z</time>
      </trkpt>
      <trkpt lat="43.2559031434357166290283203125" lon="-5.0069568492472171783447265625">
        <ele>1006</ele>
        <time>2018-09-08T11:12:20.000Z</time>
      </trkpt>
      <trkpt lat="43.255851678550243377685546875" lon="-5.00693161971867084503173828125">
        <ele>1006.4000244140625</ele>
        <time>2018-09-08T11:12:25.000Z</time>
      </trkpt>
      <trkpt lat="43.25581513345241546630859375" lon="-5.00693866051733493804931640625">
        <ele>1006.5999755859375</ele>
        <time>2018-09-08T11:12:29.000Z</time>
      </trkpt>
      <trkpt lat="43.255800716578960418701171875" lon="-5.0069602020084857940673828125">
        <ele>1006.5999755859375</ele>
        <time>2018-09-08T11:12:31.000Z</time>
      </trkpt>
      <trkpt lat="43.255765847861766815185546875" lon="-5.006970427930355072021484375">
        <ele>1006.79998779296875</ele>
        <time>2018-09-08T11:12:33.000Z</time>
      </trkpt>
      <trkpt lat="43.25572192668914794921875" lon="-5.0069786421954631805419921875">
        <ele>1006.79998779296875</ele>
        <time>2018-09-08T11:12:36.000Z</time>
      </trkpt>
      <trkpt lat="43.25571228750050067901611328125" lon="-5.00697411596775054931640625">
        <ele>1007.20001220703125</ele>
        <time>2018-09-08T11:12:37.000Z</time>
      </trkpt>
      <trkpt lat="43.25568797998130321502685546875" lon="-5.0069399178028106689453125">
        <ele>1007.5999755859375</ele>
        <time>2018-09-08T11:12:40.000Z</time>
      </trkpt>
      <trkpt lat="43.2556778378784656524658203125" lon="-5.00693681649863719940185546875">
        <ele>1007.79998779296875</ele>
        <time>2018-09-08T11:12:41.000Z</time>
      </trkpt>
      <trkpt lat="43.2556669414043426513671875" lon="-5.00693346373736858367919921875">
        <ele>1008</ele>
        <time>2018-09-08T11:12:42.000Z</time>
      </trkpt>
      <trkpt lat="43.2556449808180332183837890625" lon="-5.00692642293870449066162109375">
        <ele>1008.20001220703125</ele>
        <time>2018-09-08T11:12:44.000Z</time>
      </trkpt>
      <trkpt lat="43.255657888948917388916015625" lon="-5.0069052167236804962158203125">
        <ele>1008.5999755859375</ele>
        <time>2018-09-08T11:12:47.000Z</time>
      </trkpt>
      <trkpt lat="43.25570608489215373992919921875" lon="-5.00695726834237575531005859375">
        <ele>1008</ele>
        <time>2018-09-08T11:12:51.000Z</time>
      </trkpt>
      <trkpt lat="43.25577196665108203887939453125" lon="-5.00695559196174144744873046875">
        <ele>1007</ele>
        <time>2018-09-08T11:12:54.000Z</time>
      </trkpt>
      <trkpt lat="43.255791999399662017822265625" lon="-5.0069437734782695770263671875">
        <ele>1006.79998779296875</ele>
        <time>2018-09-08T11:12:55.000Z</time>
      </trkpt>
      <trkpt lat="43.255830891430377960205078125" lon="-5.00694335438311100006103515625">
        <ele>1006.5999755859375</ele>
        <time>2018-09-08T11:12:57.000Z</time>
      </trkpt>
      <trkpt lat="43.25585880316793918609619140625" lon="-5.0069846771657466888427734375">
        <ele>1006.20001220703125</ele>
        <time>2018-09-08T11:12:59.000Z</time>
      </trkpt>
      <trkpt lat="43.25587942264974117279052734375" lon="-5.0070198811590671539306640625">
        <ele>1006</ele>
        <time>2018-09-08T11:13:00.000Z</time>
      </trkpt>
      <trkpt lat="43.25591177679598331451416015625" lon="-5.00709121115505695343017578125">
        <ele>1005.5999755859375</ele>
        <time>2018-09-08T11:13:02.000Z</time>
      </trkpt>
      <trkpt lat="43.2559406943619251251220703125" lon="-5.00715650618076324462890625">
        <ele>1005.79998779296875</ele>
        <time>2018-09-08T11:13:04.000Z</time>
      </trkpt>
      <trkpt lat="43.25604538433253765106201171875" lon="-5.00733680091798305511474609375">
        <ele>1005</ele>
        <time>2018-09-08T11:13:10.000Z</time>
      </trkpt>
      <trkpt lat="43.2561214081943035125732421875" lon="-5.0074495375156402587890625">
        <ele>1004.4000244140625</ele>
        <time>2018-09-08T11:13:13.000Z</time>
      </trkpt>
      <trkpt lat="43.25620673596858978271484375" lon="-5.00753293745219707489013671875">
        <ele>1003.5999755859375</ele>
        <time>2018-09-08T11:13:15.000Z</time>
      </trkpt>
      <trkpt lat="43.25625476427376270294189453125" lon="-5.00757216475903987884521484375">
        <ele>1002.5999755859375</ele>
        <time>2018-09-08T11:13:16.000Z</time>
      </trkpt>
      <trkpt lat="43.256397508084774017333984375" lon="-5.0076589174568653106689453125">
        <ele>1002.5999755859375</ele>
        <time>2018-09-08T11:13:19.000Z</time>
      </trkpt>
      <trkpt lat="43.256445117294788360595703125" lon="-5.00767559744417667388916015625">
        <ele>1002.20001220703125</ele>
        <time>2018-09-08T11:13:20.000Z</time>
      </trkpt>
      <trkpt lat="43.2565307803452014923095703125" lon="-5.007697306573390960693359375">
        <ele>1002.79998779296875</ele>
        <time>2018-09-08T11:13:23.000Z</time>
      </trkpt>
      <trkpt lat="43.256579227745532989501953125" lon="-5.0077149085700511932373046875">
        <ele>1003.4000244140625</ele>
        <time>2018-09-08T11:13:25.000Z</time>
      </trkpt>
      <trkpt lat="43.25659942813217639923095703125" lon="-5.00772572122514247894287109375">
        <ele>1003.5999755859375</ele>
        <time>2018-09-08T11:13:26.000Z</time>
      </trkpt>
      <trkpt lat="43.25663647614419460296630859375" lon="-5.00774717889726161956787109375">
        <ele>1004.79998779296875</ele>
        <time>2018-09-08T11:13:28.000Z</time>
      </trkpt>
      <trkpt lat="43.25667084194719791412353515625" lon="-5.00776981003582477569580078125">
        <ele>1005</ele>
        <time>2018-09-08T11:13:30.000Z</time>
      </trkpt>
      <trkpt lat="43.2567044533789157867431640625" lon="-5.00778422690927982330322265625">
        <ele>1005.79998779296875</ele>
        <time>2018-09-08T11:13:32.000Z</time>
      </trkpt>
      <trkpt lat="43.25671560131013393402099609375" lon="-5.007793866097927093505859375">
        <ele>1006.20001220703125</ele>
        <time>2018-09-08T11:13:33.000Z</time>
      </trkpt>
      <trkpt lat="43.25673001818358898162841796875" lon="-5.007799565792083740234375">
        <ele>1006.20001220703125</ele>
        <time>2018-09-08T11:13:34.000Z</time>
      </trkpt>
      <trkpt lat="43.25675952248275279998779296875" lon="-5.0078164972364902496337890625">
        <ele>1006.5999755859375</ele>
        <time>2018-09-08T11:13:36.000Z</time>
      </trkpt>
      <trkpt lat="43.25677335262298583984375" lon="-5.0078275613486766815185546875">
        <ele>1006.79998779296875</ele>
        <time>2018-09-08T11:13:37.000Z</time>
      </trkpt>
      <trkpt lat="43.256800174713134765625" lon="-5.00784692354500293731689453125">
        <ele>1006.79998779296875</ele>
        <time>2018-09-08T11:13:39.000Z</time>
      </trkpt>
      <trkpt lat="43.2568109035491943359375" lon="-5.00785295851528644561767578125">
        <ele>1007.4000244140625</ele>
        <time>2018-09-08T11:13:40.000Z</time>
      </trkpt>
      <trkpt lat="43.25681936927139759063720703125" lon="-5.00786058604717254638671875">
        <ele>1007.5999755859375</ele>
        <time>2018-09-08T11:13:41.000Z</time>
      </trkpt>
      <trkpt lat="43.2568363845348358154296875" lon="-5.0078666210174560546875">
        <ele>1008</ele>
        <time>2018-09-08T11:13:42.000Z</time>
      </trkpt>
      <trkpt lat="43.25686614029109477996826171875" lon="-5.00788497738540172576904296875">
        <ele>1008.4000244140625</ele>
        <time>2018-09-08T11:13:44.000Z</time>
      </trkpt>
      <trkpt lat="43.256898410618305206298828125" lon="-5.007899142801761627197265625">
        <ele>1008.5999755859375</ele>
        <time>2018-09-08T11:13:46.000Z</time>
      </trkpt>
      <trkpt lat="43.256910145282745361328125" lon="-5.00791062600910663604736328125">
        <ele>1009</ele>
        <time>2018-09-08T11:13:47.000Z</time>
      </trkpt>
      <trkpt lat="43.25694425962865352630615234375" lon="-5.00795789994299411773681640625">
        <ele>1008.79998779296875</ele>
        <time>2018-09-08T11:13:50.000Z</time>
      </trkpt>
      <trkpt lat="43.25695700012147426605224609375" lon="-5.00797516666352748870849609375">
        <ele>1009.79998779296875</ele>
        <time>2018-09-08T11:13:51.000Z</time>
      </trkpt>
      <trkpt lat="43.256984911859035491943359375" lon="-5.00801774673163890838623046875">
        <ele>1009.4000244140625</ele>
        <time>2018-09-08T11:13:53.000Z</time>
      </trkpt>
      <trkpt lat="43.25705992989242076873779296875" lon="-5.00814146362245082855224609375">
        <ele>1009.20001220703125</ele>
        <time>2018-09-08T11:13:58.000Z</time>
      </trkpt>
      <trkpt lat="43.257104940712451934814453125" lon="-5.0082775019109249114990234375">
        <ele>1008.5999755859375</ele>
        <time>2018-09-08T11:14:02.000Z</time>
      </trkpt>
      <trkpt lat="43.257162272930145263671875" lon="-5.0083686970174312591552734375">
        <ele>1008.4000244140625</ele>
        <time>2018-09-08T11:14:05.000Z</time>
      </trkpt>
      <trkpt lat="43.25723879970610141754150390625" lon="-5.0084538571536540985107421875">
        <ele>1008</ele>
        <time>2018-09-08T11:14:08.000Z</time>
      </trkpt>
      <trkpt lat="43.2572817988693714141845703125" lon="-5.00849165953695774078369140625">
        <ele>1008</ele>
        <time>2018-09-08T11:14:10.000Z</time>
      </trkpt>
      <trkpt lat="43.25730778276920318603515625" lon="-5.00850138254463672637939453125">
        <ele>1007.79998779296875</ele>
        <time>2018-09-08T11:14:11.000Z</time>
      </trkpt>
      <trkpt lat="43.2573612593114376068115234375" lon="-5.0085145421326160430908203125">
        <ele>1008</ele>
        <time>2018-09-08T11:14:13.000Z</time>
      </trkpt>
      <trkpt lat="43.25742923654615879058837890625" lon="-5.008553601801395416259765625">
        <ele>1007.79998779296875</ele>
        <time>2018-09-08T11:14:16.000Z</time>
      </trkpt>
      <trkpt lat="43.25746863149106502532958984375" lon="-5.0085802562534809112548828125">
        <ele>1007.5999755859375</ele>
        <time>2018-09-08T11:14:18.000Z</time>
      </trkpt>
      <trkpt lat="43.25751288793981075286865234375" lon="-5.0086094252765178680419921875">
        <ele>1008.20001220703125</ele>
        <time>2018-09-08T11:14:20.000Z</time>
      </trkpt>
      <trkpt lat="43.25756636448204517364501953125" lon="-5.00863381661474704742431640625">
        <ele>1008.20001220703125</ele>
        <time>2018-09-08T11:14:22.000Z</time>
      </trkpt>
      <trkpt lat="43.25774724595248699188232421875" lon="-5.00869366340339183807373046875">
        <ele>1007.4000244140625</ele>
        <time>2018-09-08T11:14:28.000Z</time>
      </trkpt>
      <trkpt lat="43.2578282989561557769775390625" lon="-5.00872551463544368743896484375">
        <ele>1007.20001220703125</ele>
        <time>2018-09-08T11:14:30.000Z</time>
      </trkpt>
      <trkpt lat="43.25786660425364971160888671875" lon="-5.008756108582019805908203125">
        <ele>1006.79998779296875</ele>
        <time>2018-09-08T11:14:31.000Z</time>
      </trkpt>
      <trkpt lat="43.25789962895214557647705078125" lon="-5.008788965642452239990234375">
        <ele>1006.79998779296875</ele>
        <time>2018-09-08T11:14:32.000Z</time>
      </trkpt>
      <trkpt lat="43.25793215073645114898681640625" lon="-5.00882894732058048248291015625">
        <ele>1006.4000244140625</ele>
        <time>2018-09-08T11:14:33.000Z</time>
      </trkpt>
      <trkpt lat="43.257991410791873931884765625" lon="-5.00892542302608489990234375">
        <ele>1005.4000244140625</ele>
        <time>2018-09-08T11:14:35.000Z</time>
      </trkpt>
      <trkpt lat="43.25804882682859897613525390625" lon="-5.00901334919035434722900390625">
        <ele>1005</ele>
        <time>2018-09-08T11:14:37.000Z</time>
      </trkpt>
      <trkpt lat="43.25816399417817592620849609375" lon="-5.00912482850253582000732421875">
        <ele>1005.20001220703125</ele>
        <time>2018-09-08T11:14:40.000Z</time>
      </trkpt>
      <trkpt lat="43.25824244879186153411865234375" lon="-5.0091877765953540802001953125">
        <ele>1005.20001220703125</ele>
        <time>2018-09-08T11:14:42.000Z</time>
      </trkpt>
      <trkpt lat="43.258413188159465789794921875" lon="-5.00930638052523136138916015625">
        <ele>1005.4000244140625</ele>
        <time>2018-09-08T11:14:47.000Z</time>
      </trkpt>
      <trkpt lat="43.25846473686397075653076171875" lon="-5.009360611438751220703125">
        <ele>1005.5999755859375</ele>
        <time>2018-09-08T11:14:49.000Z</time>
      </trkpt>
      <trkpt lat="43.25851745903491973876953125" lon="-5.009415261447429656982421875">
        <ele>1006</ele>
        <time>2018-09-08T11:14:52.000Z</time>
      </trkpt>
      <trkpt lat="43.25861762277781963348388671875" lon="-5.00950167886912822723388671875">
        <ele>1006.79998779296875</ele>
        <time>2018-09-08T11:14:57.000Z</time>
      </trkpt>
      <trkpt lat="43.25863757170736789703369140625" lon="-5.00951877795159816741943359375">
        <ele>1007.20001220703125</ele>
        <time>2018-09-08T11:14:58.000Z</time>
      </trkpt>
      <trkpt lat="43.25865383259952068328857421875" lon="-5.009535290300846099853515625">
        <ele>1007.5999755859375</ele>
        <time>2018-09-08T11:14:59.000Z</time>
      </trkpt>
      <trkpt lat="43.258667998015880584716796875" lon="-5.00955029390752315521240234375">
        <ele>1008</ele>
        <time>2018-09-08T11:15:00.000Z</time>
      </trkpt>
      <trkpt lat="43.25870462693274021148681640625" lon="-5.00957979820668697357177734375">
        <ele>1008.20001220703125</ele>
        <time>2018-09-08T11:15:02.000Z</time>
      </trkpt>
      <trkpt lat="43.258724994957447052001953125" lon="-5.0095894373953342437744140625">
        <ele>1008.4000244140625</ele>
        <time>2018-09-08T11:15:03.000Z</time>
      </trkpt>
      <trkpt lat="43.25876682065427303314208984375" lon="-5.00960460864007472991943359375">
        <ele>1009</ele>
        <time>2018-09-08T11:15:05.000Z</time>
      </trkpt>
      <trkpt lat="43.25878777541220188140869140625" lon="-5.00961131416261196136474609375">
        <ele>1009.20001220703125</ele>
        <time>2018-09-08T11:15:06.000Z</time>
      </trkpt>
      <trkpt lat="43.25880043208599090576171875" lon="-5.00961801968514919281005859375">
        <ele>1009.20001220703125</ele>
        <time>2018-09-08T11:15:07.000Z</time>
      </trkpt>
      <trkpt lat="43.25881652534008026123046875" lon="-5.00962606631219387054443359375">
        <ele>1009.79998779296875</ele>
        <time>2018-09-08T11:15:08.000Z</time>
      </trkpt>
      <trkpt lat="43.2588478736579418182373046875" lon="-5.0096517987549304962158203125">
        <ele>1010.4000244140625</ele>
        <time>2018-09-08T11:15:10.000Z</time>
      </trkpt>
      <trkpt lat="43.2588663138449192047119140625" lon="-5.00966797582805156707763671875">
        <ele>1010.5999755859375</ele>
        <time>2018-09-08T11:15:11.000Z</time>
      </trkpt>
      <trkpt lat="43.2589048705995082855224609375" lon="-5.009690187871456146240234375">
        <ele>1010.5999755859375</ele>
        <time>2018-09-08T11:15:13.000Z</time>
      </trkpt>
      <trkpt lat="43.25898014008998870849609375" lon="-5.0097121484577655792236328125">
        <ele>1011</ele>
        <time>2018-09-08T11:15:16.000Z</time>
      </trkpt>
      <trkpt lat="43.2590121589601039886474609375" lon="-5.00971223227679729461669921875">
        <ele>1011</ele>
        <time>2018-09-08T11:15:17.000Z</time>
      </trkpt>
      <trkpt lat="43.25912925414741039276123046875" lon="-5.00967015512287616729736328125">
        <ele>1010</ele>
        <time>2018-09-08T11:15:20.000Z</time>
      </trkpt>
      <trkpt lat="43.2591637037694454193115234375" lon="-5.009639561176300048828125">
        <ele>1009.79998779296875</ele>
        <time>2018-09-08T11:15:21.000Z</time>
      </trkpt>
      <trkpt lat="43.2592361234128475189208984375" lon="-5.0095827318727970123291015625">
        <ele>1009.4000244140625</ele>
        <time>2018-09-08T11:15:23.000Z</time>
      </trkpt>
      <trkpt lat="43.25927979312837123870849609375" lon="-5.0095631182193756103515625">
        <ele>1009.20001220703125</ele>
        <time>2018-09-08T11:15:24.000Z</time>
      </trkpt>
      <trkpt lat="43.25941943563520908355712890625" lon="-5.00955029390752315521240234375">
        <ele>1008.20001220703125</ele>
        <time>2018-09-08T11:15:27.000Z</time>
      </trkpt>
      <trkpt lat="43.259460926055908203125" lon="-5.00956973992288112640380859375">
        <ele>1008</ele>
        <time>2018-09-08T11:15:28.000Z</time>
      </trkpt>
      <trkpt lat="43.25957332737743854522705078125" lon="-5.00964425504207611083984375">
        <ele>1008</ele>
        <time>2018-09-08T11:15:31.000Z</time>
      </trkpt>
      <trkpt lat="43.25961641035974025726318359375" lon="-5.00965892337262630462646484375">
        <ele>1008</ele>
        <time>2018-09-08T11:15:32.000Z</time>
      </trkpt>
      <trkpt lat="43.25970232486724853515625" lon="-5.009680129587650299072265625">
        <ele>1007.4000244140625</ele>
        <time>2018-09-08T11:15:34.000Z</time>
      </trkpt>
      <trkpt lat="43.2597450725734233856201171875" lon="-5.00969312153756618499755859375">
        <ele>1007</ele>
        <time>2018-09-08T11:15:35.000Z</time>
      </trkpt>
      <trkpt lat="43.25982897542417049407958984375" lon="-5.00970955006778240203857421875">
        <ele>1007</ele>
        <time>2018-09-08T11:15:37.000Z</time>
      </trkpt>
      <trkpt lat="43.2598731480538845062255859375" lon="-5.0097160041332244873046875">
        <ele>1006.5999755859375</ele>
        <time>2018-09-08T11:15:38.000Z</time>
      </trkpt>
      <trkpt lat="43.25991530902683734893798828125" lon="-5.009725056588649749755859375">
        <ele>1006.4000244140625</ele>
        <time>2018-09-08T11:15:39.000Z</time>
      </trkpt>
      <trkpt lat="43.2599569670855998992919921875" lon="-5.00973620451986789703369140625">
        <ele>1006.4000244140625</ele>
        <time>2018-09-08T11:15:40.000Z</time>
      </trkpt>
      <trkpt lat="43.2600699551403522491455078125" lon="-5.00976336188614368438720703125">
        <ele>1006.4000244140625</ele>
        <time>2018-09-08T11:15:43.000Z</time>
      </trkpt>
      <trkpt lat="43.26013273559510707855224609375" lon="-5.00977107323706150054931640625">
        <ele>1006.20001220703125</ele>
        <time>2018-09-08T11:15:45.000Z</time>
      </trkpt>
      <trkpt lat="43.2602114416658878326416015625" lon="-5.0097803771495819091796875">
        <ele>1006</ele>
        <time>2018-09-08T11:15:48.000Z</time>
      </trkpt>
      <trkpt lat="43.26026533730328083038330078125" lon="-5.00977375544607639312744140625">
        <ele>1006</ele>
        <time>2018-09-08T11:15:50.000Z</time>
      </trkpt>
      <trkpt lat="43.2603696919977664947509765625" lon="-5.0097155012190341949462890625">
        <ele>1006.4000244140625</ele>
        <time>2018-09-08T11:15:54.000Z</time>
      </trkpt>
      <trkpt lat="43.260387964546680450439453125" lon="-5.0096849910914897918701171875">
        <ele>1006.4000244140625</ele>
        <time>2018-09-08T11:15:55.000Z</time>
      </trkpt>
      <trkpt lat="43.260463066399097442626953125" lon="-5.00955951400101184844970703125">
        <ele>1006.79998779296875</ele>
        <time>2018-09-08T11:16:00.000Z</time>
      </trkpt>
      <trkpt lat="43.2605101726949214935302734375" lon="-5.00945826061069965362548828125">
        <ele>1007.20001220703125</ele>
        <time>2018-09-08T11:16:04.000Z</time>
      </trkpt>
      <trkpt lat="43.26052182354032993316650390625" lon="-5.00943445600569248199462890625">
        <ele>1007.4000244140625</ele>
        <time>2018-09-08T11:16:05.000Z</time>
      </trkpt>
      <trkpt lat="43.2605534233152866363525390625" lon="-5.00939288176596164703369140625">
        <ele>1007.4000244140625</ele>
        <time>2018-09-08T11:16:07.000Z</time>
      </trkpt>
      <trkpt lat="43.26057605445384979248046875" lon="-5.0093349628150463104248046875">
        <ele>1007.5999755859375</ele>
        <time>2018-09-08T11:16:09.000Z</time>
      </trkpt>
      <trkpt lat="43.26059156097471714019775390625" lon="-5.0093155167996883392333984375">
        <ele>1007.79998779296875</ele>
        <time>2018-09-08T11:16:10.000Z</time>
      </trkpt>
      <trkpt lat="43.260611258447170257568359375" lon="-5.00930235721170902252197265625">
        <ele>1007.79998779296875</ele>
        <time>2018-09-08T11:16:11.000Z</time>
      </trkpt>
      <trkpt lat="43.2606791518628597259521484375" lon="-5.009291209280490875244140625">
        <ele>1008.20001220703125</ele>
        <time>2018-09-08T11:16:14.000Z</time>
      </trkpt>
      <trkpt lat="43.2607014477252960205078125" lon="-5.0092850066721439361572265625">
        <ele>1008.20001220703125</ele>
        <time>2018-09-08T11:16:15.000Z</time>
      </trkpt>
      <trkpt lat="43.260721229016780853271484375" lon="-5.00927721150219440460205078125">
        <ele>1008.4000244140625</ele>
        <time>2018-09-08T11:16:16.000Z</time>
      </trkpt>
      <trkpt lat="43.26081787236034870147705078125" lon="-5.00927117653191089630126953125">
        <ele>1009</ele>
        <time>2018-09-08T11:16:20.000Z</time>
      </trkpt>
      <trkpt lat="43.26085902750492095947265625" lon="-5.00927302055060863494873046875">
        <ele>1009</ele>
        <time>2018-09-08T11:16:22.000Z</time>
      </trkpt>
      <trkpt lat="43.2608984224498271942138671875" lon="-5.0092628784477710723876953125">
        <ele>1009.4000244140625</ele>
        <time>2018-09-08T11:16:24.000Z</time>
      </trkpt>
      <trkpt lat="43.2609634660184383392333984375" lon="-5.0092769600450992584228515625">
        <ele>1009.5999755859375</ele>
        <time>2018-09-08T11:16:27.000Z</time>
      </trkpt>
      <trkpt lat="43.26115541160106658935546875" lon="-5.00928592868149280548095703125">
        <ele>1010.5999755859375</ele>
        <time>2018-09-08T11:16:34.000Z</time>
      </trkpt>
      <trkpt lat="43.2613532245159149169921875" lon="-5.00930537469685077667236328125">
        <ele>1011.4000244140625</ele>
        <time>2018-09-08T11:16:42.000Z</time>
      </trkpt>
      <trkpt lat="43.26138398610055446624755859375" lon="-5.00930822454392910003662109375">
        <ele>1011.4000244140625</ele>
        <time>2018-09-08T11:16:43.000Z</time>
      </trkpt>
      <trkpt lat="43.2614127360284328460693359375" lon="-5.009307973086833953857421875">
        <ele>1011.5999755859375</ele>
        <time>2018-09-08T11:16:44.000Z</time>
      </trkpt>
      <trkpt lat="43.2615800388157367706298828125" lon="-5.00935457646846771240234375">
        <ele>1012.79998779296875</ele>
        <time>2018-09-08T11:16:50.000Z</time>
      </trkpt>
      <trkpt lat="43.261715658009052276611328125" lon="-5.00941853038966655731201171875">
        <ele>1013.5999755859375</ele>
        <time>2018-09-08T11:16:55.000Z</time>
      </trkpt>
      <trkpt lat="43.26176519505679607391357421875" lon="-5.009453482925891876220703125">
        <ele>1013.79998779296875</ele>
        <time>2018-09-08T11:16:57.000Z</time>
      </trkpt>
      <trkpt lat="43.261881284415721893310546875" lon="-5.0095575861632823944091796875">
        <ele>1014.79998779296875</ele>
        <time>2018-09-08T11:17:02.000Z</time>
      </trkpt>
      <trkpt lat="43.26192461885511875152587890625" lon="-5.00960142351686954498291015625">
        <ele>1015.20001220703125</ele>
        <time>2018-09-08T11:17:04.000Z</time>
      </trkpt>
      <trkpt lat="43.2620085217058658599853515625" lon="-5.009696222841739654541015625">
        <ele>1016</ele>
        <time>2018-09-08T11:17:08.000Z</time>
      </trkpt>
      <trkpt lat="43.26211455278098583221435546875" lon="-5.00982153229415416717529296875">
        <ele>1016.79998779296875</ele>
        <time>2018-09-08T11:17:13.000Z</time>
      </trkpt>
      <trkpt lat="43.2621513493359088897705078125" lon="-5.00988272018730640411376953125">
        <ele>1017</ele>
        <time>2018-09-08T11:17:15.000Z</time>
      </trkpt>
      <trkpt lat="43.26221630908548831939697265625" lon="-5.01001096330583095550537109375">
        <ele>1018.20001220703125</ele>
        <time>2018-09-08T11:17:19.000Z</time>
      </trkpt>
      <trkpt lat="43.2622797600924968719482421875" lon="-5.0101734884083271026611328125">
        <ele>1018.79998779296875</ele>
        <time>2018-09-08T11:17:24.000Z</time>
      </trkpt>
      <trkpt lat="43.26228939928114414215087890625" lon="-5.01020525582134723663330078125">
        <ele>1019</ele>
        <time>2018-09-08T11:17:25.000Z</time>
      </trkpt>
      <trkpt lat="43.26229476369917392730712890625" lon="-5.01023693941533565521240234375">
        <ele>1019.20001220703125</ele>
        <time>2018-09-08T11:17:26.000Z</time>
      </trkpt>
      <trkpt lat="43.26232208870351314544677734375" lon="-5.01036048866808414459228515625">
        <ele>1020.4000244140625</ele>
        <time>2018-09-08T11:17:30.000Z</time>
      </trkpt>
      <trkpt lat="43.2623340748250484466552734375" lon="-5.0104214251041412353515625">
        <ele>1020.79998779296875</ele>
        <time>2018-09-08T11:17:32.000Z</time>
      </trkpt>
      <trkpt lat="43.26236031018197536468505859375" lon="-5.01050834544003009796142578125">
        <ele>1021.5999755859375</ele>
        <time>2018-09-08T11:17:35.000Z</time>
      </trkpt>
      <trkpt lat="43.26238780282437801361083984375" lon="-5.0105540268123149871826171875">
        <ele>1022.20001220703125</ele>
        <time>2018-09-08T11:17:37.000Z</time>
      </trkpt>
      <trkpt lat="43.26241244561970233917236328125" lon="-5.01056282781064510345458984375">
        <ele>1022.4000244140625</ele>
        <time>2018-09-08T11:17:38.000Z</time>
      </trkpt>
      <trkpt lat="43.262462317943572998046875" lon="-5.01054589636623859405517578125">
        <ele>1022.5999755859375</ele>
        <time>2018-09-08T11:17:40.000Z</time>
      </trkpt>
      <trkpt lat="43.2625033892691135406494140625" lon="-5.01049862243235111236572265625">
        <ele>1023.20001220703125</ele>
        <time>2018-09-08T11:17:42.000Z</time>
      </trkpt>
      <trkpt lat="43.26252275146543979644775390625" lon="-5.0104705430567264556884765625">
        <ele>1023.4000244140625</ele>
        <time>2018-09-08T11:17:43.000Z</time>
      </trkpt>
      <trkpt lat="43.26255619525909423828125" lon="-5.01040466129779815673828125">
        <ele>1023.5999755859375</ele>
        <time>2018-09-08T11:17:45.000Z</time>
      </trkpt>
      <trkpt lat="43.26260137371718883514404296875" lon="-5.01026510260999202728271484375">
        <ele>1024.199951171875</ele>
        <time>2018-09-08T11:17:49.000Z</time>
      </trkpt>
      <trkpt lat="43.2626230828464031219482421875" lon="-5.01015882007777690887451171875">
        <ele>1024.800048828125</ele>
        <time>2018-09-08T11:17:52.000Z</time>
      </trkpt>
      <trkpt lat="43.26263808645308017730712890625" lon="-5.010010041296482086181640625">
        <ele>1025</ele>
        <time>2018-09-08T11:17:56.000Z</time>
      </trkpt>
      <trkpt lat="43.2626123540103435516357421875" lon="-5.00978129915893077850341796875">
        <ele>1025.5999755859375</ele>
        <time>2018-09-08T11:18:02.000Z</time>
      </trkpt>
      <trkpt lat="43.2625972665846347808837890625" lon="-5.009693540632724761962890625">
        <ele>1025.800048828125</ele>
        <time>2018-09-08T11:18:04.000Z</time>
      </trkpt>
      <trkpt lat="43.26255409978330135345458984375" lon="-5.00952514819800853729248046875">
        <ele>1027</ele>
        <time>2018-09-08T11:18:08.000Z</time>
      </trkpt>
      <trkpt lat="43.262537084519863128662109375" lon="-5.009432025253772735595703125">
        <ele>1027</ele>
        <time>2018-09-08T11:18:10.000Z</time>
      </trkpt>
      <trkpt lat="43.2624958455562591552734375" lon="-5.0092390738427639007568359375">
        <ele>1027.4000244140625</ele>
        <time>2018-09-08T11:18:14.000Z</time>
      </trkpt>
      <trkpt lat="43.26248067431151866912841796875" lon="-5.00913388095796108245849609375">
        <ele>1027.4000244140625</ele>
        <time>2018-09-08T11:18:16.000Z</time>
      </trkpt>
      <trkpt lat="43.26246676035225391387939453125" lon="-5.00901997089385986328125">
        <ele>1027.5999755859375</ele>
        <time>2018-09-08T11:18:18.000Z</time>
      </trkpt>
      <trkpt lat="43.26246223412454128265380859375" lon="-5.0088404305279254913330078125">
        <ele>1027.800048828125</ele>
        <time>2018-09-08T11:18:21.000Z</time>
      </trkpt>
      <trkpt lat="43.26247178949415683746337890625" lon="-5.0087180547416210174560546875">
        <ele>1028</ele>
        <time>2018-09-08T11:18:23.000Z</time>
      </trkpt>
      <trkpt lat="43.26246567070484161376953125" lon="-5.00865896232426166534423828125">
        <ele>1028.199951171875</ele>
        <time>2018-09-08T11:18:24.000Z</time>
      </trkpt>
      <trkpt lat="43.26244815252721309661865234375" lon="-5.0085272826254367828369140625">
        <ele>1028.4000244140625</ele>
        <time>2018-09-08T11:18:26.000Z</time>
      </trkpt>
      <trkpt lat="43.262419402599334716796875" lon="-5.00839023850858211517333984375">
        <ele>1028.199951171875</ele>
        <time>2018-09-08T11:18:28.000Z</time>
      </trkpt>
      <trkpt lat="43.262328542768955230712890625" lon="-5.00819695182144641876220703125">
        <ele>1027.199951171875</ele>
        <time>2018-09-08T11:18:31.000Z</time>
      </trkpt>
      <trkpt lat="43.26229208149015903472900390625" lon="-5.0081356801092624664306640625">
        <ele>1026.800048828125</ele>
        <time>2018-09-08T11:18:32.000Z</time>
      </trkpt>
      <trkpt lat="43.26225503347814083099365234375" lon="-5.00807382166385650634765625">
        <ele>1026.4000244140625</ele>
        <time>2018-09-08T11:18:33.000Z</time>
      </trkpt>
      <trkpt lat="43.26218881644308567047119140625" lon="-5.00794365070760250091552734375">
        <ele>1026.4000244140625</ele>
        <time>2018-09-08T11:18:35.000Z</time>
      </trkpt>
      <trkpt lat="43.2621069252490997314453125" lon="-5.0077231228351593017578125">
        <ele>1026.199951171875</ele>
        <time>2018-09-08T11:18:38.000Z</time>
      </trkpt>
      <trkpt lat="43.262025453150272369384765625" lon="-5.00749312341213226318359375">
        <ele>1026</ele>
        <time>2018-09-08T11:18:41.000Z</time>
      </trkpt>
      <trkpt lat="43.26199628412723541259765625" lon="-5.007415674626827239990234375">
        <ele>1025.800048828125</ele>
        <time>2018-09-08T11:18:42.000Z</time>
      </trkpt>
      <trkpt lat="43.2619703002274036407470703125" lon="-5.007335878908634185791015625">
        <ele>1025.4000244140625</ele>
        <time>2018-09-08T11:18:43.000Z</time>
      </trkpt>
      <trkpt lat="43.26191179454326629638671875" lon="-5.00717528164386749267578125">
        <ele>1024.800048828125</ele>
        <time>2018-09-08T11:18:45.000Z</time>
      </trkpt>
      <trkpt lat="43.2618831284344196319580078125" lon="-5.00709389336407184600830078125">
        <ele>1024.5999755859375</ele>
        <time>2018-09-08T11:18:46.000Z</time>
      </trkpt>
      <trkpt lat="43.2618549652397632598876953125" lon="-5.007013343274593353271484375">
        <ele>1024.5999755859375</ele>
        <time>2018-09-08T11:18:47.000Z</time>
      </trkpt>
      <trkpt lat="43.261799477040767669677734375" lon="-5.006854422390460968017578125">
        <ele>1024.199951171875</ele>
        <time>2018-09-08T11:18:49.000Z</time>
      </trkpt>
      <trkpt lat="43.26174206100404262542724609375" lon="-5.00669382512569427490234375">
        <ele>1023.5999755859375</ele>
        <time>2018-09-08T11:18:51.000Z</time>
      </trkpt>
      <trkpt lat="43.26171557419002056121826171875" lon="-5.0066078267991542816162109375">
        <ele>1023.4000244140625</ele>
        <time>2018-09-08T11:18:52.000Z</time>
      </trkpt>
      <trkpt lat="43.2616776041686534881591796875" lon="-5.0064197368919849395751953125">
        <ele>1022.5999755859375</ele>
        <time>2018-09-08T11:18:54.000Z</time>
      </trkpt>
      <trkpt lat="43.261666707694530487060546875" lon="-5.00632007606327533721923828125">
        <ele>1022</ele>
        <time>2018-09-08T11:18:55.000Z</time>
      </trkpt>
      <trkpt lat="43.26167131774127483367919921875" lon="-5.00601044856011867523193359375">
        <ele>1021.4000244140625</ele>
        <time>2018-09-08T11:18:58.000Z</time>
      </trkpt>
      <trkpt lat="43.26170526444911956787109375" lon="-5.00569361262023448944091796875">
        <ele>1021</ele>
        <time>2018-09-08T11:19:01.000Z</time>
      </trkpt>
      <trkpt lat="43.261710964143276214599609375" lon="-5.00558850355446338653564453125">
        <ele>1020.79998779296875</ele>
        <time>2018-09-08T11:19:02.000Z</time>
      </trkpt>
      <trkpt lat="43.26171423308551311492919921875" lon="-5.0054812990128993988037109375">
        <ele>1020.79998779296875</ele>
        <time>2018-09-08T11:19:03.000Z</time>
      </trkpt>
      <trkpt lat="43.2617352716624736785888671875" lon="-5.00503747723996639251708984375">
        <ele>1020</ele>
        <time>2018-09-08T11:19:07.000Z</time>
      </trkpt>
      <trkpt lat="43.261745162308216094970703125" lon="-5.00471477396786212921142578125">
        <ele>1019.79998779296875</ele>
        <time>2018-09-08T11:19:10.000Z</time>
      </trkpt>
      <trkpt lat="43.26175689697265625" lon="-5.00461268238723278045654296875">
        <ele>1019.4000244140625</ele>
        <time>2018-09-08T11:19:11.000Z</time>
      </trkpt>
      <trkpt lat="43.2617919333279132843017578125" lon="-5.00412401743233203887939453125">
        <ele>1019</ele>
        <time>2018-09-08T11:19:16.000Z</time>
      </trkpt>
      <trkpt lat="43.26179377734661102294921875" lon="-5.00403081066906452178955078125">
        <ele>1019.20001220703125</ele>
        <time>2018-09-08T11:19:17.000Z</time>
      </trkpt>
      <trkpt lat="43.26180408708751201629638671875" lon="-5.00393911264836788177490234375">
        <ele>1019.20001220703125</ele>
        <time>2018-09-08T11:19:18.000Z</time>
      </trkpt>
      <trkpt lat="43.261834345757961273193359375" lon="-5.00375588424503803253173828125">
        <ele>1019.20001220703125</ele>
        <time>2018-09-08T11:19:20.000Z</time>
      </trkpt>
      <trkpt lat="43.2618697173893451690673828125" lon="-5.0035755895078182220458984375">
        <ele>1018.5999755859375</ele>
        <time>2018-09-08T11:19:22.000Z</time>
      </trkpt>
      <trkpt lat="43.26191120781004428863525390625" lon="-5.0030106492340564727783203125">
        <ele>1018.4000244140625</ele>
        <time>2018-09-08T11:19:28.000Z</time>
      </trkpt>
      <trkpt lat="43.2619823701679706573486328125" lon="-5.0023558549582958221435546875">
        <ele>1017.5999755859375</ele>
        <time>2018-09-08T11:19:35.000Z</time>
      </trkpt>
      <trkpt lat="43.2619987986981868743896484375" lon="-5.0021815113723278045654296875">
        <ele>1017.4000244140625</ele>
        <time>2018-09-08T11:19:37.000Z</time>
      </trkpt>
      <trkpt lat="43.2620256207883358001708984375" lon="-5.00191546976566314697265625">
        <ele>1017</ele>
        <time>2018-09-08T11:19:40.000Z</time>
      </trkpt>
      <trkpt lat="43.2620457373559474945068359375" lon="-5.00182871706783771514892578125">
        <ele>1016.20001220703125</ele>
        <time>2018-09-08T11:19:41.000Z</time>
      </trkpt>
      <trkpt lat="43.262085802853107452392578125" lon="-5.00166065990924835205078125">
        <ele>1016.20001220703125</ele>
        <time>2018-09-08T11:19:43.000Z</time>
      </trkpt>
      <trkpt lat="43.26211773790419101715087890625" lon="-5.0014925189316272735595703125">
        <ele>1016.20001220703125</ele>
        <time>2018-09-08T11:19:45.000Z</time>
      </trkpt>
      <trkpt lat="43.262134082615375518798828125" lon="-5.00141029246151447296142578125">
        <ele>1016.20001220703125</ele>
        <time>2018-09-08T11:19:46.000Z</time>
      </trkpt>
      <trkpt lat="43.2621785067021846771240234375" lon="-5.0012548081576824188232421875">
        <ele>1016.4000244140625</ele>
        <time>2018-09-08T11:19:48.000Z</time>
      </trkpt>
      <trkpt lat="43.26228923164308071136474609375" lon="-5.0010497868061065673828125">
        <ele>1015.79998779296875</ele>
        <time>2018-09-08T11:19:51.000Z</time>
      </trkpt>
      <trkpt lat="43.26238931156694889068603515625" lon="-5.00093319453299045562744140625">
        <ele>1015.4000244140625</ele>
        <time>2018-09-08T11:19:53.000Z</time>
      </trkpt>
      <trkpt lat="43.26244781725108623504638671875" lon="-5.0008853338658809661865234375">
        <ele>1015.20001220703125</ele>
        <time>2018-09-08T11:19:54.000Z</time>
      </trkpt>
      <trkpt lat="43.26251017861068248748779296875" lon="-5.00085976906120777130126953125">
        <ele>1015</ele>
        <time>2018-09-08T11:19:55.000Z</time>
      </trkpt>
      <trkpt lat="43.26268787495791912078857421875" lon="-5.000914670526981353759765625">
        <ele>1015</ele>
        <time>2018-09-08T11:19:58.000Z</time>
      </trkpt>
      <trkpt lat="43.26273883692920207977294921875" lon="-5.000937469303607940673828125">
        <ele>1015.20001220703125</ele>
        <time>2018-09-08T11:19:59.000Z</time>
      </trkpt>
      <trkpt lat="43.26287680305540561676025390625" lon="-5.00098834745585918426513671875">
        <ele>1016</ele>
        <time>2018-09-08T11:20:02.000Z</time>
      </trkpt>
      <trkpt lat="43.262919299304485321044921875" lon="-5.0010067038238048553466796875">
        <ele>1016.20001220703125</ele>
        <time>2018-09-08T11:20:03.000Z</time>
      </trkpt>
      <trkpt lat="43.263070844113826751708984375" lon="-5.0011002458631992340087890625">
        <ele>1017.20001220703125</ele>
        <time>2018-09-08T11:20:07.000Z</time>
      </trkpt>
      <trkpt lat="43.2631447724997997283935546875" lon="-5.00113586895167827606201171875">
        <ele>1017.79998779296875</ele>
        <time>2018-09-08T11:20:09.000Z</time>
      </trkpt>
      <trkpt lat="43.263213336467742919921875" lon="-5.0011624395847320556640625">
        <ele>1018.4000244140625</ele>
        <time>2018-09-08T11:20:11.000Z</time>
      </trkpt>
      <trkpt lat="43.263278044760227203369140625" lon="-5.00117844901978969573974609375">
        <ele>1018.79998779296875</ele>
        <time>2018-09-08T11:20:13.000Z</time>
      </trkpt>
      <trkpt lat="43.26334082521498203277587890625" lon="-5.00117777846753597259521484375">
        <ele>1019.4000244140625</ele>
        <time>2018-09-08T11:20:15.000Z</time>
      </trkpt>
      <trkpt lat="43.2633694075047969818115234375" lon="-5.0011678040027618408203125">
        <ele>1019.79998779296875</ele>
        <time>2018-09-08T11:20:16.000Z</time>
      </trkpt>
      <trkpt lat="43.26342430897057056427001953125" lon="-5.00113603658974170684814453125">
        <ele>1020</ele>
        <time>2018-09-08T11:20:18.000Z</time>
      </trkpt>
      <trkpt lat="43.2634963095188140869140625" lon="-5.001062862575054168701171875">
        <ele>1020.4000244140625</ele>
        <time>2018-09-08T11:20:21.000Z</time>
      </trkpt>
      <trkpt lat="43.26354400254786014556884765625" lon="-5.00100712291896343231201171875">
        <ele>1020.79998779296875</ele>
        <time>2018-09-08T11:20:23.000Z</time>
      </trkpt>
      <trkpt lat="43.26363402418792247772216796875" lon="-5.000850297510623931884765625">
        <ele>1021.5999755859375</ele>
        <time>2018-09-08T11:20:28.000Z</time>
      </trkpt>
      <trkpt lat="43.263668976724147796630859375" lon="-5.00073186121881008148193359375">
        <ele>1022</ele>
        <time>2018-09-08T11:20:31.000Z</time>
      </trkpt>
      <trkpt lat="43.2636942900717258453369140625" lon="-5.00059640966355800628662109375">
        <ele>1022.20001220703125</ele>
        <time>2018-09-08T11:20:34.000Z</time>
      </trkpt>
      <trkpt lat="43.2637304998934268951416015625" lon="-5.0003783963620662689208984375">
        <ele>1022.5999755859375</ele>
        <time>2018-09-08T11:20:39.000Z</time>
      </trkpt>
      <trkpt lat="43.263746760785579681396484375" lon="-5.00011864118278026580810546875">
        <ele>1023</ele>
        <time>2018-09-08T11:20:44.000Z</time>
      </trkpt>
      <trkpt lat="43.26374717988073825836181640625" lon="-5.00006449408829212188720703125">
        <ele>1023</ele>
        <time>2018-09-08T11:20:45.000Z</time>
      </trkpt>
      <trkpt lat="43.26378121040761470794677734375" lon="-4.99972586520016193389892578125">
        <ele>1023.4000244140625</ele>
        <time>2018-09-08T11:20:51.000Z</time>
      </trkpt>
      <trkpt lat="43.26378975994884967803955078125" lon="-4.999556802213191986083984375">
        <ele>1024.199951171875</ele>
        <time>2018-09-08T11:20:54.000Z</time>
      </trkpt>
      <trkpt lat="43.2637784443795680999755859375" lon="-4.99925094656646251678466796875">
        <ele>1024.199951171875</ele>
        <time>2018-09-08T11:20:59.000Z</time>
      </trkpt>
      <trkpt lat="43.26377819292247295379638671875" lon="-4.9986376427114009857177734375">
        <ele>1024</ele>
        <time>2018-09-08T11:21:08.000Z</time>
      </trkpt>
      <trkpt lat="43.26379210688173770904541015625" lon="-4.9984270893037319183349609375">
        <ele>1024</ele>
        <time>2018-09-08T11:21:11.000Z</time>
      </trkpt>
      <trkpt lat="43.26387156732380390167236328125" lon="-4.99824143014848232269287109375">
        <ele>1024</ele>
        <time>2018-09-08T11:21:14.000Z</time>
      </trkpt>
      <trkpt lat="43.26399511657655239105224609375" lon="-4.9981749616563320159912109375">
        <ele>1023</ele>
        <time>2018-09-08T11:21:16.000Z</time>
      </trkpt>
      <trkpt lat="43.2640622556209564208984375" lon="-4.9981462955474853515625">
        <ele>1022</ele>
        <time>2018-09-08T11:21:17.000Z</time>
      </trkpt>
      <trkpt lat="43.2641274668276309967041015625" lon="-4.99811368994414806365966796875">
        <ele>1022</ele>
        <time>2018-09-08T11:21:18.000Z</time>
      </trkpt>
      <trkpt lat="43.2642431370913982391357421875" lon="-4.99802769161760807037353515625">
        <ele>1021.4000244140625</ele>
        <time>2018-09-08T11:21:20.000Z</time>
      </trkpt>
      <trkpt lat="43.2643494196236133575439453125" lon="-4.9979436211287975311279296875">
        <ele>1021.5999755859375</ele>
        <time>2018-09-08T11:21:22.000Z</time>
      </trkpt>
      <trkpt lat="43.26453859917819499969482421875" lon="-4.9979238398373126983642578125">
        <ele>1021</ele>
        <time>2018-09-08T11:21:25.000Z</time>
      </trkpt>
      <trkpt lat="43.2646025530993938446044921875" lon="-4.9979315511882305145263671875">
        <ele>1020.4000244140625</ele>
        <time>2018-09-08T11:21:26.000Z</time>
      </trkpt>
      <trkpt lat="43.2647866196930408477783203125" lon="-4.9979811720550060272216796875">
        <ele>1019.4000244140625</ele>
        <time>2018-09-08T11:21:29.000Z</time>
      </trkpt>
      <trkpt lat="43.2648566924035549163818359375" lon="-4.9979845248162746429443359375">
        <ele>1019</ele>
        <time>2018-09-08T11:21:30.000Z</time>
      </trkpt>
      <trkpt lat="43.26501100324094295501708984375" lon="-4.99792844988405704498291015625">
        <ele>1017.5999755859375</ele>
        <time>2018-09-08T11:21:32.000Z</time>
      </trkpt>
      <trkpt lat="43.26509498991072177886962890625" lon="-4.9978820979595184326171875">
        <ele>1016.5999755859375</ele>
        <time>2018-09-08T11:21:33.000Z</time>
      </trkpt>
      <trkpt lat="43.26517428271472454071044921875" lon="-4.99783121980726718902587890625">
        <ele>1015.4000244140625</ele>
        <time>2018-09-08T11:21:34.000Z</time>
      </trkpt>
      <trkpt lat="43.26524351723492145538330078125" lon="-4.99777489341795444488525390625">
        <ele>1014.79998779296875</ele>
        <time>2018-09-08T11:21:35.000Z</time>
      </trkpt>
      <trkpt lat="43.265356756746768951416015625" lon="-4.9976438842713832855224609375">
        <ele>1015.20001220703125</ele>
        <time>2018-09-08T11:21:37.000Z</time>
      </trkpt>
      <trkpt lat="43.2654340378940105438232421875" lon="-4.99749426729977130889892578125">
        <ele>1016.20001220703125</ele>
        <time>2018-09-08T11:21:39.000Z</time>
      </trkpt>
      <trkpt lat="43.26546044088900089263916015625" lon="-4.99741950072348117828369140625">
        <ele>1016.79998779296875</ele>
        <time>2018-09-08T11:21:40.000Z</time>
      </trkpt>
      <trkpt lat="43.26547779142856597900390625" lon="-4.997351355850696563720703125">
        <ele>1018.20001220703125</ele>
        <time>2018-09-08T11:21:41.000Z</time>
      </trkpt>
      <trkpt lat="43.265490867197513580322265625" lon="-4.99723367393016815185546875">
        <ele>1019.20001220703125</ele>
        <time>2018-09-08T11:21:43.000Z</time>
      </trkpt>
      <trkpt lat="43.265507631003856658935546875" lon="-4.99718480743467807769775390625">
        <ele>1019.5999755859375</ele>
        <time>2018-09-08T11:21:44.000Z</time>
      </trkpt>
      <trkpt lat="43.26553881168365478515625" lon="-4.99715513549745082855224609375">
        <ele>1019.5999755859375</ele>
        <time>2018-09-08T11:21:45.000Z</time>
      </trkpt>
      <trkpt lat="43.26561097986996173858642578125" lon="-4.99719184823334217071533203125">
        <ele>1019.79998779296875</ele>
        <time>2018-09-08T11:21:47.000Z</time>
      </trkpt>
      <trkpt lat="43.26567702926695346832275390625" lon="-4.99732277356088161468505859375">
        <ele>1020.5999755859375</ele>
        <time>2018-09-08T11:21:50.000Z</time>
      </trkpt>
      <trkpt lat="43.26569144614040851593017578125" lon="-4.99736845493316650390625">
        <ele>1021</ele>
        <time>2018-09-08T11:21:51.000Z</time>
      </trkpt>
      <trkpt lat="43.26570636592805385589599609375" lon="-4.997409693896770477294921875">
        <ele>1021</ele>
        <time>2018-09-08T11:21:52.000Z</time>
      </trkpt>
      <trkpt lat="43.2657331041991710662841796875" lon="-4.9974832870066165924072265625">
        <ele>1022</ele>
        <time>2018-09-08T11:21:54.000Z</time>
      </trkpt>
      <trkpt lat="43.26575808227062225341796875" lon="-4.99755461700260639190673828125">
        <ele>1022.79998779296875</ele>
        <time>2018-09-08T11:21:56.000Z</time>
      </trkpt>
      <trkpt lat="43.265770487487316131591796875" lon="-4.99759040772914886474609375">
        <ele>1023</ele>
        <time>2018-09-08T11:21:57.000Z</time>
      </trkpt>
      <trkpt lat="43.2657941244542598724365234375" lon="-4.99766089953482151031494140625">
        <ele>1023.79998779296875</ele>
        <time>2018-09-08T11:21:59.000Z</time>
      </trkpt>
      <trkpt lat="43.26580761931836605072021484375" lon="-4.9976948462426662445068359375">
        <ele>1024</ele>
        <time>2018-09-08T11:22:00.000Z</time>
      </trkpt>
      <trkpt lat="43.26582337729632854461669921875" lon="-4.9977317266166210174560546875">
        <ele>1024.199951171875</ele>
        <time>2018-09-08T11:22:01.000Z</time>
      </trkpt>
      <trkpt lat="43.26585941947996616363525390625" lon="-4.99779467470943927764892578125">
        <ele>1024.4000244140625</ele>
        <time>2018-09-08T11:22:03.000Z</time>
      </trkpt>
      <trkpt lat="43.265901915729045867919921875" lon="-4.99784295447170734405517578125">
        <ele>1025.199951171875</ele>
        <time>2018-09-08T11:22:05.000Z</time>
      </trkpt>
      <trkpt lat="43.26602370478212833404541015625" lon="-4.9978767335414886474609375">
        <ele>1026</ele>
        <time>2018-09-08T11:22:10.000Z</time>
      </trkpt>
      <trkpt lat="43.26606787741184234619140625" lon="-4.9978473968803882598876953125">
        <ele>1026.4000244140625</ele>
        <time>2018-09-08T11:22:12.000Z</time>
      </trkpt>
      <trkpt lat="43.266133926808834075927734375" lon="-4.9977974407374858856201171875">
        <ele>1027.199951171875</ele>
        <time>2018-09-08T11:22:15.000Z</time>
      </trkpt>
      <trkpt lat="43.266175501048564910888671875" lon="-4.9977558664977550506591796875">
        <ele>1027.4000244140625</ele>
        <time>2018-09-08T11:22:17.000Z</time>
      </trkpt>
      <trkpt lat="43.266313634812831878662109375" lon="-4.99768562614917755126953125">
        <ele>1028.5999755859375</ele>
        <time>2018-09-08T11:22:23.000Z</time>
      </trkpt>
      <trkpt lat="43.26646358706057071685791015625" lon="-4.99765612185001373291015625">
        <ele>1029.5999755859375</ele>
        <time>2018-09-08T11:22:29.000Z</time>
      </trkpt>
      <trkpt lat="43.26660976745188236236572265625" lon="-4.9976428784430027008056640625">
        <ele>1030.5999755859375</ele>
        <time>2018-09-08T11:22:35.000Z</time>
      </trkpt>
      <trkpt lat="43.26666274107992649078369140625" lon="-4.99763608910143375396728515625">
        <ele>1031</ele>
        <time>2018-09-08T11:22:37.000Z</time>
      </trkpt>
      <trkpt lat="43.266824595630168914794921875" lon="-4.99760993756353855133056640625">
        <ele>1031.800048828125</ele>
        <time>2018-09-08T11:22:43.000Z</time>
      </trkpt>
      <trkpt lat="43.26685066334903240203857421875" lon="-4.99760692007839679718017578125">
        <ele>1032</ele>
        <time>2018-09-08T11:22:44.000Z</time>
      </trkpt>
      <trkpt lat="43.26692895032465457916259765625" lon="-4.9975952692329883575439453125">
        <ele>1033</ele>
        <time>2018-09-08T11:22:47.000Z</time>
      </trkpt>
      <trkpt lat="43.26708686538040637969970703125" lon="-4.99759753234684467315673828125">
        <ele>1034</ele>
        <time>2018-09-08T11:22:53.000Z</time>
      </trkpt>
      <trkpt lat="43.267111591994762420654296875" lon="-4.99759904108941555023193359375">
        <ele>1034.199951171875</ele>
        <time>2018-09-08T11:22:54.000Z</time>
      </trkpt>
      <trkpt lat="43.2672569341957569122314453125" lon="-4.99760222621262073516845703125">
        <ele>1034.5999755859375</ele>
        <time>2018-09-08T11:22:59.000Z</time>
      </trkpt>
      <trkpt lat="43.2673283480107784271240234375" lon="-4.99759786762297153472900390625">
        <ele>1034.4000244140625</ele>
        <time>2018-09-08T11:23:01.000Z</time>
      </trkpt>
      <trkpt lat="43.267604447901248931884765625" lon="-4.99756568111479282379150390625">
        <ele>1033.5999755859375</ele>
        <time>2018-09-08T11:23:07.000Z</time>
      </trkpt>
      <trkpt lat="43.26775523833930492401123046875" lon="-4.99755151569843292236328125">
        <ele>1033</ele>
        <time>2018-09-08T11:23:10.000Z</time>
      </trkpt>
      <trkpt lat="43.26785624027252197265625" lon="-4.99755428172647953033447265625">
        <ele>1032.199951171875</ele>
        <time>2018-09-08T11:23:12.000Z</time>
      </trkpt>
      <trkpt lat="43.26790577732026576995849609375" lon="-4.99755813740193843841552734375">
        <ele>1031.5999755859375</ele>
        <time>2018-09-08T11:23:13.000Z</time>
      </trkpt>
      <trkpt lat="43.2679566554725170135498046875" lon="-4.997562579810619354248046875">
        <ele>1031.4000244140625</ele>
        <time>2018-09-08T11:23:14.000Z</time>
      </trkpt>
      <trkpt lat="43.2682322524487972259521484375" lon="-4.99756886623799800872802734375">
        <ele>1030.5999755859375</ele>
        <time>2018-09-08T11:23:19.000Z</time>
      </trkpt>
      <trkpt lat="43.26834532432258129119873046875" lon="-4.997610859572887420654296875">
        <ele>1030.199951171875</ele>
        <time>2018-09-08T11:23:21.000Z</time>
      </trkpt>
      <trkpt lat="43.268588818609714508056640625" lon="-4.9975895695388317108154296875">
        <ele>1028.5999755859375</ele>
        <time>2018-09-08T11:23:25.000Z</time>
      </trkpt>
      <trkpt lat="43.26864690519869327545166015625" lon="-4.997540451586246490478515625">
        <ele>1028</ele>
        <time>2018-09-08T11:23:26.000Z</time>
      </trkpt>
      <trkpt lat="43.26869887299835681915283203125" lon="-4.9974765814840793609619140625">
        <ele>1027.5999755859375</ele>
        <time>2018-09-08T11:23:27.000Z</time>
      </trkpt>
      <trkpt lat="43.26874631457030773162841796875" lon="-4.997403658926486968994140625">
        <ele>1027.800048828125</ele>
        <time>2018-09-08T11:23:28.000Z</time>
      </trkpt>
      <trkpt lat="43.268792666494846343994140625" lon="-4.99732495285570621490478515625">
        <ele>1028.199951171875</ele>
        <time>2018-09-08T11:23:29.000Z</time>
      </trkpt>
      <trkpt lat="43.26892199926078319549560546875" lon="-4.9971163272857666015625">
        <ele>1027.800048828125</ele>
        <time>2018-09-08T11:23:32.000Z</time>
      </trkpt>
      <trkpt lat="43.26900632120668888092041015625" lon="-4.99699101783335208892822265625">
        <ele>1027.5999755859375</ele>
        <time>2018-09-08T11:23:34.000Z</time>
      </trkpt>
      <trkpt lat="43.26925576664507389068603515625" lon="-4.99660494737327098846435546875">
        <ele>1026.5999755859375</ele>
        <time>2018-09-08T11:23:40.000Z</time>
      </trkpt>
      <trkpt lat="43.2694588601589202880859375" lon="-4.9962779693305492401123046875">
        <ele>1026.4000244140625</ele>
        <time>2018-09-08T11:23:45.000Z</time>
      </trkpt>
      <trkpt lat="43.26958567835390567779541015625" lon="-4.99609650112688541412353515625">
        <ele>1025.5999755859375</ele>
        <time>2018-09-08T11:23:48.000Z</time>
      </trkpt>
      <trkpt lat="43.26967117376625537872314453125" lon="-4.99597596935927867889404296875">
        <ele>1025</ele>
        <time>2018-09-08T11:23:50.000Z</time>
      </trkpt>
      <trkpt lat="43.26971559785306453704833984375" lon="-4.99591209925711154937744140625">
        <ele>1025</ele>
        <time>2018-09-08T11:23:51.000Z</time>
      </trkpt>
      <trkpt lat="43.2698073796927928924560546875" lon="-4.99578000046312808990478515625">
        <ele>1024.199951171875</ele>
        <time>2018-09-08T11:23:53.000Z</time>
      </trkpt>
      <trkpt lat="43.26989815570414066314697265625" lon="-4.99565108679234981536865234375">
        <ele>1023.4000244140625</ele>
        <time>2018-09-08T11:23:55.000Z</time>
      </trkpt>
      <trkpt lat="43.26998658478260040283203125" lon="-4.9955249391496181488037109375">
        <ele>1023</ele>
        <time>2018-09-08T11:23:57.000Z</time>
      </trkpt>
      <trkpt lat="43.270216248929500579833984375" lon="-4.9952027387917041778564453125">
        <ele>1022</ele>
        <time>2018-09-08T11:24:02.000Z</time>
      </trkpt>
      <trkpt lat="43.27030132524669170379638671875" lon="-4.99507240019738674163818359375">
        <ele>1021.20001220703125</ele>
        <time>2018-09-08T11:24:04.000Z</time>
      </trkpt>
      <trkpt lat="43.27041917480528354644775390625" lon="-4.99486821703612804412841796875">
        <ele>1021.4000244140625</ele>
        <time>2018-09-08T11:24:07.000Z</time>
      </trkpt>
      <trkpt lat="43.27050684951245784759521484375" lon="-4.9947450868785381317138671875">
        <ele>1021</ele>
        <time>2018-09-08T11:24:09.000Z</time>
      </trkpt>
      <trkpt lat="43.2705590687692165374755859375" lon="-4.99469052068889141082763671875">
        <ele>1020.4000244140625</ele>
        <time>2018-09-08T11:24:10.000Z</time>
      </trkpt>
      <trkpt lat="43.27061581425368785858154296875" lon="-4.99463503248989582061767578125">
        <ele>1020.20001220703125</ele>
        <time>2018-09-08T11:24:11.000Z</time>
      </trkpt>
      <trkpt lat="43.2706754095852375030517578125" lon="-4.99458222649991512298583984375">
        <ele>1019.79998779296875</ele>
        <time>2018-09-08T11:24:12.000Z</time>
      </trkpt>
      <trkpt lat="43.27085168100893497467041015625" lon="-4.994417689740657806396484375">
        <ele>1018.5999755859375</ele>
        <time>2018-09-08T11:24:15.000Z</time>
      </trkpt>
      <trkpt lat="43.27114320360124111175537109375" lon="-4.99413010664284229278564453125">
        <ele>1017.4000244140625</ele>
        <time>2018-09-08T11:24:20.000Z</time>
      </trkpt>
      <trkpt lat="43.271289132535457611083984375" lon="-4.99399230815470218658447265625">
        <ele>1018.20001220703125</ele>
        <time>2018-09-08T11:24:23.000Z</time>
      </trkpt>
      <trkpt lat="43.27133749611675739288330078125" lon="-4.99398057349026203155517578125">
        <ele>1018.4000244140625</ele>
        <time>2018-09-08T11:24:24.000Z</time>
      </trkpt>
      <trkpt lat="43.27144511975347995758056640625" lon="-4.99405399896204471588134765625">
        <ele>1018</ele>
        <time>2018-09-08T11:24:26.000Z</time>
      </trkpt>
      <trkpt lat="43.2715504802763462066650390625" lon="-4.99417972750961780548095703125">
        <ele>1016.4000244140625</ele>
        <time>2018-09-08T11:24:28.000Z</time>
      </trkpt>
      <trkpt lat="43.27160202898085117340087890625" lon="-4.9942472018301486968994140625">
        <ele>1016</ele>
        <time>2018-09-08T11:24:29.000Z</time>
      </trkpt>
      <trkpt lat="43.271655924618244171142578125" lon="-4.994309060275554656982421875">
        <ele>1015.5999755859375</ele>
        <time>2018-09-08T11:24:30.000Z</time>
      </trkpt>
      <trkpt lat="43.2718881033360958099365234375" lon="-4.99461391009390354156494140625">
        <ele>1017.20001220703125</ele>
        <time>2018-09-08T11:24:35.000Z</time>
      </trkpt>
      <trkpt lat="43.271932862699031829833984375" lon="-4.99463939107954502105712890625">
        <ele>1018.20001220703125</ele>
        <time>2018-09-08T11:24:36.000Z</time>
      </trkpt>
      <trkpt lat="43.2720131613314151763916015625" lon="-4.9946931190788745880126953125">
        <ele>1020.4000244140625</ele>
        <time>2018-09-08T11:24:38.000Z</time>
      </trkpt>
      <trkpt lat="43.2720446772873401641845703125" lon="-4.9947179295122623443603515625">
        <ele>1021</ele>
        <time>2018-09-08T11:24:39.000Z</time>
      </trkpt>
      <trkpt lat="43.2720761932432651519775390625" lon="-4.99474056065082550048828125">
        <ele>1021.5999755859375</ele>
        <time>2018-09-08T11:24:40.000Z</time>
      </trkpt>
      <trkpt lat="43.27213780023157596588134765625" lon="-4.9947846494615077972412109375">
        <ele>1022.5999755859375</ele>
        <time>2018-09-08T11:24:42.000Z</time>
      </trkpt>
      <trkpt lat="43.27216881327331066131591796875" lon="-4.9948124773800373077392578125">
        <ele>1023</ele>
        <time>2018-09-08T11:24:43.000Z</time>
      </trkpt>
      <trkpt lat="43.2722300849854946136474609375" lon="-4.99487777240574359893798828125">
        <ele>1024</ele>
        <time>2018-09-08T11:24:45.000Z</time>
      </trkpt>
      <trkpt lat="43.27225950546562671661376953125" lon="-4.9949053488671779632568359375">
        <ele>1024.4000244140625</ele>
        <time>2018-09-08T11:24:46.000Z</time>
      </trkpt>
      <trkpt lat="43.27232689596712589263916015625" lon="-4.99497617594897747039794921875">
        <ele>1025.5999755859375</ele>
        <time>2018-09-08T11:24:49.000Z</time>
      </trkpt>
      <trkpt lat="43.272351287305355072021484375" lon="-4.99499562196433544158935546875">
        <ele>1025.800048828125</ele>
        <time>2018-09-08T11:24:50.000Z</time>
      </trkpt>
      <trkpt lat="43.27243418432772159576416015625" lon="-4.9950515292584896087646484375">
        <ele>1027.199951171875</ele>
        <time>2018-09-08T11:24:54.000Z</time>
      </trkpt>
      <trkpt lat="43.2724522054195404052734375" lon="-4.9950733222067356109619140625">
        <ele>1027.4000244140625</ele>
        <time>2018-09-08T11:24:55.000Z</time>
      </trkpt>
      <trkpt lat="43.2725050114095211029052734375" lon="-4.9951474182307720184326171875">
        <ele>1028.199951171875</ele>
        <time>2018-09-08T11:24:58.000Z</time>
      </trkpt>
      <trkpt lat="43.27257717959582805633544921875" lon="-4.99519385397434234619140625">
        <ele>1028.800048828125</ele>
        <time>2018-09-08T11:25:01.000Z</time>
      </trkpt>
      <trkpt lat="43.2726024091243743896484375" lon="-4.99519980512559413909912109375">
        <ele>1029</ele>
        <time>2018-09-08T11:25:02.000Z</time>
      </trkpt>
      <trkpt lat="43.27262646518647670745849609375" lon="-4.99520533718168735504150390625">
        <ele>1029.4000244140625</ele>
        <time>2018-09-08T11:25:03.000Z</time>
      </trkpt>
      <trkpt lat="43.27278253622353076934814453125" lon="-4.9952067621052265167236328125">
        <ele>1030.4000244140625</ele>
        <time>2018-09-08T11:25:09.000Z</time>
      </trkpt>
      <trkpt lat="43.27285923063755035400390625" lon="-4.99517398886382579803466796875">
        <ele>1030.5999755859375</ele>
        <time>2018-09-08T11:25:12.000Z</time>
      </trkpt>
      <trkpt lat="43.2729009725153446197509765625" lon="-4.99514020979404449462890625">
        <ele>1031</ele>
        <time>2018-09-08T11:25:14.000Z</time>
      </trkpt>
      <trkpt lat="43.27294933609664440155029296875" lon="-4.9951363541185855865478515625">
        <ele>1031.5999755859375</ele>
        <time>2018-09-08T11:25:16.000Z</time>
      </trkpt>
      <trkpt lat="43.27304891310632228851318359375" lon="-4.995149932801723480224609375">
        <ele>1032.800048828125</ele>
        <time>2018-09-08T11:25:20.000Z</time>
      </trkpt>
      <trkpt lat="43.2731227576732635498046875" lon="-4.995166026055812835693359375">
        <ele>1033.800048828125</ele>
        <time>2018-09-08T11:25:23.000Z</time>
      </trkpt>
      <trkpt lat="43.27315066941082477569580078125" lon="-4.99516963027417659759521484375">
        <ele>1034</ele>
        <time>2018-09-08T11:25:24.000Z</time>
      </trkpt>
      <trkpt lat="43.2732704468071460723876953125" lon="-4.99513224698603153228759765625">
        <ele>1034.5999755859375</ele>
        <time>2018-09-08T11:25:29.000Z</time>
      </trkpt>
      <trkpt lat="43.27328930608928203582763671875" lon="-4.99510911293327808380126953125">
        <ele>1035</ele>
        <time>2018-09-08T11:25:30.000Z</time>
      </trkpt>
      <trkpt lat="43.27330187894403934478759765625" lon="-4.9950765073299407958984375">
        <ele>1035.199951171875</ele>
        <time>2018-09-08T11:25:31.000Z</time>
      </trkpt>
      <trkpt lat="43.27332903631031513214111328125" lon="-4.99497793614864349365234375">
        <ele>1036.199951171875</ele>
        <time>2018-09-08T11:25:34.000Z</time>
      </trkpt>
      <trkpt lat="43.27339039184153079986572265625" lon="-4.994917251169681549072265625">
        <ele>1036.800048828125</ele>
        <time>2018-09-08T11:25:37.000Z</time>
      </trkpt>
      <trkpt lat="43.27343917451798915863037109375" lon="-4.99490811489522457122802734375">
        <ele>1037.199951171875</ele>
        <time>2018-09-08T11:25:39.000Z</time>
      </trkpt>
      <trkpt lat="43.27350505627691745758056640625" lon="-4.9949003197252750396728515625">
        <ele>1038.199951171875</ele>
        <time>2018-09-08T11:25:42.000Z</time>
      </trkpt>
      <trkpt lat="43.27353003434836864471435546875" lon="-4.99489068053662776947021484375">
        <ele>1038.4000244140625</ele>
        <time>2018-09-08T11:25:43.000Z</time>
      </trkpt>
      <trkpt lat="43.27357479371130466461181640625" lon="-4.99488548375666141510009765625">
        <ele>1039</ele>
        <time>2018-09-08T11:25:45.000Z</time>
      </trkpt>
      <trkpt lat="43.27359742484986782073974609375" lon="-4.9948798678815364837646484375">
        <ele>1039.4000244140625</ele>
        <time>2018-09-08T11:25:46.000Z</time>
      </trkpt>
      <trkpt lat="43.27366112731397151947021484375" lon="-4.9948691390454769134521484375">
        <ele>1040.4000244140625</ele>
        <time>2018-09-08T11:25:49.000Z</time>
      </trkpt>
      <trkpt lat="43.27367990277707576751708984375" lon="-4.99486855231225490570068359375">
        <ele>1040.800048828125</ele>
        <time>2018-09-08T11:25:50.000Z</time>
      </trkpt>
      <trkpt lat="43.2737230695784091949462890625" lon="-4.994879029691219329833984375">
        <ele>1041.4000244140625</ele>
        <time>2018-09-08T11:25:52.000Z</time>
      </trkpt>
      <trkpt lat="43.2737418450415134429931640625" lon="-4.99488447792828083038330078125">
        <ele>1041.800048828125</ele>
        <time>2018-09-08T11:25:53.000Z</time>
      </trkpt>
      <trkpt lat="43.27382482588291168212890625" lon="-4.99492219649255275726318359375">
        <ele>1043</ele>
        <time>2018-09-08T11:25:57.000Z</time>
      </trkpt>
      <trkpt lat="43.27386883087456226348876953125" lon="-4.994951784610748291015625">
        <ele>1043.5999755859375</ele>
        <time>2018-09-08T11:25:59.000Z</time>
      </trkpt>
      <trkpt lat="43.2739195413887500762939453125" lon="-4.9950015731155872344970703125">
        <ele>1044.199951171875</ele>
        <time>2018-09-08T11:26:02.000Z</time>
      </trkpt>
      <trkpt lat="43.2739621214568614959716796875" lon="-4.99506703577935695648193359375">
        <ele>1045.199951171875</ele>
        <time>2018-09-08T11:26:05.000Z</time>
      </trkpt>
      <trkpt lat="43.27401735819876194000244140625" lon="-4.9951507709920406341552734375">
        <ele>1046.199951171875</ele>
        <time>2018-09-08T11:26:09.000Z</time>
      </trkpt>
      <trkpt lat="43.274085335433483123779296875" lon="-4.9952159821987152099609375">
        <ele>1047.199951171875</ele>
        <time>2018-09-08T11:26:13.000Z</time>
      </trkpt>
      <trkpt lat="43.27410553582012653350830078125" lon="-4.99522713012993335723876953125">
        <ele>1047.5999755859375</ele>
        <time>2018-09-08T11:26:14.000Z</time>
      </trkpt>
      <trkpt lat="43.2741634547710418701171875" lon="-4.99526401050388813018798828125">
        <ele>1048.5999755859375</ele>
        <time>2018-09-08T11:26:17.000Z</time>
      </trkpt>
      <trkpt lat="43.27423612587153911590576171875" lon="-4.99527507461607456207275390625">
        <ele>1049.5999755859375</ele>
        <time>2018-09-08T11:26:21.000Z</time>
      </trkpt>
      <trkpt lat="43.27425305731594562530517578125" lon="-4.995265938341617584228515625">
        <ele>1049.800048828125</ele>
        <time>2018-09-08T11:26:22.000Z</time>
      </trkpt>
      <trkpt lat="43.27430670149624347686767578125" lon="-4.9952547065913677215576171875">
        <ele>1050.800048828125</ele>
        <time>2018-09-08T11:26:25.000Z</time>
      </trkpt>
      <trkpt lat="43.274346850812435150146484375" lon="-4.99523299746215343475341796875">
        <ele>1051.5999755859375</ele>
        <time>2018-09-08T11:26:28.000Z</time>
      </trkpt>
      <trkpt lat="43.27435280196368694305419921875" lon="-4.99522360973060131072998046875">
        <ele>1051.800048828125</ele>
        <time>2018-09-08T11:26:29.000Z</time>
      </trkpt>
      <trkpt lat="43.27437258325517177581787109375" lon="-4.9952000565826892852783203125">
        <ele>1052</ele>
        <time>2018-09-08T11:26:33.000Z</time>
      </trkpt>
      <trkpt lat="43.27437191270291805267333984375" lon="-4.99513459391891956329345703125">
        <ele>1051.800048828125</ele>
        <time>2018-09-08T11:27:03.000Z</time>
      </trkpt>
      <trkpt lat="43.274367637932300567626953125" lon="-4.99503719620406627655029296875">
        <ele>1051.4000244140625</ele>
        <time>2018-09-08T11:27:05.000Z</time>
      </trkpt>
      <trkpt lat="43.274387754499912261962890625" lon="-4.99489788897335529327392578125">
        <ele>1050.4000244140625</ele>
        <time>2018-09-08T11:27:07.000Z</time>
      </trkpt>
      <trkpt lat="43.2744301669299602508544921875" lon="-4.99472178518772125244140625">
        <ele>1049</ele>
        <time>2018-09-08T11:27:09.000Z</time>
      </trkpt>
      <trkpt lat="43.2744539715349674224853515625" lon="-4.99462363310158252716064453125">
        <ele>1048.199951171875</ele>
        <time>2018-09-08T11:27:10.000Z</time>
      </trkpt>
      <trkpt lat="43.27446830458939075469970703125" lon="-4.99451525509357452392578125">
        <ele>1047.4000244140625</ele>
        <time>2018-09-08T11:27:11.000Z</time>
      </trkpt>
      <trkpt lat="43.27445975504815578460693359375" lon="-4.9942773766815662384033203125">
        <ele>1045.5999755859375</ele>
        <time>2018-09-08T11:27:13.000Z</time>
      </trkpt>
      <trkpt lat="43.27439303509891033172607421875" lon="-4.994029104709625244140625">
        <ele>1044</ele>
        <time>2018-09-08T11:27:15.000Z</time>
      </trkpt>
      <trkpt lat="43.274358250200748443603515625" lon="-4.99390044249594211578369140625">
        <ele>1043.199951171875</ele>
        <time>2018-09-08T11:27:16.000Z</time>
      </trkpt>
      <trkpt lat="43.27433050610125064849853515625" lon="-4.99376633204519748687744140625">
        <ele>1042.199951171875</ele>
        <time>2018-09-08T11:27:17.000Z</time>
      </trkpt>
      <trkpt lat="43.274312652647495269775390625" lon="-4.99362409114837646484375">
        <ele>1040.4000244140625</ele>
        <time>2018-09-08T11:27:18.000Z</time>
      </trkpt>
      <trkpt lat="43.2742927037179470062255859375" lon="-4.9933238513767719268798828125">
        <ele>1038</ele>
        <time>2018-09-08T11:27:20.000Z</time>
      </trkpt>
      <trkpt lat="43.27425121329724788665771484375" lon="-4.9930177442729473114013671875">
        <ele>1036.199951171875</ele>
        <time>2018-09-08T11:27:22.000Z</time>
      </trkpt>
      <trkpt lat="43.2741740159690380096435546875" lon="-4.99272395856678485870361328125">
        <ele>1034.5999755859375</ele>
        <time>2018-09-08T11:27:24.000Z</time>
      </trkpt>
      <trkpt lat="43.27413286082446575164794921875" lon="-4.992579035460948944091796875">
        <ele>1033.5999755859375</ele>
        <time>2018-09-08T11:27:25.000Z</time>
      </trkpt>
      <trkpt lat="43.27409329824149608612060546875" lon="-4.99243327416479587554931640625">
        <ele>1032.4000244140625</ele>
        <time>2018-09-08T11:27:26.000Z</time>
      </trkpt>
      <trkpt lat="43.2740536518394947052001953125" lon="-4.9922851659357547760009765625">
        <ele>1031.199951171875</ele>
        <time>2018-09-08T11:27:27.000Z</time>
      </trkpt>
      <trkpt lat="43.27401936985552310943603515625" lon="-4.99213487841188907623291015625">
        <ele>1030</ele>
        <time>2018-09-08T11:27:28.000Z</time>
      </trkpt>
      <trkpt lat="43.27398550696671009063720703125" lon="-4.9919817410409450531005859375">
        <ele>1029</ele>
        <time>2018-09-08T11:27:29.000Z</time>
      </trkpt>
      <trkpt lat="43.27395415864884853363037109375" lon="-4.991826005280017852783203125">
        <ele>1027.800048828125</ele>
        <time>2018-09-08T11:27:30.000Z</time>
      </trkpt>
      <trkpt lat="43.27392549254000186920166015625" lon="-4.99166674911975860595703125">
        <ele>1026.800048828125</ele>
        <time>2018-09-08T11:27:31.000Z</time>
      </trkpt>
      <trkpt lat="43.273872770369052886962890625" lon="-4.9913428723812103271484375">
        <ele>1025</ele>
        <time>2018-09-08T11:27:33.000Z</time>
      </trkpt>
      <trkpt lat="43.27385340817272663116455078125" lon="-4.99118671752512454986572265625">
        <ele>1023.79998779296875</ele>
        <time>2018-09-08T11:27:34.000Z</time>
      </trkpt>
      <trkpt lat="43.27383832074701786041259765625" lon="-4.99103148467838764190673828125">
        <ele>1022.5999755859375</ele>
        <time>2018-09-08T11:27:35.000Z</time>
      </trkpt>
      <trkpt lat="43.27382407151162624359130859375" lon="-4.9908743239939212799072265625">
        <ele>1021.79998779296875</ele>
        <time>2018-09-08T11:27:36.000Z</time>
      </trkpt>
      <trkpt lat="43.273807726800441741943359375" lon="-4.99072286300361156463623046875">
        <ele>1021</ele>
        <time>2018-09-08T11:27:37.000Z</time>
      </trkpt>
      <trkpt lat="43.27379356138408184051513671875" lon="-4.990578778088092803955078125">
        <ele>1020.20001220703125</ele>
        <time>2018-09-08T11:27:38.000Z</time>
      </trkpt>
      <trkpt lat="43.2737837545573711395263671875" lon="-4.99043921940028667449951171875">
        <ele>1019.20001220703125</ele>
        <time>2018-09-08T11:27:39.000Z</time>
      </trkpt>
      <trkpt lat="43.27377294190227985382080078125" lon="-4.99017904512584209442138671875">
        <ele>1018.20001220703125</ele>
        <time>2018-09-08T11:27:41.000Z</time>
      </trkpt>
      <trkpt lat="43.27377042733132839202880859375" lon="-4.98992264270782470703125">
        <ele>1017</ele>
        <time>2018-09-08T11:27:43.000Z</time>
      </trkpt>
      <trkpt lat="43.27378467656672000885009765625" lon="-4.98967076651751995086669921875">
        <ele>1016.20001220703125</ele>
        <time>2018-09-08T11:27:45.000Z</time>
      </trkpt>
      <trkpt lat="43.27380546368658542633056640625" lon="-4.989549480378627777099609375">
        <ele>1015.5999755859375</ele>
        <time>2018-09-08T11:27:46.000Z</time>
      </trkpt>
      <trkpt lat="43.2738684117794036865234375" lon="-4.9893152900040149688720703125">
        <ele>1014.5999755859375</ele>
        <time>2018-09-08T11:27:48.000Z</time>
      </trkpt>
      <trkpt lat="43.27391878701746463775634765625" lon="-4.98908604495227336883544921875">
        <ele>1014</ele>
        <time>2018-09-08T11:27:50.000Z</time>
      </trkpt>
      <trkpt lat="43.27393890358507633209228515625" lon="-4.9888754077255725860595703125">
        <ele>1013.20001220703125</ele>
        <time>2018-09-08T11:27:52.000Z</time>
      </trkpt>
      <trkpt lat="43.27390554361045360565185546875" lon="-4.98867751099169254302978515625">
        <ele>1012.79998779296875</ele>
        <time>2018-09-08T11:27:54.000Z</time>
      </trkpt>
      <trkpt lat="43.2737626321613788604736328125" lon="-4.98833770863711833953857421875">
        <ele>1012.20001220703125</ele>
        <time>2018-09-08T11:27:58.000Z</time>
      </trkpt>
      <trkpt lat="43.27371829189360141754150390625" lon="-4.98826780356466770172119140625">
        <ele>1012.4000244140625</ele>
        <time>2018-09-08T11:27:59.000Z</time>
      </trkpt>
      <trkpt lat="43.27355702407658100128173828125" lon="-4.9881217069923877716064453125">
        <ele>1012.79998779296875</ele>
        <time>2018-09-08T11:28:02.000Z</time>
      </trkpt>
      <trkpt lat="43.2734444551169872283935546875" lon="-4.98805775307118892669677734375">
        <ele>1013.5999755859375</ele>
        <time>2018-09-08T11:28:04.000Z</time>
      </trkpt>
      <trkpt lat="43.27332685701549053192138671875" lon="-4.98801265843212604522705078125">
        <ele>1014.79998779296875</ele>
        <time>2018-09-08T11:28:06.000Z</time>
      </trkpt>
      <trkpt lat="43.27326986007392406463623046875" lon="-4.98799421824514865875244140625">
        <ele>1015.4000244140625</ele>
        <time>2018-09-08T11:28:07.000Z</time>
      </trkpt>
      <trkpt lat="43.27321604825556278228759765625" lon="-4.98798298649489879608154296875">
        <ele>1016</ele>
        <time>2018-09-08T11:28:08.000Z</time>
      </trkpt>
      <trkpt lat="43.27312887646257877349853515625" lon="-4.98795767314732074737548828125">
        <ele>1017.4000244140625</ele>
        <time>2018-09-08T11:28:10.000Z</time>
      </trkpt>
      <trkpt lat="43.27308931387960910797119140625" lon="-4.9879453517496585845947265625">
        <ele>1017.79998779296875</ele>
        <time>2018-09-08T11:28:11.000Z</time>
      </trkpt>
      <trkpt lat="43.27301706187427043914794921875" lon="-4.98792347498238086700439453125">
        <ele>1018.4000244140625</ele>
        <time>2018-09-08T11:28:13.000Z</time>
      </trkpt>
      <trkpt lat="43.2729180715978145599365234375" lon="-4.98790738172829151153564453125">
        <ele>1019.4000244140625</ele>
        <time>2018-09-08T11:28:16.000Z</time>
      </trkpt>
      <trkpt lat="43.2728567160665988922119140625" lon="-4.9878907017409801483154296875">
        <ele>1020</ele>
        <time>2018-09-08T11:28:18.000Z</time>
      </trkpt>
      <trkpt lat="43.2728008925914764404296875" lon="-4.9878729321062564849853515625">
        <ele>1020.5999755859375</ele>
        <time>2018-09-08T11:28:20.000Z</time>
      </trkpt>
      <trkpt lat="43.272710703313350677490234375" lon="-4.987857006490230560302734375">
        <ele>1021.5999755859375</ele>
        <time>2018-09-08T11:28:24.000Z</time>
      </trkpt>
      <trkpt lat="43.272689916193485260009765625" lon="-4.9878565035760402679443359375">
        <ele>1021.79998779296875</ele>
        <time>2018-09-08T11:28:25.000Z</time>
      </trkpt>
      <trkpt lat="43.2726468332111835479736328125" lon="-4.987855665385723114013671875">
        <ele>1022.20001220703125</ele>
        <time>2018-09-08T11:28:27.000Z</time>
      </trkpt>
      <trkpt lat="43.27258120290935039520263671875" lon="-4.98784502036869525909423828125">
        <ele>1023</ele>
        <time>2018-09-08T11:28:30.000Z</time>
      </trkpt>
      <trkpt lat="43.272518925368785858154296875" lon="-4.98782389797270298004150390625">
        <ele>1023.5999755859375</ele>
        <time>2018-09-08T11:28:33.000Z</time>
      </trkpt>
      <trkpt lat="43.27245287597179412841796875" lon="-4.9877948127686977386474609375">
        <ele>1024.199951171875</ele>
        <time>2018-09-08T11:28:36.000Z</time>
      </trkpt>
      <trkpt lat="43.272366710007190704345703125" lon="-4.9877438507974147796630859375">
        <ele>1025</ele>
        <time>2018-09-08T11:28:40.000Z</time>
      </trkpt>
      <trkpt lat="43.27234533615410327911376953125" lon="-4.98772901482880115509033203125">
        <ele>1025.199951171875</ele>
        <time>2018-09-08T11:28:41.000Z</time>
      </trkpt>
      <trkpt lat="43.27221608720719814300537109375" lon="-4.98765056021511554718017578125">
        <ele>1026.4000244140625</ele>
        <time>2018-09-08T11:28:47.000Z</time>
      </trkpt>
      <trkpt lat="43.2722002454102039337158203125" lon="-4.987629018723964691162109375">
        <ele>1026.5999755859375</ele>
        <time>2018-09-08T11:28:48.000Z</time>
      </trkpt>
      <trkpt lat="43.27211919240653514862060546875" lon="-4.98756808228790760040283203125">
        <ele>1027.4000244140625</ele>
        <time>2018-09-08T11:28:52.000Z</time>
      </trkpt>
      <trkpt lat="43.272063620388507843017578125" lon="-4.98751544393599033355712890625">
        <ele>1028.199951171875</ele>
        <time>2018-09-08T11:28:55.000Z</time>
      </trkpt>
      <trkpt lat="43.27203311026096343994140625" lon="-4.98747554607689380645751953125">
        <ele>1028.4000244140625</ele>
        <time>2018-09-08T11:28:57.000Z</time>
      </trkpt>
      <trkpt lat="43.2719729281961917877197265625" lon="-4.987383596599102020263671875">
        <ele>1029.4000244140625</ele>
        <time>2018-09-08T11:29:01.000Z</time>
      </trkpt>
      <trkpt lat="43.271963037550449371337890625" lon="-4.98735585249960422515869140625">
        <ele>1029.5999755859375</ele>
        <time>2018-09-08T11:29:02.000Z</time>
      </trkpt>
      <trkpt lat="43.2719487883150577545166015625" lon="-4.9872349016368389129638671875">
        <ele>1030.5999755859375</ele>
        <time>2018-09-08T11:29:06.000Z</time>
      </trkpt>
      <trkpt lat="43.27194987796247005462646484375" lon="-4.98720514588057994842529296875">
        <ele>1030.800048828125</ele>
        <time>2018-09-08T11:29:07.000Z</time>
      </trkpt>
      <trkpt lat="43.2719645462930202484130859375" lon="-4.98705041594803333282470703125">
        <ele>1031.5999755859375</ele>
        <time>2018-09-08T11:29:12.000Z</time>
      </trkpt>
      <trkpt lat="43.2719729281961917877197265625" lon="-4.9869562871754169464111328125">
        <ele>1032.199951171875</ele>
        <time>2018-09-08T11:29:15.000Z</time>
      </trkpt>
      <trkpt lat="43.27198843471705913543701171875" lon="-4.98686634935438632965087890625">
        <ele>1032.800048828125</ele>
        <time>2018-09-08T11:29:18.000Z</time>
      </trkpt>
      <trkpt lat="43.27202984131872653961181640625" lon="-4.986713044345378875732421875">
        <ele>1034</ele>
        <time>2018-09-08T11:29:23.000Z</time>
      </trkpt>
      <trkpt lat="43.2720440067350864410400390625" lon="-4.986685216426849365234375">
        <ele>1034</ele>
        <time>2018-09-08T11:29:24.000Z</time>
      </trkpt>
      <trkpt lat="43.2721035182476043701171875" lon="-4.98658454976975917816162109375">
        <ele>1035</ele>
        <time>2018-09-08T11:29:28.000Z</time>
      </trkpt>
      <trkpt lat="43.27217954210937023162841796875" lon="-4.98650257475674152374267578125">
        <ele>1036</ele>
        <time>2018-09-08T11:29:32.000Z</time>
      </trkpt>
      <trkpt lat="43.27219882048666477203369140625" lon="-4.986484050750732421875">
        <ele>1036.199951171875</ele>
        <time>2018-09-08T11:29:33.000Z</time>
      </trkpt>
      <trkpt lat="43.2723192684352397918701171875" lon="-4.98635907657444477081298828125">
        <ele>1037</ele>
        <time>2018-09-08T11:29:39.000Z</time>
      </trkpt>
      <trkpt lat="43.272341229021549224853515625" lon="-4.98634130693972110748291015625">
        <ele>1037.199951171875</ele>
        <time>2018-09-08T11:29:40.000Z</time>
      </trkpt>
      <trkpt lat="43.27251766808331012725830078125" lon="-4.9861593358218669891357421875">
        <ele>1038.199951171875</ele>
        <time>2018-09-08T11:29:48.000Z</time>
      </trkpt>
      <trkpt lat="43.272665441036224365234375" lon="-4.9860347807407379150390625">
        <ele>1039.199951171875</ele>
        <time>2018-09-08T11:29:54.000Z</time>
      </trkpt>
      <trkpt lat="43.27271707355976104736328125" lon="-4.9859796278178691864013671875">
        <ele>1039.4000244140625</ele>
        <time>2018-09-08T11:29:56.000Z</time>
      </trkpt>
      <trkpt lat="43.272861577570438385009765625" lon="-4.9859015084803104400634765625">
        <ele>1040.199951171875</ele>
        <time>2018-09-08T11:30:01.000Z</time>
      </trkpt>
      <trkpt lat="43.27289066277444362640380859375" lon="-4.9858870916068553924560546875">
        <ele>1040.4000244140625</ele>
        <time>2018-09-08T11:30:02.000Z</time>
      </trkpt>
      <trkpt lat="43.27307489700615406036376953125" lon="-4.9858309328556060791015625">
        <ele>1041.5999755859375</ele>
        <time>2018-09-08T11:30:08.000Z</time>
      </trkpt>
      <trkpt lat="43.2731366716325283050537109375" lon="-4.985812492668628692626953125">
        <ele>1041.800048828125</ele>
        <time>2018-09-08T11:30:10.000Z</time>
      </trkpt>
      <trkpt lat="43.27331788837909698486328125" lon="-4.98571249656379222869873046875">
        <ele>1042.5999755859375</ele>
        <time>2018-09-08T11:30:16.000Z</time>
      </trkpt>
      <trkpt lat="43.2733710296452045440673828125" lon="-4.98566136695444583892822265625">
        <ele>1042.800048828125</ele>
        <time>2018-09-08T11:30:18.000Z</time>
      </trkpt>
      <trkpt lat="43.273501954972743988037109375" lon="-4.9855397455394268035888671875">
        <ele>1043.800048828125</ele>
        <time>2018-09-08T11:30:23.000Z</time>
      </trkpt>
      <trkpt lat="43.27363707125186920166015625" lon="-4.985422901809215545654296875">
        <ele>1044.5999755859375</ele>
        <time>2018-09-08T11:30:28.000Z</time>
      </trkpt>
      <trkpt lat="43.2736962474882602691650390625" lon="-4.9853744544088840484619140625">
        <ele>1045.199951171875</ele>
        <time>2018-09-08T11:30:30.000Z</time>
      </trkpt>
      <trkpt lat="43.27386447228491306304931640625" lon="-4.98522466979920864105224609375">
        <ele>1046.199951171875</ele>
        <time>2018-09-08T11:30:36.000Z</time>
      </trkpt>
      <trkpt lat="43.2740751095116138458251953125" lon="-4.98507656157016754150390625">
        <ele>1047.4000244140625</ele>
        <time>2018-09-08T11:30:43.000Z</time>
      </trkpt>
      <trkpt lat="43.274164460599422454833984375" lon="-4.98500003479421138763427734375">
        <ele>1047.800048828125</ele>
        <time>2018-09-08T11:30:46.000Z</time>
      </trkpt>
      <trkpt lat="43.27429999597370624542236328125" lon="-4.98485662043094635009765625">
        <ele>1048.5999755859375</ele>
        <time>2018-09-08T11:30:51.000Z</time>
      </trkpt>
      <trkpt lat="43.274366296827793121337890625" lon="-4.98476081527769565582275390625">
        <ele>1049</ele>
        <time>2018-09-08T11:30:54.000Z</time>
      </trkpt>
      <trkpt lat="43.2744301669299602508544921875" lon="-4.98459418304264545440673828125">
        <ele>1049.5999755859375</ele>
        <time>2018-09-08T11:30:58.000Z</time>
      </trkpt>
      <trkpt lat="43.274467550218105316162109375" lon="-4.98451589606702327728271484375">
        <ele>1050</ele>
        <time>2018-09-08T11:31:00.000Z</time>
      </trkpt>
      <trkpt lat="43.274532258510589599609375" lon="-4.98441380448639392852783203125">
        <ele>1050.800048828125</ele>
        <time>2018-09-08T11:31:03.000Z</time>
      </trkpt>
      <trkpt lat="43.27464365400373935699462890625" lon="-4.98433836735785007476806640625">
        <ele>1051</ele>
        <time>2018-09-08T11:31:06.000Z</time>
      </trkpt>
      <trkpt lat="43.27472336590290069580078125" lon="-4.98429209925234317779541015625">
        <ele>1051.4000244140625</ele>
        <time>2018-09-08T11:31:08.000Z</time>
      </trkpt>
      <trkpt lat="43.27479855157434940338134765625" lon="-4.98423728160560131072998046875">
        <ele>1052</ele>
        <time>2018-09-08T11:31:10.000Z</time>
      </trkpt>
      <trkpt lat="43.27491019852459430694580078125" lon="-4.98417156748473644256591796875">
        <ele>1052.5999755859375</ele>
        <time>2018-09-08T11:31:13.000Z</time>
      </trkpt>
      <trkpt lat="43.2750252820551395416259765625" lon="-4.9841188453137874603271484375">
        <ele>1053.199951171875</ele>
        <time>2018-09-08T11:31:16.000Z</time>
      </trkpt>
      <trkpt lat="43.275170959532260894775390625" lon="-4.9840387143194675445556640625">
        <ele>1054</ele>
        <time>2018-09-08T11:31:20.000Z</time>
      </trkpt>
      <trkpt lat="43.27524128369987010955810546875" lon="-4.98398381285369396209716796875">
        <ele>1054.199951171875</ele>
        <time>2018-09-08T11:31:22.000Z</time>
      </trkpt>
      <trkpt lat="43.275382183492183685302734375" lon="-4.9838841520249843597412109375">
        <ele>1054.5999755859375</ele>
        <time>2018-09-08T11:31:26.000Z</time>
      </trkpt>
      <trkpt lat="43.2754433713853359222412109375" lon="-4.98381298966705799102783203125">
        <ele>1054.800048828125</ele>
        <time>2018-09-08T11:31:28.000Z</time>
      </trkpt>
      <trkpt lat="43.2755003683269023895263671875" lon="-4.98366144485771656036376953125">
        <ele>1055</ele>
        <time>2018-09-08T11:31:31.000Z</time>
      </trkpt>
      <trkpt lat="43.275483436882495880126953125" lon="-4.98350503854453563690185546875">
        <ele>1055.4000244140625</ele>
        <time>2018-09-08T11:31:34.000Z</time>
      </trkpt>
      <trkpt lat="43.275457285344600677490234375" lon="-4.9834647215902805328369140625">
        <ele>1055.5999755859375</ele>
        <time>2018-09-08T11:31:35.000Z</time>
      </trkpt>
      <trkpt lat="43.27536114491522312164306640625" lon="-4.98337411321699619293212890625">
        <ele>1056</ele>
        <time>2018-09-08T11:31:38.000Z</time>
      </trkpt>
      <trkpt lat="43.275294005870819091796875" lon="-4.98332683928310871124267578125">
        <ele>1056.4000244140625</ele>
        <time>2018-09-08T11:31:40.000Z</time>
      </trkpt>
      <trkpt lat="43.27526173554360866546630859375" lon="-4.98330856673419475555419921875">
        <ele>1056.5999755859375</ele>
        <time>2018-09-08T11:31:41.000Z</time>
      </trkpt>
      <trkpt lat="43.27505419962108135223388671875" lon="-4.98321033082902431488037109375">
        <ele>1057.4000244140625</ele>
        <time>2018-09-08T11:31:47.000Z</time>
      </trkpt>
      <trkpt lat="43.27498345635831356048583984375" lon="-4.9831680022180080413818359375">
        <ele>1058</ele>
        <time>2018-09-08T11:31:49.000Z</time>
      </trkpt>
      <trkpt lat="43.2748583145439624786376953125" lon="-4.9830265156924724578857421875">
        <ele>1058</ele>
        <time>2018-09-08T11:31:53.000Z</time>
      </trkpt>
      <trkpt lat="43.27483207918703556060791015625" lon="-4.98298217542469501495361328125">
        <ele>1058</ele>
        <time>2018-09-08T11:31:54.000Z</time>
      </trkpt>
      <trkpt lat="43.2746534608304500579833984375" lon="-4.9828397668898105621337890625">
        <ele>1058.800048828125</ele>
        <time>2018-09-08T11:31:59.000Z</time>
      </trkpt>
      <trkpt lat="43.2745791971683502197265625" lon="-4.9827904812991619110107421875">
        <ele>1059</ele>
        <time>2018-09-08T11:32:01.000Z</time>
      </trkpt>
      <trkpt lat="43.2743875868618488311767578125" lon="-4.9826587177813053131103515625">
        <ele>1060</ele>
        <time>2018-09-08T11:32:06.000Z</time>
      </trkpt>
      <trkpt lat="43.27434911392629146575927734375" lon="-4.9826318956911563873291015625">
        <ele>1060.199951171875</ele>
        <time>2018-09-08T11:32:07.000Z</time>
      </trkpt>
      <trkpt lat="43.27415582723915576934814453125" lon="-4.982471130788326263427734375">
        <ele>1060.5999755859375</ele>
        <time>2018-09-08T11:32:12.000Z</time>
      </trkpt>
      <trkpt lat="43.27409229241311550140380859375" lon="-4.98236484825611114501953125">
        <ele>1060.800048828125</ele>
        <time>2018-09-08T11:32:14.000Z</time>
      </trkpt>
      <trkpt lat="43.27399925328791141510009765625" lon="-4.9821321666240692138671875">
        <ele>1061.199951171875</ele>
        <time>2018-09-08T11:32:18.000Z</time>
      </trkpt>
      <trkpt lat="43.27397813089191913604736328125" lon="-4.98207206837832927703857421875">
        <ele>1061.4000244140625</ele>
        <time>2018-09-08T11:32:19.000Z</time>
      </trkpt>
      <trkpt lat="43.2738813199102878570556640625" lon="-4.98179261572659015655517578125">
        <ele>1062</ele>
        <time>2018-09-08T11:32:24.000Z</time>
      </trkpt>
      <trkpt lat="43.273807726800441741943359375" lon="-4.98171768151223659515380859375">
        <ele>1062.199951171875</ele>
        <time>2018-09-08T11:32:26.000Z</time>
      </trkpt>
      <trkpt lat="43.27360983006656169891357421875" lon="-4.981692619621753692626953125">
        <ele>1062.199951171875</ele>
        <time>2018-09-08T11:32:30.000Z</time>
      </trkpt>
      <trkpt lat="43.27343397773802280426025390625" lon="-4.98182748444378376007080078125">
        <ele>1062.199951171875</ele>
        <time>2018-09-08T11:32:34.000Z</time>
      </trkpt>
      <trkpt lat="43.27339642681181430816650390625" lon="-4.98186822049319744110107421875">
        <ele>1062.199951171875</ele>
        <time>2018-09-08T11:32:35.000Z</time>
      </trkpt>
      <trkpt lat="43.27336457557976245880126953125" lon="-4.9819127283990383148193359375">
        <ele>1062.199951171875</ele>
        <time>2018-09-08T11:32:36.000Z</time>
      </trkpt>
      <trkpt lat="43.27321772463619709014892578125" lon="-4.982041977345943450927734375">
        <ele>1062.199951171875</ele>
        <time>2018-09-08T11:32:40.000Z</time>
      </trkpt>
      <trkpt lat="43.27302427031099796295166015625" lon="-4.9822050891816616058349609375">
        <ele>1062.199951171875</ele>
        <time>2018-09-08T11:32:45.000Z</time>
      </trkpt>
      <trkpt lat="43.27284690923988819122314453125" lon="-4.9823459051549434661865234375">
        <ele>1062.4000244140625</ele>
        <time>2018-09-08T11:32:50.000Z</time>
      </trkpt>
      <trkpt lat="43.272771723568439483642578125" lon="-4.982406757771968841552734375">
        <ele>1062.199951171875</ele>
        <time>2018-09-08T11:32:52.000Z</time>
      </trkpt>
      <trkpt lat="43.2725754193961620330810546875" lon="-4.98253424651920795440673828125">
        <ele>1062.199951171875</ele>
        <time>2018-09-08T11:32:57.000Z</time>
      </trkpt>
      <trkpt lat="43.27244424261152744293212890625" lon="-4.9825909920036792755126953125">
        <ele>1062</ele>
        <time>2018-09-08T11:33:00.000Z</time>
      </trkpt>
      <trkpt lat="43.27215909026563167572021484375" lon="-4.982657544314861297607421875">
        <ele>1062</ele>
        <time>2018-09-08T11:33:07.000Z</time>
      </trkpt>
      <trkpt lat="43.27207745052874088287353515625" lon="-4.98266014270484447479248046875">
        <ele>1062.199951171875</ele>
        <time>2018-09-08T11:33:09.000Z</time>
      </trkpt>
      <trkpt lat="43.27195658348500728607177734375" lon="-4.98264170251786708831787109375">
        <ele>1062.199951171875</ele>
        <time>2018-09-08T11:33:12.000Z</time>
      </trkpt>
      <trkpt lat="43.2718827389180660247802734375" lon="-4.98260381631553173065185546875">
        <ele>1062.199951171875</ele>
        <time>2018-09-08T11:33:14.000Z</time>
      </trkpt>
      <trkpt lat="43.2717523165047168731689453125" lon="-4.9824139662086963653564453125">
        <ele>1061.800048828125</ele>
        <time>2018-09-08T11:33:19.000Z</time>
      </trkpt>
      <trkpt lat="43.2717132568359375" lon="-4.98233878053724765777587890625">
        <ele>1061</ele>
        <time>2018-09-08T11:33:21.000Z</time>
      </trkpt>
      <trkpt lat="43.271694816648960113525390625" lon="-4.982303492724895477294921875">
        <ele>1060.800048828125</ele>
        <time>2018-09-08T11:33:23.000Z</time>
      </trkpt>
      <trkpt lat="43.2716601155698299407958984375" lon="-4.98235889710485935211181640625">
        <ele>1060.5999755859375</ele>
        <time>2018-09-08T11:34:11.000Z</time>
      </trkpt>
      <trkpt lat="43.2716550864279270172119140625" lon="-4.9823700450360774993896484375">
        <ele>1060.5999755859375</ele>
        <time>2018-09-08T11:34:12.000Z</time>
      </trkpt>
      <trkpt lat="43.2716126739978790283203125" lon="-4.98231296427547931671142578125">
        <ele>1060</ele>
        <time>2018-09-08T11:34:32.000Z</time>
      </trkpt>
      <trkpt lat="43.271594904363155364990234375" lon="-4.9823046661913394927978515625">
        <ele>1060.4000244140625</ele>
        <time>2018-09-08T11:34:35.000Z</time>
      </trkpt>
      <trkpt lat="43.2715880312025547027587890625" lon="-4.9822879023849964141845703125">
        <ele>1060.4000244140625</ele>
        <time>2018-09-08T11:34:36.000Z</time>
      </trkpt>
      <trkpt lat="43.2716269232332706451416015625" lon="-4.98229284770786762237548828125">
        <ele>1055.5999755859375</ele>
        <time>2018-09-08T13:34:20.000Z</time>
      </trkpt>
      <trkpt lat="43.2716413401067256927490234375" lon="-4.98229452408850193023681640625">
        <ele>1055.800048828125</ele>
        <time>2018-09-08T13:34:21.000Z</time>
      </trkpt>
      <trkpt lat="43.27166355215013027191162109375" lon="-4.98229536227881908416748046875">
        <ele>1056</ele>
        <time>2018-09-08T13:34:23.000Z</time>
      </trkpt>
      <trkpt lat="43.27166757546365261077880859375" lon="-4.9822969548404216766357421875">
        <ele>1056.4000244140625</ele>
        <time>2018-09-08T13:34:25.000Z</time>
      </trkpt>
      <trkpt lat="43.27162030152976512908935546875" lon="-4.9822925962507724761962890625">
        <ele>1056.800048828125</ele>
        <time>2018-09-08T13:37:30.000Z</time>
      </trkpt>
      <trkpt lat="43.2715893723070621490478515625" lon="-4.98229905031621456146240234375">
        <ele>1056.5999755859375</ele>
        <time>2018-09-08T13:37:32.000Z</time>
      </trkpt>
      <trkpt lat="43.27155995182693004608154296875" lon="-4.9823036603629589080810546875">
        <ele>1056.199951171875</ele>
        <time>2018-09-08T13:37:34.000Z</time>
      </trkpt>
      <trkpt lat="43.27153011225163936614990234375" lon="-4.98228161595761775970458984375">
        <ele>1056.199951171875</ele>
        <time>2018-09-08T13:37:37.000Z</time>
      </trkpt>
      <trkpt lat="43.27152625657618045806884765625" lon="-4.98227289877831935882568359375">
        <ele>1056</ele>
        <time>2018-09-08T13:37:38.000Z</time>
      </trkpt>
      <trkpt lat="43.2715206407010555267333984375" lon="-4.982235431671142578125">
        <ele>1056</ele>
        <time>2018-09-08T13:37:41.000Z</time>
      </trkpt>
      <trkpt lat="43.27151770703494548797607421875" lon="-4.982194863259792327880859375">
        <ele>1056</ele>
        <time>2018-09-08T13:37:44.000Z</time>
      </trkpt>
      <trkpt lat="43.27151007950305938720703125" lon="-4.98218555934727191925048828125">
        <ele>1055.800048828125</ele>
        <time>2018-09-08T13:37:45.000Z</time>
      </trkpt>
      <trkpt lat="43.27149960212409496307373046875" lon="-4.98218606226146221160888671875">
        <ele>1055.800048828125</ele>
        <time>2018-09-08T13:37:46.000Z</time>
      </trkpt>
      <trkpt lat="43.2714894600212574005126953125" lon="-4.98220651410520076751708984375">
        <ele>1055.800048828125</ele>
        <time>2018-09-08T13:37:48.000Z</time>
      </trkpt>
      <trkpt lat="43.271491639316082000732421875" lon="-4.9822171591222286224365234375">
        <ele>1055.800048828125</ele>
        <time>2018-09-08T13:37:49.000Z</time>
      </trkpt>
      <trkpt lat="43.2715216465294361114501953125" lon="-4.98223878443241119384765625">
        <ele>1055.800048828125</ele>
        <time>2018-09-08T13:37:52.000Z</time>
      </trkpt>
      <trkpt lat="43.27154084108769893646240234375" lon="-4.9822547100484371185302734375">
        <ele>1055.800048828125</ele>
        <time>2018-09-08T13:37:54.000Z</time>
      </trkpt>
      <trkpt lat="43.27155240811407566070556640625" lon="-4.98226560652256011962890625">
        <ele>1055.800048828125</ele>
        <time>2018-09-08T13:37:55.000Z</time>
      </trkpt>
      <trkpt lat="43.2715632207691669464111328125" lon="-4.98226971365511417388916015625">
        <ele>1056</ele>
        <time>2018-09-08T13:37:56.000Z</time>
      </trkpt>
      <trkpt lat="43.2715737819671630859375" lon="-4.98228480108082294464111328125">
        <ele>1056</ele>
        <time>2018-09-08T13:37:59.000Z</time>
      </trkpt>
      <trkpt lat="43.27157403342425823211669921875" lon="-4.98228983022272586822509765625">
        <ele>1056</ele>
        <time>2018-09-08T13:38:00.000Z</time>
      </trkpt>
      <trkpt lat="43.27158727683126926422119140625" lon="-4.98229737393558025360107421875">
        <ele>1056.199951171875</ele>
        <time>2018-09-08T13:38:02.000Z</time>
      </trkpt>
      <trkpt lat="43.2716648094356060028076171875" lon="-4.982244484126567840576171875">
        <ele>1056.5999755859375</ele>
        <time>2018-09-08T13:38:13.000Z</time>
      </trkpt>
      <trkpt lat="43.271608650684356689453125" lon="-4.98222948051989078521728515625">
        <ele>1056.4000244140625</ele>
        <time>2018-09-08T13:38:16.000Z</time>
      </trkpt>
      <trkpt lat="43.27160395681858062744140625" lon="-4.98228312470018863677978515625">
        <ele>1056.199951171875</ele>
        <time>2018-09-08T13:38:19.000Z</time>
      </trkpt>
      <trkpt lat="43.271640501916408538818359375" lon="-4.98227055184543132781982421875">
        <ele>1056.4000244140625</ele>
        <time>2018-09-08T13:38:24.000Z</time>
      </trkpt>
      <trkpt lat="43.27165818773210048675537109375" lon="-4.98216946609318256378173828125">
        <ele>1056.4000244140625</ele>
        <time>2018-09-08T13:38:31.000Z</time>
      </trkpt>
      <trkpt lat="43.27165097929537296295166015625" lon="-4.98212344944477081298828125">
        <ele>1056.199951171875</ele>
        <time>2018-09-08T13:38:33.000Z</time>
      </trkpt>
      <trkpt lat="43.27161736786365509033203125" lon="-4.982131160795688629150390625">
        <ele>1056.199951171875</ele>
        <time>2018-09-08T13:38:35.000Z</time>
      </trkpt>
      <trkpt lat="43.27160655520856380462646484375" lon="-4.98216426931321620941162109375">
        <ele>1056</ele>
        <time>2018-09-08T13:38:37.000Z</time>
      </trkpt>
      <trkpt lat="43.27160320244729518890380859375" lon="-4.9822027422487735748291015625">
        <ele>1056.199951171875</ele>
        <time>2018-09-08T13:38:40.000Z</time>
      </trkpt>
      <trkpt lat="43.27159431762993335723876953125" lon="-4.98224548995494842529296875">
        <ele>1056.4000244140625</ele>
        <time>2018-09-08T13:38:43.000Z</time>
      </trkpt>
      <trkpt lat="43.2715977542102336883544921875" lon="-4.982281029224395751953125">
        <ele>1056.199951171875</ele>
        <time>2018-09-08T13:38:45.000Z</time>
      </trkpt>
      <trkpt lat="43.27161007560789585113525390625" lon="-4.98228345997631549835205078125">
        <ele>1056.5999755859375</ele>
        <time>2018-09-08T13:38:47.000Z</time>
      </trkpt>
      <trkpt lat="43.271623067557811737060546875" lon="-4.98225227929651737213134765625">
        <ele>1056.4000244140625</ele>
        <time>2018-09-08T13:38:49.000Z</time>
      </trkpt>
      <trkpt lat="43.27163337729871273040771484375" lon="-4.98222931288182735443115234375">
        <ele>1056.4000244140625</ele>
        <time>2018-09-08T13:38:51.000Z</time>
      </trkpt>
      <trkpt lat="43.2716540805995464324951171875" lon="-4.982192516326904296875">
        <ele>1056.4000244140625</ele>
        <time>2018-09-08T13:38:54.000Z</time>
      </trkpt>
      <trkpt lat="43.271619379520416259765625" lon="-4.98216594569385051727294921875">
        <ele>1056</ele>
        <time>2018-09-08T13:38:59.000Z</time>
      </trkpt>
      <trkpt lat="43.27161828987300395965576171875" lon="-4.9821772612631320953369140625">
        <ele>1056.199951171875</ele>
        <time>2018-09-08T13:39:00.000Z</time>
      </trkpt>
      <trkpt lat="43.2716185413300991058349609375" lon="-4.98219377361238002777099609375">
        <ele>1056.199951171875</ele>
        <time>2018-09-08T13:39:02.000Z</time>
      </trkpt>
      <trkpt lat="43.27159968204796314239501953125" lon="-4.9822930991649627685546875">
        <ele>1056.199951171875</ele>
        <time>2018-09-08T13:39:19.000Z</time>
      </trkpt>
      <trkpt lat="43.27160756103694438934326171875" lon="-4.982310198247432708740234375">
        <ele>1056.199951171875</ele>
        <time>2018-09-08T13:39:20.000Z</time>
      </trkpt>
      <trkpt lat="43.27162600122392177581787109375" lon="-4.9823143891990184783935546875">
        <ele>1056.4000244140625</ele>
        <time>2018-09-08T13:39:22.000Z</time>
      </trkpt>
      <trkpt lat="43.27163388021290302276611328125" lon="-4.9823127128183841705322265625">
        <ele>1056.4000244140625</ele>
        <time>2018-09-08T13:39:23.000Z</time>
      </trkpt>
      <trkpt lat="43.27164418995380401611328125" lon="-4.9823127128183841705322265625">
        <ele>1056.4000244140625</ele>
        <time>2018-09-08T13:39:24.000Z</time>
      </trkpt>
      <trkpt lat="43.27166858129203319549560546875" lon="-4.98230391182005405426025390625">
        <ele>1056.800048828125</ele>
        <time>2018-09-08T13:39:28.000Z</time>
      </trkpt>
      <trkpt lat="43.27170579694211483001708984375" lon="-4.9823516048491001129150390625">
        <ele>1057.199951171875</ele>
        <time>2018-09-08T13:39:39.000Z</time>
      </trkpt>
      <trkpt lat="43.2717298530042171478271484375" lon="-4.9823915027081966400146484375">
        <ele>1057.199951171875</ele>
        <time>2018-09-08T13:39:42.000Z</time>
      </trkpt>
      <trkpt lat="43.27173831872642040252685546875" lon="-4.9823982082307338714599609375">
        <ele>1057.199951171875</ele>
        <time>2018-09-08T13:39:43.000Z</time>
      </trkpt>
      <trkpt lat="43.27175022102892398834228515625" lon="-4.982409439980983734130859375">
        <ele>1057.4000244140625</ele>
        <time>2018-09-08T13:39:44.000Z</time>
      </trkpt>
      <trkpt lat="43.27179648913443088531494140625" lon="-4.98244774527847766876220703125">
        <ele>1057.4000244140625</ele>
        <time>2018-09-08T13:39:47.000Z</time>
      </trkpt>
      <trkpt lat="43.27184191904962062835693359375" lon="-4.98250206001102924346923828125">
        <ele>1057.4000244140625</ele>
        <time>2018-09-08T13:39:50.000Z</time>
      </trkpt>
      <trkpt lat="43.271933533251285552978515625" lon="-4.98261001892387866973876953125">
        <ele>1057.800048828125</ele>
        <time>2018-09-08T13:39:55.000Z</time>
      </trkpt>
      <trkpt lat="43.27197812497615814208984375" lon="-4.9826339073479175567626953125">
        <ele>1058.4000244140625</ele>
        <time>2018-09-08T13:39:57.000Z</time>
      </trkpt>
      <trkpt lat="43.27214299701154232025146484375" lon="-4.98270037584006786346435546875">
        <ele>1058.5999755859375</ele>
        <time>2018-09-08T13:40:04.000Z</time>
      </trkpt>
      <trkpt lat="43.27216797508299350738525390625" lon="-4.98269719071686267852783203125">
        <ele>1058.800048828125</ele>
        <time>2018-09-08T13:40:05.000Z</time>
      </trkpt>
      <trkpt lat="43.27233796007931232452392578125" lon="-4.98263784684240818023681640625">
        <ele>1058.800048828125</ele>
        <time>2018-09-08T13:40:11.000Z</time>
      </trkpt>
      <trkpt lat="43.27252085320651531219482421875" lon="-4.982563666999340057373046875">
        <ele>1059</ele>
        <time>2018-09-08T13:40:17.000Z</time>
      </trkpt>
      <trkpt lat="43.2725677080452442169189453125" lon="-4.98253919184207916259765625">
        <ele>1059.199951171875</ele>
        <time>2018-09-08T13:40:19.000Z</time>
      </trkpt>
      <trkpt lat="43.27261305414140224456787109375" lon="-4.98250558041036128997802734375">
        <ele>1059.199951171875</ele>
        <time>2018-09-08T13:40:21.000Z</time>
      </trkpt>
      <trkpt lat="43.2727601565420627593994140625" lon="-4.98241287656128406524658203125">
        <ele>1059.199951171875</ele>
        <time>2018-09-08T13:40:26.000Z</time>
      </trkpt>
      <trkpt lat="43.27284992672502994537353515625" lon="-4.98234414495527744293212890625">
        <ele>1059.199951171875</ele>
        <time>2018-09-08T13:40:30.000Z</time>
      </trkpt>
      <trkpt lat="43.27302846126258373260498046875" lon="-4.9822000600397586822509765625">
        <ele>1059.4000244140625</ele>
        <time>2018-09-08T13:40:36.000Z</time>
      </trkpt>
      <trkpt lat="43.273234069347381591796875" lon="-4.98200534842908382415771484375">
        <ele>1059.4000244140625</ele>
        <time>2018-09-08T13:40:43.000Z</time>
      </trkpt>
      <trkpt lat="43.27329299412667751312255859375" lon="-4.98194281943142414093017578125">
        <ele>1059.4000244140625</ele>
        <time>2018-09-08T13:40:45.000Z</time>
      </trkpt>
      <trkpt lat="43.2734488137066364288330078125" lon="-4.98180150054395198822021484375">
        <ele>1059.4000244140625</ele>
        <time>2018-09-08T13:40:50.000Z</time>
      </trkpt>
      <trkpt lat="43.273480832576751708984375" lon="-4.9817786179482936859130859375">
        <ele>1059.4000244140625</ele>
        <time>2018-09-08T13:40:51.000Z</time>
      </trkpt>
      <trkpt lat="43.27356792055070400238037109375" lon="-4.98170896433293819427490234375">
        <ele>1059.4000244140625</ele>
        <time>2018-09-08T13:40:54.000Z</time>
      </trkpt>
      <trkpt lat="43.27367168851196765899658203125" lon="-4.9816649593412876129150390625">
        <ele>1059.5999755859375</ele>
        <time>2018-09-08T13:40:57.000Z</time>
      </trkpt>
      <trkpt lat="43.27375047840178012847900390625" lon="-4.98168046586215496063232421875">
        <ele>1059.4000244140625</ele>
        <time>2018-09-08T13:40:59.000Z</time>
      </trkpt>
      <trkpt lat="43.2738206349313259124755859375" lon="-4.9817189387977123260498046875">
        <ele>1059.199951171875</ele>
        <time>2018-09-08T13:41:01.000Z</time>
      </trkpt>
      <trkpt lat="43.27394024468958377838134765625" lon="-4.98189470730721950531005859375">
        <ele>1059</ele>
        <time>2018-09-08T13:41:06.000Z</time>
      </trkpt>
      <trkpt lat="43.2740375585854053497314453125" lon="-4.9822072684764862060546875">
        <ele>1058.199951171875</ele>
        <time>2018-09-08T13:41:12.000Z</time>
      </trkpt>
      <trkpt lat="43.27409497462213039398193359375" lon="-4.98236912302672863006591796875">
        <ele>1057.800048828125</ele>
        <time>2018-09-08T13:41:15.000Z</time>
      </trkpt>
      <trkpt lat="43.27414442785084247589111328125" lon="-4.98247222043573856353759765625">
        <ele>1057.199951171875</ele>
        <time>2018-09-08T13:41:17.000Z</time>
      </trkpt>
      <trkpt lat="43.27417560853064060211181640625" lon="-4.9825158901512622833251953125">
        <ele>1057.199951171875</ele>
        <time>2018-09-08T13:41:18.000Z</time>
      </trkpt>
      <trkpt lat="43.274410553276538848876953125" lon="-4.982707835733890533447265625">
        <ele>1057</ele>
        <time>2018-09-08T13:41:24.000Z</time>
      </trkpt>
      <trkpt lat="43.274501748383045196533203125" lon="-4.98276181519031524658203125">
        <ele>1056.5999755859375</ele>
        <time>2018-09-08T13:41:26.000Z</time>
      </trkpt>
      <trkpt lat="43.2746380381286144256591796875" lon="-4.98285426758229732513427734375">
        <ele>1056.199951171875</ele>
        <time>2018-09-08T13:41:29.000Z</time>
      </trkpt>
      <trkpt lat="43.27477005310356616973876953125" lon="-4.9829654954373836517333984375">
        <ele>1055.800048828125</ele>
        <time>2018-09-08T13:41:32.000Z</time>
      </trkpt>
      <trkpt lat="43.2748123817145824432373046875" lon="-4.98301117680966854095458984375">
        <ele>1055.5999755859375</ele>
        <time>2018-09-08T13:41:33.000Z</time>
      </trkpt>
      <trkpt lat="43.27497289516031742095947265625" lon="-4.98320312239229679107666015625">
        <ele>1054.800048828125</ele>
        <time>2018-09-08T13:41:37.000Z</time>
      </trkpt>
      <trkpt lat="43.27502067200839519500732421875" lon="-4.983224831521511077880859375">
        <ele>1055</ele>
        <time>2018-09-08T13:41:38.000Z</time>
      </trkpt>
      <trkpt lat="43.27512024901807308197021484375" lon="-4.983273111283779144287109375">
        <ele>1054.5999755859375</ele>
        <time>2018-09-08T13:41:40.000Z</time>
      </trkpt>
      <trkpt lat="43.27532258816063404083251953125" lon="-4.9833906255662441253662109375">
        <ele>1053.5999755859375</ele>
        <time>2018-09-08T13:41:44.000Z</time>
      </trkpt>
      <trkpt lat="43.2753731310367584228515625" lon="-4.98342591337859630584716796875">
        <ele>1053.4000244140625</ele>
        <time>2018-09-08T13:41:45.000Z</time>
      </trkpt>
      <trkpt lat="43.2754616439342498779296875" lon="-4.9835069663822650909423828125">
        <ele>1053</ele>
        <time>2018-09-08T13:41:47.000Z</time>
      </trkpt>
      <trkpt lat="43.27550061978399753570556640625" lon="-4.98363378457725048065185546875">
        <ele>1052.5999755859375</ele>
        <time>2018-09-08T13:41:49.000Z</time>
      </trkpt>
      <trkpt lat="43.2754789106547832489013671875" lon="-4.983769319951534271240234375">
        <ele>1052.5999755859375</ele>
        <time>2018-09-08T13:41:51.000Z</time>
      </trkpt>
      <trkpt lat="43.2754494063556194305419921875" lon="-4.98382723890244960784912109375">
        <ele>1052.4000244140625</ele>
        <time>2018-09-08T13:41:52.000Z</time>
      </trkpt>
      <trkpt lat="43.27531806193292140960693359375" lon="-4.98394844122231006622314453125">
        <ele>1052.199951171875</ele>
        <time>2018-09-08T13:41:55.000Z</time>
      </trkpt>
      <trkpt lat="43.2752700336277484893798828125" lon="-4.983983896672725677490234375">
        <ele>1052</ele>
        <time>2018-09-08T13:41:56.000Z</time>
      </trkpt>
      <trkpt lat="43.27511622570455074310302734375" lon="-4.98408816754817962646484375">
        <ele>1051.4000244140625</ele>
        <time>2018-09-08T13:41:59.000Z</time>
      </trkpt>
      <trkpt lat="43.27489242888987064361572265625" lon="-4.98421146534383296966552734375">
        <ele>1050.5999755859375</ele>
        <time>2018-09-08T13:42:03.000Z</time>
      </trkpt>
      <trkpt lat="43.27483191154897212982177734375" lon="-4.98424247838556766510009765625">
        <ele>1050.4000244140625</ele>
        <time>2018-09-08T13:42:04.000Z</time>
      </trkpt>
      <trkpt lat="43.27457509003579616546630859375" lon="-4.98438765294849872589111328125">
        <ele>1049</ele>
        <time>2018-09-08T13:42:08.000Z</time>
      </trkpt>
      <trkpt lat="43.27451356686651706695556640625" lon="-4.98443895019590854644775390625">
        <ele>1048.5999755859375</ele>
        <time>2018-09-08T13:42:09.000Z</time>
      </trkpt>
      <trkpt lat="43.2744596712291240692138671875" lon="-4.984508268535137176513671875">
        <ele>1047.5999755859375</ele>
        <time>2018-09-08T13:42:10.000Z</time>
      </trkpt>
      <trkpt lat="43.274419605731964111328125" lon="-4.9845925904810428619384765625">
        <ele>1047</ele>
        <time>2018-09-08T13:42:11.000Z</time>
      </trkpt>
      <trkpt lat="43.274392783641815185546875" lon="-4.984685294330120086669921875">
        <ele>1046.800048828125</ele>
        <time>2018-09-08T13:42:12.000Z</time>
      </trkpt>
      <trkpt lat="43.2742675580084323883056640625" lon="-4.98491839505732059478759765625">
        <ele>1046.5999755859375</ele>
        <time>2018-09-08T13:42:15.000Z</time>
      </trkpt>
      <trkpt lat="43.27421047724783420562744140625" lon="-4.98497840948402881622314453125">
        <ele>1046.199951171875</ele>
        <time>2018-09-08T13:42:16.000Z</time>
      </trkpt>
      <trkpt lat="43.27408106066286563873291015625" lon="-4.985076226294040679931640625">
        <ele>1045.4000244140625</ele>
        <time>2018-09-08T13:42:18.000Z</time>
      </trkpt>
      <trkpt lat="43.27401450835168361663818359375" lon="-4.985120482742786407470703125">
        <ele>1045.4000244140625</ele>
        <time>2018-09-08T13:42:19.000Z</time>
      </trkpt>
      <trkpt lat="43.27388224191963672637939453125" lon="-4.9852155335247516632080078125">
        <ele>1044.5999755859375</ele>
        <time>2018-09-08T13:42:21.000Z</time>
      </trkpt>
      <trkpt lat="43.2738166116178035736083984375" lon="-4.98526892624795436859130859375">
        <ele>1044.199951171875</ele>
        <time>2018-09-08T13:42:22.000Z</time>
      </trkpt>
      <trkpt lat="43.273618631064891815185546875" lon="-4.98545433394610881805419921875">
        <ele>1043.199951171875</ele>
        <time>2018-09-08T13:42:25.000Z</time>
      </trkpt>
      <trkpt lat="43.27347773127257823944091796875" lon="-4.98558224178850650787353515625">
        <ele>1042</ele>
        <time>2018-09-08T13:42:27.000Z</time>
      </trkpt>
      <trkpt lat="43.273334987461566925048828125" lon="-4.9857080541551113128662109375">
        <ele>1040.800048828125</ele>
        <time>2018-09-08T13:42:29.000Z</time>
      </trkpt>
      <trkpt lat="43.2731772400438785552978515625" lon="-4.98580754734575748443603515625">
        <ele>1040</ele>
        <time>2018-09-08T13:42:31.000Z</time>
      </trkpt>
      <trkpt lat="43.27309258282184600830078125" lon="-4.98584258370101451873779296875">
        <ele>1039.5999755859375</ele>
        <time>2018-09-08T13:42:32.000Z</time>
      </trkpt>
      <trkpt lat="43.273003734648227691650390625" lon="-4.985870160162448883056640625">
        <ele>1039.199951171875</ele>
        <time>2018-09-08T13:42:33.000Z</time>
      </trkpt>
      <trkpt lat="43.27282645739614963531494140625" lon="-4.98592589981853961944580078125">
        <ele>1038.4000244140625</ele>
        <time>2018-09-08T13:42:35.000Z</time>
      </trkpt>
      <trkpt lat="43.27265999279916286468505859375" lon="-4.9860376305878162384033203125">
        <ele>1037.199951171875</ele>
        <time>2018-09-08T13:42:37.000Z</time>
      </trkpt>
      <trkpt lat="43.27243720181286334991455078125" lon="-4.98623318038880825042724609375">
        <ele>1036</ele>
        <time>2018-09-08T13:42:40.000Z</time>
      </trkpt>
      <trkpt lat="43.272305019199848175048828125" lon="-4.98635220341384410858154296875">
        <ele>1035.199951171875</ele>
        <time>2018-09-08T13:42:42.000Z</time>
      </trkpt>
      <trkpt lat="43.272245340049266815185546875" lon="-4.98640283010900020599365234375">
        <ele>1034.5999755859375</ele>
        <time>2018-09-08T13:42:43.000Z</time>
      </trkpt>
      <trkpt lat="43.2720989920198917388916015625" lon="-4.98654649592936038970947265625">
        <ele>1034.199951171875</ele>
        <time>2018-09-08T13:42:46.000Z</time>
      </trkpt>
      <trkpt lat="43.272020034492015838623046875" lon="-4.98668496496975421905517578125">
        <ele>1033.4000244140625</ele>
        <time>2018-09-08T13:42:48.000Z</time>
      </trkpt>
      <trkpt lat="43.27196882106363773345947265625" lon="-4.9868510104715824127197265625">
        <ele>1032.199951171875</ele>
        <time>2018-09-08T13:42:50.000Z</time>
      </trkpt>
      <trkpt lat="43.2719561643898487091064453125" lon="-4.9869445525109767913818359375">
        <ele>1030.5999755859375</ele>
        <time>2018-09-08T13:42:51.000Z</time>
      </trkpt>
      <trkpt lat="43.27193948440253734588623046875" lon="-4.98713758774101734161376953125">
        <ele>1029</ele>
        <time>2018-09-08T13:42:53.000Z</time>
      </trkpt>
      <trkpt lat="43.271937556564807891845703125" lon="-4.98723699711263179779052734375">
        <ele>1028.199951171875</ele>
        <time>2018-09-08T13:42:54.000Z</time>
      </trkpt>
      <trkpt lat="43.2719497941434383392333984375" lon="-4.9873381666839122772216796875">
        <ele>1027.5999755859375</ele>
        <time>2018-09-08T13:42:55.000Z</time>
      </trkpt>
      <trkpt lat="43.2720406539738178253173828125" lon="-4.987527430057525634765625">
        <ele>1026.4000244140625</ele>
        <time>2018-09-08T13:42:57.000Z</time>
      </trkpt>
      <trkpt lat="43.2721831463277339935302734375" lon="-4.98767587356269359588623046875">
        <ele>1025</ele>
        <time>2018-09-08T13:42:59.000Z</time>
      </trkpt>
      <trkpt lat="43.27226537279784679412841796875" lon="-4.987731613218784332275390625">
        <ele>1024</ele>
        <time>2018-09-08T13:43:00.000Z</time>
      </trkpt>
      <trkpt lat="43.2723548077046871185302734375" lon="-4.9877780489623546600341796875">
        <ele>1023.5999755859375</ele>
        <time>2018-09-08T13:43:01.000Z</time>
      </trkpt>
      <trkpt lat="43.27254281379282474517822265625" lon="-4.98784971423447132110595703125">
        <ele>1021.79998779296875</ele>
        <time>2018-09-08T13:43:03.000Z</time>
      </trkpt>
      <trkpt lat="43.2726414687931537628173828125" lon="-4.98787452466785907745361328125">
        <ele>1020.79998779296875</ele>
        <time>2018-09-08T13:43:04.000Z</time>
      </trkpt>
      <trkpt lat="43.27274314127862453460693359375" lon="-4.98789447359740734100341796875">
        <ele>1019.79998779296875</ele>
        <time>2018-09-08T13:43:05.000Z</time>
      </trkpt>
      <trkpt lat="43.2729408703744411468505859375" lon="-4.987937472760677337646484375">
        <ele>1018.20001220703125</ele>
        <time>2018-09-08T13:43:07.000Z</time>
      </trkpt>
      <trkpt lat="43.27311563305556774139404296875" lon="-4.9879820644855499267578125">
        <ele>1016.79998779296875</ele>
        <time>2018-09-08T13:43:09.000Z</time>
      </trkpt>
      <trkpt lat="43.2732054032385349273681640625" lon="-4.98800528235733509063720703125">
        <ele>1016</ele>
        <time>2018-09-08T13:43:10.000Z</time>
      </trkpt>
      <trkpt lat="43.273293077945709228515625" lon="-4.988034032285213470458984375">
        <ele>1015.20001220703125</ele>
        <time>2018-09-08T13:43:11.000Z</time>
      </trkpt>
      <trkpt lat="43.27345308847725391387939453125" lon="-4.98809798620641231536865234375">
        <ele>1013.79998779296875</ele>
        <time>2018-09-08T13:43:13.000Z</time>
      </trkpt>
      <trkpt lat="43.2735852710902690887451171875" lon="-4.98817560262978076934814453125">
        <ele>1012.20001220703125</ele>
        <time>2018-09-08T13:43:15.000Z</time>
      </trkpt>
      <trkpt lat="43.2736935652792453765869140625" lon="-4.9882529675960540771484375">
        <ele>1011</ele>
        <time>2018-09-08T13:43:17.000Z</time>
      </trkpt>
      <trkpt lat="43.27377512119710445404052734375" lon="-4.9882890097796916961669921875">
        <ele>1010.20001220703125</ele>
        <time>2018-09-08T13:43:19.000Z</time>
      </trkpt>
      <trkpt lat="43.27384293079376220703125" lon="-4.98818867839872837066650390625">
        <ele>1010.79998779296875</ele>
        <time>2018-09-08T13:43:22.000Z</time>
      </trkpt>
      <trkpt lat="43.2738752849400043487548828125" lon="-4.988101758062839508056640625">
        <ele>1010.5999755859375</ele>
        <time>2018-09-08T13:43:24.000Z</time>
      </trkpt>
      <trkpt lat="43.2739815674722194671630859375" lon="-4.987858347594738006591796875">
        <ele>1010.20001220703125</ele>
        <time>2018-09-08T13:43:29.000Z</time>
      </trkpt>
      <trkpt lat="43.274026326835155487060546875" lon="-4.98774175532162189483642578125">
        <ele>1009.79998779296875</ele>
        <time>2018-09-08T13:43:31.000Z</time>
      </trkpt>
      <trkpt lat="43.2740999199450016021728515625" lon="-4.98752952553331851959228515625">
        <ele>1008.79998779296875</ele>
        <time>2018-09-08T13:43:34.000Z</time>
      </trkpt>
      <trkpt lat="43.27412330545485019683837890625" lon="-4.98744352720677852630615234375">
        <ele>1008.20001220703125</ele>
        <time>2018-09-08T13:43:35.000Z</time>
      </trkpt>
      <trkpt lat="43.27414811588823795318603515625" lon="-4.98735241591930389404296875">
        <ele>1007.5999755859375</ele>
        <time>2018-09-08T13:43:36.000Z</time>
      </trkpt>
      <trkpt lat="43.27420435845851898193359375" lon="-4.987150914967060089111328125">
        <ele>1006.20001220703125</ele>
        <time>2018-09-08T13:43:38.000Z</time>
      </trkpt>
      <trkpt lat="43.2742383889853954315185546875" lon="-4.98703482560813426971435546875">
        <ele>1004.20001220703125</ele>
        <time>2018-09-08T13:43:39.000Z</time>
      </trkpt>
      <trkpt lat="43.274273760616779327392578125" lon="-4.98691580258309841156005859375">
        <ele>1003</ele>
        <time>2018-09-08T13:43:40.000Z</time>
      </trkpt>
      <trkpt lat="43.2743087969720363616943359375" lon="-4.9867936782538890838623046875">
        <ele>1001.79998779296875</ele>
        <time>2018-09-08T13:43:41.000Z</time>
      </trkpt>
      <trkpt lat="43.27436068095266819000244140625" lon="-4.98667121864855289459228515625">
        <ele>1000.4000244140625</ele>
        <time>2018-09-08T13:43:42.000Z</time>
      </trkpt>
      <trkpt lat="43.2744234614074230194091796875" lon="-4.98655579984188079833984375">
        <ele>999.20001220703125</ele>
        <time>2018-09-08T13:43:43.000Z</time>
      </trkpt>
      <trkpt lat="43.27450283803045749664306640625" lon="-4.9864537082612514495849609375">
        <ele>997.79998779296875</ele>
        <time>2018-09-08T13:43:44.000Z</time>
      </trkpt>
      <trkpt lat="43.27458933927118778228759765625" lon="-4.9863561429083347320556640625">
        <ele>996.4000244140625</ele>
        <time>2018-09-08T13:43:45.000Z</time>
      </trkpt>
      <trkpt lat="43.27468271367251873016357421875" lon="-4.98626234941184520721435546875">
        <ele>995</ele>
        <time>2018-09-08T13:43:46.000Z</time>
      </trkpt>
      <trkpt lat="43.27478162012994289398193359375" lon="-4.98616897501051425933837890625">
        <ele>993.5999755859375</ele>
        <time>2018-09-08T13:43:47.000Z</time>
      </trkpt>
      <trkpt lat="43.27487600035965442657470703125" lon="-4.9860704876482486724853515625">
        <ele>992.20001220703125</ele>
        <time>2018-09-08T13:43:48.000Z</time>
      </trkpt>
      <trkpt lat="43.27496903948485851287841796875" lon="-4.9859598465263843536376953125">
        <ele>990.79998779296875</ele>
        <time>2018-09-08T13:43:49.000Z</time>
      </trkpt>
      <trkpt lat="43.2750618271529674530029296875" lon="-4.98584979213774204254150390625">
        <ele>989.5999755859375</ele>
        <time>2018-09-08T13:43:50.000Z</time>
      </trkpt>
      <trkpt lat="43.27523508109152317047119140625" lon="-4.98566539026796817779541015625">
        <ele>988.5999755859375</ele>
        <time>2018-09-08T13:43:52.000Z</time>
      </trkpt>
      <trkpt lat="43.2753867097198963165283203125" lon="-4.98554904945194721221923828125">
        <ele>990.20001220703125</ele>
        <time>2018-09-08T13:43:54.000Z</time>
      </trkpt>
      <trkpt lat="43.27545619569718837738037109375" lon="-4.985509403049945831298828125">
        <ele>991.20001220703125</ele>
        <time>2018-09-08T13:43:55.000Z</time>
      </trkpt>
      <trkpt lat="43.275521658360958099365234375" lon="-4.98546740971505641937255859375">
        <ele>992</ele>
        <time>2018-09-08T13:43:56.000Z</time>
      </trkpt>
      <trkpt lat="43.27558209188282489776611328125" lon="-4.985427595674991607666015625">
        <ele>992.79998779296875</ele>
        <time>2018-09-08T13:43:57.000Z</time>
      </trkpt>
      <trkpt lat="43.275635652244091033935546875" lon="-4.98539448715746402740478515625">
        <ele>993.20001220703125</ele>
        <time>2018-09-08T13:43:58.000Z</time>
      </trkpt>
      <trkpt lat="43.27568535692989826202392578125" lon="-4.985360540449619293212890625">
        <ele>993.79998779296875</ele>
        <time>2018-09-08T13:43:59.000Z</time>
      </trkpt>
      <trkpt lat="43.275729529559612274169921875" lon="-4.98532206751406192779541015625">
        <ele>994.20001220703125</ele>
        <time>2018-09-08T13:44:00.000Z</time>
      </trkpt>
      <trkpt lat="43.2758022844791412353515625" lon="-4.98524428345263004302978515625">
        <ele>995.20001220703125</ele>
        <time>2018-09-08T13:44:02.000Z</time>
      </trkpt>
      <trkpt lat="43.27586992643773555755615234375" lon="-4.98517169617116451263427734375">
        <ele>995.79998779296875</ele>
        <time>2018-09-08T13:44:04.000Z</time>
      </trkpt>
      <trkpt lat="43.27593597583472728729248046875" lon="-4.98511050827801227569580078125">
        <ele>996.20001220703125</ele>
        <time>2018-09-08T13:44:06.000Z</time>
      </trkpt>
      <trkpt lat="43.276107721030712127685546875" lon="-4.9849778227508068084716796875">
        <ele>996.79998779296875</ele>
        <time>2018-09-08T13:44:11.000Z</time>
      </trkpt>
      <trkpt lat="43.2762104831635951995849609375" lon="-4.984909258782863616943359375">
        <ele>997</ele>
        <time>2018-09-08T13:44:14.000Z</time>
      </trkpt>
      <trkpt lat="43.27631617896258831024169921875" lon="-4.98486458323895931243896484375">
        <ele>997.4000244140625</ele>
        <time>2018-09-08T13:44:17.000Z</time>
      </trkpt>
      <trkpt lat="43.27638499438762664794921875" lon="-4.984844885766506195068359375">
        <ele>997.5999755859375</ele>
        <time>2018-09-08T13:44:19.000Z</time>
      </trkpt>
      <trkpt lat="43.2766067795455455780029296875" lon="-4.98477615416049957275390625">
        <ele>998.4000244140625</ele>
        <time>2018-09-08T13:44:26.000Z</time>
      </trkpt>
      <trkpt lat="43.2766617648303508758544921875" lon="-4.984752349555492401123046875">
        <ele>999.20001220703125</ele>
        <time>2018-09-08T13:44:28.000Z</time>
      </trkpt>
      <trkpt lat="43.27671616338193416595458984375" lon="-4.98473399318754673004150390625">
        <ele>999.5999755859375</ele>
        <time>2018-09-08T13:44:30.000Z</time>
      </trkpt>
      <trkpt lat="43.27679277397692203521728515625" lon="-4.98469568789005279541015625">
        <ele>1000.20001220703125</ele>
        <time>2018-09-08T13:44:33.000Z</time>
      </trkpt>
      <trkpt lat="43.2768163271248340606689453125" lon="-4.98468018136918544769287109375">
        <ele>1000.4000244140625</ele>
        <time>2018-09-08T13:44:34.000Z</time>
      </trkpt>
      <trkpt lat="43.276837952435016632080078125" lon="-4.98466392047703266143798828125">
        <ele>1000.5999755859375</ele>
        <time>2018-09-08T13:44:35.000Z</time>
      </trkpt>
      <trkpt lat="43.27689729630947113037109375" lon="-4.98456601984798908233642578125">
        <ele>1001.20001220703125</ele>
        <time>2018-09-08T13:44:39.000Z</time>
      </trkpt>
      <trkpt lat="43.27690408565104007720947265625" lon="-4.98453852720558643341064453125">
        <ele>1001.4000244140625</ele>
        <time>2018-09-08T13:44:40.000Z</time>
      </trkpt>
      <trkpt lat="43.2769034989178180694580078125" lon="-4.98448169790208339691162109375">
        <ele>1001.5999755859375</ele>
        <time>2018-09-08T13:44:42.000Z</time>
      </trkpt>
      <trkpt lat="43.276878856122493743896484375" lon="-4.98439754359424114227294921875">
        <ele>1002.20001220703125</ele>
        <time>2018-09-08T13:44:45.000Z</time>
      </trkpt>
      <trkpt lat="43.27685111202299594879150390625" lon="-4.9843112938106060028076171875">
        <ele>1002.79998779296875</ele>
        <time>2018-09-08T13:44:48.000Z</time>
      </trkpt>
      <trkpt lat="43.27681825496256351470947265625" lon="-4.984166286885738372802734375">
        <ele>1003.79998779296875</ele>
        <time>2018-09-08T13:44:53.000Z</time>
      </trkpt>
      <trkpt lat="43.27680853195488452911376953125" lon="-4.9841396324336528778076171875">
        <ele>1004</ele>
        <time>2018-09-08T13:44:54.000Z</time>
      </trkpt>
      <trkpt lat="43.27675589360296726226806640625" lon="-4.98397777788341045379638671875">
        <ele>1005</ele>
        <time>2018-09-08T13:45:00.000Z</time>
      </trkpt>
      <trkpt lat="43.27674382366240024566650390625" lon="-4.9839533865451812744140625">
        <ele>1005.20001220703125</ele>
        <time>2018-09-08T13:45:01.000Z</time>
      </trkpt>
      <trkpt lat="43.27670149505138397216796875" lon="-4.98383377678692340850830078125">
        <ele>1006.20001220703125</ele>
        <time>2018-09-08T13:45:06.000Z</time>
      </trkpt>
      <trkpt lat="43.276692442595958709716796875" lon="-4.983809888362884521484375">
        <ele>1006.20001220703125</ele>
        <time>2018-09-08T13:45:07.000Z</time>
      </trkpt>
      <trkpt lat="43.2766741700470447540283203125" lon="-4.98376496136188507080078125">
        <ele>1006.4000244140625</ele>
        <time>2018-09-08T13:45:09.000Z</time>
      </trkpt>
      <trkpt lat="43.27663175761699676513671875" lon="-4.98365138657391071319580078125">
        <ele>1007.4000244140625</ele>
        <time>2018-09-08T13:45:14.000Z</time>
      </trkpt>
      <trkpt lat="43.2766235433518886566162109375" lon="-4.98363085091114044189453125">
        <ele>1007.5999755859375</ele>
        <time>2018-09-08T13:45:15.000Z</time>
      </trkpt>
      <trkpt lat="43.27658557333052158355712890625" lon="-4.983533285558223724365234375">
        <ele>1008.4000244140625</ele>
        <time>2018-09-08T13:45:20.000Z</time>
      </trkpt>
      <trkpt lat="43.27655003406107425689697265625" lon="-4.9834679067134857177734375">
        <ele>1009</ele>
        <time>2018-09-08T13:45:24.000Z</time>
      </trkpt>
      <trkpt lat="43.2765333540737628936767578125" lon="-4.98341451399028301239013671875">
        <ele>1009.5999755859375</ele>
        <time>2018-09-08T13:45:27.000Z</time>
      </trkpt>
      <trkpt lat="43.276509381830692291259765625" lon="-4.98333639465272426605224609375">
        <ele>1010</ele>
        <time>2018-09-08T13:45:31.000Z</time>
      </trkpt>
      <trkpt lat="43.27647627331316471099853515625" lon="-4.98326280154287815093994140625">
        <ele>1010.5999755859375</ele>
        <time>2018-09-08T13:45:35.000Z</time>
      </trkpt>
      <trkpt lat="43.2764639519155025482177734375" lon="-4.98322541825473308563232421875">
        <ele>1010.79998779296875</ele>
        <time>2018-09-08T13:45:37.000Z</time>
      </trkpt>
      <trkpt lat="43.27645833604037761688232421875" lon="-4.98320630751550197601318359375">
        <ele>1010.79998779296875</ele>
        <time>2018-09-08T13:45:38.000Z</time>
      </trkpt>
      <trkpt lat="43.27642212621867656707763671875" lon="-4.98313321731984615325927734375">
        <ele>1011.79998779296875</ele>
        <time>2018-09-08T13:45:42.000Z</time>
      </trkpt>
      <trkpt lat="43.27637686394155025482177734375" lon="-4.983091391623020172119140625">
        <ele>1012.20001220703125</ele>
        <time>2018-09-08T13:45:46.000Z</time>
      </trkpt>
      <trkpt lat="43.2763325236737728118896484375" lon="-4.9830439500510692596435546875">
        <ele>1012.79998779296875</ele>
        <time>2018-09-08T13:45:50.000Z</time>
      </trkpt>
      <trkpt lat="43.27629354782402515411376953125" lon="-4.98299038968980312347412109375">
        <ele>1013.20001220703125</ele>
        <time>2018-09-08T13:45:54.000Z</time>
      </trkpt>
      <trkpt lat="43.2762663066387176513671875" lon="-4.9829795770347118377685546875">
        <ele>1013.79998779296875</ele>
        <time>2018-09-08T13:45:57.000Z</time>
      </trkpt>
      <trkpt lat="43.27623705379664897918701171875" lon="-4.9829799123108386993408203125">
        <ele>1013.79998779296875</ele>
        <time>2018-09-08T13:46:00.000Z</time>
      </trkpt>
      <trkpt lat="43.27621308155357837677001953125" lon="-4.9829341471195220947265625">
        <ele>1014.4000244140625</ele>
        <time>2018-09-08T13:46:05.000Z</time>
      </trkpt>
      <trkpt lat="43.2762074656784534454345703125" lon="-4.9829088337719440460205078125">
        <ele>1014.5999755859375</ele>
        <time>2018-09-08T13:46:07.000Z</time>
      </trkpt>
      <trkpt lat="43.2761766202747821807861328125" lon="-4.98287287540733814239501953125">
        <ele>1015</ele>
        <time>2018-09-08T13:46:10.000Z</time>
      </trkpt>
      <trkpt lat="43.27612507157027721405029296875" lon="-4.982819147408008575439453125">
        <ele>1016</ele>
        <time>2018-09-08T13:46:14.000Z</time>
      </trkpt>
      <trkpt lat="43.27609942294657230377197265625" lon="-4.982767514884471893310546875">
        <ele>1016.5999755859375</ele>
        <time>2018-09-08T13:46:17.000Z</time>
      </trkpt>
      <trkpt lat="43.2760854251682758331298828125" lon="-4.98272770084440708160400390625">
        <ele>1017.20001220703125</ele>
        <time>2018-09-08T13:46:19.000Z</time>
      </trkpt>
      <trkpt lat="43.27606447041034698486328125" lon="-4.98263575136661529541015625">
        <ele>1018.20001220703125</ele>
        <time>2018-09-08T13:46:23.000Z</time>
      </trkpt>
      <trkpt lat="43.27605298720300197601318359375" lon="-4.98259560205042362213134765625">
        <ele>1018.5999755859375</ele>
        <time>2018-09-08T13:46:25.000Z</time>
      </trkpt>
      <trkpt lat="43.27604829333722591400146484375" lon="-4.98255721293389797210693359375">
        <ele>1019.4000244140625</ele>
        <time>2018-09-08T13:46:27.000Z</time>
      </trkpt>
      <trkpt lat="43.27605399303138256072998046875" lon="-4.98253994621336460113525390625">
        <ele>1019.5999755859375</ele>
        <time>2018-09-08T13:46:28.000Z</time>
      </trkpt>
      <trkpt lat="43.2760948128998279571533203125" lon="-4.98250206001102924346923828125">
        <ele>1020.20001220703125</ele>
        <time>2018-09-08T13:46:31.000Z</time>
      </trkpt>
      <trkpt lat="43.276115767657756805419921875" lon="-4.98248915188014507293701171875">
        <ele>1020</ele>
        <time>2018-09-08T13:46:32.000Z</time>
      </trkpt>
      <trkpt lat="43.27624543569982051849365234375" lon="-4.98240952380001544952392578125">
        <ele>1020.20001220703125</ele>
        <time>2018-09-08T13:46:38.000Z</time>
      </trkpt>
      <trkpt lat="43.2764406502246856689453125" lon="-4.9824233539402484893798828125">
        <ele>1020.20001220703125</ele>
        <time>2018-09-08T13:46:44.000Z</time>
      </trkpt>
      <trkpt lat="43.2765318453311920166015625" lon="-4.98246182687580585479736328125">
        <ele>1019.79998779296875</ele>
        <time>2018-09-08T13:46:47.000Z</time>
      </trkpt>
      <trkpt lat="43.27662211842834949493408203125" lon="-4.98252670280635356903076171875">
        <ele>1020</ele>
        <time>2018-09-08T13:46:50.000Z</time>
      </trkpt>
      <trkpt lat="43.2767593301832675933837890625" lon="-4.98263952322304248809814453125">
        <ele>1019.4000244140625</ele>
        <time>2018-09-08T13:46:54.000Z</time>
      </trkpt>
      <trkpt lat="43.27680015005171298980712890625" lon="-4.98266257345676422119140625">
        <ele>1019.20001220703125</ele>
        <time>2018-09-08T13:46:55.000Z</time>
      </trkpt>
      <trkpt lat="43.276841975748538970947265625" lon="-4.98268260620534420013427734375">
        <ele>1019.20001220703125</ele>
        <time>2018-09-08T13:46:56.000Z</time>
      </trkpt>
      <trkpt lat="43.27692638151347637176513671875" lon="-4.982726275920867919921875">
        <ele>1018.79998779296875</ele>
        <time>2018-09-08T13:46:58.000Z</time>
      </trkpt>
      <trkpt lat="43.27701321803033351898193359375" lon="-4.98277463950216770172119140625">
        <ele>1018.79998779296875</ele>
        <time>2018-09-08T13:47:00.000Z</time>
      </trkpt>
      <trkpt lat="43.277102150022983551025390625" lon="-4.98283289372920989990234375">
        <ele>1018.4000244140625</ele>
        <time>2018-09-08T13:47:02.000Z</time>
      </trkpt>
      <trkpt lat="43.27719409950077533721923828125" lon="-4.982892908155918121337890625">
        <ele>1017.79998779296875</ele>
        <time>2018-09-08T13:47:04.000Z</time>
      </trkpt>
      <trkpt lat="43.2772357575595378875732421875" lon="-4.98292132280766963958740234375">
        <ele>1017.5999755859375</ele>
        <time>2018-09-08T13:47:05.000Z</time>
      </trkpt>
      <trkpt lat="43.2773165591061115264892578125" lon="-4.98297630809247493743896484375">
        <ele>1017.20001220703125</ele>
        <time>2018-09-08T13:47:07.000Z</time>
      </trkpt>
      <trkpt lat="43.277443461120128631591796875" lon="-4.9830684252083301544189453125">
        <ele>1016.79998779296875</ele>
        <time>2018-09-08T13:47:10.000Z</time>
      </trkpt>
      <trkpt lat="43.2774761505424976348876953125" lon="-4.9831190519034862518310546875">
        <ele>1016.5999755859375</ele>
        <time>2018-09-08T13:47:11.000Z</time>
      </trkpt>
      <trkpt lat="43.27756826765835285186767578125" lon="-4.98324771411716938018798828125">
        <ele>1016.79998779296875</ele>
        <time>2018-09-08T13:47:14.000Z</time>
      </trkpt>
      <trkpt lat="43.27763800509274005889892578125" lon="-4.9833121709525585174560546875">
        <ele>1017</ele>
        <time>2018-09-08T13:47:16.000Z</time>
      </trkpt>
      <trkpt lat="43.27773741446435451507568359375" lon="-4.9833591096103191375732421875">
        <ele>1017.5999755859375</ele>
        <time>2018-09-08T13:47:19.000Z</time>
      </trkpt>
      <trkpt lat="43.27779524959623813629150390625" lon="-4.98337377794086933135986328125">
        <ele>1018</ele>
        <time>2018-09-08T13:47:21.000Z</time>
      </trkpt>
      <trkpt lat="43.277822323143482208251953125" lon="-4.98337008990347385406494140625">
        <ele>1018.4000244140625</ele>
        <time>2018-09-08T13:47:22.000Z</time>
      </trkpt>
      <trkpt lat="43.27787303365767002105712890625" lon="-4.983359277248382568359375">
        <ele>1019</ele>
        <time>2018-09-08T13:47:24.000Z</time>
      </trkpt>
      <trkpt lat="43.2779200561344623565673828125" lon="-4.9833487160503864288330078125">
        <ele>1019.4000244140625</ele>
        <time>2018-09-08T13:47:26.000Z</time>
      </trkpt>
      <trkpt lat="43.27794176526367664337158203125" lon="-4.98334041796624660491943359375">
        <ele>1019.5999755859375</ele>
        <time>2018-09-08T13:47:27.000Z</time>
      </trkpt>
      <trkpt lat="43.277983255684375762939453125" lon="-4.9833282642066478729248046875">
        <ele>1020</ele>
        <time>2018-09-08T13:47:29.000Z</time>
      </trkpt>
      <trkpt lat="43.27804821543395519256591796875" lon="-4.9833135120570659637451171875">
        <ele>1020.5999755859375</ele>
        <time>2018-09-08T13:47:32.000Z</time>
      </trkpt>
      <trkpt lat="43.27808685600757598876953125" lon="-4.9833024479448795318603515625">
        <ele>1020.79998779296875</ele>
        <time>2018-09-08T13:47:34.000Z</time>
      </trkpt>
      <trkpt lat="43.27811904251575469970703125" lon="-4.98330353759229183197021484375">
        <ele>1021.5999755859375</ele>
        <time>2018-09-08T13:47:36.000Z</time>
      </trkpt>
      <trkpt lat="43.278185091912746429443359375" lon="-4.983308650553226470947265625">
        <ele>1022.20001220703125</ele>
        <time>2018-09-08T13:47:40.000Z</time>
      </trkpt>
      <trkpt lat="43.278214931488037109375" lon="-4.98330152593553066253662109375">
        <ele>1023</ele>
        <time>2018-09-08T13:47:42.000Z</time>
      </trkpt>
      <trkpt lat="43.278262205421924591064453125" lon="-4.9832866899669170379638671875">
        <ele>1023.79998779296875</ele>
        <time>2018-09-08T13:47:46.000Z</time>
      </trkpt>
      <trkpt lat="43.27828022651374340057373046875" lon="-4.98328685760498046875">
        <ele>1024.199951171875</ele>
        <time>2018-09-08T13:47:48.000Z</time>
      </trkpt>
      <trkpt lat="43.278323896229267120361328125" lon="-4.9833353050053119659423828125">
        <ele>1024</ele>
        <time>2018-09-08T13:47:52.000Z</time>
      </trkpt>
      <trkpt lat="43.2783388160169124603271484375" lon="-4.98333605937659740447998046875">
        <ele>1024</ele>
        <time>2018-09-08T13:47:53.000Z</time>
      </trkpt>
      <trkpt lat="43.2783733494579792022705078125" lon="-4.9833172000944614410400390625">
        <ele>1024</ele>
        <time>2018-09-08T13:47:57.000Z</time>
      </trkpt>
      <trkpt lat="43.27838215045630931854248046875" lon="-4.9833577685058116912841796875">
        <ele>1023.5999755859375</ele>
        <time>2018-09-08T13:48:01.000Z</time>
      </trkpt>
      <trkpt lat="43.2783844135701656341552734375" lon="-4.983365647494792938232421875">
        <ele>1023.5999755859375</ele>
        <time>2018-09-08T13:48:02.000Z</time>
      </trkpt>
      <trkpt lat="43.27827905304729938507080078125" lon="-4.98329130001366138458251953125">
        <ele>1024.199951171875</ele>
        <time>2018-09-08T13:48:24.000Z</time>
      </trkpt>
      <trkpt lat="43.2782744430005550384521484375" lon="-4.98327487148344516754150390625">
        <ele>1024</ele>
        <time>2018-09-08T13:48:25.000Z</time>
      </trkpt>
      <trkpt lat="43.27827301807701587677001953125" lon="-4.9832179583609104156494140625">
        <ele>1024.5999755859375</ele>
        <time>2018-09-08T13:48:28.000Z</time>
      </trkpt>
      <trkpt lat="43.27826262451708316802978515625" lon="-4.98316339217126369476318359375">
        <ele>1024.800048828125</ele>
        <time>2018-09-08T13:48:31.000Z</time>
      </trkpt>
      <trkpt lat="43.2782680727541446685791015625" lon="-4.9831307865679264068603515625">
        <ele>1025.4000244140625</ele>
        <time>2018-09-08T13:48:33.000Z</time>
      </trkpt>
      <trkpt lat="43.278265558183193206787109375" lon="-4.98309600166976451873779296875">
        <ele>1026</ele>
        <time>2018-09-08T13:48:35.000Z</time>
      </trkpt>
      <trkpt lat="43.27825457789003849029541015625" lon="-4.9830630607903003692626953125">
        <ele>1026.4000244140625</ele>
        <time>2018-09-08T13:48:37.000Z</time>
      </trkpt>
      <trkpt lat="43.2782479561865329742431640625" lon="-4.983031712472438812255859375">
        <ele>1026.800048828125</ele>
        <time>2018-09-08T13:48:39.000Z</time>
      </trkpt>
      <trkpt lat="43.27823060564696788787841796875" lon="-4.98298234306275844573974609375">
        <ele>1027.4000244140625</ele>
        <time>2018-09-08T13:48:42.000Z</time>
      </trkpt>
      <trkpt lat="43.27822591178119182586669921875" lon="-4.98296834528446197509765625">
        <ele>1027.5999755859375</ele>
        <time>2018-09-08T13:48:43.000Z</time>
      </trkpt>
      <trkpt lat="43.27821828424930572509765625" lon="-4.982917718589305877685546875">
        <ele>1028.199951171875</ele>
        <time>2018-09-08T13:48:46.000Z</time>
      </trkpt>
      <trkpt lat="43.2782063819468021392822265625" lon="-4.98288997448980808258056640625">
        <ele>1028.5999755859375</ele>
        <time>2018-09-08T13:48:48.000Z</time>
      </trkpt>
      <trkpt lat="43.2781894505023956298828125" lon="-4.9828206561505794525146484375">
        <ele>1029.800048828125</ele>
        <time>2018-09-08T13:48:52.000Z</time>
      </trkpt>
      <trkpt lat="43.27816690318286418914794921875" lon="-4.9827492423355579376220703125">
        <ele>1030.800048828125</ele>
        <time>2018-09-08T13:48:56.000Z</time>
      </trkpt>
      <trkpt lat="43.2781500555574893951416015625" lon="-4.98269987292587757110595703125">
        <ele>1031.4000244140625</ele>
        <time>2018-09-08T13:48:59.000Z</time>
      </trkpt>
      <trkpt lat="43.27812985517084598541259765625" lon="-4.98262980021536350250244140625">
        <ele>1031.800048828125</ele>
        <time>2018-09-08T13:49:03.000Z</time>
      </trkpt>
      <trkpt lat="43.27812147326767444610595703125" lon="-4.98261169530451297760009765625">
        <ele>1032.5999755859375</ele>
        <time>2018-09-08T13:49:04.000Z</time>
      </trkpt>
      <trkpt lat="43.27807956375181674957275390625" lon="-4.98252150602638721466064453125">
        <ele>1033.4000244140625</ele>
        <time>2018-09-08T13:49:10.000Z</time>
      </trkpt>
      <trkpt lat="43.27807336114346981048583984375" lon="-4.982503317296504974365234375">
        <ele>1033.5999755859375</ele>
        <time>2018-09-08T13:49:11.000Z</time>
      </trkpt>
      <trkpt lat="43.2780477963387966156005859375" lon="-4.98241203837096691131591796875">
        <ele>1034.800048828125</ele>
        <time>2018-09-08T13:49:16.000Z</time>
      </trkpt>
      <trkpt lat="43.2780414260923862457275390625" lon="-4.98237364925444126129150390625">
        <ele>1035</ele>
        <time>2018-09-08T13:49:18.000Z</time>
      </trkpt>
      <trkpt lat="43.2780325412750244140625" lon="-4.98229779303073883056640625">
        <ele>1036</ele>
        <time>2018-09-08T13:49:22.000Z</time>
      </trkpt>
      <trkpt lat="43.2780209742486476898193359375" lon="-4.98219880275428295135498046875">
        <ele>1036.5999755859375</ele>
        <time>2018-09-08T13:49:27.000Z</time>
      </trkpt>
      <trkpt lat="43.27801250852644443511962890625" lon="-4.982163012027740478515625">
        <ele>1037</ele>
        <time>2018-09-08T13:49:29.000Z</time>
      </trkpt>
      <trkpt lat="43.2779894582927227020263671875" lon="-4.982079528272151947021484375">
        <ele>1038</ele>
        <time>2018-09-08T13:49:34.000Z</time>
      </trkpt>
      <trkpt lat="43.27797294594347476959228515625" lon="-4.982028566300868988037109375">
        <ele>1038.4000244140625</ele>
        <time>2018-09-08T13:49:37.000Z</time>
      </trkpt>
      <trkpt lat="43.27794997952878475189208984375" lon="-4.9819792807102203369140625">
        <ele>1039.199951171875</ele>
        <time>2018-09-08T13:49:40.000Z</time>
      </trkpt>
      <trkpt lat="43.277912177145481109619140625" lon="-4.98190023936331272125244140625">
        <ele>1040.199951171875</ele>
        <time>2018-09-08T13:49:45.000Z</time>
      </trkpt>
      <trkpt lat="43.27790773473680019378662109375" lon="-4.98188464902341365814208984375">
        <ele>1040.4000244140625</ele>
        <time>2018-09-08T13:49:46.000Z</time>
      </trkpt>
      <trkpt lat="43.27785979025065898895263671875" lon="-4.98178473673760890960693359375">
        <ele>1041.4000244140625</ele>
        <time>2018-09-08T13:49:53.000Z</time>
      </trkpt>
      <trkpt lat="43.2778506539762020111083984375" lon="-4.98177073895931243896484375">
        <ele>1041.5999755859375</ele>
        <time>2018-09-08T13:49:54.000Z</time>
      </trkpt>
      <trkpt lat="43.277816958725452423095703125" lon="-4.98168700374662876129150390625">
        <ele>1042.5999755859375</ele>
        <time>2018-09-08T13:49:59.000Z</time>
      </trkpt>
      <trkpt lat="43.2777936570346355438232421875" lon="-4.9816438369452953338623046875">
        <ele>1043</ele>
        <time>2018-09-08T13:50:02.000Z</time>
      </trkpt>
      <trkpt lat="43.27776976861059665679931640625" lon="-4.98159396462142467498779296875">
        <ele>1043.5999755859375</ele>
        <time>2018-09-08T13:50:05.000Z</time>
      </trkpt>
      <trkpt lat="43.2777198962867259979248046875" lon="-4.98150260187685489654541015625">
        <ele>1044.5999755859375</ele>
        <time>2018-09-08T13:50:10.000Z</time>
      </trkpt>
      <trkpt lat="43.27770874835550785064697265625" lon="-4.9814865924417972564697265625">
        <ele>1044.800048828125</ele>
        <time>2018-09-08T13:50:11.000Z</time>
      </trkpt>
      <trkpt lat="43.27762828208506107330322265625" lon="-4.98137502931058406829833984375">
        <ele>1045.800048828125</ele>
        <time>2018-09-08T13:50:18.000Z</time>
      </trkpt>
      <trkpt lat="43.2776159606873989105224609375" lon="-4.98136145062744617462158203125">
        <ele>1046</ele>
        <time>2018-09-08T13:50:19.000Z</time>
      </trkpt>
      <trkpt lat="43.2775462232530117034912109375" lon="-4.9812532402575016021728515625">
        <ele>1046.800048828125</ele>
        <time>2018-09-08T13:50:26.000Z</time>
      </trkpt>
      <trkpt lat="43.277536332607269287109375" lon="-4.98123303987085819244384765625">
        <ele>1047</ele>
        <time>2018-09-08T13:50:27.000Z</time>
      </trkpt>
      <trkpt lat="43.27752602286636829376220703125" lon="-4.981218539178371429443359375">
        <ele>1047.199951171875</ele>
        <time>2018-09-08T13:50:28.000Z</time>
      </trkpt>
      <trkpt lat="43.27747120521962642669677734375" lon="-4.98113882727921009063720703125">
        <ele>1048</ele>
        <time>2018-09-08T13:50:33.000Z</time>
      </trkpt>
      <trkpt lat="43.27745360322296619415283203125" lon="-4.98110161162912845611572265625">
        <ele>1048.4000244140625</ele>
        <time>2018-09-08T13:50:35.000Z</time>
      </trkpt>
      <trkpt lat="43.27740783803164958953857421875" lon="-4.98101770877838134765625">
        <ele>1049.199951171875</ele>
        <time>2018-09-08T13:50:40.000Z</time>
      </trkpt>
      <trkpt lat="43.27737514860928058624267578125" lon="-4.98094721697270870208740234375">
        <ele>1049.5999755859375</ele>
        <time>2018-09-08T13:50:44.000Z</time>
      </trkpt>
      <trkpt lat="43.277346231043338775634765625" lon="-4.9808864481747150421142578125">
        <ele>1050.199951171875</ele>
        <time>2018-09-08T13:50:47.000Z</time>
      </trkpt>
      <trkpt lat="43.27730834484100341796875" lon="-4.98077832162380218505859375">
        <ele>1051.199951171875</ele>
        <time>2018-09-08T13:50:52.000Z</time>
      </trkpt>
      <trkpt lat="43.27726073563098907470703125" lon="-4.98066239990293979644775390625">
        <ele>1052.4000244140625</ele>
        <time>2018-09-08T13:50:58.000Z</time>
      </trkpt>
      <trkpt lat="43.2772381044924259185791015625" lon="-4.980603642761707305908203125">
        <ele>1053.199951171875</ele>
        <time>2018-09-08T13:51:01.000Z</time>
      </trkpt>
      <trkpt lat="43.27723131515085697174072265625" lon="-4.98058645986020565032958984375">
        <ele>1053.4000244140625</ele>
        <time>2018-09-08T13:51:02.000Z</time>
      </trkpt>
      <trkpt lat="43.277192004024982452392578125" lon="-4.980500042438507080078125">
        <ele>1054.4000244140625</ele>
        <time>2018-09-08T13:51:07.000Z</time>
      </trkpt>
      <trkpt lat="43.27718320302665233612060546875" lon="-4.98048151843249797821044921875">
        <ele>1054.4000244140625</ele>
        <time>2018-09-08T13:51:08.000Z</time>
      </trkpt>
      <trkpt lat="43.2771388627588748931884765625" lon="-4.9803914129734039306640625">
        <ele>1055.5999755859375</ele>
        <time>2018-09-08T13:51:13.000Z</time>
      </trkpt>
      <trkpt lat="43.27707163989543914794921875" lon="-4.9802814424037933349609375">
        <ele>1056.4000244140625</ele>
        <time>2018-09-08T13:51:19.000Z</time>
      </trkpt>
      <trkpt lat="43.2770158164203166961669921875" lon="-4.98018714599311351776123046875">
        <ele>1056.5999755859375</ele>
        <time>2018-09-08T13:51:23.000Z</time>
      </trkpt>
      <trkpt lat="43.2769474200904369354248046875" lon="-4.980067200958728790283203125">
        <ele>1057</ele>
        <time>2018-09-08T13:51:28.000Z</time>
      </trkpt>
      <trkpt lat="43.27690995298326015472412109375" lon="-4.97995496727526187896728515625">
        <ele>1057.5999755859375</ele>
        <time>2018-09-08T13:51:32.000Z</time>
      </trkpt>
      <trkpt lat="43.2768619246780872344970703125" lon="-4.97987039387226104736328125">
        <ele>1057.800048828125</ele>
        <time>2018-09-08T13:51:35.000Z</time>
      </trkpt>
      <trkpt lat="43.27676276676356792449951171875" lon="-4.97975631617009639739990234375">
        <ele>1058</ele>
        <time>2018-09-08T13:51:40.000Z</time>
      </trkpt>
      <trkpt lat="43.2767066918313503265380859375" lon="-4.979663528501987457275390625">
        <ele>1058</ele>
        <time>2018-09-08T13:51:43.000Z</time>
      </trkpt>
      <trkpt lat="43.27662128023803234100341796875" lon="-4.97951424680650234222412109375">
        <ele>1058.5999755859375</ele>
        <time>2018-09-08T13:51:48.000Z</time>
      </trkpt>
      <trkpt lat="43.2765950448811054229736328125" lon="-4.9794524721801280975341796875">
        <ele>1058.800048828125</ele>
        <time>2018-09-08T13:51:50.000Z</time>
      </trkpt>
      <trkpt lat="43.2765454240143299102783203125" lon="-4.9793344549834728240966796875">
        <ele>1059.199951171875</ele>
        <time>2018-09-08T13:51:54.000Z</time>
      </trkpt>
      <trkpt lat="43.27648096717894077301025390625" lon="-4.979196824133396148681640625">
        <ele>1060</ele>
        <time>2018-09-08T13:51:59.000Z</time>
      </trkpt>
      <trkpt lat="43.276453725993633270263671875" lon="-4.97914351522922515869140625">
        <ele>1060.4000244140625</ele>
        <time>2018-09-08T13:52:01.000Z</time>
      </trkpt>
      <trkpt lat="43.27641709707677364349365234375" lon="-4.97906514443457126617431640625">
        <ele>1061</ele>
        <time>2018-09-08T13:52:04.000Z</time>
      </trkpt>
      <trkpt lat="43.2763134129345417022705078125" lon="-4.97892684303224086761474609375">
        <ele>1061.800048828125</ele>
        <time>2018-09-08T13:52:11.000Z</time>
      </trkpt>
      <trkpt lat="43.27628332190215587615966796875" lon="-4.97889633290469646453857421875">
        <ele>1062.199951171875</ele>
        <time>2018-09-08T13:52:13.000Z</time>
      </trkpt>
      <trkpt lat="43.2762135006487369537353515625" lon="-4.9788211472332477569580078125">
        <ele>1063.199951171875</ele>
        <time>2018-09-08T13:52:19.000Z</time>
      </trkpt>
      <trkpt lat="43.276199586689472198486328125" lon="-4.97880756855010986328125">
        <ele>1063.199951171875</ele>
        <time>2018-09-08T13:52:20.000Z</time>
      </trkpt>
      <trkpt lat="43.2761504687368869781494140625" lon="-4.9787633121013641357421875">
        <ele>1064.199951171875</ele>
        <time>2018-09-08T13:52:24.000Z</time>
      </trkpt>
      <trkpt lat="43.276138566434383392333984375" lon="-4.97875191271305084228515625">
        <ele>1064.4000244140625</ele>
        <time>2018-09-08T13:52:25.000Z</time>
      </trkpt>
      <trkpt lat="43.27609808184206485748291015625" lon="-4.97872048057615756988525390625">
        <ele>1065</ele>
        <time>2018-09-08T13:52:28.000Z</time>
      </trkpt>
      <trkpt lat="43.276086263358592987060546875" lon="-4.97871126048266887664794921875">
        <ele>1065.4000244140625</ele>
        <time>2018-09-08T13:52:29.000Z</time>
      </trkpt>
      <trkpt lat="43.276047371327877044677734375" lon="-4.97868007980287075042724609375">
        <ele>1066</ele>
        <time>2018-09-08T13:52:32.000Z</time>
      </trkpt>
      <trkpt lat="43.276036642491817474365234375" lon="-4.9786699377000331878662109375">
        <ele>1066.199951171875</ele>
        <time>2018-09-08T13:52:33.000Z</time>
      </trkpt>
      <trkpt lat="43.27602415345609188079833984375" lon="-4.978658370673656463623046875">
        <ele>1066.4000244140625</ele>
        <time>2018-09-08T13:52:34.000Z</time>
      </trkpt>
      <trkpt lat="43.2760022766888141632080078125" lon="-4.97863800264894962310791015625">
        <ele>1066.800048828125</ele>
        <time>2018-09-08T13:52:36.000Z</time>
      </trkpt>
      <trkpt lat="43.275960870087146759033203125" lon="-4.9786184728145599365234375">
        <ele>1067.4000244140625</ele>
        <time>2018-09-08T13:52:39.000Z</time>
      </trkpt>
      <trkpt lat="43.27594838105142116546630859375" lon="-4.97860782779753208160400390625">
        <ele>1067.5999755859375</ele>
        <time>2018-09-08T13:52:40.000Z</time>
      </trkpt>
      <trkpt lat="43.27593631111085414886474609375" lon="-4.9785938300192356109619140625">
        <ele>1068</ele>
        <time>2018-09-08T13:52:41.000Z</time>
      </trkpt>
      <trkpt lat="43.27589406631886959075927734375" lon="-4.97855938039720058441162109375">
        <ele>1068.4000244140625</ele>
        <time>2018-09-08T13:52:44.000Z</time>
      </trkpt>
      <trkpt lat="43.27587344683706760406494140625" lon="-4.97853775508701801300048828125">
        <ele>1068.800048828125</ele>
        <time>2018-09-08T13:52:46.000Z</time>
      </trkpt>
      <trkpt lat="43.27584913931787014007568359375" lon="-4.9785183928906917572021484375">
        <ele>1069.199951171875</ele>
        <time>2018-09-08T13:52:48.000Z</time>
      </trkpt>
      <trkpt lat="43.275810666382312774658203125" lon="-4.9784660898149013519287109375">
        <ele>1070</ele>
        <time>2018-09-08T13:52:52.000Z</time>
      </trkpt>
      <trkpt lat="43.27577839605510234832763671875" lon="-4.9784221686422824859619140625">
        <ele>1070.4000244140625</ele>
        <time>2018-09-08T13:52:55.000Z</time>
      </trkpt>
      <trkpt lat="43.27574486844241619110107421875" lon="-4.978377409279346466064453125">
        <ele>1070.800048828125</ele>
        <time>2018-09-08T13:52:58.000Z</time>
      </trkpt>
      <trkpt lat="43.27570614404976367950439453125" lon="-4.97834731824696063995361328125">
        <ele>1071</ele>
        <time>2018-09-08T13:53:01.000Z</time>
      </trkpt>
      <trkpt lat="43.27569608576595783233642578125" lon="-4.97833826579153537750244140625">
        <ele>1071.199951171875</ele>
        <time>2018-09-08T13:53:02.000Z</time>
      </trkpt>
      <trkpt lat="43.275603465735912322998046875" lon="-4.9782712943851947784423828125">
        <ele>1072.199951171875</ele>
        <time>2018-09-08T13:53:09.000Z</time>
      </trkpt>
      <trkpt lat="43.275518976151943206787109375" lon="-4.9782008863985538482666015625">
        <ele>1073.4000244140625</ele>
        <time>2018-09-08T13:53:16.000Z</time>
      </trkpt>
      <trkpt lat="43.2755060680210590362548828125" lon="-4.97818772681057453155517578125">
        <ele>1073.5999755859375</ele>
        <time>2018-09-08T13:53:17.000Z</time>
      </trkpt>
      <trkpt lat="43.27542618848383426666259765625" lon="-4.97808965854346752166748046875">
        <ele>1074.800048828125</ele>
        <time>2018-09-08T13:53:24.000Z</time>
      </trkpt>
      <trkpt lat="43.2753843627870082855224609375" lon="-4.9780349247157573699951171875">
        <ele>1075.5999755859375</ele>
        <time>2018-09-08T13:53:28.000Z</time>
      </trkpt>
      <trkpt lat="43.2753612287342548370361328125" lon="-4.9780084379017353057861328125">
        <ele>1075.800048828125</ele>
        <time>2018-09-08T13:53:30.000Z</time>
      </trkpt>
      <trkpt lat="43.275307081639766693115234375" lon="-4.9779155664145946502685546875">
        <ele>1076.800048828125</ele>
        <time>2018-09-08T13:53:36.000Z</time>
      </trkpt>
      <trkpt lat="43.2752921618521213531494140625" lon="-4.9778860621154308319091796875">
        <ele>1077.199951171875</ele>
        <time>2018-09-08T13:53:38.000Z</time>
      </trkpt>
      <trkpt lat="43.2752465642988681793212890625" lon="-4.97782512567937374114990234375">
        <ele>1078.199951171875</ele>
        <time>2018-09-08T13:53:42.000Z</time>
      </trkpt>
      <trkpt lat="43.27519032172858715057373046875" lon="-4.9777606688439846038818359375">
        <ele>1079.199951171875</ele>
        <time>2018-09-08T13:53:47.000Z</time>
      </trkpt>
      <trkpt lat="43.27513600699603557586669921875" lon="-4.97769000940024852752685546875">
        <ele>1080.5999755859375</ele>
        <time>2018-09-08T13:53:52.000Z</time>
      </trkpt>
      <trkpt lat="43.27509996481239795684814453125" lon="-4.9776520393788814544677734375">
        <ele>1081.199951171875</ele>
        <time>2018-09-08T13:53:55.000Z</time>
      </trkpt>
      <trkpt lat="43.2750883139669895172119140625" lon="-4.97764290310442447662353515625">
        <ele>1081.800048828125</ele>
        <time>2018-09-08T13:53:56.000Z</time>
      </trkpt>
      <trkpt lat="43.27501212246716022491455078125" lon="-4.9775725789368152618408203125">
        <ele>1081.800048828125</ele>
        <time>2018-09-08T13:54:02.000Z</time>
      </trkpt>
      <trkpt lat="43.2749364338815212249755859375" lon="-4.977525807917118072509765625">
        <ele>1083</ele>
        <time>2018-09-08T13:54:07.000Z</time>
      </trkpt>
      <trkpt lat="43.2749039120972156524658203125" lon="-4.97751415707170963287353515625">
        <ele>1083</ele>
        <time>2018-09-08T13:54:09.000Z</time>
      </trkpt>
      <trkpt lat="43.2748713903129100799560546875" lon="-4.97751382179558277130126953125">
        <ele>1083.4000244140625</ele>
        <time>2018-09-08T13:54:11.000Z</time>
      </trkpt>
      <trkpt lat="43.27480240724980831146240234375" lon="-4.9775196053087711334228515625">
        <ele>1083.800048828125</ele>
        <time>2018-09-08T13:54:15.000Z</time>
      </trkpt>
      <trkpt lat="43.27472914941608905792236328125" lon="-4.9775269813835620880126953125">
        <ele>1084.199951171875</ele>
        <time>2018-09-08T13:54:19.000Z</time>
      </trkpt>
      <trkpt lat="43.27465832233428955078125" lon="-4.9775457568466663360595703125">
        <ele>1084.5999755859375</ele>
        <time>2018-09-08T13:54:23.000Z</time>
      </trkpt>
      <trkpt lat="43.2745738327503204345703125" lon="-4.97754869051277637481689453125">
        <ele>1085.4000244140625</ele>
        <time>2018-09-08T13:54:28.000Z</time>
      </trkpt>
      <trkpt lat="43.2744600065052509307861328125" lon="-4.97753963805735111236572265625">
        <ele>1086.4000244140625</ele>
        <time>2018-09-08T13:54:34.000Z</time>
      </trkpt>
      <trkpt lat="43.27437459491193294525146484375" lon="-4.9775025062263011932373046875">
        <ele>1087.4000244140625</ele>
        <time>2018-09-08T13:54:40.000Z</time>
      </trkpt>
      <trkpt lat="43.274359591305255889892578125" lon="-4.977495633065700531005859375">
        <ele>1087.800048828125</ele>
        <time>2018-09-08T13:54:41.000Z</time>
      </trkpt>
      <trkpt lat="43.2743054442107677459716796875" lon="-4.97748582623898983001708984375">
        <ele>1088.5999755859375</ele>
        <time>2018-09-08T13:54:45.000Z</time>
      </trkpt>
      <trkpt lat="43.274258337914943695068359375" lon="-4.977469481527805328369140625">
        <ele>1089.4000244140625</ele>
        <time>2018-09-08T13:54:49.000Z</time>
      </trkpt>
      <trkpt lat="43.2742484472692012786865234375" lon="-4.97746302746236324310302734375">
        <ele>1089.5999755859375</ele>
        <time>2018-09-08T13:54:50.000Z</time>
      </trkpt>
      <trkpt lat="43.274215757846832275390625" lon="-4.977434612810611724853515625">
        <ele>1090.4000244140625</ele>
        <time>2018-09-08T13:54:53.000Z</time>
      </trkpt>
      <trkpt lat="43.27419287525117397308349609375" lon="-4.977409131824970245361328125">
        <ele>1090.800048828125</ele>
        <time>2018-09-08T13:54:55.000Z</time>
      </trkpt>
      <trkpt lat="43.2741689868271350860595703125" lon="-4.97739362530410289764404296875">
        <ele>1091</ele>
        <time>2018-09-08T13:54:57.000Z</time>
      </trkpt>
      <trkpt lat="43.27413822524249553680419921875" lon="-4.9773660488426685333251953125">
        <ele>1092</ele>
        <time>2018-09-08T13:55:00.000Z</time>
      </trkpt>
      <trkpt lat="43.27407988719642162322998046875" lon="-4.9773274920880794525146484375">
        <ele>1092.5999755859375</ele>
        <time>2018-09-08T13:55:05.000Z</time>
      </trkpt>
      <trkpt lat="43.27405574731528759002685546875" lon="-4.97732095420360565185546875">
        <ele>1093</ele>
        <time>2018-09-08T13:55:07.000Z</time>
      </trkpt>
      <trkpt lat="43.27404015697538852691650390625" lon="-4.97730812989175319671630859375">
        <ele>1093.4000244140625</ele>
        <time>2018-09-08T13:55:09.000Z</time>
      </trkpt>
      <trkpt lat="43.27402087859809398651123046875" lon="-4.97729480266571044921875">
        <ele>1093.5999755859375</ele>
        <time>2018-09-08T13:55:11.000Z</time>
      </trkpt>
      <trkpt lat="43.27398483641445636749267578125" lon="-4.977265633642673492431640625">
        <ele>1094</ele>
        <time>2018-09-08T13:55:14.000Z</time>
      </trkpt>
      <trkpt lat="43.27393102459609508514404296875" lon="-4.977218694984912872314453125">
        <ele>1095.199951171875</ele>
        <time>2018-09-08T13:55:19.000Z</time>
      </trkpt>
      <trkpt lat="43.2739113271236419677734375" lon="-4.97720134444534778594970703125">
        <ele>1095.4000244140625</ele>
        <time>2018-09-08T13:55:21.000Z</time>
      </trkpt>
      <trkpt lat="43.2738742791116237640380859375" lon="-4.9771534837782382965087890625">
        <ele>1096.199951171875</ele>
        <time>2018-09-08T13:55:25.000Z</time>
      </trkpt>
      <trkpt lat="43.273828513920307159423828125" lon="-4.97710361145436763763427734375">
        <ele>1097</ele>
        <time>2018-09-08T13:55:29.000Z</time>
      </trkpt>
      <trkpt lat="43.2738085649907588958740234375" lon="-4.97707913629710674285888671875">
        <ele>1097.4000244140625</ele>
        <time>2018-09-08T13:55:31.000Z</time>
      </trkpt>
      <trkpt lat="43.273745365440845489501953125" lon="-4.9770145118236541748046875">
        <ele>1098.5999755859375</ele>
        <time>2018-09-08T13:55:37.000Z</time>
      </trkpt>
      <trkpt lat="43.2736942358314990997314453125" lon="-4.97695458121597766876220703125">
        <ele>1099.5999755859375</ele>
        <time>2018-09-08T13:55:42.000Z</time>
      </trkpt>
      <trkpt lat="43.2736677490174770355224609375" lon="-4.9769308604300022125244140625">
        <ele>1099.800048828125</ele>
        <time>2018-09-08T13:55:44.000Z</time>
      </trkpt>
      <trkpt lat="43.2735644839704036712646484375" lon="-4.9767960794270038604736328125">
        <ele>1100.5999755859375</ele>
        <time>2018-09-08T13:55:52.000Z</time>
      </trkpt>
      <trkpt lat="43.27350019477307796478271484375" lon="-4.97669055126607418060302734375">
        <ele>1101</ele>
        <time>2018-09-08T13:55:57.000Z</time>
      </trkpt>
      <trkpt lat="43.2734712772071361541748046875" lon="-4.9766529165208339691162109375">
        <ele>1101.199951171875</ele>
        <time>2018-09-08T13:55:59.000Z</time>
      </trkpt>
      <trkpt lat="43.27337765134871006011962890625" lon="-4.9766110070049762725830078125">
        <ele>1101</ele>
        <time>2018-09-08T13:56:05.000Z</time>
      </trkpt>
      <trkpt lat="43.27334311790764331817626953125" lon="-4.9766123481094837188720703125">
        <ele>1100.5999755859375</ele>
        <time>2018-09-08T13:56:07.000Z</time>
      </trkpt>
      <trkpt lat="43.27330724336206912994384765625" lon="-4.97661360539495944976806640625">
        <ele>1100.5999755859375</ele>
        <time>2018-09-08T13:56:09.000Z</time>
      </trkpt>
      <trkpt lat="43.2732499949634075164794921875" lon="-4.97662089765071868896484375">
        <ele>1100.4000244140625</ele>
        <time>2018-09-08T13:56:12.000Z</time>
      </trkpt>
      <trkpt lat="43.27322711236774921417236328125" lon="-4.976622574031352996826171875">
        <ele>1100.4000244140625</ele>
        <time>2018-09-08T13:56:13.000Z</time>
      </trkpt>
      <trkpt lat="43.27319693751633167266845703125" lon="-4.9766255915164947509765625">
        <ele>1100.199951171875</ele>
        <time>2018-09-08T13:56:14.000Z</time>
      </trkpt>
      <trkpt lat="43.27299711294472217559814453125" lon="-4.97669390402734279632568359375">
        <ele>1100</ele>
        <time>2018-09-08T13:56:20.000Z</time>
      </trkpt>
      <trkpt lat="43.27292821370065212249755859375" lon="-4.97672508470714092254638671875">
        <ele>1099.800048828125</ele>
        <time>2018-09-08T13:56:22.000Z</time>
      </trkpt>
      <trkpt lat="43.27285428531467914581298828125" lon="-4.97675207443535327911376953125">
        <ele>1099.800048828125</ele>
        <time>2018-09-08T13:56:24.000Z</time>
      </trkpt>
      <trkpt lat="43.272809945046901702880859375" lon="-4.97675257734954357147216796875">
        <ele>1099.5999755859375</ele>
        <time>2018-09-08T13:56:25.000Z</time>
      </trkpt>
      <trkpt lat="43.272726126015186309814453125" lon="-4.976778812706470489501953125">
        <ele>1098.5999755859375</ele>
        <time>2018-09-08T13:56:27.000Z</time>
      </trkpt>
      <trkpt lat="43.2726850546896457672119140625" lon="-4.976786859333515167236328125">
        <ele>1097.5999755859375</ele>
        <time>2018-09-08T13:56:28.000Z</time>
      </trkpt>
      <trkpt lat="43.27260282821953296661376953125" lon="-4.97679792344570159912109375">
        <ele>1096.5999755859375</ele>
        <time>2018-09-08T13:56:30.000Z</time>
      </trkpt>
      <trkpt lat="43.2725599966943264007568359375" lon="-4.976801611483097076416015625">
        <ele>1096.4000244140625</ele>
        <time>2018-09-08T13:56:31.000Z</time>
      </trkpt>
      <trkpt lat="43.27246050350368022918701171875" lon="-4.97680085711181163787841796875">
        <ele>1095.199951171875</ele>
        <time>2018-09-08T13:56:33.000Z</time>
      </trkpt>
      <trkpt lat="43.272398896515369415283203125" lon="-4.97679364867508411407470703125">
        <ele>1094.4000244140625</ele>
        <time>2018-09-08T13:56:34.000Z</time>
      </trkpt>
      <trkpt lat="43.27232974581420421600341796875" lon="-4.97678526677191257476806640625">
        <ele>1093.800048828125</ele>
        <time>2018-09-08T13:56:35.000Z</time>
      </trkpt>
      <trkpt lat="43.27225581742823123931884765625" lon="-4.9767917208373546600341796875">
        <ele>1093.4000244140625</ele>
        <time>2018-09-08T13:56:36.000Z</time>
      </trkpt>
      <trkpt lat="43.27211047522723674774169921875" lon="-4.97684326954185962677001953125">
        <ele>1092</ele>
        <time>2018-09-08T13:56:38.000Z</time>
      </trkpt>
      <trkpt lat="43.27197904698550701141357421875" lon="-4.9768959917128086090087890625">
        <ele>1090.199951171875</ele>
        <time>2018-09-08T13:56:40.000Z</time>
      </trkpt>
      <trkpt lat="43.2718304358422756195068359375" lon="-4.9769254960119724273681640625">
        <ele>1088.800048828125</ele>
        <time>2018-09-08T13:56:42.000Z</time>
      </trkpt>
      <trkpt lat="43.27175055630505084991455078125" lon="-4.9769268371164798736572265625">
        <ele>1087.800048828125</ele>
        <time>2018-09-08T13:56:43.000Z</time>
      </trkpt>
      <trkpt lat="43.27167394571006298065185546875" lon="-4.9769244901835918426513671875">
        <ele>1087</ele>
        <time>2018-09-08T13:56:44.000Z</time>
      </trkpt>
      <trkpt lat="43.27153061516582965850830078125" lon="-4.97690630145370960235595703125">
        <ele>1085.800048828125</ele>
        <time>2018-09-08T13:56:46.000Z</time>
      </trkpt>
      <trkpt lat="43.271399438381195068359375" lon="-4.9768643081188201904296875">
        <ele>1085</ele>
        <time>2018-09-08T13:56:48.000Z</time>
      </trkpt>
      <trkpt lat="43.27127404510974884033203125" lon="-4.97684645466506481170654296875">
        <ele>1085</ele>
        <time>2018-09-08T13:56:50.000Z</time>
      </trkpt>
      <trkpt lat="43.27121905982494354248046875" lon="-4.97685936279594898223876953125">
        <ele>1085.199951171875</ele>
        <time>2018-09-08T13:56:51.000Z</time>
      </trkpt>
      <trkpt lat="43.27117572538554668426513671875" lon="-4.9768715165555477142333984375">
        <ele>1084.5999755859375</ele>
        <time>2018-09-08T13:56:52.000Z</time>
      </trkpt>
      <trkpt lat="43.27109777368605136871337890625" lon="-4.97683924622833728790283203125">
        <ele>1083.4000244140625</ele>
        <time>2018-09-08T13:56:54.000Z</time>
      </trkpt>
      <trkpt lat="43.27108251862227916717529296875" lon="-4.97678291983902454376220703125">
        <ele>1082.800048828125</ele>
        <time>2018-09-08T13:56:55.000Z</time>
      </trkpt>
      <trkpt lat="43.271084614098072052001953125" lon="-4.9767246656119823455810546875">
        <ele>1082.199951171875</ele>
        <time>2018-09-08T13:56:56.000Z</time>
      </trkpt>
      <trkpt lat="43.2711293734610080718994140625" lon="-4.9766435287892818450927734375">
        <ele>1081.199951171875</ele>
        <time>2018-09-08T13:56:58.000Z</time>
      </trkpt>
      <trkpt lat="43.2712091691792011260986328125" lon="-4.97656331397593021392822265625">
        <ele>1080</ele>
        <time>2018-09-08T13:57:00.000Z</time>
      </trkpt>
      <trkpt lat="43.2713050581514835357666015625" lon="-4.976466335356235504150390625">
        <ele>1079</ele>
        <time>2018-09-08T13:57:02.000Z</time>
      </trkpt>
      <trkpt lat="43.271401785314083099365234375" lon="-4.97636131010949611663818359375">
        <ele>1077.800048828125</ele>
        <time>2018-09-08T13:57:04.000Z</time>
      </trkpt>
      <trkpt lat="43.27154369093477725982666015625" lon="-4.976208172738552093505859375">
        <ele>1076.5999755859375</ele>
        <time>2018-09-08T13:57:07.000Z</time>
      </trkpt>
      <trkpt lat="43.27163103036582469940185546875" lon="-4.976122677326202392578125">
        <ele>1075.800048828125</ele>
        <time>2018-09-08T13:57:09.000Z</time>
      </trkpt>
      <trkpt lat="43.27167126350104808807373046875" lon="-4.97607632540166378021240234375">
        <ele>1075.199951171875</ele>
        <time>2018-09-08T13:57:10.000Z</time>
      </trkpt>
      <trkpt lat="43.27171862125396728515625" lon="-4.97603642754256725311279296875">
        <ele>1074.5999755859375</ele>
        <time>2018-09-08T13:57:11.000Z</time>
      </trkpt>
      <trkpt lat="43.27176849357783794403076171875" lon="-4.97599569149315357208251953125">
        <ele>1073.800048828125</ele>
        <time>2018-09-08T13:57:12.000Z</time>
      </trkpt>
      <trkpt lat="43.27189237810671329498291015625" lon="-4.9759193323552608489990234375">
        <ele>1072.4000244140625</ele>
        <time>2018-09-08T13:57:14.000Z</time>
      </trkpt>
      <trkpt lat="43.27200888656079769134521484375" lon="-4.9758281372487545013427734375">
        <ele>1070.5999755859375</ele>
        <time>2018-09-08T13:57:16.000Z</time>
      </trkpt>
      <trkpt lat="43.27211349271237850189208984375" lon="-4.9757138080894947052001953125">
        <ele>1069</ele>
        <time>2018-09-08T13:57:18.000Z</time>
      </trkpt>
      <trkpt lat="43.2721610181033611297607421875" lon="-4.97565739788115024566650390625">
        <ele>1068.4000244140625</ele>
        <time>2018-09-08T13:57:19.000Z</time>
      </trkpt>
      <trkpt lat="43.27225162647664546966552734375" lon="-4.97554625384509563446044921875">
        <ele>1067.5999755859375</ele>
        <time>2018-09-08T13:57:21.000Z</time>
      </trkpt>
      <trkpt lat="43.27234868891537189483642578125" lon="-4.97546008788049221038818359375">
        <ele>1066.4000244140625</ele>
        <time>2018-09-08T13:57:23.000Z</time>
      </trkpt>
      <trkpt lat="43.27239520847797393798828125" lon="-4.97542924247682094573974609375">
        <ele>1066.199951171875</ele>
        <time>2018-09-08T13:57:24.000Z</time>
      </trkpt>
      <trkpt lat="43.2725133933126926422119140625" lon="-4.975317679345607757568359375">
        <ele>1065.4000244140625</ele>
        <time>2018-09-08T13:57:27.000Z</time>
      </trkpt>
      <trkpt lat="43.2725747488439083099365234375" lon="-4.97519253753125667572021484375">
        <ele>1064.5999755859375</ele>
        <time>2018-09-08T13:57:29.000Z</time>
      </trkpt>
      <trkpt lat="43.2726106233894824981689453125" lon="-4.975133948028087615966796875">
        <ele>1064</ele>
        <time>2018-09-08T13:57:30.000Z</time>
      </trkpt>
      <trkpt lat="43.27268379740417003631591796875" lon="-4.97500679455697536468505859375">
        <ele>1062.5999755859375</ele>
        <time>2018-09-08T13:57:32.000Z</time>
      </trkpt>
      <trkpt lat="43.27273660339415073394775390625" lon="-4.974867068231105804443359375">
        <ele>1061.5999755859375</ele>
        <time>2018-09-08T13:57:34.000Z</time>
      </trkpt>
      <trkpt lat="43.27277532778680324554443359375" lon="-4.974717199802398681640625">
        <ele>1060</ele>
        <time>2018-09-08T13:57:36.000Z</time>
      </trkpt>
      <trkpt lat="43.27279661782085895538330078125" lon="-4.97464268468320369720458984375">
        <ele>1059.199951171875</ele>
        <time>2018-09-08T13:57:37.000Z</time>
      </trkpt>
      <trkpt lat="43.27281254343688488006591796875" lon="-4.9745658226311206817626953125">
        <ele>1058.800048828125</ele>
        <time>2018-09-08T13:57:38.000Z</time>
      </trkpt>
      <trkpt lat="43.272824697196483612060546875" lon="-4.97449918650090694427490234375">
        <ele>1058.4000244140625</ele>
        <time>2018-09-08T13:57:39.000Z</time>
      </trkpt>
      <trkpt lat="43.2728583924472332000732421875" lon="-4.97436742298305034637451171875">
        <ele>1056.800048828125</ele>
        <time>2018-09-08T13:57:41.000Z</time>
      </trkpt>
      <trkpt lat="43.2729770801961421966552734375" lon="-4.97419416904449462890625">
        <ele>1055.5999755859375</ele>
        <time>2018-09-08T13:57:44.000Z</time>
      </trkpt>
      <trkpt lat="43.2730629108846187591552734375" lon="-4.974113367497920989990234375">
        <ele>1054.4000244140625</ele>
        <time>2018-09-08T13:57:46.000Z</time>
      </trkpt>
      <trkpt lat="43.2730867154896259307861328125" lon="-4.97406248934566974639892578125">
        <ele>1054</ele>
        <time>2018-09-08T13:57:47.000Z</time>
      </trkpt>
      <trkpt lat="43.2730595581233501434326171875" lon="-4.9739814363420009613037109375">
        <ele>1054.5999755859375</ele>
        <time>2018-09-08T13:57:49.000Z</time>
      </trkpt>
      <trkpt lat="43.27303013764321804046630859375" lon="-4.9739435501396656036376953125">
        <ele>1056</ele>
        <time>2018-09-08T13:57:51.000Z</time>
      </trkpt>
      <trkpt lat="43.273000381886959075927734375" lon="-4.9738828651607036590576171875">
        <ele>1057</ele>
        <time>2018-09-08T13:57:54.000Z</time>
      </trkpt>
      <trkpt lat="43.27298269607126712799072265625" lon="-4.97384003363549709320068359375">
        <ele>1057.199951171875</ele>
        <time>2018-09-08T13:57:56.000Z</time>
      </trkpt>
      <trkpt lat="43.27296576462686061859130859375" lon="-4.973788820207118988037109375">
        <ele>1057.4000244140625</ele>
        <time>2018-09-08T13:57:58.000Z</time>
      </trkpt>
      <trkpt lat="43.27295453287661075592041015625" lon="-4.9737631715834140777587890625">
        <ele>1057.5999755859375</ele>
        <time>2018-09-08T13:57:59.000Z</time>
      </trkpt>
      <trkpt lat="43.2729314826428890228271484375" lon="-4.97371195815503597259521484375">
        <ele>1057.5999755859375</ele>
        <time>2018-09-08T13:58:01.000Z</time>
      </trkpt>
      <trkpt lat="43.272914886474609375" lon="-4.9735987186431884765625">
        <ele>1058.4000244140625</ele>
        <time>2018-09-08T13:58:05.000Z</time>
      </trkpt>
      <trkpt lat="43.27290977351367473602294921875" lon="-4.97355085797607898712158203125">
        <ele>1058.5999755859375</ele>
        <time>2018-09-08T13:58:07.000Z</time>
      </trkpt>
      <trkpt lat="43.27291212044656276702880859375" lon="-4.9734684638679027557373046875">
        <ele>1059</ele>
        <time>2018-09-08T13:58:10.000Z</time>
      </trkpt>
      <trkpt lat="43.272938691079616546630859375" lon="-4.97328548692166805267333984375">
        <ele>1059.199951171875</ele>
        <time>2018-09-08T13:58:16.000Z</time>
      </trkpt>
      <trkpt lat="43.27296040020883083343505859375" lon="-4.97303285636007785797119140625">
        <ele>1058.5999755859375</ele>
        <time>2018-09-08T13:58:23.000Z</time>
      </trkpt>
      <trkpt lat="43.27297381125390529632568359375" lon="-4.97279204428195953369140625">
        <ele>1057.800048828125</ele>
        <time>2018-09-08T13:58:29.000Z</time>
      </trkpt>
      <trkpt lat="43.272917568683624267578125" lon="-4.97258543036878108978271484375">
        <ele>1057.199951171875</ele>
        <time>2018-09-08T13:58:33.000Z</time>
      </trkpt>
      <trkpt lat="43.2727997191250324249267578125" lon="-4.97243170626461505889892578125">
        <ele>1057.4000244140625</ele>
        <time>2018-09-08T13:58:38.000Z</time>
      </trkpt>
      <trkpt lat="43.27268220484256744384765625" lon="-4.97228619642555713653564453125">
        <ele>1057</ele>
        <time>2018-09-08T13:58:45.000Z</time>
      </trkpt>
      <trkpt lat="43.2726830430328845977783203125" lon="-4.97223548591136932373046875">
        <ele>1056.800048828125</ele>
        <time>2018-09-08T13:58:47.000Z</time>
      </trkpt>
      <trkpt lat="43.27269385568797588348388671875" lon="-4.972170777618885040283203125">
        <ele>1056.800048828125</ele>
        <time>2018-09-08T13:58:49.000Z</time>
      </trkpt>
      <trkpt lat="43.2727031596004962921142578125" lon="-4.9721407704055309295654296875">
        <ele>1056.800048828125</ele>
        <time>2018-09-08T13:58:50.000Z</time>
      </trkpt>
      <trkpt lat="43.27272034250199794769287109375" lon="-4.97208503074944019317626953125">
        <ele>1057.199951171875</ele>
        <time>2018-09-08T13:58:52.000Z</time>
      </trkpt>
      <trkpt lat="43.27273928560316562652587890625" lon="-4.97203432023525238037109375">
        <ele>1057.800048828125</ele>
        <time>2018-09-08T13:58:54.000Z</time>
      </trkpt>
      <trkpt lat="43.27275873161852359771728515625" lon="-4.9719701148569583892822265625">
        <ele>1058.199951171875</ele>
        <time>2018-09-08T13:58:56.000Z</time>
      </trkpt>
      <trkpt lat="43.272762335836887359619140625" lon="-4.9719080887734889984130859375">
        <ele>1058.4000244140625</ele>
        <time>2018-09-08T13:58:58.000Z</time>
      </trkpt>
      <trkpt lat="43.27276811935007572174072265625" lon="-4.97178889811038970947265625">
        <ele>1059.199951171875</ele>
        <time>2018-09-08T13:59:02.000Z</time>
      </trkpt>
      <trkpt lat="43.27276661060750484466552734375" lon="-4.97176031582057476043701171875">
        <ele>1059.4000244140625</ele>
        <time>2018-09-08T13:59:03.000Z</time>
      </trkpt>
      <trkpt lat="43.27275998890399932861328125" lon="-4.9716408737003803253173828125">
        <ele>1060</ele>
        <time>2018-09-08T13:59:07.000Z</time>
      </trkpt>
      <trkpt lat="43.27273626811802387237548828125" lon="-4.97153333388268947601318359375">
        <ele>1060.4000244140625</ele>
        <time>2018-09-08T13:59:11.000Z</time>
      </trkpt>
      <trkpt lat="43.272724449634552001953125" lon="-4.97148019261658191680908203125">
        <ele>1060.5999755859375</ele>
        <time>2018-09-08T13:59:13.000Z</time>
      </trkpt>
      <trkpt lat="43.2726964540779590606689453125" lon="-4.9713743291795253753662109375">
        <ele>1061.800048828125</ele>
        <time>2018-09-08T13:59:17.000Z</time>
      </trkpt>
      <trkpt lat="43.27268195338547229766845703125" lon="-4.9713228642940521240234375">
        <ele>1062.199951171875</ele>
        <time>2018-09-08T13:59:19.000Z</time>
      </trkpt>
      <trkpt lat="43.27266116626560688018798828125" lon="-4.97128070332109928131103515625">
        <ele>1062.4000244140625</ele>
        <time>2018-09-08T13:59:21.000Z</time>
      </trkpt>
      <trkpt lat="43.27261690981686115264892578125" lon="-4.97116687707602977752685546875">
        <ele>1062.5999755859375</ele>
        <time>2018-09-08T13:59:25.000Z</time>
      </trkpt>
      <trkpt lat="43.2726052589714527130126953125" lon="-4.97113821096718311309814453125">
        <ele>1062.5999755859375</ele>
        <time>2018-09-08T13:59:26.000Z</time>
      </trkpt>
      <trkpt lat="43.272580616176128387451171875" lon="-4.97108071111142635345458984375">
        <ele>1062.800048828125</ele>
        <time>2018-09-08T13:59:28.000Z</time>
      </trkpt>
      <trkpt lat="43.2725325040519237518310546875" lon="-4.97097887098789215087890625">
        <ele>1063.5999755859375</ele>
        <time>2018-09-08T13:59:32.000Z</time>
      </trkpt>
      <trkpt lat="43.2725227810442447662353515625" lon="-4.9709502048790454864501953125">
        <ele>1063.800048828125</ele>
        <time>2018-09-08T13:59:33.000Z</time>
      </trkpt>
      <trkpt lat="43.272494785487651824951171875" lon="-4.97087200172245502471923828125">
        <ele>1064.4000244140625</ele>
        <time>2018-09-08T13:59:36.000Z</time>
      </trkpt>
      <trkpt lat="43.2724674604833126068115234375" lon="-4.97078038752079010009765625">
        <ele>1065</ele>
        <time>2018-09-08T13:59:40.000Z</time>
      </trkpt>
      <trkpt lat="43.27244172804057598114013671875" lon="-4.97068558819591999053955078125">
        <ele>1065.5999755859375</ele>
        <time>2018-09-08T13:59:44.000Z</time>
      </trkpt>
      <trkpt lat="43.2724200189113616943359375" lon="-4.97061970643699169158935546875">
        <ele>1066</ele>
        <time>2018-09-08T13:59:47.000Z</time>
      </trkpt>
      <trkpt lat="43.27239923179149627685546875" lon="-4.97047972865402698516845703125">
        <ele>1067</ele>
        <time>2018-09-08T13:59:53.000Z</time>
      </trkpt>
      <trkpt lat="43.27239579521119594573974609375" lon="-4.97045718133449554443359375">
        <ele>1067.199951171875</ele>
        <time>2018-09-08T13:59:54.000Z</time>
      </trkpt>
      <trkpt lat="43.2723725773394107818603515625" lon="-4.97031795792281627655029296875">
        <ele>1068.199951171875</ele>
        <time>2018-09-08T14:00:00.000Z</time>
      </trkpt>
      <trkpt lat="43.2723712362349033355712890625" lon="-4.97029901482164859771728515625">
        <ele>1068.5999755859375</ele>
        <time>2018-09-08T14:00:01.000Z</time>
      </trkpt>
      <trkpt lat="43.27235698699951171875" lon="-4.97021787799894809722900390625">
        <ele>1069.4000244140625</ele>
        <time>2018-09-08T14:00:05.000Z</time>
      </trkpt>
      <trkpt lat="43.272345252335071563720703125" lon="-4.97013305313885211944580078125">
        <ele>1070.4000244140625</ele>
        <time>2018-09-08T14:00:09.000Z</time>
      </trkpt>
      <trkpt lat="43.27234022319316864013671875" lon="-4.970113523304462432861328125">
        <ele>1070.5999755859375</ele>
        <time>2018-09-08T14:00:10.000Z</time>
      </trkpt>
      <trkpt lat="43.27232287265360355377197265625" lon="-4.97001327574253082275390625">
        <ele>1071.800048828125</ele>
        <time>2018-09-08T14:00:15.000Z</time>
      </trkpt>
      <trkpt lat="43.27231608331203460693359375" lon="-4.96995401568710803985595703125">
        <ele>1072.4000244140625</ele>
        <time>2018-09-08T14:00:18.000Z</time>
      </trkpt>
      <trkpt lat="43.2723078690469264984130859375" lon="-4.96991495601832866668701171875">
        <ele>1072.800048828125</ele>
        <time>2018-09-08T14:00:20.000Z</time>
      </trkpt>
      <trkpt lat="43.2722867466509342193603515625" lon="-4.969837926328182220458984375">
        <ele>1074</ele>
        <time>2018-09-08T14:00:24.000Z</time>
      </trkpt>
      <trkpt lat="43.2722776941955089569091796875" lon="-4.969819821417331695556640625">
        <ele>1074.199951171875</ele>
        <time>2018-09-08T14:00:25.000Z</time>
      </trkpt>
      <trkpt lat="43.27225715853273868560791015625" lon="-4.96976123191416263580322265625">
        <ele>1075</ele>
        <time>2018-09-08T14:00:28.000Z</time>
      </trkpt>
      <trkpt lat="43.27224844135344028472900390625" lon="-4.96974061243236064910888671875">
        <ele>1075.4000244140625</ele>
        <time>2018-09-08T14:00:29.000Z</time>
      </trkpt>
      <trkpt lat="43.272209465503692626953125" lon="-4.96967171318829059600830078125">
        <ele>1076.4000244140625</ele>
        <time>2018-09-08T14:00:34.000Z</time>
      </trkpt>
      <trkpt lat="43.27218859456479549407958984375" lon="-4.96963030658662319183349609375">
        <ele>1077</ele>
        <time>2018-09-08T14:00:37.000Z</time>
      </trkpt>
      <trkpt lat="43.2721593417227268218994140625" lon="-4.96958236210048198699951171875">
        <ele>1077.5999755859375</ele>
        <time>2018-09-08T14:00:40.000Z</time>
      </trkpt>
      <trkpt lat="43.27212472446262836456298828125" lon="-4.9695457331836223602294921875">
        <ele>1077.800048828125</ele>
        <time>2018-09-08T14:00:43.000Z</time>
      </trkpt>
      <trkpt lat="43.27207426540553569793701171875" lon="-4.96952620334923267364501953125">
        <ele>1078.5999755859375</ele>
        <time>2018-09-08T14:00:47.000Z</time>
      </trkpt>
      <trkpt lat="43.27202975749969482421875" lon="-4.96948613785207271575927734375">
        <ele>1079.199951171875</ele>
        <time>2018-09-08T14:00:51.000Z</time>
      </trkpt>
      <trkpt lat="43.27200285159051418304443359375" lon="-4.969485886394977569580078125">
        <ele>1079.5999755859375</ele>
        <time>2018-09-08T14:00:53.000Z</time>
      </trkpt>
      <trkpt lat="43.271952308714389801025390625" lon="-4.96949334628880023956298828125">
        <ele>1080.4000244140625</ele>
        <time>2018-09-08T14:00:57.000Z</time>
      </trkpt>
      <trkpt lat="43.271907381713390350341796875" lon="-4.9694930948317050933837890625">
        <ele>1080.800048828125</ele>
        <time>2018-09-08T14:01:00.000Z</time>
      </trkpt>
      <trkpt lat="43.27183538116514682769775390625" lon="-4.9695001356303691864013671875">
        <ele>1081.5999755859375</ele>
        <time>2018-09-08T14:01:05.000Z</time>
      </trkpt>
      <trkpt lat="43.27182046137750148773193359375" lon="-4.9694984592497348785400390625">
        <ele>1081.800048828125</ele>
        <time>2018-09-08T14:01:06.000Z</time>
      </trkpt>
      <trkpt lat="43.27172373421490192413330078125" lon="-4.96950021944940090179443359375">
        <ele>1082.800048828125</ele>
        <time>2018-09-08T14:01:13.000Z</time>
      </trkpt>
      <trkpt lat="43.271659947931766510009765625" lon="-4.969508014619350433349609375">
        <ele>1083.4000244140625</ele>
        <time>2018-09-08T14:01:17.000Z</time>
      </trkpt>
      <trkpt lat="43.27161527238786220550537109375" lon="-4.9695138819515705108642578125">
        <ele>1084</ele>
        <time>2018-09-08T14:01:20.000Z</time>
      </trkpt>
      <trkpt lat="43.27159213833510875701904296875" lon="-4.9695195816457271575927734375">
        <ele>1084.199951171875</ele>
        <time>2018-09-08T14:01:22.000Z</time>
      </trkpt>
      <trkpt lat="43.27149038203060626983642578125" lon="-4.96952704153954982757568359375">
        <ele>1085</ele>
        <time>2018-09-08T14:01:28.000Z</time>
      </trkpt>
      <trkpt lat="43.2714039646089076995849609375" lon="-4.96953458525240421295166015625">
        <ele>1086</ele>
        <time>2018-09-08T14:01:32.000Z</time>
      </trkpt>
      <trkpt lat="43.271377980709075927734375" lon="-4.969532154500484466552734375">
        <ele>1086.199951171875</ele>
        <time>2018-09-08T14:01:33.000Z</time>
      </trkpt>
      <trkpt lat="43.27135585248470306396484375" lon="-4.96952519752085208892822265625">
        <ele>1086.4000244140625</ele>
        <time>2018-09-08T14:01:34.000Z</time>
      </trkpt>
      <trkpt lat="43.27133129350841045379638671875" lon="-4.96950826607644557952880859375">
        <ele>1086.800048828125</ele>
        <time>2018-09-08T14:01:36.000Z</time>
      </trkpt>
      <trkpt lat="43.27133179642260074615478515625" lon="-4.96950943954288959503173828125">
        <ele>1087.199951171875</ele>
        <time>2018-09-08T14:01:38.000Z</time>
      </trkpt>
      <trkpt lat="43.2712973468005657196044921875" lon="-4.9694545380771160125732421875">
        <ele>1087.199951171875</ele>
        <time>2018-09-08T14:03:37.000Z</time>
      </trkpt>
      <trkpt lat="43.27127161435782909393310546875" lon="-4.96942880563437938690185546875">
        <ele>1087.199951171875</ele>
        <time>2018-09-08T14:03:39.000Z</time>
      </trkpt>
      <trkpt lat="43.27122953720390796661376953125" lon="-4.9694015644490718841552734375">
        <ele>1087.4000244140625</ele>
        <time>2018-09-08T14:03:46.000Z</time>
      </trkpt>
      <trkpt lat="43.27120020054280757904052734375" lon="-4.96933023445308208465576171875">
        <ele>1087.199951171875</ele>
        <time>2018-09-08T14:04:03.000Z</time>
      </trkpt>
      <trkpt lat="43.27118217945098876953125" lon="-4.969290085136890411376953125">
        <ele>1087</ele>
        <time>2018-09-08T14:04:04.000Z</time>
      </trkpt>
      <trkpt lat="43.27116667293012142181396484375" lon="-4.96923333965241909027099609375">
        <ele>1086.199951171875</ele>
        <time>2018-09-08T14:04:05.000Z</time>
      </trkpt>
      <trkpt lat="43.27112291939556598663330078125" lon="-4.96908246539533138275146484375">
        <ele>1084.5999755859375</ele>
        <time>2018-09-08T14:04:07.000Z</time>
      </trkpt>
      <trkpt lat="43.271104395389556884765625" lon="-4.968974255025386810302734375">
        <ele>1083.199951171875</ele>
        <time>2018-09-08T14:04:08.000Z</time>
      </trkpt>
      <trkpt lat="43.27108738012611865997314453125" lon="-4.9688659608364105224609375">
        <ele>1081.800048828125</ele>
        <time>2018-09-08T14:04:09.000Z</time>
      </trkpt>
      <trkpt lat="43.27105267904698848724365234375" lon="-4.96866881847381591796875">
        <ele>1080.5999755859375</ele>
        <time>2018-09-08T14:04:11.000Z</time>
      </trkpt>
      <trkpt lat="43.2710475660860538482666015625" lon="-4.96850897558033466339111328125">
        <ele>1079.5999755859375</ele>
        <time>2018-09-08T14:04:13.000Z</time>
      </trkpt>
      <trkpt lat="43.2710566185414791107177734375" lon="-4.9684272520244121551513671875">
        <ele>1079.199951171875</ele>
        <time>2018-09-08T14:04:14.000Z</time>
      </trkpt>
      <trkpt lat="43.2711069099605083465576171875" lon="-4.96817336417734622955322265625">
        <ele>1077.4000244140625</ele>
        <time>2018-09-08T14:04:17.000Z</time>
      </trkpt>
      <trkpt lat="43.27109710313379764556884765625" lon="-4.968070685863494873046875">
        <ele>1076.4000244140625</ele>
        <time>2018-09-08T14:04:18.000Z</time>
      </trkpt>
      <trkpt lat="43.27107279561460018157958984375" lon="-4.96797421015799045562744140625">
        <ele>1075.199951171875</ele>
        <time>2018-09-08T14:04:19.000Z</time>
      </trkpt>
      <trkpt lat="43.27098880894482135772705078125" lon="-4.96778913773596286773681640625">
        <ele>1073.199951171875</ele>
        <time>2018-09-08T14:04:21.000Z</time>
      </trkpt>
      <trkpt lat="43.2709577120840549468994140625" lon="-4.9677027203142642974853515625">
        <ele>1072.199951171875</ele>
        <time>2018-09-08T14:04:22.000Z</time>
      </trkpt>
      <trkpt lat="43.2709409482777118682861328125" lon="-4.9676187336444854736328125">
        <ele>1071.4000244140625</ele>
        <time>2018-09-08T14:04:23.000Z</time>
      </trkpt>
      <trkpt lat="43.27093181200325489044189453125" lon="-4.96746651828289031982421875">
        <ele>1070.199951171875</ele>
        <time>2018-09-08T14:04:25.000Z</time>
      </trkpt>
      <trkpt lat="43.2709255255758762359619140625" lon="-4.96729628182947635650634765625">
        <ele>1069</ele>
        <time>2018-09-08T14:04:27.000Z</time>
      </trkpt>
      <trkpt lat="43.270936422049999237060546875" lon="-4.96710400097072124481201171875">
        <ele>1066.4000244140625</ele>
        <time>2018-09-08T14:04:29.000Z</time>
      </trkpt>
      <trkpt lat="43.27094824053347110748291015625" lon="-4.96701280586421489715576171875">
        <ele>1065.4000244140625</ele>
        <time>2018-09-08T14:04:30.000Z</time>
      </trkpt>
      <trkpt lat="43.27094413340091705322265625" lon="-4.96693334542214870452880859375">
        <ele>1064.5999755859375</ele>
        <time>2018-09-08T14:04:31.000Z</time>
      </trkpt>
      <trkpt lat="43.27091873623430728912353515625" lon="-4.96674005873501300811767578125">
        <ele>1063.4000244140625</ele>
        <time>2018-09-08T14:04:34.000Z</time>
      </trkpt>
      <trkpt lat="43.27091538347303867340087890625" lon="-4.96665925718843936920166015625">
        <ele>1062.4000244140625</ele>
        <time>2018-09-08T14:04:36.000Z</time>
      </trkpt>
      <trkpt lat="43.27091571874916553497314453125" lon="-4.966634698212146759033203125">
        <ele>1062</ele>
        <time>2018-09-08T14:04:37.000Z</time>
      </trkpt>
      <trkpt lat="43.27091303654015064239501953125" lon="-4.96660594828426837921142578125">
        <ele>1061.800048828125</ele>
        <time>2018-09-08T14:04:38.000Z</time>
      </trkpt>
      <trkpt lat="43.27090918086469173431396484375" lon="-4.96651927940547466278076171875">
        <ele>1061</ele>
        <time>2018-09-08T14:04:40.000Z</time>
      </trkpt>
      <trkpt lat="43.270911276340484619140625" lon="-4.96638935990631580352783203125">
        <ele>1060</ele>
        <time>2018-09-08T14:04:42.000Z</time>
      </trkpt>
      <trkpt lat="43.27092426829040050506591796875" lon="-4.966321885585784912109375">
        <ele>1059.4000244140625</ele>
        <time>2018-09-08T14:04:43.000Z</time>
      </trkpt>
      <trkpt lat="43.27098025940358638763427734375" lon="-4.9662050418555736541748046875">
        <ele>1057.800048828125</ele>
        <time>2018-09-08T14:04:45.000Z</time>
      </trkpt>
      <trkpt lat="43.27099534682929515838623046875" lon="-4.9661463685333728790283203125">
        <ele>1057</ele>
        <time>2018-09-08T14:04:46.000Z</time>
      </trkpt>
      <trkpt lat="43.27098528854548931121826171875" lon="-4.9660937301814556121826171875">
        <ele>1056.4000244140625</ele>
        <time>2018-09-08T14:04:47.000Z</time>
      </trkpt>
      <trkpt lat="43.27093583531677722930908203125" lon="-4.96602483093738555908203125">
        <ele>1055.4000244140625</ele>
        <time>2018-09-08T14:04:49.000Z</time>
      </trkpt>
      <trkpt lat="43.27079602517187595367431640625" lon="-4.965952076017856597900390625">
        <ele>1054</ele>
        <time>2018-09-08T14:04:52.000Z</time>
      </trkpt>
      <trkpt lat="43.27074187807738780975341796875" lon="-4.96592114679515361785888671875">
        <ele>1052.800048828125</ele>
        <time>2018-09-08T14:04:53.000Z</time>
      </trkpt>
      <trkpt lat="43.27069929800927639007568359375" lon="-4.96586951427161693572998046875">
        <ele>1052.199951171875</ele>
        <time>2018-09-08T14:04:54.000Z</time>
      </trkpt>
      <trkpt lat="43.270672224462032318115234375" lon="-4.9657970108091831207275390625">
        <ele>1051.5999755859375</ele>
        <time>2018-09-08T14:04:55.000Z</time>
      </trkpt>
      <trkpt lat="43.2706529460847377777099609375" lon="-4.96572014875710010528564453125">
        <ele>1050.5999755859375</ele>
        <time>2018-09-08T14:04:56.000Z</time>
      </trkpt>
      <trkpt lat="43.27063299715518951416015625" lon="-4.965640939772129058837890625">
        <ele>1049.800048828125</ele>
        <time>2018-09-08T14:04:57.000Z</time>
      </trkpt>
      <trkpt lat="43.270607851445674896240234375" lon="-4.965498447418212890625">
        <ele>1048</ele>
        <time>2018-09-08T14:04:59.000Z</time>
      </trkpt>
      <trkpt lat="43.27059938572347164154052734375" lon="-4.96535033918917179107666015625">
        <ele>1046.199951171875</ele>
        <time>2018-09-08T14:05:01.000Z</time>
      </trkpt>
      <trkpt lat="43.2706143893301486968994140625" lon="-4.9651951901614665985107421875">
        <ele>1044.199951171875</ele>
        <time>2018-09-08T14:05:03.000Z</time>
      </trkpt>
      <trkpt lat="43.2706402055919170379638671875" lon="-4.965032748878002166748046875">
        <ele>1042.199951171875</ele>
        <time>2018-09-08T14:05:05.000Z</time>
      </trkpt>
      <trkpt lat="43.27066074125468730926513671875" lon="-4.96495136059820652008056640625">
        <ele>1041</ele>
        <time>2018-09-08T14:05:06.000Z</time>
      </trkpt>
      <trkpt lat="43.27068387530744075775146484375" lon="-4.96486217714846134185791015625">
        <ele>1039.5999755859375</ele>
        <time>2018-09-08T14:05:07.000Z</time>
      </trkpt>
      <trkpt lat="43.2707018963992595672607421875" lon="-4.96476796455681324005126953125">
        <ele>1037.800048828125</ele>
        <time>2018-09-08T14:05:08.000Z</time>
      </trkpt>
      <trkpt lat="43.2707206718623638153076171875" lon="-4.96468146331608295440673828125">
        <ele>1036.199951171875</ele>
        <time>2018-09-08T14:05:09.000Z</time>
      </trkpt>
      <trkpt lat="43.2707414589822292327880859375" lon="-4.96459043584764003753662109375">
        <ele>1034.800048828125</ele>
        <time>2018-09-08T14:05:10.000Z</time>
      </trkpt>
      <trkpt lat="43.27076174318790435791015625" lon="-4.96449354104697704315185546875">
        <ele>1033.5999755859375</ele>
        <time>2018-09-08T14:05:11.000Z</time>
      </trkpt>
      <trkpt lat="43.27077674679458141326904296875" lon="-4.96438876725733280181884765625">
        <ele>1032.5999755859375</ele>
        <time>2018-09-08T14:05:12.000Z</time>
      </trkpt>
      <trkpt lat="43.27077456749975681304931640625" lon="-4.96426940895617008209228515625">
        <ele>1031</ele>
        <time>2018-09-08T14:05:13.000Z</time>
      </trkpt>
      <trkpt lat="43.2707583904266357421875" lon="-4.9641508050262928009033203125">
        <ele>1029.4000244140625</ele>
        <time>2018-09-08T14:05:14.000Z</time>
      </trkpt>
      <trkpt lat="43.2707436382770538330078125" lon="-4.96405282057821750640869140625">
        <ele>1028</ele>
        <time>2018-09-08T14:05:15.000Z</time>
      </trkpt>
      <trkpt lat="43.270736597478389739990234375" lon="-4.963970594108104705810546875">
        <ele>1026.800048828125</ele>
        <time>2018-09-08T14:05:16.000Z</time>
      </trkpt>
      <trkpt lat="43.2707293890416622161865234375" lon="-4.96389104984700679779052734375">
        <ele>1025</ele>
        <time>2018-09-08T14:05:17.000Z</time>
      </trkpt>
      <trkpt lat="43.2707270421087741851806640625" lon="-4.9638242460787296295166015625">
        <ele>1024.5999755859375</ele>
        <time>2018-09-08T14:05:18.000Z</time>
      </trkpt>
      <trkpt lat="43.27072151005268096923828125" lon="-4.96376414783298969268798828125">
        <ele>1023.79998779296875</ele>
        <time>2018-09-08T14:05:19.000Z</time>
      </trkpt>
      <trkpt lat="43.27069074846804141998291015625" lon="-4.96373129077255725860595703125">
        <ele>1023.4000244140625</ele>
        <time>2018-09-08T14:05:20.000Z</time>
      </trkpt>
      <trkpt lat="43.2706479169428348541259765625" lon="-4.9637179635465145111083984375">
        <ele>1022.79998779296875</ele>
        <time>2018-09-08T14:05:21.000Z</time>
      </trkpt>
      <trkpt lat="43.2705637626349925994873046875" lon="-4.96379281394183635711669921875">
        <ele>1021.79998779296875</ele>
        <time>2018-09-08T14:05:23.000Z</time>
      </trkpt>
      <trkpt lat="43.27052311040461063385009765625" lon="-4.96385031379759311676025390625">
        <ele>1021.4000244140625</ele>
        <time>2018-09-08T14:05:24.000Z</time>
      </trkpt>
      <trkpt lat="43.2704675383865833282470703125" lon="-4.96390328742563724517822265625">
        <ele>1020.79998779296875</ele>
        <time>2018-09-08T14:05:25.000Z</time>
      </trkpt>
      <trkpt lat="43.270414732396602630615234375" lon="-4.96396229602396488189697265625">
        <ele>1019.79998779296875</ele>
        <time>2018-09-08T14:05:26.000Z</time>
      </trkpt>
      <trkpt lat="43.27037014067173004150390625" lon="-4.964013509452342987060546875">
        <ele>1018.79998779296875</ele>
        <time>2018-09-08T14:05:27.000Z</time>
      </trkpt>
      <trkpt lat="43.27031238935887813568115234375" lon="-4.96403597295284271240234375">
        <ele>1017.5999755859375</ele>
        <time>2018-09-08T14:05:28.000Z</time>
      </trkpt>
      <trkpt lat="43.270204849541187286376953125" lon="-4.96397268958389759063720703125">
        <ele>1016</ele>
        <time>2018-09-08T14:05:30.000Z</time>
      </trkpt>
      <trkpt lat="43.27016654424369335174560546875" lon="-4.96389926411211490631103515625">
        <ele>1015.4000244140625</ele>
        <time>2018-09-08T14:05:31.000Z</time>
      </trkpt>
      <trkpt lat="43.2701356150209903717041015625" lon="-4.96381360106170177459716796875">
        <ele>1014.5999755859375</ele>
        <time>2018-09-08T14:05:32.000Z</time>
      </trkpt>
      <trkpt lat="43.2700953818857669830322265625" lon="-4.96363900601863861083984375">
        <ele>1014</ele>
        <time>2018-09-08T14:05:34.000Z</time>
      </trkpt>
      <trkpt lat="43.2700722478330135345458984375" lon="-4.963475055992603302001953125">
        <ele>1014.20001220703125</ele>
        <time>2018-09-08T14:05:37.000Z</time>
      </trkpt>
      <trkpt lat="43.27003863640129566192626953125" lon="-4.96326676569879055023193359375">
        <ele>1012.79998779296875</ele>
        <time>2018-09-08T14:05:40.000Z</time>
      </trkpt>
      <trkpt lat="43.27002220787107944488525390625" lon="-4.96317624114453792572021484375">
        <ele>1011</ele>
        <time>2018-09-08T14:05:41.000Z</time>
      </trkpt>
      <trkpt lat="43.27001147903501987457275390625" lon="-4.9630775861442089080810546875">
        <ele>1010.20001220703125</ele>
        <time>2018-09-08T14:05:42.000Z</time>
      </trkpt>
      <trkpt lat="43.27000762335956096649169921875" lon="-4.96299804188311100006103515625">
        <ele>1009.4000244140625</ele>
        <time>2018-09-08T14:05:43.000Z</time>
      </trkpt>
      <trkpt lat="43.270011059939861297607421875" lon="-4.9629310704767704010009765625">
        <ele>1008.79998779296875</ele>
        <time>2018-09-08T14:05:44.000Z</time>
      </trkpt>
      <trkpt lat="43.27002388425171375274658203125" lon="-4.96281699277460575103759765625">
        <ele>1008</ele>
        <time>2018-09-08T14:05:46.000Z</time>
      </trkpt>
      <trkpt lat="43.27004693448543548583984375" lon="-4.96272630058228969573974609375">
        <ele>1007.20001220703125</ele>
        <time>2018-09-08T14:05:48.000Z</time>
      </trkpt>
      <trkpt lat="43.27006034553050994873046875" lon="-4.96268304996192455291748046875">
        <ele>1006.79998779296875</ele>
        <time>2018-09-08T14:05:49.000Z</time>
      </trkpt>
      <trkpt lat="43.27009161002933979034423828125" lon="-4.962604008615016937255859375">
        <ele>1005.5999755859375</ele>
        <time>2018-09-08T14:05:51.000Z</time>
      </trkpt>
      <trkpt lat="43.270129747688770294189453125" lon="-4.962517507374286651611328125">
        <ele>1004.4000244140625</ele>
        <time>2018-09-08T14:05:53.000Z</time>
      </trkpt>
      <trkpt lat="43.27017107047140598297119140625" lon="-4.962420947849750518798828125">
        <ele>1003.4000244140625</ele>
        <time>2018-09-08T14:05:55.000Z</time>
      </trkpt>
      <trkpt lat="43.270214237272739410400390625" lon="-4.9623225443065166473388671875">
        <ele>1001.79998779296875</ele>
        <time>2018-09-08T14:05:57.000Z</time>
      </trkpt>
      <trkpt lat="43.27023929916322231292724609375" lon="-4.962284825742244720458984375">
        <ele>1001</ele>
        <time>2018-09-08T14:05:58.000Z</time>
      </trkpt>
      <trkpt lat="43.270263187587261199951171875" lon="-4.96224819682538509368896484375">
        <ele>1000.4000244140625</ele>
        <time>2018-09-08T14:05:59.000Z</time>
      </trkpt>
      <trkpt lat="43.27029696665704250335693359375" lon="-4.96220930479466915130615234375">
        <ele>999.79998779296875</ele>
        <time>2018-09-08T14:06:00.000Z</time>
      </trkpt>
      <trkpt lat="43.2703681290149688720703125" lon="-4.96216379106044769287109375">
        <ele>999</ele>
        <time>2018-09-08T14:06:02.000Z</time>
      </trkpt>
      <trkpt lat="43.2704262994229793548583984375" lon="-4.96213026344776153564453125">
        <ele>998.4000244140625</ele>
        <time>2018-09-08T14:06:04.000Z</time>
      </trkpt>
      <trkpt lat="43.27044884674251079559326171875" lon="-4.96210536919534206390380859375">
        <ele>998</ele>
        <time>2018-09-08T14:06:05.000Z</time>
      </trkpt>
      <trkpt lat="43.2705128006637096405029296875" lon="-4.962058179080486297607421875">
        <ele>997.4000244140625</ele>
        <time>2018-09-08T14:06:07.000Z</time>
      </trkpt>
      <trkpt lat="43.27055596746504306793212890625" lon="-4.96202775277197360992431640625">
        <ele>996.79998779296875</ele>
        <time>2018-09-08T14:06:08.000Z</time>
      </trkpt>
      <trkpt lat="43.27059636823832988739013671875" lon="-4.9619822390377521514892578125">
        <ele>996.4000244140625</ele>
        <time>2018-09-08T14:06:09.000Z</time>
      </trkpt>
      <trkpt lat="43.27065604738891124725341796875" lon="-4.96188693679869174957275390625">
        <ele>995.79998779296875</ele>
        <time>2018-09-08T14:06:11.000Z</time>
      </trkpt>
      <trkpt lat="43.27067482285201549530029296875" lon="-4.9617683328688144683837890625">
        <ele>995.4000244140625</ele>
        <time>2018-09-08T14:06:13.000Z</time>
      </trkpt>
      <trkpt lat="43.270684294402599334716796875" lon="-4.9616325460374355316162109375">
        <ele>994.4000244140625</ele>
        <time>2018-09-08T14:06:15.000Z</time>
      </trkpt>
      <trkpt lat="43.2706915028393268585205078125" lon="-4.9615758843719959259033203125">
        <ele>994</ele>
        <time>2018-09-08T14:06:16.000Z</time>
      </trkpt>
      <trkpt lat="43.2707102783024311065673828125" lon="-4.961482845246791839599609375">
        <ele>994.4000244140625</ele>
        <time>2018-09-08T14:06:18.000Z</time>
      </trkpt>
      <trkpt lat="43.27072276733815670013427734375" lon="-4.96139458380639553070068359375">
        <ele>994.20001220703125</ele>
        <time>2018-09-08T14:06:20.000Z</time>
      </trkpt>
      <trkpt lat="43.2707347534596920013427734375" lon="-4.96130607090890407562255859375">
        <ele>994</ele>
        <time>2018-09-08T14:06:22.000Z</time>
      </trkpt>
      <trkpt lat="43.27076844871044158935546875" lon="-4.96121688745915889739990234375">
        <ele>994</ele>
        <time>2018-09-08T14:06:25.000Z</time>
      </trkpt>
      <trkpt lat="43.27080608345568180084228515625" lon="-4.96116022579371929168701171875">
        <ele>995</ele>
        <time>2018-09-08T14:06:28.000Z</time>
      </trkpt>
      <trkpt lat="43.2708185724914073944091796875" lon="-4.9611386843025684356689453125">
        <ele>994.5999755859375</ele>
        <time>2018-09-08T14:06:30.000Z</time>
      </trkpt>
      <trkpt lat="43.270824439823627471923828125" lon="-4.96112770400941371917724609375">
        <ele>995.5999755859375</ele>
        <time>2018-09-08T14:06:31.000Z</time>
      </trkpt>
      <trkpt lat="43.27082879841327667236328125" lon="-4.96111077256500720977783203125">
        <ele>997.5999755859375</ele>
        <time>2018-09-08T14:06:32.000Z</time>
      </trkpt>
      <trkpt lat="43.27084246091544628143310546875" lon="-4.96108059771358966827392578125">
        <ele>996.20001220703125</ele>
        <time>2018-09-08T14:06:34.000Z</time>
      </trkpt>
      <trkpt lat="43.27085805125534534454345703125" lon="-4.96102544479072093963623046875">
        <ele>995.79998779296875</ele>
        <time>2018-09-08T14:06:37.000Z</time>
      </trkpt>
      <trkpt lat="43.2708871364593505859375" lon="-4.96090776287019252777099609375">
        <ele>995.5999755859375</ele>
        <time>2018-09-08T14:06:43.000Z</time>
      </trkpt>
      <trkpt lat="43.2709003798663616180419921875" lon="-4.9608944356441497802734375">
        <ele>995.5999755859375</ele>
        <time>2018-09-08T14:06:44.000Z</time>
      </trkpt>
      <trkpt lat="43.2709285430610179901123046875" lon="-4.96084657497704029083251953125">
        <ele>995.79998779296875</ele>
        <time>2018-09-08T14:06:47.000Z</time>
      </trkpt>
      <trkpt lat="43.27094790525734424591064453125" lon="-4.96080282144248485565185546875">
        <ele>995.5999755859375</ele>
        <time>2018-09-08T14:06:49.000Z</time>
      </trkpt>
      <trkpt lat="43.270956538617610931396484375" lon="-4.96078111231327056884765625">
        <ele>995.5999755859375</ele>
        <time>2018-09-08T14:06:50.000Z</time>
      </trkpt>
      <trkpt lat="43.271013200283050537109375" lon="-4.960662424564361572265625">
        <ele>995.5999755859375</ele>
        <time>2018-09-08T14:06:56.000Z</time>
      </trkpt>
      <trkpt lat="43.27106156386435031890869140625" lon="-4.960556812584400177001953125">
        <ele>995.4000244140625</ele>
        <time>2018-09-08T14:07:01.000Z</time>
      </trkpt>
      <trkpt lat="43.27108369208872318267822265625" lon="-4.96045866049826145172119140625">
        <ele>995.4000244140625</ele>
        <time>2018-09-08T14:07:05.000Z</time>
      </trkpt>
      <trkpt lat="43.271093666553497314453125" lon="-4.960409291088581085205078125">
        <ele>995.4000244140625</ele>
        <time>2018-09-08T14:07:07.000Z</time>
      </trkpt>
      <trkpt lat="43.2711124420166015625" lon="-4.96030527167022228240966796875">
        <ele>996</ele>
        <time>2018-09-08T14:07:12.000Z</time>
      </trkpt>
      <trkpt lat="43.27115066349506378173828125" lon="-4.96022933162748813629150390625">
        <ele>996.4000244140625</ele>
        <time>2018-09-08T14:07:16.000Z</time>
      </trkpt>
      <trkpt lat="43.27116298489272594451904296875" lon="-4.96021726168692111968994140625">
        <ele>996.79998779296875</ele>
        <time>2018-09-08T14:07:17.000Z</time>
      </trkpt>
      <trkpt lat="43.2711915671825408935546875" lon="-4.9602029286324977874755859375">
        <ele>997.20001220703125</ele>
        <time>2018-09-08T14:07:19.000Z</time>
      </trkpt>
      <trkpt lat="43.27123842202126979827880859375" lon="-4.96020820923149585723876953125">
        <ele>997.79998779296875</ele>
        <time>2018-09-08T14:07:22.000Z</time>
      </trkpt>
      <trkpt lat="43.2712530903518199920654296875" lon="-4.96020904742181301116943359375">
        <ele>998</ele>
        <time>2018-09-08T14:07:23.000Z</time>
      </trkpt>
      <trkpt lat="43.27127404510974884033203125" lon="-4.96020753867924213409423828125">
        <ele>998.4000244140625</ele>
        <time>2018-09-08T14:07:25.000Z</time>
      </trkpt>
      <trkpt lat="43.2713422738015651702880859375" lon="-4.96019362471997737884521484375">
        <ele>999</ele>
        <time>2018-09-08T14:07:30.000Z</time>
      </trkpt>
      <trkpt lat="43.2713685929775238037109375" lon="-4.96018876321613788604736328125">
        <ele>999.4000244140625</ele>
        <time>2018-09-08T14:07:32.000Z</time>
      </trkpt>
      <trkpt lat="43.2714224047958850860595703125" lon="-4.9601818062365055084228515625">
        <ele>1000</ele>
        <time>2018-09-08T14:07:36.000Z</time>
      </trkpt>
      <trkpt lat="43.27143439091742038726806640625" lon="-4.9601804651319980621337890625">
        <ele>1000</ele>
        <time>2018-09-08T14:07:37.000Z</time>
      </trkpt>
      <trkpt lat="43.27144704759120941162109375" lon="-4.96017551980912685394287109375">
        <ele>1000</ele>
        <time>2018-09-08T14:07:38.000Z</time>
      </trkpt>
      <trkpt lat="43.27148719690740108489990234375" lon="-4.96016629971563816070556640625">
        <ele>1000.5999755859375</ele>
        <time>2018-09-08T14:07:41.000Z</time>
      </trkpt>
      <trkpt lat="43.271544277667999267578125" lon="-4.96014408767223358154296875">
        <ele>1000.5999755859375</ele>
        <time>2018-09-08T14:07:46.000Z</time>
      </trkpt>
      <trkpt lat="43.27162046916782855987548828125" lon="-4.9601053632795810699462890625">
        <ele>1001</ele>
        <time>2018-09-08T14:07:53.000Z</time>
      </trkpt>
      <trkpt lat="43.271645866334438323974609375" lon="-4.9600986577570438385009765625">
        <ele>1001</ele>
        <time>2018-09-08T14:07:55.000Z</time>
      </trkpt>
      <trkpt lat="43.27167226932942867279052734375" lon="-4.96006336994469165802001953125">
        <ele>1001.20001220703125</ele>
        <time>2018-09-08T14:07:58.000Z</time>
      </trkpt>
      <trkpt lat="43.2716798968613147735595703125" lon="-4.9600503779947757720947265625">
        <ele>1001.20001220703125</ele>
        <time>2018-09-08T14:07:59.000Z</time>
      </trkpt>
      <trkpt lat="43.27170764096081256866455078125" lon="-4.96001190505921840667724609375">
        <ele>1001.5999755859375</ele>
        <time>2018-09-08T14:08:02.000Z</time>
      </trkpt>
      <trkpt lat="43.2717399112880229949951171875" lon="-4.95999346487224102020263671875">
        <ele>1002</ele>
        <time>2018-09-08T14:08:06.000Z</time>
      </trkpt>
      <trkpt lat="43.271799422800540924072265625" lon="-4.9599771201610565185546875">
        <ele>1002.20001220703125</ele>
        <time>2018-09-08T14:09:25.000Z</time>
      </trkpt>
      <trkpt lat="43.27180738560855388641357421875" lon="-4.959959685802459716796875">
        <ele>1002.20001220703125</ele>
        <time>2018-09-08T14:09:26.000Z</time>
      </trkpt>
      <trkpt lat="43.27183186076581478118896484375" lon="-4.959932528436183929443359375">
        <ele>1002.5999755859375</ele>
        <time>2018-09-08T14:09:28.000Z</time>
      </trkpt>
      <trkpt lat="43.2718891091644763946533203125" lon="-4.95992490090429782867431640625">
        <ele>1003</ele>
        <time>2018-09-08T14:09:31.000Z</time>
      </trkpt>
      <trkpt lat="43.2719707489013671875" lon="-4.95994166471064090728759765625">
        <ele>1003.79998779296875</ele>
        <time>2018-09-08T14:09:36.000Z</time>
      </trkpt>
      <trkpt lat="43.27198491431772708892822265625" lon="-4.95994082652032375335693359375">
        <ele>1003.79998779296875</ele>
        <time>2018-09-08T14:09:37.000Z</time>
      </trkpt>
      <trkpt lat="43.2720242254436016082763671875" lon="-4.95992540381848812103271484375">
        <ele>1004.20001220703125</ele>
        <time>2018-09-08T14:09:40.000Z</time>
      </trkpt>
      <trkpt lat="43.27205498702824115753173828125" lon="-4.95991802774369716644287109375">
        <ele>1004.79998779296875</ele>
        <time>2018-09-08T14:09:42.000Z</time>
      </trkpt>
      <trkpt lat="43.27207007445394992828369140625" lon="-4.9599169380962848663330078125">
        <ele>1004.79998779296875</ele>
        <time>2018-09-08T14:09:43.000Z</time>
      </trkpt>
      <trkpt lat="43.2720835693180561065673828125" lon="-4.9599152617156505584716796875">
        <ele>1005</ele>
        <time>2018-09-08T14:09:44.000Z</time>
      </trkpt>
      <trkpt lat="43.27210963703691959381103515625" lon="-4.95991182513535022735595703125">
        <ele>1005.4000244140625</ele>
        <time>2018-09-08T14:09:46.000Z</time>
      </trkpt>
      <trkpt lat="43.2721517980098724365234375" lon="-4.95990344323217868804931640625">
        <ele>1005.5999755859375</ele>
        <time>2018-09-08T14:09:49.000Z</time>
      </trkpt>
      <trkpt lat="43.27216730453073978424072265625" lon="-4.9599095620214939117431640625">
        <ele>1005.79998779296875</ele>
        <time>2018-09-08T14:09:50.000Z</time>
      </trkpt>
      <trkpt lat="43.272182308137416839599609375" lon="-4.95991534553468227386474609375">
        <ele>1006</ele>
        <time>2018-09-08T14:09:51.000Z</time>
      </trkpt>
      <trkpt lat="43.2722376286983489990234375" lon="-4.95992456562817096710205078125">
        <ele>1006.4000244140625</ele>
        <time>2018-09-08T14:09:55.000Z</time>
      </trkpt>
      <trkpt lat="43.27228096313774585723876953125" lon="-4.9599207937717437744140625">
        <ele>1006.4000244140625</ele>
        <time>2018-09-08T14:09:58.000Z</time>
      </trkpt>
      <trkpt lat="43.27230929397046566009521484375" lon="-4.959922470152378082275390625">
        <ele>1007</ele>
        <time>2018-09-08T14:10:00.000Z</time>
      </trkpt>
      <trkpt lat="43.27236436307430267333984375" lon="-4.9599313549697399139404296875">
        <ele>1007.4000244140625</ele>
        <time>2018-09-08T14:10:04.000Z</time>
      </trkpt>
      <trkpt lat="43.2723816297948360443115234375" lon="-4.9599350430071353912353515625">
        <ele>1007.4000244140625</ele>
        <time>2018-09-08T14:10:05.000Z</time>
      </trkpt>
      <trkpt lat="43.272477686405181884765625" lon="-4.959943592548370361328125">
        <ele>1008</ele>
        <time>2018-09-08T14:10:11.000Z</time>
      </trkpt>
      <trkpt lat="43.27257349155843257904052734375" lon="-4.959953986108303070068359375">
        <ele>1008.4000244140625</ele>
        <time>2018-09-08T14:10:17.000Z</time>
      </trkpt>
      <trkpt lat="43.2727081887423992156982421875" lon="-4.95994451455771923065185546875">
        <ele>1007.4000244140625</ele>
        <time>2018-09-08T14:10:22.000Z</time>
      </trkpt>
      <trkpt lat="43.2727661915123462677001953125" lon="-4.959935881197452545166015625">
        <ele>1006.79998779296875</ele>
        <time>2018-09-08T14:10:24.000Z</time>
      </trkpt>
      <trkpt lat="43.2728241942822933197021484375" lon="-4.95993562974035739898681640625">
        <ele>1005.79998779296875</ele>
        <time>2018-09-08T14:10:26.000Z</time>
      </trkpt>
      <trkpt lat="43.2728540338575839996337890625" lon="-4.95993764139711856842041015625">
        <ele>1005.4000244140625</ele>
        <time>2018-09-08T14:10:27.000Z</time>
      </trkpt>
      <trkpt lat="43.272917568683624267578125" lon="-4.9599290080368518829345703125">
        <ele>1004.79998779296875</ele>
        <time>2018-09-08T14:10:29.000Z</time>
      </trkpt>
      <trkpt lat="43.27294665388762950897216796875" lon="-4.95992548763751983642578125">
        <ele>1003.4000244140625</ele>
        <time>2018-09-08T14:10:30.000Z</time>
      </trkpt>
      <trkpt lat="43.27299694530665874481201171875" lon="-4.95992020703852176666259765625">
        <ele>1002.20001220703125</ele>
        <time>2018-09-08T14:10:32.000Z</time>
      </trkpt>
      <trkpt lat="43.2730930857360363006591796875" lon="-4.95990947820246219635009765625">
        <ele>1001.4000244140625</ele>
        <time>2018-09-08T14:10:35.000Z</time>
      </trkpt>
      <trkpt lat="43.273125775158405303955078125" lon="-4.959905035793781280517578125">
        <ele>1000.5999755859375</ele>
        <time>2018-09-08T14:10:36.000Z</time>
      </trkpt>
      <trkpt lat="43.27315771020948886871337890625" lon="-4.9599001742899417877197265625">
        <ele>1000</ele>
        <time>2018-09-08T14:10:37.000Z</time>
      </trkpt>
      <trkpt lat="43.27319090254604816436767578125" lon="-4.95989405550062656402587890625">
        <ele>999.4000244140625</ele>
        <time>2018-09-08T14:10:38.000Z</time>
      </trkpt>
      <trkpt lat="43.27325577847659587860107421875" lon="-4.95986991561949253082275390625">
        <ele>998.5999755859375</ele>
        <time>2018-09-08T14:10:40.000Z</time>
      </trkpt>
      <trkpt lat="43.27328704297542572021484375" lon="-4.95985600166022777557373046875">
        <ele>998.20001220703125</ele>
        <time>2018-09-08T14:10:41.000Z</time>
      </trkpt>
      <trkpt lat="43.27334471046924591064453125" lon="-4.9598371423780918121337890625">
        <ele>997.20001220703125</ele>
        <time>2018-09-08T14:10:43.000Z</time>
      </trkpt>
      <trkpt lat="43.27337027527391910552978515625" lon="-4.95982834137976169586181640625">
        <ele>996.79998779296875</ele>
        <time>2018-09-08T14:10:44.000Z</time>
      </trkpt>
      <trkpt lat="43.27343481592833995819091796875" lon="-4.9597781337797641754150390625">
        <ele>996.4000244140625</ele>
        <time>2018-09-08T14:10:48.000Z</time>
      </trkpt>
      <trkpt lat="43.2734602130949497222900390625" lon="-4.95972122065722942352294921875">
        <ele>995.79998779296875</ele>
        <time>2018-09-08T14:10:51.000Z</time>
      </trkpt>
      <trkpt lat="43.27346130274236202239990234375" lon="-4.95970093645155429840087890625">
        <ele>995.79998779296875</ele>
        <time>2018-09-08T14:10:52.000Z</time>
      </trkpt>
      <trkpt lat="43.2734561897814273834228515625" lon="-4.9596802331507205963134765625">
        <ele>995.79998779296875</ele>
        <time>2018-09-08T14:10:53.000Z</time>
      </trkpt>
      <trkpt lat="43.27340640127658843994140625" lon="-4.95957990176975727081298828125">
        <ele>995</ele>
        <time>2018-09-08T14:10:58.000Z</time>
      </trkpt>
      <trkpt lat="43.273385949432849884033203125" lon="-4.95951334945857524871826171875">
        <ele>994.4000244140625</ele>
        <time>2018-09-08T14:11:00.000Z</time>
      </trkpt>
      <trkpt lat="43.27335937879979610443115234375" lon="-4.9594076536595821380615234375">
        <ele>992.79998779296875</ele>
        <time>2018-09-08T14:11:03.000Z</time>
      </trkpt>
      <trkpt lat="43.27334940433502197265625" lon="-4.95936783961951732635498046875">
        <ele>992.20001220703125</ele>
        <time>2018-09-08T14:11:04.000Z</time>
      </trkpt>
      <trkpt lat="43.27333741821348667144775390625" lon="-4.95932643301784992218017578125">
        <ele>991.5999755859375</ele>
        <time>2018-09-08T14:11:05.000Z</time>
      </trkpt>
      <trkpt lat="43.27332585118710994720458984375" lon="-4.95928335003554821014404296875">
        <ele>990.79998779296875</ele>
        <time>2018-09-08T14:11:06.000Z</time>
      </trkpt>
      <trkpt lat="43.2733163796365261077880859375" lon="-4.95924244634807109832763671875">
        <ele>990.4000244140625</ele>
        <time>2018-09-08T14:11:07.000Z</time>
      </trkpt>
      <trkpt lat="43.27330623753368854522705078125" lon="-4.95920422486960887908935546875">
        <ele>990</ele>
        <time>2018-09-08T14:11:08.000Z</time>
      </trkpt>
      <trkpt lat="43.2732935808598995208740234375" lon="-4.95917153544723987579345703125">
        <ele>989.79998779296875</ele>
        <time>2018-09-08T14:11:09.000Z</time>
      </trkpt>
      <trkpt lat="43.273279331624507904052734375" lon="-4.9591347388923168182373046875">
        <ele>989.20001220703125</ele>
        <time>2018-09-08T14:11:10.000Z</time>
      </trkpt>
      <trkpt lat="43.2732543535530567169189453125" lon="-4.95904304087162017822265625">
        <ele>988</ele>
        <time>2018-09-08T14:11:12.000Z</time>
      </trkpt>
      <trkpt lat="43.2732288725674152374267578125" lon="-4.95895561762154102325439453125">
        <ele>987</ele>
        <time>2018-09-08T14:11:14.000Z</time>
      </trkpt>
      <trkpt lat="43.2732168026268482208251953125" lon="-4.95890784077346324920654296875">
        <ele>986.4000244140625</ele>
        <time>2018-09-08T14:11:15.000Z</time>
      </trkpt>
      <trkpt lat="43.27319609932601451873779296875" lon="-4.9587944336235523223876953125">
        <ele>985.5999755859375</ele>
        <time>2018-09-08T14:11:17.000Z</time>
      </trkpt>
      <trkpt lat="43.273195512592792510986328125" lon="-4.95873349718749523162841796875">
        <ele>984.20001220703125</ele>
        <time>2018-09-08T14:11:18.000Z</time>
      </trkpt>
      <trkpt lat="43.2732168026268482208251953125" lon="-4.95857776142656803131103515625">
        <ele>984</ele>
        <time>2018-09-08T14:11:21.000Z</time>
      </trkpt>
      <trkpt lat="43.27321588061749935150146484375" lon="-4.95851841755211353302001953125">
        <ele>984.20001220703125</ele>
        <time>2018-09-08T14:11:23.000Z</time>
      </trkpt>
      <trkpt lat="43.27321554534137248992919921875" lon="-4.95849276892840862274169921875">
        <ele>984.20001220703125</ele>
        <time>2018-09-08T14:11:24.000Z</time>
      </trkpt>
      <trkpt lat="43.2732124440371990203857421875" lon="-4.9584430642426013946533203125">
        <ele>984.20001220703125</ele>
        <time>2018-09-08T14:11:26.000Z</time>
      </trkpt>
      <trkpt lat="43.27321101911365985870361328125" lon="-4.9584185890853404998779296875">
        <ele>984.20001220703125</ele>
        <time>2018-09-08T14:11:27.000Z</time>
      </trkpt>
      <trkpt lat="43.27320716343820095062255859375" lon="-4.9582512862980365753173828125">
        <ele>983.5999755859375</ele>
        <time>2018-09-08T14:11:32.000Z</time>
      </trkpt>
      <trkpt lat="43.27323876321315765380859375" lon="-4.95809680782258510589599609375">
        <ele>983.4000244140625</ele>
        <time>2018-09-08T14:11:37.000Z</time>
      </trkpt>
      <trkpt lat="43.2732463069260120391845703125" lon="-4.95807685889303684234619140625">
        <ele>983.4000244140625</ele>
        <time>2018-09-08T14:11:38.000Z</time>
      </trkpt>
      <trkpt lat="43.27326399274170398712158203125" lon="-4.95805338956415653228759765625">
        <ele>983.20001220703125</ele>
        <time>2018-09-08T14:11:40.000Z</time>
      </trkpt>
      <trkpt lat="43.27326751314103603363037109375" lon="-4.9580400623381137847900390625">
        <ele>983.20001220703125</ele>
        <time>2018-09-08T14:11:41.000Z</time>
      </trkpt>
      <trkpt lat="43.27327706851065158843994140625" lon="-4.95799454860389232635498046875">
        <ele>982.79998779296875</ele>
        <time>2018-09-08T14:12:15.000Z</time>
      </trkpt>
      <trkpt lat="43.273288048803806304931640625" lon="-4.95800343342125415802001953125">
        <ele>982.5999755859375</ele>
        <time>2018-09-08T14:12:16.000Z</time>
      </trkpt>
      <trkpt lat="43.27329550869762897491455078125" lon="-4.95801751501858234405517578125">
        <ele>982.4000244140625</ele>
        <time>2018-09-08T14:12:17.000Z</time>
      </trkpt>
      <trkpt lat="43.27332031913101673126220703125" lon="-4.95807602070271968841552734375">
        <ele>982.20001220703125</ele>
        <time>2018-09-08T14:12:20.000Z</time>
      </trkpt>
      <trkpt lat="43.27336482703685760498046875" lon="-4.95818582363426685333251953125">
        <ele>982.20001220703125</ele>
        <time>2018-09-08T14:12:25.000Z</time>
      </trkpt>
      <trkpt lat="43.27344386838376522064208984375" lon="-4.9582358635962009429931640625">
        <ele>981.20001220703125</ele>
        <time>2018-09-08T14:12:29.000Z</time>
      </trkpt>
      <trkpt lat="43.2734679244458675384521484375" lon="-4.95825304649770259857177734375">
        <ele>980.4000244140625</ele>
        <time>2018-09-08T14:12:30.000Z</time>
      </trkpt>
      <trkpt lat="43.273518718779087066650390625" lon="-4.95828087441623210906982421875">
        <ele>980</ele>
        <time>2018-09-08T14:12:33.000Z</time>
      </trkpt>
      <trkpt lat="43.27352978289127349853515625" lon="-4.95829202234745025634765625">
        <ele>980</ele>
        <time>2018-09-08T14:12:34.000Z</time>
      </trkpt>
      <trkpt lat="43.2735745422542095184326171875" lon="-4.95831222273409366607666015625">
        <ele>979.5999755859375</ele>
        <time>2018-09-08T14:12:38.000Z</time>
      </trkpt>
      <trkpt lat="43.2735975086688995361328125" lon="-4.9583404697477817535400390625">
        <ele>979.4000244140625</ele>
        <time>2018-09-08T14:12:40.000Z</time>
      </trkpt>
      <trkpt lat="43.27367068268358707427978515625" lon="-4.9584045074880123138427734375">
        <ele>978.79998779296875</ele>
        <time>2018-09-08T14:12:44.000Z</time>
      </trkpt>
      <trkpt lat="43.27369348146021366119384765625" lon="-4.9584155716001987457275390625">
        <ele>978.5999755859375</ele>
        <time>2018-09-08T14:12:45.000Z</time>
      </trkpt>
      <trkpt lat="43.27375802211463451385498046875" lon="-4.95842889882624149322509765625">
        <ele>978.20001220703125</ele>
        <time>2018-09-08T14:13:18.000Z</time>
      </trkpt>
      <trkpt lat="43.27378316782414913177490234375" lon="-4.95843091048300266265869140625">
        <ele>977.79998779296875</ele>
        <time>2018-09-08T14:13:19.000Z</time>
      </trkpt>
      <trkpt lat="43.273856006562709808349609375" lon="-4.958472736179828643798828125">
        <ele>977.79998779296875</ele>
        <time>2018-09-08T14:13:22.000Z</time>
      </trkpt>
      <trkpt lat="43.27398668043315410614013671875" lon="-4.95856870897114276885986328125">
        <ele>976.5999755859375</ele>
        <time>2018-09-08T14:13:26.000Z</time>
      </trkpt>
      <trkpt lat="43.274016268551349639892578125" lon="-4.95859100483357906341552734375">
        <ele>976.20001220703125</ele>
        <time>2018-09-08T14:13:27.000Z</time>
      </trkpt>
      <trkpt lat="43.27415163628756999969482421875" lon="-4.958699382841587066650390625">
        <ele>975.5999755859375</ele>
        <time>2018-09-08T14:13:32.000Z</time>
      </trkpt>
      <trkpt lat="43.27427837066352367401123046875" lon="-4.95884397067129611968994140625">
        <ele>975</ele>
        <time>2018-09-08T14:13:37.000Z</time>
      </trkpt>
      <trkpt lat="43.27430251054465770721435546875" lon="-4.95888621546328067779541015625">
        <ele>975</ele>
        <time>2018-09-08T14:13:38.000Z</time>
      </trkpt>
      <trkpt lat="43.27436260879039764404296875" lon="-4.95897925458848476409912109375">
        <ele>973.79998779296875</ele>
        <time>2018-09-08T14:13:40.000Z</time>
      </trkpt>
      <trkpt lat="43.2743956334888935089111328125" lon="-4.959031641483306884765625">
        <ele>973</ele>
        <time>2018-09-08T14:13:41.000Z</time>
      </trkpt>
      <trkpt lat="43.27442388050258159637451171875" lon="-4.95908721350133419036865234375">
        <ele>971.79998779296875</ele>
        <time>2018-09-08T14:13:42.000Z</time>
      </trkpt>
      <trkpt lat="43.27445187605917453765869140625" lon="-4.9591444618999958038330078125">
        <ele>971.5999755859375</ele>
        <time>2018-09-08T14:13:43.000Z</time>
      </trkpt>
      <trkpt lat="43.27450887300074100494384765625" lon="-4.9592608027160167694091796875">
        <ele>970.5999755859375</ele>
        <time>2018-09-08T14:13:45.000Z</time>
      </trkpt>
      <trkpt lat="43.27453963458538055419921875" lon="-4.9593114294111728668212890625">
        <ele>970.4000244140625</ele>
        <time>2018-09-08T14:13:46.000Z</time>
      </trkpt>
      <trkpt lat="43.27463024295866489410400390625" lon="-4.9594378285109996795654296875">
        <ele>969.5999755859375</ele>
        <time>2018-09-08T14:13:49.000Z</time>
      </trkpt>
      <trkpt lat="43.27465840615332126617431640625" lon="-4.9594834260642528533935546875">
        <ele>969</ele>
        <time>2018-09-08T14:13:50.000Z</time>
      </trkpt>
      <trkpt lat="43.2747590728104114532470703125" lon="-4.95966942049562931060791015625">
        <ele>968.4000244140625</ele>
        <time>2018-09-08T14:13:54.000Z</time>
      </trkpt>
      <trkpt lat="43.2747852243483066558837890625" lon="-4.959705211222171783447265625">
        <ele>968.20001220703125</ele>
        <time>2018-09-08T14:13:55.000Z</time>
      </trkpt>
      <trkpt lat="43.27485370449721813201904296875" lon="-4.95978291146457195281982421875">
        <ele>967.20001220703125</ele>
        <time>2018-09-08T14:13:58.000Z</time>
      </trkpt>
      <trkpt lat="43.2749243639409542083740234375" lon="-4.9598358012735843658447265625">
        <ele>966.79998779296875</ele>
        <time>2018-09-08T14:14:01.000Z</time>
      </trkpt>
      <trkpt lat="43.27495914883911609649658203125" lon="-4.95988299138844013214111328125">
        <ele>966</ele>
        <time>2018-09-08T14:14:03.000Z</time>
      </trkpt>
      <trkpt lat="43.27500474639236927032470703125" lon="-4.9599497951567173004150390625">
        <ele>965</ele>
        <time>2018-09-08T14:14:06.000Z</time>
      </trkpt>
      <trkpt lat="43.27502251602709293365478515625" lon="-4.95996479876339435577392578125">
        <ele>964.79998779296875</ele>
        <time>2018-09-08T14:14:07.000Z</time>
      </trkpt>
      <trkpt lat="43.27507800422608852386474609375" lon="-4.95999949984252452850341796875">
        <ele>964.5999755859375</ele>
        <time>2018-09-08T14:14:10.000Z</time>
      </trkpt>
      <trkpt lat="43.27509242109954357147216796875" lon="-4.9600386433303356170654296875">
        <ele>964.79998779296875</ele>
        <time>2018-09-08T14:14:12.000Z</time>
      </trkpt>
      <trkpt lat="43.27511019073426723480224609375" lon="-4.96009438298642635345458984375">
        <ele>964.4000244140625</ele>
        <time>2018-09-08T14:14:14.000Z</time>
      </trkpt>
      <trkpt lat="43.27512058429419994354248046875" lon="-4.96011969633400440216064453125">
        <ele>964.20001220703125</ele>
        <time>2018-09-08T14:14:15.000Z</time>
      </trkpt>
      <trkpt lat="43.27513801865279674530029296875" lon="-4.96016697026789188385009765625">
        <ele>964</ele>
        <time>2018-09-08T14:14:17.000Z</time>
      </trkpt>
      <trkpt lat="43.27515293844044208526611328125" lon="-4.9602024257183074951171875">
        <ele>963.5999755859375</ele>
        <time>2018-09-08T14:14:19.000Z</time>
      </trkpt>
      <trkpt lat="43.27518193982541561126708984375" lon="-4.96027149260044097900390625">
        <ele>963.5999755859375</ele>
        <time>2018-09-08T14:15:08.000Z</time>
      </trkpt>
      <trkpt lat="43.27519484795629978179931640625" lon="-4.960300661623477935791015625">
        <ele>963.20001220703125</ele>
        <time>2018-09-08T14:15:09.000Z</time>
      </trkpt>
      <trkpt lat="43.27528662979602813720703125" lon="-4.96043016202747821807861328125">
        <ele>962.5999755859375</ele>
        <time>2018-09-08T14:15:14.000Z</time>
      </trkpt>
      <trkpt lat="43.27535946853458881378173828125" lon="-4.9606042541563510894775390625">
        <ele>961.79998779296875</ele>
        <time>2018-09-08T14:15:19.000Z</time>
      </trkpt>
      <trkpt lat="43.27538327313959598541259765625" lon="-4.9607021547853946685791015625">
        <ele>961.5999755859375</ele>
        <time>2018-09-08T14:15:22.000Z</time>
      </trkpt>
      <trkpt lat="43.27542987652122974395751953125" lon="-4.9608211778104305267333984375">
        <ele>961.20001220703125</ele>
        <time>2018-09-08T14:15:26.000Z</time>
      </trkpt>
      <trkpt lat="43.27550095506012439727783203125" lon="-4.96094514615833759307861328125">
        <ele>960.5999755859375</ele>
        <time>2018-09-08T14:15:30.000Z</time>
      </trkpt>
      <trkpt lat="43.27551771886646747589111328125" lon="-4.96097884140908718109130859375">
        <ele>960.4000244140625</ele>
        <time>2018-09-08T14:15:31.000Z</time>
      </trkpt>
      <trkpt lat="43.27554604969918727874755859375" lon="-4.96104455552995204925537109375">
        <ele>960.20001220703125</ele>
        <time>2018-09-08T14:15:33.000Z</time>
      </trkpt>
      <trkpt lat="43.2755945809185504913330078125" lon="-4.96119995601475238800048828125">
        <ele>959.5999755859375</ele>
        <time>2018-09-08T14:15:37.000Z</time>
      </trkpt>
      <trkpt lat="43.27560824342072010040283203125" lon="-4.96128075756132602691650390625">
        <ele>959.79998779296875</ele>
        <time>2018-09-08T14:15:39.000Z</time>
      </trkpt>
      <trkpt lat="43.27563255093991756439208984375" lon="-4.9613504111766815185546875">
        <ele>959.4000244140625</ele>
        <time>2018-09-08T14:15:41.000Z</time>
      </trkpt>
      <trkpt lat="43.275690637528896331787109375" lon="-4.9614085815846920013427734375">
        <ele>958.4000244140625</ele>
        <time>2018-09-08T14:15:43.000Z</time>
      </trkpt>
      <trkpt lat="43.275725506246089935302734375" lon="-4.96142442338168621063232421875">
        <ele>957.79998779296875</ele>
        <time>2018-09-08T14:15:44.000Z</time>
      </trkpt>
      <trkpt lat="43.275799937546253204345703125" lon="-4.9614977650344371795654296875">
        <ele>957.4000244140625</ele>
        <time>2018-09-08T14:15:47.000Z</time>
      </trkpt>
      <trkpt lat="43.27580538578331470489501953125" lon="-4.9615638144314289093017578125">
        <ele>958</ele>
        <time>2018-09-08T14:15:49.000Z</time>
      </trkpt>
      <trkpt lat="43.275807313621044158935546875" lon="-4.96160186827182769775390625">
        <ele>958.4000244140625</ele>
        <time>2018-09-08T14:15:50.000Z</time>
      </trkpt>
      <trkpt lat="43.275810666382312774658203125" lon="-4.961639083921909332275390625">
        <ele>958.20001220703125</ele>
        <time>2018-09-08T14:15:51.000Z</time>
      </trkpt>
      <trkpt lat="43.27581544406712055206298828125" lon="-4.96167361736297607421875">
        <ele>958.20001220703125</ele>
        <time>2018-09-08T14:15:52.000Z</time>
      </trkpt>
      <trkpt lat="43.2758344709873199462890625" lon="-4.96173706836998462677001953125">
        <ele>958.4000244140625</ele>
        <time>2018-09-08T14:15:54.000Z</time>
      </trkpt>
      <trkpt lat="43.27585467137396335601806640625" lon="-4.96178819797933101654052734375">
        <ele>958.5999755859375</ele>
        <time>2018-09-08T14:15:56.000Z</time>
      </trkpt>
      <trkpt lat="43.27586464583873748779296875" lon="-4.961807727813720703125">
        <ele>958.79998779296875</ele>
        <time>2018-09-08T14:15:57.000Z</time>
      </trkpt>
      <trkpt lat="43.275873698294162750244140625" lon="-4.961825497448444366455078125">
        <ele>959</ele>
        <time>2018-09-08T14:15:58.000Z</time>
      </trkpt>
      <trkpt lat="43.27591619454324245452880859375" lon="-4.9619244039058685302734375">
        <ele>959.4000244140625</ele>
        <time>2018-09-08T14:16:03.000Z</time>
      </trkpt>
      <trkpt lat="43.27598207630217075347900390625" lon="-4.96199975721538066864013671875">
        <ele>960</ele>
        <time>2018-09-08T14:16:08.000Z</time>
      </trkpt>
      <trkpt lat="43.27599464915692806243896484375" lon="-4.96201434172689914703369140625">
        <ele>960</ele>
        <time>2018-09-08T14:16:09.000Z</time>
      </trkpt>
      <trkpt lat="43.27602230943739414215087890625" lon="-4.9620432592928409576416015625">
        <ele>960.20001220703125</ele>
        <time>2018-09-08T14:16:11.000Z</time>
      </trkpt>
      <trkpt lat="43.27603605575859546661376953125" lon="-4.9620533175766468048095703125">
        <ele>960.4000244140625</ele>
        <time>2018-09-08T14:16:12.000Z</time>
      </trkpt>
      <trkpt lat="43.2760783843696117401123046875" lon="-4.96208542026579380035400390625">
        <ele>960.79998779296875</ele>
        <time>2018-09-08T14:16:15.000Z</time>
      </trkpt>
      <trkpt lat="43.276092968881130218505859375" lon="-4.9620960652828216552734375">
        <ele>960.79998779296875</ele>
        <time>2018-09-08T14:16:16.000Z</time>
      </trkpt>
      <trkpt lat="43.27613797970116138458251953125" lon="-4.96212515048682689666748046875">
        <ele>961</ele>
        <time>2018-09-08T14:16:19.000Z</time>
      </trkpt>
      <trkpt lat="43.27618156559765338897705078125" lon="-4.9621813930571079254150390625">
        <ele>961.5999755859375</ele>
        <time>2018-09-08T14:16:23.000Z</time>
      </trkpt>
      <trkpt lat="43.27619967050850391387939453125" lon="-4.96221181936562061309814453125">
        <ele>961.79998779296875</ele>
        <time>2018-09-08T14:16:25.000Z</time>
      </trkpt>
      <trkpt lat="43.2762336172163486480712890625" lon="-4.96224886737763881683349609375">
        <ele>962.20001220703125</ele>
        <time>2018-09-08T14:16:28.000Z</time>
      </trkpt>
      <trkpt lat="43.2762510515749454498291015625" lon="-4.9622730910778045654296875">
        <ele>962.5999755859375</ele>
        <time>2018-09-08T14:16:30.000Z</time>
      </trkpt>
      <trkpt lat="43.27632020227611064910888671875" lon="-4.962355904281139373779296875">
        <ele>963.20001220703125</ele>
        <time>2018-09-08T14:16:37.000Z</time>
      </trkpt>
      <trkpt lat="43.27633378095924854278564453125" lon="-4.9623661302030086517333984375">
        <ele>963.4000244140625</ele>
        <time>2018-09-08T14:16:38.000Z</time>
      </trkpt>
      <trkpt lat="43.2763797976076602935791015625" lon="-4.96240653097629547119140625">
        <ele>963.79998779296875</ele>
        <time>2018-09-08T14:16:42.000Z</time>
      </trkpt>
      <trkpt lat="43.27641542069613933563232421875" lon="-4.96242840774357318878173828125">
        <ele>964.20001220703125</ele>
        <time>2018-09-08T14:16:45.000Z</time>
      </trkpt>
      <trkpt lat="43.27642547897994518280029296875" lon="-4.96243829838931560516357421875">
        <ele>964.20001220703125</ele>
        <time>2018-09-08T14:16:46.000Z</time>
      </trkpt>
      <trkpt lat="43.27648222446441650390625" lon="-4.96249630115926265716552734375">
        <ele>965</ele>
        <time>2018-09-08T14:16:52.000Z</time>
      </trkpt>
      <trkpt lat="43.2765061967074871063232421875" lon="-4.96251071803271770477294921875">
        <ele>965.4000244140625</ele>
        <time>2018-09-08T14:16:54.000Z</time>
      </trkpt>
      <trkpt lat="43.27658909372985363006591796875" lon="-4.96258045546710491180419921875">
        <ele>966.20001220703125</ele>
        <time>2018-09-08T14:17:01.000Z</time>
      </trkpt>
      <trkpt lat="43.27660032548010349273681640625" lon="-4.96258866973221302032470703125">
        <ele>966.4000244140625</ele>
        <time>2018-09-08T14:17:02.000Z</time>
      </trkpt>
      <trkpt lat="43.27663770876824855804443359375" lon="-4.96261582709848880767822265625">
        <ele>967</ele>
        <time>2018-09-08T14:17:05.000Z</time>
      </trkpt>
      <trkpt lat="43.27665514312684535980224609375" lon="-4.96263963170349597930908203125">
        <ele>967.4000244140625</ele>
        <time>2018-09-08T14:17:07.000Z</time>
      </trkpt>
      <trkpt lat="43.27666402794420719146728515625" lon="-4.9626512825489044189453125">
        <ele>967.4000244140625</ele>
        <time>2018-09-08T14:17:08.000Z</time>
      </trkpt>
      <trkpt lat="43.27669638209044933319091796875" lon="-4.96267743408679962158203125">
        <ele>968</ele>
        <time>2018-09-08T14:17:11.000Z</time>
      </trkpt>
      <trkpt lat="43.27672571875154972076416015625" lon="-4.9627022445201873779296875">
        <ele>968.4000244140625</ele>
        <time>2018-09-08T14:17:14.000Z</time>
      </trkpt>
      <trkpt lat="43.276737369596958160400390625" lon="-4.96271272189915180206298828125">
        <ele>968.5999755859375</ele>
        <time>2018-09-08T14:17:15.000Z</time>
      </trkpt>
      <trkpt lat="43.2767571508884429931640625" lon="-4.9627305753529071807861328125">
        <ele>968.79998779296875</ele>
        <time>2018-09-08T14:17:17.000Z</time>
      </trkpt>
      <trkpt lat="43.27676377259194850921630859375" lon="-4.96277508325874805450439453125">
        <ele>969.4000244140625</ele>
        <time>2018-09-08T14:17:20.000Z</time>
      </trkpt>
      <trkpt lat="43.276764862239360809326171875" lon="-4.96281615458428859710693359375">
        <ele>969.5999755859375</ele>
        <time>2018-09-08T14:17:22.000Z</time>
      </trkpt>
      <trkpt lat="43.2767734117805957794189453125" lon="-4.96287533082067966461181640625">
        <ele>970</ele>
        <time>2018-09-08T14:17:25.000Z</time>
      </trkpt>
      <trkpt lat="43.27678036876022815704345703125" lon="-4.96288924477994441986083984375">
        <ele>970.20001220703125</ele>
        <time>2018-09-08T14:17:26.000Z</time>
      </trkpt>
      <trkpt lat="43.27681557275354862213134765625" lon="-4.96291556395590305328369140625">
        <ele>970.79998779296875</ele>
        <time>2018-09-08T14:17:29.000Z</time>
      </trkpt>
      <trkpt lat="43.2768726535141468048095703125" lon="-4.96293492615222930908203125">
        <ele>971.20001220703125</ele>
        <time>2018-09-08T14:17:33.000Z</time>
      </trkpt>
      <trkpt lat="43.27692210674285888671875" lon="-4.96297256089746952056884765625">
        <ele>972</ele>
        <time>2018-09-08T14:17:38.000Z</time>
      </trkpt>
      <trkpt lat="43.27694716863334178924560546875" lon="-4.9629857204854488372802734375">
        <ele>972.4000244140625</ele>
        <time>2018-09-08T14:17:40.000Z</time>
      </trkpt>
      <trkpt lat="43.27699176035821437835693359375" lon="-4.96301799081265926361083984375">
        <ele>973</ele>
        <time>2018-09-08T14:17:44.000Z</time>
      </trkpt>
      <trkpt lat="43.27700793743133544921875" lon="-4.9630407057702541351318359375">
        <ele>973.4000244140625</ele>
        <time>2018-09-08T14:17:46.000Z</time>
      </trkpt>
      <trkpt lat="43.27702847309410572052001953125" lon="-4.96308705769479274749755859375">
        <ele>973.79998779296875</ele>
        <time>2018-09-08T14:17:49.000Z</time>
      </trkpt>
      <trkpt lat="43.2770409621298313140869140625" lon="-4.96312159113585948944091796875">
        <ele>974.20001220703125</ele>
        <time>2018-09-08T14:17:51.000Z</time>
      </trkpt>
      <trkpt lat="43.2770530320703983306884765625" lon="-4.9631650932133197784423828125">
        <ele>975</ele>
        <time>2018-09-08T14:17:54.000Z</time>
      </trkpt>
      <trkpt lat="43.27705563046038150787353515625" lon="-4.9631771631538867950439453125">
        <ele>975.20001220703125</ele>
        <time>2018-09-08T14:17:55.000Z</time>
      </trkpt>
      <trkpt lat="43.2770728133618831634521484375" lon="-4.96325704269111156463623046875">
        <ele>976.4000244140625</ele>
        <time>2018-09-08T14:17:59.000Z</time>
      </trkpt>
      <trkpt lat="43.277077339589595794677734375" lon="-4.963267184793949127197265625">
        <ele>976.79998779296875</ele>
        <time>2018-09-08T14:18:00.000Z</time>
      </trkpt>
      <trkpt lat="43.2783552445471286773681640625" lon="-4.96439178474247455596923828125">
        <ele>1015</ele>
        <time>2018-09-08T14:21:30.000Z</time>
      </trkpt>
      <trkpt lat="43.27836438082158565521240234375" lon="-4.964427910745143890380859375">
        <ele>1014.79998779296875</ele>
        <time>2018-09-08T14:21:31.000Z</time>
      </trkpt>
      <trkpt lat="43.2784048654139041900634765625" lon="-4.96451516635715961456298828125">
        <ele>1014.20001220703125</ele>
        <time>2018-09-08T14:21:33.000Z</time>
      </trkpt>
      <trkpt lat="43.27843948267400264739990234375" lon="-4.964562356472015380859375">
        <ele>1013.79998779296875</ele>
        <time>2018-09-08T14:21:34.000Z</time>
      </trkpt>
      <trkpt lat="43.27848357148468494415283203125" lon="-4.96460460126399993896484375">
        <ele>1013.4000244140625</ele>
        <time>2018-09-08T14:21:35.000Z</time>
      </trkpt>
      <trkpt lat="43.27857258729636669158935546875" lon="-4.964661933481693267822265625">
        <ele>1013</ele>
        <time>2018-09-08T14:21:37.000Z</time>
      </trkpt>
      <trkpt lat="43.2786543108522891998291015625" lon="-4.96470786631107330322265625">
        <ele>1013</ele>
        <time>2018-09-08T14:21:39.000Z</time>
      </trkpt>
      <trkpt lat="43.27869144268333911895751953125" lon="-4.96472722850739955902099609375">
        <ele>1012.79998779296875</ele>
        <time>2018-09-08T14:21:40.000Z</time>
      </trkpt>
      <trkpt lat="43.27887081541121006011962890625" lon="-4.96485295705497264862060546875">
        <ele>1013.79998779296875</ele>
        <time>2018-09-08T14:21:45.000Z</time>
      </trkpt>
      <trkpt lat="43.27893711626529693603515625" lon="-4.96489771641790866851806640625">
        <ele>1014.20001220703125</ele>
        <time>2018-09-08T14:21:47.000Z</time>
      </trkpt>
      <trkpt lat="43.27898916788399219512939453125" lon="-4.9649360217154026031494140625">
        <ele>1014.4000244140625</ele>
        <time>2018-09-08T14:21:49.000Z</time>
      </trkpt>
      <trkpt lat="43.27901766635477542877197265625" lon="-4.96496745385229587554931640625">
        <ele>1014.4000244140625</ele>
        <time>2018-09-08T14:21:51.000Z</time>
      </trkpt>
      <trkpt lat="43.27902470715343952178955078125" lon="-4.96497985906898975372314453125">
        <ele>1014.4000244140625</ele>
        <time>2018-09-08T14:21:52.000Z</time>
      </trkpt>
      <trkpt lat="43.27904180623590946197509765625" lon="-4.96499394066631793975830078125">
        <ele>1014.20001220703125</ele>
        <time>2018-09-08T14:21:54.000Z</time>
      </trkpt>
      <trkpt lat="43.2791082747280597686767578125" lon="-4.96496946550905704498291015625">
        <ele>1013.4000244140625</ele>
        <time>2018-09-08T14:21:57.000Z</time>
      </trkpt>
      <trkpt lat="43.2792048342525959014892578125" lon="-4.96489436365664005279541015625">
        <ele>1012.20001220703125</ele>
        <time>2018-09-08T14:21:59.000Z</time>
      </trkpt>
      <trkpt lat="43.27925001271069049835205078125" lon="-4.9648431502282619476318359375">
        <ele>1011.20001220703125</ele>
        <time>2018-09-08T14:22:00.000Z</time>
      </trkpt>
      <trkpt lat="43.27928303740918636322021484375" lon="-4.9647908471524715423583984375">
        <ele>1010.5999755859375</ele>
        <time>2018-09-08T14:22:01.000Z</time>
      </trkpt>
      <trkpt lat="43.27932394109666347503662109375" lon="-4.96470191515982151031494140625">
        <ele>1011.20001220703125</ele>
        <time>2018-09-08T14:22:03.000Z</time>
      </trkpt>
      <trkpt lat="43.279340453445911407470703125" lon="-4.9646621011197566986083984375">
        <ele>1011.4000244140625</ele>
        <time>2018-09-08T14:22:04.000Z</time>
      </trkpt>
      <trkpt lat="43.279357217252254486083984375" lon="-4.96462471783161163330078125">
        <ele>1011.4000244140625</ele>
        <time>2018-09-08T14:22:05.000Z</time>
      </trkpt>
      <trkpt lat="43.27941295690834522247314453125" lon="-4.9645556509494781494140625">
        <ele>1010.79998779296875</ele>
        <time>2018-09-08T14:22:07.000Z</time>
      </trkpt>
      <trkpt lat="43.2794500887393951416015625" lon="-4.9645098857581615447998046875">
        <ele>1010</ele>
        <time>2018-09-08T14:22:08.000Z</time>
      </trkpt>
      <trkpt lat="43.27948856167495250701904296875" lon="-4.96445900760591030120849609375">
        <ele>1009.4000244140625</ele>
        <time>2018-09-08T14:22:09.000Z</time>
      </trkpt>
      <trkpt lat="43.27956609427928924560546875" lon="-4.96435373090207576751708984375">
        <ele>1007.79998779296875</ele>
        <time>2018-09-08T14:22:11.000Z</time>
      </trkpt>
      <trkpt lat="43.27962703071534633636474609375" lon="-4.96426127851009368896484375">
        <ele>1006.4000244140625</ele>
        <time>2018-09-08T14:22:13.000Z</time>
      </trkpt>
      <trkpt lat="43.27968955971300601959228515625" lon="-4.96417385526001453399658203125">
        <ele>1004.79998779296875</ele>
        <time>2018-09-08T14:22:15.000Z</time>
      </trkpt>
      <trkpt lat="43.279772959649562835693359375" lon="-4.9640917964279651641845703125">
        <ele>1003</ele>
        <time>2018-09-08T14:22:17.000Z</time>
      </trkpt>
      <trkpt lat="43.27981394715607166290283203125" lon="-4.96405114419758319854736328125">
        <ele>1001.79998779296875</ele>
        <time>2018-09-08T14:22:18.000Z</time>
      </trkpt>
      <trkpt lat="43.2798556052148342132568359375" lon="-4.96399976313114166259765625">
        <ele>1001.20001220703125</ele>
        <time>2018-09-08T14:22:19.000Z</time>
      </trkpt>
      <trkpt lat="43.2799008674919605255126953125" lon="-4.9639342166483402252197265625">
        <ele>1000.20001220703125</ele>
        <time>2018-09-08T14:22:20.000Z</time>
      </trkpt>
      <trkpt lat="43.27997923828661441802978515625" lon="-4.96381158940494060516357421875">
        <ele>998.5999755859375</ele>
        <time>2018-09-08T14:22:22.000Z</time>
      </trkpt>
      <trkpt lat="43.28001159243285655975341796875" lon="-4.9637840129435062408447265625">
        <ele>998.20001220703125</ele>
        <time>2018-09-08T14:22:23.000Z</time>
      </trkpt>
      <trkpt lat="43.280082084238529205322265625" lon="-4.96375031769275665283203125">
        <ele>998.20001220703125</ele>
        <time>2018-09-08T14:22:25.000Z</time>
      </trkpt>
      <trkpt lat="43.2801335491240024566650390625" lon="-4.96373154222965240478515625">
        <ele>997.5999755859375</ele>
        <time>2018-09-08T14:22:26.000Z</time>
      </trkpt>
      <trkpt lat="43.28025701455771923065185546875" lon="-4.963689632713794708251953125">
        <ele>995.4000244140625</ele>
        <time>2018-09-08T14:22:28.000Z</time>
      </trkpt>
      <trkpt lat="43.2803099043667316436767578125" lon="-4.96367228217422962188720703125">
        <ele>994.20001220703125</ele>
        <time>2018-09-08T14:22:29.000Z</time>
      </trkpt>
      <trkpt lat="43.28035089187324047088623046875" lon="-4.96366004459559917449951171875">
        <ele>993.20001220703125</ele>
        <time>2018-09-08T14:22:30.000Z</time>
      </trkpt>
      <trkpt lat="43.28038307838141918182373046875" lon="-4.96364931575953960418701171875">
        <ele>992.4000244140625</ele>
        <time>2018-09-08T14:22:31.000Z</time>
      </trkpt>
      <trkpt lat="43.28042716719210147857666015625" lon="-4.963616542518138885498046875">
        <ele>991.5999755859375</ele>
        <time>2018-09-08T14:22:33.000Z</time>
      </trkpt>
      <trkpt lat="43.280464969575405120849609375" lon="-4.96356231160461902618408203125">
        <ele>990.5999755859375</ele>
        <time>2018-09-08T14:22:35.000Z</time>
      </trkpt>
      <trkpt lat="43.2805176079273223876953125" lon="-4.96353305876255035400390625">
        <ele>989.20001220703125</ele>
        <time>2018-09-08T14:22:37.000Z</time>
      </trkpt>
      <trkpt lat="43.280561529099941253662109375" lon="-4.9635463021695613861083984375">
        <ele>988</ele>
        <time>2018-09-08T14:22:39.000Z</time>
      </trkpt>
      <trkpt lat="43.2805942185223102569580078125" lon="-4.96355795301496982574462890625">
        <ele>987.20001220703125</ele>
        <time>2018-09-08T14:22:41.000Z</time>
      </trkpt>
      <trkpt lat="43.280606456100940704345703125" lon="-4.9635704420506954193115234375">
        <ele>987</ele>
        <time>2018-09-08T14:22:42.000Z</time>
      </trkpt>
      <trkpt lat="43.28062246553599834442138671875" lon="-4.963586367666721343994140625">
        <ele>986.79998779296875</ele>
        <time>2018-09-08T14:22:43.000Z</time>
      </trkpt>
      <trkpt lat="43.28064342029392719268798828125" lon="-4.963602125644683837890625">
        <ele>986.4000244140625</ele>
        <time>2018-09-08T14:22:44.000Z</time>
      </trkpt>
      <trkpt lat="43.28070737421512603759765625" lon="-4.96363070793449878692626953125">
        <ele>986</ele>
        <time>2018-09-08T14:22:46.000Z</time>
      </trkpt>
      <trkpt lat="43.280789516866207122802734375" lon="-4.9636284448206424713134765625">
        <ele>985.4000244140625</ele>
        <time>2018-09-08T14:22:48.000Z</time>
      </trkpt>
      <trkpt lat="43.280865959823131561279296875" lon="-4.96360237710177898406982421875">
        <ele>985</ele>
        <time>2018-09-08T14:22:50.000Z</time>
      </trkpt>
      <trkpt lat="43.28096729703247547149658203125" lon="-4.9635605514049530029296875">
        <ele>985.5999755859375</ele>
        <time>2018-09-08T14:22:53.000Z</time>
      </trkpt>
      <trkpt lat="43.281033597886562347412109375" lon="-4.9635255150496959686279296875">
        <ele>986.5999755859375</ele>
        <time>2018-09-08T14:22:55.000Z</time>
      </trkpt>
      <trkpt lat="43.28110191039741039276123046875" lon="-4.963492490351200103759765625">
        <ele>987.20001220703125</ele>
        <time>2018-09-08T14:22:57.000Z</time>
      </trkpt>
      <trkpt lat="43.28116871416568756103515625" lon="-4.96345502324402332305908203125">
        <ele>988</ele>
        <time>2018-09-08T14:22:59.000Z</time>
      </trkpt>
      <trkpt lat="43.28119880519807338714599609375" lon="-4.96343373320996761322021484375">
        <ele>988.20001220703125</ele>
        <time>2018-09-08T14:23:00.000Z</time>
      </trkpt>
      <trkpt lat="43.28122638165950775146484375" lon="-4.96341395191848278045654296875">
        <ele>988.5999755859375</ele>
        <time>2018-09-08T14:23:01.000Z</time>
      </trkpt>
      <trkpt lat="43.281254209578037261962890625" lon="-4.96339316479861736297607421875">
        <ele>989</ele>
        <time>2018-09-08T14:23:02.000Z</time>
      </trkpt>
      <trkpt lat="43.28130575828254222869873046875" lon="-4.96334262192249298095703125">
        <ele>989.4000244140625</ele>
        <time>2018-09-08T14:23:04.000Z</time>
      </trkpt>
      <trkpt lat="43.28134842216968536376953125" lon="-4.96328185312449932098388671875">
        <ele>990</ele>
        <time>2018-09-08T14:23:06.000Z</time>
      </trkpt>
      <trkpt lat="43.2813678681850433349609375" lon="-4.9632515944540500640869140625">
        <ele>990</ele>
        <time>2018-09-08T14:23:07.000Z</time>
      </trkpt>
      <trkpt lat="43.281387984752655029296875" lon="-4.96322351507842540740966796875">
        <ele>990.20001220703125</ele>
        <time>2018-09-08T14:23:08.000Z</time>
      </trkpt>
      <trkpt lat="43.28144422732293605804443359375" lon="-4.96311371214687824249267578125">
        <ele>990.79998779296875</ele>
        <time>2018-09-08T14:23:11.000Z</time>
      </trkpt>
      <trkpt lat="43.281490243971347808837890625" lon="-4.96300206519663333892822265625">
        <ele>991.20001220703125</ele>
        <time>2018-09-08T14:23:14.000Z</time>
      </trkpt>
      <trkpt lat="43.28156308270990848541259765625" lon="-4.96282822452485561370849609375">
        <ele>990.79998779296875</ele>
        <time>2018-09-08T14:23:18.000Z</time>
      </trkpt>
      <trkpt lat="43.281645476818084716796875" lon="-4.9626873247325420379638671875">
        <ele>990.20001220703125</ele>
        <time>2018-09-08T14:23:21.000Z</time>
      </trkpt>
      <trkpt lat="43.28167833387851715087890625" lon="-4.96264130808413028717041015625">
        <ele>990</ele>
        <time>2018-09-08T14:23:22.000Z</time>
      </trkpt>
      <trkpt lat="43.28187170438468456268310546875" lon="-4.962422959506511688232421875">
        <ele>989.4000244140625</ele>
        <time>2018-09-08T14:23:27.000Z</time>
      </trkpt>
      <trkpt lat="43.281920067965984344482421875" lon="-4.96238515712320804595947265625">
        <ele>989</ele>
        <time>2018-09-08T14:23:28.000Z</time>
      </trkpt>
      <trkpt lat="43.2819691859185695648193359375" lon="-4.96234123595058917999267578125">
        <ele>988.5999755859375</ele>
        <time>2018-09-08T14:23:29.000Z</time>
      </trkpt>
      <trkpt lat="43.2821317948400974273681640625" lon="-4.96221735142171382904052734375">
        <ele>987.20001220703125</ele>
        <time>2018-09-08T14:23:32.000Z</time>
      </trkpt>
      <trkpt lat="43.2821904681622982025146484375" lon="-4.96217795647680759429931640625">
        <ele>986.79998779296875</ele>
        <time>2018-09-08T14:23:33.000Z</time>
      </trkpt>
      <trkpt lat="43.28231276012957096099853515625" lon="-4.9621032737195491790771484375">
        <ele>986.4000244140625</ele>
        <time>2018-09-08T14:23:35.000Z</time>
      </trkpt>
      <trkpt lat="43.28237763606011867523193359375" lon="-4.96206999756395816802978515625">
        <ele>986.20001220703125</ele>
        <time>2018-09-08T14:23:36.000Z</time>
      </trkpt>
      <trkpt lat="43.28250017948448657989501953125" lon="-4.96199539862573146820068359375">
        <ele>985.79998779296875</ele>
        <time>2018-09-08T14:23:38.000Z</time>
      </trkpt>
      <trkpt lat="43.2825532369315624237060546875" lon="-4.9619440175592899322509765625">
        <ele>985.5999755859375</ele>
        <time>2018-09-08T14:23:39.000Z</time>
      </trkpt>
      <trkpt lat="43.28266681171953678131103515625" lon="-4.96185709722340106964111328125">
        <ele>985.20001220703125</ele>
        <time>2018-09-08T14:23:41.000Z</time>
      </trkpt>
      <trkpt lat="43.28273286111652851104736328125" lon="-4.96183966286480426788330078125">
        <ele>985</ele>
        <time>2018-09-08T14:23:42.000Z</time>
      </trkpt>
      <trkpt lat="43.2827974855899810791015625" lon="-4.9618414230644702911376953125">
        <ele>985</ele>
        <time>2018-09-08T14:23:43.000Z</time>
      </trkpt>
      <trkpt lat="43.28302270732820034027099609375" lon="-4.961946196854114532470703125">
        <ele>985.20001220703125</ele>
        <time>2018-09-08T14:23:47.000Z</time>
      </trkpt>
      <trkpt lat="43.28307014890015125274658203125" lon="-4.96198450215160846710205078125">
        <ele>985.4000244140625</ele>
        <time>2018-09-08T14:23:48.000Z</time>
      </trkpt>
      <trkpt lat="43.28325991518795490264892578125" lon="-4.96217963285744190216064453125">
        <ele>985</ele>
        <time>2018-09-08T14:23:52.000Z</time>
      </trkpt>
      <trkpt lat="43.28354657627642154693603515625" lon="-4.9624992348253726959228515625">
        <ele>985.4000244140625</ele>
        <time>2018-09-08T14:23:58.000Z</time>
      </trkpt>
      <trkpt lat="43.283760063350200653076171875" lon="-4.96271423064172267913818359375">
        <ele>986.20001220703125</ele>
        <time>2018-09-08T14:24:03.000Z</time>
      </trkpt>
      <trkpt lat="43.283856622874736785888671875" lon="-4.9627915956079959869384765625">
        <ele>986.20001220703125</ele>
        <time>2018-09-08T14:24:05.000Z</time>
      </trkpt>
      <trkpt lat="43.2840267755091190338134765625" lon="-4.9628905020654201507568359375">
        <ele>985.20001220703125</ele>
        <time>2018-09-08T14:24:08.000Z</time>
      </trkpt>
      <trkpt lat="43.2840861193835735321044921875" lon="-4.96292847208678722381591796875">
        <ele>985</ele>
        <time>2018-09-08T14:24:09.000Z</time>
      </trkpt>
      <trkpt lat="43.28419852070510387420654296875" lon="-4.96301279403269290924072265625">
        <ele>984.79998779296875</ele>
        <time>2018-09-08T14:24:11.000Z</time>
      </trkpt>
      <trkpt lat="43.2844797335565090179443359375" lon="-4.96326207183301448822021484375">
        <ele>985</ele>
        <time>2018-09-08T14:24:17.000Z</time>
      </trkpt>
      <trkpt lat="43.2846282608807086944580078125" lon="-4.963351003825664520263671875">
        <ele>985.20001220703125</ele>
        <time>2018-09-08T14:24:21.000Z</time>
      </trkpt>
      <trkpt lat="43.28465784899890422821044921875" lon="-4.96334991417825222015380859375">
        <ele>985.20001220703125</ele>
        <time>2018-09-08T14:24:22.000Z</time>
      </trkpt>
      <trkpt lat="43.28472171910107135772705078125" lon="-4.96331437490880489349365234375">
        <ele>984.5999755859375</ele>
        <time>2018-09-08T14:24:25.000Z</time>
      </trkpt>
      <trkpt lat="43.28473077155649662017822265625" lon="-4.9632961861789226531982421875">
        <ele>984.4000244140625</ele>
        <time>2018-09-08T14:24:26.000Z</time>
      </trkpt>
      <trkpt lat="43.28474250622093677520751953125" lon="-4.96324514038860797882080078125">
        <ele>984</ele>
        <time>2018-09-08T14:24:30.000Z</time>
      </trkpt>
      <trkpt lat="43.28474409878253936767578125" lon="-4.9632378481328487396240234375">
        <ele>984</ele>
        <time>2018-09-08T14:24:31.000Z</time>
      </trkpt>
      <trkpt lat="43.284710906445980072021484375" lon="-4.9632559530436992645263671875">
        <ele>983.5999755859375</ele>
        <time>2018-09-08T14:24:47.000Z</time>
      </trkpt>
      <trkpt lat="43.28470948152244091033935546875" lon="-4.9632681906223297119140625">
        <ele>983.5999755859375</ele>
        <time>2018-09-08T14:24:48.000Z</time>
      </trkpt>
      <trkpt lat="43.2847063802182674407958984375" lon="-4.96328227221965789794921875">
        <ele>983.79998779296875</ele>
        <time>2018-09-08T14:24:49.000Z</time>
      </trkpt>
      <trkpt lat="43.28468115068972110748291015625" lon="-4.9633337371051311492919921875">
        <ele>984.20001220703125</ele>
        <time>2018-09-08T14:24:53.000Z</time>
      </trkpt>
      <trkpt lat="43.2846678234636783599853515625" lon="-4.963338263332843780517578125">
        <ele>984.4000244140625</ele>
        <time>2018-09-08T14:24:54.000Z</time>
      </trkpt>
      <trkpt lat="43.28463823534548282623291015625" lon="-4.96335293166339397430419921875">
        <ele>985</ele>
        <time>2018-09-08T14:24:56.000Z</time>
      </trkpt>
      <trkpt lat="43.284614346921443939208984375" lon="-4.963368438184261322021484375">
        <ele>985.20001220703125</ele>
        <time>2018-09-08T14:24:58.000Z</time>
      </trkpt>
      <trkpt lat="43.28460755757987499237060546875" lon="-4.96340422891080379486083984375">
        <ele>985.4000244140625</ele>
        <time>2018-09-08T14:25:00.000Z</time>
      </trkpt>
      <trkpt lat="43.2846047915518283843994140625" lon="-4.9634225852787494659423828125">
        <ele>985.4000244140625</ele>
        <time>2018-09-08T14:25:01.000Z</time>
      </trkpt>
      <trkpt lat="43.2846329547464847564697265625" lon="-4.96352643705904483795166015625">
        <ele>985.5999755859375</ele>
        <time>2018-09-08T14:25:06.000Z</time>
      </trkpt>
      <trkpt lat="43.28468978404998779296875" lon="-4.96356499381363391876220703125">
        <ele>986</ele>
        <time>2018-09-08T14:25:09.000Z</time>
      </trkpt>
      <trkpt lat="43.2847273349761962890625" lon="-4.9635912291705608367919921875">
        <ele>986.5999755859375</ele>
        <time>2018-09-08T14:25:11.000Z</time>
      </trkpt>
      <trkpt lat="43.2847560010850429534912109375" lon="-4.96361813507974147796630859375">
        <ele>987.20001220703125</ele>
        <time>2018-09-08T14:25:13.000Z</time>
      </trkpt>
      <trkpt lat="43.28474619425833225250244140625" lon="-4.96360975317656993865966796875">
        <ele>987.5999755859375</ele>
        <time>2018-09-08T14:26:12.000Z</time>
      </trkpt>
      <trkpt lat="43.28472758643329143524169921875" lon="-4.9635996110737323760986328125">
        <ele>987.4000244140625</ele>
        <time>2018-09-08T14:26:13.000Z</time>
      </trkpt>
      <trkpt lat="43.284678049385547637939453125" lon="-4.9635680951178073883056640625">
        <ele>987</ele>
        <time>2018-09-08T14:26:15.000Z</time>
      </trkpt>
      <trkpt lat="43.28463404439389705657958984375" lon="-4.96351436711847782135009765625">
        <ele>986.4000244140625</ele>
        <time>2018-09-08T14:26:17.000Z</time>
      </trkpt>
      <trkpt lat="43.28462733887135982513427734375" lon="-4.9634881317615509033203125">
        <ele>986</ele>
        <time>2018-09-08T14:26:18.000Z</time>
      </trkpt>
      <trkpt lat="43.28463303856551647186279296875" lon="-4.96345401741564273834228515625">
        <ele>985.79998779296875</ele>
        <time>2018-09-08T14:26:19.000Z</time>
      </trkpt>
      <trkpt lat="43.28467276878654956817626953125" lon="-4.96338243596255779266357421875">
        <ele>985</ele>
        <time>2018-09-08T14:26:22.000Z</time>
      </trkpt>
      <trkpt lat="43.28467913903295993804931640625" lon="-4.96337941847741603851318359375">
        <ele>985</ele>
        <time>2018-09-08T14:26:23.000Z</time>
      </trkpt>
      <trkpt lat="43.2846966572105884552001953125" lon="-4.963351674377918243408203125">
        <ele>984.79998779296875</ele>
        <time>2018-09-08T14:26:52.000Z</time>
      </trkpt>
      <trkpt lat="43.2847233116626739501953125" lon="-4.96328294277191162109375">
        <ele>984.5999755859375</ele>
        <time>2018-09-08T14:26:54.000Z</time>
      </trkpt>
      <trkpt lat="43.28472708351910114288330078125" lon="-4.96318814344704151153564453125">
        <ele>983.79998779296875</ele>
        <time>2018-09-08T14:26:56.000Z</time>
      </trkpt>
      <trkpt lat="43.28472607769072055816650390625" lon="-4.9631349183619022369384765625">
        <ele>983.20001220703125</ele>
        <time>2018-09-08T14:26:57.000Z</time>
      </trkpt>
      <trkpt lat="43.28472473658621311187744140625" lon="-4.9630826152861118316650390625">
        <ele>982.5999755859375</ele>
        <time>2018-09-08T14:26:58.000Z</time>
      </trkpt>
      <trkpt lat="43.28472398221492767333984375" lon="-4.963030479848384857177734375">
        <ele>982</ele>
        <time>2018-09-08T14:26:59.000Z</time>
      </trkpt>
      <trkpt lat="43.28472222201526165008544921875" lon="-4.96297541074454784393310546875">
        <ele>981.20001220703125</ele>
        <time>2018-09-08T14:27:00.000Z</time>
      </trkpt>
      <trkpt lat="43.284718282520771026611328125" lon="-4.96284029446542263031005859375">
        <ele>979.4000244140625</ele>
        <time>2018-09-08T14:27:02.000Z</time>
      </trkpt>
      <trkpt lat="43.28472339548170566558837890625" lon="-4.96277105994522571563720703125">
        <ele>978.20001220703125</ele>
        <time>2018-09-08T14:27:03.000Z</time>
      </trkpt>
      <trkpt lat="43.28473462723195552825927734375" lon="-4.96269428171217441558837890625">
        <ele>977.20001220703125</ele>
        <time>2018-09-08T14:27:04.000Z</time>
      </trkpt>
      <trkpt lat="43.2847496308386325836181640625" lon="-4.96261616237461566925048828125">
        <ele>976</ele>
        <time>2018-09-08T14:27:05.000Z</time>
      </trkpt>
      <trkpt lat="43.284766562283039093017578125" lon="-4.96253955177962779998779296875">
        <ele>974.79998779296875</ele>
        <time>2018-09-08T14:27:06.000Z</time>
      </trkpt>
      <trkpt lat="43.2847844995558261871337890625" lon="-4.9624683894217014312744140625">
        <ele>973.5999755859375</ele>
        <time>2018-09-08T14:27:07.000Z</time>
      </trkpt>
      <trkpt lat="43.28480469994246959686279296875" lon="-4.96240250766277313232421875">
        <ele>972.4000244140625</ele>
        <time>2018-09-08T14:27:08.000Z</time>
      </trkpt>
      <trkpt lat="43.28482816927134990692138671875" lon="-4.96234375052154064178466796875">
        <ele>971.20001220703125</ele>
        <time>2018-09-08T14:27:09.000Z</time>
      </trkpt>
      <trkpt lat="43.28485834412276744842529296875" lon="-4.96228759177029132843017578125">
        <ele>970</ele>
        <time>2018-09-08T14:27:10.000Z</time>
      </trkpt>
      <trkpt lat="43.28490528278052806854248046875" lon="-4.9622296728193759918212890625">
        <ele>968.79998779296875</ele>
        <time>2018-09-08T14:27:11.000Z</time>
      </trkpt>
      <trkpt lat="43.28495859168469905853271484375" lon="-4.9621693231165409088134765625">
        <ele>967.4000244140625</ele>
        <time>2018-09-08T14:27:12.000Z</time>
      </trkpt>
      <trkpt lat="43.28501139767467975616455078125" lon="-4.9621059559285640716552734375">
        <ele>965.4000244140625</ele>
        <time>2018-09-08T14:27:13.000Z</time>
      </trkpt>
      <trkpt lat="43.28506621532142162322998046875" lon="-4.9620378948748111724853515625">
        <ele>963.79998779296875</ele>
        <time>2018-09-08T14:27:14.000Z</time>
      </trkpt>
      <trkpt lat="43.2851258106529712677001953125" lon="-4.96197846718132495880126953125">
        <ele>962.4000244140625</ele>
        <time>2018-09-08T14:27:15.000Z</time>
      </trkpt>
      <trkpt lat="43.28519311733543872833251953125" lon="-4.96192817576229572296142578125">
        <ele>961.20001220703125</ele>
        <time>2018-09-08T14:27:16.000Z</time>
      </trkpt>
      <trkpt lat="43.2852666266262531280517578125" lon="-4.9618836678564548492431640625">
        <ele>959.79998779296875</ele>
        <time>2018-09-08T14:27:17.000Z</time>
      </trkpt>
      <trkpt lat="43.28534063883125782012939453125" lon="-4.9618454463779926300048828125">
        <ele>958.4000244140625</ele>
        <time>2018-09-08T14:27:18.000Z</time>
      </trkpt>
      <trkpt lat="43.28541523776948451995849609375" lon="-4.961806051433086395263671875">
        <ele>955.5999755859375</ele>
        <time>2018-09-08T14:27:19.000Z</time>
      </trkpt>
      <trkpt lat="43.28549235127866268157958984375" lon="-4.961770512163639068603515625">
        <ele>954.20001220703125</ele>
        <time>2018-09-08T14:27:20.000Z</time>
      </trkpt>
      <trkpt lat="43.28557181172072887420654296875" lon="-4.9617441929876804351806640625">
        <ele>952.79998779296875</ele>
        <time>2018-09-08T14:27:21.000Z</time>
      </trkpt>
      <trkpt lat="43.28564993105828762054443359375" lon="-4.9617136828601360321044921875">
        <ele>951.20001220703125</ele>
        <time>2018-09-08T14:27:22.000Z</time>
      </trkpt>
      <trkpt lat="43.2857215963304042816162109375" lon="-4.96167822740972042083740234375">
        <ele>949.79998779296875</ele>
        <time>2018-09-08T14:27:23.000Z</time>
      </trkpt>
      <trkpt lat="43.28578907065093517303466796875" lon="-4.961642436683177947998046875">
        <ele>948.5999755859375</ele>
        <time>2018-09-08T14:27:24.000Z</time>
      </trkpt>
      <trkpt lat="43.28586123883724212646484375" lon="-4.9616043828427791595458984375">
        <ele>947.4000244140625</ele>
        <time>2018-09-08T14:27:25.000Z</time>
      </trkpt>
      <trkpt lat="43.2859405316412448883056640625" lon="-4.961563982069492340087890625">
        <ele>946.20001220703125</ele>
        <time>2018-09-08T14:27:26.000Z</time>
      </trkpt>
      <trkpt lat="43.28602963127195835113525390625" lon="-4.9615279398858547210693359375">
        <ele>944.5999755859375</ele>
        <time>2018-09-08T14:27:27.000Z</time>
      </trkpt>
      <trkpt lat="43.28612401150166988372802734375" lon="-4.961504302918910980224609375">
        <ele>943</ele>
        <time>2018-09-08T14:27:28.000Z</time>
      </trkpt>
      <trkpt lat="43.2862214930355548858642578125" lon="-4.96148577891290187835693359375">
        <ele>941.20001220703125</ele>
        <time>2018-09-08T14:27:29.000Z</time>
      </trkpt>
      <trkpt lat="43.28631729818880558013916015625" lon="-4.961472451686859130859375">
        <ele>939.5999755859375</ele>
        <time>2018-09-08T14:27:30.000Z</time>
      </trkpt>
      <trkpt lat="43.28641251660883426666259765625" lon="-4.96145845390856266021728515625">
        <ele>937.5999755859375</ele>
        <time>2018-09-08T14:27:31.000Z</time>
      </trkpt>
      <trkpt lat="43.28650035895407199859619140625" lon="-4.961438588798046112060546875">
        <ele>935.5999755859375</ele>
        <time>2018-09-08T14:27:32.000Z</time>
      </trkpt>
      <trkpt lat="43.28658317215740680694580078125" lon="-4.96141612529754638671875">
        <ele>933.5999755859375</ele>
        <time>2018-09-08T14:27:33.000Z</time>
      </trkpt>
      <trkpt lat="43.28665575943887233734130859375" lon="-4.9613879621028900146484375">
        <ele>931.79998779296875</ele>
        <time>2018-09-08T14:27:34.000Z</time>
      </trkpt>
      <trkpt lat="43.2867183722555637359619140625" lon="-4.96134999208152294158935546875">
        <ele>930.4000244140625</ele>
        <time>2018-09-08T14:27:35.000Z</time>
      </trkpt>
      <trkpt lat="43.28676422126591205596923828125" lon="-4.96130288578569889068603515625">
        <ele>928.79998779296875</ele>
        <time>2018-09-08T14:27:36.000Z</time>
      </trkpt>
      <trkpt lat="43.28679791651666164398193359375" lon="-4.96124387718737125396728515625">
        <ele>927.79998779296875</ele>
        <time>2018-09-08T14:27:37.000Z</time>
      </trkpt>
      <trkpt lat="43.28681300394237041473388671875" lon="-4.96116659604012966156005859375">
        <ele>926.5999755859375</ele>
        <time>2018-09-08T14:27:38.000Z</time>
      </trkpt>
      <trkpt lat="43.2868088968098163604736328125" lon="-4.9610759876668453216552734375">
        <ele>925.4000244140625</ele>
        <time>2018-09-08T14:27:39.000Z</time>
      </trkpt>
      <trkpt lat="43.286795653402805328369140625" lon="-4.9609794281423091888427734375">
        <ele>924.20001220703125</ele>
        <time>2018-09-08T14:27:40.000Z</time>
      </trkpt>
      <trkpt lat="43.2867857627570629119873046875" lon="-4.96087591163814067840576171875">
        <ele>922.79998779296875</ele>
        <time>2018-09-08T14:27:41.000Z</time>
      </trkpt>
      <trkpt lat="43.2867797277867794036865234375" lon="-4.9607755802571773529052734375">
        <ele>921.4000244140625</ele>
        <time>2018-09-08T14:27:42.000Z</time>
      </trkpt>
      <trkpt lat="43.28677763231098651885986328125" lon="-4.96066988445818424224853515625">
        <ele>917.79998779296875</ele>
        <time>2018-09-08T14:27:43.000Z</time>
      </trkpt>
      <trkpt lat="43.2867807336151599884033203125" lon="-4.96056544594466686248779296875">
        <ele>916</ele>
        <time>2018-09-08T14:27:44.000Z</time>
      </trkpt>
      <trkpt lat="43.28678928315639495849609375" lon="-4.96046167798340320587158203125">
        <ele>914</ele>
        <time>2018-09-08T14:27:45.000Z</time>
      </trkpt>
      <trkpt lat="43.28679573722183704376220703125" lon="-4.96035925112664699554443359375">
        <ele>912.4000244140625</ele>
        <time>2018-09-08T14:27:46.000Z</time>
      </trkpt>
      <trkpt lat="43.28680143691599369049072265625" lon="-4.9602619372308254241943359375">
        <ele>910.4000244140625</ele>
        <time>2018-09-08T14:27:47.000Z</time>
      </trkpt>
      <trkpt lat="43.28681074082851409912109375" lon="-4.96017049066722393035888671875">
        <ele>908.5999755859375</ele>
        <time>2018-09-08T14:27:48.000Z</time>
      </trkpt>
      <trkpt lat="43.28682960011065006256103515625" lon="-4.96008600108325481414794921875">
        <ele>906.79998779296875</ele>
        <time>2018-09-08T14:27:49.000Z</time>
      </trkpt>
      <trkpt lat="43.2868648879230022430419921875" lon="-4.96001022867858409881591796875">
        <ele>904.5999755859375</ele>
        <time>2018-09-08T14:27:50.000Z</time>
      </trkpt>
      <trkpt lat="43.28692129813134670257568359375" lon="-4.95994518510997295379638671875">
        <ele>903</ele>
        <time>2018-09-08T14:27:51.000Z</time>
      </trkpt>
      <trkpt lat="43.28699422068893909454345703125" lon="-4.95988927781581878662109375">
        <ele>900.5999755859375</ele>
        <time>2018-09-08T14:27:52.000Z</time>
      </trkpt>
      <trkpt lat="43.2870751060545444488525390625" lon="-4.95983605273067951202392578125">
        <ele>898.4000244140625</ele>
        <time>2018-09-08T14:27:53.000Z</time>
      </trkpt>
      <trkpt lat="43.28715934418141841888427734375" lon="-4.959785677492618560791015625">
        <ele>895.79998779296875</ele>
        <time>2018-09-08T14:27:54.000Z</time>
      </trkpt>
      <trkpt lat="43.28724483959376811981201171875" lon="-4.95973370969295501708984375">
        <ele>893.4000244140625</ele>
        <time>2018-09-08T14:27:55.000Z</time>
      </trkpt>
      <trkpt lat="43.2873299159109592437744140625" lon="-4.9596788920462131500244140625">
        <ele>890.5999755859375</ele>
        <time>2018-09-08T14:27:56.000Z</time>
      </trkpt>
      <trkpt lat="43.287412226200103759765625" lon="-4.95961703360080718994140625">
        <ele>888</ele>
        <time>2018-09-08T14:27:57.000Z</time>
      </trkpt>
      <trkpt lat="43.28749931417405605316162109375" lon="-4.9595420993864536285400390625">
        <ele>885.5999755859375</ele>
        <time>2018-09-08T14:27:58.000Z</time>
      </trkpt>
      <trkpt lat="43.28758397139608860015869140625" lon="-4.959459118545055389404296875">
        <ele>883</ele>
        <time>2018-09-08T14:27:59.000Z</time>
      </trkpt>
      <trkpt lat="43.2876625098288059234619140625" lon="-4.95936800725758075714111328125">
        <ele>880.4000244140625</ele>
        <time>2018-09-08T14:28:00.000Z</time>
      </trkpt>
      <trkpt lat="43.28773551620543003082275390625" lon="-4.95926926843822002410888671875">
        <ele>878</ele>
        <time>2018-09-08T14:28:01.000Z</time>
      </trkpt>
      <trkpt lat="43.28780449926853179931640625" lon="-4.95916751213371753692626953125">
        <ele>876.4000244140625</ele>
        <time>2018-09-08T14:28:02.000Z</time>
      </trkpt>
      <trkpt lat="43.28786292113363742828369140625" lon="-4.95906709693372249603271484375">
        <ele>874.79998779296875</ele>
        <time>2018-09-08T14:28:03.000Z</time>
      </trkpt>
      <trkpt lat="43.28791656531393527984619140625" lon="-4.9589711241424083709716796875">
        <ele>873.4000244140625</ele>
        <time>2018-09-08T14:28:04.000Z</time>
      </trkpt>
      <trkpt lat="43.28796953894197940826416015625" lon="-4.9588769115507602691650390625">
        <ele>871.79998779296875</ele>
        <time>2018-09-08T14:28:05.000Z</time>
      </trkpt>
      <trkpt lat="43.28802200965583324432373046875" lon="-4.9587889015674591064453125">
        <ele>870.4000244140625</ele>
        <time>2018-09-08T14:28:06.000Z</time>
      </trkpt>
      <trkpt lat="43.28807079233229160308837890625" lon="-4.95870374143123626708984375">
        <ele>867.79998779296875</ele>
        <time>2018-09-08T14:28:07.000Z</time>
      </trkpt>
      <trkpt lat="43.288117311894893646240234375" lon="-4.95861967094242572784423828125">
        <ele>866.20001220703125</ele>
        <time>2018-09-08T14:28:08.000Z</time>
      </trkpt>
      <trkpt lat="43.2881645858287811279296875" lon="-4.958535768091678619384765625">
        <ele>864.5999755859375</ele>
        <time>2018-09-08T14:28:09.000Z</time>
      </trkpt>
      <trkpt lat="43.28820909373462200164794921875" lon="-4.95845890603959560394287109375">
        <ele>863.20001220703125</ele>
        <time>2018-09-08T14:28:10.000Z</time>
      </trkpt>
      <trkpt lat="43.28825452364981174468994140625" lon="-4.95837860740721225738525390625">
        <ele>861.79998779296875</ele>
        <time>2018-09-08T14:28:11.000Z</time>
      </trkpt>
      <trkpt lat="43.28829609788954257965087890625" lon="-4.95830409228801727294921875">
        <ele>860.4000244140625</ele>
        <time>2018-09-08T14:28:12.000Z</time>
      </trkpt>
      <trkpt lat="43.288335911929607391357421875" lon="-4.95823477394878864288330078125">
        <ele>859.20001220703125</ele>
        <time>2018-09-08T14:28:13.000Z</time>
      </trkpt>
      <trkpt lat="43.28837337903678417205810546875" lon="-4.95817040093243122100830078125">
        <ele>858</ele>
        <time>2018-09-08T14:28:14.000Z</time>
      </trkpt>
      <trkpt lat="43.28841042704880237579345703125" lon="-4.9581097997725009918212890625">
        <ele>857</ele>
        <time>2018-09-08T14:28:15.000Z</time>
      </trkpt>
      <trkpt lat="43.288445211946964263916015625" lon="-4.95805087499320507049560546875">
        <ele>856</ele>
        <time>2018-09-08T14:28:16.000Z</time>
      </trkpt>
      <trkpt lat="43.28852844424545764923095703125" lon="-4.95794945396482944488525390625">
        <ele>854</ele>
        <time>2018-09-08T14:28:18.000Z</time>
      </trkpt>
      <trkpt lat="43.288584016263484954833984375" lon="-4.95790871791541576385498046875">
        <ele>853</ele>
        <time>2018-09-08T14:28:19.000Z</time>
      </trkpt>
      <trkpt lat="43.2886485569179058074951171875" lon="-4.9578911997377872467041015625">
        <ele>852.20001220703125</ele>
        <time>2018-09-08T14:28:20.000Z</time>
      </trkpt>
      <trkpt lat="43.28878157772123813629150390625" lon="-4.957942999899387359619140625">
        <ele>850.5999755859375</ele>
        <time>2018-09-08T14:28:22.000Z</time>
      </trkpt>
      <trkpt lat="43.2889047078788280487060546875" lon="-4.95807149447500705718994140625">
        <ele>849</ele>
        <time>2018-09-08T14:28:24.000Z</time>
      </trkpt>
      <trkpt lat="43.288965560495853424072265625" lon="-4.9581466801464557647705078125">
        <ele>847.79998779296875</ele>
        <time>2018-09-08T14:28:25.000Z</time>
      </trkpt>
      <trkpt lat="43.28902356326580047607421875" lon="-4.9582194350659847259521484375">
        <ele>846.5999755859375</ele>
        <time>2018-09-08T14:28:26.000Z</time>
      </trkpt>
      <trkpt lat="43.2890847511589527130126953125" lon="-4.95829277671873569488525390625">
        <ele>845.4000244140625</ele>
        <time>2018-09-08T14:28:27.000Z</time>
      </trkpt>
      <trkpt lat="43.28914501704275608062744140625" lon="-4.9583656154572963714599609375">
        <ele>844.20001220703125</ele>
        <time>2018-09-08T14:28:28.000Z</time>
      </trkpt>
      <trkpt lat="43.2892067916691303253173828125" lon="-4.9584375321865081787109375">
        <ele>843</ele>
        <time>2018-09-08T14:28:29.000Z</time>
      </trkpt>
      <trkpt lat="43.28927300870418548583984375" lon="-4.95850861072540283203125">
        <ele>841.79998779296875</ele>
        <time>2018-09-08T14:28:30.000Z</time>
      </trkpt>
      <trkpt lat="43.2893407344818115234375" lon="-4.9585775099694728851318359375">
        <ele>839.5999755859375</ele>
        <time>2018-09-08T14:28:31.000Z</time>
      </trkpt>
      <trkpt lat="43.2894113101065158843994140625" lon="-4.9586455710232257843017578125">
        <ele>838.5999755859375</ele>
        <time>2018-09-08T14:28:32.000Z</time>
      </trkpt>
      <trkpt lat="43.28948129899799823760986328125" lon="-4.95871002785861492156982421875">
        <ele>837.4000244140625</ele>
        <time>2018-09-08T14:28:33.000Z</time>
      </trkpt>
      <trkpt lat="43.2895514555275440216064453125" lon="-4.95877641253173351287841796875">
        <ele>836.4000244140625</ele>
        <time>2018-09-08T14:28:34.000Z</time>
      </trkpt>
      <trkpt lat="43.289624042809009552001953125" lon="-4.95884363539516925811767578125">
        <ele>835.4000244140625</ele>
        <time>2018-09-08T14:28:35.000Z</time>
      </trkpt>
      <trkpt lat="43.289764858782291412353515625" lon="-4.95897640474140644073486328125">
        <ele>833.20001220703125</ele>
        <time>2018-09-08T14:28:37.000Z</time>
      </trkpt>
      <trkpt lat="43.28982931561768054962158203125" lon="-4.959036000072956085205078125">
        <ele>832.20001220703125</ele>
        <time>2018-09-08T14:28:38.000Z</time>
      </trkpt>
      <trkpt lat="43.28989804722368717193603515625" lon="-4.9590961821377277374267578125">
        <ele>831</ele>
        <time>2018-09-08T14:28:39.000Z</time>
      </trkpt>
      <trkpt lat="43.29003852792084217071533203125" lon="-4.95922551490366458892822265625">
        <ele>829.5999755859375</ele>
        <time>2018-09-08T14:28:41.000Z</time>
      </trkpt>
      <trkpt lat="43.29010759480297565460205078125" lon="-4.95930028147995471954345703125">
        <ele>828.5999755859375</ele>
        <time>2018-09-08T14:28:42.000Z</time>
      </trkpt>
      <trkpt lat="43.290169537067413330078125" lon="-4.95937605388462543487548828125">
        <ele>827.5999755859375</ele>
        <time>2018-09-08T14:28:43.000Z</time>
      </trkpt>
      <trkpt lat="43.29028193838894367218017578125" lon="-4.95952583849430084228515625">
        <ele>825.79998779296875</ele>
        <time>2018-09-08T14:28:45.000Z</time>
      </trkpt>
      <trkpt lat="43.290342204272747039794921875" lon="-4.95960638858377933502197265625">
        <ele>824.4000244140625</ele>
        <time>2018-09-08T14:28:46.000Z</time>
      </trkpt>
      <trkpt lat="43.290400207042694091796875" lon="-4.9596889503300189971923828125">
        <ele>822.79998779296875</ele>
        <time>2018-09-08T14:28:47.000Z</time>
      </trkpt>
      <trkpt lat="43.29045712016522884368896484375" lon="-4.95976815931499004364013671875">
        <ele>821.4000244140625</ele>
        <time>2018-09-08T14:28:48.000Z</time>
      </trkpt>
      <trkpt lat="43.29051562584936618804931640625" lon="-4.95984971523284912109375">
        <ele>820</ele>
        <time>2018-09-08T14:28:49.000Z</time>
      </trkpt>
      <trkpt lat="43.29063598997890949249267578125" lon="-4.96002615429461002349853515625">
        <ele>817.79998779296875</ele>
        <time>2018-09-08T14:28:51.000Z</time>
      </trkpt>
      <trkpt lat="43.29070304520428180694580078125" lon="-4.9601164273917675018310546875">
        <ele>816.79998779296875</ele>
        <time>2018-09-08T14:28:52.000Z</time>
      </trkpt>
      <trkpt lat="43.29077102243900299072265625" lon="-4.9602113105356693267822265625">
        <ele>815.5999755859375</ele>
        <time>2018-09-08T14:28:53.000Z</time>
      </trkpt>
      <trkpt lat="43.29084520228207111358642578125" lon="-4.9603078700602054595947265625">
        <ele>814.20001220703125</ele>
        <time>2018-09-08T14:28:54.000Z</time>
      </trkpt>
      <trkpt lat="43.2909140177071094512939453125" lon="-4.96039881370961666107177734375">
        <ele>812.79998779296875</ele>
        <time>2018-09-08T14:28:55.000Z</time>
      </trkpt>
      <trkpt lat="43.2909814082086086273193359375" lon="-4.96048967353999614715576171875">
        <ele>810.20001220703125</ele>
        <time>2018-09-08T14:28:56.000Z</time>
      </trkpt>
      <trkpt lat="43.29104921780526638031005859375" lon="-4.9605779349803924560546875">
        <ele>809</ele>
        <time>2018-09-08T14:28:57.000Z</time>
      </trkpt>
      <trkpt lat="43.29111593775451183319091796875" lon="-4.96065781451761722564697265625">
        <ele>807.79998779296875</ele>
        <time>2018-09-08T14:28:58.000Z</time>
      </trkpt>
      <trkpt lat="43.29118768684566020965576171875" lon="-4.9607373587787151336669921875">
        <ele>806.5999755859375</ele>
        <time>2018-09-08T14:28:59.000Z</time>
      </trkpt>
      <trkpt lat="43.29126195050776004791259765625" lon="-4.9608178250491619110107421875">
        <ele>805.5999755859375</ele>
        <time>2018-09-08T14:29:00.000Z</time>
      </trkpt>
      <trkpt lat="43.291337974369525909423828125" lon="-4.960893094539642333984375">
        <ele>804.4000244140625</ele>
        <time>2018-09-08T14:29:01.000Z</time>
      </trkpt>
      <trkpt lat="43.29141072928905487060546875" lon="-4.96096576564013957977294921875">
        <ele>803</ele>
        <time>2018-09-08T14:29:02.000Z</time>
      </trkpt>
      <trkpt lat="43.29148524440824985504150390625" lon="-4.96104086749255657196044921875">
        <ele>801.20001220703125</ele>
        <time>2018-09-08T14:29:03.000Z</time>
      </trkpt>
      <trkpt lat="43.2915614359080791473388671875" lon="-4.961117394268512725830078125">
        <ele>799.5999755859375</ele>
        <time>2018-09-08T14:29:04.000Z</time>
      </trkpt>
      <trkpt lat="43.291637711226940155029296875" lon="-4.96118838898837566375732421875">
        <ele>798</ele>
        <time>2018-09-08T14:29:05.000Z</time>
      </trkpt>
      <trkpt lat="43.2917109690606594085693359375" lon="-4.96125427074730396270751953125">
        <ele>796.5999755859375</ele>
        <time>2018-09-08T14:29:06.000Z</time>
      </trkpt>
      <trkpt lat="43.2917823828756809234619140625" lon="-4.9613170512020587921142578125">
        <ele>795</ele>
        <time>2018-09-08T14:29:07.000Z</time>
      </trkpt>
      <trkpt lat="43.29185036011040210723876953125" lon="-4.96137664653360843658447265625">
        <ele>793.5999755859375</ele>
        <time>2018-09-08T14:29:08.000Z</time>
      </trkpt>
      <trkpt lat="43.29191691242158412933349609375" lon="-4.96144018135964870452880859375">
        <ele>791.5999755859375</ele>
        <time>2018-09-08T14:29:09.000Z</time>
      </trkpt>
      <trkpt lat="43.291978351771831512451171875" lon="-4.96151930652558803558349609375">
        <ele>790.4000244140625</ele>
        <time>2018-09-08T14:29:10.000Z</time>
      </trkpt>
      <trkpt lat="43.29203677363693714141845703125" lon="-4.9616132676601409912109375">
        <ele>788.79998779296875</ele>
        <time>2018-09-08T14:29:11.000Z</time>
      </trkpt>
      <trkpt lat="43.29209242947399616241455078125" lon="-4.9617046304047107696533203125">
        <ele>787.5999755859375</ele>
        <time>2018-09-08T14:29:12.000Z</time>
      </trkpt>
      <trkpt lat="43.292139954864978790283203125" lon="-4.961789958178997039794921875">
        <ele>786</ele>
        <time>2018-09-08T14:29:13.000Z</time>
      </trkpt>
      <trkpt lat="43.2921816967427730560302734375" lon="-4.96187084354460239410400390625">
        <ele>784.79998779296875</ele>
        <time>2018-09-08T14:29:14.000Z</time>
      </trkpt>
      <trkpt lat="43.29222301952540874481201171875" lon="-4.961944520473480224609375">
        <ele>783.79998779296875</ele>
        <time>2018-09-08T14:29:15.000Z</time>
      </trkpt>
      <trkpt lat="43.2922631688416004180908203125" lon="-4.96200847439467906951904296875">
        <ele>783.20001220703125</ele>
        <time>2018-09-08T14:29:16.000Z</time>
      </trkpt>
      <trkpt lat="43.29230063594877719879150390625" lon="-4.96206052601337432861328125">
        <ele>782.4000244140625</ele>
        <time>2018-09-08T14:29:17.000Z</time>
      </trkpt>
      <trkpt lat="43.2923523522913455963134765625" lon="-4.96214233338832855224609375">
        <ele>781</ele>
        <time>2018-09-08T14:29:19.000Z</time>
      </trkpt>
      <trkpt lat="43.29237674362957477569580078125" lon="-4.962179549038410186767578125">
        <ele>780</ele>
        <time>2018-09-08T14:29:20.000Z</time>
      </trkpt>
      <trkpt lat="43.29240088351070880889892578125" lon="-4.96221877634525299072265625">
        <ele>779.79998779296875</ele>
        <time>2018-09-08T14:29:21.000Z</time>
      </trkpt>
      <trkpt lat="43.29248453490436077117919921875" lon="-4.9623267352581024169921875">
        <ele>778.79998779296875</ele>
        <time>2018-09-08T14:29:24.000Z</time>
      </trkpt>
      <trkpt lat="43.2925580441951751708984375" lon="-4.9623761884868144989013671875">
        <ele>777.79998779296875</ele>
        <time>2018-09-08T14:29:26.000Z</time>
      </trkpt>
      <trkpt lat="43.2926038093864917755126953125" lon="-4.96238566003739833831787109375">
        <ele>777.20001220703125</ele>
        <time>2018-09-08T14:29:27.000Z</time>
      </trkpt>
      <trkpt lat="43.29270095564424991607666015625" lon="-4.96235364116728305816650390625">
        <ele>776</ele>
        <time>2018-09-08T14:29:29.000Z</time>
      </trkpt>
      <trkpt lat="43.2927967607975006103515625" lon="-4.962248615920543670654296875">
        <ele>773.5999755859375</ele>
        <time>2018-09-08T14:29:31.000Z</time>
      </trkpt>
      <trkpt lat="43.29284126870334148406982421875" lon="-4.962182901799678802490234375">
        <ele>772.4000244140625</ele>
        <time>2018-09-08T14:29:32.000Z</time>
      </trkpt>
      <trkpt lat="43.29287563450634479522705078125" lon="-4.96210721321403980255126953125">
        <ele>771.20001220703125</ele>
        <time>2018-09-08T14:29:33.000Z</time>
      </trkpt>
      <trkpt lat="43.29292240552604198455810546875" lon="-4.96192096732556819915771484375">
        <ele>769.20001220703125</ele>
        <time>2018-09-08T14:29:35.000Z</time>
      </trkpt>
      <trkpt lat="43.29294537194073200225830078125" lon="-4.96182440780103206634521484375">
        <ele>768.4000244140625</ele>
        <time>2018-09-08T14:29:36.000Z</time>
      </trkpt>
      <trkpt lat="43.292969763278961181640625" lon="-4.9617277644574642181396484375">
        <ele>767.79998779296875</ele>
        <time>2018-09-08T14:29:37.000Z</time>
      </trkpt>
      <trkpt lat="43.2930215634405612945556640625" lon="-4.96153791435062885284423828125">
        <ele>766.5999755859375</ele>
        <time>2018-09-08T14:29:39.000Z</time>
      </trkpt>
      <trkpt lat="43.29307327978312969207763671875" lon="-4.9613450467586517333984375">
        <ele>764.79998779296875</ele>
        <time>2018-09-08T14:29:41.000Z</time>
      </trkpt>
      <trkpt lat="43.29310328699648380279541015625" lon="-4.96125561185181140899658203125">
        <ele>763.79998779296875</ele>
        <time>2018-09-08T14:29:42.000Z</time>
      </trkpt>
      <trkpt lat="43.29313295893371105194091796875" lon="-4.96116592548787593841552734375">
        <ele>762.5999755859375</ele>
        <time>2018-09-08T14:29:43.000Z</time>
      </trkpt>
      <trkpt lat="43.2931613735854625701904296875" lon="-4.96107422746717929840087890625">
        <ele>761</ele>
        <time>2018-09-08T14:29:44.000Z</time>
      </trkpt>
      <trkpt lat="43.29321610741317272186279296875" lon="-4.9608925916254520416259765625">
        <ele>759</ele>
        <time>2018-09-08T14:29:46.000Z</time>
      </trkpt>
      <trkpt lat="43.293242342770099639892578125" lon="-4.96079678647220134735107421875">
        <ele>758</ele>
        <time>2018-09-08T14:29:48.000Z</time>
      </trkpt>
      <trkpt lat="43.29326908104121685028076171875" lon="-4.96069553308188915252685546875">
        <ele>756.4000244140625</ele>
        <time>2018-09-08T14:29:49.000Z</time>
      </trkpt>
      <trkpt lat="43.2932941429316997528076171875" lon="-4.96059008873999118804931640625">
        <ele>755</ele>
        <time>2018-09-08T14:29:50.000Z</time>
      </trkpt>
      <trkpt lat="43.29331870190799236297607421875" lon="-4.960485734045505523681640625">
        <ele>753.79998779296875</ele>
        <time>2018-09-08T14:29:51.000Z</time>
      </trkpt>
      <trkpt lat="43.29333513043820858001708984375" lon="-4.96037542819976806640625">
        <ele>752.4000244140625</ele>
        <time>2018-09-08T14:29:52.000Z</time>
      </trkpt>
      <trkpt lat="43.2933518104255199432373046875" lon="-4.96015003882348537445068359375">
        <ele>750.4000244140625</ele>
        <time>2018-09-08T14:29:54.000Z</time>
      </trkpt>
      <trkpt lat="43.2933680713176727294921875" lon="-4.9600329436361789703369140625">
        <ele>749.79998779296875</ele>
        <time>2018-09-08T14:29:55.000Z</time>
      </trkpt>
      <trkpt lat="43.29338123090565204620361328125" lon="-4.959913082420825958251953125">
        <ele>749.20001220703125</ele>
        <time>2018-09-08T14:29:56.000Z</time>
      </trkpt>
      <trkpt lat="43.2934084720909595489501953125" lon="-4.95967260561883449554443359375">
        <ele>748</ele>
        <time>2018-09-08T14:29:58.000Z</time>
      </trkpt>
      <trkpt lat="43.29345297999680042266845703125" lon="-4.95944227091968059539794921875">
        <ele>747.4000244140625</ele>
        <time>2018-09-08T14:30:00.000Z</time>
      </trkpt>
      <trkpt lat="43.29349623061716556549072265625" lon="-4.95919852517545223236083984375">
        <ele>746.4000244140625</ele>
        <time>2018-09-08T14:30:02.000Z</time>
      </trkpt>
      <trkpt lat="43.29351701773703098297119140625" lon="-4.95907145552337169647216796875">
        <ele>745.4000244140625</ele>
        <time>2018-09-08T14:30:03.000Z</time>
      </trkpt>
      <trkpt lat="43.29354040324687957763671875" lon="-4.9589391052722930908203125">
        <ele>744.20001220703125</ele>
        <time>2018-09-08T14:30:04.000Z</time>
      </trkpt>
      <trkpt lat="43.2935633696615695953369140625" lon="-4.9588098563253879547119140625">
        <ele>742.79998779296875</ele>
        <time>2018-09-08T14:30:05.000Z</time>
      </trkpt>
      <trkpt lat="43.2936009205877780914306640625" lon="-4.95855362154543399810791015625">
        <ele>740.79998779296875</ele>
        <time>2018-09-08T14:30:07.000Z</time>
      </trkpt>
      <trkpt lat="43.2936384715139865875244140625" lon="-4.9582982249557971954345703125">
        <ele>738.79998779296875</ele>
        <time>2018-09-08T14:30:09.000Z</time>
      </trkpt>
      <trkpt lat="43.293684907257556915283203125" lon="-4.95805690996348857879638671875">
        <ele>737.4000244140625</ele>
        <time>2018-09-08T14:30:11.000Z</time>
      </trkpt>
      <trkpt lat="43.29374467022716999053955078125" lon="-4.95781769044697284698486328125">
        <ele>736.4000244140625</ele>
        <time>2018-09-08T14:30:13.000Z</time>
      </trkpt>
      <trkpt lat="43.29384558834135532379150390625" lon="-4.95746866799890995025634765625">
        <ele>734.79998779296875</ele>
        <time>2018-09-08T14:30:16.000Z</time>
      </trkpt>
      <trkpt lat="43.29387190751731395721435546875" lon="-4.95737412013113498687744140625">
        <ele>734.4000244140625</ele>
        <time>2018-09-08T14:30:17.000Z</time>
      </trkpt>
      <trkpt lat="43.29392018727958202362060546875" lon="-4.95719843544065952301025390625">
        <ele>733.5999755859375</ele>
        <time>2018-09-08T14:30:19.000Z</time>
      </trkpt>
      <trkpt lat="43.29396662302315235137939453125" lon="-4.95701738633215427398681640625">
        <ele>732.4000244140625</ele>
        <time>2018-09-08T14:30:21.000Z</time>
      </trkpt>
      <trkpt lat="43.29400367103517055511474609375" lon="-4.9568424560129642486572265625">
        <ele>731.20001220703125</ele>
        <time>2018-09-08T14:30:23.000Z</time>
      </trkpt>
      <trkpt lat="43.2940216921269893646240234375" lon="-4.95666258037090301513671875">
        <ele>729.5999755859375</ele>
        <time>2018-09-08T14:30:25.000Z</time>
      </trkpt>
      <trkpt lat="43.29400886781513690948486328125" lon="-4.95648731477558612823486328125">
        <ele>728.20001220703125</ele>
        <time>2018-09-08T14:30:27.000Z</time>
      </trkpt>
      <trkpt lat="43.29402646981179714202880859375" lon="-4.9563707225024700164794921875">
        <ele>726.79998779296875</ele>
        <time>2018-09-08T14:30:29.000Z</time>
      </trkpt>
      <trkpt lat="43.2940706424415111541748046875" lon="-4.956345073878765106201171875">
        <ele>726.20001220703125</ele>
        <time>2018-09-08T14:30:30.000Z</time>
      </trkpt>
      <trkpt lat="43.2941256277263164520263671875" lon="-4.956357143819332122802734375">
        <ele>725.20001220703125</ele>
        <time>2018-09-08T14:30:31.000Z</time>
      </trkpt>
      <trkpt lat="43.29417885281145572662353515625" lon="-4.9563998915255069732666015625">
        <ele>724.20001220703125</ele>
        <time>2018-09-08T14:30:32.000Z</time>
      </trkpt>
      <trkpt lat="43.2942344248294830322265625" lon="-4.95645462535321712493896484375">
        <ele>722.4000244140625</ele>
        <time>2018-09-08T14:30:33.000Z</time>
      </trkpt>
      <trkpt lat="43.294292427599430084228515625" lon="-4.956513382494449615478515625">
        <ele>721.20001220703125</ele>
        <time>2018-09-08T14:30:34.000Z</time>
      </trkpt>
      <trkpt lat="43.2943485863506793975830078125" lon="-4.95657314546406269073486328125">
        <ele>720.20001220703125</ele>
        <time>2018-09-08T14:30:35.000Z</time>
      </trkpt>
      <trkpt lat="43.2944602333009243011474609375" lon="-4.956688396632671356201171875">
        <ele>718.5999755859375</ele>
        <time>2018-09-08T14:30:37.000Z</time>
      </trkpt>
      <trkpt lat="43.2945643365383148193359375" lon="-4.95678520761430263519287109375">
        <ele>717.5999755859375</ele>
        <time>2018-09-08T14:30:39.000Z</time>
      </trkpt>
      <trkpt lat="43.2946466468274593353271484375" lon="-4.95686500333249568939208984375">
        <ele>716.4000244140625</ele>
        <time>2018-09-08T14:30:41.000Z</time>
      </trkpt>
      <trkpt lat="43.2946798391640186309814453125" lon="-4.9568997882306575775146484375">
        <ele>716.20001220703125</ele>
        <time>2018-09-08T14:30:42.000Z</time>
      </trkpt>
      <trkpt lat="43.29476558603346347808837890625" lon="-4.95698771439492702484130859375">
        <ele>715.5999755859375</ele>
        <time>2018-09-08T14:30:45.000Z</time>
      </trkpt>
      <trkpt lat="43.294787295162677764892578125" lon="-4.9570079147815704345703125">
        <ele>715.4000244140625</ele>
        <time>2018-09-08T14:30:46.000Z</time>
      </trkpt>
      <trkpt lat="43.29480816610157489776611328125" lon="-4.95702979154884815216064453125">
        <ele>715.4000244140625</ele>
        <time>2018-09-08T14:30:47.000Z</time>
      </trkpt>
      <trkpt lat="43.29493582248687744140625" lon="-4.9571670033037662506103515625">
        <ele>715.20001220703125</ele>
        <time>2018-09-08T14:30:55.000Z</time>
      </trkpt>
      <trkpt lat="43.29494495876133441925048828125" lon="-4.95719742961227893829345703125">
        <ele>715.20001220703125</ele>
        <time>2018-09-08T14:31:00.000Z</time>
      </trkpt>
      <trkpt lat="43.2949577830731868743896484375" lon="-4.957227520644664764404296875">
        <ele>715</ele>
        <time>2018-09-08T14:31:01.000Z</time>
      </trkpt>
      <trkpt lat="43.29500815831124782562255859375" lon="-4.9573507346212863922119140625">
        <ele>715</ele>
        <time>2018-09-08T14:31:04.000Z</time>
      </trkpt>
      <trkpt lat="43.2950422726571559906005859375" lon="-4.95744151063263416290283203125">
        <ele>715</ele>
        <time>2018-09-08T14:31:06.000Z</time>
      </trkpt>
      <trkpt lat="43.29507923685014247894287109375" lon="-4.95753907598555088043212890625">
        <ele>715</ele>
        <time>2018-09-08T14:31:08.000Z</time>
      </trkpt>
      <trkpt lat="43.29512835480272769927978515625" lon="-4.95770059525966644287109375">
        <ele>714.4000244140625</ele>
        <time>2018-09-08T14:31:11.000Z</time>
      </trkpt>
      <trkpt lat="43.295158781111240386962890625" lon="-4.95782800018787384033203125">
        <ele>714.20001220703125</ele>
        <time>2018-09-08T14:31:13.000Z</time>
      </trkpt>
      <trkpt lat="43.29519222490489482879638671875" lon="-4.95798532851040363311767578125">
        <ele>713.20001220703125</ele>
        <time>2018-09-08T14:31:15.000Z</time>
      </trkpt>
      <trkpt lat="43.2952300272881984710693359375" lon="-4.9581553973257541656494140625">
        <ele>712</ele>
        <time>2018-09-08T14:31:17.000Z</time>
      </trkpt>
      <trkpt lat="43.29525391571223735809326171875" lon="-4.9582469277083873748779296875">
        <ele>711.20001220703125</ele>
        <time>2018-09-08T14:31:18.000Z</time>
      </trkpt>
      <trkpt lat="43.295281827449798583984375" lon="-4.95834742672741413116455078125">
        <ele>710.4000244140625</ele>
        <time>2018-09-08T14:31:19.000Z</time>
      </trkpt>
      <trkpt lat="43.2953121699392795562744140625" lon="-4.95845236815512180328369140625">
        <ele>709.20001220703125</ele>
        <time>2018-09-08T14:31:20.000Z</time>
      </trkpt>
      <trkpt lat="43.29534326680004596710205078125" lon="-4.95855714194476604461669921875">
        <ele>707.20001220703125</ele>
        <time>2018-09-08T14:31:21.000Z</time>
      </trkpt>
      <trkpt lat="43.2954077236354351043701171875" lon="-4.958756379783153533935546875">
        <ele>705.5999755859375</ele>
        <time>2018-09-08T14:31:23.000Z</time>
      </trkpt>
      <trkpt lat="43.295445777475833892822265625" lon="-4.958856292068958282470703125">
        <ele>704.4000244140625</ele>
        <time>2018-09-08T14:31:24.000Z</time>
      </trkpt>
      <trkpt lat="43.29548978246748447418212890625" lon="-4.958958886563777923583984375">
        <ele>703</ele>
        <time>2018-09-08T14:31:25.000Z</time>
      </trkpt>
      <trkpt lat="43.29553538002073764801025390625" lon="-4.959070198237895965576171875">
        <ele>701.5999755859375</ele>
        <time>2018-09-08T14:31:26.000Z</time>
      </trkpt>
      <trkpt lat="43.29557963646948337554931640625" lon="-4.9591830186545848846435546875">
        <ele>700</ele>
        <time>2018-09-08T14:31:27.000Z</time>
      </trkpt>
      <trkpt lat="43.29562439583241939544677734375" lon="-4.95930262841284275054931640625">
        <ele>698.5999755859375</ele>
        <time>2018-09-08T14:31:28.000Z</time>
      </trkpt>
      <trkpt lat="43.29567016102373600006103515625" lon="-4.9594254232943058013916015625">
        <ele>697.20001220703125</ele>
        <time>2018-09-08T14:31:29.000Z</time>
      </trkpt>
      <trkpt lat="43.2957181893289089202880859375" lon="-4.959554336965084075927734375">
        <ele>695.5999755859375</ele>
        <time>2018-09-08T14:31:30.000Z</time>
      </trkpt>
      <trkpt lat="43.29576437361538410186767578125" lon="-4.95968735776841640472412109375">
        <ele>694</ele>
        <time>2018-09-08T14:31:31.000Z</time>
      </trkpt>
      <trkpt lat="43.29580527730286121368408203125" lon="-4.95981752872467041015625">
        <ele>692.79998779296875</ele>
        <time>2018-09-08T14:31:32.000Z</time>
      </trkpt>
      <trkpt lat="43.295844756066799163818359375" lon="-4.95994267053902149200439453125">
        <ele>691.79998779296875</ele>
        <time>2018-09-08T14:31:33.000Z</time>
      </trkpt>
      <trkpt lat="43.2959277369081974029541015625" lon="-4.9601546488702297210693359375">
        <ele>690.5999755859375</ele>
        <time>2018-09-08T14:31:35.000Z</time>
      </trkpt>
      <trkpt lat="43.29598029144108295440673828125" lon="-4.96023821644484996795654296875">
        <ele>689.79998779296875</ele>
        <time>2018-09-08T14:31:36.000Z</time>
      </trkpt>
      <trkpt lat="43.2960454188287258148193359375" lon="-4.9603155814111232757568359375">
        <ele>689</ele>
        <time>2018-09-08T14:31:37.000Z</time>
      </trkpt>
      <trkpt lat="43.2961205206811428070068359375" lon="-4.96038615703582763671875">
        <ele>687.79998779296875</ele>
        <time>2018-09-08T14:31:38.000Z</time>
      </trkpt>
      <trkpt lat="43.29620140604674816131591796875" lon="-4.96045279316604137420654296875">
        <ele>687</ele>
        <time>2018-09-08T14:31:39.000Z</time>
      </trkpt>
      <trkpt lat="43.29627491533756256103515625" lon="-4.96052001602947711944580078125">
        <ele>685.5999755859375</ele>
        <time>2018-09-08T14:31:40.000Z</time>
      </trkpt>
      <trkpt lat="43.29633124172687530517578125" lon="-4.9606055952608585357666015625">
        <ele>685.20001220703125</ele>
        <time>2018-09-08T14:31:41.000Z</time>
      </trkpt>
      <trkpt lat="43.29636703245341777801513671875" lon="-4.96069452725350856781005859375">
        <ele>684.4000244140625</ele>
        <time>2018-09-08T14:31:42.000Z</time>
      </trkpt>
      <trkpt lat="43.29640567302703857421875" lon="-4.96096559800207614898681640625">
        <ele>684.4000244140625</ele>
        <time>2018-09-08T14:31:45.000Z</time>
      </trkpt>
      <trkpt lat="43.29644464887678623199462890625" lon="-4.96113424189388751983642578125">
        <ele>685</ele>
        <time>2018-09-08T14:31:47.000Z</time>
      </trkpt>
      <trkpt lat="43.29651497304439544677734375" lon="-4.96127136982977390289306640625">
        <ele>685.20001220703125</ele>
        <time>2018-09-08T14:31:49.000Z</time>
      </trkpt>
      <trkpt lat="43.29655654728412628173828125" lon="-4.96132836677134037017822265625">
        <ele>685.79998779296875</ele>
        <time>2018-09-08T14:31:50.000Z</time>
      </trkpt>
      <trkpt lat="43.29660105518996715545654296875" lon="-4.9613857828080654144287109375">
        <ele>685.5999755859375</ele>
        <time>2018-09-08T14:31:51.000Z</time>
      </trkpt>
      <trkpt lat="43.2966542802751064300537109375" lon="-4.96143850497901439666748046875">
        <ele>685.5999755859375</ele>
        <time>2018-09-08T14:31:52.000Z</time>
      </trkpt>
      <trkpt lat="43.29676710069179534912109375" lon="-4.9615648202598094940185546875">
        <ele>684.20001220703125</ele>
        <time>2018-09-08T14:31:54.000Z</time>
      </trkpt>
      <trkpt lat="43.29682284034788608551025390625" lon="-4.9616481363773345947265625">
        <ele>683.4000244140625</ele>
        <time>2018-09-08T14:31:55.000Z</time>
      </trkpt>
      <trkpt lat="43.296870030462741851806640625" lon="-4.96174729429185390472412109375">
        <ele>682.4000244140625</ele>
        <time>2018-09-08T14:31:56.000Z</time>
      </trkpt>
      <trkpt lat="43.296902216970920562744140625" lon="-4.9618591926991939544677734375">
        <ele>681.4000244140625</ele>
        <time>2018-09-08T14:31:57.000Z</time>
      </trkpt>
      <trkpt lat="43.2969235070049762725830078125" lon="-4.96197628788650035858154296875">
        <ele>681</ele>
        <time>2018-09-08T14:31:58.000Z</time>
      </trkpt>
      <trkpt lat="43.29694571904838085174560546875" lon="-4.96220779605209827423095703125">
        <ele>680.20001220703125</ele>
        <time>2018-09-08T14:32:00.000Z</time>
      </trkpt>
      <trkpt lat="43.29694722779095172882080078125" lon="-4.962312988936901092529296875">
        <ele>679.79998779296875</ele>
        <time>2018-09-08T14:32:01.000Z</time>
      </trkpt>
      <trkpt lat="43.2969590462744235992431640625" lon="-4.962512142956256866455078125">
        <ele>679.5999755859375</ele>
        <time>2018-09-08T14:32:03.000Z</time>
      </trkpt>
      <trkpt lat="43.29699299298226833343505859375" lon="-4.96270023286342620849609375">
        <ele>679.79998779296875</ele>
        <time>2018-09-08T14:32:05.000Z</time>
      </trkpt>
      <trkpt lat="43.2971290312707424163818359375" lon="-4.9632033146917819976806640625">
        <ele>680.4000244140625</ele>
        <time>2018-09-08T14:32:11.000Z</time>
      </trkpt>
      <trkpt lat="43.2972017861902713775634765625" lon="-4.96352056972682476043701171875">
        <ele>680.20001220703125</ele>
        <time>2018-09-08T14:32:15.000Z</time>
      </trkpt>
      <trkpt lat="43.297269679605960845947265625" lon="-4.963738583028316497802734375">
        <ele>680.5999755859375</ele>
        <time>2018-09-08T14:32:18.000Z</time>
      </trkpt>
      <trkpt lat="43.2973258383572101593017578125" lon="-4.96386833488941192626953125">
        <ele>680.79998779296875</ele>
        <time>2018-09-08T14:32:20.000Z</time>
      </trkpt>
      <trkpt lat="43.29741619527339935302734375" lon="-4.9640257470309734344482421875">
        <ele>681.4000244140625</ele>
        <time>2018-09-08T14:32:23.000Z</time>
      </trkpt>
      <trkpt lat="43.297448046505451202392578125" lon="-4.96407126076519489288330078125">
        <ele>681.79998779296875</ele>
        <time>2018-09-08T14:32:24.000Z</time>
      </trkpt>
      <trkpt lat="43.297477550804615020751953125" lon="-4.96411954052746295928955078125">
        <ele>682</ele>
        <time>2018-09-08T14:32:25.000Z</time>
      </trkpt>
      <trkpt lat="43.29757712781429290771484375" lon="-4.9642604403197765350341796875">
        <ele>683</ele>
        <time>2018-09-08T14:32:28.000Z</time>
      </trkpt>
      <trkpt lat="43.297611661255359649658203125" lon="-4.96430494822561740875244140625">
        <ele>683</ele>
        <time>2018-09-08T14:32:29.000Z</time>
      </trkpt>
      <trkpt lat="43.2976466976106166839599609375" lon="-4.9643571674823760986328125">
        <ele>683.20001220703125</ele>
        <time>2018-09-08T14:32:30.000Z</time>
      </trkpt>
      <trkpt lat="43.2976788841187953948974609375" lon="-4.964405111968517303466796875">
        <ele>683.4000244140625</ele>
        <time>2018-09-08T14:32:31.000Z</time>
      </trkpt>
      <trkpt lat="43.29774552024900913238525390625" lon="-4.96449572034180164337158203125">
        <ele>683.79998779296875</ele>
        <time>2018-09-08T14:32:33.000Z</time>
      </trkpt>
      <trkpt lat="43.2977844960987567901611328125" lon="-4.96453478001058101654052734375">
        <ele>683.5999755859375</ele>
        <time>2018-09-08T14:32:34.000Z</time>
      </trkpt>
      <trkpt lat="43.2979165948927402496337890625" lon="-4.96458356268703937530517578125">
        <ele>683.20001220703125</ele>
        <time>2018-09-08T14:32:37.000Z</time>
      </trkpt>
      <trkpt lat="43.298072330653667449951171875" lon="-4.96452874504029750823974609375">
        <ele>682.20001220703125</ele>
        <time>2018-09-08T14:32:40.000Z</time>
      </trkpt>
      <trkpt lat="43.29813159070909023284912109375" lon="-4.9645065329968929290771484375">
        <ele>681.5999755859375</ele>
        <time>2018-09-08T14:32:41.000Z</time>
      </trkpt>
      <trkpt lat="43.29831607639789581298828125" lon="-4.96446856297552585601806640625">
        <ele>680.20001220703125</ele>
        <time>2018-09-08T14:32:44.000Z</time>
      </trkpt>
      <trkpt lat="43.29843685962259769439697265625" lon="-4.96446470730006694793701171875">
        <ele>679.79998779296875</ele>
        <time>2018-09-08T14:32:46.000Z</time>
      </trkpt>
      <trkpt lat="43.29859645105898380279541015625" lon="-4.96455523185431957244873046875">
        <ele>679</ele>
        <time>2018-09-08T14:32:49.000Z</time>
      </trkpt>
      <trkpt lat="43.29864196479320526123046875" lon="-4.96459730900824069976806640625">
        <ele>678.79998779296875</ele>
        <time>2018-09-08T14:32:50.000Z</time>
      </trkpt>
      <trkpt lat="43.2986868917942047119140625" lon="-4.96463687159121036529541015625">
        <ele>678.79998779296875</ele>
        <time>2018-09-08T14:32:51.000Z</time>
      </trkpt>
      <trkpt lat="43.298771381378173828125" lon="-4.96470811776816844940185546875">
        <ele>678.79998779296875</ele>
        <time>2018-09-08T14:32:53.000Z</time>
      </trkpt>
      <trkpt lat="43.29883164726197719573974609375" lon="-4.964781291782855987548828125">
        <ele>678.5999755859375</ele>
        <time>2018-09-08T14:32:55.000Z</time>
      </trkpt>
      <trkpt lat="43.29885193146765232086181640625" lon="-4.96482982300221920013427734375">
        <ele>678.5999755859375</ele>
        <time>2018-09-08T14:32:56.000Z</time>
      </trkpt>
      <trkpt lat="43.29889065586030483245849609375" lon="-4.9649531207978725433349609375">
        <ele>677.79998779296875</ele>
        <time>2018-09-08T14:32:58.000Z</time>
      </trkpt>
      <trkpt lat="43.298907838761806488037109375" lon="-4.96502973139286041259765625">
        <ele>677</ele>
        <time>2018-09-08T14:32:59.000Z</time>
      </trkpt>
      <trkpt lat="43.29892418347299098968505859375" lon="-4.9651130475103855133056640625">
        <ele>676</ele>
        <time>2018-09-08T14:33:00.000Z</time>
      </trkpt>
      <trkpt lat="43.29896709881722927093505859375" lon="-4.9652810208499431610107421875">
        <ele>673.79998779296875</ele>
        <time>2018-09-08T14:33:02.000Z</time>
      </trkpt>
      <trkpt lat="43.29901906661689281463623046875" lon="-4.9654117785394191741943359375">
        <ele>672.20001220703125</ele>
        <time>2018-09-08T14:33:04.000Z</time>
      </trkpt>
      <trkpt lat="43.2990964315831661224365234375" lon="-4.96548528783023357391357421875">
        <ele>670.79998779296875</ele>
        <time>2018-09-08T14:33:06.000Z</time>
      </trkpt>
      <trkpt lat="43.2991348206996917724609375" lon="-4.9654821865260601043701171875">
        <ele>670.20001220703125</ele>
        <time>2018-09-08T14:33:07.000Z</time>
      </trkpt>
      <trkpt lat="43.2991728745400905609130859375" lon="-4.96545712463557720184326171875">
        <ele>669.5999755859375</ele>
        <time>2018-09-08T14:33:08.000Z</time>
      </trkpt>
      <trkpt lat="43.299247808754444122314453125" lon="-4.96537146158516407012939453125">
        <ele>668.4000244140625</ele>
        <time>2018-09-08T14:33:10.000Z</time>
      </trkpt>
      <trkpt lat="43.29932383261620998382568359375" lon="-4.96524757705628871917724609375">
        <ele>667</ele>
        <time>2018-09-08T14:33:12.000Z</time>
      </trkpt>
      <trkpt lat="43.29941435717046260833740234375" lon="-4.9651083536446094512939453125">
        <ele>665.20001220703125</ele>
        <time>2018-09-08T14:33:14.000Z</time>
      </trkpt>
      <trkpt lat="43.2995148561894893646240234375" lon="-4.9649920128285884857177734375">
        <ele>663.5999755859375</ele>
        <time>2018-09-08T14:33:16.000Z</time>
      </trkpt>
      <trkpt lat="43.29964938573539257049560546875" lon="-4.96493007056415081024169921875">
        <ele>661.4000244140625</ele>
        <time>2018-09-08T14:33:18.000Z</time>
      </trkpt>
      <trkpt lat="43.29972364939749240875244140625" lon="-4.9649205990135669708251953125">
        <ele>660.20001220703125</ele>
        <time>2018-09-08T14:33:19.000Z</time>
      </trkpt>
      <trkpt lat="43.2997921295464038848876953125" lon="-4.9649155698716640472412109375">
        <ele>659.20001220703125</ele>
        <time>2018-09-08T14:33:20.000Z</time>
      </trkpt>
      <trkpt lat="43.2998605258762836456298828125" lon="-4.964922778308391571044921875">
        <ele>657.5999755859375</ele>
        <time>2018-09-08T14:33:21.000Z</time>
      </trkpt>
      <trkpt lat="43.29993118532001972198486328125" lon="-4.964931495487689971923828125">
        <ele>657</ele>
        <time>2018-09-08T14:33:22.000Z</time>
      </trkpt>
      <trkpt lat="43.3000053651630878448486328125" lon="-4.9649380333721637725830078125">
        <ele>656.4000244140625</ele>
        <time>2018-09-08T14:33:23.000Z</time>
      </trkpt>
      <trkpt lat="43.300158418715000152587890625" lon="-4.96497902087867259979248046875">
        <ele>654.79998779296875</ele>
        <time>2018-09-08T14:33:25.000Z</time>
      </trkpt>
      <trkpt lat="43.30031591467559337615966796875" lon="-4.9650282226502895355224609375">
        <ele>653.20001220703125</ele>
        <time>2018-09-08T14:33:27.000Z</time>
      </trkpt>
      <trkpt lat="43.3004667051136493682861328125" lon="-4.9650845490396022796630859375">
        <ele>651.5999755859375</ele>
        <time>2018-09-08T14:33:29.000Z</time>
      </trkpt>
      <trkpt lat="43.3005357719957828521728515625" lon="-4.96511229313910007476806640625">
        <ele>650.4000244140625</ele>
        <time>2018-09-08T14:33:30.000Z</time>
      </trkpt>
      <trkpt lat="43.3006635122001171112060546875" lon="-4.96518974192440509796142578125">
        <ele>649</ele>
        <time>2018-09-08T14:33:32.000Z</time>
      </trkpt>
      <trkpt lat="43.30076761543750762939453125" lon="-4.9653212539851665496826171875">
        <ele>647.4000244140625</ele>
        <time>2018-09-08T14:33:34.000Z</time>
      </trkpt>
      <trkpt lat="43.3008207567036151885986328125" lon="-4.96539727784693241119384765625">
        <ele>646.4000244140625</ele>
        <time>2018-09-08T14:33:35.000Z</time>
      </trkpt>
      <trkpt lat="43.3008784241974353790283203125" lon="-4.96547229588031768798828125">
        <ele>645.4000244140625</ele>
        <time>2018-09-08T14:33:36.000Z</time>
      </trkpt>
      <trkpt lat="43.3009367622435092926025390625" lon="-4.9655465595424175262451171875">
        <ele>644</ele>
        <time>2018-09-08T14:33:37.000Z</time>
      </trkpt>
      <trkpt lat="43.3009909093379974365234375" lon="-4.96561520732939243316650390625">
        <ele>642.79998779296875</ele>
        <time>2018-09-08T14:33:38.000Z</time>
      </trkpt>
      <trkpt lat="43.30104413442313671112060546875" lon="-4.96567723341286182403564453125">
        <ele>641.5999755859375</ele>
        <time>2018-09-08T14:33:39.000Z</time>
      </trkpt>
      <trkpt lat="43.30110113136470317840576171875" lon="-4.96573037467896938323974609375">
        <ele>640.5999755859375</ele>
        <time>2018-09-08T14:33:40.000Z</time>
      </trkpt>
      <trkpt lat="43.30121009610593318939208984375" lon="-4.9658198095858097076416015625">
        <ele>638.79998779296875</ele>
        <time>2018-09-08T14:33:42.000Z</time>
      </trkpt>
      <trkpt lat="43.30132308416068553924560546875" lon="-4.96592181734740734100341796875">
        <ele>636.5999755859375</ele>
        <time>2018-09-08T14:33:44.000Z</time>
      </trkpt>
      <trkpt lat="43.30138041637837886810302734375" lon="-4.965968169271945953369140625">
        <ele>634.4000244140625</ele>
        <time>2018-09-08T14:33:45.000Z</time>
      </trkpt>
      <trkpt lat="43.30149449408054351806640625" lon="-4.96603849343955516815185546875">
        <ele>632.5999755859375</ele>
        <time>2018-09-08T14:33:47.000Z</time>
      </trkpt>
      <trkpt lat="43.30155610106885433197021484375" lon="-4.96606145985424518585205078125">
        <ele>631.4000244140625</ele>
        <time>2018-09-08T14:33:48.000Z</time>
      </trkpt>
      <trkpt lat="43.3016130141913890838623046875" lon="-4.9660739488899707794189453125">
        <ele>630.20001220703125</ele>
        <time>2018-09-08T14:33:49.000Z</time>
      </trkpt>
      <trkpt lat="43.30166690982878208160400390625" lon="-4.9660776369273662567138671875">
        <ele>629.20001220703125</ele>
        <time>2018-09-08T14:33:50.000Z</time>
      </trkpt>
      <trkpt lat="43.3017488010227680206298828125" lon="-4.9661044590175151824951171875">
        <ele>627.4000244140625</ele>
        <time>2018-09-08T14:33:52.000Z</time>
      </trkpt>
      <trkpt lat="43.30177034251391887664794921875" lon="-4.96614661999046802520751953125">
        <ele>626.79998779296875</ele>
        <time>2018-09-08T14:33:53.000Z</time>
      </trkpt>
      <trkpt lat="43.3017633855342864990234375" lon="-4.96620311401784420013427734375">
        <ele>626</ele>
        <time>2018-09-08T14:33:54.000Z</time>
      </trkpt>
      <trkpt lat="43.3017236553132534027099609375" lon="-4.96625407598912715911865234375">
        <ele>625</ele>
        <time>2018-09-08T14:33:55.000Z</time>
      </trkpt>
      <trkpt lat="43.301600106060504913330078125" lon="-4.96631291694939136505126953125">
        <ele>623.20001220703125</ele>
        <time>2018-09-08T14:33:57.000Z</time>
      </trkpt>
      <trkpt lat="43.3015288598835468292236328125" lon="-4.96633437462151050567626953125">
        <ele>622.4000244140625</ele>
        <time>2018-09-08T14:33:58.000Z</time>
      </trkpt>
      <trkpt lat="43.30145736224949359893798828125" lon="-4.9663539044559001922607421875">
        <ele>621.4000244140625</ele>
        <time>2018-09-08T14:33:59.000Z</time>
      </trkpt>
      <trkpt lat="43.301387540996074676513671875" lon="-4.96636354364454746246337890625">
        <ele>621</ele>
        <time>2018-09-08T14:34:00.000Z</time>
      </trkpt>
      <trkpt lat="43.30132124014198780059814453125" lon="-4.96636815369129180908203125">
        <ele>620.20001220703125</ele>
        <time>2018-09-08T14:34:01.000Z</time>
      </trkpt>
      <trkpt lat="43.30118780024349689483642578125" lon="-4.966377876698970794677734375">
        <ele>619</ele>
        <time>2018-09-08T14:34:03.000Z</time>
      </trkpt>
      <trkpt lat="43.3010698668658733367919921875" lon="-4.9663938023149967193603515625">
        <ele>617.4000244140625</ele>
        <time>2018-09-08T14:34:05.000Z</time>
      </trkpt>
      <trkpt lat="43.30097590573132038116455078125" lon="-4.96642741374671459197998046875">
        <ele>615.79998779296875</ele>
        <time>2018-09-08T14:34:07.000Z</time>
      </trkpt>
      <trkpt lat="43.30095469951629638671875" lon="-4.9665346182882785797119140625">
        <ele>613.79998779296875</ele>
        <time>2018-09-08T14:34:09.000Z</time>
      </trkpt>
      <trkpt lat="43.30097070895135402679443359375" lon="-4.96659639291465282440185546875">
        <ele>612.79998779296875</ele>
        <time>2018-09-08T14:34:10.000Z</time>
      </trkpt>
      <trkpt lat="43.3010101877152919769287109375" lon="-4.966662190854549407958984375">
        <ele>611.5999755859375</ele>
        <time>2018-09-08T14:34:11.000Z</time>
      </trkpt>
      <trkpt lat="43.30106106586754322052001953125" lon="-4.9667186848819255828857421875">
        <ele>610.4000244140625</ele>
        <time>2018-09-08T14:34:12.000Z</time>
      </trkpt>
      <trkpt lat="43.30110934562981128692626953125" lon="-4.966769479215145111083984375">
        <ele>609.4000244140625</ele>
        <time>2018-09-08T14:34:13.000Z</time>
      </trkpt>
      <trkpt lat="43.30120079219341278076171875" lon="-4.96688137762248516082763671875">
        <ele>607.4000244140625</ele>
        <time>2018-09-08T14:34:15.000Z</time>
      </trkpt>
      <trkpt lat="43.30131017602980136871337890625" lon="-4.96694021858274936676025390625">
        <ele>605.79998779296875</ele>
        <time>2018-09-08T14:34:17.000Z</time>
      </trkpt>
      <trkpt lat="43.301453255116939544677734375" lon="-4.966986738145351409912109375">
        <ele>604.20001220703125</ele>
        <time>2018-09-08T14:34:19.000Z</time>
      </trkpt>
      <trkpt lat="43.30152005888521671295166015625" lon="-4.96702730655670166015625">
        <ele>603.20001220703125</ele>
        <time>2018-09-08T14:34:20.000Z</time>
      </trkpt>
      <trkpt lat="43.30158258788287639617919921875" lon="-4.96707214973866939544677734375">
        <ele>602</ele>
        <time>2018-09-08T14:34:21.000Z</time>
      </trkpt>
      <trkpt lat="43.301649056375026702880859375" lon="-4.9671149812638759613037109375">
        <ele>600.79998779296875</ele>
        <time>2018-09-08T14:34:22.000Z</time>
      </trkpt>
      <trkpt lat="43.301789201796054840087890625" lon="-4.96719217859208583831787109375">
        <ele>599</ele>
        <time>2018-09-08T14:34:24.000Z</time>
      </trkpt>
      <trkpt lat="43.30186019651591777801513671875" lon="-4.96722570620477199554443359375">
        <ele>598.20001220703125</ele>
        <time>2018-09-08T14:34:25.000Z</time>
      </trkpt>
      <trkpt lat="43.30193345434963703155517578125" lon="-4.9672547914087772369384765625">
        <ele>597</ele>
        <time>2018-09-08T14:34:26.000Z</time>
      </trkpt>
      <trkpt lat="43.30207410268485546112060546875" lon="-4.9672973714768886566162109375">
        <ele>595</ele>
        <time>2018-09-08T14:34:28.000Z</time>
      </trkpt>
      <trkpt lat="43.30213327892124652862548828125" lon="-4.9673040769994258880615234375">
        <ele>594</ele>
        <time>2018-09-08T14:34:29.000Z</time>
      </trkpt>
      <trkpt lat="43.30218809656798839569091796875" lon="-4.9672956950962543487548828125">
        <ele>593.20001220703125</ele>
        <time>2018-09-08T14:34:30.000Z</time>
      </trkpt>
      <trkpt lat="43.302290439605712890625" lon="-4.96719687245786190032958984375">
        <ele>591.4000244140625</ele>
        <time>2018-09-08T14:34:32.000Z</time>
      </trkpt>
      <trkpt lat="43.302333019673824310302734375" lon="-4.96711422689259052276611328125">
        <ele>589.79998779296875</ele>
        <time>2018-09-08T14:34:33.000Z</time>
      </trkpt>
      <trkpt lat="43.3024126477539539337158203125" lon="-4.966927058994770050048828125">
        <ele>587.79998779296875</ele>
        <time>2018-09-08T14:34:35.000Z</time>
      </trkpt>
      <trkpt lat="43.30244340933859348297119140625" lon="-4.96683326549828052520751953125">
        <ele>586.79998779296875</ele>
        <time>2018-09-08T14:34:36.000Z</time>
      </trkpt>
      <trkpt lat="43.30246721394360065460205078125" lon="-4.96674106456339359283447265625">
        <ele>585.79998779296875</ele>
        <time>2018-09-08T14:34:37.000Z</time>
      </trkpt>
      <trkpt lat="43.302533514797687530517578125" lon="-4.9665550701320171356201171875">
        <ele>583.79998779296875</ele>
        <time>2018-09-08T14:34:39.000Z</time>
      </trkpt>
      <trkpt lat="43.3026362769305706024169921875" lon="-4.9663927964866161346435546875">
        <ele>581.79998779296875</ele>
        <time>2018-09-08T14:34:41.000Z</time>
      </trkpt>
      <trkpt lat="43.30268665216863155364990234375" lon="-4.96630805544555187225341796875">
        <ele>580.5999755859375</ele>
        <time>2018-09-08T14:34:42.000Z</time>
      </trkpt>
      <trkpt lat="43.30273241735994815826416015625" lon="-4.96622205711901187896728515625">
        <ele>579.20001220703125</ele>
        <time>2018-09-08T14:34:43.000Z</time>
      </trkpt>
      <trkpt lat="43.3027787692844867706298828125" lon="-4.96613614261150360107421875">
        <ele>577.79998779296875</ele>
        <time>2018-09-08T14:34:44.000Z</time>
      </trkpt>
      <trkpt lat="43.302838616073131561279296875" lon="-4.966053329408168792724609375">
        <ele>576.4000244140625</ele>
        <time>2018-09-08T14:34:45.000Z</time>
      </trkpt>
      <trkpt lat="43.30290525220334529876708984375" lon="-4.96598468162119388580322265625">
        <ele>575.20001220703125</ele>
        <time>2018-09-08T14:34:46.000Z</time>
      </trkpt>
      <trkpt lat="43.30296610482037067413330078125" lon="-4.96592718176543712615966796875">
        <ele>574</ele>
        <time>2018-09-08T14:34:47.000Z</time>
      </trkpt>
      <trkpt lat="43.30301958136260509490966796875" lon="-4.96586197055876255035400390625">
        <ele>573.20001220703125</ele>
        <time>2018-09-08T14:34:48.000Z</time>
      </trkpt>
      <trkpt lat="43.30307004041969776153564453125" lon="-4.96580044738948345184326171875">
        <ele>572.20001220703125</ele>
        <time>2018-09-08T14:34:49.000Z</time>
      </trkpt>
      <trkpt lat="43.3031217567622661590576171875" lon="-4.96575719676911830902099609375">
        <ele>571</ele>
        <time>2018-09-08T14:34:50.000Z</time>
      </trkpt>
      <trkpt lat="43.30323583446443080902099609375" lon="-4.96574898250401020050048828125">
        <ele>569.4000244140625</ele>
        <time>2018-09-08T14:34:52.000Z</time>
      </trkpt>
      <trkpt lat="43.30328914336860179901123046875" lon="-4.9657742120325565338134765625">
        <ele>568.5999755859375</ele>
        <time>2018-09-08T14:34:53.000Z</time>
      </trkpt>
      <trkpt lat="43.3033370040357112884521484375" lon="-4.96579843573272228240966796875">
        <ele>568</ele>
        <time>2018-09-08T14:34:54.000Z</time>
      </trkpt>
      <trkpt lat="43.303440771996974945068359375" lon="-4.9658617191016674041748046875">
        <ele>567</ele>
        <time>2018-09-08T14:34:57.000Z</time>
      </trkpt>
      <trkpt lat="43.303468264639377593994140625" lon="-4.96587672270834445953369140625">
        <ele>567</ele>
        <time>2018-09-08T14:34:58.000Z</time>
      </trkpt>
      <trkpt lat="43.3034875430166721343994140625" lon="-4.96590237133204936981201171875">
        <ele>566.79998779296875</ele>
        <time>2018-09-08T14:34:59.000Z</time>
      </trkpt>
      <trkpt lat="43.3035391755402088165283203125" lon="-4.9659260921180248260498046875">
        <ele>566.5999755859375</ele>
        <time>2018-09-08T14:35:01.000Z</time>
      </trkpt>
      <trkpt lat="43.3036377467215061187744140625" lon="-4.96605240739881992340087890625">
        <ele>566</ele>
        <time>2018-09-08T14:35:05.000Z</time>
      </trkpt>
      <trkpt lat="43.3036736212670803070068359375" lon="-4.96609113179147243499755859375">
        <ele>565.79998779296875</ele>
        <time>2018-09-08T14:35:06.000Z</time>
      </trkpt>
      <trkpt lat="43.3037131838500499725341796875" lon="-4.96613589115440845489501953125">
        <ele>565.5999755859375</ele>
        <time>2018-09-08T14:35:07.000Z</time>
      </trkpt>
      <trkpt lat="43.303792476654052734375" lon="-4.96622239239513874053955078125">
        <ele>564.5999755859375</ele>
        <time>2018-09-08T14:35:09.000Z</time>
      </trkpt>
      <trkpt lat="43.30383379943668842315673828125" lon="-4.96626178734004497528076171875">
        <ele>564.20001220703125</ele>
        <time>2018-09-08T14:35:10.000Z</time>
      </trkpt>
      <trkpt lat="43.303882665932178497314453125" lon="-4.96628425084054470062255859375">
        <ele>563.79998779296875</ele>
        <time>2018-09-08T14:35:11.000Z</time>
      </trkpt>
      <trkpt lat="43.30393438227474689483642578125" lon="-4.966273941099643707275390625">
        <ele>563.20001220703125</ele>
        <time>2018-09-08T14:35:12.000Z</time>
      </trkpt>
      <trkpt lat="43.30398886464536190032958984375" lon="-4.966245107352733612060546875">
        <ele>562.4000244140625</ele>
        <time>2018-09-08T14:35:13.000Z</time>
      </trkpt>
      <trkpt lat="43.3040481247007846832275390625" lon="-4.9662194587290287017822265625">
        <ele>561.5999755859375</ele>
        <time>2018-09-08T14:35:14.000Z</time>
      </trkpt>
      <trkpt lat="43.30411978997290134429931640625" lon="-4.96622289530932903289794921875">
        <ele>560.5999755859375</ele>
        <time>2018-09-08T14:35:15.000Z</time>
      </trkpt>
      <trkpt lat="43.304197154939174652099609375" lon="-4.96625684201717376708984375">
        <ele>559.20001220703125</ele>
        <time>2018-09-08T14:35:16.000Z</time>
      </trkpt>
      <trkpt lat="43.30426161177456378936767578125" lon="-4.96631626971065998077392578125">
        <ele>558</ele>
        <time>2018-09-08T14:35:17.000Z</time>
      </trkpt>
      <trkpt lat="43.3043116517364978790283203125" lon="-4.96638483367860317230224609375">
        <ele>557</ele>
        <time>2018-09-08T14:35:18.000Z</time>
      </trkpt>
      <trkpt lat="43.30436202697455883026123046875" lon="-4.9664544872939586639404296875">
        <ele>556.79998779296875</ele>
        <time>2018-09-08T14:35:19.000Z</time>
      </trkpt>
      <trkpt lat="43.30453477799892425537109375" lon="-4.9666512943804264068603515625">
        <ele>556</ele>
        <time>2018-09-08T14:35:22.000Z</time>
      </trkpt>
      <trkpt lat="43.30458465032279491424560546875" lon="-4.96672463603317737579345703125">
        <ele>555.5999755859375</ele>
        <time>2018-09-08T14:35:23.000Z</time>
      </trkpt>
      <trkpt lat="43.304626643657684326171875" lon="-4.9668035097420215606689453125">
        <ele>555.5999755859375</ele>
        <time>2018-09-08T14:35:24.000Z</time>
      </trkpt>
      <trkpt lat="43.3046950399875640869140625" lon="-4.96696452610194683074951171875">
        <ele>555.79998779296875</ele>
        <time>2018-09-08T14:35:26.000Z</time>
      </trkpt>
      <trkpt lat="43.3047907613217830657958984375" lon="-4.967194609344005584716796875">
        <ele>555.79998779296875</ele>
        <time>2018-09-08T14:35:29.000Z</time>
      </trkpt>
      <trkpt lat="43.3048115484416484832763671875" lon="-4.9672749079763889312744140625">
        <ele>555.5999755859375</ele>
        <time>2018-09-08T14:35:30.000Z</time>
      </trkpt>
      <trkpt lat="43.3048477582633495330810546875" lon="-4.9674371816217899322509765625">
        <ele>555.79998779296875</ele>
        <time>2018-09-08T14:35:32.000Z</time>
      </trkpt>
      <trkpt lat="43.30485932528972625732421875" lon="-4.9675196595489978790283203125">
        <ele>556</ele>
        <time>2018-09-08T14:35:33.000Z</time>
      </trkpt>
      <trkpt lat="43.30488706938922405242919921875" lon="-4.96767916716635227203369140625">
        <ele>556.20001220703125</ele>
        <time>2018-09-08T14:35:35.000Z</time>
      </trkpt>
      <trkpt lat="43.30498379655182361602783203125" lon="-4.967952668666839599609375">
        <ele>556.20001220703125</ele>
        <time>2018-09-08T14:35:39.000Z</time>
      </trkpt>
      <trkpt lat="43.30510449595749378204345703125" lon="-4.96816397644579410552978515625">
        <ele>554.4000244140625</ele>
        <time>2018-09-08T14:35:42.000Z</time>
      </trkpt>
      <trkpt lat="43.305203653872013092041015625" lon="-4.9683092348277568817138671875">
        <ele>552.4000244140625</ele>
        <time>2018-09-08T14:35:44.000Z</time>
      </trkpt>
      <trkpt lat="43.30525017343461513519287109375" lon="-4.96837310492992401123046875">
        <ele>551</ele>
        <time>2018-09-08T14:35:45.000Z</time>
      </trkpt>
      <trkpt lat="43.30537221394479274749755859375" lon="-4.9685409106314182281494140625">
        <ele>549.79998779296875</ele>
        <time>2018-09-08T14:35:48.000Z</time>
      </trkpt>
      <trkpt lat="43.3054116927087306976318359375" lon="-4.96860687620937824249267578125">
        <ele>549.4000244140625</ele>
        <time>2018-09-08T14:35:49.000Z</time>
      </trkpt>
      <trkpt lat="43.30548771657049655914306640625" lon="-4.9687559902667999267578125">
        <ele>548.4000244140625</ele>
        <time>2018-09-08T14:35:51.000Z</time>
      </trkpt>
      <trkpt lat="43.30556449480354785919189453125" lon="-4.96889823116362094879150390625">
        <ele>547.5999755859375</ele>
        <time>2018-09-08T14:35:53.000Z</time>
      </trkpt>
      <trkpt lat="43.30559701658785343170166015625" lon="-4.9689660407602787017822265625">
        <ele>546.79998779296875</ele>
        <time>2018-09-08T14:35:54.000Z</time>
      </trkpt>
      <trkpt lat="43.3056527562439441680908203125" lon="-4.96908967383205890655517578125">
        <ele>545.79998779296875</ele>
        <time>2018-09-08T14:35:56.000Z</time>
      </trkpt>
      <trkpt lat="43.3057151176035404205322265625" lon="-4.969199560582637786865234375">
        <ele>544.5999755859375</ele>
        <time>2018-09-08T14:35:58.000Z</time>
      </trkpt>
      <trkpt lat="43.30576197244226932525634765625" lon="-4.96924482285976409912109375">
        <ele>544</ele>
        <time>2018-09-08T14:35:59.000Z</time>
      </trkpt>
      <trkpt lat="43.305819220840930938720703125" lon="-4.9692664481699466705322265625">
        <ele>543</ele>
        <time>2018-09-08T14:36:00.000Z</time>
      </trkpt>
      <trkpt lat="43.305940926074981689453125" lon="-4.96927709318697452545166015625">
        <ele>540.5999755859375</ele>
        <time>2018-09-08T14:36:02.000Z</time>
      </trkpt>
      <trkpt lat="43.306000269949436187744140625" lon="-4.9692909233272075653076171875">
        <ele>539.4000244140625</ele>
        <time>2018-09-08T14:36:03.000Z</time>
      </trkpt>
      <trkpt lat="43.30605366267263889312744140625" lon="-4.9693224392831325531005859375">
        <ele>538.20001220703125</ele>
        <time>2018-09-08T14:36:04.000Z</time>
      </trkpt>
      <trkpt lat="43.3060869388282299041748046875" lon="-4.96938505209982395172119140625">
        <ele>537.20001220703125</ele>
        <time>2018-09-08T14:36:05.000Z</time>
      </trkpt>
      <trkpt lat="43.3060936443507671356201171875" lon="-4.969445653259754180908203125">
        <ele>536.5999755859375</ele>
        <time>2018-09-08T14:36:06.000Z</time>
      </trkpt>
      <trkpt lat="43.3060752041637897491455078125" lon="-4.9695148877799510955810546875">
        <ele>536.4000244140625</ele>
        <time>2018-09-08T14:36:07.000Z</time>
      </trkpt>
      <trkpt lat="43.306040503084659576416015625" lon="-4.969624690711498260498046875">
        <ele>537</ele>
        <time>2018-09-08T14:36:09.000Z</time>
      </trkpt>
      <trkpt lat="43.30602767877280712127685546875" lon="-4.96973491273820400238037109375">
        <ele>537.79998779296875</ele>
        <time>2018-09-08T14:36:11.000Z</time>
      </trkpt>
      <trkpt lat="43.30602415837347507476806640625" lon="-4.96979425661265850067138671875">
        <ele>538.20001220703125</ele>
        <time>2018-09-08T14:36:12.000Z</time>
      </trkpt>
      <trkpt lat="43.30602742731571197509765625" lon="-4.9699182249605655670166015625">
        <ele>538.5999755859375</ele>
        <time>2018-09-08T14:36:14.000Z</time>
      </trkpt>
      <trkpt lat="43.30604108981788158416748046875" lon="-4.96998704038560390472412109375">
        <ele>538.79998779296875</ele>
        <time>2018-09-08T14:36:15.000Z</time>
      </trkpt>
      <trkpt lat="43.3060631342232227325439453125" lon="-4.9700553528964519500732421875">
        <ele>538.5999755859375</ele>
        <time>2018-09-08T14:36:16.000Z</time>
      </trkpt>
      <trkpt lat="43.30612264573574066162109375" lon="-4.970177896320819854736328125">
        <ele>538.20001220703125</ele>
        <time>2018-09-08T14:36:18.000Z</time>
      </trkpt>
      <trkpt lat="43.30620185472071170806884765625" lon="-4.97029633261263370513916015625">
        <ele>537.79998779296875</ele>
        <time>2018-09-08T14:36:20.000Z</time>
      </trkpt>
      <trkpt lat="43.3062455244362354278564453125" lon="-4.97035802341997623443603515625">
        <ele>537.5999755859375</ele>
        <time>2018-09-08T14:36:21.000Z</time>
      </trkpt>
      <trkpt lat="43.306286595761775970458984375" lon="-4.9704295210540294647216796875">
        <ele>537.4000244140625</ele>
        <time>2018-09-08T14:36:22.000Z</time>
      </trkpt>
      <trkpt lat="43.30632842145860195159912109375" lon="-4.9705073051154613494873046875">
        <ele>536.79998779296875</ele>
        <time>2018-09-08T14:36:23.000Z</time>
      </trkpt>
      <trkpt lat="43.3063633739948272705078125" lon="-4.9705931358039379119873046875">
        <ele>536.4000244140625</ele>
        <time>2018-09-08T14:36:24.000Z</time>
      </trkpt>
      <trkpt lat="43.306391872465610504150390625" lon="-4.97068357653915882110595703125">
        <ele>535.79998779296875</ele>
        <time>2018-09-08T14:36:25.000Z</time>
      </trkpt>
      <trkpt lat="43.30641567707061767578125" lon="-4.97077167034149169921875">
        <ele>535.20001220703125</ele>
        <time>2018-09-08T14:36:26.000Z</time>
      </trkpt>
      <trkpt lat="43.30649639479815959930419921875" lon="-4.9709894321858882904052734375">
        <ele>534.20001220703125</ele>
        <time>2018-09-08T14:36:29.000Z</time>
      </trkpt>
      <trkpt lat="43.306521959602832794189453125" lon="-4.9710564874112606048583984375">
        <ele>533.79998779296875</ele>
        <time>2018-09-08T14:36:30.000Z</time>
      </trkpt>
      <trkpt lat="43.3065699040889739990234375" lon="-4.97120023705065250396728515625">
        <ele>532.79998779296875</ele>
        <time>2018-09-08T14:36:32.000Z</time>
      </trkpt>
      <trkpt lat="43.30659739673137664794921875" lon="-4.9712636880576610565185546875">
        <ele>531.20001220703125</ele>
        <time>2018-09-08T14:36:33.000Z</time>
      </trkpt>
      <trkpt lat="43.3066294156014919281005859375" lon="-4.9713307432830333709716796875">
        <ele>530</ele>
        <time>2018-09-08T14:36:34.000Z</time>
      </trkpt>
      <trkpt lat="43.30666352994740009307861328125" lon="-4.971390925347805023193359375">
        <ele>529</ele>
        <time>2018-09-08T14:36:35.000Z</time>
      </trkpt>
      <trkpt lat="43.306702338159084320068359375" lon="-4.97144968248903751373291015625">
        <ele>528.20001220703125</ele>
        <time>2018-09-08T14:36:36.000Z</time>
      </trkpt>
      <trkpt lat="43.306746594607830047607421875" lon="-4.97150282375514507293701171875">
        <ele>527.4000244140625</ele>
        <time>2018-09-08T14:36:37.000Z</time>
      </trkpt>
      <trkpt lat="43.3068007417023181915283203125" lon="-4.97154439799487590789794921875">
        <ele>526.20001220703125</ele>
        <time>2018-09-08T14:36:38.000Z</time>
      </trkpt>
      <trkpt lat="43.3068624325096607208251953125" lon="-4.97155495919287204742431640625">
        <ele>524.79998779296875</ele>
        <time>2018-09-08T14:36:39.000Z</time>
      </trkpt>
      <trkpt lat="43.3069234527647495269775390625" lon="-4.97155412100255489349365234375">
        <ele>523.5999755859375</ele>
        <time>2018-09-08T14:36:40.000Z</time>
      </trkpt>
      <trkpt lat="43.3069864846765995025634765625" lon="-4.97154791839420795440673828125">
        <ele>522.4000244140625</ele>
        <time>2018-09-08T14:36:41.000Z</time>
      </trkpt>
      <trkpt lat="43.30704859457910060882568359375" lon="-4.97153811156749725341796875">
        <ele>521.4000244140625</ele>
        <time>2018-09-08T14:36:42.000Z</time>
      </trkpt>
      <trkpt lat="43.307110704481601715087890625" lon="-4.97153668664395809173583984375">
        <ele>520.4000244140625</ele>
        <time>2018-09-08T14:36:43.000Z</time>
      </trkpt>
      <trkpt lat="43.30716996453702449798583984375" lon="-4.97155487537384033203125">
        <ele>519</ele>
        <time>2018-09-08T14:36:44.000Z</time>
      </trkpt>
      <trkpt lat="43.3072270452976226806640625" lon="-4.97159485705196857452392578125">
        <ele>517.79998779296875</ele>
        <time>2018-09-08T14:36:45.000Z</time>
      </trkpt>
      <trkpt lat="43.30727926455438137054443359375" lon="-4.9716495908796787261962890625">
        <ele>516.5999755859375</ele>
        <time>2018-09-08T14:36:46.000Z</time>
      </trkpt>
      <trkpt lat="43.3073730580508708953857421875" lon="-4.97177657671272754669189453125">
        <ele>515</ele>
        <time>2018-09-08T14:36:48.000Z</time>
      </trkpt>
      <trkpt lat="43.30742024816572666168212890625" lon="-4.97184790670871734619140625">
        <ele>514.20001220703125</ele>
        <time>2018-09-08T14:36:49.000Z</time>
      </trkpt>
      <trkpt lat="43.307473473250865936279296875" lon="-4.9719221703708171844482421875">
        <ele>513.4000244140625</ele>
        <time>2018-09-08T14:36:50.000Z</time>
      </trkpt>
      <trkpt lat="43.30759291537106037139892578125" lon="-4.9720712006092071533203125">
        <ele>511.79998779296875</ele>
        <time>2018-09-08T14:36:52.000Z</time>
      </trkpt>
      <trkpt lat="43.30771721899509429931640625" lon="-4.97220204211771488189697265625">
        <ele>510.399993896484375</ele>
        <time>2018-09-08T14:36:54.000Z</time>
      </trkpt>
      <trkpt lat="43.30778050236403942108154296875" lon="-4.972268007695674896240234375">
        <ele>509.600006103515625</ele>
        <time>2018-09-08T14:36:55.000Z</time>
      </trkpt>
      <trkpt lat="43.30784822814166545867919921875" lon="-4.97234051115810871124267578125">
        <ele>508.600006103515625</ele>
        <time>2018-09-08T14:36:56.000Z</time>
      </trkpt>
      <trkpt lat="43.30791997723281383514404296875" lon="-4.9724160321056842803955078125">
        <ele>506.79998779296875</ele>
        <time>2018-09-08T14:36:57.000Z</time>
      </trkpt>
      <trkpt lat="43.30800094641745090484619140625" lon="-4.97249566018581390380859375">
        <ele>505.600006103515625</ele>
        <time>2018-09-08T14:36:58.000Z</time>
      </trkpt>
      <trkpt lat="43.30808728002011775970458984375" lon="-4.97258878313004970550537109375">
        <ele>503.79998779296875</ele>
        <time>2018-09-08T14:36:59.000Z</time>
      </trkpt>
      <trkpt lat="43.3081738650798797607421875" lon="-4.97269120998680591583251953125">
        <ele>502</ele>
        <time>2018-09-08T14:37:00.000Z</time>
      </trkpt>
      <trkpt lat="43.3082575164735317230224609375" lon="-4.972794391214847564697265625">
        <ele>500.399993896484375</ele>
        <time>2018-09-08T14:37:01.000Z</time>
      </trkpt>
      <trkpt lat="43.30842372961342334747314453125" lon="-4.9729823134839534759521484375">
        <ele>499.20001220703125</ele>
        <time>2018-09-08T14:37:03.000Z</time>
      </trkpt>
      <trkpt lat="43.30849346704781055450439453125" lon="-4.97305892407894134521484375">
        <ele>498.79998779296875</ele>
        <time>2018-09-08T14:37:04.000Z</time>
      </trkpt>
      <trkpt lat="43.308557756245136260986328125" lon="-4.97312941588461399078369140625">
        <ele>498.600006103515625</ele>
        <time>2018-09-08T14:37:05.000Z</time>
      </trkpt>
      <trkpt lat="43.3086776174604892730712890625" lon="-4.97326503507792949676513671875">
        <ele>498.20001220703125</ele>
        <time>2018-09-08T14:37:07.000Z</time>
      </trkpt>
      <trkpt lat="43.3087398111820220947265625" lon="-4.97333359904587268829345703125">
        <ele>498</ele>
        <time>2018-09-08T14:37:08.000Z</time>
      </trkpt>
      <trkpt lat="43.30880812369287014007568359375" lon="-4.97340065427124500274658203125">
        <ele>497.600006103515625</ele>
        <time>2018-09-08T14:37:09.000Z</time>
      </trkpt>
      <trkpt lat="43.30895614810287952423095703125" lon="-4.97354297898709774017333984375">
        <ele>496.600006103515625</ele>
        <time>2018-09-08T14:37:11.000Z</time>
      </trkpt>
      <trkpt lat="43.30904264934360980987548828125" lon="-4.97360819019377231597900390625">
        <ele>495.79998779296875</ele>
        <time>2018-09-08T14:37:12.000Z</time>
      </trkpt>
      <trkpt lat="43.30913032405078411102294921875" lon="-4.97365697287023067474365234375">
        <ele>494.79998779296875</ele>
        <time>2018-09-08T14:37:13.000Z</time>
      </trkpt>
      <trkpt lat="43.30921330489218235015869140625" lon="-4.9736994691193103790283203125">
        <ele>493.79998779296875</ele>
        <time>2018-09-08T14:37:14.000Z</time>
      </trkpt>
      <trkpt lat="43.309283964335918426513671875" lon="-4.9737232737243175506591796875">
        <ele>493.20001220703125</ele>
        <time>2018-09-08T14:37:15.000Z</time>
      </trkpt>
      <trkpt lat="43.3093478344380855560302734375" lon="-4.973738193511962890625">
        <ele>492.79998779296875</ele>
        <time>2018-09-08T14:37:16.000Z</time>
      </trkpt>
      <trkpt lat="43.30940558575093746185302734375" lon="-4.97375185601413249969482421875">
        <ele>492.399993896484375</ele>
        <time>2018-09-08T14:37:17.000Z</time>
      </trkpt>
      <trkpt lat="43.30952963791787624359130859375" lon="-4.97378152795135974884033203125">
        <ele>491.600006103515625</ele>
        <time>2018-09-08T14:37:19.000Z</time>
      </trkpt>
      <trkpt lat="43.3096757344901561737060546875" lon="-4.9737806059420108795166015625">
        <ele>488.600006103515625</ele>
        <time>2018-09-08T14:37:21.000Z</time>
      </trkpt>
      <trkpt lat="43.309755362570285797119140625" lon="-4.9737728945910930633544921875">
        <ele>487</ele>
        <time>2018-09-08T14:37:22.000Z</time>
      </trkpt>
      <trkpt lat="43.30983993597328662872314453125" lon="-4.9737618304789066314697265625">
        <ele>485.20001220703125</ele>
        <time>2018-09-08T14:37:23.000Z</time>
      </trkpt>
      <trkpt lat="43.3099221624433994293212890625" lon="-4.97374900616705417633056640625">
        <ele>483.79998779296875</ele>
        <time>2018-09-08T14:37:24.000Z</time>
      </trkpt>
      <trkpt lat="43.31000246107578277587890625" lon="-4.97372872196137905120849609375">
        <ele>482.600006103515625</ele>
        <time>2018-09-08T14:37:25.000Z</time>
      </trkpt>
      <trkpt lat="43.31008552573621273040771484375" lon="-4.97371061705052852630615234375">
        <ele>481.600006103515625</ele>
        <time>2018-09-08T14:37:26.000Z</time>
      </trkpt>
      <trkpt lat="43.31016615964472293853759765625" lon="-4.97369997203350067138671875">
        <ele>480.399993896484375</ele>
        <time>2018-09-08T14:37:27.000Z</time>
      </trkpt>
      <trkpt lat="43.31023874692618846893310546875" lon="-4.9736907519400119781494140625">
        <ele>479.20001220703125</ele>
        <time>2018-09-08T14:37:28.000Z</time>
      </trkpt>
      <trkpt lat="43.31030915491282939910888671875" lon="-4.973682872951030731201171875">
        <ele>478</ele>
        <time>2018-09-08T14:37:29.000Z</time>
      </trkpt>
      <trkpt lat="43.310376964509487152099609375" lon="-4.973692595958709716796875">
        <ele>477</ele>
        <time>2018-09-08T14:37:30.000Z</time>
      </trkpt>
      <trkpt lat="43.31044628284871578216552734375" lon="-4.97372545301914215087890625">
        <ele>475.79998779296875</ele>
        <time>2018-09-08T14:37:31.000Z</time>
      </trkpt>
      <trkpt lat="43.3105283416807651519775390625" lon="-4.97384925372898578643798828125">
        <ele>474.600006103515625</ele>
        <time>2018-09-08T14:37:33.000Z</time>
      </trkpt>
      <trkpt lat="43.310591876506805419921875" lon="-4.97409400530159473419189453125">
        <ele>474</ele>
        <time>2018-09-08T14:37:36.000Z</time>
      </trkpt>
      <trkpt lat="43.3106114901602268218994140625" lon="-4.9741740524768829345703125">
        <ele>474</ele>
        <time>2018-09-08T14:37:37.000Z</time>
      </trkpt>
      <trkpt lat="43.31065331585705280303955078125" lon="-4.97432735748589038848876953125">
        <ele>473.79998779296875</ele>
        <time>2018-09-08T14:37:39.000Z</time>
      </trkpt>
      <trkpt lat="43.31069354899227619171142578125" lon="-4.974554590880870819091796875">
        <ele>474.399993896484375</ele>
        <time>2018-09-08T14:37:42.000Z</time>
      </trkpt>
      <trkpt lat="43.3107244782149791717529296875" lon="-4.9747968278825283050537109375">
        <ele>472.79998779296875</ele>
        <time>2018-09-08T14:37:45.000Z</time>
      </trkpt>
      <trkpt lat="43.3107174374163150787353515625" lon="-4.9750352092087268829345703125">
        <ele>471.399993896484375</ele>
        <time>2018-09-08T14:37:48.000Z</time>
      </trkpt>
      <trkpt lat="43.3106817305088043212890625" lon="-4.97521810233592987060546875">
        <ele>470</ele>
        <time>2018-09-08T14:37:50.000Z</time>
      </trkpt>
      <trkpt lat="43.31066605634987354278564453125" lon="-4.97536889277398586273193359375">
        <ele>468.399993896484375</ele>
        <time>2018-09-08T14:37:52.000Z</time>
      </trkpt>
      <trkpt lat="43.3106738515198230743408203125" lon="-4.97557408176362514495849609375">
        <ele>467</ele>
        <time>2018-09-08T14:37:55.000Z</time>
      </trkpt>
      <trkpt lat="43.3107006736099720001220703125" lon="-4.97571707703173160552978515625">
        <ele>465.20001220703125</ele>
        <time>2018-09-08T14:37:57.000Z</time>
      </trkpt>
      <trkpt lat="43.310729004442691802978515625" lon="-4.97579268179833889007568359375">
        <ele>463.79998779296875</ele>
        <time>2018-09-08T14:37:58.000Z</time>
      </trkpt>
      <trkpt lat="43.31076345406472682952880859375" lon="-4.97587365098297595977783203125">
        <ele>462.79998779296875</ele>
        <time>2018-09-08T14:37:59.000Z</time>
      </trkpt>
      <trkpt lat="43.31080519594252109527587890625" lon="-4.97595026157796382904052734375">
        <ele>461.399993896484375</ele>
        <time>2018-09-08T14:38:00.000Z</time>
      </trkpt>
      <trkpt lat="43.31085163168609142303466796875" lon="-4.97602217830717563629150390625">
        <ele>460.20001220703125</ele>
        <time>2018-09-08T14:38:01.000Z</time>
      </trkpt>
      <trkpt lat="43.31090636551380157470703125" lon="-4.97609158046543598175048828125">
        <ele>458.399993896484375</ele>
        <time>2018-09-08T14:38:02.000Z</time>
      </trkpt>
      <trkpt lat="43.3109685592353343963623046875" lon="-4.97616165317595005035400390625">
        <ele>456.79998779296875</ele>
        <time>2018-09-08T14:38:03.000Z</time>
      </trkpt>
      <trkpt lat="43.31104139797389507293701171875" lon="-4.97622434981167316436767578125">
        <ele>455.20001220703125</ele>
        <time>2018-09-08T14:38:04.000Z</time>
      </trkpt>
      <trkpt lat="43.31112270243465900421142578125" lon="-4.976277910172939300537109375">
        <ele>453.79998779296875</ele>
        <time>2018-09-08T14:38:05.000Z</time>
      </trkpt>
      <trkpt lat="43.31120518036186695098876953125" lon="-4.97632996179163455963134765625">
        <ele>452.20001220703125</ele>
        <time>2018-09-08T14:38:06.000Z</time>
      </trkpt>
      <trkpt lat="43.31128656864166259765625" lon="-4.97639165259897708892822265625">
        <ele>450.600006103515625</ele>
        <time>2018-09-08T14:38:07.000Z</time>
      </trkpt>
      <trkpt lat="43.3113651908934116363525390625" lon="-4.97644915245473384857177734375">
        <ele>449</ele>
        <time>2018-09-08T14:38:08.000Z</time>
      </trkpt>
      <trkpt lat="43.3114352636039257049560546875" lon="-4.9765070714056491851806640625">
        <ele>446.79998779296875</ele>
        <time>2018-09-08T14:38:09.000Z</time>
      </trkpt>
      <trkpt lat="43.31150181591510772705078125" lon="-4.97657152824103832244873046875">
        <ele>445.79998779296875</ele>
        <time>2018-09-08T14:38:10.000Z</time>
      </trkpt>
      <trkpt lat="43.3115616627037525177001953125" lon="-4.976655431091785430908203125">
        <ele>444.79998779296875</ele>
        <time>2018-09-08T14:38:11.000Z</time>
      </trkpt>
      <trkpt lat="43.31162125803530216217041015625" lon="-4.9767471291124820709228515625">
        <ele>443.600006103515625</ele>
        <time>2018-09-08T14:38:12.000Z</time>
      </trkpt>
      <trkpt lat="43.3116857148706912994384765625" lon="-4.9768160283565521240234375">
        <ele>442.399993896484375</ele>
        <time>2018-09-08T14:38:13.000Z</time>
      </trkpt>
      <trkpt lat="43.31182225607335567474365234375" lon="-4.97692608274519443511962890625">
        <ele>441</ele>
        <time>2018-09-08T14:38:15.000Z</time>
      </trkpt>
      <trkpt lat="43.3118915744125843048095703125" lon="-4.9769724346697330474853515625">
        <ele>439.79998779296875</ele>
        <time>2018-09-08T14:38:16.000Z</time>
      </trkpt>
      <trkpt lat="43.31196508370339870452880859375" lon="-4.97700713574886322021484375">
        <ele>438.79998779296875</ele>
        <time>2018-09-08T14:38:17.000Z</time>
      </trkpt>
      <trkpt lat="43.31203716807067394256591796875" lon="-4.977031610906124114990234375">
        <ele>437.79998779296875</ele>
        <time>2018-09-08T14:38:18.000Z</time>
      </trkpt>
      <trkpt lat="43.3121081627905368804931640625" lon="-4.97705013491213321685791015625">
        <ele>436.600006103515625</ele>
        <time>2018-09-08T14:38:19.000Z</time>
      </trkpt>
      <trkpt lat="43.31217647530138492584228515625" lon="-4.9770894460380077362060546875">
        <ele>435.399993896484375</ele>
        <time>2018-09-08T14:38:20.000Z</time>
      </trkpt>
      <trkpt lat="43.312235735356807708740234375" lon="-4.97715440578758716583251953125">
        <ele>434.399993896484375</ele>
        <time>2018-09-08T14:38:21.000Z</time>
      </trkpt>
      <trkpt lat="43.312291391193866729736328125" lon="-4.97722414322197437286376953125">
        <ele>433.20001220703125</ele>
        <time>2018-09-08T14:38:22.000Z</time>
      </trkpt>
      <trkpt lat="43.31237529404461383819580078125" lon="-4.97739203274250030517578125">
        <ele>431.20001220703125</ele>
        <time>2018-09-08T14:38:24.000Z</time>
      </trkpt>
      <trkpt lat="43.3123904652893543243408203125" lon="-4.97749839909374713897705078125">
        <ele>430.20001220703125</ele>
        <time>2018-09-08T14:38:25.000Z</time>
      </trkpt>
      <trkpt lat="43.31238870508968830108642578125" lon="-4.9776191823184490203857421875">
        <ele>428.79998779296875</ele>
        <time>2018-09-08T14:38:26.000Z</time>
      </trkpt>
      <trkpt lat="43.3123366534709930419921875" lon="-4.97783971019089221954345703125">
        <ele>427.79998779296875</ele>
        <time>2018-09-08T14:38:28.000Z</time>
      </trkpt>
      <trkpt lat="43.31226968206465244293212890625" lon="-4.97801573015749454498291015625">
        <ele>427.600006103515625</ele>
        <time>2018-09-08T14:38:30.000Z</time>
      </trkpt>
      <trkpt lat="43.3122561872005462646484375" lon="-4.978112876415252685546875">
        <ele>427.79998779296875</ele>
        <time>2018-09-08T14:38:31.000Z</time>
      </trkpt>
      <trkpt lat="43.31224805675446987152099609375" lon="-4.9782109446823596954345703125">
        <ele>428</ele>
        <time>2018-09-08T14:38:32.000Z</time>
      </trkpt>
      <trkpt lat="43.31229382194578647613525390625" lon="-4.97849986888468265533447265625">
        <ele>427</ele>
        <time>2018-09-08T14:38:35.000Z</time>
      </trkpt>
      <trkpt lat="43.31233799457550048828125" lon="-4.97868427075445652008056640625">
        <ele>426.600006103515625</ele>
        <time>2018-09-08T14:38:37.000Z</time>
      </trkpt>
      <trkpt lat="43.3123830892145633697509765625" lon="-4.9788908846676349639892578125">
        <ele>425.399993896484375</ele>
        <time>2018-09-08T14:38:39.000Z</time>
      </trkpt>
      <trkpt lat="43.31240278668701648712158203125" lon="-4.97900010086596012115478515625">
        <ele>425</ele>
        <time>2018-09-08T14:38:40.000Z</time>
      </trkpt>
      <trkpt lat="43.312422819435596466064453125" lon="-4.97910236008465290069580078125">
        <ele>425</ele>
        <time>2018-09-08T14:38:41.000Z</time>
      </trkpt>
      <trkpt lat="43.31243614666163921356201171875" lon="-4.9791882745921611785888671875">
        <ele>425.20001220703125</ele>
        <time>2018-09-08T14:38:42.000Z</time>
      </trkpt>
      <trkpt lat="43.3124707639217376708984375" lon="-4.97936236672103404998779296875">
        <ele>425.79998779296875</ele>
        <time>2018-09-08T14:38:44.000Z</time>
      </trkpt>
      <trkpt lat="43.31248995848000049591064453125" lon="-4.979448616504669189453125">
        <ele>425.79998779296875</ele>
        <time>2018-09-08T14:38:45.000Z</time>
      </trkpt>
      <trkpt lat="43.31257159821689128875732421875" lon="-4.97967735864222049713134765625">
        <ele>426.20001220703125</ele>
        <time>2018-09-08T14:38:48.000Z</time>
      </trkpt>
      <trkpt lat="43.31264711916446685791015625" lon="-4.979796968400478363037109375">
        <ele>426.399993896484375</ele>
        <time>2018-09-08T14:38:50.000Z</time>
      </trkpt>
      <trkpt lat="43.31272222101688385009765625" lon="-4.97990383766591548919677734375">
        <ele>427</ele>
        <time>2018-09-08T14:38:52.000Z</time>
      </trkpt>
      <trkpt lat="43.31278315745294094085693359375" lon="-4.9800003133714199066162109375">
        <ele>427.399993896484375</ele>
        <time>2018-09-08T14:38:54.000Z</time>
      </trkpt>
      <trkpt lat="43.31280863843858242034912109375" lon="-4.98003878630697727203369140625">
        <ele>427.600006103515625</ele>
        <time>2018-09-08T14:38:55.000Z</time>
      </trkpt>
      <trkpt lat="43.31285574473440647125244140625" lon="-4.980109445750713348388671875">
        <ele>428.20001220703125</ele>
        <time>2018-09-08T14:38:57.000Z</time>
      </trkpt>
      <trkpt lat="43.3128826506435871124267578125" lon="-4.98014867305755615234375">
        <ele>428.600006103515625</ele>
        <time>2018-09-08T14:38:58.000Z</time>
      </trkpt>
      <trkpt lat="43.3129352889955043792724609375" lon="-4.98022536747157573699951171875">
        <ele>428.399993896484375</ele>
        <time>2018-09-08T14:39:00.000Z</time>
      </trkpt>
      <trkpt lat="43.31298105418682098388671875" lon="-4.9802946858108043670654296875">
        <ele>427.399993896484375</ele>
        <time>2018-09-08T14:39:02.000Z</time>
      </trkpt>
      <trkpt lat="43.31300309859216213226318359375" lon="-4.9803288839757442474365234375">
        <ele>429.600006103515625</ele>
        <time>2018-09-08T14:39:03.000Z</time>
      </trkpt>
      <trkpt lat="43.31304408609867095947265625" lon="-4.98039300553500652313232421875">
        <ele>426.600006103515625</ele>
        <time>2018-09-08T14:39:05.000Z</time>
      </trkpt>
      <trkpt lat="43.313064873218536376953125" lon="-4.9804230965673923492431640625">
        <ele>426.600006103515625</ele>
        <time>2018-09-08T14:39:06.000Z</time>
      </trkpt>
      <trkpt lat="43.31309915520250797271728515625" lon="-4.98049610294401645660400390625">
        <ele>432</ele>
        <time>2018-09-08T14:39:08.000Z</time>
      </trkpt>
      <trkpt lat="43.313122875988483428955078125" lon="-4.9805354140698909759521484375">
        <ele>430.79998779296875</ele>
        <time>2018-09-08T14:39:09.000Z</time>
      </trkpt>
      <trkpt lat="43.31314190290868282318115234375" lon="-4.98058428056538105010986328125">
        <ele>429.79998779296875</ele>
        <time>2018-09-08T14:39:10.000Z</time>
      </trkpt>
      <trkpt lat="43.3131595887243747711181640625" lon="-4.98063775710761547088623046875">
        <ele>429.79998779296875</ele>
        <time>2018-09-08T14:39:11.000Z</time>
      </trkpt>
      <trkpt lat="43.3132330141961574554443359375" lon="-4.98092047870159149169921875">
        <ele>428.600006103515625</ele>
        <time>2018-09-08T14:39:15.000Z</time>
      </trkpt>
      <trkpt lat="43.3132497780025005340576171875" lon="-4.98100907541811466217041015625">
        <ele>428.20001220703125</ele>
        <time>2018-09-08T14:39:16.000Z</time>
      </trkpt>
      <trkpt lat="43.31327207386493682861328125" lon="-4.98117864131927490234375">
        <ele>427.79998779296875</ele>
        <time>2018-09-08T14:39:18.000Z</time>
      </trkpt>
      <trkpt lat="43.31327140331268310546875" lon="-4.9812616221606731414794921875">
        <ele>428</ele>
        <time>2018-09-08T14:39:19.000Z</time>
      </trkpt>
      <trkpt lat="43.31326536834239959716796875" lon="-4.981408976018428802490234375">
        <ele>428.399993896484375</ele>
        <time>2018-09-08T14:39:21.000Z</time>
      </trkpt>
      <trkpt lat="43.3132521249353885650634765625" lon="-4.981624223291873931884765625">
        <ele>429.79998779296875</ele>
        <time>2018-09-08T14:39:25.000Z</time>
      </trkpt>
      <trkpt lat="43.3132564835250377655029296875" lon="-4.98166655190289020538330078125">
        <ele>430.20001220703125</ele>
        <time>2018-09-08T14:39:26.000Z</time>
      </trkpt>
      <trkpt lat="43.3132618479430675506591796875" lon="-4.9817370437085628509521484375">
        <ele>431</ele>
        <time>2018-09-08T14:39:28.000Z</time>
      </trkpt>
      <trkpt lat="43.31328456290066242218017578125" lon="-4.9818854033946990966796875">
        <ele>432</ele>
        <time>2018-09-08T14:39:32.000Z</time>
      </trkpt>
      <trkpt lat="43.3133158273994922637939453125" lon="-4.98198087327182292938232421875">
        <ele>432.600006103515625</ele>
        <time>2018-09-08T14:39:35.000Z</time>
      </trkpt>
      <trkpt lat="43.31333552487194538116455078125" lon="-4.98204742558300495147705078125">
        <ele>433.20001220703125</ele>
        <time>2018-09-08T14:39:37.000Z</time>
      </trkpt>
      <trkpt lat="43.31335513852536678314208984375" lon="-4.98211833648383617401123046875">
        <ele>433.600006103515625</ele>
        <time>2018-09-08T14:39:39.000Z</time>
      </trkpt>
      <trkpt lat="43.31339889205992221832275390625" lon="-4.9822630919516086578369140625">
        <ele>434.399993896484375</ele>
        <time>2018-09-08T14:39:43.000Z</time>
      </trkpt>
      <trkpt lat="43.31341498531401157379150390625" lon="-4.9822929315268993377685546875">
        <ele>435.600006103515625</ele>
        <time>2018-09-08T14:39:44.000Z</time>
      </trkpt>
      <trkpt lat="43.3134311623871326446533203125" lon="-4.982320927083492279052734375">
        <ele>436.20001220703125</ele>
        <time>2018-09-08T14:39:45.000Z</time>
      </trkpt>
      <trkpt lat="43.31347164697945117950439453125" lon="-4.9824111163616180419921875">
        <ele>435.20001220703125</ele>
        <time>2018-09-08T14:39:48.000Z</time>
      </trkpt>
      <trkpt lat="43.3135320805013179779052734375" lon="-4.98252787627279758453369140625">
        <ele>435.600006103515625</ele>
        <time>2018-09-08T14:39:52.000Z</time>
      </trkpt>
      <trkpt lat="43.31367230974137783050537109375" lon="-4.9827331490814685821533203125">
        <ele>436</ele>
        <time>2018-09-08T14:39:58.000Z</time>
      </trkpt>
      <trkpt lat="43.31380122341215610504150390625" lon="-4.982894249260425567626953125">
        <ele>435.399993896484375</ele>
        <time>2018-09-08T14:40:02.000Z</time>
      </trkpt>
      <trkpt lat="43.313831649720668792724609375" lon="-4.98301670886576175689697265625">
        <ele>435.399993896484375</ele>
        <time>2018-09-08T14:40:04.000Z</time>
      </trkpt>
      <trkpt lat="43.31387347541749477386474609375" lon="-4.98319373466074466705322265625">
        <ele>435.79998779296875</ele>
        <time>2018-09-08T14:40:07.000Z</time>
      </trkpt>
      <trkpt lat="43.31390432082116603851318359375" lon="-4.9832989275455474853515625">
        <ele>436.79998779296875</ele>
        <time>2018-09-08T14:40:09.000Z</time>
      </trkpt>
      <trkpt lat="43.31392225809395313262939453125" lon="-4.98334108851850032806396484375">
        <ele>437</ele>
        <time>2018-09-08T14:40:10.000Z</time>
      </trkpt>
      <trkpt lat="43.31404195167124271392822265625" lon="-4.98352213762700557708740234375">
        <ele>438</ele>
        <time>2018-09-08T14:40:15.000Z</time>
      </trkpt>
      <trkpt lat="43.3140893094241619110107421875" lon="-4.98358868993818759918212890625">
        <ele>438.20001220703125</ele>
        <time>2018-09-08T14:40:17.000Z</time>
      </trkpt>
      <trkpt lat="43.31415846012532711029052734375" lon="-4.9836732633411884307861328125">
        <ele>439</ele>
        <time>2018-09-08T14:40:20.000Z</time>
      </trkpt>
      <trkpt lat="43.314244709908962249755859375" lon="-4.9837818928062915802001953125">
        <ele>440.20001220703125</ele>
        <time>2018-09-08T14:40:24.000Z</time>
      </trkpt>
      <trkpt lat="43.31426373682916164398193359375" lon="-4.98380561359226703643798828125">
        <ele>440.20001220703125</ele>
        <time>2018-09-08T14:40:25.000Z</time>
      </trkpt>
      <trkpt lat="43.314324505627155303955078125" lon="-4.98387199826538562774658203125">
        <ele>441.20001220703125</ele>
        <time>2018-09-08T14:40:28.000Z</time>
      </trkpt>
      <trkpt lat="43.31444042734801769256591796875" lon="-4.98397693969309329986572265625">
        <ele>442.20001220703125</ele>
        <time>2018-09-08T14:40:33.000Z</time>
      </trkpt>
      <trkpt lat="43.314586021006107330322265625" lon="-4.98412563465535640716552734375">
        <ele>443.399993896484375</ele>
        <time>2018-09-08T14:40:39.000Z</time>
      </trkpt>
      <trkpt lat="43.31460974179208278656005859375" lon="-4.9841506965458393096923828125">
        <ele>443.600006103515625</ele>
        <time>2018-09-08T14:40:40.000Z</time>
      </trkpt>
      <trkpt lat="43.314711414277553558349609375" lon="-4.984349347651004791259765625">
        <ele>444</ele>
        <time>2018-09-08T14:40:46.000Z</time>
      </trkpt>
      <trkpt lat="43.3147662319242954254150390625" lon="-4.98461932875216007232666015625">
        <ele>443.600006103515625</ele>
        <time>2018-09-08T14:40:51.000Z</time>
      </trkpt>
      <trkpt lat="43.31488802097737789154052734375" lon="-4.984876401722431182861328125">
        <ele>443.20001220703125</ele>
        <time>2018-09-08T14:40:56.000Z</time>
      </trkpt>
      <trkpt lat="43.31491769291460514068603515625" lon="-4.98493306338787078857421875">
        <ele>442.79998779296875</ele>
        <time>2018-09-08T14:40:57.000Z</time>
      </trkpt>
      <trkpt lat="43.31497217528522014617919921875" lon="-4.985045380890369415283203125">
        <ele>442</ele>
        <time>2018-09-08T14:40:59.000Z</time>
      </trkpt>
      <trkpt lat="43.3150753565132617950439453125" lon="-4.98519315384328365325927734375">
        <ele>441</ele>
        <time>2018-09-08T14:41:02.000Z</time>
      </trkpt>
      <trkpt lat="43.315115086734294891357421875" lon="-4.98523673973977565765380859375">
        <ele>440.600006103515625</ele>
        <time>2018-09-08T14:41:03.000Z</time>
      </trkpt>
      <trkpt lat="43.31515096127986907958984375" lon="-4.98527613468468189239501953125">
        <ele>440.399993896484375</ele>
        <time>2018-09-08T14:41:04.000Z</time>
      </trkpt>
      <trkpt lat="43.31521793268620967864990234375" lon="-4.985336400568485260009765625">
        <ele>440</ele>
        <time>2018-09-08T14:41:06.000Z</time>
      </trkpt>
      <trkpt lat="43.3153134025633335113525390625" lon="-4.98545852489769458770751953125">
        <ele>439</ele>
        <time>2018-09-08T14:41:09.000Z</time>
      </trkpt>
      <trkpt lat="43.31534986384212970733642578125" lon="-4.98551669530570507049560546875">
        <ele>438.600006103515625</ele>
        <time>2018-09-08T14:41:10.000Z</time>
      </trkpt>
      <trkpt lat="43.31542680971324443817138671875" lon="-4.9856617860496044158935546875">
        <ele>436.79998779296875</ele>
        <time>2018-09-08T14:41:12.000Z</time>
      </trkpt>
      <trkpt lat="43.31546184606850147247314453125" lon="-4.98574845492839813232421875">
        <ele>436</ele>
        <time>2018-09-08T14:41:13.000Z</time>
      </trkpt>
      <trkpt lat="43.3154944516718387603759765625" lon="-4.98583084903657436370849609375">
        <ele>435.399993896484375</ele>
        <time>2018-09-08T14:41:14.000Z</time>
      </trkpt>
      <trkpt lat="43.31558145582675933837890625" lon="-4.986069984734058380126953125">
        <ele>434</ele>
        <time>2018-09-08T14:41:17.000Z</time>
      </trkpt>
      <trkpt lat="43.31564306281507015228271484375" lon="-4.986239969730377197265625">
        <ele>432.79998779296875</ele>
        <time>2018-09-08T14:41:19.000Z</time>
      </trkpt>
      <trkpt lat="43.31571548245847225189208984375" lon="-4.98640400357544422149658203125">
        <ele>431.399993896484375</ele>
        <time>2018-09-08T14:41:21.000Z</time>
      </trkpt>
      <trkpt lat="43.31579913385212421417236328125" lon="-4.98657046817243099212646484375">
        <ele>430.399993896484375</ele>
        <time>2018-09-08T14:41:23.000Z</time>
      </trkpt>
      <trkpt lat="43.3158444799482822418212890625" lon="-4.98664674349129199981689453125">
        <ele>430.399993896484375</ele>
        <time>2018-09-08T14:41:24.000Z</time>
      </trkpt>
      <trkpt lat="43.31589317880570888519287109375" lon="-4.98672201298177242279052734375">
        <ele>430.20001220703125</ele>
        <time>2018-09-08T14:41:25.000Z</time>
      </trkpt>
      <trkpt lat="43.31603717990219593048095703125" lon="-4.98692183755338191986083984375">
        <ele>430.399993896484375</ele>
        <time>2018-09-08T14:41:28.000Z</time>
      </trkpt>
      <trkpt lat="43.31616978161036968231201171875" lon="-4.9871021322906017303466796875">
        <ele>431</ele>
        <time>2018-09-08T14:41:31.000Z</time>
      </trkpt>
      <trkpt lat="43.316214792430400848388671875" lon="-4.98715988360345363616943359375">
        <ele>431.20001220703125</ele>
        <time>2018-09-08T14:41:32.000Z</time>
      </trkpt>
      <trkpt lat="43.31641252152621746063232421875" lon="-4.98742039315402507781982421875">
        <ele>432.399993896484375</ele>
        <time>2018-09-08T14:41:37.000Z</time>
      </trkpt>
      <trkpt lat="43.31645610742270946502685546875" lon="-4.9874699302017688751220703125">
        <ele>432.600006103515625</ele>
        <time>2018-09-08T14:41:38.000Z</time>
      </trkpt>
      <trkpt lat="43.31663095392286777496337890625" lon="-4.98769448138773441314697265625">
        <ele>433.20001220703125</ele>
        <time>2018-09-08T14:41:43.000Z</time>
      </trkpt>
      <trkpt lat="43.31677260808646678924560546875" lon="-4.9878290109336376190185546875">
        <ele>432.79998779296875</ele>
        <time>2018-09-08T14:41:47.000Z</time>
      </trkpt>
      <trkpt lat="43.31685877405107021331787109375" lon="-4.98785960488021373748779296875">
        <ele>432.399993896484375</ele>
        <time>2018-09-08T14:41:49.000Z</time>
      </trkpt>
      <trkpt lat="43.3170162700116634368896484375" lon="-4.9879352934658527374267578125">
        <ele>431.20001220703125</ele>
        <time>2018-09-08T14:41:53.000Z</time>
      </trkpt>
      <trkpt lat="43.31711241044104099273681640625" lon="-4.98801684938371181488037109375">
        <ele>429.20001220703125</ele>
        <time>2018-09-08T14:41:55.000Z</time>
      </trkpt>
      <trkpt lat="43.31716873683035373687744140625" lon="-4.98806093819439411163330078125">
        <ele>428.20001220703125</ele>
        <time>2018-09-08T14:41:56.000Z</time>
      </trkpt>
      <trkpt lat="43.3172893524169921875" lon="-4.98813201673328876495361328125">
        <ele>426.399993896484375</ele>
        <time>2018-09-08T14:41:58.000Z</time>
      </trkpt>
      <trkpt lat="43.31735330633819103240966796875" lon="-4.98816437087953090667724609375">
        <ele>425.20001220703125</ele>
        <time>2018-09-08T14:41:59.000Z</time>
      </trkpt>
      <trkpt lat="43.3174105547368526458740234375" lon="-4.988197647035121917724609375">
        <ele>424</ele>
        <time>2018-09-08T14:42:00.000Z</time>
      </trkpt>
      <trkpt lat="43.31746838986873626708984375" lon="-4.98823083937168121337890625">
        <ele>422.79998779296875</ele>
        <time>2018-09-08T14:42:01.000Z</time>
      </trkpt>
      <trkpt lat="43.31752681173384189605712890625" lon="-4.98826512135565280914306640625">
        <ele>421.600006103515625</ele>
        <time>2018-09-08T14:42:02.000Z</time>
      </trkpt>
      <trkpt lat="43.31758364103734493255615234375" lon="-4.988304264843463897705078125">
        <ele>420.20001220703125</ele>
        <time>2018-09-08T14:42:03.000Z</time>
      </trkpt>
      <trkpt lat="43.31764348782598972320556640625" lon="-4.9883389659225940704345703125">
        <ele>419.20001220703125</ele>
        <time>2018-09-08T14:42:04.000Z</time>
      </trkpt>
      <trkpt lat="43.31771708093583583831787109375" lon="-4.98837475664913654327392578125">
        <ele>418</ele>
        <time>2018-09-08T14:42:05.000Z</time>
      </trkpt>
      <trkpt lat="43.31779184751212596893310546875" lon="-4.98840576969087123870849609375">
        <ele>417.20001220703125</ele>
        <time>2018-09-08T14:42:06.000Z</time>
      </trkpt>
      <trkpt lat="43.31786594353616237640380859375" lon="-4.98843611218035221099853515625">
        <ele>415.79998779296875</ele>
        <time>2018-09-08T14:42:07.000Z</time>
      </trkpt>
      <trkpt lat="43.31793316639959812164306640625" lon="-4.9884703941643238067626953125">
        <ele>414.600006103515625</ele>
        <time>2018-09-08T14:42:08.000Z</time>
      </trkpt>
      <trkpt lat="43.31799636594951152801513671875" lon="-4.98850299976766109466552734375">
        <ele>413.20001220703125</ele>
        <time>2018-09-08T14:42:09.000Z</time>
      </trkpt>
      <trkpt lat="43.31805889494717121124267578125" lon="-4.98852797783911228179931640625">
        <ele>412</ele>
        <time>2018-09-08T14:42:10.000Z</time>
      </trkpt>
      <trkpt lat="43.31812276504933834075927734375" lon="-4.98853535391390323638916015625">
        <ele>411.600006103515625</ele>
        <time>2018-09-08T14:42:11.000Z</time>
      </trkpt>
      <trkpt lat="43.3182410337030887603759765625" lon="-4.988495372235774993896484375">
        <ele>411</ele>
        <time>2018-09-08T14:42:13.000Z</time>
      </trkpt>
      <trkpt lat="43.3182938396930694580078125" lon="-4.988469891250133514404296875">
        <ele>410.79998779296875</ele>
        <time>2018-09-08T14:42:14.000Z</time>
      </trkpt>
      <trkpt lat="43.31842384301126003265380859375" lon="-4.98841532506048679351806640625">
        <ele>406</ele>
        <time>2018-09-08T14:42:17.000Z</time>
      </trkpt>
      <trkpt lat="43.31847262568771839141845703125" lon="-4.988392777740955352783203125">
        <ele>406</ele>
        <time>2018-09-08T14:42:18.000Z</time>
      </trkpt>
      <trkpt lat="43.31854638643562793731689453125" lon="-4.98828842304646968841552734375">
        <ele>410.20001220703125</ele>
        <time>2018-09-08T14:42:20.000Z</time>
      </trkpt>
      <trkpt lat="43.318574465811252593994140625" lon="-4.98822287656366825103759765625">
        <ele>408.600006103515625</ele>
        <time>2018-09-08T14:42:21.000Z</time>
      </trkpt>
      <trkpt lat="43.3186222426593303680419921875" lon="-4.98808004893362522125244140625">
        <ele>407.399993896484375</ele>
        <time>2018-09-08T14:42:23.000Z</time>
      </trkpt>
      <trkpt lat="43.318656943738460540771484375" lon="-4.9879460223019123077392578125">
        <ele>406.79998779296875</ele>
        <time>2018-09-08T14:42:25.000Z</time>
      </trkpt>
      <trkpt lat="43.31868871115148067474365234375" lon="-4.9878853373229503631591796875">
        <ele>406.79998779296875</ele>
        <time>2018-09-08T14:42:26.000Z</time>
      </trkpt>
      <trkpt lat="43.31874168477952480316162109375" lon="-4.98783764429390430450439453125">
        <ele>406</ele>
        <time>2018-09-08T14:42:27.000Z</time>
      </trkpt>
      <trkpt lat="43.318858779966831207275390625" lon="-4.98777695931494235992431640625">
        <ele>404.399993896484375</ele>
        <time>2018-09-08T14:42:29.000Z</time>
      </trkpt>
      <trkpt lat="43.31897453404963016510009765625" lon="-4.98772616498172283172607421875">
        <ele>402.79998779296875</ele>
        <time>2018-09-08T14:42:31.000Z</time>
      </trkpt>
      <trkpt lat="43.3190889470279216766357421875" lon="-4.98766581527888774871826171875">
        <ele>400.79998779296875</ele>
        <time>2018-09-08T14:42:33.000Z</time>
      </trkpt>
      <trkpt lat="43.31914720125496387481689453125" lon="-4.987624995410442352294921875">
        <ele>399.399993896484375</ele>
        <time>2018-09-08T14:42:34.000Z</time>
      </trkpt>
      <trkpt lat="43.31920168362557888031005859375" lon="-4.98757797293365001678466796875">
        <ele>398.79998779296875</ele>
        <time>2018-09-08T14:42:35.000Z</time>
      </trkpt>
      <trkpt lat="43.3194138295948505401611328125" lon="-4.9874444492161273956298828125">
        <ele>399.600006103515625</ele>
        <time>2018-09-08T14:42:39.000Z</time>
      </trkpt>
      <trkpt lat="43.31951449625194072723388671875" lon="-4.98740069568157196044921875">
        <ele>400</ele>
        <time>2018-09-08T14:42:41.000Z</time>
      </trkpt>
      <trkpt lat="43.31956042908132076263427734375" lon="-4.98738753609359264373779296875">
        <ele>400.399993896484375</ele>
        <time>2018-09-08T14:42:42.000Z</time>
      </trkpt>
      <trkpt lat="43.31960686482489109039306640625" lon="-4.98738854192197322845458984375">
        <ele>400.600006103515625</ele>
        <time>2018-09-08T14:42:43.000Z</time>
      </trkpt>
      <trkpt lat="43.31969303078949451446533203125" lon="-4.9874072335660457611083984375">
        <ele>401.20001220703125</ele>
        <time>2018-09-08T14:42:45.000Z</time>
      </trkpt>
      <trkpt lat="43.31973292864859104156494140625" lon="-4.98742483556270599365234375">
        <ele>401.399993896484375</ele>
        <time>2018-09-08T14:42:46.000Z</time>
      </trkpt>
      <trkpt lat="43.3197735808789730072021484375" lon="-4.9874400906264781951904296875">
        <ele>401.79998779296875</ele>
        <time>2018-09-08T14:42:47.000Z</time>
      </trkpt>
      <trkpt lat="43.31988363526761531829833984375" lon="-4.98748476617038249969482421875">
        <ele>402.399993896484375</ele>
        <time>2018-09-08T14:42:50.000Z</time>
      </trkpt>
      <trkpt lat="43.31991766579449176788330078125" lon="-4.9875007756054401397705078125">
        <ele>402.79998779296875</ele>
        <time>2018-09-08T14:42:51.000Z</time>
      </trkpt>
      <trkpt lat="43.320007435977458953857421875" lon="-4.9875453673303127288818359375">
        <ele>403.399993896484375</ele>
        <time>2018-09-08T14:42:54.000Z</time>
      </trkpt>
      <trkpt lat="43.320036940276622772216796875" lon="-4.98756087385118007659912109375">
        <ele>403.600006103515625</ele>
        <time>2018-09-08T14:42:55.000Z</time>
      </trkpt>
      <trkpt lat="43.32006736658513545989990234375" lon="-4.98756858520209789276123046875">
        <ele>403.79998779296875</ele>
        <time>2018-09-08T14:42:56.000Z</time>
      </trkpt>
      <trkpt lat="43.3201239444315433502197265625" lon="-4.98760186135768890380859375">
        <ele>404.399993896484375</ele>
        <time>2018-09-08T14:42:58.000Z</time>
      </trkpt>
      <trkpt lat="43.32015152089297771453857421875" lon="-4.98761468566954135894775390625">
        <ele>404.79998779296875</ele>
        <time>2018-09-08T14:42:59.000Z</time>
      </trkpt>
      <trkpt lat="43.32020432688295841217041015625" lon="-4.9876322038471698760986328125">
        <ele>405.20001220703125</ele>
        <time>2018-09-08T14:43:01.000Z</time>
      </trkpt>
      <trkpt lat="43.32033106125891208648681640625" lon="-4.98769364319741725921630859375">
        <ele>406</ele>
        <time>2018-09-08T14:43:06.000Z</time>
      </trkpt>
      <trkpt lat="43.32035805098712444305419921875" lon="-4.9877099879086017608642578125">
        <ele>406.20001220703125</ele>
        <time>2018-09-08T14:43:07.000Z</time>
      </trkpt>
      <trkpt lat="43.32044840790331363677978515625" lon="-4.98773706145584583282470703125">
        <ele>406.399993896484375</ele>
        <time>2018-09-08T14:43:10.000Z</time>
      </trkpt>
      <trkpt lat="43.320510350167751312255859375" lon="-4.98775474727153778076171875">
        <ele>407</ele>
        <time>2018-09-08T14:43:12.000Z</time>
      </trkpt>
      <trkpt lat="43.32053977064788341522216796875" lon="-4.9877679906785488128662109375">
        <ele>407.399993896484375</ele>
        <time>2018-09-08T14:43:13.000Z</time>
      </trkpt>
      <trkpt lat="43.3205708675086498260498046875" lon="-4.987779222428798675537109375">
        <ele>407.600006103515625</ele>
        <time>2018-09-08T14:43:14.000Z</time>
      </trkpt>
      <trkpt lat="43.320627696812152862548828125" lon="-4.987789280712604522705078125">
        <ele>408.20001220703125</ele>
        <time>2018-09-08T14:43:16.000Z</time>
      </trkpt>
      <trkpt lat="43.32065493799746036529541015625" lon="-4.9877969920635223388671875">
        <ele>408.399993896484375</ele>
        <time>2018-09-08T14:43:17.000Z</time>
      </trkpt>
      <trkpt lat="43.3207358233630657196044921875" lon="-4.9878075532615184783935546875">
        <ele>409</ele>
        <time>2018-09-08T14:43:20.000Z</time>
      </trkpt>
      <trkpt lat="43.320789635181427001953125" lon="-4.98780981637537479400634765625">
        <ele>409.79998779296875</ele>
        <time>2018-09-08T14:43:22.000Z</time>
      </trkpt>
      <trkpt lat="43.3209383301436901092529296875" lon="-4.9878145940601825714111328125">
        <ele>410.79998779296875</ele>
        <time>2018-09-08T14:43:28.000Z</time>
      </trkpt>
      <trkpt lat="43.32096188329160213470458984375" lon="-4.987810738384723663330078125">
        <ele>411</ele>
        <time>2018-09-08T14:43:29.000Z</time>
      </trkpt>
      <trkpt lat="43.3210851810872554779052734375" lon="-4.9878055416047573089599609375">
        <ele>412</ele>
        <time>2018-09-08T14:43:34.000Z</time>
      </trkpt>
      <trkpt lat="43.32113253884017467498779296875" lon="-4.987803362309932708740234375">
        <ele>411.79998779296875</ele>
        <time>2018-09-08T14:43:36.000Z</time>
      </trkpt>
      <trkpt lat="43.321229852735996246337890625" lon="-4.9878018535673618316650390625">
        <ele>413.20001220703125</ele>
        <time>2018-09-08T14:43:40.000Z</time>
      </trkpt>
      <trkpt lat="43.321363963186740875244140625" lon="-4.98777947388589382171630859375">
        <ele>414.20001220703125</ele>
        <time>2018-09-08T14:43:45.000Z</time>
      </trkpt>
      <trkpt lat="43.32149916328489780426025390625" lon="-4.987754411995410919189453125">
        <ele>415.399993896484375</ele>
        <time>2018-09-08T14:43:50.000Z</time>
      </trkpt>
      <trkpt lat="43.3215817250311374664306640625" lon="-4.98773605562746524810791015625">
        <ele>415.79998779296875</ele>
        <time>2018-09-08T14:43:53.000Z</time>
      </trkpt>
      <trkpt lat="43.32165892235934734344482421875" lon="-4.9877160228788852691650390625">
        <ele>416.399993896484375</ele>
        <time>2018-09-08T14:43:56.000Z</time>
      </trkpt>
      <trkpt lat="43.321787081658840179443359375" lon="-4.98767185024917125701904296875">
        <ele>417</ele>
        <time>2018-09-08T14:44:01.000Z</time>
      </trkpt>
      <trkpt lat="43.321833349764347076416015625" lon="-4.9876650609076023101806640625">
        <ele>417.399993896484375</ele>
        <time>2018-09-08T14:44:03.000Z</time>
      </trkpt>
      <trkpt lat="43.3218918554484844207763671875" lon="-4.9876234866678714752197265625">
        <ele>417.79998779296875</ele>
        <time>2018-09-08T14:44:06.000Z</time>
      </trkpt>
      <trkpt lat="43.3219711482524871826171875" lon="-4.98757143504917621612548828125">
        <ele>418.399993896484375</ele>
        <time>2018-09-08T14:44:10.000Z</time>
      </trkpt>
      <trkpt lat="43.32199034281075000762939453125" lon="-4.98754897154867649078369140625">
        <ele>418.600006103515625</ele>
        <time>2018-09-08T14:44:11.000Z</time>
      </trkpt>
      <trkpt lat="43.32205857150256633758544921875" lon="-4.9874876998364925384521484375">
        <ele>418.79998779296875</ele>
        <time>2018-09-08T14:44:14.000Z</time>
      </trkpt>
      <trkpt lat="43.322222940623760223388671875" lon="-4.98735886998474597930908203125">
        <ele>419</ele>
        <time>2018-09-08T14:44:20.000Z</time>
      </trkpt>
      <trkpt lat="43.32228572107851505279541015625" lon="-4.98732115142047405242919921875">
        <ele>419</ele>
        <time>2018-09-08T14:44:22.000Z</time>
      </trkpt>
      <trkpt lat="43.32242108881473541259765625" lon="-4.9872560240328311920166015625">
        <ele>419.79998779296875</ele>
        <time>2018-09-08T14:44:26.000Z</time>
      </trkpt>
      <trkpt lat="43.3225466497242450714111328125" lon="-4.9872308783233165740966796875">
        <ele>419.79998779296875</ele>
        <time>2018-09-08T14:44:29.000Z</time>
      </trkpt>
      <trkpt lat="43.322593756020069122314453125" lon="-4.9872337281703948974609375">
        <ele>418.600006103515625</ele>
        <time>2018-09-08T14:44:30.000Z</time>
      </trkpt>
      <trkpt lat="43.32279232330620288848876953125" lon="-4.987266249954700469970703125">
        <ele>417</ele>
        <time>2018-09-08T14:44:34.000Z</time>
      </trkpt>
      <trkpt lat="43.32289877347648143768310546875" lon="-4.987303800880908966064453125">
        <ele>416.600006103515625</ele>
        <time>2018-09-08T14:44:36.000Z</time>
      </trkpt>
      <trkpt lat="43.3230118453502655029296875" lon="-4.98733791522681713104248046875">
        <ele>415.79998779296875</ele>
        <time>2018-09-08T14:44:38.000Z</time>
      </trkpt>
      <trkpt lat="43.32307043485343456268310546875" lon="-4.98735685832798480987548828125">
        <ele>415.399993896484375</ele>
        <time>2018-09-08T14:44:39.000Z</time>
      </trkpt>
      <trkpt lat="43.32319867797195911407470703125" lon="-4.9873763881623744964599609375">
        <ele>414.600006103515625</ele>
        <time>2018-09-08T14:44:41.000Z</time>
      </trkpt>
      <trkpt lat="43.3234073035418987274169921875" lon="-4.9873760528862476348876953125">
        <ele>413.399993896484375</ele>
        <time>2018-09-08T14:44:44.000Z</time>
      </trkpt>
      <trkpt lat="43.32354937680065631866455078125" lon="-4.987364821135997772216796875">
        <ele>412.399993896484375</ele>
        <time>2018-09-08T14:44:46.000Z</time>
      </trkpt>
      <trkpt lat="43.32375280559062957763671875" lon="-4.98735803179442882537841796875">
        <ele>411.20001220703125</ele>
        <time>2018-09-08T14:44:49.000Z</time>
      </trkpt>
      <trkpt lat="43.323822207748889923095703125" lon="-4.98737647198140621185302734375">
        <ele>410.600006103515625</ele>
        <time>2018-09-08T14:44:50.000Z</time>
      </trkpt>
      <trkpt lat="43.3239581622183322906494140625" lon="-4.9874571897089481353759765625">
        <ele>409.600006103515625</ele>
        <time>2018-09-08T14:44:52.000Z</time>
      </trkpt>
      <trkpt lat="43.32408917136490345001220703125" lon="-4.98756657354533672332763671875">
        <ele>408.20001220703125</ele>
        <time>2018-09-08T14:44:54.000Z</time>
      </trkpt>
      <trkpt lat="43.3242186717689037322998046875" lon="-4.9876952357590198516845703125">
        <ele>407</ele>
        <time>2018-09-08T14:44:56.000Z</time>
      </trkpt>
      <trkpt lat="43.32434079609811305999755859375" lon="-4.9878082238137722015380859375">
        <ele>405.600006103515625</ele>
        <time>2018-09-08T14:44:58.000Z</time>
      </trkpt>
      <trkpt lat="43.324461914598941802978515625" lon="-4.98791693709790706634521484375">
        <ele>404.79998779296875</ele>
        <time>2018-09-08T14:45:00.000Z</time>
      </trkpt>
      <trkpt lat="43.32452318631112575531005859375" lon="-4.9879708327353000640869140625">
        <ele>404.20001220703125</ele>
        <time>2018-09-08T14:45:01.000Z</time>
      </trkpt>
      <trkpt lat="43.32464992068707942962646484375" lon="-4.98808457516133785247802734375">
        <ele>403.20001220703125</ele>
        <time>2018-09-08T14:45:03.000Z</time>
      </trkpt>
      <trkpt lat="43.32470767199993133544921875" lon="-4.9881548993289470672607421875">
        <ele>402.600006103515625</ele>
        <time>2018-09-08T14:45:04.000Z</time>
      </trkpt>
      <trkpt lat="43.32476626150310039520263671875" lon="-4.988229833543300628662109375">
        <ele>401.79998779296875</ele>
        <time>2018-09-08T14:45:05.000Z</time>
      </trkpt>
      <trkpt lat="43.3248225040733814239501953125" lon="-4.98831541277468204498291015625">
        <ele>401</ele>
        <time>2018-09-08T14:45:06.000Z</time>
      </trkpt>
      <trkpt lat="43.32487774081528186798095703125" lon="-4.9884060211479663848876953125">
        <ele>400.20001220703125</ele>
        <time>2018-09-08T14:45:07.000Z</time>
      </trkpt>
      <trkpt lat="43.324995338916778564453125" lon="-4.9885847233235836029052734375">
        <ele>398.600006103515625</ele>
        <time>2018-09-08T14:45:09.000Z</time>
      </trkpt>
      <trkpt lat="43.3251115120947360992431640625" lon="-4.98876803554594516754150390625">
        <ele>397.20001220703125</ele>
        <time>2018-09-08T14:45:11.000Z</time>
      </trkpt>
      <trkpt lat="43.3251658268272876739501953125" lon="-4.988857805728912353515625">
        <ele>396.399993896484375</ele>
        <time>2018-09-08T14:45:12.000Z</time>
      </trkpt>
      <trkpt lat="43.325214274227619171142578125" lon="-4.98894824646413326263427734375">
        <ele>395.79998779296875</ele>
        <time>2018-09-08T14:45:13.000Z</time>
      </trkpt>
      <trkpt lat="43.3253411762416362762451171875" lon="-4.98921713791787624359130859375">
        <ele>394.600006103515625</ele>
        <time>2018-09-08T14:45:16.000Z</time>
      </trkpt>
      <trkpt lat="43.32537948153913021087646484375" lon="-4.98929894529283046722412109375">
        <ele>394</ele>
        <time>2018-09-08T14:45:17.000Z</time>
      </trkpt>
      <trkpt lat="43.32542004995048046112060546875" lon="-4.9893741309642791748046875">
        <ele>393.399993896484375</ele>
        <time>2018-09-08T14:45:18.000Z</time>
      </trkpt>
      <trkpt lat="43.32550638355314731597900390625" lon="-4.9895094148814678192138671875">
        <ele>392.20001220703125</ele>
        <time>2018-09-08T14:45:20.000Z</time>
      </trkpt>
      <trkpt lat="43.325607888400554656982421875" lon="-4.989630617201328277587890625">
        <ele>390.79998779296875</ele>
        <time>2018-09-08T14:45:22.000Z</time>
      </trkpt>
      <trkpt lat="43.32570838741958141326904296875" lon="-4.98972625471651554107666015625">
        <ele>390</ele>
        <time>2018-09-08T14:45:25.000Z</time>
      </trkpt>
      <trkpt lat="43.3257691562175750732421875" lon="-4.989798925817012786865234375">
        <ele>389.600006103515625</ele>
        <time>2018-09-08T14:45:27.000Z</time>
      </trkpt>
      <trkpt lat="43.325880803167819976806640625" lon="-4.98992926441133022308349609375">
        <ele>388.79998779296875</ele>
        <time>2018-09-08T14:45:30.000Z</time>
      </trkpt>
      <trkpt lat="43.32592547871172428131103515625" lon="-4.989973939955234527587890625">
        <ele>388.399993896484375</ele>
        <time>2018-09-08T14:45:31.000Z</time>
      </trkpt>
      <trkpt lat="43.32608641125261783599853515625" lon="-4.990112073719501495361328125">
        <ele>387</ele>
        <time>2018-09-08T14:45:34.000Z</time>
      </trkpt>
      <trkpt lat="43.32614927552640438079833984375" lon="-4.99015054665505886077880859375">
        <ele>386.600006103515625</ele>
        <time>2018-09-08T14:45:35.000Z</time>
      </trkpt>
      <trkpt lat="43.32621314562857151031494140625" lon="-4.990179799497127532958984375">
        <ele>386.20001220703125</ele>
        <time>2018-09-08T14:45:36.000Z</time>
      </trkpt>
      <trkpt lat="43.32627349533140659332275390625" lon="-4.99021232128143310546875">
        <ele>385.600006103515625</ele>
        <time>2018-09-08T14:45:37.000Z</time>
      </trkpt>
      <trkpt lat="43.32644817419350147247314453125" lon="-4.990312568843364715576171875">
        <ele>384.600006103515625</ele>
        <time>2018-09-08T14:45:40.000Z</time>
      </trkpt>
      <trkpt lat="43.32650885917246341705322265625" lon="-4.99033276923000812530517578125">
        <ele>384.20001220703125</ele>
        <time>2018-09-08T14:45:41.000Z</time>
      </trkpt>
      <trkpt lat="43.32663944922387599945068359375" lon="-4.9903683923184871673583984375">
        <ele>383.600006103515625</ele>
        <time>2018-09-08T14:45:43.000Z</time>
      </trkpt>
      <trkpt lat="43.32677054218947887420654296875" lon="-4.9903906881809234619140625">
        <ele>382.79998779296875</ele>
        <time>2018-09-08T14:45:45.000Z</time>
      </trkpt>
      <trkpt lat="43.326829634606838226318359375" lon="-4.99040250666439533233642578125">
        <ele>381.79998779296875</ele>
        <time>2018-09-08T14:45:46.000Z</time>
      </trkpt>
      <trkpt lat="43.32688084803521633148193359375" lon="-4.990400411188602447509765625">
        <ele>381.600006103515625</ele>
        <time>2018-09-08T14:45:47.000Z</time>
      </trkpt>
      <trkpt lat="43.32696433179080486297607421875" lon="-4.9903073720633983612060546875">
        <ele>380.79998779296875</ele>
        <time>2018-09-08T14:45:49.000Z</time>
      </trkpt>
      <trkpt lat="43.32693633623421192169189453125" lon="-4.99012540094554424285888671875">
        <ele>379.79998779296875</ele>
        <time>2018-09-08T14:45:51.000Z</time>
      </trkpt>
      <trkpt lat="43.32687699235975742340087890625" lon="-4.99007091857492923736572265625">
        <ele>379.399993896484375</ele>
        <time>2018-09-08T14:45:52.000Z</time>
      </trkpt>
      <trkpt lat="43.32680691964924335479736328125" lon="-4.99004057608544826507568359375">
        <ele>379</ele>
        <time>2018-09-08T14:45:53.000Z</time>
      </trkpt>
      <trkpt lat="43.32673584111034870147705078125" lon="-4.99000520445406436920166015625">
        <ele>378.399993896484375</ele>
        <time>2018-09-08T14:45:54.000Z</time>
      </trkpt>
      <trkpt lat="43.3266725577414035797119140625" lon="-4.98996782116591930389404296875">
        <ele>378</ele>
        <time>2018-09-08T14:45:55.000Z</time>
      </trkpt>
      <trkpt lat="43.32661514170467853546142578125" lon="-4.9899147637188434600830078125">
        <ele>377.399993896484375</ele>
        <time>2018-09-08T14:45:56.000Z</time>
      </trkpt>
      <trkpt lat="43.3265568874776363372802734375" lon="-4.98985231854021549224853515625">
        <ele>376.79998779296875</ele>
        <time>2018-09-08T14:45:57.000Z</time>
      </trkpt>
      <trkpt lat="43.32645907066762447357177734375" lon="-4.98968736268579959869384765625">
        <ele>375.600006103515625</ele>
        <time>2018-09-08T14:45:59.000Z</time>
      </trkpt>
      <trkpt lat="43.3264262974262237548828125" lon="-4.98959264717996120452880859375">
        <ele>375</ele>
        <time>2018-09-08T14:46:00.000Z</time>
      </trkpt>
      <trkpt lat="43.32640349864959716796875" lon="-4.98950220644474029541015625">
        <ele>374.20001220703125</ele>
        <time>2018-09-08T14:46:01.000Z</time>
      </trkpt>
      <trkpt lat="43.3263667859137058258056640625" lon="-4.98931084759533405303955078125">
        <ele>372.79998779296875</ele>
        <time>2018-09-08T14:46:03.000Z</time>
      </trkpt>
      <trkpt lat="43.32634926773607730865478515625" lon="-4.989214204251766204833984375">
        <ele>372.20001220703125</ele>
        <time>2018-09-08T14:46:04.000Z</time>
      </trkpt>
      <trkpt lat="43.32632948644459247589111328125" lon="-4.98911471106112003326416015625">
        <ele>371.600006103515625</ele>
        <time>2018-09-08T14:46:05.000Z</time>
      </trkpt>
      <trkpt lat="43.3262859843671321868896484375" lon="-4.9889042414724826812744140625">
        <ele>370.20001220703125</ele>
        <time>2018-09-08T14:46:07.000Z</time>
      </trkpt>
      <trkpt lat="43.32627282477915287017822265625" lon="-4.988687150180339813232421875">
        <ele>368.79998779296875</ele>
        <time>2018-09-08T14:46:09.000Z</time>
      </trkpt>
      <trkpt lat="43.32628942094743251800537109375" lon="-4.9885770119726657867431640625">
        <ele>367</ele>
        <time>2018-09-08T14:46:10.000Z</time>
      </trkpt>
      <trkpt lat="43.32635614089667797088623046875" lon="-4.988372661173343658447265625">
        <ele>365.600006103515625</ele>
        <time>2018-09-08T14:46:12.000Z</time>
      </trkpt>
      <trkpt lat="43.326390422880649566650390625" lon="-4.98826545663177967071533203125">
        <ele>365</ele>
        <time>2018-09-08T14:46:13.000Z</time>
      </trkpt>
      <trkpt lat="43.32642185501754283905029296875" lon="-4.98815464787185192108154296875">
        <ele>364.399993896484375</ele>
        <time>2018-09-08T14:46:14.000Z</time>
      </trkpt>
      <trkpt lat="43.32646225579082965850830078125" lon="-4.987925402820110321044921875">
        <ele>363.20001220703125</ele>
        <time>2018-09-08T14:46:16.000Z</time>
      </trkpt>
      <trkpt lat="43.3264710567891597747802734375" lon="-4.98780847527086734771728515625">
        <ele>362.600006103515625</ele>
        <time>2018-09-08T14:46:17.000Z</time>
      </trkpt>
      <trkpt lat="43.3264697156846523284912109375" lon="-4.987585432827472686767578125">
        <ele>361.600006103515625</ele>
        <time>2018-09-08T14:46:19.000Z</time>
      </trkpt>
      <trkpt lat="43.3264640159904956817626953125" lon="-4.987474791705608367919921875">
        <ele>361.20001220703125</ele>
        <time>2018-09-08T14:46:20.000Z</time>
      </trkpt>
      <trkpt lat="43.326449431478977203369140625" lon="-4.98736674897372722625732421875">
        <ele>360.79998779296875</ele>
        <time>2018-09-08T14:46:21.000Z</time>
      </trkpt>
      <trkpt lat="43.3264294825494289398193359375" lon="-4.98726163990795612335205078125">
        <ele>360.20001220703125</ele>
        <time>2018-09-08T14:46:22.000Z</time>
      </trkpt>
      <trkpt lat="43.326347172260284423828125" lon="-4.98706600628793239593505859375">
        <ele>359</ele>
        <time>2018-09-08T14:46:24.000Z</time>
      </trkpt>
      <trkpt lat="43.32628405652940273284912109375" lon="-4.98698587529361248016357421875">
        <ele>358.399993896484375</ele>
        <time>2018-09-08T14:46:25.000Z</time>
      </trkpt>
      <trkpt lat="43.32621130160987377166748046875" lon="-4.98691731132566928863525390625">
        <ele>357.600006103515625</ele>
        <time>2018-09-08T14:46:26.000Z</time>
      </trkpt>
      <trkpt lat="43.3260529674589633941650390625" lon="-4.98678185977041721343994140625">
        <ele>355.79998779296875</ele>
        <time>2018-09-08T14:46:28.000Z</time>
      </trkpt>
      <trkpt lat="43.32598130218684673309326171875" lon="-4.9866941012442111968994140625">
        <ele>354.79998779296875</ele>
        <time>2018-09-08T14:46:29.000Z</time>
      </trkpt>
      <trkpt lat="43.3258494548499584197998046875" lon="-4.9865083582699298858642578125">
        <ele>353</ele>
        <time>2018-09-08T14:46:31.000Z</time>
      </trkpt>
      <trkpt lat="43.32579555921256542205810546875" lon="-4.9864263832569122314453125">
        <ele>352.399993896484375</ele>
        <time>2018-09-08T14:46:32.000Z</time>
      </trkpt>
      <trkpt lat="43.32573872990906238555908203125" lon="-4.9863432347774505615234375">
        <ele>351.79998779296875</ele>
        <time>2018-09-08T14:46:33.000Z</time>
      </trkpt>
      <trkpt lat="43.3256321959197521209716796875" lon="-4.98617199249565601348876953125">
        <ele>350.600006103515625</ele>
        <time>2018-09-08T14:46:35.000Z</time>
      </trkpt>
      <trkpt lat="43.32547084428369998931884765625" lon="-4.98592321760952472686767578125">
        <ele>349.20001220703125</ele>
        <time>2018-09-08T14:46:38.000Z</time>
      </trkpt>
      <trkpt lat="43.32534327171742916107177734375" lon="-4.98577469028532505035400390625">
        <ele>347.79998779296875</ele>
        <time>2018-09-08T14:46:40.000Z</time>
      </trkpt>
      <trkpt lat="43.32521402277052402496337890625" lon="-4.98562130145728588104248046875">
        <ele>346.20001220703125</ele>
        <time>2018-09-08T14:46:42.000Z</time>
      </trkpt>
      <trkpt lat="43.3251584507524967193603515625" lon="-4.98553060926496982574462890625">
        <ele>345.399993896484375</ele>
        <time>2018-09-08T14:46:43.000Z</time>
      </trkpt>
      <trkpt lat="43.3251219056546688079833984375" lon="-4.98541879467666149139404296875">
        <ele>344.79998779296875</ele>
        <time>2018-09-08T14:46:44.000Z</time>
      </trkpt>
      <trkpt lat="43.32510204054415225982666015625" lon="-4.98529826290905475616455078125">
        <ele>344.20001220703125</ele>
        <time>2018-09-08T14:46:45.000Z</time>
      </trkpt>
      <trkpt lat="43.325089551508426666259765625" lon="-4.98517513275146484375">
        <ele>343.399993896484375</ele>
        <time>2018-09-08T14:46:46.000Z</time>
      </trkpt>
      <trkpt lat="43.3250776492059230804443359375" lon="-4.98505066148936748504638671875">
        <ele>342.79998779296875</ele>
        <time>2018-09-08T14:46:47.000Z</time>
      </trkpt>
      <trkpt lat="43.32506130449473857879638671875" lon="-4.98492945916950702667236328125">
        <ele>342</ele>
        <time>2018-09-08T14:46:48.000Z</time>
      </trkpt>
      <trkpt lat="43.3250451274216175079345703125" lon="-4.98480792157351970672607421875">
        <ele>341.399993896484375</ele>
        <time>2018-09-08T14:46:49.000Z</time>
      </trkpt>
      <trkpt lat="43.32503247074782848358154296875" lon="-4.984687976539134979248046875">
        <ele>340.399993896484375</ele>
        <time>2018-09-08T14:46:50.000Z</time>
      </trkpt>
      <trkpt lat="43.3250082470476627349853515625" lon="-4.9844571389257907867431640625">
        <ele>339.399993896484375</ele>
        <time>2018-09-08T14:46:52.000Z</time>
      </trkpt>
      <trkpt lat="43.32496876828372478485107421875" lon="-4.9841329269111156463623046875">
        <ele>337.79998779296875</ele>
        <time>2018-09-08T14:46:55.000Z</time>
      </trkpt>
      <trkpt lat="43.32495954819023609161376953125" lon="-4.98402873985469341278076171875">
        <ele>337.20001220703125</ele>
        <time>2018-09-08T14:46:56.000Z</time>
      </trkpt>
      <trkpt lat="43.3249525912106037139892578125" lon="-4.983927905559539794921875">
        <ele>336.600006103515625</ele>
        <time>2018-09-08T14:46:57.000Z</time>
      </trkpt>
      <trkpt lat="43.32494412548840045928955078125" lon="-4.98382925055921077728271484375">
        <ele>335.399993896484375</ele>
        <time>2018-09-08T14:46:58.000Z</time>
      </trkpt>
      <trkpt lat="43.32492501474916934967041015625" lon="-4.98363881371915340423583984375">
        <ele>334.399993896484375</ele>
        <time>2018-09-08T14:47:00.000Z</time>
      </trkpt>
      <trkpt lat="43.32491126842796802520751953125" lon="-4.98344569467008113861083984375">
        <ele>333</ele>
        <time>2018-09-08T14:47:02.000Z</time>
      </trkpt>
      <trkpt lat="43.324872292578220367431640625" lon="-4.9832659028470516204833984375">
        <ele>332</ele>
        <time>2018-09-08T14:47:04.000Z</time>
      </trkpt>
      <trkpt lat="43.32482040859758853912353515625" lon="-4.9831083230674266815185546875">
        <ele>331</ele>
        <time>2018-09-08T14:47:06.000Z</time>
      </trkpt>
      <trkpt lat="43.32474580965936183929443359375" lon="-4.9828920699656009674072265625">
        <ele>329.399993896484375</ele>
        <time>2018-09-08T14:47:09.000Z</time>
      </trkpt>
      <trkpt lat="43.32465897314250469207763671875" lon="-4.982646144926548004150390625">
        <ele>328.20001220703125</ele>
        <time>2018-09-08T14:47:13.000Z</time>
      </trkpt>
      <trkpt lat="43.3245717175304889678955078125" lon="-4.9824139662086963653564453125">
        <ele>327.20001220703125</ele>
        <time>2018-09-08T14:47:18.000Z</time>
      </trkpt>
      <trkpt lat="43.3245552890002727508544921875" lon="-4.98236157931387424468994140625">
        <ele>327</ele>
        <time>2018-09-08T14:47:19.000Z</time>
      </trkpt>
      <trkpt lat="43.32449804060161113739013671875" lon="-4.98219176195561885833740234375">
        <ele>325.399993896484375</ele>
        <time>2018-09-08T14:47:22.000Z</time>
      </trkpt>
      <trkpt lat="43.324432410299777984619140625" lon="-4.982009120285511016845703125">
        <ele>324.20001220703125</ele>
        <time>2018-09-08T14:47:25.000Z</time>
      </trkpt>
      <trkpt lat="43.3243849687278270721435546875" lon="-4.98186822049319744110107421875">
        <ele>323.20001220703125</ele>
        <time>2018-09-08T14:47:27.000Z</time>
      </trkpt>
      <trkpt lat="43.3242993056774139404296875" lon="-4.98162212781608104705810546875">
        <ele>322</ele>
        <time>2018-09-08T14:47:31.000Z</time>
      </trkpt>
      <trkpt lat="43.32420920021831989288330078125" lon="-4.98132725246250629425048828125">
        <ele>321</ele>
        <time>2018-09-08T14:47:36.000Z</time>
      </trkpt>
      <trkpt lat="43.324189670383930206298828125" lon="-4.981264136731624603271484375">
        <ele>320.600006103515625</ele>
        <time>2018-09-08T14:47:37.000Z</time>
      </trkpt>
      <trkpt lat="43.324138708412647247314453125" lon="-4.98113396577537059783935546875">
        <ele>320</ele>
        <time>2018-09-08T14:47:39.000Z</time>
      </trkpt>
      <trkpt lat="43.3241053484380245208740234375" lon="-4.98106976039707660675048828125">
        <ele>319.600006103515625</ele>
        <time>2018-09-08T14:47:40.000Z</time>
      </trkpt>
      <trkpt lat="43.324019014835357666015625" lon="-4.980934895575046539306640625">
        <ele>319</ele>
        <time>2018-09-08T14:47:42.000Z</time>
      </trkpt>
      <trkpt lat="43.32397065125405788421630859375" lon="-4.9808623082935810089111328125">
        <ele>318.399993896484375</ele>
        <time>2018-09-08T14:47:43.000Z</time>
      </trkpt>
      <trkpt lat="43.3238763548433780670166015625" lon="-4.98071369715034961700439453125">
        <ele>317.20001220703125</ele>
        <time>2018-09-08T14:47:45.000Z</time>
      </trkpt>
      <trkpt lat="43.3237911947071552276611328125" lon="-4.98058654367923736572265625">
        <ele>315.600006103515625</ele>
        <time>2018-09-08T14:47:47.000Z</time>
      </trkpt>
      <trkpt lat="43.32370561547577381134033203125" lon="-4.98042888008058071136474609375">
        <ele>315</ele>
        <time>2018-09-08T14:47:50.000Z</time>
      </trkpt>
      <trkpt lat="43.32369941286742687225341796875" lon="-4.98036794364452362060546875">
        <ele>314.79998779296875</ele>
        <time>2018-09-08T14:47:51.000Z</time>
      </trkpt>
      <trkpt lat="43.32371667958796024322509765625" lon="-4.98030600138008594512939453125">
        <ele>314.600006103515625</ele>
        <time>2018-09-08T14:47:52.000Z</time>
      </trkpt>
      <trkpt lat="43.32378775812685489654541015625" lon="-4.980223439633846282958984375">
        <ele>314.399993896484375</ele>
        <time>2018-09-08T14:47:54.000Z</time>
      </trkpt>
      <trkpt lat="43.32388415001332759857177734375" lon="-4.98016820289194583892822265625">
        <ele>314</ele>
        <time>2018-09-08T14:47:56.000Z</time>
      </trkpt>
      <trkpt lat="43.32393377088010311126708984375" lon="-4.98014054261147975921630859375">
        <ele>314</ele>
        <time>2018-09-08T14:47:57.000Z</time>
      </trkpt>
      <trkpt lat="43.323985822498798370361328125" lon="-4.9801106192171573638916015625">
        <ele>313.79998779296875</ele>
        <time>2018-09-08T14:47:58.000Z</time>
      </trkpt>
      <trkpt lat="43.324039466679096221923828125" lon="-4.9800841324031352996826171875">
        <ele>313.79998779296875</ele>
        <time>2018-09-08T14:47:59.000Z</time>
      </trkpt>
      <trkpt lat="43.3240946196019649505615234375" lon="-4.98006426729261875152587890625">
        <ele>313.600006103515625</ele>
        <time>2018-09-08T14:48:00.000Z</time>
      </trkpt>
      <trkpt lat="43.32420383580029010772705078125" lon="-4.9800445698201656341552734375">
        <ele>313.399993896484375</ele>
        <time>2018-09-08T14:48:02.000Z</time>
      </trkpt>
      <trkpt lat="43.32425731234252452850341796875" lon="-4.9800561368465423583984375">
        <ele>311.600006103515625</ele>
        <time>2018-09-08T14:48:03.000Z</time>
      </trkpt>
      <trkpt lat="43.3243081904947757720947265625" lon="-4.9800727330148220062255859375">
        <ele>311.399993896484375</ele>
        <time>2018-09-08T14:48:04.000Z</time>
      </trkpt>
      <trkpt lat="43.32444238476455211639404296875" lon="-4.98016267083585262298583984375">
        <ele>312.79998779296875</ele>
        <time>2018-09-08T14:48:07.000Z</time>
      </trkpt>
      <trkpt lat="43.32448680885136127471923828125" lon="-4.98019435442984104156494140625">
        <ele>313.600006103515625</ele>
        <time>2018-09-08T14:48:08.000Z</time>
      </trkpt>
      <trkpt lat="43.32452821545302867889404296875" lon="-4.9802283011376857757568359375">
        <ele>314.79998779296875</ele>
        <time>2018-09-08T14:48:09.000Z</time>
      </trkpt>
      <trkpt lat="43.324619494378566741943359375" lon="-4.98029074631631374359130859375">
        <ele>313.399993896484375</ele>
        <time>2018-09-08T14:48:11.000Z</time>
      </trkpt>
      <trkpt lat="43.324807919561862945556640625" lon="-4.980420581996440887451171875">
        <ele>312.20001220703125</ele>
        <time>2018-09-08T14:48:15.000Z</time>
      </trkpt>
      <trkpt lat="43.32485477440059185028076171875" lon="-4.980446733534336090087890625">
        <ele>312</ele>
        <time>2018-09-08T14:48:16.000Z</time>
      </trkpt>
      <trkpt lat="43.3250072412192821502685546875" lon="-4.98053734190762042999267578125">
        <ele>311.399993896484375</ele>
        <time>2018-09-08T14:48:19.000Z</time>
      </trkpt>
      <trkpt lat="43.32505560480058193206787109375" lon="-4.98058243654668331146240234375">
        <ele>311.20001220703125</ele>
        <time>2018-09-08T14:48:20.000Z</time>
      </trkpt>
      <trkpt lat="43.3251416869461536407470703125" lon="-4.9806918203830718994140625">
        <ele>310.79998779296875</ele>
        <time>2018-09-08T14:48:22.000Z</time>
      </trkpt>
      <trkpt lat="43.3251809142529964447021484375" lon="-4.9807432852685451507568359375">
        <ele>310.600006103515625</ele>
        <time>2018-09-08T14:48:23.000Z</time>
      </trkpt>
      <trkpt lat="43.32528610713779926300048828125" lon="-4.98092005960643291473388671875">
        <ele>310</ele>
        <time>2018-09-08T14:48:26.000Z</time>
      </trkpt>
      <trkpt lat="43.32532701082527637481689453125" lon="-4.980988204479217529296875">
        <ele>309.79998779296875</ele>
        <time>2018-09-08T14:48:27.000Z</time>
      </trkpt>
      <trkpt lat="43.32541711628437042236328125" lon="-4.9811375699937343597412109375">
        <ele>309</ele>
        <time>2018-09-08T14:48:29.000Z</time>
      </trkpt>
      <trkpt lat="43.32553002052009105682373046875" lon="-4.9813709221780300140380859375">
        <ele>308</ele>
        <time>2018-09-08T14:48:32.000Z</time>
      </trkpt>
      <trkpt lat="43.32556086592376232147216796875" lon="-4.9814470298588275909423828125">
        <ele>307.79998779296875</ele>
        <time>2018-09-08T14:48:33.000Z</time>
      </trkpt>
      <trkpt lat="43.32568760029971599578857421875" lon="-4.98179881833493709564208984375">
        <ele>306.600006103515625</ele>
        <time>2018-09-08T14:48:38.000Z</time>
      </trkpt>
      <trkpt lat="43.32584417425096035003662109375" lon="-4.982107691466808319091796875">
        <ele>305.79998779296875</ele>
        <time>2018-09-08T14:48:43.000Z</time>
      </trkpt>
      <trkpt lat="43.32588675431907176971435546875" lon="-4.98216242529451847076416015625">
        <ele>305.399993896484375</ele>
        <time>2018-09-08T14:48:44.000Z</time>
      </trkpt>
      <trkpt lat="43.32605724222958087921142578125" lon="-4.98239728622138500213623046875">
        <ele>304.399993896484375</ele>
        <time>2018-09-08T14:48:48.000Z</time>
      </trkpt>
      <trkpt lat="43.32614977844059467315673828125" lon="-4.98251362703740596771240234375">
        <ele>304.20001220703125</ele>
        <time>2018-09-08T14:48:50.000Z</time>
      </trkpt>
      <trkpt lat="43.32631557248532772064208984375" lon="-4.982642121613025665283203125">
        <ele>303.20001220703125</ele>
        <time>2018-09-08T14:48:53.000Z</time>
      </trkpt>
      <trkpt lat="43.326385058462619781494140625" lon="-4.9826392717659473419189453125">
        <ele>302.79998779296875</ele>
        <time>2018-09-08T14:48:54.000Z</time>
      </trkpt>
      <trkpt lat="43.3265277184545993804931640625" lon="-4.98258990235626697540283203125">
        <ele>302.20001220703125</ele>
        <time>2018-09-08T14:48:56.000Z</time>
      </trkpt>
      <trkpt lat="43.326596952974796295166015625" lon="-4.98256760649383068084716796875">
        <ele>301.600006103515625</ele>
        <time>2018-09-08T14:48:57.000Z</time>
      </trkpt>
      <trkpt lat="43.32666643895208835601806640625" lon="-4.98253324069082736968994140625">
        <ele>301</ele>
        <time>2018-09-08T14:48:58.000Z</time>
      </trkpt>
      <trkpt lat="43.32695695571601390838623046875" lon="-4.98240508139133453369140625">
        <ele>299.79998779296875</ele>
        <time>2018-09-08T14:49:02.000Z</time>
      </trkpt>
      <trkpt lat="43.327034823596477508544921875" lon="-4.98240030370652675628662109375">
        <ele>299.600006103515625</ele>
        <time>2018-09-08T14:49:03.000Z</time>
      </trkpt>
      <trkpt lat="43.3272619731724262237548828125" lon="-4.98249501921236515045166015625">
        <ele>298.20001220703125</ele>
        <time>2018-09-08T14:49:06.000Z</time>
      </trkpt>
      <trkpt lat="43.3274272643029689788818359375" lon="-4.98273943550884723663330078125">
        <ele>297.399993896484375</ele>
        <time>2018-09-08T14:49:09.000Z</time>
      </trkpt>
      <trkpt lat="43.3274795673787593841552734375" lon="-4.9828349053859710693359375">
        <ele>296.79998779296875</ele>
        <time>2018-09-08T14:49:10.000Z</time>
      </trkpt>
      <trkpt lat="43.32758761011064052581787109375" lon="-4.98301126062870025634765625">
        <ele>295.600006103515625</ele>
        <time>2018-09-08T14:49:12.000Z</time>
      </trkpt>
      <trkpt lat="43.327659778296947479248046875" lon="-4.98306750319898128509521484375">
        <ele>295</ele>
        <time>2018-09-08T14:49:13.000Z</time>
      </trkpt>
      <trkpt lat="43.3278262428939342498779296875" lon="-4.9830858595669269561767578125">
        <ele>294.600006103515625</ele>
        <time>2018-09-08T14:49:15.000Z</time>
      </trkpt>
      <trkpt lat="43.327906541526317596435546875" lon="-4.9830939061939716339111328125">
        <ele>294.79998779296875</ele>
        <time>2018-09-08T14:49:16.000Z</time>
      </trkpt>
      <trkpt lat="43.32797854207456111907958984375" lon="-4.9831167049705982208251953125">
        <ele>295</ele>
        <time>2018-09-08T14:49:17.000Z</time>
      </trkpt>
      <trkpt lat="43.32809790037572383880615234375" lon="-4.9832229875028133392333984375">
        <ele>295.20001220703125</ele>
        <time>2018-09-08T14:49:19.000Z</time>
      </trkpt>
      <trkpt lat="43.32819730974733829498291015625" lon="-4.9833178706467151641845703125">
        <ele>295.79998779296875</ele>
        <time>2018-09-08T14:49:21.000Z</time>
      </trkpt>
      <trkpt lat="43.32830241881310939788818359375" lon="-4.98337813653051853179931640625">
        <ele>297</ele>
        <time>2018-09-08T14:49:23.000Z</time>
      </trkpt>
      <trkpt lat="43.32835681736469268798828125" lon="-4.983391463756561279296875">
        <ele>297.20001220703125</ele>
        <time>2018-09-08T14:49:24.000Z</time>
      </trkpt>
      <trkpt lat="43.32861439324915409088134765625" lon="-4.98344602994620800018310546875">
        <ele>297.20001220703125</ele>
        <time>2018-09-08T14:49:29.000Z</time>
      </trkpt>
      <trkpt lat="43.32871765829622745513916015625" lon="-4.98346681706607341766357421875">
        <ele>297</ele>
        <time>2018-09-08T14:49:31.000Z</time>
      </trkpt>
      <trkpt lat="43.32882612012326717376708984375" lon="-4.9834801442921161651611328125">
        <ele>296.79998779296875</ele>
        <time>2018-09-08T14:49:33.000Z</time>
      </trkpt>
      <trkpt lat="43.3289933390915393829345703125" lon="-4.9835123308002948760986328125">
        <ele>296.399993896484375</ele>
        <time>2018-09-08T14:49:36.000Z</time>
      </trkpt>
      <trkpt lat="43.3291147090494632720947265625" lon="-4.98353923670947551727294921875">
        <ele>296</ele>
        <time>2018-09-08T14:49:38.000Z</time>
      </trkpt>
      <trkpt lat="43.32917765714228153228759765625" lon="-4.983546696603298187255859375">
        <ele>295.79998779296875</ele>
        <time>2018-09-08T14:49:39.000Z</time>
      </trkpt>
      <trkpt lat="43.3293661661446094512939453125" lon="-4.9835817329585552215576171875">
        <ele>295.20001220703125</ele>
        <time>2018-09-08T14:49:42.000Z</time>
      </trkpt>
      <trkpt lat="43.32949005067348480224609375" lon="-4.98360025696456432342529296875">
        <ele>294.79998779296875</ele>
        <time>2018-09-08T14:49:44.000Z</time>
      </trkpt>
      <trkpt lat="43.329618461430072784423828125" lon="-4.9836194515228271484375">
        <ele>294.600006103515625</ele>
        <time>2018-09-08T14:49:46.000Z</time>
      </trkpt>
      <trkpt lat="43.3298761211335659027099609375" lon="-4.98368927277624607086181640625">
        <ele>293.79998779296875</ele>
        <time>2018-09-08T14:49:50.000Z</time>
      </trkpt>
      <trkpt lat="43.32998718135058879852294921875" lon="-4.98377845622599124908447265625">
        <ele>293.600006103515625</ele>
        <time>2018-09-08T14:49:52.000Z</time>
      </trkpt>
      <trkpt lat="43.33003479056060314178466796875" lon="-4.9838385544717311859130859375">
        <ele>293.399993896484375</ele>
        <time>2018-09-08T14:49:53.000Z</time>
      </trkpt>
      <trkpt lat="43.33008684217929840087890625" lon="-4.9838918633759021759033203125">
        <ele>293.20001220703125</ele>
        <time>2018-09-08T14:49:54.000Z</time>
      </trkpt>
      <trkpt lat="43.3302482776343822479248046875" lon="-4.98404198326170444488525390625">
        <ele>292.399993896484375</ele>
        <time>2018-09-08T14:49:57.000Z</time>
      </trkpt>
      <trkpt lat="43.330342657864093780517578125" lon="-4.98415379785001277923583984375">
        <ele>291.79998779296875</ele>
        <time>2018-09-08T14:49:59.000Z</time>
      </trkpt>
      <trkpt lat="43.33042521961033344268798828125" lon="-4.98428941704332828521728515625">
        <ele>291.399993896484375</ele>
        <time>2018-09-08T14:50:01.000Z</time>
      </trkpt>
      <trkpt lat="43.33045824430882930755615234375" lon="-4.98435161076486110687255859375">
        <ele>291.399993896484375</ele>
        <time>2018-09-08T14:50:02.000Z</time>
      </trkpt>
      <trkpt lat="43.33060224540531635284423828125" lon="-4.98461010865867137908935546875">
        <ele>290.600006103515625</ele>
        <time>2018-09-08T14:50:06.000Z</time>
      </trkpt>
      <trkpt lat="43.33064683713018894195556640625" lon="-4.98466014862060546875">
        <ele>290.20001220703125</ele>
        <time>2018-09-08T14:50:07.000Z</time>
      </trkpt>
      <trkpt lat="43.330765776336193084716796875" lon="-4.9846864677965641021728515625">
        <ele>289.399993896484375</ele>
        <time>2018-09-08T14:50:09.000Z</time>
      </trkpt>
      <trkpt lat="43.33082369528710842132568359375" lon="-4.98466006480157375335693359375">
        <ele>288.600006103515625</ele>
        <time>2018-09-08T14:50:10.000Z</time>
      </trkpt>
      <trkpt lat="43.3309134654700756072998046875" lon="-4.98453265987336635589599609375">
        <ele>287.79998779296875</ele>
        <time>2018-09-08T14:50:12.000Z</time>
      </trkpt>
      <trkpt lat="43.33095319569110870361328125" lon="-4.98446593992412090301513671875">
        <ele>287.20001220703125</ele>
        <time>2018-09-08T14:50:13.000Z</time>
      </trkpt>
      <trkpt lat="43.33105168305337429046630859375" lon="-4.98433669097721576690673828125">
        <ele>286.20001220703125</ele>
        <time>2018-09-08T14:50:15.000Z</time>
      </trkpt>
      <trkpt lat="43.33109878934919834136962890625" lon="-4.98425404541194438934326171875">
        <ele>285.600006103515625</ele>
        <time>2018-09-08T14:50:16.000Z</time>
      </trkpt>
      <trkpt lat="43.33114589564502239227294921875" lon="-4.98417207039892673492431640625">
        <ele>285</ele>
        <time>2018-09-08T14:50:17.000Z</time>
      </trkpt>
      <trkpt lat="43.33123474381864070892333984375" lon="-4.98400795273482799530029296875">
        <ele>284</ele>
        <time>2018-09-08T14:50:19.000Z</time>
      </trkpt>
      <trkpt lat="43.33131386898458003997802734375" lon="-4.98382321558892726898193359375">
        <ele>283</ele>
        <time>2018-09-08T14:50:21.000Z</time>
      </trkpt>
      <trkpt lat="43.33140380680561065673828125" lon="-4.98364233411848545074462890625">
        <ele>281.600006103515625</ele>
        <time>2018-09-08T14:50:23.000Z</time>
      </trkpt>
      <trkpt lat="43.3314929902553558349609375" lon="-4.9834700860083103179931640625">
        <ele>280.600006103515625</ele>
        <time>2018-09-08T14:50:25.000Z</time>
      </trkpt>
      <trkpt lat="43.33160220645368099212646484375" lon="-4.983316361904144287109375">
        <ele>279.399993896484375</ele>
        <time>2018-09-08T14:50:27.000Z</time>
      </trkpt>
      <trkpt lat="43.33166641183197498321533203125" lon="-4.9832484684884548187255859375">
        <ele>278.79998779296875</ele>
        <time>2018-09-08T14:50:28.000Z</time>
      </trkpt>
      <trkpt lat="43.3317355625331401824951171875" lon="-4.9831881187856197357177734375">
        <ele>278</ele>
        <time>2018-09-08T14:50:29.000Z</time>
      </trkpt>
      <trkpt lat="43.33187059499323368072509765625" lon="-4.98306892812252044677734375">
        <ele>276.79998779296875</ele>
        <time>2018-09-08T14:50:31.000Z</time>
      </trkpt>
      <trkpt lat="43.33200059831142425537109375" lon="-4.98294554650783538818359375">
        <ele>275.600006103515625</ele>
        <time>2018-09-08T14:50:33.000Z</time>
      </trkpt>
      <trkpt lat="43.33206471987068653106689453125" lon="-4.98288310132920742034912109375">
        <ele>274.600006103515625</ele>
        <time>2018-09-08T14:50:34.000Z</time>
      </trkpt>
      <trkpt lat="43.33220737986266613006591796875" lon="-4.982761479914188385009765625">
        <ele>273.20001220703125</ele>
        <time>2018-09-08T14:50:36.000Z</time>
      </trkpt>
      <trkpt lat="43.3323363773524761199951171875" lon="-4.9826050736010074615478515625">
        <ele>271.600006103515625</ele>
        <time>2018-09-08T14:50:38.000Z</time>
      </trkpt>
      <trkpt lat="43.33236060105264186859130859375" lon="-4.98247993178665637969970703125">
        <ele>271</ele>
        <time>2018-09-08T14:50:39.000Z</time>
      </trkpt>
      <trkpt lat="43.33236278034746646881103515625" lon="-4.9823482520878314971923828125">
        <ele>270.399993896484375</ele>
        <time>2018-09-08T14:50:40.000Z</time>
      </trkpt>
      <trkpt lat="43.3323633670806884765625" lon="-4.982094280421733856201171875">
        <ele>269.20001220703125</ele>
        <time>2018-09-08T14:50:42.000Z</time>
      </trkpt>
      <trkpt lat="43.332378454506397247314453125" lon="-4.9819774366915225982666015625">
        <ele>268.600006103515625</ele>
        <time>2018-09-08T14:50:43.000Z</time>
      </trkpt>
      <trkpt lat="43.332393877208232879638671875" lon="-4.98185749165713787078857421875">
        <ele>267.79998779296875</ele>
        <time>2018-09-08T14:50:44.000Z</time>
      </trkpt>
      <trkpt lat="43.33242229185998439788818359375" lon="-4.98161391355097293853759765625">
        <ele>266.20001220703125</ele>
        <time>2018-09-08T14:50:46.000Z</time>
      </trkpt>
      <trkpt lat="43.33243645727634429931640625" lon="-4.98149505816400051116943359375">
        <ele>265.399993896484375</ele>
        <time>2018-09-08T14:50:47.000Z</time>
      </trkpt>
      <trkpt lat="43.3324517123401165008544921875" lon="-4.9813722632825374603271484375">
        <ele>264.600006103515625</ele>
        <time>2018-09-08T14:50:48.000Z</time>
      </trkpt>
      <trkpt lat="43.3325036801397800445556640625" lon="-4.9811258353292942047119140625">
        <ele>263.399993896484375</ele>
        <time>2018-09-08T14:50:50.000Z</time>
      </trkpt>
      <trkpt lat="43.33257014863193035125732421875" lon="-4.98087865300476551055908203125">
        <ele>262.20001220703125</ele>
        <time>2018-09-08T14:50:52.000Z</time>
      </trkpt>
      <trkpt lat="43.3326525427401065826416015625" lon="-4.98065619729459285736083984375">
        <ele>260.399993896484375</ele>
        <time>2018-09-08T14:50:54.000Z</time>
      </trkpt>
      <trkpt lat="43.3327041752636432647705078125" lon="-4.9805577099323272705078125">
        <ele>259.399993896484375</ele>
        <time>2018-09-08T14:50:55.000Z</time>
      </trkpt>
      <trkpt lat="43.3327665366232395172119140625" lon="-4.980449415743350982666015625">
        <ele>258.600006103515625</ele>
        <time>2018-09-08T14:50:56.000Z</time>
      </trkpt>
      <trkpt lat="43.3329304866492748260498046875" lon="-4.98021849431097507476806640625">
        <ele>255.8000030517578125</ele>
        <time>2018-09-08T14:50:58.000Z</time>
      </trkpt>
      <trkpt lat="43.33301438950002193450927734375" lon="-4.980102740228176116943359375">
        <ele>254.600006103515625</ele>
        <time>2018-09-08T14:50:59.000Z</time>
      </trkpt>
      <trkpt lat="43.33316409029066562652587890625" lon="-4.9798833020031452178955078125">
        <ele>253.399993896484375</ele>
        <time>2018-09-08T14:51:01.000Z</time>
      </trkpt>
      <trkpt lat="43.33324472419917583465576171875" lon="-4.979789257049560546875">
        <ele>252.8000030517578125</ele>
        <time>2018-09-08T14:51:02.000Z</time>
      </trkpt>
      <trkpt lat="43.33331580273807048797607421875" lon="-4.979700744152069091796875">
        <ele>252</ele>
        <time>2018-09-08T14:51:03.000Z</time>
      </trkpt>
      <trkpt lat="43.3334448002278804779052734375" lon="-4.97953503392636775970458984375">
        <ele>250.399993896484375</ele>
        <time>2018-09-08T14:51:05.000Z</time>
      </trkpt>
      <trkpt lat="43.33354957401752471923828125" lon="-4.9793663062155246734619140625">
        <ele>249</ele>
        <time>2018-09-08T14:51:07.000Z</time>
      </trkpt>
      <trkpt lat="43.3336271904408931732177734375" lon="-4.97917997650802135467529296875">
        <ele>247.600006103515625</ele>
        <time>2018-09-08T14:51:09.000Z</time>
      </trkpt>
      <trkpt lat="43.333682008087635040283203125" lon="-4.97910973615944385528564453125">
        <ele>247</ele>
        <time>2018-09-08T14:51:10.000Z</time>
      </trkpt>
      <trkpt lat="43.33376373164355754852294921875" lon="-4.979070760309696197509765625">
        <ele>246.1999969482421875</ele>
        <time>2018-09-08T14:51:11.000Z</time>
      </trkpt>
      <trkpt lat="43.33384889177978038787841796875" lon="-4.97906782664358615875244140625">
        <ele>245.600006103515625</ele>
        <time>2018-09-08T14:51:12.000Z</time>
      </trkpt>
      <trkpt lat="43.333919048309326171875" lon="-4.979072771966457366943359375">
        <ele>245</ele>
        <time>2018-09-08T14:51:13.000Z</time>
      </trkpt>
      <trkpt lat="43.33403463475406169891357421875" lon="-4.97902390547096729278564453125">
        <ele>244.1999969482421875</ele>
        <time>2018-09-08T14:51:15.000Z</time>
      </trkpt>
      <trkpt lat="43.3340705931186676025390625" lon="-4.97895316220819950103759765625">
        <ele>243.600006103515625</ele>
        <time>2018-09-08T14:51:16.000Z</time>
      </trkpt>
      <trkpt lat="43.334089703857898712158203125" lon="-4.97885040007531642913818359375">
        <ele>242.600006103515625</ele>
        <time>2018-09-08T14:51:17.000Z</time>
      </trkpt>
      <trkpt lat="43.33409297280013561248779296875" lon="-4.978732801973819732666015625">
        <ele>241.8000030517578125</ele>
        <time>2018-09-08T14:51:18.000Z</time>
      </trkpt>
      <trkpt lat="43.33407805301249027252197265625" lon="-4.97850925661623477935791015625">
        <ele>240.1999969482421875</ele>
        <time>2018-09-08T14:51:20.000Z</time>
      </trkpt>
      <trkpt lat="43.33403161726891994476318359375" lon="-4.9783048219978809356689453125">
        <ele>238</ele>
        <time>2018-09-08T14:51:22.000Z</time>
      </trkpt>
      <trkpt lat="43.33400261588394641876220703125" lon="-4.9782018922269344329833984375">
        <ele>237.399993896484375</ele>
        <time>2018-09-08T14:51:23.000Z</time>
      </trkpt>
      <trkpt lat="43.333980403840541839599609375" lon="-4.9781073443591594696044921875">
        <ele>237</ele>
        <time>2018-09-08T14:51:24.000Z</time>
      </trkpt>
      <trkpt lat="43.33396456204354763031005859375" lon="-4.978002570569515228271484375">
        <ele>236.399993896484375</ele>
        <time>2018-09-08T14:51:25.000Z</time>
      </trkpt>
      <trkpt lat="43.3339550904929637908935546875" lon="-4.97789922170341014862060546875">
        <ele>235.8000030517578125</ele>
        <time>2018-09-08T14:51:26.000Z</time>
      </trkpt>
      <trkpt lat="43.33393958397209644317626953125" lon="-4.9776798672974109649658203125">
        <ele>234.600006103515625</ele>
        <time>2018-09-08T14:51:28.000Z</time>
      </trkpt>
      <trkpt lat="43.33394293673336505889892578125" lon="-4.97745850123465061187744140625">
        <ele>233</ele>
        <time>2018-09-08T14:51:30.000Z</time>
      </trkpt>
      <trkpt lat="43.3339520730078220367431640625" lon="-4.97720830142498016357421875">
        <ele>231.600006103515625</ele>
        <time>2018-09-08T14:51:32.000Z</time>
      </trkpt>
      <trkpt lat="43.33395366556942462921142578125" lon="-4.97708215378224849700927734375">
        <ele>230.8000030517578125</ele>
        <time>2018-09-08T14:51:33.000Z</time>
      </trkpt>
      <trkpt lat="43.3339591138064861297607421875" lon="-4.97695349156856536865234375">
        <ele>230</ele>
        <time>2018-09-08T14:51:34.000Z</time>
      </trkpt>
      <trkpt lat="43.3339909650385379791259765625" lon="-4.9767015315592288970947265625">
        <ele>228.1999969482421875</ele>
        <time>2018-09-08T14:51:36.000Z</time>
      </trkpt>
      <trkpt lat="43.33402675576508045196533203125" lon="-4.9764420278370380401611328125">
        <ele>227</ele>
        <time>2018-09-08T14:51:38.000Z</time>
      </trkpt>
      <trkpt lat="43.33403731696307659149169921875" lon="-4.97618260793387889862060546875">
        <ele>225.600006103515625</ele>
        <time>2018-09-08T14:51:40.000Z</time>
      </trkpt>
      <trkpt lat="43.33405273966491222381591796875" lon="-4.97591019608080387115478515625">
        <ele>223.600006103515625</ele>
        <time>2018-09-08T14:51:42.000Z</time>
      </trkpt>
      <trkpt lat="43.33406145684421062469482421875" lon="-4.97576837427914142608642578125">
        <ele>222.8000030517578125</ele>
        <time>2018-09-08T14:51:43.000Z</time>
      </trkpt>
      <trkpt lat="43.3340731076896190643310546875" lon="-4.975629150867462158203125">
        <ele>222</ele>
        <time>2018-09-08T14:51:44.000Z</time>
      </trkpt>
      <trkpt lat="43.33408945240080356597900390625" lon="-4.9753621034324169158935546875">
        <ele>219.8000030517578125</ele>
        <time>2018-09-08T14:51:46.000Z</time>
      </trkpt>
      <trkpt lat="43.33412767387926578521728515625" lon="-4.97510469518601894378662109375">
        <ele>218.600006103515625</ele>
        <time>2018-09-08T14:51:48.000Z</time>
      </trkpt>
      <trkpt lat="43.3341700024902820587158203125" lon="-4.97499640099704265594482421875">
        <ele>217.8000030517578125</ele>
        <time>2018-09-08T14:51:49.000Z</time>
      </trkpt>
      <trkpt lat="43.3342122472822666168212890625" lon="-4.97489623725414276123046875">
        <ele>217.1999969482421875</ele>
        <time>2018-09-08T14:51:50.000Z</time>
      </trkpt>
      <trkpt lat="43.33426815457642078399658203125" lon="-4.9747104942798614501953125">
        <ele>216</ele>
        <time>2018-09-08T14:51:52.000Z</time>
      </trkpt>
      <trkpt lat="43.33426681347191333770751953125" lon="-4.97460815124213695526123046875">
        <ele>215.399993896484375</ele>
        <time>2018-09-08T14:51:53.000Z</time>
      </trkpt>
      <trkpt lat="43.33425574935972690582275390625" lon="-4.97450337745249271392822265625">
        <ele>214.600006103515625</ele>
        <time>2018-09-08T14:51:54.000Z</time>
      </trkpt>
      <trkpt lat="43.3342249877750873565673828125" lon="-4.9742942489683628082275390625">
        <ele>213.1999969482421875</ele>
        <time>2018-09-08T14:51:56.000Z</time>
      </trkpt>
      <trkpt lat="43.33419523201882839202880859375" lon="-4.97419542632997035980224609375">
        <ele>212.600006103515625</ele>
        <time>2018-09-08T14:51:57.000Z</time>
      </trkpt>
      <trkpt lat="43.33415818400681018829345703125" lon="-4.97410255484282970428466796875">
        <ele>212</ele>
        <time>2018-09-08T14:51:58.000Z</time>
      </trkpt>
      <trkpt lat="43.33406128920614719390869140625" lon="-4.97394782491028308868408203125">
        <ele>210.8000030517578125</ele>
        <time>2018-09-08T14:52:00.000Z</time>
      </trkpt>
      <trkpt lat="43.3339916355907917022705078125" lon="-4.9738979525864124298095703125">
        <ele>210.399993896484375</ele>
        <time>2018-09-08T14:52:01.000Z</time>
      </trkpt>
      <trkpt lat="43.33391477353870868682861328125" lon="-4.97386626899242401123046875">
        <ele>209.8000030517578125</ele>
        <time>2018-09-08T14:52:02.000Z</time>
      </trkpt>
      <trkpt lat="43.3337433636188507080078125" lon="-4.97387322597205638885498046875">
        <ele>208.1999969482421875</ele>
        <time>2018-09-08T14:52:04.000Z</time>
      </trkpt>
      <trkpt lat="43.333582095801830291748046875" lon="-4.97398051433265209197998046875">
        <ele>206.399993896484375</ele>
        <time>2018-09-08T14:52:06.000Z</time>
      </trkpt>
      <trkpt lat="43.33352618850767612457275390625" lon="-4.974069781601428985595703125">
        <ele>205.8000030517578125</ele>
        <time>2018-09-08T14:52:07.000Z</time>
      </trkpt>
      <trkpt lat="43.33348042331635951995849609375" lon="-4.9741453863680362701416015625">
        <ele>205.1999969482421875</ele>
        <time>2018-09-08T14:52:08.000Z</time>
      </trkpt>
      <trkpt lat="43.33343692123889923095703125" lon="-4.97420833446085453033447265625">
        <ele>205</ele>
        <time>2018-09-08T14:52:09.000Z</time>
      </trkpt>
      <trkpt lat="43.3333904854953289031982421875" lon="-4.97426600195467472076416015625">
        <ele>204.1999969482421875</ele>
        <time>2018-09-08T14:52:10.000Z</time>
      </trkpt>
      <trkpt lat="43.3333383500576019287109375" lon="-4.97430053539574146270751953125">
        <ele>203.8000030517578125</ele>
        <time>2018-09-08T14:52:11.000Z</time>
      </trkpt>
      <trkpt lat="43.33323097787797451019287109375" lon="-4.97421051375567913055419921875">
        <ele>202.600006103515625</ele>
        <time>2018-09-08T14:52:13.000Z</time>
      </trkpt>
      <trkpt lat="43.33328043110668659210205078125" lon="-4.9740297161042690277099609375">
        <ele>201.1999969482421875</ele>
        <time>2018-09-08T14:52:15.000Z</time>
      </trkpt>
      <trkpt lat="43.3334179781377315521240234375" lon="-4.97390239499509334564208984375">
        <ele>200</ele>
        <time>2018-09-08T14:52:17.000Z</time>
      </trkpt>
      <trkpt lat="43.33348545245826244354248046875" lon="-4.973832406103610992431640625">
        <ele>199.600006103515625</ele>
        <time>2018-09-08T14:52:18.000Z</time>
      </trkpt>
      <trkpt lat="43.33355150185525417327880859375" lon="-4.9737581424415111541748046875">
        <ele>199</ele>
        <time>2018-09-08T14:52:19.000Z</time>
      </trkpt>
      <trkpt lat="43.3336918987333774566650390625" lon="-4.9736357666552066802978515625">
        <ele>197.8000030517578125</ele>
        <time>2018-09-08T14:52:21.000Z</time>
      </trkpt>
      <trkpt lat="43.3337653242051601409912109375" lon="-4.97358790598809719085693359375">
        <ele>197.1999969482421875</ele>
        <time>2018-09-08T14:52:22.000Z</time>
      </trkpt>
      <trkpt lat="43.33384201861917972564697265625" lon="-4.97352789156138896942138671875">
        <ele>196.399993896484375</ele>
        <time>2018-09-08T14:52:23.000Z</time>
      </trkpt>
      <trkpt lat="43.3339255861937999725341796875" lon="-4.97349738143384456634521484375">
        <ele>195.600006103515625</ele>
        <time>2018-09-08T14:52:24.000Z</time>
      </trkpt>
      <trkpt lat="43.3340080641210079193115234375" lon="-4.97347692959010601043701171875">
        <ele>194.8000030517578125</ele>
        <time>2018-09-08T14:52:25.000Z</time>
      </trkpt>
      <trkpt lat="43.33410101942718029022216796875" lon="-4.97347609139978885650634765625">
        <ele>194.1999969482421875</ele>
        <time>2018-09-08T14:52:26.000Z</time>
      </trkpt>
      <trkpt lat="43.3341810666024684906005859375" lon="-4.9735164083540439605712890625">
        <ele>193.600006103515625</ele>
        <time>2018-09-08T14:52:27.000Z</time>
      </trkpt>
      <trkpt lat="43.3342598564922809600830078125" lon="-4.9736015684902667999267578125">
        <ele>193</ele>
        <time>2018-09-08T14:52:28.000Z</time>
      </trkpt>
      <trkpt lat="43.3343336172401905059814453125" lon="-4.97369301505386829376220703125">
        <ele>192.1999969482421875</ele>
        <time>2018-09-08T14:52:29.000Z</time>
      </trkpt>
      <trkpt lat="43.33441165275871753692626953125" lon="-4.97376744635403156280517578125">
        <ele>191.399993896484375</ele>
        <time>2018-09-08T14:52:30.000Z</time>
      </trkpt>
      <trkpt lat="43.33448323421180248260498046875" lon="-4.973832070827484130859375">
        <ele>190.399993896484375</ele>
        <time>2018-09-08T14:52:31.000Z</time>
      </trkpt>
      <trkpt lat="43.3345507085323333740234375" lon="-4.9739043228328227996826171875">
        <ele>189.8000030517578125</ele>
        <time>2018-09-08T14:52:32.000Z</time>
      </trkpt>
      <trkpt lat="43.33461382426321506500244140625" lon="-4.9739733897149562835693359375">
        <ele>189.1999969482421875</ele>
        <time>2018-09-08T14:52:33.000Z</time>
      </trkpt>
      <trkpt lat="43.33467534743249416351318359375" lon="-4.9740421213209629058837890625">
        <ele>188</ele>
        <time>2018-09-08T14:52:34.000Z</time>
      </trkpt>
      <trkpt lat="43.3348070271313190460205078125" lon="-4.97417413629591464996337890625">
        <ele>186.600006103515625</ele>
        <time>2018-09-08T14:52:36.000Z</time>
      </trkpt>
      <trkpt lat="43.33488673903048038482666015625" lon="-4.97421990148723125457763671875">
        <ele>185.8000030517578125</ele>
        <time>2018-09-08T14:52:37.000Z</time>
      </trkpt>
      <trkpt lat="43.33495882339775562286376953125" lon="-4.97424940578639507293701171875">
        <ele>185.1999969482421875</ele>
        <time>2018-09-08T14:52:38.000Z</time>
      </trkpt>
      <trkpt lat="43.33514590747654438018798828125" lon="-4.9742687679827213287353515625">
        <ele>183.8000030517578125</ele>
        <time>2018-09-08T14:52:41.000Z</time>
      </trkpt>
      <trkpt lat="43.33528856746852397918701171875" lon="-4.97428930364549160003662109375">
        <ele>182.600006103515625</ele>
        <time>2018-09-08T14:52:44.000Z</time>
      </trkpt>
      <trkpt lat="43.33533701486885547637939453125" lon="-4.9742947518825531005859375">
        <ele>182.1999969482421875</ele>
        <time>2018-09-08T14:52:45.000Z</time>
      </trkpt>
      <trkpt lat="43.33543256856501102447509765625" lon="-4.9743103422224521636962890625">
        <ele>181.1999969482421875</ele>
        <time>2018-09-08T14:52:47.000Z</time>
      </trkpt>
      <trkpt lat="43.3355592191219329833984375" lon="-4.97432031668722629547119140625">
        <ele>180</ele>
        <time>2018-09-08T14:52:49.000Z</time>
      </trkpt>
      <trkpt lat="43.33567581139504909515380859375" lon="-4.9743217416107654571533203125">
        <ele>179</ele>
        <time>2018-09-08T14:52:51.000Z</time>
      </trkpt>
      <trkpt lat="43.33581059239804744720458984375" lon="-4.97435032390058040618896484375">
        <ele>178</ele>
        <time>2018-09-08T14:52:54.000Z</time>
      </trkpt>
      <trkpt lat="43.3359114266932010650634765625" lon="-4.9743591248989105224609375">
        <ele>176.8000030517578125</ele>
        <time>2018-09-08T14:52:58.000Z</time>
      </trkpt>
      <trkpt lat="43.3359499834477901458740234375" lon="-4.9743564426898956298828125">
        <ele>176.600006103515625</ele>
        <time>2018-09-08T14:53:00.000Z</time>
      </trkpt>
      <trkpt lat="43.3359462954103946685791015625" lon="-4.974361471831798553466796875">
        <ele>176.399993896484375</ele>
        <time>2018-09-08T14:53:02.000Z</time>
      </trkpt>
      <trkpt lat="43.3359803259372711181640625" lon="-4.97436976991593837738037109375">
        <ele>176.399993896484375</ele>
        <time>2018-09-08T14:53:17.000Z</time>
      </trkpt>
      <trkpt lat="43.3360326290130615234375" lon="-4.97441033832728862762451171875">
        <ele>176.399993896484375</ele>
        <time>2018-09-08T14:53:19.000Z</time>
      </trkpt>
      <trkpt lat="43.3360783942043781280517578125" lon="-4.97448242269456386566162109375">
        <ele>176.1999969482421875</ele>
        <time>2018-09-08T14:53:21.000Z</time>
      </trkpt>
      <trkpt lat="43.33612424321472644805908203125" lon="-4.97456255368888378143310546875">
        <ele>176.399993896484375</ele>
        <time>2018-09-08T14:53:23.000Z</time>
      </trkpt>
      <trkpt lat="43.3361451141536235809326171875" lon="-4.97460848651826381683349609375">
        <ele>176.600006103515625</ele>
        <time>2018-09-08T14:53:24.000Z</time>
      </trkpt>
      <trkpt lat="43.33616632036864757537841796875" lon="-4.97466129250824451446533203125">
        <ele>176.600006103515625</ele>
        <time>2018-09-08T14:53:25.000Z</time>
      </trkpt>
      <trkpt lat="43.33619113080203533172607421875" lon="-4.974708817899227142333984375">
        <ele>176.600006103515625</ele>
        <time>2018-09-08T14:53:26.000Z</time>
      </trkpt>
      <trkpt lat="43.33620755933225154876708984375" lon="-4.97476723976433277130126953125">
        <ele>176.8000030517578125</ele>
        <time>2018-09-08T14:53:27.000Z</time>
      </trkpt>
      <trkpt lat="43.3362443558871746063232421875" lon="-4.9748970754444599151611328125">
        <ele>177</ele>
        <time>2018-09-08T14:53:29.000Z</time>
      </trkpt>
      <trkpt lat="43.336256928741931915283203125" lon="-4.974967651069164276123046875">
        <ele>177</ele>
        <time>2018-09-08T14:53:30.000Z</time>
      </trkpt>
      <trkpt lat="43.3362845890223979949951171875" lon="-4.9752393923699855804443359375">
        <ele>177.8000030517578125</ele>
        <time>2018-09-08T14:53:34.000Z</time>
      </trkpt>
      <trkpt lat="43.33629791624844074249267578125" lon="-4.97536855749785900115966796875">
        <ele>178</ele>
        <time>2018-09-08T14:53:36.000Z</time>
      </trkpt>
      <trkpt lat="43.33633144386112689971923828125" lon="-4.9756822921335697174072265625">
        <ele>178.399993896484375</ele>
        <time>2018-09-08T14:53:41.000Z</time>
      </trkpt>
      <trkpt lat="43.336336053907871246337890625" lon="-4.97574440203607082366943359375">
        <ele>178.399993896484375</ele>
        <time>2018-09-08T14:53:42.000Z</time>
      </trkpt>
      <trkpt lat="43.33635876886546611785888671875" lon="-4.97597515583038330078125">
        <ele>179</ele>
        <time>2018-09-08T14:53:46.000Z</time>
      </trkpt>
      <trkpt lat="43.336378969252109527587890625" lon="-4.9761466495692729949951171875">
        <ele>179.1999969482421875</ele>
        <time>2018-09-08T14:53:49.000Z</time>
      </trkpt>
      <trkpt lat="43.33640486933290958404541015625" lon="-4.97650153934955596923828125">
        <ele>179.600006103515625</ele>
        <time>2018-09-08T14:53:55.000Z</time>
      </trkpt>
      <trkpt lat="43.33643739111721515655517578125" lon="-4.97685165144503116607666015625">
        <ele>180</ele>
        <time>2018-09-08T14:54:01.000Z</time>
      </trkpt>
      <trkpt lat="43.33644007332623004913330078125" lon="-4.97690856456756591796875">
        <ele>180</ele>
        <time>2018-09-08T14:54:02.000Z</time>
      </trkpt>
      <trkpt lat="43.336485587060451507568359375" lon="-4.977383315563201904296875">
        <ele>181</ele>
        <time>2018-09-08T14:54:10.000Z</time>
      </trkpt>
      <trkpt lat="43.33649061620235443115234375" lon="-4.97744089923799037933349609375">
        <ele>181</ele>
        <time>2018-09-08T14:54:11.000Z</time>
      </trkpt>
      <trkpt lat="43.336534202098846435546875" lon="-4.9779695458710193634033203125">
        <ele>182.1999969482421875</ele>
        <time>2018-09-08T14:54:20.000Z</time>
      </trkpt>
      <trkpt lat="43.33658021874725818634033203125" lon="-4.9784355796873569488525390625">
        <ele>182.8000030517578125</ele>
        <time>2018-09-08T14:54:28.000Z</time>
      </trkpt>
      <trkpt lat="43.33662816323339939117431640625" lon="-4.978834725916385650634765625">
        <ele>182.399993896484375</ele>
        <time>2018-09-08T14:54:34.000Z</time>
      </trkpt>
      <trkpt lat="43.33663989789783954620361328125" lon="-4.97890412807464599609375">
        <ele>182.399993896484375</ele>
        <time>2018-09-08T14:54:35.000Z</time>
      </trkpt>
      <trkpt lat="43.336686752736568450927734375" lon="-4.97927519492805004119873046875">
        <ele>181.8000030517578125</ele>
        <time>2018-09-08T14:54:40.000Z</time>
      </trkpt>
      <trkpt lat="43.3367056958377361297607421875" lon="-4.97942690737545490264892578125">
        <ele>181.399993896484375</ele>
        <time>2018-09-08T14:54:42.000Z</time>
      </trkpt>
      <trkpt lat="43.3367244713008403778076171875" lon="-4.979573674499988555908203125">
        <ele>181.399993896484375</ele>
        <time>2018-09-08T14:54:44.000Z</time>
      </trkpt>
      <trkpt lat="43.3367744274437427520751953125" lon="-4.9798789434134960174560546875">
        <ele>181.1999969482421875</ele>
        <time>2018-09-08T14:54:48.000Z</time>
      </trkpt>
      <trkpt lat="43.33678557537496089935302734375" lon="-4.97995496727526187896728515625">
        <ele>181.1999969482421875</ele>
        <time>2018-09-08T14:54:49.000Z</time>
      </trkpt>
      <trkpt lat="43.33680988289415836334228515625" lon="-4.980116151273250579833984375">
        <ele>181</ele>
        <time>2018-09-08T14:54:51.000Z</time>
      </trkpt>
      <trkpt lat="43.33685212768614292144775390625" lon="-4.9804504215717315673828125">
        <ele>180.600006103515625</ele>
        <time>2018-09-08T14:54:55.000Z</time>
      </trkpt>
      <trkpt lat="43.336863778531551361083984375" lon="-4.980533905327320098876953125">
        <ele>180.600006103515625</ele>
        <time>2018-09-08T14:54:56.000Z</time>
      </trkpt>
      <trkpt lat="43.33689671941101551055908203125" lon="-4.98079231940209865570068359375">
        <ele>180.1999969482421875</ele>
        <time>2018-09-08T14:54:59.000Z</time>
      </trkpt>
      <trkpt lat="43.33690761588513851165771484375" lon="-4.9808804132044315338134765625">
        <ele>180.1999969482421875</ele>
        <time>2018-09-08T14:55:00.000Z</time>
      </trkpt>
      <trkpt lat="43.33700132556259632110595703125" lon="-4.98157854191958904266357421875">
        <ele>180.399993896484375</ele>
        <time>2018-09-08T14:55:08.000Z</time>
      </trkpt>
      <trkpt lat="43.3370124734938144683837890625" lon="-4.98174953274428844451904296875">
        <ele>180.600006103515625</ele>
        <time>2018-09-08T14:55:10.000Z</time>
      </trkpt>
      <trkpt lat="43.33701322786509990692138671875" lon="-4.98192119412124156951904296875">
        <ele>181</ele>
        <time>2018-09-08T14:55:12.000Z</time>
      </trkpt>
      <trkpt lat="43.33700451068580150604248046875" lon="-4.98209101147949695587158203125">
        <ele>181.1999969482421875</ele>
        <time>2018-09-08T14:55:14.000Z</time>
      </trkpt>
      <trkpt lat="43.33699864335358142852783203125" lon="-4.98217441141605377197265625">
        <ele>181.1999969482421875</ele>
        <time>2018-09-08T14:55:15.000Z</time>
      </trkpt>
      <trkpt lat="43.33697341382503509521484375" lon="-4.98248663730919361114501953125">
        <ele>181.1999969482421875</ele>
        <time>2018-09-08T14:55:19.000Z</time>
      </trkpt>
      <trkpt lat="43.3369698934257030487060546875" lon="-4.982638098299503326416015625">
        <ele>181.600006103515625</ele>
        <time>2018-09-08T14:55:21.000Z</time>
      </trkpt>
      <trkpt lat="43.33696360699832439422607421875" lon="-4.982871115207672119140625">
        <ele>181.8000030517578125</ele>
        <time>2018-09-08T14:55:24.000Z</time>
      </trkpt>
      <trkpt lat="43.3369618467986583709716796875" lon="-4.9830999411642551422119140625">
        <ele>180.8000030517578125</ele>
        <time>2018-09-08T14:55:27.000Z</time>
      </trkpt>
      <trkpt lat="43.33696595393121242523193359375" lon="-4.98325693421065807342529296875">
        <ele>182.399993896484375</ele>
        <time>2018-09-08T14:55:29.000Z</time>
      </trkpt>
      <trkpt lat="43.33702546544373035430908203125" lon="-4.983914159238338470458984375">
        <ele>182.1999969482421875</ele>
        <time>2018-09-08T14:55:37.000Z</time>
      </trkpt>
      <trkpt lat="43.33710442297160625457763671875" lon="-4.9846321530640125274658203125">
        <ele>181.600006103515625</ele>
        <time>2018-09-08T14:55:45.000Z</time>
      </trkpt>
      <trkpt lat="43.33711448125541210174560546875" lon="-4.98473332263529300689697265625">
        <ele>181</ele>
        <time>2018-09-08T14:55:46.000Z</time>
      </trkpt>
      <trkpt lat="43.337182961404323577880859375" lon="-4.985347799956798553466796875">
        <ele>179.8000030517578125</ele>
        <time>2018-09-08T14:55:52.000Z</time>
      </trkpt>
      <trkpt lat="43.33719394169747829437255859375" lon="-4.9854549206793308258056640625">
        <ele>179.399993896484375</ele>
        <time>2018-09-08T14:55:53.000Z</time>
      </trkpt>
      <trkpt lat="43.3372200094163417816162109375" lon="-4.98567461036145687103271484375">
        <ele>178.600006103515625</ele>
        <time>2018-09-08T14:55:55.000Z</time>
      </trkpt>
      <trkpt lat="43.33725864998996257781982421875" lon="-4.986022375524044036865234375">
        <ele>177.600006103515625</ele>
        <time>2018-09-08T14:55:58.000Z</time>
      </trkpt>
      <trkpt lat="43.337279856204986572265625" lon="-4.98626075685024261474609375">
        <ele>176.8000030517578125</ele>
        <time>2018-09-08T14:56:00.000Z</time>
      </trkpt>
      <trkpt lat="43.33729318343102931976318359375" lon="-4.9863879941403865814208984375">
        <ele>176.399993896484375</ele>
        <time>2018-09-08T14:56:01.000Z</time>
      </trkpt>
      <trkpt lat="43.33733509294688701629638671875" lon="-4.986766688525676727294921875">
        <ele>175.1999969482421875</ele>
        <time>2018-09-08T14:56:04.000Z</time>
      </trkpt>
      <trkpt lat="43.3373759128153324127197265625" lon="-4.98714814893901348114013671875">
        <ele>174</ele>
        <time>2018-09-08T14:56:07.000Z</time>
      </trkpt>
      <trkpt lat="43.33739091642200946807861328125" lon="-4.98727974481880664825439453125">
        <ele>173.600006103515625</ele>
        <time>2018-09-08T14:56:08.000Z</time>
      </trkpt>
      <trkpt lat="43.33742075599730014801025390625" lon="-4.987545199692249298095703125">
        <ele>173</ele>
        <time>2018-09-08T14:56:10.000Z</time>
      </trkpt>
      <trkpt lat="43.337445817887783050537109375" lon="-4.98780344612896442413330078125">
        <ele>171.8000030517578125</ele>
        <time>2018-09-08T14:56:12.000Z</time>
      </trkpt>
      <trkpt lat="43.337501473724842071533203125" lon="-4.9882960505783557891845703125">
        <ele>171.600006103515625</ele>
        <time>2018-09-08T14:56:16.000Z</time>
      </trkpt>
      <trkpt lat="43.337570540606975555419921875" lon="-4.98890365473926067352294921875">
        <ele>171.399993896484375</ele>
        <time>2018-09-08T14:56:21.000Z</time>
      </trkpt>
      <trkpt lat="43.337610103189945220947265625" lon="-4.98926625587046146392822265625">
        <ele>170.8000030517578125</ele>
        <time>2018-09-08T14:56:24.000Z</time>
      </trkpt>
      <trkpt lat="43.33764874376356601715087890625" lon="-4.98962558805942535400390625">
        <ele>170.8000030517578125</ele>
        <time>2018-09-08T14:56:27.000Z</time>
      </trkpt>
      <trkpt lat="43.33771512843668460845947265625" lon="-4.99022833071649074554443359375">
        <ele>170.1999969482421875</ele>
        <time>2018-09-08T14:56:32.000Z</time>
      </trkpt>
      <trkpt lat="43.337755613029003143310546875" lon="-4.99060434289276599884033203125">
        <ele>170</ele>
        <time>2018-09-08T14:56:35.000Z</time>
      </trkpt>
      <trkpt lat="43.33777011372148990631103515625" lon="-4.99072940088808536529541015625">
        <ele>170</ele>
        <time>2018-09-08T14:56:36.000Z</time>
      </trkpt>
      <trkpt lat="43.337782435119152069091796875" lon="-4.99085663817822933197021484375">
        <ele>169.8000030517578125</ele>
        <time>2018-09-08T14:56:37.000Z</time>
      </trkpt>
      <trkpt lat="43.33781252615153789520263671875" lon="-4.99110926873981952667236328125">
        <ele>169.399993896484375</ele>
        <time>2018-09-08T14:56:39.000Z</time>
      </trkpt>
      <trkpt lat="43.3378395996987819671630859375" lon="-4.99136474914848804473876953125">
        <ele>169.399993896484375</ele>
        <time>2018-09-08T14:56:41.000Z</time>
      </trkpt>
      <trkpt lat="43.3378793299198150634765625" lon="-4.99175014905631542205810546875">
        <ele>169.1999969482421875</ele>
        <time>2018-09-08T14:56:44.000Z</time>
      </trkpt>
      <trkpt lat="43.33790925331413745880126953125" lon="-4.992135129868984222412109375">
        <ele>168.399993896484375</ele>
        <time>2018-09-08T14:56:47.000Z</time>
      </trkpt>
      <trkpt lat="43.3379291184246540069580078125" lon="-4.99239421449601650238037109375">
        <ele>167.1999969482421875</ele>
        <time>2018-09-08T14:56:49.000Z</time>
      </trkpt>
      <trkpt lat="43.3379375003278255462646484375" lon="-4.99266394414007663726806640625">
        <ele>166</ele>
        <time>2018-09-08T14:56:51.000Z</time>
      </trkpt>
      <trkpt lat="43.33794127218425273895263671875" lon="-4.9928024969995021820068359375">
        <ele>165.399993896484375</ele>
        <time>2018-09-08T14:56:52.000Z</time>
      </trkpt>
      <trkpt lat="43.3379445411264896392822265625" lon="-4.99294021166861057281494140625">
        <ele>164.8000030517578125</ele>
        <time>2018-09-08T14:56:53.000Z</time>
      </trkpt>
      <trkpt lat="43.337940685451030731201171875" lon="-4.99322771094739437103271484375">
        <ele>163.399993896484375</ele>
        <time>2018-09-08T14:56:55.000Z</time>
      </trkpt>
      <trkpt lat="43.33792367018759250640869140625" lon="-4.99352929182350635528564453125">
        <ele>161.8000030517578125</ele>
        <time>2018-09-08T14:56:57.000Z</time>
      </trkpt>
      <trkpt lat="43.3379120193421840667724609375" lon="-4.9936812557280063629150390625">
        <ele>161.399993896484375</ele>
        <time>2018-09-08T14:56:58.000Z</time>
      </trkpt>
      <trkpt lat="43.3378979377448558807373046875" lon="-4.9938319623470306396484375">
        <ele>160</ele>
        <time>2018-09-08T14:56:59.000Z</time>
      </trkpt>
      <trkpt lat="43.33786256611347198486328125" lon="-4.99413547106087207794189453125">
        <ele>158.600006103515625</ele>
        <time>2018-09-08T14:57:01.000Z</time>
      </trkpt>
      <trkpt lat="43.33781705237925052642822265625" lon="-4.994437135756015777587890625">
        <ele>157.399993896484375</ele>
        <time>2018-09-08T14:57:03.000Z</time>
      </trkpt>
      <trkpt lat="43.33779240958392620086669921875" lon="-4.99458541162312030792236328125">
        <ele>156.8000030517578125</ele>
        <time>2018-09-08T14:57:04.000Z</time>
      </trkpt>
      <trkpt lat="43.3377648331224918365478515625" lon="-4.9947331845760345458984375">
        <ele>156.399993896484375</ele>
        <time>2018-09-08T14:57:05.000Z</time>
      </trkpt>
      <trkpt lat="43.33763315342366695404052734375" lon="-4.99539359472692012786865234375">
        <ele>155.600006103515625</ele>
        <time>2018-09-08T14:57:10.000Z</time>
      </trkpt>
      <trkpt lat="43.3374744839966297149658203125" lon="-4.99612902291119098663330078125">
        <ele>155.600006103515625</ele>
        <time>2018-09-08T14:57:16.000Z</time>
      </trkpt>
      <trkpt lat="43.33741388283669948577880859375" lon="-4.99636874534189701080322265625">
        <ele>155.399993896484375</ele>
        <time>2018-09-08T14:57:18.000Z</time>
      </trkpt>
      <trkpt lat="43.33738789893686771392822265625" lon="-4.99648978002369403839111328125">
        <ele>155.1999969482421875</ele>
        <time>2018-09-08T14:57:19.000Z</time>
      </trkpt>
      <trkpt lat="43.3373614959418773651123046875" lon="-4.996611736714839935302734375">
        <ele>154.8000030517578125</ele>
        <time>2018-09-08T14:57:20.000Z</time>
      </trkpt>
      <trkpt lat="43.337311707437038421630859375" lon="-4.99685774557292461395263671875">
        <ele>153.600006103515625</ele>
        <time>2018-09-08T14:57:22.000Z</time>
      </trkpt>
      <trkpt lat="43.3372475020587444305419921875" lon="-4.99723325483500957489013671875">
        <ele>152.600006103515625</ele>
        <time>2018-09-08T14:57:25.000Z</time>
      </trkpt>
      <trkpt lat="43.337207771837711334228515625" lon="-4.9976214207708835601806640625">
        <ele>151.399993896484375</ele>
        <time>2018-09-08T14:57:28.000Z</time>
      </trkpt>
      <trkpt lat="43.3371980488300323486328125" lon="-4.99788469634950160980224609375">
        <ele>150.8000030517578125</ele>
        <time>2018-09-08T14:57:30.000Z</time>
      </trkpt>
      <trkpt lat="43.3372002281248569488525390625" lon="-4.99814772047102451324462890625">
        <ele>150</ele>
        <time>2018-09-08T14:57:32.000Z</time>
      </trkpt>
      <trkpt lat="43.337217159569263458251953125" lon="-4.99854451976716518402099609375">
        <ele>148.8000030517578125</ele>
        <time>2018-09-08T14:57:35.000Z</time>
      </trkpt>
      <trkpt lat="43.337225876748561859130859375" lon="-4.998675696551799774169921875">
        <ele>148.399993896484375</ele>
        <time>2018-09-08T14:57:36.000Z</time>
      </trkpt>
      <trkpt lat="43.33724431693553924560546875" lon="-4.99893930740654468536376953125">
        <ele>147.399993896484375</ele>
        <time>2018-09-08T14:57:38.000Z</time>
      </trkpt>
      <trkpt lat="43.33728010766208171844482421875" lon="-4.99947734177112579345703125">
        <ele>146</ele>
        <time>2018-09-08T14:57:42.000Z</time>
      </trkpt>
      <trkpt lat="43.3372890762984752655029296875" lon="-4.9996166490018367767333984375">
        <ele>145.8000030517578125</ele>
        <time>2018-09-08T14:57:43.000Z</time>
      </trkpt>
      <trkpt lat="43.3373001404106616973876953125" lon="-4.99975486658513545989990234375">
        <ele>145</ele>
        <time>2018-09-08T14:57:44.000Z</time>
      </trkpt>
      <trkpt lat="43.3373614959418773651123046875" lon="-5.0001678429543972015380859375">
        <ele>143.399993896484375</ele>
        <time>2018-09-08T14:57:47.000Z</time>
      </trkpt>
      <trkpt lat="43.33739720284938812255859375" lon="-5.0003059767186641693115234375">
        <ele>142.399993896484375</ele>
        <time>2018-09-08T14:57:48.000Z</time>
      </trkpt>
      <trkpt lat="43.33752402104437351226806640625" lon="-5.00071124173700809478759765625">
        <ele>141.399993896484375</ele>
        <time>2018-09-08T14:57:51.000Z</time>
      </trkpt>
      <trkpt lat="43.3376753143966197967529296875" lon="-5.001221783459186553955078125">
        <ele>141.600006103515625</ele>
        <time>2018-09-08T14:57:55.000Z</time>
      </trkpt>
      <trkpt lat="43.337701968848705291748046875" lon="-5.00134608708322048187255859375">
        <ele>141.8000030517578125</ele>
        <time>2018-09-08T14:57:56.000Z</time>
      </trkpt>
      <trkpt lat="43.3377370052039623260498046875" lon="-5.0017101131379604339599609375">
        <ele>142.600006103515625</ele>
        <time>2018-09-08T14:57:59.000Z</time>
      </trkpt>
      <trkpt lat="43.33771211095154285430908203125" lon="-5.00206106342375278472900390625">
        <ele>143.8000030517578125</ele>
        <time>2018-09-08T14:58:02.000Z</time>
      </trkpt>
      <trkpt lat="43.33769517950713634490966796875" lon="-5.002175979316234588623046875">
        <ele>144.1999969482421875</ele>
        <time>2018-09-08T14:58:03.000Z</time>
      </trkpt>
      <trkpt lat="43.33767615258693695068359375" lon="-5.0022898055613040924072265625">
        <ele>144.8000030517578125</ele>
        <time>2018-09-08T14:58:04.000Z</time>
      </trkpt>
      <trkpt lat="43.337623178958892822265625" lon="-5.0025687552988529205322265625">
        <ele>146.1999969482421875</ele>
        <time>2018-09-08T14:58:07.000Z</time>
      </trkpt>
      <trkpt lat="43.33760851062834262847900390625" lon="-5.0026572681963443756103515625">
        <ele>146.600006103515625</ele>
        <time>2018-09-08T14:58:08.000Z</time>
      </trkpt>
      <trkpt lat="43.337564505636692047119140625" lon="-5.002906210720539093017578125">
        <ele>148</ele>
        <time>2018-09-08T14:58:11.000Z</time>
      </trkpt>
      <trkpt lat="43.3375199139118194580078125" lon="-5.0031182728707790374755859375">
        <ele>148.8000030517578125</ele>
        <time>2018-09-08T14:58:14.000Z</time>
      </trkpt>
      <trkpt lat="43.33750725723803043365478515625" lon="-5.00318348407745361328125">
        <ele>149.1999969482421875</ele>
        <time>2018-09-08T14:58:15.000Z</time>
      </trkpt>
      <trkpt lat="43.33746484480798244476318359375" lon="-5.00342899002134799957275390625">
        <ele>150.1999969482421875</ele>
        <time>2018-09-08T14:58:19.000Z</time>
      </trkpt>
      <trkpt lat="43.33745889365673065185546875" lon="-5.00349084846675395965576171875">
        <ele>150.399993896484375</ele>
        <time>2018-09-08T14:58:20.000Z</time>
      </trkpt>
      <trkpt lat="43.33744673989713191986083984375" lon="-5.003607273101806640625">
        <ele>150.600006103515625</ele>
        <time>2018-09-08T14:58:22.000Z</time>
      </trkpt>
      <trkpt lat="43.33742980845272541046142578125" lon="-5.00383517704904079437255859375">
        <ele>151.399993896484375</ele>
        <time>2018-09-08T14:58:26.000Z</time>
      </trkpt>
      <trkpt lat="43.33742829971015453338623046875" lon="-5.00389385037124156951904296875">
        <ele>151.600006103515625</ele>
        <time>2018-09-08T14:58:27.000Z</time>
      </trkpt>
      <trkpt lat="43.33744456060230731964111328125" lon="-5.0043148733675479888916015625">
        <ele>152.399993896484375</ele>
        <time>2018-09-08T14:58:34.000Z</time>
      </trkpt>
      <trkpt lat="43.33748169243335723876953125" lon="-5.0047463737428188323974609375">
        <ele>153.600006103515625</ele>
        <time>2018-09-08T14:58:41.000Z</time>
      </trkpt>
      <trkpt lat="43.33748512901365756988525390625" lon="-5.0048102438449859619140625">
        <ele>153.600006103515625</ele>
        <time>2018-09-08T14:58:42.000Z</time>
      </trkpt>
      <trkpt lat="43.3375502564013004302978515625" lon="-5.00533687882125377655029296875">
        <ele>154.399993896484375</ele>
        <time>2018-09-08T14:58:50.000Z</time>
      </trkpt>
      <trkpt lat="43.3376796729862689971923828125" lon="-5.005745328962802886962890625">
        <ele>154.399993896484375</ele>
        <time>2018-09-08T14:58:56.000Z</time>
      </trkpt>
      <trkpt lat="43.3379120193421840667724609375" lon="-5.0061196647584438323974609375">
        <ele>154</ele>
        <time>2018-09-08T14:59:02.000Z</time>
      </trkpt>
      <trkpt lat="43.33821033127605915069580078125" lon="-5.00649777241051197052001953125">
        <ele>152.399993896484375</ele>
        <time>2018-09-08T14:59:08.000Z</time>
      </trkpt>
      <trkpt lat="43.3383760415017604827880859375" lon="-5.006721653044223785400390625">
        <ele>151.399993896484375</ele>
        <time>2018-09-08T14:59:11.000Z</time>
      </trkpt>
      <trkpt lat="43.3384705893695354461669921875" lon="-5.0068867765367031097412109375">
        <ele>150.600006103515625</ele>
        <time>2018-09-08T14:59:13.000Z</time>
      </trkpt>
      <trkpt lat="43.3385145105421543121337890625" lon="-5.0069749541580677032470703125">
        <ele>150.1999969482421875</ele>
        <time>2018-09-08T14:59:14.000Z</time>
      </trkpt>
      <trkpt lat="43.33863277919590473175048828125" lon="-5.00727494247257709503173828125">
        <ele>148.8000030517578125</ele>
        <time>2018-09-08T14:59:17.000Z</time>
      </trkpt>
      <trkpt lat="43.338670916855335235595703125" lon="-5.00738407485187053680419921875">
        <ele>148.1999969482421875</ele>
        <time>2018-09-08T14:59:18.000Z</time>
      </trkpt>
      <trkpt lat="43.33871240727603435516357421875" lon="-5.007495470345020294189453125">
        <ele>147.8000030517578125</ele>
        <time>2018-09-08T14:59:19.000Z</time>
      </trkpt>
      <trkpt lat="43.3387934602797031402587890625" lon="-5.00772379338741302490234375">
        <ele>145.600006103515625</ele>
        <time>2018-09-08T14:59:21.000Z</time>
      </trkpt>
      <trkpt lat="43.33890938200056552886962890625" lon="-5.00808052718639373779296875">
        <ele>147</ele>
        <time>2018-09-08T14:59:24.000Z</time>
      </trkpt>
      <trkpt lat="43.33893888629972934722900390625" lon="-5.00820701010525226593017578125">
        <ele>146.399993896484375</ele>
        <time>2018-09-08T14:59:25.000Z</time>
      </trkpt>
      <trkpt lat="43.33895967341959476470947265625" lon="-5.008337683975696563720703125">
        <ele>145.8000030517578125</ele>
        <time>2018-09-08T14:59:26.000Z</time>
      </trkpt>
      <trkpt lat="43.3389745093882083892822265625" lon="-5.00847137533128261566162109375">
        <ele>143.399993896484375</ele>
        <time>2018-09-08T14:59:27.000Z</time>
      </trkpt>
      <trkpt lat="43.3389872498810291290283203125" lon="-5.00874831341207027435302734375">
        <ele>142</ele>
        <time>2018-09-08T14:59:29.000Z</time>
      </trkpt>
      <trkpt lat="43.33898381330072879791259765625" lon="-5.00903665088117122650146484375">
        <ele>140.8000030517578125</ele>
        <time>2018-09-08T14:59:31.000Z</time>
      </trkpt>
      <trkpt lat="43.3389790356159210205078125" lon="-5.009338147938251495361328125">
        <ele>139.8000030517578125</ele>
        <time>2018-09-08T14:59:33.000Z</time>
      </trkpt>
      <trkpt lat="43.3389825560152530670166015625" lon="-5.00949203968048095703125">
        <ele>139</ele>
        <time>2018-09-08T14:59:34.000Z</time>
      </trkpt>
      <trkpt lat="43.3389936201274394989013671875" lon="-5.009645931422710418701171875">
        <ele>138.1999969482421875</ele>
        <time>2018-09-08T14:59:35.000Z</time>
      </trkpt>
      <trkpt lat="43.33901532925665378570556640625" lon="-5.009800158441066741943359375">
        <ele>137.399993896484375</ele>
        <time>2018-09-08T14:59:36.000Z</time>
      </trkpt>
      <trkpt lat="43.33904944360256195068359375" lon="-5.009948350489139556884765625">
        <ele>136.8000030517578125</ele>
        <time>2018-09-08T14:59:37.000Z</time>
      </trkpt>
      <trkpt lat="43.33915262483060359954833984375" lon="-5.010227300226688385009765625">
        <ele>135.399993896484375</ele>
        <time>2018-09-08T14:59:39.000Z</time>
      </trkpt>
      <trkpt lat="43.33922135643661022186279296875" lon="-5.0103565491735935211181640625">
        <ele>134.8000030517578125</ele>
        <time>2018-09-08T14:59:40.000Z</time>
      </trkpt>
      <trkpt lat="43.33930031396448612213134765625" lon="-5.0104745663702487945556640625">
        <ele>134.1999969482421875</ele>
        <time>2018-09-08T14:59:41.000Z</time>
      </trkpt>
      <trkpt lat="43.33948102779686450958251953125" lon="-5.010679252445697784423828125">
        <ele>132.8000030517578125</ele>
        <time>2018-09-08T14:59:43.000Z</time>
      </trkpt>
      <trkpt lat="43.3395771682262420654296875" lon="-5.01077639870345592498779296875">
        <ele>132.1999969482421875</ele>
        <time>2018-09-08T14:59:44.000Z</time>
      </trkpt>
      <trkpt lat="43.33967431448400020599365234375" lon="-5.0108732096850872039794921875">
        <ele>131.1999969482421875</ele>
        <time>2018-09-08T14:59:45.000Z</time>
      </trkpt>
      <trkpt lat="43.33986424840986728668212890625" lon="-5.0110589526593685150146484375">
        <ele>130</ele>
        <time>2018-09-08T14:59:47.000Z</time>
      </trkpt>
      <trkpt lat="43.34004378877580165863037109375" lon="-5.011257268488407135009765625">
        <ele>129</ele>
        <time>2018-09-08T14:59:49.000Z</time>
      </trkpt>
      <trkpt lat="43.3401261828839778900146484375" lon="-5.01136623322963714599609375">
        <ele>128.600006103515625</ele>
        <time>2018-09-08T14:59:50.000Z</time>
      </trkpt>
      <trkpt lat="43.34019969217479228973388671875" lon="-5.01148534007370471954345703125">
        <ele>128.399993896484375</ele>
        <time>2018-09-08T14:59:51.000Z</time>
      </trkpt>
      <trkpt lat="43.340317793190479278564453125" lon="-5.01174501143395900726318359375">
        <ele>128</ele>
        <time>2018-09-08T14:59:53.000Z</time>
      </trkpt>
      <trkpt lat="43.3403659053146839141845703125" lon="-5.0118807144463062286376953125">
        <ele>127.59999847412109375</ele>
        <time>2018-09-08T14:59:54.000Z</time>
      </trkpt>
      <trkpt lat="43.34052608348429203033447265625" lon="-5.012405253946781158447265625">
        <ele>126.59999847412109375</ele>
        <time>2018-09-08T14:59:58.000Z</time>
      </trkpt>
      <trkpt lat="43.34073563106358051300048828125" lon="-5.01311562024056911468505859375">
        <ele>126.1999969482421875</ele>
        <time>2018-09-08T15:00:04.000Z</time>
      </trkpt>
      <trkpt lat="43.34077142179012298583984375" lon="-5.01322626136243343353271484375">
        <ele>126.1999969482421875</ele>
        <time>2018-09-08T15:00:05.000Z</time>
      </trkpt>
      <trkpt lat="43.34081391803920269012451171875" lon="-5.01332768239080905914306640625">
        <ele>126.40000152587890625</ele>
        <time>2018-09-08T15:00:06.000Z</time>
      </trkpt>
      <trkpt lat="43.3409653790295124053955078125" lon="-5.01359221525490283966064453125">
        <ele>126.59999847412109375</ele>
        <time>2018-09-08T15:00:09.000Z</time>
      </trkpt>
      <trkpt lat="43.3411410637199878692626953125" lon="-5.0137984938919544219970703125">
        <ele>126.40000152587890625</ele>
        <time>2018-09-08T15:00:12.000Z</time>
      </trkpt>
      <trkpt lat="43.34125631488859653472900390625" lon="-5.01391424797475337982177734375">
        <ele>126.40000152587890625</ele>
        <time>2018-09-08T15:00:14.000Z</time>
      </trkpt>
      <trkpt lat="43.341579437255859375" lon="-5.01422119326889514923095703125">
        <ele>125.40000152587890625</ele>
        <time>2018-09-08T15:00:20.000Z</time>
      </trkpt>
      <trkpt lat="43.34184430539608001708984375" lon="-5.01446376554667949676513671875">
        <ele>125</ele>
        <time>2018-09-08T15:00:25.000Z</time>
      </trkpt>
      <trkpt lat="43.34204412996768951416015625" lon="-5.014679431915283203125">
        <ele>125.1999969482421875</ele>
        <time>2018-09-08T15:00:29.000Z</time>
      </trkpt>
      <trkpt lat="43.34232098422944545745849609375" lon="-5.015022754669189453125">
        <ele>124.40000152587890625</ele>
        <time>2018-09-08T15:00:35.000Z</time>
      </trkpt>
      <trkpt lat="43.34258518181741237640380859375" lon="-5.0153628922998905181884765625">
        <ele>125.1999969482421875</ele>
        <time>2018-09-08T15:00:41.000Z</time>
      </trkpt>
      <trkpt lat="43.34263463504612445831298828125" lon="-5.01540522091090679168701171875">
        <ele>125</ele>
        <time>2018-09-08T15:00:42.000Z</time>
      </trkpt>
      <trkpt lat="43.34292850457131862640380859375" lon="-5.01555559225380420684814453125">
        <ele>124.8000030517578125</ele>
        <time>2018-09-08T15:00:47.000Z</time>
      </trkpt>
      <trkpt lat="43.3434819616377353668212890625" lon="-5.01579145900905132293701171875">
        <ele>124.1999969482421875</ele>
        <time>2018-09-08T15:00:56.000Z</time>
      </trkpt>
      <trkpt lat="43.34404732100665569305419921875" lon="-5.0160433351993560791015625">
        <ele>123.1999969482421875</ele>
        <time>2018-09-08T15:01:05.000Z</time>
      </trkpt>
      <trkpt lat="43.34437857381999492645263671875" lon="-5.0161880068480968475341796875">
        <ele>123.40000152587890625</ele>
        <time>2018-09-08T15:01:10.000Z</time>
      </trkpt>
      <trkpt lat="43.34457688964903354644775390625" lon="-5.01627157442271709442138671875">
        <ele>123.1999969482421875</ele>
        <time>2018-09-08T15:01:13.000Z</time>
      </trkpt>
      <trkpt lat="43.34512489847838878631591796875" lon="-5.016545914113521575927734375">
        <ele>123.40000152587890625</ele>
        <time>2018-09-08T15:01:22.000Z</time>
      </trkpt>
      <trkpt lat="43.3453417383134365081787109375" lon="-5.016742050647735595703125">
        <ele>123.40000152587890625</ele>
        <time>2018-09-08T15:01:26.000Z</time>
      </trkpt>
      <trkpt lat="43.34544382989406585693359375" lon="-5.01686266623437404632568359375">
        <ele>123.40000152587890625</ele>
        <time>2018-09-08T15:01:28.000Z</time>
      </trkpt>
      <trkpt lat="43.3456327579915523529052734375" lon="-5.01715837977826595306396484375">
        <ele>123.1999969482421875</ele>
        <time>2018-09-08T15:01:32.000Z</time>
      </trkpt>
      <trkpt lat="43.3457739092409610748291015625" lon="-5.01739039085805416107177734375">
        <ele>122.8000030517578125</ele>
        <time>2018-09-08T15:01:35.000Z</time>
      </trkpt>
      <trkpt lat="43.3461608178913593292236328125" lon="-5.01802322454750537872314453125">
        <ele>122.1999969482421875</ele>
        <time>2018-09-08T15:01:43.000Z</time>
      </trkpt>
      <trkpt lat="43.34636986255645751953125" lon="-5.01836705021560192108154296875">
        <ele>121</ele>
        <time>2018-09-08T15:01:47.000Z</time>
      </trkpt>
      <trkpt lat="43.34653892554342746734619140625" lon="-5.01863527111709117889404296875">
        <ele>120</ele>
        <time>2018-09-08T15:01:50.000Z</time>
      </trkpt>
      <trkpt lat="43.34676993079483509063720703125" lon="-5.0190177373588085174560546875">
        <ele>118.8000030517578125</ele>
        <time>2018-09-08T15:01:54.000Z</time>
      </trkpt>
      <trkpt lat="43.347009904682636260986328125" lon="-5.019410513341426849365234375">
        <ele>118.40000152587890625</ele>
        <time>2018-09-08T15:01:58.000Z</time>
      </trkpt>
      <trkpt lat="43.347192294895648956298828125" lon="-5.01970580779016017913818359375">
        <ele>117.59999847412109375</ele>
        <time>2018-09-08T15:02:01.000Z</time>
      </trkpt>
      <trkpt lat="43.34748608060181140899658203125" lon="-5.0201868452131748199462890625">
        <ele>117.40000152587890625</ele>
        <time>2018-09-08T15:02:06.000Z</time>
      </trkpt>
      <trkpt lat="43.34754341281950473785400390625" lon="-5.0202830694615840911865234375">
        <ele>117.40000152587890625</ele>
        <time>2018-09-08T15:02:07.000Z</time>
      </trkpt>
      <trkpt lat="43.3477248810231685638427734375" lon="-5.020582973957061767578125">
        <ele>117.1999969482421875</ele>
        <time>2018-09-08T15:02:10.000Z</time>
      </trkpt>
      <trkpt lat="43.34784432314336299896240234375" lon="-5.02078489400446414947509765625">
        <ele>117.40000152587890625</ele>
        <time>2018-09-08T15:02:12.000Z</time>
      </trkpt>
      <trkpt lat="43.3479027450084686279296875" lon="-5.02088413573801517486572265625">
        <ele>117.40000152587890625</ele>
        <time>2018-09-08T15:02:13.000Z</time>
      </trkpt>
      <trkpt lat="43.34819032810628414154052734375" lon="-5.0213522650301456451416015625">
        <ele>117.40000152587890625</ele>
        <time>2018-09-08T15:02:18.000Z</time>
      </trkpt>
      <trkpt lat="43.3483501709997653961181640625" lon="-5.021616630256175994873046875">
        <ele>117.59999847412109375</ele>
        <time>2018-09-08T15:02:21.000Z</time>
      </trkpt>
      <trkpt lat="43.34854857064783573150634765625" lon="-5.02194964326918125152587890625">
        <ele>118</ele>
        <time>2018-09-08T15:02:25.000Z</time>
      </trkpt>
      <trkpt lat="43.3485893905162811279296875" lon="-5.02203614450991153717041015625">
        <ele>118</ele>
        <time>2018-09-08T15:02:26.000Z</time>
      </trkpt>
      <trkpt lat="43.34862585179507732391357421875" lon="-5.02212817780673503875732421875">
        <ele>118</ele>
        <time>2018-09-08T15:02:27.000Z</time>
      </trkpt>
      <trkpt lat="43.348731212317943572998046875" lon="-5.022505782544612884521484375">
        <ele>118.1999969482421875</ele>
        <time>2018-09-08T15:02:31.000Z</time>
      </trkpt>
      <trkpt lat="43.3487605489790439605712890625" lon="-5.022895373404026031494140625">
        <ele>118.59999847412109375</ele>
        <time>2018-09-08T15:02:35.000Z</time>
      </trkpt>
      <trkpt lat="43.34875878877937793731689453125" lon="-5.0229904241859912872314453125">
        <ele>118.59999847412109375</ele>
        <time>2018-09-08T15:02:36.000Z</time>
      </trkpt>
      <trkpt lat="43.34870648570358753204345703125" lon="-5.0235640816390514373779296875">
        <ele>117.8000030517578125</ele>
        <time>2018-09-08T15:02:42.000Z</time>
      </trkpt>
      <trkpt lat="43.34864814765751361846923828125" lon="-5.0240545906126499176025390625">
        <ele>117.59999847412109375</ele>
        <time>2018-09-08T15:02:47.000Z</time>
      </trkpt>
      <trkpt lat="43.348633982241153717041015625" lon="-5.02414989285171031951904296875">
        <ele>117.40000152587890625</ele>
        <time>2018-09-08T15:02:48.000Z</time>
      </trkpt>
      <trkpt lat="43.3485885523259639739990234375" lon="-5.024434961378574371337890625">
        <ele>117.1999969482421875</ele>
        <time>2018-09-08T15:02:51.000Z</time>
      </trkpt>
      <trkpt lat="43.3484970219433307647705078125" lon="-5.02481709234416484832763671875">
        <ele>117</ele>
        <time>2018-09-08T15:02:55.000Z</time>
      </trkpt>
      <trkpt lat="43.348412699997425079345703125" lon="-5.0250957906246185302734375">
        <ele>116.59999847412109375</ele>
        <time>2018-09-08T15:02:58.000Z</time>
      </trkpt>
      <trkpt lat="43.34838177077472209930419921875" lon="-5.02518941648304462432861328125">
        <ele>116.1999969482421875</ele>
        <time>2018-09-08T15:02:59.000Z</time>
      </trkpt>
      <trkpt lat="43.34828202612698078155517578125" lon="-5.025470294058322906494140625">
        <ele>115.59999847412109375</ele>
        <time>2018-09-08T15:03:02.000Z</time>
      </trkpt>
      <trkpt lat="43.348214216530323028564453125" lon="-5.0256535224616527557373046875">
        <ele>115</ele>
        <time>2018-09-08T15:03:04.000Z</time>
      </trkpt>
      <trkpt lat="43.3481141366064548492431640625" lon="-5.025943703949451446533203125">
        <ele>116.1999969482421875</ele>
        <time>2018-09-08T15:03:07.000Z</time>
      </trkpt>
      <trkpt lat="43.34804599173367023468017578125" lon="-5.02613791264593601226806640625">
        <ele>115.8000030517578125</ele>
        <time>2018-09-08T15:03:09.000Z</time>
      </trkpt>
      <trkpt lat="43.34801095537841320037841796875" lon="-5.0262365676462650299072265625">
        <ele>114.40000152587890625</ele>
        <time>2018-09-08T15:03:10.000Z</time>
      </trkpt>
      <trkpt lat="43.347833342850208282470703125" lon="-5.02671517431735992431640625">
        <ele>113.1999969482421875</ele>
        <time>2018-09-08T15:03:15.000Z</time>
      </trkpt>
      <trkpt lat="43.34770065732300281524658203125" lon="-5.02709797583520412445068359375">
        <ele>112.8000030517578125</ele>
        <time>2018-09-08T15:03:19.000Z</time>
      </trkpt>
      <trkpt lat="43.34744098596274852752685546875" lon="-5.02783692441880702972412109375">
        <ele>112.1999969482421875</ele>
        <time>2018-09-08T15:03:27.000Z</time>
      </trkpt>
      <trkpt lat="43.347410894930362701416015625" lon="-5.02793331630527973175048828125">
        <ele>112.1999969482421875</ele>
        <time>2018-09-08T15:03:28.000Z</time>
      </trkpt>
      <trkpt lat="43.34736906923353672027587890625" lon="-5.02813297323882579803466796875">
        <ele>112.1999969482421875</ele>
        <time>2018-09-08T15:03:30.000Z</time>
      </trkpt>
      <trkpt lat="43.34734015166759490966796875" lon="-5.0283278524875640869140625">
        <ele>112</ele>
        <time>2018-09-08T15:03:32.000Z</time>
      </trkpt>
      <trkpt lat="43.3473252318799495697021484375" lon="-5.02842181362211704254150390625">
        <ele>112</ele>
        <time>2018-09-08T15:03:33.000Z</time>
      </trkpt>
      <trkpt lat="43.3472390659153461456298828125" lon="-5.02910510636866092681884765625">
        <ele>112</ele>
        <time>2018-09-08T15:03:40.000Z</time>
      </trkpt>
      <trkpt lat="43.34721584804356098175048828125" lon="-5.02930560149252414703369140625">
        <ele>112</ele>
        <time>2018-09-08T15:03:42.000Z</time>
      </trkpt>
      <trkpt lat="43.34718349389731884002685546875" lon="-5.0296067632734775543212890625">
        <ele>111.8000030517578125</ele>
        <time>2018-09-08T15:03:45.000Z</time>
      </trkpt>
      <trkpt lat="43.34717142395675182342529296875" lon="-5.0297080166637897491455078125">
        <ele>112</ele>
        <time>2018-09-08T15:03:46.000Z</time>
      </trkpt>
      <trkpt lat="43.347129262983798980712890625" lon="-5.03010070882737636566162109375">
        <ele>112</ele>
        <time>2018-09-08T15:03:50.000Z</time>
      </trkpt>
      <trkpt lat="43.34710319526493549346923828125" lon="-5.03038720227777957916259765625">
        <ele>111.59999847412109375</ele>
        <time>2018-09-08T15:03:53.000Z</time>
      </trkpt>
      <trkpt lat="43.34709581919014453887939453125" lon="-5.03048099577426910400390625">
        <ele>111.8000030517578125</ele>
        <time>2018-09-08T15:03:54.000Z</time>
      </trkpt>
      <trkpt lat="43.34707855246961116790771484375" lon="-5.0306702591478824615478515625">
        <ele>111.8000030517578125</ele>
        <time>2018-09-08T15:03:56.000Z</time>
      </trkpt>
      <trkpt lat="43.34700244478881359100341796875" lon="-5.03136344254016876220703125">
        <ele>111.1999969482421875</ele>
        <time>2018-09-08T15:04:03.000Z</time>
      </trkpt>
      <trkpt lat="43.34699339233338832855224609375" lon="-5.03146628849208354949951171875">
        <ele>111.1999969482421875</ele>
        <time>2018-09-08T15:04:04.000Z</time>
      </trkpt>
      <trkpt lat="43.34692382253706455230712890625" lon="-5.032190568745136260986328125">
        <ele>110.1999969482421875</ele>
        <time>2018-09-08T15:04:11.000Z</time>
      </trkpt>
      <trkpt lat="43.3468920551240444183349609375" lon="-5.03250966779887676239013671875">
        <ele>110</ele>
        <time>2018-09-08T15:04:14.000Z</time>
      </trkpt>
      <trkpt lat="43.346842937171459197998046875" lon="-5.03304644487798213958740234375">
        <ele>109.1999969482421875</ele>
        <time>2018-09-08T15:04:19.000Z</time>
      </trkpt>
      <trkpt lat="43.3468347229063510894775390625" lon="-5.0331570021808147430419921875">
        <ele>109</ele>
        <time>2018-09-08T15:04:20.000Z</time>
      </trkpt>
      <trkpt lat="43.34682709537446498870849609375" lon="-5.03326755948364734649658203125">
        <ele>109</ele>
        <time>2018-09-08T15:04:21.000Z</time>
      </trkpt>
      <trkpt lat="43.34679356776177883148193359375" lon="-5.033706016838550567626953125">
        <ele>108.40000152587890625</ele>
        <time>2018-09-08T15:04:25.000Z</time>
      </trkpt>
      <trkpt lat="43.3467716909945011138916015625" lon="-5.0339210964739322662353515625">
        <ele>108.1999969482421875</ele>
        <time>2018-09-08T15:04:27.000Z</time>
      </trkpt>
      <trkpt lat="43.34675383754074573516845703125" lon="-5.03413743339478969573974609375">
        <ele>108</ele>
        <time>2018-09-08T15:04:29.000Z</time>
      </trkpt>
      <trkpt lat="43.34669466130435466766357421875" lon="-5.0348115898668766021728515625">
        <ele>106.8000030517578125</ele>
        <time>2018-09-08T15:04:35.000Z</time>
      </trkpt>
      <trkpt lat="43.34668410010635852813720703125" lon="-5.03492382355034351348876953125">
        <ele>106.8000030517578125</ele>
        <time>2018-09-08T15:04:36.000Z</time>
      </trkpt>
      <trkpt lat="43.34662978537380695343017578125" lon="-5.03567039966583251953125">
        <ele>106.40000152587890625</ele>
        <time>2018-09-08T15:04:43.000Z</time>
      </trkpt>
      <trkpt lat="43.34662157110869884490966796875" lon="-5.0357751734554767608642578125">
        <ele>106.1999969482421875</ele>
        <time>2018-09-08T15:04:44.000Z</time>
      </trkpt>
      <trkpt lat="43.34658536128699779510498046875" lon="-5.03630231134593486785888671875">
        <ele>105.8000030517578125</ele>
        <time>2018-09-08T15:04:49.000Z</time>
      </trkpt>
      <trkpt lat="43.34656901657581329345703125" lon="-5.0366133637726306915283203125">
        <ele>105.8000030517578125</ele>
        <time>2018-09-08T15:04:52.000Z</time>
      </trkpt>
      <trkpt lat="43.34652610123157501220703125" lon="-5.03742992877960205078125">
        <ele>105</ele>
        <time>2018-09-08T15:05:00.000Z</time>
      </trkpt>
      <trkpt lat="43.34651579149067401885986328125" lon="-5.03763587214052677154541015625">
        <ele>104.8000030517578125</ele>
        <time>2018-09-08T15:05:02.000Z</time>
      </trkpt>
      <trkpt lat="43.34647824056446552276611328125" lon="-5.03835269249975681304931640625">
        <ele>104.1999969482421875</ele>
        <time>2018-09-08T15:05:09.000Z</time>
      </trkpt>
      <trkpt lat="43.346453011035919189453125" lon="-5.03877581097185611724853515625">
        <ele>103.59999847412109375</ele>
        <time>2018-09-08T15:05:13.000Z</time>
      </trkpt>
      <trkpt lat="43.3464126102626323699951171875" lon="-5.03960763104259967803955078125">
        <ele>103.40000152587890625</ele>
        <time>2018-09-08T15:05:21.000Z</time>
      </trkpt>
      <trkpt lat="43.3464060723781585693359375" lon="-5.03971181809902191162109375">
        <ele>103.40000152587890625</ele>
        <time>2018-09-08T15:05:22.000Z</time>
      </trkpt>
      <trkpt lat="43.346368856728076934814453125" lon="-5.040451772511005401611328125">
        <ele>102.59999847412109375</ele>
        <time>2018-09-08T15:05:29.000Z</time>
      </trkpt>
      <trkpt lat="43.34636290557682514190673828125" lon="-5.040556378662586212158203125">
        <ele>102.59999847412109375</ele>
        <time>2018-09-08T15:05:30.000Z</time>
      </trkpt>
      <trkpt lat="43.34635804407298564910888671875" lon="-5.04066341556608676910400390625">
        <ele>100.1999969482421875</ele>
        <time>2018-09-08T15:05:31.000Z</time>
      </trkpt>
      <trkpt lat="43.3463448844850063323974609375" lon="-5.0408800877630710601806640625">
        <ele>98.59999847412109375</ele>
        <time>2018-09-08T15:05:33.000Z</time>
      </trkpt>
      <trkpt lat="43.34633943624794483184814453125" lon="-5.040988214313983917236328125">
        <ele>102</ele>
        <time>2018-09-08T15:05:34.000Z</time>
      </trkpt>
      <trkpt lat="43.3463271148502826690673828125" lon="-5.04120673052966594696044921875">
        <ele>103.40000152587890625</ele>
        <time>2018-09-08T15:05:36.000Z</time>
      </trkpt>
      <trkpt lat="43.34632082842290401458740234375" lon="-5.0413166172802448272705078125">
        <ele>102.1999969482421875</ele>
        <time>2018-09-08T15:05:37.000Z</time>
      </trkpt>
      <trkpt lat="43.346281684935092926025390625" lon="-5.0420652888715267181396484375">
        <ele>101.8000030517578125</ele>
        <time>2018-09-08T15:05:44.000Z</time>
      </trkpt>
      <trkpt lat="43.34626550786197185516357421875" lon="-5.0423891656100749969482421875">
        <ele>101.59999847412109375</ele>
        <time>2018-09-08T15:05:47.000Z</time>
      </trkpt>
      <trkpt lat="43.34623935632407665252685546875" lon="-5.04291948862373828887939453125">
        <ele>101.1999969482421875</ele>
        <time>2018-09-08T15:05:52.000Z</time>
      </trkpt>
      <trkpt lat="43.3462158031761646270751953125" lon="-5.04333975724875926971435546875">
        <ele>100.8000030517578125</ele>
        <time>2018-09-08T15:05:56.000Z</time>
      </trkpt>
      <trkpt lat="43.346143551170825958251953125" lon="-5.04394241608679294586181640625">
        <ele>101</ele>
        <time>2018-09-08T15:06:02.000Z</time>
      </trkpt>
      <trkpt lat="43.346020840108394622802734375" lon="-5.04431247711181640625">
        <ele>100</ele>
        <time>2018-09-08T15:06:06.000Z</time>
      </trkpt>
      <trkpt lat="43.345980942249298095703125" lon="-5.04439688287675380706787109375">
        <ele>100.1999969482421875</ele>
        <time>2018-09-08T15:06:07.000Z</time>
      </trkpt>
      <trkpt lat="43.34563686512410640716552734375" lon="-5.04504899494349956512451171875">
        <ele>100</ele>
        <time>2018-09-08T15:06:15.000Z</time>
      </trkpt>
      <trkpt lat="43.3453524671494960784912109375" lon="-5.0455585308372974395751953125">
        <ele>100.1999969482421875</ele>
        <time>2018-09-08T15:06:22.000Z</time>
      </trkpt>
      <trkpt lat="43.345240317285060882568359375" lon="-5.04576615057885646820068359375">
        <ele>100.40000152587890625</ele>
        <time>2018-09-08T15:06:25.000Z</time>
      </trkpt>
      <trkpt lat="43.34513059817254543304443359375" lon="-5.04596245475113391876220703125">
        <ele>100.8000030517578125</ele>
        <time>2018-09-08T15:06:28.000Z</time>
      </trkpt>
      <trkpt lat="43.345095477998256683349609375" lon="-5.0460312701761722564697265625">
        <ele>100.8000030517578125</ele>
        <time>2018-09-08T15:06:29.000Z</time>
      </trkpt>
      <trkpt lat="43.345061279833316802978515625" lon="-5.0460973195731639862060546875">
        <ele>101.1999969482421875</ele>
        <time>2018-09-08T15:06:30.000Z</time>
      </trkpt>
      <trkpt lat="43.34500218741595745086669921875" lon="-5.0462314300239086151123046875">
        <ele>101.8000030517578125</ele>
        <time>2018-09-08T15:06:32.000Z</time>
      </trkpt>
      <trkpt lat="43.3449769578874111175537109375" lon="-5.04630108363926410675048828125">
        <ele>102.1999969482421875</ele>
        <time>2018-09-08T15:06:33.000Z</time>
      </trkpt>
      <trkpt lat="43.34493546746671199798583984375" lon="-5.046448521316051483154296875">
        <ele>102.40000152587890625</ele>
        <time>2018-09-08T15:06:35.000Z</time>
      </trkpt>
      <trkpt lat="43.3449028618633747100830078125" lon="-5.04659679718315601348876953125">
        <ele>103</ele>
        <time>2018-09-08T15:06:37.000Z</time>
      </trkpt>
      <trkpt lat="43.3448917977511882781982421875" lon="-5.04667055793106555938720703125">
        <ele>103.40000152587890625</ele>
        <time>2018-09-08T15:06:38.000Z</time>
      </trkpt>
      <trkpt lat="43.344865478575229644775390625" lon="-5.04688345827162265777587890625">
        <ele>104</ele>
        <time>2018-09-08T15:06:41.000Z</time>
      </trkpt>
      <trkpt lat="43.34484360180795192718505859375" lon="-5.04710239358246326446533203125">
        <ele>104.40000152587890625</ele>
        <time>2018-09-08T15:06:44.000Z</time>
      </trkpt>
      <trkpt lat="43.3448227308690547943115234375" lon="-5.04732384346425533294677734375">
        <ele>105.1999969482421875</ele>
        <time>2018-09-08T15:06:47.000Z</time>
      </trkpt>
      <trkpt lat="43.34480655379593372344970703125" lon="-5.04746046848595142364501953125">
        <ele>105.59999847412109375</ele>
        <time>2018-09-08T15:06:49.000Z</time>
      </trkpt>
      <trkpt lat="43.34479071199893951416015625" lon="-5.04758904688060283660888671875">
        <ele>106</ele>
        <time>2018-09-08T15:06:51.000Z</time>
      </trkpt>
      <trkpt lat="43.34476430900394916534423828125" lon="-5.0477753765881061553955078125">
        <ele>106.40000152587890625</ele>
        <time>2018-09-08T15:06:54.000Z</time>
      </trkpt>
      <trkpt lat="43.34475525654852390289306640625" lon="-5.047835893929004669189453125">
        <ele>106.59999847412109375</ele>
        <time>2018-09-08T15:06:55.000Z</time>
      </trkpt>
      <trkpt lat="43.34470328874886035919189453125" lon="-5.04806832410395145416259765625">
        <ele>107.40000152587890625</ele>
        <time>2018-09-08T15:06:59.000Z</time>
      </trkpt>
      <trkpt lat="43.34468417800962924957275390625" lon="-5.04812364466488361358642578125">
        <ele>107.8000030517578125</ele>
        <time>2018-09-08T15:07:00.000Z</time>
      </trkpt>
      <trkpt lat="43.3445233292877674102783203125" lon="-5.048511810600757598876953125">
        <ele>108.59999847412109375</ele>
        <time>2018-09-08T15:07:07.000Z</time>
      </trkpt>
      <trkpt lat="43.344494663178920745849609375" lon="-5.04856470040977001190185546875">
        <ele>108.8000030517578125</ele>
        <time>2018-09-08T15:07:08.000Z</time>
      </trkpt>
      <trkpt lat="43.34428888745605945587158203125" lon="-5.0489314086735248565673828125">
        <ele>109.8000030517578125</ele>
        <time>2018-09-08T15:07:15.000Z</time>
      </trkpt>
      <trkpt lat="43.34423222579061985015869140625" lon="-5.04904464818537235260009765625">
        <ele>109.8000030517578125</ele>
        <time>2018-09-08T15:07:17.000Z</time>
      </trkpt>
      <trkpt lat="43.3440992049872875213623046875" lon="-5.04943214356899261474609375">
        <ele>110</ele>
        <time>2018-09-08T15:07:23.000Z</time>
      </trkpt>
      <trkpt lat="43.3440576307475566864013671875" lon="-5.04989759065210819244384765625">
        <ele>110.1999969482421875</ele>
        <time>2018-09-08T15:07:29.000Z</time>
      </trkpt>
      <trkpt lat="43.3441049046814441680908203125" lon="-5.05025851540267467498779296875">
        <ele>109.1999969482421875</ele>
        <time>2018-09-08T15:07:33.000Z</time>
      </trkpt>
      <trkpt lat="43.344126529991626739501953125" lon="-5.05034987814724445343017578125">
        <ele>109</ele>
        <time>2018-09-08T15:07:34.000Z</time>
      </trkpt>
      <trkpt lat="43.3441535197198390960693359375" lon="-5.05044073797762393951416015625">
        <ele>108.8000030517578125</ele>
        <time>2018-09-08T15:07:35.000Z</time>
      </trkpt>
      <trkpt lat="43.34418579004704952239990234375" lon="-5.05053184926509857177734375">
        <ele>108.59999847412109375</ele>
        <time>2018-09-08T15:07:36.000Z</time>
      </trkpt>
      <trkpt lat="43.3442242629826068878173828125" lon="-5.05062061361968517303466796875">
        <ele>108.40000152587890625</ele>
        <time>2018-09-08T15:07:37.000Z</time>
      </trkpt>
      <trkpt lat="43.3442675136029720306396484375" lon="-5.0507082045078277587890625">
        <ele>108</ele>
        <time>2018-09-08T15:07:38.000Z</time>
      </trkpt>
      <trkpt lat="43.344316966831684112548828125" lon="-5.05079227499663829803466796875">
        <ele>107.40000152587890625</ele>
        <time>2018-09-08T15:07:39.000Z</time>
      </trkpt>
      <trkpt lat="43.344504050910472869873046875" lon="-5.051026046276092529296875">
        <ele>106</ele>
        <time>2018-09-08T15:07:42.000Z</time>
      </trkpt>
      <trkpt lat="43.34474645555019378662109375" lon="-5.0512139685451984405517578125">
        <ele>105</ele>
        <time>2018-09-08T15:07:45.000Z</time>
      </trkpt>
      <trkpt lat="43.344835303723812103271484375" lon="-5.05126803182065486907958984375">
        <ele>104.59999847412109375</ele>
        <time>2018-09-08T15:07:46.000Z</time>
      </trkpt>
      <trkpt lat="43.34501559846103191375732421875" lon="-5.05137783475220203399658203125">
        <ele>103</ele>
        <time>2018-09-08T15:07:48.000Z</time>
      </trkpt>
      <trkpt lat="43.3452044427394866943359375" lon="-5.0514902360737323760986328125">
        <ele>102</ele>
        <time>2018-09-08T15:07:50.000Z</time>
      </trkpt>
      <trkpt lat="43.3453983999788761138916015625" lon="-5.05160112865269184112548828125">
        <ele>101</ele>
        <time>2018-09-08T15:07:52.000Z</time>
      </trkpt>
      <trkpt lat="43.34549671970307826995849609375" lon="-5.05165913142263889312744140625">
        <ele>100.40000152587890625</ele>
        <time>2018-09-08T15:07:53.000Z</time>
      </trkpt>
      <trkpt lat="43.345596380531787872314453125" lon="-5.05171562545001506805419921875">
        <ele>99.8000030517578125</ele>
        <time>2018-09-08T15:07:54.000Z</time>
      </trkpt>
      <trkpt lat="43.34580047987401485443115234375" lon="-5.0518235005438327789306640625">
        <ele>98.59999847412109375</ele>
        <time>2018-09-08T15:07:56.000Z</time>
      </trkpt>
      <trkpt lat="43.34601254202425479888916015625" lon="-5.05190648138523101806640625">
        <ele>97.40000152587890625</ele>
        <time>2018-09-08T15:07:58.000Z</time>
      </trkpt>
      <trkpt lat="43.34611999802291393280029296875" lon="-5.05194009281694889068603515625">
        <ele>96.8000030517578125</ele>
        <time>2018-09-08T15:07:59.000Z</time>
      </trkpt>
      <trkpt lat="43.3462278731167316436767578125" lon="-5.051968507468700408935546875">
        <ele>96.1999969482421875</ele>
        <time>2018-09-08T15:08:00.000Z</time>
      </trkpt>
      <trkpt lat="43.3464488200843334197998046875" lon="-5.052017457783222198486328125">
        <ele>95.1999969482421875</ele>
        <time>2018-09-08T15:08:02.000Z</time>
      </trkpt>
      <trkpt lat="43.34676959551870822906494140625" lon="-5.052116699516773223876953125">
        <ele>94.1999969482421875</ele>
        <time>2018-09-08T15:08:05.000Z</time>
      </trkpt>
      <trkpt lat="43.346870429813861846923828125" lon="-5.05215869285166263580322265625">
        <ele>94.1999969482421875</ele>
        <time>2018-09-08T15:08:06.000Z</time>
      </trkpt>
      <trkpt lat="43.34696472622454166412353515625" lon="-5.05221568979322910308837890625">
        <ele>93.8000030517578125</ele>
        <time>2018-09-08T15:08:07.000Z</time>
      </trkpt>
      <trkpt lat="43.34713655523955821990966796875" lon="-5.05235298536717891693115234375">
        <ele>93</ele>
        <time>2018-09-08T15:08:09.000Z</time>
      </trkpt>
      <trkpt lat="43.34728625603020191192626953125" lon="-5.05251534283161163330078125">
        <ele>92.8000030517578125</ele>
        <time>2018-09-08T15:08:11.000Z</time>
      </trkpt>
      <trkpt lat="43.3474147506058216094970703125" lon="-5.0527093000710010528564453125">
        <ele>92.1999969482421875</ele>
        <time>2018-09-08T15:08:13.000Z</time>
      </trkpt>
      <trkpt lat="43.34747292101383209228515625" lon="-5.0528145767748355865478515625">
        <ele>92</ele>
        <time>2018-09-08T15:08:14.000Z</time>
      </trkpt>
      <trkpt lat="43.34773703478276729583740234375" lon="-5.05336023867130279541015625">
        <ele>91.59999847412109375</ele>
        <time>2018-09-08T15:08:19.000Z</time>
      </trkpt>
      <trkpt lat="43.34790852852165699005126953125" lon="-5.05382199771702289581298828125">
        <ele>91</ele>
        <time>2018-09-08T15:08:23.000Z</time>
      </trkpt>
      <trkpt lat="43.34794423542916774749755859375" lon="-5.05394571460783481597900390625">
        <ele>90.8000030517578125</ele>
        <time>2018-09-08T15:08:24.000Z</time>
      </trkpt>
      <trkpt lat="43.34808672778308391571044921875" lon="-5.0545813143253326416015625">
        <ele>87.40000152587890625</ele>
        <time>2018-09-08T15:08:29.000Z</time>
      </trkpt>
      <trkpt lat="43.34811338223516941070556640625" lon="-5.05470729433000087738037109375">
        <ele>88</ele>
        <time>2018-09-08T15:08:30.000Z</time>
      </trkpt>
      <trkpt lat="43.3481634221971035003662109375" lon="-5.05496059544384479522705078125">
        <ele>89.1999969482421875</ele>
        <time>2018-09-08T15:08:32.000Z</time>
      </trkpt>
      <trkpt lat="43.34818764589726924896240234375" lon="-5.05508758127689361572265625">
        <ele>87.40000152587890625</ele>
        <time>2018-09-08T15:08:33.000Z</time>
      </trkpt>
      <trkpt lat="43.34823592565953731536865234375" lon="-5.0554753281176090240478515625">
        <ele>85.40000152587890625</ele>
        <time>2018-09-08T15:08:36.000Z</time>
      </trkpt>
      <trkpt lat="43.34823600947856903076171875" lon="-5.05560767836868762969970703125">
        <ele>85.1999969482421875</ele>
        <time>2018-09-08T15:08:37.000Z</time>
      </trkpt>
      <trkpt lat="43.34822888486087322235107421875" lon="-5.05574095062911510467529296875">
        <ele>87.59999847412109375</ele>
        <time>2018-09-08T15:08:38.000Z</time>
      </trkpt>
      <trkpt lat="43.34820273332297801971435546875" lon="-5.05601294338703155517578125">
        <ele>86.8000030517578125</ele>
        <time>2018-09-08T15:08:40.000Z</time>
      </trkpt>
      <trkpt lat="43.34818370640277862548828125" lon="-5.05615350790321826934814453125">
        <ele>84.59999847412109375</ele>
        <time>2018-09-08T15:08:41.000Z</time>
      </trkpt>
      <trkpt lat="43.34814338944852352142333984375" lon="-5.05643698386847972869873046875">
        <ele>83.40000152587890625</ele>
        <time>2018-09-08T15:08:43.000Z</time>
      </trkpt>
      <trkpt lat="43.34809712134301662445068359375" lon="-5.05672372877597808837890625">
        <ele>82.40000152587890625</ele>
        <time>2018-09-08T15:08:45.000Z</time>
      </trkpt>
      <trkpt lat="43.348054625093936920166015625" lon="-5.05700401961803436279296875">
        <ele>81.1999969482421875</ele>
        <time>2018-09-08T15:08:47.000Z</time>
      </trkpt>
      <trkpt lat="43.348034508526325225830078125" lon="-5.05714441649615764617919921875">
        <ele>80.59999847412109375</ele>
        <time>2018-09-08T15:08:48.000Z</time>
      </trkpt>
      <trkpt lat="43.34799285046756267547607421875" lon="-5.05742370150983333587646484375">
        <ele>80.1999969482421875</ele>
        <time>2018-09-08T15:08:50.000Z</time>
      </trkpt>
      <trkpt lat="43.3478734083473682403564453125" lon="-5.0582400150597095489501953125">
        <ele>79.59999847412109375</ele>
        <time>2018-09-08T15:08:56.000Z</time>
      </trkpt>
      <trkpt lat="43.34785337559878826141357421875" lon="-5.05837873555719852447509765625">
        <ele>79.40000152587890625</ele>
        <time>2018-09-08T15:08:57.000Z</time>
      </trkpt>
      <trkpt lat="43.3478050120174884796142578125" lon="-5.0586510635912418365478515625">
        <ele>79</ele>
        <time>2018-09-08T15:08:59.000Z</time>
      </trkpt>
      <trkpt lat="43.34769629873335361480712890625" lon="-5.05901726894080638885498046875">
        <ele>80</ele>
        <time>2018-09-08T15:09:02.000Z</time>
      </trkpt>
      <trkpt lat="43.347650952637195587158203125" lon="-5.0591271556913852691650390625">
        <ele>80.1999969482421875</ele>
        <time>2018-09-08T15:09:03.000Z</time>
      </trkpt>
      <trkpt lat="43.34744098596274852752685546875" lon="-5.0595217756927013397216796875">
        <ele>80.1999969482421875</ele>
        <time>2018-09-08T15:09:07.000Z</time>
      </trkpt>
      <trkpt lat="43.34724359214305877685546875" lon="-5.0598798505961894989013671875">
        <ele>81</ele>
        <time>2018-09-08T15:09:11.000Z</time>
      </trkpt>
      <trkpt lat="43.347162790596485137939453125" lon="-5.0600610673427581787109375">
        <ele>81.1999969482421875</ele>
        <time>2018-09-08T15:09:13.000Z</time>
      </trkpt>
      <trkpt lat="43.34705743007361888885498046875" lon="-5.06040816195309162139892578125">
        <ele>81.8000030517578125</ele>
        <time>2018-09-08T15:09:17.000Z</time>
      </trkpt>
      <trkpt lat="43.3470389060676097869873046875" lon="-5.06049063988029956817626953125">
        <ele>82</ele>
        <time>2018-09-08T15:09:18.000Z</time>
      </trkpt>
      <trkpt lat="43.3470248244702816009521484375" lon="-5.06057194434106349945068359375">
        <ele>82.40000152587890625</ele>
        <time>2018-09-08T15:09:19.000Z</time>
      </trkpt>
      <trkpt lat="43.3469983376562595367431640625" lon="-5.06090353243052959442138671875">
        <ele>82.59999847412109375</ele>
        <time>2018-09-08T15:09:23.000Z</time>
      </trkpt>
      <trkpt lat="43.3470549993216991424560546875" lon="-5.06140879355370998382568359375">
        <ele>83.1999969482421875</ele>
        <time>2018-09-08T15:09:29.000Z</time>
      </trkpt>
      <trkpt lat="43.3471827395260334014892578125" lon="-5.0622014701366424560546875">
        <ele>82.8000030517578125</ele>
        <time>2018-09-08T15:09:38.000Z</time>
      </trkpt>
      <trkpt lat="43.3471978269517421722412109375" lon="-5.06229241378605365753173828125">
        <ele>82.59999847412109375</ele>
        <time>2018-09-08T15:09:39.000Z</time>
      </trkpt>
      <trkpt lat="43.3472803048789501190185546875" lon="-5.0628514029085636138916015625">
        <ele>81.59999847412109375</ele>
        <time>2018-09-08T15:09:45.000Z</time>
      </trkpt>
      <trkpt lat="43.34731324575841426849365234375" lon="-5.06304024718701839447021484375">
        <ele>81.59999847412109375</ele>
        <time>2018-09-08T15:09:47.000Z</time>
      </trkpt>
      <trkpt lat="43.3473544009029865264892578125" lon="-5.06331659853458404541015625">
        <ele>81</ele>
        <time>2018-09-08T15:09:50.000Z</time>
      </trkpt>
      <trkpt lat="43.34740008227527141571044921875" lon="-5.06357350386679172515869140625">
        <ele>80.59999847412109375</ele>
        <time>2018-09-08T15:09:53.000Z</time>
      </trkpt>
      <trkpt lat="43.3475156687200069427490234375" lon="-5.0640976242721080780029296875">
        <ele>80</ele>
        <time>2018-09-08T15:09:59.000Z</time>
      </trkpt>
      <trkpt lat="43.3475418202579021453857421875" lon="-5.064185298979282379150390625">
        <ele>79.8000030517578125</ele>
        <time>2018-09-08T15:10:00.000Z</time>
      </trkpt>
      <trkpt lat="43.34777089767158031463623046875" lon="-5.0648928992450237274169921875">
        <ele>79.1999969482421875</ele>
        <time>2018-09-08T15:10:08.000Z</time>
      </trkpt>
      <trkpt lat="43.34780174307525157928466796875" lon="-5.06498099304735660552978515625">
        <ele>79</ele>
        <time>2018-09-08T15:10:09.000Z</time>
      </trkpt>
      <trkpt lat="43.34802872501313686370849609375" lon="-5.06560125388205051422119140625">
        <ele>78.1999969482421875</ele>
        <time>2018-09-08T15:10:16.000Z</time>
      </trkpt>
      <trkpt lat="43.34805923514068126678466796875" lon="-5.06569194607436656951904296875">
        <ele>78</ele>
        <time>2018-09-08T15:10:17.000Z</time>
      </trkpt>
      <trkpt lat="43.348152525722980499267578125" lon="-5.06596519611775875091552734375">
        <ele>77.59999847412109375</ele>
        <time>2018-09-08T15:10:20.000Z</time>
      </trkpt>
      <trkpt lat="43.3482640050351619720458984375" lon="-5.06622620858252048492431640625">
        <ele>77.59999847412109375</ele>
        <time>2018-09-08T15:10:23.000Z</time>
      </trkpt>
      <trkpt lat="43.34838260896503925323486328125" lon="-5.066603980958461761474609375">
        <ele>76.40000152587890625</ele>
        <time>2018-09-08T15:10:27.000Z</time>
      </trkpt>
      <trkpt lat="43.348404653370380401611328125" lon="-5.06670414470136165618896484375">
        <ele>76.40000152587890625</ele>
        <time>2018-09-08T15:10:28.000Z</time>
      </trkpt>
      <trkpt lat="43.34842066280543804168701171875" lon="-5.06680615246295928955078125">
        <ele>76.8000030517578125</ele>
        <time>2018-09-08T15:10:29.000Z</time>
      </trkpt>
      <trkpt lat="43.3484326489269733428955078125" lon="-5.06690950132906436920166015625">
        <ele>77.59999847412109375</ele>
        <time>2018-09-08T15:10:30.000Z</time>
      </trkpt>
      <trkpt lat="43.34844362922012805938720703125" lon="-5.06722063757479190826416015625">
        <ele>76.59999847412109375</ele>
        <time>2018-09-08T15:10:33.000Z</time>
      </trkpt>
      <trkpt lat="43.34844052791595458984375" lon="-5.06732557900249958038330078125">
        <ele>76.59999847412109375</ele>
        <time>2018-09-08T15:10:34.000Z</time>
      </trkpt>
      <trkpt lat="43.348415382206439971923828125" lon="-5.067530013620853424072265625">
        <ele>76.40000152587890625</ele>
        <time>2018-09-08T15:10:36.000Z</time>
      </trkpt>
      <trkpt lat="43.3483640849590301513671875" lon="-5.06772690452635288238525390625">
        <ele>76.1999969482421875</ele>
        <time>2018-09-08T15:10:38.000Z</time>
      </trkpt>
      <trkpt lat="43.3482965268194675445556640625" lon="-5.06791817955672740936279296875">
        <ele>75.59999847412109375</ele>
        <time>2018-09-08T15:10:40.000Z</time>
      </trkpt>
      <trkpt lat="43.34821212105453014373779296875" lon="-5.06809629499912261962890625">
        <ele>75.40000152587890625</ele>
        <time>2018-09-08T15:10:42.000Z</time>
      </trkpt>
      <trkpt lat="43.34816266782581806182861328125" lon="-5.068177767097949981689453125">
        <ele>75.1999969482421875</ele>
        <time>2018-09-08T15:10:43.000Z</time>
      </trkpt>
      <trkpt lat="43.34785337559878826141357421875" lon="-5.068526454269886016845703125">
        <ele>75</ele>
        <time>2018-09-08T15:10:48.000Z</time>
      </trkpt>
      <trkpt lat="43.3477795310318470001220703125" lon="-5.0685812719166278839111328125">
        <ele>74.8000030517578125</ele>
        <time>2018-09-08T15:10:49.000Z</time>
      </trkpt>
      <trkpt lat="43.34762848913669586181640625" lon="-5.0686647556722164154052734375">
        <ele>74.59999847412109375</ele>
        <time>2018-09-08T15:10:51.000Z</time>
      </trkpt>
      <trkpt lat="43.34754894487559795379638671875" lon="-5.0686956010758876800537109375">
        <ele>74.40000152587890625</ele>
        <time>2018-09-08T15:10:52.000Z</time>
      </trkpt>
      <trkpt lat="43.34731140173971652984619140625" lon="-5.068734996020793914794921875">
        <ele>74</ele>
        <time>2018-09-08T15:10:55.000Z</time>
      </trkpt>
      <trkpt lat="43.34715398959815502166748046875" lon="-5.0687380135059356689453125">
        <ele>74.1999969482421875</ele>
        <time>2018-09-08T15:10:57.000Z</time>
      </trkpt>
      <trkpt lat="43.34690974093973636627197265625" lon="-5.06872988305985927581787109375">
        <ele>73.40000152587890625</ele>
        <time>2018-09-08T15:11:00.000Z</time>
      </trkpt>
      <trkpt lat="43.34666331298649311065673828125" lon="-5.06874044425785541534423828125">
        <ele>73.1999969482421875</ele>
        <time>2018-09-08T15:11:03.000Z</time>
      </trkpt>
      <trkpt lat="43.34658242762088775634765625" lon="-5.0687549449503421783447265625">
        <ele>73.1999969482421875</ele>
        <time>2018-09-08T15:11:04.000Z</time>
      </trkpt>
      <trkpt lat="43.34642442874610424041748046875" lon="-5.0688139535486698150634765625">
        <ele>73</ele>
        <time>2018-09-08T15:11:06.000Z</time>
      </trkpt>
      <trkpt lat="43.34627657197415828704833984375" lon="-5.0689081661403179168701171875">
        <ele>73</ele>
        <time>2018-09-08T15:11:08.000Z</time>
      </trkpt>
      <trkpt lat="43.346021510660648345947265625" lon="-5.0691725313663482666015625">
        <ele>73</ele>
        <time>2018-09-08T15:11:12.000Z</time>
      </trkpt>
      <trkpt lat="43.34586351178586483001708984375" lon="-5.0694037042558193206787109375">
        <ele>73.40000152587890625</ele>
        <time>2018-09-08T15:11:15.000Z</time>
      </trkpt>
      <trkpt lat="43.34571515209972858428955078125" lon="-5.06965457461774349212646484375">
        <ele>73.59999847412109375</ele>
        <time>2018-09-08T15:11:18.000Z</time>
      </trkpt>
      <trkpt lat="43.34548473358154296875" lon="-5.07007165811955928802490234375">
        <ele>74</ele>
        <time>2018-09-08T15:11:23.000Z</time>
      </trkpt>
      <trkpt lat="43.34531315602362155914306640625" lon="-5.07041363976895809173583984375">
        <ele>74</ele>
        <time>2018-09-08T15:11:27.000Z</time>
      </trkpt>
      <trkpt lat="43.34520016796886920928955078125" lon="-5.07080758921802043914794921875">
        <ele>73.59999847412109375</ele>
        <time>2018-09-08T15:11:31.000Z</time>
      </trkpt>
      <trkpt lat="43.34518122486770153045654296875" lon="-5.0709079205989837646484375">
        <ele>73.59999847412109375</ele>
        <time>2018-09-08T15:11:32.000Z</time>
      </trkpt>
      <trkpt lat="43.345159180462360382080078125" lon="-5.0713094137609004974365234375">
        <ele>73.40000152587890625</ele>
        <time>2018-09-08T15:11:36.000Z</time>
      </trkpt>
      <trkpt lat="43.3451653830707073211669921875" lon="-5.07141259498894214630126953125">
        <ele>73.40000152587890625</ele>
        <time>2018-09-08T15:11:37.000Z</time>
      </trkpt>
      <trkpt lat="43.34524978883564472198486328125" lon="-5.0719236396253108978271484375">
        <ele>73</ele>
        <time>2018-09-08T15:11:42.000Z</time>
      </trkpt>
      <trkpt lat="43.34543989039957523345947265625" lon="-5.07270005531609058380126953125">
        <ele>73</ele>
        <time>2018-09-08T15:11:50.000Z</time>
      </trkpt>
      <trkpt lat="43.34548867307603359222412109375" lon="-5.0728966109454631805419921875">
        <ele>73</ele>
        <time>2018-09-08T15:11:52.000Z</time>
      </trkpt>
      <trkpt lat="43.345680870115756988525390625" lon="-5.0735721923410892486572265625">
        <ele>72.59999847412109375</ele>
        <time>2018-09-08T15:11:59.000Z</time>
      </trkpt>
      <trkpt lat="43.3458079397678375244140625" lon="-5.0739611126482486724853515625">
        <ele>72.40000152587890625</ele>
        <time>2018-09-08T15:12:03.000Z</time>
      </trkpt>
      <trkpt lat="43.34595403634011745452880859375" lon="-5.074339471757411956787109375">
        <ele>72.40000152587890625</ele>
        <time>2018-09-08T15:12:07.000Z</time>
      </trkpt>
      <trkpt lat="43.3462325669825077056884765625" lon="-5.075055621564388275146484375">
        <ele>71.8000030517578125</ele>
        <time>2018-09-08T15:12:15.000Z</time>
      </trkpt>
      <trkpt lat="43.346431888639926910400390625" lon="-5.07558795623481273651123046875">
        <ele>72</ele>
        <time>2018-09-08T15:12:21.000Z</time>
      </trkpt>
      <trkpt lat="43.34646650590002536773681640625" lon="-5.07567965425550937652587890625">
        <ele>71.8000030517578125</ele>
        <time>2018-09-08T15:12:22.000Z</time>
      </trkpt>
      <trkpt lat="43.3467091619968414306640625" lon="-5.07621609605848789215087890625">
        <ele>71.1999969482421875</ele>
        <time>2018-09-08T15:12:28.000Z</time>
      </trkpt>
      <trkpt lat="43.3468065597116947174072265625" lon="-5.07637937553226947784423828125">
        <ele>71</ele>
        <time>2018-09-08T15:12:30.000Z</time>
      </trkpt>
      <trkpt lat="43.3471409976482391357421875" lon="-5.0769752450287342071533203125">
        <ele>70.59999847412109375</ele>
        <time>2018-09-08T15:12:37.000Z</time>
      </trkpt>
      <trkpt lat="43.3472816459834575653076171875" lon="-5.0772354193031787872314453125">
        <ele>70.40000152587890625</ele>
        <time>2018-09-08T15:12:40.000Z</time>
      </trkpt>
      <trkpt lat="43.3474127389490604400634765625" lon="-5.077505819499492645263671875">
        <ele>70.1999969482421875</ele>
        <time>2018-09-08T15:12:43.000Z</time>
      </trkpt>
      <trkpt lat="43.3475555665791034698486328125" lon="-5.077888034284114837646484375">
        <ele>70</ele>
        <time>2018-09-08T15:12:47.000Z</time>
      </trkpt>
      <trkpt lat="43.3476886712014675140380859375" lon="-5.07841902785003185272216796875">
        <ele>69.40000152587890625</ele>
        <time>2018-09-08T15:12:52.000Z</time>
      </trkpt>
      <trkpt lat="43.34770669229328632354736328125" lon="-5.078530423343181610107421875">
        <ele>69.1999969482421875</ele>
        <time>2018-09-08T15:12:53.000Z</time>
      </trkpt>
      <trkpt lat="43.34777743555605411529541015625" lon="-5.07920801639556884765625">
        <ele>68.1999969482421875</ele>
        <time>2018-09-08T15:12:59.000Z</time>
      </trkpt>
      <trkpt lat="43.347787745296955108642578125" lon="-5.07931773550808429718017578125">
        <ele>67.8000030517578125</ele>
        <time>2018-09-08T15:13:00.000Z</time>
      </trkpt>
      <trkpt lat="43.3478506095707416534423828125" lon="-5.07997085340321063995361328125">
        <ele>67.8000030517578125</ele>
        <time>2018-09-08T15:13:06.000Z</time>
      </trkpt>
      <trkpt lat="43.34787533618509769439697265625" lon="-5.08018526248633861541748046875">
        <ele>67.59999847412109375</ele>
        <time>2018-09-08T15:13:08.000Z</time>
      </trkpt>
      <trkpt lat="43.3479622565209865570068359375" lon="-5.081018842756748199462890625">
        <ele>67.59999847412109375</ele>
        <time>2018-09-08T15:13:16.000Z</time>
      </trkpt>
      <trkpt lat="43.3480031602084636688232421875" lon="-5.08157766424119472503662109375">
        <ele>67.1999969482421875</ele>
        <time>2018-09-08T15:13:22.000Z</time>
      </trkpt>
      <trkpt lat="43.3480162359774112701416015625" lon="-5.081835575401782989501953125">
        <ele>67.40000152587890625</ele>
        <time>2018-09-08T15:13:25.000Z</time>
      </trkpt>
      <trkpt lat="43.34799997508525848388671875" lon="-5.08216573856770992279052734375">
        <ele>67.40000152587890625</ele>
        <time>2018-09-08T15:13:29.000Z</time>
      </trkpt>
      <trkpt lat="43.34797139279544353485107421875" lon="-5.0823973305523395538330078125">
        <ele>67.1999969482421875</ele>
        <time>2018-09-08T15:13:32.000Z</time>
      </trkpt>
      <trkpt lat="43.34791959263384342193603515625" lon="-5.0827391445636749267578125">
        <ele>66.40000152587890625</ele>
        <time>2018-09-08T15:13:36.000Z</time>
      </trkpt>
      <trkpt lat="43.34787047468125820159912109375" lon="-5.08301197551190853118896484375">
        <ele>66.59999847412109375</ele>
        <time>2018-09-08T15:13:39.000Z</time>
      </trkpt>
      <trkpt lat="43.34780023433268070220947265625" lon="-5.08344917558133602142333984375">
        <ele>66.40000152587890625</ele>
        <time>2018-09-08T15:13:44.000Z</time>
      </trkpt>
      <trkpt lat="43.3476933650672435760498046875" lon="-5.084044374525547027587890625">
        <ele>66</ele>
        <time>2018-09-08T15:13:51.000Z</time>
      </trkpt>
      <trkpt lat="43.34764055907726287841796875" lon="-5.0842906348407268524169921875">
        <ele>66</ele>
        <time>2018-09-08T15:13:54.000Z</time>
      </trkpt>
      <trkpt lat="43.34749278612434864044189453125" lon="-5.0850285775959491729736328125">
        <ele>65.8000030517578125</ele>
        <time>2018-09-08T15:14:03.000Z</time>
      </trkpt>
      <trkpt lat="43.3473269082605838775634765625" lon="-5.0855355150997638702392578125">
        <ele>66</ele>
        <time>2018-09-08T15:14:10.000Z</time>
      </trkpt>
      <trkpt lat="43.34717595018446445465087890625" lon="-5.085826031863689422607421875">
        <ele>66.1999969482421875</ele>
        <time>2018-09-08T15:14:15.000Z</time>
      </trkpt>
      <trkpt lat="43.34715633653104305267333984375" lon="-5.08602778427302837371826171875">
        <ele>66.1999969482421875</ele>
        <time>2018-09-08T15:14:19.000Z</time>
      </trkpt>
      <trkpt lat="43.34716069512069225311279296875" lon="-5.0862248428165912628173828125">
        <ele>66.1999969482421875</ele>
        <time>2018-09-08T15:14:24.000Z</time>
      </trkpt>
      <trkpt lat="43.3471803925931453704833984375" lon="-5.08642776869237422943115234375">
        <ele>66.1999969482421875</ele>
        <time>2018-09-08T15:14:28.000Z</time>
      </trkpt>
    </trkseg>
  </trk>
</gpx>
